<?xml version="1.0" encoding="UTF-8"?>
<TrainingCenterDatabase xmlns="http://www.garmin.com/xmlschemas/TrainingCenterDatabase/v2" xmlns:xsi="http://www.w3.org/2001/XMLSchema-instance" xsi:schemaLocation="http://www.garmin.com/xmlschemas/TrainingCenterDatabase/v2 http://www.garmin.com/xmlschemas/TrainingCenterDatabasev2.xsd">
  <Activities>
    <Activity Sport="Other">
      <Id>2018-09-13T07:13:46.000Z</Id>
      <Lap StartTime="2018-09-13T07:13:46.000Z">
        <TotalTimeSeconds>82281</TotalTimeSeconds>
        <DistanceMeters>394030</DistanceMeters>
        <Track>
          <Trackpoint>
            <Time>2018-09-13T07:13:46.000Z</Time>
            <Position>
              <LatitudeDegrees>39.80620239861309528350830078125</LatitudeDegrees>
              <LongitudeDegrees>-8.0997094698250293731689453125</LongitudeDegrees>
            </Position>
            <AltitudeMeters>243.600006103515625</AltitudeMeters>
            <DistanceMeters>0</DistanceMeters>
          </Trackpoint>
          <Trackpoint>
            <Time>2018-09-13T07:19:07.000Z</Time>
            <Position>
              <LatitudeDegrees>39.8059547133743762969970703125</LatitudeDegrees>
              <LongitudeDegrees>-8.09947737492620944976806640625</LongitudeDegrees>
            </Position>
            <AltitudeMeters>243.399993896484375</AltitudeMeters>
            <DistanceMeters>33.967763946903</DistanceMeters>
          </Trackpoint>
          <Trackpoint>
            <Time>2018-09-13T07:19:08.000Z</Time>
            <Position>
              <LatitudeDegrees>39.80593987740576267242431640625</LatitudeDegrees>
              <LongitudeDegrees>-8.099498748779296875</LongitudeDegrees>
            </Position>
            <AltitudeMeters>243</AltitudeMeters>
            <DistanceMeters>36.431137927917</DistanceMeters>
          </Trackpoint>
          <Trackpoint>
            <Time>2018-09-13T07:19:13.000Z</Time>
            <Position>
              <LatitudeDegrees>39.80584750883281230926513671875</LatitudeDegrees>
              <LongitudeDegrees>-8.0996182747185230255126953125</LongitudeDegrees>
            </Position>
            <AltitudeMeters>241</AltitudeMeters>
            <DistanceMeters>50.927618156021</DistanceMeters>
          </Trackpoint>
          <Trackpoint>
            <Time>2018-09-13T07:19:18.000Z</Time>
            <Position>
              <LatitudeDegrees>39.80574575252830982208251953125</LatitudeDegrees>
              <LongitudeDegrees>-8.09973922558128833770751953125</LongitudeDegrees>
            </Position>
            <AltitudeMeters>239</AltitudeMeters>
            <DistanceMeters>66.264941630641</DistanceMeters>
          </Trackpoint>
          <Trackpoint>
            <Time>2018-09-13T07:19:21.000Z</Time>
            <Position>
              <LatitudeDegrees>39.80564567260444164276123046875</LatitudeDegrees>
              <LongitudeDegrees>-8.09981784783303737640380859375</LongitudeDegrees>
            </Position>
            <AltitudeMeters>237.8000030517578125</AltitudeMeters>
            <DistanceMeters>79.27562235912</DistanceMeters>
          </Trackpoint>
          <Trackpoint>
            <Time>2018-09-13T07:19:25.000Z</Time>
            <Position>
              <LatitudeDegrees>39.80549714528024196624755859375</LatitudeDegrees>
              <LongitudeDegrees>-8.099914155900478363037109375</LongitudeDegrees>
            </Position>
            <AltitudeMeters>236</AltitudeMeters>
            <DistanceMeters>97.744327714876</DistanceMeters>
          </Trackpoint>
          <Trackpoint>
            <Time>2018-09-13T07:19:28.000Z</Time>
            <Position>
              <LatitudeDegrees>39.80540242977440357208251953125</LatitudeDegrees>
              <LongitudeDegrees>-8.0999131500720977783203125</LongitudeDegrees>
            </Position>
            <AltitudeMeters>236</AltitudeMeters>
            <DistanceMeters>108.28672691393</DistanceMeters>
          </Trackpoint>
          <Trackpoint>
            <Time>2018-09-13T07:19:31.000Z</Time>
            <Position>
              <LatitudeDegrees>39.80530285276472568511962890625</LatitudeDegrees>
              <LongitudeDegrees>-8.09988020919263362884521484375</LongitudeDegrees>
            </Position>
            <AltitudeMeters>236.399993896484375</AltitudeMeters>
            <DistanceMeters>119.72235400917</DistanceMeters>
          </Trackpoint>
          <Trackpoint>
            <Time>2018-09-13T07:19:39.000Z</Time>
            <Position>
              <LatitudeDegrees>39.80500278063118457794189453125</LatitudeDegrees>
              <LongitudeDegrees>-8.09973637573421001434326171875</LongitudeDegrees>
            </Position>
            <AltitudeMeters>238.600006103515625</AltitudeMeters>
            <DistanceMeters>155.31337904932</DistanceMeters>
          </Trackpoint>
          <Trackpoint>
            <Time>2018-09-13T07:19:46.000Z</Time>
            <Position>
              <LatitudeDegrees>39.80467169545590877532958984375</LatitudeDegrees>
              <LongitudeDegrees>-8.0995837412774562835693359375</LongitudeDegrees>
            </Position>
            <AltitudeMeters>237.1999969482421875</AltitudeMeters>
            <DistanceMeters>194.40668100356</DistanceMeters>
          </Trackpoint>
          <Trackpoint>
            <Time>2018-09-13T07:19:52.000Z</Time>
            <Position>
              <LatitudeDegrees>39.8043494112789630889892578125</LatitudeDegrees>
              <LongitudeDegrees>-8.09944652952253818511962890625</LongitudeDegrees>
            </Position>
            <AltitudeMeters>235.8000030517578125</AltitudeMeters>
            <DistanceMeters>232.14736340188</DistanceMeters>
          </Trackpoint>
          <Trackpoint>
            <Time>2018-09-13T07:19:57.000Z</Time>
            <Position>
              <LatitudeDegrees>39.8040662705898284912109375</LatitudeDegrees>
              <LongitudeDegrees>-8.09933421202003955841064453125</LongitudeDegrees>
            </Position>
            <AltitudeMeters>234.600006103515625</AltitudeMeters>
            <DistanceMeters>265.09245511916</DistanceMeters>
          </Trackpoint>
          <Trackpoint>
            <Time>2018-09-13T07:20:02.000Z</Time>
            <Position>
              <LatitudeDegrees>39.80380601249635219573974609375</LatitudeDegrees>
              <LongitudeDegrees>-8.09925726614892482757568359375</LongitudeDegrees>
            </Position>
            <AltitudeMeters>233.600006103515625</AltitudeMeters>
            <DistanceMeters>294.79753852042</DistanceMeters>
          </Trackpoint>
          <Trackpoint>
            <Time>2018-09-13T07:20:05.000Z</Time>
            <Position>
              <LatitudeDegrees>39.8036550544202327728271484375</LatitudeDegrees>
              <LongitudeDegrees>-8.0992169491946697235107421875</LongitudeDegrees>
            </Position>
            <AltitudeMeters>233</AltitudeMeters>
            <DistanceMeters>311.94926818221</DistanceMeters>
          </Trackpoint>
          <Trackpoint>
            <Time>2018-09-13T07:20:11.000Z</Time>
            <Position>
              <LatitudeDegrees>39.8033871687948703765869140625</LatitudeDegrees>
              <LongitudeDegrees>-8.09913388453423976898193359375</LongitudeDegrees>
            </Position>
            <AltitudeMeters>232.600006103515625</AltitudeMeters>
            <DistanceMeters>342.59976626829</DistanceMeters>
          </Trackpoint>
          <Trackpoint>
            <Time>2018-09-13T07:20:17.000Z</Time>
            <Position>
              <LatitudeDegrees>39.80312406085431575775146484375</LatitudeDegrees>
              <LongitudeDegrees>-8.0990563519299030303955078125</LongitudeDegrees>
            </Position>
            <AltitudeMeters>232.1999969482421875</AltitudeMeters>
            <DistanceMeters>372.62520068414</DistanceMeters>
          </Trackpoint>
          <Trackpoint>
            <Time>2018-09-13T07:20:24.000Z</Time>
            <Position>
              <LatitudeDegrees>39.80282373726367950439453125</LatitudeDegrees>
              <LongitudeDegrees>-8.098986782133579254150390625</LongitudeDegrees>
            </Position>
            <AltitudeMeters>230.1999969482421875</AltitudeMeters>
            <DistanceMeters>406.57701033222</DistanceMeters>
          </Trackpoint>
          <Trackpoint>
            <Time>2018-09-13T07:20:27.000Z</Time>
            <Position>
              <LatitudeDegrees>39.8027008585631847381591796875</LatitudeDegrees>
              <LongitudeDegrees>-8.09895895421504974365234375</LongitudeDegrees>
            </Position>
            <AltitudeMeters>230.1999969482421875</AltitudeMeters>
            <DistanceMeters>420.45936933445</DistanceMeters>
          </Trackpoint>
          <Trackpoint>
            <Time>2018-09-13T07:20:29.000Z</Time>
            <Position>
              <LatitudeDegrees>39.80261779390275478363037109375</LatitudeDegrees>
              <LongitudeDegrees>-8.09894084930419921875</LongitudeDegrees>
            </Position>
            <AltitudeMeters>230</AltitudeMeters>
            <DistanceMeters>429.83384019699</DistanceMeters>
          </Trackpoint>
          <Trackpoint>
            <Time>2018-09-13T07:20:32.000Z</Time>
            <Position>
              <LatitudeDegrees>39.80248787440359592437744140625</LatitudeDegrees>
              <LongitudeDegrees>-8.098909668624401092529296875</LongitudeDegrees>
            </Position>
            <AltitudeMeters>230</AltitudeMeters>
            <DistanceMeters>444.53751627549</DistanceMeters>
          </Trackpoint>
          <Trackpoint>
            <Time>2018-09-13T07:20:35.000Z</Time>
            <Position>
              <LatitudeDegrees>39.80235694907605648040771484375</LatitudeDegrees>
              <LongitudeDegrees>-8.098880834877490997314453125</LongitudeDegrees>
            </Position>
            <AltitudeMeters>229.600006103515625</AltitudeMeters>
            <DistanceMeters>459.31653819936</DistanceMeters>
          </Trackpoint>
          <Trackpoint>
            <Time>2018-09-13T07:20:36.000Z</Time>
            <Position>
              <LatitudeDegrees>39.8023146204650402069091796875</LatitudeDegrees>
              <LongitudeDegrees>-8.098866082727909088134765625</LongitudeDegrees>
            </Position>
            <AltitudeMeters>229.399993896484375</AltitudeMeters>
            <DistanceMeters>464.19354766761</DistanceMeters>
          </Trackpoint>
          <Trackpoint>
            <Time>2018-09-13T07:20:39.000Z</Time>
            <Position>
              <LatitudeDegrees>39.80219702236354351043701171875</LatitudeDegrees>
              <LongitudeDegrees>-8.0987794138491153717041015625</LongitudeDegrees>
            </Position>
            <AltitudeMeters>228.600006103515625</AltitudeMeters>
            <DistanceMeters>479.23480875925</DistanceMeters>
          </Trackpoint>
          <Trackpoint>
            <Time>2018-09-13T07:20:45.000Z</Time>
            <Position>
              <LatitudeDegrees>39.8020789213478565216064453125</LatitudeDegrees>
              <LongitudeDegrees>-8.09844070114195346832275390625</LongitudeDegrees>
            </Position>
            <AltitudeMeters>227.1999969482421875</AltitudeMeters>
            <DistanceMeters>511.04094706528</DistanceMeters>
          </Trackpoint>
          <Trackpoint>
            <Time>2018-09-13T07:20:56.000Z</Time>
            <Position>
              <LatitudeDegrees>39.80201278813183307647705078125</LatitudeDegrees>
              <LongitudeDegrees>-8.0977266468107700347900390625</LongitudeDegrees>
            </Position>
            <AltitudeMeters>225.1999969482421875</AltitudeMeters>
            <DistanceMeters>572.54107372151</DistanceMeters>
          </Trackpoint>
          <Trackpoint>
            <Time>2018-09-13T07:21:07.000Z</Time>
            <Position>
              <LatitudeDegrees>39.80191606096923351287841796875</LatitudeDegrees>
              <LongitudeDegrees>-8.09701125137507915496826171875</LongitudeDegrees>
            </Position>
            <AltitudeMeters>226.600006103515625</AltitudeMeters>
            <DistanceMeters>634.65395370582</DistanceMeters>
          </Trackpoint>
          <Trackpoint>
            <Time>2018-09-13T07:21:08.000Z</Time>
            <Position>
              <LatitudeDegrees>39.80189644731581211090087890625</LatitudeDegrees>
              <LongitudeDegrees>-8.09695693664252758026123046875</LongitudeDegrees>
            </Position>
            <AltitudeMeters>226.8000030517578125</AltitudeMeters>
            <DistanceMeters>639.7853962818</DistanceMeters>
          </Trackpoint>
          <Trackpoint>
            <Time>2018-09-13T07:21:12.000Z</Time>
            <Position>
              <LatitudeDegrees>39.80178513564169406890869140625</LatitudeDegrees>
              <LongitudeDegrees>-8.0967687629163265228271484375</LongitudeDegrees>
            </Position>
            <AltitudeMeters>227.399993896484375</AltitudeMeters>
            <DistanceMeters>660.093118734</DistanceMeters>
          </Trackpoint>
          <Trackpoint>
            <Time>2018-09-13T07:21:13.000Z</Time>
            <Position>
              <LatitudeDegrees>39.80175864882767200469970703125</LatitudeDegrees>
              <LongitudeDegrees>-8.0967184714972972869873046875</LongitudeDegrees>
            </Position>
            <AltitudeMeters>227.600006103515625</AltitudeMeters>
            <DistanceMeters>665.30661373221</DistanceMeters>
          </Trackpoint>
          <Trackpoint>
            <Time>2018-09-13T07:21:18.000Z</Time>
            <Position>
              <LatitudeDegrees>39.80173635296523571014404296875</LatitudeDegrees>
              <LongitudeDegrees>-8.0964334867894649505615234375</LongitudeDegrees>
            </Position>
            <AltitudeMeters>229.8000030517578125</AltitudeMeters>
            <DistanceMeters>689.80158116062</DistanceMeters>
          </Trackpoint>
          <Trackpoint>
            <Time>2018-09-13T07:21:19.000Z</Time>
            <Position>
              <LatitudeDegrees>39.80173149146139621734619140625</LatitudeDegrees>
              <LongitudeDegrees>-8.096378333866596221923828125</LongitudeDegrees>
            </Position>
            <AltitudeMeters>230.1999969482421875</AltitudeMeters>
            <DistanceMeters>694.5491142889</DistanceMeters>
          </Trackpoint>
          <Trackpoint>
            <Time>2018-09-13T07:21:24.000Z</Time>
            <Position>
              <LatitudeDegrees>39.80162680149078369140625</LatitudeDegrees>
              <LongitudeDegrees>-8.0961578898131847381591796875</LongitudeDegrees>
            </Position>
            <AltitudeMeters>231.600006103515625</AltitudeMeters>
            <DistanceMeters>716.70970266847</DistanceMeters>
          </Trackpoint>
          <Trackpoint>
            <Time>2018-09-13T07:21:26.000Z</Time>
            <Position>
              <LatitudeDegrees>39.80155748315155506134033203125</LatitudeDegrees>
              <LongitudeDegrees>-8.09609846211969852447509765625</LongitudeDegrees>
            </Position>
            <AltitudeMeters>232</AltitudeMeters>
            <DistanceMeters>725.94833257491</DistanceMeters>
          </Trackpoint>
          <Trackpoint>
            <Time>2018-09-13T07:21:27.000Z</Time>
            <Position>
              <LatitudeDegrees>39.801520518958568572998046875</LatitudeDegrees>
              <LongitudeDegrees>-8.09607331641018390655517578125</LongitudeDegrees>
            </Position>
            <AltitudeMeters>232.1999969482421875</AltitudeMeters>
            <DistanceMeters>730.59104648724</DistanceMeters>
          </Trackpoint>
          <Trackpoint>
            <Time>2018-09-13T07:21:31.000Z</Time>
            <Position>
              <LatitudeDegrees>39.8013778589665889739990234375</LatitudeDegrees>
              <LongitudeDegrees>-8.0959708057343959808349609375</LongitudeDegrees>
            </Position>
            <AltitudeMeters>232.8000030517578125</AltitudeMeters>
            <DistanceMeters>748.72820874535</DistanceMeters>
          </Trackpoint>
          <Trackpoint>
            <Time>2018-09-13T07:21:37.000Z</Time>
            <Position>
              <LatitudeDegrees>39.80116604827344417572021484375</LatitudeDegrees>
              <LongitudeDegrees>-8.0958187580108642578125</LongitudeDegrees>
            </Position>
            <AltitudeMeters>233.600006103515625</AltitudeMeters>
            <DistanceMeters>775.65063705203</DistanceMeters>
          </Trackpoint>
          <Trackpoint>
            <Time>2018-09-13T07:21:44.000Z</Time>
            <Position>
              <LatitudeDegrees>39.80094610713422298431396484375</LatitudeDegrees>
              <LongitudeDegrees>-8.095598481595516204833984375</LongitudeDegrees>
            </Position>
            <AltitudeMeters>235</AltitudeMeters>
            <DistanceMeters>806.53841240952</DistanceMeters>
          </Trackpoint>
          <Trackpoint>
            <Time>2018-09-13T07:21:45.000Z</Time>
            <Position>
              <LatitudeDegrees>39.800918363034725189208984375</LatitudeDegrees>
              <LongitudeDegrees>-8.09556000865995883941650390625</LongitudeDegrees>
            </Position>
            <AltitudeMeters>235.1999969482421875</AltitudeMeters>
            <DistanceMeters>811.05093081736</DistanceMeters>
          </Trackpoint>
          <Trackpoint>
            <Time>2018-09-13T07:21:58.000Z</Time>
            <Position>
              <LatitudeDegrees>39.80061854235827922821044921875</LatitudeDegrees>
              <LongitudeDegrees>-8.09494636952877044677734375</LongitudeDegrees>
            </Position>
            <AltitudeMeters>235.600006103515625</AltitudeMeters>
            <DistanceMeters>873.23587831897</DistanceMeters>
          </Trackpoint>
          <Trackpoint>
            <Time>2018-09-13T07:22:01.000Z</Time>
            <Position>
              <LatitudeDegrees>39.80054042302072048187255859375</LatitudeDegrees>
              <LongitudeDegrees>-8.0948053859174251556396484375</LongitudeDegrees>
            </Position>
            <AltitudeMeters>235.399993896484375</AltitudeMeters>
            <DistanceMeters>888.099891248</DistanceMeters>
          </Trackpoint>
          <Trackpoint>
            <Time>2018-09-13T07:22:13.000Z</Time>
            <Position>
              <LatitudeDegrees>39.80025057680904865264892578125</LatitudeDegrees>
              <LongitudeDegrees>-8.09419208206236362457275390625</LongitudeDegrees>
            </Position>
            <AltitudeMeters>234.600006103515625</AltitudeMeters>
            <DistanceMeters>949.67214265947</DistanceMeters>
          </Trackpoint>
          <Trackpoint>
            <Time>2018-09-13T07:22:19.000Z</Time>
            <Position>
              <LatitudeDegrees>39.800111018121242523193359375</LatitudeDegrees>
              <LongitudeDegrees>-8.09387843124568462371826171875</LongitudeDegrees>
            </Position>
            <AltitudeMeters>234.600006103515625</AltitudeMeters>
            <DistanceMeters>980.66629682219</DistanceMeters>
          </Trackpoint>
          <Trackpoint>
            <Time>2018-09-13T07:22:21.000Z</Time>
            <Position>
              <LatitudeDegrees>39.800060726702213287353515625</LatitudeDegrees>
              <LongitudeDegrees>-8.09377701021730899810791015625</LongitudeDegrees>
            </Position>
            <AltitudeMeters>234.600006103515625</AltitudeMeters>
            <DistanceMeters>990.9888402122</DistanceMeters>
          </Trackpoint>
          <Trackpoint>
            <Time>2018-09-13T07:22:23.000Z</Time>
            <Position>
              <LatitudeDegrees>39.80000716634094715118408203125</LatitudeDegrees>
              <LongitudeDegrees>-8.09367558918893337249755859375</LongitudeDegrees>
            </Position>
            <AltitudeMeters>234.600006103515625</AltitudeMeters>
            <DistanceMeters>1001.5123784722</DistanceMeters>
          </Trackpoint>
          <Trackpoint>
            <Time>2018-09-13T07:22:28.000Z</Time>
            <Position>
              <LatitudeDegrees>39.7998272068798542022705078125</LatitudeDegrees>
              <LongitudeDegrees>-8.09346377849578857421875</LongitudeDegrees>
            </Position>
            <AltitudeMeters>234.1999969482421875</AltitudeMeters>
            <DistanceMeters>1028.517024618</DistanceMeters>
          </Trackpoint>
          <Trackpoint>
            <Time>2018-09-13T07:22:33.000Z</Time>
            <Position>
              <LatitudeDegrees>39.79976861737668514251708984375</LatitudeDegrees>
              <LongitudeDegrees>-8.09316135942935943603515625</LongitudeDegrees>
            </Position>
            <AltitudeMeters>234.399993896484375</AltitudeMeters>
            <DistanceMeters>1055.1870469542</DistanceMeters>
          </Trackpoint>
          <Trackpoint>
            <Time>2018-09-13T07:22:44.000Z</Time>
            <Position>
              <LatitudeDegrees>39.7995063476264476776123046875</LatitudeDegrees>
              <LongitudeDegrees>-8.092553503811359405517578125</LongitudeDegrees>
            </Position>
            <AltitudeMeters>236.1999969482421875</AltitudeMeters>
            <DistanceMeters>1114.801903037</DistanceMeters>
          </Trackpoint>
          <Trackpoint>
            <Time>2018-09-13T07:22:56.000Z</Time>
            <Position>
              <LatitudeDegrees>39.79922111146152019500732421875</LatitudeDegrees>
              <LongitudeDegrees>-8.0919201672077178955078125</LongitudeDegrees>
            </Position>
            <AltitudeMeters>237.8000030517578125</AltitudeMeters>
            <DistanceMeters>1177.5792577317</DistanceMeters>
          </Trackpoint>
          <Trackpoint>
            <Time>2018-09-13T07:23:03.000Z</Time>
            <Position>
              <LatitudeDegrees>39.79905179701745510101318359375</LatitudeDegrees>
              <LongitudeDegrees>-8.09154532849788665771484375</LongitudeDegrees>
            </Position>
            <AltitudeMeters>238.8000030517578125</AltitudeMeters>
            <DistanceMeters>1214.7620344439</DistanceMeters>
          </Trackpoint>
          <Trackpoint>
            <Time>2018-09-13T07:23:13.000Z</Time>
            <Position>
              <LatitudeDegrees>39.79881073348224163055419921875</LatitudeDegrees>
              <LongitudeDegrees>-8.09102229773998260498046875</LongitudeDegrees>
            </Position>
            <AltitudeMeters>239.1999969482421875</AltitudeMeters>
            <DistanceMeters>1266.9184575249</DistanceMeters>
          </Trackpoint>
          <Trackpoint>
            <Time>2018-09-13T07:23:25.000Z</Time>
            <Position>
              <LatitudeDegrees>39.7985203005373477935791015625</LatitudeDegrees>
              <LongitudeDegrees>-8.090397007763385772705078125</LongitudeDegrees>
            </Position>
            <AltitudeMeters>241.1999969482421875</AltitudeMeters>
            <DistanceMeters>1329.4008165526</DistanceMeters>
          </Trackpoint>
          <Trackpoint>
            <Time>2018-09-13T07:23:29.000Z</Time>
            <Position>
              <LatitudeDegrees>39.7984207235276699066162109375</LatitudeDegrees>
              <LongitudeDegrees>-8.0901893042027950286865234375</LongitudeDegrees>
            </Position>
            <AltitudeMeters>241.399993896484375</AltitudeMeters>
            <DistanceMeters>1350.3364763329</DistanceMeters>
          </Trackpoint>
          <Trackpoint>
            <Time>2018-09-13T07:23:41.000Z</Time>
            <Position>
              <LatitudeDegrees>39.7981196455657482147216796875</LatitudeDegrees>
              <LongitudeDegrees>-8.089571893215179443359375</LongitudeDegrees>
            </Position>
            <AltitudeMeters>243.8000030517578125</AltitudeMeters>
            <DistanceMeters>1412.8703362342</DistanceMeters>
          </Trackpoint>
          <Trackpoint>
            <Time>2018-09-13T07:23:46.000Z</Time>
            <Position>
              <LatitudeDegrees>39.7979520075023174285888671875</LatitudeDegrees>
              <LongitudeDegrees>-8.08937265537679195404052734375</LongitudeDegrees>
            </Position>
            <AltitudeMeters>244.600006103515625</AltitudeMeters>
            <DistanceMeters>1438.1372587716</DistanceMeters>
          </Trackpoint>
          <Trackpoint>
            <Time>2018-09-13T07:23:52.000Z</Time>
            <Position>
              <LatitudeDegrees>39.797752015292644500732421875</LatitudeDegrees>
              <LongitudeDegrees>-8.08918674476444721221923828125</LongitudeDegrees>
            </Position>
            <AltitudeMeters>246.1999969482421875</AltitudeMeters>
            <DistanceMeters>1465.4914210564</DistanceMeters>
          </Trackpoint>
          <Trackpoint>
            <Time>2018-09-13T07:23:57.000Z</Time>
            <Position>
              <LatitudeDegrees>39.79759745299816131591796875</LatitudeDegrees>
              <LongitudeDegrees>-8.08905799873173236846923828125</LongitudeDegrees>
            </Position>
            <AltitudeMeters>247.8000030517578125</AltitudeMeters>
            <DistanceMeters>1485.915754862</DistanceMeters>
          </Trackpoint>
          <Trackpoint>
            <Time>2018-09-13T07:24:02.000Z</Time>
            <Position>
              <LatitudeDegrees>39.79745286516845226287841796875</LatitudeDegrees>
              <LongitudeDegrees>-8.08893176726996898651123046875</LongitudeDegrees>
            </Position>
            <AltitudeMeters>249.399993896484375</AltitudeMeters>
            <DistanceMeters>1505.2937500846</DistanceMeters>
          </Trackpoint>
          <Trackpoint>
            <Time>2018-09-13T07:24:06.000Z</Time>
            <Position>
              <LatitudeDegrees>39.79733593761920928955078125</LatitudeDegrees>
              <LongitudeDegrees>-8.08884032070636749267578125</LongitudeDegrees>
            </Position>
            <AltitudeMeters>249</AltitudeMeters>
            <DistanceMeters>1520.4766283184</DistanceMeters>
          </Trackpoint>
          <Trackpoint>
            <Time>2018-09-13T07:24:11.000Z</Time>
            <Position>
              <LatitudeDegrees>39.79719671420753002166748046875</LatitudeDegrees>
              <LongitudeDegrees>-8.08871425688266754150390625</LongitudeDegrees>
            </Position>
            <AltitudeMeters>247.8000030517578125</AltitudeMeters>
            <DistanceMeters>1539.3532492151</DistanceMeters>
          </Trackpoint>
          <Trackpoint>
            <Time>2018-09-13T07:24:12.000Z</Time>
            <Position>
              <LatitudeDegrees>39.79717098176479339599609375</LatitudeDegrees>
              <LongitudeDegrees>-8.08868701569736003875732421875</LongitudeDegrees>
            </Position>
            <AltitudeMeters>247.399993896484375</AltitudeMeters>
            <DistanceMeters>1543.043419303</DistanceMeters>
          </Trackpoint>
          <Trackpoint>
            <Time>2018-09-13T07:24:19.000Z</Time>
            <Position>
              <LatitudeDegrees>39.79699672199785709381103515625</LatitudeDegrees>
              <LongitudeDegrees>-8.08848719112575054168701171875</LongitudeDegrees>
            </Position>
            <AltitudeMeters>247.399993896484375</AltitudeMeters>
            <DistanceMeters>1568.8927817042</DistanceMeters>
          </Trackpoint>
          <Trackpoint>
            <Time>2018-09-13T07:24:24.000Z</Time>
            <Position>
              <LatitudeDegrees>39.7968975640833377838134765625</LatitudeDegrees>
              <LongitudeDegrees>-8.0883152782917022705078125</LongitudeDegrees>
            </Position>
            <AltitudeMeters>249</AltitudeMeters>
            <DistanceMeters>1587.2754779342</DistanceMeters>
          </Trackpoint>
          <Trackpoint>
            <Time>2018-09-13T07:24:29.000Z</Time>
            <Position>
              <LatitudeDegrees>39.796824641525745391845703125</LatitudeDegrees>
              <LongitudeDegrees>-8.08811805211007595062255859375</LongitudeDegrees>
            </Position>
            <AltitudeMeters>251.399993896484375</AltitudeMeters>
            <DistanceMeters>1605.9923637768</DistanceMeters>
          </Trackpoint>
          <Trackpoint>
            <Time>2018-09-13T07:24:33.000Z</Time>
            <Position>
              <LatitudeDegrees>39.79676655493676662445068359375</LatitudeDegrees>
              <LongitudeDegrees>-8.0879798345267772674560546875</LongitudeDegrees>
            </Position>
            <AltitudeMeters>253.399993896484375</AltitudeMeters>
            <DistanceMeters>1619.4640554438</DistanceMeters>
          </Trackpoint>
          <Trackpoint>
            <Time>2018-09-13T07:24:39.000Z</Time>
            <Position>
              <LatitudeDegrees>39.79668374173343181610107421875</LatitudeDegrees>
              <LongitudeDegrees>-8.08777003549039363861083984375</LongitudeDegrees>
            </Position>
            <AltitudeMeters>254.8000030517578125</AltitudeMeters>
            <DistanceMeters>1639.6343569811</DistanceMeters>
          </Trackpoint>
          <Trackpoint>
            <Time>2018-09-13T07:24:44.000Z</Time>
            <Position>
              <LatitudeDegrees>39.79662238620221614837646484375</LatitudeDegrees>
              <LongitudeDegrees>-8.0875966139137744903564453125</LongitudeDegrees>
            </Position>
            <AltitudeMeters>255.600006103515625</AltitudeMeters>
            <DistanceMeters>1655.9618159622</DistanceMeters>
          </Trackpoint>
          <Trackpoint>
            <Time>2018-09-13T07:24:49.000Z</Time>
            <Position>
              <LatitudeDegrees>39.79656689800322055816650390625</LatitudeDegrees>
              <LongitudeDegrees>-8.08742755092680454254150390625</LongitudeDegrees>
            </Position>
            <AltitudeMeters>257.600006103515625</AltitudeMeters>
            <DistanceMeters>1671.6832097409</DistanceMeters>
          </Trackpoint>
          <Trackpoint>
            <Time>2018-09-13T07:24:54.000Z</Time>
            <Position>
              <LatitudeDegrees>39.7965099848806858062744140625</LatitudeDegrees>
              <LongitudeDegrees>-8.08725471608340740203857421875</LongitudeDegrees>
            </Position>
            <AltitudeMeters>259.399993896484375</AltitudeMeters>
            <DistanceMeters>1687.7635156762</DistanceMeters>
          </Trackpoint>
          <Trackpoint>
            <Time>2018-09-13T07:24:59.000Z</Time>
            <Position>
              <LatitudeDegrees>39.7964657284319400787353515625</LatitudeDegrees>
              <LongitudeDegrees>-8.08708087541162967681884765625</LongitudeDegrees>
            </Position>
            <AltitudeMeters>260</AltitudeMeters>
            <DistanceMeters>1703.4244832803</DistanceMeters>
          </Trackpoint>
          <Trackpoint>
            <Time>2018-09-13T07:25:04.000Z</Time>
            <Position>
              <LatitudeDegrees>39.79645106010138988494873046875</LatitudeDegrees>
              <LongitudeDegrees>-8.08689580298960208892822265625</LongitudeDegrees>
            </Position>
            <AltitudeMeters>260.399993896484375</AltitudeMeters>
            <DistanceMeters>1719.3351452096</DistanceMeters>
          </Trackpoint>
          <Trackpoint>
            <Time>2018-09-13T07:25:10.000Z</Time>
            <Position>
              <LatitudeDegrees>39.79640998877584934234619140625</LatitudeDegrees>
              <LongitudeDegrees>-8.08668357320129871368408203125</LongitudeDegrees>
            </Position>
            <AltitudeMeters>261.399993896484375</AltitudeMeters>
            <DistanceMeters>1738.051066115</DistanceMeters>
          </Trackpoint>
          <Trackpoint>
            <Time>2018-09-13T07:25:16.000Z</Time>
            <Position>
              <LatitudeDegrees>39.79638467542827129364013671875</LatitudeDegrees>
              <LongitudeDegrees>-8.0864818207919597625732421875</LongitudeDegrees>
            </Position>
            <AltitudeMeters>262</AltitudeMeters>
            <DistanceMeters>1755.5323660386</DistanceMeters>
          </Trackpoint>
          <Trackpoint>
            <Time>2018-09-13T07:25:22.000Z</Time>
            <Position>
              <LatitudeDegrees>39.796351902186870574951171875</LatitudeDegrees>
              <LongitudeDegrees>-8.08627487160265445709228515625</LongitudeDegrees>
            </Position>
            <AltitudeMeters>261.79998779296875</AltitudeMeters>
            <DistanceMeters>1773.6016901539</DistanceMeters>
          </Trackpoint>
          <Trackpoint>
            <Time>2018-09-13T07:25:28.000Z</Time>
            <Position>
              <LatitudeDegrees>39.796302616596221923828125</LatitudeDegrees>
              <LongitudeDegrees>-8.08605493046343326568603515625</LongitudeDegrees>
            </Position>
            <AltitudeMeters>261.600006103515625</AltitudeMeters>
            <DistanceMeters>1793.1937928863</DistanceMeters>
          </Trackpoint>
          <Trackpoint>
            <Time>2018-09-13T07:25:34.000Z</Time>
            <Position>
              <LatitudeDegrees>39.79625643230974674224853515625</LatitudeDegrees>
              <LongitudeDegrees>-8.085847310721874237060546875</LongitudeDegrees>
            </Position>
            <AltitudeMeters>262</AltitudeMeters>
            <DistanceMeters>1811.6774048759</DistanceMeters>
          </Trackpoint>
          <Trackpoint>
            <Time>2018-09-13T07:25:38.000Z</Time>
            <Position>
              <LatitudeDegrees>39.79625324718654155731201171875</LatitudeDegrees>
              <LongitudeDegrees>-8.08570289053022861480712890625</LongitudeDegrees>
            </Position>
            <AltitudeMeters>262.79998779296875</AltitudeMeters>
            <DistanceMeters>1824.0327050457</DistanceMeters>
          </Trackpoint>
          <Trackpoint>
            <Time>2018-09-13T07:25:43.000Z</Time>
            <Position>
              <LatitudeDegrees>39.7963307797908782958984375</LatitudeDegrees>
              <LongitudeDegrees>-8.08556240983307361602783203125</LongitudeDegrees>
            </Position>
            <AltitudeMeters>264.399993896484375</AltitudeMeters>
            <DistanceMeters>1838.8239420489</DistanceMeters>
          </Trackpoint>
          <Trackpoint>
            <Time>2018-09-13T07:25:50.000Z</Time>
            <Position>
              <LatitudeDegrees>39.7965292632579803466796875</LatitudeDegrees>
              <LongitudeDegrees>-8.085449002683162689208984375</LongitudeDegrees>
            </Position>
            <AltitudeMeters>267.20001220703125</AltitudeMeters>
            <DistanceMeters>1862.9506241194</DistanceMeters>
          </Trackpoint>
          <Trackpoint>
            <Time>2018-09-13T07:26:00.000Z</Time>
            <Position>
              <LatitudeDegrees>39.79685448110103607177734375</LatitudeDegrees>
              <LongitudeDegrees>-8.085378594696521759033203125</LongitudeDegrees>
            </Position>
            <AltitudeMeters>270.79998779296875</AltitudeMeters>
            <DistanceMeters>1899.6454578002</DistanceMeters>
          </Trackpoint>
          <Trackpoint>
            <Time>2018-09-13T07:26:07.000Z</Time>
            <Position>
              <LatitudeDegrees>39.79706260375678539276123046875</LatitudeDegrees>
              <LongitudeDegrees>-8.0855499207973480224609375</LongitudeDegrees>
            </Position>
            <AltitudeMeters>270.20001220703125</AltitudeMeters>
            <DistanceMeters>1927.0543647409</DistanceMeters>
          </Trackpoint>
          <Trackpoint>
            <Time>2018-09-13T07:26:12.000Z</Time>
            <Position>
              <LatitudeDegrees>39.7971483506262302398681640625</LatitudeDegrees>
              <LongitudeDegrees>-8.08577380143105983734130859375</LongitudeDegrees>
            </Position>
            <AltitudeMeters>268.79998779296875</AltitudeMeters>
            <DistanceMeters>1948.4465645816</DistanceMeters>
          </Trackpoint>
          <Trackpoint>
            <Time>2018-09-13T07:26:16.000Z</Time>
            <Position>
              <LatitudeDegrees>39.7971919365227222442626953125</LatitudeDegrees>
              <LongitudeDegrees>-8.0859936587512493133544921875</LongitudeDegrees>
            </Position>
            <AltitudeMeters>266.600006103515625</AltitudeMeters>
            <DistanceMeters>1967.863664048</DistanceMeters>
          </Trackpoint>
          <Trackpoint>
            <Time>2018-09-13T07:26:18.000Z</Time>
            <Position>
              <LatitudeDegrees>39.797204844653606414794921875</LatitudeDegrees>
              <LongitudeDegrees>-8.08609080500900745391845703125</LongitudeDegrees>
            </Position>
            <AltitudeMeters>266</AltitudeMeters>
            <DistanceMeters>1976.2948420065</DistanceMeters>
          </Trackpoint>
          <Trackpoint>
            <Time>2018-09-13T07:26:22.000Z</Time>
            <Position>
              <LatitudeDegrees>39.797118343412876129150390625</LatitudeDegrees>
              <LongitudeDegrees>-8.08629934675991535186767578125</LongitudeDegrees>
            </Position>
            <AltitudeMeters>263.79998779296875</AltitudeMeters>
            <DistanceMeters>1996.5611686834</DistanceMeters>
          </Trackpoint>
          <Trackpoint>
            <Time>2018-09-13T07:26:25.000Z</Time>
            <Position>
              <LatitudeDegrees>39.79698012582957744598388671875</LatitudeDegrees>
              <LongitudeDegrees>-8.08639414608478546142578125</LongitudeDegrees>
            </Position>
            <AltitudeMeters>262.79998779296875</AltitudeMeters>
            <DistanceMeters>2013.9502784882</DistanceMeters>
          </Trackpoint>
          <Trackpoint>
            <Time>2018-09-13T07:26:27.000Z</Time>
            <Position>
              <LatitudeDegrees>39.796882309019565582275390625</LatitudeDegrees>
              <LongitudeDegrees>-8.08643965981900691986083984375</LongitudeDegrees>
            </Position>
            <AltitudeMeters>262.600006103515625</AltitudeMeters>
            <DistanceMeters>2025.5123393632</DistanceMeters>
          </Trackpoint>
          <Trackpoint>
            <Time>2018-09-13T07:26:33.000Z</Time>
            <Position>
              <LatitudeDegrees>39.79660277254879474639892578125</LatitudeDegrees>
              <LongitudeDegrees>-8.08655901812016963958740234375</LongitudeDegrees>
            </Position>
            <AltitudeMeters>262</AltitudeMeters>
            <DistanceMeters>2058.2568684746</DistanceMeters>
          </Trackpoint>
          <Trackpoint>
            <Time>2018-09-13T07:26:44.000Z</Time>
            <Position>
              <LatitudeDegrees>39.79609516449272632598876953125</LatitudeDegrees>
              <LongitudeDegrees>-8.0868003331124782562255859375</LongitudeDegrees>
            </Position>
            <AltitudeMeters>263.600006103515625</AltitudeMeters>
            <DistanceMeters>2118.4055509788</DistanceMeters>
          </Trackpoint>
          <Trackpoint>
            <Time>2018-09-13T07:26:48.000Z</Time>
            <Position>
              <LatitudeDegrees>39.79590623639523983001708984375</LatitudeDegrees>
              <LongitudeDegrees>-8.08688842691481113433837890625</LongitudeDegrees>
            </Position>
            <AltitudeMeters>267.399993896484375</AltitudeMeters>
            <DistanceMeters>2140.7422871701</DistanceMeters>
          </Trackpoint>
          <Trackpoint>
            <Time>2018-09-13T07:27:00.000Z</Time>
            <Position>
              <LatitudeDegrees>39.79535470716655254364013671875</LatitudeDegrees>
              <LongitudeDegrees>-8.08712848462164402008056640625</LongitudeDegrees>
            </Position>
            <AltitudeMeters>277.79998779296875</AltitudeMeters>
            <DistanceMeters>2205.4704087103</DistanceMeters>
          </Trackpoint>
          <Trackpoint>
            <Time>2018-09-13T07:27:02.000Z</Time>
            <Position>
              <LatitudeDegrees>39.795262254774570465087890625</LatitudeDegrees>
              <LongitudeDegrees>-8.0871734954416751861572265625</LongitudeDegrees>
            </Position>
            <AltitudeMeters>277.600006103515625</AltitudeMeters>
            <DistanceMeters>2216.4574038365</DistanceMeters>
          </Trackpoint>
          <Trackpoint>
            <Time>2018-09-13T07:27:11.000Z</Time>
            <Position>
              <LatitudeDegrees>39.7948406450450420379638671875</LatitudeDegrees>
              <LongitudeDegrees>-8.087393939495086669921875</LongitudeDegrees>
            </Position>
            <AltitudeMeters>276.20001220703125</AltitudeMeters>
            <DistanceMeters>2267.0286713714</DistanceMeters>
          </Trackpoint>
          <Trackpoint>
            <Time>2018-09-13T07:27:23.000Z</Time>
            <Position>
              <LatitudeDegrees>39.7943298518657684326171875</LatitudeDegrees>
              <LongitudeDegrees>-8.0877344124019145965576171875</LongitudeDegrees>
            </Position>
            <AltitudeMeters>271.79998779296875</AltitudeMeters>
            <DistanceMeters>2330.9033074873</DistanceMeters>
          </Trackpoint>
          <Trackpoint>
            <Time>2018-09-13T07:27:25.000Z</Time>
            <Position>
              <LatitudeDegrees>39.79424737393856048583984375</LatitudeDegrees>
              <LongitudeDegrees>-8.08779987506568431854248046875</LongitudeDegrees>
            </Position>
            <AltitudeMeters>270.600006103515625</AltitudeMeters>
            <DistanceMeters>2341.6560326669</DistanceMeters>
          </Trackpoint>
          <Trackpoint>
            <Time>2018-09-13T07:27:36.000Z</Time>
            <Position>
              <LatitudeDegrees>39.7938274405896663665771484375</LatitudeDegrees>
              <LongitudeDegrees>-8.0882393382489681243896484375</LongitudeDegrees>
            </Position>
            <AltitudeMeters>264</AltitudeMeters>
            <DistanceMeters>2401.6311405075</DistanceMeters>
          </Trackpoint>
          <Trackpoint>
            <Time>2018-09-13T07:27:39.000Z</Time>
            <Position>
              <LatitudeDegrees>39.793722666800022125244140625</LatitudeDegrees>
              <LongitudeDegrees>-8.08838174678385257720947265625</LongitudeDegrees>
            </Position>
            <AltitudeMeters>262.20001220703125</AltitudeMeters>
            <DistanceMeters>2418.4926931299</DistanceMeters>
          </Trackpoint>
          <Trackpoint>
            <Time>2018-09-13T07:27:49.000Z</Time>
            <Position>
              <LatitudeDegrees>39.7934180684387683868408203125</LatitudeDegrees>
              <LongitudeDegrees>-8.0889145843684673309326171875</LongitudeDegrees>
            </Position>
            <AltitudeMeters>269.20001220703125</AltitudeMeters>
            <DistanceMeters>2475.288944838</DistanceMeters>
          </Trackpoint>
          <Trackpoint>
            <Time>2018-09-13T07:28:00.000Z</Time>
            <Position>
              <LatitudeDegrees>39.79317826218903064727783203125</LatitudeDegrees>
              <LongitudeDegrees>-8.08956879191100597381591796875</LongitudeDegrees>
            </Position>
            <AltitudeMeters>276.399993896484375</AltitudeMeters>
            <DistanceMeters>2537.2773260005</DistanceMeters>
          </Trackpoint>
          <Trackpoint>
            <Time>2018-09-13T07:28:03.000Z</Time>
            <Position>
              <LatitudeDegrees>39.79313082061707973480224609375</LatitudeDegrees>
              <LongitudeDegrees>-8.08976207859814167022705078125</LongitudeDegrees>
            </Position>
            <AltitudeMeters>278.399993896484375</AltitudeMeters>
            <DistanceMeters>2554.6303072769</DistanceMeters>
          </Trackpoint>
          <Trackpoint>
            <Time>2018-09-13T07:28:12.000Z</Time>
            <Position>
              <LatitudeDegrees>39.7930254600942134857177734375</LatitudeDegrees>
              <LongitudeDegrees>-8.09035308659076690673828125</LongitudeDegrees>
            </Position>
            <AltitudeMeters>285.20001220703125</AltitudeMeters>
            <DistanceMeters>2606.5159375621</DistanceMeters>
          </Trackpoint>
          <Trackpoint>
            <Time>2018-09-13T07:28:15.000Z</Time>
            <Position>
              <LatitudeDegrees>39.792997799813747406005859375</LatitudeDegrees>
              <LongitudeDegrees>-8.09055567719042301177978515625</LongitudeDegrees>
            </Position>
            <AltitudeMeters>288.399993896484375</AltitudeMeters>
            <DistanceMeters>2624.1130788474</DistanceMeters>
          </Trackpoint>
          <Trackpoint>
            <Time>2018-09-13T07:28:26.000Z</Time>
            <Position>
              <LatitudeDegrees>39.79291255585849285125732421875</LatitudeDegrees>
              <LongitudeDegrees>-8.09128054417669773101806640625</LongitudeDegrees>
            </Position>
            <AltitudeMeters>289</AltitudeMeters>
            <DistanceMeters>2686.8257428296</DistanceMeters>
          </Trackpoint>
          <Trackpoint>
            <Time>2018-09-13T07:28:28.000Z</Time>
            <Position>
              <LatitudeDegrees>39.7928988933563232421875</LatitudeDegrees>
              <LongitudeDegrees>-8.0914117209613323211669921875</LongitudeDegrees>
            </Position>
            <AltitudeMeters>287.20001220703125</AltitudeMeters>
            <DistanceMeters>2698.1470901455</DistanceMeters>
          </Trackpoint>
          <Trackpoint>
            <Time>2018-09-13T07:28:38.000Z</Time>
            <Position>
              <LatitudeDegrees>39.79282555170357227325439453125</LatitudeDegrees>
              <LongitudeDegrees>-8.09205670841038227081298828125</LongitudeDegrees>
            </Position>
            <AltitudeMeters>285.399993896484375</AltitudeMeters>
            <DistanceMeters>2753.9073701929</DistanceMeters>
          </Trackpoint>
          <Trackpoint>
            <Time>2018-09-13T07:28:48.000Z</Time>
            <Position>
              <LatitudeDegrees>39.79275070130825042724609375</LatitudeDegrees>
              <LongitudeDegrees>-8.0927011929452419281005859375</LongitudeDegrees>
            </Position>
            <AltitudeMeters>292.20001220703125</AltitudeMeters>
            <DistanceMeters>2809.6499144857</DistanceMeters>
          </Trackpoint>
          <Trackpoint>
            <Time>2018-09-13T07:28:59.000Z</Time>
            <Position>
              <LatitudeDegrees>39.79267065413296222686767578125</LatitudeDegrees>
              <LongitudeDegrees>-8.093399070203304290771484375</LongitudeDegrees>
            </Position>
            <AltitudeMeters>299.600006103515625</AltitudeMeters>
            <DistanceMeters>2869.9940479732</DistanceMeters>
          </Trackpoint>
          <Trackpoint>
            <Time>2018-09-13T07:29:06.000Z</Time>
            <Position>
              <LatitudeDegrees>39.7926204465329647064208984375</LatitudeDegrees>
              <LongitudeDegrees>-8.09384171850979328155517578125</LongitudeDegrees>
            </Position>
            <AltitudeMeters>300.399993896484375</AltitudeMeters>
            <DistanceMeters>2908.2599737539</DistanceMeters>
          </Trackpoint>
          <Trackpoint>
            <Time>2018-09-13T07:29:17.000Z</Time>
            <Position>
              <LatitudeDegrees>39.7925396449863910675048828125</LatitudeDegrees>
              <LongitudeDegrees>-8.09454143978655338287353515625</LongitudeDegrees>
            </Position>
            <AltitudeMeters>298.20001220703125</AltitudeMeters>
            <DistanceMeters>2968.7726691063</DistanceMeters>
          </Trackpoint>
          <Trackpoint>
            <Time>2018-09-13T07:29:19.000Z</Time>
            <Position>
              <LatitudeDegrees>39.79252405464649200439453125</LatitudeDegrees>
              <LongitudeDegrees>-8.09466783888638019561767578125</LongitudeDegrees>
            </Position>
            <AltitudeMeters>298</AltitudeMeters>
            <DistanceMeters>2979.720967363</DistanceMeters>
          </Trackpoint>
          <Trackpoint>
            <Time>2018-09-13T07:29:27.000Z</Time>
            <Position>
              <LatitudeDegrees>39.79246647097170352935791015625</LatitudeDegrees>
              <LongitudeDegrees>-8.09516966342926025390625</LongitudeDegrees>
            </Position>
            <AltitudeMeters>298.600006103515625</AltitudeMeters>
            <DistanceMeters>3023.1133325859</DistanceMeters>
          </Trackpoint>
          <Trackpoint>
            <Time>2018-09-13T07:29:35.000Z</Time>
            <Position>
              <LatitudeDegrees>39.79240679182112216949462890625</LatitudeDegrees>
              <LongitudeDegrees>-8.095663525164127349853515625</LongitudeDegrees>
            </Position>
            <AltitudeMeters>292.20001220703125</AltitudeMeters>
            <DistanceMeters>3065.8678568434</DistanceMeters>
          </Trackpoint>
          <Trackpoint>
            <Time>2018-09-13T07:29:43.000Z</Time>
            <Position>
              <LatitudeDegrees>39.79235348291695117950439453125</LatitudeDegrees>
              <LongitudeDegrees>-8.09613727033138275146484375</LongitudeDegrees>
            </Position>
            <AltitudeMeters>289.399993896484375</AltitudeMeters>
            <DistanceMeters>3106.8152198105</DistanceMeters>
          </Trackpoint>
          <Trackpoint>
            <Time>2018-09-13T07:29:48.000Z</Time>
            <Position>
              <LatitudeDegrees>39.7923264093697071075439453125</LatitudeDegrees>
              <LongitudeDegrees>-8.09642560780048370361328125</LongitudeDegrees>
            </Position>
            <AltitudeMeters>287.79998779296875</AltitudeMeters>
            <DistanceMeters>3131.6577547956</DistanceMeters>
          </Trackpoint>
          <Trackpoint>
            <Time>2018-09-13T07:29:53.000Z</Time>
            <Position>
              <LatitudeDegrees>39.7923002578318119049072265625</LatitudeDegrees>
              <LongitudeDegrees>-8.096708916127681732177734375</LongitudeDegrees>
            </Position>
            <AltitudeMeters>286</AltitudeMeters>
            <DistanceMeters>3156.0607556613</DistanceMeters>
          </Trackpoint>
          <Trackpoint>
            <Time>2018-09-13T07:30:00.000Z</Time>
            <Position>
              <LatitudeDegrees>39.7922623716294765472412109375</LatitudeDegrees>
              <LongitudeDegrees>-8.097084425389766693115234375</LongitudeDegrees>
            </Position>
            <AltitudeMeters>290.399993896484375</AltitudeMeters>
            <DistanceMeters>3188.4502317447</DistanceMeters>
          </Trackpoint>
          <Trackpoint>
            <Time>2018-09-13T07:30:06.000Z</Time>
            <Position>
              <LatitudeDegrees>39.792213253676891326904296875</LatitudeDegrees>
              <LongitudeDegrees>-8.09739883057773113250732421875</LongitudeDegrees>
            </Position>
            <AltitudeMeters>295.399993896484375</AltitudeMeters>
            <DistanceMeters>3215.8887738605</DistanceMeters>
          </Trackpoint>
          <Trackpoint>
            <Time>2018-09-13T07:30:11.000Z</Time>
            <Position>
              <LatitudeDegrees>39.792162962257862091064453125</LatitudeDegrees>
              <LongitudeDegrees>-8.0976465158164501190185546875</LongitudeDegrees>
            </Position>
            <AltitudeMeters>299.600006103515625</AltitudeMeters>
            <DistanceMeters>3237.7985630827</DistanceMeters>
          </Trackpoint>
          <Trackpoint>
            <Time>2018-09-13T07:30:14.000Z</Time>
            <Position>
              <LatitudeDegrees>39.79212733916938304901123046875</LatitudeDegrees>
              <LongitudeDegrees>-8.0977916903793811798095703125</LongitudeDegrees>
            </Position>
            <AltitudeMeters>302.399993896484375</AltitudeMeters>
            <DistanceMeters>3250.8321273712</DistanceMeters>
          </Trackpoint>
          <Trackpoint>
            <Time>2018-09-13T07:30:19.000Z</Time>
            <Position>
              <LatitudeDegrees>39.7920608706772327423095703125</LatitudeDegrees>
              <LongitudeDegrees>-8.09802227653563022613525390625</LongitudeDegrees>
            </Position>
            <AltitudeMeters>307.399993896484375</AltitudeMeters>
            <DistanceMeters>3271.8942150025</DistanceMeters>
          </Trackpoint>
          <Trackpoint>
            <Time>2018-09-13T07:30:24.000Z</Time>
            <Position>
              <LatitudeDegrees>39.79197713546454906463623046875</LatitudeDegrees>
              <LongitudeDegrees>-8.0982406251132488250732421875</LongitudeDegrees>
            </Position>
            <AltitudeMeters>312.20001220703125</AltitudeMeters>
            <DistanceMeters>3292.7642103833</DistanceMeters>
          </Trackpoint>
          <Trackpoint>
            <Time>2018-09-13T07:30:30.000Z</Time>
            <Position>
              <LatitudeDegrees>39.791866242885589599609375</LatitudeDegrees>
              <LongitudeDegrees>-8.0984942615032196044921875</LongitudeDegrees>
            </Position>
            <AltitudeMeters>316.79998779296875</AltitudeMeters>
            <DistanceMeters>3317.72134469</DistanceMeters>
          </Trackpoint>
          <Trackpoint>
            <Time>2018-09-13T07:30:36.000Z</Time>
            <Position>
              <LatitudeDegrees>39.79173238389194011688232421875</LatitudeDegrees>
              <LongitudeDegrees>-8.098728954792022705078125</LongitudeDegrees>
            </Position>
            <AltitudeMeters>317.600006103515625</AltitudeMeters>
            <DistanceMeters>3342.7180672659</DistanceMeters>
          </Trackpoint>
          <Trackpoint>
            <Time>2018-09-13T07:30:41.000Z</Time>
            <Position>
              <LatitudeDegrees>39.79162258096039295196533203125</LatitudeDegrees>
              <LongitudeDegrees>-8.09890137054026126861572265625</LongitudeDegrees>
            </Position>
            <AltitudeMeters>318.20001220703125</AltitudeMeters>
            <DistanceMeters>3361.8698994257</DistanceMeters>
          </Trackpoint>
          <Trackpoint>
            <Time>2018-09-13T07:30:46.000Z</Time>
            <Position>
              <LatitudeDegrees>39.79150473140180110931396484375</LatitudeDegrees>
              <LongitudeDegrees>-8.0990533344447612762451171875</LongitudeDegrees>
            </Position>
            <AltitudeMeters>319.399993896484375</AltitudeMeters>
            <DistanceMeters>3380.3354264024</DistanceMeters>
          </Trackpoint>
          <Trackpoint>
            <Time>2018-09-13T07:30:52.000Z</Time>
            <Position>
              <LatitudeDegrees>39.791351594030857086181640625</LatitudeDegrees>
              <LongitudeDegrees>-8.09921703301370143890380859375</LongitudeDegrees>
            </Position>
            <AltitudeMeters>320.79998779296875</AltitudeMeters>
            <DistanceMeters>3402.3926805072</DistanceMeters>
          </Trackpoint>
          <Trackpoint>
            <Time>2018-09-13T07:30:57.000Z</Time>
            <Position>
              <LatitudeDegrees>39.791217483580112457275390625</LatitudeDegrees>
              <LongitudeDegrees>-8.099345527589321136474609375</LongitudeDegrees>
            </Position>
            <AltitudeMeters>321.79998779296875</AltitudeMeters>
            <DistanceMeters>3420.9280059262</DistanceMeters>
          </Trackpoint>
          <Trackpoint>
            <Time>2018-09-13T07:31:03.000Z</Time>
            <Position>
              <LatitudeDegrees>39.79105177335441112518310546875</LatitudeDegrees>
              <LongitudeDegrees>-8.0994784645736217498779296875</LongitudeDegrees>
            </Position>
            <AltitudeMeters>317.79998779296875</AltitudeMeters>
            <DistanceMeters>3442.5943051935</DistanceMeters>
          </Trackpoint>
          <Trackpoint>
            <Time>2018-09-13T07:31:09.000Z</Time>
            <Position>
              <LatitudeDegrees>39.7908810339868068695068359375</LatitudeDegrees>
              <LongitudeDegrees>-8.09958483092486858367919921875</LongitudeDegrees>
            </Position>
            <AltitudeMeters>314.20001220703125</AltitudeMeters>
            <DistanceMeters>3463.6628228841</DistanceMeters>
          </Trackpoint>
          <Trackpoint>
            <Time>2018-09-13T07:31:14.000Z</Time>
            <Position>
              <LatitudeDegrees>39.7907408885657787322998046875</LatitudeDegrees>
              <LongitudeDegrees>-8.0996652133762836456298828125</LongitudeDegrees>
            </Position>
            <AltitudeMeters>311.79998779296875</AltitudeMeters>
            <DistanceMeters>3480.7089309388</DistanceMeters>
          </Trackpoint>
          <Trackpoint>
            <Time>2018-09-13T07:31:19.000Z</Time>
            <Position>
              <LatitudeDegrees>39.79059814475476741790771484375</LatitudeDegrees>
              <LongitudeDegrees>-8.09973143041133880615234375</LongitudeDegrees>
            </Position>
            <AltitudeMeters>310</AltitudeMeters>
            <DistanceMeters>3497.5755704468</DistanceMeters>
          </Trackpoint>
          <Trackpoint>
            <Time>2018-09-13T07:31:23.000Z</Time>
            <Position>
              <LatitudeDegrees>39.790485911071300506591796875</LatitudeDegrees>
              <LongitudeDegrees>-8.099770657718181610107421875</LongitudeDegrees>
            </Position>
            <AltitudeMeters>308.79998779296875</AltitudeMeters>
            <DistanceMeters>3510.5103783832</DistanceMeters>
          </Trackpoint>
          <Trackpoint>
            <Time>2018-09-13T07:31:30.000Z</Time>
            <Position>
              <LatitudeDegrees>39.79028365574777126312255859375</LatitudeDegrees>
              <LongitudeDegrees>-8.09983192943036556243896484375</LongitudeDegrees>
            </Position>
            <AltitudeMeters>308.20001220703125</AltitudeMeters>
            <DistanceMeters>3533.6235634174</DistanceMeters>
          </Trackpoint>
          <Trackpoint>
            <Time>2018-09-13T07:31:35.000Z</Time>
            <Position>
              <LatitudeDegrees>39.7901350446045398712158203125</LatitudeDegrees>
              <LongitudeDegrees>-8.099867217242717742919921875</LongitudeDegrees>
            </Position>
            <AltitudeMeters>309</AltitudeMeters>
            <DistanceMeters>3550.4368481375</DistanceMeters>
          </Trackpoint>
          <Trackpoint>
            <Time>2018-09-13T07:31:40.000Z</Time>
            <Position>
              <LatitudeDegrees>39.7899878583848476409912109375</LatitudeDegrees>
              <LongitudeDegrees>-8.0998932011425495147705078125</LongitudeDegrees>
            </Position>
            <AltitudeMeters>310.20001220703125</AltitudeMeters>
            <DistanceMeters>3566.9687655597</DistanceMeters>
          </Trackpoint>
          <Trackpoint>
            <Time>2018-09-13T07:31:45.000Z</Time>
            <Position>
              <LatitudeDegrees>39.78984343819320201873779296875</LatitudeDegrees>
              <LongitudeDegrees>-8.0999171733856201171875</LongitudeDegrees>
            </Position>
            <AltitudeMeters>311.20001220703125</AltitudeMeters>
            <DistanceMeters>3583.1729799139</DistanceMeters>
          </Trackpoint>
          <Trackpoint>
            <Time>2018-09-13T07:31:52.000Z</Time>
            <Position>
              <LatitudeDegrees>39.7896411828696727752685546875</LatitudeDegrees>
              <LongitudeDegrees>-8.0999377928674221038818359375</LongitudeDegrees>
            </Position>
            <AltitudeMeters>312.399993896484375</AltitudeMeters>
            <DistanceMeters>3605.7533748691</DistanceMeters>
          </Trackpoint>
          <Trackpoint>
            <Time>2018-09-13T07:31:56.000Z</Time>
            <Position>
              <LatitudeDegrees>39.78952392004430294036865234375</LatitudeDegrees>
              <LongitudeDegrees>-8.09995581395924091339111328125</LongitudeDegrees>
            </Position>
            <AltitudeMeters>313.20001220703125</AltitudeMeters>
            <DistanceMeters>3618.8956072572</DistanceMeters>
          </Trackpoint>
          <Trackpoint>
            <Time>2018-09-13T07:32:01.000Z</Time>
            <Position>
              <LatitudeDegrees>39.78937656618654727935791015625</LatitudeDegrees>
              <LongitudeDegrees>-8.099976517260074615478515625</LongitudeDegrees>
            </Position>
            <AltitudeMeters>317.399993896484375</AltitudeMeters>
            <DistanceMeters>3635.3919821231</DistanceMeters>
          </Trackpoint>
          <Trackpoint>
            <Time>2018-09-13T07:32:07.000Z</Time>
            <Position>
              <LatitudeDegrees>39.78920213878154754638671875</LatitudeDegrees>
              <LongitudeDegrees>-8.10000912286341190338134765625</LongitudeDegrees>
            </Position>
            <AltitudeMeters>322.399993896484375</AltitudeMeters>
            <DistanceMeters>3655.005505177</DistanceMeters>
          </Trackpoint>
          <Trackpoint>
            <Time>2018-09-13T07:32:12.000Z</Time>
            <Position>
              <LatitudeDegrees>39.78905688039958477020263671875</LatitudeDegrees>
              <LongitudeDegrees>-8.1000410579144954681396484375</LongitudeDegrees>
            </Position>
            <AltitudeMeters>326.399993896484375</AltitudeMeters>
            <DistanceMeters>3671.4022263726</DistanceMeters>
          </Trackpoint>
          <Trackpoint>
            <Time>2018-09-13T07:32:17.000Z</Time>
            <Position>
              <LatitudeDegrees>39.78891489095985889434814453125</LatitudeDegrees>
              <LongitudeDegrees>-8.10008439235389232635498046875</LongitudeDegrees>
            </Position>
            <AltitudeMeters>330</AltitudeMeters>
            <DistanceMeters>3687.6348364719</DistanceMeters>
          </Trackpoint>
          <Trackpoint>
            <Time>2018-09-13T07:32:22.000Z</Time>
            <Position>
              <LatitudeDegrees>39.7887775115668773651123046875</LatitudeDegrees>
              <LongitudeDegrees>-8.10014306567609310150146484375</LongitudeDegrees>
            </Position>
            <AltitudeMeters>334.20001220703125</AltitudeMeters>
            <DistanceMeters>3703.7277725748</DistanceMeters>
          </Trackpoint>
          <Trackpoint>
            <Time>2018-09-13T07:32:27.000Z</Time>
            <Position>
              <LatitudeDegrees>39.7886434011161327362060546875</LatitudeDegrees>
              <LongitudeDegrees>-8.100202493369579315185546875</LongitudeDegrees>
            </Position>
            <AltitudeMeters>337.600006103515625</AltitudeMeters>
            <DistanceMeters>3719.4961952887</DistanceMeters>
          </Trackpoint>
          <Trackpoint>
            <Time>2018-09-13T07:32:31.000Z</Time>
            <Position>
              <LatitudeDegrees>39.78853938169777393341064453125</LatitudeDegrees>
              <LongitudeDegrees>-8.100262843072414398193359375</LongitudeDegrees>
            </Position>
            <AltitudeMeters>339.399993896484375</AltitudeMeters>
            <DistanceMeters>3732.172203345</DistanceMeters>
          </Trackpoint>
          <Trackpoint>
            <Time>2018-09-13T07:32:36.000Z</Time>
            <Position>
              <LatitudeDegrees>39.78841097094118595123291015625</LatitudeDegrees>
              <LongitudeDegrees>-8.10034029185771942138671875</LongitudeDegrees>
            </Position>
            <AltitudeMeters>342.399993896484375</AltitudeMeters>
            <DistanceMeters>3747.9251564255</DistanceMeters>
          </Trackpoint>
          <Trackpoint>
            <Time>2018-09-13T07:32:41.000Z</Time>
            <Position>
              <LatitudeDegrees>39.78828775696456432342529296875</LatitudeDegrees>
              <LongitudeDegrees>-8.1004299782216548919677734375</LongitudeDegrees>
            </Position>
            <AltitudeMeters>345.20001220703125</AltitudeMeters>
            <DistanceMeters>3763.638794142</DistanceMeters>
          </Trackpoint>
          <Trackpoint>
            <Time>2018-09-13T07:32:47.000Z</Time>
            <Position>
              <LatitudeDegrees>39.78814065456390380859375</LatitudeDegrees>
              <LongitudeDegrees>-8.1005379371345043182373046875</LongitudeDegrees>
            </Position>
            <AltitudeMeters>348.399993896484375</AltitudeMeters>
            <DistanceMeters>3782.4358372898</DistanceMeters>
          </Trackpoint>
          <Trackpoint>
            <Time>2018-09-13T07:32:52.000Z</Time>
            <Position>
              <LatitudeDegrees>39.78801928460597991943359375</LatitudeDegrees>
              <LongitudeDegrees>-8.10062653385102748870849609375</LongitudeDegrees>
            </Position>
            <AltitudeMeters>351</AltitudeMeters>
            <DistanceMeters>3797.9249002363</DistanceMeters>
          </Trackpoint>
          <Trackpoint>
            <Time>2018-09-13T07:32:57.000Z</Time>
            <Position>
              <LatitudeDegrees>39.78790218941867351531982421875</LatitudeDegrees>
              <LongitudeDegrees>-8.1007163040339946746826171875</LongitudeDegrees>
            </Position>
            <AltitudeMeters>353.399993896484375</AltitudeMeters>
            <DistanceMeters>3813.0511713213</DistanceMeters>
          </Trackpoint>
          <Trackpoint>
            <Time>2018-09-13T07:33:01.000Z</Time>
            <Position>
              <LatitudeDegrees>39.78780931793153285980224609375</LatitudeDegrees>
              <LongitudeDegrees>-8.100783526897430419921875</LongitudeDegrees>
            </Position>
            <AltitudeMeters>353.79998779296875</AltitudeMeters>
            <DistanceMeters>3824.8788483659</DistanceMeters>
          </Trackpoint>
          <Trackpoint>
            <Time>2018-09-13T07:33:05.000Z</Time>
            <Position>
              <LatitudeDegrees>39.78771686553955078125</LatitudeDegrees>
              <LongitudeDegrees>-8.10085033066570758819580078125</LongitudeDegrees>
            </Position>
            <AltitudeMeters>353.79998779296875</AltitudeMeters>
            <DistanceMeters>3836.648742279</DistanceMeters>
          </Trackpoint>
          <Trackpoint>
            <Time>2018-09-13T07:33:10.000Z</Time>
            <Position>
              <LatitudeDegrees>39.7876033745706081390380859375</LatitudeDegrees>
              <LongitudeDegrees>-8.1009449623525142669677734375</LongitudeDegrees>
            </Position>
            <AltitudeMeters>353.399993896484375</AltitudeMeters>
            <DistanceMeters>3851.6509296292</DistanceMeters>
          </Trackpoint>
          <Trackpoint>
            <Time>2018-09-13T07:33:16.000Z</Time>
            <Position>
              <LatitudeDegrees>39.787467755377292633056640625</LatitudeDegrees>
              <LongitudeDegrees>-8.1010438688099384307861328125</LongitudeDegrees>
            </Position>
            <AltitudeMeters>352.399993896484375</AltitudeMeters>
            <DistanceMeters>3868.9541436247</DistanceMeters>
          </Trackpoint>
          <Trackpoint>
            <Time>2018-09-13T07:33:22.000Z</Time>
            <Position>
              <LatitudeDegrees>39.787332303822040557861328125</LatitudeDegrees>
              <LongitudeDegrees>-8.1011504866182804107666015625</LongitudeDegrees>
            </Position>
            <AltitudeMeters>351.399993896484375</AltitudeMeters>
            <DistanceMeters>3886.5730805369</DistanceMeters>
          </Trackpoint>
          <Trackpoint>
            <Time>2018-09-13T07:33:27.000Z</Time>
            <Position>
              <LatitudeDegrees>39.78721722029149532318115234375</LatitudeDegrees>
              <LongitudeDegrees>-8.1012416817247867584228515625</LongitudeDegrees>
            </Position>
            <AltitudeMeters>350.399993896484375</AltitudeMeters>
            <DistanceMeters>3901.5698496527</DistanceMeters>
          </Trackpoint>
          <Trackpoint>
            <Time>2018-09-13T07:33:33.000Z</Time>
            <Position>
              <LatitudeDegrees>39.787078164517879486083984375</LatitudeDegrees>
              <LongitudeDegrees>-8.1013452820479869842529296875</LongitudeDegrees>
            </Position>
            <AltitudeMeters>349.399993896484375</AltitudeMeters>
            <DistanceMeters>3919.4040121648</DistanceMeters>
          </Trackpoint>
          <Trackpoint>
            <Time>2018-09-13T07:33:39.000Z</Time>
            <Position>
              <LatitudeDegrees>39.78694095276296138763427734375</LatitudeDegrees>
              <LongitudeDegrees>-8.101451396942138671875</LongitudeDegrees>
            </Position>
            <AltitudeMeters>349.20001220703125</AltitudeMeters>
            <DistanceMeters>3937.1691795357</DistanceMeters>
          </Trackpoint>
          <Trackpoint>
            <Time>2018-09-13T07:33:45.000Z</Time>
            <Position>
              <LatitudeDegrees>39.78680600412189960479736328125</LatitudeDegrees>
              <LongitudeDegrees>-8.101549632847309112548828125</LongitudeDegrees>
            </Position>
            <AltitudeMeters>349.399993896484375</AltitudeMeters>
            <DistanceMeters>3954.3792494764</DistanceMeters>
          </Trackpoint>
          <Trackpoint>
            <Time>2018-09-13T07:33:51.000Z</Time>
            <Position>
              <LatitudeDegrees>39.78667357005178928375244140625</LatitudeDegrees>
              <LongitudeDegrees>-8.101644180715084075927734375</LongitudeDegrees>
            </Position>
            <AltitudeMeters>349.600006103515625</AltitudeMeters>
            <DistanceMeters>3971.191997108</DistanceMeters>
          </Trackpoint>
          <Trackpoint>
            <Time>2018-09-13T07:33:56.000Z</Time>
            <Position>
              <LatitudeDegrees>39.786564521491527557373046875</LatitudeDegrees>
              <LongitudeDegrees>-8.101727999746799468994140625</LongitudeDegrees>
            </Position>
            <AltitudeMeters>349.600006103515625</AltitudeMeters>
            <DistanceMeters>3985.2883381989</DistanceMeters>
          </Trackpoint>
          <Trackpoint>
            <Time>2018-09-13T07:34:01.000Z</Time>
            <Position>
              <LatitudeDegrees>39.7864537127315998077392578125</LatitudeDegrees>
              <LongitudeDegrees>-8.101812489330768585205078125</LongitudeDegrees>
            </Position>
            <AltitudeMeters>350.399993896484375</AltitudeMeters>
            <DistanceMeters>3999.5825167236</DistanceMeters>
          </Trackpoint>
          <Trackpoint>
            <Time>2018-09-13T07:34:07.000Z</Time>
            <Position>
              <LatitudeDegrees>39.786317087709903717041015625</LatitudeDegrees>
              <LongitudeDegrees>-8.10190795920789241790771484375</LongitudeDegrees>
            </Position>
            <AltitudeMeters>351.79998779296875</AltitudeMeters>
            <DistanceMeters>4016.8428841021</DistanceMeters>
          </Trackpoint>
          <Trackpoint>
            <Time>2018-09-13T07:34:13.000Z</Time>
            <Position>
              <LatitudeDegrees>39.78617082349956035614013671875</LatitudeDegrees>
              <LongitudeDegrees>-8.10200032778084278106689453125</LongitudeDegrees>
            </Position>
            <AltitudeMeters>353.600006103515625</AltitudeMeters>
            <DistanceMeters>4034.938176361</DistanceMeters>
          </Trackpoint>
          <Trackpoint>
            <Time>2018-09-13T07:34:18.000Z</Time>
            <Position>
              <LatitudeDegrees>39.7860490344464778900146484375</LatitudeDegrees>
              <LongitudeDegrees>-8.10208045877516269683837890625</LongitudeDegrees>
            </Position>
            <AltitudeMeters>355.399993896484375</AltitudeMeters>
            <DistanceMeters>4050.127595479</DistanceMeters>
          </Trackpoint>
          <Trackpoint>
            <Time>2018-09-13T07:34:22.000Z</Time>
            <Position>
              <LatitudeDegrees>39.78594853542745113372802734375</LatitudeDegrees>
              <LongitudeDegrees>-8.10213896445930004119873046875</LongitudeDegrees>
            </Position>
            <AltitudeMeters>357</AltitudeMeters>
            <DistanceMeters>4062.3812525294</DistanceMeters>
          </Trackpoint>
          <Trackpoint>
            <Time>2018-09-13T07:34:28.000Z</Time>
            <Position>
              <LatitudeDegrees>39.78579497896134853363037109375</LatitudeDegrees>
              <LongitudeDegrees>-8.10221171937882900238037109375</LongitudeDegrees>
            </Position>
            <AltitudeMeters>359.399993896484375</AltitudeMeters>
            <DistanceMeters>4080.5698720648</DistanceMeters>
          </Trackpoint>
          <Trackpoint>
            <Time>2018-09-13T07:34:33.000Z</Time>
            <Position>
              <LatitudeDegrees>39.785670675337314605712890625</LatitudeDegrees>
              <LongitudeDegrees>-8.10226033441722393035888671875</LongitudeDegrees>
            </Position>
            <AltitudeMeters>361</AltitudeMeters>
            <DistanceMeters>4095.0161205984</DistanceMeters>
          </Trackpoint>
          <Trackpoint>
            <Time>2018-09-13T07:34:39.000Z</Time>
            <Position>
              <LatitudeDegrees>39.7855174541473388671875</LatitudeDegrees>
              <LongitudeDegrees>-8.1023108772933483123779296875</LongitudeDegrees>
            </Position>
            <AltitudeMeters>362.399993896484375</AltitudeMeters>
            <DistanceMeters>4112.6094127937</DistanceMeters>
          </Trackpoint>
          <Trackpoint>
            <Time>2018-09-13T07:34:45.000Z</Time>
            <Position>
              <LatitudeDegrees>39.7853620536625385284423828125</LatitudeDegrees>
              <LongitudeDegrees>-8.10235169716179370880126953125</LongitudeDegrees>
            </Position>
            <AltitudeMeters>364</AltitudeMeters>
            <DistanceMeters>4130.2547247997</DistanceMeters>
          </Trackpoint>
          <Trackpoint>
            <Time>2018-09-13T07:34:51.000Z</Time>
            <Position>
              <LatitudeDegrees>39.7852071560919284820556640625</LatitudeDegrees>
              <LongitudeDegrees>-8.10239410959184169769287109375</LongitudeDegrees>
            </Position>
            <AltitudeMeters>365.79998779296875</AltitudeMeters>
            <DistanceMeters>4147.8723803626</DistanceMeters>
          </Trackpoint>
          <Trackpoint>
            <Time>2018-09-13T07:34:57.000Z</Time>
            <Position>
              <LatitudeDegrees>39.78505452163517475128173828125</LatitudeDegrees>
              <LongitudeDegrees>-8.102440126240253448486328125</LongitudeDegrees>
            </Position>
            <AltitudeMeters>367.79998779296875</AltitudeMeters>
            <DistanceMeters>4165.3107534038</DistanceMeters>
          </Trackpoint>
          <Trackpoint>
            <Time>2018-09-13T07:35:03.000Z</Time>
            <Position>
              <LatitudeDegrees>39.784902893006801605224609375</LatitudeDegrees>
              <LongitudeDegrees>-8.102491758763790130615234375</LongitudeDegrees>
            </Position>
            <AltitudeMeters>369.600006103515625</AltitudeMeters>
            <DistanceMeters>4182.7558569092</DistanceMeters>
          </Trackpoint>
          <Trackpoint>
            <Time>2018-09-13T07:35:10.000Z</Time>
            <Position>
              <LatitudeDegrees>39.78472511284053325653076171875</LatitudeDegrees>
              <LongitudeDegrees>-8.10254096053540706634521484375</LongitudeDegrees>
            </Position>
            <AltitudeMeters>371.79998779296875</AltitudeMeters>
            <DistanceMeters>4202.9856138144</DistanceMeters>
          </Trackpoint>
          <Trackpoint>
            <Time>2018-09-13T07:35:15.000Z</Time>
            <Position>
              <LatitudeDegrees>39.78459720499813556671142578125</LatitudeDegrees>
              <LongitudeDegrees>-8.102575242519378662109375</LongitudeDegrees>
            </Position>
            <AltitudeMeters>373.399993896484375</AltitudeMeters>
            <DistanceMeters>4217.5206634697</DistanceMeters>
          </Trackpoint>
          <Trackpoint>
            <Time>2018-09-13T07:35:21.000Z</Time>
            <Position>
              <LatitudeDegrees>39.78444566018879413604736328125</LatitudeDegrees>
              <LongitudeDegrees>-8.102621845901012420654296875</LongitudeDegrees>
            </Position>
            <AltitudeMeters>375</AltitudeMeters>
            <DistanceMeters>4234.8525567011</DistanceMeters>
          </Trackpoint>
          <Trackpoint>
            <Time>2018-09-13T07:35:25.000Z</Time>
            <Position>
              <LatitudeDegrees>39.78434524498879909515380859375</LatitudeDegrees>
              <LongitudeDegrees>-8.1026448123157024383544921875</LongitudeDegrees>
            </Position>
            <AltitudeMeters>376.20001220703125</AltitudeMeters>
            <DistanceMeters>4246.2001947853</DistanceMeters>
          </Trackpoint>
          <Trackpoint>
            <Time>2018-09-13T07:35:32.000Z</Time>
            <Position>
              <LatitudeDegrees>39.78416092693805694580078125</LatitudeDegrees>
              <LongitudeDegrees>-8.10269166715443134307861328125</LongitudeDegrees>
            </Position>
            <AltitudeMeters>378.20001220703125</AltitudeMeters>
            <DistanceMeters>4267.1030481508</DistanceMeters>
          </Trackpoint>
          <Trackpoint>
            <Time>2018-09-13T07:35:39.000Z</Time>
            <Position>
              <LatitudeDegrees>39.783969819545745849609375</LatitudeDegrees>
              <LongitudeDegrees>-8.102739863097667694091796875</LongitudeDegrees>
            </Position>
            <AltitudeMeters>380.20001220703125</AltitudeMeters>
            <DistanceMeters>4288.769555807</DistanceMeters>
          </Trackpoint>
          <Trackpoint>
            <Time>2018-09-13T07:35:44.000Z</Time>
            <Position>
              <LatitudeDegrees>39.78382967412471771240234375</LatitudeDegrees>
              <LongitudeDegrees>-8.1027702055871486663818359375</LongitudeDegrees>
            </Position>
            <AltitudeMeters>381.79998779296875</AltitudeMeters>
            <DistanceMeters>4304.5822980338</DistanceMeters>
          </Trackpoint>
          <Trackpoint>
            <Time>2018-09-13T07:35:49.000Z</Time>
            <Position>
              <LatitudeDegrees>39.78368592448532581329345703125</LatitudeDegrees>
              <LongitudeDegrees>-8.10280851088464260101318359375</LongitudeDegrees>
            </Position>
            <AltitudeMeters>382.79998779296875</AltitudeMeters>
            <DistanceMeters>4320.9136279812</DistanceMeters>
          </Trackpoint>
          <Trackpoint>
            <Time>2018-09-13T07:35:55.000Z</Time>
            <Position>
              <LatitudeDegrees>39.7835136763751506805419921875</LatitudeDegrees>
              <LongitudeDegrees>-8.1028563715517520904541015625</LongitudeDegrees>
            </Position>
            <AltitudeMeters>382</AltitudeMeters>
            <DistanceMeters>4340.5172499246</DistanceMeters>
          </Trackpoint>
          <Trackpoint>
            <Time>2018-09-13T07:36:01.000Z</Time>
            <Position>
              <LatitudeDegrees>39.78333882987499237060546875</LatitudeDegrees>
              <LongitudeDegrees>-8.10291680507361888885498046875</LongitudeDegrees>
            </Position>
            <AltitudeMeters>381.79998779296875</AltitudeMeters>
            <DistanceMeters>4360.6530496936</DistanceMeters>
          </Trackpoint>
          <Trackpoint>
            <Time>2018-09-13T07:36:08.000Z</Time>
            <Position>
              <LatitudeDegrees>39.78312383405864238739013671875</LatitudeDegrees>
              <LongitudeDegrees>-8.10299693606793880462646484375</LongitudeDegrees>
            </Position>
            <AltitudeMeters>382</AltitudeMeters>
            <DistanceMeters>4385.5446078032</DistanceMeters>
          </Trackpoint>
          <Trackpoint>
            <Time>2018-09-13T07:36:14.000Z</Time>
            <Position>
              <LatitudeDegrees>39.78293876163661479949951171875</LatitudeDegrees>
              <LongitudeDegrees>-8.103084526956081390380859375</LongitudeDegrees>
            </Position>
            <AltitudeMeters>382</AltitudeMeters>
            <DistanceMeters>4407.4636683944</DistanceMeters>
          </Trackpoint>
          <Trackpoint>
            <Time>2018-09-13T07:36:15.000Z</Time>
            <Position>
              <LatitudeDegrees>39.782908000051975250244140625</LatitudeDegrees>
              <LongitudeDegrees>-8.10310154221951961517333984375</LongitudeDegrees>
            </Position>
            <AltitudeMeters>382</AltitudeMeters>
            <DistanceMeters>4411.1830873157</DistanceMeters>
          </Trackpoint>
          <Trackpoint>
            <Time>2018-09-13T07:36:23.000Z</Time>
            <Position>
              <LatitudeDegrees>39.78265880607068538665771484375</LatitudeDegrees>
              <LongitudeDegrees>-8.10325442813336849212646484375</LongitudeDegrees>
            </Position>
            <AltitudeMeters>381.79998779296875</AltitudeMeters>
            <DistanceMeters>4441.8471346669</DistanceMeters>
          </Trackpoint>
          <Trackpoint>
            <Time>2018-09-13T07:36:31.000Z</Time>
            <Position>
              <LatitudeDegrees>39.7823958657681941986083984375</LatitudeDegrees>
              <LongitudeDegrees>-8.10342558659613132476806640625</LongitudeDegrees>
            </Position>
            <AltitudeMeters>381.399993896484375</AltitudeMeters>
            <DistanceMeters>4474.5702843454</DistanceMeters>
          </Trackpoint>
          <Trackpoint>
            <Time>2018-09-13T07:36:41.000Z</Time>
            <Position>
              <LatitudeDegrees>39.7820346057415008544921875</LatitudeDegrees>
              <LongitudeDegrees>-8.10365592129528522491455078125</LongitudeDegrees>
            </Position>
            <AltitudeMeters>379.79998779296875</AltitudeMeters>
            <DistanceMeters>4519.3465252836</DistanceMeters>
          </Trackpoint>
          <Trackpoint>
            <Time>2018-09-13T07:36:45.000Z</Time>
            <Position>
              <LatitudeDegrees>39.781877361238002777099609375</LatitudeDegrees>
              <LongitudeDegrees>-8.10375935398042201995849609375</LongitudeDegrees>
            </Position>
            <AltitudeMeters>379</AltitudeMeters>
            <DistanceMeters>4538.9572857398</DistanceMeters>
          </Trackpoint>
          <Trackpoint>
            <Time>2018-09-13T07:36:50.000Z</Time>
            <Position>
              <LatitudeDegrees>39.781696982681751251220703125</LatitudeDegrees>
              <LongitudeDegrees>-8.10387971810996532440185546875</LongitudeDegrees>
            </Position>
            <AltitudeMeters>377.79998779296875</AltitudeMeters>
            <DistanceMeters>4561.5196776665</DistanceMeters>
          </Trackpoint>
          <Trackpoint>
            <Time>2018-09-13T07:37:02.000Z</Time>
            <Position>
              <LatitudeDegrees>39.78117520920932292938232421875</LatitudeDegrees>
              <LongitudeDegrees>-8.1042192690074443817138671875</LongitudeDegrees>
            </Position>
            <AltitudeMeters>374</AltitudeMeters>
            <DistanceMeters>4626.4515783147</DistanceMeters>
          </Trackpoint>
          <Trackpoint>
            <Time>2018-09-13T07:37:11.000Z</Time>
            <Position>
              <LatitudeDegrees>39.78069148957729339599609375</LatitudeDegrees>
              <LongitudeDegrees>-8.10450039803981781005859375</LongitudeDegrees>
            </Position>
            <AltitudeMeters>372</AltitudeMeters>
            <DistanceMeters>4685.4165543038</DistanceMeters>
          </Trackpoint>
          <Trackpoint>
            <Time>2018-09-13T07:37:15.000Z</Time>
            <Position>
              <LatitudeDegrees>39.78043156675994396209716796875</LatitudeDegrees>
              <LongitudeDegrees>-8.1045635975897312164306640625</LongitudeDegrees>
            </Position>
            <AltitudeMeters>371</AltitudeMeters>
            <DistanceMeters>4714.8472344269</DistanceMeters>
          </Trackpoint>
          <Trackpoint>
            <Time>2018-09-13T07:37:18.000Z</Time>
            <Position>
              <LatitudeDegrees>39.78022218681871891021728515625</LatitudeDegrees>
              <LongitudeDegrees>-8.10456787236034870147705078125</LongitudeDegrees>
            </Position>
            <AltitudeMeters>368.399993896484375</AltitudeMeters>
            <DistanceMeters>4738.154558141</DistanceMeters>
          </Trackpoint>
          <Trackpoint>
            <Time>2018-09-13T07:37:24.000Z</Time>
            <Position>
              <LatitudeDegrees>39.7797753475606441497802734375</LatitudeDegrees>
              <LongitudeDegrees>-8.10439788736402988433837890625</LongitudeDegrees>
            </Position>
            <AltitudeMeters>362.79998779296875</AltitudeMeters>
            <DistanceMeters>4789.9705264225</DistanceMeters>
          </Trackpoint>
          <Trackpoint>
            <Time>2018-09-13T07:37:26.000Z</Time>
            <Position>
              <LatitudeDegrees>39.779619276523590087890625</LatitudeDegrees>
              <LongitudeDegrees>-8.10429831035435199737548828125</LongitudeDegrees>
            </Position>
            <AltitudeMeters>360.79998779296875</AltitudeMeters>
            <DistanceMeters>4809.317508065</DistanceMeters>
          </Trackpoint>
          <Trackpoint>
            <Time>2018-09-13T07:37:28.000Z</Time>
            <Position>
              <LatitudeDegrees>39.77945624850690364837646484375</LatitudeDegrees>
              <LongitudeDegrees>-8.10418699868023395538330078125</LongitudeDegrees>
            </Position>
            <AltitudeMeters>360.600006103515625</AltitudeMeters>
            <DistanceMeters>4829.809154771</DistanceMeters>
          </Trackpoint>
          <Trackpoint>
            <Time>2018-09-13T07:37:30.000Z</Time>
            <Position>
              <LatitudeDegrees>39.77928592823445796966552734375</LatitudeDegrees>
              <LongitudeDegrees>-8.10406847856938838958740234375</LongitudeDegrees>
            </Position>
            <AltitudeMeters>361.79998779296875</AltitudeMeters>
            <DistanceMeters>4851.3068356302</DistanceMeters>
          </Trackpoint>
          <Trackpoint>
            <Time>2018-09-13T07:37:32.000Z</Time>
            <Position>
              <LatitudeDegrees>39.77910823188722133636474609375</LatitudeDegrees>
              <LongitudeDegrees>-8.1039460189640522003173828125</LongitudeDegrees>
            </Position>
            <AltitudeMeters>362.79998779296875</AltitudeMeters>
            <DistanceMeters>4873.6875938914</DistanceMeters>
          </Trackpoint>
          <Trackpoint>
            <Time>2018-09-13T07:37:34.000Z</Time>
            <Position>
              <LatitudeDegrees>39.778926260769367218017578125</LatitudeDegrees>
              <LongitudeDegrees>-8.103822134435176849365234375</LongitudeDegrees>
            </Position>
            <AltitudeMeters>363.399993896484375</AltitudeMeters>
            <DistanceMeters>4896.5462102834</DistanceMeters>
          </Trackpoint>
          <Trackpoint>
            <Time>2018-09-13T07:37:36.000Z</Time>
            <Position>
              <LatitudeDegrees>39.7787383385002613067626953125</LatitudeDegrees>
              <LongitudeDegrees>-8.103696741163730621337890625</LongitudeDegrees>
            </Position>
            <AltitudeMeters>364</AltitudeMeters>
            <DistanceMeters>4920.0522162702</DistanceMeters>
          </Trackpoint>
          <Trackpoint>
            <Time>2018-09-13T07:37:38.000Z</Time>
            <Position>
              <LatitudeDegrees>39.7785485722124576568603515625</LatitudeDegrees>
              <LongitudeDegrees>-8.10357101261615753173828125</LongitudeDegrees>
            </Position>
            <AltitudeMeters>362.79998779296875</AltitudeMeters>
            <DistanceMeters>4943.7539057808</DistanceMeters>
          </Trackpoint>
          <Trackpoint>
            <Time>2018-09-13T07:37:40.000Z</Time>
            <Position>
              <LatitudeDegrees>39.7783561237156391143798828125</LatitudeDegrees>
              <LongitudeDegrees>-8.10344318859279155731201171875</LongitudeDegrees>
            </Position>
            <AltitudeMeters>360.20001220703125</AltitudeMeters>
            <DistanceMeters>4967.8029875945</DistanceMeters>
          </Trackpoint>
          <Trackpoint>
            <Time>2018-09-13T07:37:42.000Z</Time>
            <Position>
              <LatitudeDegrees>39.7781579755246639251708984375</LatitudeDegrees>
              <LongitudeDegrees>-8.10331226326525211334228515625</LongitudeDegrees>
            </Position>
            <AltitudeMeters>358</AltitudeMeters>
            <DistanceMeters>4992.5378773114</DistanceMeters>
          </Trackpoint>
          <Trackpoint>
            <Time>2018-09-13T07:37:44.000Z</Time>
            <Position>
              <LatitudeDegrees>39.77795555256307125091552734375</LatitudeDegrees>
              <LongitudeDegrees>-8.1031789071857929229736328125</LongitudeDegrees>
            </Position>
            <AltitudeMeters>355.79998779296875</AltitudeMeters>
            <DistanceMeters>5017.79139427</DistanceMeters>
          </Trackpoint>
          <Trackpoint>
            <Time>2018-09-13T07:37:46.000Z</Time>
            <Position>
              <LatitudeDegrees>39.77774902246892452239990234375</LatitudeDegrees>
              <LongitudeDegrees>-8.103046305477619171142578125</LongitudeDegrees>
            </Position>
            <AltitudeMeters>354.20001220703125</AltitudeMeters>
            <DistanceMeters>5043.4244871831</DistanceMeters>
          </Trackpoint>
          <Trackpoint>
            <Time>2018-09-13T07:37:49.000Z</Time>
            <Position>
              <LatitudeDegrees>39.7774243913590908050537109375</LatitudeDegrees>
              <LongitudeDegrees>-8.1028691120445728302001953125</LongitudeDegrees>
            </Position>
            <AltitudeMeters>353.600006103515625</AltitudeMeters>
            <DistanceMeters>5082.6068489892</DistanceMeters>
          </Trackpoint>
          <Trackpoint>
            <Time>2018-09-13T07:37:51.000Z</Time>
            <Position>
              <LatitudeDegrees>39.77719648741185665130615234375</LatitudeDegrees>
              <LongitudeDegrees>-8.10279862023890018463134765625</LongitudeDegrees>
            </Position>
            <AltitudeMeters>354.399993896484375</AltitudeMeters>
            <DistanceMeters>5108.6796928076</DistanceMeters>
          </Trackpoint>
          <Trackpoint>
            <Time>2018-09-13T07:37:53.000Z</Time>
            <Position>
              <LatitudeDegrees>39.77696950547397136688232421875</LatitudeDegrees>
              <LongitudeDegrees>-8.10278403572738170623779296875</LongitudeDegrees>
            </Position>
            <AltitudeMeters>355.600006103515625</AltitudeMeters>
            <DistanceMeters>5133.9739406953</DistanceMeters>
          </Trackpoint>
          <Trackpoint>
            <Time>2018-09-13T07:37:56.000Z</Time>
            <Position>
              <LatitudeDegrees>39.77665166370570659637451171875</LatitudeDegrees>
              <LongitudeDegrees>-8.10286383144557476043701171875</LongitudeDegrees>
            </Position>
            <AltitudeMeters>358</AltitudeMeters>
            <DistanceMeters>5170.0028529589</DistanceMeters>
          </Trackpoint>
          <Trackpoint>
            <Time>2018-09-13T07:38:00.000Z</Time>
            <Position>
              <LatitudeDegrees>39.7763169743120670318603515625</LatitudeDegrees>
              <LongitudeDegrees>-8.1030934117734432220458984375</LongitudeDegrees>
            </Position>
            <AltitudeMeters>359.79998779296875</AltitudeMeters>
            <DistanceMeters>5212.1140569586</DistanceMeters>
          </Trackpoint>
          <Trackpoint>
            <Time>2018-09-13T07:38:02.000Z</Time>
            <Position>
              <LatitudeDegrees>39.77618663571774959564208984375</LatitudeDegrees>
              <LongitudeDegrees>-8.1032348982989788055419921875</LongitudeDegrees>
            </Position>
            <AltitudeMeters>360.20001220703125</AltitudeMeters>
            <DistanceMeters>5231.0064575875</DistanceMeters>
          </Trackpoint>
          <Trackpoint>
            <Time>2018-09-13T07:38:10.000Z</Time>
            <Position>
              <LatitudeDegrees>39.77575086057186126708984375</LatitudeDegrees>
              <LongitudeDegrees>-8.10375818051397800445556640625</LongitudeDegrees>
            </Position>
            <AltitudeMeters>360</AltitudeMeters>
            <DistanceMeters>5297.0077612651</DistanceMeters>
          </Trackpoint>
          <Trackpoint>
            <Time>2018-09-13T07:38:15.000Z</Time>
            <Position>
              <LatitudeDegrees>39.77551138959825038909912109375</LatitudeDegrees>
              <LongitudeDegrees>-8.1040492840111255645751953125</LongitudeDegrees>
            </Position>
            <AltitudeMeters>359.600006103515625</AltitudeMeters>
            <DistanceMeters>5333.483663766</DistanceMeters>
          </Trackpoint>
          <Trackpoint>
            <Time>2018-09-13T07:38:18.000Z</Time>
            <Position>
              <LatitudeDegrees>39.77537241764366626739501953125</LatitudeDegrees>
              <LongitudeDegrees>-8.1042165867984294891357421875</LongitudeDegrees>
            </Position>
            <AltitudeMeters>359.399993896484375</AltitudeMeters>
            <DistanceMeters>5354.5566813307</DistanceMeters>
          </Trackpoint>
          <Trackpoint>
            <Time>2018-09-13T07:38:23.000Z</Time>
            <Position>
              <LatitudeDegrees>39.7751512192189693450927734375</LatitudeDegrees>
              <LongitudeDegrees>-8.10448790900409221649169921875</LongitudeDegrees>
            </Position>
            <AltitudeMeters>359.79998779296875</AltitudeMeters>
            <DistanceMeters>5388.3917966906</DistanceMeters>
          </Trackpoint>
          <Trackpoint>
            <Time>2018-09-13T07:38:28.000Z</Time>
            <Position>
              <LatitudeDegrees>39.77492851205170154571533203125</LatitudeDegrees>
              <LongitudeDegrees>-8.104759566485881805419921875</LongitudeDegrees>
            </Position>
            <AltitudeMeters>360.399993896484375</AltitudeMeters>
            <DistanceMeters>5422.3689967368</DistanceMeters>
          </Trackpoint>
          <Trackpoint>
            <Time>2018-09-13T07:38:32.000Z</Time>
            <Position>
              <LatitudeDegrees>39.7747539170086383819580078125</LatitudeDegrees>
              <LongitudeDegrees>-8.10497020371258258819580078125</LongitudeDegrees>
            </Position>
            <AltitudeMeters>360.79998779296875</AltitudeMeters>
            <DistanceMeters>5448.8700375721</DistanceMeters>
          </Trackpoint>
          <Trackpoint>
            <Time>2018-09-13T07:38:36.000Z</Time>
            <Position>
              <LatitudeDegrees>39.7745755501091480255126953125</LatitudeDegrees>
              <LongitudeDegrees>-8.1051888875663280487060546875</LongitudeDegrees>
            </Position>
            <AltitudeMeters>361.79998779296875</AltitudeMeters>
            <DistanceMeters>5476.1478362183</DistanceMeters>
          </Trackpoint>
          <Trackpoint>
            <Time>2018-09-13T07:38:37.000Z</Time>
            <Position>
              <LatitudeDegrees>39.7745311260223388671875</LatitudeDegrees>
              <LongitudeDegrees>-8.1052455492317676544189453125</LongitudeDegrees>
            </Position>
            <AltitudeMeters>362</AltitudeMeters>
            <DistanceMeters>5483.0711046491</DistanceMeters>
          </Trackpoint>
          <Trackpoint>
            <Time>2018-09-13T07:38:43.000Z</Time>
            <Position>
              <LatitudeDegrees>39.7742852009832859039306640625</LatitudeDegrees>
              <LongitudeDegrees>-8.1056150235235691070556640625</LongitudeDegrees>
            </Position>
            <AltitudeMeters>360.399993896484375</AltitudeMeters>
            <DistanceMeters>5524.8822110575</DistanceMeters>
          </Trackpoint>
          <Trackpoint>
            <Time>2018-09-13T07:38:50.000Z</Time>
            <Position>
              <LatitudeDegrees>39.77409283630549907684326171875</LatitudeDegrees>
              <LongitudeDegrees>-8.10611450113356113433837890625</LongitudeDegrees>
            </Position>
            <AltitudeMeters>357.79998779296875</AltitudeMeters>
            <DistanceMeters>5572.673563364</DistanceMeters>
          </Trackpoint>
          <Trackpoint>
            <Time>2018-09-13T07:38:56.000Z</Time>
            <Position>
              <LatitudeDegrees>39.77401605807244777679443359375</LatitudeDegrees>
              <LongitudeDegrees>-8.1066034175455570220947265625</LongitudeDegrees>
            </Position>
            <AltitudeMeters>354.399993896484375</AltitudeMeters>
            <DistanceMeters>5615.3613996437</DistanceMeters>
          </Trackpoint>
          <Trackpoint>
            <Time>2018-09-13T07:39:05.000Z</Time>
            <Position>
              <LatitudeDegrees>39.7739643417298793792724609375</LatitudeDegrees>
              <LongitudeDegrees>-8.107363320887088775634765625</LongitudeDegrees>
            </Position>
            <AltitudeMeters>356.399993896484375</AltitudeMeters>
            <DistanceMeters>5680.6207492627</DistanceMeters>
          </Trackpoint>
          <Trackpoint>
            <Time>2018-09-13T07:39:14.000Z</Time>
            <Position>
              <LatitudeDegrees>39.773923270404338836669921875</LatitudeDegrees>
              <LongitudeDegrees>-8.1081078015267848968505859375</LongitudeDegrees>
            </Position>
            <AltitudeMeters>357.399993896484375</AltitudeMeters>
            <DistanceMeters>5744.4703576552</DistanceMeters>
          </Trackpoint>
          <Trackpoint>
            <Time>2018-09-13T07:39:15.000Z</Time>
            <Position>
              <LatitudeDegrees>39.77391354739665985107421875</LatitudeDegrees>
              <LongitudeDegrees>-8.108184076845645904541015625</LongitudeDegrees>
            </Position>
            <AltitudeMeters>357.600006103515625</AltitudeMeters>
            <DistanceMeters>5751.0834250387</DistanceMeters>
          </Trackpoint>
          <Trackpoint>
            <Time>2018-09-13T07:39:24.000Z</Time>
            <Position>
              <LatitudeDegrees>39.7737326659262180328369140625</LatitudeDegrees>
              <LongitudeDegrees>-8.10884465463459491729736328125</LongitudeDegrees>
            </Position>
            <AltitudeMeters>359</AltitudeMeters>
            <DistanceMeters>5811.0711036339</DistanceMeters>
          </Trackpoint>
          <Trackpoint>
            <Time>2018-09-13T07:39:25.000Z</Time>
            <Position>
              <LatitudeDegrees>39.77369922213256359100341796875</LatitudeDegrees>
              <LongitudeDegrees>-8.10891439206898212432861328125</LongitudeDegrees>
            </Position>
            <AltitudeMeters>359.20001220703125</AltitudeMeters>
            <DistanceMeters>5818.1030804973</DistanceMeters>
          </Trackpoint>
          <Trackpoint>
            <Time>2018-09-13T07:39:34.000Z</Time>
            <Position>
              <LatitudeDegrees>39.7733082063496112823486328125</LatitudeDegrees>
              <LongitudeDegrees>-8.1095082499086856842041015625</LongitudeDegrees>
            </Position>
            <AltitudeMeters>357.79998779296875</AltitudeMeters>
            <DistanceMeters>5884.997230403</DistanceMeters>
          </Trackpoint>
          <Trackpoint>
            <Time>2018-09-13T07:39:42.000Z</Time>
            <Position>
              <LatitudeDegrees>39.77289506234228610992431640625</LatitudeDegrees>
              <LongitudeDegrees>-8.1100031174719333648681640625</LongitudeDegrees>
            </Position>
            <AltitudeMeters>357.20001220703125</AltitudeMeters>
            <DistanceMeters>5947.5002526621</DistanceMeters>
          </Trackpoint>
          <Trackpoint>
            <Time>2018-09-13T07:39:50.000Z</Time>
            <Position>
              <LatitudeDegrees>39.7724805772304534912109375</LatitudeDegrees>
              <LongitudeDegrees>-8.1104808859527111053466796875</LongitudeDegrees>
            </Position>
            <AltitudeMeters>357.20001220703125</AltitudeMeters>
            <DistanceMeters>6009.1337034637</DistanceMeters>
          </Trackpoint>
          <Trackpoint>
            <Time>2018-09-13T07:39:52.000Z</Time>
            <Position>
              <LatitudeDegrees>39.77238208986818790435791015625</LatitudeDegrees>
              <LongitudeDegrees>-8.11059496365487575531005859375</LongitudeDegrees>
            </Position>
            <AltitudeMeters>357.399993896484375</AltitudeMeters>
            <DistanceMeters>6023.8097173415</DistanceMeters>
          </Trackpoint>
          <Trackpoint>
            <Time>2018-09-13T07:39:55.000Z</Time>
            <Position>
              <LatitudeDegrees>39.77222970686852931976318359375</LatitudeDegrees>
              <LongitudeDegrees>-8.11075371690094470977783203125</LongitudeDegrees>
            </Position>
            <AltitudeMeters>357.20001220703125</AltitudeMeters>
            <DistanceMeters>6045.5376124666</DistanceMeters>
          </Trackpoint>
          <Trackpoint>
            <Time>2018-09-13T07:39:56.000Z</Time>
            <Position>
              <LatitudeDegrees>39.772175140678882598876953125</LatitudeDegrees>
              <LongitudeDegrees>-8.1107990629971027374267578125</LongitudeDegrees>
            </Position>
            <AltitudeMeters>357</AltitudeMeters>
            <DistanceMeters>6052.7439964162</DistanceMeters>
          </Trackpoint>
          <Trackpoint>
            <Time>2018-09-13T07:40:05.000Z</Time>
            <Position>
              <LatitudeDegrees>39.771636016666889190673828125</LatitudeDegrees>
              <LongitudeDegrees>-8.111042641103267669677734375</LongitudeDegrees>
            </Position>
            <AltitudeMeters>361.399993896484375</AltitudeMeters>
            <DistanceMeters>6116.2645039474</DistanceMeters>
          </Trackpoint>
          <Trackpoint>
            <Time>2018-09-13T07:40:09.000Z</Time>
            <Position>
              <LatitudeDegrees>39.77137994952499866485595703125</LatitudeDegrees>
              <LongitudeDegrees>-8.1110387854278087615966796875</LongitudeDegrees>
            </Position>
            <AltitudeMeters>363.399993896484375</AltitudeMeters>
            <DistanceMeters>6144.7671329026</DistanceMeters>
          </Trackpoint>
          <Trackpoint>
            <Time>2018-09-13T07:40:16.000Z</Time>
            <Position>
              <LatitudeDegrees>39.77092699147760868072509765625</LatitudeDegrees>
              <LongitudeDegrees>-8.1109254620969295501708984375</LongitudeDegrees>
            </Position>
            <AltitudeMeters>365.20001220703125</AltitudeMeters>
            <DistanceMeters>6196.1058375237</DistanceMeters>
          </Trackpoint>
          <Trackpoint>
            <Time>2018-09-13T07:40:22.000Z</Time>
            <Position>
              <LatitudeDegrees>39.77053790353238582611083984375</LatitudeDegrees>
              <LongitudeDegrees>-8.110796548426151275634765625</LongitudeDegrees>
            </Position>
            <AltitudeMeters>365.79998779296875</AltitudeMeters>
            <DistanceMeters>6240.7942653999</DistanceMeters>
          </Trackpoint>
          <Trackpoint>
            <Time>2018-09-13T07:40:31.000Z</Time>
            <Position>
              <LatitudeDegrees>39.769981764256954193115234375</LatitudeDegrees>
              <LongitudeDegrees>-8.1106086261570453643798828125</LongitudeDegrees>
            </Position>
            <AltitudeMeters>368.79998779296875</AltitudeMeters>
            <DistanceMeters>6304.7473147705</DistanceMeters>
          </Trackpoint>
          <Trackpoint>
            <Time>2018-09-13T07:40:37.000Z</Time>
            <Position>
              <LatitudeDegrees>39.76961773820221424102783203125</LatitudeDegrees>
              <LongitudeDegrees>-8.1104956381022930145263671875</LongitudeDegrees>
            </Position>
            <AltitudeMeters>368.600006103515625</AltitudeMeters>
            <DistanceMeters>6346.401112772</DistanceMeters>
          </Trackpoint>
          <Trackpoint>
            <Time>2018-09-13T07:40:45.000Z</Time>
            <Position>
              <LatitudeDegrees>39.76907442323863506317138671875</LatitudeDegrees>
              <LongitudeDegrees>-8.1103259883821010589599609375</LongitudeDegrees>
            </Position>
            <AltitudeMeters>367.79998779296875</AltitudeMeters>
            <DistanceMeters>6408.5904165176</DistanceMeters>
          </Trackpoint>
          <Trackpoint>
            <Time>2018-09-13T07:40:51.000Z</Time>
            <Position>
              <LatitudeDegrees>39.7686334513127803802490234375</LatitudeDegrees>
              <LongitudeDegrees>-8.1101959012448787689208984375</LongitudeDegrees>
            </Position>
            <AltitudeMeters>364</AltitudeMeters>
            <DistanceMeters>6458.9174472414</DistanceMeters>
          </Trackpoint>
          <Trackpoint>
            <Time>2018-09-13T07:40:58.000Z</Time>
            <Position>
              <LatitudeDegrees>39.7680494002997875213623046875</LatitudeDegrees>
              <LongitudeDegrees>-8.1101140938699245452880859375</LongitudeDegrees>
            </Position>
            <AltitudeMeters>360.79998779296875</AltitudeMeters>
            <DistanceMeters>6524.2991415295</DistanceMeters>
          </Trackpoint>
          <Trackpoint>
            <Time>2018-09-13T07:41:01.000Z</Time>
            <Position>
              <LatitudeDegrees>39.7677774913609027862548828125</LatitudeDegrees>
              <LongitudeDegrees>-8.11013496480882167816162109375</LongitudeDegrees>
            </Position>
            <AltitudeMeters>359.399993896484375</AltitudeMeters>
            <DistanceMeters>6554.6156421611</DistanceMeters>
          </Trackpoint>
          <Trackpoint>
            <Time>2018-09-13T07:41:04.000Z</Time>
            <Position>
              <LatitudeDegrees>39.76749359630048274993896484375</LatitudeDegrees>
              <LongitudeDegrees>-8.110195733606815338134765625</LongitudeDegrees>
            </Position>
            <AltitudeMeters>358.20001220703125</AltitudeMeters>
            <DistanceMeters>6586.638375976</DistanceMeters>
          </Trackpoint>
          <Trackpoint>
            <Time>2018-09-13T07:41:08.000Z</Time>
            <Position>
              <LatitudeDegrees>39.76711305789649486541748046875</LatitudeDegrees>
              <LongitudeDegrees>-8.110351301729679107666015625</LongitudeDegrees>
            </Position>
            <AltitudeMeters>356</AltitudeMeters>
            <DistanceMeters>6631.0348732014</DistanceMeters>
          </Trackpoint>
          <Trackpoint>
            <Time>2018-09-13T07:41:11.000Z</Time>
            <Position>
              <LatitudeDegrees>39.7668229602277278900146484375</LatitudeDegrees>
              <LongitudeDegrees>-8.11052857898175716400146484375</LongitudeDegrees>
            </Position>
            <AltitudeMeters>354.399993896484375</AltitudeMeters>
            <DistanceMeters>6666.7080080923</DistanceMeters>
          </Trackpoint>
          <Trackpoint>
            <Time>2018-09-13T07:41:13.000Z</Time>
            <Position>
              <LatitudeDegrees>39.76663109846413135528564453125</LatitudeDegrees>
              <LongitudeDegrees>-8.1106713227927684783935546875</LongitudeDegrees>
            </Position>
            <AltitudeMeters>353.20001220703125</AltitudeMeters>
            <DistanceMeters>6691.3080000226</DistanceMeters>
          </Trackpoint>
          <Trackpoint>
            <Time>2018-09-13T07:41:16.000Z</Time>
            <Position>
              <LatitudeDegrees>39.76634309627115726470947265625</LatitudeDegrees>
              <LongitudeDegrees>-8.11090609990060329437255859375</LongitudeDegrees>
            </Position>
            <AltitudeMeters>351.399993896484375</AltitudeMeters>
            <DistanceMeters>6729.1362719091</DistanceMeters>
          </Trackpoint>
          <Trackpoint>
            <Time>2018-09-13T07:41:19.000Z</Time>
            <Position>
              <LatitudeDegrees>39.7660457901656627655029296875</LatitudeDegrees>
              <LongitudeDegrees>-8.1111514382064342498779296875</LongitudeDegrees>
            </Position>
            <AltitudeMeters>349.600006103515625</AltitudeMeters>
            <DistanceMeters>6768.3224361667</DistanceMeters>
          </Trackpoint>
          <Trackpoint>
            <Time>2018-09-13T07:41:21.000Z</Time>
            <Position>
              <LatitudeDegrees>39.7658452950417995452880859375</LatitudeDegrees>
              <LongitudeDegrees>-8.11131748370826244354248046875</LongitudeDegrees>
            </Position>
            <AltitudeMeters>348.20001220703125</AltitudeMeters>
            <DistanceMeters>6794.7759004772</DistanceMeters>
          </Trackpoint>
          <Trackpoint>
            <Time>2018-09-13T07:41:23.000Z</Time>
            <Position>
              <LatitudeDegrees>39.76564203388988971710205078125</LatitudeDegrees>
              <LongitudeDegrees>-8.1114863790571689605712890625</LongitudeDegrees>
            </Position>
            <AltitudeMeters>347</AltitudeMeters>
            <DistanceMeters>6821.6202324745</DistanceMeters>
          </Trackpoint>
          <Trackpoint>
            <Time>2018-09-13T07:41:25.000Z</Time>
            <Position>
              <LatitudeDegrees>39.76543701253831386566162109375</LatitudeDegrees>
              <LongitudeDegrees>-8.11165577732026576995849609375</LongitudeDegrees>
            </Position>
            <AltitudeMeters>345.600006103515625</AltitudeMeters>
            <DistanceMeters>6848.652952765</DistanceMeters>
          </Trackpoint>
          <Trackpoint>
            <Time>2018-09-13T07:41:27.000Z</Time>
            <Position>
              <LatitudeDegrees>39.76523081772029399871826171875</LatitudeDegrees>
              <LongitudeDegrees>-8.1118270196020603179931640625</LongitudeDegrees>
            </Position>
            <AltitudeMeters>343.600006103515625</AltitudeMeters>
            <DistanceMeters>6875.8805524723</DistanceMeters>
          </Trackpoint>
          <Trackpoint>
            <Time>2018-09-13T07:41:29.000Z</Time>
            <Position>
              <LatitudeDegrees>39.7650198452174663543701171875</LatitudeDegrees>
              <LongitudeDegrees>-8.112000860273838043212890625</LongitudeDegrees>
            </Position>
            <AltitudeMeters>341.79998779296875</AltitudeMeters>
            <DistanceMeters>6903.6759882544</DistanceMeters>
          </Trackpoint>
          <Trackpoint>
            <Time>2018-09-13T07:41:30.000Z</Time>
            <Position>
              <LatitudeDegrees>39.76491272449493408203125</LatitudeDegrees>
              <LongitudeDegrees>-8.1120888702571392059326171875</LongitudeDegrees>
            </Position>
            <AltitudeMeters>340.79998779296875</AltitudeMeters>
            <DistanceMeters>6917.7771330057</DistanceMeters>
          </Trackpoint>
          <Trackpoint>
            <Time>2018-09-13T07:41:32.000Z</Time>
            <Position>
              <LatitudeDegrees>39.76469722576439380645751953125</LatitudeDegrees>
              <LongitudeDegrees>-8.11226631514728069305419921875</LongitudeDegrees>
            </Position>
            <AltitudeMeters>338.600006103515625</AltitudeMeters>
            <DistanceMeters>6946.1630934645</DistanceMeters>
          </Trackpoint>
          <Trackpoint>
            <Time>2018-09-13T07:41:35.000Z</Time>
            <Position>
              <LatitudeDegrees>39.76437158882617950439453125</LatitudeDegrees>
              <LongitudeDegrees>-8.11253336258232593536376953125</LongitudeDegrees>
            </Position>
            <AltitudeMeters>335.79998779296875</AltitudeMeters>
            <DistanceMeters>6989.007392263</DistanceMeters>
          </Trackpoint>
          <Trackpoint>
            <Time>2018-09-13T07:41:37.000Z</Time>
            <Position>
              <LatitudeDegrees>39.7641511447727680206298828125</LatitudeDegrees>
              <LongitudeDegrees>-8.11271390877664089202880859375</LongitudeDegrees>
            </Position>
            <AltitudeMeters>334</AltitudeMeters>
            <DistanceMeters>7018.0006641751</DistanceMeters>
          </Trackpoint>
          <Trackpoint>
            <Time>2018-09-13T07:41:39.000Z</Time>
            <Position>
              <LatitudeDegrees>39.76393195800483226776123046875</LatitudeDegrees>
              <LongitudeDegrees>-8.112893365323543548583984375</LongitudeDegrees>
            </Position>
            <AltitudeMeters>331.79998779296875</AltitudeMeters>
            <DistanceMeters>7046.8258867053</DistanceMeters>
          </Trackpoint>
          <Trackpoint>
            <Time>2018-09-13T07:41:41.000Z</Time>
            <Position>
              <LatitudeDegrees>39.76371101103723049163818359375</LatitudeDegrees>
              <LongitudeDegrees>-8.113073073327541351318359375</LongitudeDegrees>
            </Position>
            <AltitudeMeters>329.79998779296875</AltitudeMeters>
            <DistanceMeters>7075.8285007385</DistanceMeters>
          </Trackpoint>
          <Trackpoint>
            <Time>2018-09-13T07:41:42.000Z</Time>
            <Position>
              <LatitudeDegrees>39.7635992802679538726806640625</LatitudeDegrees>
              <LongitudeDegrees>-8.113164603710174560546875</LongitudeDegrees>
            </Position>
            <AltitudeMeters>329.79998779296875</AltitudeMeters>
            <DistanceMeters>7090.5244980952</DistanceMeters>
          </Trackpoint>
          <Trackpoint>
            <Time>2018-09-13T07:41:45.000Z</Time>
            <Position>
              <LatitudeDegrees>39.7632666863501071929931640625</LatitudeDegrees>
              <LongitudeDegrees>-8.113437853753566741943359375</LongitudeDegrees>
            </Position>
            <AltitudeMeters>329.600006103515625</AltitudeMeters>
            <DistanceMeters>7134.306967504</DistanceMeters>
          </Trackpoint>
          <Trackpoint>
            <Time>2018-09-13T07:41:48.000Z</Time>
            <Position>
              <LatitudeDegrees>39.76293970830738544464111328125</LatitudeDegrees>
              <LongitudeDegrees>-8.1137243472039699554443359375</LongitudeDegrees>
            </Position>
            <AltitudeMeters>330</AltitudeMeters>
            <DistanceMeters>7178.1850319379</DistanceMeters>
          </Trackpoint>
          <Trackpoint>
            <Time>2018-09-13T07:41:49.000Z</Time>
            <Position>
              <LatitudeDegrees>39.76283610798418521881103515625</LatitudeDegrees>
              <LongitudeDegrees>-8.11382752843201160430908203125</LongitudeDegrees>
            </Position>
            <AltitudeMeters>329.399993896484375</AltitudeMeters>
            <DistanceMeters>7192.7070292273</DistanceMeters>
          </Trackpoint>
          <Trackpoint>
            <Time>2018-09-13T07:41:50.000Z</Time>
            <Position>
              <LatitudeDegrees>39.7627376206219196319580078125</LatitudeDegrees>
              <LongitudeDegrees>-8.113935403525829315185546875</LongitudeDegrees>
            </Position>
            <AltitudeMeters>328</AltitudeMeters>
            <DistanceMeters>7207.0374862503</DistanceMeters>
          </Trackpoint>
          <Trackpoint>
            <Time>2018-09-13T07:41:51.000Z</Time>
            <Position>
              <LatitudeDegrees>39.76264500059187412261962890625</LatitudeDegrees>
              <LongitudeDegrees>-8.1140475533902645111083984375</LongitudeDegrees>
            </Position>
            <AltitudeMeters>326.600006103515625</AltitudeMeters>
            <DistanceMeters>7221.1210095698</DistanceMeters>
          </Trackpoint>
          <Trackpoint>
            <Time>2018-09-13T07:41:53.000Z</Time>
            <Position>
              <LatitudeDegrees>39.76247233338654041290283203125</LatitudeDegrees>
              <LongitudeDegrees>-8.11427704989910125732421875</LongitudeDegrees>
            </Position>
            <AltitudeMeters>324.20001220703125</AltitudeMeters>
            <DistanceMeters>7248.5963863746</DistanceMeters>
          </Trackpoint>
          <Trackpoint>
            <Time>2018-09-13T07:41:55.000Z</Time>
            <Position>
              <LatitudeDegrees>39.76231106556951999664306640625</LatitudeDegrees>
              <LongitudeDegrees>-8.114505708217620849609375</LongitudeDegrees>
            </Position>
            <AltitudeMeters>322.79998779296875</AltitudeMeters>
            <DistanceMeters>7275.1466190938</DistanceMeters>
          </Trackpoint>
          <Trackpoint>
            <Time>2018-09-13T07:41:57.000Z</Time>
            <Position>
              <LatitudeDegrees>39.7621545754373073577880859375</LatitudeDegrees>
              <LongitudeDegrees>-8.11472833156585693359375</LongitudeDegrees>
            </Position>
            <AltitudeMeters>321.20001220703125</AltitudeMeters>
            <DistanceMeters>7300.957176228</DistanceMeters>
          </Trackpoint>
          <Trackpoint>
            <Time>2018-09-13T07:42:01.000Z</Time>
            <Position>
              <LatitudeDegrees>39.7618598677217960357666015625</LatitudeDegrees>
              <LongitudeDegrees>-8.11515388078987598419189453125</LongitudeDegrees>
            </Position>
            <AltitudeMeters>321.79998779296875</AltitudeMeters>
            <DistanceMeters>7349.9633290125</DistanceMeters>
          </Trackpoint>
          <Trackpoint>
            <Time>2018-09-13T07:42:05.000Z</Time>
            <Position>
              <LatitudeDegrees>39.76157060824334621429443359375</LatitudeDegrees>
              <LongitudeDegrees>-8.11554028652608394622802734375</LongitudeDegrees>
            </Position>
            <AltitudeMeters>323.20001220703125</AltitudeMeters>
            <DistanceMeters>7396.1102231394</DistanceMeters>
          </Trackpoint>
          <Trackpoint>
            <Time>2018-09-13T07:42:07.000Z</Time>
            <Position>
              <LatitudeDegrees>39.7614206559956073760986328125</LatitudeDegrees>
              <LongitudeDegrees>-8.11571739614009857177734375</LongitudeDegrees>
            </Position>
            <AltitudeMeters>324</AltitudeMeters>
            <DistanceMeters>7418.6531957038</DistanceMeters>
          </Trackpoint>
          <Trackpoint>
            <Time>2018-09-13T07:42:13.000Z</Time>
            <Position>
              <LatitudeDegrees>39.76094582118093967437744140625</LatitudeDegrees>
              <LongitudeDegrees>-8.11616423539817333221435546875</LongitudeDegrees>
            </Position>
            <AltitudeMeters>325.79998779296875</AltitudeMeters>
            <DistanceMeters>7483.8818194724</DistanceMeters>
          </Trackpoint>
          <Trackpoint>
            <Time>2018-09-13T07:42:19.000Z</Time>
            <Position>
              <LatitudeDegrees>39.760435111820697784423828125</LatitudeDegrees>
              <LongitudeDegrees>-8.116469085216522216796875</LongitudeDegrees>
            </Position>
            <AltitudeMeters>328.600006103515625</AltitudeMeters>
            <DistanceMeters>7546.4234044566</DistanceMeters>
          </Trackpoint>
          <Trackpoint>
            <Time>2018-09-13T07:42:23.000Z</Time>
            <Position>
              <LatitudeDegrees>39.76008407771587371826171875</LatitudeDegrees>
              <LongitudeDegrees>-8.11660998500883579254150390625</LongitudeDegrees>
            </Position>
            <AltitudeMeters>330.20001220703125</AltitudeMeters>
            <DistanceMeters>7587.3118438148</DistanceMeters>
          </Trackpoint>
          <Trackpoint>
            <Time>2018-09-13T07:42:30.000Z</Time>
            <Position>
              <LatitudeDegrees>39.759487621486186981201171875</LatitudeDegrees>
              <LongitudeDegrees>-8.11683009378612041473388671875</LongitudeDegrees>
            </Position>
            <AltitudeMeters>332.399993896484375</AltitudeMeters>
            <DistanceMeters>7656.318121294</DistanceMeters>
          </Trackpoint>
          <Trackpoint>
            <Time>2018-09-13T07:42:37.000Z</Time>
            <Position>
              <LatitudeDegrees>39.75890256464481353759765625</LatitudeDegrees>
              <LongitudeDegrees>-8.11704576015472412109375</LongitudeDegrees>
            </Position>
            <AltitudeMeters>327.79998779296875</AltitudeMeters>
            <DistanceMeters>7724.000160634</DistanceMeters>
          </Trackpoint>
          <Trackpoint>
            <Time>2018-09-13T07:42:44.000Z</Time>
            <Position>
              <LatitudeDegrees>39.7583158314228057861328125</LatitudeDegrees>
              <LongitudeDegrees>-8.117264695465564727783203125</LongitudeDegrees>
            </Position>
            <AltitudeMeters>322.600006103515625</AltitudeMeters>
            <DistanceMeters>7791.9384798173</DistanceMeters>
          </Trackpoint>
          <Trackpoint>
            <Time>2018-09-13T07:42:45.000Z</Time>
            <Position>
              <LatitudeDegrees>39.75822756998240947723388671875</LatitudeDegrees>
              <LongitudeDegrees>-8.1172936968505382537841796875</LongitudeDegrees>
            </Position>
            <AltitudeMeters>321.600006103515625</AltitudeMeters>
            <DistanceMeters>7802.0711975755</DistanceMeters>
          </Trackpoint>
          <Trackpoint>
            <Time>2018-09-13T07:42:49.000Z</Time>
            <Position>
              <LatitudeDegrees>39.75787485949695110321044921875</LatitudeDegrees>
              <LongitudeDegrees>-8.11740425415337085723876953125</LongitudeDegrees>
            </Position>
            <AltitudeMeters>318.399993896484375</AltitudeMeters>
            <DistanceMeters>7842.4522964227</DistanceMeters>
          </Trackpoint>
          <Trackpoint>
            <Time>2018-09-13T07:42:53.000Z</Time>
            <Position>
              <LatitudeDegrees>39.75750303827226161956787109375</LatitudeDegrees>
              <LongitudeDegrees>-8.11750450171530246734619140625</LongitudeDegrees>
            </Position>
            <AltitudeMeters>316</AltitudeMeters>
            <DistanceMeters>7884.7163290209</DistanceMeters>
          </Trackpoint>
          <Trackpoint>
            <Time>2018-09-13T07:42:56.000Z</Time>
            <Position>
              <LatitudeDegrees>39.75720279850065708160400390625</LatitudeDegrees>
              <LongitudeDegrees>-8.11757708899676799774169921875</LongitudeDegrees>
            </Position>
            <AltitudeMeters>314</AltitudeMeters>
            <DistanceMeters>7918.7058850652</DistanceMeters>
          </Trackpoint>
          <Trackpoint>
            <Time>2018-09-13T07:42:58.000Z</Time>
            <Position>
              <LatitudeDegrees>39.75699693895876407623291015625</LatitudeDegrees>
              <LongitudeDegrees>-8.11762251891195774078369140625</LongitudeDegrees>
            </Position>
            <AltitudeMeters>312.79998779296875</AltitudeMeters>
            <DistanceMeters>7941.9456972872</DistanceMeters>
          </Trackpoint>
          <Trackpoint>
            <Time>2018-09-13T07:43:00.000Z</Time>
            <Position>
              <LatitudeDegrees>39.7567898221313953399658203125</LatitudeDegrees>
              <LongitudeDegrees>-8.11766476370394229888916015625</LongitudeDegrees>
            </Position>
            <AltitudeMeters>311.399993896484375</AltitudeMeters>
            <DistanceMeters>7965.2797387131</DistanceMeters>
          </Trackpoint>
          <Trackpoint>
            <Time>2018-09-13T07:43:02.000Z</Time>
            <Position>
              <LatitudeDegrees>39.75657633505761623382568359375</LatitudeDegrees>
              <LongitudeDegrees>-8.11770533211529254913330078125</LongitudeDegrees>
            </Position>
            <AltitudeMeters>310</AltitudeMeters>
            <DistanceMeters>7989.2933109512</DistanceMeters>
          </Trackpoint>
          <Trackpoint>
            <Time>2018-09-13T07:43:04.000Z</Time>
            <Position>
              <LatitudeDegrees>39.75635178387165069580078125</LatitudeDegrees>
              <LongitudeDegrees>-8.11774690635502338409423828125</LongitudeDegrees>
            </Position>
            <AltitudeMeters>308.600006103515625</AltitudeMeters>
            <DistanceMeters>8014.5382446035</DistanceMeters>
          </Trackpoint>
          <Trackpoint>
            <Time>2018-09-13T07:43:06.000Z</Time>
            <Position>
              <LatitudeDegrees>39.7561259754002094268798828125</LatitudeDegrees>
              <LongitudeDegrees>-8.11778563074767589569091796875</LongitudeDegrees>
            </Position>
            <AltitudeMeters>307.20001220703125</AltitudeMeters>
            <DistanceMeters>8039.888479715</DistanceMeters>
          </Trackpoint>
          <Trackpoint>
            <Time>2018-09-13T07:43:08.000Z</Time>
            <Position>
              <LatitudeDegrees>39.75589237175881862640380859375</LatitudeDegrees>
              <LongitudeDegrees>-8.1178301386535167694091796875</LongitudeDegrees>
            </Position>
            <AltitudeMeters>305.399993896484375</AltitudeMeters>
            <DistanceMeters>8066.1665880135</DistanceMeters>
          </Trackpoint>
          <Trackpoint>
            <Time>2018-09-13T07:43:10.000Z</Time>
            <Position>
              <LatitudeDegrees>39.7556555829942226409912109375</LatitudeDegrees>
              <LongitudeDegrees>-8.117874562740325927734375</LongitudeDegrees>
            </Position>
            <AltitudeMeters>303.399993896484375</AltitudeMeters>
            <DistanceMeters>8092.7944231186</DistanceMeters>
          </Trackpoint>
          <Trackpoint>
            <Time>2018-09-13T07:43:12.000Z</Time>
            <Position>
              <LatitudeDegrees>39.7554121725261211395263671875</LatitudeDegrees>
              <LongitudeDegrees>-8.11791890300810337066650390625</LongitudeDegrees>
            </Position>
            <AltitudeMeters>301</AltitudeMeters>
            <DistanceMeters>8120.1508961253</DistanceMeters>
          </Trackpoint>
          <Trackpoint>
            <Time>2018-09-13T07:43:13.000Z</Time>
            <Position>
              <LatitudeDegrees>39.75529097020626068115234375</LatitudeDegrees>
              <LongitudeDegrees>-8.1179416179656982421875</LongitudeDegrees>
            </Position>
            <AltitudeMeters>300.20001220703125</AltitudeMeters>
            <DistanceMeters>8133.7801918712</DistanceMeters>
          </Trackpoint>
          <Trackpoint>
            <Time>2018-09-13T07:43:14.000Z</Time>
            <Position>
              <LatitudeDegrees>39.7551690973341464996337890625</LatitudeDegrees>
              <LongitudeDegrees>-8.11796483583748340606689453125</LongitudeDegrees>
            </Position>
            <AltitudeMeters>299.399993896484375</AltitudeMeters>
            <DistanceMeters>8147.4894216464</DistanceMeters>
          </Trackpoint>
          <Trackpoint>
            <Time>2018-09-13T07:43:15.000Z</Time>
            <Position>
              <LatitudeDegrees>39.7550460509955883026123046875</LatitudeDegrees>
              <LongitudeDegrees>-8.11798864044249057769775390625</LongitudeDegrees>
            </Position>
            <AltitudeMeters>298.399993896484375</AltitudeMeters>
            <DistanceMeters>8161.3353063384</DistanceMeters>
          </Trackpoint>
          <Trackpoint>
            <Time>2018-09-13T07:43:18.000Z</Time>
            <Position>
              <LatitudeDegrees>39.7546765767037868499755859375</LatitudeDegrees>
              <LongitudeDegrees>-8.1180587969720363616943359375</LongitudeDegrees>
            </Position>
            <AltitudeMeters>295</AltitudeMeters>
            <DistanceMeters>8202.894368301</DistanceMeters>
          </Trackpoint>
          <Trackpoint>
            <Time>2018-09-13T07:43:20.000Z</Time>
            <Position>
              <LatitudeDegrees>39.75443157367408275604248046875</LatitudeDegrees>
              <LongitudeDegrees>-8.11810649000108242034912109375</LongitudeDegrees>
            </Position>
            <AltitudeMeters>292.399993896484375</AltitudeMeters>
            <DistanceMeters>8230.4675120486</DistanceMeters>
          </Trackpoint>
          <Trackpoint>
            <Time>2018-09-13T07:43:22.000Z</Time>
            <Position>
              <LatitudeDegrees>39.7541837207973003387451171875</LatitudeDegrees>
              <LongitudeDegrees>-8.11815812252461910247802734375</LongitudeDegrees>
            </Position>
            <AltitudeMeters>289.600006103515625</AltitudeMeters>
            <DistanceMeters>8258.405527683</DistanceMeters>
          </Trackpoint>
          <Trackpoint>
            <Time>2018-09-13T07:43:23.000Z</Time>
            <Position>
              <LatitudeDegrees>39.75405983626842498779296875</LatitudeDegrees>
              <LongitudeDegrees>-8.11818947084248065948486328125</LongitudeDegrees>
            </Position>
            <AltitudeMeters>288</AltitudeMeters>
            <DistanceMeters>8272.4527776079</DistanceMeters>
          </Trackpoint>
          <Trackpoint>
            <Time>2018-09-13T07:43:25.000Z</Time>
            <Position>
              <LatitudeDegrees>39.753814078867435455322265625</LatitudeDegrees>
              <LongitudeDegrees>-8.118276894092559814453125</LongitudeDegrees>
            </Position>
            <AltitudeMeters>285.79998779296875</AltitudeMeters>
            <DistanceMeters>8300.8105706751</DistanceMeters>
          </Trackpoint>
          <Trackpoint>
            <Time>2018-09-13T07:43:26.000Z</Time>
            <Position>
              <LatitudeDegrees>39.7536935470998287200927734375</LatitudeDegrees>
              <LongitudeDegrees>-8.11833950690925121307373046875</LongitudeDegrees>
            </Position>
            <AltitudeMeters>285</AltitudeMeters>
            <DistanceMeters>8315.2565066648</DistanceMeters>
          </Trackpoint>
          <Trackpoint>
            <Time>2018-09-13T07:43:28.000Z</Time>
            <Position>
              <LatitudeDegrees>39.75347352214157581329345703125</LatitudeDegrees>
              <LongitudeDegrees>-8.11852390877902507781982421875</LongitudeDegrees>
            </Position>
            <AltitudeMeters>283</AltitudeMeters>
            <DistanceMeters>8344.3889759159</DistanceMeters>
          </Trackpoint>
          <Trackpoint>
            <Time>2018-09-13T07:43:30.000Z</Time>
            <Position>
              <LatitudeDegrees>39.75328945554792881011962890625</LatitudeDegrees>
              <LongitudeDegrees>-8.11876840889453887939453125</LongitudeDegrees>
            </Position>
            <AltitudeMeters>280.20001220703125</AltitudeMeters>
            <DistanceMeters>8373.6709302322</DistanceMeters>
          </Trackpoint>
          <Trackpoint>
            <Time>2018-09-13T07:43:33.000Z</Time>
            <Position>
              <LatitudeDegrees>39.753077141940593719482421875</LatitudeDegrees>
              <LongitudeDegrees>-8.11921223066747188568115234375</LongitudeDegrees>
            </Position>
            <AltitudeMeters>277.399993896484375</AltitudeMeters>
            <DistanceMeters>8418.4003589909</DistanceMeters>
          </Trackpoint>
          <Trackpoint>
            <Time>2018-09-13T07:43:35.000Z</Time>
            <Position>
              <LatitudeDegrees>39.7529569454491138458251953125</LatitudeDegrees>
              <LongitudeDegrees>-8.11953610740602016448974609375</LongitudeDegrees>
            </Position>
            <AltitudeMeters>277.399993896484375</AltitudeMeters>
            <DistanceMeters>8449.1743463364</DistanceMeters>
          </Trackpoint>
          <Trackpoint>
            <Time>2018-09-13T07:43:36.000Z</Time>
            <Position>
              <LatitudeDegrees>39.75289986468851566314697265625</LatitudeDegrees>
              <LongitudeDegrees>-8.1197024881839752197265625</LongitudeDegrees>
            </Position>
            <AltitudeMeters>277.600006103515625</AltitudeMeters>
            <DistanceMeters>8464.7645207282</DistanceMeters>
          </Trackpoint>
          <Trackpoint>
            <Time>2018-09-13T07:43:37.000Z</Time>
            <Position>
              <LatitudeDegrees>39.75284672342240810394287109375</LatitudeDegrees>
              <LongitudeDegrees>-8.11987222172319889068603515625</LongitudeDegrees>
            </Position>
            <AltitudeMeters>278</AltitudeMeters>
            <DistanceMeters>8480.4470958365</DistanceMeters>
          </Trackpoint>
          <Trackpoint>
            <Time>2018-09-13T07:43:38.000Z</Time>
            <Position>
              <LatitudeDegrees>39.75280095823109149932861328125</LatitudeDegrees>
              <LongitudeDegrees>-8.12004648149013519287109375</LongitudeDegrees>
            </Position>
            <AltitudeMeters>279</AltitudeMeters>
            <DistanceMeters>8496.2043475608</DistanceMeters>
          </Trackpoint>
          <Trackpoint>
            <Time>2018-09-13T07:43:40.000Z</Time>
            <Position>
              <LatitudeDegrees>39.75273826159536838531494140625</LatitudeDegrees>
              <LongitudeDegrees>-8.12040531076490879058837890625</LongitudeDegrees>
            </Position>
            <AltitudeMeters>278</AltitudeMeters>
            <DistanceMeters>8527.6924785556</DistanceMeters>
          </Trackpoint>
          <Trackpoint>
            <Time>2018-09-13T07:43:43.000Z</Time>
            <Position>
              <LatitudeDegrees>39.752709008753299713134765625</LatitudeDegrees>
              <LongitudeDegrees>-8.1209542416036128997802734375</LongitudeDegrees>
            </Position>
            <AltitudeMeters>276</AltitudeMeters>
            <DistanceMeters>8574.7773285378</DistanceMeters>
          </Trackpoint>
          <Trackpoint>
            <Time>2018-09-13T07:43:45.000Z</Time>
            <Position>
              <LatitudeDegrees>39.75272669456899166107177734375</LatitudeDegrees>
              <LongitudeDegrees>-8.1213156692683696746826171875</LongitudeDegrees>
            </Position>
            <AltitudeMeters>276</AltitudeMeters>
            <DistanceMeters>8605.7674035638</DistanceMeters>
          </Trackpoint>
          <Trackpoint>
            <Time>2018-09-13T07:43:46.000Z</Time>
            <Position>
              <LatitudeDegrees>39.75274597294628620147705078125</LatitudeDegrees>
              <LongitudeDegrees>-8.1214916892349720001220703125</LongitudeDegrees>
            </Position>
            <AltitudeMeters>276</AltitudeMeters>
            <DistanceMeters>8620.9811775667</DistanceMeters>
          </Trackpoint>
          <Trackpoint>
            <Time>2018-09-13T07:43:47.000Z</Time>
            <Position>
              <LatitudeDegrees>39.75277296267449855804443359375</LatitudeDegrees>
              <LongitudeDegrees>-8.121663518249988555908203125</LongitudeDegrees>
            </Position>
            <AltitudeMeters>276.20001220703125</AltitudeMeters>
            <DistanceMeters>8635.9881794829</DistanceMeters>
          </Trackpoint>
          <Trackpoint>
            <Time>2018-09-13T07:43:48.000Z</Time>
            <Position>
              <LatitudeDegrees>39.75280347280204296112060546875</LatitudeDegrees>
              <LongitudeDegrees>-8.121831156313419342041015625</LongitudeDegrees>
            </Position>
            <AltitudeMeters>276.399993896484375</AltitudeMeters>
            <DistanceMeters>8650.7298829022</DistanceMeters>
          </Trackpoint>
          <Trackpoint>
            <Time>2018-09-13T07:43:51.000Z</Time>
            <Position>
              <LatitudeDegrees>39.75289969705045223236083984375</LatitudeDegrees>
              <LongitudeDegrees>-8.122316636145114898681640625</LongitudeDegrees>
            </Position>
            <AltitudeMeters>277.20001220703125</AltitudeMeters>
            <DistanceMeters>8693.6308400087</DistanceMeters>
          </Trackpoint>
          <Trackpoint>
            <Time>2018-09-13T07:43:56.000Z</Time>
            <Position>
              <LatitudeDegrees>39.75305375643074512481689453125</LatitudeDegrees>
              <LongitudeDegrees>-8.123074360191822052001953125</LongitudeDegrees>
            </Position>
            <AltitudeMeters>277.399993896484375</AltitudeMeters>
            <DistanceMeters>8760.6982284183</DistanceMeters>
          </Trackpoint>
          <Trackpoint>
            <Time>2018-09-13T07:44:01.000Z</Time>
            <Position>
              <LatitudeDegrees>39.7531842626631259918212890625</LatitudeDegrees>
              <LongitudeDegrees>-8.123774416744709014892578125</LongitudeDegrees>
            </Position>
            <AltitudeMeters>276.20001220703125</AltitudeMeters>
            <DistanceMeters>8822.3378324414</DistanceMeters>
          </Trackpoint>
          <Trackpoint>
            <Time>2018-09-13T07:44:07.000Z</Time>
            <Position>
              <LatitudeDegrees>39.7531567700207233428955078125</LatitudeDegrees>
              <LongitudeDegrees>-8.12456089071929454803466796875</LongitudeDegrees>
            </Position>
            <AltitudeMeters>277</AltitudeMeters>
            <DistanceMeters>8889.7056743247</DistanceMeters>
          </Trackpoint>
          <Trackpoint>
            <Time>2018-09-13T07:44:09.000Z</Time>
            <Position>
              <LatitudeDegrees>39.7530937381088733673095703125</LatitudeDegrees>
              <LongitudeDegrees>-8.1248147785663604736328125</LongitudeDegrees>
            </Position>
            <AltitudeMeters>277.20001220703125</AltitudeMeters>
            <DistanceMeters>8912.5356323244</DistanceMeters>
          </Trackpoint>
          <Trackpoint>
            <Time>2018-09-13T07:44:12.000Z</Time>
            <Position>
              <LatitudeDegrees>39.7529767267405986785888671875</LatitudeDegrees>
              <LongitudeDegrees>-8.12520327977836132049560546875</LongitudeDegrees>
            </Position>
            <AltitudeMeters>278</AltitudeMeters>
            <DistanceMeters>8948.2396361839</DistanceMeters>
          </Trackpoint>
          <Trackpoint>
            <Time>2018-09-13T07:44:13.000Z</Time>
            <Position>
              <LatitudeDegrees>39.75293724797666072845458984375</LatitudeDegrees>
              <LongitudeDegrees>-8.12533353455364704132080078125</LongitudeDegrees>
            </Position>
            <AltitudeMeters>278.600006103515625</AltitudeMeters>
            <DistanceMeters>8960.2205416235</DistanceMeters>
          </Trackpoint>
          <Trackpoint>
            <Time>2018-09-13T07:44:19.000Z</Time>
            <Position>
              <LatitudeDegrees>39.75281738676130771636962890625</LatitudeDegrees>
              <LongitudeDegrees>-8.126131407916545867919921875</LongitudeDegrees>
            </Position>
            <AltitudeMeters>280.600006103515625</AltitudeMeters>
            <DistanceMeters>9029.7858082964</DistanceMeters>
          </Trackpoint>
          <Trackpoint>
            <Time>2018-09-13T07:44:20.000Z</Time>
            <Position>
              <LatitudeDegrees>39.75282224826514720916748046875</LatitudeDegrees>
              <LongitudeDegrees>-8.126264177262783050537109375</LongitudeDegrees>
            </Position>
            <AltitudeMeters>280.600006103515625</AltitudeMeters>
            <DistanceMeters>9041.159676378</DistanceMeters>
          </Trackpoint>
          <Trackpoint>
            <Time>2018-09-13T07:44:26.000Z</Time>
            <Position>
              <LatitudeDegrees>39.75292350165545940399169921875</LatitudeDegrees>
              <LongitudeDegrees>-8.12704076059162616729736328125</LongitudeDegrees>
            </Position>
            <AltitudeMeters>280.600006103515625</AltitudeMeters>
            <DistanceMeters>9108.5607523184</DistanceMeters>
          </Trackpoint>
          <Trackpoint>
            <Time>2018-09-13T07:44:32.000Z</Time>
            <Position>
              <LatitudeDegrees>39.75296859629452228546142578125</LatitudeDegrees>
              <LongitudeDegrees>-8.12779295258224010467529296875</LongitudeDegrees>
            </Position>
            <AltitudeMeters>279.20001220703125</AltitudeMeters>
            <DistanceMeters>9173.1211775383</DistanceMeters>
          </Trackpoint>
          <Trackpoint>
            <Time>2018-09-13T07:44:33.000Z</Time>
            <Position>
              <LatitudeDegrees>39.7529552690684795379638671875</LatitudeDegrees>
              <LongitudeDegrees>-8.12791633419692516326904296875</LongitudeDegrees>
            </Position>
            <AltitudeMeters>278.79998779296875</AltitudeMeters>
            <DistanceMeters>9183.7828191697</DistanceMeters>
          </Trackpoint>
          <Trackpoint>
            <Time>2018-09-13T07:44:39.000Z</Time>
            <Position>
              <LatitudeDegrees>39.75274630822241306304931640625</LatitudeDegrees>
              <LongitudeDegrees>-8.1286022253334522247314453125</LongitudeDegrees>
            </Position>
            <AltitudeMeters>277.79998779296875</AltitudeMeters>
            <DistanceMeters>9246.9147521387</DistanceMeters>
          </Trackpoint>
          <Trackpoint>
            <Time>2018-09-13T07:44:41.000Z</Time>
            <Position>
              <LatitudeDegrees>39.7526323981583118438720703125</LatitudeDegrees>
              <LongitudeDegrees>-8.12880263663828372955322265625</LongitudeDegrees>
            </Position>
            <AltitudeMeters>276.600006103515625</AltitudeMeters>
            <DistanceMeters>9268.24184642</DistanceMeters>
          </Trackpoint>
          <Trackpoint>
            <Time>2018-09-13T07:44:47.000Z</Time>
            <Position>
              <LatitudeDegrees>39.7522257082164287567138671875</LatitudeDegrees>
              <LongitudeDegrees>-8.12937654554843902587890625</LongitudeDegrees>
            </Position>
            <AltitudeMeters>276.600006103515625</AltitudeMeters>
            <DistanceMeters>9335.0304179134</DistanceMeters>
          </Trackpoint>
          <Trackpoint>
            <Time>2018-09-13T07:44:48.000Z</Time>
            <Position>
              <LatitudeDegrees>39.7521586529910564422607421875</LatitudeDegrees>
              <LongitudeDegrees>-8.12947805039584636688232421875</LongitudeDegrees>
            </Position>
            <AltitudeMeters>277.600006103515625</AltitudeMeters>
            <DistanceMeters>9346.4822212734</DistanceMeters>
          </Trackpoint>
          <Trackpoint>
            <Time>2018-09-13T07:44:51.000Z</Time>
            <Position>
              <LatitudeDegrees>39.75198657251894474029541015625</LatitudeDegrees>
              <LongitudeDegrees>-8.12980377115309238433837890625</LongitudeDegrees>
            </Position>
            <AltitudeMeters>278.399993896484375</AltitudeMeters>
            <DistanceMeters>9380.3007857305</DistanceMeters>
          </Trackpoint>
          <Trackpoint>
            <Time>2018-09-13T07:44:53.000Z</Time>
            <Position>
              <LatitudeDegrees>39.75189671851694583892822265625</LatitudeDegrees>
              <LongitudeDegrees>-8.13004399649798870086669921875</LongitudeDegrees>
            </Position>
            <AltitudeMeters>277.20001220703125</AltitudeMeters>
            <DistanceMeters>9403.1605872128</DistanceMeters>
          </Trackpoint>
          <Trackpoint>
            <Time>2018-09-13T07:44:55.000Z</Time>
            <Position>
              <LatitudeDegrees>39.75183284841477870941162109375</LatitudeDegrees>
              <LongitudeDegrees>-8.13030400313436985015869140625</LongitudeDegrees>
            </Position>
            <AltitudeMeters>275.79998779296875</AltitudeMeters>
            <DistanceMeters>9426.5176432851</DistanceMeters>
          </Trackpoint>
          <Trackpoint>
            <Time>2018-09-13T07:44:58.000Z</Time>
            <Position>
              <LatitudeDegrees>39.751791693270206451416015625</LatitudeDegrees>
              <LongitudeDegrees>-8.130719996988773345947265625</LongitudeDegrees>
            </Position>
            <AltitudeMeters>271.399993896484375</AltitudeMeters>
            <DistanceMeters>9462.4083162341</DistanceMeters>
          </Trackpoint>
          <Trackpoint>
            <Time>2018-09-13T07:45:01.000Z</Time>
            <Position>
              <LatitudeDegrees>39.75181759335100650787353515625</LatitudeDegrees>
              <LongitudeDegrees>-8.13115107826888561248779296875</LongitudeDegrees>
            </Position>
            <AltitudeMeters>268.20001220703125</AltitudeMeters>
            <DistanceMeters>9499.4089904127</DistanceMeters>
          </Trackpoint>
          <Trackpoint>
            <Time>2018-09-13T07:45:03.000Z</Time>
            <Position>
              <LatitudeDegrees>39.75186369381844997406005859375</LatitudeDegrees>
              <LongitudeDegrees>-8.1314398348331451416015625</LongitudeDegrees>
            </Position>
            <AltitudeMeters>267.399993896484375</AltitudeMeters>
            <DistanceMeters>9524.6453378394</DistanceMeters>
          </Trackpoint>
          <Trackpoint>
            <Time>2018-09-13T07:45:05.000Z</Time>
            <Position>
              <LatitudeDegrees>39.75191599689424037933349609375</LatitudeDegrees>
              <LongitudeDegrees>-8.13172590918838977813720703125</LongitudeDegrees>
            </Position>
            <AltitudeMeters>266.399993896484375</AltitudeMeters>
            <DistanceMeters>9549.8076868924</DistanceMeters>
          </Trackpoint>
          <Trackpoint>
            <Time>2018-09-13T07:45:07.000Z</Time>
            <Position>
              <LatitudeDegrees>39.75194918923079967498779296875</LatitudeDegrees>
              <LongitudeDegrees>-8.1320160068571567535400390625</LongitudeDegrees>
            </Position>
            <AltitudeMeters>265.20001220703125</AltitudeMeters>
            <DistanceMeters>9574.9051758559</DistanceMeters>
          </Trackpoint>
          <Trackpoint>
            <Time>2018-09-13T07:45:08.000Z</Time>
            <Position>
              <LatitudeDegrees>39.751954637467861175537109375</LatitudeDegrees>
              <LongitudeDegrees>-8.13216210342943668365478515625</LongitudeDegrees>
            </Position>
            <AltitudeMeters>264.600006103515625</AltitudeMeters>
            <DistanceMeters>9587.4220375354</DistanceMeters>
          </Trackpoint>
          <Trackpoint>
            <Time>2018-09-13T07:45:09.000Z</Time>
            <Position>
              <LatitudeDegrees>39.75195120088756084442138671875</LatitudeDegrees>
              <LongitudeDegrees>-8.13230744563043117523193359375</LongitudeDegrees>
            </Position>
            <AltitudeMeters>264</AltitudeMeters>
            <DistanceMeters>9599.8654583184</DistanceMeters>
          </Trackpoint>
          <Trackpoint>
            <Time>2018-09-13T07:45:10.000Z</Time>
            <Position>
              <LatitudeDegrees>39.7519410587847232818603515625</LatitudeDegrees>
              <LongitudeDegrees>-8.1324537098407745361328125</LongitudeDegrees>
            </Position>
            <AltitudeMeters>263.600006103515625</AltitudeMeters>
            <DistanceMeters>9612.4327188395</DistanceMeters>
          </Trackpoint>
          <Trackpoint>
            <Time>2018-09-13T07:45:11.000Z</Time>
            <Position>
              <LatitudeDegrees>39.7519259713590145111083984375</LatitudeDegrees>
              <LongitudeDegrees>-8.13260190188884735107421875</LongitudeDegrees>
            </Position>
            <AltitudeMeters>263.20001220703125</AltitudeMeters>
            <DistanceMeters>9625.2243170651</DistanceMeters>
          </Trackpoint>
          <Trackpoint>
            <Time>2018-09-13T07:45:14.000Z</Time>
            <Position>
              <LatitudeDegrees>39.75186386145651340484619140625</LatitudeDegrees>
              <LongitudeDegrees>-8.13304957933723926544189453125</LongitudeDegrees>
            </Position>
            <AltitudeMeters>259.399993896484375</AltitudeMeters>
            <DistanceMeters>9664.1511844931</DistanceMeters>
          </Trackpoint>
          <Trackpoint>
            <Time>2018-09-13T07:45:18.000Z</Time>
            <Position>
              <LatitudeDegrees>39.75177903659641742706298828125</LatitudeDegrees>
              <LongitudeDegrees>-8.133652321994304656982421875</LongitudeDegrees>
            </Position>
            <AltitudeMeters>254.8000030517578125</AltitudeMeters>
            <DistanceMeters>9716.5856132089</DistanceMeters>
          </Trackpoint>
          <Trackpoint>
            <Time>2018-09-13T07:45:19.000Z</Time>
            <Position>
              <LatitudeDegrees>39.75175623781979084014892578125</LatitudeDegrees>
              <LongitudeDegrees>-8.13380210660398006439208984375</LongitudeDegrees>
            </Position>
            <AltitudeMeters>254</AltitudeMeters>
            <DistanceMeters>9729.6517000466</DistanceMeters>
          </Trackpoint>
          <Trackpoint>
            <Time>2018-09-13T07:45:20.000Z</Time>
            <Position>
              <LatitudeDegrees>39.75173410959541797637939453125</LatitudeDegrees>
              <LongitudeDegrees>-8.133952058851718902587890625</LongitudeDegrees>
            </Position>
            <AltitudeMeters>253.1999969482421875</AltitudeMeters>
            <DistanceMeters>9742.7177868843</DistanceMeters>
          </Trackpoint>
          <Trackpoint>
            <Time>2018-09-13T07:45:21.000Z</Time>
            <Position>
              <LatitudeDegrees>39.751713573932647705078125</LatitudeDegrees>
              <LongitudeDegrees>-8.13410251401364803314208984375</LongitudeDegrees>
            </Position>
            <AltitudeMeters>252.1999969482421875</AltitudeMeters>
            <DistanceMeters>9755.7938909473</DistanceMeters>
          </Trackpoint>
          <Trackpoint>
            <Time>2018-09-13T07:45:23.000Z</Time>
            <Position>
              <LatitudeDegrees>39.75167895667254924774169921875</LatitudeDegrees>
              <LongitudeDegrees>-8.13440711237490177154541015625</LongitudeDegrees>
            </Position>
            <AltitudeMeters>251.1999969482421875</AltitudeMeters>
            <DistanceMeters>9782.1421788805</DistanceMeters>
          </Trackpoint>
          <Trackpoint>
            <Time>2018-09-13T07:45:27.000Z</Time>
            <Position>
              <LatitudeDegrees>39.75165934301912784576416015625</LatitudeDegrees>
              <LongitudeDegrees>-8.13502619974315166473388671875</LongitudeDegrees>
            </Position>
            <AltitudeMeters>250.600006103515625</AltitudeMeters>
            <DistanceMeters>9835.1633387938</DistanceMeters>
          </Trackpoint>
          <Trackpoint>
            <Time>2018-09-13T07:45:29.000Z</Time>
            <Position>
              <LatitudeDegrees>39.75166386924684047698974609375</LatitudeDegrees>
              <LongitudeDegrees>-8.13533666543662548065185546875</LongitudeDegrees>
            </Position>
            <AltitudeMeters>247.8000030517578125</AltitudeMeters>
            <DistanceMeters>9861.7351599047</DistanceMeters>
          </Trackpoint>
          <Trackpoint>
            <Time>2018-09-13T07:45:31.000Z</Time>
            <Position>
              <LatitudeDegrees>39.75164492614567279815673828125</LatitudeDegrees>
              <LongitudeDegrees>-8.1356440298259258270263671875</LongitudeDegrees>
            </Position>
            <AltitudeMeters>245.399993896484375</AltitudeMeters>
            <DistanceMeters>9888.1212911844</DistanceMeters>
          </Trackpoint>
          <Trackpoint>
            <Time>2018-09-13T07:45:32.000Z</Time>
            <Position>
              <LatitudeDegrees>39.7516201995313167572021484375</LatitudeDegrees>
              <LongitudeDegrees>-8.1357949040830135345458984375</LongitudeDegrees>
            </Position>
            <AltitudeMeters>244.600006103515625</AltitudeMeters>
            <DistanceMeters>9901.3221402183</DistanceMeters>
          </Trackpoint>
          <Trackpoint>
            <Time>2018-09-13T07:45:33.000Z</Time>
            <Position>
              <LatitudeDegrees>39.75158214569091796875</LatitudeDegrees>
              <LongitudeDegrees>-8.13594116829335689544677734375</LongitudeDegrees>
            </Position>
            <AltitudeMeters>244</AltitudeMeters>
            <DistanceMeters>9914.5352964637</DistanceMeters>
          </Trackpoint>
          <Trackpoint>
            <Time>2018-09-13T07:45:35.000Z</Time>
            <Position>
              <LatitudeDegrees>39.751465804874897003173828125</LatitudeDegrees>
              <LongitudeDegrees>-8.13621290959417819976806640625</LongitudeDegrees>
            </Position>
            <AltitudeMeters>239.600006103515625</AltitudeMeters>
            <DistanceMeters>9941.150920388</DistanceMeters>
          </Trackpoint>
          <Trackpoint>
            <Time>2018-09-13T07:45:38.000Z</Time>
            <Position>
              <LatitudeDegrees>39.751197583973407745361328125</LatitudeDegrees>
              <LongitudeDegrees>-8.13653670251369476318359375</LongitudeDegrees>
            </Position>
            <AltitudeMeters>236.1999969482421875</AltitudeMeters>
            <DistanceMeters>9981.8811482763</DistanceMeters>
          </Trackpoint>
          <Trackpoint>
            <Time>2018-09-13T07:45:40.000Z</Time>
            <Position>
              <LatitudeDegrees>39.75097353570163249969482421875</LatitudeDegrees>
              <LongitudeDegrees>-8.1366870738565921783447265625</LongitudeDegrees>
            </Position>
            <AltitudeMeters>233.600006103515625</AltitudeMeters>
            <DistanceMeters>10009.94236165</DistanceMeters>
          </Trackpoint>
          <Trackpoint>
            <Time>2018-09-13T07:45:42.000Z</Time>
            <Position>
              <LatitudeDegrees>39.7507273592054843902587890625</LatitudeDegrees>
              <LongitudeDegrees>-8.13679763115942478179931640625</LongitudeDegrees>
            </Position>
            <AltitudeMeters>232.399993896484375</AltitudeMeters>
            <DistanceMeters>10038.929715328</DistanceMeters>
          </Trackpoint>
          <Trackpoint>
            <Time>2018-09-13T07:45:45.000Z</Time>
            <Position>
              <LatitudeDegrees>39.7503444738686084747314453125</LatitudeDegrees>
              <LongitudeDegrees>-8.136957474052906036376953125</LongitudeDegrees>
            </Position>
            <AltitudeMeters>231.399993896484375</AltitudeMeters>
            <DistanceMeters>10083.686995162</DistanceMeters>
          </Trackpoint>
          <Trackpoint>
            <Time>2018-09-13T07:45:46.000Z</Time>
            <Position>
              <LatitudeDegrees>39.75022025406360626220703125</LatitudeDegrees>
              <LongitudeDegrees>-8.1370267085731029510498046875</LongitudeDegrees>
            </Position>
            <AltitudeMeters>232.1999969482421875</AltitudeMeters>
            <DistanceMeters>10098.728856596</DistanceMeters>
          </Trackpoint>
          <Trackpoint>
            <Time>2018-09-13T07:45:48.000Z</Time>
            <Position>
              <LatitudeDegrees>39.74998547695577144622802734375</LatitudeDegrees>
              <LongitudeDegrees>-8.1372084282338619232177734375</LongitudeDegrees>
            </Position>
            <AltitudeMeters>232.8000030517578125</AltitudeMeters>
            <DistanceMeters>10129.137108234</DistanceMeters>
          </Trackpoint>
          <Trackpoint>
            <Time>2018-09-13T07:45:49.000Z</Time>
            <Position>
              <LatitudeDegrees>39.7498802840709686279296875</LatitudeDegrees>
              <LongitudeDegrees>-8.13732468523085117340087890625</LongitudeDegrees>
            </Position>
            <AltitudeMeters>232.399993896484375</AltitudeMeters>
            <DistanceMeters>10144.50149102</DistanceMeters>
          </Trackpoint>
          <Trackpoint>
            <Time>2018-09-13T07:45:51.000Z</Time>
            <Position>
              <LatitudeDegrees>39.7497045993804931640625</LatitudeDegrees>
              <LongitudeDegrees>-8.1376020424067974090576171875</LongitudeDegrees>
            </Position>
            <AltitudeMeters>230.600006103515625</AltitudeMeters>
            <DistanceMeters>10175.253463082</DistanceMeters>
          </Trackpoint>
          <Trackpoint>
            <Time>2018-09-13T07:45:52.000Z</Time>
            <Position>
              <LatitudeDegrees>39.7496357001364231109619140625</LatitudeDegrees>
              <LongitudeDegrees>-8.137758113443851470947265625</LongitudeDegrees>
            </Position>
            <AltitudeMeters>231.399993896484375</AltitudeMeters>
            <DistanceMeters>10190.653948717</DistanceMeters>
          </Trackpoint>
          <Trackpoint>
            <Time>2018-09-13T07:45:53.000Z</Time>
            <Position>
              <LatitudeDegrees>39.7495776973664760589599609375</LatitudeDegrees>
              <LongitudeDegrees>-8.1379229016602039337158203125</LongitudeDegrees>
            </Position>
            <AltitudeMeters>232</AltitudeMeters>
            <DistanceMeters>10206.163112016</DistanceMeters>
          </Trackpoint>
          <Trackpoint>
            <Time>2018-09-13T07:45:54.000Z</Time>
            <Position>
              <LatitudeDegrees>39.74952531047165393829345703125</LatitudeDegrees>
              <LongitudeDegrees>-8.1380935572087764739990234375</LongitudeDegrees>
            </Position>
            <AltitudeMeters>232.399993896484375</AltitudeMeters>
            <DistanceMeters>10221.887951706</DistanceMeters>
          </Trackpoint>
          <Trackpoint>
            <Time>2018-09-13T07:45:55.000Z</Time>
            <Position>
              <LatitudeDegrees>39.74947401322424411773681640625</LatitudeDegrees>
              <LongitudeDegrees>-8.1382668949663639068603515625</LongitudeDegrees>
            </Position>
            <AltitudeMeters>232.1999969482421875</AltitudeMeters>
            <DistanceMeters>10237.782146199</DistanceMeters>
          </Trackpoint>
          <Trackpoint>
            <Time>2018-09-13T07:45:56.000Z</Time>
            <Position>
              <LatitudeDegrees>39.74942204542458057403564453125</LatitudeDegrees>
              <LongitudeDegrees>-8.1384412385523319244384765625</LongitudeDegrees>
            </Position>
            <AltitudeMeters>232</AltitudeMeters>
            <DistanceMeters>10253.783358262</DistanceMeters>
          </Trackpoint>
          <Trackpoint>
            <Time>2018-09-13T07:45:57.000Z</Time>
            <Position>
              <LatitudeDegrees>39.7493694908916950225830078125</LatitudeDegrees>
              <LongitudeDegrees>-8.13861583359539508819580078125</LongitudeDegrees>
            </Position>
            <AltitudeMeters>231.8000030517578125</AltitudeMeters>
            <DistanceMeters>10269.828528234</DistanceMeters>
          </Trackpoint>
          <Trackpoint>
            <Time>2018-09-13T07:45:59.000Z</Time>
            <Position>
              <LatitudeDegrees>39.74926480092108249664306640625</LatitudeDegrees>
              <LongitudeDegrees>-8.13896485604345798492431640625</LongitudeDegrees>
            </Position>
            <AltitudeMeters>227.399993896484375</AltitudeMeters>
            <DistanceMeters>10301.888463062</DistanceMeters>
          </Trackpoint>
          <Trackpoint>
            <Time>2018-09-13T07:46:01.000Z</Time>
            <Position>
              <LatitudeDegrees>39.749163798987865447998046875</LatitudeDegrees>
              <LongitudeDegrees>-8.1393139623105525970458984375</LongitudeDegrees>
            </Position>
            <AltitudeMeters>224</AltitudeMeters>
            <DistanceMeters>10333.808104745</DistanceMeters>
          </Trackpoint>
          <Trackpoint>
            <Time>2018-09-13T07:46:03.000Z</Time>
            <Position>
              <LatitudeDegrees>39.7490643896162509918212890625</LatitudeDegrees>
              <LongitudeDegrees>-8.13966206274926662445068359375</LongitudeDegrees>
            </Position>
            <AltitudeMeters>226</AltitudeMeters>
            <DistanceMeters>10365.585128965</DistanceMeters>
          </Trackpoint>
          <Trackpoint>
            <Time>2018-09-13T07:46:04.000Z</Time>
            <Position>
              <LatitudeDegrees>39.74901284091174602508544921875</LatitudeDegrees>
              <LongitudeDegrees>-8.139838166534900665283203125</LongitudeDegrees>
            </Position>
            <AltitudeMeters>226.399993896484375</AltitudeMeters>
            <DistanceMeters>10381.710577215</DistanceMeters>
          </Trackpoint>
          <Trackpoint>
            <Time>2018-09-13T07:46:05.000Z</Time>
            <Position>
              <LatitudeDegrees>39.74896095693111419677734375</LatitudeDegrees>
              <LongitudeDegrees>-8.14001494087278842926025390625</LongitudeDegrees>
            </Position>
            <AltitudeMeters>225.1999969482421875</AltitudeMeters>
            <DistanceMeters>10397.902805893</DistanceMeters>
          </Trackpoint>
          <Trackpoint>
            <Time>2018-09-13T07:46:06.000Z</Time>
            <Position>
              <LatitudeDegrees>39.74890924058854579925537109375</LatitudeDegrees>
              <LongitudeDegrees>-8.1401913799345493316650390625</LongitudeDegrees>
            </Position>
            <AltitudeMeters>224</AltitudeMeters>
            <DistanceMeters>10414.061539147</DistanceMeters>
          </Trackpoint>
          <Trackpoint>
            <Time>2018-09-13T07:46:07.000Z</Time>
            <Position>
              <LatitudeDegrees>39.7488571889698505401611328125</LatitudeDegrees>
              <LongitudeDegrees>-8.1403667293488979339599609375</LongitudeDegrees>
            </Position>
            <AltitudeMeters>222.8000030517578125</AltitudeMeters>
            <DistanceMeters>10430.146617645</DistanceMeters>
          </Trackpoint>
          <Trackpoint>
            <Time>2018-09-13T07:46:08.000Z</Time>
            <Position>
              <LatitudeDegrees>39.7488055564463138580322265625</LatitudeDegrees>
              <LongitudeDegrees>-8.14054149203002452850341796875</LongitudeDegrees>
            </Position>
            <AltitudeMeters>221.600006103515625</AltitudeMeters>
            <DistanceMeters>10446.168414768</DistanceMeters>
          </Trackpoint>
          <Trackpoint>
            <Time>2018-09-13T07:46:10.000Z</Time>
            <Position>
              <LatitudeDegrees>39.74870212376117706298828125</LatitudeDegrees>
              <LongitudeDegrees>-8.14089135266840457916259765625</LongitudeDegrees>
            </Position>
            <AltitudeMeters>218.8000030517578125</AltitudeMeters>
            <DistanceMeters>10478.24496337</DistanceMeters>
          </Trackpoint>
          <Trackpoint>
            <Time>2018-09-13T07:46:13.000Z</Time>
            <Position>
              <LatitudeDegrees>39.74854295141994953155517578125</LatitudeDegrees>
              <LongitudeDegrees>-8.141413293778896331787109375</LongitudeDegrees>
            </Position>
            <AltitudeMeters>209.399993896484375</AltitudeMeters>
            <DistanceMeters>10526.295416703</DistanceMeters>
          </Trackpoint>
          <Trackpoint>
            <Time>2018-09-13T07:46:15.000Z</Time>
            <Position>
              <LatitudeDegrees>39.74841319955885410308837890625</LatitudeDegrees>
              <LongitudeDegrees>-8.141747228801250457763671875</LongitudeDegrees>
            </Position>
            <AltitudeMeters>203.1999969482421875</AltitudeMeters>
            <DistanceMeters>10558.313920395</DistanceMeters>
          </Trackpoint>
          <Trackpoint>
            <Time>2018-09-13T07:46:16.000Z</Time>
            <Position>
              <LatitudeDegrees>39.7483344934880733489990234375</LatitudeDegrees>
              <LongitudeDegrees>-8.14190137200057506561279296875</LongitudeDegrees>
            </Position>
            <AltitudeMeters>201.600006103515625</AltitudeMeters>
            <DistanceMeters>10574.148633295</DistanceMeters>
          </Trackpoint>
          <Trackpoint>
            <Time>2018-09-13T07:46:17.000Z</Time>
            <Position>
              <LatitudeDegrees>39.748243801295757293701171875</LatitudeDegrees>
              <LongitudeDegrees>-8.14204352907836437225341796875</LongitudeDegrees>
            </Position>
            <AltitudeMeters>200.1999969482421875</AltitudeMeters>
            <DistanceMeters>10589.956520738</DistanceMeters>
          </Trackpoint>
          <Trackpoint>
            <Time>2018-09-13T07:46:18.000Z</Time>
            <Position>
              <LatitudeDegrees>39.74814129061996936798095703125</LatitudeDegrees>
              <LongitudeDegrees>-8.1421728618443012237548828125</LongitudeDegrees>
            </Position>
            <AltitudeMeters>199.1999969482421875</AltitudeMeters>
            <DistanceMeters>10605.85213551</DistanceMeters>
          </Trackpoint>
          <Trackpoint>
            <Time>2018-09-13T07:46:19.000Z</Time>
            <Position>
              <LatitudeDegrees>39.748027883470058441162109375</LatitudeDegrees>
              <LongitudeDegrees>-8.14228761009871959686279296875</LongitudeDegrees>
            </Position>
            <AltitudeMeters>198.1999969482421875</AltitudeMeters>
            <DistanceMeters>10621.844315632</DistanceMeters>
          </Trackpoint>
          <Trackpoint>
            <Time>2018-09-13T07:46:21.000Z</Time>
            <Position>
              <LatitudeDegrees>39.74778003059327602386474609375</LatitudeDegrees>
              <LongitudeDegrees>-8.1424796395003795623779296875</LongitudeDegrees>
            </Position>
            <AltitudeMeters>197</AltitudeMeters>
            <DistanceMeters>10653.954347217</DistanceMeters>
          </Trackpoint>
          <Trackpoint>
            <Time>2018-09-13T07:46:22.000Z</Time>
            <Position>
              <LatitudeDegrees>39.74765195511281490325927734375</LatitudeDegrees>
              <LongitudeDegrees>-8.14256555400788784027099609375</LongitudeDegrees>
            </Position>
            <AltitudeMeters>196.399993896484375</AltitudeMeters>
            <DistanceMeters>10669.993888291</DistanceMeters>
          </Trackpoint>
          <Trackpoint>
            <Time>2018-09-13T07:46:23.000Z</Time>
            <Position>
              <LatitudeDegrees>39.747523628175258636474609375</LatitudeDegrees>
              <LongitudeDegrees>-8.14265004359185695648193359375</LongitudeDegrees>
            </Position>
            <AltitudeMeters>195</AltitudeMeters>
            <DistanceMeters>10686.002717092</DistanceMeters>
          </Trackpoint>
          <Trackpoint>
            <Time>2018-09-13T07:46:25.000Z</Time>
            <Position>
              <LatitudeDegrees>39.74726714193820953369140625</LatitudeDegrees>
              <LongitudeDegrees>-8.14282245934009552001953125</LongitudeDegrees>
            </Position>
            <AltitudeMeters>191.1999969482421875</AltitudeMeters>
            <DistanceMeters>10718.137767768</DistanceMeters>
          </Trackpoint>
          <Trackpoint>
            <Time>2018-09-13T07:46:27.000Z</Time>
            <Position>
              <LatitudeDegrees>39.7470074705779552459716796875</LatitudeDegrees>
              <LongitudeDegrees>-8.14298666082322597503662109375</LongitudeDegrees>
            </Position>
            <AltitudeMeters>187.1999969482421875</AltitudeMeters>
            <DistanceMeters>10750.274925905</DistanceMeters>
          </Trackpoint>
          <Trackpoint>
            <Time>2018-09-13T07:46:29.000Z</Time>
            <Position>
              <LatitudeDegrees>39.74674302153289318084716796875</LatitudeDegrees>
              <LongitudeDegrees>-8.1431257165968418121337890625</LongitudeDegrees>
            </Position>
            <AltitudeMeters>180.8000030517578125</AltitudeMeters>
            <DistanceMeters>10782.023235984</DistanceMeters>
          </Trackpoint>
          <Trackpoint>
            <Time>2018-09-13T07:46:30.000Z</Time>
            <Position>
              <LatitudeDegrees>39.74661041982471942901611328125</LatitudeDegrees>
              <LongitudeDegrees>-8.14318229444324970245361328125</LongitudeDegrees>
            </Position>
            <AltitudeMeters>178</AltitudeMeters>
            <DistanceMeters>10797.555962159</DistanceMeters>
          </Trackpoint>
          <Trackpoint>
            <Time>2018-09-13T07:46:31.000Z</Time>
            <Position>
              <LatitudeDegrees>39.746474884450435638427734375</LatitudeDegrees>
              <LongitudeDegrees>-8.1432202644646167755126953125</LongitudeDegrees>
            </Position>
            <AltitudeMeters>175.600006103515625</AltitudeMeters>
            <DistanceMeters>10812.98720047</DistanceMeters>
          </Trackpoint>
          <Trackpoint>
            <Time>2018-09-13T07:46:32.000Z</Time>
            <Position>
              <LatitudeDegrees>39.7463372536003589630126953125</LatitudeDegrees>
              <LongitudeDegrees>-8.14324113540351390838623046875</LongitudeDegrees>
            </Position>
            <AltitudeMeters>173</AltitudeMeters>
            <DistanceMeters>10828.409951315</DistanceMeters>
          </Trackpoint>
          <Trackpoint>
            <Time>2018-09-13T07:46:34.000Z</Time>
            <Position>
              <LatitudeDegrees>39.7460593096911907196044921875</LatitudeDegrees>
              <LongitudeDegrees>-8.143232166767120361328125</LongitudeDegrees>
            </Position>
            <AltitudeMeters>170</AltitudeMeters>
            <DistanceMeters>10859.355120349</DistanceMeters>
          </Trackpoint>
          <Trackpoint>
            <Time>2018-09-13T07:46:35.000Z</Time>
            <Position>
              <LatitudeDegrees>39.745923690497875213623046875</LatitudeDegrees>
              <LongitudeDegrees>-8.1431951187551021575927734375</LongitudeDegrees>
            </Position>
            <AltitudeMeters>170</AltitudeMeters>
            <DistanceMeters>10874.779334883</DistanceMeters>
          </Trackpoint>
          <Trackpoint>
            <Time>2018-09-13T07:46:36.000Z</Time>
            <Position>
              <LatitudeDegrees>39.74579326808452606201171875</LatitudeDegrees>
              <LongitudeDegrees>-8.1431354396045207977294921875</LongitudeDegrees>
            </Position>
            <AltitudeMeters>170.600006103515625</AltitudeMeters>
            <DistanceMeters>10890.168089048</DistanceMeters>
          </Trackpoint>
          <Trackpoint>
            <Time>2018-09-13T07:46:37.000Z</Time>
            <Position>
              <LatitudeDegrees>39.74566913209855556488037109375</LatitudeDegrees>
              <LongitudeDegrees>-8.1430566497147083282470703125</LongitudeDegrees>
            </Position>
            <AltitudeMeters>170.399993896484375</AltitudeMeters>
            <DistanceMeters>10905.542166286</DistanceMeters>
          </Trackpoint>
          <Trackpoint>
            <Time>2018-09-13T07:46:38.000Z</Time>
            <Position>
              <LatitudeDegrees>39.74555279128253459930419921875</LatitudeDegrees>
              <LongitudeDegrees>-8.14296084456145763397216796875</LongitudeDegrees>
            </Position>
            <AltitudeMeters>169</AltitudeMeters>
            <DistanceMeters>10920.868299147</DistanceMeters>
          </Trackpoint>
          <Trackpoint>
            <Time>2018-09-13T07:46:40.000Z</Time>
            <Position>
              <LatitudeDegrees>39.7453525476157665252685546875</LatitudeDegrees>
              <LongitudeDegrees>-8.142716176807880401611328125</LongitudeDegrees>
            </Position>
            <AltitudeMeters>167.600006103515625</AltitudeMeters>
            <DistanceMeters>10951.448598631</DistanceMeters>
          </Trackpoint>
          <Trackpoint>
            <Time>2018-09-13T07:46:42.000Z</Time>
            <Position>
              <LatitudeDegrees>39.74520075134932994842529296875</LatitudeDegrees>
              <LongitudeDegrees>-8.1424246542155742645263671875</LongitudeDegrees>
            </Position>
            <AltitudeMeters>168.600006103515625</AltitudeMeters>
            <DistanceMeters>10981.579260679</DistanceMeters>
          </Trackpoint>
          <Trackpoint>
            <Time>2018-09-13T07:46:44.000Z</Time>
            <Position>
              <LatitudeDegrees>39.745096229016780853271484375</LatitudeDegrees>
              <LongitudeDegrees>-8.14211460761725902557373046875</LongitudeDegrees>
            </Position>
            <AltitudeMeters>170</AltitudeMeters>
            <DistanceMeters>11010.551190122</DistanceMeters>
          </Trackpoint>
          <Trackpoint>
            <Time>2018-09-13T07:46:46.000Z</Time>
            <Position>
              <LatitudeDegrees>39.74502774886786937713623046875</LatitudeDegrees>
              <LongitudeDegrees>-8.141802214086055755615234375</LongitudeDegrees>
            </Position>
            <AltitudeMeters>170.600006103515625</AltitudeMeters>
            <DistanceMeters>11038.351011388</DistanceMeters>
          </Trackpoint>
          <Trackpoint>
            <Time>2018-09-13T07:46:48.000Z</Time>
            <Position>
              <LatitudeDegrees>39.74497712217271327972412109375</LatitudeDegrees>
              <LongitudeDegrees>-8.14149954356253147125244140625</LongitudeDegrees>
            </Position>
            <AltitudeMeters>169.1999969482421875</AltitudeMeters>
            <DistanceMeters>11064.859547536</DistanceMeters>
          </Trackpoint>
          <Trackpoint>
            <Time>2018-09-13T07:46:51.000Z</Time>
            <Position>
              <LatitudeDegrees>39.74490470252931118011474609375</LatitudeDegrees>
              <LongitudeDegrees>-8.14107608981430530548095703125</LongitudeDegrees>
            </Position>
            <AltitudeMeters>171.399993896484375</AltitudeMeters>
            <DistanceMeters>11101.984236188</DistanceMeters>
          </Trackpoint>
          <Trackpoint>
            <Time>2018-09-13T07:46:56.000Z</Time>
            <Position>
              <LatitudeDegrees>39.74478852935135364532470703125</LatitudeDegrees>
              <LongitudeDegrees>-8.14043395221233367919921875</LongitudeDegrees>
            </Position>
            <AltitudeMeters>177.600006103515625</AltitudeMeters>
            <DistanceMeters>11158.439222512</DistanceMeters>
          </Trackpoint>
          <Trackpoint>
            <Time>2018-09-13T07:47:03.000Z</Time>
            <Position>
              <LatitudeDegrees>39.744633547961711883544921875</LatitudeDegrees>
              <LongitudeDegrees>-8.1397380866110324859619140625</LongitudeDegrees>
            </Position>
            <AltitudeMeters>191</AltitudeMeters>
            <DistanceMeters>11220.439474944</DistanceMeters>
          </Trackpoint>
          <Trackpoint>
            <Time>2018-09-13T07:47:04.000Z</Time>
            <Position>
              <LatitudeDegrees>39.74461217410862445831298828125</LatitudeDegrees>
              <LongitudeDegrees>-8.139659129083156585693359375</LongitudeDegrees>
            </Position>
            <AltitudeMeters>193</AltitudeMeters>
            <DistanceMeters>11227.603127953</DistanceMeters>
          </Trackpoint>
          <Trackpoint>
            <Time>2018-09-13T07:47:06.000Z</Time>
            <Position>
              <LatitudeDegrees>39.7445683367550373077392578125</LatitudeDegrees>
              <LongitudeDegrees>-8.139512278139591217041015625</LongitudeDegrees>
            </Position>
            <AltitudeMeters>196.8000030517578125</AltitudeMeters>
            <DistanceMeters>11241.084535468</DistanceMeters>
          </Trackpoint>
          <Trackpoint>
            <Time>2018-09-13T07:47:08.000Z</Time>
            <Position>
              <LatitudeDegrees>39.7445254214107990264892578125</LatitudeDegrees>
              <LongitudeDegrees>-8.13937774859368801116943359375</LongitudeDegrees>
            </Position>
            <AltitudeMeters>200.399993896484375</AltitudeMeters>
            <DistanceMeters>11253.549345747</DistanceMeters>
          </Trackpoint>
          <Trackpoint>
            <Time>2018-09-13T07:47:10.000Z</Time>
            <Position>
              <LatitudeDegrees>39.74448837339878082275390625</LatitudeDegrees>
              <LongitudeDegrees>-8.13924950547516345977783203125</LongitudeDegrees>
            </Position>
            <AltitudeMeters>203.399993896484375</AltitudeMeters>
            <DistanceMeters>11265.273501309</DistanceMeters>
          </Trackpoint>
          <Trackpoint>
            <Time>2018-09-13T07:47:12.000Z</Time>
            <Position>
              <LatitudeDegrees>39.7444513253867626190185546875</LatitudeDegrees>
              <LongitudeDegrees>-8.13912637531757354736328125</LongitudeDegrees>
            </Position>
            <AltitudeMeters>204.399993896484375</AltitudeMeters>
            <DistanceMeters>11276.589263942</DistanceMeters>
          </Trackpoint>
          <Trackpoint>
            <Time>2018-09-13T07:47:15.000Z</Time>
            <Position>
              <LatitudeDegrees>39.744398184120655059814453125</LatitudeDegrees>
              <LongitudeDegrees>-8.13895605504512786865234375</LongitudeDegrees>
            </Position>
            <AltitudeMeters>206.1999969482421875</AltitudeMeters>
            <DistanceMeters>11292.319558113</DistanceMeters>
          </Trackpoint>
          <Trackpoint>
            <Time>2018-09-13T07:47:17.000Z</Time>
            <Position>
              <LatitudeDegrees>39.7443654946982860565185546875</LatitudeDegrees>
              <LongitudeDegrees>-8.13885086216032505035400390625</LongitudeDegrees>
            </Position>
            <AltitudeMeters>207.1999969482421875</AltitudeMeters>
            <DistanceMeters>11302.02950292</DistanceMeters>
          </Trackpoint>
          <Trackpoint>
            <Time>2018-09-13T07:47:19.000Z</Time>
            <Position>
              <LatitudeDegrees>39.7443349845707416534423828125</LatitudeDegrees>
              <LongitudeDegrees>-8.13875011168420314788818359375</LongitudeDegrees>
            </Position>
            <AltitudeMeters>208.1999969482421875</AltitudeMeters>
            <DistanceMeters>11311.296922035</DistanceMeters>
          </Trackpoint>
          <Trackpoint>
            <Time>2018-09-13T07:47:22.000Z</Time>
            <Position>
              <LatitudeDegrees>39.7442924045026302337646484375</LatitudeDegrees>
              <LongitudeDegrees>-8.13860870897769927978515625</LongitudeDegrees>
            </Position>
            <AltitudeMeters>210.399993896484375</AltitudeMeters>
            <DistanceMeters>11324.293714331</DistanceMeters>
          </Trackpoint>
          <Trackpoint>
            <Time>2018-09-13T07:47:25.000Z</Time>
            <Position>
              <LatitudeDegrees>39.74424923770129680633544921875</LatitudeDegrees>
              <LongitudeDegrees>-8.13847686164081096649169921875</LongitudeDegrees>
            </Position>
            <AltitudeMeters>213.8000030517578125</AltitudeMeters>
            <DistanceMeters>11336.557315889</DistanceMeters>
          </Trackpoint>
          <Trackpoint>
            <Time>2018-09-13T07:47:29.000Z</Time>
            <Position>
              <LatitudeDegrees>39.74419643171131610870361328125</LatitudeDegrees>
              <LongitudeDegrees>-8.13830637373030185699462890625</LongitudeDegrees>
            </Position>
            <AltitudeMeters>215.8000030517578125</AltitudeMeters>
            <DistanceMeters>11352.287035993</DistanceMeters>
          </Trackpoint>
          <Trackpoint>
            <Time>2018-09-13T07:47:34.000Z</Time>
            <Position>
              <LatitudeDegrees>39.7441349923610687255859375</LatitudeDegrees>
              <LongitudeDegrees>-8.1381083093583583831787109375</LongitudeDegrees>
            </Position>
            <AltitudeMeters>217.1999969482421875</AltitudeMeters>
            <DistanceMeters>11370.564801396</DistanceMeters>
          </Trackpoint>
          <Trackpoint>
            <Time>2018-09-13T07:47:39.000Z</Time>
            <Position>
              <LatitudeDegrees>39.74408109672367572784423828125</LatitudeDegrees>
              <LongitudeDegrees>-8.13791309483349323272705078125</LongitudeDegrees>
            </Position>
            <AltitudeMeters>219.1999969482421875</AltitudeMeters>
            <DistanceMeters>11388.315984948</DistanceMeters>
          </Trackpoint>
          <Trackpoint>
            <Time>2018-09-13T07:47:44.000Z</Time>
            <Position>
              <LatitudeDegrees>39.7440372593700885772705078125</LatitudeDegrees>
              <LongitudeDegrees>-8.137716539204120635986328125</LongitudeDegrees>
            </Position>
            <AltitudeMeters>221.1999969482421875</AltitudeMeters>
            <DistanceMeters>11405.830828852</DistanceMeters>
          </Trackpoint>
          <Trackpoint>
            <Time>2018-09-13T07:47:48.000Z</Time>
            <Position>
              <LatitudeDegrees>39.74400867708027362823486328125</LatitudeDegrees>
              <LongitudeDegrees>-8.1375581212341785430908203125</LongitudeDegrees>
            </Position>
            <AltitudeMeters>222.1999969482421875</AltitudeMeters>
            <DistanceMeters>11419.756701237</DistanceMeters>
          </Trackpoint>
          <Trackpoint>
            <Time>2018-09-13T07:47:54.000Z</Time>
            <Position>
              <LatitudeDegrees>39.74397699348628520965576171875</LatitudeDegrees>
              <LongitudeDegrees>-8.13732451759278774261474609375</LongitudeDegrees>
            </Position>
            <AltitudeMeters>222.8000030517578125</AltitudeMeters>
            <DistanceMeters>11440.057307848</DistanceMeters>
          </Trackpoint>
          <Trackpoint>
            <Time>2018-09-13T07:48:00.000Z</Time>
            <Position>
              <LatitudeDegrees>39.74397229962050914764404296875</LatitudeDegrees>
              <LongitudeDegrees>-8.1370778381824493408203125</LongitudeDegrees>
            </Position>
            <AltitudeMeters>221</AltitudeMeters>
            <DistanceMeters>11461.175057616</DistanceMeters>
          </Trackpoint>
          <Trackpoint>
            <Time>2018-09-13T07:48:08.000Z</Time>
            <Position>
              <LatitudeDegrees>39.74397967569530010223388671875</LatitudeDegrees>
              <LongitudeDegrees>-8.1367434002459049224853515625</LongitudeDegrees>
            </Position>
            <AltitudeMeters>218</AltitudeMeters>
            <DistanceMeters>11489.80823244</DistanceMeters>
          </Trackpoint>
          <Trackpoint>
            <Time>2018-09-13T07:48:17.000Z</Time>
            <Position>
              <LatitudeDegrees>39.74398286081850528717041015625</LatitudeDegrees>
              <LongitudeDegrees>-8.13637535087764263153076171875</LongitudeDegrees>
            </Position>
            <AltitudeMeters>215.1999969482421875</AltitudeMeters>
            <DistanceMeters>11521.308262438</DistanceMeters>
          </Trackpoint>
          <Trackpoint>
            <Time>2018-09-13T07:48:23.000Z</Time>
            <Position>
              <LatitudeDegrees>39.74395930767059326171875</LatitudeDegrees>
              <LongitudeDegrees>-8.1361352093517780303955078125</LongitudeDegrees>
            </Position>
            <AltitudeMeters>211.600006103515625</AltitudeMeters>
            <DistanceMeters>11542.026265568</DistanceMeters>
          </Trackpoint>
          <Trackpoint>
            <Time>2018-09-13T07:48:29.000Z</Time>
            <Position>
              <LatitudeDegrees>39.7439001314342021942138671875</LatitudeDegrees>
              <LongitudeDegrees>-8.1359065510332584381103515625</LongitudeDegrees>
            </Position>
            <AltitudeMeters>210.1999969482421875</AltitudeMeters>
            <DistanceMeters>11562.673976557</DistanceMeters>
          </Trackpoint>
          <Trackpoint>
            <Time>2018-09-13T07:48:34.000Z</Time>
            <Position>
              <LatitudeDegrees>39.74382444284856319427490234375</LatitudeDegrees>
              <LongitudeDegrees>-8.1357295252382755279541015625</LongitudeDegrees>
            </Position>
            <AltitudeMeters>209.600006103515625</AltitudeMeters>
            <DistanceMeters>11580.008735102</DistanceMeters>
          </Trackpoint>
          <Trackpoint>
            <Time>2018-09-13T07:48:39.000Z</Time>
            <Position>
              <LatitudeDegrees>39.74372050724923610687255859375</LatitudeDegrees>
              <LongitudeDegrees>-8.13558074645698070526123046875</LongitudeDegrees>
            </Position>
            <AltitudeMeters>205.600006103515625</AltitudeMeters>
            <DistanceMeters>11597.211982626</DistanceMeters>
          </Trackpoint>
          <Trackpoint>
            <Time>2018-09-13T07:48:47.000Z</Time>
            <Position>
              <LatitudeDegrees>39.7435118816792964935302734375</LatitudeDegrees>
              <LongitudeDegrees>-8.13538913615047931671142578125</LongitudeDegrees>
            </Position>
            <AltitudeMeters>198</AltitudeMeters>
            <DistanceMeters>11625.638791818</DistanceMeters>
          </Trackpoint>
          <Trackpoint>
            <Time>2018-09-13T07:48:52.000Z</Time>
            <Position>
              <LatitudeDegrees>39.74336586892604827880859375</LatitudeDegrees>
              <LongitudeDegrees>-8.13531202264130115509033203125</LongitudeDegrees>
            </Position>
            <AltitudeMeters>196.1999969482421875</AltitudeMeters>
            <DistanceMeters>11643.179137724</DistanceMeters>
          </Trackpoint>
          <Trackpoint>
            <Time>2018-09-13T07:48:58.000Z</Time>
            <Position>
              <LatitudeDegrees>39.74317610263824462890625</LatitudeDegrees>
              <LongitudeDegrees>-8.13525871373713016510009765625</LongitudeDegrees>
            </Position>
            <AltitudeMeters>196</AltitudeMeters>
            <DistanceMeters>11664.787635885</DistanceMeters>
          </Trackpoint>
          <Trackpoint>
            <Time>2018-09-13T07:49:04.000Z</Time>
            <Position>
              <LatitudeDegrees>39.7429870069026947021484375</LatitudeDegrees>
              <LongitudeDegrees>-8.1352571211755275726318359375</LongitudeDegrees>
            </Position>
            <AltitudeMeters>197.399993896484375</AltitudeMeters>
            <DistanceMeters>11685.835141442</DistanceMeters>
          </Trackpoint>
          <Trackpoint>
            <Time>2018-09-13T07:49:09.000Z</Time>
            <Position>
              <LatitudeDegrees>39.742829762399196624755859375</LatitudeDegrees>
              <LongitudeDegrees>-8.13529207371175289154052734375</LongitudeDegrees>
            </Position>
            <AltitudeMeters>198</AltitudeMeters>
            <DistanceMeters>11703.590648442</DistanceMeters>
          </Trackpoint>
          <Trackpoint>
            <Time>2018-09-13T07:49:15.000Z</Time>
            <Position>
              <LatitudeDegrees>39.7426488809287548065185546875</LatitudeDegrees>
              <LongitudeDegrees>-8.1353808380663394927978515625</LongitudeDegrees>
            </Position>
            <AltitudeMeters>195.600006103515625</AltitudeMeters>
            <DistanceMeters>11725.108692027</DistanceMeters>
          </Trackpoint>
          <Trackpoint>
            <Time>2018-09-13T07:49:20.000Z</Time>
            <Position>
              <LatitudeDegrees>39.7425117529928684234619140625</LatitudeDegrees>
              <LongitudeDegrees>-8.135499022901058197021484375</LongitudeDegrees>
            </Position>
            <AltitudeMeters>195.399993896484375</AltitudeMeters>
            <DistanceMeters>11743.418542329</DistanceMeters>
          </Trackpoint>
          <Trackpoint>
            <Time>2018-09-13T07:49:26.000Z</Time>
            <Position>
              <LatitudeDegrees>39.7423727810382843017578125</LatitudeDegrees>
              <LongitudeDegrees>-8.13566842116415500640869140625</LongitudeDegrees>
            </Position>
            <AltitudeMeters>196.399993896484375</AltitudeMeters>
            <DistanceMeters>11764.618659422</DistanceMeters>
          </Trackpoint>
          <Trackpoint>
            <Time>2018-09-13T07:49:32.000Z</Time>
            <Position>
              <LatitudeDegrees>39.74226004444062709808349609375</LatitudeDegrees>
              <LongitudeDegrees>-8.13587847165763378143310546875</LongitudeDegrees>
            </Position>
            <AltitudeMeters>199.1999969482421875</AltitudeMeters>
            <DistanceMeters>11786.541839363</DistanceMeters>
          </Trackpoint>
          <Trackpoint>
            <Time>2018-09-13T07:49:39.000Z</Time>
            <Position>
              <LatitudeDegrees>39.7421607188880443572998046875</LatitudeDegrees>
              <LongitudeDegrees>-8.1361425854265689849853515625</LongitudeDegrees>
            </Position>
            <AltitudeMeters>200.600006103515625</AltitudeMeters>
            <DistanceMeters>11811.704367852</DistanceMeters>
          </Trackpoint>
          <Trackpoint>
            <Time>2018-09-13T07:49:45.000Z</Time>
            <Position>
              <LatitudeDegrees>39.742080084979534149169921875</LatitudeDegrees>
              <LongitudeDegrees>-8.1363670527935028076171875</LongitudeDegrees>
            </Position>
            <AltitudeMeters>201.1999969482421875</AltitudeMeters>
            <DistanceMeters>11832.907892228</DistanceMeters>
          </Trackpoint>
          <Trackpoint>
            <Time>2018-09-13T07:49:53.000Z</Time>
            <Position>
              <LatitudeDegrees>39.7419565357267856597900390625</LatitudeDegrees>
              <LongitudeDegrees>-8.1366505287587642669677734375</LongitudeDegrees>
            </Position>
            <AltitudeMeters>203.8000030517578125</AltitudeMeters>
            <DistanceMeters>11860.794954525</DistanceMeters>
          </Trackpoint>
          <Trackpoint>
            <Time>2018-09-13T07:49:58.000Z</Time>
            <Position>
              <LatitudeDegrees>39.741861820220947265625</LatitudeDegrees>
              <LongitudeDegrees>-8.13681657426059246063232421875</LongitudeDegrees>
            </Position>
            <AltitudeMeters>206.8000030517578125</AltitudeMeters>
            <DistanceMeters>11878.489326807</DistanceMeters>
          </Trackpoint>
          <Trackpoint>
            <Time>2018-09-13T07:50:03.000Z</Time>
            <Position>
              <LatitudeDegrees>39.74174774251878261566162109375</LatitudeDegrees>
              <LongitudeDegrees>-8.13696183264255523681640625</LongitudeDegrees>
            </Position>
            <AltitudeMeters>211.399993896484375</AltitudeMeters>
            <DistanceMeters>11896.259576474</DistanceMeters>
          </Trackpoint>
          <Trackpoint>
            <Time>2018-09-13T07:50:09.000Z</Time>
            <Position>
              <LatitudeDegrees>39.7415837086737155914306640625</LatitudeDegrees>
              <LongitudeDegrees>-8.137104995548725128173828125</LongitudeDegrees>
            </Position>
            <AltitudeMeters>216</AltitudeMeters>
            <DistanceMeters>11918.247123692</DistanceMeters>
          </Trackpoint>
          <Trackpoint>
            <Time>2018-09-13T07:50:16.000Z</Time>
            <Position>
              <LatitudeDegrees>39.74138782359659671783447265625</LatitudeDegrees>
              <LongitudeDegrees>-8.13723986037075519561767578125</LongitudeDegrees>
            </Position>
            <AltitudeMeters>220.600006103515625</AltitudeMeters>
            <DistanceMeters>11942.916212483</DistanceMeters>
          </Trackpoint>
          <Trackpoint>
            <Time>2018-09-13T07:50:21.000Z</Time>
            <Position>
              <LatitudeDegrees>39.7412279807031154632568359375</LatitudeDegrees>
              <LongitudeDegrees>-8.1372711248695850372314453125</LongitudeDegrees>
            </Position>
            <AltitudeMeters>222</AltitudeMeters>
            <DistanceMeters>11960.907156318</DistanceMeters>
          </Trackpoint>
          <Trackpoint>
            <Time>2018-09-13T07:50:28.000Z</Time>
            <Position>
              <LatitudeDegrees>39.7410016693174839019775390625</LatitudeDegrees>
              <LongitudeDegrees>-8.137280009686946868896484375</LongitudeDegrees>
            </Position>
            <AltitudeMeters>226</AltitudeMeters>
            <DistanceMeters>11986.107337984</DistanceMeters>
          </Trackpoint>
          <Trackpoint>
            <Time>2018-09-13T07:50:34.000Z</Time>
            <Position>
              <LatitudeDegrees>39.74081198684871196746826171875</LatitudeDegrees>
              <LongitudeDegrees>-8.13722795806825160980224609375</LongitudeDegrees>
            </Position>
            <AltitudeMeters>227.8000030517578125</AltitudeMeters>
            <DistanceMeters>12007.684052774</DistanceMeters>
          </Trackpoint>
          <Trackpoint>
            <Time>2018-09-13T07:50:39.000Z</Time>
            <Position>
              <LatitudeDegrees>39.74067133851349353790283203125</LatitudeDegrees>
              <LongitudeDegrees>-8.1371561251580715179443359375</LongitudeDegrees>
            </Position>
            <AltitudeMeters>229</AltitudeMeters>
            <DistanceMeters>12024.502438979</DistanceMeters>
          </Trackpoint>
          <Trackpoint>
            <Time>2018-09-13T07:50:47.000Z</Time>
            <Position>
              <LatitudeDegrees>39.74046095274388790130615234375</LatitudeDegrees>
              <LongitudeDegrees>-8.1369925104081630706787109375</LongitudeDegrees>
            </Position>
            <AltitudeMeters>230.1999969482421875</AltitudeMeters>
            <DistanceMeters>12051.786195717</DistanceMeters>
          </Trackpoint>
          <Trackpoint>
            <Time>2018-09-13T07:50:51.000Z</Time>
            <Position>
              <LatitudeDegrees>39.74036405794322490692138671875</LatitudeDegrees>
              <LongitudeDegrees>-8.136890418827533721923828125</LongitudeDegrees>
            </Position>
            <AltitudeMeters>230</AltitudeMeters>
            <DistanceMeters>12065.66595259</DistanceMeters>
          </Trackpoint>
          <Trackpoint>
            <Time>2018-09-13T07:50:56.000Z</Time>
            <Position>
              <LatitudeDegrees>39.74024704657495021820068359375</LatitudeDegrees>
              <LongitudeDegrees>-8.13674901612102985382080078125</LongitudeDegrees>
            </Position>
            <AltitudeMeters>231.600006103515625</AltitudeMeters>
            <DistanceMeters>12083.44433091</DistanceMeters>
          </Trackpoint>
          <Trackpoint>
            <Time>2018-09-13T07:51:02.000Z</Time>
            <Position>
              <LatitudeDegrees>39.74011561833322048187255859375</LatitudeDegrees>
              <LongitudeDegrees>-8.1365579925477504730224609375</LongitudeDegrees>
            </Position>
            <AltitudeMeters>233.8000030517578125</AltitudeMeters>
            <DistanceMeters>12105.382128296</DistanceMeters>
          </Trackpoint>
          <Trackpoint>
            <Time>2018-09-13T07:51:13.000Z</Time>
            <Position>
              <LatitudeDegrees>39.73989014513790607452392578125</LatitudeDegrees>
              <LongitudeDegrees>-8.13620486296713352203369140625</LongitudeDegrees>
            </Position>
            <AltitudeMeters>237.399993896484375</AltitudeMeters>
            <DistanceMeters>12144.665992721</DistanceMeters>
          </Trackpoint>
          <Trackpoint>
            <Time>2018-09-13T07:51:18.000Z</Time>
            <Position>
              <LatitudeDegrees>39.73978109657764434814453125</LatitudeDegrees>
              <LongitudeDegrees>-8.13604929484426975250244140625</LongitudeDegrees>
            </Position>
            <AltitudeMeters>239.399993896484375</AltitudeMeters>
            <DistanceMeters>12162.682265859</DistanceMeters>
          </Trackpoint>
          <Trackpoint>
            <Time>2018-09-13T07:51:23.000Z</Time>
            <Position>
              <LatitudeDegrees>39.73967037163674831390380859375</LatitudeDegrees>
              <LongitudeDegrees>-8.13589288853108882904052734375</LongitudeDegrees>
            </Position>
            <AltitudeMeters>241.8000030517578125</AltitudeMeters>
            <DistanceMeters>12180.877586484</DistanceMeters>
          </Trackpoint>
          <Trackpoint>
            <Time>2018-09-13T07:51:27.000Z</Time>
            <Position>
              <LatitudeDegrees>39.73957766778767108917236328125</LatitudeDegrees>
              <LongitudeDegrees>-8.135770596563816070556640625</LongitudeDegrees>
            </Position>
            <AltitudeMeters>241.1999969482421875</AltitudeMeters>
            <DistanceMeters>12195.575119906</DistanceMeters>
          </Trackpoint>
          <Trackpoint>
            <Time>2018-09-13T07:51:34.000Z</Time>
            <Position>
              <LatitudeDegrees>39.73939192481338977813720703125</LatitudeDegrees>
              <LongitudeDegrees>-8.13559885136783123016357421875</LongitudeDegrees>
            </Position>
            <AltitudeMeters>238.1999969482421875</AltitudeMeters>
            <DistanceMeters>12220.941379526</DistanceMeters>
          </Trackpoint>
          <Trackpoint>
            <Time>2018-09-13T07:51:41.000Z</Time>
            <Position>
              <LatitudeDegrees>39.73918271251022815704345703125</LatitudeDegrees>
              <LongitudeDegrees>-8.135467506945133209228515625</LongitudeDegrees>
            </Position>
            <AltitudeMeters>237.399993896484375</AltitudeMeters>
            <DistanceMeters>12246.798600761</DistanceMeters>
          </Trackpoint>
          <Trackpoint>
            <Time>2018-09-13T07:51:48.000Z</Time>
            <Position>
              <LatitudeDegrees>39.738956987857818603515625</LatitudeDegrees>
              <LongitudeDegrees>-8.13536935485899448394775390625</LongitudeDegrees>
            </Position>
            <AltitudeMeters>238</AltitudeMeters>
            <DistanceMeters>12273.289587734</DistanceMeters>
          </Trackpoint>
          <Trackpoint>
            <Time>2018-09-13T07:51:54.000Z</Time>
            <Position>
              <LatitudeDegrees>39.73875942640006542205810546875</LatitudeDegrees>
              <LongitudeDegrees>-8.13529693521559238433837890625</LongitudeDegrees>
            </Position>
            <AltitudeMeters>239</AltitudeMeters>
            <DistanceMeters>12296.135559337</DistanceMeters>
          </Trackpoint>
          <Trackpoint>
            <Time>2018-09-13T07:52:00.000Z</Time>
            <Position>
              <LatitudeDegrees>39.7385551594197750091552734375</LatitudeDegrees>
              <LongitudeDegrees>-8.13523314893245697021484375</LongitudeDegrees>
            </Position>
            <AltitudeMeters>236.8000030517578125</AltitudeMeters>
            <DistanceMeters>12319.517345371</DistanceMeters>
          </Trackpoint>
          <Trackpoint>
            <Time>2018-09-13T07:52:09.000Z</Time>
            <Position>
              <LatitudeDegrees>39.738241843879222869873046875</LatitudeDegrees>
              <LongitudeDegrees>-8.13513298518955707550048828125</LongitudeDegrees>
            </Position>
            <AltitudeMeters>232</AltitudeMeters>
            <DistanceMeters>12355.428392099</DistanceMeters>
          </Trackpoint>
          <Trackpoint>
            <Time>2018-09-13T07:52:15.000Z</Time>
            <Position>
              <LatitudeDegrees>39.7380338050425052642822265625</LatitudeDegrees>
              <LongitudeDegrees>-8.13512728549540042877197265625</LongitudeDegrees>
            </Position>
            <AltitudeMeters>230.600006103515625</AltitudeMeters>
            <DistanceMeters>12378.588802306</DistanceMeters>
          </Trackpoint>
          <Trackpoint>
            <Time>2018-09-13T07:52:22.000Z</Time>
            <Position>
              <LatitudeDegrees>39.7378051467239856719970703125</LatitudeDegrees>
              <LongitudeDegrees>-8.13519962131977081298828125</LongitudeDegrees>
            </Position>
            <AltitudeMeters>231</AltitudeMeters>
            <DistanceMeters>12404.78120574</DistanceMeters>
          </Trackpoint>
          <Trackpoint>
            <Time>2018-09-13T07:52:26.000Z</Time>
            <Position>
              <LatitudeDegrees>39.73768050782382488250732421875</LatitudeDegrees>
              <LongitudeDegrees>-8.13527530990540981292724609375</LongitudeDegrees>
            </Position>
            <AltitudeMeters>232.399993896484375</AltitudeMeters>
            <DistanceMeters>12420.091716979</DistanceMeters>
          </Trackpoint>
          <Trackpoint>
            <Time>2018-09-13T07:52:28.000Z</Time>
            <Position>
              <LatitudeDegrees>39.737621247768402099609375</LatitudeDegrees>
              <LongitudeDegrees>-8.13532141037285327911376953125</LongitudeDegrees>
            </Position>
            <AltitudeMeters>233.399993896484375</AltitudeMeters>
            <DistanceMeters>12427.777140196</DistanceMeters>
          </Trackpoint>
          <Trackpoint>
            <Time>2018-09-13T07:52:34.000Z</Time>
            <Position>
              <LatitudeDegrees>39.73745587281882762908935546875</LatitudeDegrees>
              <LongitudeDegrees>-8.1354827620089054107666015625</LongitudeDegrees>
            </Position>
            <AltitudeMeters>236.399993896484375</AltitudeMeters>
            <DistanceMeters>12450.788521786</DistanceMeters>
          </Trackpoint>
          <Trackpoint>
            <Time>2018-09-13T07:52:40.000Z</Time>
            <Position>
              <LatitudeDegrees>39.7372961975634098052978515625</LatitudeDegrees>
              <LongitudeDegrees>-8.13564411364495754241943359375</LongitudeDegrees>
            </Position>
            <AltitudeMeters>239.600006103515625</AltitudeMeters>
            <DistanceMeters>12473.295614631</DistanceMeters>
          </Trackpoint>
          <Trackpoint>
            <Time>2018-09-13T07:52:48.000Z</Time>
            <Position>
              <LatitudeDegrees>39.73704817704856395721435546875</LatitudeDegrees>
              <LongitudeDegrees>-8.1357928924262523651123046875</LongitudeDegrees>
            </Position>
            <AltitudeMeters>243</AltitudeMeters>
            <DistanceMeters>12503.696292812</DistanceMeters>
          </Trackpoint>
          <Trackpoint>
            <Time>2018-09-13T07:52:55.000Z</Time>
            <Position>
              <LatitudeDegrees>39.7368053533136844635009765625</LatitudeDegrees>
              <LongitudeDegrees>-8.135862462222576141357421875</LongitudeDegrees>
            </Position>
            <AltitudeMeters>248.399993896484375</AltitudeMeters>
            <DistanceMeters>12531.371426485</DistanceMeters>
          </Trackpoint>
          <Trackpoint>
            <Time>2018-09-13T07:53:03.000Z</Time>
            <Position>
              <LatitudeDegrees>39.7365186922252178192138671875</LatitudeDegrees>
              <LongitudeDegrees>-8.135826252400875091552734375</LongitudeDegrees>
            </Position>
            <AltitudeMeters>253.600006103515625</AltitudeMeters>
            <DistanceMeters>12563.427558645</DistanceMeters>
          </Trackpoint>
          <Trackpoint>
            <Time>2018-09-13T07:53:08.000Z</Time>
            <Position>
              <LatitudeDegrees>39.7363473661243915557861328125</LatitudeDegrees>
              <LongitudeDegrees>-8.1357493065297603607177734375</LongitudeDegrees>
            </Position>
            <AltitudeMeters>255.1999969482421875</AltitudeMeters>
            <DistanceMeters>12583.601665203</DistanceMeters>
          </Trackpoint>
          <Trackpoint>
            <Time>2018-09-13T07:53:15.000Z</Time>
            <Position>
              <LatitudeDegrees>39.7361166961491107940673828125</LatitudeDegrees>
              <LongitudeDegrees>-8.1356160342693328857421875</LongitudeDegrees>
            </Position>
            <AltitudeMeters>252.399993896484375</AltitudeMeters>
            <DistanceMeters>12611.695843633</DistanceMeters>
          </Trackpoint>
          <Trackpoint>
            <Time>2018-09-13T07:53:23.000Z</Time>
            <Position>
              <LatitudeDegrees>39.7358416020870208740234375</LatitudeDegrees>
              <LongitudeDegrees>-8.135459125041961669921875</LongitudeDegrees>
            </Position>
            <AltitudeMeters>247.1999969482421875</AltitudeMeters>
            <DistanceMeters>12645.130125787</DistanceMeters>
          </Trackpoint>
          <Trackpoint>
            <Time>2018-09-13T07:53:32.000Z</Time>
            <Position>
              <LatitudeDegrees>39.7355175577104091644287109375</LatitudeDegrees>
              <LongitudeDegrees>-8.13543071039021015167236328125</LongitudeDegrees>
            </Position>
            <AltitudeMeters>248.399993896484375</AltitudeMeters>
            <DistanceMeters>12681.27876756</DistanceMeters>
          </Trackpoint>
          <Trackpoint>
            <Time>2018-09-13T07:53:38.000Z</Time>
            <Position>
              <LatitudeDegrees>39.7353073395788669586181640625</LatitudeDegrees>
              <LongitudeDegrees>-8.13546717166900634765625</LongitudeDegrees>
            </Position>
            <AltitudeMeters>249.8000030517578125</AltitudeMeters>
            <DistanceMeters>12704.883870123</DistanceMeters>
          </Trackpoint>
          <Trackpoint>
            <Time>2018-09-13T07:53:43.000Z</Time>
            <Position>
              <LatitudeDegrees>39.73513257689774036407470703125</LatitudeDegrees>
              <LongitudeDegrees>-8.135502040386199951171875</LongitudeDegrees>
            </Position>
            <AltitudeMeters>250.8000030517578125</AltitudeMeters>
            <DistanceMeters>12724.562661455</DistanceMeters>
          </Trackpoint>
          <Trackpoint>
            <Time>2018-09-13T07:53:49.000Z</Time>
            <Position>
              <LatitudeDegrees>39.734921269118785858154296875</LatitudeDegrees>
              <LongitudeDegrees>-8.13554621301591396331787109375</LongitudeDegrees>
            </Position>
            <AltitudeMeters>252</AltitudeMeters>
            <DistanceMeters>12748.383491491</DistanceMeters>
          </Trackpoint>
          <Trackpoint>
            <Time>2018-09-13T07:53:56.000Z</Time>
            <Position>
              <LatitudeDegrees>39.73467408679425716400146484375</LatitudeDegrees>
              <LongitudeDegrees>-8.135595582425594329833984375</LongitudeDegrees>
            </Position>
            <AltitudeMeters>254.399993896484375</AltitudeMeters>
            <DistanceMeters>12776.218209539</DistanceMeters>
          </Trackpoint>
          <Trackpoint>
            <Time>2018-09-13T07:54:02.000Z</Time>
            <Position>
              <LatitudeDegrees>39.7344602644443511962890625</LatitudeDegrees>
              <LongitudeDegrees>-8.13563019968569278717041015625</LongitudeDegrees>
            </Position>
            <AltitudeMeters>256</AltitudeMeters>
            <DistanceMeters>12800.200738367</DistanceMeters>
          </Trackpoint>
          <Trackpoint>
            <Time>2018-09-13T07:54:12.000Z</Time>
            <Position>
              <LatitudeDegrees>39.734112918376922607421875</LatitudeDegrees>
              <LongitudeDegrees>-8.135696165263652801513671875</LongitudeDegrees>
            </Position>
            <AltitudeMeters>258.399993896484375</AltitudeMeters>
            <DistanceMeters>12839.271396958</DistanceMeters>
          </Trackpoint>
          <Trackpoint>
            <Time>2018-09-13T07:54:18.000Z</Time>
            <Position>
              <LatitudeDegrees>39.7339089028537273406982421875</LatitudeDegrees>
              <LongitudeDegrees>-8.13573799096047878265380859375</LongitudeDegrees>
            </Position>
            <AltitudeMeters>259.79998779296875</AltitudeMeters>
            <DistanceMeters>12862.25922142</DistanceMeters>
          </Trackpoint>
          <Trackpoint>
            <Time>2018-09-13T07:54:24.000Z</Time>
            <Position>
              <LatitudeDegrees>39.733702875673770904541015625</LatitudeDegrees>
              <LongitudeDegrees>-8.13577772118151187896728515625</LongitudeDegrees>
            </Position>
            <AltitudeMeters>261.600006103515625</AltitudeMeters>
            <DistanceMeters>12885.44106581</DistanceMeters>
          </Trackpoint>
          <Trackpoint>
            <Time>2018-09-13T07:54:31.000Z</Time>
            <Position>
              <LatitudeDegrees>39.73346306942403316497802734375</LatitudeDegrees>
              <LongitudeDegrees>-8.13582818023860454559326171875</LongitudeDegrees>
            </Position>
            <AltitudeMeters>263</AltitudeMeters>
            <DistanceMeters>12912.47929724</DistanceMeters>
          </Trackpoint>
          <Trackpoint>
            <Time>2018-09-13T07:54:38.000Z</Time>
            <Position>
              <LatitudeDegrees>39.73322452045977115631103515625</LatitudeDegrees>
              <LongitudeDegrees>-8.13587361015379428863525390625</LongitudeDegrees>
            </Position>
            <AltitudeMeters>264.20001220703125</AltitudeMeters>
            <DistanceMeters>12939.313367481</DistanceMeters>
          </Trackpoint>
          <Trackpoint>
            <Time>2018-09-13T07:54:45.000Z</Time>
            <Position>
              <LatitudeDegrees>39.73298865370452404022216796875</LatitudeDegrees>
              <LongitudeDegrees>-8.13591233454644680023193359375</LongitudeDegrees>
            </Position>
            <AltitudeMeters>265.399993896484375</AltitudeMeters>
            <DistanceMeters>12965.77416995</DistanceMeters>
          </Trackpoint>
          <Trackpoint>
            <Time>2018-09-13T07:54:52.000Z</Time>
            <Position>
              <LatitudeDegrees>39.73275111056864261627197265625</LatitudeDegrees>
              <LongitudeDegrees>-8.1359038688242435455322265625</LongitudeDegrees>
            </Position>
            <AltitudeMeters>268</AltitudeMeters>
            <DistanceMeters>12992.223025539</DistanceMeters>
          </Trackpoint>
          <Trackpoint>
            <Time>2018-09-13T07:54:58.000Z</Time>
            <Position>
              <LatitudeDegrees>39.73254382610321044921875</LatitudeDegrees>
              <LongitudeDegrees>-8.135850392282009124755859375</LongitudeDegrees>
            </Position>
            <AltitudeMeters>271.20001220703125</AltitudeMeters>
            <DistanceMeters>13015.743625091</DistanceMeters>
          </Trackpoint>
          <Trackpoint>
            <Time>2018-09-13T07:55:07.000Z</Time>
            <Position>
              <LatitudeDegrees>39.7322335280478000640869140625</LatitudeDegrees>
              <LongitudeDegrees>-8.1356909684836864471435546875</LongitudeDegrees>
            </Position>
            <AltitudeMeters>275.399993896484375</AltitudeMeters>
            <DistanceMeters>13052.878528267</DistanceMeters>
          </Trackpoint>
          <Trackpoint>
            <Time>2018-09-13T07:55:12.000Z</Time>
            <Position>
              <LatitudeDegrees>39.7320648841559886932373046875</LatitudeDegrees>
              <LongitudeDegrees>-8.13555903732776641845703125</LongitudeDegrees>
            </Position>
            <AltitudeMeters>275.20001220703125</AltitudeMeters>
            <DistanceMeters>13074.784195621</DistanceMeters>
          </Trackpoint>
          <Trackpoint>
            <Time>2018-09-13T07:55:20.000Z</Time>
            <Position>
              <LatitudeDegrees>39.73180026747286319732666015625</LatitudeDegrees>
              <LongitudeDegrees>-8.135351836681365966796875</LongitudeDegrees>
            </Position>
            <AltitudeMeters>272</AltitudeMeters>
            <DistanceMeters>13109.164172731</DistanceMeters>
          </Trackpoint>
          <Trackpoint>
            <Time>2018-09-13T07:55:26.000Z</Time>
            <Position>
              <LatitudeDegrees>39.7316089086234569549560546875</LatitudeDegrees>
              <LongitudeDegrees>-8.1352091766893863677978515625</LongitudeDegrees>
            </Position>
            <AltitudeMeters>271</AltitudeMeters>
            <DistanceMeters>13133.714927148</DistanceMeters>
          </Trackpoint>
          <Trackpoint>
            <Time>2018-09-13T07:55:32.000Z</Time>
            <Position>
              <LatitudeDegrees>39.7314023785293102264404296875</LatitudeDegrees>
              <LongitudeDegrees>-8.135095350444316864013671875</LongitudeDegrees>
            </Position>
            <AltitudeMeters>270.399993896484375</AltitudeMeters>
            <DistanceMeters>13158.681828777</DistanceMeters>
          </Trackpoint>
          <Trackpoint>
            <Time>2018-09-13T07:55:38.000Z</Time>
            <Position>
              <LatitudeDegrees>39.7311717085540294647216796875</LatitudeDegrees>
              <LongitudeDegrees>-8.13504061661660671234130859375</LongitudeDegrees>
            </Position>
            <AltitudeMeters>271</AltitudeMeters>
            <DistanceMeters>13184.77994319</DistanceMeters>
          </Trackpoint>
          <Trackpoint>
            <Time>2018-09-13T07:55:43.000Z</Time>
            <Position>
              <LatitudeDegrees>39.7309733927249908447265625</LatitudeDegrees>
              <LongitudeDegrees>-8.1350572966039180755615234375</LongitudeDegrees>
            </Position>
            <AltitudeMeters>272.399993896484375</AltitudeMeters>
            <DistanceMeters>13206.899337438</DistanceMeters>
          </Trackpoint>
          <Trackpoint>
            <Time>2018-09-13T07:55:49.000Z</Time>
            <Position>
              <LatitudeDegrees>39.7307318262755870819091796875</LatitudeDegrees>
              <LongitudeDegrees>-8.13511370681226253509521484375</LongitudeDegrees>
            </Position>
            <AltitudeMeters>274.399993896484375</AltitudeMeters>
            <DistanceMeters>13234.216171022</DistanceMeters>
          </Trackpoint>
          <Trackpoint>
            <Time>2018-09-13T07:55:57.000Z</Time>
            <Position>
              <LatitudeDegrees>39.730409793555736541748046875</LatitudeDegrees>
              <LongitudeDegrees>-8.1351867131888866424560546875</LongitudeDegrees>
            </Position>
            <AltitudeMeters>277.20001220703125</AltitudeMeters>
            <DistanceMeters>13270.59986361</DistanceMeters>
          </Trackpoint>
          <Trackpoint>
            <Time>2018-09-13T07:56:01.000Z</Time>
            <Position>
              <LatitudeDegrees>39.7302545607089996337890625</LatitudeDegrees>
              <LongitudeDegrees>-8.1352259404957294464111328125</LongitudeDegrees>
            </Position>
            <AltitudeMeters>277</AltitudeMeters>
            <DistanceMeters>13288.200853144</DistanceMeters>
          </Trackpoint>
          <Trackpoint>
            <Time>2018-09-13T07:56:07.000Z</Time>
            <Position>
              <LatitudeDegrees>39.7300253994762897491455078125</LatitudeDegrees>
              <LongitudeDegrees>-8.1352886371314525604248046875</LongitudeDegrees>
            </Position>
            <AltitudeMeters>277.79998779296875</AltitudeMeters>
            <DistanceMeters>13314.265556695</DistanceMeters>
          </Trackpoint>
          <Trackpoint>
            <Time>2018-09-13T07:56:13.000Z</Time>
            <Position>
              <LatitudeDegrees>39.72979648970067501068115234375</LatitudeDegrees>
              <LongitudeDegrees>-8.13534923829138278961181640625</LongitudeDegrees>
            </Position>
            <AltitudeMeters>278.600006103515625</AltitudeMeters>
            <DistanceMeters>13340.266435585</DistanceMeters>
          </Trackpoint>
          <Trackpoint>
            <Time>2018-09-13T07:56:20.000Z</Time>
            <Position>
              <LatitudeDegrees>39.72953078337013721466064453125</LatitudeDegrees>
              <LongitudeDegrees>-8.13542098738253116607666015625</LongitudeDegrees>
            </Position>
            <AltitudeMeters>279.600006103515625</AltitudeMeters>
            <DistanceMeters>13370.47088266</DistanceMeters>
          </Trackpoint>
          <Trackpoint>
            <Time>2018-09-13T07:56:27.000Z</Time>
            <Position>
              <LatitudeDegrees>39.729262478649616241455078125</LatitudeDegrees>
              <LongitudeDegrees>-8.13549659214913845062255859375</LongitudeDegrees>
            </Position>
            <AltitudeMeters>283</AltitudeMeters>
            <DistanceMeters>13401.026958717</DistanceMeters>
          </Trackpoint>
          <Trackpoint>
            <Time>2018-09-13T07:56:34.000Z</Time>
            <Position>
              <LatitudeDegrees>39.72900423221290111541748046875</LatitudeDegrees>
              <LongitudeDegrees>-8.13560287468135356903076171875</LongitudeDegrees>
            </Position>
            <AltitudeMeters>286.20001220703125</AltitudeMeters>
            <DistanceMeters>13431.175746996</DistanceMeters>
          </Trackpoint>
          <Trackpoint>
            <Time>2018-09-13T07:56:39.000Z</Time>
            <Position>
              <LatitudeDegrees>39.72883039154112339019775390625</LatitudeDegrees>
              <LongitudeDegrees>-8.1357181258499622344970703125</LongitudeDegrees>
            </Position>
            <AltitudeMeters>287.79998779296875</AltitudeMeters>
            <DistanceMeters>13452.894497034</DistanceMeters>
          </Trackpoint>
          <Trackpoint>
            <Time>2018-09-13T07:56:45.000Z</Time>
            <Position>
              <LatitudeDegrees>39.72863651812076568603515625</LatitudeDegrees>
              <LongitudeDegrees>-8.1359008513391017913818359375</LongitudeDegrees>
            </Position>
            <AltitudeMeters>290</AltitudeMeters>
            <DistanceMeters>13479.545721263</DistanceMeters>
          </Trackpoint>
          <Trackpoint>
            <Time>2018-09-13T07:56:51.000Z</Time>
            <Position>
              <LatitudeDegrees>39.7284683771431446075439453125</LatitudeDegrees>
              <LongitudeDegrees>-8.136117272078990936279296875</LongitudeDegrees>
            </Position>
            <AltitudeMeters>294</AltitudeMeters>
            <DistanceMeters>13505.878925214</DistanceMeters>
          </Trackpoint>
          <Trackpoint>
            <Time>2018-09-13T07:56:58.000Z</Time>
            <Position>
              <LatitudeDegrees>39.7283040918409824371337890625</LatitudeDegrees>
              <LongitudeDegrees>-8.1364121474325656890869140625</LongitudeDegrees>
            </Position>
            <AltitudeMeters>298.20001220703125</AltitudeMeters>
            <DistanceMeters>13537.047687527</DistanceMeters>
          </Trackpoint>
          <Trackpoint>
            <Time>2018-09-13T07:57:03.000Z</Time>
            <Position>
              <LatitudeDegrees>39.72820174880325794219970703125</LatitudeDegrees>
              <LongitudeDegrees>-8.136621527373790740966796875</LongitudeDegrees>
            </Position>
            <AltitudeMeters>300</AltitudeMeters>
            <DistanceMeters>13558.284191661</DistanceMeters>
          </Trackpoint>
          <Trackpoint>
            <Time>2018-09-13T07:57:09.000Z</Time>
            <Position>
              <LatitudeDegrees>39.72808809019625186920166015625</LatitudeDegrees>
              <LongitudeDegrees>-8.1368644349277019500732421875</LongitudeDegrees>
            </Position>
            <AltitudeMeters>302.20001220703125</AltitudeMeters>
            <DistanceMeters>13582.623276995</DistanceMeters>
          </Trackpoint>
          <Trackpoint>
            <Time>2018-09-13T07:57:17.000Z</Time>
            <Position>
              <LatitudeDegrees>39.72793755121529102325439453125</LatitudeDegrees>
              <LongitudeDegrees>-8.13718420453369617462158203125</LongitudeDegrees>
            </Position>
            <AltitudeMeters>305.600006103515625</AltitudeMeters>
            <DistanceMeters>13614.716993506</DistanceMeters>
          </Trackpoint>
          <Trackpoint>
            <Time>2018-09-13T07:57:24.000Z</Time>
            <Position>
              <LatitudeDegrees>39.7278065420687198638916015625</LatitudeDegrees>
              <LongitudeDegrees>-8.13746281899511814117431640625</LongitudeDegrees>
            </Position>
            <AltitudeMeters>306.600006103515625</AltitudeMeters>
            <DistanceMeters>13642.670842348</DistanceMeters>
          </Trackpoint>
          <Trackpoint>
            <Time>2018-09-13T07:57:29.000Z</Time>
            <Position>
              <LatitudeDegrees>39.7277123294770717620849609375</LatitudeDegrees>
              <LongitudeDegrees>-8.13766054809093475341796875</LongitudeDegrees>
            </Position>
            <AltitudeMeters>305.79998779296875</AltitudeMeters>
            <DistanceMeters>13662.58160366</DistanceMeters>
          </Trackpoint>
          <Trackpoint>
            <Time>2018-09-13T07:57:34.000Z</Time>
            <Position>
              <LatitudeDegrees>39.7276167757809162139892578125</LatitudeDegrees>
              <LongitudeDegrees>-8.13784956000745296478271484375</LongitudeDegrees>
            </Position>
            <AltitudeMeters>304.20001220703125</AltitudeMeters>
            <DistanceMeters>13681.943748522</DistanceMeters>
          </Trackpoint>
          <Trackpoint>
            <Time>2018-09-13T07:57:40.000Z</Time>
            <Position>
              <LatitudeDegrees>39.72747939638793468475341796875</LatitudeDegrees>
              <LongitudeDegrees>-8.1380637176334857940673828125</LongitudeDegrees>
            </Position>
            <AltitudeMeters>302</AltitudeMeters>
            <DistanceMeters>13705.815699934</DistanceMeters>
          </Trackpoint>
          <Trackpoint>
            <Time>2018-09-13T07:57:45.000Z</Time>
            <Position>
              <LatitudeDegrees>39.72733707167208194732666015625</LatitudeDegrees>
              <LongitudeDegrees>-8.13822154887020587921142578125</LongitudeDegrees>
            </Position>
            <AltitudeMeters>300.79998779296875</AltitudeMeters>
            <DistanceMeters>13726.635443676</DistanceMeters>
          </Trackpoint>
          <Trackpoint>
            <Time>2018-09-13T07:57:51.000Z</Time>
            <Position>
              <LatitudeDegrees>39.7271431982517242431640625</LatitudeDegrees>
              <LongitudeDegrees>-8.138364292681217193603515625</LongitudeDegrees>
            </Position>
            <AltitudeMeters>300.20001220703125</AltitudeMeters>
            <DistanceMeters>13751.433228772</DistanceMeters>
          </Trackpoint>
          <Trackpoint>
            <Time>2018-09-13T07:57:59.000Z</Time>
            <Position>
              <LatitudeDegrees>39.7268546931445598602294921875</LatitudeDegrees>
              <LongitudeDegrees>-8.13847216777503490447998046875</LongitudeDegrees>
            </Position>
            <AltitudeMeters>300</AltitudeMeters>
            <DistanceMeters>13784.845897192</DistanceMeters>
          </Trackpoint>
          <Trackpoint>
            <Time>2018-09-13T07:58:08.000Z</Time>
            <Position>
              <LatitudeDegrees>39.7264848835766315460205078125</LatitudeDegrees>
              <LongitudeDegrees>-8.13847937621176242828369140625</LongitudeDegrees>
            </Position>
            <AltitudeMeters>300.79998779296875</AltitudeMeters>
            <DistanceMeters>13826.011114492</DistanceMeters>
          </Trackpoint>
          <Trackpoint>
            <Time>2018-09-13T07:58:20.000Z</Time>
            <Position>
              <LatitudeDegrees>39.72597484476864337921142578125</LatitudeDegrees>
              <LongitudeDegrees>-8.1384070403873920440673828125</LongitudeDegrees>
            </Position>
            <AltitudeMeters>302.600006103515625</AltitudeMeters>
            <DistanceMeters>13883.116082103</DistanceMeters>
          </Trackpoint>
          <Trackpoint>
            <Time>2018-09-13T07:58:28.000Z</Time>
            <Position>
              <LatitudeDegrees>39.72564158029854297637939453125</LatitudeDegrees>
              <LongitudeDegrees>-8.13835348002612590789794921875</LongitudeDegrees>
            </Position>
            <AltitudeMeters>303.399993896484375</AltitudeMeters>
            <DistanceMeters>13920.491431005</DistanceMeters>
          </Trackpoint>
          <Trackpoint>
            <Time>2018-09-13T07:58:34.000Z</Time>
            <Position>
              <LatitudeDegrees>39.72539104521274566650390625</LatitudeDegrees>
              <LongitudeDegrees>-8.13831500709056854248046875</LongitudeDegrees>
            </Position>
            <AltitudeMeters>304.600006103515625</AltitudeMeters>
            <DistanceMeters>13948.570176959</DistanceMeters>
          </Trackpoint>
          <Trackpoint>
            <Time>2018-09-13T07:58:40.000Z</Time>
            <Position>
              <LatitudeDegrees>39.7251447848975658416748046875</LatitudeDegrees>
              <LongitudeDegrees>-8.13827971927821636199951171875</LongitudeDegrees>
            </Position>
            <AltitudeMeters>304.79998779296875</AltitudeMeters>
            <DistanceMeters>13976.145285608</DistanceMeters>
          </Trackpoint>
          <Trackpoint>
            <Time>2018-09-13T07:58:47.000Z</Time>
            <Position>
              <LatitudeDegrees>39.7248567827045917510986328125</LatitudeDegrees>
              <LongitudeDegrees>-8.1382404081523418426513671875</LongitudeDegrees>
            </Position>
            <AltitudeMeters>304.600006103515625</AltitudeMeters>
            <DistanceMeters>14008.376716611</DistanceMeters>
          </Trackpoint>
          <Trackpoint>
            <Time>2018-09-13T07:58:53.000Z</Time>
            <Position>
              <LatitudeDegrees>39.72460892982780933380126953125</LatitudeDegrees>
              <LongitudeDegrees>-8.13820428214967250823974609375</LongitudeDegrees>
            </Position>
            <AltitudeMeters>304.20001220703125</AltitudeMeters>
            <DistanceMeters>14036.136067709</DistanceMeters>
          </Trackpoint>
          <Trackpoint>
            <Time>2018-09-13T07:59:00.000Z</Time>
            <Position>
              <LatitudeDegrees>39.72431304864585399627685546875</LatitudeDegrees>
              <LongitudeDegrees>-8.13817544840276241302490234375</LongitudeDegrees>
            </Position>
            <AltitudeMeters>306.600006103515625</AltitudeMeters>
            <DistanceMeters>14069.160824676</DistanceMeters>
          </Trackpoint>
          <Trackpoint>
            <Time>2018-09-13T07:59:06.000Z</Time>
            <Position>
              <LatitudeDegrees>39.72406913526356220245361328125</LatitudeDegrees>
              <LongitudeDegrees>-8.13819657079875469207763671875</LongitudeDegrees>
            </Position>
            <AltitudeMeters>309</AltitudeMeters>
            <DistanceMeters>14096.369015848</DistanceMeters>
          </Trackpoint>
          <Trackpoint>
            <Time>2018-09-13T07:59:11.000Z</Time>
            <Position>
              <LatitudeDegrees>39.72386931069195270538330078125</LatitudeDegrees>
              <LongitudeDegrees>-8.13824635930359363555908203125</LongitudeDegrees>
            </Position>
            <AltitudeMeters>310.399993896484375</AltitudeMeters>
            <DistanceMeters>14119.014701339</DistanceMeters>
          </Trackpoint>
          <Trackpoint>
            <Time>2018-09-13T07:59:13.000Z</Time>
            <Position>
              <LatitudeDegrees>39.72379119135439395904541015625</LatitudeDegrees>
              <LongitudeDegrees>-8.13827075064182281494140625</LongitudeDegrees>
            </Position>
            <AltitudeMeters>310.79998779296875</AltitudeMeters>
            <DistanceMeters>14127.956811096</DistanceMeters>
          </Trackpoint>
          <Trackpoint>
            <Time>2018-09-13T07:59:20.000Z</Time>
            <Position>
              <LatitudeDegrees>39.72351760603487491607666015625</LatitudeDegrees>
              <LongitudeDegrees>-8.138362281024456024169921875</LongitudeDegrees>
            </Position>
            <AltitudeMeters>312.20001220703125</AltitudeMeters>
            <DistanceMeters>14159.399311462</DistanceMeters>
          </Trackpoint>
          <Trackpoint>
            <Time>2018-09-13T07:59:27.000Z</Time>
            <Position>
              <LatitudeDegrees>39.7232461161911487579345703125</LatitudeDegrees>
              <LongitudeDegrees>-8.13845087774097919464111328125</LongitudeDegrees>
            </Position>
            <AltitudeMeters>313.79998779296875</AltitudeMeters>
            <DistanceMeters>14190.553874477</DistanceMeters>
          </Trackpoint>
          <Trackpoint>
            <Time>2018-09-13T07:59:33.000Z</Time>
            <Position>
              <LatitudeDegrees>39.72301603294909000396728515625</LatitudeDegrees>
              <LongitudeDegrees>-8.13853570260107517242431640625</LongitudeDegrees>
            </Position>
            <AltitudeMeters>314.79998779296875</AltitudeMeters>
            <DistanceMeters>14217.172212481</DistanceMeters>
          </Trackpoint>
          <Trackpoint>
            <Time>2018-09-13T07:59:40.000Z</Time>
            <Position>
              <LatitudeDegrees>39.722753427922725677490234375</LatitudeDegrees>
              <LongitudeDegrees>-8.13862337730824947357177734375</LongitudeDegrees>
            </Position>
            <AltitudeMeters>315.79998779296875</AltitudeMeters>
            <DistanceMeters>14247.34884299</DistanceMeters>
          </Trackpoint>
          <Trackpoint>
            <Time>2018-09-13T07:59:47.000Z</Time>
            <Position>
              <LatitudeDegrees>39.72251228056848049163818359375</LatitudeDegrees>
              <LongitudeDegrees>-8.1387037597596645355224609375</LongitudeDegrees>
            </Position>
            <AltitudeMeters>317</AltitudeMeters>
            <DistanceMeters>14275.057238098</DistanceMeters>
          </Trackpoint>
          <Trackpoint>
            <Time>2018-09-13T07:59:54.000Z</Time>
            <Position>
              <LatitudeDegrees>39.7222664393484592437744140625</LatitudeDegrees>
              <LongitudeDegrees>-8.1387842260301113128662109375</LongitudeDegrees>
            </Position>
            <AltitudeMeters>318.20001220703125</AltitudeMeters>
            <DistanceMeters>14303.27361242</DistanceMeters>
          </Trackpoint>
          <Trackpoint>
            <Time>2018-09-13T08:00:00.000Z</Time>
            <Position>
              <LatitudeDegrees>39.72205949015915393829345703125</LatitudeDegrees>
              <LongitudeDegrees>-8.13885681331157684326171875</LongitudeDegrees>
            </Position>
            <AltitudeMeters>319.20001220703125</AltitudeMeters>
            <DistanceMeters>14327.130806687</DistanceMeters>
          </Trackpoint>
          <Trackpoint>
            <Time>2018-09-13T08:00:06.000Z</Time>
            <Position>
              <LatitudeDegrees>39.7218565642833709716796875</LatitudeDegrees>
              <LongitudeDegrees>-8.13892831094563007354736328125</LongitudeDegrees>
            </Position>
            <AltitudeMeters>320</AltitudeMeters>
            <DistanceMeters>14350.531701877</DistanceMeters>
          </Trackpoint>
          <Trackpoint>
            <Time>2018-09-13T08:00:13.000Z</Time>
            <Position>
              <LatitudeDegrees>39.72161139361560344696044921875</LatitudeDegrees>
              <LongitudeDegrees>-8.1390172429382801055908203125</LongitudeDegrees>
            </Position>
            <AltitudeMeters>321</AltitudeMeters>
            <DistanceMeters>14378.861777668</DistanceMeters>
          </Trackpoint>
          <Trackpoint>
            <Time>2018-09-13T08:00:20.000Z</Time>
            <Position>
              <LatitudeDegrees>39.721365384757518768310546875</LatitudeDegrees>
              <LongitudeDegrees>-8.1391029059886932373046875</LongitudeDegrees>
            </Position>
            <AltitudeMeters>321.79998779296875</AltitudeMeters>
            <DistanceMeters>14407.207945523</DistanceMeters>
          </Trackpoint>
          <Trackpoint>
            <Time>2018-09-13T08:00:27.000Z</Time>
            <Position>
              <LatitudeDegrees>39.72111686132848262786865234375</LatitudeDegrees>
              <LongitudeDegrees>-8.13920256681740283966064453125</LongitudeDegrees>
            </Position>
            <AltitudeMeters>322</AltitudeMeters>
            <DistanceMeters>14436.155085512</DistanceMeters>
          </Trackpoint>
          <Trackpoint>
            <Time>2018-09-13T08:00:35.000Z</Time>
            <Position>
              <LatitudeDegrees>39.7208210639655590057373046875</LatitudeDegrees>
              <LongitudeDegrees>-8.13930868171155452728271484375</LongitudeDegrees>
            </Position>
            <AltitudeMeters>322.600006103515625</AltitudeMeters>
            <DistanceMeters>14470.308300068</DistanceMeters>
          </Trackpoint>
          <Trackpoint>
            <Time>2018-09-13T08:00:41.000Z</Time>
            <Position>
              <LatitudeDegrees>39.72060590051114559173583984375</LatitudeDegrees>
              <LongitudeDegrees>-8.1393780000507831573486328125</LongitudeDegrees>
            </Position>
            <AltitudeMeters>323</AltitudeMeters>
            <DistanceMeters>14494.980866072</DistanceMeters>
          </Trackpoint>
          <Trackpoint>
            <Time>2018-09-13T08:00:47.000Z</Time>
            <Position>
              <LatitudeDegrees>39.72040079534053802490234375</LatitudeDegrees>
              <LongitudeDegrees>-8.13945117406547069549560546875</LongitudeDegrees>
            </Position>
            <AltitudeMeters>323.399993896484375</AltitudeMeters>
            <DistanceMeters>14518.653201274</DistanceMeters>
          </Trackpoint>
          <Trackpoint>
            <Time>2018-09-13T08:00:53.000Z</Time>
            <Position>
              <LatitudeDegrees>39.72020826302468776702880859375</LatitudeDegrees>
              <LongitudeDegrees>-8.1395151279866695404052734375</LongitudeDegrees>
            </Position>
            <AltitudeMeters>324.79998779296875</AltitudeMeters>
            <DistanceMeters>14540.770554215</DistanceMeters>
          </Trackpoint>
          <Trackpoint>
            <Time>2018-09-13T08:00:58.000Z</Time>
            <Position>
              <LatitudeDegrees>39.72006141208112239837646484375</LatitudeDegrees>
              <LongitudeDegrees>-8.1395677663385868072509765625</LongitudeDegrees>
            </Position>
            <AltitudeMeters>325.79998779296875</AltitudeMeters>
            <DistanceMeters>14557.725301441</DistanceMeters>
          </Trackpoint>
          <Trackpoint>
            <Time>2018-09-13T08:01:03.000Z</Time>
            <Position>
              <LatitudeDegrees>39.719925038516521453857421875</LatitudeDegrees>
              <LongitudeDegrees>-8.1396177224814891815185546875</LongitudeDegrees>
            </Position>
            <AltitudeMeters>326</AltitudeMeters>
            <DistanceMeters>14573.495155761</DistanceMeters>
          </Trackpoint>
          <Trackpoint>
            <Time>2018-09-13T08:01:08.000Z</Time>
            <Position>
              <LatitudeDegrees>39.719789922237396240234375</LatitudeDegrees>
              <LongitudeDegrees>-8.13966021873056888580322265625</LongitudeDegrees>
            </Position>
            <AltitudeMeters>326.399993896484375</AltitudeMeters>
            <DistanceMeters>14588.967886182</DistanceMeters>
          </Trackpoint>
          <Trackpoint>
            <Time>2018-09-13T08:01:12.000Z</Time>
            <Position>
              <LatitudeDegrees>39.71968892030417919158935546875</LatitudeDegrees>
              <LongitudeDegrees>-8.13969139941036701202392578125</LongitudeDegrees>
            </Position>
            <AltitudeMeters>326.600006103515625</AltitudeMeters>
            <DistanceMeters>14600.522134325</DistanceMeters>
          </Trackpoint>
          <Trackpoint>
            <Time>2018-09-13T08:01:16.000Z</Time>
            <Position>
              <LatitudeDegrees>39.71959085203707218170166015625</LatitudeDegrees>
              <LongitudeDegrees>-8.13971587456762790679931640625</LongitudeDegrees>
            </Position>
            <AltitudeMeters>326.79998779296875</AltitudeMeters>
            <DistanceMeters>14611.636604432</DistanceMeters>
          </Trackpoint>
          <Trackpoint>
            <Time>2018-09-13T08:01:21.000Z</Time>
            <Position>
              <LatitudeDegrees>39.719457663595676422119140625</LatitudeDegrees>
              <LongitudeDegrees>-8.13973029144108295440673828125</LongitudeDegrees>
            </Position>
            <AltitudeMeters>328.20001220703125</AltitudeMeters>
            <DistanceMeters>14626.5118521</DistanceMeters>
          </Trackpoint>
          <Trackpoint>
            <Time>2018-09-13T08:01:26.000Z</Time>
            <Position>
              <LatitudeDegrees>39.7193260677158832550048828125</LatitudeDegrees>
              <LongitudeDegrees>-8.13973532058298587799072265625</LongitudeDegrees>
            </Position>
            <AltitudeMeters>330.20001220703125</AltitudeMeters>
            <DistanceMeters>14641.165082381</DistanceMeters>
          </Trackpoint>
          <Trackpoint>
            <Time>2018-09-13T08:01:31.000Z</Time>
            <Position>
              <LatitudeDegrees>39.71919924952089786529541015625</LatitudeDegrees>
              <LongitudeDegrees>-8.13973146490752696990966796875</LongitudeDegrees>
            </Position>
            <AltitudeMeters>332.20001220703125</AltitudeMeters>
            <DistanceMeters>14655.284146358</DistanceMeters>
          </Trackpoint>
          <Trackpoint>
            <Time>2018-09-13T08:01:36.000Z</Time>
            <Position>
              <LatitudeDegrees>39.71907352097332477569580078125</LatitudeDegrees>
              <LongitudeDegrees>-8.1397144496440887451171875</LongitudeDegrees>
            </Position>
            <AltitudeMeters>334.399993896484375</AltitudeMeters>
            <DistanceMeters>14669.353556642</DistanceMeters>
          </Trackpoint>
          <Trackpoint>
            <Time>2018-09-13T08:01:42.000Z</Time>
            <Position>
              <LatitudeDegrees>39.7189247421920299530029296875</LatitudeDegrees>
              <LongitudeDegrees>-8.1396787427365779876708984375</LongitudeDegrees>
            </Position>
            <AltitudeMeters>337.20001220703125</AltitudeMeters>
            <DistanceMeters>14686.192869588</DistanceMeters>
          </Trackpoint>
          <Trackpoint>
            <Time>2018-09-13T08:01:47.000Z</Time>
            <Position>
              <LatitudeDegrees>39.718803204596042633056640625</LatitudeDegrees>
              <LongitudeDegrees>-8.13965870998799800872802734375</LongitudeDegrees>
            </Position>
            <AltitudeMeters>339.600006103515625</AltitudeMeters>
            <DistanceMeters>14699.828458096</DistanceMeters>
          </Trackpoint>
          <Trackpoint>
            <Time>2018-09-13T08:01:53.000Z</Time>
            <Position>
              <LatitudeDegrees>39.71865392290055751800537109375</LatitudeDegrees>
              <LongitudeDegrees>-8.13963155262172222137451171875</LongitudeDegrees>
            </Position>
            <AltitudeMeters>342.600006103515625</AltitudeMeters>
            <DistanceMeters>14716.605719876</DistanceMeters>
          </Trackpoint>
          <Trackpoint>
            <Time>2018-09-13T08:01:58.000Z</Time>
            <Position>
              <LatitudeDegrees>39.71853305585682392120361328125</LatitudeDegrees>
              <LongitudeDegrees>-8.13960489816963672637939453125</LongitudeDegrees>
            </Position>
            <AltitudeMeters>345</AltitudeMeters>
            <DistanceMeters>14730.250576641</DistanceMeters>
          </Trackpoint>
          <Trackpoint>
            <Time>2018-09-13T08:02:04.000Z</Time>
            <Position>
              <LatitudeDegrees>39.71838989295065402984619140625</LatitudeDegrees>
              <LongitudeDegrees>-8.13957606442272663116455078125</LongitudeDegrees>
            </Position>
            <AltitudeMeters>347.79998779296875</AltitudeMeters>
            <DistanceMeters>14746.374904874</DistanceMeters>
          </Trackpoint>
          <Trackpoint>
            <Time>2018-09-13T08:02:10.000Z</Time>
            <Position>
              <LatitudeDegrees>39.7182481549680233001708984375</LatitudeDegrees>
              <LongitudeDegrees>-8.13954412937164306640625</LongitudeDegrees>
            </Position>
            <AltitudeMeters>348.79998779296875</AltitudeMeters>
            <DistanceMeters>14762.386271781</DistanceMeters>
          </Trackpoint>
          <Trackpoint>
            <Time>2018-09-13T08:02:16.000Z</Time>
            <Position>
              <LatitudeDegrees>39.7181014716625213623046875</LatitudeDegrees>
              <LongitudeDegrees>-8.13951102085411548614501953125</LongitudeDegrees>
            </Position>
            <AltitudeMeters>349.79998779296875</AltitudeMeters>
            <DistanceMeters>14778.956925495</DistanceMeters>
          </Trackpoint>
          <Trackpoint>
            <Time>2018-09-13T08:02:21.000Z</Time>
            <Position>
              <LatitudeDegrees>39.7179772518575191497802734375</LatitudeDegrees>
              <LongitudeDegrees>-8.139482773840427398681640625</LongitudeDegrees>
            </Position>
            <AltitudeMeters>350.600006103515625</AltitudeMeters>
            <DistanceMeters>14792.992921284</DistanceMeters>
          </Trackpoint>
          <Trackpoint>
            <Time>2018-09-13T08:02:26.000Z</Time>
            <Position>
              <LatitudeDegrees>39.7178547084331512451171875</LatitudeDegrees>
              <LongitudeDegrees>-8.13945519737899303436279296875</LongitudeDegrees>
            </Position>
            <AltitudeMeters>351.399993896484375</AltitudeMeters>
            <DistanceMeters>14806.834892314</DistanceMeters>
          </Trackpoint>
          <Trackpoint>
            <Time>2018-09-13T08:02:31.000Z</Time>
            <Position>
              <LatitudeDegrees>39.717728309333324432373046875</LatitudeDegrees>
              <LongitudeDegrees>-8.139435835182666778564453125</LongitudeDegrees>
            </Position>
            <AltitudeMeters>352</AltitudeMeters>
            <DistanceMeters>14821.000567686</DistanceMeters>
          </Trackpoint>
          <Trackpoint>
            <Time>2018-09-13T08:02:37.000Z</Time>
            <Position>
              <LatitudeDegrees>39.7175762616097927093505859375</LatitudeDegrees>
              <LongitudeDegrees>-8.13943122513592243194580078125</LongitudeDegrees>
            </Position>
            <AltitudeMeters>353.20001220703125</AltitudeMeters>
            <DistanceMeters>14837.928130585</DistanceMeters>
          </Trackpoint>
          <Trackpoint>
            <Time>2018-09-13T08:02:43.000Z</Time>
            <Position>
              <LatitudeDegrees>39.71742379479110240936279296875</LatitudeDegrees>
              <LongitudeDegrees>-8.1394453905522823333740234375</LongitudeDegrees>
            </Position>
            <AltitudeMeters>354.600006103515625</AltitudeMeters>
            <DistanceMeters>14854.941362798</DistanceMeters>
          </Trackpoint>
          <Trackpoint>
            <Time>2018-09-13T08:02:49.000Z</Time>
            <Position>
              <LatitudeDegrees>39.7172726690769195556640625</LatitudeDegrees>
              <LongitudeDegrees>-8.139477409422397613525390625</LongitudeDegrees>
            </Position>
            <AltitudeMeters>356</AltitudeMeters>
            <DistanceMeters>14871.983497308</DistanceMeters>
          </Trackpoint>
          <Trackpoint>
            <Time>2018-09-13T08:02:54.000Z</Time>
            <Position>
              <LatitudeDegrees>39.71715138293802738189697265625</LatitudeDegrees>
              <LongitudeDegrees>-8.13952057622373104095458984375</LongitudeDegrees>
            </Position>
            <AltitudeMeters>357.20001220703125</AltitudeMeters>
            <DistanceMeters>14885.979548477</DistanceMeters>
          </Trackpoint>
          <Trackpoint>
            <Time>2018-09-13T08:02:59.000Z</Time>
            <Position>
              <LatitudeDegrees>39.7170371375977993011474609375</LatitudeDegrees>
              <LongitudeDegrees>-8.13958561979234218597412109375</LongitudeDegrees>
            </Position>
            <AltitudeMeters>358.399993896484375</AltitudeMeters>
            <DistanceMeters>14899.861256992</DistanceMeters>
          </Trackpoint>
          <Trackpoint>
            <Time>2018-09-13T08:03:05.000Z</Time>
            <Position>
              <LatitudeDegrees>39.71690361388027667999267578125</LatitudeDegrees>
              <LongitudeDegrees>-8.13967932946979999542236328125</LongitudeDegrees>
            </Position>
            <AltitudeMeters>358.79998779296875</AltitudeMeters>
            <DistanceMeters>14916.750100192</DistanceMeters>
          </Trackpoint>
          <Trackpoint>
            <Time>2018-09-13T08:03:10.000Z</Time>
            <Position>
              <LatitudeDegrees>39.71680772490799427032470703125</LatitudeDegrees>
              <LongitudeDegrees>-8.13977085985243320465087890625</LongitudeDegrees>
            </Position>
            <AltitudeMeters>359.20001220703125</AltitudeMeters>
            <DistanceMeters>14929.99056484</DistanceMeters>
          </Trackpoint>
          <Trackpoint>
            <Time>2018-09-13T08:03:16.000Z</Time>
            <Position>
              <LatitudeDegrees>39.7166954912245273590087890625</LatitudeDegrees>
              <LongitudeDegrees>-8.1398990191519260406494140625</LongitudeDegrees>
            </Position>
            <AltitudeMeters>359.600006103515625</AltitudeMeters>
            <DistanceMeters>14946.616981477</DistanceMeters>
          </Trackpoint>
          <Trackpoint>
            <Time>2018-09-13T08:03:21.000Z</Time>
            <Position>
              <LatitudeDegrees>39.71660354174673557281494140625</LatitudeDegrees>
              <LongitudeDegrees>-8.14001611433923244476318359375</LongitudeDegrees>
            </Position>
            <AltitudeMeters>360</AltitudeMeters>
            <DistanceMeters>14960.94365721</DistanceMeters>
          </Trackpoint>
          <Trackpoint>
            <Time>2018-09-13T08:03:25.000Z</Time>
            <Position>
              <LatitudeDegrees>39.716532044112682342529296875</LatitudeDegrees>
              <LongitudeDegrees>-8.140109740197658538818359375</LongitudeDegrees>
            </Position>
            <AltitudeMeters>360.399993896484375</AltitudeMeters>
            <DistanceMeters>14972.238652562</DistanceMeters>
          </Trackpoint>
          <Trackpoint>
            <Time>2018-09-13T08:03:29.000Z</Time>
            <Position>
              <LatitudeDegrees>39.71646155230700969696044921875</LatitudeDegrees>
              <LongitudeDegrees>-8.14020118676126003265380859375</LongitudeDegrees>
            </Position>
            <AltitudeMeters>361.20001220703125</AltitudeMeters>
            <DistanceMeters>14983.322613497</DistanceMeters>
          </Trackpoint>
          <Trackpoint>
            <Time>2018-09-13T08:03:35.000Z</Time>
            <Position>
              <LatitudeDegrees>39.7163518331944942474365234375</LatitudeDegrees>
              <LongitudeDegrees>-8.14033445902168750762939453125</LongitudeDegrees>
            </Position>
            <AltitudeMeters>362</AltitudeMeters>
            <DistanceMeters>15000.035432666</DistanceMeters>
          </Trackpoint>
          <Trackpoint>
            <Time>2018-09-13T08:03:40.000Z</Time>
            <Position>
              <LatitudeDegrees>39.71624881960451602935791015625</LatitudeDegrees>
              <LongitudeDegrees>-8.14043034799396991729736328125</LongitudeDegrees>
            </Position>
            <AltitudeMeters>362.79998779296875</AltitudeMeters>
            <DistanceMeters>15014.137217782</DistanceMeters>
          </Trackpoint>
          <Trackpoint>
            <Time>2018-09-13T08:03:46.000Z</Time>
            <Position>
              <LatitudeDegrees>39.716106243431568145751953125</LatitudeDegrees>
              <LongitudeDegrees>-8.14053612761199474334716796875</LongitudeDegrees>
            </Position>
            <AltitudeMeters>364.600006103515625</AltitudeMeters>
            <DistanceMeters>15032.408559444</DistanceMeters>
          </Trackpoint>
          <Trackpoint>
            <Time>2018-09-13T08:03:52.000Z</Time>
            <Position>
              <LatitudeDegrees>39.7159464843571186065673828125</LatitudeDegrees>
              <LongitudeDegrees>-8.1406198628246784210205078125</LongitudeDegrees>
            </Position>
            <AltitudeMeters>367</AltitudeMeters>
            <DistanceMeters>15051.580890855</DistanceMeters>
          </Trackpoint>
          <Trackpoint>
            <Time>2018-09-13T08:03:57.000Z</Time>
            <Position>
              <LatitudeDegrees>39.7158043272793292999267578125</LatitudeDegrees>
              <LongitudeDegrees>-8.14066789112985134124755859375</LongitudeDegrees>
            </Position>
            <AltitudeMeters>369</AltitudeMeters>
            <DistanceMeters>15067.929352635</DistanceMeters>
          </Trackpoint>
          <Trackpoint>
            <Time>2018-09-13T08:03:59.000Z</Time>
            <Position>
              <LatitudeDegrees>39.71574707888066768646240234375</LatitudeDegrees>
              <LongitudeDegrees>-8.1406805478036403656005859375</LongitudeDegrees>
            </Position>
            <AltitudeMeters>369.79998779296875</AltitudeMeters>
            <DistanceMeters>15074.392566513</DistanceMeters>
          </Trackpoint>
          <Trackpoint>
            <Time>2018-09-13T08:04:06.000Z</Time>
            <Position>
              <LatitudeDegrees>39.71554758958518505096435546875</LatitudeDegrees>
              <LongitudeDegrees>-8.14070217311382293701171875</LongitudeDegrees>
            </Position>
            <AltitudeMeters>371.79998779296875</AltitudeMeters>
            <DistanceMeters>15096.673443573</DistanceMeters>
          </Trackpoint>
          <Trackpoint>
            <Time>2018-09-13T08:04:13.000Z</Time>
            <Position>
              <LatitudeDegrees>39.7153470106422901153564453125</LatitudeDegrees>
              <LongitudeDegrees>-8.14067794941365718841552734375</LongitudeDegrees>
            </Position>
            <AltitudeMeters>372.79998779296875</AltitudeMeters>
            <DistanceMeters>15119.094311656</DistanceMeters>
          </Trackpoint>
          <Trackpoint>
            <Time>2018-09-13T08:04:19.000Z</Time>
            <Position>
              <LatitudeDegrees>39.7151776961982250213623046875</LatitudeDegrees>
              <LongitudeDegrees>-8.14064760692417621612548828125</LongitudeDegrees>
            </Position>
            <AltitudeMeters>373.79998779296875</AltitudeMeters>
            <DistanceMeters>15138.117701037</DistanceMeters>
          </Trackpoint>
          <Trackpoint>
            <Time>2018-09-13T08:04:25.000Z</Time>
            <Position>
              <LatitudeDegrees>39.71500444225966930389404296875</LatitudeDegrees>
              <LongitudeDegrees>-8.1406201981008052825927734375</LongitudeDegrees>
            </Position>
            <AltitudeMeters>374.79998779296875</AltitudeMeters>
            <DistanceMeters>15157.543634595</DistanceMeters>
          </Trackpoint>
          <Trackpoint>
            <Time>2018-09-13T08:04:34.000Z</Time>
            <Position>
              <LatitudeDegrees>39.7147532366216182708740234375</LatitudeDegrees>
              <LongitudeDegrees>-8.1406269036233425140380859375</LongitudeDegrees>
            </Position>
            <AltitudeMeters>377.20001220703125</AltitudeMeters>
            <DistanceMeters>15185.509271735</DistanceMeters>
          </Trackpoint>
          <Trackpoint>
            <Time>2018-09-13T08:04:38.000Z</Time>
            <Position>
              <LatitudeDegrees>39.71464334987103939056396484375</LatitudeDegrees>
              <LongitudeDegrees>-8.1406540609896183013916015625</LongitudeDegrees>
            </Position>
            <AltitudeMeters>378.79998779296875</AltitudeMeters>
            <DistanceMeters>15197.958859362</DistanceMeters>
          </Trackpoint>
          <Trackpoint>
            <Time>2018-09-13T08:04:43.000Z</Time>
            <Position>
              <LatitudeDegrees>39.71451334655284881591796875</LatitudeDegrees>
              <LongitudeDegrees>-8.14069814980030059814453125</LongitudeDegrees>
            </Position>
            <AltitudeMeters>380.20001220703125</AltitudeMeters>
            <DistanceMeters>15212.912815797</DistanceMeters>
          </Trackpoint>
          <Trackpoint>
            <Time>2018-09-13T08:04:48.000Z</Time>
            <Position>
              <LatitudeDegrees>39.714387953281402587890625</LatitudeDegrees>
              <LongitudeDegrees>-8.1407693959772586822509765625</LongitudeDegrees>
            </Position>
            <AltitudeMeters>380.399993896484375</AltitudeMeters>
            <DistanceMeters>15228.144385776</DistanceMeters>
          </Trackpoint>
          <Trackpoint>
            <Time>2018-09-13T08:04:54.000Z</Time>
            <Position>
              <LatitudeDegrees>39.71425090916454792022705078125</LatitudeDegrees>
              <LongitudeDegrees>-8.14087651669979095458984375</LongitudeDegrees>
            </Position>
            <AltitudeMeters>381</AltitudeMeters>
            <DistanceMeters>15245.942562133</DistanceMeters>
          </Trackpoint>
          <Trackpoint>
            <Time>2018-09-13T08:04:59.000Z</Time>
            <Position>
              <LatitudeDegrees>39.714148901402950286865234375</LatitudeDegrees>
              <LongitudeDegrees>-8.140980117022991180419921875</LongitudeDegrees>
            </Position>
            <AltitudeMeters>381.399993896484375</AltitudeMeters>
            <DistanceMeters>15260.350316895</DistanceMeters>
          </Trackpoint>
          <Trackpoint>
            <Time>2018-09-13T08:05:04.000Z</Time>
            <Position>
              <LatitudeDegrees>39.71404773183166980743408203125</LatitudeDegrees>
              <LongitudeDegrees>-8.1410972960293292999267578125</LongitudeDegrees>
            </Position>
            <AltitudeMeters>381.79998779296875</AltitudeMeters>
            <DistanceMeters>15275.431448663</DistanceMeters>
          </Trackpoint>
          <Trackpoint>
            <Time>2018-09-13T08:05:08.000Z</Time>
            <Position>
              <LatitudeDegrees>39.7139666788280010223388671875</LatitudeDegrees>
              <LongitudeDegrees>-8.1411950290203094482421875</LongitudeDegrees>
            </Position>
            <AltitudeMeters>382.20001220703125</AltitudeMeters>
            <DistanceMeters>15287.735848757</DistanceMeters>
          </Trackpoint>
          <Trackpoint>
            <Time>2018-09-13T08:05:12.000Z</Time>
            <Position>
              <LatitudeDegrees>39.71387959085404872894287109375</LatitudeDegrees>
              <LongitudeDegrees>-8.14128831960260868072509765625</LongitudeDegrees>
            </Position>
            <AltitudeMeters>382.399993896484375</AltitudeMeters>
            <DistanceMeters>15300.295921825</DistanceMeters>
          </Trackpoint>
          <Trackpoint>
            <Time>2018-09-13T08:05:18.000Z</Time>
            <Position>
              <LatitudeDegrees>39.71375159919261932373046875</LatitudeDegrees>
              <LongitudeDegrees>-8.1414272077381610870361328125</LongitudeDegrees>
            </Position>
            <AltitudeMeters>382.79998779296875</AltitudeMeters>
            <DistanceMeters>15318.852427558</DistanceMeters>
          </Trackpoint>
          <Trackpoint>
            <Time>2018-09-13T08:05:24.000Z</Time>
            <Position>
              <LatitudeDegrees>39.713617824018001556396484375</LatitudeDegrees>
              <LongitudeDegrees>-8.14154715277254581451416015625</LongitudeDegrees>
            </Position>
            <AltitudeMeters>383.600006103515625</AltitudeMeters>
            <DistanceMeters>15336.939983213</DistanceMeters>
          </Trackpoint>
          <Trackpoint>
            <Time>2018-09-13T08:05:31.000Z</Time>
            <Position>
              <LatitudeDegrees>39.713459573686122894287109375</LatitudeDegrees>
              <LongitudeDegrees>-8.14167053438723087310791015625</LongitudeDegrees>
            </Position>
            <AltitudeMeters>385.20001220703125</AltitudeMeters>
            <DistanceMeters>15357.478507771</DistanceMeters>
          </Trackpoint>
          <Trackpoint>
            <Time>2018-09-13T08:05:39.000Z</Time>
            <Position>
              <LatitudeDegrees>39.7132639400660991668701171875</LatitudeDegrees>
              <LongitudeDegrees>-8.14176893793046474456787109375</LongitudeDegrees>
            </Position>
            <AltitudeMeters>386.600006103515625</AltitudeMeters>
            <DistanceMeters>15380.826089971</DistanceMeters>
          </Trackpoint>
          <Trackpoint>
            <Time>2018-09-13T08:05:45.000Z</Time>
            <Position>
              <LatitudeDegrees>39.71310426481068134307861328125</LatitudeDegrees>
              <LongitudeDegrees>-8.141812942922115325927734375</LongitudeDegrees>
            </Position>
            <AltitudeMeters>387.399993896484375</AltitudeMeters>
            <DistanceMeters>15398.993348819</DistanceMeters>
          </Trackpoint>
          <Trackpoint>
            <Time>2018-09-13T08:05:50.000Z</Time>
            <Position>
              <LatitudeDegrees>39.7129712440073490142822265625</LatitudeDegrees>
              <LongitudeDegrees>-8.14183004200458526611328125</LongitudeDegrees>
            </Position>
            <AltitudeMeters>388.20001220703125</AltitudeMeters>
            <DistanceMeters>15413.871024504</DistanceMeters>
          </Trackpoint>
          <Trackpoint>
            <Time>2018-09-13T08:05:58.000Z</Time>
            <Position>
              <LatitudeDegrees>39.712762199342250823974609375</LatitudeDegrees>
              <LongitudeDegrees>-8.14181931316852569580078125</LongitudeDegrees>
            </Position>
            <AltitudeMeters>388.399993896484375</AltitudeMeters>
            <DistanceMeters>15437.156253942</DistanceMeters>
          </Trackpoint>
          <Trackpoint>
            <Time>2018-09-13T08:06:06.000Z</Time>
            <Position>
              <LatitudeDegrees>39.7125444374978542327880859375</LatitudeDegrees>
              <LongitudeDegrees>-8.14176524989306926727294921875</LongitudeDegrees>
            </Position>
            <AltitudeMeters>391</AltitudeMeters>
            <DistanceMeters>15461.831747746</DistanceMeters>
          </Trackpoint>
          <Trackpoint>
            <Time>2018-09-13T08:06:07.000Z</Time>
            <Position>
              <LatitudeDegrees>39.71251736395061016082763671875</LatitudeDegrees>
              <LongitudeDegrees>-8.14175368286669254302978515625</LongitudeDegrees>
            </Position>
            <AltitudeMeters>391.20001220703125</AltitudeMeters>
            <DistanceMeters>15465.003420043</DistanceMeters>
          </Trackpoint>
          <Trackpoint>
            <Time>2018-09-13T08:06:10.000Z</Time>
            <Position>
              <LatitudeDegrees>39.71243840642273426055908203125</LatitudeDegrees>
              <LongitudeDegrees>-8.14170691184699535369873046875</LongitudeDegrees>
            </Position>
            <AltitudeMeters>391.20001220703125</AltitudeMeters>
            <DistanceMeters>15474.66067791</DistanceMeters>
          </Trackpoint>
          <Trackpoint>
            <Time>2018-09-13T08:06:17.000Z</Time>
            <Position>
              <LatitudeDegrees>39.7122507356107234954833984375</LatitudeDegrees>
              <LongitudeDegrees>-8.14162242226302623748779296875</LongitudeDegrees>
            </Position>
            <AltitudeMeters>392</AltitudeMeters>
            <DistanceMeters>15496.766187556</DistanceMeters>
          </Trackpoint>
          <Trackpoint>
            <Time>2018-09-13T08:06:23.000Z</Time>
            <Position>
              <LatitudeDegrees>39.712110422551631927490234375</LatitudeDegrees>
              <LongitudeDegrees>-8.14152133651077747344970703125</LongitudeDegrees>
            </Position>
            <AltitudeMeters>393.79998779296875</AltitudeMeters>
            <DistanceMeters>15514.62109777</DistanceMeters>
          </Trackpoint>
          <Trackpoint>
            <Time>2018-09-13T08:06:29.000Z</Time>
            <Position>
              <LatitudeDegrees>39.711981005966663360595703125</LatitudeDegrees>
              <LongitudeDegrees>-8.141406588256359100341796875</LongitudeDegrees>
            </Position>
            <AltitudeMeters>395.600006103515625</AltitudeMeters>
            <DistanceMeters>15532.05714043</DistanceMeters>
          </Trackpoint>
          <Trackpoint>
            <Time>2018-09-13T08:06:35.000Z</Time>
            <Position>
              <LatitudeDegrees>39.71184882335364818572998046875</LatitudeDegrees>
              <LongitudeDegrees>-8.1412944383919239044189453125</LongitudeDegrees>
            </Position>
            <AltitudeMeters>396.20001220703125</AltitudeMeters>
            <DistanceMeters>15549.625521484</DistanceMeters>
          </Trackpoint>
          <Trackpoint>
            <Time>2018-09-13T08:06:36.000Z</Time>
            <Position>
              <LatitudeDegrees>39.71182686276733875274658203125</LatitudeDegrees>
              <LongitudeDegrees>-8.141274489462375640869140625</LongitudeDegrees>
            </Position>
            <AltitudeMeters>396.399993896484375</AltitudeMeters>
            <DistanceMeters>15552.606393038</DistanceMeters>
          </Trackpoint>
          <Trackpoint>
            <Time>2018-09-13T08:06:44.000Z</Time>
            <Position>
              <LatitudeDegrees>39.71163927577435970306396484375</LatitudeDegrees>
              <LongitudeDegrees>-8.1411013193428516387939453125</LongitudeDegrees>
            </Position>
            <AltitudeMeters>400.600006103515625</AltitudeMeters>
            <DistanceMeters>15578.214461717</DistanceMeters>
          </Trackpoint>
          <Trackpoint>
            <Time>2018-09-13T08:06:49.000Z</Time>
            <Position>
              <LatitudeDegrees>39.71151874400675296783447265625</LatitudeDegrees>
              <LongitudeDegrees>-8.14099964685738086700439453125</LongitudeDegrees>
            </Position>
            <AltitudeMeters>404.399993896484375</AltitudeMeters>
            <DistanceMeters>15594.206924164</DistanceMeters>
          </Trackpoint>
          <Trackpoint>
            <Time>2018-09-13T08:06:54.000Z</Time>
            <Position>
              <LatitudeDegrees>39.7114021517336368560791015625</LatitudeDegrees>
              <LongitudeDegrees>-8.14089990220963954925537109375</LongitudeDegrees>
            </Position>
            <AltitudeMeters>407</AltitudeMeters>
            <DistanceMeters>15609.741975597</DistanceMeters>
          </Trackpoint>
          <Trackpoint>
            <Time>2018-09-13T08:06:59.000Z</Time>
            <Position>
              <LatitudeDegrees>39.71128958277404308319091796875</LatitudeDegrees>
              <LongitudeDegrees>-8.1407925300300121307373046875</LongitudeDegrees>
            </Position>
            <AltitudeMeters>408.399993896484375</AltitudeMeters>
            <DistanceMeters>15625.28225759</DistanceMeters>
          </Trackpoint>
          <Trackpoint>
            <Time>2018-09-13T08:07:04.000Z</Time>
            <Position>
              <LatitudeDegrees>39.71117977984249591827392578125</LatitudeDegrees>
              <LongitudeDegrees>-8.14069840125739574432373046875</LongitudeDegrees>
            </Position>
            <AltitudeMeters>411.20001220703125</AltitudeMeters>
            <DistanceMeters>15639.921924059</DistanceMeters>
          </Trackpoint>
          <Trackpoint>
            <Time>2018-09-13T08:07:09.000Z</Time>
            <Position>
              <LatitudeDegrees>39.7110799513757228851318359375</LatitudeDegrees>
              <LongitudeDegrees>-8.14059915952384471893310546875</LongitudeDegrees>
            </Position>
            <AltitudeMeters>412.20001220703125</AltitudeMeters>
            <DistanceMeters>15653.909908059</DistanceMeters>
          </Trackpoint>
          <Trackpoint>
            <Time>2018-09-13T08:07:16.000Z</Time>
            <Position>
              <LatitudeDegrees>39.7109388001263141632080078125</LatitudeDegrees>
              <LongitudeDegrees>-8.14045851118862628936767578125</LongitudeDegrees>
            </Position>
            <AltitudeMeters>413.399993896484375</AltitudeMeters>
            <DistanceMeters>15673.704910134</DistanceMeters>
          </Trackpoint>
          <Trackpoint>
            <Time>2018-09-13T08:07:22.000Z</Time>
            <Position>
              <LatitudeDegrees>39.71082388423383235931396484375</LatitudeDegrees>
              <LongitudeDegrees>-8.14031350426375865936279296875</LongitudeDegrees>
            </Position>
            <AltitudeMeters>415.399993896484375</AltitudeMeters>
            <DistanceMeters>15691.530462857</DistanceMeters>
          </Trackpoint>
          <Trackpoint>
            <Time>2018-09-13T08:07:29.000Z</Time>
            <Position>
              <LatitudeDegrees>39.7106974013149738311767578125</LatitudeDegrees>
              <LongitudeDegrees>-8.14013077877461910247802734375</LongitudeDegrees>
            </Position>
            <AltitudeMeters>418.20001220703125</AltitudeMeters>
            <DistanceMeters>15712.577110331</DistanceMeters>
          </Trackpoint>
          <Trackpoint>
            <Time>2018-09-13T08:07:36.000Z</Time>
            <Position>
              <LatitudeDegrees>39.710570164024829864501953125</LatitudeDegrees>
              <LongitudeDegrees>-8.13994889147579669952392578125</LongitudeDegrees>
            </Position>
            <AltitudeMeters>420.600006103515625</AltitudeMeters>
            <DistanceMeters>15733.626760945</DistanceMeters>
          </Trackpoint>
          <Trackpoint>
            <Time>2018-09-13T08:07:43.000Z</Time>
            <Position>
              <LatitudeDegrees>39.710450470447540283203125</LatitudeDegrees>
              <LongitudeDegrees>-8.13975795172154903411865234375</LongitudeDegrees>
            </Position>
            <AltitudeMeters>422</AltitudeMeters>
            <DistanceMeters>15754.715841651</DistanceMeters>
          </Trackpoint>
          <Trackpoint>
            <Time>2018-09-13T08:07:50.000Z</Time>
            <Position>
              <LatitudeDegrees>39.71033848822116851806640625</LatitudeDegrees>
              <LongitudeDegrees>-8.13955728895962238311767578125</LongitudeDegrees>
            </Position>
            <AltitudeMeters>422.20001220703125</AltitudeMeters>
            <DistanceMeters>15775.941500037</DistanceMeters>
          </Trackpoint>
          <Trackpoint>
            <Time>2018-09-13T08:07:56.000Z</Time>
            <Position>
              <LatitudeDegrees>39.71022759564220905303955078125</LatitudeDegrees>
              <LongitudeDegrees>-8.1393914110958576202392578125</LongitudeDegrees>
            </Position>
            <AltitudeMeters>421.20001220703125</AltitudeMeters>
            <DistanceMeters>15794.757989276</DistanceMeters>
          </Trackpoint>
          <Trackpoint>
            <Time>2018-09-13T08:08:03.000Z</Time>
            <Position>
              <LatitudeDegrees>39.71010387875139713287353515625</LatitudeDegrees>
              <LongitudeDegrees>-8.139179013669490814208984375</LongitudeDegrees>
            </Position>
            <AltitudeMeters>419.79998779296875</AltitudeMeters>
            <DistanceMeters>15817.569151566</DistanceMeters>
          </Trackpoint>
          <Trackpoint>
            <Time>2018-09-13T08:08:12.000Z</Time>
            <Position>
              <LatitudeDegrees>39.70993456430733203887939453125</LatitudeDegrees>
              <LongitudeDegrees>-8.13890232704579830169677734375</LongitudeDegrees>
            </Position>
            <AltitudeMeters>415.20001220703125</AltitudeMeters>
            <DistanceMeters>15847.841089358</DistanceMeters>
          </Trackpoint>
          <Trackpoint>
            <Time>2018-09-13T08:08:20.000Z</Time>
            <Position>
              <LatitudeDegrees>39.70977765507996082305908203125</LatitudeDegrees>
              <LongitudeDegrees>-8.13864760100841522216796875</LongitudeDegrees>
            </Position>
            <AltitudeMeters>414.79998779296875</AltitudeMeters>
            <DistanceMeters>15875.782175397</DistanceMeters>
          </Trackpoint>
          <Trackpoint>
            <Time>2018-09-13T08:08:31.000Z</Time>
            <Position>
              <LatitudeDegrees>39.70955234952270984649658203125</LatitudeDegrees>
              <LongitudeDegrees>-8.13826731406152248382568359375</LongitudeDegrees>
            </Position>
            <AltitudeMeters>415</AltitudeMeters>
            <DistanceMeters>15916.880982182</DistanceMeters>
          </Trackpoint>
          <Trackpoint>
            <Time>2018-09-13T08:08:39.000Z</Time>
            <Position>
              <LatitudeDegrees>39.70936895348131656646728515625</LatitudeDegrees>
              <LongitudeDegrees>-8.1379644758999347686767578125</LongitudeDegrees>
            </Position>
            <AltitudeMeters>412.20001220703125</AltitudeMeters>
            <DistanceMeters>15949.881531408</DistanceMeters>
          </Trackpoint>
          <Trackpoint>
            <Time>2018-09-13T08:08:49.000Z</Time>
            <Position>
              <LatitudeDegrees>39.7091105394065380096435546875</LatitudeDegrees>
              <LongitudeDegrees>-8.13755334354937076568603515625</LongitudeDegrees>
            </Position>
            <AltitudeMeters>409.399993896484375</AltitudeMeters>
            <DistanceMeters>15995.340170233</DistanceMeters>
          </Trackpoint>
          <Trackpoint>
            <Time>2018-09-13T08:08:57.000Z</Time>
            <Position>
              <LatitudeDegrees>39.708877690136432647705078125</LatitudeDegrees>
              <LongitudeDegrees>-8.137186132371425628662109375</LongitudeDegrees>
            </Position>
            <AltitudeMeters>408</AltitudeMeters>
            <DistanceMeters>16036.086690147</DistanceMeters>
          </Trackpoint>
          <Trackpoint>
            <Time>2018-09-13T08:09:00.000Z</Time>
            <Position>
              <LatitudeDegrees>39.7087873332202434539794921875</LatitudeDegrees>
              <LongitudeDegrees>-8.13703886233270168304443359375</LongitudeDegrees>
            </Position>
            <AltitudeMeters>408.20001220703125</AltitudeMeters>
            <DistanceMeters>16052.216057845</DistanceMeters>
          </Trackpoint>
          <Trackpoint>
            <Time>2018-09-13T08:09:04.000Z</Time>
            <Position>
              <LatitudeDegrees>39.708659090101718902587890625</LatitudeDegrees>
              <LongitudeDegrees>-8.13683752901852130889892578125</LongitudeDegrees>
            </Position>
            <AltitudeMeters>408.20001220703125</AltitudeMeters>
            <DistanceMeters>16074.597421311</DistanceMeters>
          </Trackpoint>
          <Trackpoint>
            <Time>2018-09-13T08:09:07.000Z</Time>
            <Position>
              <LatitudeDegrees>39.7085549868643283843994140625</LatitudeDegrees>
              <LongitudeDegrees>-8.13667341135442256927490234375</LongitudeDegrees>
            </Position>
            <AltitudeMeters>407.20001220703125</AltitudeMeters>
            <DistanceMeters>16092.811095249</DistanceMeters>
          </Trackpoint>
          <Trackpoint>
            <Time>2018-09-13T08:09:10.000Z</Time>
            <Position>
              <LatitudeDegrees>39.70844258554279804229736328125</LatitudeDegrees>
              <LongitudeDegrees>-8.13649713993072509765625</LongitudeDegrees>
            </Position>
            <AltitudeMeters>405.79998779296875</AltitudeMeters>
            <DistanceMeters>16112.41517782</DistanceMeters>
          </Trackpoint>
          <Trackpoint>
            <Time>2018-09-13T08:09:13.000Z</Time>
            <Position>
              <LatitudeDegrees>39.70832456834614276885986328125</LatitudeDegrees>
              <LongitudeDegrees>-8.1363085471093654632568359375</LongitudeDegrees>
            </Position>
            <AltitudeMeters>404.600006103515625</AltitudeMeters>
            <DistanceMeters>16133.23145146</DistanceMeters>
          </Trackpoint>
          <Trackpoint>
            <Time>2018-09-13T08:09:17.000Z</Time>
            <Position>
              <LatitudeDegrees>39.708152823150157928466796875</LatitudeDegrees>
              <LongitudeDegrees>-8.136032782495021820068359375</LongitudeDegrees>
            </Position>
            <AltitudeMeters>405.600006103515625</AltitudeMeters>
            <DistanceMeters>16163.611627286</DistanceMeters>
          </Trackpoint>
          <Trackpoint>
            <Time>2018-09-13T08:09:21.000Z</Time>
            <Position>
              <LatitudeDegrees>39.70795995555818080902099609375</LatitudeDegrees>
              <LongitudeDegrees>-8.13571820966899394989013671875</LongitudeDegrees>
            </Position>
            <AltitudeMeters>407</AltitudeMeters>
            <DistanceMeters>16198.054846109</DistanceMeters>
          </Trackpoint>
          <Trackpoint>
            <Time>2018-09-13T08:09:25.000Z</Time>
            <Position>
              <LatitudeDegrees>39.70773330889642238616943359375</LatitudeDegrees>
              <LongitudeDegrees>-8.135376982390880584716796875</LongitudeDegrees>
            </Position>
            <AltitudeMeters>407</AltitudeMeters>
            <DistanceMeters>16236.65604964</DistanceMeters>
          </Trackpoint>
          <Trackpoint>
            <Time>2018-09-13T08:09:28.000Z</Time>
            <Position>
              <LatitudeDegrees>39.70756147988140583038330078125</LatitudeDegrees>
              <LongitudeDegrees>-8.13510079868137836456298828125</LongitudeDegrees>
            </Position>
            <AltitudeMeters>406.600006103515625</AltitudeMeters>
            <DistanceMeters>16267.069943022</DistanceMeters>
          </Trackpoint>
          <Trackpoint>
            <Time>2018-09-13T08:09:31.000Z</Time>
            <Position>
              <LatitudeDegrees>39.707398116588592529296875</LatitudeDegrees>
              <LongitudeDegrees>-8.13479703851044178009033203125</LongitudeDegrees>
            </Position>
            <AltitudeMeters>404.600006103515625</AltitudeMeters>
            <DistanceMeters>16298.805024489</DistanceMeters>
          </Trackpoint>
          <Trackpoint>
            <Time>2018-09-13T08:09:33.000Z</Time>
            <Position>
              <LatitudeDegrees>39.707305245101451873779296875</LatitudeDegrees>
              <LongitudeDegrees>-8.1345708109438419342041015625</LongitudeDegrees>
            </Position>
            <AltitudeMeters>402</AltitudeMeters>
            <DistanceMeters>16320.761337044</DistanceMeters>
          </Trackpoint>
          <Trackpoint>
            <Time>2018-09-13T08:09:37.000Z</Time>
            <Position>
              <LatitudeDegrees>39.70718094147741794586181640625</LatitudeDegrees>
              <LongitudeDegrees>-8.13405356369912624359130859375</LongitudeDegrees>
            </Position>
            <AltitudeMeters>397.20001220703125</AltitudeMeters>
            <DistanceMeters>16367.162113939</DistanceMeters>
          </Trackpoint>
          <Trackpoint>
            <Time>2018-09-13T08:09:41.000Z</Time>
            <Position>
              <LatitudeDegrees>39.70713232643902301788330078125</LatitudeDegrees>
              <LongitudeDegrees>-8.1334783136844635009765625</LongitudeDegrees>
            </Position>
            <AltitudeMeters>399</AltitudeMeters>
            <DistanceMeters>16416.715242671</DistanceMeters>
          </Trackpoint>
          <Trackpoint>
            <Time>2018-09-13T08:09:43.000Z</Time>
            <Position>
              <LatitudeDegrees>39.70711187459528446197509765625</LatitudeDegrees>
              <LongitudeDegrees>-8.133174888789653778076171875</LongitudeDegrees>
            </Position>
            <AltitudeMeters>399.79998779296875</AltitudeMeters>
            <DistanceMeters>16442.7960511</DistanceMeters>
          </Trackpoint>
          <Trackpoint>
            <Time>2018-09-13T08:09:45.000Z</Time>
            <Position>
              <LatitudeDegrees>39.70709837973117828369140625</LatitudeDegrees>
              <LongitudeDegrees>-8.1328655965626239776611328125</LongitudeDegrees>
            </Position>
            <AltitudeMeters>401</AltitudeMeters>
            <DistanceMeters>16469.322465233</DistanceMeters>
          </Trackpoint>
          <Trackpoint>
            <Time>2018-09-13T08:09:46.000Z</Time>
            <Position>
              <LatitudeDegrees>39.70709209330379962921142578125</LatitudeDegrees>
              <LongitudeDegrees>-8.1327090226113796234130859375</LongitudeDegrees>
            </Position>
            <AltitudeMeters>401.399993896484375</AltitudeMeters>
            <DistanceMeters>16482.747826525</DistanceMeters>
          </Trackpoint>
          <Trackpoint>
            <Time>2018-09-13T08:09:48.000Z</Time>
            <Position>
              <LatitudeDegrees>39.70708169974386692047119140625</LatitudeDegrees>
              <LongitudeDegrees>-8.132393024861812591552734375</LongitudeDegrees>
            </Position>
            <AltitudeMeters>400</AltitudeMeters>
            <DistanceMeters>16509.83044012</DistanceMeters>
          </Trackpoint>
          <Trackpoint>
            <Time>2018-09-13T08:09:50.000Z</Time>
            <Position>
              <LatitudeDegrees>39.70706887543201446533203125</LatitudeDegrees>
              <LongitudeDegrees>-8.13207476399838924407958984375</LongitudeDegrees>
            </Position>
            <AltitudeMeters>396.399993896484375</AltitudeMeters>
            <DistanceMeters>16537.119491847</DistanceMeters>
          </Trackpoint>
          <Trackpoint>
            <Time>2018-09-13T08:09:52.000Z</Time>
            <Position>
              <LatitudeDegrees>39.70705672167241573333740234375</LatitudeDegrees>
              <LongitudeDegrees>-8.13175708986818790435791015625</LongitudeDegrees>
            </Position>
            <AltitudeMeters>393</AltitudeMeters>
            <DistanceMeters>16564.354386912</DistanceMeters>
          </Trackpoint>
          <Trackpoint>
            <Time>2018-09-13T08:09:54.000Z</Time>
            <Position>
              <LatitudeDegrees>39.70704465173184871673583984375</LatitudeDegrees>
              <LongitudeDegrees>-8.13144846819341182708740234375</LongitudeDegrees>
            </Position>
            <AltitudeMeters>391.600006103515625</AltitudeMeters>
            <DistanceMeters>16590.814677483</DistanceMeters>
          </Trackpoint>
          <Trackpoint>
            <Time>2018-09-13T08:09:55.000Z</Time>
            <Position>
              <LatitudeDegrees>39.70703895203769207000732421875</LatitudeDegrees>
              <LongitudeDegrees>-8.1312978453934192657470703125</LongitudeDegrees>
            </Position>
            <AltitudeMeters>390.79998779296875</AltitudeMeters>
            <DistanceMeters>16603.727475845</DistanceMeters>
          </Trackpoint>
          <Trackpoint>
            <Time>2018-09-13T08:09:56.000Z</Time>
            <Position>
              <LatitudeDegrees>39.70703409053385257720947265625</LatitudeDegrees>
              <LongitudeDegrees>-8.13115216791629791259765625</LongitudeDegrees>
            </Position>
            <AltitudeMeters>390</AltitudeMeters>
            <DistanceMeters>16616.21327737</DistanceMeters>
          </Trackpoint>
          <Trackpoint>
            <Time>2018-09-13T08:09:59.000Z</Time>
            <Position>
              <LatitudeDegrees>39.70701732672750949859619140625</LatitudeDegrees>
              <LongitudeDegrees>-8.1307397782802581787109375</LongitudeDegrees>
            </Position>
            <AltitudeMeters>389</AltitudeMeters>
            <DistanceMeters>16651.574325365</DistanceMeters>
          </Trackpoint>
          <Trackpoint>
            <Time>2018-09-13T08:10:05.000Z</Time>
            <Position>
              <LatitudeDegrees>39.70698698423802852630615234375</LatitudeDegrees>
              <LongitudeDegrees>-8.1299993209540843963623046875</LongitudeDegrees>
            </Position>
            <AltitudeMeters>389</AltitudeMeters>
            <DistanceMeters>16715.067318974</DistanceMeters>
          </Trackpoint>
          <Trackpoint>
            <Time>2018-09-13T08:10:09.000Z</Time>
            <Position>
              <LatitudeDegrees>39.7069649398326873779296875</LatitudeDegrees>
              <LongitudeDegrees>-8.12957276590168476104736328125</LongitudeDegrees>
            </Position>
            <AltitudeMeters>386.79998779296875</AltitudeMeters>
            <DistanceMeters>16751.674317954</DistanceMeters>
          </Trackpoint>
          <Trackpoint>
            <Time>2018-09-13T08:10:11.000Z</Time>
            <Position>
              <LatitudeDegrees>39.706949181854724884033203125</LatitudeDegrees>
              <LongitudeDegrees>-8.12937562353909015655517578125</LongitudeDegrees>
            </Position>
            <AltitudeMeters>385.600006103515625</AltitudeMeters>
            <DistanceMeters>16768.646099782</DistanceMeters>
          </Trackpoint>
          <Trackpoint>
            <Time>2018-09-13T08:10:13.000Z</Time>
            <Position>
              <LatitudeDegrees>39.706927053630352020263671875</LatitudeDegrees>
              <LongitudeDegrees>-8.12917781062424182891845703125</LongitudeDegrees>
            </Position>
            <AltitudeMeters>385.20001220703125</AltitudeMeters>
            <DistanceMeters>16785.761991228</DistanceMeters>
          </Trackpoint>
          <Trackpoint>
            <Time>2018-09-13T08:10:16.000Z</Time>
            <Position>
              <LatitudeDegrees>39.7068833000957965850830078125</LatitudeDegrees>
              <LongitudeDegrees>-8.128877989947795867919921875</LongitudeDegrees>
            </Position>
            <AltitudeMeters>384.399993896484375</AltitudeMeters>
            <DistanceMeters>16811.892437076</DistanceMeters>
          </Trackpoint>
          <Trackpoint>
            <Time>2018-09-13T08:10:17.000Z</Time>
            <Position>
              <LatitudeDegrees>39.70686309970915317535400390625</LatitudeDegrees>
              <LongitudeDegrees>-8.12877933494746685028076171875</LongitudeDegrees>
            </Position>
            <AltitudeMeters>384.20001220703125</AltitudeMeters>
            <DistanceMeters>16820.633861838</DistanceMeters>
          </Trackpoint>
          <Trackpoint>
            <Time>2018-09-13T08:10:22.000Z</Time>
            <Position>
              <LatitudeDegrees>39.70673033036291599273681640625</LatitudeDegrees>
              <LongitudeDegrees>-8.12830106355249881744384765625</LongitudeDegrees>
            </Position>
            <AltitudeMeters>383</AltitudeMeters>
            <DistanceMeters>16864.171447974</DistanceMeters>
          </Trackpoint>
          <Trackpoint>
            <Time>2018-09-13T08:10:30.000Z</Time>
            <Position>
              <LatitudeDegrees>39.70649546943604946136474609375</LatitudeDegrees>
              <LongitudeDegrees>-8.12759815715253353118896484375</LongitudeDegrees>
            </Position>
            <AltitudeMeters>385.20001220703125</AltitudeMeters>
            <DistanceMeters>16929.790955072</DistanceMeters>
          </Trackpoint>
          <Trackpoint>
            <Time>2018-09-13T08:10:34.000Z</Time>
            <Position>
              <LatitudeDegrees>39.70637552440166473388671875</LatitudeDegrees>
              <LongitudeDegrees>-8.12726430594921112060546875</LongitudeDegrees>
            </Position>
            <AltitudeMeters>384.600006103515625</AltitudeMeters>
            <DistanceMeters>16961.341541546</DistanceMeters>
          </Trackpoint>
          <Trackpoint>
            <Time>2018-09-13T08:10:37.000Z</Time>
            <Position>
              <LatitudeDegrees>39.7062898613512516021728515625</LatitudeDegrees>
              <LongitudeDegrees>-8.12701595015823841094970703125</LongitudeDegrees>
            </Position>
            <AltitudeMeters>384.399993896484375</AltitudeMeters>
            <DistanceMeters>16984.647315468</DistanceMeters>
          </Trackpoint>
          <Trackpoint>
            <Time>2018-09-13T08:10:45.000Z</Time>
            <Position>
              <LatitudeDegrees>39.70607000403106212615966796875</LatitudeDegrees>
              <LongitudeDegrees>-8.126374818384647369384765625</LongitudeDegrees>
            </Position>
            <AltitudeMeters>386.600006103515625</AltitudeMeters>
            <DistanceMeters>17044.753045671</DistanceMeters>
          </Trackpoint>
          <Trackpoint>
            <Time>2018-09-13T08:10:54.000Z</Time>
            <Position>
              <LatitudeDegrees>39.7057928144931793212890625</LatitudeDegrees>
              <LongitudeDegrees>-8.12572832219302654266357421875</LongitudeDegrees>
            </Position>
            <AltitudeMeters>390.20001220703125</AltitudeMeters>
            <DistanceMeters>17108.127956643</DistanceMeters>
          </Trackpoint>
          <Trackpoint>
            <Time>2018-09-13T08:11:02.000Z</Time>
            <Position>
              <LatitudeDegrees>39.70547639764845371246337890625</LatitudeDegrees>
              <LongitudeDegrees>-8.12525323592126369476318359375</LongitudeDegrees>
            </Position>
            <AltitudeMeters>393.600006103515625</AltitudeMeters>
            <DistanceMeters>17161.935401942</DistanceMeters>
          </Trackpoint>
          <Trackpoint>
            <Time>2018-09-13T08:11:12.000Z</Time>
            <Position>
              <LatitudeDegrees>39.70496912486851215362548828125</LatitudeDegrees>
              <LongitudeDegrees>-8.1248541735112667083740234375</LongitudeDegrees>
            </Position>
            <AltitudeMeters>393</AltitudeMeters>
            <DistanceMeters>17227.931437969</DistanceMeters>
          </Trackpoint>
          <Trackpoint>
            <Time>2018-09-13T08:11:14.000Z</Time>
            <Position>
              <LatitudeDegrees>39.70485948957502841949462890625</LatitudeDegrees>
              <LongitudeDegrees>-8.12480446882545948028564453125</LongitudeDegrees>
            </Position>
            <AltitudeMeters>392.399993896484375</AltitudeMeters>
            <DistanceMeters>17240.855071123</DistanceMeters>
          </Trackpoint>
          <Trackpoint>
            <Time>2018-09-13T08:11:23.000Z</Time>
            <Position>
              <LatitudeDegrees>39.70435339026153087615966796875</LatitudeDegrees>
              <LongitudeDegrees>-8.124686367809772491455078125</LongitudeDegrees>
            </Position>
            <AltitudeMeters>399.399993896484375</AltitudeMeters>
            <DistanceMeters>17298.085536063</DistanceMeters>
          </Trackpoint>
          <Trackpoint>
            <Time>2018-09-13T08:11:34.000Z</Time>
            <Position>
              <LatitudeDegrees>39.7038249112665653228759765625</LatitudeDegrees>
              <LongitudeDegrees>-8.12461436726152896881103515625</LongitudeDegrees>
            </Position>
            <AltitudeMeters>403.20001220703125</AltitudeMeters>
            <DistanceMeters>17357.228501928</DistanceMeters>
          </Trackpoint>
          <Trackpoint>
            <Time>2018-09-13T08:11:39.000Z</Time>
            <Position>
              <LatitudeDegrees>39.70363874919712543487548828125</LatitudeDegrees>
              <LongitudeDegrees>-8.1246077455580234527587890625</LongitudeDegrees>
            </Position>
            <AltitudeMeters>404.399993896484375</AltitudeMeters>
            <DistanceMeters>17377.956527333</DistanceMeters>
          </Trackpoint>
          <Trackpoint>
            <Time>2018-09-13T08:11:43.000Z</Time>
            <Position>
              <LatitudeDegrees>39.70349022187292575836181640625</LatitudeDegrees>
              <LongitudeDegrees>-8.1246297061443328857421875</LongitudeDegrees>
            </Position>
            <AltitudeMeters>405.399993896484375</AltitudeMeters>
            <DistanceMeters>17394.594345501</DistanceMeters>
          </Trackpoint>
          <Trackpoint>
            <Time>2018-09-13T08:11:51.000Z</Time>
            <Position>
              <LatitudeDegrees>39.70323323272168636322021484375</LatitudeDegrees>
              <LongitudeDegrees>-8.12475183047354221343994140625</LongitudeDegrees>
            </Position>
            <AltitudeMeters>406.20001220703125</AltitudeMeters>
            <DistanceMeters>17425.049629147</DistanceMeters>
          </Trackpoint>
          <Trackpoint>
            <Time>2018-09-13T08:11:56.000Z</Time>
            <Position>
              <LatitudeDegrees>39.703097529709339141845703125</LatitudeDegrees>
              <LongitudeDegrees>-8.1248692609369754791259765625</LongitudeDegrees>
            </Position>
            <AltitudeMeters>405.79998779296875</AltitudeMeters>
            <DistanceMeters>17443.195004517</DistanceMeters>
          </Trackpoint>
          <Trackpoint>
            <Time>2018-09-13T08:12:01.000Z</Time>
            <Position>
              <LatitudeDegrees>39.70299351029098033905029296875</LatitudeDegrees>
              <LongitudeDegrees>-8.12501720152795314788818359375</LongitudeDegrees>
            </Position>
            <AltitudeMeters>405</AltitudeMeters>
            <DistanceMeters>17460.356997506</DistanceMeters>
          </Trackpoint>
          <Trackpoint>
            <Time>2018-09-13T08:12:04.000Z</Time>
            <Position>
              <LatitudeDegrees>39.70294338651001453399658203125</LatitudeDegrees>
              <LongitudeDegrees>-8.12510822899639606475830078125</LongitudeDegrees>
            </Position>
            <AltitudeMeters>404.399993896484375</AltitudeMeters>
            <DistanceMeters>17469.941985651</DistanceMeters>
          </Trackpoint>
          <Trackpoint>
            <Time>2018-09-13T08:12:09.000Z</Time>
            <Position>
              <LatitudeDegrees>39.70287582837045192718505859375</LatitudeDegrees>
              <LongitudeDegrees>-8.12524552457034587860107421875</LongitudeDegrees>
            </Position>
            <AltitudeMeters>405.79998779296875</AltitudeMeters>
            <DistanceMeters>17483.897654347</DistanceMeters>
          </Trackpoint>
          <Trackpoint>
            <Time>2018-09-13T08:12:13.000Z</Time>
            <Position>
              <LatitudeDegrees>39.70283375121653079986572265625</LatitudeDegrees>
              <LongitudeDegrees>-8.12536756508052349090576171875</LongitudeDegrees>
            </Position>
            <AltitudeMeters>407.399993896484375</AltitudeMeters>
            <DistanceMeters>17495.349851964</DistanceMeters>
          </Trackpoint>
          <Trackpoint>
            <Time>2018-09-13T08:12:17.000Z</Time>
            <Position>
              <LatitudeDegrees>39.7027994692325592041015625</LatitudeDegrees>
              <LongitudeDegrees>-8.1254960596561431884765625</LongitudeDegrees>
            </Position>
            <AltitudeMeters>408.79998779296875</AltitudeMeters>
            <DistanceMeters>17506.996344066</DistanceMeters>
          </Trackpoint>
          <Trackpoint>
            <Time>2018-09-13T08:12:22.000Z</Time>
            <Position>
              <LatitudeDegrees>39.7027640976011753082275390625</LatitudeDegrees>
              <LongitudeDegrees>-8.12565254978835582733154296875</LongitudeDegrees>
            </Position>
            <AltitudeMeters>410.600006103515625</AltitudeMeters>
            <DistanceMeters>17520.963331623</DistanceMeters>
          </Trackpoint>
          <Trackpoint>
            <Time>2018-09-13T08:12:28.000Z</Time>
            <Position>
              <LatitudeDegrees>39.7027305699884891510009765625</LatitudeDegrees>
              <LongitudeDegrees>-8.12584784813225269317626953125</LongitudeDegrees>
            </Position>
            <AltitudeMeters>412.600006103515625</AltitudeMeters>
            <DistanceMeters>17538.098732571</DistanceMeters>
          </Trackpoint>
          <Trackpoint>
            <Time>2018-09-13T08:12:34.000Z</Time>
            <Position>
              <LatitudeDegrees>39.70270349644124507904052734375</LatitudeDegrees>
              <LongitudeDegrees>-8.12604968436062335968017578125</LongitudeDegrees>
            </Position>
            <AltitudeMeters>415.79998779296875</AltitudeMeters>
            <DistanceMeters>17555.643196534</DistanceMeters>
          </Trackpoint>
          <Trackpoint>
            <Time>2018-09-13T08:12:39.000Z</Time>
            <Position>
              <LatitudeDegrees>39.702682793140411376953125</LatitudeDegrees>
              <LongitudeDegrees>-8.12622101046144962310791015625</LongitudeDegrees>
            </Position>
            <AltitudeMeters>418.399993896484375</AltitudeMeters>
            <DistanceMeters>17570.494142196</DistanceMeters>
          </Trackpoint>
          <Trackpoint>
            <Time>2018-09-13T08:12:47.000Z</Time>
            <Position>
              <LatitudeDegrees>39.70264666713774204254150390625</LatitudeDegrees>
              <LongitudeDegrees>-8.12649711035192012786865234375</LongitudeDegrees>
            </Position>
            <AltitudeMeters>421.79998779296875</AltitudeMeters>
            <DistanceMeters>17594.476859288</DistanceMeters>
          </Trackpoint>
          <Trackpoint>
            <Time>2018-09-13T08:12:53.000Z</Time>
            <Position>
              <LatitudeDegrees>39.70262034796178340911865234375</LatitudeDegrees>
              <LongitudeDegrees>-8.1267059035599231719970703125</LongitudeDegrees>
            </Position>
            <AltitudeMeters>424.399993896484375</AltitudeMeters>
            <DistanceMeters>17612.594843141</DistanceMeters>
          </Trackpoint>
          <Trackpoint>
            <Time>2018-09-13T08:13:00.000Z</Time>
            <Position>
              <LatitudeDegrees>39.7025853954255580902099609375</LatitudeDegrees>
              <LongitudeDegrees>-8.12695342116057872772216796875</LongitudeDegrees>
            </Position>
            <AltitudeMeters>426.20001220703125</AltitudeMeters>
            <DistanceMeters>17634.144547113</DistanceMeters>
          </Trackpoint>
          <Trackpoint>
            <Time>2018-09-13T08:13:08.000Z</Time>
            <Position>
              <LatitudeDegrees>39.702547006309032440185546875</LatitudeDegrees>
              <LongitudeDegrees>-8.12723387964069843292236328125</LongitudeDegrees>
            </Position>
            <AltitudeMeters>427.20001220703125</AltitudeMeters>
            <DistanceMeters>17658.538110144</DistanceMeters>
          </Trackpoint>
          <Trackpoint>
            <Time>2018-09-13T08:13:12.000Z</Time>
            <Position>
              <LatitudeDegrees>39.702524207532405853271484375</LatitudeDegrees>
              <LongitudeDegrees>-8.12737637199461460113525390625</LongitudeDegrees>
            </Position>
            <AltitudeMeters>427.79998779296875</AltitudeMeters>
            <DistanceMeters>17671.001471448</DistanceMeters>
          </Trackpoint>
          <Trackpoint>
            <Time>2018-09-13T08:13:18.000Z</Time>
            <Position>
              <LatitudeDegrees>39.70249780453741550445556640625</LatitudeDegrees>
              <LongitudeDegrees>-8.12759379856288433074951171875</LongitudeDegrees>
            </Position>
            <AltitudeMeters>428.399993896484375</AltitudeMeters>
            <DistanceMeters>17689.850805329</DistanceMeters>
          </Trackpoint>
          <Trackpoint>
            <Time>2018-09-13T08:13:24.000Z</Time>
            <Position>
              <LatitudeDegrees>39.7024680487811565399169921875</LatitudeDegrees>
              <LongitudeDegrees>-8.1278059445321559906005859375</LongitudeDegrees>
            </Position>
            <AltitudeMeters>429.600006103515625</AltitudeMeters>
            <DistanceMeters>17708.316821322</DistanceMeters>
          </Trackpoint>
          <Trackpoint>
            <Time>2018-09-13T08:13:31.000Z</Time>
            <Position>
              <LatitudeDegrees>39.702435694634914398193359375</LatitudeDegrees>
              <LongitudeDegrees>-8.1280449964106082916259765625</LongitudeDegrees>
            </Position>
            <AltitudeMeters>431</AltitudeMeters>
            <DistanceMeters>17729.101837975</DistanceMeters>
          </Trackpoint>
          <Trackpoint>
            <Time>2018-09-13T08:13:37.000Z</Time>
            <Position>
              <LatitudeDegrees>39.70240627415478229522705078125</LatitudeDegrees>
              <LongitudeDegrees>-8.12825194559991359710693359375</LongitudeDegrees>
            </Position>
            <AltitudeMeters>432</AltitudeMeters>
            <DistanceMeters>17747.123623665</DistanceMeters>
          </Trackpoint>
          <Trackpoint>
            <Time>2018-09-13T08:13:44.000Z</Time>
            <Position>
              <LatitudeDegrees>39.70238582231104373931884765625</LatitudeDegrees>
              <LongitudeDegrees>-8.1284939311444759368896484375</LongitudeDegrees>
            </Position>
            <AltitudeMeters>432.20001220703125</AltitudeMeters>
            <DistanceMeters>17767.970241111</DistanceMeters>
          </Trackpoint>
          <Trackpoint>
            <Time>2018-09-13T08:13:47.000Z</Time>
            <Position>
              <LatitudeDegrees>39.70236553810536861419677734375</LatitudeDegrees>
              <LongitudeDegrees>-8.12859610654413700103759765625</LongitudeDegrees>
            </Position>
            <AltitudeMeters>432</AltitudeMeters>
            <DistanceMeters>17777.006777022</DistanceMeters>
          </Trackpoint>
          <Trackpoint>
            <Time>2018-09-13T08:13:52.000Z</Time>
            <Position>
              <LatitudeDegrees>39.70232077874243259429931640625</LatitudeDegrees>
              <LongitudeDegrees>-8.12876625917851924896240234375</LongitudeDegrees>
            </Position>
            <AltitudeMeters>431.79998779296875</AltitudeMeters>
            <DistanceMeters>17792.405210295</DistanceMeters>
          </Trackpoint>
          <Trackpoint>
            <Time>2018-09-13T08:13:59.000Z</Time>
            <Position>
              <LatitudeDegrees>39.70223863609135150909423828125</LatitudeDegrees>
              <LongitudeDegrees>-8.12899575568735599517822265625</LongitudeDegrees>
            </Position>
            <AltitudeMeters>432.600006103515625</AltitudeMeters>
            <DistanceMeters>17814.080051865</DistanceMeters>
          </Trackpoint>
          <Trackpoint>
            <Time>2018-09-13T08:14:06.000Z</Time>
            <Position>
              <LatitudeDegrees>39.70212179236114025115966796875</LatitudeDegrees>
              <LongitudeDegrees>-8.12920220196247100830078125</LongitudeDegrees>
            </Position>
            <AltitudeMeters>434.79998779296875</AltitudeMeters>
            <DistanceMeters>17836.026903064</DistanceMeters>
          </Trackpoint>
          <Trackpoint>
            <Time>2018-09-13T08:14:13.000Z</Time>
            <Position>
              <LatitudeDegrees>39.7019785456359386444091796875</LatitudeDegrees>
              <LongitudeDegrees>-8.12938283197581768035888671875</LongitudeDegrees>
            </Position>
            <AltitudeMeters>436.399993896484375</AltitudeMeters>
            <DistanceMeters>17858.240807659</DistanceMeters>
          </Trackpoint>
          <Trackpoint>
            <Time>2018-09-13T08:14:20.000Z</Time>
            <Position>
              <LatitudeDegrees>39.70182381570339202880859375</LatitudeDegrees>
              <LongitudeDegrees>-8.12953747808933258056640625</LongitudeDegrees>
            </Position>
            <AltitudeMeters>437.20001220703125</AltitudeMeters>
            <DistanceMeters>17879.965585573</DistanceMeters>
          </Trackpoint>
          <Trackpoint>
            <Time>2018-09-13T08:14:26.000Z</Time>
            <Position>
              <LatitudeDegrees>39.7016640566289424896240234375</LatitudeDegrees>
              <LongitudeDegrees>-8.12964334152638912200927734375</LongitudeDegrees>
            </Position>
            <AltitudeMeters>438.79998779296875</AltitudeMeters>
            <DistanceMeters>17899.924589113</DistanceMeters>
          </Trackpoint>
          <Trackpoint>
            <Time>2018-09-13T08:14:32.000Z</Time>
            <Position>
              <LatitudeDegrees>39.70148728229105472564697265625</LatitudeDegrees>
              <LongitudeDegrees>-8.12973084859549999237060546875</LongitudeDegrees>
            </Position>
            <AltitudeMeters>441.399993896484375</AltitudeMeters>
            <DistanceMeters>17920.978529183</DistanceMeters>
          </Trackpoint>
          <Trackpoint>
            <Time>2018-09-13T08:14:41.000Z</Time>
            <Position>
              <LatitudeDegrees>39.701205901801586151123046875</LatitudeDegrees>
              <LongitudeDegrees>-8.12983654439449310302734375</LongitudeDegrees>
            </Position>
            <AltitudeMeters>446.600006103515625</AltitudeMeters>
            <DistanceMeters>17953.578371157</DistanceMeters>
          </Trackpoint>
          <Trackpoint>
            <Time>2018-09-13T08:14:49.000Z</Time>
            <Position>
              <LatitudeDegrees>39.70096886157989501953125</LatitudeDegrees>
              <LongitudeDegrees>-8.12992396764457225799560546875</LongitudeDegrees>
            </Position>
            <AltitudeMeters>450.20001220703125</AltitudeMeters>
            <DistanceMeters>17981.003087509</DistanceMeters>
          </Trackpoint>
          <Trackpoint>
            <Time>2018-09-13T08:14:54.000Z</Time>
            <Position>
              <LatitudeDegrees>39.700818322598934173583984375</LatitudeDegrees>
              <LongitudeDegrees>-8.1299728341400623321533203125</LongitudeDegrees>
            </Position>
            <AltitudeMeters>452.600006103515625</AltitudeMeters>
            <DistanceMeters>17998.273130789</DistanceMeters>
          </Trackpoint>
          <Trackpoint>
            <Time>2018-09-13T08:15:00.000Z</Time>
            <Position>
              <LatitudeDegrees>39.70064221881330013275146484375</LatitudeDegrees>
              <LongitudeDegrees>-8.13004441559314727783203125</LongitudeDegrees>
            </Position>
            <AltitudeMeters>455</AltitudeMeters>
            <DistanceMeters>18018.80989661</DistanceMeters>
          </Trackpoint>
          <Trackpoint>
            <Time>2018-09-13T08:15:05.000Z</Time>
            <Position>
              <LatitudeDegrees>39.7005040012300014495849609375</LatitudeDegrees>
              <LongitudeDegrees>-8.13009269535541534423828125</LongitudeDegrees>
            </Position>
            <AltitudeMeters>457.20001220703125</AltitudeMeters>
            <DistanceMeters>18034.739276638</DistanceMeters>
          </Trackpoint>
          <Trackpoint>
            <Time>2018-09-13T08:15:10.000Z</Time>
            <Position>
              <LatitudeDegrees>39.70038003288209438323974609375</LatitudeDegrees>
              <LongitudeDegrees>-8.13016838394105434417724609375</LongitudeDegrees>
            </Position>
            <AltitudeMeters>459</AltitudeMeters>
            <DistanceMeters>18049.983883794</DistanceMeters>
          </Trackpoint>
          <Trackpoint>
            <Time>2018-09-13T08:15:15.000Z</Time>
            <Position>
              <LatitudeDegrees>39.7002562321722507476806640625</LatitudeDegrees>
              <LongitudeDegrees>-8.13029176555573940277099609375</LongitudeDegrees>
            </Position>
            <AltitudeMeters>460.20001220703125</AltitudeMeters>
            <DistanceMeters>18067.348049552</DistanceMeters>
          </Trackpoint>
          <Trackpoint>
            <Time>2018-09-13T08:15:21.000Z</Time>
            <Position>
              <LatitudeDegrees>39.7001395560801029205322265625</LatitudeDegrees>
              <LongitudeDegrees>-8.13049041666090488433837890625</LongitudeDegrees>
            </Position>
            <AltitudeMeters>460.399993896484375</AltitudeMeters>
            <DistanceMeters>18088.749955952</DistanceMeters>
          </Trackpoint>
          <Trackpoint>
            <Time>2018-09-13T08:15:28.000Z</Time>
            <Position>
              <LatitudeDegrees>39.70007409341633319854736328125</LatitudeDegrees>
              <LongitudeDegrees>-8.13075914047658443450927734375</LongitudeDegrees>
            </Position>
            <AltitudeMeters>459</AltitudeMeters>
            <DistanceMeters>18112.887863739</DistanceMeters>
          </Trackpoint>
          <Trackpoint>
            <Time>2018-09-13T08:15:34.000Z</Time>
            <Position>
              <LatitudeDegrees>39.70008079893887042999267578125</LatitudeDegrees>
              <LongitudeDegrees>-8.13099266029894351959228515625</LongitudeDegrees>
            </Position>
            <AltitudeMeters>457.399993896484375</AltitudeMeters>
            <DistanceMeters>18132.899506103</DistanceMeters>
          </Trackpoint>
          <Trackpoint>
            <Time>2018-09-13T08:15:39.000Z</Time>
            <Position>
              <LatitudeDegrees>39.70012455247342586517333984375</LatitudeDegrees>
              <LongitudeDegrees>-8.13117488287389278411865234375</LongitudeDegrees>
            </Position>
            <AltitudeMeters>458.20001220703125</AltitudeMeters>
            <DistanceMeters>18149.246310749</DistanceMeters>
          </Trackpoint>
          <Trackpoint>
            <Time>2018-09-13T08:15:44.000Z</Time>
            <Position>
              <LatitudeDegrees>39.70017970539629459381103515625</LatitudeDegrees>
              <LongitudeDegrees>-8.13135375268757343292236328125</LongitudeDegrees>
            </Position>
            <AltitudeMeters>459</AltitudeMeters>
            <DistanceMeters>18165.748158683</DistanceMeters>
          </Trackpoint>
          <Trackpoint>
            <Time>2018-09-13T08:15:49.000Z</Time>
            <Position>
              <LatitudeDegrees>39.7002374567091464996337890625</LatitudeDegrees>
              <LongitudeDegrees>-8.13153178431093692779541015625</LongitudeDegrees>
            </Position>
            <AltitudeMeters>459.79998779296875</AltitudeMeters>
            <DistanceMeters>18182.293453102</DistanceMeters>
          </Trackpoint>
          <Trackpoint>
            <Time>2018-09-13T08:15:56.000Z</Time>
            <Position>
              <LatitudeDegrees>39.70031213946640491485595703125</LatitudeDegrees>
              <LongitudeDegrees>-8.13178324140608310699462890625</LongitudeDegrees>
            </Position>
            <AltitudeMeters>461.20001220703125</AltitudeMeters>
            <DistanceMeters>18205.375753038</DistanceMeters>
          </Trackpoint>
          <Trackpoint>
            <Time>2018-09-13T08:16:01.000Z</Time>
            <Position>
              <LatitudeDegrees>39.70034533180296421051025390625</LatitudeDegrees>
              <LongitudeDegrees>-8.13196848146617412567138671875</LongitudeDegrees>
            </Position>
            <AltitudeMeters>461.399993896484375</AltitudeMeters>
            <DistanceMeters>18221.662788546</DistanceMeters>
          </Trackpoint>
          <Trackpoint>
            <Time>2018-09-13T08:16:05.000Z</Time>
            <Position>
              <LatitudeDegrees>39.70034918747842311859130859375</LatitudeDegrees>
              <LongitudeDegrees>-8.1321293301880359649658203125</LongitudeDegrees>
            </Position>
            <AltitudeMeters>462.20001220703125</AltitudeMeters>
            <DistanceMeters>18235.443300424</DistanceMeters>
          </Trackpoint>
          <Trackpoint>
            <Time>2018-09-13T08:16:10.000Z</Time>
            <Position>
              <LatitudeDegrees>39.7003427334129810333251953125</LatitudeDegrees>
              <LongitudeDegrees>-8.13233208842575550079345703125</LongitudeDegrees>
            </Position>
            <AltitudeMeters>463.20001220703125</AltitudeMeters>
            <DistanceMeters>18252.821501613</DistanceMeters>
          </Trackpoint>
          <Trackpoint>
            <Time>2018-09-13T08:16:18.000Z</Time>
            <Position>
              <LatitudeDegrees>39.7002776898443698883056640625</LatitudeDegrees>
              <LongitudeDegrees>-8.132642470300197601318359375</LongitudeDegrees>
            </Position>
            <AltitudeMeters>465.399993896484375</AltitudeMeters>
            <DistanceMeters>18280.369416677</DistanceMeters>
          </Trackpoint>
          <Trackpoint>
            <Time>2018-09-13T08:16:25.000Z</Time>
            <Position>
              <LatitudeDegrees>39.70017149113118648529052734375</LatitudeDegrees>
              <LongitudeDegrees>-8.13287640921771526336669921875</LongitudeDegrees>
            </Position>
            <AltitudeMeters>463.79998779296875</AltitudeMeters>
            <DistanceMeters>18303.63020171</DistanceMeters>
          </Trackpoint>
          <Trackpoint>
            <Time>2018-09-13T08:16:31.000Z</Time>
            <Position>
              <LatitudeDegrees>39.70006068237125873565673828125</LatitudeDegrees>
              <LongitudeDegrees>-8.13305787742137908935546875</LongitudeDegrees>
            </Position>
            <AltitudeMeters>463.399993896484375</AltitudeMeters>
            <DistanceMeters>18323.469859019</DistanceMeters>
          </Trackpoint>
          <Trackpoint>
            <Time>2018-09-13T08:16:37.000Z</Time>
            <Position>
              <LatitudeDegrees>39.69992238096892833709716796875</LatitudeDegrees>
              <LongitudeDegrees>-8.13320749439299106597900390625</LongitudeDegrees>
            </Position>
            <AltitudeMeters>463.79998779296875</AltitudeMeters>
            <DistanceMeters>18343.497964913</DistanceMeters>
          </Trackpoint>
          <Trackpoint>
            <Time>2018-09-13T08:16:43.000Z</Time>
            <Position>
              <LatitudeDegrees>39.69976346008479595184326171875</LatitudeDegrees>
              <LongitudeDegrees>-8.1333111785352230072021484375</LongitudeDegrees>
            </Position>
            <AltitudeMeters>465</AltitudeMeters>
            <DistanceMeters>18363.289545345</DistanceMeters>
          </Trackpoint>
          <Trackpoint>
            <Time>2018-09-13T08:16:49.000Z</Time>
            <Position>
              <LatitudeDegrees>39.69958526082336902618408203125</LatitudeDegrees>
              <LongitudeDegrees>-8.13338669948279857635498046875</LongitudeDegrees>
            </Position>
            <AltitudeMeters>466.79998779296875</AltitudeMeters>
            <DistanceMeters>18384.151318143</DistanceMeters>
          </Trackpoint>
          <Trackpoint>
            <Time>2018-09-13T08:16:56.000Z</Time>
            <Position>
              <LatitudeDegrees>39.69937001354992389678955078125</LatitudeDegrees>
              <LongitudeDegrees>-8.1334436126053333282470703125</LongitudeDegrees>
            </Position>
            <AltitudeMeters>468.79998779296875</AltitudeMeters>
            <DistanceMeters>18408.599606836</DistanceMeters>
          </Trackpoint>
          <Trackpoint>
            <Time>2018-09-13T08:17:02.000Z</Time>
            <Position>
              <LatitudeDegrees>39.69918787479400634765625</LatitudeDegrees>
              <LongitudeDegrees>-8.133490048348903656005859375</LongitudeDegrees>
            </Position>
            <AltitudeMeters>469.600006103515625</AltitudeMeters>
            <DistanceMeters>18429.258248439</DistanceMeters>
          </Trackpoint>
          <Trackpoint>
            <Time>2018-09-13T08:17:08.000Z</Time>
            <Position>
              <LatitudeDegrees>39.69900473020970821380615234375</LatitudeDegrees>
              <LongitudeDegrees>-8.1335307843983173370361328125</LongitudeDegrees>
            </Position>
            <AltitudeMeters>470.600006103515625</AltitudeMeters>
            <DistanceMeters>18449.938733939</DistanceMeters>
          </Trackpoint>
          <Trackpoint>
            <Time>2018-09-13T08:17:13.000Z</Time>
            <Position>
              <LatitudeDegrees>39.6988577954471111297607421875</LatitudeDegrees>
              <LongitudeDegrees>-8.13356892205774784088134765625</LongitudeDegrees>
            </Position>
            <AltitudeMeters>471.399993896484375</AltitudeMeters>
            <DistanceMeters>18466.615854628</DistanceMeters>
          </Trackpoint>
          <Trackpoint>
            <Time>2018-09-13T08:17:19.000Z</Time>
            <Position>
              <LatitudeDegrees>39.6986804343760013580322265625</LatitudeDegrees>
              <LongitudeDegrees>-8.1336204707622528076171875</LongitudeDegrees>
            </Position>
            <AltitudeMeters>472</AltitudeMeters>
            <DistanceMeters>18486.844049157</DistanceMeters>
          </Trackpoint>
          <Trackpoint>
            <Time>2018-09-13T08:17:25.000Z</Time>
            <Position>
              <LatitudeDegrees>39.69850164838135242462158203125</LatitudeDegrees>
              <LongitudeDegrees>-8.13366313464939594268798828125</LongitudeDegrees>
            </Position>
            <AltitudeMeters>473.600006103515625</AltitudeMeters>
            <DistanceMeters>18507.076037819</DistanceMeters>
          </Trackpoint>
          <Trackpoint>
            <Time>2018-09-13T08:17:31.000Z</Time>
            <Position>
              <LatitudeDegrees>39.6983243711292743682861328125</LatitudeDegrees>
              <LongitudeDegrees>-8.13370764255523681640625</LongitudeDegrees>
            </Position>
            <AltitudeMeters>475.600006103515625</AltitudeMeters>
            <DistanceMeters>18527.172334465</DistanceMeters>
          </Trackpoint>
          <Trackpoint>
            <Time>2018-09-13T08:17:36.000Z</Time>
            <Position>
              <LatitudeDegrees>39.6981778554618358612060546875</LatitudeDegrees>
              <LongitudeDegrees>-8.13374276272952556610107421875</LongitudeDegrees>
            </Position>
            <AltitudeMeters>477.399993896484375</AltitudeMeters>
            <DistanceMeters>18543.754972611</DistanceMeters>
          </Trackpoint>
          <Trackpoint>
            <Time>2018-09-13T08:17:42.000Z</Time>
            <Position>
              <LatitudeDegrees>39.698007367551326751708984375</LatitudeDegrees>
              <LongitudeDegrees>-8.1337959878146648406982421875</LongitudeDegrees>
            </Position>
            <AltitudeMeters>479.20001220703125</AltitudeMeters>
            <DistanceMeters>18563.270415319</DistanceMeters>
          </Trackpoint>
          <Trackpoint>
            <Time>2018-09-13T08:17:47.000Z</Time>
            <Position>
              <LatitudeDegrees>39.69786412082612514495849609375</LatitudeDegrees>
              <LongitudeDegrees>-8.13385181128978729248046875</LongitudeDegrees>
            </Position>
            <AltitudeMeters>480.20001220703125</AltitudeMeters>
            <DistanceMeters>18579.915558919</DistanceMeters>
          </Trackpoint>
          <Trackpoint>
            <Time>2018-09-13T08:17:55.000Z</Time>
            <Position>
              <LatitudeDegrees>39.69762020744383335113525390625</LatitudeDegrees>
              <LongitudeDegrees>-8.133919201791286468505859375</LongitudeDegrees>
            </Position>
            <AltitudeMeters>481.399993896484375</AltitudeMeters>
            <DistanceMeters>18607.670192786</DistanceMeters>
          </Trackpoint>
          <Trackpoint>
            <Time>2018-09-13T08:18:01.000Z</Time>
            <Position>
              <LatitudeDegrees>39.69744334928691387176513671875</LatitudeDegrees>
              <LongitudeDegrees>-8.13396287150681018829345703125</LongitudeDegrees>
            </Position>
            <AltitudeMeters>482.399993896484375</AltitudeMeters>
            <DistanceMeters>18627.707088721</DistanceMeters>
          </Trackpoint>
          <Trackpoint>
            <Time>2018-09-13T08:18:07.000Z</Time>
            <Position>
              <LatitudeDegrees>39.6972635574638843536376953125</LatitudeDegrees>
              <LongitudeDegrees>-8.1340025179088115692138671875</LongitudeDegrees>
            </Position>
            <AltitudeMeters>483.399993896484375</AltitudeMeters>
            <DistanceMeters>18648.004136475</DistanceMeters>
          </Trackpoint>
          <Trackpoint>
            <Time>2018-09-13T08:18:13.000Z</Time>
            <Position>
              <LatitudeDegrees>39.69708569347858428955078125</LatitudeDegrees>
              <LongitudeDegrees>-8.134041242301464080810546875</LongitudeDegrees>
            </Position>
            <AltitudeMeters>483.399993896484375</AltitudeMeters>
            <DistanceMeters>18668.077053825</DistanceMeters>
          </Trackpoint>
          <Trackpoint>
            <Time>2018-09-13T08:18:19.000Z</Time>
            <Position>
              <LatitudeDegrees>39.6969118528068065643310546875</LatitudeDegrees>
              <LongitudeDegrees>-8.13409882597625255584716796875</LongitudeDegrees>
            </Position>
            <AltitudeMeters>485.79998779296875</AltitudeMeters>
            <DistanceMeters>18688.044651708</DistanceMeters>
          </Trackpoint>
          <Trackpoint>
            <Time>2018-09-13T08:18:23.000Z</Time>
            <Position>
              <LatitudeDegrees>39.69680096022784709930419921875</LatitudeDegrees>
              <LongitudeDegrees>-8.134148530662059783935546875</LongitudeDegrees>
            </Position>
            <AltitudeMeters>487.600006103515625</AltitudeMeters>
            <DistanceMeters>18701.100367811</DistanceMeters>
          </Trackpoint>
          <Trackpoint>
            <Time>2018-09-13T08:18:31.000Z</Time>
            <Position>
              <LatitudeDegrees>39.6965950168669223785400390625</LatitudeDegrees>
              <LongitudeDegrees>-8.13429881818592548370361328125</LongitudeDegrees>
            </Position>
            <AltitudeMeters>490</AltitudeMeters>
            <DistanceMeters>18727.388439634</DistanceMeters>
          </Trackpoint>
          <Trackpoint>
            <Time>2018-09-13T08:18:37.000Z</Time>
            <Position>
              <LatitudeDegrees>39.69647088088095188140869140625</LatitudeDegrees>
              <LongitudeDegrees>-8.13446067273616790771484375</LongitudeDegrees>
            </Position>
            <AltitudeMeters>493</AltitudeMeters>
            <DistanceMeters>18746.959790701</DistanceMeters>
          </Trackpoint>
          <Trackpoint>
            <Time>2018-09-13T08:18:41.000Z</Time>
            <Position>
              <LatitudeDegrees>39.696404747664928436279296875</LatitudeDegrees>
              <LongitudeDegrees>-8.134589083492755889892578125</LongitudeDegrees>
            </Position>
            <AltitudeMeters>494.600006103515625</AltitudeMeters>
            <DistanceMeters>18760.192751156</DistanceMeters>
          </Trackpoint>
          <Trackpoint>
            <Time>2018-09-13T08:18:47.000Z</Time>
            <Position>
              <LatitudeDegrees>39.6963177435100078582763671875</LatitudeDegrees>
              <LongitudeDegrees>-8.13478999771177768707275390625</LongitudeDegrees>
            </Position>
            <AltitudeMeters>496.399993896484375</AltitudeMeters>
            <DistanceMeters>18779.937281038</DistanceMeters>
          </Trackpoint>
          <Trackpoint>
            <Time>2018-09-13T08:18:52.000Z</Time>
            <Position>
              <LatitudeDegrees>39.69625244848430156707763671875</LatitudeDegrees>
              <LongitudeDegrees>-8.13496585004031658172607421875</LongitudeDegrees>
            </Position>
            <AltitudeMeters>497.79998779296875</AltitudeMeters>
            <DistanceMeters>18796.659282926</DistanceMeters>
          </Trackpoint>
          <Trackpoint>
            <Time>2018-09-13T08:18:56.000Z</Time>
            <Position>
              <LatitudeDegrees>39.6962050907313823699951171875</LatitudeDegrees>
              <LongitudeDegrees>-8.135115802288055419921875</LongitudeDegrees>
            </Position>
            <AltitudeMeters>498.600006103515625</AltitudeMeters>
            <DistanceMeters>18810.540991442</DistanceMeters>
          </Trackpoint>
          <Trackpoint>
            <Time>2018-09-13T08:19:03.000Z</Time>
            <Position>
              <LatitudeDegrees>39.69611599110066890716552734375</LatitudeDegrees>
              <LongitudeDegrees>-8.13536331988871097564697265625</LongitudeDegrees>
            </Position>
            <AltitudeMeters>497.79998779296875</AltitudeMeters>
            <DistanceMeters>18833.943430125</DistanceMeters>
          </Trackpoint>
          <Trackpoint>
            <Time>2018-09-13T08:19:08.000Z</Time>
            <Position>
              <LatitudeDegrees>39.69605513848364353179931640625</LatitudeDegrees>
              <LongitudeDegrees>-8.135539926588535308837890625</LongitudeDegrees>
            </Position>
            <AltitudeMeters>497</AltitudeMeters>
            <DistanceMeters>18850.515446143</DistanceMeters>
          </Trackpoint>
          <Trackpoint>
            <Time>2018-09-13T08:19:13.000Z</Time>
            <Position>
              <LatitudeDegrees>39.69599043019115924835205078125</LatitudeDegrees>
              <LongitudeDegrees>-8.13571183942258358001708984375</LongitudeDegrees>
            </Position>
            <AltitudeMeters>496.399993896484375</AltitudeMeters>
            <DistanceMeters>18866.905557312</DistanceMeters>
          </Trackpoint>
          <Trackpoint>
            <Time>2018-09-13T08:19:20.000Z</Time>
            <Position>
              <LatitudeDegrees>39.69589940272271633148193359375</LatitudeDegrees>
              <LongitudeDegrees>-8.13596564345061779022216796875</LongitudeDegrees>
            </Position>
            <AltitudeMeters>495.600006103515625</AltitudeMeters>
            <DistanceMeters>18890.886956532</DistanceMeters>
          </Trackpoint>
          <Trackpoint>
            <Time>2018-09-13T08:19:26.000Z</Time>
            <Position>
              <LatitudeDegrees>39.69582773745059967041015625</LatitudeDegrees>
              <LongitudeDegrees>-8.13619480468332767486572265625</LongitudeDegrees>
            </Position>
            <AltitudeMeters>495</AltitudeMeters>
            <DistanceMeters>18912.071307811</DistanceMeters>
          </Trackpoint>
          <Trackpoint>
            <Time>2018-09-13T08:19:33.000Z</Time>
            <Position>
              <LatitudeDegrees>39.6957377158105373382568359375</LatitudeDegrees>
              <LongitudeDegrees>-8.13646805472671985626220703125</LongitudeDegrees>
            </Position>
            <AltitudeMeters>494.600006103515625</AltitudeMeters>
            <DistanceMeters>18937.527472993</DistanceMeters>
          </Trackpoint>
          <Trackpoint>
            <Time>2018-09-13T08:19:39.000Z</Time>
            <Position>
              <LatitudeDegrees>39.6956562437117099761962890625</LatitudeDegrees>
              <LongitudeDegrees>-8.13670031726360321044921875</LongitudeDegrees>
            </Position>
            <AltitudeMeters>494.79998779296875</AltitudeMeters>
            <DistanceMeters>18959.388161582</DistanceMeters>
          </Trackpoint>
          <Trackpoint>
            <Time>2018-09-13T08:19:46.000Z</Time>
            <Position>
              <LatitudeDegrees>39.69555641524493694305419921875</LatitudeDegrees>
              <LongitudeDegrees>-8.13696912489831447601318359375</LongitudeDegrees>
            </Position>
            <AltitudeMeters>495</AltitudeMeters>
            <DistanceMeters>18984.950524376</DistanceMeters>
          </Trackpoint>
          <Trackpoint>
            <Time>2018-09-13T08:19:55.000Z</Time>
            <Position>
              <LatitudeDegrees>39.6954245679080486297607421875</LatitudeDegrees>
              <LongitudeDegrees>-8.1373237632215023040771484375</LongitudeDegrees>
            </Position>
            <AltitudeMeters>495</AltitudeMeters>
            <DistanceMeters>19018.681795654</DistanceMeters>
          </Trackpoint>
          <Trackpoint>
            <Time>2018-09-13T08:20:01.000Z</Time>
            <Position>
              <LatitudeDegrees>39.69530931673943996429443359375</LatitudeDegrees>
              <LongitudeDegrees>-8.13757463358342647552490234375</LongitudeDegrees>
            </Position>
            <AltitudeMeters>494.600006103515625</AltitudeMeters>
            <DistanceMeters>19043.704695179</DistanceMeters>
          </Trackpoint>
          <Trackpoint>
            <Time>2018-09-13T08:20:09.000Z</Time>
            <Position>
              <LatitudeDegrees>39.69507613219320774078369140625</LatitudeDegrees>
              <LongitudeDegrees>-8.13790622167289257049560546875</LongitudeDegrees>
            </Position>
            <AltitudeMeters>494.20001220703125</AltitudeMeters>
            <DistanceMeters>19082.175847087</DistanceMeters>
          </Trackpoint>
          <Trackpoint>
            <Time>2018-09-13T08:20:19.000Z</Time>
            <Position>
              <LatitudeDegrees>39.69465569593012332916259765625</LatitudeDegrees>
              <LongitudeDegrees>-8.13829849474132061004638671875</LongitudeDegrees>
            </Position>
            <AltitudeMeters>495</AltitudeMeters>
            <DistanceMeters>19139.781790637</DistanceMeters>
          </Trackpoint>
          <Trackpoint>
            <Time>2018-09-13T08:20:21.000Z</Time>
            <Position>
              <LatitudeDegrees>39.694558046758174896240234375</LatitudeDegrees>
              <LongitudeDegrees>-8.13837996684014797210693359375</LongitudeDegrees>
            </Position>
            <AltitudeMeters>495.20001220703125</AltitudeMeters>
            <DistanceMeters>19152.69703636</DistanceMeters>
          </Trackpoint>
          <Trackpoint>
            <Time>2018-09-13T08:20:27.000Z</Time>
            <Position>
              <LatitudeDegrees>39.69426241703331470489501953125</LatitudeDegrees>
              <LongitudeDegrees>-8.1386397220194339752197265625</LongitudeDegrees>
            </Position>
            <AltitudeMeters>494.79998779296875</AltitudeMeters>
            <DistanceMeters>19192.41581586</DistanceMeters>
          </Trackpoint>
          <Trackpoint>
            <Time>2018-09-13T08:20:30.000Z</Time>
            <Position>
              <LatitudeDegrees>39.6941171586513519287109375</LatitudeDegrees>
              <LongitudeDegrees>-8.13876754604279994964599609375</LongitudeDegrees>
            </Position>
            <AltitudeMeters>494.600006103515625</AltitudeMeters>
            <DistanceMeters>19211.940973153</DistanceMeters>
          </Trackpoint>
          <Trackpoint>
            <Time>2018-09-13T08:20:39.000Z</Time>
            <Position>
              <LatitudeDegrees>39.693654812872409820556640625</LatitudeDegrees>
              <LongitudeDegrees>-8.1391694582998752593994140625</LongitudeDegrees>
            </Position>
            <AltitudeMeters>493.79998779296875</AltitudeMeters>
            <DistanceMeters>19273.851734477</DistanceMeters>
          </Trackpoint>
          <Trackpoint>
            <Time>2018-09-13T08:20:45.000Z</Time>
            <Position>
              <LatitudeDegrees>39.6933304332196712493896484375</LatitudeDegrees>
              <LongitudeDegrees>-8.13945033587515354156494140625</LongitudeDegrees>
            </Position>
            <AltitudeMeters>493.20001220703125</AltitudeMeters>
            <DistanceMeters>19317.235774786</DistanceMeters>
          </Trackpoint>
          <Trackpoint>
            <Time>2018-09-13T08:20:46.000Z</Time>
            <Position>
              <LatitudeDegrees>39.69327804632484912872314453125</LatitudeDegrees>
              <LongitudeDegrees>-8.139495514333248138427734375</LongitudeDegrees>
            </Position>
            <AltitudeMeters>493.20001220703125</AltitudeMeters>
            <DistanceMeters>19324.232993839</DistanceMeters>
          </Trackpoint>
          <Trackpoint>
            <Time>2018-09-13T08:20:53.000Z</Time>
            <Position>
              <LatitudeDegrees>39.69292483292520046234130859375</LatitudeDegrees>
              <LongitudeDegrees>-8.1398058123886585235595703125</LongitudeDegrees>
            </Position>
            <AltitudeMeters>493.20001220703125</AltitudeMeters>
            <DistanceMeters>19371.685875547</DistanceMeters>
          </Trackpoint>
          <Trackpoint>
            <Time>2018-09-13T08:20:55.000Z</Time>
            <Position>
              <LatitudeDegrees>39.6928375773131847381591796875</LatitudeDegrees>
              <LongitudeDegrees>-8.1398822553455829620361328125</LongitudeDegrees>
            </Position>
            <AltitudeMeters>493.399993896484375</AltitudeMeters>
            <DistanceMeters>19383.398472242</DistanceMeters>
          </Trackpoint>
          <Trackpoint>
            <Time>2018-09-13T08:20:57.000Z</Time>
            <Position>
              <LatitudeDegrees>39.69279206357896327972412109375</LatitudeDegrees>
              <LongitudeDegrees>-8.1399342231452465057373046875</LongitudeDegrees>
            </Position>
            <AltitudeMeters>493.20001220703125</AltitudeMeters>
            <DistanceMeters>19390.142022121</DistanceMeters>
          </Trackpoint>
          <Trackpoint>
            <Time>2018-09-13T08:20:59.000Z</Time>
            <Position>
              <LatitudeDegrees>39.6927678398787975311279296875</LatitudeDegrees>
              <LongitudeDegrees>-8.13996230252087116241455078125</LongitudeDegrees>
            </Position>
            <AltitudeMeters>493.20001220703125</AltitudeMeters>
            <DistanceMeters>19393.755537105</DistanceMeters>
          </Trackpoint>
          <Trackpoint>
            <Time>2018-09-13T08:21:02.000Z</Time>
            <Position>
              <LatitudeDegrees>39.6927574463188648223876953125</LatitudeDegrees>
              <LongitudeDegrees>-8.13997797667980194091796875</LongitudeDegrees>
            </Position>
            <AltitudeMeters>493.20001220703125</AltitudeMeters>
            <DistanceMeters>19395.528237475</DistanceMeters>
          </Trackpoint>
          <Trackpoint>
            <Time>2018-09-13T08:21:49.000Z</Time>
            <Position>
              <LatitudeDegrees>39.69269600696861743927001953125</LatitudeDegrees>
              <LongitudeDegrees>-8.1400140188634395599365234375</LongitudeDegrees>
            </Position>
            <AltitudeMeters>493.399993896484375</AltitudeMeters>
            <DistanceMeters>19403.031136685</DistanceMeters>
          </Trackpoint>
          <Trackpoint>
            <Time>2018-09-13T08:22:01.000Z</Time>
            <Position>
              <LatitudeDegrees>39.6922773309051990509033203125</LatitudeDegrees>
              <LongitudeDegrees>-8.1403152644634246826171875</LongitudeDegrees>
            </Position>
            <AltitudeMeters>490.20001220703125</AltitudeMeters>
            <DistanceMeters>19456.296131925</DistanceMeters>
          </Trackpoint>
          <Trackpoint>
            <Time>2018-09-13T08:22:06.000Z</Time>
            <Position>
              <LatitudeDegrees>39.692010618746280670166015625</LatitudeDegrees>
              <LongitudeDegrees>-8.14045834355056285858154296875</LongitudeDegrees>
            </Position>
            <AltitudeMeters>488.20001220703125</AltitudeMeters>
            <DistanceMeters>19488.411225123</DistanceMeters>
          </Trackpoint>
          <Trackpoint>
            <Time>2018-09-13T08:22:07.000Z</Time>
            <Position>
              <LatitudeDegrees>39.691951610147953033447265625</LatitudeDegrees>
              <LongitudeDegrees>-8.14047695137560367584228515625</LongitudeDegrees>
            </Position>
            <AltitudeMeters>487.79998779296875</AltitudeMeters>
            <DistanceMeters>19495.169488706</DistanceMeters>
          </Trackpoint>
          <Trackpoint>
            <Time>2018-09-13T08:22:12.000Z</Time>
            <Position>
              <LatitudeDegrees>39.691639132797718048095703125</LatitudeDegrees>
              <LongitudeDegrees>-8.14056881703436374664306640625</LongitudeDegrees>
            </Position>
            <AltitudeMeters>486.79998779296875</AltitudeMeters>
            <DistanceMeters>19530.827812194</DistanceMeters>
          </Trackpoint>
          <Trackpoint>
            <Time>2018-09-13T08:22:15.000Z</Time>
            <Position>
              <LatitudeDegrees>39.691427908837795257568359375</LatitudeDegrees>
              <LongitudeDegrees>-8.1406087987124919891357421875</LongitudeDegrees>
            </Position>
            <AltitudeMeters>484.600006103515625</AltitudeMeters>
            <DistanceMeters>19554.585441035</DistanceMeters>
          </Trackpoint>
          <Trackpoint>
            <Time>2018-09-13T08:22:17.000Z</Time>
            <Position>
              <LatitudeDegrees>39.69127594493329524993896484375</LatitudeDegrees>
              <LongitudeDegrees>-8.1406262330710887908935546875</LongitudeDegrees>
            </Position>
            <AltitudeMeters>482.399993896484375</AltitudeMeters>
            <DistanceMeters>19571.564670126</DistanceMeters>
          </Trackpoint>
          <Trackpoint>
            <Time>2018-09-13T08:22:20.000Z</Time>
            <Position>
              <LatitudeDegrees>39.69103923998773097991943359375</LatitudeDegrees>
              <LongitudeDegrees>-8.14065146259963512420654296875</LongitudeDegrees>
            </Position>
            <AltitudeMeters>481.20001220703125</AltitudeMeters>
            <DistanceMeters>19597.998840728</DistanceMeters>
          </Trackpoint>
          <Trackpoint>
            <Time>2018-09-13T08:22:21.000Z</Time>
            <Position>
              <LatitudeDegrees>39.69096363522112369537353515625</LatitudeDegrees>
              <LongitudeDegrees>-8.140653558075428009033203125</LongitudeDegrees>
            </Position>
            <AltitudeMeters>481</AltitudeMeters>
            <DistanceMeters>19606.416083731</DistanceMeters>
          </Trackpoint>
          <Trackpoint>
            <Time>2018-09-13T08:22:22.000Z</Time>
            <Position>
              <LatitudeDegrees>39.69089440070092678070068359375</LatitudeDegrees>
              <LongitudeDegrees>-8.14063905738294124603271484375</LongitudeDegrees>
            </Position>
            <AltitudeMeters>481</AltitudeMeters>
            <DistanceMeters>19614.222168271</DistanceMeters>
          </Trackpoint>
          <Trackpoint>
            <Time>2018-09-13T08:22:24.000Z</Time>
            <Position>
              <LatitudeDegrees>39.69078878872096538543701171875</LatitudeDegrees>
              <LongitudeDegrees>-8.140544258058071136474609375</LongitudeDegrees>
            </Position>
            <AltitudeMeters>481</AltitudeMeters>
            <DistanceMeters>19628.508447975</DistanceMeters>
          </Trackpoint>
          <Trackpoint>
            <Time>2018-09-13T08:22:26.000Z</Time>
            <Position>
              <LatitudeDegrees>39.69075568020343780517578125</LatitudeDegrees>
              <LongitudeDegrees>-8.1403901986777782440185546875</LongitudeDegrees>
            </Position>
            <AltitudeMeters>480.79998779296875</AltitudeMeters>
            <DistanceMeters>19642.208123476</DistanceMeters>
          </Trackpoint>
          <Trackpoint>
            <Time>2018-09-13T08:22:30.000Z</Time>
            <Position>
              <LatitudeDegrees>39.69084553420543670654296875</LatitudeDegrees>
              <LongitudeDegrees>-8.14014066942036151885986328125</LongitudeDegrees>
            </Position>
            <AltitudeMeters>480.79998779296875</AltitudeMeters>
            <DistanceMeters>19665.803851759</DistanceMeters>
          </Trackpoint>
          <Trackpoint>
            <Time>2018-09-13T08:22:34.000Z</Time>
            <Position>
              <LatitudeDegrees>39.6909575164318084716796875</LatitudeDegrees>
              <LongitudeDegrees>-8.139970265328884124755859375</LongitudeDegrees>
            </Position>
            <AltitudeMeters>481.399993896484375</AltitudeMeters>
            <DistanceMeters>19684.996190028</DistanceMeters>
          </Trackpoint>
          <Trackpoint>
            <Time>2018-09-13T08:22:36.000Z</Time>
            <Position>
              <LatitudeDegrees>39.6910032816231250762939453125</LatitudeDegrees>
              <LongitudeDegrees>-8.13989407382905483245849609375</LongitudeDegrees>
            </Position>
            <AltitudeMeters>481.79998779296875</AltitudeMeters>
            <DistanceMeters>19693.274429583</DistanceMeters>
          </Trackpoint>
          <Trackpoint>
            <Time>2018-09-13T08:22:40.000Z</Time>
            <Position>
              <LatitudeDegrees>39.691071845591068267822265625</LatitudeDegrees>
              <LongitudeDegrees>-8.1397350691258907318115234375</LongitudeDegrees>
            </Position>
            <AltitudeMeters>482.399993896484375</AltitudeMeters>
            <DistanceMeters>19708.884863367</DistanceMeters>
          </Trackpoint>
          <Trackpoint>
            <Time>2018-09-13T08:22:42.000Z</Time>
            <Position>
              <LatitudeDegrees>39.69109456054866313934326171875</LatitudeDegrees>
              <LongitudeDegrees>-8.13964948989450931549072265625</LongitudeDegrees>
            </Position>
            <AltitudeMeters>482.79998779296875</AltitudeMeters>
            <DistanceMeters>19716.638134863</DistanceMeters>
          </Trackpoint>
          <Trackpoint>
            <Time>2018-09-13T08:22:44.000Z</Time>
            <Position>
              <LatitudeDegrees>39.69111585058271884918212890625</LatitudeDegrees>
              <LongitudeDegrees>-8.1395647488534450531005859375</LongitudeDegrees>
            </Position>
            <AltitudeMeters>483</AltitudeMeters>
            <DistanceMeters>19724.272867566</DistanceMeters>
          </Trackpoint>
          <Trackpoint>
            <Time>2018-09-13T08:22:47.000Z</Time>
            <Position>
              <LatitudeDegrees>39.69114786945283412933349609375</LatitudeDegrees>
              <LongitudeDegrees>-8.139440529048442840576171875</LongitudeDegrees>
            </Position>
            <AltitudeMeters>483.399993896484375</AltitudeMeters>
            <DistanceMeters>19735.493265321</DistanceMeters>
          </Trackpoint>
          <Trackpoint>
            <Time>2018-09-13T08:22:54.000Z</Time>
            <Position>
              <LatitudeDegrees>39.69121006317436695098876953125</LatitudeDegrees>
              <LongitudeDegrees>-8.13915378414094448089599609375</LongitudeDegrees>
            </Position>
            <AltitudeMeters>483.79998779296875</AltitudeMeters>
            <DistanceMeters>19761.00895562</DistanceMeters>
          </Trackpoint>
          <Trackpoint>
            <Time>2018-09-13T08:22:58.000Z</Time>
            <Position>
              <LatitudeDegrees>39.6912510506808757781982421875</LatitudeDegrees>
              <LongitudeDegrees>-8.13899486325681209564208984375</LongitudeDegrees>
            </Position>
            <AltitudeMeters>483.79998779296875</AltitudeMeters>
            <DistanceMeters>19775.364595787</DistanceMeters>
          </Trackpoint>
          <Trackpoint>
            <Time>2018-09-13T08:23:00.000Z</Time>
            <Position>
              <LatitudeDegrees>39.691267311573028564453125</LatitudeDegrees>
              <LongitudeDegrees>-8.13891624100506305694580078125</LongitudeDegrees>
            </Position>
            <AltitudeMeters>483.79998779296875</AltitudeMeters>
            <DistanceMeters>19782.337251779</DistanceMeters>
          </Trackpoint>
          <Trackpoint>
            <Time>2018-09-13T08:23:04.000Z</Time>
            <Position>
              <LatitudeDegrees>39.69131886027753353118896484375</LatitudeDegrees>
              <LongitudeDegrees>-8.13876586966216564178466796875</LongitudeDegrees>
            </Position>
            <AltitudeMeters>484</AltitudeMeters>
            <DistanceMeters>19796.436475262</DistanceMeters>
          </Trackpoint>
          <Trackpoint>
            <Time>2018-09-13T08:23:10.000Z</Time>
            <Position>
              <LatitudeDegrees>39.6914324350655078887939453125</LatitudeDegrees>
              <LongitudeDegrees>-8.1385552324354648590087890625</LongitudeDegrees>
            </Position>
            <AltitudeMeters>485</AltitudeMeters>
            <DistanceMeters>19818.464848281</DistanceMeters>
          </Trackpoint>
          <Trackpoint>
            <Time>2018-09-13T08:23:15.000Z</Time>
            <Position>
              <LatitudeDegrees>39.6915410645306110382080078125</LatitudeDegrees>
              <LongitudeDegrees>-8.13839538954198360443115234375</LongitudeDegrees>
            </Position>
            <AltitudeMeters>486</AltitudeMeters>
            <DistanceMeters>19836.729269542</DistanceMeters>
          </Trackpoint>
          <Trackpoint>
            <Time>2018-09-13T08:23:20.000Z</Time>
            <Position>
              <LatitudeDegrees>39.6916641108691692352294921875</LatitudeDegrees>
              <LongitudeDegrees>-8.13825792632997035980224609375</LongitudeDegrees>
            </Position>
            <AltitudeMeters>486.600006103515625</AltitudeMeters>
            <DistanceMeters>19854.789345986</DistanceMeters>
          </Trackpoint>
          <Trackpoint>
            <Time>2018-09-13T08:23:25.000Z</Time>
            <Position>
              <LatitudeDegrees>39.691799394786357879638671875</LatitudeDegrees>
              <LongitudeDegrees>-8.13815114088356494903564453125</LongitudeDegrees>
            </Position>
            <AltitudeMeters>487.600006103515625</AltitudeMeters>
            <DistanceMeters>19872.406745268</DistanceMeters>
          </Trackpoint>
          <Trackpoint>
            <Time>2018-09-13T08:23:29.000Z</Time>
            <Position>
              <LatitudeDegrees>39.69191749580204486846923828125</LatitudeDegrees>
              <LongitudeDegrees>-8.138101436197757720947265625</LongitudeDegrees>
            </Position>
            <AltitudeMeters>489</AltitudeMeters>
            <DistanceMeters>19886.223904027</DistanceMeters>
          </Trackpoint>
          <Trackpoint>
            <Time>2018-09-13T08:23:35.000Z</Time>
            <Position>
              <LatitudeDegrees>39.69209569506347179412841796875</LatitudeDegrees>
              <LongitudeDegrees>-8.13805860467255115509033203125</LongitudeDegrees>
            </Position>
            <AltitudeMeters>491.20001220703125</AltitudeMeters>
            <DistanceMeters>19906.394205564</DistanceMeters>
          </Trackpoint>
          <Trackpoint>
            <Time>2018-09-13T08:23:40.000Z</Time>
            <Position>
              <LatitudeDegrees>39.6922498382627964019775390625</LatitudeDegrees>
              <LongitudeDegrees>-8.13803815282881259918212890625</LongitudeDegrees>
            </Position>
            <AltitudeMeters>493.20001220703125</AltitudeMeters>
            <DistanceMeters>19923.640179814</DistanceMeters>
          </Trackpoint>
          <Trackpoint>
            <Time>2018-09-13T08:23:46.000Z</Time>
            <Position>
              <LatitudeDegrees>39.692427702248096466064453125</LatitudeDegrees>
              <LongitudeDegrees>-8.13802071847021579742431640625</LongitudeDegrees>
            </Position>
            <AltitudeMeters>495.600006103515625</AltitudeMeters>
            <DistanceMeters>19943.493259591</DistanceMeters>
          </Trackpoint>
          <Trackpoint>
            <Time>2018-09-13T08:23:49.000Z</Time>
            <Position>
              <LatitudeDegrees>39.69251160509884357452392578125</LatitudeDegrees>
              <LongitudeDegrees>-8.1380139291286468505859375</LongitudeDegrees>
            </Position>
            <AltitudeMeters>496.20001220703125</AltitudeMeters>
            <DistanceMeters>19952.849893127</DistanceMeters>
          </Trackpoint>
          <Trackpoint>
            <Time>2018-09-13T08:23:52.000Z</Time>
            <Position>
              <LatitudeDegrees>39.69259173609316349029541015625</LatitudeDegrees>
              <LongitudeDegrees>-8.13801183365285396575927734375</LongitudeDegrees>
            </Position>
            <AltitudeMeters>496.600006103515625</AltitudeMeters>
            <DistanceMeters>19961.770771094</DistanceMeters>
          </Trackpoint>
          <Trackpoint>
            <Time>2018-09-13T08:23:57.000Z</Time>
            <Position>
              <LatitudeDegrees>39.6927063167095184326171875</LatitudeDegrees>
              <LongitudeDegrees>-8.13797595910727977752685546875</LongitudeDegrees>
            </Position>
            <AltitudeMeters>497</AltitudeMeters>
            <DistanceMeters>19974.889276987</DistanceMeters>
          </Trackpoint>
          <Trackpoint>
            <Time>2018-09-13T08:24:01.000Z</Time>
            <Position>
              <LatitudeDegrees>39.69280061312019824981689453125</LatitudeDegrees>
              <LongitudeDegrees>-8.137951232492923736572265625</LongitudeDegrees>
            </Position>
            <AltitudeMeters>497.399993896484375</AltitudeMeters>
            <DistanceMeters>19985.596557246</DistanceMeters>
          </Trackpoint>
          <Trackpoint>
            <Time>2018-09-13T08:24:04.000Z</Time>
            <Position>
              <LatitudeDegrees>39.69286750070750713348388671875</LatitudeDegrees>
              <LongitudeDegrees>-8.13793480396270751953125</LongitudeDegrees>
            </Position>
            <AltitudeMeters>497.600006103515625</AltitudeMeters>
            <DistanceMeters>19993.172516979</DistanceMeters>
          </Trackpoint>
          <Trackpoint>
            <Time>2018-09-13T08:24:09.000Z</Time>
            <Position>
              <LatitudeDegrees>39.69297177158296108245849609375</LatitudeDegrees>
              <LongitudeDegrees>-8.13788124360144138336181640625</LongitudeDegrees>
            </Position>
            <AltitudeMeters>498.600006103515625</AltitudeMeters>
            <DistanceMeters>20005.651807758</DistanceMeters>
          </Trackpoint>
          <Trackpoint>
            <Time>2018-09-13T08:24:13.000Z</Time>
            <Position>
              <LatitudeDegrees>39.69305098056793212890625</LatitudeDegrees>
              <LongitudeDegrees>-8.13783095218241214752197265625</LongitudeDegrees>
            </Position>
            <AltitudeMeters>499.20001220703125</AltitudeMeters>
            <DistanceMeters>20015.46489775</DistanceMeters>
          </Trackpoint>
          <Trackpoint>
            <Time>2018-09-13T08:24:18.000Z</Time>
            <Position>
              <LatitudeDegrees>39.69314745627343654632568359375</LatitudeDegrees>
              <LongitudeDegrees>-8.13776439987123012542724609375</LongitudeDegrees>
            </Position>
            <AltitudeMeters>500.20001220703125</AltitudeMeters>
            <DistanceMeters>20027.622376569</DistanceMeters>
          </Trackpoint>
          <Trackpoint>
            <Time>2018-09-13T08:24:23.000Z</Time>
            <Position>
              <LatitudeDegrees>39.6932385675609111785888671875</LatitudeDegrees>
              <LongitudeDegrees>-8.13768896274268627166748046875</LongitudeDegrees>
            </Position>
            <AltitudeMeters>501</AltitudeMeters>
            <DistanceMeters>20039.646541985</DistanceMeters>
          </Trackpoint>
          <Trackpoint>
            <Time>2018-09-13T08:24:27.000Z</Time>
            <Position>
              <LatitudeDegrees>39.69330872409045696258544921875</LatitudeDegrees>
              <LongitudeDegrees>-8.1376221589744091033935546875</LongitudeDegrees>
            </Position>
            <AltitudeMeters>501.79998779296875</AltitudeMeters>
            <DistanceMeters>20049.326215181</DistanceMeters>
          </Trackpoint>
          <Trackpoint>
            <Time>2018-09-13T08:24:32.000Z</Time>
            <Position>
              <LatitudeDegrees>39.69339136965572834014892578125</LatitudeDegrees>
              <LongitudeDegrees>-8.13752819783985614776611328125</LongitudeDegrees>
            </Position>
            <AltitudeMeters>503</AltitudeMeters>
            <DistanceMeters>20061.547773775</DistanceMeters>
          </Trackpoint>
          <Trackpoint>
            <Time>2018-09-13T08:24:37.000Z</Time>
            <Position>
              <LatitudeDegrees>39.6934662200510501861572265625</LatitudeDegrees>
              <LongitudeDegrees>-8.137434236705303192138671875</LongitudeDegrees>
            </Position>
            <AltitudeMeters>504.399993896484375</AltitudeMeters>
            <DistanceMeters>20073.130512904</DistanceMeters>
          </Trackpoint>
          <Trackpoint>
            <Time>2018-09-13T08:24:43.000Z</Time>
            <Position>
              <LatitudeDegrees>39.69355280511081218719482421875</LatitudeDegrees>
              <LongitudeDegrees>-8.13732451759278774261474609375</LongitudeDegrees>
            </Position>
            <AltitudeMeters>506.20001220703125</AltitudeMeters>
            <DistanceMeters>20086.590804645</DistanceMeters>
          </Trackpoint>
          <Trackpoint>
            <Time>2018-09-13T08:24:47.000Z</Time>
            <Position>
              <LatitudeDegrees>39.69360326416790485382080078125</LatitudeDegrees>
              <LongitudeDegrees>-8.1372332386672496795654296875</LongitudeDegrees>
            </Position>
            <AltitudeMeters>507.399993896484375</AltitudeMeters>
            <DistanceMeters>20096.217156211</DistanceMeters>
          </Trackpoint>
          <Trackpoint>
            <Time>2018-09-13T08:24:52.000Z</Time>
            <Position>
              <LatitudeDegrees>39.69365925528109073638916015625</LatitudeDegrees>
              <LongitudeDegrees>-8.13711111433804035186767578125</LongitudeDegrees>
            </Position>
            <AltitudeMeters>508.79998779296875</AltitudeMeters>
            <DistanceMeters>20108.392448195</DistanceMeters>
          </Trackpoint>
          <Trackpoint>
            <Time>2018-09-13T08:24:57.000Z</Time>
            <Position>
              <LatitudeDegrees>39.6937079541385173797607421875</LatitudeDegrees>
              <LongitudeDegrees>-8.13698437996208667755126953125</LongitudeDegrees>
            </Position>
            <AltitudeMeters>510.20001220703125</AltitudeMeters>
            <DistanceMeters>20120.525019074</DistanceMeters>
          </Trackpoint>
          <Trackpoint>
            <Time>2018-09-13T08:25:02.000Z</Time>
            <Position>
              <LatitudeDegrees>39.69375765882432460784912109375</LatitudeDegrees>
              <LongitudeDegrees>-8.136856555938720703125</LongitudeDegrees>
            </Position>
            <AltitudeMeters>511.20001220703125</AltitudeMeters>
            <DistanceMeters>20132.790829427</DistanceMeters>
          </Trackpoint>
          <Trackpoint>
            <Time>2018-09-13T08:25:06.000Z</Time>
            <Position>
              <LatitudeDegrees>39.6937926113605499267578125</LatitudeDegrees>
              <LongitudeDegrees>-8.13675555400550365447998046875</LongitudeDegrees>
            </Position>
            <AltitudeMeters>512</AltitudeMeters>
            <DistanceMeters>20142.275428604</DistanceMeters>
          </Trackpoint>
          <Trackpoint>
            <Time>2018-09-13T08:25:11.000Z</Time>
            <Position>
              <LatitudeDegrees>39.69383309595286846160888671875</LatitudeDegrees>
              <LongitudeDegrees>-8.13662244938313961029052734375</LongitudeDegrees>
            </Position>
            <AltitudeMeters>513</AltitudeMeters>
            <DistanceMeters>20154.533506431</DistanceMeters>
          </Trackpoint>
          <Trackpoint>
            <Time>2018-09-13T08:25:16.000Z</Time>
            <Position>
              <LatitudeDegrees>39.69386947341263294219970703125</LatitudeDegrees>
              <LongitudeDegrees>-8.1364909373223781585693359375</LongitudeDegrees>
            </Position>
            <AltitudeMeters>512.5999755859375</AltitudeMeters>
            <DistanceMeters>20166.502346505</DistanceMeters>
          </Trackpoint>
          <Trackpoint>
            <Time>2018-09-13T08:25:21.000Z</Time>
            <Position>
              <LatitudeDegrees>39.69392831437289714813232421875</LatitudeDegrees>
              <LongitudeDegrees>-8.13636906445026397705078125</LongitudeDegrees>
            </Position>
            <AltitudeMeters>512.5999755859375</AltitudeMeters>
            <DistanceMeters>20178.82434737</DistanceMeters>
          </Trackpoint>
          <Trackpoint>
            <Time>2018-09-13T08:25:27.000Z</Time>
            <Position>
              <LatitudeDegrees>39.6939830482006072998046875</LatitudeDegrees>
              <LongitudeDegrees>-8.13620947301387786865234375</LongitudeDegrees>
            </Position>
            <AltitudeMeters>512.4000244140625</AltitudeMeters>
            <DistanceMeters>20193.788565882</DistanceMeters>
          </Trackpoint>
          <Trackpoint>
            <Time>2018-09-13T08:25:33.000Z</Time>
            <Position>
              <LatitudeDegrees>39.6940314956009387969970703125</LatitudeDegrees>
              <LongitudeDegrees>-8.136045522987842559814453125</LongitudeDegrees>
            </Position>
            <AltitudeMeters>512</AltitudeMeters>
            <DistanceMeters>20208.829226608</DistanceMeters>
          </Trackpoint>
          <Trackpoint>
            <Time>2018-09-13T08:25:37.000Z</Time>
            <Position>
              <LatitudeDegrees>39.69406879507005214691162109375</LatitudeDegrees>
              <LongitudeDegrees>-8.135934881865978240966796875</LongitudeDegrees>
            </Position>
            <AltitudeMeters>511.79998779296875</AltitudeMeters>
            <DistanceMeters>20219.174053138</DistanceMeters>
          </Trackpoint>
          <Trackpoint>
            <Time>2018-09-13T08:25:42.000Z</Time>
            <Position>
              <LatitudeDegrees>39.6941149793565273284912109375</LatitudeDegrees>
              <LongitudeDegrees>-8.13579465262591838836669921875</LongitudeDegrees>
            </Position>
            <AltitudeMeters>513.79998779296875</AltitudeMeters>
            <DistanceMeters>20232.237029619</DistanceMeters>
          </Trackpoint>
          <Trackpoint>
            <Time>2018-09-13T08:25:47.000Z</Time>
            <Position>
              <LatitudeDegrees>39.6941555477678775787353515625</LatitudeDegrees>
              <LongitudeDegrees>-8.13565048389136791229248046875</LongitudeDegrees>
            </Position>
            <AltitudeMeters>515.79998779296875</AltitudeMeters>
            <DistanceMeters>20245.383727423</DistanceMeters>
          </Trackpoint>
          <Trackpoint>
            <Time>2018-09-13T08:25:53.000Z</Time>
            <Position>
              <LatitudeDegrees>39.6941880695521831512451171875</LatitudeDegrees>
              <LongitudeDegrees>-8.1354706920683383941650390625</LongitudeDegrees>
            </Position>
            <AltitudeMeters>518.20001220703125</AltitudeMeters>
            <DistanceMeters>20261.201608384</DistanceMeters>
          </Trackpoint>
          <Trackpoint>
            <Time>2018-09-13T08:25:58.000Z</Time>
            <Position>
              <LatitudeDegrees>39.6942313201725482940673828125</LatitudeDegrees>
              <LongitudeDegrees>-8.13532811589539051055908203125</LongitudeDegrees>
            </Position>
            <AltitudeMeters>519.79998779296875</AltitudeMeters>
            <DistanceMeters>20274.326995937</DistanceMeters>
          </Trackpoint>
          <Trackpoint>
            <Time>2018-09-13T08:26:03.000Z</Time>
            <Position>
              <LatitudeDegrees>39.69427767209708690643310546875</LatitudeDegrees>
              <LongitudeDegrees>-8.135186545550823211669921875</LongitudeDegrees>
            </Position>
            <AltitudeMeters>521.5999755859375</AltitudeMeters>
            <DistanceMeters>20287.503196061</DistanceMeters>
          </Trackpoint>
          <Trackpoint>
            <Time>2018-09-13T08:26:09.000Z</Time>
            <Position>
              <LatitudeDegrees>39.69433785416185855865478515625</LatitudeDegrees>
              <LongitudeDegrees>-8.135016225278377532958984375</LongitudeDegrees>
            </Position>
            <AltitudeMeters>523.20001220703125</AltitudeMeters>
            <DistanceMeters>20303.554274249</DistanceMeters>
          </Trackpoint>
          <Trackpoint>
            <Time>2018-09-13T08:26:15.000Z</Time>
            <Position>
              <LatitudeDegrees>39.69439367763698101043701171875</LatitudeDegrees>
              <LongitudeDegrees>-8.1348430551588535308837890625</LongitudeDegrees>
            </Position>
            <AltitudeMeters>524.4000244140625</AltitudeMeters>
            <DistanceMeters>20319.634018614</DistanceMeters>
          </Trackpoint>
          <Trackpoint>
            <Time>2018-09-13T08:26:20.000Z</Time>
            <Position>
              <LatitudeDegrees>39.6944495849311351776123046875</LatitudeDegrees>
              <LongitudeDegrees>-8.134702742099761962890625</LongitudeDegrees>
            </Position>
            <AltitudeMeters>525.4000244140625</AltitudeMeters>
            <DistanceMeters>20333.166236474</DistanceMeters>
          </Trackpoint>
          <Trackpoint>
            <Time>2018-09-13T08:26:26.000Z</Time>
            <Position>
              <LatitudeDegrees>39.694518484175205230712890625</LatitudeDegrees>
              <LongitudeDegrees>-8.13452814705669879913330078125</LongitudeDegrees>
            </Position>
            <AltitudeMeters>526.79998779296875</AltitudeMeters>
            <DistanceMeters>20349.97065704</DistanceMeters>
          </Trackpoint>
          <Trackpoint>
            <Time>2018-09-13T08:26:32.000Z</Time>
            <Position>
              <LatitudeDegrees>39.69457724131643772125244140625</LatitudeDegrees>
              <LongitudeDegrees>-8.13434810377657413482666015625</LongitudeDegrees>
            </Position>
            <AltitudeMeters>526.79998779296875</AltitudeMeters>
            <DistanceMeters>20366.719637749</DistanceMeters>
          </Trackpoint>
          <Trackpoint>
            <Time>2018-09-13T08:26:38.000Z</Time>
            <Position>
              <LatitudeDegrees>39.694625101983547210693359375</LatitudeDegrees>
              <LongitudeDegrees>-8.13416806049644947052001953125</LongitudeDegrees>
            </Position>
            <AltitudeMeters>527.79998779296875</AltitudeMeters>
            <DistanceMeters>20383.033264352</DistanceMeters>
          </Trackpoint>
          <Trackpoint>
            <Time>2018-09-13T08:26:43.000Z</Time>
            <Position>
              <LatitudeDegrees>39.69466768205165863037109375</LatitudeDegrees>
              <LongitudeDegrees>-8.13401333056390285491943359375</LongitudeDegrees>
            </Position>
            <AltitudeMeters>527.79998779296875</AltitudeMeters>
            <DistanceMeters>20397.10684587</DistanceMeters>
          </Trackpoint>
          <Trackpoint>
            <Time>2018-09-13T08:26:45.000Z</Time>
            <Position>
              <LatitudeDegrees>39.69468419440090656280517578125</LatitudeDegrees>
              <LongitudeDegrees>-8.1339528970420360565185546875</LongitudeDegrees>
            </Position>
            <AltitudeMeters>527.5999755859375</AltitudeMeters>
            <DistanceMeters>20402.598699411</DistanceMeters>
          </Trackpoint>
          <Trackpoint>
            <Time>2018-09-13T08:26:51.000Z</Time>
            <Position>
              <LatitudeDegrees>39.694729708135128021240234375</LatitudeDegrees>
              <LongitudeDegrees>-8.13377268612384796142578125</LongitudeDegrees>
            </Position>
            <AltitudeMeters>527.4000244140625</AltitudeMeters>
            <DistanceMeters>20418.842431547</DistanceMeters>
          </Trackpoint>
          <Trackpoint>
            <Time>2018-09-13T08:26:56.000Z</Time>
            <Position>
              <LatitudeDegrees>39.69477941282093524932861328125</LatitudeDegrees>
              <LongitudeDegrees>-8.1336273439228534698486328125</LongitudeDegrees>
            </Position>
            <AltitudeMeters>527.4000244140625</AltitudeMeters>
            <DistanceMeters>20432.463442912</DistanceMeters>
          </Trackpoint>
          <Trackpoint>
            <Time>2018-09-13T08:27:02.000Z</Time>
            <Position>
              <LatitudeDegrees>39.6948333084583282470703125</LatitudeDegrees>
              <LongitudeDegrees>-8.133466579020023345947265625</LongitudeDegrees>
            </Position>
            <AltitudeMeters>527.4000244140625</AltitudeMeters>
            <DistanceMeters>20447.481873237</DistanceMeters>
          </Trackpoint>
          <Trackpoint>
            <Time>2018-09-13T08:27:08.000Z</Time>
            <Position>
              <LatitudeDegrees>39.694874547421932220458984375</LatitudeDegrees>
              <LongitudeDegrees>-8.13330841250717639923095703125</LongitudeDegrees>
            </Position>
            <AltitudeMeters>530.20001220703125</AltitudeMeters>
            <DistanceMeters>20461.784577588</DistanceMeters>
          </Trackpoint>
          <Trackpoint>
            <Time>2018-09-13T08:27:14.000Z</Time>
            <Position>
              <LatitudeDegrees>39.694905392825603485107421875</LatitudeDegrees>
              <LongitudeDegrees>-8.13316122628748416900634765625</LongitudeDegrees>
            </Position>
            <AltitudeMeters>533</AltitudeMeters>
            <DistanceMeters>20474.848936542</DistanceMeters>
          </Trackpoint>
          <Trackpoint>
            <Time>2018-09-13T08:27:18.000Z</Time>
            <Position>
              <LatitudeDegrees>39.6949297003448009490966796875</LatitudeDegrees>
              <LongitudeDegrees>-8.13306324183940887451171875</LongitudeDegrees>
            </Position>
            <AltitudeMeters>535</AltitudeMeters>
            <DistanceMeters>20483.665961443</DistanceMeters>
          </Trackpoint>
          <Trackpoint>
            <Time>2018-09-13T08:27:22.000Z</Time>
            <Position>
              <LatitudeDegrees>39.69493850134313106536865234375</LatitudeDegrees>
              <LongitudeDegrees>-8.1329614855349063873291015625</LongitudeDegrees>
            </Position>
            <AltitudeMeters>536.79998779296875</AltitudeMeters>
            <DistanceMeters>20492.435233419</DistanceMeters>
          </Trackpoint>
          <Trackpoint>
            <Time>2018-09-13T08:27:27.000Z</Time>
            <Position>
              <LatitudeDegrees>39.69493464566767215728759765625</LatitudeDegrees>
              <LongitudeDegrees>-8.13283391296863555908203125</LongitudeDegrees>
            </Position>
            <AltitudeMeters>539</AltitudeMeters>
            <DistanceMeters>20503.36950121</DistanceMeters>
          </Trackpoint>
          <Trackpoint>
            <Time>2018-09-13T08:27:29.000Z</Time>
            <Position>
              <LatitudeDegrees>39.6949364058673381805419921875</LatitudeDegrees>
              <LongitudeDegrees>-8.13278521411120891571044921875</LongitudeDegrees>
            </Position>
            <AltitudeMeters>539.79998779296875</AltitudeMeters>
            <DistanceMeters>20507.545273907</DistanceMeters>
          </Trackpoint>
          <Trackpoint>
            <Time>2018-09-13T08:27:33.000Z</Time>
            <Position>
              <LatitudeDegrees>39.69493146054446697235107421875</LatitudeDegrees>
              <LongitudeDegrees>-8.1326889060437679290771484375</LongitudeDegrees>
            </Position>
            <AltitudeMeters>541.4000244140625</AltitudeMeters>
            <DistanceMeters>20515.810959503</DistanceMeters>
          </Trackpoint>
          <Trackpoint>
            <Time>2018-09-13T08:27:36.000Z</Time>
            <Position>
              <LatitudeDegrees>39.69492123462259769439697265625</LatitudeDegrees>
              <LongitudeDegrees>-8.13261874951422214508056640625</LongitudeDegrees>
            </Position>
            <AltitudeMeters>542.4000244140625</AltitudeMeters>
            <DistanceMeters>20521.925985795</DistanceMeters>
          </Trackpoint>
          <Trackpoint>
            <Time>2018-09-13T08:27:38.000Z</Time>
            <Position>
              <LatitudeDegrees>39.69492291100323200225830078125</LatitudeDegrees>
              <LongitudeDegrees>-8.1325705535709857940673828125</LongitudeDegrees>
            </Position>
            <AltitudeMeters>543.4000244140625</AltitudeMeters>
            <DistanceMeters>20526.057189552</DistanceMeters>
          </Trackpoint>
          <Trackpoint>
            <Time>2018-09-13T08:27:41.000Z</Time>
            <Position>
              <LatitudeDegrees>39.69491654075682163238525390625</LatitudeDegrees>
              <LongitudeDegrees>-8.1324967928230762481689453125</LongitudeDegrees>
            </Position>
            <AltitudeMeters>545.20001220703125</AltitudeMeters>
            <DistanceMeters>20532.413333195</DistanceMeters>
          </Trackpoint>
          <Trackpoint>
            <Time>2018-09-13T08:27:44.000Z</Time>
            <Position>
              <LatitudeDegrees>39.69491637311875820159912109375</LatitudeDegrees>
              <LongitudeDegrees>-8.13242428936064243316650390625</LongitudeDegrees>
            </Position>
            <AltitudeMeters>547</AltitudeMeters>
            <DistanceMeters>20538.622876368</DistanceMeters>
          </Trackpoint>
          <Trackpoint>
            <Time>2018-09-13T08:27:48.000Z</Time>
            <Position>
              <LatitudeDegrees>39.6949209831655025482177734375</LatitudeDegrees>
              <LongitudeDegrees>-8.13232655636966228485107421875</LongitudeDegrees>
            </Position>
            <AltitudeMeters>549.5999755859375</AltitudeMeters>
            <DistanceMeters>20547.008411847</DistanceMeters>
          </Trackpoint>
          <Trackpoint>
            <Time>2018-09-13T08:27:51.000Z</Time>
            <Position>
              <LatitudeDegrees>39.6949367411434650421142578125</LatitudeDegrees>
              <LongitudeDegrees>-8.1322552263736724853515625</LongitudeDegrees>
            </Position>
            <AltitudeMeters>551.5999755859375</AltitudeMeters>
            <DistanceMeters>20553.36455549</DistanceMeters>
          </Trackpoint>
          <Trackpoint>
            <Time>2018-09-13T08:27:55.000Z</Time>
            <Position>
              <LatitudeDegrees>39.69493984244763851165771484375</LatitudeDegrees>
              <LongitudeDegrees>-8.132160007953643798828125</LongitudeDegrees>
            </Position>
            <AltitudeMeters>553.79998779296875</AltitudeMeters>
            <DistanceMeters>20561.525795827</DistanceMeters>
          </Trackpoint>
          <Trackpoint>
            <Time>2018-09-13T08:27:58.000Z</Time>
            <Position>
              <LatitudeDegrees>39.69498091377317905426025390625</LatitudeDegrees>
              <LongitudeDegrees>-8.13211533240973949432373046875</LongitudeDegrees>
            </Position>
            <AltitudeMeters>555.5999755859375</AltitudeMeters>
            <DistanceMeters>20567.486781552</DistanceMeters>
          </Trackpoint>
          <Trackpoint>
            <Time>2018-09-13T08:28:01.000Z</Time>
            <Position>
              <LatitudeDegrees>39.69498284161090850830078125</LatitudeDegrees>
              <LongitudeDegrees>-8.13204844482243061065673828125</LongitudeDegrees>
            </Position>
            <AltitudeMeters>556.79998779296875</AltitudeMeters>
            <DistanceMeters>20573.219184903</DistanceMeters>
          </Trackpoint>
          <Trackpoint>
            <Time>2018-09-13T08:28:03.000Z</Time>
            <Position>
              <LatitudeDegrees>39.6949863620102405548095703125</LatitudeDegrees>
              <LongitudeDegrees>-8.13199932686984539031982421875</LongitudeDegrees>
            </Position>
            <AltitudeMeters>557.79998779296875</AltitudeMeters>
            <DistanceMeters>20577.443333462</DistanceMeters>
          </Trackpoint>
          <Trackpoint>
            <Time>2018-09-13T08:28:04.000Z</Time>
            <Position>
              <LatitudeDegrees>39.69499650411307811737060546875</LatitudeDegrees>
              <LongitudeDegrees>-8.1319841556251049041748046875</LongitudeDegrees>
            </Position>
            <AltitudeMeters>558.4000244140625</AltitudeMeters>
            <DistanceMeters>20579.164340456</DistanceMeters>
          </Trackpoint>
          <Trackpoint>
            <Time>2018-09-13T08:28:08.000Z</Time>
            <Position>
              <LatitudeDegrees>39.6950559318065643310546875</LatitudeDegrees>
              <LongitudeDegrees>-8.13192992471158504486083984375</LongitudeDegrees>
            </Position>
            <AltitudeMeters>560.5999755859375</AltitudeMeters>
            <DistanceMeters>20587.246640438</DistanceMeters>
          </Trackpoint>
          <Trackpoint>
            <Time>2018-09-13T08:28:13.000Z</Time>
            <Position>
              <LatitudeDegrees>39.69510111026465892791748046875</LatitudeDegrees>
              <LongitudeDegrees>-8.13182967714965343475341796875</LongitudeDegrees>
            </Position>
            <AltitudeMeters>563.4000244140625</AltitudeMeters>
            <DistanceMeters>20597.19589659</DistanceMeters>
          </Trackpoint>
          <Trackpoint>
            <Time>2018-09-13T08:28:17.000Z</Time>
            <Position>
              <LatitudeDegrees>39.69510932452976703643798828125</LatitudeDegrees>
              <LongitudeDegrees>-8.13173412345349788665771484375</LongitudeDegrees>
            </Position>
            <AltitudeMeters>565.20001220703125</AltitudeMeters>
            <DistanceMeters>20605.430387711</DistanceMeters>
          </Trackpoint>
          <Trackpoint>
            <Time>2018-09-13T08:28:21.000Z</Time>
            <Position>
              <LatitudeDegrees>39.69517470337450504302978515625</LatitudeDegrees>
              <LongitudeDegrees>-8.13167846761643886566162109375</LongitudeDegrees>
            </Position>
            <AltitudeMeters>567</AltitudeMeters>
            <DistanceMeters>20614.129874516</DistanceMeters>
          </Trackpoint>
          <Trackpoint>
            <Time>2018-09-13T08:28:23.000Z</Time>
            <Position>
              <LatitudeDegrees>39.69519607722759246826171875</LatitudeDegrees>
              <LongitudeDegrees>-8.13163706101477146148681640625</LongitudeDegrees>
            </Position>
            <AltitudeMeters>567.79998779296875</AltitudeMeters>
            <DistanceMeters>20618.400794138</DistanceMeters>
          </Trackpoint>
          <Trackpoint>
            <Time>2018-09-13T08:28:25.000Z</Time>
            <Position>
              <LatitudeDegrees>39.695206470787525177001953125</LatitudeDegrees>
              <LongitudeDegrees>-8.131591379642486572265625</LongitudeDegrees>
            </Position>
            <AltitudeMeters>568.4000244140625</AltitudeMeters>
            <DistanceMeters>20622.479200789</DistanceMeters>
          </Trackpoint>
          <Trackpoint>
            <Time>2018-09-13T08:28:27.000Z</Time>
            <Position>
              <LatitudeDegrees>39.6951955743134021759033203125</LatitudeDegrees>
              <LongitudeDegrees>-8.131542094051837921142578125</LongitudeDegrees>
            </Position>
            <AltitudeMeters>568.79998779296875</AltitudeMeters>
            <DistanceMeters>20626.871039047</DistanceMeters>
          </Trackpoint>
          <Trackpoint>
            <Time>2018-09-13T08:28:31.000Z</Time>
            <Position>
              <LatitudeDegrees>39.6952227316796779632568359375</LatitudeDegrees>
              <LongitudeDegrees>-8.13145752064883708953857421875</LongitudeDegrees>
            </Position>
            <AltitudeMeters>570</AltitudeMeters>
            <DistanceMeters>20634.719808473</DistanceMeters>
          </Trackpoint>
          <Trackpoint>
            <Time>2018-09-13T08:28:36.000Z</Time>
            <Position>
              <LatitudeDegrees>39.69526070170104503631591796875</LatitudeDegrees>
              <LongitudeDegrees>-8.13134453259408473968505859375</LongitudeDegrees>
            </Position>
            <AltitudeMeters>572</AltitudeMeters>
            <DistanceMeters>20645.278897158</DistanceMeters>
          </Trackpoint>
          <Trackpoint>
            <Time>2018-09-13T08:28:37.000Z</Time>
            <Position>
              <LatitudeDegrees>39.6952586062252521514892578125</LatitudeDegrees>
              <LongitudeDegrees>-8.13131787814199924468994140625</LongitudeDegrees>
            </Position>
            <AltitudeMeters>572.20001220703125</AltitudeMeters>
            <DistanceMeters>20647.575321475</DistanceMeters>
          </Trackpoint>
          <Trackpoint>
            <Time>2018-09-13T08:28:41.000Z</Time>
            <Position>
              <LatitudeDegrees>39.69524058513343334197998046875</LatitudeDegrees>
              <LongitudeDegrees>-8.13121729530394077301025390625</LongitudeDegrees>
            </Position>
            <AltitudeMeters>572.79998779296875</AltitudeMeters>
            <DistanceMeters>20656.419445069</DistanceMeters>
          </Trackpoint>
          <Trackpoint>
            <Time>2018-09-13T08:28:45.000Z</Time>
            <Position>
              <LatitudeDegrees>39.695221222937107086181640625</LatitudeDegrees>
              <LongitudeDegrees>-8.13111595809459686279296875</LongitudeDegrees>
            </Position>
            <AltitudeMeters>573.4000244140625</AltitudeMeters>
            <DistanceMeters>20665.361554827</DistanceMeters>
          </Trackpoint>
          <Trackpoint>
            <Time>2018-09-13T08:28:49.000Z</Time>
            <Position>
              <LatitudeDegrees>39.69519297592341899871826171875</LatitudeDegrees>
              <LongitudeDegrees>-8.1310125254094600677490234375</LongitudeDegrees>
            </Position>
            <AltitudeMeters>575</AltitudeMeters>
            <DistanceMeters>20674.761037149</DistanceMeters>
          </Trackpoint>
          <Trackpoint>
            <Time>2018-09-13T08:28:54.000Z</Time>
            <Position>
              <LatitudeDegrees>39.69515425153076648712158203125</LatitudeDegrees>
              <LongitudeDegrees>-8.1308857910335063934326171875</LongitudeDegrees>
            </Position>
            <AltitudeMeters>576</AltitudeMeters>
            <DistanceMeters>20686.439275224</DistanceMeters>
          </Trackpoint>
          <Trackpoint>
            <Time>2018-09-13T08:28:58.000Z</Time>
            <Position>
              <LatitudeDegrees>39.69512424431741237640380859375</LatitudeDegrees>
              <LongitudeDegrees>-8.13078428618609905242919921875</LongitudeDegrees>
            </Position>
            <AltitudeMeters>575.4000244140625</AltitudeMeters>
            <DistanceMeters>20695.751893232</DistanceMeters>
          </Trackpoint>
          <Trackpoint>
            <Time>2018-09-13T08:29:05.000Z</Time>
            <Position>
              <LatitudeDegrees>39.6950648166239261627197265625</LatitudeDegrees>
              <LongitudeDegrees>-8.13060491345822811126708984375</LongitudeDegrees>
            </Position>
            <AltitudeMeters>574.20001220703125</AltitudeMeters>
            <DistanceMeters>20712.477134877</DistanceMeters>
          </Trackpoint>
          <Trackpoint>
            <Time>2018-09-13T08:29:11.000Z</Time>
            <Position>
              <LatitudeDegrees>39.695026092231273651123046875</LatitudeDegrees>
              <LongitudeDegrees>-8.1304492615163326263427734375</LongitudeDegrees>
            </Position>
            <AltitudeMeters>573.4000244140625</AltitudeMeters>
            <DistanceMeters>20726.487050708</DistanceMeters>
          </Trackpoint>
          <Trackpoint>
            <Time>2018-09-13T08:29:17.000Z</Time>
            <Position>
              <LatitudeDegrees>39.6949719451367855072021484375</LatitudeDegrees>
              <LongitudeDegrees>-8.13030014745891094207763671875</LongitudeDegrees>
            </Position>
            <AltitudeMeters>575</AltitudeMeters>
            <DistanceMeters>20740.608033253</DistanceMeters>
          </Trackpoint>
          <Trackpoint>
            <Time>2018-09-13T08:29:21.000Z</Time>
            <Position>
              <LatitudeDegrees>39.69492207281291484832763671875</LatitudeDegrees>
              <LongitudeDegrees>-8.13021012581884860992431640625</LongitudeDegrees>
            </Position>
            <AltitudeMeters>576.20001220703125</AltitudeMeters>
            <DistanceMeters>20750.108328725</DistanceMeters>
          </Trackpoint>
          <Trackpoint>
            <Time>2018-09-13T08:29:26.000Z</Time>
            <Position>
              <LatitudeDegrees>39.69485602341592311859130859375</LatitudeDegrees>
              <LongitudeDegrees>-8.1301119737327098846435546875</LongitudeDegrees>
            </Position>
            <AltitudeMeters>577.4000244140625</AltitudeMeters>
            <DistanceMeters>20761.275483944</DistanceMeters>
          </Trackpoint>
          <Trackpoint>
            <Time>2018-09-13T08:29:31.000Z</Time>
            <Position>
              <LatitudeDegrees>39.69476985745131969451904296875</LatitudeDegrees>
              <LongitudeDegrees>-8.1300402246415615081787109375</LongitudeDegrees>
            </Position>
            <AltitudeMeters>577</AltitudeMeters>
            <DistanceMeters>20772.665219595</DistanceMeters>
          </Trackpoint>
          <Trackpoint>
            <Time>2018-09-13T08:29:35.000Z</Time>
            <Position>
              <LatitudeDegrees>39.6946903131902217864990234375</LatitudeDegrees>
              <LongitudeDegrees>-8.13004014082252979278564453125</LongitudeDegrees>
            </Position>
            <AltitudeMeters>577.4000244140625</AltitudeMeters>
            <DistanceMeters>20781.518527651</DistanceMeters>
          </Trackpoint>
          <Trackpoint>
            <Time>2018-09-13T08:29:39.000Z</Time>
            <Position>
              <LatitudeDegrees>39.69461345113813877105712890625</LatitudeDegrees>
              <LongitudeDegrees>-8.130053468048572540283203125</LongitudeDegrees>
            </Position>
            <AltitudeMeters>578</AltitudeMeters>
            <DistanceMeters>20790.14871134</DistanceMeters>
          </Trackpoint>
          <Trackpoint>
            <Time>2018-09-13T08:29:41.000Z</Time>
            <Position>
              <LatitudeDegrees>39.6945749782025814056396484375</LatitudeDegrees>
              <LongitudeDegrees>-8.13004366122186183929443359375</LongitudeDegrees>
            </Position>
            <AltitudeMeters>578</AltitudeMeters>
            <DistanceMeters>20794.512703918</DistanceMeters>
          </Trackpoint>
          <Trackpoint>
            <Time>2018-09-13T08:29:43.000Z</Time>
            <Position>
              <LatitudeDegrees>39.69454170204699039459228515625</LatitudeDegrees>
              <LongitudeDegrees>-8.13006914220750331878662109375</LongitudeDegrees>
            </Position>
            <AltitudeMeters>578.5999755859375</AltitudeMeters>
            <DistanceMeters>20798.812072067</DistanceMeters>
          </Trackpoint>
          <Trackpoint>
            <Time>2018-09-13T08:29:47.000Z</Time>
            <Position>
              <LatitudeDegrees>39.69447062350809574127197265625</LatitudeDegrees>
              <LongitudeDegrees>-8.130100071430206298828125</LongitudeDegrees>
            </Position>
            <AltitudeMeters>577</AltitudeMeters>
            <DistanceMeters>20807.154963007</DistanceMeters>
          </Trackpoint>
          <Trackpoint>
            <Time>2018-09-13T08:29:51.000Z</Time>
            <Position>
              <LatitudeDegrees>39.69441815279424190521240234375</LatitudeDegrees>
              <LongitudeDegrees>-8.130172155797481536865234375</LongitudeDegrees>
            </Position>
            <AltitudeMeters>574.20001220703125</AltitudeMeters>
            <DistanceMeters>20815.652816931</DistanceMeters>
          </Trackpoint>
          <Trackpoint>
            <Time>2018-09-13T08:29:52.000Z</Time>
            <Position>
              <LatitudeDegrees>39.69441018998622894287109375</LatitudeDegrees>
              <LongitudeDegrees>-8.1301967985928058624267578125</LongitudeDegrees>
            </Position>
            <AltitudeMeters>573.5999755859375</AltitudeMeters>
            <DistanceMeters>20817.941363268</DistanceMeters>
          </Trackpoint>
          <Trackpoint>
            <Time>2018-09-13T08:29:57.000Z</Time>
            <Position>
              <LatitudeDegrees>39.69438931904733180999755859375</LatitudeDegrees>
              <LongitudeDegrees>-8.13030861318111419677734375</LongitudeDegrees>
            </Position>
            <AltitudeMeters>571.5999755859375</AltitudeMeters>
            <DistanceMeters>20827.794859192</DistanceMeters>
          </Trackpoint>
          <Trackpoint>
            <Time>2018-09-13T08:30:01.000Z</Time>
            <Position>
              <LatitudeDegrees>39.69441697932779788970947265625</LatitudeDegrees>
              <LongitudeDegrees>-8.1303696334362030029296875</LongitudeDegrees>
            </Position>
            <AltitudeMeters>572</AltitudeMeters>
            <DistanceMeters>20833.860214205</DistanceMeters>
          </Trackpoint>
          <Trackpoint>
            <Time>2018-09-13T08:30:04.000Z</Time>
            <Position>
              <LatitudeDegrees>39.694450087845325469970703125</LatitudeDegrees>
              <LongitudeDegrees>-8.1303979642689228057861328125</LongitudeDegrees>
            </Position>
            <AltitudeMeters>573</AltitudeMeters>
            <DistanceMeters>20838.272565598</DistanceMeters>
          </Trackpoint>
          <Trackpoint>
            <Time>2018-09-13T08:30:06.000Z</Time>
            <Position>
              <LatitudeDegrees>39.69447146169841289520263671875</LatitudeDegrees>
              <LongitudeDegrees>-8.1304023228585720062255859375</LongitudeDegrees>
            </Position>
            <AltitudeMeters>573.79998779296875</AltitudeMeters>
            <DistanceMeters>20840.678449843</DistanceMeters>
          </Trackpoint>
          <Trackpoint>
            <Time>2018-09-13T08:30:08.000Z</Time>
            <Position>
              <LatitudeDegrees>39.69447917304933071136474609375</LatitudeDegrees>
              <LongitudeDegrees>-8.130404166877269744873046875</LongitudeDegrees>
            </Position>
            <AltitudeMeters>574</AltitudeMeters>
            <DistanceMeters>20841.549384066</DistanceMeters>
          </Trackpoint>
          <Trackpoint>
            <Time>2018-09-13T08:30:13.000Z</Time>
            <Position>
              <LatitudeDegrees>39.69452192075550556182861328125</LatitudeDegrees>
              <LongitudeDegrees>-8.13042453490197658538818359375</LongitudeDegrees>
            </Position>
            <AltitudeMeters>575.5999755859375</AltitudeMeters>
            <DistanceMeters>20846.617079539</DistanceMeters>
          </Trackpoint>
          <Trackpoint>
            <Time>2018-09-13T08:30:17.000Z</Time>
            <Position>
              <LatitudeDegrees>39.694604314863681793212890625</LatitudeDegrees>
              <LongitudeDegrees>-8.1304968707263469696044921875</LongitudeDegrees>
            </Position>
            <AltitudeMeters>574.79998779296875</AltitudeMeters>
            <DistanceMeters>20857.683918601</DistanceMeters>
          </Trackpoint>
          <Trackpoint>
            <Time>2018-09-13T08:30:22.000Z</Time>
            <Position>
              <LatitudeDegrees>39.6946437098085880279541015625</LatitudeDegrees>
              <LongitudeDegrees>-8.13065755181014537811279296875</LongitudeDegrees>
            </Position>
            <AltitudeMeters>573.20001220703125</AltitudeMeters>
            <DistanceMeters>20872.126728779</DistanceMeters>
          </Trackpoint>
          <Trackpoint>
            <Time>2018-09-13T08:30:23.000Z</Time>
            <Position>
              <LatitudeDegrees>39.694633148610591888427734375</LatitudeDegrees>
              <LongitudeDegrees>-8.1306859664618968963623046875</LongitudeDegrees>
            </Position>
            <AltitudeMeters>573</AltitudeMeters>
            <DistanceMeters>20874.831236483</DistanceMeters>
          </Trackpoint>
          <Trackpoint>
            <Time>2018-09-13T08:30:26.000Z</Time>
            <Position>
              <LatitudeDegrees>39.69456768594682216644287109375</LatitudeDegrees>
              <LongitudeDegrees>-8.13072435557842254638671875</LongitudeDegrees>
            </Position>
            <AltitudeMeters>572.79998779296875</AltitudeMeters>
            <DistanceMeters>20882.824785189</DistanceMeters>
          </Trackpoint>
          <Trackpoint>
            <Time>2018-09-13T08:30:28.000Z</Time>
            <Position>
              <LatitudeDegrees>39.69451135955750942230224609375</LatitudeDegrees>
              <LongitudeDegrees>-8.13069527037441730499267578125</LongitudeDegrees>
            </Position>
            <AltitudeMeters>572.5999755859375</AltitudeMeters>
            <DistanceMeters>20889.571012674</DistanceMeters>
          </Trackpoint>
          <Trackpoint>
            <Time>2018-09-13T08:30:29.000Z</Time>
            <Position>
              <LatitudeDegrees>39.69448923133313655853271484375</LatitudeDegrees>
              <LongitudeDegrees>-8.13066895119845867156982421875</LongitudeDegrees>
            </Position>
            <AltitudeMeters>572</AltitudeMeters>
            <DistanceMeters>20892.909143039</DistanceMeters>
          </Trackpoint>
          <Trackpoint>
            <Time>2018-09-13T08:30:33.000Z</Time>
            <Position>
              <LatitudeDegrees>39.69445436261594295501708984375</LatitudeDegrees>
              <LongitudeDegrees>-8.1305622495710849761962890625</LongitudeDegrees>
            </Position>
            <AltitudeMeters>571.5999755859375</AltitudeMeters>
            <DistanceMeters>20902.837502141</DistanceMeters>
          </Trackpoint>
          <Trackpoint>
            <Time>2018-09-13T08:30:34.000Z</Time>
            <Position>
              <LatitudeDegrees>39.694453775882720947265625</LatitudeDegrees>
              <LongitudeDegrees>-8.13054339028894901275634765625</LongitudeDegrees>
            </Position>
            <AltitudeMeters>571.79998779296875</AltitudeMeters>
            <DistanceMeters>20904.455748775</DistanceMeters>
          </Trackpoint>
          <Trackpoint>
            <Time>2018-09-13T08:30:36.000Z</Time>
            <Position>
              <LatitudeDegrees>39.69445218332111835479736328125</LatitudeDegrees>
              <LongitudeDegrees>-8.1305330805480480194091796875</LongitudeDegrees>
            </Position>
            <AltitudeMeters>571.79998779296875</AltitudeMeters>
            <DistanceMeters>20905.357251343</DistanceMeters>
          </Trackpoint>
          <Trackpoint>
            <Time>2018-09-13T08:45:35.000Z</Time>
            <Position>
              <LatitudeDegrees>39.69443307258188724517822265625</LatitudeDegrees>
              <LongitudeDegrees>-8.13041632063686847686767578125</LongitudeDegrees>
            </Position>
            <AltitudeMeters>572.20001220703125</AltitudeMeters>
            <DistanceMeters>20915.581348609</DistanceMeters>
          </Trackpoint>
          <Trackpoint>
            <Time>2018-09-13T08:45:36.000Z</Time>
            <Position>
              <LatitudeDegrees>39.69441915862262248992919921875</LatitudeDegrees>
              <LongitudeDegrees>-8.13040223903954029083251953125</LongitudeDegrees>
            </Position>
            <AltitudeMeters>571.79998779296875</AltitudeMeters>
            <DistanceMeters>20917.544978575</DistanceMeters>
          </Trackpoint>
          <Trackpoint>
            <Time>2018-09-13T08:45:43.000Z</Time>
            <Position>
              <LatitudeDegrees>39.6944308094680309295654296875</LatitudeDegrees>
              <LongitudeDegrees>-8.1301357783377170562744140625</LongitudeDegrees>
            </Position>
            <AltitudeMeters>575.4000244140625</AltitudeMeters>
            <DistanceMeters>20940.402409815</DistanceMeters>
          </Trackpoint>
          <Trackpoint>
            <Time>2018-09-13T08:45:45.000Z</Time>
            <Position>
              <LatitudeDegrees>39.69447464682161808013916015625</LatitudeDegrees>
              <LongitudeDegrees>-8.13005187548696994781494140625</LongitudeDegrees>
            </Position>
            <AltitudeMeters>576.5999755859375</AltitudeMeters>
            <DistanceMeters>20949.087872302</DistanceMeters>
          </Trackpoint>
          <Trackpoint>
            <Time>2018-09-13T08:45:47.000Z</Time>
            <Position>
              <LatitudeDegrees>39.69454572536051273345947265625</LatitudeDegrees>
              <LongitudeDegrees>-8.12999722547829151153564453125</LongitudeDegrees>
            </Position>
            <AltitudeMeters>577.5999755859375</AltitudeMeters>
            <DistanceMeters>20958.279957228</DistanceMeters>
          </Trackpoint>
          <Trackpoint>
            <Time>2018-09-13T08:45:50.000Z</Time>
            <Position>
              <LatitudeDegrees>39.694693498313426971435546875</LatitudeDegrees>
              <LongitudeDegrees>-8.13002387993037700653076171875</LongitudeDegrees>
            </Position>
            <AltitudeMeters>577.20001220703125</AltitudeMeters>
            <DistanceMeters>20974.884906916</DistanceMeters>
          </Trackpoint>
          <Trackpoint>
            <Time>2018-09-13T08:45:53.000Z</Time>
            <Position>
              <LatitudeDegrees>39.6948609687387943267822265625</LatitudeDegrees>
              <LongitudeDegrees>-8.13014902174472808837890625</LongitudeDegrees>
            </Position>
            <AltitudeMeters>577</AltitudeMeters>
            <DistanceMeters>20996.386157894</DistanceMeters>
          </Trackpoint>
          <Trackpoint>
            <Time>2018-09-13T08:45:56.000Z</Time>
            <Position>
              <LatitudeDegrees>39.694984853267669677734375</LatitudeDegrees>
              <LongitudeDegrees>-8.1303879059851169586181640625</LongitudeDegrees>
            </Position>
            <AltitudeMeters>574.20001220703125</AltitudeMeters>
            <DistanceMeters>21021.057625884</DistanceMeters>
          </Trackpoint>
          <Trackpoint>
            <Time>2018-09-13T08:45:58.000Z</Time>
            <Position>
              <LatitudeDegrees>39.69504897482693195343017578125</LatitudeDegrees>
              <LongitudeDegrees>-8.130570463836193084716796875</LongitudeDegrees>
            </Position>
            <AltitudeMeters>574</AltitudeMeters>
            <DistanceMeters>21038.244068229</DistanceMeters>
          </Trackpoint>
          <Trackpoint>
            <Time>2018-09-13T08:46:00.000Z</Time>
            <Position>
              <LatitudeDegrees>39.69510882161557674407958984375</LatitudeDegrees>
              <LongitudeDegrees>-8.13075746409595012664794921875</LongitudeDegrees>
            </Position>
            <AltitudeMeters>575.20001220703125</AltitudeMeters>
            <DistanceMeters>21055.588981801</DistanceMeters>
          </Trackpoint>
          <Trackpoint>
            <Time>2018-09-13T08:46:02.000Z</Time>
            <Position>
              <LatitudeDegrees>39.69517101533710956573486328125</LatitudeDegrees>
              <LongitudeDegrees>-8.130954019725322723388671875</LongitudeDegrees>
            </Position>
            <AltitudeMeters>576</AltitudeMeters>
            <DistanceMeters>21073.790008816</DistanceMeters>
          </Trackpoint>
          <Trackpoint>
            <Time>2018-09-13T08:46:04.000Z</Time>
            <Position>
              <LatitudeDegrees>39.69521644525229930877685546875</LatitudeDegrees>
              <LongitudeDegrees>-8.13115828670561313629150390625</LongitudeDegrees>
            </Position>
            <AltitudeMeters>572.79998779296875</AltitudeMeters>
            <DistanceMeters>21091.999716038</DistanceMeters>
          </Trackpoint>
          <Trackpoint>
            <Time>2018-09-13T08:46:05.000Z</Time>
            <Position>
              <LatitudeDegrees>39.6952301077544689178466796875</LatitudeDegrees>
              <LongitudeDegrees>-8.13125752843916416168212890625</LongitudeDegrees>
            </Position>
            <AltitudeMeters>572.20001220703125</AltitudeMeters>
            <DistanceMeters>21100.633561129</DistanceMeters>
          </Trackpoint>
          <Trackpoint>
            <Time>2018-09-13T08:46:06.000Z</Time>
            <Position>
              <LatitudeDegrees>39.69523203559219837188720703125</LatitudeDegrees>
              <LongitudeDegrees>-8.13135777600109577178955078125</LongitudeDegrees>
            </Position>
            <AltitudeMeters>571.20001220703125</AltitudeMeters>
            <DistanceMeters>21109.221789374</DistanceMeters>
          </Trackpoint>
          <Trackpoint>
            <Time>2018-09-13T08:46:08.000Z</Time>
            <Position>
              <LatitudeDegrees>39.69519867561757564544677734375</LatitudeDegrees>
              <LongitudeDegrees>-8.1315613724291324615478515625</LongitudeDegrees>
            </Position>
            <AltitudeMeters>568.5999755859375</AltitudeMeters>
            <DistanceMeters>21127.048861774</DistanceMeters>
          </Trackpoint>
          <Trackpoint>
            <Time>2018-09-13T08:46:10.000Z</Time>
            <Position>
              <LatitudeDegrees>39.695126675069332122802734375</LatitudeDegrees>
              <LongitudeDegrees>-8.131764717400074005126953125</LongitudeDegrees>
            </Position>
            <AltitudeMeters>565.20001220703125</AltitudeMeters>
            <DistanceMeters>21146.219073589</DistanceMeters>
          </Trackpoint>
          <Trackpoint>
            <Time>2018-09-13T08:46:11.000Z</Time>
            <Position>
              <LatitudeDegrees>39.695084095001220703125</LatitudeDegrees>
              <LongitudeDegrees>-8.13186638988554477691650390625</LongitudeDegrees>
            </Position>
            <AltitudeMeters>562.4000244140625</AltitudeMeters>
            <DistanceMeters>21156.132869634</DistanceMeters>
          </Trackpoint>
          <Trackpoint>
            <Time>2018-09-13T08:46:12.000Z</Time>
            <Position>
              <LatitudeDegrees>39.6950410120189189910888671875</LatitudeDegrees>
              <LongitudeDegrees>-8.131965883076190948486328125</LongitudeDegrees>
            </Position>
            <AltitudeMeters>559.5999755859375</AltitudeMeters>
            <DistanceMeters>21165.910005679</DistanceMeters>
          </Trackpoint>
          <Trackpoint>
            <Time>2018-09-13T08:46:14.000Z</Time>
            <Position>
              <LatitudeDegrees>39.6949612163007259368896484375</LatitudeDegrees>
              <LongitudeDegrees>-8.1321680545806884765625</LongitudeDegrees>
            </Position>
            <AltitudeMeters>554.20001220703125</AltitudeMeters>
            <DistanceMeters>21185.3693794</DistanceMeters>
          </Trackpoint>
          <Trackpoint>
            <Time>2018-09-13T08:46:15.000Z</Time>
            <Position>
              <LatitudeDegrees>39.69492911361157894134521484375</LatitudeDegrees>
              <LongitudeDegrees>-8.13228380866348743438720703125</LongitudeDegrees>
            </Position>
            <AltitudeMeters>550.79998779296875</AltitudeMeters>
            <DistanceMeters>21195.906638054</DistanceMeters>
          </Trackpoint>
          <Trackpoint>
            <Time>2018-09-13T08:46:16.000Z</Time>
            <Position>
              <LatitudeDegrees>39.69490966759622097015380859375</LatitudeDegrees>
              <LongitudeDegrees>-8.13241406343877315521240234375</LongitudeDegrees>
            </Position>
            <AltitudeMeters>547.20001220703125</AltitudeMeters>
            <DistanceMeters>21207.269385653</DistanceMeters>
          </Trackpoint>
          <Trackpoint>
            <Time>2018-09-13T08:46:17.000Z</Time>
            <Position>
              <LatitudeDegrees>39.69490706920623779296875</LatitudeDegrees>
              <LongitudeDegrees>-8.13255286775529384613037109375</LongitudeDegrees>
            </Position>
            <AltitudeMeters>543.79998779296875</AltitudeMeters>
            <DistanceMeters>21219.16026186</DistanceMeters>
          </Trackpoint>
          <Trackpoint>
            <Time>2018-09-13T08:46:18.000Z</Time>
            <Position>
              <LatitudeDegrees>39.69490849412977695465087890625</LatitudeDegrees>
              <LongitudeDegrees>-8.1327100284397602081298828125</LongitudeDegrees>
            </Position>
            <AltitudeMeters>540.5999755859375</AltitudeMeters>
            <DistanceMeters>21232.620553601</DistanceMeters>
          </Trackpoint>
          <Trackpoint>
            <Time>2018-09-13T08:46:19.000Z</Time>
            <Position>
              <LatitudeDegrees>39.69490430317819118499755859375</LatitudeDegrees>
              <LongitudeDegrees>-8.13288110308349132537841796875</LongitudeDegrees>
            </Position>
            <AltitudeMeters>537.79998779296875</AltitudeMeters>
            <DistanceMeters>21247.278713066</DistanceMeters>
          </Trackpoint>
          <Trackpoint>
            <Time>2018-09-13T08:46:20.000Z</Time>
            <Position>
              <LatitudeDegrees>39.694887287914752960205078125</LatitudeDegrees>
              <LongitudeDegrees>-8.13306533731520175933837890625</LongitudeDegrees>
            </Position>
            <AltitudeMeters>534.4000244140625</AltitudeMeters>
            <DistanceMeters>21263.170066622</DistanceMeters>
          </Trackpoint>
          <Trackpoint>
            <Time>2018-09-13T08:46:21.000Z</Time>
            <Position>
              <LatitudeDegrees>39.694856442511081695556640625</LatitudeDegrees>
              <LongitudeDegrees>-8.13325862400233745574951171875</LongitudeDegrees>
            </Position>
            <AltitudeMeters>530.5999755859375</AltitudeMeters>
            <DistanceMeters>21280.075743759</DistanceMeters>
          </Trackpoint>
          <Trackpoint>
            <Time>2018-09-13T08:46:22.000Z</Time>
            <Position>
              <LatitudeDegrees>39.69481444917619228363037109375</LatitudeDegrees>
              <LongitudeDegrees>-8.13345408998429775238037109375</LongitudeDegrees>
            </Position>
            <AltitudeMeters>527.20001220703125</AltitudeMeters>
            <DistanceMeters>21297.456023308</DistanceMeters>
          </Trackpoint>
          <Trackpoint>
            <Time>2018-09-13T08:46:23.000Z</Time>
            <Position>
              <LatitudeDegrees>39.69476499594748020172119140625</LatitudeDegrees>
              <LongitudeDegrees>-8.13365072943270206451416015625</LongitudeDegrees>
            </Position>
            <AltitudeMeters>527.4000244140625</AltitudeMeters>
            <DistanceMeters>21315.17334583</DistanceMeters>
          </Trackpoint>
          <Trackpoint>
            <Time>2018-09-13T08:46:24.000Z</Time>
            <Position>
              <LatitudeDegrees>39.6947134472429752349853515625</LatitudeDegrees>
              <LongitudeDegrees>-8.13384586013853549957275390625</LongitudeDegrees>
            </Position>
            <AltitudeMeters>527.5999755859375</AltitudeMeters>
            <DistanceMeters>21332.842182883</DistanceMeters>
          </Trackpoint>
          <Trackpoint>
            <Time>2018-09-13T08:46:25.000Z</Time>
            <Position>
              <LatitudeDegrees>39.6946624852716922760009765625</LatitudeDegrees>
              <LongitudeDegrees>-8.13403822481632232666015625</LongitudeDegrees>
            </Position>
            <AltitudeMeters>527.79998779296875</AltitudeMeters>
            <DistanceMeters>21350.265532443</DistanceMeters>
          </Trackpoint>
          <Trackpoint>
            <Time>2018-09-13T08:46:26.000Z</Time>
            <Position>
              <LatitudeDegrees>39.6946108527481555938720703125</LatitudeDegrees>
              <LongitudeDegrees>-8.13422597944736480712890625</LongitudeDegrees>
            </Position>
            <AltitudeMeters>527.4000244140625</AltitudeMeters>
            <DistanceMeters>21367.341280403</DistanceMeters>
          </Trackpoint>
          <Trackpoint>
            <Time>2018-09-13T08:46:27.000Z</Time>
            <Position>
              <LatitudeDegrees>39.69455771148204803466796875</LatitudeDegrees>
              <LongitudeDegrees>-8.13440728001296520233154296875</LongitudeDegrees>
            </Position>
            <AltitudeMeters>527</AltitudeMeters>
            <DistanceMeters>21383.956559427</DistanceMeters>
          </Trackpoint>
          <Trackpoint>
            <Time>2018-09-13T08:46:28.000Z</Time>
            <Position>
              <LatitudeDegrees>39.6945042349398136138916015625</LatitudeDegrees>
              <LongitudeDegrees>-8.1345788575708866119384765625</LongitudeDegrees>
            </Position>
            <AltitudeMeters>526.4000244140625</AltitudeMeters>
            <DistanceMeters>21399.810364892</DistanceMeters>
          </Trackpoint>
          <Trackpoint>
            <Time>2018-09-13T08:46:29.000Z</Time>
            <Position>
              <LatitudeDegrees>39.69445050694048404693603515625</LatitudeDegrees>
              <LongitudeDegrees>-8.1347458250820636749267578125</LongitudeDegrees>
            </Position>
            <AltitudeMeters>525.4000244140625</AltitudeMeters>
            <DistanceMeters>21415.309918232</DistanceMeters>
          </Trackpoint>
          <Trackpoint>
            <Time>2018-09-13T08:46:30.000Z</Time>
            <Position>
              <LatitudeDegrees>39.694395773112773895263671875</LatitudeDegrees>
              <LongitudeDegrees>-8.13491120003163814544677734375</LongitudeDegrees>
            </Position>
            <AltitudeMeters>524.4000244140625</AltitudeMeters>
            <DistanceMeters>21430.727691492</DistanceMeters>
          </Trackpoint>
          <Trackpoint>
            <Time>2018-09-13T08:46:31.000Z</Time>
            <Position>
              <LatitudeDegrees>39.69434137456119060516357421875</LatitudeDegrees>
              <LongitudeDegrees>-8.135074563324451446533203125</LongitudeDegrees>
            </Position>
            <AltitudeMeters>523.4000244140625</AltitudeMeters>
            <DistanceMeters>21445.972298649</DistanceMeters>
          </Trackpoint>
          <Trackpoint>
            <Time>2018-09-13T08:46:32.000Z</Time>
            <Position>
              <LatitudeDegrees>39.694288484752178192138671875</LatitudeDegrees>
              <LongitudeDegrees>-8.13523457385599613189697265625</LongitudeDegrees>
            </Position>
            <AltitudeMeters>521.5999755859375</AltitudeMeters>
            <DistanceMeters>21460.886952621</DistanceMeters>
          </Trackpoint>
          <Trackpoint>
            <Time>2018-09-13T08:46:34.000Z</Time>
            <Position>
              <LatitudeDegrees>39.6941830404102802276611328125</LatitudeDegrees>
              <LongitudeDegrees>-8.13554939813911914825439453125</LongitudeDegrees>
            </Position>
            <AltitudeMeters>517.20001220703125</AltitudeMeters>
            <DistanceMeters>21490.292922937</DistanceMeters>
          </Trackpoint>
          <Trackpoint>
            <Time>2018-09-13T08:46:38.000Z</Time>
            <Position>
              <LatitudeDegrees>39.6939983032643795013427734375</LatitudeDegrees>
              <LongitudeDegrees>-8.13611961901187896728515625</LongitudeDegrees>
            </Position>
            <AltitudeMeters>512</AltitudeMeters>
            <DistanceMeters>21543.280520999</DistanceMeters>
          </Trackpoint>
          <Trackpoint>
            <Time>2018-09-13T08:46:39.000Z</Time>
            <Position>
              <LatitudeDegrees>39.693957231938838958740234375</LatitudeDegrees>
              <LongitudeDegrees>-8.13624165952205657958984375</LongitudeDegrees>
            </Position>
            <AltitudeMeters>512.20001220703125</AltitudeMeters>
            <DistanceMeters>21554.68847707</DistanceMeters>
          </Trackpoint>
          <Trackpoint>
            <Time>2018-09-13T08:46:40.000Z</Time>
            <Position>
              <LatitudeDegrees>39.69392093829810619354248046875</LatitudeDegrees>
              <LongitudeDegrees>-8.136348612606525421142578125</LongitudeDegrees>
            </Position>
            <AltitudeMeters>512.4000244140625</AltitudeMeters>
            <DistanceMeters>21564.699711682</DistanceMeters>
          </Trackpoint>
          <Trackpoint>
            <Time>2018-09-13T08:46:42.000Z</Time>
            <Position>
              <LatitudeDegrees>39.693852961063385009765625</LatitudeDegrees>
              <LongitudeDegrees>-8.136526644229888916015625</LongitudeDegrees>
            </Position>
            <AltitudeMeters>512.5999755859375</AltitudeMeters>
            <DistanceMeters>21581.72090355</DistanceMeters>
          </Trackpoint>
          <Trackpoint>
            <Time>2018-09-13T08:46:45.000Z</Time>
            <Position>
              <LatitudeDegrees>39.693799652159214019775390625</LatitudeDegrees>
              <LongitudeDegrees>-8.1366860680282115936279296875</LongitudeDegrees>
            </Position>
            <AltitudeMeters>512.5999755859375</AltitudeMeters>
            <DistanceMeters>21596.607680773</DistanceMeters>
          </Trackpoint>
          <Trackpoint>
            <Time>2018-09-13T08:46:50.000Z</Time>
            <Position>
              <LatitudeDegrees>39.69375581480562686920166015625</LatitudeDegrees>
              <LongitudeDegrees>-8.13681137748062610626220703125</LongitudeDegrees>
            </Position>
            <AltitudeMeters>511.600006103515625</AltitudeMeters>
            <DistanceMeters>21608.397122517</DistanceMeters>
          </Trackpoint>
          <Trackpoint>
            <Time>2018-09-13T08:46:54.000Z</Time>
            <Position>
              <LatitudeDegrees>39.69372899271547794342041015625</LatitudeDegrees>
              <LongitudeDegrees>-8.13689972274005413055419921875</LongitudeDegrees>
            </Position>
            <AltitudeMeters>510.79998779296875</AltitudeMeters>
            <DistanceMeters>21616.531209442</DistanceMeters>
          </Trackpoint>
          <Trackpoint>
            <Time>2018-09-13T08:46:56.000Z</Time>
            <Position>
              <LatitudeDegrees>39.69369194470345973968505859375</LatitudeDegrees>
              <LongitudeDegrees>-8.1370107829570770263671875</LongitudeDegrees>
            </Position>
            <AltitudeMeters>510</AltitudeMeters>
            <DistanceMeters>21626.898271217</DistanceMeters>
          </Trackpoint>
          <Trackpoint>
            <Time>2018-09-13T08:47:02.000Z</Time>
            <Position>
              <LatitudeDegrees>39.69343923032283782958984375</LatitudeDegrees>
              <LongitudeDegrees>-8.137508332729339599609375</LongitudeDegrees>
            </Position>
            <AltitudeMeters>503.600006103515625</AltitudeMeters>
            <DistanceMeters>21677.956541351</DistanceMeters>
          </Trackpoint>
          <Trackpoint>
            <Time>2018-09-13T08:47:04.000Z</Time>
            <Position>
              <LatitudeDegrees>39.69329061917960643768310546875</LatitudeDegrees>
              <LongitudeDegrees>-8.13769063912332057952880859375</LongitudeDegrees>
            </Position>
            <AltitudeMeters>501.399993896484375</AltitudeMeters>
            <DistanceMeters>21700.702491097</DistanceMeters>
          </Trackpoint>
          <Trackpoint>
            <Time>2018-09-13T08:47:06.000Z</Time>
            <Position>
              <LatitudeDegrees>39.693107642233371734619140625</LatitudeDegrees>
              <LongitudeDegrees>-8.1378556787967681884765625</LongitudeDegrees>
            </Position>
            <AltitudeMeters>499.79998779296875</AltitudeMeters>
            <DistanceMeters>21725.492627895</DistanceMeters>
          </Trackpoint>
          <Trackpoint>
            <Time>2018-09-13T08:47:07.000Z</Time>
            <Position>
              <LatitudeDegrees>39.69300479628145694732666015625</LatitudeDegrees>
              <LongitudeDegrees>-8.137926757335662841796875</LongitudeDegrees>
            </Position>
            <AltitudeMeters>498.79998779296875</AltitudeMeters>
            <DistanceMeters>21738.457420332</DistanceMeters>
          </Trackpoint>
          <Trackpoint>
            <Time>2018-09-13T08:47:08.000Z</Time>
            <Position>
              <LatitudeDegrees>39.69289365224540233612060546875</LatitudeDegrees>
              <LongitudeDegrees>-8.13798652030527591705322265625</LongitudeDegrees>
            </Position>
            <AltitudeMeters>497.79998779296875</AltitudeMeters>
            <DistanceMeters>21751.845062292</DistanceMeters>
          </Trackpoint>
          <Trackpoint>
            <Time>2018-09-13T08:47:09.000Z</Time>
            <Position>
              <LatitudeDegrees>39.6927752159535884857177734375</LatitudeDegrees>
              <LongitudeDegrees>-8.1380338780581951141357421875</LongitudeDegrees>
            </Position>
            <AltitudeMeters>497.20001220703125</AltitudeMeters>
            <DistanceMeters>21765.637036781</DistanceMeters>
          </Trackpoint>
          <Trackpoint>
            <Time>2018-09-13T08:47:10.000Z</Time>
            <Position>
              <LatitudeDegrees>39.6926508285105228424072265625</LatitudeDegrees>
              <LongitudeDegrees>-8.1380704231560230255126953125</LongitudeDegrees>
            </Position>
            <AltitudeMeters>496.600006103515625</AltitudeMeters>
            <DistanceMeters>21779.831368946</DistanceMeters>
          </Trackpoint>
          <Trackpoint>
            <Time>2018-09-13T08:47:11.000Z</Time>
            <Position>
              <LatitudeDegrees>39.692523591220378875732421875</LatitudeDegrees>
              <LongitudeDegrees>-8.13809749670326709747314453125</LongitudeDegrees>
            </Position>
            <AltitudeMeters>496.20001220703125</AltitudeMeters>
            <DistanceMeters>21794.181976019</DistanceMeters>
          </Trackpoint>
          <Trackpoint>
            <Time>2018-09-13T08:47:12.000Z</Time>
            <Position>
              <LatitudeDegrees>39.69239744357764720916748046875</LatitudeDegrees>
              <LongitudeDegrees>-8.1381150148808956146240234375</LongitudeDegrees>
            </Position>
            <AltitudeMeters>495.79998779296875</AltitudeMeters>
            <DistanceMeters>21808.302319071</DistanceMeters>
          </Trackpoint>
          <Trackpoint>
            <Time>2018-09-13T08:47:13.000Z</Time>
            <Position>
              <LatitudeDegrees>39.692274145781993865966796875</LatitudeDegrees>
              <LongitudeDegrees>-8.13812725245952606201171875</LongitudeDegrees>
            </Position>
            <AltitudeMeters>494.399993896484375</AltitudeMeters>
            <DistanceMeters>21822.06512705</DistanceMeters>
          </Trackpoint>
          <Trackpoint>
            <Time>2018-09-13T08:47:14.000Z</Time>
            <Position>
              <LatitudeDegrees>39.69215570949018001556396484375</LatitudeDegrees>
              <LongitudeDegrees>-8.13813957385718822479248046875</LongitudeDegrees>
            </Position>
            <AltitudeMeters>493</AltitudeMeters>
            <DistanceMeters>21835.289554845</DistanceMeters>
          </Trackpoint>
          <Trackpoint>
            <Time>2018-09-13T08:47:15.000Z</Time>
            <Position>
              <LatitudeDegrees>39.69204355962574481964111328125</LatitudeDegrees>
              <LongitudeDegrees>-8.138159103691577911376953125</LongitudeDegrees>
            </Position>
            <AltitudeMeters>491.399993896484375</AltitudeMeters>
            <DistanceMeters>21847.883373275</DistanceMeters>
          </Trackpoint>
          <Trackpoint>
            <Time>2018-09-13T08:47:16.000Z</Time>
            <Position>
              <LatitudeDegrees>39.69193442724645137786865234375</LatitudeDegrees>
              <LongitudeDegrees>-8.13818357884883880615234375</LongitudeDegrees>
            </Position>
            <AltitudeMeters>490</AltitudeMeters>
            <DistanceMeters>21860.209770407</DistanceMeters>
          </Trackpoint>
          <Trackpoint>
            <Time>2018-09-13T08:47:17.000Z</Time>
            <Position>
              <LatitudeDegrees>39.69182789325714111328125</LatitudeDegrees>
              <LongitudeDegrees>-8.13822247087955474853515625</LongitudeDegrees>
            </Position>
            <AltitudeMeters>488.79998779296875</AltitudeMeters>
            <DistanceMeters>21872.526640312</DistanceMeters>
          </Trackpoint>
          <Trackpoint>
            <Time>2018-09-13T08:47:18.000Z</Time>
            <Position>
              <LatitudeDegrees>39.69172605313360691070556640625</LatitudeDegrees>
              <LongitudeDegrees>-8.1382776238024234771728515625</LongitudeDegrees>
            </Position>
            <AltitudeMeters>487.600006103515625</AltitudeMeters>
            <DistanceMeters>21884.806798154</DistanceMeters>
          </Trackpoint>
          <Trackpoint>
            <Time>2018-09-13T08:47:19.000Z</Time>
            <Position>
              <LatitudeDegrees>39.69162932597100734710693359375</LatitudeDegrees>
              <LongitudeDegrees>-8.13834987580776214599609375</LongitudeDegrees>
            </Position>
            <AltitudeMeters>486.79998779296875</AltitudeMeters>
            <DistanceMeters>21897.224430189</DistanceMeters>
          </Trackpoint>
          <Trackpoint>
            <Time>2018-09-13T08:47:21.000Z</Time>
            <Position>
              <LatitudeDegrees>39.6914599277079105377197265625</LatitudeDegrees>
              <LongitudeDegrees>-8.13852958381175994873046875</LongitudeDegrees>
            </Position>
            <AltitudeMeters>485.399993896484375</AltitudeMeters>
            <DistanceMeters>21921.563144508</DistanceMeters>
          </Trackpoint>
          <Trackpoint>
            <Time>2018-09-13T08:47:23.000Z</Time>
            <Position>
              <LatitudeDegrees>39.691327325999736785888671875</LatitudeDegrees>
              <LongitudeDegrees>-8.1387461721897125244140625</LongitudeDegrees>
            </Position>
            <AltitudeMeters>484.20001220703125</AltitudeMeters>
            <DistanceMeters>21945.267881732</DistanceMeters>
          </Trackpoint>
          <Trackpoint>
            <Time>2018-09-13T08:47:25.000Z</Time>
            <Position>
              <LatitudeDegrees>39.69124359078705310821533203125</LatitudeDegrees>
              <LongitudeDegrees>-8.13900207169353961944580078125</LongitudeDegrees>
            </Position>
            <AltitudeMeters>483.79998779296875</AltitudeMeters>
            <DistanceMeters>21969.083972757</DistanceMeters>
          </Trackpoint>
          <Trackpoint>
            <Time>2018-09-13T08:47:26.000Z</Time>
            <Position>
              <LatitudeDegrees>39.69121224246919155120849609375</LatitudeDegrees>
              <LongitudeDegrees>-8.1391389481723308563232421875</LongitudeDegrees>
            </Position>
            <AltitudeMeters>483.79998779296875</AltitudeMeters>
            <DistanceMeters>21981.31476367</DistanceMeters>
          </Trackpoint>
          <Trackpoint>
            <Time>2018-09-13T08:47:27.000Z</Time>
            <Position>
              <LatitudeDegrees>39.69118307344615459442138671875</LatitudeDegrees>
              <LongitudeDegrees>-8.13927917741239070892333984375</LongitudeDegrees>
            </Position>
            <AltitudeMeters>484</AltitudeMeters>
            <DistanceMeters>21993.75600719</DistanceMeters>
          </Trackpoint>
          <Trackpoint>
            <Time>2018-09-13T08:47:29.000Z</Time>
            <Position>
              <LatitudeDegrees>39.6911223046481609344482421875</LatitudeDegrees>
              <LongitudeDegrees>-8.1395624019205570220947265625</LongitudeDegrees>
            </Position>
            <AltitudeMeters>483</AltitudeMeters>
            <DistanceMeters>22018.938445087</DistanceMeters>
          </Trackpoint>
          <Trackpoint>
            <Time>2018-09-13T08:47:32.000Z</Time>
            <Position>
              <LatitudeDegrees>39.69100655056536197662353515625</LatitudeDegrees>
              <LongitudeDegrees>-8.13994268886744976043701171875</LongitudeDegrees>
            </Position>
            <AltitudeMeters>481.79998779296875</AltitudeMeters>
            <DistanceMeters>22053.964265927</DistanceMeters>
          </Trackpoint>
          <Trackpoint>
            <Time>2018-09-13T08:47:33.000Z</Time>
            <Position>
              <LatitudeDegrees>39.69095491804182529449462890625</LatitudeDegrees>
              <LongitudeDegrees>-8.1400512345135211944580078125</LongitudeDegrees>
            </Position>
            <AltitudeMeters>481.20001220703125</AltitudeMeters>
            <DistanceMeters>22064.893577488</DistanceMeters>
          </Trackpoint>
          <Trackpoint>
            <Time>2018-09-13T08:47:35.000Z</Time>
            <Position>
              <LatitudeDegrees>39.69086623750627040863037109375</LatitudeDegrees>
              <LongitudeDegrees>-8.14024217426776885986328125</LongitudeDegrees>
            </Position>
            <AltitudeMeters>481</AltitudeMeters>
            <DistanceMeters>22083.994656218</DistanceMeters>
          </Trackpoint>
          <Trackpoint>
            <Time>2018-09-13T08:47:37.000Z</Time>
            <Position>
              <LatitudeDegrees>39.6908259205520153045654296875</LatitudeDegrees>
              <LongitudeDegrees>-8.14040620811283588409423828125</LongitudeDegrees>
            </Position>
            <AltitudeMeters>481</AltitudeMeters>
            <DistanceMeters>22098.743096183</DistanceMeters>
          </Trackpoint>
          <Trackpoint>
            <Time>2018-09-13T08:47:40.000Z</Time>
            <Position>
              <LatitudeDegrees>39.69080798327922821044921875</LatitudeDegrees>
              <LongitudeDegrees>-8.14057837240397930145263671875</LongitudeDegrees>
            </Position>
            <AltitudeMeters>481</AltitudeMeters>
            <DistanceMeters>22113.622896058</DistanceMeters>
          </Trackpoint>
          <Trackpoint>
            <Time>2018-09-13T08:47:42.000Z</Time>
            <Position>
              <LatitudeDegrees>39.69077370129525661468505859375</LatitudeDegrees>
              <LongitudeDegrees>-8.14066059887409210205078125</LongitudeDegrees>
            </Position>
            <AltitudeMeters>480.79998779296875</AltitudeMeters>
            <DistanceMeters>22121.632808238</DistanceMeters>
          </Trackpoint>
          <Trackpoint>
            <Time>2018-09-13T08:47:45.000Z</Time>
            <Position>
              <LatitudeDegrees>39.69065886922180652618408203125</LatitudeDegrees>
              <LongitudeDegrees>-8.14075992442667484283447265625</LongitudeDegrees>
            </Position>
            <AltitudeMeters>480.600006103515625</AltitudeMeters>
            <DistanceMeters>22136.986020133</DistanceMeters>
          </Trackpoint>
          <Trackpoint>
            <Time>2018-09-13T08:47:47.000Z</Time>
            <Position>
              <LatitudeDegrees>39.69057463109493255615234375</LatitudeDegrees>
              <LongitudeDegrees>-8.140778951346874237060546875</LongitudeDegrees>
            </Position>
            <AltitudeMeters>480.399993896484375</AltitudeMeters>
            <DistanceMeters>22146.502460468</DistanceMeters>
          </Trackpoint>
          <Trackpoint>
            <Time>2018-09-13T08:47:48.000Z</Time>
            <Position>
              <LatitudeDegrees>39.690535403788089752197265625</LatitudeDegrees>
              <LongitudeDegrees>-8.14078255556523799896240234375</LongitudeDegrees>
            </Position>
            <AltitudeMeters>480.399993896484375</AltitudeMeters>
            <DistanceMeters>22150.879882337</DistanceMeters>
          </Trackpoint>
          <Trackpoint>
            <Time>2018-09-13T08:47:54.000Z</Time>
            <Position>
              <LatitudeDegrees>39.69027581624686717987060546875</LatitudeDegrees>
              <LongitudeDegrees>-8.140804767608642578125</LongitudeDegrees>
            </Position>
            <AltitudeMeters>479.399993896484375</AltitudeMeters>
            <DistanceMeters>22179.835131904</DistanceMeters>
          </Trackpoint>
          <Trackpoint>
            <Time>2018-09-13T08:47:57.000Z</Time>
            <Position>
              <LatitudeDegrees>39.69011153094470500946044921875</LatitudeDegrees>
              <LongitudeDegrees>-8.14082563854753971099853515625</LongitudeDegrees>
            </Position>
            <AltitudeMeters>478.399993896484375</AltitudeMeters>
            <DistanceMeters>22198.207509472</DistanceMeters>
          </Trackpoint>
          <Trackpoint>
            <Time>2018-09-13T08:48:01.000Z</Time>
            <Position>
              <LatitudeDegrees>39.68985135667026042938232421875</LatitudeDegrees>
              <LongitudeDegrees>-8.1408465094864368438720703125</LongitudeDegrees>
            </Position>
            <AltitudeMeters>476.79998779296875</AltitudeMeters>
            <DistanceMeters>22227.220707606</DistanceMeters>
          </Trackpoint>
          <Trackpoint>
            <Time>2018-09-13T08:48:04.000Z</Time>
            <Position>
              <LatitudeDegrees>39.68963141553103923797607421875</LatitudeDegrees>
              <LongitudeDegrees>-8.140864111483097076416015625</LongitudeDegrees>
            </Position>
            <AltitudeMeters>475.600006103515625</AltitudeMeters>
            <DistanceMeters>22251.747174379</DistanceMeters>
          </Trackpoint>
          <Trackpoint>
            <Time>2018-09-13T08:48:06.000Z</Time>
            <Position>
              <LatitudeDegrees>39.6894777752459049224853515625</LatitudeDegrees>
              <LongitudeDegrees>-8.14087861217558383941650390625</LongitudeDegrees>
            </Position>
            <AltitudeMeters>473.79998779296875</AltitudeMeters>
            <DistanceMeters>22268.892585093</DistanceMeters>
          </Trackpoint>
          <Trackpoint>
            <Time>2018-09-13T08:48:07.000Z</Time>
            <Position>
              <LatitudeDegrees>39.689398147165775299072265625</LatitudeDegrees>
              <LongitudeDegrees>-8.1408884190022945404052734375</LongitudeDegrees>
            </Position>
            <AltitudeMeters>472.600006103515625</AltitudeMeters>
            <DistanceMeters>22277.794716909</DistanceMeters>
          </Trackpoint>
          <Trackpoint>
            <Time>2018-09-13T08:48:09.000Z</Time>
            <Position>
              <LatitudeDegrees>39.689234197139739990234375</LatitudeDegrees>
              <LongitudeDegrees>-8.14090761356055736541748046875</LongitudeDegrees>
            </Position>
            <AltitudeMeters>470.20001220703125</AltitudeMeters>
            <DistanceMeters>22296.116399739</DistanceMeters>
          </Trackpoint>
          <Trackpoint>
            <Time>2018-09-13T08:48:11.000Z</Time>
            <Position>
              <LatitudeDegrees>39.68906454741954803466796875</LatitudeDegrees>
              <LongitudeDegrees>-8.1409263052046298980712890625</LongitudeDegrees>
            </Position>
            <AltitudeMeters>467.600006103515625</AltitudeMeters>
            <DistanceMeters>22315.066546969</DistanceMeters>
          </Trackpoint>
          <Trackpoint>
            <Time>2018-09-13T08:48:13.000Z</Time>
            <Position>
              <LatitudeDegrees>39.68888844363391399383544921875</LatitudeDegrees>
              <LongitudeDegrees>-8.140941560268402099609375</LongitudeDegrees>
            </Position>
            <AltitudeMeters>465</AltitudeMeters>
            <DistanceMeters>22334.710662799</DistanceMeters>
          </Trackpoint>
          <Trackpoint>
            <Time>2018-09-13T08:48:17.000Z</Time>
            <Position>
              <LatitudeDegrees>39.6885242499411106109619140625</LatitudeDegrees>
              <LongitudeDegrees>-8.1409777700901031494140625</LongitudeDegrees>
            </Position>
            <AltitudeMeters>461.20001220703125</AltitudeMeters>
            <DistanceMeters>22375.364552788</DistanceMeters>
          </Trackpoint>
          <Trackpoint>
            <Time>2018-09-13T08:48:19.000Z</Time>
            <Position>
              <LatitudeDegrees>39.68833641149103641510009765625</LatitudeDegrees>
              <LongitudeDegrees>-8.140996210277080535888671875</LongitudeDegrees>
            </Position>
            <AltitudeMeters>460.399993896484375</AltitudeMeters>
            <DistanceMeters>22396.330814289</DistanceMeters>
          </Trackpoint>
          <Trackpoint>
            <Time>2018-09-13T08:48:21.000Z</Time>
            <Position>
              <LatitudeDegrees>39.68814186751842498779296875</LatitudeDegrees>
              <LongitudeDegrees>-8.14101959578692913055419921875</LongitudeDegrees>
            </Position>
            <AltitudeMeters>459.600006103515625</AltitudeMeters>
            <DistanceMeters>22418.076365168</DistanceMeters>
          </Trackpoint>
          <Trackpoint>
            <Time>2018-09-13T08:48:23.000Z</Time>
            <Position>
              <LatitudeDegrees>39.68794296495616436004638671875</LatitudeDegrees>
              <LongitudeDegrees>-8.1410475075244903564453125</LongitudeDegrees>
            </Position>
            <AltitudeMeters>458.600006103515625</AltitudeMeters>
            <DistanceMeters>22440.343052781</DistanceMeters>
          </Trackpoint>
          <Trackpoint>
            <Time>2018-09-13T08:48:25.000Z</Time>
            <Position>
              <LatitudeDegrees>39.68773878179490566253662109375</LatitudeDegrees>
              <LongitudeDegrees>-8.1410734914243221282958984375</LongitudeDegrees>
            </Position>
            <AltitudeMeters>457.20001220703125</AltitudeMeters>
            <DistanceMeters>22463.177756722</DistanceMeters>
          </Trackpoint>
          <Trackpoint>
            <Time>2018-09-13T08:48:29.000Z</Time>
            <Position>
              <LatitudeDegrees>39.68731038272380828857421875</LatitudeDegrees>
              <LongitudeDegrees>-8.1411321647465229034423828125</LongitudeDegrees>
            </Position>
            <AltitudeMeters>455.20001220703125</AltitudeMeters>
            <DistanceMeters>22511.123607643</DistanceMeters>
          </Trackpoint>
          <Trackpoint>
            <Time>2018-09-13T08:48:32.000Z</Time>
            <Position>
              <LatitudeDegrees>39.68697250820696353912353515625</LatitudeDegrees>
              <LongitudeDegrees>-8.14117826521396636962890625</LongitudeDegrees>
            </Position>
            <AltitudeMeters>453.399993896484375</AltitudeMeters>
            <DistanceMeters>22548.936479447</DistanceMeters>
          </Trackpoint>
          <Trackpoint>
            <Time>2018-09-13T08:48:34.000Z</Time>
            <Position>
              <LatitudeDegrees>39.68673949129879474639892578125</LatitudeDegrees>
              <LongitudeDegrees>-8.141216821968555450439453125</LongitudeDegrees>
            </Position>
            <AltitudeMeters>452.20001220703125</AltitudeMeters>
            <DistanceMeters>22575.081090106</DistanceMeters>
          </Trackpoint>
          <Trackpoint>
            <Time>2018-09-13T08:48:37.000Z</Time>
            <Position>
              <LatitudeDegrees>39.68638041056692600250244140625</LatitudeDegrees>
              <LongitudeDegrees>-8.14126233570277690887451171875</LongitudeDegrees>
            </Position>
            <AltitudeMeters>448.600006103515625</AltitudeMeters>
            <DistanceMeters>22615.2371579</DistanceMeters>
          </Trackpoint>
          <Trackpoint>
            <Time>2018-09-13T08:48:39.000Z</Time>
            <Position>
              <LatitudeDegrees>39.6861390955746173858642578125</LatitudeDegrees>
              <LongitudeDegrees>-8.141293264925479888916015625</LongitudeDegrees>
            </Position>
            <AltitudeMeters>446.20001220703125</AltitudeMeters>
            <DistanceMeters>22642.226417735</DistanceMeters>
          </Trackpoint>
          <Trackpoint>
            <Time>2018-09-13T08:48:42.000Z</Time>
            <Position>
              <LatitudeDegrees>39.685776494443416595458984375</LatitudeDegrees>
              <LongitudeDegrees>-8.14134179614484310150146484375</LongitudeDegrees>
            </Position>
            <AltitudeMeters>444</AltitudeMeters>
            <DistanceMeters>22682.798039771</DistanceMeters>
          </Trackpoint>
          <Trackpoint>
            <Time>2018-09-13T08:48:43.000Z</Time>
            <Position>
              <LatitudeDegrees>39.6856552921235561370849609375</LatitudeDegrees>
              <LongitudeDegrees>-8.1413586437702178955078125</LongitudeDegrees>
            </Position>
            <AltitudeMeters>443.20001220703125</AltitudeMeters>
            <DistanceMeters>22696.364580158</DistanceMeters>
          </Trackpoint>
          <Trackpoint>
            <Time>2018-09-13T08:48:44.000Z</Time>
            <Position>
              <LatitudeDegrees>39.68553333543241024017333984375</LatitudeDegrees>
              <LongitudeDegrees>-8.14137465320527553558349609375</LongitudeDegrees>
            </Position>
            <AltitudeMeters>442.600006103515625</AltitudeMeters>
            <DistanceMeters>22710.008113272</DistanceMeters>
          </Trackpoint>
          <Trackpoint>
            <Time>2018-09-13T08:48:45.000Z</Time>
            <Position>
              <LatitudeDegrees>39.68541163019835948944091796875</LatitudeDegrees>
              <LongitudeDegrees>-8.1413908302783966064453125</LongitudeDegrees>
            </Position>
            <AltitudeMeters>442</AltitudeMeters>
            <DistanceMeters>22723.625146344</DistanceMeters>
          </Trackpoint>
          <Trackpoint>
            <Time>2018-09-13T08:48:46.000Z</Time>
            <Position>
              <LatitudeDegrees>39.685289673507213592529296875</LatitudeDegrees>
              <LongitudeDegrees>-8.1414060853421688079833984375</LongitudeDegrees>
            </Position>
            <AltitudeMeters>441.399993896484375</AltitudeMeters>
            <DistanceMeters>22737.261728182</DistanceMeters>
          </Trackpoint>
          <Trackpoint>
            <Time>2018-09-13T08:48:47.000Z</Time>
            <Position>
              <LatitudeDegrees>39.6851671300828456878662109375</LatitudeDegrees>
              <LongitudeDegrees>-8.14142393879592418670654296875</LongitudeDegrees>
            </Position>
            <AltitudeMeters>441.20001220703125</AltitudeMeters>
            <DistanceMeters>22750.986428347</DistanceMeters>
          </Trackpoint>
          <Trackpoint>
            <Time>2018-09-13T08:48:49.000Z</Time>
            <Position>
              <LatitudeDegrees>39.68491961248219013214111328125</LatitudeDegrees>
              <LongitudeDegrees>-8.1414614059031009674072265625</LongitudeDegrees>
            </Position>
            <AltitudeMeters>440.79998779296875</AltitudeMeters>
            <DistanceMeters>22778.721859696</DistanceMeters>
          </Trackpoint>
          <Trackpoint>
            <Time>2018-09-13T08:48:51.000Z</Time>
            <Position>
              <LatitudeDegrees>39.68466631136834621429443359375</LatitudeDegrees>
              <LongitudeDegrees>-8.1414954364299774169921875</LongitudeDegrees>
            </Position>
            <AltitudeMeters>439.79998779296875</AltitudeMeters>
            <DistanceMeters>22807.065160327</DistanceMeters>
          </Trackpoint>
          <Trackpoint>
            <Time>2018-09-13T08:48:53.000Z</Time>
            <Position>
              <LatitudeDegrees>39.68440613709390163421630859375</LatitudeDegrees>
              <LongitudeDegrees>-8.1415301375091075897216796875</LongitudeDegrees>
            </Position>
            <AltitudeMeters>438.20001220703125</AltitudeMeters>
            <DistanceMeters>22836.175148365</DistanceMeters>
          </Trackpoint>
          <Trackpoint>
            <Time>2018-09-13T08:48:56.000Z</Time>
            <Position>
              <LatitudeDegrees>39.68401067890226840972900390625</LatitudeDegrees>
              <LongitudeDegrees>-8.1415807642042636871337890625</LongitudeDegrees>
            </Position>
            <AltitudeMeters>435.20001220703125</AltitudeMeters>
            <DistanceMeters>22880.403525452</DistanceMeters>
          </Trackpoint>
          <Trackpoint>
            <Time>2018-09-13T08:49:00.000Z</Time>
            <Position>
              <LatitudeDegrees>39.6834723092615604400634765625</LatitudeDegrees>
              <LongitudeDegrees>-8.14165410585701465606689453125</LongitudeDegrees>
            </Position>
            <AltitudeMeters>432.600006103515625</AltitudeMeters>
            <DistanceMeters>22940.653459977</DistanceMeters>
          </Trackpoint>
          <Trackpoint>
            <Time>2018-09-13T08:49:01.000Z</Time>
            <Position>
              <LatitudeDegrees>39.6833361871540546417236328125</LatitudeDegrees>
              <LongitudeDegrees>-8.1416719593107700347900390625</LongitudeDegrees>
            </Position>
            <AltitudeMeters>432.20001220703125</AltitudeMeters>
            <DistanceMeters>22955.880879421</DistanceMeters>
          </Trackpoint>
          <Trackpoint>
            <Time>2018-09-13T08:49:02.000Z</Time>
            <Position>
              <LatitudeDegrees>39.683201573789119720458984375</LatitudeDegrees>
              <LongitudeDegrees>-8.1416893936693668365478515625</LongitudeDegrees>
            </Position>
            <AltitudeMeters>431.79998779296875</AltitudeMeters>
            <DistanceMeters>22970.937741617</DistanceMeters>
          </Trackpoint>
          <Trackpoint>
            <Time>2018-09-13T08:49:04.000Z</Time>
            <Position>
              <LatitudeDegrees>39.68293695710599422454833984375</LatitudeDegrees>
              <LongitudeDegrees>-8.14172183163464069366455078125</LongitudeDegrees>
            </Position>
            <AltitudeMeters>431</AltitudeMeters>
            <DistanceMeters>23000.520826119</DistanceMeters>
          </Trackpoint>
          <Trackpoint>
            <Time>2018-09-13T08:49:06.000Z</Time>
            <Position>
              <LatitudeDegrees>39.682679213583469390869140625</LatitudeDegrees>
              <LongitudeDegrees>-8.1417529284954071044921875</LongitudeDegrees>
            </Position>
            <AltitudeMeters>430.399993896484375</AltitudeMeters>
            <DistanceMeters>23029.331634627</DistanceMeters>
          </Trackpoint>
          <Trackpoint>
            <Time>2018-09-13T08:49:10.000Z</Time>
            <Position>
              <LatitudeDegrees>39.68219406902790069580078125</LatitudeDegrees>
              <LongitudeDegrees>-8.1418201513588428497314453125</LongitudeDegrees>
            </Position>
            <AltitudeMeters>428.399993896484375</AltitudeMeters>
            <DistanceMeters>23083.635390334</DistanceMeters>
          </Trackpoint>
          <Trackpoint>
            <Time>2018-09-13T08:49:11.000Z</Time>
            <Position>
              <LatitudeDegrees>39.68208007514476776123046875</LatitudeDegrees>
              <LongitudeDegrees>-8.14183498732745647430419921875</LongitudeDegrees>
            </Position>
            <AltitudeMeters>428</AltitudeMeters>
            <DistanceMeters>23096.3866866</DistanceMeters>
          </Trackpoint>
          <Trackpoint>
            <Time>2018-09-13T08:49:13.000Z</Time>
            <Position>
              <LatitudeDegrees>39.6818592958152294158935546875</LatitudeDegrees>
              <LongitudeDegrees>-8.141861222684383392333984375</LongitudeDegrees>
            </Position>
            <AltitudeMeters>427</AltitudeMeters>
            <DistanceMeters>23121.062363379</DistanceMeters>
          </Trackpoint>
          <Trackpoint>
            <Time>2018-09-13T08:49:15.000Z</Time>
            <Position>
              <LatitudeDegrees>39.68164958059787750244140625</LatitudeDegrees>
              <LongitudeDegrees>-8.14188829623162746429443359375</LongitudeDegrees>
            </Position>
            <AltitudeMeters>425.79998779296875</AltitudeMeters>
            <DistanceMeters>23144.519145296</DistanceMeters>
          </Trackpoint>
          <Trackpoint>
            <Time>2018-09-13T08:49:21.000Z</Time>
            <Position>
              <LatitudeDegrees>39.6810735762119293212890625</LatitudeDegrees>
              <LongitudeDegrees>-8.1419824250042438507080078125</LongitudeDegrees>
            </Position>
            <AltitudeMeters>423.20001220703125</AltitudeMeters>
            <DistanceMeters>23209.134655855</DistanceMeters>
          </Trackpoint>
          <Trackpoint>
            <Time>2018-09-13T08:49:22.000Z</Time>
            <Position>
              <LatitudeDegrees>39.68098464421927928924560546875</LatitudeDegrees>
              <LongitudeDegrees>-8.14201184548437595367431640625</LongitudeDegrees>
            </Position>
            <AltitudeMeters>423</AltitudeMeters>
            <DistanceMeters>23219.348149042</DistanceMeters>
          </Trackpoint>
          <Trackpoint>
            <Time>2018-09-13T08:49:26.000Z</Time>
            <Position>
              <LatitudeDegrees>39.68065523542463779449462890625</LatitudeDegrees>
              <LongitudeDegrees>-8.14220412634313106536865234375</LongitudeDegrees>
            </Position>
            <AltitudeMeters>421.600006103515625</AltitudeMeters>
            <DistanceMeters>23259.541641004</DistanceMeters>
          </Trackpoint>
          <Trackpoint>
            <Time>2018-09-13T08:49:32.000Z</Time>
            <Position>
              <LatitudeDegrees>39.680140502750873565673828125</LatitudeDegrees>
              <LongitudeDegrees>-8.1421906314790248870849609375</LongitudeDegrees>
            </Position>
            <AltitudeMeters>422.600006103515625</AltitudeMeters>
            <DistanceMeters>23316.844089268</DistanceMeters>
          </Trackpoint>
          <Trackpoint>
            <Time>2018-09-13T08:49:33.000Z</Time>
            <Position>
              <LatitudeDegrees>39.6800652332603931427001953125</LatitudeDegrees>
              <LongitudeDegrees>-8.14216037280857563018798828125</LongitudeDegrees>
            </Position>
            <AltitudeMeters>423.399993896484375</AltitudeMeters>
            <DistanceMeters>23325.614390925</DistanceMeters>
          </Trackpoint>
          <Trackpoint>
            <Time>2018-09-13T08:49:36.000Z</Time>
            <Position>
              <LatitudeDegrees>39.67984923161566257476806640625</LatitudeDegrees>
              <LongitudeDegrees>-8.1421376578509807586669921875</LongitudeDegrees>
            </Position>
            <AltitudeMeters>426.20001220703125</AltitudeMeters>
            <DistanceMeters>23349.734335058</DistanceMeters>
          </Trackpoint>
          <Trackpoint>
            <Time>2018-09-13T08:49:38.000Z</Time>
            <Position>
              <LatitudeDegrees>39.67971612699329853057861328125</LatitudeDegrees>
              <LongitudeDegrees>-8.1421514041721820831298828125</LongitudeDegrees>
            </Position>
            <AltitudeMeters>428</AltitudeMeters>
            <DistanceMeters>23364.595613928</DistanceMeters>
          </Trackpoint>
          <Trackpoint>
            <Time>2018-09-13T08:49:42.000Z</Time>
            <Position>
              <LatitudeDegrees>39.67947187833487987518310546875</LatitudeDegrees>
              <LongitudeDegrees>-8.14218585379421710968017578125</LongitudeDegrees>
            </Position>
            <AltitudeMeters>430.79998779296875</AltitudeMeters>
            <DistanceMeters>23391.940531372</DistanceMeters>
          </Trackpoint>
          <Trackpoint>
            <Time>2018-09-13T08:49:46.000Z</Time>
            <Position>
              <LatitudeDegrees>39.679256714880466461181640625</LatitudeDegrees>
              <LongitudeDegrees>-8.1422164477407932281494140625</LongitudeDegrees>
            </Position>
            <AltitudeMeters>431.600006103515625</AltitudeMeters>
            <DistanceMeters>23416.031630833</DistanceMeters>
          </Trackpoint>
          <Trackpoint>
            <Time>2018-09-13T08:49:48.000Z</Time>
            <Position>
              <LatitudeDegrees>39.67915780842304229736328125</LatitudeDegrees>
              <LongitudeDegrees>-8.142227344214916229248046875</LongitudeDegrees>
            </Position>
            <AltitudeMeters>432</AltitudeMeters>
            <DistanceMeters>23427.079686919</DistanceMeters>
          </Trackpoint>
          <Trackpoint>
            <Time>2018-09-13T08:49:51.000Z</Time>
            <Position>
              <LatitudeDegrees>39.6790195070207118988037109375</LatitudeDegrees>
              <LongitudeDegrees>-8.14224352128803730010986328125</LongitudeDegrees>
            </Position>
            <AltitudeMeters>432.79998779296875</AltitudeMeters>
            <DistanceMeters>23442.535483316</DistanceMeters>
          </Trackpoint>
          <Trackpoint>
            <Time>2018-09-13T08:49:55.000Z</Time>
            <Position>
              <LatitudeDegrees>39.67885203659534454345703125</LatitudeDegrees>
              <LongitudeDegrees>-8.14226665534079074859619140625</LongitudeDegrees>
            </Position>
            <AltitudeMeters>433.79998779296875</AltitudeMeters>
            <DistanceMeters>23461.280330728</DistanceMeters>
          </Trackpoint>
          <Trackpoint>
            <Time>2018-09-13T08:50:00.000Z</Time>
            <Position>
              <LatitudeDegrees>39.6786500327289104461669921875</LatitudeDegrees>
              <LongitudeDegrees>-8.1422947347164154052734375</LongitudeDegrees>
            </Position>
            <AltitudeMeters>434.79998779296875</AltitudeMeters>
            <DistanceMeters>23483.892096655</DistanceMeters>
          </Trackpoint>
          <Trackpoint>
            <Time>2018-09-13T08:50:04.000Z</Time>
            <Position>
              <LatitudeDegrees>39.67848549596965312957763671875</LatitudeDegrees>
              <LongitudeDegrees>-8.14231845550239086151123046875</LongitudeDegrees>
            </Position>
            <AltitudeMeters>435.20001220703125</AltitudeMeters>
            <DistanceMeters>23502.31748007</DistanceMeters>
          </Trackpoint>
          <Trackpoint>
            <Time>2018-09-13T08:50:11.000Z</Time>
            <Position>
              <LatitudeDegrees>39.678192548453807830810546875</LatitudeDegrees>
              <LongitudeDegrees>-8.142349384725093841552734375</LongitudeDegrees>
            </Position>
            <AltitudeMeters>436</AltitudeMeters>
            <DistanceMeters>23535.030693904</DistanceMeters>
          </Trackpoint>
          <Trackpoint>
            <Time>2018-09-13T08:50:12.000Z</Time>
            <Position>
              <LatitudeDegrees>39.67815038748085498809814453125</LatitudeDegrees>
              <LongitudeDegrees>-8.14235667698085308074951171875</LongitudeDegrees>
            </Position>
            <AltitudeMeters>436</AltitudeMeters>
            <DistanceMeters>23539.764893914</DistanceMeters>
          </Trackpoint>
          <Trackpoint>
            <Time>2018-09-13T08:50:15.000Z</Time>
            <Position>
              <LatitudeDegrees>39.678017199039459228515625</LatitudeDegrees>
              <LongitudeDegrees>-8.1423740275204181671142578125</LongitudeDegrees>
            </Position>
            <AltitudeMeters>436</AltitudeMeters>
            <DistanceMeters>23554.66319177</DistanceMeters>
          </Trackpoint>
          <Trackpoint>
            <Time>2018-09-13T08:50:22.000Z</Time>
            <Position>
              <LatitudeDegrees>39.67768770642578601837158203125</LatitudeDegrees>
              <LongitudeDegrees>-8.1424102373421192169189453125</LongitudeDegrees>
            </Position>
            <AltitudeMeters>435.20001220703125</AltitudeMeters>
            <DistanceMeters>23591.467370702</DistanceMeters>
          </Trackpoint>
          <Trackpoint>
            <Time>2018-09-13T08:50:32.000Z</Time>
            <Position>
              <LatitudeDegrees>39.67721454799175262451171875</LatitudeDegrees>
              <LongitudeDegrees>-8.14248793758451938629150390625</LongitudeDegrees>
            </Position>
            <AltitudeMeters>434.600006103515625</AltitudeMeters>
            <DistanceMeters>23644.549807097</DistanceMeters>
          </Trackpoint>
          <Trackpoint>
            <Time>2018-09-13T08:50:36.000Z</Time>
            <Position>
              <LatitudeDegrees>39.6770524419844150543212890625</LatitudeDegrees>
              <LongitudeDegrees>-8.14261115156114101409912109375</LongitudeDegrees>
            </Position>
            <AltitudeMeters>434</AltitudeMeters>
            <DistanceMeters>23665.45309246</DistanceMeters>
          </Trackpoint>
          <Trackpoint>
            <Time>2018-09-13T08:50:37.000Z</Time>
            <Position>
              <LatitudeDegrees>39.6770078502595424652099609375</LatitudeDegrees>
              <LongitudeDegrees>-8.14264141023159027099609375</LongitudeDegrees>
            </Position>
            <AltitudeMeters>434</AltitudeMeters>
            <DistanceMeters>23671.051609705</DistanceMeters>
          </Trackpoint>
          <Trackpoint>
            <Time>2018-09-13T08:50:42.000Z</Time>
            <Position>
              <LatitudeDegrees>39.6767587400972843170166015625</LatitudeDegrees>
              <LongitudeDegrees>-8.14260176382958889007568359375</LongitudeDegrees>
            </Position>
            <AltitudeMeters>432.399993896484375</AltitudeMeters>
            <DistanceMeters>23698.985261552</DistanceMeters>
          </Trackpoint>
          <Trackpoint>
            <Time>2018-09-13T08:50:43.000Z</Time>
            <Position>
              <LatitudeDegrees>39.67670534737408161163330078125</LatitudeDegrees>
              <LongitudeDegrees>-8.1425832398235797882080078125</LongitudeDegrees>
            </Position>
            <AltitudeMeters>432</AltitudeMeters>
            <DistanceMeters>23705.136360665</DistanceMeters>
          </Trackpoint>
          <Trackpoint>
            <Time>2018-09-13T08:50:48.000Z</Time>
            <Position>
              <LatitudeDegrees>39.67640493996441364288330078125</LatitudeDegrees>
              <LongitudeDegrees>-8.142580725252628326416015625</LongitudeDegrees>
            </Position>
            <AltitudeMeters>430.20001220703125</AltitudeMeters>
            <DistanceMeters>23738.57307349</DistanceMeters>
          </Trackpoint>
          <Trackpoint>
            <Time>2018-09-13T08:50:51.000Z</Time>
            <Position>
              <LatitudeDegrees>39.6762080490589141845703125</LatitudeDegrees>
              <LongitudeDegrees>-8.1425959803164005279541015625</LongitudeDegrees>
            </Position>
            <AltitudeMeters>429</AltitudeMeters>
            <DistanceMeters>23760.526301268</DistanceMeters>
          </Trackpoint>
          <Trackpoint>
            <Time>2018-09-13T08:50:57.000Z</Time>
            <Position>
              <LatitudeDegrees>39.6758025325834751129150390625</LatitudeDegrees>
              <LongitudeDegrees>-8.14265741966664791107177734375</LongitudeDegrees>
            </Position>
            <AltitudeMeters>427.20001220703125</AltitudeMeters>
            <DistanceMeters>23805.966959274</DistanceMeters>
          </Trackpoint>
          <Trackpoint>
            <Time>2018-09-13T08:50:59.000Z</Time>
            <Position>
              <LatitudeDegrees>39.675662554800510406494140625</LatitudeDegrees>
              <LongitudeDegrees>-8.14267938025295734405517578125</LongitudeDegrees>
            </Position>
            <AltitudeMeters>426.600006103515625</AltitudeMeters>
            <DistanceMeters>23821.659895417</DistanceMeters>
          </Trackpoint>
          <Trackpoint>
            <Time>2018-09-13T08:51:01.000Z</Time>
            <Position>
              <LatitudeDegrees>39.6755192242562770843505859375</LatitudeDegrees>
              <LongitudeDegrees>-8.1426992453634738922119140625</LongitudeDegrees>
            </Position>
            <AltitudeMeters>426</AltitudeMeters>
            <DistanceMeters>23837.703376927</DistanceMeters>
          </Trackpoint>
          <Trackpoint>
            <Time>2018-09-13T08:51:04.000Z</Time>
            <Position>
              <LatitudeDegrees>39.6752952598035335540771484375</LatitudeDegrees>
              <LongitudeDegrees>-8.14272866584360599517822265625</LongitudeDegrees>
            </Position>
            <AltitudeMeters>424.79998779296875</AltitudeMeters>
            <DistanceMeters>23862.758013106</DistanceMeters>
          </Trackpoint>
          <Trackpoint>
            <Time>2018-09-13T08:51:06.000Z</Time>
            <Position>
              <LatitudeDegrees>39.6751380153000354766845703125</LatitudeDegrees>
              <LongitudeDegrees>-8.14274735748767852783203125</LongitudeDegrees>
            </Position>
            <AltitudeMeters>424.399993896484375</AltitudeMeters>
            <DistanceMeters>23880.333074837</DistanceMeters>
          </Trackpoint>
          <Trackpoint>
            <Time>2018-09-13T08:51:07.000Z</Time>
            <Position>
              <LatitudeDegrees>39.6750565432012081146240234375</LatitudeDegrees>
              <LongitudeDegrees>-8.1427582539618015289306640625</LongitudeDegrees>
            </Position>
            <AltitudeMeters>424.20001220703125</AltitudeMeters>
            <DistanceMeters>23889.449698312</DistanceMeters>
          </Trackpoint>
          <Trackpoint>
            <Time>2018-09-13T08:51:10.000Z</Time>
            <Position>
              <LatitudeDegrees>39.67480014078319072723388671875</LatitudeDegrees>
              <LongitudeDegrees>-8.14278784207999706268310546875</LongitudeDegrees>
            </Position>
            <AltitudeMeters>423.79998779296875</AltitudeMeters>
            <DistanceMeters>23918.099898115</DistanceMeters>
          </Trackpoint>
          <Trackpoint>
            <Time>2018-09-13T08:51:12.000Z</Time>
            <Position>
              <LatitudeDegrees>39.67461892403662204742431640625</LatitudeDegrees>
              <LongitudeDegrees>-8.14280779100954532623291015625</LongitudeDegrees>
            </Position>
            <AltitudeMeters>423.600006103515625</AltitudeMeters>
            <DistanceMeters>23938.341703582</DistanceMeters>
          </Trackpoint>
          <Trackpoint>
            <Time>2018-09-13T08:51:13.000Z</Time>
            <Position>
              <LatitudeDegrees>39.67452504672110080718994140625</LatitudeDegrees>
              <LongitudeDegrees>-8.1428189389407634735107421875</LongitudeDegrees>
            </Position>
            <AltitudeMeters>423.399993896484375</AltitudeMeters>
            <DistanceMeters>23948.833875041</DistanceMeters>
          </Trackpoint>
          <Trackpoint>
            <Time>2018-09-13T08:51:16.000Z</Time>
            <Position>
              <LatitudeDegrees>39.67423419468104839324951171875</LatitudeDegrees>
              <LongitudeDegrees>-8.14285808242857456207275390625</LongitudeDegrees>
            </Position>
            <AltitudeMeters>422</AltitudeMeters>
            <DistanceMeters>23981.379380211</DistanceMeters>
          </Trackpoint>
          <Trackpoint>
            <Time>2018-09-13T08:51:19.000Z</Time>
            <Position>
              <LatitudeDegrees>39.67393781058490276336669921875</LatitudeDegrees>
              <LongitudeDegrees>-8.142897896468639373779296875</LongitudeDegrees>
            </Position>
            <AltitudeMeters>420.20001220703125</AltitudeMeters>
            <DistanceMeters>24014.543431242</DistanceMeters>
          </Trackpoint>
          <Trackpoint>
            <Time>2018-09-13T08:51:21.000Z</Time>
            <Position>
              <LatitudeDegrees>39.67374050058424472808837890625</LatitudeDegrees>
              <LongitudeDegrees>-8.1429238803684711456298828125</LongitudeDegrees>
            </Position>
            <AltitudeMeters>418.79998779296875</AltitudeMeters>
            <DistanceMeters>24036.617054976</DistanceMeters>
          </Trackpoint>
          <Trackpoint>
            <Time>2018-09-13T08:51:23.000Z</Time>
            <Position>
              <LatitudeDegrees>39.67354796826839447021484375</LatitudeDegrees>
              <LongitudeDegrees>-8.14294491894543170928955078125</LongitudeDegrees>
            </Position>
            <AltitudeMeters>419.79998779296875</AltitudeMeters>
            <DistanceMeters>24058.121665525</DistanceMeters>
          </Trackpoint>
          <Trackpoint>
            <Time>2018-09-13T08:51:25.000Z</Time>
            <Position>
              <LatitudeDegrees>39.67335979454219341278076171875</LatitudeDegrees>
              <LongitudeDegrees>-8.14295866526663303375244140625</LongitudeDegrees>
            </Position>
            <AltitudeMeters>421.399993896484375</AltitudeMeters>
            <DistanceMeters>24079.098691651</DistanceMeters>
          </Trackpoint>
          <Trackpoint>
            <Time>2018-09-13T08:51:27.000Z</Time>
            <Position>
              <LatitudeDegrees>39.673179499804973602294921875</LatitudeDegrees>
              <LongitudeDegrees>-8.1429889239370822906494140625</LongitudeDegrees>
            </Position>
            <AltitudeMeters>421.20001220703125</AltitudeMeters>
            <DistanceMeters>24099.332688683</DistanceMeters>
          </Trackpoint>
          <Trackpoint>
            <Time>2018-09-13T08:51:32.000Z</Time>
            <Position>
              <LatitudeDegrees>39.6727853827178478240966796875</LatitudeDegrees>
              <LongitudeDegrees>-8.14302136190235614776611328125</LongitudeDegrees>
            </Position>
            <AltitudeMeters>421.20001220703125</AltitudeMeters>
            <DistanceMeters>24143.28662747</DistanceMeters>
          </Trackpoint>
          <Trackpoint>
            <Time>2018-09-13T08:51:33.000Z</Time>
            <Position>
              <LatitudeDegrees>39.67271338216960430145263671875</LatitudeDegrees>
              <LongitudeDegrees>-8.14298246987164020538330078125</LongitudeDegrees>
            </Position>
            <AltitudeMeters>421.399993896484375</AltitudeMeters>
            <DistanceMeters>24151.965849653</DistanceMeters>
          </Trackpoint>
          <Trackpoint>
            <Time>2018-09-13T08:51:36.000Z</Time>
            <Position>
              <LatitudeDegrees>39.67249520123004913330078125</LatitudeDegrees>
              <LongitudeDegrees>-8.14289714209735393524169921875</LongitudeDegrees>
            </Position>
            <AltitudeMeters>422.399993896484375</AltitudeMeters>
            <DistanceMeters>24177.32605676</DistanceMeters>
          </Trackpoint>
          <Trackpoint>
            <Time>2018-09-13T08:51:39.000Z</Time>
            <Position>
              <LatitudeDegrees>39.67227936722338199615478515625</LatitudeDegrees>
              <LongitudeDegrees>-8.142835199832916259765625</LongitudeDegrees>
            </Position>
            <AltitudeMeters>423.20001220703125</AltitudeMeters>
            <DistanceMeters>24201.927884003</DistanceMeters>
          </Trackpoint>
          <Trackpoint>
            <Time>2018-09-13T08:51:47.000Z</Time>
            <Position>
              <LatitudeDegrees>39.671737141907215118408203125</LatitudeDegrees>
              <LongitudeDegrees>-8.142593465745449066162109375</LongitudeDegrees>
            </Position>
            <AltitudeMeters>423</AltitudeMeters>
            <DistanceMeters>24265.733068776</DistanceMeters>
          </Trackpoint>
          <Trackpoint>
            <Time>2018-09-13T08:51:56.000Z</Time>
            <Position>
              <LatitudeDegrees>39.67122257687151432037353515625</LatitudeDegrees>
              <LongitudeDegrees>-8.1422677449882030487060546875</LongitudeDegrees>
            </Position>
            <AltitudeMeters>421.20001220703125</AltitudeMeters>
            <DistanceMeters>24329.441589003</DistanceMeters>
          </Trackpoint>
          <Trackpoint>
            <Time>2018-09-13T08:52:03.000Z</Time>
            <Position>
              <LatitudeDegrees>39.6708431281149387359619140625</LatitudeDegrees>
              <LongitudeDegrees>-8.1419582851231098175048828125</LongitudeDegrees>
            </Position>
            <AltitudeMeters>418</AltitudeMeters>
            <DistanceMeters>24379.306715893</DistanceMeters>
          </Trackpoint>
          <Trackpoint>
            <Time>2018-09-13T08:52:12.000Z</Time>
            <Position>
              <LatitudeDegrees>39.67036376707255840301513671875</LatitudeDegrees>
              <LongitudeDegrees>-8.141489066183567047119140625</LongitudeDegrees>
            </Position>
            <AltitudeMeters>412.600006103515625</AltitudeMeters>
            <DistanceMeters>24446.109347113</DistanceMeters>
          </Trackpoint>
          <Trackpoint>
            <Time>2018-09-13T08:52:15.000Z</Time>
            <Position>
              <LatitudeDegrees>39.67018523253500461578369140625</LatitudeDegrees>
              <LongitudeDegrees>-8.14130793325603008270263671875</LongitudeDegrees>
            </Position>
            <AltitudeMeters>409.79998779296875</AltitudeMeters>
            <DistanceMeters>24471.32224642</DistanceMeters>
          </Trackpoint>
          <Trackpoint>
            <Time>2018-09-13T08:52:19.000Z</Time>
            <Position>
              <LatitudeDegrees>39.66993260197341442108154296875</LatitudeDegrees>
              <LongitudeDegrees>-8.1410563923418521881103515625</LongitudeDegrees>
            </Position>
            <AltitudeMeters>406.600006103515625</AltitudeMeters>
            <DistanceMeters>24506.74899062</DistanceMeters>
          </Trackpoint>
          <Trackpoint>
            <Time>2018-09-13T08:52:22.000Z</Time>
            <Position>
              <LatitudeDegrees>39.66973663307726383209228515625</LatitudeDegrees>
              <LongitudeDegrees>-8.14085799269378185272216796875</LongitudeDegrees>
            </Position>
            <AltitudeMeters>404.79998779296875</AltitudeMeters>
            <DistanceMeters>24534.401601225</DistanceMeters>
          </Trackpoint>
          <Trackpoint>
            <Time>2018-09-13T08:52:26.000Z</Time>
            <Position>
              <LatitudeDegrees>39.66947210021317005157470703125</LatitudeDegrees>
              <LongitudeDegrees>-8.14057619310915470123291015625</LongitudeDegrees>
            </Position>
            <AltitudeMeters>402.600006103515625</AltitudeMeters>
            <DistanceMeters>24572.477324632</DistanceMeters>
          </Trackpoint>
          <Trackpoint>
            <Time>2018-09-13T08:52:29.000Z</Time>
            <Position>
              <LatitudeDegrees>39.66928065754473209381103515625</LatitudeDegrees>
              <LongitudeDegrees>-8.1403439305722713470458984375</LongitudeDegrees>
            </Position>
            <AltitudeMeters>400.20001220703125</AltitudeMeters>
            <DistanceMeters>24601.631793166</DistanceMeters>
          </Trackpoint>
          <Trackpoint>
            <Time>2018-09-13T08:52:32.000Z</Time>
            <Position>
              <LatitudeDegrees>39.66909239999949932098388671875</LatitudeDegrees>
              <LongitudeDegrees>-8.140093646943569183349609375</LongitudeDegrees>
            </Position>
            <AltitudeMeters>397.20001220703125</AltitudeMeters>
            <DistanceMeters>24631.612382705</DistanceMeters>
          </Trackpoint>
          <Trackpoint>
            <Time>2018-09-13T08:52:35.000Z</Time>
            <Position>
              <LatitudeDegrees>39.668919146060943603515625</LatitudeDegrees>
              <LongitudeDegrees>-8.1398229114711284637451171875</LongitudeDegrees>
            </Position>
            <AltitudeMeters>393.79998779296875</AltitudeMeters>
            <DistanceMeters>24661.776442486</DistanceMeters>
          </Trackpoint>
          <Trackpoint>
            <Time>2018-09-13T08:52:38.000Z</Time>
            <Position>
              <LatitudeDegrees>39.6687694452702999114990234375</LatitudeDegrees>
              <LongitudeDegrees>-8.1395211629569530487060546875</LongitudeDegrees>
            </Position>
            <AltitudeMeters>393.79998779296875</AltitudeMeters>
            <DistanceMeters>24692.532818865</DistanceMeters>
          </Trackpoint>
          <Trackpoint>
            <Time>2018-09-13T08:52:40.000Z</Time>
            <Position>
              <LatitudeDegrees>39.668684788048267364501953125</LatitudeDegrees>
              <LongitudeDegrees>-8.1393089331686496734619140625</LongitudeDegrees>
            </Position>
            <AltitudeMeters>394</AltitudeMeters>
            <DistanceMeters>24713.011902594</DistanceMeters>
          </Trackpoint>
          <Trackpoint>
            <Time>2018-09-13T08:52:43.000Z</Time>
            <Position>
              <LatitudeDegrees>39.6685800142586231231689453125</LatitudeDegrees>
              <LongitudeDegrees>-8.13898145221173763275146484375</LongitudeDegrees>
            </Position>
            <AltitudeMeters>394.20001220703125</AltitudeMeters>
            <DistanceMeters>24743.395793641</DistanceMeters>
          </Trackpoint>
          <Trackpoint>
            <Time>2018-09-13T08:52:46.000Z</Time>
            <Position>
              <LatitudeDegrees>39.66850834898650646209716796875</LatitudeDegrees>
              <LongitudeDegrees>-8.13864818774163722991943359375</LongitudeDegrees>
            </Position>
            <AltitudeMeters>394.79998779296875</AltitudeMeters>
            <DistanceMeters>24773.041234941</DistanceMeters>
          </Trackpoint>
          <Trackpoint>
            <Time>2018-09-13T08:52:50.000Z</Time>
            <Position>
              <LatitudeDegrees>39.6684576384723186492919921875</LatitudeDegrees>
              <LongitudeDegrees>-8.13822439871728420257568359375</LongitudeDegrees>
            </Position>
            <AltitudeMeters>397.20001220703125</AltitudeMeters>
            <DistanceMeters>24809.785252814</DistanceMeters>
          </Trackpoint>
          <Trackpoint>
            <Time>2018-09-13T08:52:53.000Z</Time>
            <Position>
              <LatitudeDegrees>39.668442718684673309326171875</LatitudeDegrees>
              <LongitudeDegrees>-8.1379406712949275970458984375</LongitudeDegrees>
            </Position>
            <AltitudeMeters>399</AltitudeMeters>
            <DistanceMeters>24834.150109791</DistanceMeters>
          </Trackpoint>
          <Trackpoint>
            <Time>2018-09-13T08:52:56.000Z</Time>
            <Position>
              <LatitudeDegrees>39.66844347305595874786376953125</LatitudeDegrees>
              <LongitudeDegrees>-8.1376932375133037567138671875</LongitudeDegrees>
            </Position>
            <AltitudeMeters>401.20001220703125</AltitudeMeters>
            <DistanceMeters>24855.348949012</DistanceMeters>
          </Trackpoint>
          <Trackpoint>
            <Time>2018-09-13T08:53:01.000Z</Time>
            <Position>
              <LatitudeDegrees>39.6684623323380947113037109375</LatitudeDegrees>
              <LongitudeDegrees>-8.13734270632266998291015625</LongitudeDegrees>
            </Position>
            <AltitudeMeters>403.600006103515625</AltitudeMeters>
            <DistanceMeters>24885.453676086</DistanceMeters>
          </Trackpoint>
          <Trackpoint>
            <Time>2018-09-13T08:53:02.000Z</Time>
            <Position>
              <LatitudeDegrees>39.6684673614799976348876953125</LatitudeDegrees>
              <LongitudeDegrees>-8.13727824948728084564208984375</LongitudeDegrees>
            </Position>
            <AltitudeMeters>404</AltitudeMeters>
            <DistanceMeters>24891.004407644</DistanceMeters>
          </Trackpoint>
          <Trackpoint>
            <Time>2018-09-13T08:53:05.000Z</Time>
            <Position>
              <LatitudeDegrees>39.6684864722192287445068359375</LatitudeDegrees>
              <LongitudeDegrees>-8.1370816938579082489013671875</LongitudeDegrees>
            </Position>
            <AltitudeMeters>405.20001220703125</AltitudeMeters>
            <DistanceMeters>24907.978317595</DistanceMeters>
          </Trackpoint>
          <Trackpoint>
            <Time>2018-09-13T08:53:08.000Z</Time>
            <Position>
              <LatitudeDegrees>39.6685055829584598541259765625</LatitudeDegrees>
              <LongitudeDegrees>-8.1368868984282016754150390625</LongitudeDegrees>
            </Position>
            <AltitudeMeters>406.600006103515625</AltitudeMeters>
            <DistanceMeters>24924.802340483</DistanceMeters>
          </Trackpoint>
          <Trackpoint>
            <Time>2018-09-13T08:53:09.000Z</Time>
            <Position>
              <LatitudeDegrees>39.66851186938583850860595703125</LatitudeDegrees>
              <LongitudeDegrees>-8.13682369887828826904296875</LongitudeDegrees>
            </Position>
            <AltitudeMeters>407.20001220703125</AltitudeMeters>
            <DistanceMeters>24930.261209621</DistanceMeters>
          </Trackpoint>
          <Trackpoint>
            <Time>2018-09-13T08:53:13.000Z</Time>
            <Position>
              <LatitudeDegrees>39.66854087077081203460693359375</LatitudeDegrees>
              <LongitudeDegrees>-8.13658707775175571441650390625</LongitudeDegrees>
            </Position>
            <AltitudeMeters>408.600006103515625</AltitudeMeters>
            <DistanceMeters>24950.7891795</DistanceMeters>
          </Trackpoint>
          <Trackpoint>
            <Time>2018-09-13T08:53:15.000Z</Time>
            <Position>
              <LatitudeDegrees>39.6685565449297428131103515625</LatitudeDegrees>
              <LongitudeDegrees>-8.13647375442087650299072265625</LongitudeDegrees>
            </Position>
            <AltitudeMeters>409.20001220703125</AltitudeMeters>
            <DistanceMeters>24960.653666499</DistanceMeters>
          </Trackpoint>
          <Trackpoint>
            <Time>2018-09-13T08:53:20.000Z</Time>
            <Position>
              <LatitudeDegrees>39.66858780942857265472412109375</LatitudeDegrees>
              <LongitudeDegrees>-8.13619849272072315216064453125</LongitudeDegrees>
            </Position>
            <AltitudeMeters>410.399993896484375</AltitudeMeters>
            <DistanceMeters>24984.491927984</DistanceMeters>
          </Trackpoint>
          <Trackpoint>
            <Time>2018-09-13T08:53:25.000Z</Time>
            <Position>
              <LatitudeDegrees>39.66861932538449764251708984375</LatitudeDegrees>
              <LongitudeDegrees>-8.135932870209217071533203125</LongitudeDegrees>
            </Position>
            <AltitudeMeters>412.399993896484375</AltitudeMeters>
            <DistanceMeters>25007.517628369</DistanceMeters>
          </Trackpoint>
          <Trackpoint>
            <Time>2018-09-13T08:53:31.000Z</Time>
            <Position>
              <LatitudeDegrees>39.6686520986258983612060546875</LatitudeDegrees>
              <LongitudeDegrees>-8.135607652366161346435546875</LongitudeDegrees>
            </Position>
            <AltitudeMeters>415</AltitudeMeters>
            <DistanceMeters>25035.618234497</DistanceMeters>
          </Trackpoint>
          <Trackpoint>
            <Time>2018-09-13T08:53:41.000Z</Time>
            <Position>
              <LatitudeDegrees>39.6686879731714725494384765625</LatitudeDegrees>
              <LongitudeDegrees>-8.1350207515060901641845703125</LongitudeDegrees>
            </Position>
            <AltitudeMeters>419.20001220703125</AltitudeMeters>
            <DistanceMeters>25086.05889427</DistanceMeters>
          </Trackpoint>
          <Trackpoint>
            <Time>2018-09-13T08:53:52.000Z</Time>
            <Position>
              <LatitudeDegrees>39.668679423630237579345703125</LatitudeDegrees>
              <LongitudeDegrees>-8.134314157068729400634765625</LongitudeDegrees>
            </Position>
            <AltitudeMeters>419.399993896484375</AltitudeMeters>
            <DistanceMeters>25146.603515597</DistanceMeters>
          </Trackpoint>
          <Trackpoint>
            <Time>2018-09-13T08:53:54.000Z</Time>
            <Position>
              <LatitudeDegrees>39.6686671860516071319580078125</LatitudeDegrees>
              <LongitudeDegrees>-8.13417409546673297882080078125</LongitudeDegrees>
            </Position>
            <AltitudeMeters>419</AltitudeMeters>
            <DistanceMeters>25158.680510037</DistanceMeters>
          </Trackpoint>
          <Trackpoint>
            <Time>2018-09-13T08:54:03.000Z</Time>
            <Position>
              <LatitudeDegrees>39.66856651939451694488525390625</LatitudeDegrees>
              <LongitudeDegrees>-8.13352189958095550537109375</LongitudeDegrees>
            </Position>
            <AltitudeMeters>416.399993896484375</AltitudeMeters>
            <DistanceMeters>25215.669449611</DistanceMeters>
          </Trackpoint>
          <Trackpoint>
            <Time>2018-09-13T08:54:08.000Z</Time>
            <Position>
              <LatitudeDegrees>39.6684569679200649261474609375</LatitudeDegrees>
              <LongitudeDegrees>-8.1331349909305572509765625</LongitudeDegrees>
            </Position>
            <AltitudeMeters>413.600006103515625</AltitudeMeters>
            <DistanceMeters>25250.989231612</DistanceMeters>
          </Trackpoint>
          <Trackpoint>
            <Time>2018-09-13T08:54:13.000Z</Time>
            <Position>
              <LatitudeDegrees>39.6683017350733280181884765625</LatitudeDegrees>
              <LongitudeDegrees>-8.1327321566641330718994140625</LongitudeDegrees>
            </Position>
            <AltitudeMeters>411</AltitudeMeters>
            <DistanceMeters>25289.585288284</DistanceMeters>
          </Trackpoint>
          <Trackpoint>
            <Time>2018-09-13T08:54:18.000Z</Time>
            <Position>
              <LatitudeDegrees>39.6680941991508007049560546875</LatitudeDegrees>
              <LongitudeDegrees>-8.13232806511223316192626953125</LongitudeDegrees>
            </Position>
            <AltitudeMeters>411</AltitudeMeters>
            <DistanceMeters>25331.204385625</DistanceMeters>
          </Trackpoint>
          <Trackpoint>
            <Time>2018-09-13T08:54:22.000Z</Time>
            <Position>
              <LatitudeDegrees>39.6678846515715122222900390625</LatitudeDegrees>
              <LongitudeDegrees>-8.13201676122844219207763671875</LongitudeDegrees>
            </Position>
            <AltitudeMeters>409.399993896484375</AltitudeMeters>
            <DistanceMeters>25366.634953034</DistanceMeters>
          </Trackpoint>
          <Trackpoint>
            <Time>2018-09-13T08:54:28.000Z</Time>
            <Position>
              <LatitudeDegrees>39.6675057895481586456298828125</LatitudeDegrees>
              <LongitudeDegrees>-8.13158844597637653350830078125</LongitudeDegrees>
            </Position>
            <AltitudeMeters>406.79998779296875</AltitudeMeters>
            <DistanceMeters>25422.534574256</DistanceMeters>
          </Trackpoint>
          <Trackpoint>
            <Time>2018-09-13T08:54:34.000Z</Time>
            <Position>
              <LatitudeDegrees>39.66705911792814731597900390625</LatitudeDegrees>
              <LongitudeDegrees>-8.1312408484518527984619140625</LongitudeDegrees>
            </Position>
            <AltitudeMeters>404.79998779296875</AltitudeMeters>
            <DistanceMeters>25480.487315446</DistanceMeters>
          </Trackpoint>
          <Trackpoint>
            <Time>2018-09-13T08:54:36.000Z</Time>
            <Position>
              <LatitudeDegrees>39.66689902357757091522216796875</LatitudeDegrees>
              <LongitudeDegrees>-8.131147138774394989013671875</LongitudeDegrees>
            </Position>
            <AltitudeMeters>403.600006103515625</AltitudeMeters>
            <DistanceMeters>25500.031194373</DistanceMeters>
          </Trackpoint>
          <Trackpoint>
            <Time>2018-09-13T08:54:37.000Z</Time>
            <Position>
              <LatitudeDegrees>39.666816629469394683837890625</LatitudeDegrees>
              <LongitudeDegrees>-8.13110447488725185394287109375</LongitudeDegrees>
            </Position>
            <AltitudeMeters>403</AltitudeMeters>
            <DistanceMeters>25509.903916649</DistanceMeters>
          </Trackpoint>
          <Trackpoint>
            <Time>2018-09-13T08:54:40.000Z</Time>
            <Position>
              <LatitudeDegrees>39.66656039468944072723388671875</LatitudeDegrees>
              <LongitudeDegrees>-8.1309900619089603424072265625</LongitudeDegrees>
            </Position>
            <AltitudeMeters>400.79998779296875</AltitudeMeters>
            <DistanceMeters>25540.06109024</DistanceMeters>
          </Trackpoint>
          <Trackpoint>
            <Time>2018-09-13T08:54:43.000Z</Time>
            <Position>
              <LatitudeDegrees>39.66629921458661556243896484375</LatitudeDegrees>
              <LongitudeDegrees>-8.13088671304285526275634765625</LongitudeDegrees>
            </Position>
            <AltitudeMeters>398.79998779296875</AltitudeMeters>
            <DistanceMeters>25570.449736106</DistanceMeters>
          </Trackpoint>
          <Trackpoint>
            <Time>2018-09-13T08:54:49.000Z</Time>
            <Position>
              <LatitudeDegrees>39.6657442487776279449462890625</LatitudeDegrees>
              <LongitudeDegrees>-8.1307406164705753326416015625</LongitudeDegrees>
            </Position>
            <AltitudeMeters>397.79998779296875</AltitudeMeters>
            <DistanceMeters>25633.474014963</DistanceMeters>
          </Trackpoint>
          <Trackpoint>
            <Time>2018-09-13T08:54:51.000Z</Time>
            <Position>
              <LatitudeDegrees>39.6655516326427459716796875</LatitudeDegrees>
              <LongitudeDegrees>-8.130707927048206329345703125</LongitudeDegrees>
            </Position>
            <AltitudeMeters>397.79998779296875</AltitudeMeters>
            <DistanceMeters>25655.094837503</DistanceMeters>
          </Trackpoint>
          <Trackpoint>
            <Time>2018-09-13T08:54:55.000Z</Time>
            <Position>
              <LatitudeDegrees>39.6651598624885082244873046875</LatitudeDegrees>
              <LongitudeDegrees>-8.13066777773201465606689453125</LongitudeDegrees>
            </Position>
            <AltitudeMeters>397.79998779296875</AltitudeMeters>
            <DistanceMeters>25698.835005497</DistanceMeters>
          </Trackpoint>
          <Trackpoint>
            <Time>2018-09-13T08:54:59.000Z</Time>
            <Position>
              <LatitudeDegrees>39.664764404296875</LatitudeDegrees>
              <LongitudeDegrees>-8.1306286342442035675048828125</LongitudeDegrees>
            </Position>
            <AltitudeMeters>398.600006103515625</AltitudeMeters>
            <DistanceMeters>25742.977957322</DistanceMeters>
          </Trackpoint>
          <Trackpoint>
            <Time>2018-09-13T08:55:01.000Z</Time>
            <Position>
              <LatitudeDegrees>39.664562232792377471923828125</LatitudeDegrees>
              <LongitudeDegrees>-8.13060457818210124969482421875</LongitudeDegrees>
            </Position>
            <AltitudeMeters>398.20001220703125</AltitudeMeters>
            <DistanceMeters>25765.574342928</DistanceMeters>
          </Trackpoint>
          <Trackpoint>
            <Time>2018-09-13T08:55:03.000Z</Time>
            <Position>
              <LatitudeDegrees>39.6643588878214359283447265625</LatitudeDegrees>
              <LongitudeDegrees>-8.1305770017206668853759765625</LongitudeDegrees>
            </Position>
            <AltitudeMeters>398.399993896484375</AltitudeMeters>
            <DistanceMeters>25788.330017025</DistanceMeters>
          </Trackpoint>
          <Trackpoint>
            <Time>2018-09-13T08:55:07.000Z</Time>
            <Position>
              <LatitudeDegrees>39.66395236551761627197265625</LatitudeDegrees>
              <LongitudeDegrees>-8.130518496036529541015625</LongitudeDegrees>
            </Position>
            <AltitudeMeters>398.79998779296875</AltitudeMeters>
            <DistanceMeters>25833.853665208</DistanceMeters>
          </Trackpoint>
          <Trackpoint>
            <Time>2018-09-13T08:55:12.000Z</Time>
            <Position>
              <LatitudeDegrees>39.66346177272498607635498046875</LatitudeDegrees>
              <LongitudeDegrees>-8.13045051880180835723876953125</LongitudeDegrees>
            </Position>
            <AltitudeMeters>399.20001220703125</AltitudeMeters>
            <DistanceMeters>25888.7672676</DistanceMeters>
          </Trackpoint>
          <Trackpoint>
            <Time>2018-09-13T08:55:18.000Z</Time>
            <Position>
              <LatitudeDegrees>39.662865065038204193115234375</LatitudeDegrees>
              <LongitudeDegrees>-8.13034054823219776153564453125</LongitudeDegrees>
            </Position>
            <AltitudeMeters>397.600006103515625</AltitudeMeters>
            <DistanceMeters>25955.847041915</DistanceMeters>
          </Trackpoint>
          <Trackpoint>
            <Time>2018-09-13T08:55:20.000Z</Time>
            <Position>
              <LatitudeDegrees>39.662665240466594696044921875</LatitudeDegrees>
              <LongitudeDegrees>-8.13028975389897823333740234375</LongitudeDegrees>
            </Position>
            <AltitudeMeters>397</AltitudeMeters>
            <DistanceMeters>25978.50966815</DistanceMeters>
          </Trackpoint>
          <Trackpoint>
            <Time>2018-09-13T08:55:25.000Z</Time>
            <Position>
              <LatitudeDegrees>39.66217380948364734649658203125</LatitudeDegrees>
              <LongitudeDegrees>-8.13012245111167430877685546875</LongitudeDegrees>
            </Position>
            <AltitudeMeters>393.399993896484375</AltitudeMeters>
            <DistanceMeters>26035.054156533</DistanceMeters>
          </Trackpoint>
          <Trackpoint>
            <Time>2018-09-13T08:55:30.000Z</Time>
            <Position>
              <LatitudeDegrees>39.6616978012025356292724609375</LatitudeDegrees>
              <LongitudeDegrees>-8.1298816390335559844970703125</LongitudeDegrees>
            </Position>
            <AltitudeMeters>389.20001220703125</AltitudeMeters>
            <DistanceMeters>26091.910951433</DistanceMeters>
          </Trackpoint>
          <Trackpoint>
            <Time>2018-09-13T08:55:32.000Z</Time>
            <Position>
              <LatitudeDegrees>39.66151557862758636474609375</LatitudeDegrees>
              <LongitudeDegrees>-8.12976504676043987274169921875</LongitudeDegrees>
            </Position>
            <AltitudeMeters>387.20001220703125</AltitudeMeters>
            <DistanceMeters>26114.519322605</DistanceMeters>
          </Trackpoint>
          <Trackpoint>
            <Time>2018-09-13T08:55:36.000Z</Time>
            <Position>
              <LatitudeDegrees>39.66117166914045810699462890625</LatitudeDegrees>
              <LongitudeDegrees>-8.12949992716312408447265625</LongitudeDegrees>
            </Position>
            <AltitudeMeters>385.79998779296875</AltitudeMeters>
            <DistanceMeters>26159.03018456</DistanceMeters>
          </Trackpoint>
          <Trackpoint>
            <Time>2018-09-13T08:55:40.000Z</Time>
            <Position>
              <LatitudeDegrees>39.66086237691342830657958984375</LatitudeDegrees>
              <LongitudeDegrees>-8.12920211814343929290771484375</LongitudeDegrees>
            </Position>
            <AltitudeMeters>385</AltitudeMeters>
            <DistanceMeters>26201.881227306</DistanceMeters>
          </Trackpoint>
          <Trackpoint>
            <Time>2018-09-13T08:55:43.000Z</Time>
            <Position>
              <LatitudeDegrees>39.66065534390509128570556640625</LatitudeDegrees>
              <LongitudeDegrees>-8.12897060997784137725830078125</LongitudeDegrees>
            </Position>
            <AltitudeMeters>385.79998779296875</AltitudeMeters>
            <DistanceMeters>26232.286509185</DistanceMeters>
          </Trackpoint>
          <Trackpoint>
            <Time>2018-09-13T08:55:48.000Z</Time>
            <Position>
              <LatitudeDegrees>39.6603761427104473114013671875</LatitudeDegrees>
              <LongitudeDegrees>-8.12859426252543926239013671875</LongitudeDegrees>
            </Position>
            <AltitudeMeters>386.399993896484375</AltitudeMeters>
            <DistanceMeters>26277.070211335</DistanceMeters>
          </Trackpoint>
          <Trackpoint>
            <Time>2018-09-13T08:55:54.000Z</Time>
            <Position>
              <LatitudeDegrees>39.6601290442049503326416015625</LatitudeDegrees>
              <LongitudeDegrees>-8.12819276936352252960205078125</LongitudeDegrees>
            </Position>
            <AltitudeMeters>389</AltitudeMeters>
            <DistanceMeters>26321.11424773</DistanceMeters>
          </Trackpoint>
          <Trackpoint>
            <Time>2018-09-13T08:55:58.000Z</Time>
            <Position>
              <LatitudeDegrees>39.66000591404736042022705078125</LatitudeDegrees>
              <LongitudeDegrees>-8.1279514543712139129638671875</LongitudeDegrees>
            </Position>
            <AltitudeMeters>391</AltitudeMeters>
            <DistanceMeters>26345.920588841</DistanceMeters>
          </Trackpoint>
          <Trackpoint>
            <Time>2018-09-13T08:56:00.000Z</Time>
            <Position>
              <LatitudeDegrees>39.65995277278125286102294921875</LatitudeDegrees>
              <LongitudeDegrees>-8.12783955596387386322021484375</LongitudeDegrees>
            </Position>
            <AltitudeMeters>391.600006103515625</AltitudeMeters>
            <DistanceMeters>26357.18636553</DistanceMeters>
          </Trackpoint>
          <Trackpoint>
            <Time>2018-09-13T08:56:02.000Z</Time>
            <Position>
              <LatitudeDegrees>39.6599017269909381866455078125</LatitudeDegrees>
              <LongitudeDegrees>-8.1277281604707241058349609375</LongitudeDegrees>
            </Position>
            <AltitudeMeters>392.20001220703125</AltitudeMeters>
            <DistanceMeters>26368.293927569</DistanceMeters>
          </Trackpoint>
          <Trackpoint>
            <Time>2018-09-13T08:56:05.000Z</Time>
            <Position>
              <LatitudeDegrees>39.6598299778997898101806640625</LatitudeDegrees>
              <LongitudeDegrees>-8.1275559961795806884765625</LongitudeDegrees>
            </Position>
            <AltitudeMeters>393.600006103515625</AltitudeMeters>
            <DistanceMeters>26385.069036279</DistanceMeters>
          </Trackpoint>
          <Trackpoint>
            <Time>2018-09-13T08:56:09.000Z</Time>
            <Position>
              <LatitudeDegrees>39.65974288992583751678466796875</LatitudeDegrees>
              <LongitudeDegrees>-8.1273278407752513885498046875</LongitudeDegrees>
            </Position>
            <AltitudeMeters>396.79998779296875</AltitudeMeters>
            <DistanceMeters>26406.889826842</DistanceMeters>
          </Trackpoint>
          <Trackpoint>
            <Time>2018-09-13T08:56:13.000Z</Time>
            <Position>
              <LatitudeDegrees>39.65966627933084964752197265625</LatitudeDegrees>
              <LongitudeDegrees>-8.127096332609653472900390625</LongitudeDegrees>
            </Position>
            <AltitudeMeters>399</AltitudeMeters>
            <DistanceMeters>26428.481602746</DistanceMeters>
          </Trackpoint>
          <Trackpoint>
            <Time>2018-09-13T08:56:20.000Z</Time>
            <Position>
              <LatitudeDegrees>39.65954490937292575836181640625</LatitudeDegrees>
              <LongitudeDegrees>-8.12665653415024280548095703125</LongitudeDegrees>
            </Position>
            <AltitudeMeters>402.399993896484375</AltitudeMeters>
            <DistanceMeters>26468.514249634</DistanceMeters>
          </Trackpoint>
          <Trackpoint>
            <Time>2018-09-13T08:56:21.000Z</Time>
            <Position>
              <LatitudeDegrees>39.65953032486140727996826171875</LatitudeDegrees>
              <LongitudeDegrees>-8.12659107148647308349609375</LongitudeDegrees>
            </Position>
            <AltitudeMeters>402.399993896484375</AltitudeMeters>
            <DistanceMeters>26474.353561978</DistanceMeters>
          </Trackpoint>
          <Trackpoint>
            <Time>2018-09-13T08:56:28.000Z</Time>
            <Position>
              <LatitudeDegrees>39.65943460352718830108642578125</LatitudeDegrees>
              <LongitudeDegrees>-8.1261344254016876220703125</LongitudeDegrees>
            </Position>
            <AltitudeMeters>403</AltitudeMeters>
            <DistanceMeters>26514.906261046</DistanceMeters>
          </Trackpoint>
          <Trackpoint>
            <Time>2018-09-13T08:56:33.000Z</Time>
            <Position>
              <LatitudeDegrees>39.6593696437776088714599609375</LatitudeDegrees>
              <LongitudeDegrees>-8.12579923309385776519775390625</LongitudeDegrees>
            </Position>
            <AltitudeMeters>403.20001220703125</AltitudeMeters>
            <DistanceMeters>26544.52351321</DistanceMeters>
          </Trackpoint>
          <Trackpoint>
            <Time>2018-09-13T08:56:43.000Z</Time>
            <Position>
              <LatitudeDegrees>39.65924911201000213623046875</LatitudeDegrees>
              <LongitudeDegrees>-8.12506715767085552215576171875</LongitudeDegrees>
            </Position>
            <AltitudeMeters>400</AltitudeMeters>
            <DistanceMeters>26608.670698295</DistanceMeters>
          </Trackpoint>
          <Trackpoint>
            <Time>2018-09-13T08:56:52.000Z</Time>
            <Position>
              <LatitudeDegrees>39.65912346728146076202392578125</LatitudeDegrees>
              <LongitudeDegrees>-8.1242935918271541595458984375</LongitudeDegrees>
            </Position>
            <AltitudeMeters>393.79998779296875</AltitudeMeters>
            <DistanceMeters>26676.413816021</DistanceMeters>
          </Trackpoint>
          <Trackpoint>
            <Time>2018-09-13T08:56:57.000Z</Time>
            <Position>
              <LatitudeDegrees>39.659044258296489715576171875</LatitudeDegrees>
              <LongitudeDegrees>-8.12379294075071811676025390625</LongitudeDegrees>
            </Position>
            <AltitudeMeters>392.20001220703125</AltitudeMeters>
            <DistanceMeters>26720.209277169</DistanceMeters>
          </Trackpoint>
          <Trackpoint>
            <Time>2018-09-13T08:57:01.000Z</Time>
            <Position>
              <LatitudeDegrees>39.65897661633789539337158203125</LatitudeDegrees>
              <LongitudeDegrees>-8.12337283976376056671142578125</LongitudeDegrees>
            </Position>
            <AltitudeMeters>392</AltitudeMeters>
            <DistanceMeters>26756.984983949</DistanceMeters>
          </Trackpoint>
          <Trackpoint>
            <Time>2018-09-13T08:57:04.000Z</Time>
            <Position>
              <LatitudeDegrees>39.6589270792901515960693359375</LatitudeDegrees>
              <LongitudeDegrees>-8.1230520643293857574462890625</LongitudeDegrees>
            </Position>
            <AltitudeMeters>392.399993896484375</AltitudeMeters>
            <DistanceMeters>26785.018669988</DistanceMeters>
          </Trackpoint>
          <Trackpoint>
            <Time>2018-09-13T08:57:05.000Z</Time>
            <Position>
              <LatitudeDegrees>39.65890872292220592498779296875</LatitudeDegrees>
              <LongitudeDegrees>-8.1229457817971706390380859375</LongitudeDegrees>
            </Position>
            <AltitudeMeters>392.399993896484375</AltitudeMeters>
            <DistanceMeters>26794.352596146</DistanceMeters>
          </Trackpoint>
          <Trackpoint>
            <Time>2018-09-13T08:57:09.000Z</Time>
            <Position>
              <LatitudeDegrees>39.6588372252881526947021484375</LatitudeDegrees>
              <LongitudeDegrees>-8.12250548042356967926025390625</LongitudeDegrees>
            </Position>
            <AltitudeMeters>392.79998779296875</AltitudeMeters>
            <DistanceMeters>26832.91073207</DistanceMeters>
          </Trackpoint>
          <Trackpoint>
            <Time>2018-09-13T08:57:11.000Z</Time>
            <Position>
              <LatitudeDegrees>39.65880026109516620635986328125</LatitudeDegrees>
              <LongitudeDegrees>-8.12228000722825527191162109375</LongitudeDegrees>
            </Position>
            <AltitudeMeters>393</AltitudeMeters>
            <DistanceMeters>26852.66417818</DistanceMeters>
          </Trackpoint>
          <Trackpoint>
            <Time>2018-09-13T08:57:14.000Z</Time>
            <Position>
              <LatitudeDegrees>39.658746533095836639404296875</LatitudeDegrees>
              <LongitudeDegrees>-8.12194121070206165313720703125</LongitudeDegrees>
            </Position>
            <AltitudeMeters>393.20001220703125</AltitudeMeters>
            <DistanceMeters>26882.304136128</DistanceMeters>
          </Trackpoint>
          <Trackpoint>
            <Time>2018-09-13T08:57:15.000Z</Time>
            <Position>
              <LatitudeDegrees>39.65872876346111297607421875</LatitudeDegrees>
              <LongitudeDegrees>-8.1218279711902141571044921875</LongitudeDegrees>
            </Position>
            <AltitudeMeters>393.20001220703125</AltitudeMeters>
            <DistanceMeters>26892.206083917</DistanceMeters>
          </Trackpoint>
          <Trackpoint>
            <Time>2018-09-13T08:57:19.000Z</Time>
            <Position>
              <LatitudeDegrees>39.6586534939706325531005859375</LatitudeDegrees>
              <LongitudeDegrees>-8.12137325294315814971923828125</LongitudeDegrees>
            </Position>
            <AltitudeMeters>393.600006103515625</AltitudeMeters>
            <DistanceMeters>26932.059907272</DistanceMeters>
          </Trackpoint>
          <Trackpoint>
            <Time>2018-09-13T08:57:21.000Z</Time>
            <Position>
              <LatitudeDegrees>39.65861611068248748779296875</LatitudeDegrees>
              <LongitudeDegrees>-8.12114560045301914215087890625</LongitudeDegrees>
            </Position>
            <AltitudeMeters>393.79998779296875</AltitudeMeters>
            <DistanceMeters>26952.005559625</DistanceMeters>
          </Trackpoint>
          <Trackpoint>
            <Time>2018-09-13T08:57:24.000Z</Time>
            <Position>
              <LatitudeDegrees>39.6585591137409210205078125</LatitudeDegrees>
              <LongitudeDegrees>-8.12079750001430511474609375</LongitudeDegrees>
            </Position>
            <AltitudeMeters>392.600006103515625</AltitudeMeters>
            <DistanceMeters>26982.500548762</DistanceMeters>
          </Trackpoint>
          <Trackpoint>
            <Time>2018-09-13T08:57:25.000Z</Time>
            <Position>
              <LatitudeDegrees>39.65853924863040447235107421875</LatitudeDegrees>
              <LongitudeDegrees>-8.120679147541522979736328125</LongitudeDegrees>
            </Position>
            <AltitudeMeters>391.600006103515625</AltitudeMeters>
            <DistanceMeters>26992.880232864</DistanceMeters>
          </Trackpoint>
          <Trackpoint>
            <Time>2018-09-13T08:57:28.000Z</Time>
            <Position>
              <LatitudeDegrees>39.65847956947982311248779296875</LatitudeDegrees>
              <LongitudeDegrees>-8.12031998299062252044677734375</LongitudeDegrees>
            </Position>
            <AltitudeMeters>388.79998779296875</AltitudeMeters>
            <DistanceMeters>27024.364635535</DistanceMeters>
          </Trackpoint>
          <Trackpoint>
            <Time>2018-09-13T08:57:34.000Z</Time>
            <Position>
              <LatitudeDegrees>39.658348560333251953125</LatitudeDegrees>
              <LongitudeDegrees>-8.11960936523973941802978515625</LongitudeDegrees>
            </Position>
            <AltitudeMeters>379.79998779296875</AltitudeMeters>
            <DistanceMeters>27086.977073496</DistanceMeters>
          </Trackpoint>
          <Trackpoint>
            <Time>2018-09-13T08:57:35.000Z</Time>
            <Position>
              <LatitudeDegrees>39.6583249233663082122802734375</LatitudeDegrees>
              <LongitudeDegrees>-8.11949419789016246795654296875</LongitudeDegrees>
            </Position>
            <AltitudeMeters>378.20001220703125</AltitudeMeters>
            <DistanceMeters>27097.190124607</DistanceMeters>
          </Trackpoint>
          <Trackpoint>
            <Time>2018-09-13T08:57:39.000Z</Time>
            <Position>
              <LatitudeDegrees>39.65822392143309116363525390625</LatitudeDegrees>
              <LongitudeDegrees>-8.11905062757432460784912109375</LongitudeDegrees>
            </Position>
            <AltitudeMeters>375.600006103515625</AltitudeMeters>
            <DistanceMeters>27136.826176118</DistanceMeters>
          </Trackpoint>
          <Trackpoint>
            <Time>2018-09-13T08:57:44.000Z</Time>
            <Position>
              <LatitudeDegrees>39.65808562003076076507568359375</LatitudeDegrees>
              <LongitudeDegrees>-8.11855089850723743438720703125</LongitudeDegrees>
            </Position>
            <AltitudeMeters>377.20001220703125</AltitudeMeters>
            <DistanceMeters>27182.329587071</DistanceMeters>
          </Trackpoint>
          <Trackpoint>
            <Time>2018-09-13T08:57:52.000Z</Time>
            <Position>
              <LatitudeDegrees>39.65785360895097255706787109375</LatitudeDegrees>
              <LongitudeDegrees>-8.11791135929524898529052734375</LongitudeDegrees>
            </Position>
            <AltitudeMeters>383.20001220703125</AltitudeMeters>
            <DistanceMeters>27242.909844152</DistanceMeters>
          </Trackpoint>
          <Trackpoint>
            <Time>2018-09-13T08:57:54.000Z</Time>
            <Position>
              <LatitudeDegrees>39.65779527090489864349365234375</LatitudeDegrees>
              <LongitudeDegrees>-8.1177768297493457794189453125</LongitudeDegrees>
            </Position>
            <AltitudeMeters>384.399993896484375</AltitudeMeters>
            <DistanceMeters>27256.140416017</DistanceMeters>
          </Trackpoint>
          <Trackpoint>
            <Time>2018-09-13T08:57:57.000Z</Time>
            <Position>
              <LatitudeDegrees>39.65770994313061237335205078125</LatitudeDegrees>
              <LongitudeDegrees>-8.1175894103944301605224609375</LongitudeDegrees>
            </Position>
            <AltitudeMeters>385.79998779296875</AltitudeMeters>
            <DistanceMeters>27274.798107378</DistanceMeters>
          </Trackpoint>
          <Trackpoint>
            <Time>2018-09-13T08:58:01.000Z</Time>
            <Position>
              <LatitudeDegrees>39.6575863100588321685791015625</LatitudeDegrees>
              <LongitudeDegrees>-8.11736770905554294586181640625</LongitudeDegrees>
            </Position>
            <AltitudeMeters>386.20001220703125</AltitudeMeters>
            <DistanceMeters>27298.255466737</DistanceMeters>
          </Trackpoint>
          <Trackpoint>
            <Time>2018-09-13T08:58:04.000Z</Time>
            <Position>
              <LatitudeDegrees>39.6574977971613407135009765625</LatitudeDegrees>
              <LongitudeDegrees>-8.11721834354102611541748046875</LongitudeDegrees>
            </Position>
            <AltitudeMeters>386.600006103515625</AltitudeMeters>
            <DistanceMeters>27314.407213035</DistanceMeters>
          </Trackpoint>
          <Trackpoint>
            <Time>2018-09-13T08:58:08.000Z</Time>
            <Position>
              <LatitudeDegrees>39.65737718157470226287841796875</LatitudeDegrees>
              <LongitudeDegrees>-8.1170348636806011199951171875</LongitudeDegrees>
            </Position>
            <AltitudeMeters>388</AltitudeMeters>
            <DistanceMeters>27335.081366181</DistanceMeters>
          </Trackpoint>
          <Trackpoint>
            <Time>2018-09-13T08:58:12.000Z</Time>
            <Position>
              <LatitudeDegrees>39.6572475135326385498046875</LatitudeDegrees>
              <LongitudeDegrees>-8.11685842461884021759033203125</LongitudeDegrees>
            </Position>
            <AltitudeMeters>389.600006103515625</AltitudeMeters>
            <DistanceMeters>27355.9829235</DistanceMeters>
          </Trackpoint>
          <Trackpoint>
            <Time>2018-09-13T08:58:13.000Z</Time>
            <Position>
              <LatitudeDegrees>39.65721457265317440032958984375</LatitudeDegrees>
              <LongitudeDegrees>-8.11681576073169708251953125</LongitudeDegrees>
            </Position>
            <AltitudeMeters>390</AltitudeMeters>
            <DistanceMeters>27361.159917501</DistanceMeters>
          </Trackpoint>
          <Trackpoint>
            <Time>2018-09-13T08:58:17.000Z</Time>
            <Position>
              <LatitudeDegrees>39.65707828290760517120361328125</LatitudeDegrees>
              <LongitudeDegrees>-8.11665306799113750457763671875</LongitudeDegrees>
            </Position>
            <AltitudeMeters>390.600006103515625</AltitudeMeters>
            <DistanceMeters>27381.76209489</DistanceMeters>
          </Trackpoint>
          <Trackpoint>
            <Time>2018-09-13T08:58:21.000Z</Time>
            <Position>
              <LatitudeDegrees>39.6569372154772281646728515625</LatitudeDegrees>
              <LongitudeDegrees>-8.11650621704757213592529296875</LongitudeDegrees>
            </Position>
            <AltitudeMeters>392.600006103515625</AltitudeMeters>
            <DistanceMeters>27401.88331447</DistanceMeters>
          </Trackpoint>
          <Trackpoint>
            <Time>2018-09-13T08:58:25.000Z</Time>
            <Position>
              <LatitudeDegrees>39.6567903645336627960205078125</LatitudeDegrees>
              <LongitudeDegrees>-8.11636858619749546051025390625</LongitudeDegrees>
            </Position>
            <AltitudeMeters>394.20001220703125</AltitudeMeters>
            <DistanceMeters>27422.038612756</DistanceMeters>
          </Trackpoint>
          <Trackpoint>
            <Time>2018-09-13T08:58:33.000Z</Time>
            <Position>
              <LatitudeDegrees>39.65648149140179157257080078125</LatitudeDegrees>
              <LongitudeDegrees>-8.11612132005393505096435546875</LongitudeDegrees>
            </Position>
            <AltitudeMeters>397.399993896484375</AltitudeMeters>
            <DistanceMeters>27462.421724145</DistanceMeters>
          </Trackpoint>
          <Trackpoint>
            <Time>2018-09-13T08:58:39.000Z</Time>
            <Position>
              <LatitudeDegrees>39.656243361532688140869140625</LatitudeDegrees>
              <LongitudeDegrees>-8.11597094871103763580322265625</LongitudeDegrees>
            </Position>
            <AltitudeMeters>399.600006103515625</AltitudeMeters>
            <DistanceMeters>27491.89226456</DistanceMeters>
          </Trackpoint>
          <Trackpoint>
            <Time>2018-09-13T08:58:44.000Z</Time>
            <Position>
              <LatitudeDegrees>39.65604580007493495941162109375</LatitudeDegrees>
              <LongitudeDegrees>-8.11586768366396427154541015625</LongitudeDegrees>
            </Position>
            <AltitudeMeters>400.600006103515625</AltitudeMeters>
            <DistanceMeters>27515.594906524</DistanceMeters>
          </Trackpoint>
          <Trackpoint>
            <Time>2018-09-13T08:58:52.000Z</Time>
            <Position>
              <LatitudeDegrees>39.6557017229497432708740234375</LatitudeDegrees>
              <LongitudeDegrees>-8.11573348939418792724609375</LongitudeDegrees>
            </Position>
            <AltitudeMeters>402</AltitudeMeters>
            <DistanceMeters>27555.580494865</DistanceMeters>
          </Trackpoint>
          <Trackpoint>
            <Time>2018-09-13T08:58:59.000Z</Time>
            <Position>
              <LatitudeDegrees>39.6553860604763031005859375</LatitudeDegrees>
              <LongitudeDegrees>-8.1156481616199016571044921875</LongitudeDegrees>
            </Position>
            <AltitudeMeters>402.399993896484375</AltitudeMeters>
            <DistanceMeters>27591.467141996</DistanceMeters>
          </Trackpoint>
          <Trackpoint>
            <Time>2018-09-13T08:59:07.000Z</Time>
            <Position>
              <LatitudeDegrees>39.65498900972306728363037109375</LatitudeDegrees>
              <LongitudeDegrees>-8.11559828929603099822998046875</LongitudeDegrees>
            </Position>
            <AltitudeMeters>401.20001220703125</AltitudeMeters>
            <DistanceMeters>27635.865876523</DistanceMeters>
          </Trackpoint>
          <Trackpoint>
            <Time>2018-09-13T08:59:17.000Z</Time>
            <Position>
              <LatitudeDegrees>39.65441484935581684112548828125</LatitudeDegrees>
              <LongitudeDegrees>-8.115629889070987701416015625</LongitudeDegrees>
            </Position>
            <AltitudeMeters>399.399993896484375</AltitudeMeters>
            <DistanceMeters>27699.828456084</DistanceMeters>
          </Trackpoint>
          <Trackpoint>
            <Time>2018-09-13T08:59:21.000Z</Time>
            <Position>
              <LatitudeDegrees>39.654164649546146392822265625</LatitudeDegrees>
              <LongitudeDegrees>-8.1156813539564609527587890625</LongitudeDegrees>
            </Position>
            <AltitudeMeters>398.79998779296875</AltitudeMeters>
            <DistanceMeters>27728.023380266</DistanceMeters>
          </Trackpoint>
          <Trackpoint>
            <Time>2018-09-13T08:59:26.000Z</Time>
            <Position>
              <LatitudeDegrees>39.65382979251444339752197265625</LatitudeDegrees>
              <LongitudeDegrees>-8.11578989960253238677978515625</LongitudeDegrees>
            </Position>
            <AltitudeMeters>397.79998779296875</AltitudeMeters>
            <DistanceMeters>27766.436746841</DistanceMeters>
          </Trackpoint>
          <Trackpoint>
            <Time>2018-09-13T08:59:32.000Z</Time>
            <Position>
              <LatitudeDegrees>39.6534087695181369781494140625</LatitudeDegrees>
              <LongitudeDegrees>-8.11599022708833217620849609375</LongitudeDegrees>
            </Position>
            <AltitudeMeters>397.399993896484375</AltitudeMeters>
            <DistanceMeters>27816.342873762</DistanceMeters>
          </Trackpoint>
          <Trackpoint>
            <Time>2018-09-13T08:59:36.000Z</Time>
            <Position>
              <LatitudeDegrees>39.6531227789819240570068359375</LatitudeDegrees>
              <LongitudeDegrees>-8.1161768920719623565673828125</LongitudeDegrees>
            </Position>
            <AltitudeMeters>397</AltitudeMeters>
            <DistanceMeters>27851.967247069</DistanceMeters>
          </Trackpoint>
          <Trackpoint>
            <Time>2018-09-13T08:59:37.000Z</Time>
            <Position>
              <LatitudeDegrees>39.65305111370980739593505859375</LatitudeDegrees>
              <LongitudeDegrees>-8.116229362785816192626953125</LongitudeDegrees>
            </Position>
            <AltitudeMeters>396.79998779296875</AltitudeMeters>
            <DistanceMeters>27861.12340509</DistanceMeters>
          </Trackpoint>
          <Trackpoint>
            <Time>2018-09-13T08:59:41.000Z</Time>
            <Position>
              <LatitudeDegrees>39.6527764387428760528564453125</LatitudeDegrees>
              <LongitudeDegrees>-8.11647654511034488677978515625</LongitudeDegrees>
            </Position>
            <AltitudeMeters>396</AltitudeMeters>
            <DistanceMeters>27898.316380374</DistanceMeters>
          </Trackpoint>
          <Trackpoint>
            <Time>2018-09-13T08:59:43.000Z</Time>
            <Position>
              <LatitudeDegrees>39.65264090336859226226806640625</LatitudeDegrees>
              <LongitudeDegrees>-8.11661149375140666961669921875</LongitudeDegrees>
            </Position>
            <AltitudeMeters>395.399993896484375</AltitudeMeters>
            <DistanceMeters>27917.324336303</DistanceMeters>
          </Trackpoint>
          <Trackpoint>
            <Time>2018-09-13T08:59:49.000Z</Time>
            <Position>
              <LatitudeDegrees>39.65223974548280239105224609375</LatitudeDegrees>
              <LongitudeDegrees>-8.11707953922450542449951171875</LongitudeDegrees>
            </Position>
            <AltitudeMeters>395.399993896484375</AltitudeMeters>
            <DistanceMeters>27977.343768785</DistanceMeters>
          </Trackpoint>
          <Trackpoint>
            <Time>2018-09-13T08:59:51.000Z</Time>
            <Position>
              <LatitudeDegrees>39.65211317874491214752197265625</LatitudeDegrees>
              <LongitudeDegrees>-8.117255307734012603759765625</LongitudeDegrees>
            </Position>
            <AltitudeMeters>395.79998779296875</AltitudeMeters>
            <DistanceMeters>27997.966974174</DistanceMeters>
          </Trackpoint>
          <Trackpoint>
            <Time>2018-09-13T08:59:57.000Z</Time>
            <Position>
              <LatitudeDegrees>39.65176197700202465057373046875</LatitudeDegrees>
              <LongitudeDegrees>-8.1178301386535167694091796875</LongitudeDegrees>
            </Position>
            <AltitudeMeters>394.79998779296875</AltitudeMeters>
            <DistanceMeters>28060.852405694</DistanceMeters>
          </Trackpoint>
          <Trackpoint>
            <Time>2018-09-13T09:00:01.000Z</Time>
            <Position>
              <LatitudeDegrees>39.65154505334794521331787109375</LatitudeDegrees>
              <LongitudeDegrees>-8.1182495690882205963134765625</LongitudeDegrees>
            </Position>
            <AltitudeMeters>393.600006103515625</AltitudeMeters>
            <DistanceMeters>28104.152066104</DistanceMeters>
          </Trackpoint>
          <Trackpoint>
            <Time>2018-09-13T09:00:06.000Z</Time>
            <Position>
              <LatitudeDegrees>39.651291333138942718505859375</LatitudeDegrees>
              <LongitudeDegrees>-8.11880386434495449066162109375</LongitudeDegrees>
            </Position>
            <AltitudeMeters>393</AltitudeMeters>
            <DistanceMeters>28159.413266615</DistanceMeters>
          </Trackpoint>
          <Trackpoint>
            <Time>2018-09-13T09:00:11.000Z</Time>
            <Position>
              <LatitudeDegrees>39.65104063041508197784423828125</LatitudeDegrees>
              <LongitudeDegrees>-8.119382299482822418212890625</LongitudeDegrees>
            </Position>
            <AltitudeMeters>392.399993896484375</AltitudeMeters>
            <DistanceMeters>28216.297134121</DistanceMeters>
          </Trackpoint>
          <Trackpoint>
            <Time>2018-09-13T09:00:17.000Z</Time>
            <Position>
              <LatitudeDegrees>39.65072547085583209991455078125</LatitudeDegrees>
              <LongitudeDegrees>-8.12008545733988285064697265625</LongitudeDegrees>
            </Position>
            <AltitudeMeters>390</AltitudeMeters>
            <DistanceMeters>28286.021621892</DistanceMeters>
          </Trackpoint>
          <Trackpoint>
            <Time>2018-09-13T09:00:19.000Z</Time>
            <Position>
              <LatitudeDegrees>39.65061868540942668914794921875</LatitudeDegrees>
              <LongitudeDegrees>-8.1203220784664154052734375</LongitudeDegrees>
            </Position>
            <AltitudeMeters>389.399993896484375</AltitudeMeters>
            <DistanceMeters>28309.525706999</DistanceMeters>
          </Trackpoint>
          <Trackpoint>
            <Time>2018-09-13T09:00:21.000Z</Time>
            <Position>
              <LatitudeDegrees>39.65051391161978244781494140625</LatitudeDegrees>
              <LongitudeDegrees>-8.120559118688106536865234375</LongitudeDegrees>
            </Position>
            <AltitudeMeters>389</AltitudeMeters>
            <DistanceMeters>28332.948972881</DistanceMeters>
          </Trackpoint>
          <Trackpoint>
            <Time>2018-09-13T09:00:24.000Z</Time>
            <Position>
              <LatitudeDegrees>39.65036136098206043243408203125</LatitudeDegrees>
              <LongitudeDegrees>-8.12090503983199596405029296875</LongitudeDegrees>
            </Position>
            <AltitudeMeters>388</AltitudeMeters>
            <DistanceMeters>28367.111572312</DistanceMeters>
          </Trackpoint>
          <Trackpoint>
            <Time>2018-09-13T09:00:26.000Z</Time>
            <Position>
              <LatitudeDegrees>39.6502608619630336761474609375</LatitudeDegrees>
              <LongitudeDegrees>-8.12113654799759387969970703125</LongitudeDegrees>
            </Position>
            <AltitudeMeters>387.20001220703125</AltitudeMeters>
            <DistanceMeters>28389.88707914</DistanceMeters>
          </Trackpoint>
          <Trackpoint>
            <Time>2018-09-13T09:00:31.000Z</Time>
            <Position>
              <LatitudeDegrees>39.6500097401440143585205078125</LatitudeDegrees>
              <LongitudeDegrees>-8.12172646634280681610107421875</LongitudeDegrees>
            </Position>
            <AltitudeMeters>384.600006103515625</AltitudeMeters>
            <DistanceMeters>28447.65363044</DistanceMeters>
          </Trackpoint>
          <Trackpoint>
            <Time>2018-09-13T09:00:34.000Z</Time>
            <Position>
              <LatitudeDegrees>39.64985408820211887359619140625</LatitudeDegrees>
              <LongitudeDegrees>-8.12208403833210468292236328125</LongitudeDegrees>
            </Position>
            <AltitudeMeters>383.399993896484375</AltitudeMeters>
            <DistanceMeters>28482.854968197</DistanceMeters>
          </Trackpoint>
          <Trackpoint>
            <Time>2018-09-13T09:00:40.000Z</Time>
            <Position>
              <LatitudeDegrees>39.64953540824353694915771484375</LatitudeDegrees>
              <LongitudeDegrees>-8.1228138506412506103515625</LongitudeDegrees>
            </Position>
            <AltitudeMeters>381.399993896484375</AltitudeMeters>
            <DistanceMeters>28554.756226912</DistanceMeters>
          </Trackpoint>
          <Trackpoint>
            <Time>2018-09-13T09:00:42.000Z</Time>
            <Position>
              <LatitudeDegrees>39.6494280360639095306396484375</LatitudeDegrees>
              <LongitudeDegrees>-8.1230601109564304351806640625</LongitudeDegrees>
            </Position>
            <AltitudeMeters>381.20001220703125</AltitudeMeters>
            <DistanceMeters>28579.009084876</DistanceMeters>
          </Trackpoint>
          <Trackpoint>
            <Time>2018-09-13T09:00:47.000Z</Time>
            <Position>
              <LatitudeDegrees>39.6491537801921367645263671875</LatitudeDegrees>
              <LongitudeDegrees>-8.1236870773136615753173828125</LongitudeDegrees>
            </Position>
            <AltitudeMeters>380.20001220703125</AltitudeMeters>
            <DistanceMeters>28640.804804527</DistanceMeters>
          </Trackpoint>
          <Trackpoint>
            <Time>2018-09-13T09:00:49.000Z</Time>
            <Position>
              <LatitudeDegrees>39.6490414626896381378173828125</LatitudeDegrees>
              <LongitudeDegrees>-8.12394197098910808563232421875</LongitudeDegrees>
            </Position>
            <AltitudeMeters>379.399993896484375</AltitudeMeters>
            <DistanceMeters>28665.973074281</DistanceMeters>
          </Trackpoint>
          <Trackpoint>
            <Time>2018-09-13T09:00:54.000Z</Time>
            <Position>
              <LatitudeDegrees>39.64875354431569576263427734375</LatitudeDegrees>
              <LongitudeDegrees>-8.12459609471261501312255859375</LongitudeDegrees>
            </Position>
            <AltitudeMeters>378.79998779296875</AltitudeMeters>
            <DistanceMeters>28730.544128757</DistanceMeters>
          </Trackpoint>
          <Trackpoint>
            <Time>2018-09-13T09:00:55.000Z</Time>
            <Position>
              <LatitudeDegrees>39.64869554154574871063232421875</LatitudeDegrees>
              <LongitudeDegrees>-8.124729283154010772705078125</LongitudeDegrees>
            </Position>
            <AltitudeMeters>379</AltitudeMeters>
            <DistanceMeters>28743.657471036</DistanceMeters>
          </Trackpoint>
          <Trackpoint>
            <Time>2018-09-13T09:01:00.000Z</Time>
            <Position>
              <LatitudeDegrees>39.64839756488800048828125</LatitudeDegrees>
              <LongitudeDegrees>-8.1254021823406219482421875</LongitudeDegrees>
            </Position>
            <AltitudeMeters>376.79998779296875</AltitudeMeters>
            <DistanceMeters>28810.18146523</DistanceMeters>
          </Trackpoint>
          <Trackpoint>
            <Time>2018-09-13T09:01:02.000Z</Time>
            <Position>
              <LatitudeDegrees>39.64827192015945911407470703125</LatitudeDegrees>
              <LongitudeDegrees>-8.12567266635596752166748046875</LongitudeDegrees>
            </Position>
            <AltitudeMeters>375.600006103515625</AltitudeMeters>
            <DistanceMeters>28837.253573836</DistanceMeters>
          </Trackpoint>
          <Trackpoint>
            <Time>2018-09-13T09:01:06.000Z</Time>
            <Position>
              <LatitudeDegrees>39.64799858629703521728515625</LatitudeDegrees>
              <LongitudeDegrees>-8.12619888223707675933837890625</LongitudeDegrees>
            </Position>
            <AltitudeMeters>373.399993896484375</AltitudeMeters>
            <DistanceMeters>28891.652529262</DistanceMeters>
          </Trackpoint>
          <Trackpoint>
            <Time>2018-09-13T09:01:08.000Z</Time>
            <Position>
              <LatitudeDegrees>39.64784913696348667144775390625</LatitudeDegrees>
              <LongitudeDegrees>-8.1264494173228740692138671875</LongitudeDegrees>
            </Position>
            <AltitudeMeters>372.399993896484375</AltitudeMeters>
            <DistanceMeters>28918.813218963</DistanceMeters>
          </Trackpoint>
          <Trackpoint>
            <Time>2018-09-13T09:01:12.000Z</Time>
            <Position>
              <LatitudeDegrees>39.647524170577526092529296875</LatitudeDegrees>
              <LongitudeDegrees>-8.12691955827176570892333984375</LongitudeDegrees>
            </Position>
            <AltitudeMeters>369.600006103515625</AltitudeMeters>
            <DistanceMeters>28972.957602952</DistanceMeters>
          </Trackpoint>
          <Trackpoint>
            <Time>2018-09-13T09:01:16.000Z</Time>
            <Position>
              <LatitudeDegrees>39.64716064743697643280029296875</LatitudeDegrees>
              <LongitudeDegrees>-8.12734074890613555908203125</LongitudeDegrees>
            </Position>
            <AltitudeMeters>367</AltitudeMeters>
            <DistanceMeters>29027.179732925</DistanceMeters>
          </Trackpoint>
          <Trackpoint>
            <Time>2018-09-13T09:01:20.000Z</Time>
            <Position>
              <LatitudeDegrees>39.6467761695384979248046875</LatitudeDegrees>
              <LongitudeDegrees>-8.12771080993115901947021484375</LongitudeDegrees>
            </Position>
            <AltitudeMeters>365</AltitudeMeters>
            <DistanceMeters>29080.444050037</DistanceMeters>
          </Trackpoint>
          <Trackpoint>
            <Time>2018-09-13T09:01:23.000Z</Time>
            <Position>
              <LatitudeDegrees>39.64647584594786167144775390625</LatitudeDegrees>
              <LongitudeDegrees>-8.12795908190310001373291015625</LongitudeDegrees>
            </Position>
            <AltitudeMeters>364.20001220703125</AltitudeMeters>
            <DistanceMeters>29120.068024993</DistanceMeters>
          </Trackpoint>
          <Trackpoint>
            <Time>2018-09-13T09:01:27.000Z</Time>
            <Position>
              <LatitudeDegrees>39.64605842716991901397705078125</LatitudeDegrees>
              <LongitudeDegrees>-8.1282776780426502227783203125</LongitudeDegrees>
            </Position>
            <AltitudeMeters>362</AltitudeMeters>
            <DistanceMeters>29173.956970092</DistanceMeters>
          </Trackpoint>
          <Trackpoint>
            <Time>2018-09-13T09:01:30.000Z</Time>
            <Position>
              <LatitudeDegrees>39.6457410044968128204345703125</LatitudeDegrees>
              <LongitudeDegrees>-8.1285194121301174163818359375</LongitudeDegrees>
            </Position>
            <AltitudeMeters>359.20001220703125</AltitudeMeters>
            <DistanceMeters>29214.913043024</DistanceMeters>
          </Trackpoint>
          <Trackpoint>
            <Time>2018-09-13T09:01:35.000Z</Time>
            <Position>
              <LatitudeDegrees>39.645208753645420074462890625</LatitudeDegrees>
              <LongitudeDegrees>-8.12892082147300243377685546875</LongitudeDegrees>
            </Position>
            <AltitudeMeters>356.399993896484375</AltitudeMeters>
            <DistanceMeters>29283.418143477</DistanceMeters>
          </Trackpoint>
          <Trackpoint>
            <Time>2018-09-13T09:01:39.000Z</Time>
            <Position>
              <LatitudeDegrees>39.64478529989719390869140625</LatitudeDegrees>
              <LongitudeDegrees>-8.12924109399318695068359375</LongitudeDegrees>
            </Position>
            <AltitudeMeters>354.600006103515625</AltitudeMeters>
            <DistanceMeters>29337.959669702</DistanceMeters>
          </Trackpoint>
          <Trackpoint>
            <Time>2018-09-13T09:01:44.000Z</Time>
            <Position>
              <LatitudeDegrees>39.64426285587251186370849609375</LatitudeDegrees>
              <LongitudeDegrees>-8.12963244505226612091064453125</LongitudeDegrees>
            </Position>
            <AltitudeMeters>352</AltitudeMeters>
            <DistanceMeters>29405.088493972</DistanceMeters>
          </Trackpoint>
          <Trackpoint>
            <Time>2018-09-13T09:01:48.000Z</Time>
            <Position>
              <LatitudeDegrees>39.64385432191193103790283203125</LatitudeDegrees>
              <LongitudeDegrees>-8.12994911335408687591552734375</LongitudeDegrees>
            </Position>
            <AltitudeMeters>349.600006103515625</AltitudeMeters>
            <DistanceMeters>29458.042849965</DistanceMeters>
          </Trackpoint>
          <Trackpoint>
            <Time>2018-09-13T09:01:51.000Z</Time>
            <Position>
              <LatitudeDegrees>39.64354318566620349884033203125</LatitudeDegrees>
              <LongitudeDegrees>-8.1301817111670970916748046875</LongitudeDegrees>
            </Position>
            <AltitudeMeters>348.399993896484375</AltitudeMeters>
            <DistanceMeters>29498.000877148</DistanceMeters>
          </Trackpoint>
          <Trackpoint>
            <Time>2018-09-13T09:01:56.000Z</Time>
            <Position>
              <LatitudeDegrees>39.6430336497724056243896484375</LatitudeDegrees>
              <LongitudeDegrees>-8.1305659376084804534912109375</LongitudeDegrees>
            </Position>
            <AltitudeMeters>348.600006103515625</AltitudeMeters>
            <DistanceMeters>29563.580739817</DistanceMeters>
          </Trackpoint>
          <Trackpoint>
            <Time>2018-09-13T09:02:00.000Z</Time>
            <Position>
              <LatitudeDegrees>39.64262721128761768341064453125</LatitudeDegrees>
              <LongitudeDegrees>-8.13087397255003452301025390625</LongitudeDegrees>
            </Position>
            <AltitudeMeters>350.20001220703125</AltitudeMeters>
            <DistanceMeters>29615.958478643</DistanceMeters>
          </Trackpoint>
          <Trackpoint>
            <Time>2018-09-13T09:02:02.000Z</Time>
            <Position>
              <LatitudeDegrees>39.64241959154605865478515625</LatitudeDegrees>
              <LongitudeDegrees>-8.1310294568538665771484375</LongitudeDegrees>
            </Position>
            <AltitudeMeters>350.20001220703125</AltitudeMeters>
            <DistanceMeters>29642.634087051</DistanceMeters>
          </Trackpoint>
          <Trackpoint>
            <Time>2018-09-13T09:02:04.000Z</Time>
            <Position>
              <LatitudeDegrees>39.64220928959548473358154296875</LatitudeDegrees>
              <LongitudeDegrees>-8.13118510879576206207275390625</LongitudeDegrees>
            </Position>
            <AltitudeMeters>349.600006103515625</AltitudeMeters>
            <DistanceMeters>29669.575794582</DistanceMeters>
          </Trackpoint>
          <Trackpoint>
            <Time>2018-09-13T09:02:09.000Z</Time>
            <Position>
              <LatitudeDegrees>39.641666226089000701904296875</LatitudeDegrees>
              <LongitudeDegrees>-8.13154100440442562103271484375</LongitudeDegrees>
            </Position>
            <AltitudeMeters>348.600006103515625</AltitudeMeters>
            <DistanceMeters>29737.280377995</DistanceMeters>
          </Trackpoint>
          <Trackpoint>
            <Time>2018-09-13T09:02:13.000Z</Time>
            <Position>
              <LatitudeDegrees>39.6412053890526294708251953125</LatitudeDegrees>
              <LongitudeDegrees>-8.131765387952327728271484375</LongitudeDegrees>
            </Position>
            <AltitudeMeters>348</AltitudeMeters>
            <DistanceMeters>29792.059219645</DistanceMeters>
          </Trackpoint>
          <Trackpoint>
            <Time>2018-09-13T09:02:16.000Z</Time>
            <Position>
              <LatitudeDegrees>39.64085184037685394287109375</LatitudeDegrees>
              <LongitudeDegrees>-8.13188516534864902496337890625</LongitudeDegrees>
            </Position>
            <AltitudeMeters>344.79998779296875</AltitudeMeters>
            <DistanceMeters>29832.726878795</DistanceMeters>
          </Trackpoint>
          <Trackpoint>
            <Time>2018-09-13T09:02:19.000Z</Time>
            <Position>
              <LatitudeDegrees>39.64049301110208034515380859375</LatitudeDegrees>
              <LongitudeDegrees>-8.1319757737219333648681640625</LongitudeDegrees>
            </Position>
            <AltitudeMeters>341.600006103515625</AltitudeMeters>
            <DistanceMeters>29873.413296475</DistanceMeters>
          </Trackpoint>
          <Trackpoint>
            <Time>2018-09-13T09:02:21.000Z</Time>
            <Position>
              <LatitudeDegrees>39.6402468346059322357177734375</LatitudeDegrees>
              <LongitudeDegrees>-8.13202162273228168487548828125</LongitudeDegrees>
            </Position>
            <AltitudeMeters>340</AltitudeMeters>
            <DistanceMeters>29901.093650271</DistanceMeters>
          </Trackpoint>
          <Trackpoint>
            <Time>2018-09-13T09:02:23.000Z</Time>
            <Position>
              <LatitudeDegrees>39.63999529369175434112548828125</LatitudeDegrees>
              <LongitudeDegrees>-8.13206277787685394287109375</LongitudeDegrees>
            </Position>
            <AltitudeMeters>338.600006103515625</AltitudeMeters>
            <DistanceMeters>29929.311944706</DistanceMeters>
          </Trackpoint>
          <Trackpoint>
            <Time>2018-09-13T09:02:25.000Z</Time>
            <Position>
              <LatitudeDegrees>39.63973931036889553070068359375</LatitudeDegrees>
              <LongitudeDegrees>-8.13210309483110904693603515625</LongitudeDegrees>
            </Position>
            <AltitudeMeters>336.600006103515625</AltitudeMeters>
            <DistanceMeters>29958.012214967</DistanceMeters>
          </Trackpoint>
          <Trackpoint>
            <Time>2018-09-13T09:02:26.000Z</Time>
            <Position>
              <LatitudeDegrees>39.6396094746887683868408203125</LatitudeDegrees>
              <LongitudeDegrees>-8.1321243010461330413818359375</LongitudeDegrees>
            </Position>
            <AltitudeMeters>335.600006103515625</AltitudeMeters>
            <DistanceMeters>29972.577054679</DistanceMeters>
          </Trackpoint>
          <Trackpoint>
            <Time>2018-09-13T09:02:28.000Z</Time>
            <Position>
              <LatitudeDegrees>39.639351479709148406982421875</LatitudeDegrees>
              <LongitudeDegrees>-8.13216847367584705352783203125</LongitudeDegrees>
            </Position>
            <AltitudeMeters>334.20001220703125</AltitudeMeters>
            <DistanceMeters>30001.541035099</DistanceMeters>
          </Trackpoint>
          <Trackpoint>
            <Time>2018-09-13T09:02:31.000Z</Time>
            <Position>
              <LatitudeDegrees>39.6389615535736083984375</LatitudeDegrees>
              <LongitudeDegrees>-8.13223049975931644439697265625</LongitudeDegrees>
            </Position>
            <AltitudeMeters>331.600006103515625</AltitudeMeters>
            <DistanceMeters>30045.265097173</DistanceMeters>
          </Trackpoint>
          <Trackpoint>
            <Time>2018-09-13T09:02:33.000Z</Time>
            <Position>
              <LatitudeDegrees>39.63869878090918064117431640625</LatitudeDegrees>
              <LongitudeDegrees>-8.132270984351634979248046875</LongitudeDegrees>
            </Position>
            <AltitudeMeters>328.600006103515625</AltitudeMeters>
            <DistanceMeters>30074.717553834</DistanceMeters>
          </Trackpoint>
          <Trackpoint>
            <Time>2018-09-13T09:02:35.000Z</Time>
            <Position>
              <LatitudeDegrees>39.63843257166445255279541015625</LatitudeDegrees>
              <LongitudeDegrees>-8.1323137320578098297119140625</LongitudeDegrees>
            </Position>
            <AltitudeMeters>327.399993896484375</AltitudeMeters>
            <DistanceMeters>30104.572884776</DistanceMeters>
          </Trackpoint>
          <Trackpoint>
            <Time>2018-09-13T09:02:36.000Z</Time>
            <Position>
              <LatitudeDegrees>39.6382968686521053314208984375</LatitudeDegrees>
              <LongitudeDegrees>-8.1323348544538021087646484375</LongitudeDegrees>
            </Position>
            <AltitudeMeters>326.79998779296875</AltitudeMeters>
            <DistanceMeters>30119.784878036</DistanceMeters>
          </Trackpoint>
          <Trackpoint>
            <Time>2018-09-13T09:02:37.000Z</Time>
            <Position>
              <LatitudeDegrees>39.63815948925912380218505859375</LatitudeDegrees>
              <LongitudeDegrees>-8.13235513865947723388671875</LongitudeDegrees>
            </Position>
            <AltitudeMeters>326.20001220703125</AltitudeMeters>
            <DistanceMeters>30135.173632201</DistanceMeters>
          </Trackpoint>
          <Trackpoint>
            <Time>2018-09-13T09:02:38.000Z</Time>
            <Position>
              <LatitudeDegrees>39.6380206011235713958740234375</LatitudeDegrees>
              <LongitudeDegrees>-8.13237500376999378204345703125</LongitudeDegrees>
            </Position>
            <AltitudeMeters>325.600006103515625</AltitudeMeters>
            <DistanceMeters>30150.725531361</DistanceMeters>
          </Trackpoint>
          <Trackpoint>
            <Time>2018-09-13T09:02:40.000Z</Time>
            <Position>
              <LatitudeDegrees>39.6377382986247539520263671875</LatitudeDegrees>
              <LongitudeDegrees>-8.13241808675229549407958984375</LongitudeDegrees>
            </Position>
            <AltitudeMeters>323.79998779296875</AltitudeMeters>
            <DistanceMeters>30182.362577732</DistanceMeters>
          </Trackpoint>
          <Trackpoint>
            <Time>2018-09-13T09:02:43.000Z</Time>
            <Position>
              <LatitudeDegrees>39.6373027749359607696533203125</LatitudeDegrees>
              <LongitudeDegrees>-8.1324870698153972625732421875</LongitudeDegrees>
            </Position>
            <AltitudeMeters>320.399993896484375</AltitudeMeters>
            <DistanceMeters>30231.196509461</DistanceMeters>
          </Trackpoint>
          <Trackpoint>
            <Time>2018-09-13T09:02:44.000Z</Time>
            <Position>
              <LatitudeDegrees>39.6371552534401416778564453125</LatitudeDegrees>
              <LongitudeDegrees>-8.1325112096965312957763671875</LongitudeDegrees>
            </Position>
            <AltitudeMeters>319.20001220703125</AltitudeMeters>
            <DistanceMeters>30247.745896717</DistanceMeters>
          </Trackpoint>
          <Trackpoint>
            <Time>2018-09-13T09:02:45.000Z</Time>
            <Position>
              <LatitudeDegrees>39.63700613938271999359130859375</LatitudeDegrees>
              <LongitudeDegrees>-8.13253425993025302886962890625</LongitudeDegrees>
            </Position>
            <AltitudeMeters>317.399993896484375</AltitudeMeters>
            <DistanceMeters>30264.459796468</DistanceMeters>
          </Trackpoint>
          <Trackpoint>
            <Time>2018-09-13T09:02:46.000Z</Time>
            <Position>
              <LatitudeDegrees>39.63685669004917144775390625</LatitudeDegrees>
              <LongitudeDegrees>-8.1325558014214038848876953125</LongitudeDegrees>
            </Position>
            <AltitudeMeters>316.399993896484375</AltitudeMeters>
            <DistanceMeters>30281.196102548</DistanceMeters>
          </Trackpoint>
          <Trackpoint>
            <Time>2018-09-13T09:02:47.000Z</Time>
            <Position>
              <LatitudeDegrees>39.6367071568965911865234375</LatitudeDegrees>
              <LongitudeDegrees>-8.1325779296457767486572265625</LongitudeDegrees>
            </Position>
            <AltitudeMeters>315.399993896484375</AltitudeMeters>
            <DistanceMeters>30297.94750922</DistanceMeters>
          </Trackpoint>
          <Trackpoint>
            <Time>2018-09-13T09:02:48.000Z</Time>
            <Position>
              <LatitudeDegrees>39.6365571208298206329345703125</LatitudeDegrees>
              <LongitudeDegrees>-8.13260190188884735107421875</LongitudeDegrees>
            </Position>
            <AltitudeMeters>314.399993896484375</AltitudeMeters>
            <DistanceMeters>30314.772873897</DistanceMeters>
          </Trackpoint>
          <Trackpoint>
            <Time>2018-09-13T09:02:50.000Z</Time>
            <Position>
              <LatitudeDegrees>39.636257551610469818115234375</LatitudeDegrees>
              <LongitudeDegrees>-8.1326567195355892181396484375</LongitudeDegrees>
            </Position>
            <AltitudeMeters>312.399993896484375</AltitudeMeters>
            <DistanceMeters>30348.445064178</DistanceMeters>
          </Trackpoint>
          <Trackpoint>
            <Time>2018-09-13T09:02:51.000Z</Time>
            <Position>
              <LatitudeDegrees>39.6361068449914455413818359375</LatitudeDegrees>
              <LongitudeDegrees>-8.1326912529766559600830078125</LongitudeDegrees>
            </Position>
            <AltitudeMeters>311.600006103515625</AltitudeMeters>
            <DistanceMeters>30365.478188556</DistanceMeters>
          </Trackpoint>
          <Trackpoint>
            <Time>2018-09-13T09:02:52.000Z</Time>
            <Position>
              <LatitudeDegrees>39.63595588691532611846923828125</LatitudeDegrees>
              <LongitudeDegrees>-8.132732324302196502685546875</LongitudeDegrees>
            </Position>
            <AltitudeMeters>310.600006103515625</AltitudeMeters>
            <DistanceMeters>30382.644653383</DistanceMeters>
          </Trackpoint>
          <Trackpoint>
            <Time>2018-09-13T09:02:53.000Z</Time>
            <Position>
              <LatitudeDegrees>39.6358047612011432647705078125</LatitudeDegrees>
              <LongitudeDegrees>-8.13278026878833770751953125</LongitudeDegrees>
            </Position>
            <AltitudeMeters>309.79998779296875</AltitudeMeters>
            <DistanceMeters>30399.959866293</DistanceMeters>
          </Trackpoint>
          <Trackpoint>
            <Time>2018-09-13T09:02:54.000Z</Time>
            <Position>
              <LatitudeDegrees>39.63565330021083354949951171875</LatitudeDegrees>
              <LongitudeDegrees>-8.1328364275395870208740234375</LongitudeDegrees>
            </Position>
            <AltitudeMeters>309</AltitudeMeters>
            <DistanceMeters>30417.491715653</DistanceMeters>
          </Trackpoint>
          <Trackpoint>
            <Time>2018-09-13T09:02:55.000Z</Time>
            <Position>
              <LatitudeDegrees>39.63550276122987270355224609375</LatitudeDegrees>
              <LongitudeDegrees>-8.132901974022388458251953125</LongitudeDegrees>
            </Position>
            <AltitudeMeters>308.600006103515625</AltitudeMeters>
            <DistanceMeters>30435.163874373</DistanceMeters>
          </Trackpoint>
          <Trackpoint>
            <Time>2018-09-13T09:02:56.000Z</Time>
            <Position>
              <LatitudeDegrees>39.63535322807729244232177734375</LatitudeDegrees>
              <LongitudeDegrees>-8.13297615386545658111572265625</LongitudeDegrees>
            </Position>
            <AltitudeMeters>308.20001220703125</AltitudeMeters>
            <DistanceMeters>30452.980306315</DistanceMeters>
          </Trackpoint>
          <Trackpoint>
            <Time>2018-09-13T09:02:58.000Z</Time>
            <Position>
              <LatitudeDegrees>39.63505650870501995086669921875</LatitudeDegrees>
              <LongitudeDegrees>-8.13314798288047313690185546875</LongitudeDegrees>
            </Position>
            <AltitudeMeters>306.399993896484375</AltitudeMeters>
            <DistanceMeters>30489.141186414</DistanceMeters>
          </Trackpoint>
          <Trackpoint>
            <Time>2018-09-13T09:03:01.000Z</Time>
            <Position>
              <LatitudeDegrees>39.63463607244193553924560546875</LatitudeDegrees>
              <LongitudeDegrees>-8.133480660617351531982421875</LongitudeDegrees>
            </Position>
            <AltitudeMeters>305.20001220703125</AltitudeMeters>
            <DistanceMeters>30543.940547557</DistanceMeters>
          </Trackpoint>
          <Trackpoint>
            <Time>2018-09-13T09:03:02.000Z</Time>
            <Position>
              <LatitudeDegrees>39.6345028840005397796630859375</LatitudeDegrees>
              <LongitudeDegrees>-8.1336052156984806060791015625</LongitudeDegrees>
            </Position>
            <AltitudeMeters>304.399993896484375</AltitudeMeters>
            <DistanceMeters>30562.209170802</DistanceMeters>
          </Trackpoint>
          <Trackpoint>
            <Time>2018-09-13T09:03:03.000Z</Time>
            <Position>
              <LatitudeDegrees>39.63437204249203205108642578125</LatitudeDegrees>
              <LongitudeDegrees>-8.1337342970073223114013671875</LongitudeDegrees>
            </Position>
            <AltitudeMeters>303</AltitudeMeters>
            <DistanceMeters>30580.498789491</DistanceMeters>
          </Trackpoint>
          <Trackpoint>
            <Time>2018-09-13T09:03:04.000Z</Time>
            <Position>
              <LatitudeDegrees>39.6342427097260951995849609375</LatitudeDegrees>
              <LongitudeDegrees>-8.133867569267749786376953125</LongitudeDegrees>
            </Position>
            <AltitudeMeters>301.600006103515625</AltitudeMeters>
            <DistanceMeters>30598.87608143</DistanceMeters>
          </Trackpoint>
          <Trackpoint>
            <Time>2018-09-13T09:03:05.000Z</Time>
            <Position>
              <LatitudeDegrees>39.6341146342456340789794921875</LatitudeDegrees>
              <LongitudeDegrees>-8.13400176353752613067626953125</LongitudeDegrees>
            </Position>
            <AltitudeMeters>300.20001220703125</AltitudeMeters>
            <DistanceMeters>30617.193327958</DistanceMeters>
          </Trackpoint>
          <Trackpoint>
            <Time>2018-09-13T09:03:06.000Z</Time>
            <Position>
              <LatitudeDegrees>39.63398580439388751983642578125</LatitudeDegrees>
              <LongitudeDegrees>-8.13413570635020732879638671875</LongitudeDegrees>
            </Position>
            <AltitudeMeters>299</AltitudeMeters>
            <DistanceMeters>30635.562756271</DistanceMeters>
          </Trackpoint>
          <Trackpoint>
            <Time>2018-09-13T09:03:07.000Z</Time>
            <Position>
              <LatitudeDegrees>39.63385722599923610687255859375</LatitudeDegrees>
              <LongitudeDegrees>-8.13426897861063480377197265625</LongitudeDegrees>
            </Position>
            <AltitudeMeters>297.600006103515625</AltitudeMeters>
            <DistanceMeters>30653.874086057</DistanceMeters>
          </Trackpoint>
          <Trackpoint>
            <Time>2018-09-13T09:03:08.000Z</Time>
            <Position>
              <LatitudeDegrees>39.63372831232845783233642578125</LatitudeDegrees>
              <LongitudeDegrees>-8.1344018317759037017822265625</LongitudeDegrees>
            </Position>
            <AltitudeMeters>295.399993896484375</AltitudeMeters>
            <DistanceMeters>30672.192318522</DistanceMeters>
          </Trackpoint>
          <Trackpoint>
            <Time>2018-09-13T09:03:09.000Z</Time>
            <Position>
              <LatitudeDegrees>39.63359939865767955780029296875</LatitudeDegrees>
              <LongitudeDegrees>-8.13453443348407745361328125</LongitudeDegrees>
            </Position>
            <AltitudeMeters>294.20001220703125</AltitudeMeters>
            <DistanceMeters>30690.497236346</DistanceMeters>
          </Trackpoint>
          <Trackpoint>
            <Time>2018-09-13T09:03:10.000Z</Time>
            <Position>
              <LatitudeDegrees>39.63347182609140872955322265625</LatitudeDegrees>
              <LongitudeDegrees>-8.1346692144870758056640625</LongitudeDegrees>
            </Position>
            <AltitudeMeters>293.600006103515625</AltitudeMeters>
            <DistanceMeters>30708.802647477</DistanceMeters>
          </Trackpoint>
          <Trackpoint>
            <Time>2018-09-13T09:03:11.000Z</Time>
            <Position>
              <LatitudeDegrees>39.63334559462964534759521484375</LatitudeDegrees>
              <LongitudeDegrees>-8.1348048336803913116455078125</LongitudeDegrees>
            </Position>
            <AltitudeMeters>293</AltitudeMeters>
            <DistanceMeters>30727.038370526</DistanceMeters>
          </Trackpoint>
          <Trackpoint>
            <Time>2018-09-13T09:03:13.000Z</Time>
            <Position>
              <LatitudeDegrees>39.6330907009541988372802734375</LatitudeDegrees>
              <LongitudeDegrees>-8.13507196493446826934814453125</LongitudeDegrees>
            </Position>
            <AltitudeMeters>291.79998779296875</AltitudeMeters>
            <DistanceMeters>30763.496444148</DistanceMeters>
          </Trackpoint>
          <Trackpoint>
            <Time>2018-09-13T09:03:14.000Z</Time>
            <Position>
              <LatitudeDegrees>39.63296203874051570892333984375</LatitudeDegrees>
              <LongitudeDegrees>-8.1352031417191028594970703125</LongitudeDegrees>
            </Position>
            <AltitudeMeters>290.20001220703125</AltitudeMeters>
            <DistanceMeters>30781.703919712</DistanceMeters>
          </Trackpoint>
          <Trackpoint>
            <Time>2018-09-13T09:03:15.000Z</Time>
            <Position>
              <LatitudeDegrees>39.6328345499932765960693359375</LatitudeDegrees>
              <LongitudeDegrees>-8.13533565960824489593505859375</LongitudeDegrees>
            </Position>
            <AltitudeMeters>288.20001220703125</AltitudeMeters>
            <DistanceMeters>30799.8803717</DistanceMeters>
          </Trackpoint>
          <Trackpoint>
            <Time>2018-09-13T09:03:16.000Z</Time>
            <Position>
              <LatitudeDegrees>39.63270588777959346771240234375</LatitudeDegrees>
              <LongitudeDegrees>-8.13546692021191120147705078125</LongitudeDegrees>
            </Position>
            <AltitudeMeters>286</AltitudeMeters>
            <DistanceMeters>30818.092310306</DistanceMeters>
          </Trackpoint>
          <Trackpoint>
            <Time>2018-09-13T09:03:18.000Z</Time>
            <Position>
              <LatitudeDegrees>39.63244085200130939483642578125</LatitudeDegrees>
              <LongitudeDegrees>-8.13571787439286708831787109375</LongitudeDegrees>
            </Position>
            <AltitudeMeters>281.600006103515625</AltitudeMeters>
            <DistanceMeters>30854.601618487</DistanceMeters>
          </Trackpoint>
          <Trackpoint>
            <Time>2018-09-13T09:03:19.000Z</Time>
            <Position>
              <LatitudeDegrees>39.6323024667799472808837890625</LatitudeDegrees>
              <LongitudeDegrees>-8.13583170063793659210205078125</LongitudeDegrees>
            </Position>
            <AltitudeMeters>279.399993896484375</AltitudeMeters>
            <DistanceMeters>30872.834865438</DistanceMeters>
          </Trackpoint>
          <Trackpoint>
            <Time>2018-09-13T09:03:20.000Z</Time>
            <Position>
              <LatitudeDegrees>39.63215880095958709716796875</LatitudeDegrees>
              <LongitudeDegrees>-8.13593387603759765625</LongitudeDegrees>
            </Position>
            <AltitudeMeters>277.399993896484375</AltitudeMeters>
            <DistanceMeters>30891.066626568</DistanceMeters>
          </Trackpoint>
          <Trackpoint>
            <Time>2018-09-13T09:03:21.000Z</Time>
            <Position>
              <LatitudeDegrees>39.63201102800667285919189453125</LatitudeDegrees>
              <LongitudeDegrees>-8.13602381385862827301025390625</LongitudeDegrees>
            </Position>
            <AltitudeMeters>276.399993896484375</AltitudeMeters>
            <DistanceMeters>30909.231399984</DistanceMeters>
          </Trackpoint>
          <Trackpoint>
            <Time>2018-09-13T09:03:23.000Z</Time>
            <Position>
              <LatitudeDegrees>39.63171011768281459808349609375</LatitudeDegrees>
              <LongitudeDegrees>-8.13617468811571598052978515625</LongitudeDegrees>
            </Position>
            <AltitudeMeters>279.399993896484375</AltitudeMeters>
            <DistanceMeters>30945.133644646</DistanceMeters>
          </Trackpoint>
          <Trackpoint>
            <Time>2018-09-13T09:03:25.000Z</Time>
            <Position>
              <LatitudeDegrees>39.63140912353992462158203125</LatitudeDegrees>
              <LongitudeDegrees>-8.13628256320953369140625</LongitudeDegrees>
            </Position>
            <AltitudeMeters>282</AltitudeMeters>
            <DistanceMeters>30979.887708653</DistanceMeters>
          </Trackpoint>
          <Trackpoint>
            <Time>2018-09-13T09:03:27.000Z</Time>
            <Position>
              <LatitudeDegrees>39.63112019933760166168212890625</LatitudeDegrees>
              <LongitudeDegrees>-8.13635037280619144439697265625</LongitudeDegrees>
            </Position>
            <AltitudeMeters>284.399993896484375</AltitudeMeters>
            <DistanceMeters>31012.566675901</DistanceMeters>
          </Trackpoint>
          <Trackpoint>
            <Time>2018-09-13T09:03:28.000Z</Time>
            <Position>
              <LatitudeDegrees>39.63098307140171527862548828125</LatitudeDegrees>
              <LongitudeDegrees>-8.13637568615376949310302734375</LongitudeDegrees>
            </Position>
            <AltitudeMeters>285</AltitudeMeters>
            <DistanceMeters>31027.982691984</DistanceMeters>
          </Trackpoint>
          <Trackpoint>
            <Time>2018-09-13T09:03:32.000Z</Time>
            <Position>
              <LatitudeDegrees>39.63048837147653102874755859375</LatitudeDegrees>
              <LongitudeDegrees>-8.1364604271948337554931640625</LongitudeDegrees>
            </Position>
            <AltitudeMeters>289</AltitudeMeters>
            <DistanceMeters>31083.520827365</DistanceMeters>
          </Trackpoint>
          <Trackpoint>
            <Time>2018-09-13T09:03:34.000Z</Time>
            <Position>
              <LatitudeDegrees>39.6302686817944049835205078125</LatitudeDegrees>
              <LongitudeDegrees>-8.13649873249232769012451171875</LongitudeDegrees>
            </Position>
            <AltitudeMeters>290.600006103515625</AltitudeMeters>
            <DistanceMeters>31108.192295355</DistanceMeters>
          </Trackpoint>
          <Trackpoint>
            <Time>2018-09-13T09:03:36.000Z</Time>
            <Position>
              <LatitudeDegrees>39.630060307681560516357421875</LatitudeDegrees>
              <LongitudeDegrees>-8.13653469085693359375</LongitudeDegrees>
            </Position>
            <AltitudeMeters>291.399993896484375</AltitudeMeters>
            <DistanceMeters>31131.588559456</DistanceMeters>
          </Trackpoint>
          <Trackpoint>
            <Time>2018-09-13T09:03:38.000Z</Time>
            <Position>
              <LatitudeDegrees>39.62986626662313938140869140625</LatitudeDegrees>
              <LongitudeDegrees>-8.13657333143055438995361328125</LongitudeDegrees>
            </Position>
            <AltitudeMeters>292</AltitudeMeters>
            <DistanceMeters>31153.438092207</DistanceMeters>
          </Trackpoint>
          <Trackpoint>
            <Time>2018-09-13T09:03:39.000Z</Time>
            <Position>
              <LatitudeDegrees>39.62977440096437931060791015625</LatitudeDegrees>
              <LongitudeDegrees>-8.1365942023694515228271484375</LongitudeDegrees>
            </Position>
            <AltitudeMeters>292.399993896484375</AltitudeMeters>
            <DistanceMeters>31163.818211288</DistanceMeters>
          </Trackpoint>
          <Trackpoint>
            <Time>2018-09-13T09:03:40.000Z</Time>
            <Position>
              <LatitudeDegrees>39.6296853013336658477783203125</LatitudeDegrees>
              <LongitudeDegrees>-8.13661473803222179412841796875</LongitudeDegrees>
            </Position>
            <AltitudeMeters>292.600006103515625</AltitudeMeters>
            <DistanceMeters>31173.890146493</DistanceMeters>
          </Trackpoint>
          <Trackpoint>
            <Time>2018-09-13T09:03:42.000Z</Time>
            <Position>
              <LatitudeDegrees>39.6295133046805858612060546875</LatitudeDegrees>
              <LongitudeDegrees>-8.13665580935776233673095703125</LongitudeDegrees>
            </Position>
            <AltitudeMeters>293.399993896484375</AltitudeMeters>
            <DistanceMeters>31193.35485603</DistanceMeters>
          </Trackpoint>
          <Trackpoint>
            <Time>2018-09-13T09:03:44.000Z</Time>
            <Position>
              <LatitudeDegrees>39.62935061194002628326416015625</LatitudeDegrees>
              <LongitudeDegrees>-8.1366981379687786102294921875</LongitudeDegrees>
            </Position>
            <AltitudeMeters>292.600006103515625</AltitudeMeters>
            <DistanceMeters>31211.82307244</DistanceMeters>
          </Trackpoint>
          <Trackpoint>
            <Time>2018-09-13T09:03:46.000Z</Time>
            <Position>
              <LatitudeDegrees>39.62919152341783046722412109375</LatitudeDegrees>
              <LongitudeDegrees>-8.13673543743789196014404296875</LongitudeDegrees>
            </Position>
            <AltitudeMeters>292</AltitudeMeters>
            <DistanceMeters>31229.816525716</DistanceMeters>
          </Trackpoint>
          <Trackpoint>
            <Time>2018-09-13T09:03:48.000Z</Time>
            <Position>
              <LatitudeDegrees>39.6290338598191738128662109375</LatitudeDegrees>
              <LongitudeDegrees>-8.13676661811769008636474609375</LongitudeDegrees>
            </Position>
            <AltitudeMeters>291.20001220703125</AltitudeMeters>
            <DistanceMeters>31247.566946198</DistanceMeters>
          </Trackpoint>
          <Trackpoint>
            <Time>2018-09-13T09:03:51.000Z</Time>
            <Position>
              <LatitudeDegrees>39.62879941798746585845947265625</LatitudeDegrees>
              <LongitudeDegrees>-8.136797212064266204833984375</LongitudeDegrees>
            </Position>
            <AltitudeMeters>290.600006103515625</AltitudeMeters>
            <DistanceMeters>31273.792253485</DistanceMeters>
          </Trackpoint>
          <Trackpoint>
            <Time>2018-09-13T09:03:54.000Z</Time>
            <Position>
              <LatitudeDegrees>39.6285678260028362274169921875</LatitudeDegrees>
              <LongitudeDegrees>-8.13682948239147663116455078125</LongitudeDegrees>
            </Position>
            <AltitudeMeters>290.20001220703125</AltitudeMeters>
            <DistanceMeters>31299.716962347</DistanceMeters>
          </Trackpoint>
          <Trackpoint>
            <Time>2018-09-13T09:03:58.000Z</Time>
            <Position>
              <LatitudeDegrees>39.6282912231981754302978515625</LatitudeDegrees>
              <LongitudeDegrees>-8.1368527002632617950439453125</LongitudeDegrees>
            </Position>
            <AltitudeMeters>289.20001220703125</AltitudeMeters>
            <DistanceMeters>31330.567586767</DistanceMeters>
          </Trackpoint>
          <Trackpoint>
            <Time>2018-09-13T09:04:07.000Z</Time>
            <Position>
              <LatitudeDegrees>39.627693928778171539306640625</LatitudeDegrees>
              <LongitudeDegrees>-8.13688161782920360565185546875</LongitudeDegrees>
            </Position>
            <AltitudeMeters>287.20001220703125</AltitudeMeters>
            <DistanceMeters>31397.093752792</DistanceMeters>
          </Trackpoint>
          <Trackpoint>
            <Time>2018-09-13T09:04:15.000Z</Time>
            <Position>
              <LatitudeDegrees>39.62714449502527713775634765625</LatitudeDegrees>
              <LongitudeDegrees>-8.13679754734039306640625</LongitudeDegrees>
            </Position>
            <AltitudeMeters>283.79998779296875</AltitudeMeters>
            <DistanceMeters>31458.670037172</DistanceMeters>
          </Trackpoint>
          <Trackpoint>
            <Time>2018-09-13T09:04:20.000Z</Time>
            <Position>
              <LatitudeDegrees>39.62677116505801677703857421875</LatitudeDegrees>
              <LongitudeDegrees>-8.136734850704669952392578125</LongitudeDegrees>
            </Position>
            <AltitudeMeters>282.399993896484375</AltitudeMeters>
            <DistanceMeters>31500.568521405</DistanceMeters>
          </Trackpoint>
          <Trackpoint>
            <Time>2018-09-13T09:04:22.000Z</Time>
            <Position>
              <LatitudeDegrees>39.6266071312129497528076171875</LatitudeDegrees>
              <LongitudeDegrees>-8.136708699166774749755859375</LongitudeDegrees>
            </Position>
            <AltitudeMeters>281.79998779296875</AltitudeMeters>
            <DistanceMeters>31518.962757847</DistanceMeters>
          </Trackpoint>
          <Trackpoint>
            <Time>2018-09-13T09:04:25.000Z</Time>
            <Position>
              <LatitudeDegrees>39.6263392455875873565673828125</LatitudeDegrees>
              <LongitudeDegrees>-8.13665329478681087493896484375</LongitudeDegrees>
            </Position>
            <AltitudeMeters>281</AltitudeMeters>
            <DistanceMeters>31549.154944864</DistanceMeters>
          </Trackpoint>
          <Trackpoint>
            <Time>2018-09-13T09:04:28.000Z</Time>
            <Position>
              <LatitudeDegrees>39.62604428641498088836669921875</LatitudeDegrees>
              <LongitudeDegrees>-8.13658305443823337554931640625</LongitudeDegrees>
            </Position>
            <AltitudeMeters>280</AltitudeMeters>
            <DistanceMeters>31582.532055296</DistanceMeters>
          </Trackpoint>
          <Trackpoint>
            <Time>2018-09-13T09:04:31.000Z</Time>
            <Position>
              <LatitudeDegrees>39.62572761811316013336181640625</LatitudeDegrees>
              <LongitudeDegrees>-8.13649713993072509765625</LongitudeDegrees>
            </Position>
            <AltitudeMeters>280.79998779296875</AltitudeMeters>
            <DistanceMeters>31618.539155785</DistanceMeters>
          </Trackpoint>
          <Trackpoint>
            <Time>2018-09-13T09:04:33.000Z</Time>
            <Position>
              <LatitudeDegrees>39.6255023963749408721923828125</LatitudeDegrees>
              <LongitudeDegrees>-8.13643083907663822174072265625</LongitudeDegrees>
            </Position>
            <AltitudeMeters>279.399993896484375</AltitudeMeters>
            <DistanceMeters>31644.242959842</DistanceMeters>
          </Trackpoint>
          <Trackpoint>
            <Time>2018-09-13T09:04:35.000Z</Time>
            <Position>
              <LatitudeDegrees>39.62526761926710605621337890625</LatitudeDegrees>
              <LongitudeDegrees>-8.13635406084358692169189453125</LongitudeDegrees>
            </Position>
            <AltitudeMeters>276</AltitudeMeters>
            <DistanceMeters>31671.190532227</DistanceMeters>
          </Trackpoint>
          <Trackpoint>
            <Time>2018-09-13T09:04:36.000Z</Time>
            <Position>
              <LatitudeDegrees>39.6251463331282138824462890625</LatitudeDegrees>
              <LongitudeDegrees>-8.1363135762512683868408203125</LongitudeDegrees>
            </Position>
            <AltitudeMeters>273.600006103515625</AltitudeMeters>
            <DistanceMeters>31685.128719505</DistanceMeters>
          </Trackpoint>
          <Trackpoint>
            <Time>2018-09-13T09:04:37.000Z</Time>
            <Position>
              <LatitudeDegrees>39.62502253241837024688720703125</LatitudeDegrees>
              <LongitudeDegrees>-8.13627141527831554412841796875</LongitudeDegrees>
            </Position>
            <AltitudeMeters>271.399993896484375</AltitudeMeters>
            <DistanceMeters>31699.37385474</DistanceMeters>
          </Trackpoint>
          <Trackpoint>
            <Time>2018-09-13T09:04:39.000Z</Time>
            <Position>
              <LatitudeDegrees>39.62476931512355804443359375</LatitudeDegrees>
              <LongitudeDegrees>-8.13618960790336132049560546875</LongitudeDegrees>
            </Position>
            <AltitudeMeters>269.600006103515625</AltitudeMeters>
            <DistanceMeters>31728.416916573</DistanceMeters>
          </Trackpoint>
          <Trackpoint>
            <Time>2018-09-13T09:04:40.000Z</Time>
            <Position>
              <LatitudeDegrees>39.62463947944343090057373046875</LatitudeDegrees>
              <LongitudeDegrees>-8.136151134967803955078125</LongitudeDegrees>
            </Position>
            <AltitudeMeters>268.79998779296875</AltitudeMeters>
            <DistanceMeters>31743.239256465</DistanceMeters>
          </Trackpoint>
          <Trackpoint>
            <Time>2018-09-13T09:04:41.000Z</Time>
            <Position>
              <LatitudeDegrees>39.62450788356363773345947265625</LatitudeDegrees>
              <LongitudeDegrees>-8.1361130811274051666259765625</LongitudeDegrees>
            </Position>
            <AltitudeMeters>267.79998779296875</AltitudeMeters>
            <DistanceMeters>31758.245054884</DistanceMeters>
          </Trackpoint>
          <Trackpoint>
            <Time>2018-09-13T09:04:42.000Z</Time>
            <Position>
              <LatitudeDegrees>39.62437511421740055084228515625</LatitudeDegrees>
              <LongitudeDegrees>-8.1360758654773235321044921875</LongitudeDegrees>
            </Position>
            <AltitudeMeters>266.20001220703125</AltitudeMeters>
            <DistanceMeters>31773.362965944</DistanceMeters>
          </Trackpoint>
          <Trackpoint>
            <Time>2018-09-13T09:04:43.000Z</Time>
            <Position>
              <LatitudeDegrees>39.62424091994762420654296875</LatitudeDegrees>
              <LongitudeDegrees>-8.1360416673123836517333984375</LongitudeDegrees>
            </Position>
            <AltitudeMeters>265</AltitudeMeters>
            <DistanceMeters>31788.584157465</DistanceMeters>
          </Trackpoint>
          <Trackpoint>
            <Time>2018-09-13T09:04:44.000Z</Time>
            <Position>
              <LatitudeDegrees>39.62410546839237213134765625</LatitudeDegrees>
              <LongitudeDegrees>-8.1360098160803318023681640625</LongitudeDegrees>
            </Position>
            <AltitudeMeters>263.600006103515625</AltitudeMeters>
            <DistanceMeters>31803.905576043</DistanceMeters>
          </Trackpoint>
          <Trackpoint>
            <Time>2018-09-13T09:04:45.000Z</Time>
            <Position>
              <LatitudeDegrees>39.62396875955164432525634765625</LatitudeDegrees>
              <LongitudeDegrees>-8.13598106615245342254638671875</LongitudeDegrees>
            </Position>
            <AltitudeMeters>262.399993896484375</AltitudeMeters>
            <DistanceMeters>31819.319834747</DistanceMeters>
          </Trackpoint>
          <Trackpoint>
            <Time>2018-09-13T09:04:46.000Z</Time>
            <Position>
              <LatitudeDegrees>39.62383179925382137298583984375</LatitudeDegrees>
              <LongitudeDegrees>-8.13595592044293880462646484375</LongitudeDegrees>
            </Position>
            <AltitudeMeters>261.20001220703125</AltitudeMeters>
            <DistanceMeters>31834.715335599</DistanceMeters>
          </Trackpoint>
          <Trackpoint>
            <Time>2018-09-13T09:04:47.000Z</Time>
            <Position>
              <LatitudeDegrees>39.62369467131793498992919921875</LatitudeDegrees>
              <LongitudeDegrees>-8.13593412749469280242919921875</LongitudeDegrees>
            </Position>
            <AltitudeMeters>260</AltitudeMeters>
            <DistanceMeters>31850.092055718</DistanceMeters>
          </Trackpoint>
          <Trackpoint>
            <Time>2018-09-13T09:04:48.000Z</Time>
            <Position>
              <LatitudeDegrees>39.6235564537346363067626953125</LatitudeDegrees>
              <LongitudeDegrees>-8.1359172798693180084228515625</LongitudeDegrees>
            </Position>
            <AltitudeMeters>259.20001220703125</AltitudeMeters>
            <DistanceMeters>31865.543761811</DistanceMeters>
          </Trackpoint>
          <Trackpoint>
            <Time>2018-09-13T09:04:49.000Z</Time>
            <Position>
              <LatitudeDegrees>39.623417146503925323486328125</LatitudeDegrees>
              <LongitudeDegrees>-8.13590629957616329193115234375</LongitudeDegrees>
            </Position>
            <AltitudeMeters>258.20001220703125</AltitudeMeters>
            <DistanceMeters>31881.077359998</DistanceMeters>
          </Trackpoint>
          <Trackpoint>
            <Time>2018-09-13T09:04:50.000Z</Time>
            <Position>
              <LatitudeDegrees>39.62327691726386547088623046875</LatitudeDegrees>
              <LongitudeDegrees>-8.13590194098651409149169921875</LongitudeDegrees>
            </Position>
            <AltitudeMeters>257.399993896484375</AltitudeMeters>
            <DistanceMeters>31896.689529078</DistanceMeters>
          </Trackpoint>
          <Trackpoint>
            <Time>2018-09-13T09:04:51.000Z</Time>
            <Position>
              <LatitudeDegrees>39.6231370232999324798583984375</LatitudeDegrees>
              <LongitudeDegrees>-8.13590370118618011474609375</LongitudeDegrees>
            </Position>
            <AltitudeMeters>256.600006103515625</AltitudeMeters>
            <DistanceMeters>31912.260867575</DistanceMeters>
          </Trackpoint>
          <Trackpoint>
            <Time>2018-09-13T09:04:52.000Z</Time>
            <Position>
              <LatitudeDegrees>39.6229965426027774810791015625</LatitudeDegrees>
              <LongitudeDegrees>-8.13591032288968563079833984375</LongitudeDegrees>
            </Position>
            <AltitudeMeters>255.8000030517578125</AltitudeMeters>
            <DistanceMeters>31927.907125032</DistanceMeters>
          </Trackpoint>
          <Trackpoint>
            <Time>2018-09-13T09:04:53.000Z</Time>
            <Position>
              <LatitudeDegrees>39.62285614572465419769287109375</LatitudeDegrees>
              <LongitudeDegrees>-8.1359223090112209320068359375</LongitudeDegrees>
            </Position>
            <AltitudeMeters>255</AltitudeMeters>
            <DistanceMeters>31943.567227716</DistanceMeters>
          </Trackpoint>
          <Trackpoint>
            <Time>2018-09-13T09:04:55.000Z</Time>
            <Position>
              <LatitudeDegrees>39.62257468141615390777587890625</LatitudeDegrees>
              <LongitudeDegrees>-8.13596849329769611358642578125</LongitudeDegrees>
            </Position>
            <AltitudeMeters>252</AltitudeMeters>
            <DistanceMeters>31975.14384851</DistanceMeters>
          </Trackpoint>
          <Trackpoint>
            <Time>2018-09-13T09:04:56.000Z</Time>
            <Position>
              <LatitudeDegrees>39.62243403308093547821044921875</LatitudeDegrees>
              <LongitudeDegrees>-8.13600369729101657867431640625</LongitudeDegrees>
            </Position>
            <AltitudeMeters>250.600006103515625</AltitudeMeters>
            <DistanceMeters>31991.086544696</DistanceMeters>
          </Trackpoint>
          <Trackpoint>
            <Time>2018-09-13T09:04:58.000Z</Time>
            <Position>
              <LatitudeDegrees>39.6221529878675937652587890625</LatitudeDegrees>
              <LongitudeDegrees>-8.1360906176269054412841796875</LongitudeDegrees>
            </Position>
            <AltitudeMeters>248</AltitudeMeters>
            <DistanceMeters>32023.242804172</DistanceMeters>
          </Trackpoint>
          <Trackpoint>
            <Time>2018-09-13T09:05:00.000Z</Time>
            <Position>
              <LatitudeDegrees>39.62187563069164752960205078125</LatitudeDegrees>
              <LongitudeDegrees>-8.13620788045227527618408203125</LongitudeDegrees>
            </Position>
            <AltitudeMeters>246.8000030517578125</AltitudeMeters>
            <DistanceMeters>32055.708858799</DistanceMeters>
          </Trackpoint>
          <Trackpoint>
            <Time>2018-09-13T09:05:02.000Z</Time>
            <Position>
              <LatitudeDegrees>39.6216041408479213714599609375</LatitudeDegrees>
              <LongitudeDegrees>-8.1363517977297306060791015625</LongitudeDegrees>
            </Position>
            <AltitudeMeters>247</AltitudeMeters>
            <DistanceMeters>32088.348149056</DistanceMeters>
          </Trackpoint>
          <Trackpoint>
            <Time>2018-09-13T09:05:04.000Z</Time>
            <Position>
              <LatitudeDegrees>39.62133985944092273712158203125</LatitudeDegrees>
              <LongitudeDegrees>-8.13652119599282741546630859375</LongitudeDegrees>
            </Position>
            <AltitudeMeters>248</AltitudeMeters>
            <DistanceMeters>32121.15301699</DistanceMeters>
          </Trackpoint>
          <Trackpoint>
            <Time>2018-09-13T09:05:05.000Z</Time>
            <Position>
              <LatitudeDegrees>39.62121094577014446258544921875</LatitudeDegrees>
              <LongitudeDegrees>-8.1366156600415706634521484375</LongitudeDegrees>
            </Position>
            <AltitudeMeters>248.600006103515625</AltitudeMeters>
            <DistanceMeters>32137.629125695</DistanceMeters>
          </Trackpoint>
          <Trackpoint>
            <Time>2018-09-13T09:05:06.000Z</Time>
            <Position>
              <LatitudeDegrees>39.62108538486063480377197265625</LatitudeDegrees>
              <LongitudeDegrees>-8.1367182545363903045654296875</LongitudeDegrees>
            </Position>
            <AltitudeMeters>248.399993896484375</AltitudeMeters>
            <DistanceMeters>32154.141914324</DistanceMeters>
          </Trackpoint>
          <Trackpoint>
            <Time>2018-09-13T09:05:08.000Z</Time>
            <Position>
              <LatitudeDegrees>39.6208457462489604949951171875</LatitudeDegrees>
              <LongitudeDegrees>-8.13694582320749759674072265625</LongitudeDegrees>
            </Position>
            <AltitudeMeters>246.600006103515625</AltitudeMeters>
            <DistanceMeters>32187.188265482</DistanceMeters>
          </Trackpoint>
          <Trackpoint>
            <Time>2018-09-13T09:05:10.000Z</Time>
            <Position>
              <LatitudeDegrees>39.62061599828302860260009765625</LatitudeDegrees>
              <LongitudeDegrees>-8.13719627447426319122314453125</LongitudeDegrees>
            </Position>
            <AltitudeMeters>244.1999969482421875</AltitudeMeters>
            <DistanceMeters>32220.579170959</DistanceMeters>
          </Trackpoint>
          <Trackpoint>
            <Time>2018-09-13T09:05:12.000Z</Time>
            <Position>
              <LatitudeDegrees>39.62040041573345661163330078125</LatitudeDegrees>
              <LongitudeDegrees>-8.13747153617441654205322265625</LongitudeDegrees>
            </Position>
            <AltitudeMeters>241.8000030517578125</AltitudeMeters>
            <DistanceMeters>32254.234461905</DistanceMeters>
          </Trackpoint>
          <Trackpoint>
            <Time>2018-09-13T09:05:14.000Z</Time>
            <Position>
              <LatitudeDegrees>39.6201953105628490447998046875</LatitudeDegrees>
              <LongitudeDegrees>-8.137766830623149871826171875</LongitudeDegrees>
            </Position>
            <AltitudeMeters>236.399993896484375</AltitudeMeters>
            <DistanceMeters>32288.323896745</DistanceMeters>
          </Trackpoint>
          <Trackpoint>
            <Time>2018-09-13T09:05:16.000Z</Time>
            <Position>
              <LatitudeDegrees>39.61999858729541301727294921875</LatitudeDegrees>
              <LongitudeDegrees>-8.1380771286785602569580078125</LongitudeDegrees>
            </Position>
            <AltitudeMeters>230</AltitudeMeters>
            <DistanceMeters>32322.779173408</DistanceMeters>
          </Trackpoint>
          <Trackpoint>
            <Time>2018-09-13T09:05:18.000Z</Time>
            <Position>
              <LatitudeDegrees>39.61980722844600677490234375</LatitudeDegrees>
              <LongitudeDegrees>-8.1383976526558399200439453125</LongitudeDegrees>
            </Position>
            <AltitudeMeters>223.8000030517578125</AltitudeMeters>
            <DistanceMeters>32357.547005568</DistanceMeters>
          </Trackpoint>
          <Trackpoint>
            <Time>2018-09-13T09:05:20.000Z</Time>
            <Position>
              <LatitudeDegrees>39.6196233294904232025146484375</LatitudeDegrees>
              <LongitudeDegrees>-8.1387282349169254302978515625</LongitudeDegrees>
            </Position>
            <AltitudeMeters>220</AltitudeMeters>
            <DistanceMeters>32392.507797421</DistanceMeters>
          </Trackpoint>
          <Trackpoint>
            <Time>2018-09-13T09:05:22.000Z</Time>
            <Position>
              <LatitudeDegrees>39.61944638751447200775146484375</LatitudeDegrees>
              <LongitudeDegrees>-8.13906527124345302581787109375</LongitudeDegrees>
            </Position>
            <AltitudeMeters>215.8000030517578125</AltitudeMeters>
            <DistanceMeters>32427.476724511</DistanceMeters>
          </Trackpoint>
          <Trackpoint>
            <Time>2018-09-13T09:05:23.000Z</Time>
            <Position>
              <LatitudeDegrees>39.619357623159885406494140625</LatitudeDegrees>
              <LongitudeDegrees>-8.13923324458301067352294921875</LongitudeDegrees>
            </Position>
            <AltitudeMeters>213</AltitudeMeters>
            <DistanceMeters>32444.940969755</DistanceMeters>
          </Trackpoint>
          <Trackpoint>
            <Time>2018-09-13T09:05:24.000Z</Time>
            <Position>
              <LatitudeDegrees>39.61926869116723537445068359375</LatitudeDegrees>
              <LongitudeDegrees>-8.13940138556063175201416015625</LongitudeDegrees>
            </Position>
            <AltitudeMeters>211.600006103515625</AltitudeMeters>
            <DistanceMeters>32462.427692679</DistanceMeters>
          </Trackpoint>
          <Trackpoint>
            <Time>2018-09-13T09:05:25.000Z</Time>
            <Position>
              <LatitudeDegrees>39.61918001063168048858642578125</LatitudeDegrees>
              <LongitudeDegrees>-8.13957019709050655364990234375</LongitudeDegrees>
            </Position>
            <AltitudeMeters>210.600006103515625</AltitudeMeters>
            <DistanceMeters>32479.94614518</DistanceMeters>
          </Trackpoint>
          <Trackpoint>
            <Time>2018-09-13T09:05:26.000Z</Time>
            <Position>
              <LatitudeDegrees>39.619091413915157318115234375</LatitudeDegrees>
              <LongitudeDegrees>-8.1397394277155399322509765625</LongitudeDegrees>
            </Position>
            <AltitudeMeters>209.600006103515625</AltitudeMeters>
            <DistanceMeters>32497.489322354</DistanceMeters>
          </Trackpoint>
          <Trackpoint>
            <Time>2018-09-13T09:05:27.000Z</Time>
            <Position>
              <LatitudeDegrees>39.61900248192250728607177734375</LatitudeDegrees>
              <LongitudeDegrees>-8.139908574521541595458984375</LongitudeDegrees>
            </Position>
            <AltitudeMeters>208</AltitudeMeters>
            <DistanceMeters>32515.04742048</DistanceMeters>
          </Trackpoint>
          <Trackpoint>
            <Time>2018-09-13T09:05:28.000Z</Time>
            <Position>
              <LatitudeDegrees>39.61891405284404754638671875</LatitudeDegrees>
              <LongitudeDegrees>-8.14007797278463840484619140625</LongitudeDegrees>
            </Position>
            <AltitudeMeters>206.600006103515625</AltitudeMeters>
            <DistanceMeters>32532.591627093</DistanceMeters>
          </Trackpoint>
          <Trackpoint>
            <Time>2018-09-13T09:05:29.000Z</Time>
            <Position>
              <LatitudeDegrees>39.61882612667977809906005859375</LatitudeDegrees>
              <LongitudeDegrees>-8.1402467004954814910888671875</LongitudeDegrees>
            </Position>
            <AltitudeMeters>206.1999969482421875</AltitudeMeters>
            <DistanceMeters>32550.057164942</DistanceMeters>
          </Trackpoint>
          <Trackpoint>
            <Time>2018-09-13T09:05:31.000Z</Time>
            <Position>
              <LatitudeDegrees>39.6186490170657634735107421875</LatitudeDegrees>
              <LongitudeDegrees>-8.14057854004204273223876953125</LongitudeDegrees>
            </Position>
            <AltitudeMeters>205.8000030517578125</AltitudeMeters>
            <DistanceMeters>32584.669724395</DistanceMeters>
          </Trackpoint>
          <Trackpoint>
            <Time>2018-09-13T09:05:32.000Z</Time>
            <Position>
              <LatitudeDegrees>39.618560336530208587646484375</LatitudeDegrees>
              <LongitudeDegrees>-8.140742070972919464111328125</LongitudeDegrees>
            </Position>
            <AltitudeMeters>205.8000030517578125</AltitudeMeters>
            <DistanceMeters>32601.816188429</DistanceMeters>
          </Trackpoint>
          <Trackpoint>
            <Time>2018-09-13T09:05:33.000Z</Time>
            <Position>
              <LatitudeDegrees>39.61847224272787570953369140625</LatitudeDegrees>
              <LongitudeDegrees>-8.14090359024703502655029296875</LongitudeDegrees>
            </Position>
            <AltitudeMeters>205.8000030517578125</AltitudeMeters>
            <DistanceMeters>32618.784245399</DistanceMeters>
          </Trackpoint>
          <Trackpoint>
            <Time>2018-09-13T09:05:35.000Z</Time>
            <Position>
              <LatitudeDegrees>39.6182909421622753143310546875</LatitudeDegrees>
              <LongitudeDegrees>-8.141216151416301727294921875</LongitudeDegrees>
            </Position>
            <AltitudeMeters>204.600006103515625</AltitudeMeters>
            <DistanceMeters>32652.330156125</DistanceMeters>
          </Trackpoint>
          <Trackpoint>
            <Time>2018-09-13T09:05:36.000Z</Time>
            <Position>
              <LatitudeDegrees>39.61819547228515148162841796875</LatitudeDegrees>
              <LongitudeDegrees>-8.14136493019759654998779296875</LongitudeDegrees>
            </Position>
            <AltitudeMeters>203.600006103515625</AltitudeMeters>
            <DistanceMeters>32668.932114543</DistanceMeters>
          </Trackpoint>
          <Trackpoint>
            <Time>2018-09-13T09:05:37.000Z</Time>
            <Position>
              <LatitudeDegrees>39.6180971525609493255615234375</LatitudeDegrees>
              <LongitudeDegrees>-8.141507841646671295166015625</LongitudeDegrees>
            </Position>
            <AltitudeMeters>202.600006103515625</AltitudeMeters>
            <DistanceMeters>32685.360197044</DistanceMeters>
          </Trackpoint>
          <Trackpoint>
            <Time>2018-09-13T09:05:39.000Z</Time>
            <Position>
              <LatitudeDegrees>39.61789003573358058929443359375</LatitudeDegrees>
              <LongitudeDegrees>-8.14177581109106540679931640625</LongitudeDegrees>
            </Position>
            <AltitudeMeters>200</AltitudeMeters>
            <DistanceMeters>32717.906534583</DistanceMeters>
          </Trackpoint>
          <Trackpoint>
            <Time>2018-09-13T09:05:41.000Z</Time>
            <Position>
              <LatitudeDegrees>39.61766271851956844329833984375</LatitudeDegrees>
              <LongitudeDegrees>-8.14200815744698047637939453125</LongitudeDegrees>
            </Position>
            <AltitudeMeters>201.1999969482421875</AltitudeMeters>
            <DistanceMeters>32750.108534963</DistanceMeters>
          </Trackpoint>
          <Trackpoint>
            <Time>2018-09-13T09:05:42.000Z</Time>
            <Position>
              <LatitudeDegrees>39.61754285730421543121337890625</LatitudeDegrees>
              <LongitudeDegrees>-8.14211091957986354827880859375</LongitudeDegrees>
            </Position>
            <AltitudeMeters>201.1999969482421875</AltitudeMeters>
            <DistanceMeters>32766.0961972</DistanceMeters>
          </Trackpoint>
          <Trackpoint>
            <Time>2018-09-13T09:05:44.000Z</Time>
            <Position>
              <LatitudeDegrees>39.61729408241808414459228515625</LatitudeDegrees>
              <LongitudeDegrees>-8.14229029230773448944091796875</LongitudeDegrees>
            </Position>
            <AltitudeMeters>200.399993896484375</AltitudeMeters>
            <DistanceMeters>32797.769614645</DistanceMeters>
          </Trackpoint>
          <Trackpoint>
            <Time>2018-09-13T09:05:46.000Z</Time>
            <Position>
              <LatitudeDegrees>39.617033489048480987548828125</LatitudeDegrees>
              <LongitudeDegrees>-8.1424373947083950042724609375</LongitudeDegrees>
            </Position>
            <AltitudeMeters>198.399993896484375</AltitudeMeters>
            <DistanceMeters>32829.397668779</DistanceMeters>
          </Trackpoint>
          <Trackpoint>
            <Time>2018-09-13T09:05:48.000Z</Time>
            <Position>
              <LatitudeDegrees>39.6167637594044208526611328125</LatitudeDegrees>
              <LongitudeDegrees>-8.14255063422024250030517578125</LongitudeDegrees>
            </Position>
            <AltitudeMeters>197.399993896484375</AltitudeMeters>
            <DistanceMeters>32860.949972463</DistanceMeters>
          </Trackpoint>
          <Trackpoint>
            <Time>2018-09-13T09:05:50.000Z</Time>
            <Position>
              <LatitudeDegrees>39.616482965648174285888671875</LatitudeDegrees>
              <LongitudeDegrees>-8.14262405969202518463134765625</LongitudeDegrees>
            </Position>
            <AltitudeMeters>194.600006103515625</AltitudeMeters>
            <DistanceMeters>32892.83055</DistanceMeters>
          </Trackpoint>
          <Trackpoint>
            <Time>2018-09-13T09:05:52.000Z</Time>
            <Position>
              <LatitudeDegrees>39.61619655601680278778076171875</LatitudeDegrees>
              <LongitudeDegrees>-8.14266378991305828094482421875</LongitudeDegrees>
            </Position>
            <AltitudeMeters>190</AltitudeMeters>
            <DistanceMeters>32924.889921498</DistanceMeters>
          </Trackpoint>
          <Trackpoint>
            <Time>2018-09-13T09:05:54.000Z</Time>
            <Position>
              <LatitudeDegrees>39.6159034408628940582275390625</LatitudeDegrees>
              <LongitudeDegrees>-8.1426720879971981048583984375</LongitudeDegrees>
            </Position>
            <AltitudeMeters>186.399993896484375</AltitudeMeters>
            <DistanceMeters>32957.521879368</DistanceMeters>
          </Trackpoint>
          <Trackpoint>
            <Time>2018-09-13T09:05:56.000Z</Time>
            <Position>
              <LatitudeDegrees>39.61560563184320926666259765625</LatitudeDegrees>
              <LongitudeDegrees>-8.1426519714295864105224609375</LongitudeDegrees>
            </Position>
            <AltitudeMeters>182.399993896484375</AltitudeMeters>
            <DistanceMeters>32990.71328377</DistanceMeters>
          </Trackpoint>
          <Trackpoint>
            <Time>2018-09-13T09:05:57.000Z</Time>
            <Position>
              <LatitudeDegrees>39.615455009043216705322265625</LatitudeDegrees>
              <LongitudeDegrees>-8.1426378898322582244873046875</LongitudeDegrees>
            </Position>
            <AltitudeMeters>180.399993896484375</AltitudeMeters>
            <DistanceMeters>33007.520928205</DistanceMeters>
          </Trackpoint>
          <Trackpoint>
            <Time>2018-09-13T09:05:58.000Z</Time>
            <Position>
              <LatitudeDegrees>39.6153031289577484130859375</LatitudeDegrees>
              <LongitudeDegrees>-8.1426228024065494537353515625</LongitudeDegrees>
            </Position>
            <AltitudeMeters>177.8000030517578125</AltitudeMeters>
            <DistanceMeters>33024.474610201</DistanceMeters>
          </Trackpoint>
          <Trackpoint>
            <Time>2018-09-13T09:06:00.000Z</Time>
            <Position>
              <LatitudeDegrees>39.61499802768230438232421875</LatitudeDegrees>
              <LongitudeDegrees>-8.14259069971740245819091796875</LongitudeDegrees>
            </Position>
            <AltitudeMeters>171.1999969482421875</AltitudeMeters>
            <DistanceMeters>33058.544304744</DistanceMeters>
          </Trackpoint>
          <Trackpoint>
            <Time>2018-09-13T09:06:02.000Z</Time>
            <Position>
              <LatitudeDegrees>39.61468965746462345123291015625</LatitudeDegrees>
              <LongitudeDegrees>-8.14256102778017520904541015625</LongitudeDegrees>
            </Position>
            <AltitudeMeters>164.1999969482421875</AltitudeMeters>
            <DistanceMeters>33092.960771549</DistanceMeters>
          </Trackpoint>
          <Trackpoint>
            <Time>2018-09-13T09:06:04.000Z</Time>
            <Position>
              <LatitudeDegrees>39.614380784332752227783203125</LatitudeDegrees>
              <LongitudeDegrees>-8.1425319425761699676513671875</LongitudeDegrees>
            </Position>
            <AltitudeMeters>160</AltitudeMeters>
            <DistanceMeters>33127.429149776</DistanceMeters>
          </Trackpoint>
          <Trackpoint>
            <Time>2018-09-13T09:06:05.000Z</Time>
            <Position>
              <LatitudeDegrees>39.61422630585730075836181640625</LatitudeDegrees>
              <LongitudeDegrees>-8.14251895062625408172607421875</LongitudeDegrees>
            </Position>
            <AltitudeMeters>159.1999969482421875</AltitudeMeters>
            <DistanceMeters>33144.659146675</DistanceMeters>
          </Trackpoint>
          <Trackpoint>
            <Time>2018-09-13T09:06:06.000Z</Time>
            <Position>
              <LatitudeDegrees>39.61407258175313472747802734375</LatitudeDegrees>
              <LongitudeDegrees>-8.1425067968666553497314453125</LongitudeDegrees>
            </Position>
            <AltitudeMeters>158.399993896484375</AltitudeMeters>
            <DistanceMeters>33161.800606864</DistanceMeters>
          </Trackpoint>
          <Trackpoint>
            <Time>2018-09-13T09:06:07.000Z</Time>
            <Position>
              <LatitudeDegrees>39.61391969583928585052490234375</LatitudeDegrees>
              <LongitudeDegrees>-8.14249430783092975616455078125</LongitudeDegrees>
            </Position>
            <AltitudeMeters>157.8000030517578125</AltitudeMeters>
            <DistanceMeters>33178.850687538</DistanceMeters>
          </Trackpoint>
          <Trackpoint>
            <Time>2018-09-13T09:06:08.000Z</Time>
            <Position>
              <LatitudeDegrees>39.6137680672109127044677734375</LatitudeDegrees>
              <LongitudeDegrees>-8.1424813158810138702392578125</LongitudeDegrees>
            </Position>
            <AltitudeMeters>157.399993896484375</AltitudeMeters>
            <DistanceMeters>33195.763841046</DistanceMeters>
          </Trackpoint>
          <Trackpoint>
            <Time>2018-09-13T09:06:09.000Z</Time>
            <Position>
              <LatitudeDegrees>39.61361777968704700469970703125</LatitudeDegrees>
              <LongitudeDegrees>-8.1424679048359394073486328125</LongitudeDegrees>
            </Position>
            <AltitudeMeters>158.8000030517578125</AltitudeMeters>
            <DistanceMeters>33212.530603997</DistanceMeters>
          </Trackpoint>
          <Trackpoint>
            <Time>2018-09-13T09:06:10.000Z</Time>
            <Position>
              <LatitudeDegrees>39.613469503819942474365234375</LatitudeDegrees>
              <LongitudeDegrees>-8.14245474524796009063720703125</LongitudeDegrees>
            </Position>
            <AltitudeMeters>161.1999969482421875</AltitudeMeters>
            <DistanceMeters>33229.072896358</DistanceMeters>
          </Trackpoint>
          <Trackpoint>
            <Time>2018-09-13T09:06:11.000Z</Time>
            <Position>
              <LatitudeDegrees>39.6133228205144405364990234375</LatitudeDegrees>
              <LongitudeDegrees>-8.14244284294545650482177734375</LongitudeDegrees>
            </Position>
            <AltitudeMeters>163.399993896484375</AltitudeMeters>
            <DistanceMeters>33245.430745397</DistanceMeters>
          </Trackpoint>
          <Trackpoint>
            <Time>2018-09-13T09:06:13.000Z</Time>
            <Position>
              <LatitudeDegrees>39.6130348183214664459228515625</LatitudeDegrees>
              <LongitudeDegrees>-8.14242976717650890350341796875</LongitudeDegrees>
            </Position>
            <AltitudeMeters>168</AltitudeMeters>
            <DistanceMeters>33277.505464089</DistanceMeters>
          </Trackpoint>
          <Trackpoint>
            <Time>2018-09-13T09:06:14.000Z</Time>
            <Position>
              <LatitudeDegrees>39.6128946729004383087158203125</LatitudeDegrees>
              <LongitudeDegrees>-8.14243211410939693450927734375</LongitudeDegrees>
            </Position>
            <AltitudeMeters>173.1999969482421875</AltitudeMeters>
            <DistanceMeters>33293.105482043</DistanceMeters>
          </Trackpoint>
          <Trackpoint>
            <Time>2018-09-13T09:06:16.000Z</Time>
            <Position>
              <LatitudeDegrees>39.6126237697899341583251953125</LatitudeDegrees>
              <LongitudeDegrees>-8.14245608635246753692626953125</LongitudeDegrees>
            </Position>
            <AltitudeMeters>178</AltitudeMeters>
            <DistanceMeters>33323.327413518</DistanceMeters>
          </Trackpoint>
          <Trackpoint>
            <Time>2018-09-13T09:06:20.000Z</Time>
            <Position>
              <LatitudeDegrees>39.6121309138834476470947265625</LatitudeDegrees>
              <LongitudeDegrees>-8.14255784265697002410888671875</LongitudeDegrees>
            </Position>
            <AltitudeMeters>183.399993896484375</AltitudeMeters>
            <DistanceMeters>33378.872621217</DistanceMeters>
          </Trackpoint>
          <Trackpoint>
            <Time>2018-09-13T09:06:22.000Z</Time>
            <Position>
              <LatitudeDegrees>39.611913152039051055908203125</LatitudeDegrees>
              <LongitudeDegrees>-8.1426179409027099609375</LongitudeDegrees>
            </Position>
            <AltitudeMeters>184</AltitudeMeters>
            <DistanceMeters>33403.65182778</DistanceMeters>
          </Trackpoint>
          <Trackpoint>
            <Time>2018-09-13T09:06:28.000Z</Time>
            <Position>
              <LatitudeDegrees>39.611339829862117767333984375</LatitudeDegrees>
              <LongitudeDegrees>-8.1427012570202350616455078125</LongitudeDegrees>
            </Position>
            <AltitudeMeters>184.1999969482421875</AltitudeMeters>
            <DistanceMeters>33467.862398975</DistanceMeters>
          </Trackpoint>
          <Trackpoint>
            <Time>2018-09-13T09:06:31.000Z</Time>
            <Position>
              <LatitudeDegrees>39.6110920608043670654296875</LatitudeDegrees>
              <LongitudeDegrees>-8.14267451874911785125732421875</LongitudeDegrees>
            </Position>
            <AltitudeMeters>185</AltitudeMeters>
            <DistanceMeters>33495.534922217</DistanceMeters>
          </Trackpoint>
          <Trackpoint>
            <Time>2018-09-13T09:06:33.000Z</Time>
            <Position>
              <LatitudeDegrees>39.61094127036631107330322265625</LatitudeDegrees>
              <LongitudeDegrees>-8.14265272580087184906005859375</LongitudeDegrees>
            </Position>
            <AltitudeMeters>184</AltitudeMeters>
            <DistanceMeters>33512.421893944</DistanceMeters>
          </Trackpoint>
          <Trackpoint>
            <Time>2018-09-13T09:06:35.000Z</Time>
            <Position>
              <LatitudeDegrees>39.610798694193363189697265625</LatitudeDegrees>
              <LongitudeDegrees>-8.1426221318542957305908203125</LongitudeDegrees>
            </Position>
            <AltitudeMeters>183.1999969482421875</AltitudeMeters>
            <DistanceMeters>33528.506130328</DistanceMeters>
          </Trackpoint>
          <Trackpoint>
            <Time>2018-09-13T09:06:37.000Z</Time>
            <Position>
              <LatitudeDegrees>39.6106654219329357147216796875</LatitudeDegrees>
              <LongitudeDegrees>-8.14258969388902187347412109375</LongitudeDegrees>
            </Position>
            <AltitudeMeters>183</AltitudeMeters>
            <DistanceMeters>33543.59833521</DistanceMeters>
          </Trackpoint>
          <Trackpoint>
            <Time>2018-09-13T09:06:40.000Z</Time>
            <Position>
              <LatitudeDegrees>39.61048026569187641143798828125</LatitudeDegrees>
              <LongitudeDegrees>-8.14254711382091045379638671875</LongitudeDegrees>
            </Position>
            <AltitudeMeters>183.8000030517578125</AltitudeMeters>
            <DistanceMeters>33564.527524114</DistanceMeters>
          </Trackpoint>
          <Trackpoint>
            <Time>2018-09-13T09:06:43.000Z</Time>
            <Position>
              <LatitudeDegrees>39.6103143878281116485595703125</LatitudeDegrees>
              <LongitudeDegrees>-8.1425088085234165191650390625</LongitudeDegrees>
            </Position>
            <AltitudeMeters>183.399993896484375</AltitudeMeters>
            <DistanceMeters>33583.279836954</DistanceMeters>
          </Trackpoint>
          <Trackpoint>
            <Time>2018-09-13T09:06:47.000Z</Time>
            <Position>
              <LatitudeDegrees>39.6101264655590057373046875</LatitudeDegrees>
              <LongitudeDegrees>-8.14248156733810901641845703125</LongitudeDegrees>
            </Position>
            <AltitudeMeters>184.399993896484375</AltitudeMeters>
            <DistanceMeters>33604.325840842</DistanceMeters>
          </Trackpoint>
          <Trackpoint>
            <Time>2018-09-13T09:06:50.000Z</Time>
            <Position>
              <LatitudeDegrees>39.61000467650592327117919921875</LatitudeDegrees>
              <LongitudeDegrees>-8.1424658931791782379150390625</LongitudeDegrees>
            </Position>
            <AltitudeMeters>184.8000030517578125</AltitudeMeters>
            <DistanceMeters>33617.947515144</DistanceMeters>
          </Trackpoint>
          <Trackpoint>
            <Time>2018-09-13T09:06:52.000Z</Time>
            <Position>
              <LatitudeDegrees>39.6099264733493328094482421875</LatitudeDegrees>
              <LongitudeDegrees>-8.14246010966598987579345703125</LongitudeDegrees>
            </Position>
            <AltitudeMeters>185</AltitudeMeters>
            <DistanceMeters>33626.665148042</DistanceMeters>
          </Trackpoint>
          <Trackpoint>
            <Time>2018-09-13T09:06:53.000Z</Time>
            <Position>
              <LatitudeDegrees>39.60988841950893402099609375</LatitudeDegrees>
              <LongitudeDegrees>-8.1424591876566410064697265625</LongitudeDegrees>
            </Position>
            <AltitudeMeters>185.1999969482421875</AltitudeMeters>
            <DistanceMeters>33630.902103549</DistanceMeters>
          </Trackpoint>
          <Trackpoint>
            <Time>2018-09-13T09:06:55.000Z</Time>
            <Position>
              <LatitudeDegrees>39.6098141558468341827392578125</LatitudeDegrees>
              <LongitudeDegrees>-8.14245642162859439849853515625</LongitudeDegrees>
            </Position>
            <AltitudeMeters>185.1999969482421875</AltitudeMeters>
            <DistanceMeters>33639.171065929</DistanceMeters>
          </Trackpoint>
          <Trackpoint>
            <Time>2018-09-13T09:06:58.000Z</Time>
            <Position>
              <LatitudeDegrees>39.609705023467540740966796875</LatitudeDegrees>
              <LongitudeDegrees>-8.14245633780956268310546875</LongitudeDegrees>
            </Position>
            <AltitudeMeters>185.1999969482421875</AltitudeMeters>
            <DistanceMeters>33651.317769968</DistanceMeters>
          </Trackpoint>
          <Trackpoint>
            <Time>2018-09-13T09:07:02.000Z</Time>
            <Position>
              <LatitudeDegrees>39.6095586754381656646728515625</LatitudeDegrees>
              <LongitudeDegrees>-8.14246631227433681488037109375</LongitudeDegrees>
            </Position>
            <AltitudeMeters>182.399993896484375</AltitudeMeters>
            <DistanceMeters>33667.629182303</DistanceMeters>
          </Trackpoint>
          <Trackpoint>
            <Time>2018-09-13T09:07:04.000Z</Time>
            <Position>
              <LatitudeDegrees>39.6094889380037784576416015625</LatitudeDegrees>
              <LongitudeDegrees>-8.14247368834912776947021484375</LongitudeDegrees>
            </Position>
            <AltitudeMeters>182</AltitudeMeters>
            <DistanceMeters>33675.416736052</DistanceMeters>
          </Trackpoint>
          <Trackpoint>
            <Time>2018-09-13T09:07:06.000Z</Time>
            <Position>
              <LatitudeDegrees>39.60941961966454982757568359375</LatitudeDegrees>
              <LongitudeDegrees>-8.1424880214035511016845703125</LongitudeDegrees>
            </Position>
            <AltitudeMeters>183.600006103515625</AltitudeMeters>
            <DistanceMeters>33683.228602449</DistanceMeters>
          </Trackpoint>
          <Trackpoint>
            <Time>2018-09-13T09:07:11.000Z</Time>
            <Position>
              <LatitudeDegrees>39.60925147868692874908447265625</LatitudeDegrees>
              <LongitudeDegrees>-8.142517693340778350830078125</LongitudeDegrees>
            </Position>
            <AltitudeMeters>187.600006103515625</AltitudeMeters>
            <DistanceMeters>33702.115266519</DistanceMeters>
          </Trackpoint>
          <Trackpoint>
            <Time>2018-09-13T09:07:15.000Z</Time>
            <Position>
              <LatitudeDegrees>39.60912843234837055206298828125</LatitudeDegrees>
              <LongitudeDegrees>-8.14254208467900753021240234375</LongitudeDegrees>
            </Position>
            <AltitudeMeters>190.399993896484375</AltitudeMeters>
            <DistanceMeters>33715.968975219</DistanceMeters>
          </Trackpoint>
          <Trackpoint>
            <Time>2018-09-13T09:07:20.000Z</Time>
            <Position>
              <LatitudeDegrees>39.60897889919579029083251953125</LatitudeDegrees>
              <LongitudeDegrees>-8.14258064143359661102294921875</LongitudeDegrees>
            </Position>
            <AltitudeMeters>193.8000030517578125</AltitudeMeters>
            <DistanceMeters>33732.937564362</DistanceMeters>
          </Trackpoint>
          <Trackpoint>
            <Time>2018-09-13T09:07:25.000Z</Time>
            <Position>
              <LatitudeDegrees>39.6088331378996372222900390625</LatitudeDegrees>
              <LongitudeDegrees>-8.1426258198916912078857421875</LongitudeDegrees>
            </Position>
            <AltitudeMeters>196.8000030517578125</AltitudeMeters>
            <DistanceMeters>33749.617392156</DistanceMeters>
          </Trackpoint>
          <Trackpoint>
            <Time>2018-09-13T09:07:30.000Z</Time>
            <Position>
              <LatitudeDegrees>39.60869215428829193115234375</LatitudeDegrees>
              <LongitudeDegrees>-8.1426757760345935821533203125</LongitudeDegrees>
            </Position>
            <AltitudeMeters>199.1999969482421875</AltitudeMeters>
            <DistanceMeters>33765.883345549</DistanceMeters>
          </Trackpoint>
          <Trackpoint>
            <Time>2018-09-13T09:07:34.000Z</Time>
            <Position>
              <LatitudeDegrees>39.60858025588095188140869140625</LatitudeDegrees>
              <LongitudeDegrees>-8.14271441660821437835693359375</LongitudeDegrees>
            </Position>
            <AltitudeMeters>200</AltitudeMeters>
            <DistanceMeters>33778.771294421</DistanceMeters>
          </Trackpoint>
          <Trackpoint>
            <Time>2018-09-13T09:07:40.000Z</Time>
            <Position>
              <LatitudeDegrees>39.608412869274616241455078125</LatitudeDegrees>
              <LongitudeDegrees>-8.14276353456079959869384765625</LongitudeDegrees>
            </Position>
            <AltitudeMeters>202.399993896484375</AltitudeMeters>
            <DistanceMeters>33797.872136773</DistanceMeters>
          </Trackpoint>
          <Trackpoint>
            <Time>2018-09-13T09:07:46.000Z</Time>
            <Position>
              <LatitudeDegrees>39.60824581794440746307373046875</LatitudeDegrees>
              <LongitudeDegrees>-8.1428216211497783660888671875</LongitudeDegrees>
            </Position>
            <AltitudeMeters>204.399993896484375</AltitudeMeters>
            <DistanceMeters>33817.120852745</DistanceMeters>
          </Trackpoint>
          <Trackpoint>
            <Time>2018-09-13T09:07:52.000Z</Time>
            <Position>
              <LatitudeDegrees>39.6080807782709598541259765625</LatitudeDegrees>
              <LongitudeDegrees>-8.142873086035251617431640625</LongitudeDegrees>
            </Position>
            <AltitudeMeters>206.399993896484375</AltitudeMeters>
            <DistanceMeters>33836.012775394</DistanceMeters>
          </Trackpoint>
          <Trackpoint>
            <Time>2018-09-13T09:07:58.000Z</Time>
            <Position>
              <LatitudeDegrees>39.60791540332138538360595703125</LatitudeDegrees>
              <LongitudeDegrees>-8.14292530529201030731201171875</LongitudeDegrees>
            </Position>
            <AltitudeMeters>208.600006103515625</AltitudeMeters>
            <DistanceMeters>33854.956250204</DistanceMeters>
          </Trackpoint>
          <Trackpoint>
            <Time>2018-09-13T09:08:05.000Z</Time>
            <Position>
              <LatitudeDegrees>39.6077258884906768798828125</LatitudeDegrees>
              <LongitudeDegrees>-8.14296922646462917327880859375</LongitudeDegrees>
            </Position>
            <AltitudeMeters>209.8000030517578125</AltitudeMeters>
            <DistanceMeters>33876.383246649</DistanceMeters>
          </Trackpoint>
          <Trackpoint>
            <Time>2018-09-13T09:08:10.000Z</Time>
            <Position>
              <LatitudeDegrees>39.6075949631631374359130859375</LatitudeDegrees>
              <LongitudeDegrees>-8.1429989822208881378173828125</LongitudeDegrees>
            </Position>
            <AltitudeMeters>210</AltitudeMeters>
            <DistanceMeters>33891.177535846</DistanceMeters>
          </Trackpoint>
          <Trackpoint>
            <Time>2018-09-13T09:08:17.000Z</Time>
            <Position>
              <LatitudeDegrees>39.60741986520588397979736328125</LatitudeDegrees>
              <LongitudeDegrees>-8.143040724098682403564453125</LongitudeDegrees>
            </Position>
            <AltitudeMeters>210</AltitudeMeters>
            <DistanceMeters>33910.992371797</DistanceMeters>
          </Trackpoint>
          <Trackpoint>
            <Time>2018-09-13T09:08:22.000Z</Time>
            <Position>
              <LatitudeDegrees>39.60728935897350311279296875</LatitudeDegrees>
              <LongitudeDegrees>-8.143065869808197021484375</LongitudeDegrees>
            </Position>
            <AltitudeMeters>210.600006103515625</AltitudeMeters>
            <DistanceMeters>33925.677304741</DistanceMeters>
          </Trackpoint>
          <Trackpoint>
            <Time>2018-09-13T09:08:28.000Z</Time>
            <Position>
              <LatitudeDegrees>39.60712842643260955810546875</LatitudeDegrees>
              <LongitudeDegrees>-8.143087662756443023681640625</LongitudeDegrees>
            </Position>
            <AltitudeMeters>211.600006103515625</AltitudeMeters>
            <DistanceMeters>33943.686810168</DistanceMeters>
          </Trackpoint>
          <Trackpoint>
            <Time>2018-09-13T09:08:33.000Z</Time>
            <Position>
              <LatitudeDegrees>39.60699699819087982177734375</LatitudeDegrees>
              <LongitudeDegrees>-8.1431029178202152252197265625</LongitudeDegrees>
            </Position>
            <AltitudeMeters>212.600006103515625</AltitudeMeters>
            <DistanceMeters>33958.373280334</DistanceMeters>
          </Trackpoint>
          <Trackpoint>
            <Time>2018-09-13T09:08:38.000Z</Time>
            <Position>
              <LatitudeDegrees>39.6068650670349597930908203125</LatitudeDegrees>
              <LongitudeDegrees>-8.14310719259083271026611328125</LongitudeDegrees>
            </Position>
            <AltitudeMeters>214.600006103515625</AltitudeMeters>
            <DistanceMeters>33973.062209721</DistanceMeters>
          </Trackpoint>
          <Trackpoint>
            <Time>2018-09-13T09:08:43.000Z</Time>
            <Position>
              <LatitudeDegrees>39.606734476983547210693359375</LatitudeDegrees>
              <LongitudeDegrees>-8.143104426562786102294921875</LongitudeDegrees>
            </Position>
            <AltitudeMeters>216.600006103515625</AltitudeMeters>
            <DistanceMeters>33987.599123044</DistanceMeters>
          </Trackpoint>
          <Trackpoint>
            <Time>2018-09-13T09:08:48.000Z</Time>
            <Position>
              <LatitudeDegrees>39.6066028811037540435791015625</LatitudeDegrees>
              <LongitudeDegrees>-8.14309797249734401702880859375</LongitudeDegrees>
            </Position>
            <AltitudeMeters>219</AltitudeMeters>
            <DistanceMeters>34002.256666452</DistanceMeters>
          </Trackpoint>
          <Trackpoint>
            <Time>2018-09-13T09:08:54.000Z</Time>
            <Position>
              <LatitudeDegrees>39.606444127857685089111328125</LatitudeDegrees>
              <LongitudeDegrees>-8.14307986758649349212646484375</LongitudeDegrees>
            </Position>
            <AltitudeMeters>220.399993896484375</AltitudeMeters>
            <DistanceMeters>34019.994364258</DistanceMeters>
          </Trackpoint>
          <Trackpoint>
            <Time>2018-09-13T09:09:00.000Z</Time>
            <Position>
              <LatitudeDegrees>39.60629618726670742034912109375</LatitudeDegrees>
              <LongitudeDegrees>-8.1430583260953426361083984375</LongitudeDegrees>
            </Position>
            <AltitudeMeters>220.600006103515625</AltitudeMeters>
            <DistanceMeters>34036.563928048</DistanceMeters>
          </Trackpoint>
          <Trackpoint>
            <Time>2018-09-13T09:09:06.000Z</Time>
            <Position>
              <LatitudeDegrees>39.606155455112457275390625</LatitudeDegrees>
              <LongitudeDegrees>-8.14302789978682994842529296875</LongitudeDegrees>
            </Position>
            <AltitudeMeters>221.1999969482421875</AltitudeMeters>
            <DistanceMeters>34052.443344115</DistanceMeters>
          </Trackpoint>
          <Trackpoint>
            <Time>2018-09-13T09:09:10.000Z</Time>
            <Position>
              <LatitudeDegrees>39.60606216453015804290771484375</LatitudeDegrees>
              <LongitudeDegrees>-8.14300795085728168487548828125</LongitudeDegrees>
            </Position>
            <AltitudeMeters>222.1999969482421875</AltitudeMeters>
            <DistanceMeters>34062.966453324</DistanceMeters>
          </Trackpoint>
          <Trackpoint>
            <Time>2018-09-13T09:09:15.000Z</Time>
            <Position>
              <LatitudeDegrees>39.60594716481864452362060546875</LatitudeDegrees>
              <LongitudeDegrees>-8.1429768539965152740478515625</LongitudeDegrees>
            </Position>
            <AltitudeMeters>223.8000030517578125</AltitudeMeters>
            <DistanceMeters>34076.040830827</DistanceMeters>
          </Trackpoint>
          <Trackpoint>
            <Time>2018-09-13T09:09:22.000Z</Time>
            <Position>
              <LatitudeDegrees>39.60578472353518009185791015625</LatitudeDegrees>
              <LongitudeDegrees>-8.1429272331297397613525390625</LongitudeDegrees>
            </Position>
            <AltitudeMeters>225.1999969482421875</AltitudeMeters>
            <DistanceMeters>34094.614603746</DistanceMeters>
          </Trackpoint>
          <Trackpoint>
            <Time>2018-09-13T09:09:27.000Z</Time>
            <Position>
              <LatitudeDegrees>39.605667628347873687744140625</LatitudeDegrees>
              <LongitudeDegrees>-8.14288817346096038818359375</LongitudeDegrees>
            </Position>
            <AltitudeMeters>225.399993896484375</AltitudeMeters>
            <DistanceMeters>34108.070869679</DistanceMeters>
          </Trackpoint>
          <Trackpoint>
            <Time>2018-09-13T09:09:33.000Z</Time>
            <Position>
              <LatitudeDegrees>39.60553142242133617401123046875</LatitudeDegrees>
              <LongitudeDegrees>-8.142832182347774505615234375</LongitudeDegrees>
            </Position>
            <AltitudeMeters>225.600006103515625</AltitudeMeters>
            <DistanceMeters>34123.973016098</DistanceMeters>
          </Trackpoint>
          <Trackpoint>
            <Time>2018-09-13T09:09:40.000Z</Time>
            <Position>
              <LatitudeDegrees>39.60537367500364780426025390625</LatitudeDegrees>
              <LongitudeDegrees>-8.14276101998984813690185546875</LongitudeDegrees>
            </Position>
            <AltitudeMeters>226</AltitudeMeters>
            <DistanceMeters>34142.560882703</DistanceMeters>
          </Trackpoint>
          <Trackpoint>
            <Time>2018-09-13T09:09:45.000Z</Time>
            <Position>
              <LatitudeDegrees>39.60526018403470516204833984375</LatitudeDegrees>
              <LongitudeDegrees>-8.142702095210552215576171875</LongitudeDegrees>
            </Position>
            <AltitudeMeters>228.600006103515625</AltitudeMeters>
            <DistanceMeters>34156.165973917</DistanceMeters>
          </Trackpoint>
          <Trackpoint>
            <Time>2018-09-13T09:09:49.000Z</Time>
            <Position>
              <LatitudeDegrees>39.60517183877527713775634765625</LatitudeDegrees>
              <LongitudeDegrees>-8.1426526419818401336669921875</LongitudeDegrees>
            </Position>
            <AltitudeMeters>228.399993896484375</AltitudeMeters>
            <DistanceMeters>34166.87494076</DistanceMeters>
          </Trackpoint>
          <Trackpoint>
            <Time>2018-09-13T09:09:53.000Z</Time>
            <Position>
              <LatitudeDegrees>39.60508324205875396728515625</LatitudeDegrees>
              <LongitudeDegrees>-8.14260494895279407501220703125</LongitudeDegrees>
            </Position>
            <AltitudeMeters>228</AltitudeMeters>
            <DistanceMeters>34177.550971149</DistanceMeters>
          </Trackpoint>
          <Trackpoint>
            <Time>2018-09-13T09:09:58.000Z</Time>
            <Position>
              <LatitudeDegrees>39.60497268475592136383056640625</LatitudeDegrees>
              <LongitudeDegrees>-8.1425426714122295379638671875</LongitudeDegrees>
            </Position>
            <AltitudeMeters>229.600006103515625</AltitudeMeters>
            <DistanceMeters>34190.965566311</DistanceMeters>
          </Trackpoint>
          <Trackpoint>
            <Time>2018-09-13T09:10:04.000Z</Time>
            <Position>
              <LatitudeDegrees>39.60484184324741363525390625</LatitudeDegrees>
              <LongitudeDegrees>-8.14246128313243389129638671875</LongitudeDegrees>
            </Position>
            <AltitudeMeters>231.600006103515625</AltitudeMeters>
            <DistanceMeters>34207.11451698</DistanceMeters>
          </Trackpoint>
          <Trackpoint>
            <Time>2018-09-13T09:10:11.000Z</Time>
            <Position>
              <LatitudeDegrees>39.60469038225710391998291015625</LatitudeDegrees>
              <LongitudeDegrees>-8.1423617899417877197265625</LongitudeDegrees>
            </Position>
            <AltitudeMeters>233.399993896484375</AltitudeMeters>
            <DistanceMeters>34226.008829408</DistanceMeters>
          </Trackpoint>
          <Trackpoint>
            <Time>2018-09-13T09:10:15.000Z</Time>
            <Position>
              <LatitudeDegrees>39.604605138301849365234375</LatitudeDegrees>
              <LongitudeDegrees>-8.14230437390506267547607421875</LongitudeDegrees>
            </Position>
            <AltitudeMeters>233.600006103515625</AltitudeMeters>
            <DistanceMeters>34236.698384466</DistanceMeters>
          </Trackpoint>
          <Trackpoint>
            <Time>2018-09-13T09:10:20.000Z</Time>
            <Position>
              <LatitudeDegrees>39.6045005321502685546875</LatitudeDegrees>
              <LongitudeDegrees>-8.14223178662359714508056640625</LongitudeDegrees>
            </Position>
            <AltitudeMeters>234.399993896484375</AltitudeMeters>
            <DistanceMeters>34249.900943521</DistanceMeters>
          </Trackpoint>
          <Trackpoint>
            <Time>2018-09-13T09:10:25.000Z</Time>
            <Position>
              <LatitudeDegrees>39.60439483635127544403076171875</LatitudeDegrees>
              <LongitudeDegrees>-8.1421611271798610687255859375</LongitudeDegrees>
            </Position>
            <AltitudeMeters>238</AltitudeMeters>
            <DistanceMeters>34263.133903975</DistanceMeters>
          </Trackpoint>
          <Trackpoint>
            <Time>2018-09-13T09:10:30.000Z</Time>
            <Position>
              <LatitudeDegrees>39.60428486578166484832763671875</LatitudeDegrees>
              <LongitudeDegrees>-8.1420903839170932769775390625</LongitudeDegrees>
            </Position>
            <AltitudeMeters>241.8000030517578125</AltitudeMeters>
            <DistanceMeters>34276.794634549</DistanceMeters>
          </Trackpoint>
          <Trackpoint>
            <Time>2018-09-13T09:10:36.000Z</Time>
            <Position>
              <LatitudeDegrees>39.604154862463474273681640625</LatitudeDegrees>
              <LongitudeDegrees>-8.14199902117252349853515625</LongitudeDegrees>
            </Position>
            <AltitudeMeters>244.1999969482421875</AltitudeMeters>
            <DistanceMeters>34293.249354604</DistanceMeters>
          </Trackpoint>
          <Trackpoint>
            <Time>2018-09-13T09:10:42.000Z</Time>
            <Position>
              <LatitudeDegrees>39.60401949472725391387939453125</LatitudeDegrees>
              <LongitudeDegrees>-8.141916878521442413330078125</LongitudeDegrees>
            </Position>
            <AltitudeMeters>245.399993896484375</AltitudeMeters>
            <DistanceMeters>34309.881472983</DistanceMeters>
          </Trackpoint>
          <Trackpoint>
            <Time>2018-09-13T09:10:49.000Z</Time>
            <Position>
              <LatitudeDegrees>39.60386593826115131378173828125</LatitudeDegrees>
              <LongitudeDegrees>-8.14181503839790821075439453125</LongitudeDegrees>
            </Position>
            <AltitudeMeters>247</AltitudeMeters>
            <DistanceMeters>34329.07428175</DistanceMeters>
          </Trackpoint>
          <Trackpoint>
            <Time>2018-09-13T09:10:55.000Z</Time>
            <Position>
              <LatitudeDegrees>39.603738449513912200927734375</LatitudeDegrees>
              <LongitudeDegrees>-8.14172141253948211669921875</LongitudeDegrees>
            </Position>
            <AltitudeMeters>248.8000030517578125</AltitudeMeters>
            <DistanceMeters>34345.377941775</DistanceMeters>
          </Trackpoint>
          <Trackpoint>
            <Time>2018-09-13T09:11:00.000Z</Time>
            <Position>
              <LatitudeDegrees>39.60363275371491909027099609375</LatitudeDegrees>
              <LongitudeDegrees>-8.14164672978222370147705078125</LongitudeDegrees>
            </Position>
            <AltitudeMeters>249.8000030517578125</AltitudeMeters>
            <DistanceMeters>34358.772327121</DistanceMeters>
          </Trackpoint>
          <Trackpoint>
            <Time>2018-09-13T09:11:06.000Z</Time>
            <Position>
              <LatitudeDegrees>39.6035056002438068389892578125</LatitudeDegrees>
              <LongitudeDegrees>-8.1415566243231296539306640625</LongitudeDegrees>
            </Position>
            <AltitudeMeters>252</AltitudeMeters>
            <DistanceMeters>34374.896655354</DistanceMeters>
          </Trackpoint>
          <Trackpoint>
            <Time>2018-09-13T09:11:11.000Z</Time>
            <Position>
              <LatitudeDegrees>39.603398144245147705078125</LatitudeDegrees>
              <LongitudeDegrees>-8.14148512668907642364501953125</LongitudeDegrees>
            </Position>
            <AltitudeMeters>253.8000030517578125</AltitudeMeters>
            <DistanceMeters>34388.336805993</DistanceMeters>
          </Trackpoint>
          <Trackpoint>
            <Time>2018-09-13T09:11:16.000Z</Time>
            <Position>
              <LatitudeDegrees>39.60329110734164714813232421875</LatitudeDegrees>
              <LongitudeDegrees>-8.1414067558944225311279296875</LongitudeDegrees>
            </Position>
            <AltitudeMeters>255.600006103515625</AltitudeMeters>
            <DistanceMeters>34402.015372581</DistanceMeters>
          </Trackpoint>
          <Trackpoint>
            <Time>2018-09-13T09:11:22.000Z</Time>
            <Position>
              <LatitudeDegrees>39.60316102020442485809326171875</LatitudeDegrees>
              <LongitudeDegrees>-8.1413189135491847991943359375</LongitudeDegrees>
            </Position>
            <AltitudeMeters>256.20001220703125</AltitudeMeters>
            <DistanceMeters>34418.33674676</DistanceMeters>
          </Trackpoint>
          <Trackpoint>
            <Time>2018-09-13T09:11:29.000Z</Time>
            <Position>
              <LatitudeDegrees>39.6030144207179546356201171875</LatitudeDegrees>
              <LongitudeDegrees>-8.1412156485021114349365234375</LongitudeDegrees>
            </Position>
            <AltitudeMeters>256</AltitudeMeters>
            <DistanceMeters>34436.901766494</DistanceMeters>
          </Trackpoint>
          <Trackpoint>
            <Time>2018-09-13T09:11:32.000Z</Time>
            <Position>
              <LatitudeDegrees>39.602950550615787506103515625</LatitudeDegrees>
              <LongitudeDegrees>-8.14117365516722202301025390625</LongitudeDegrees>
            </Position>
            <AltitudeMeters>256</AltitudeMeters>
            <DistanceMeters>34444.870990273</DistanceMeters>
          </Trackpoint>
          <Trackpoint>
            <Time>2018-09-13T09:11:38.000Z</Time>
            <Position>
              <LatitudeDegrees>39.60282557643949985504150390625</LatitudeDegrees>
              <LongitudeDegrees>-8.1410842202603816986083984375</LongitudeDegrees>
            </Position>
            <AltitudeMeters>255.8000030517578125</AltitudeMeters>
            <DistanceMeters>34460.754955012</DistanceMeters>
          </Trackpoint>
          <Trackpoint>
            <Time>2018-09-13T09:11:44.000Z</Time>
            <Position>
              <LatitudeDegrees>39.602697752416133880615234375</LatitudeDegrees>
              <LongitudeDegrees>-8.14099721610546112060546875</LongitudeDegrees>
            </Position>
            <AltitudeMeters>257</AltitudeMeters>
            <DistanceMeters>34476.819529538</DistanceMeters>
          </Trackpoint>
          <Trackpoint>
            <Time>2018-09-13T09:11:50.000Z</Time>
            <Position>
              <LatitudeDegrees>39.60256674326956272125244140625</LatitudeDegrees>
              <LongitudeDegrees>-8.14090467989444732666015625</LongitudeDegrees>
            </Position>
            <AltitudeMeters>259</AltitudeMeters>
            <DistanceMeters>34493.420672061</DistanceMeters>
          </Trackpoint>
          <Trackpoint>
            <Time>2018-09-13T09:11:56.000Z</Time>
            <Position>
              <LatitudeDegrees>39.60243648849427700042724609375</LatitudeDegrees>
              <LongitudeDegrees>-8.1408193521201610565185546875</LongitudeDegrees>
            </Position>
            <AltitudeMeters>262</AltitudeMeters>
            <DistanceMeters>34509.66051235</DistanceMeters>
          </Trackpoint>
          <Trackpoint>
            <Time>2018-09-13T09:12:01.000Z</Time>
            <Position>
              <LatitudeDegrees>39.60232869721949100494384765625</LatitudeDegrees>
              <LongitudeDegrees>-8.140744082629680633544921875</LongitudeDegrees>
            </Position>
            <AltitudeMeters>264.399993896484375</AltitudeMeters>
            <DistanceMeters>34523.28384385</DistanceMeters>
          </Trackpoint>
          <Trackpoint>
            <Time>2018-09-13T09:12:07.000Z</Time>
            <Position>
              <LatitudeDegrees>39.60219793953001499176025390625</LatitudeDegrees>
              <LongitudeDegrees>-8.14064919948577880859375</LongitudeDegrees>
            </Position>
            <AltitudeMeters>265.79998779296875</AltitudeMeters>
            <DistanceMeters>34539.957715433</DistanceMeters>
          </Trackpoint>
          <Trackpoint>
            <Time>2018-09-13T09:12:12.000Z</Time>
            <Position>
              <LatitudeDegrees>39.60208453238010406494140625</LatitudeDegrees>
              <LongitudeDegrees>-8.14057870768010616302490234375</LongitudeDegrees>
            </Position>
            <AltitudeMeters>265.600006103515625</AltitudeMeters>
            <DistanceMeters>34553.953121398</DistanceMeters>
          </Trackpoint>
          <Trackpoint>
            <Time>2018-09-13T09:12:18.000Z</Time>
            <Position>
              <LatitudeDegrees>39.60195000283420085906982421875</LatitudeDegrees>
              <LongitudeDegrees>-8.14048902131617069244384765625</LongitudeDegrees>
            </Position>
            <AltitudeMeters>266.20001220703125</AltitudeMeters>
            <DistanceMeters>34570.786266343</DistanceMeters>
          </Trackpoint>
          <Trackpoint>
            <Time>2018-09-13T09:12:24.000Z</Time>
            <Position>
              <LatitudeDegrees>39.60180901922285556793212890625</LatitudeDegrees>
              <LongitudeDegrees>-8.14041660167276859283447265625</LongitudeDegrees>
            </Position>
            <AltitudeMeters>267.79998779296875</AltitudeMeters>
            <DistanceMeters>34587.662272416</DistanceMeters>
          </Trackpoint>
          <Trackpoint>
            <Time>2018-09-13T09:12:30.000Z</Time>
            <Position>
              <LatitudeDegrees>39.6016669459640979766845703125</LatitudeDegrees>
              <LongitudeDegrees>-8.14035038463771343231201171875</LongitudeDegrees>
            </Position>
            <AltitudeMeters>268.600006103515625</AltitudeMeters>
            <DistanceMeters>34604.464005951</DistanceMeters>
          </Trackpoint>
          <Trackpoint>
            <Time>2018-09-13T09:12:36.000Z</Time>
            <Position>
              <LatitudeDegrees>39.601521603763103485107421875</LatitudeDegrees>
              <LongitudeDegrees>-8.1402911245822906494140625</LongitudeDegrees>
            </Position>
            <AltitudeMeters>268.600006103515625</AltitudeMeters>
            <DistanceMeters>34621.420350899</DistanceMeters>
          </Trackpoint>
          <Trackpoint>
            <Time>2018-09-13T09:12:41.000Z</Time>
            <Position>
              <LatitudeDegrees>39.6013963781297206878662109375</LatitudeDegrees>
              <LongitudeDegrees>-8.14024846069514751434326171875</LongitudeDegrees>
            </Position>
            <AltitudeMeters>268.79998779296875</AltitudeMeters>
            <DistanceMeters>34635.830299123</DistanceMeters>
          </Trackpoint>
          <Trackpoint>
            <Time>2018-09-13T09:12:46.000Z</Time>
            <Position>
              <LatitudeDegrees>39.6012703143060207366943359375</LatitudeDegrees>
              <LongitudeDegrees>-8.14020588062703609466552734375</LongitudeDegrees>
            </Position>
            <AltitudeMeters>269</AltitudeMeters>
            <DistanceMeters>34650.328647976</DistanceMeters>
          </Trackpoint>
          <Trackpoint>
            <Time>2018-09-13T09:12:51.000Z</Time>
            <Position>
              <LatitudeDegrees>39.60113829933106899261474609375</LatitudeDegrees>
              <LongitudeDegrees>-8.140163719654083251953125</LongitudeDegrees>
            </Position>
            <AltitudeMeters>269.79998779296875</AltitudeMeters>
            <DistanceMeters>34665.460589305</DistanceMeters>
          </Trackpoint>
          <Trackpoint>
            <Time>2018-09-13T09:12:58.000Z</Time>
            <Position>
              <LatitudeDegrees>39.600943587720394134521484375</LatitudeDegrees>
              <LongitudeDegrees>-8.14010580070316791534423828125</LongitudeDegrees>
            </Position>
            <AltitudeMeters>272</AltitudeMeters>
            <DistanceMeters>34687.694403752</DistanceMeters>
          </Trackpoint>
          <Trackpoint>
            <Time>2018-09-13T09:13:04.000Z</Time>
            <Position>
              <LatitudeDegrees>39.60077418945729732513427734375</LatitudeDegrees>
              <LongitudeDegrees>-8.14006221480667591094970703125</LongitudeDegrees>
            </Position>
            <AltitudeMeters>275.20001220703125</AltitudeMeters>
            <DistanceMeters>34706.915656251</DistanceMeters>
          </Trackpoint>
          <Trackpoint>
            <Time>2018-09-13T09:13:11.000Z</Time>
            <Position>
              <LatitudeDegrees>39.60057637654244899749755859375</LatitudeDegrees>
              <LongitudeDegrees>-8.140014521777629852294921875</LongitudeDegrees>
            </Position>
            <AltitudeMeters>278.79998779296875</AltitudeMeters>
            <DistanceMeters>34729.30932199</DistanceMeters>
          </Trackpoint>
          <Trackpoint>
            <Time>2018-09-13T09:13:17.000Z</Time>
            <Position>
              <LatitudeDegrees>39.60040270350873470306396484375</LatitudeDegrees>
              <LongitudeDegrees>-8.1399667449295520782470703125</LongitudeDegrees>
            </Position>
            <AltitudeMeters>280.600006103515625</AltitudeMeters>
            <DistanceMeters>34749.068938517</DistanceMeters>
          </Trackpoint>
          <Trackpoint>
            <Time>2018-09-13T09:13:23.000Z</Time>
            <Position>
              <LatitudeDegrees>39.60022852756083011627197265625</LatitudeDegrees>
              <LongitudeDegrees>-8.13992341049015522003173828125</LongitudeDegrees>
            </Position>
            <AltitudeMeters>281.600006103515625</AltitudeMeters>
            <DistanceMeters>34768.807979486</DistanceMeters>
          </Trackpoint>
          <Trackpoint>
            <Time>2018-09-13T09:13:29.000Z</Time>
            <Position>
              <LatitudeDegrees>39.60005317814648151397705078125</LatitudeDegrees>
              <LongitudeDegrees>-8.139877058565616607666015625</LongitudeDegrees>
            </Position>
            <AltitudeMeters>283</AltitudeMeters>
            <DistanceMeters>34788.725542549</DistanceMeters>
          </Trackpoint>
          <Trackpoint>
            <Time>2018-09-13T09:13:34.000Z</Time>
            <Position>
              <LatitudeDegrees>39.59991169162094593048095703125</LatitudeDegrees>
              <LongitudeDegrees>-8.13983908854424953460693359375</LongitudeDegrees>
            </Position>
            <AltitudeMeters>284.20001220703125</AltitudeMeters>
            <DistanceMeters>34804.806129262</DistanceMeters>
          </Trackpoint>
          <Trackpoint>
            <Time>2018-09-13T09:13:41.000Z</Time>
            <Position>
              <LatitudeDegrees>39.59971069358289241790771484375</LatitudeDegrees>
              <LongitudeDegrees>-8.13978326506912708282470703125</LongitudeDegrees>
            </Position>
            <AltitudeMeters>284.600006103515625</AltitudeMeters>
            <DistanceMeters>34827.684094443</DistanceMeters>
          </Trackpoint>
          <Trackpoint>
            <Time>2018-09-13T09:13:46.000Z</Time>
            <Position>
              <LatitudeDegrees>39.5995610766112804412841796875</LatitudeDegrees>
              <LongitudeDegrees>-8.1397468037903308868408203125</LongitudeDegrees>
            </Position>
            <AltitudeMeters>284</AltitudeMeters>
            <DistanceMeters>34844.627919879</DistanceMeters>
          </Trackpoint>
          <Trackpoint>
            <Time>2018-09-13T09:13:52.000Z</Time>
            <Position>
              <LatitudeDegrees>39.59937944076955318450927734375</LatitudeDegrees>
              <LongitudeDegrees>-8.13969927839934825897216796875</LongitudeDegrees>
            </Position>
            <AltitudeMeters>284.399993896484375</AltitudeMeters>
            <DistanceMeters>34865.251125268</DistanceMeters>
          </Trackpoint>
          <Trackpoint>
            <Time>2018-09-13T09:13:59.000Z</Time>
            <Position>
              <LatitudeDegrees>39.59917274303734302520751953125</LatitudeDegrees>
              <LongitudeDegrees>-8.1396411918103694915771484375</LongitudeDegrees>
            </Position>
            <AltitudeMeters>285</AltitudeMeters>
            <DistanceMeters>34888.790145863</DistanceMeters>
          </Trackpoint>
          <Trackpoint>
            <Time>2018-09-13T09:14:06.000Z</Time>
            <Position>
              <LatitudeDegrees>39.5989652909338474273681640625</LatitudeDegrees>
              <LongitudeDegrees>-8.13958059065043926239013671875</LongitudeDegrees>
            </Position>
            <AltitudeMeters>284.600006103515625</AltitudeMeters>
            <DistanceMeters>34912.45771232</DistanceMeters>
          </Trackpoint>
          <Trackpoint>
            <Time>2018-09-13T09:14:13.000Z</Time>
            <Position>
              <LatitudeDegrees>39.59875783883035182952880859375</LatitudeDegrees>
              <LongitudeDegrees>-8.1395315565168857574462890625</LongitudeDegrees>
            </Position>
            <AltitudeMeters>284.600006103515625</AltitudeMeters>
            <DistanceMeters>34935.927194694</DistanceMeters>
          </Trackpoint>
          <Trackpoint>
            <Time>2018-09-13T09:14:19.000Z</Time>
            <Position>
              <LatitudeDegrees>39.59857896901667118072509765625</LatitudeDegrees>
              <LongitudeDegrees>-8.1394792534410953521728515625</LongitudeDegrees>
            </Position>
            <AltitudeMeters>284</AltitudeMeters>
            <DistanceMeters>34956.334720894</DistanceMeters>
          </Trackpoint>
          <Trackpoint>
            <Time>2018-09-13T09:14:24.000Z</Time>
            <Position>
              <LatitudeDegrees>39.59842289797961711883544921875</LatitudeDegrees>
              <LongitudeDegrees>-8.13945318572223186492919921875</LongitudeDegrees>
            </Position>
            <AltitudeMeters>284.20001220703125</AltitudeMeters>
            <DistanceMeters>34973.849049223</DistanceMeters>
          </Trackpoint>
          <Trackpoint>
            <Time>2018-09-13T09:14:27.000Z</Time>
            <Position>
              <LatitudeDegrees>39.5983265899121761322021484375</LatitudeDegrees>
              <LongitudeDegrees>-8.13942183740437030792236328125</LongitudeDegrees>
            </Position>
            <AltitudeMeters>284.399993896484375</AltitudeMeters>
            <DistanceMeters>34984.899965648</DistanceMeters>
          </Trackpoint>
          <Trackpoint>
            <Time>2018-09-13T09:14:31.000Z</Time>
            <Position>
              <LatitudeDegrees>39.59820211865007877349853515625</LatitudeDegrees>
              <LongitudeDegrees>-8.13938789069652557373046875</LongitudeDegrees>
            </Position>
            <AltitudeMeters>285</AltitudeMeters>
            <DistanceMeters>34999.056075863</DistanceMeters>
          </Trackpoint>
          <Trackpoint>
            <Time>2018-09-13T09:14:38.000Z</Time>
            <Position>
              <LatitudeDegrees>39.59797647781670093536376953125</LatitudeDegrees>
              <LongitudeDegrees>-8.1393335759639739990234375</LongitudeDegrees>
            </Position>
            <AltitudeMeters>286</AltitudeMeters>
            <DistanceMeters>35024.598648621</DistanceMeters>
          </Trackpoint>
          <Trackpoint>
            <Time>2018-09-13T09:14:47.000Z</Time>
            <Position>
              <LatitudeDegrees>39.5977670140564441680908203125</LatitudeDegrees>
              <LongitudeDegrees>-8.1392807699739933013916015625</LongitudeDegrees>
            </Position>
            <AltitudeMeters>286.20001220703125</AltitudeMeters>
            <DistanceMeters>35048.348104085</DistanceMeters>
          </Trackpoint>
          <Trackpoint>
            <Time>2018-09-13T09:14:49.000Z</Time>
            <Position>
              <LatitudeDegrees>39.59775921888649463653564453125</LatitudeDegrees>
              <LongitudeDegrees>-8.13927599228918552398681640625</LongitudeDegrees>
            </Position>
            <AltitudeMeters>286</AltitudeMeters>
            <DistanceMeters>35049.303110745</DistanceMeters>
          </Trackpoint>
          <Trackpoint>
            <Time>2018-09-13T09:15:14.000Z</Time>
            <Position>
              <LatitudeDegrees>39.5977344922721385955810546875</LatitudeDegrees>
              <LongitudeDegrees>-8.13926392234861850738525390625</LongitudeDegrees>
            </Position>
            <AltitudeMeters>286</AltitudeMeters>
            <DistanceMeters>35052.242801742</DistanceMeters>
          </Trackpoint>
          <Trackpoint>
            <Time>2018-09-13T09:15:15.000Z</Time>
            <Position>
              <LatitudeDegrees>39.59771663881838321685791015625</LatitudeDegrees>
              <LongitudeDegrees>-8.1392556242644786834716796875</LongitudeDegrees>
            </Position>
            <AltitudeMeters>286</AltitudeMeters>
            <DistanceMeters>35054.352737212</DistanceMeters>
          </Trackpoint>
          <Trackpoint>
            <Time>2018-09-13T09:15:29.000Z</Time>
            <Position>
              <LatitudeDegrees>39.59726904518902301788330078125</LatitudeDegrees>
              <LongitudeDegrees>-8.13913584686815738677978515625</LongitudeDegrees>
            </Position>
            <AltitudeMeters>285.600006103515625</AltitudeMeters>
            <DistanceMeters>35105.218931716</DistanceMeters>
          </Trackpoint>
          <Trackpoint>
            <Time>2018-09-13T09:15:39.000Z</Time>
            <Position>
              <LatitudeDegrees>39.596877358853816986083984375</LatitudeDegrees>
              <LongitudeDegrees>-8.139030151069164276123046875</LongitudeDegrees>
            </Position>
            <AltitudeMeters>284.79998779296875</AltitudeMeters>
            <DistanceMeters>35149.746831788</DistanceMeters>
          </Trackpoint>
          <Trackpoint>
            <Time>2018-09-13T09:15:50.000Z</Time>
            <Position>
              <LatitudeDegrees>39.5964118279516696929931640625</LatitudeDegrees>
              <LongitudeDegrees>-8.1388992257416248321533203125</LongitudeDegrees>
            </Position>
            <AltitudeMeters>284.600006103515625</AltitudeMeters>
            <DistanceMeters>35202.764074408</DistanceMeters>
          </Trackpoint>
          <Trackpoint>
            <Time>2018-09-13T09:15:52.000Z</Time>
            <Position>
              <LatitudeDegrees>39.5963266678154468536376953125</LatitudeDegrees>
              <LongitudeDegrees>-8.13887550495564937591552734375</LongitudeDegrees>
            </Position>
            <AltitudeMeters>284.399993896484375</AltitudeMeters>
            <DistanceMeters>35212.458196625</DistanceMeters>
          </Trackpoint>
          <Trackpoint>
            <Time>2018-09-13T09:16:05.000Z</Time>
            <Position>
              <LatitudeDegrees>39.59576566703617572784423828125</LatitudeDegrees>
              <LongitudeDegrees>-8.13871205784380435943603515625</LongitudeDegrees>
            </Position>
            <AltitudeMeters>283.600006103515625</AltitudeMeters>
            <DistanceMeters>35276.452886005</DistanceMeters>
          </Trackpoint>
          <Trackpoint>
            <Time>2018-09-13T09:16:13.000Z</Time>
            <Position>
              <LatitudeDegrees>39.595440365374088287353515625</LatitudeDegrees>
              <LongitudeDegrees>-8.13861516304314136505126953125</LongitudeDegrees>
            </Position>
            <AltitudeMeters>283.399993896484375</AltitudeMeters>
            <DistanceMeters>35313.601161097</DistanceMeters>
          </Trackpoint>
          <Trackpoint>
            <Time>2018-09-13T09:16:15.000Z</Time>
            <Position>
              <LatitudeDegrees>39.5953500084578990936279296875</LatitudeDegrees>
              <LongitudeDegrees>-8.1385907717049121856689453125</LongitudeDegrees>
            </Position>
            <AltitudeMeters>283.399993896484375</AltitudeMeters>
            <DistanceMeters>35323.873720337</DistanceMeters>
          </Trackpoint>
          <Trackpoint>
            <Time>2018-09-13T09:16:27.000Z</Time>
            <Position>
              <LatitudeDegrees>39.59479303099215030670166015625</LatitudeDegrees>
              <LongitudeDegrees>-8.138471581041812896728515625</LongitudeDegrees>
            </Position>
            <AltitudeMeters>283.600006103515625</AltitudeMeters>
            <DistanceMeters>35386.703555752</DistanceMeters>
          </Trackpoint>
          <Trackpoint>
            <Time>2018-09-13T09:16:39.000Z</Time>
            <Position>
              <LatitudeDegrees>39.59421149455010890960693359375</LatitudeDegrees>
              <LongitudeDegrees>-8.13839203678071498870849609375</LongitudeDegrees>
            </Position>
            <AltitudeMeters>286.20001220703125</AltitudeMeters>
            <DistanceMeters>35451.788184197</DistanceMeters>
          </Trackpoint>
          <Trackpoint>
            <Time>2018-09-13T09:16:43.000Z</Time>
            <Position>
              <LatitudeDegrees>39.59399105049669742584228515625</LatitudeDegrees>
              <LongitudeDegrees>-8.1383845768868923187255859375</LongitudeDegrees>
            </Position>
            <AltitudeMeters>287.600006103515625</AltitudeMeters>
            <DistanceMeters>35476.332317095</DistanceMeters>
          </Trackpoint>
          <Trackpoint>
            <Time>2018-09-13T09:16:46.000Z</Time>
            <Position>
              <LatitudeDegrees>39.59382441826164722442626953125</LatitudeDegrees>
              <LongitudeDegrees>-8.13838072121143341064453125</LongitudeDegrees>
            </Position>
            <AltitudeMeters>288.600006103515625</AltitudeMeters>
            <DistanceMeters>35494.881765411</DistanceMeters>
          </Trackpoint>
          <Trackpoint>
            <Time>2018-09-13T09:16:56.000Z</Time>
            <Position>
              <LatitudeDegrees>39.5932629145681858062744140625</LatitudeDegrees>
              <LongitudeDegrees>-8.138419277966022491455078125</LongitudeDegrees>
            </Position>
            <AltitudeMeters>289.600006103515625</AltitudeMeters>
            <DistanceMeters>35557.465640947</DistanceMeters>
          </Trackpoint>
          <Trackpoint>
            <Time>2018-09-13T09:16:59.000Z</Time>
            <Position>
              <LatitudeDegrees>39.59309033118188381195068359375</LatitudeDegrees>
              <LongitudeDegrees>-8.13844970427453517913818359375</LongitudeDegrees>
            </Position>
            <AltitudeMeters>289.79998779296875</AltitudeMeters>
            <DistanceMeters>35576.850624856</DistanceMeters>
          </Trackpoint>
          <Trackpoint>
            <Time>2018-09-13T09:17:01.000Z</Time>
            <Position>
              <LatitudeDegrees>39.59297399036586284637451171875</LatitudeDegrees>
              <LongitudeDegrees>-8.13847585581243038177490234375</LongitudeDegrees>
            </Position>
            <AltitudeMeters>289.79998779296875</AltitudeMeters>
            <DistanceMeters>35589.992513688</DistanceMeters>
          </Trackpoint>
          <Trackpoint>
            <Time>2018-09-13T09:17:10.000Z</Time>
            <Position>
              <LatitudeDegrees>39.59244576282799243927001953125</LatitudeDegrees>
              <LongitudeDegrees>-8.13862974755465984344482421875</LongitudeDegrees>
            </Position>
            <AltitudeMeters>290.20001220703125</AltitudeMeters>
            <DistanceMeters>35650.248742715</DistanceMeters>
          </Trackpoint>
          <Trackpoint>
            <Time>2018-09-13T09:17:19.000Z</Time>
            <Position>
              <LatitudeDegrees>39.59193362854421138763427734375</LatitudeDegrees>
              <LongitudeDegrees>-8.13887558877468109130859375</LongitudeDegrees>
            </Position>
            <AltitudeMeters>290.399993896484375</AltitudeMeters>
            <DistanceMeters>35711.025217273</DistanceMeters>
          </Trackpoint>
          <Trackpoint>
            <Time>2018-09-13T09:17:28.000Z</Time>
            <Position>
              <LatitudeDegrees>39.59143079817295074462890625</LatitudeDegrees>
              <LongitudeDegrees>-8.13916618935763835906982421875</LongitudeDegrees>
            </Position>
            <AltitudeMeters>289.399993896484375</AltitudeMeters>
            <DistanceMeters>35772.290554738</DistanceMeters>
          </Trackpoint>
          <Trackpoint>
            <Time>2018-09-13T09:17:33.000Z</Time>
            <Position>
              <LatitudeDegrees>39.591156207025051116943359375</LatitudeDegrees>
              <LongitudeDegrees>-8.13936484046280384063720703125</LongitudeDegrees>
            </Position>
            <AltitudeMeters>289.399993896484375</AltitudeMeters>
            <DistanceMeters>35807.281811718</DistanceMeters>
          </Trackpoint>
          <Trackpoint>
            <Time>2018-09-13T09:17:35.000Z</Time>
            <Position>
              <LatitudeDegrees>39.5910487510263919830322265625</LatitudeDegrees>
              <LongitudeDegrees>-8.1394527666270732879638671875</LongitudeDegrees>
            </Position>
            <AltitudeMeters>289.399993896484375</AltitudeMeters>
            <DistanceMeters>35821.421007678</DistanceMeters>
          </Trackpoint>
          <Trackpoint>
            <Time>2018-09-13T09:17:44.000Z</Time>
            <Position>
              <LatitudeDegrees>39.59056712687015533447265625</LatitudeDegrees>
              <LongitudeDegrees>-8.13987672328948974609375</LongitudeDegrees>
            </Position>
            <AltitudeMeters>289.79998779296875</AltitudeMeters>
            <DistanceMeters>35886.196474794</DistanceMeters>
          </Trackpoint>
          <Trackpoint>
            <Time>2018-09-13T09:17:52.000Z</Time>
            <Position>
              <LatitudeDegrees>39.59015347994863986968994140625</LatitudeDegrees>
              <LongitudeDegrees>-8.140271343290805816650390625</LongitudeDegrees>
            </Position>
            <AltitudeMeters>290.20001220703125</AltitudeMeters>
            <DistanceMeters>35943.339065233</DistanceMeters>
          </Trackpoint>
          <Trackpoint>
            <Time>2018-09-13T09:18:01.000Z</Time>
            <Position>
              <LatitudeDegrees>39.58970454521477222442626953125</LatitudeDegrees>
              <LongitudeDegrees>-8.14075640402734279632568359375</LongitudeDegrees>
            </Position>
            <AltitudeMeters>290.79998779296875</AltitudeMeters>
            <DistanceMeters>36008.359701414</DistanceMeters>
          </Trackpoint>
          <Trackpoint>
            <Time>2018-09-13T09:18:04.000Z</Time>
            <Position>
              <LatitudeDegrees>39.5895554311573505401611328125</LatitudeDegrees>
              <LongitudeDegrees>-8.1409236229956150054931640625</LongitudeDegrees>
            </Position>
            <AltitudeMeters>291</AltitudeMeters>
            <DistanceMeters>36030.295028931</DistanceMeters>
          </Trackpoint>
          <Trackpoint>
            <Time>2018-09-13T09:18:12.000Z</Time>
            <Position>
              <LatitudeDegrees>39.58914547227323055267333984375</LatitudeDegrees>
              <LongitudeDegrees>-8.14138035289943218231201171875</LongitudeDegrees>
            </Position>
            <AltitudeMeters>290.399993896484375</AltitudeMeters>
            <DistanceMeters>36090.434102395</DistanceMeters>
          </Trackpoint>
          <Trackpoint>
            <Time>2018-09-13T09:18:20.000Z</Time>
            <Position>
              <LatitudeDegrees>39.58871179260313510894775390625</LatitudeDegrees>
              <LongitudeDegrees>-8.141864575445652008056640625</LongitudeDegrees>
            </Position>
            <AltitudeMeters>289.600006103515625</AltitudeMeters>
            <DistanceMeters>36154.112637454</DistanceMeters>
          </Trackpoint>
          <Trackpoint>
            <Time>2018-09-13T09:18:21.000Z</Time>
            <Position>
              <LatitudeDegrees>39.5886580646038055419921875</LatitudeDegrees>
              <LongitudeDegrees>-8.14192526042461395263671875</LongitudeDegrees>
            </Position>
            <AltitudeMeters>289.399993896484375</AltitudeMeters>
            <DistanceMeters>36162.040394517</DistanceMeters>
          </Trackpoint>
          <Trackpoint>
            <Time>2018-09-13T09:18:29.000Z</Time>
            <Position>
              <LatitudeDegrees>39.58823670633137226104736328125</LatitudeDegrees>
              <LongitudeDegrees>-8.142405711114406585693359375</LongitudeDegrees>
            </Position>
            <AltitudeMeters>288</AltitudeMeters>
            <DistanceMeters>36224.472005709</DistanceMeters>
          </Trackpoint>
          <Trackpoint>
            <Time>2018-09-13T09:18:34.000Z</Time>
            <Position>
              <LatitudeDegrees>39.58796429447829723358154296875</LatitudeDegrees>
              <LongitudeDegrees>-8.1427103094756603240966796875</LongitudeDegrees>
            </Position>
            <AltitudeMeters>287.20001220703125</AltitudeMeters>
            <DistanceMeters>36264.495967294</DistanceMeters>
          </Trackpoint>
          <Trackpoint>
            <Time>2018-09-13T09:18:42.000Z</Time>
            <Position>
              <LatitudeDegrees>39.587516449391841888427734375</LatitudeDegrees>
              <LongitudeDegrees>-8.1431865692138671875</LongitudeDegrees>
            </Position>
            <AltitudeMeters>288.79998779296875</AltitudeMeters>
            <DistanceMeters>36328.943138224</DistanceMeters>
          </Trackpoint>
          <Trackpoint>
            <Time>2018-09-13T09:18:46.000Z</Time>
            <Position>
              <LatitudeDegrees>39.587285108864307403564453125</LatitudeDegrees>
              <LongitudeDegrees>-8.143406175076961517333984375</LongitudeDegrees>
            </Position>
            <AltitudeMeters>290.20001220703125</AltitudeMeters>
            <DistanceMeters>36360.84636747</DistanceMeters>
          </Trackpoint>
          <Trackpoint>
            <Time>2018-09-13T09:18:54.000Z</Time>
            <Position>
              <LatitudeDegrees>39.58678814582526683807373046875</LatitudeDegrees>
              <LongitudeDegrees>-8.14379367046058177947998046875</LongitudeDegrees>
            </Position>
            <AltitudeMeters>291.399993896484375</AltitudeMeters>
            <DistanceMeters>36425.377553207</DistanceMeters>
          </Trackpoint>
          <Trackpoint>
            <Time>2018-09-13T09:18:58.000Z</Time>
            <Position>
              <LatitudeDegrees>39.58653165958821773529052734375</LatitudeDegrees>
              <LongitudeDegrees>-8.1439496576786041259765625</LongitudeDegrees>
            </Position>
            <AltitudeMeters>291</AltitudeMeters>
            <DistanceMeters>36456.904804981</DistanceMeters>
          </Trackpoint>
          <Trackpoint>
            <Time>2018-09-13T09:19:06.000Z</Time>
            <Position>
              <LatitudeDegrees>39.5860085450112819671630859375</LatitudeDegrees>
              <LongitudeDegrees>-8.14420555718243122100830078125</LongitudeDegrees>
            </Position>
            <AltitudeMeters>291</AltitudeMeters>
            <DistanceMeters>36519.128657455</DistanceMeters>
          </Trackpoint>
          <Trackpoint>
            <Time>2018-09-13T09:19:07.000Z</Time>
            <Position>
              <LatitudeDegrees>39.585941992700099945068359375</LatitudeDegrees>
              <LongitudeDegrees>-8.1442327983677387237548828125</LongitudeDegrees>
            </Position>
            <AltitudeMeters>291.399993896484375</AltitudeMeters>
            <DistanceMeters>36526.895892531</DistanceMeters>
          </Trackpoint>
          <Trackpoint>
            <Time>2018-09-13T09:19:16.000Z</Time>
            <Position>
              <LatitudeDegrees>39.585360623896121978759765625</LatitudeDegrees>
              <LongitudeDegrees>-8.1444503925740718841552734375</LongitudeDegrees>
            </Position>
            <AltitudeMeters>294.600006103515625</AltitudeMeters>
            <DistanceMeters>36594.241479875</DistanceMeters>
          </Trackpoint>
          <Trackpoint>
            <Time>2018-09-13T09:19:18.000Z</Time>
            <Position>
              <LatitudeDegrees>39.5852353982627391815185546875</LatitudeDegrees>
              <LongitudeDegrees>-8.1444953195750713348388671875</LongitudeDegrees>
            </Position>
            <AltitudeMeters>295.600006103515625</AltitudeMeters>
            <DistanceMeters>36608.702722572</DistanceMeters>
          </Trackpoint>
          <Trackpoint>
            <Time>2018-09-13T09:19:27.000Z</Time>
            <Position>
              <LatitudeDegrees>39.5846801809966564178466796875</LatitudeDegrees>
              <LongitudeDegrees>-8.14468835480511188507080078125</LongitudeDegrees>
            </Position>
            <AltitudeMeters>298.20001220703125</AltitudeMeters>
            <DistanceMeters>36672.679418325</DistanceMeters>
          </Trackpoint>
          <Trackpoint>
            <Time>2018-09-13T09:19:31.000Z</Time>
            <Position>
              <LatitudeDegrees>39.58443827927112579345703125</LatitudeDegrees>
              <LongitudeDegrees>-8.1447762809693813323974609375</LongitudeDegrees>
            </Position>
            <AltitudeMeters>299</AltitudeMeters>
            <DistanceMeters>36700.639888604</DistanceMeters>
          </Trackpoint>
          <Trackpoint>
            <Time>2018-09-13T09:19:37.000Z</Time>
            <Position>
              <LatitudeDegrees>39.5840766839683055877685546875</LatitudeDegrees>
              <LongitudeDegrees>-8.14490796066820621490478515625</LongitudeDegrees>
            </Position>
            <AltitudeMeters>299.600006103515625</AltitudeMeters>
            <DistanceMeters>36742.44127509</DistanceMeters>
          </Trackpoint>
          <Trackpoint>
            <Time>2018-09-13T09:19:46.000Z</Time>
            <Position>
              <LatitudeDegrees>39.583539403975009918212890625</LatitudeDegrees>
              <LongitudeDegrees>-8.14510946162045001983642578125</LongitudeDegrees>
            </Position>
            <AltitudeMeters>300.79998779296875</AltitudeMeters>
            <DistanceMeters>36804.689503358</DistanceMeters>
          </Trackpoint>
          <Trackpoint>
            <Time>2018-09-13T09:19:50.000Z</Time>
            <Position>
              <LatitudeDegrees>39.583288617432117462158203125</LatitudeDegrees>
              <LongitudeDegrees>-8.1452047638595104217529296875</LongitudeDegrees>
            </Position>
            <AltitudeMeters>301.79998779296875</AltitudeMeters>
            <DistanceMeters>36833.775130076</DistanceMeters>
          </Trackpoint>
          <Trackpoint>
            <Time>2018-09-13T09:19:55.000Z</Time>
            <Position>
              <LatitudeDegrees>39.5829786546528339385986328125</LatitudeDegrees>
              <LongitudeDegrees>-8.1453211046755313873291015625</LongitudeDegrees>
            </Position>
            <AltitudeMeters>303.20001220703125</AltitudeMeters>
            <DistanceMeters>36869.689194159</DistanceMeters>
          </Trackpoint>
          <Trackpoint>
            <Time>2018-09-13T09:20:02.000Z</Time>
            <Position>
              <LatitudeDegrees>39.58254187367856502532958984375</LatitudeDegrees>
              <LongitudeDegrees>-8.145477510988712310791015625</LongitudeDegrees>
            </Position>
            <AltitudeMeters>304.20001220703125</AltitudeMeters>
            <DistanceMeters>36920.12126006</DistanceMeters>
          </Trackpoint>
          <Trackpoint>
            <Time>2018-09-13T09:20:11.000Z</Time>
            <Position>
              <LatitudeDegrees>39.58198070526123046875</LatitudeDegrees>
              <LongitudeDegrees>-8.1456785090267658233642578125</LongitudeDegrees>
            </Position>
            <AltitudeMeters>305.399993896484375</AltitudeMeters>
            <DistanceMeters>36984.916589458</DistanceMeters>
          </Trackpoint>
          <Trackpoint>
            <Time>2018-09-13T09:20:14.000Z</Time>
            <Position>
              <LatitudeDegrees>39.581797979772090911865234375</LatitudeDegrees>
              <LongitudeDegrees>-8.14574606716632843017578125</LongitudeDegrees>
            </Position>
            <AltitudeMeters>305</AltitudeMeters>
            <DistanceMeters>37006.063823457</DistanceMeters>
          </Trackpoint>
          <Trackpoint>
            <Time>2018-09-13T09:20:19.000Z</Time>
            <Position>
              <LatitudeDegrees>39.58148759789764881134033203125</LatitudeDegrees>
              <LongitudeDegrees>-8.1458595581352710723876953125</LongitudeDegrees>
            </Position>
            <AltitudeMeters>304.20001220703125</AltitudeMeters>
            <DistanceMeters>37041.955628586</DistanceMeters>
          </Trackpoint>
          <Trackpoint>
            <Time>2018-09-13T09:20:28.000Z</Time>
            <Position>
              <LatitudeDegrees>39.580931626260280609130859375</LatitudeDegrees>
              <LongitudeDegrees>-8.14613004215061664581298828125</LongitudeDegrees>
            </Position>
            <AltitudeMeters>304</AltitudeMeters>
            <DistanceMeters>37108.043412131</DistanceMeters>
          </Trackpoint>
          <Trackpoint>
            <Time>2018-09-13T09:20:29.000Z</Time>
            <Position>
              <LatitudeDegrees>39.5808717794716358184814453125</LatitudeDegrees>
              <LongitudeDegrees>-8.1461656652390956878662109375</LongitudeDegrees>
            </Position>
            <AltitudeMeters>304</AltitudeMeters>
            <DistanceMeters>37115.372183835</DistanceMeters>
          </Trackpoint>
          <Trackpoint>
            <Time>2018-09-13T09:20:38.000Z</Time>
            <Position>
              <LatitudeDegrees>39.58035939373075962066650390625</LatitudeDegrees>
              <LongitudeDegrees>-8.1465059705078601837158203125</LongitudeDegrees>
            </Position>
            <AltitudeMeters>305.20001220703125</AltitudeMeters>
            <DistanceMeters>37179.439220034</DistanceMeters>
          </Trackpoint>
          <Trackpoint>
            <Time>2018-09-13T09:20:44.000Z</Time>
            <Position>
              <LatitudeDegrees>39.58002738654613494873046875</LatitudeDegrees>
              <LongitudeDegrees>-8.146722055971622467041015625</LongitudeDegrees>
            </Position>
            <AltitudeMeters>306.399993896484375</AltitudeMeters>
            <DistanceMeters>37220.780974093</DistanceMeters>
          </Trackpoint>
          <Trackpoint>
            <Time>2018-09-13T09:20:52.000Z</Time>
            <Position>
              <LatitudeDegrees>39.57957870326936244964599609375</LatitudeDegrees>
              <LongitudeDegrees>-8.14696404151618480682373046875</LongitudeDegrees>
            </Position>
            <AltitudeMeters>305.20001220703125</AltitudeMeters>
            <DistanceMeters>37274.862947248</DistanceMeters>
          </Trackpoint>
          <Trackpoint>
            <Time>2018-09-13T09:20:57.000Z</Time>
            <Position>
              <LatitudeDegrees>39.5792946405708789825439453125</LatitudeDegrees>
              <LongitudeDegrees>-8.147075437009334564208984375</LongitudeDegrees>
            </Position>
            <AltitudeMeters>306</AltitudeMeters>
            <DistanceMeters>37307.892352259</DistanceMeters>
          </Trackpoint>
          <Trackpoint>
            <Time>2018-09-13T09:21:05.000Z</Time>
            <Position>
              <LatitudeDegrees>39.5788276009261608123779296875</LatitudeDegrees>
              <LongitudeDegrees>-8.1471922807395458221435546875</LongitudeDegrees>
            </Position>
            <AltitudeMeters>306.600006103515625</AltitudeMeters>
            <DistanceMeters>37360.832382159</DistanceMeters>
          </Trackpoint>
          <Trackpoint>
            <Time>2018-09-13T09:21:07.000Z</Time>
            <Position>
              <LatitudeDegrees>39.5787079073488712310791015625</LatitudeDegrees>
              <LongitudeDegrees>-8.14721147529780864715576171875</LongitudeDegrees>
            </Position>
            <AltitudeMeters>306.399993896484375</AltitudeMeters>
            <DistanceMeters>37374.255725459</DistanceMeters>
          </Trackpoint>
          <Trackpoint>
            <Time>2018-09-13T09:21:16.000Z</Time>
            <Position>
              <LatitudeDegrees>39.57816853187978267669677734375</LatitudeDegrees>
              <LongitudeDegrees>-8.1472603417932987213134765625</LongitudeDegrees>
            </Position>
            <AltitudeMeters>312.399993896484375</AltitudeMeters>
            <DistanceMeters>37434.435551719</DistanceMeters>
          </Trackpoint>
          <Trackpoint>
            <Time>2018-09-13T09:21:18.000Z</Time>
            <Position>
              <LatitudeDegrees>39.5780440606176853179931640625</LatitudeDegrees>
              <LongitudeDegrees>-8.14726763404905796051025390625</LongitudeDegrees>
            </Position>
            <AltitudeMeters>313.79998779296875</AltitudeMeters>
            <DistanceMeters>37448.303592969</DistanceMeters>
          </Trackpoint>
          <Trackpoint>
            <Time>2018-09-13T09:21:26.000Z</Time>
            <Position>
              <LatitudeDegrees>39.57754659466445446014404296875</LatitudeDegrees>
              <LongitudeDegrees>-8.14729915000498294830322265625</LongitudeDegrees>
            </Position>
            <AltitudeMeters>315.20001220703125</AltitudeMeters>
            <DistanceMeters>37503.738548951</DistanceMeters>
          </Trackpoint>
          <Trackpoint>
            <Time>2018-09-13T09:21:35.000Z</Time>
            <Position>
              <LatitudeDegrees>39.57699707709252834320068359375</LatitudeDegrees>
              <LongitudeDegrees>-8.1473579071462154388427734375</LongitudeDegrees>
            </Position>
            <AltitudeMeters>312.600006103515625</AltitudeMeters>
            <DistanceMeters>37565.108299017</DistanceMeters>
          </Trackpoint>
          <Trackpoint>
            <Time>2018-09-13T09:21:44.000Z</Time>
            <Position>
              <LatitudeDegrees>39.576442278921604156494140625</LatitudeDegrees>
              <LongitudeDegrees>-8.14747399650514125823974609375</LongitudeDegrees>
            </Position>
            <AltitudeMeters>311.600006103515625</AltitudeMeters>
            <DistanceMeters>37627.656380996</DistanceMeters>
          </Trackpoint>
          <Trackpoint>
            <Time>2018-09-13T09:21:46.000Z</Time>
            <Position>
              <LatitudeDegrees>39.5763180591166019439697265625</LatitudeDegrees>
              <LongitudeDegrees>-8.14750936813652515411376953125</LongitudeDegrees>
            </Position>
            <AltitudeMeters>311.79998779296875</AltitudeMeters>
            <DistanceMeters>37641.811215369</DistanceMeters>
          </Trackpoint>
          <Trackpoint>
            <Time>2018-09-13T09:21:55.000Z</Time>
            <Position>
              <LatitudeDegrees>39.575773738324642181396484375</LatitudeDegrees>
              <LongitudeDegrees>-8.1477183289825916290283203125</LongitudeDegrees>
            </Position>
            <AltitudeMeters>310.399993896484375</AltitudeMeters>
            <DistanceMeters>37704.991832986</DistanceMeters>
          </Trackpoint>
          <Trackpoint>
            <Time>2018-09-13T09:21:56.000Z</Time>
            <Position>
              <LatitudeDegrees>39.57571347244083881378173828125</LatitudeDegrees>
              <LongitudeDegrees>-8.14774791710078716278076171875</LongitudeDegrees>
            </Position>
            <AltitudeMeters>310.20001220703125</AltitudeMeters>
            <DistanceMeters>37712.163674829</DistanceMeters>
          </Trackpoint>
          <Trackpoint>
            <Time>2018-09-13T09:22:05.000Z</Time>
            <Position>
              <LatitudeDegrees>39.5751757733523845672607421875</LatitudeDegrees>
              <LongitudeDegrees>-8.14804899506270885467529296875</LongitudeDegrees>
            </Position>
            <AltitudeMeters>312</AltitudeMeters>
            <DistanceMeters>37777.346736804</DistanceMeters>
          </Trackpoint>
          <Trackpoint>
            <Time>2018-09-13T09:22:14.000Z</Time>
            <Position>
              <LatitudeDegrees>39.57466833293437957763671875</LatitudeDegrees>
              <LongitudeDegrees>-8.1484043039381504058837890625</LongitudeDegrees>
            </Position>
            <AltitudeMeters>319.20001220703125</AltitudeMeters>
            <DistanceMeters>37841.526572499</DistanceMeters>
          </Trackpoint>
          <Trackpoint>
            <Time>2018-09-13T09:22:23.000Z</Time>
            <Position>
              <LatitudeDegrees>39.5741672627627849578857421875</LatitudeDegrees>
              <LongitudeDegrees>-8.14881728030741214752197265625</LongitudeDegrees>
            </Position>
            <AltitudeMeters>321</AltitudeMeters>
            <DistanceMeters>37907.59905086</DistanceMeters>
          </Trackpoint>
          <Trackpoint>
            <Time>2018-09-13T09:22:30.000Z</Time>
            <Position>
              <LatitudeDegrees>39.573772139847278594970703125</LatitudeDegrees>
              <LongitudeDegrees>-8.149138726294040679931640625</LongitudeDegrees>
            </Position>
            <AltitudeMeters>321.79998779296875</AltitudeMeters>
            <DistanceMeters>37959.50834493</DistanceMeters>
          </Trackpoint>
          <Trackpoint>
            <Time>2018-09-13T09:22:39.000Z</Time>
            <Position>
              <LatitudeDegrees>39.57322672940790653228759765625</LatitudeDegrees>
              <LongitudeDegrees>-8.1494711525738239288330078125</LongitudeDegrees>
            </Position>
            <AltitudeMeters>319.399993896484375</AltitudeMeters>
            <DistanceMeters>38026.579301253</DistanceMeters>
          </Trackpoint>
          <Trackpoint>
            <Time>2018-09-13T09:22:44.000Z</Time>
            <Position>
              <LatitudeDegrees>39.57288064062595367431640625</LatitudeDegrees>
              <LongitudeDegrees>-8.14958833158016204833984375</LongitudeDegrees>
            </Position>
            <AltitudeMeters>317.79998779296875</AltitudeMeters>
            <DistanceMeters>38066.389937732</DistanceMeters>
          </Trackpoint>
          <Trackpoint>
            <Time>2018-09-13T09:22:46.000Z</Time>
            <Position>
              <LatitudeDegrees>39.57272373139858245849609375</LatitudeDegrees>
              <LongitudeDegrees>-8.149616830050945281982421875</LongitudeDegrees>
            </Position>
            <AltitudeMeters>316.20001220703125</AltitudeMeters>
            <DistanceMeters>38084.02475564</DistanceMeters>
          </Trackpoint>
          <Trackpoint>
            <Time>2018-09-13T09:22:49.000Z</Time>
            <Position>
              <LatitudeDegrees>39.572477973997592926025390625</LatitudeDegrees>
              <LongitudeDegrees>-8.149627558887004852294921875</LongitudeDegrees>
            </Position>
            <AltitudeMeters>313.20001220703125</AltitudeMeters>
            <DistanceMeters>38111.393439222</DistanceMeters>
          </Trackpoint>
          <Trackpoint>
            <Time>2018-09-13T09:22:51.000Z</Time>
            <Position>
              <LatitudeDegrees>39.57230991683900356292724609375</LatitudeDegrees>
              <LongitudeDegrees>-8.14961523748934268951416015625</LongitudeDegrees>
            </Position>
            <AltitudeMeters>312</AltitudeMeters>
            <DistanceMeters>38130.128408435</DistanceMeters>
          </Trackpoint>
          <Trackpoint>
            <Time>2018-09-13T09:22:55.000Z</Time>
            <Position>
              <LatitudeDegrees>39.57197262905538082122802734375</LatitudeDegrees>
              <LongitudeDegrees>-8.14955748617649078369140625</LongitudeDegrees>
            </Position>
            <AltitudeMeters>309.79998779296875</AltitudeMeters>
            <DistanceMeters>38167.994616566</DistanceMeters>
          </Trackpoint>
          <Trackpoint>
            <Time>2018-09-13T09:22:57.000Z</Time>
            <Position>
              <LatitudeDegrees>39.57180063240230083465576171875</LatitudeDegrees>
              <LongitudeDegrees>-8.14949805848300457000732421875</LongitudeDegrees>
            </Position>
            <AltitudeMeters>309</AltitudeMeters>
            <DistanceMeters>38187.805578493</DistanceMeters>
          </Trackpoint>
          <Trackpoint>
            <Time>2018-09-13T09:22:59.000Z</Time>
            <Position>
              <LatitudeDegrees>39.5716260373592376708984375</LatitudeDegrees>
              <LongitudeDegrees>-8.1494165025651454925537109375</LongitudeDegrees>
            </Position>
            <AltitudeMeters>307.20001220703125</AltitudeMeters>
            <DistanceMeters>38208.459848545</DistanceMeters>
          </Trackpoint>
          <Trackpoint>
            <Time>2018-09-13T09:23:03.000Z</Time>
            <Position>
              <LatitudeDegrees>39.571261592209339141845703125</LatitudeDegrees>
              <LongitudeDegrees>-8.1492056138813495635986328125</LongitudeDegrees>
            </Position>
            <AltitudeMeters>304.399993896484375</AltitudeMeters>
            <DistanceMeters>38252.875664201</DistanceMeters>
          </Trackpoint>
          <Trackpoint>
            <Time>2018-09-13T09:23:04.000Z</Time>
            <Position>
              <LatitudeDegrees>39.57116696052253246307373046875</LatitudeDegrees>
              <LongitudeDegrees>-8.14914719201624393463134765625</LongitudeDegrees>
            </Position>
            <AltitudeMeters>303.399993896484375</AltitudeMeters>
            <DistanceMeters>38264.539975659</DistanceMeters>
          </Trackpoint>
          <Trackpoint>
            <Time>2018-09-13T09:23:07.000Z</Time>
            <Position>
              <LatitudeDegrees>39.5708751864731311798095703125</LatitudeDegrees>
              <LongitudeDegrees>-8.14896496944129467010498046875</LongitudeDegrees>
            </Position>
            <AltitudeMeters>300.600006103515625</AltitudeMeters>
            <DistanceMeters>38300.582294356</DistanceMeters>
          </Trackpoint>
          <Trackpoint>
            <Time>2018-09-13T09:23:09.000Z</Time>
            <Position>
              <LatitudeDegrees>39.57066840492188930511474609375</LatitudeDegrees>
              <LongitudeDegrees>-8.14885298721492290496826171875</LongitudeDegrees>
            </Position>
            <AltitudeMeters>298.20001220703125</AltitudeMeters>
            <DistanceMeters>38325.522417163</DistanceMeters>
          </Trackpoint>
          <Trackpoint>
            <Time>2018-09-13T09:23:11.000Z</Time>
            <Position>
              <LatitudeDegrees>39.57045248709619045257568359375</LatitudeDegrees>
              <LongitudeDegrees>-8.148752152919769287109375</LongitudeDegrees>
            </Position>
            <AltitudeMeters>295.399993896484375</AltitudeMeters>
            <DistanceMeters>38351.06428285</DistanceMeters>
          </Trackpoint>
          <Trackpoint>
            <Time>2018-09-13T09:23:13.000Z</Time>
            <Position>
              <LatitudeDegrees>39.5702247507870197296142578125</LatitudeDegrees>
              <LongitudeDegrees>-8.1486738659441471099853515625</LongitudeDegrees>
            </Position>
            <AltitudeMeters>293.79998779296875</AltitudeMeters>
            <DistanceMeters>38377.286491012</DistanceMeters>
          </Trackpoint>
          <Trackpoint>
            <Time>2018-09-13T09:23:15.000Z</Time>
            <Position>
              <LatitudeDegrees>39.56998628564178943634033203125</LatitudeDegrees>
              <LongitudeDegrees>-8.148621059954166412353515625</LongitudeDegrees>
            </Position>
            <AltitudeMeters>294.600006103515625</AltitudeMeters>
            <DistanceMeters>38404.212105534</DistanceMeters>
          </Trackpoint>
          <Trackpoint>
            <Time>2018-09-13T09:23:17.000Z</Time>
            <Position>
              <LatitudeDegrees>39.56974019296467304229736328125</LatitudeDegrees>
              <LongitudeDegrees>-8.14859918318688869476318359375</LongitudeDegrees>
            </Position>
            <AltitudeMeters>295.600006103515625</AltitudeMeters>
            <DistanceMeters>38431.666933361</DistanceMeters>
          </Trackpoint>
          <Trackpoint>
            <Time>2018-09-13T09:23:19.000Z</Time>
            <Position>
              <LatitudeDegrees>39.56949041225016117095947265625</LatitudeDegrees>
              <LongitudeDegrees>-8.14860790036618709564208984375</LongitudeDegrees>
            </Position>
            <AltitudeMeters>296.20001220703125</AltitudeMeters>
            <DistanceMeters>38459.47795883</DistanceMeters>
          </Trackpoint>
          <Trackpoint>
            <Time>2018-09-13T09:23:21.000Z</Time>
            <Position>
              <LatitudeDegrees>39.56924180500209331512451171875</LatitudeDegrees>
              <LongitudeDegrees>-8.14864930696785449981689453125</LongitudeDegrees>
            </Position>
            <AltitudeMeters>297.79998779296875</AltitudeMeters>
            <DistanceMeters>38487.375542927</DistanceMeters>
          </Trackpoint>
          <Trackpoint>
            <Time>2018-09-13T09:23:23.000Z</Time>
            <Position>
              <LatitudeDegrees>39.56900191493332386016845703125</LatitudeDegrees>
              <LongitudeDegrees>-8.1487157754600048065185546875</LongitudeDegrees>
            </Position>
            <AltitudeMeters>299</AltitudeMeters>
            <DistanceMeters>38514.678158378</DistanceMeters>
          </Trackpoint>
          <Trackpoint>
            <Time>2018-09-13T09:23:25.000Z</Time>
            <Position>
              <LatitudeDegrees>39.5687683112919330596923828125</LatitudeDegrees>
              <LongitudeDegrees>-8.1487992592155933380126953125</LongitudeDegrees>
            </Position>
            <AltitudeMeters>299.600006103515625</AltitudeMeters>
            <DistanceMeters>38541.647168504</DistanceMeters>
          </Trackpoint>
          <Trackpoint>
            <Time>2018-09-13T09:23:27.000Z</Time>
            <Position>
              <LatitudeDegrees>39.5685389824211597442626953125</LatitudeDegrees>
              <LongitudeDegrees>-8.14888869412243366241455078125</LongitudeDegrees>
            </Position>
            <AltitudeMeters>298.600006103515625</AltitudeMeters>
            <DistanceMeters>38568.3000868</DistanceMeters>
          </Trackpoint>
          <Trackpoint>
            <Time>2018-09-13T09:23:29.000Z</Time>
            <Position>
              <LatitudeDegrees>39.56831141375005245208740234375</LatitudeDegrees>
              <LongitudeDegrees>-8.14897452481091022491455078125</LongitudeDegrees>
            </Position>
            <AltitudeMeters>296.600006103515625</AltitudeMeters>
            <DistanceMeters>38594.677660989</DistanceMeters>
          </Trackpoint>
          <Trackpoint>
            <Time>2018-09-13T09:23:30.000Z</Time>
            <Position>
              <LatitudeDegrees>39.5681990124285221099853515625</LatitudeDegrees>
              <LongitudeDegrees>-8.1490135006606578826904296875</LongitudeDegrees>
            </Position>
            <AltitudeMeters>295.600006103515625</AltitudeMeters>
            <DistanceMeters>38607.627121192</DistanceMeters>
          </Trackpoint>
          <Trackpoint>
            <Time>2018-09-13T09:23:32.000Z</Time>
            <Position>
              <LatitudeDegrees>39.56797211430966854095458984375</LatitudeDegrees>
              <LongitudeDegrees>-8.1490852497518062591552734375</LongitudeDegrees>
            </Position>
            <AltitudeMeters>293.600006103515625</AltitudeMeters>
            <DistanceMeters>38633.620705783</DistanceMeters>
          </Trackpoint>
          <Trackpoint>
            <Time>2018-09-13T09:23:36.000Z</Time>
            <Position>
              <LatitudeDegrees>39.5675083436071872711181640625</LatitudeDegrees>
              <LongitudeDegrees>-8.14917468465864658355712890625</LongitudeDegrees>
            </Position>
            <AltitudeMeters>289.600006103515625</AltitudeMeters>
            <DistanceMeters>38685.806553429</DistanceMeters>
          </Trackpoint>
          <Trackpoint>
            <Time>2018-09-13T09:23:39.000Z</Time>
            <Position>
              <LatitudeDegrees>39.5671532861888408660888671875</LatitudeDegrees>
              <LongitudeDegrees>-8.14920234493911266326904296875</LongitudeDegrees>
            </Position>
            <AltitudeMeters>287</AltitudeMeters>
            <DistanceMeters>38725.396329488</DistanceMeters>
          </Trackpoint>
          <Trackpoint>
            <Time>2018-09-13T09:23:41.000Z</Time>
            <Position>
              <LatitudeDegrees>39.56691247411072254180908203125</LatitudeDegrees>
              <LongitudeDegrees>-8.14920083619654178619384765625</LongitudeDegrees>
            </Position>
            <AltitudeMeters>284.79998779296875</AltitudeMeters>
            <DistanceMeters>38752.199590889</DistanceMeters>
          </Trackpoint>
          <Trackpoint>
            <Time>2018-09-13T09:23:42.000Z</Time>
            <Position>
              <LatitudeDegrees>39.5667911879718303680419921875</LatitudeDegrees>
              <LongitudeDegrees>-8.14919630996882915496826171875</LongitudeDegrees>
            </Position>
            <AltitudeMeters>284.399993896484375</AltitudeMeters>
            <DistanceMeters>38765.704755976</DistanceMeters>
          </Trackpoint>
          <Trackpoint>
            <Time>2018-09-13T09:23:44.000Z</Time>
            <Position>
              <LatitudeDegrees>39.56654652021825313568115234375</LatitudeDegrees>
              <LongitudeDegrees>-8.14918474294245243072509765625</LongitudeDegrees>
            </Position>
            <AltitudeMeters>283.399993896484375</AltitudeMeters>
            <DistanceMeters>38792.954898658</DistanceMeters>
          </Trackpoint>
          <Trackpoint>
            <Time>2018-09-13T09:23:48.000Z</Time>
            <Position>
              <LatitudeDegrees>39.56604578532278537750244140625</LatitudeDegrees>
              <LongitudeDegrees>-8.14915222115814685821533203125</LongitudeDegrees>
            </Position>
            <AltitudeMeters>279</AltitudeMeters>
            <DistanceMeters>38848.757430239</DistanceMeters>
          </Trackpoint>
          <Trackpoint>
            <Time>2018-09-13T09:23:50.000Z</Time>
            <Position>
              <LatitudeDegrees>39.5657910592854022979736328125</LatitudeDegrees>
              <LongitudeDegrees>-8.14913570880889892578125</LongitudeDegrees>
            </Position>
            <AltitudeMeters>275.79998779296875</AltitudeMeters>
            <DistanceMeters>38877.144185981</DistanceMeters>
          </Trackpoint>
          <Trackpoint>
            <Time>2018-09-13T09:23:52.000Z</Time>
            <Position>
              <LatitudeDegrees>39.5655362494289875030517578125</LatitudeDegrees>
              <LongitudeDegrees>-8.1491196155548095703125</LongitudeDegrees>
            </Position>
            <AltitudeMeters>272.600006103515625</AltitudeMeters>
            <DistanceMeters>38905.538575308</DistanceMeters>
          </Trackpoint>
          <Trackpoint>
            <Time>2018-09-13T09:23:54.000Z</Time>
            <Position>
              <LatitudeDegrees>39.56528303213417530059814453125</LatitudeDegrees>
              <LongitudeDegrees>-8.1491050310432910919189453125</LongitudeDegrees>
            </Position>
            <AltitudeMeters>271</AltitudeMeters>
            <DistanceMeters>38933.750148777</DistanceMeters>
          </Trackpoint>
          <Trackpoint>
            <Time>2018-09-13T09:23:57.000Z</Time>
            <Position>
              <LatitudeDegrees>39.56490718759596347808837890625</LatitudeDegrees>
              <LongitudeDegrees>-8.149086423218250274658203125</LongitudeDegrees>
            </Position>
            <AltitudeMeters>267.399993896484375</AltitudeMeters>
            <DistanceMeters>38975.612840946</DistanceMeters>
          </Trackpoint>
          <Trackpoint>
            <Time>2018-09-13T09:23:58.000Z</Time>
            <Position>
              <LatitudeDegrees>39.564785063266754150390625</LatitudeDegrees>
              <LongitudeDegrees>-8.1490782089531421661376953125</LongitudeDegrees>
            </Position>
            <AltitudeMeters>266.20001220703125</AltitudeMeters>
            <DistanceMeters>38989.223904399</DistanceMeters>
          </Trackpoint>
          <Trackpoint>
            <Time>2018-09-13T09:23:59.000Z</Time>
            <Position>
              <LatitudeDegrees>39.56466310657560825347900390625</LatitudeDegrees>
              <LongitudeDegrees>-8.14906932413578033447265625</LongitudeDegrees>
            </Position>
            <AltitudeMeters>265.20001220703125</AltitudeMeters>
            <DistanceMeters>39002.819036052</DistanceMeters>
          </Trackpoint>
          <Trackpoint>
            <Time>2018-09-13T09:24:01.000Z</Time>
            <Position>
              <LatitudeDegrees>39.56442036665976047515869140625</LatitudeDegrees>
              <LongitudeDegrees>-8.149050883948802947998046875</LongitudeDegrees>
            </Position>
            <AltitudeMeters>263.79998779296875</AltitudeMeters>
            <DistanceMeters>39029.882804461</DistanceMeters>
          </Trackpoint>
          <Trackpoint>
            <Time>2018-09-13T09:24:03.000Z</Time>
            <Position>
              <LatitudeDegrees>39.5641770400106906890869140625</LatitudeDegrees>
              <LongitudeDegrees>-8.1490312702953815460205078125</LongitudeDegrees>
            </Position>
            <AltitudeMeters>261.79998779296875</AltitudeMeters>
            <DistanceMeters>39057.017882004</DistanceMeters>
          </Trackpoint>
          <Trackpoint>
            <Time>2018-09-13T09:24:04.000Z</Time>
            <Position>
              <LatitudeDegrees>39.56405541859567165374755859375</LatitudeDegrees>
              <LongitudeDegrees>-8.14902179874479770660400390625</LongitudeDegrees>
            </Position>
            <AltitudeMeters>260.79998779296875</AltitudeMeters>
            <DistanceMeters>39070.579096436</DistanceMeters>
          </Trackpoint>
          <Trackpoint>
            <Time>2018-09-13T09:24:05.000Z</Time>
            <Position>
              <LatitudeDegrees>39.56393354572355747222900390625</LatitudeDegrees>
              <LongitudeDegrees>-8.14901207573711872100830078125</LongitudeDegrees>
            </Position>
            <AltitudeMeters>259.79998779296875</AltitudeMeters>
            <DistanceMeters>39084.16924557</DistanceMeters>
          </Trackpoint>
          <Trackpoint>
            <Time>2018-09-13T09:24:06.000Z</Time>
            <Position>
              <LatitudeDegrees>39.563811756670475006103515625</LatitudeDegrees>
              <LongitudeDegrees>-8.14900252036750316619873046875</LongitudeDegrees>
            </Position>
            <AltitudeMeters>258.20001220703125</AltitudeMeters>
            <DistanceMeters>39097.749091709</DistanceMeters>
          </Trackpoint>
          <Trackpoint>
            <Time>2018-09-13T09:24:08.000Z</Time>
            <Position>
              <LatitudeDegrees>39.5635686814785003662109375</LatitudeDegrees>
              <LongitudeDegrees>-8.14898760057985782623291015625</LongitudeDegrees>
            </Position>
            <AltitudeMeters>256.20001220703125</AltitudeMeters>
            <DistanceMeters>39124.833872493</DistanceMeters>
          </Trackpoint>
          <Trackpoint>
            <Time>2018-09-13T09:24:10.000Z</Time>
            <Position>
              <LatitudeDegrees>39.5633251033723354339599609375</LatitudeDegrees>
              <LongitudeDegrees>-8.14896983094513416290283203125</LongitudeDegrees>
            </Position>
            <AltitudeMeters>255</AltitudeMeters>
            <DistanceMeters>39151.9872469</DistanceMeters>
          </Trackpoint>
          <Trackpoint>
            <Time>2018-09-13T09:24:14.000Z</Time>
            <Position>
              <LatitudeDegrees>39.56283065490424633026123046875</LatitudeDegrees>
              <LongitudeDegrees>-8.14893915317952632904052734375</LongitudeDegrees>
            </Position>
            <AltitudeMeters>251.8000030517578125</AltitudeMeters>
            <DistanceMeters>39207.083240924</DistanceMeters>
          </Trackpoint>
          <Trackpoint>
            <Time>2018-09-13T09:24:15.000Z</Time>
            <Position>
              <LatitudeDegrees>39.56270811147987842559814453125</LatitudeDegrees>
              <LongitudeDegrees>-8.14892984926700592041015625</LongitudeDegrees>
            </Position>
            <AltitudeMeters>251</AltitudeMeters>
            <DistanceMeters>39220.745954427</DistanceMeters>
          </Trackpoint>
          <Trackpoint>
            <Time>2018-09-13T09:24:17.000Z</Time>
            <Position>
              <LatitudeDegrees>39.5624644495546817779541015625</LatitudeDegrees>
              <LongitudeDegrees>-8.14891266636550426483154296875</LongitudeDegrees>
            </Position>
            <AltitudeMeters>249.399993896484375</AltitudeMeters>
            <DistanceMeters>39247.905979182</DistanceMeters>
          </Trackpoint>
          <Trackpoint>
            <Time>2018-09-13T09:24:19.000Z</Time>
            <Position>
              <LatitudeDegrees>39.5622207038104534149169921875</LatitudeDegrees>
              <LongitudeDegrees>-8.14889087341725826263427734375</LongitudeDegrees>
            </Position>
            <AltitudeMeters>248</AltitudeMeters>
            <DistanceMeters>39275.099895419</DistanceMeters>
          </Trackpoint>
          <Trackpoint>
            <Time>2018-09-13T09:24:20.000Z</Time>
            <Position>
              <LatitudeDegrees>39.56209857948124408721923828125</LatitudeDegrees>
              <LongitudeDegrees>-8.1488822400569915771484375</LongitudeDegrees>
            </Position>
            <AltitudeMeters>247.399993896484375</AltitudeMeters>
            <DistanceMeters>39288.712949036</DistanceMeters>
          </Trackpoint>
          <Trackpoint>
            <Time>2018-09-13T09:24:21.000Z</Time>
            <Position>
              <LatitudeDegrees>39.5619759522378444671630859375</LatitudeDegrees>
              <LongitudeDegrees>-8.14887427724897861480712890625</LongitudeDegrees>
            </Position>
            <AltitudeMeters>247</AltitudeMeters>
            <DistanceMeters>39302.378966781</DistanceMeters>
          </Trackpoint>
          <Trackpoint>
            <Time>2018-09-13T09:24:23.000Z</Time>
            <Position>
              <LatitudeDegrees>39.56173094920814037322998046875</LatitudeDegrees>
              <LongitudeDegrees>-8.14885885454714298248291015625</LongitudeDegrees>
            </Position>
            <AltitudeMeters>246</AltitudeMeters>
            <DistanceMeters>39329.680424616</DistanceMeters>
          </Trackpoint>
          <Trackpoint>
            <Time>2018-09-13T09:24:26.000Z</Time>
            <Position>
              <LatitudeDegrees>39.5613630674779415130615234375</LatitudeDegrees>
              <LongitudeDegrees>-8.14882901497185230255126953125</LongitudeDegrees>
            </Position>
            <AltitudeMeters>244.1999969482421875</AltitudeMeters>
            <DistanceMeters>39370.706440857</DistanceMeters>
          </Trackpoint>
          <Trackpoint>
            <Time>2018-09-13T09:24:29.000Z</Time>
            <Position>
              <LatitudeDegrees>39.56099920906126499176025390625</LatitudeDegrees>
              <LongitudeDegrees>-8.14880621619522571563720703125</LongitudeDegrees>
            </Position>
            <AltitudeMeters>243.600006103515625</AltitudeMeters>
            <DistanceMeters>39411.25179098</DistanceMeters>
          </Trackpoint>
          <Trackpoint>
            <Time>2018-09-13T09:24:31.000Z</Time>
            <Position>
              <LatitudeDegrees>39.5607592351734638214111328125</LatitudeDegrees>
              <LongitudeDegrees>-8.14879397861659526824951171875</LongitudeDegrees>
            </Position>
            <AltitudeMeters>243.600006103515625</AltitudeMeters>
            <DistanceMeters>39437.981844638</DistanceMeters>
          </Trackpoint>
          <Trackpoint>
            <Time>2018-09-13T09:24:35.000Z</Time>
            <Position>
              <LatitudeDegrees>39.5602804608643054962158203125</LatitudeDegrees>
              <LongitudeDegrees>-8.14879615791141986846923828125</LongitudeDegrees>
            </Position>
            <AltitudeMeters>243</AltitudeMeters>
            <DistanceMeters>39491.27073841</DistanceMeters>
          </Trackpoint>
          <Trackpoint>
            <Time>2018-09-13T09:24:37.000Z</Time>
            <Position>
              <LatitudeDegrees>39.5600481145083904266357421875</LatitudeDegrees>
              <LongitudeDegrees>-8.14881853759288787841796875</LongitudeDegrees>
            </Position>
            <AltitudeMeters>242.1999969482421875</AltitudeMeters>
            <DistanceMeters>39517.202412723</DistanceMeters>
          </Trackpoint>
          <Trackpoint>
            <Time>2018-09-13T09:24:42.000Z</Time>
            <Position>
              <LatitudeDegrees>39.55949909985065460205078125</LatitudeDegrees>
              <LongitudeDegrees>-8.148950636386871337890625</LongitudeDegrees>
            </Position>
            <AltitudeMeters>240.600006103515625</AltitudeMeters>
            <DistanceMeters>39579.351191614</DistanceMeters>
          </Trackpoint>
          <Trackpoint>
            <Time>2018-09-13T09:24:47.000Z</Time>
            <Position>
              <LatitudeDegrees>39.55901202745735645294189453125</LatitudeDegrees>
              <LongitudeDegrees>-8.14917535521090030670166015625</LongitudeDegrees>
            </Position>
            <AltitudeMeters>241.600006103515625</AltitudeMeters>
            <DistanceMeters>39636.890632239</DistanceMeters>
          </Trackpoint>
          <Trackpoint>
            <Time>2018-09-13T09:24:52.000Z</Time>
            <Position>
              <LatitudeDegrees>39.5585403777658939361572265625</LatitudeDegrees>
              <LongitudeDegrees>-8.14944726414978504180908203125</LongitudeDegrees>
            </Position>
            <AltitudeMeters>242.399993896484375</AltitudeMeters>
            <DistanceMeters>39694.338034076</DistanceMeters>
          </Trackpoint>
          <Trackpoint>
            <Time>2018-09-13T09:24:58.000Z</Time>
            <Position>
              <LatitudeDegrees>39.5579655468463897705078125</LatitudeDegrees>
              <LongitudeDegrees>-8.14978304319083690643310546875</LongitudeDegrees>
            </Position>
            <AltitudeMeters>241.1999969482421875</AltitudeMeters>
            <DistanceMeters>39764.506753468</DistanceMeters>
          </Trackpoint>
          <Trackpoint>
            <Time>2018-09-13T09:25:04.000Z</Time>
            <Position>
              <LatitudeDegrees>39.55741879530251026153564453125</LatitudeDegrees>
              <LongitudeDegrees>-8.1500999629497528076171875</LongitudeDegrees>
            </Position>
            <AltitudeMeters>238.399993896484375</AltitudeMeters>
            <DistanceMeters>39831.161609638</DistanceMeters>
          </Trackpoint>
          <Trackpoint>
            <Time>2018-09-13T09:25:06.000Z</Time>
            <Position>
              <LatitudeDegrees>39.55723975785076618194580078125</LatitudeDegrees>
              <LongitudeDegrees>-8.15020163543522357940673828125</LongitudeDegrees>
            </Position>
            <AltitudeMeters>237.1999969482421875</AltitudeMeters>
            <DistanceMeters>39852.915049044</DistanceMeters>
          </Trackpoint>
          <Trackpoint>
            <Time>2018-09-13T09:25:09.000Z</Time>
            <Position>
              <LatitudeDegrees>39.55696516670286655426025390625</LatitudeDegrees>
              <LongitudeDegrees>-8.15034211613237857818603515625</LongitudeDegrees>
            </Position>
            <AltitudeMeters>236</AltitudeMeters>
            <DistanceMeters>39885.769152708</DistanceMeters>
          </Trackpoint>
          <Trackpoint>
            <Time>2018-09-13T09:25:13.000Z</Time>
            <Position>
              <LatitudeDegrees>39.556589238345623016357421875</LatitudeDegrees>
              <LongitudeDegrees>-8.15050975419580936431884765625</LongitudeDegrees>
            </Position>
            <AltitudeMeters>236.8000030517578125</AltitudeMeters>
            <DistanceMeters>39930.014574647</DistanceMeters>
          </Trackpoint>
          <Trackpoint>
            <Time>2018-09-13T09:25:16.000Z</Time>
            <Position>
              <LatitudeDegrees>39.5563077740371227264404296875</LatitudeDegrees>
              <LongitudeDegrees>-8.15062777139246463775634765625</LongitudeDegrees>
            </Position>
            <AltitudeMeters>236.600006103515625</AltitudeMeters>
            <DistanceMeters>39962.938554304</DistanceMeters>
          </Trackpoint>
          <Trackpoint>
            <Time>2018-09-13T09:25:21.000Z</Time>
            <Position>
              <LatitudeDegrees>39.5558323524892330169677734375</LatitudeDegrees>
              <LongitudeDegrees>-8.15079960040748119354248046875</LongitudeDegrees>
            </Position>
            <AltitudeMeters>236.399993896484375</AltitudeMeters>
            <DistanceMeters>40017.86991351</DistanceMeters>
          </Trackpoint>
          <Trackpoint>
            <Time>2018-09-13T09:25:27.000Z</Time>
            <Position>
              <LatitudeDegrees>39.55524771474301815032958984375</LatitudeDegrees>
              <LongitudeDegrees>-8.15096564590930938720703125</LongitudeDegrees>
            </Position>
            <AltitudeMeters>234.8000030517578125</AltitudeMeters>
            <DistanceMeters>40084.483165827</DistanceMeters>
          </Trackpoint>
          <Trackpoint>
            <Time>2018-09-13T09:25:31.000Z</Time>
            <Position>
              <LatitudeDegrees>39.55485192127525806427001953125</LatitudeDegrees>
              <LongitudeDegrees>-8.151053488254547119140625</LongitudeDegrees>
            </Position>
            <AltitudeMeters>230</AltitudeMeters>
            <DistanceMeters>40129.176038965</DistanceMeters>
          </Trackpoint>
          <Trackpoint>
            <Time>2018-09-13T09:25:36.000Z</Time>
            <Position>
              <LatitudeDegrees>39.5543507672846317291259765625</LatitudeDegrees>
              <LongitudeDegrees>-8.15113739110529422760009765625</LongitudeDegrees>
            </Position>
            <AltitudeMeters>223.1999969482421875</AltitudeMeters>
            <DistanceMeters>40185.418208179</DistanceMeters>
          </Trackpoint>
          <Trackpoint>
            <Time>2018-09-13T09:25:37.000Z</Time>
            <Position>
              <LatitudeDegrees>39.55424867570400238037109375</LatitudeDegrees>
              <LongitudeDegrees>-8.1511522270739078521728515625</LongitudeDegrees>
            </Position>
            <AltitudeMeters>222</AltitudeMeters>
            <DistanceMeters>40196.852255877</DistanceMeters>
          </Trackpoint>
          <Trackpoint>
            <Time>2018-09-13T09:25:39.000Z</Time>
            <Position>
              <LatitudeDegrees>39.554039798676967620849609375</LatitudeDegrees>
              <LongitudeDegrees>-8.15117695368826389312744140625</LongitudeDegrees>
            </Position>
            <AltitudeMeters>219.600006103515625</AltitudeMeters>
            <DistanceMeters>40220.19751736</DistanceMeters>
          </Trackpoint>
          <Trackpoint>
            <Time>2018-09-13T09:25:42.000Z</Time>
            <Position>
              <LatitudeDegrees>39.55371248535811901092529296875</LatitudeDegrees>
              <LongitudeDegrees>-8.1512095592916011810302734375</LongitudeDegrees>
            </Position>
            <AltitudeMeters>216</AltitudeMeters>
            <DistanceMeters>40256.735505285</DistanceMeters>
          </Trackpoint>
          <Trackpoint>
            <Time>2018-09-13T09:25:43.000Z</Time>
            <Position>
              <LatitudeDegrees>39.5535987429320812225341796875</LatitudeDegrees>
              <LongitudeDegrees>-8.15121685154736042022705078125</LongitudeDegrees>
            </Position>
            <AltitudeMeters>216</AltitudeMeters>
            <DistanceMeters>40269.410800946</DistanceMeters>
          </Trackpoint>
          <Trackpoint>
            <Time>2018-09-13T09:25:44.000Z</Time>
            <Position>
              <LatitudeDegrees>39.553482569754123687744140625</LatitudeDegrees>
              <LongitudeDegrees>-8.1512212939560413360595703125</LongitudeDegrees>
            </Position>
            <AltitudeMeters>216.600006103515625</AltitudeMeters>
            <DistanceMeters>40282.346656023</DistanceMeters>
          </Trackpoint>
          <Trackpoint>
            <Time>2018-09-13T09:25:46.000Z</Time>
            <Position>
              <LatitudeDegrees>39.55324821174144744873046875</LatitudeDegrees>
              <LongitudeDegrees>-8.1512246467173099517822265625</LongitudeDegrees>
            </Position>
            <AltitudeMeters>216.399993896484375</AltitudeMeters>
            <DistanceMeters>40308.432830535</DistanceMeters>
          </Trackpoint>
          <Trackpoint>
            <Time>2018-09-13T09:25:49.000Z</Time>
            <Position>
              <LatitudeDegrees>39.55289474688470363616943359375</LatitudeDegrees>
              <LongitudeDegrees>-8.15122908912599086761474609375</LongitudeDegrees>
            </Position>
            <AltitudeMeters>214.600006103515625</AltitudeMeters>
            <DistanceMeters>40347.776070789</DistanceMeters>
          </Trackpoint>
          <Trackpoint>
            <Time>2018-09-13T09:25:52.000Z</Time>
            <Position>
              <LatitudeDegrees>39.5525298826396465301513671875</LatitudeDegrees>
              <LongitudeDegrees>-8.151236213743686676025390625</LongitudeDegrees>
            </Position>
            <AltitudeMeters>215.600006103515625</AltitudeMeters>
            <DistanceMeters>40388.390848695</DistanceMeters>
          </Trackpoint>
          <Trackpoint>
            <Time>2018-09-13T09:25:55.000Z</Time>
            <Position>
              <LatitudeDegrees>39.55217692069709300994873046875</LatitudeDegrees>
              <LongitudeDegrees>-8.1512534804642200469970703125</LongitudeDegrees>
            </Position>
            <AltitudeMeters>215.8000030517578125</AltitudeMeters>
            <DistanceMeters>40427.704125125</DistanceMeters>
          </Trackpoint>
          <Trackpoint>
            <Time>2018-09-13T09:25:56.000Z</Time>
            <Position>
              <LatitudeDegrees>39.55205907113850116729736328125</LatitudeDegrees>
              <LongitudeDegrees>-8.15125909633934497833251953125</LongitudeDegrees>
            </Position>
            <AltitudeMeters>215.8000030517578125</AltitudeMeters>
            <DistanceMeters>40440.829856665</DistanceMeters>
          </Trackpoint>
          <Trackpoint>
            <Time>2018-09-13T09:25:57.000Z</Time>
            <Position>
              <LatitudeDegrees>39.55194122157990932464599609375</LatitudeDegrees>
              <LongitudeDegrees>-8.15126513130962848663330078125</LongitudeDegrees>
            </Position>
            <AltitudeMeters>215.600006103515625</AltitudeMeters>
            <DistanceMeters>40453.957308012</DistanceMeters>
          </Trackpoint>
          <Trackpoint>
            <Time>2018-09-13T09:25:59.000Z</Time>
            <Position>
              <LatitudeDegrees>39.5517205260694026947021484375</LatitudeDegrees>
              <LongitudeDegrees>-8.151279799640178680419921875</LongitudeDegrees>
            </Position>
            <AltitudeMeters>214.600006103515625</AltitudeMeters>
            <DistanceMeters>40478.553445338</DistanceMeters>
          </Trackpoint>
          <Trackpoint>
            <Time>2018-09-13T09:26:03.000Z</Time>
            <Position>
              <LatitudeDegrees>39.55136890523135662078857421875</LatitudeDegrees>
              <LongitudeDegrees>-8.15130083821713924407958984375</LongitudeDegrees>
            </Position>
            <AltitudeMeters>215</AltitudeMeters>
            <DistanceMeters>40517.731197617</DistanceMeters>
          </Trackpoint>
          <Trackpoint>
            <Time>2018-09-13T09:26:05.000Z</Time>
            <Position>
              <LatitudeDegrees>39.55123261548578739166259765625</LatitudeDegrees>
              <LongitudeDegrees>-8.1513047777116298675537109375</LongitudeDegrees>
            </Position>
            <AltitudeMeters>215.1999969482421875</AltitudeMeters>
            <DistanceMeters>40532.903664087</DistanceMeters>
          </Trackpoint>
          <Trackpoint>
            <Time>2018-09-13T09:26:09.000Z</Time>
            <Position>
              <LatitudeDegrees>39.5510573498904705047607421875</LatitudeDegrees>
              <LongitudeDegrees>-8.15130385570228099822998046875</LongitudeDegrees>
            </Position>
            <AltitudeMeters>214.399993896484375</AltitudeMeters>
            <DistanceMeters>40552.411239065</DistanceMeters>
          </Trackpoint>
          <Trackpoint>
            <Time>2018-09-13T09:26:17.000Z</Time>
            <Position>
              <LatitudeDegrees>39.55080295912921428680419921875</LatitudeDegrees>
              <LongitudeDegrees>-8.1513094715774059295654296875</LongitudeDegrees>
            </Position>
            <AltitudeMeters>213</AltitudeMeters>
            <DistanceMeters>40580.729518827</DistanceMeters>
          </Trackpoint>
          <Trackpoint>
            <Time>2018-09-13T09:26:20.000Z</Time>
            <Position>
              <LatitudeDegrees>39.5506456308066844940185546875</LatitudeDegrees>
              <LongitudeDegrees>-8.15131860785186290740966796875</LongitudeDegrees>
            </Position>
            <AltitudeMeters>212.8000030517578125</AltitudeMeters>
            <DistanceMeters>40598.257762348</DistanceMeters>
          </Trackpoint>
          <Trackpoint>
            <Time>2018-09-13T09:26:22.000Z</Time>
            <Position>
              <LatitudeDegrees>39.550523422658443450927734375</LatitudeDegrees>
              <LongitudeDegrees>-8.15131341107189655303955078125</LongitudeDegrees>
            </Position>
            <AltitudeMeters>212.600006103515625</AltitudeMeters>
            <DistanceMeters>40611.867167109</DistanceMeters>
          </Trackpoint>
          <Trackpoint>
            <Time>2018-09-13T09:26:25.000Z</Time>
            <Position>
              <LatitudeDegrees>39.550321586430072784423828125</LatitudeDegrees>
              <LongitudeDegrees>-8.1513171829283237457275390625</LongitudeDegrees>
            </Position>
            <AltitudeMeters>212.399993896484375</AltitudeMeters>
            <DistanceMeters>40634.334103105</DistanceMeters>
          </Trackpoint>
          <Trackpoint>
            <Time>2018-09-13T09:26:28.000Z</Time>
            <Position>
              <LatitudeDegrees>39.55010307021439075469970703125</LatitudeDegrees>
              <LongitudeDegrees>-8.15131961368024349212646484375</LongitudeDegrees>
            </Position>
            <AltitudeMeters>212.399993896484375</AltitudeMeters>
            <DistanceMeters>40658.656301565</DistanceMeters>
          </Trackpoint>
          <Trackpoint>
            <Time>2018-09-13T09:26:35.000Z</Time>
            <Position>
              <LatitudeDegrees>39.54955883324146270751953125</LatitudeDegrees>
              <LongitudeDegrees>-8.151313997805118560791015625</LongitudeDegrees>
            </Position>
            <AltitudeMeters>212</AltitudeMeters>
            <DistanceMeters>40719.232832039</DistanceMeters>
          </Trackpoint>
          <Trackpoint>
            <Time>2018-09-13T09:26:36.000Z</Time>
            <Position>
              <LatitudeDegrees>39.54948230646550655364990234375</LatitudeDegrees>
              <LongitudeDegrees>-8.15131223760545253753662109375</LongitudeDegrees>
            </Position>
            <AltitudeMeters>211.8000030517578125</AltitudeMeters>
            <DistanceMeters>40727.75138205</DistanceMeters>
          </Trackpoint>
          <Trackpoint>
            <Time>2018-09-13T09:26:41.000Z</Time>
            <Position>
              <LatitudeDegrees>39.54909858293831348419189453125</LatitudeDegrees>
              <LongitudeDegrees>-8.1513148359954357147216796875</LongitudeDegrees>
            </Position>
            <AltitudeMeters>210</AltitudeMeters>
            <DistanceMeters>40770.461001131</DistanceMeters>
          </Trackpoint>
          <Trackpoint>
            <Time>2018-09-13T09:26:44.000Z</Time>
            <Position>
              <LatitudeDegrees>39.54886305145919322967529296875</LatitudeDegrees>
              <LongitudeDegrees>-8.15132011659443378448486328125</LongitudeDegrees>
            </Position>
            <AltitudeMeters>208.8000030517578125</AltitudeMeters>
            <DistanceMeters>40796.680109802</DistanceMeters>
          </Trackpoint>
          <Trackpoint>
            <Time>2018-09-13T09:26:50.000Z</Time>
            <Position>
              <LatitudeDegrees>39.54838243313133716583251953125</LatitudeDegrees>
              <LongitudeDegrees>-8.151327408850193023681640625</LongitudeDegrees>
            </Position>
            <AltitudeMeters>207.600006103515625</AltitudeMeters>
            <DistanceMeters>40850.177618138</DistanceMeters>
          </Trackpoint>
          <Trackpoint>
            <Time>2018-09-13T09:26:54.000Z</Time>
            <Position>
              <LatitudeDegrees>39.54805453307926654815673828125</LatitudeDegrees>
              <LongitudeDegrees>-8.15133520402014255523681640625</LongitudeDegrees>
            </Position>
            <AltitudeMeters>208</AltitudeMeters>
            <DistanceMeters>40886.67962917</DistanceMeters>
          </Trackpoint>
          <Trackpoint>
            <Time>2018-09-13T09:27:01.000Z</Time>
            <Position>
              <LatitudeDegrees>39.5474874973297119140625</LatitudeDegrees>
              <LongitudeDegrees>-8.1513471901416778564453125</LongitudeDegrees>
            </Position>
            <AltitudeMeters>206.8000030517578125</AltitudeMeters>
            <DistanceMeters>40949.800189831</DistanceMeters>
          </Trackpoint>
          <Trackpoint>
            <Time>2018-09-13T09:27:07.000Z</Time>
            <Position>
              <LatitudeDegrees>39.54698466695845127105712890625</LatitudeDegrees>
              <LongitudeDegrees>-8.15135397948324680328369140625</LongitudeDegrees>
            </Position>
            <AltitudeMeters>204.399993896484375</AltitudeMeters>
            <DistanceMeters>41005.769069204</DistanceMeters>
          </Trackpoint>
          <Trackpoint>
            <Time>2018-09-13T09:27:14.000Z</Time>
            <Position>
              <LatitudeDegrees>39.5463725365698337554931640625</LatitudeDegrees>
              <LongitudeDegrees>-8.15136529505252838134765625</LongitudeDegrees>
            </Position>
            <AltitudeMeters>200.1999969482421875</AltitudeMeters>
            <DistanceMeters>41073.907331831</DistanceMeters>
          </Trackpoint>
          <Trackpoint>
            <Time>2018-09-13T09:27:20.000Z</Time>
            <Position>
              <LatitudeDegrees>39.54582494683563709259033203125</LatitudeDegrees>
              <LongitudeDegrees>-8.1513741798698902130126953125</LongitudeDegrees>
            </Position>
            <AltitudeMeters>196.8000030517578125</AltitudeMeters>
            <DistanceMeters>41134.859913902</DistanceMeters>
          </Trackpoint>
          <Trackpoint>
            <Time>2018-09-13T09:27:23.000Z</Time>
            <Position>
              <LatitudeDegrees>39.5455477572977542877197265625</LatitudeDegrees>
              <LongitudeDegrees>-8.15137996338307857513427734375</LongitudeDegrees>
            </Position>
            <AltitudeMeters>196.399993896484375</AltitudeMeters>
            <DistanceMeters>41165.715513876</DistanceMeters>
          </Trackpoint>
          <Trackpoint>
            <Time>2018-09-13T09:27:28.000Z</Time>
            <Position>
              <LatitudeDegrees>39.54508180730044841766357421875</LatitudeDegrees>
              <LongitudeDegrees>-8.15138985402882099151611328125</LongitudeDegrees>
            </Position>
            <AltitudeMeters>195.8000030517578125</AltitudeMeters>
            <DistanceMeters>41217.583563334</DistanceMeters>
          </Trackpoint>
          <Trackpoint>
            <Time>2018-09-13T09:27:31.000Z</Time>
            <Position>
              <LatitudeDegrees>39.5447987504303455352783203125</LatitudeDegrees>
              <LongitudeDegrees>-8.1513956375420093536376953125</LongitudeDegrees>
            </Position>
            <AltitudeMeters>196.399993896484375</AltitudeMeters>
            <DistanceMeters>41249.092335519</DistanceMeters>
          </Trackpoint>
          <Trackpoint>
            <Time>2018-09-13T09:27:34.000Z</Time>
            <Position>
              <LatitudeDegrees>39.54451284371316432952880859375</LatitudeDegrees>
              <LongitudeDegrees>-8.1514010019600391387939453125</LongitudeDegrees>
            </Position>
            <AltitudeMeters>200.1999969482421875</AltitudeMeters>
            <DistanceMeters>41280.917631971</DistanceMeters>
          </Trackpoint>
          <Trackpoint>
            <Time>2018-09-13T09:27:37.000Z</Time>
            <Position>
              <LatitudeDegrees>39.54422920010983943939208984375</LatitudeDegrees>
              <LongitudeDegrees>-8.151405863463878631591796875</LongitudeDegrees>
            </Position>
            <AltitudeMeters>201.399993896484375</AltitudeMeters>
            <DistanceMeters>41312.490248882</DistanceMeters>
          </Trackpoint>
          <Trackpoint>
            <Time>2018-09-13T09:27:44.000Z</Time>
            <Position>
              <LatitudeDegrees>39.5436049997806549072265625</LatitudeDegrees>
              <LongitudeDegrees>-8.1514201126992702484130859375</LongitudeDegrees>
            </Position>
            <AltitudeMeters>202.600006103515625</AltitudeMeters>
            <DistanceMeters>41381.97576819</DistanceMeters>
          </Trackpoint>
          <Trackpoint>
            <Time>2018-09-13T09:27:51.000Z</Time>
            <Position>
              <LatitudeDegrees>39.5430482737720012664794921875</LatitudeDegrees>
              <LongitudeDegrees>-8.151409886777400970458984375</LongitudeDegrees>
            </Position>
            <AltitudeMeters>205.8000030517578125</AltitudeMeters>
            <DistanceMeters>41443.946738901</DistanceMeters>
          </Trackpoint>
          <Trackpoint>
            <Time>2018-09-13T09:27:55.000Z</Time>
            <Position>
              <LatitudeDegrees>39.54275541007518768310546875</LatitudeDegrees>
              <LongitudeDegrees>-8.15138532780110836029052734375</LongitudeDegrees>
            </Position>
            <AltitudeMeters>206</AltitudeMeters>
            <DistanceMeters>41476.611057542</DistanceMeters>
          </Trackpoint>
          <Trackpoint>
            <Time>2018-09-13T09:27:59.000Z</Time>
            <Position>
              <LatitudeDegrees>39.5424655638635158538818359375</LatitudeDegrees>
              <LongitudeDegrees>-8.15133285708725452423095703125</LongitudeDegrees>
            </Position>
            <AltitudeMeters>208.1999969482421875</AltitudeMeters>
            <DistanceMeters>41509.184296896</DistanceMeters>
          </Trackpoint>
          <Trackpoint>
            <Time>2018-09-13T09:28:02.000Z</Time>
            <Position>
              <LatitudeDegrees>39.5422546751797199249267578125</LatitudeDegrees>
              <LongitudeDegrees>-8.15128256566822528839111328125</LongitudeDegrees>
            </Position>
            <AltitudeMeters>208</AltitudeMeters>
            <DistanceMeters>41533.050195199</DistanceMeters>
          </Trackpoint>
          <Trackpoint>
            <Time>2018-09-13T09:28:07.000Z</Time>
            <Position>
              <LatitudeDegrees>39.54191562719643115997314453125</LatitudeDegrees>
              <LongitudeDegrees>-8.15116873942315578460693359375</LongitudeDegrees>
            </Position>
            <AltitudeMeters>206.600006103515625</AltitudeMeters>
            <DistanceMeters>41572.0309596</DistanceMeters>
          </Trackpoint>
          <Trackpoint>
            <Time>2018-09-13T09:28:10.000Z</Time>
            <Position>
              <LatitudeDegrees>39.541723430156707763671875</LatitudeDegrees>
              <LongitudeDegrees>-8.151086680591106414794921875</LongitudeDegrees>
            </Position>
            <AltitudeMeters>205.399993896484375</AltitudeMeters>
            <DistanceMeters>41594.552491383</DistanceMeters>
          </Trackpoint>
          <Trackpoint>
            <Time>2018-09-13T09:28:17.000Z</Time>
            <Position>
              <LatitudeDegrees>39.54129788093268871307373046875</LatitudeDegrees>
              <LongitudeDegrees>-8.1508712656795978546142578125</LongitudeDegrees>
            </Position>
            <AltitudeMeters>204.8000030517578125</AltitudeMeters>
            <DistanceMeters>41645.397911093</DistanceMeters>
          </Trackpoint>
          <Trackpoint>
            <Time>2018-09-13T09:28:19.000Z</Time>
            <Position>
              <LatitudeDegrees>39.54118154011666774749755859375</LatitudeDegrees>
              <LongitudeDegrees>-8.150799684226512908935546875</LongitudeDegrees>
            </Position>
            <AltitudeMeters>204.399993896484375</AltitudeMeters>
            <DistanceMeters>41659.730258386</DistanceMeters>
          </Trackpoint>
          <Trackpoint>
            <Time>2018-09-13T09:28:23.000Z</Time>
            <Position>
              <LatitudeDegrees>39.5409538038074970245361328125</LatitudeDegrees>
              <LongitudeDegrees>-8.15065710805356502532958984375</LongitudeDegrees>
            </Position>
            <AltitudeMeters>205.399993896484375</AltitudeMeters>
            <DistanceMeters>41687.877261012</DistanceMeters>
          </Trackpoint>
          <Trackpoint>
            <Time>2018-09-13T09:28:28.000Z</Time>
            <Position>
              <LatitudeDegrees>39.5406768657267093658447265625</LatitudeDegrees>
              <LongitudeDegrees>-8.1504781544208526611328125</LongitudeDegrees>
            </Position>
            <AltitudeMeters>206.8000030517578125</AltitudeMeters>
            <DistanceMeters>41722.316153712</DistanceMeters>
          </Trackpoint>
          <Trackpoint>
            <Time>2018-09-13T09:28:36.000Z</Time>
            <Position>
              <LatitudeDegrees>39.54024980776011943817138671875</LatitudeDegrees>
              <LongitudeDegrees>-8.15019853413105010986328125</LongitudeDegrees>
            </Position>
            <AltitudeMeters>208.1999969482421875</AltitudeMeters>
            <DistanceMeters>41775.564362722</DistanceMeters>
          </Trackpoint>
          <Trackpoint>
            <Time>2018-09-13T09:28:45.000Z</Time>
            <Position>
              <LatitudeDegrees>39.5397816784679889678955078125</LatitudeDegrees>
              <LongitudeDegrees>-8.14989049918949604034423828125</LongitudeDegrees>
            </Position>
            <AltitudeMeters>208.8000030517578125</AltitudeMeters>
            <DistanceMeters>41833.992579535</DistanceMeters>
          </Trackpoint>
          <Trackpoint>
            <Time>2018-09-13T09:28:54.000Z</Time>
            <Position>
              <LatitudeDegrees>39.53931472264230251312255859375</LatitudeDegrees>
              <LongitudeDegrees>-8.149583302438259124755859375</LongitudeDegrees>
            </Position>
            <AltitudeMeters>207.399993896484375</AltitudeMeters>
            <DistanceMeters>41892.271929677</DistanceMeters>
          </Trackpoint>
          <Trackpoint>
            <Time>2018-09-13T09:29:04.000Z</Time>
            <Position>
              <LatitudeDegrees>39.53880275599658489227294921875</LatitudeDegrees>
              <LongitudeDegrees>-8.14924811013042926788330078125</LongitudeDegrees>
            </Position>
            <AltitudeMeters>205.399993896484375</AltitudeMeters>
            <DistanceMeters>41956.106403556</DistanceMeters>
          </Trackpoint>
          <Trackpoint>
            <Time>2018-09-13T09:29:11.000Z</Time>
            <Position>
              <LatitudeDegrees>39.538444764912128448486328125</LatitudeDegrees>
              <LongitudeDegrees>-8.14901559613645076751708984375</LongitudeDegrees>
            </Position>
            <AltitudeMeters>205.399993896484375</AltitudeMeters>
            <DistanceMeters>42000.670386682</DistanceMeters>
          </Trackpoint>
          <Trackpoint>
            <Time>2018-09-13T09:29:18.000Z</Time>
            <Position>
              <LatitudeDegrees>39.5380757935345172882080078125</LatitudeDegrees>
              <LongitudeDegrees>-8.14877486787736415863037109375</LongitudeDegrees>
            </Position>
            <AltitudeMeters>206.1999969482421875</AltitudeMeters>
            <DistanceMeters>42046.643089362</DistanceMeters>
          </Trackpoint>
          <Trackpoint>
            <Time>2018-09-13T09:29:25.000Z</Time>
            <Position>
              <LatitudeDegrees>39.53771419823169708251953125</LatitudeDegrees>
              <LongitudeDegrees>-8.14853958785533905029296875</LongitudeDegrees>
            </Position>
            <AltitudeMeters>208</AltitudeMeters>
            <DistanceMeters>42091.672317924</DistanceMeters>
          </Trackpoint>
          <Trackpoint>
            <Time>2018-09-13T09:29:34.000Z</Time>
            <Position>
              <LatitudeDegrees>39.53726467676460742950439453125</LatitudeDegrees>
              <LongitudeDegrees>-8.14825351350009441375732421875</LongitudeDegrees>
            </Position>
            <AltitudeMeters>210.8000030517578125</AltitudeMeters>
            <DistanceMeters>42147.406032729</DistanceMeters>
          </Trackpoint>
          <Trackpoint>
            <Time>2018-09-13T09:29:41.000Z</Time>
            <Position>
              <LatitudeDegrees>39.53690894879400730133056640625</LatitudeDegrees>
              <LongitudeDegrees>-8.1480247713625431060791015625</LongitudeDegrees>
            </Position>
            <AltitudeMeters>213.399993896484375</AltitudeMeters>
            <DistanceMeters>42191.600300391</DistanceMeters>
          </Trackpoint>
          <Trackpoint>
            <Time>2018-09-13T09:29:51.000Z</Time>
            <Position>
              <LatitudeDegrees>39.5363906957209110260009765625</LatitudeDegrees>
              <LongitudeDegrees>-8.14772260375320911407470703125</LongitudeDegrees>
            </Position>
            <AltitudeMeters>215</AltitudeMeters>
            <DistanceMeters>42254.84612952</DistanceMeters>
          </Trackpoint>
          <Trackpoint>
            <Time>2018-09-13T09:29:52.000Z</Time>
            <Position>
              <LatitudeDegrees>39.53633830882608890533447265625</LatitudeDegrees>
              <LongitudeDegrees>-8.1476958654820919036865234375</LongitudeDegrees>
            </Position>
            <AltitudeMeters>215</AltitudeMeters>
            <DistanceMeters>42261.112851347</DistanceMeters>
          </Trackpoint>
          <Trackpoint>
            <Time>2018-09-13T09:30:02.000Z</Time>
            <Position>
              <LatitudeDegrees>39.53579700551927089691162109375</LatitudeDegrees>
              <LongitudeDegrees>-8.14745924435555934906005859375</LongitudeDegrees>
            </Position>
            <AltitudeMeters>215.399993896484375</AltitudeMeters>
            <DistanceMeters>42324.692682983</DistanceMeters>
          </Trackpoint>
          <Trackpoint>
            <Time>2018-09-13T09:30:11.000Z</Time>
            <Position>
              <LatitudeDegrees>39.5353040657937526702880859375</LatitudeDegrees>
              <LongitudeDegrees>-8.147329576313495635986328125</LongitudeDegrees>
            </Position>
            <AltitudeMeters>215</AltitudeMeters>
            <DistanceMeters>42380.675435965</DistanceMeters>
          </Trackpoint>
          <Trackpoint>
            <Time>2018-09-13T09:30:20.000Z</Time>
            <Position>
              <LatitudeDegrees>39.53475999645888805389404296875</LatitudeDegrees>
              <LongitudeDegrees>-8.147285990417003631591796875</LongitudeDegrees>
            </Position>
            <AltitudeMeters>213.399993896484375</AltitudeMeters>
            <DistanceMeters>42441.346849016</DistanceMeters>
          </Trackpoint>
          <Trackpoint>
            <Time>2018-09-13T09:30:22.000Z</Time>
            <Position>
              <LatitudeDegrees>39.53463527373969554901123046875</LatitudeDegrees>
              <LongitudeDegrees>-8.14729529432952404022216796875</LongitudeDegrees>
            </Position>
            <AltitudeMeters>212.8000030517578125</AltitudeMeters>
            <DistanceMeters>42455.251955877</DistanceMeters>
          </Trackpoint>
          <Trackpoint>
            <Time>2018-09-13T09:30:31.000Z</Time>
            <Position>
              <LatitudeDegrees>39.53404602594673633575439453125</LatitudeDegrees>
              <LongitudeDegrees>-8.14739285968244075775146484375</LongitudeDegrees>
            </Position>
            <AltitudeMeters>211.399993896484375</AltitudeMeters>
            <DistanceMeters>42521.369041692</DistanceMeters>
          </Trackpoint>
          <Trackpoint>
            <Time>2018-09-13T09:30:39.000Z</Time>
            <Position>
              <LatitudeDegrees>39.533512182533740997314453125</LatitudeDegrees>
              <LongitudeDegrees>-8.1475684605538845062255859375</LongitudeDegrees>
            </Position>
            <AltitudeMeters>210.399993896484375</AltitudeMeters>
            <DistanceMeters>42582.66908036</DistanceMeters>
          </Trackpoint>
          <Trackpoint>
            <Time>2018-09-13T09:30:47.000Z</Time>
            <Position>
              <LatitudeDegrees>39.53295101411640644073486328125</LatitudeDegrees>
              <LongitudeDegrees>-8.14780600368976593017578125</LongitudeDegrees>
            </Position>
            <AltitudeMeters>210.1999969482421875</AltitudeMeters>
            <DistanceMeters>42648.372477571</DistanceMeters>
          </Trackpoint>
          <Trackpoint>
            <Time>2018-09-13T09:30:55.000Z</Time>
            <Position>
              <LatitudeDegrees>39.53236629255115985870361328125</LatitudeDegrees>
              <LongitudeDegrees>-8.14805989153683185577392578125</LongitudeDegrees>
            </Position>
            <AltitudeMeters>212.8000030517578125</AltitudeMeters>
            <DistanceMeters>42717.005452128</DistanceMeters>
          </Trackpoint>
          <Trackpoint>
            <Time>2018-09-13T09:31:02.000Z</Time>
            <Position>
              <LatitudeDegrees>39.53183387406170368194580078125</LatitudeDegrees>
              <LongitudeDegrees>-8.14828611910343170166015625</LongitudeDegrees>
            </Position>
            <AltitudeMeters>214.8000030517578125</AltitudeMeters>
            <DistanceMeters>42779.365715282</DistanceMeters>
          </Trackpoint>
          <Trackpoint>
            <Time>2018-09-13T09:31:09.000Z</Time>
            <Position>
              <LatitudeDegrees>39.53130464069545269012451171875</LatitudeDegrees>
              <LongitudeDegrees>-8.14851419068872928619384765625</LongitudeDegrees>
            </Position>
            <AltitudeMeters>215.8000030517578125</AltitudeMeters>
            <DistanceMeters>42841.438966109</DistanceMeters>
          </Trackpoint>
          <Trackpoint>
            <Time>2018-09-13T09:31:12.000Z</Time>
            <Position>
              <LatitudeDegrees>39.53108243644237518310546875</LatitudeDegrees>
              <LongitudeDegrees>-8.148613013327121734619140625</LongitudeDegrees>
            </Position>
            <AltitudeMeters>216</AltitudeMeters>
            <DistanceMeters>42867.585303659</DistanceMeters>
          </Trackpoint>
          <Trackpoint>
            <Time>2018-09-13T09:31:19.000Z</Time>
            <Position>
              <LatitudeDegrees>39.5305545441806316375732421875</LatitudeDegrees>
              <LongitudeDegrees>-8.14885147847235202789306640625</LongitudeDegrees>
            </Position>
            <AltitudeMeters>215.1999969482421875</AltitudeMeters>
            <DistanceMeters>42929.804802308</DistanceMeters>
          </Trackpoint>
          <Trackpoint>
            <Time>2018-09-13T09:31:26.000Z</Time>
            <Position>
              <LatitudeDegrees>39.5300238020718097686767578125</LatitudeDegrees>
              <LongitudeDegrees>-8.14910176210105419158935546875</LongitudeDegrees>
            </Position>
            <AltitudeMeters>214.399993896484375</AltitudeMeters>
            <DistanceMeters>42992.663519357</DistanceMeters>
          </Trackpoint>
          <Trackpoint>
            <Time>2018-09-13T09:31:33.000Z</Time>
            <Position>
              <LatitudeDegrees>39.52949716709554195404052734375</LatitudeDegrees>
              <LongitudeDegrees>-8.14933042041957378387451171875</LongitudeDegrees>
            </Position>
            <AltitudeMeters>213.600006103515625</AltitudeMeters>
            <DistanceMeters>43054.478524877</DistanceMeters>
          </Trackpoint>
          <Trackpoint>
            <Time>2018-09-13T09:31:40.000Z</Time>
            <Position>
              <LatitudeDegrees>39.528961479663848876953125</LatitudeDegrees>
              <LongitudeDegrees>-8.1495958752930164337158203125</LongitudeDegrees>
            </Position>
            <AltitudeMeters>214.600006103515625</AltitudeMeters>
            <DistanceMeters>43118.308330379</DistanceMeters>
          </Trackpoint>
          <Trackpoint>
            <Time>2018-09-13T09:31:47.000Z</Time>
            <Position>
              <LatitudeDegrees>39.52843015082180500030517578125</LatitudeDegrees>
              <LongitudeDegrees>-8.14992503263056278228759765625</LongitudeDegrees>
            </Position>
            <AltitudeMeters>215.600006103515625</AltitudeMeters>
            <DistanceMeters>43183.850522408</DistanceMeters>
          </Trackpoint>
          <Trackpoint>
            <Time>2018-09-13T09:31:54.000Z</Time>
            <Position>
              <LatitudeDegrees>39.52792271040380001068115234375</LatitudeDegrees>
              <LongitudeDegrees>-8.15037447027862071990966796875</LongitudeDegrees>
            </Position>
            <AltitudeMeters>214.1999969482421875</AltitudeMeters>
            <DistanceMeters>43252.250748771</DistanceMeters>
          </Trackpoint>
          <Trackpoint>
            <Time>2018-09-13T09:31:55.000Z</Time>
            <Position>
              <LatitudeDegrees>39.5278537273406982421875</LatitudeDegrees>
              <LongitudeDegrees>-8.15044806338846683502197265625</LongitudeDegrees>
            </Position>
            <AltitudeMeters>213.8000030517578125</AltitudeMeters>
            <DistanceMeters>43262.193649601</DistanceMeters>
          </Trackpoint>
          <Trackpoint>
            <Time>2018-09-13T09:32:01.000Z</Time>
            <Position>
              <LatitudeDegrees>39.5274408347904682159423828125</LatitudeDegrees>
              <LongitudeDegrees>-8.15096564590930938720703125</LongitudeDegrees>
            </Position>
            <AltitudeMeters>207.1999969482421875</AltitudeMeters>
            <DistanceMeters>43326.117887982</DistanceMeters>
          </Trackpoint>
          <Trackpoint>
            <Time>2018-09-13T09:32:04.000Z</Time>
            <Position>
              <LatitudeDegrees>39.5272500626742839813232421875</LatitudeDegrees>
              <LongitudeDegrees>-8.1512638740241527557373046875</LongitudeDegrees>
            </Position>
            <AltitudeMeters>205.8000030517578125</AltitudeMeters>
            <DistanceMeters>43359.379681466</DistanceMeters>
          </Trackpoint>
          <Trackpoint>
            <Time>2018-09-13T09:32:05.000Z</Time>
            <Position>
              <LatitudeDegrees>39.52718862332403659820556640625</LatitudeDegrees>
              <LongitudeDegrees>-8.15136797726154327392578125</LongitudeDegrees>
            </Position>
            <AltitudeMeters>205.1999969482421875</AltitudeMeters>
            <DistanceMeters>43370.633027282</DistanceMeters>
          </Trackpoint>
          <Trackpoint>
            <Time>2018-09-13T09:32:07.000Z</Time>
            <Position>
              <LatitudeDegrees>39.527070522308349609375</LatitudeDegrees>
              <LongitudeDegrees>-8.15158582292497158050537109375</LongitudeDegrees>
            </Position>
            <AltitudeMeters>204.399993896484375</AltitudeMeters>
            <DistanceMeters>43393.492433741</DistanceMeters>
          </Trackpoint>
          <Trackpoint>
            <Time>2018-09-13T09:32:09.000Z</Time>
            <Position>
              <LatitudeDegrees>39.52695854008197784423828125</LatitudeDegrees>
              <LongitudeDegrees>-8.1518154032528400421142578125</LongitudeDegrees>
            </Position>
            <AltitudeMeters>203.600006103515625</AltitudeMeters>
            <DistanceMeters>43416.812152084</DistanceMeters>
          </Trackpoint>
          <Trackpoint>
            <Time>2018-09-13T09:32:11.000Z</Time>
            <Position>
              <LatitudeDegrees>39.5268490724265575408935546875</LatitudeDegrees>
              <LongitudeDegrees>-8.1520551256835460662841796875</LongitudeDegrees>
            </Position>
            <AltitudeMeters>202.8000030517578125</AltitudeMeters>
            <DistanceMeters>43440.728509085</DistanceMeters>
          </Trackpoint>
          <Trackpoint>
            <Time>2018-09-13T09:32:14.000Z</Time>
            <Position>
              <LatitudeDegrees>39.52669006772339344024658203125</LatitudeDegrees>
              <LongitudeDegrees>-8.15243239514529705047607421875</LongitudeDegrees>
            </Position>
            <AltitudeMeters>201.399993896484375</AltitudeMeters>
            <DistanceMeters>43477.636816441</DistanceMeters>
          </Trackpoint>
          <Trackpoint>
            <Time>2018-09-13T09:32:16.000Z</Time>
            <Position>
              <LatitudeDegrees>39.5265868864953517913818359375</LatitudeDegrees>
              <LongitudeDegrees>-8.15269642509520053863525390625</LongitudeDegrees>
            </Position>
            <AltitudeMeters>200</AltitudeMeters>
            <DistanceMeters>43503.047002508</DistanceMeters>
          </Trackpoint>
          <Trackpoint>
            <Time>2018-09-13T09:32:18.000Z</Time>
            <Position>
              <LatitudeDegrees>39.526483453810214996337890625</LatitudeDegrees>
              <LongitudeDegrees>-8.152969591319561004638671875</LongitudeDegrees>
            </Position>
            <AltitudeMeters>198.1999969482421875</AltitudeMeters>
            <DistanceMeters>43529.17157289</DistanceMeters>
          </Trackpoint>
          <Trackpoint>
            <Time>2018-09-13T09:32:20.000Z</Time>
            <Position>
              <LatitudeDegrees>39.526381529867649078369140625</LatitudeDegrees>
              <LongitudeDegrees>-8.15324996598064899444580078125</LongitudeDegrees>
            </Position>
            <AltitudeMeters>196.1999969482421875</AltitudeMeters>
            <DistanceMeters>43555.781089122</DistanceMeters>
          </Trackpoint>
          <Trackpoint>
            <Time>2018-09-13T09:32:22.000Z</Time>
            <Position>
              <LatitudeDegrees>39.52628220431506633758544921875</LatitudeDegrees>
              <LongitudeDegrees>-8.1535367108881473541259765625</LongitudeDegrees>
            </Position>
            <AltitudeMeters>194.1999969482421875</AltitudeMeters>
            <DistanceMeters>43582.766835635</DistanceMeters>
          </Trackpoint>
          <Trackpoint>
            <Time>2018-09-13T09:32:24.000Z</Time>
            <Position>
              <LatitudeDegrees>39.52618145383894443511962890625</LatitudeDegrees>
              <LongitudeDegrees>-8.15382412634789943695068359375</LongitudeDegrees>
            </Position>
            <AltitudeMeters>192.1999969482421875</AltitudeMeters>
            <DistanceMeters>43609.87028041</DistanceMeters>
          </Trackpoint>
          <Trackpoint>
            <Time>2018-09-13T09:32:26.000Z</Time>
            <Position>
              <LatitudeDegrees>39.5260767638683319091796875</LatitudeDegrees>
              <LongitudeDegrees>-8.15410785377025604248046875</LongitudeDegrees>
            </Position>
            <AltitudeMeters>190.399993896484375</AltitudeMeters>
            <DistanceMeters>43636.872084094</DistanceMeters>
          </Trackpoint>
          <Trackpoint>
            <Time>2018-09-13T09:32:28.000Z</Time>
            <Position>
              <LatitudeDegrees>39.52596201561391353607177734375</LatitudeDegrees>
              <LongitudeDegrees>-8.15436861477792263031005859375</LongitudeDegrees>
            </Position>
            <AltitudeMeters>189</AltitudeMeters>
            <DistanceMeters>43662.645704589</DistanceMeters>
          </Trackpoint>
          <Trackpoint>
            <Time>2018-09-13T09:32:30.000Z</Time>
            <Position>
              <LatitudeDegrees>39.52584869228303432464599609375</LatitudeDegrees>
              <LongitudeDegrees>-8.15458218567073345184326171875</LongitudeDegrees>
            </Position>
            <AltitudeMeters>187.8000030517578125</AltitudeMeters>
            <DistanceMeters>43684.900628377</DistanceMeters>
          </Trackpoint>
          <Trackpoint>
            <Time>2018-09-13T09:32:31.000Z</Time>
            <Position>
              <LatitudeDegrees>39.5257892645895481109619140625</LatitudeDegrees>
              <LongitudeDegrees>-8.15467807464301586151123046875</LongitudeDegrees>
            </Position>
            <AltitudeMeters>187.1999969482421875</AltitudeMeters>
            <DistanceMeters>43695.460572222</DistanceMeters>
          </Trackpoint>
          <Trackpoint>
            <Time>2018-09-13T09:32:32.000Z</Time>
            <Position>
              <LatitudeDegrees>39.52572581358253955841064453125</LatitudeDegrees>
              <LongitudeDegrees>-8.15477211959660053253173828125</LongitudeDegrees>
            </Position>
            <AltitudeMeters>186.600006103515625</AltitudeMeters>
            <DistanceMeters>43706.187232189</DistanceMeters>
          </Trackpoint>
          <Trackpoint>
            <Time>2018-09-13T09:32:34.000Z</Time>
            <Position>
              <LatitudeDegrees>39.52559287659823894500732421875</LatitudeDegrees>
              <LongitudeDegrees>-8.15496138297021389007568359375</LongitudeDegrees>
            </Position>
            <AltitudeMeters>185.399993896484375</AltitudeMeters>
            <DistanceMeters>43728.163277065</DistanceMeters>
          </Trackpoint>
          <Trackpoint>
            <Time>2018-09-13T09:32:36.000Z</Time>
            <Position>
              <LatitudeDegrees>39.52544267289340496063232421875</LatitudeDegrees>
              <LongitudeDegrees>-8.15514042042195796966552734375</LongitudeDegrees>
            </Position>
            <AltitudeMeters>184.1999969482421875</AltitudeMeters>
            <DistanceMeters>43750.873667774</DistanceMeters>
          </Trackpoint>
          <Trackpoint>
            <Time>2018-09-13T09:32:39.000Z</Time>
            <Position>
              <LatitudeDegrees>39.5251840911805629730224609375</LatitudeDegrees>
              <LongitudeDegrees>-8.15538818947970867156982421875</LongitudeDegrees>
            </Position>
            <AltitudeMeters>182.399993896484375</AltitudeMeters>
            <DistanceMeters>43786.662045534</DistanceMeters>
          </Trackpoint>
          <Trackpoint>
            <Time>2018-09-13T09:32:42.000Z</Time>
            <Position>
              <LatitudeDegrees>39.52489332295954227447509765625</LatitudeDegrees>
              <LongitudeDegrees>-8.15563000738620758056640625</LongitudeDegrees>
            </Position>
            <AltitudeMeters>181</AltitudeMeters>
            <DistanceMeters>43825.111596833</DistanceMeters>
          </Trackpoint>
          <Trackpoint>
            <Time>2018-09-13T09:32:44.000Z</Time>
            <Position>
              <LatitudeDegrees>39.52468528412282466888427734375</LatitudeDegrees>
              <LongitudeDegrees>-8.15579320304095745086669921875</LongitudeDegrees>
            </Position>
            <AltitudeMeters>180</AltitudeMeters>
            <DistanceMeters>43852.175698899</DistanceMeters>
          </Trackpoint>
          <Trackpoint>
            <Time>2018-09-13T09:32:46.000Z</Time>
            <Position>
              <LatitudeDegrees>39.52446701936423778533935546875</LatitudeDegrees>
              <LongitudeDegrees>-8.15596167929470539093017578125</LongitudeDegrees>
            </Position>
            <AltitudeMeters>178.600006103515625</AltitudeMeters>
            <DistanceMeters>43880.448981113</DistanceMeters>
          </Trackpoint>
          <Trackpoint>
            <Time>2018-09-13T09:32:48.000Z</Time>
            <Position>
              <LatitudeDegrees>39.5242366008460521697998046875</LatitudeDegrees>
              <LongitudeDegrees>-8.15612512640655040740966796875</LongitudeDegrees>
            </Position>
            <AltitudeMeters>175.399993896484375</AltitudeMeters>
            <DistanceMeters>43909.682942439</DistanceMeters>
          </Trackpoint>
          <Trackpoint>
            <Time>2018-09-13T09:32:50.000Z</Time>
            <Position>
              <LatitudeDegrees>39.523999728262424468994140625</LatitudeDegrees>
              <LongitudeDegrees>-8.156283795833587646484375</LongitudeDegrees>
            </Position>
            <AltitudeMeters>172</AltitudeMeters>
            <DistanceMeters>43939.358676215</DistanceMeters>
          </Trackpoint>
          <Trackpoint>
            <Time>2018-09-13T09:32:51.000Z</Time>
            <Position>
              <LatitudeDegrees>39.523881711065769195556640625</LatitudeDegrees>
              <LongitudeDegrees>-8.1563664413988590240478515625</LongitudeDegrees>
            </Position>
            <AltitudeMeters>170.399993896484375</AltitudeMeters>
            <DistanceMeters>43954.287853914</DistanceMeters>
          </Trackpoint>
          <Trackpoint>
            <Time>2018-09-13T09:32:52.000Z</Time>
            <Position>
              <LatitudeDegrees>39.523763693869113922119140625</LatitudeDegrees>
              <LongitudeDegrees>-8.15645185299217700958251953125</LongitudeDegrees>
            </Position>
            <AltitudeMeters>168.8000030517578125</AltitudeMeters>
            <DistanceMeters>43969.331516229</DistanceMeters>
          </Trackpoint>
          <Trackpoint>
            <Time>2018-09-13T09:32:54.000Z</Time>
            <Position>
              <LatitudeDegrees>39.52352841384708881378173828125</LatitudeDegrees>
              <LongitudeDegrees>-8.1566311419010162353515625</LongitudeDegrees>
            </Position>
            <AltitudeMeters>166.1999969482421875</AltitudeMeters>
            <DistanceMeters>43999.707381831</DistanceMeters>
          </Trackpoint>
          <Trackpoint>
            <Time>2018-09-13T09:32:55.000Z</Time>
            <Position>
              <LatitudeDegrees>39.52341039665043354034423828125</LatitudeDegrees>
              <LongitudeDegrees>-8.15672342665493488311767578125</LongitudeDegrees>
            </Position>
            <AltitudeMeters>165.1999969482421875</AltitudeMeters>
            <DistanceMeters>44015.047648847</DistanceMeters>
          </Trackpoint>
          <Trackpoint>
            <Time>2018-09-13T09:32:56.000Z</Time>
            <Position>
              <LatitudeDegrees>39.5232917927205562591552734375</LatitudeDegrees>
              <LongitudeDegrees>-8.1568167172372341156005859375</LongitudeDegrees>
            </Position>
            <AltitudeMeters>164.1999969482421875</AltitudeMeters>
            <DistanceMeters>44030.488247225</DistanceMeters>
          </Trackpoint>
          <Trackpoint>
            <Time>2018-09-13T09:32:57.000Z</Time>
            <Position>
              <LatitudeDegrees>39.5231727696955204010009765625</LatitudeDegrees>
              <LongitudeDegrees>-8.15691084600985050201416015625</LongitudeDegrees>
            </Position>
            <AltitudeMeters>163.600006103515625</AltitudeMeters>
            <DistanceMeters>44046.005850727</DistanceMeters>
          </Trackpoint>
          <Trackpoint>
            <Time>2018-09-13T09:32:59.000Z</Time>
            <Position>
              <LatitudeDegrees>39.5229340530931949615478515625</LatitudeDegrees>
              <LongitudeDegrees>-8.1570973433554172515869140625</LongitudeDegrees>
            </Position>
            <AltitudeMeters>162.1999969482421875</AltitudeMeters>
            <DistanceMeters>44077.027088396</DistanceMeters>
          </Trackpoint>
          <Trackpoint>
            <Time>2018-09-13T09:33:02.000Z</Time>
            <Position>
              <LatitudeDegrees>39.522586204111576080322265625</LatitudeDegrees>
              <LongitudeDegrees>-8.1573705933988094329833984375</LongitudeDegrees>
            </Position>
            <AltitudeMeters>162.600006103515625</AltitudeMeters>
            <DistanceMeters>44122.296522548</DistanceMeters>
          </Trackpoint>
          <Trackpoint>
            <Time>2018-09-13T09:33:04.000Z</Time>
            <Position>
              <LatitudeDegrees>39.522362239658832550048828125</LatitudeDegrees>
              <LongitudeDegrees>-8.1575439311563968658447265625</LongitudeDegrees>
            </Position>
            <AltitudeMeters>163.399993896484375</AltitudeMeters>
            <DistanceMeters>44151.328544614</DistanceMeters>
          </Trackpoint>
          <Trackpoint>
            <Time>2018-09-13T09:33:07.000Z</Time>
            <Position>
              <LatitudeDegrees>39.52204330824315547943115234375</LatitudeDegrees>
              <LongitudeDegrees>-8.157794214785099029541015625</LongitudeDegrees>
            </Position>
            <AltitudeMeters>165.399993896484375</AltitudeMeters>
            <DistanceMeters>44192.823567402</DistanceMeters>
          </Trackpoint>
          <Trackpoint>
            <Time>2018-09-13T09:33:09.000Z</Time>
            <Position>
              <LatitudeDegrees>39.52183878980576992034912109375</LatitudeDegrees>
              <LongitudeDegrees>-8.15795280039310455322265625</LongitudeDegrees>
            </Position>
            <AltitudeMeters>166.399993896484375</AltitudeMeters>
            <DistanceMeters>44219.348109168</DistanceMeters>
          </Trackpoint>
          <Trackpoint>
            <Time>2018-09-13T09:33:10.000Z</Time>
            <Position>
              <LatitudeDegrees>39.5217396318912506103515625</LatitudeDegrees>
              <LongitudeDegrees>-8.158031590282917022705078125</LongitudeDegrees>
            </Position>
            <AltitudeMeters>166.8000030517578125</AltitudeMeters>
            <DistanceMeters>44232.292687125</DistanceMeters>
          </Trackpoint>
          <Trackpoint>
            <Time>2018-09-13T09:33:11.000Z</Time>
            <Position>
              <LatitudeDegrees>39.5216408930718898773193359375</LatitudeDegrees>
              <LongitudeDegrees>-8.1581092067062854766845703125</LongitudeDegrees>
            </Position>
            <AltitudeMeters>167.1999969482421875</AltitudeMeters>
            <DistanceMeters>44245.144852636</DistanceMeters>
          </Trackpoint>
          <Trackpoint>
            <Time>2018-09-13T09:33:13.000Z</Time>
            <Position>
              <LatitudeDegrees>39.5214454270899295806884765625</LatitudeDegrees>
              <LongitudeDegrees>-8.15826318226754665374755859375</LongitudeDegrees>
            </Position>
            <AltitudeMeters>167.8000030517578125</AltitudeMeters>
            <DistanceMeters>44270.602259344</DistanceMeters>
          </Trackpoint>
          <Trackpoint>
            <Time>2018-09-13T09:33:15.000Z</Time>
            <Position>
              <LatitudeDegrees>39.5212529785931110382080078125</LatitudeDegrees>
              <LongitudeDegrees>-8.158419169485569000244140625</LongitudeDegrees>
            </Position>
            <AltitudeMeters>168.600006103515625</AltitudeMeters>
            <DistanceMeters>44295.864356693</DistanceMeters>
          </Trackpoint>
          <Trackpoint>
            <Time>2018-09-13T09:33:16.000Z</Time>
            <Position>
              <LatitudeDegrees>39.52115599997341632843017578125</LatitudeDegrees>
              <LongitudeDegrees>-8.15849653445184230804443359375</LongitudeDegrees>
            </Position>
            <AltitudeMeters>168.1999969482421875</AltitudeMeters>
            <DistanceMeters>44308.538227443</DistanceMeters>
          </Trackpoint>
          <Trackpoint>
            <Time>2018-09-13T09:33:18.000Z</Time>
            <Position>
              <LatitudeDegrees>39.52095952816307544708251953125</LatitudeDegrees>
              <LongitudeDegrees>-8.158650510013103485107421875</LongitudeDegrees>
            </Position>
            <AltitudeMeters>165.399993896484375</AltitudeMeters>
            <DistanceMeters>44334.091403912</DistanceMeters>
          </Trackpoint>
          <Trackpoint>
            <Time>2018-09-13T09:33:21.000Z</Time>
            <Position>
              <LatitudeDegrees>39.52066649682819843292236328125</LatitudeDegrees>
              <LongitudeDegrees>-8.15888159908354282379150390625</LongitudeDegrees>
            </Position>
            <AltitudeMeters>161.399993896484375</AltitudeMeters>
            <DistanceMeters>44372.267314609</DistanceMeters>
          </Trackpoint>
          <Trackpoint>
            <Time>2018-09-13T09:33:26.000Z</Time>
            <Position>
              <LatitudeDegrees>39.520190320909023284912109375</LatitudeDegrees>
              <LongitudeDegrees>-8.15926448442041873931884765625</LongitudeDegrees>
            </Position>
            <AltitudeMeters>155.1999969482421875</AltitudeMeters>
            <DistanceMeters>44434.634093647</DistanceMeters>
          </Trackpoint>
          <Trackpoint>
            <Time>2018-09-13T09:33:30.000Z</Time>
            <Position>
              <LatitudeDegrees>39.5198153145611286163330078125</LatitudeDegrees>
              <LongitudeDegrees>-8.1595857627689838409423828125</LongitudeDegrees>
            </Position>
            <AltitudeMeters>153.1999969482421875</AltitudeMeters>
            <DistanceMeters>44484.664553264</DistanceMeters>
          </Trackpoint>
          <Trackpoint>
            <Time>2018-09-13T09:33:33.000Z</Time>
            <Position>
              <LatitudeDegrees>39.5195236243307590484619140625</LatitudeDegrees>
              <LongitudeDegrees>-8.159835040569305419921875</LongitudeDegrees>
            </Position>
            <AltitudeMeters>151.600006103515625</AltitudeMeters>
            <DistanceMeters>44523.550223255</DistanceMeters>
          </Trackpoint>
          <Trackpoint>
            <Time>2018-09-13T09:33:37.000Z</Time>
            <Position>
              <LatitudeDegrees>39.5191204547882080078125</LatitudeDegrees>
              <LongitudeDegrees>-8.16015363670885562896728515625</LongitudeDegrees>
            </Position>
            <AltitudeMeters>148.399993896484375</AltitudeMeters>
            <DistanceMeters>44576.104034352</DistanceMeters>
          </Trackpoint>
          <Trackpoint>
            <Time>2018-09-13T09:33:39.000Z</Time>
            <Position>
              <LatitudeDegrees>39.5189150981605052947998046875</LatitudeDegrees>
              <LongitudeDegrees>-8.16030719317495822906494140625</LongitudeDegrees>
            </Position>
            <AltitudeMeters>146.600006103515625</AltitudeMeters>
            <DistanceMeters>44602.490678969</DistanceMeters>
          </Trackpoint>
          <Trackpoint>
            <Time>2018-09-13T09:33:41.000Z</Time>
            <Position>
              <LatitudeDegrees>39.51870613731443881988525390625</LatitudeDegrees>
              <LongitudeDegrees>-8.16045672632753849029541015625</LongitudeDegrees>
            </Position>
            <AltitudeMeters>145</AltitudeMeters>
            <DistanceMeters>44629.05672223</DistanceMeters>
          </Trackpoint>
          <Trackpoint>
            <Time>2018-09-13T09:33:44.000Z</Time>
            <Position>
              <LatitudeDegrees>39.51839114539325237274169921875</LatitudeDegrees>
              <LongitudeDegrees>-8.16068463027477264404296875</LongitudeDegrees>
            </Position>
            <AltitudeMeters>146.600006103515625</AltitudeMeters>
            <DistanceMeters>44669.207055314</DistanceMeters>
          </Trackpoint>
          <Trackpoint>
            <Time>2018-09-13T09:33:45.000Z</Time>
            <Position>
              <LatitudeDegrees>39.51828695833683013916015625</LatitudeDegrees>
              <LongitudeDegrees>-8.16076375544071197509765625</LongitudeDegrees>
            </Position>
            <AltitudeMeters>147.1999969482421875</AltitudeMeters>
            <DistanceMeters>44682.647205953</DistanceMeters>
          </Trackpoint>
          <Trackpoint>
            <Time>2018-09-13T09:33:47.000Z</Time>
            <Position>
              <LatitudeDegrees>39.518079422414302825927734375</LatitudeDegrees>
              <LongitudeDegrees>-8.16092602908611297607421875</LongitudeDegrees>
            </Position>
            <AltitudeMeters>148.399993896484375</AltitudeMeters>
            <DistanceMeters>44709.623079253</DistanceMeters>
          </Trackpoint>
          <Trackpoint>
            <Time>2018-09-13T09:33:51.000Z</Time>
            <Position>
              <LatitudeDegrees>39.5176680386066436767578125</LatitudeDegrees>
              <LongitudeDegrees>-8.16125200130045413970947265625</LongitudeDegrees>
            </Position>
            <AltitudeMeters>148.8000030517578125</AltitudeMeters>
            <DistanceMeters>44763.28751794</DistanceMeters>
          </Trackpoint>
          <Trackpoint>
            <Time>2018-09-13T09:33:55.000Z</Time>
            <Position>
              <LatitudeDegrees>39.51727534644305706024169921875</LatitudeDegrees>
              <LongitudeDegrees>-8.16158895380795001983642578125</LongitudeDegrees>
            </Position>
            <AltitudeMeters>147</AltitudeMeters>
            <DistanceMeters>44815.702827132</DistanceMeters>
          </Trackpoint>
          <Trackpoint>
            <Time>2018-09-13T09:34:00.000Z</Time>
            <Position>
              <LatitudeDegrees>39.5168172754347324371337890625</LatitudeDegrees>
              <LongitudeDegrees>-8.1620319373905658721923828125</LongitudeDegrees>
            </Position>
            <AltitudeMeters>144.8000030517578125</AltitudeMeters>
            <DistanceMeters>44879.311696735</DistanceMeters>
          </Trackpoint>
          <Trackpoint>
            <Time>2018-09-13T09:34:05.000Z</Time>
            <Position>
              <LatitudeDegrees>39.5163840986788272857666015625</LatitudeDegrees>
              <LongitudeDegrees>-8.16249403171241283416748046875</LongitudeDegrees>
            </Position>
            <AltitudeMeters>143.399993896484375</AltitudeMeters>
            <DistanceMeters>44941.751841074</DistanceMeters>
          </Trackpoint>
          <Trackpoint>
            <Time>2018-09-13T09:34:10.000Z</Time>
            <Position>
              <LatitudeDegrees>39.51597598381340503692626953125</LatitudeDegrees>
              <LongitudeDegrees>-8.16298068501055240631103515625</LongitudeDegrees>
            </Position>
            <AltitudeMeters>145.8000030517578125</AltitudeMeters>
            <DistanceMeters>45003.472039536</DistanceMeters>
          </Trackpoint>
          <Trackpoint>
            <Time>2018-09-13T09:34:13.000Z</Time>
            <Position>
              <LatitudeDegrees>39.515740871429443359375</LatitudeDegrees>
              <LongitudeDegrees>-8.16328126005828380584716796875</LongitudeDegrees>
            </Position>
            <AltitudeMeters>148.1999969482421875</AltitudeMeters>
            <DistanceMeters>45040.226132039</DistanceMeters>
          </Trackpoint>
          <Trackpoint>
            <Time>2018-09-13T09:34:18.000Z</Time>
            <Position>
              <LatitudeDegrees>39.5153568126261234283447265625</LatitudeDegrees>
              <LongitudeDegrees>-8.16377964802086353302001953125</LongitudeDegrees>
            </Position>
            <AltitudeMeters>149.8000030517578125</AltitudeMeters>
            <DistanceMeters>45100.712184659</DistanceMeters>
          </Trackpoint>
          <Trackpoint>
            <Time>2018-09-13T09:34:24.000Z</Time>
            <Position>
              <LatitudeDegrees>39.51490737497806549072265625</LatitudeDegrees>
              <LongitudeDegrees>-8.1643621064722537994384765625</LongitudeDegrees>
            </Position>
            <AltitudeMeters>145.8000030517578125</AltitudeMeters>
            <DistanceMeters>45171.44819683</DistanceMeters>
          </Trackpoint>
          <Trackpoint>
            <Time>2018-09-13T09:34:29.000Z</Time>
            <Position>
              <LatitudeDegrees>39.514534212648868560791015625</LatitudeDegrees>
              <LongitudeDegrees>-8.164849765598773956298828125</LongitudeDegrees>
            </Position>
            <AltitudeMeters>143.8000030517578125</AltitudeMeters>
            <DistanceMeters>45230.426111987</DistanceMeters>
          </Trackpoint>
          <Trackpoint>
            <Time>2018-09-13T09:34:35.000Z</Time>
            <Position>
              <LatitudeDegrees>39.514091648161411285400390625</LatitudeDegrees>
              <LongitudeDegrees>-8.16542141139507293701171875</LongitudeDegrees>
            </Position>
            <AltitudeMeters>142.8000030517578125</AltitudeMeters>
            <DistanceMeters>45299.965282507</DistanceMeters>
          </Trackpoint>
          <Trackpoint>
            <Time>2018-09-13T09:34:37.000Z</Time>
            <Position>
              <LatitudeDegrees>39.513944126665592193603515625</LatitudeDegrees>
              <LongitudeDegrees>-8.16560690291225910186767578125</LongitudeDegrees>
            </Position>
            <AltitudeMeters>142.600006103515625</AltitudeMeters>
            <DistanceMeters>45322.840484577</DistanceMeters>
          </Trackpoint>
          <Trackpoint>
            <Time>2018-09-13T09:34:43.000Z</Time>
            <Position>
              <LatitudeDegrees>39.51348312199115753173828125</LatitudeDegrees>
              <LongitudeDegrees>-8.16610445268452167510986328125</LongitudeDegrees>
            </Position>
            <AltitudeMeters>140.399993896484375</AltitudeMeters>
            <DistanceMeters>45389.609042893</DistanceMeters>
          </Trackpoint>
          <Trackpoint>
            <Time>2018-09-13T09:34:48.000Z</Time>
            <Position>
              <LatitudeDegrees>39.51307182200253009796142578125</LatitudeDegrees>
              <LongitudeDegrees>-8.16643520258367061614990234375</LongitudeDegrees>
            </Position>
            <AltitudeMeters>137</AltitudeMeters>
            <DistanceMeters>45443.48164761</DistanceMeters>
          </Trackpoint>
          <Trackpoint>
            <Time>2018-09-13T09:34:54.000Z</Time>
            <Position>
              <LatitudeDegrees>39.51254610903561115264892578125</LatitudeDegrees>
              <LongitudeDegrees>-8.16672823391854763031005859375</LongitudeDegrees>
            </Position>
            <AltitudeMeters>135.399993896484375</AltitudeMeters>
            <DistanceMeters>45507.175212461</DistanceMeters>
          </Trackpoint>
          <Trackpoint>
            <Time>2018-09-13T09:35:00.000Z</Time>
            <Position>
              <LatitudeDegrees>39.51199022121727466583251953125</LatitudeDegrees>
              <LongitudeDegrees>-8.16692017950117588043212890625</LongitudeDegrees>
            </Position>
            <AltitudeMeters>135.8000030517578125</AltitudeMeters>
            <DistanceMeters>45571.204322608</DistanceMeters>
          </Trackpoint>
          <Trackpoint>
            <Time>2018-09-13T09:35:06.000Z</Time>
            <Position>
              <LatitudeDegrees>39.51144120655953884124755859375</LatitudeDegrees>
              <LongitudeDegrees>-8.1670684553682804107666015625</LongitudeDegrees>
            </Position>
            <AltitudeMeters>137.600006103515625</AltitudeMeters>
            <DistanceMeters>45633.623204226</DistanceMeters>
          </Trackpoint>
          <Trackpoint>
            <Time>2018-09-13T09:35:11.000Z</Time>
            <Position>
              <LatitudeDegrees>39.5109797827899456024169921875</LatitudeDegrees>
              <LongitudeDegrees>-8.16719125024974346160888671875</LongitudeDegrees>
            </Position>
            <AltitudeMeters>138.399993896484375</AltitudeMeters>
            <DistanceMeters>45686.051949488</DistanceMeters>
          </Trackpoint>
          <Trackpoint>
            <Time>2018-09-13T09:35:17.000Z</Time>
            <Position>
              <LatitudeDegrees>39.51042230241000652313232421875</LatitudeDegrees>
              <LongitudeDegrees>-8.1673403643071651458740234375</LongitudeDegrees>
            </Position>
            <AltitudeMeters>139</AltitudeMeters>
            <DistanceMeters>45749.408049435</DistanceMeters>
          </Trackpoint>
          <Trackpoint>
            <Time>2018-09-13T09:35:23.000Z</Time>
            <Position>
              <LatitudeDegrees>39.5098659954965114593505859375</LatitudeDegrees>
              <LongitudeDegrees>-8.1674888916313648223876953125</LongitudeDegrees>
            </Position>
            <AltitudeMeters>139.1999969482421875</AltitudeMeters>
            <DistanceMeters>45812.626030836</DistanceMeters>
          </Trackpoint>
          <Trackpoint>
            <Time>2018-09-13T09:35:29.000Z</Time>
            <Position>
              <LatitudeDegrees>39.50931874103844165802001953125</LatitudeDegrees>
              <LongitudeDegrees>-8.16763733513653278350830078125</LongitudeDegrees>
            </Position>
            <AltitudeMeters>139</AltitudeMeters>
            <DistanceMeters>45874.856123262</DistanceMeters>
          </Trackpoint>
          <Trackpoint>
            <Time>2018-09-13T09:35:35.000Z</Time>
            <Position>
              <LatitudeDegrees>39.508768133819103240966796875</LatitudeDegrees>
              <LongitudeDegrees>-8.1677849404513835906982421875</LongitudeDegrees>
            </Position>
            <AltitudeMeters>137.8000030517578125</AltitudeMeters>
            <DistanceMeters>45937.43682439</DistanceMeters>
          </Trackpoint>
          <Trackpoint>
            <Time>2018-09-13T09:35:36.000Z</Time>
            <Position>
              <LatitudeDegrees>39.5086764357984066009521484375</LatitudeDegrees>
              <LongitudeDegrees>-8.16780949942767620086669921875</LongitudeDegrees>
            </Position>
            <AltitudeMeters>137.600006103515625</AltitudeMeters>
            <DistanceMeters>45947.858616917</DistanceMeters>
          </Trackpoint>
          <Trackpoint>
            <Time>2018-09-13T09:35:42.000Z</Time>
            <Position>
              <LatitudeDegrees>39.50812540948390960693359375</LatitudeDegrees>
              <LongitudeDegrees>-8.16795685328543186187744140625</LongitudeDegrees>
            </Position>
            <AltitudeMeters>140.1999969482421875</AltitudeMeters>
            <DistanceMeters>46010.480716991</DistanceMeters>
          </Trackpoint>
          <Trackpoint>
            <Time>2018-09-13T09:35:48.000Z</Time>
            <Position>
              <LatitudeDegrees>39.50757077895104885101318359375</LatitudeDegrees>
              <LongitudeDegrees>-8.16810630261898040771484375</LongitudeDegrees>
            </Position>
            <AltitudeMeters>141.399993896484375</AltitudeMeters>
            <DistanceMeters>46073.532141435</DistanceMeters>
          </Trackpoint>
          <Trackpoint>
            <Time>2018-09-13T09:35:50.000Z</Time>
            <Position>
              <LatitudeDegrees>39.50738847255706787109375</LatitudeDegrees>
              <LongitudeDegrees>-8.1681554205715656280517578125</LongitudeDegrees>
            </Position>
            <AltitudeMeters>141.600006103515625</AltitudeMeters>
            <DistanceMeters>46094.257117095</DistanceMeters>
          </Trackpoint>
          <Trackpoint>
            <Time>2018-09-13T09:35:52.000Z</Time>
            <Position>
              <LatitudeDegrees>39.50720733962953090667724609375</LatitudeDegrees>
              <LongitudeDegrees>-8.16820277832448482513427734375</LongitudeDegrees>
            </Position>
            <AltitudeMeters>141.600006103515625</AltitudeMeters>
            <DistanceMeters>46114.823760983</DistanceMeters>
          </Trackpoint>
          <Trackpoint>
            <Time>2018-09-13T09:35:58.000Z</Time>
            <Position>
              <LatitudeDegrees>39.50667073018848896026611328125</LatitudeDegrees>
              <LongitudeDegrees>-8.168349377810955047607421875</LongitudeDegrees>
            </Position>
            <AltitudeMeters>137.399993896484375</AltitudeMeters>
            <DistanceMeters>46175.861765286</DistanceMeters>
          </Trackpoint>
          <Trackpoint>
            <Time>2018-09-13T09:36:04.000Z</Time>
            <Position>
              <LatitudeDegrees>39.5061337016522884368896484375</LatitudeDegrees>
              <LongitudeDegrees>-8.16849078051745891571044921875</LongitudeDegrees>
            </Position>
            <AltitudeMeters>132.8000030517578125</AltitudeMeters>
            <DistanceMeters>46236.855148807</DistanceMeters>
          </Trackpoint>
          <Trackpoint>
            <Time>2018-09-13T09:36:05.000Z</Time>
            <Position>
              <LatitudeDegrees>39.50604426674544811248779296875</LatitudeDegrees>
              <LongitudeDegrees>-8.16851374693214893341064453125</LongitudeDegrees>
            </Position>
            <AltitudeMeters>132</AltitudeMeters>
            <DistanceMeters>46247.003005317</DistanceMeters>
          </Trackpoint>
          <Trackpoint>
            <Time>2018-09-13T09:36:09.000Z</Time>
            <Position>
              <LatitudeDegrees>39.50568753294646739959716796875</LatitudeDegrees>
              <LongitudeDegrees>-8.16861231811344623565673828125</LongitudeDegrees>
            </Position>
            <AltitudeMeters>129</AltitudeMeters>
            <DistanceMeters>46287.600548623</DistanceMeters>
          </Trackpoint>
          <Trackpoint>
            <Time>2018-09-13T09:36:13.000Z</Time>
            <Position>
              <LatitudeDegrees>39.50532442890107631683349609375</LatitudeDegrees>
              <LongitudeDegrees>-8.1687086261808872222900390625</LongitudeDegrees>
            </Position>
            <AltitudeMeters>126</AltitudeMeters>
            <DistanceMeters>46328.852432288</DistanceMeters>
          </Trackpoint>
          <Trackpoint>
            <Time>2018-09-13T09:36:18.000Z</Time>
            <Position>
              <LatitudeDegrees>39.50486225076019763946533203125</LatitudeDegrees>
              <LongitudeDegrees>-8.168834857642650604248046875</LongitudeDegrees>
            </Position>
            <AltitudeMeters>122.1999969482421875</AltitudeMeters>
            <DistanceMeters>46381.423680764</DistanceMeters>
          </Trackpoint>
          <Trackpoint>
            <Time>2018-09-13T09:36:21.000Z</Time>
            <Position>
              <LatitudeDegrees>39.504575841128826141357421875</LatitudeDegrees>
              <LongitudeDegrees>-8.16891767084598541259765625</LongitudeDegrees>
            </Position>
            <AltitudeMeters>120</AltitudeMeters>
            <DistanceMeters>46414.085373018</DistanceMeters>
          </Trackpoint>
          <Trackpoint>
            <Time>2018-09-13T09:36:23.000Z</Time>
            <Position>
              <LatitudeDegrees>39.50438314117491245269775390625</LatitudeDegrees>
              <LongitudeDegrees>-8.16897760145366191864013671875</LongitudeDegrees>
            </Position>
            <AltitudeMeters>119.59999847412109375</AltitudeMeters>
            <DistanceMeters>46436.142217726</DistanceMeters>
          </Trackpoint>
          <Trackpoint>
            <Time>2018-09-13T09:36:29.000Z</Time>
            <Position>
              <LatitudeDegrees>39.5037941448390483856201171875</LatitudeDegrees>
              <LongitudeDegrees>-8.1691865622997283935546875</LongitudeDegrees>
            </Position>
            <AltitudeMeters>120</AltitudeMeters>
            <DistanceMeters>46504.110436387</DistanceMeters>
          </Trackpoint>
          <Trackpoint>
            <Time>2018-09-13T09:36:30.000Z</Time>
            <Position>
              <LatitudeDegrees>39.5036923885345458984375</LatitudeDegrees>
              <LongitudeDegrees>-8.16922436468303203582763671875</LongitudeDegrees>
            </Position>
            <AltitudeMeters>119.8000030517578125</AltitudeMeters>
            <DistanceMeters>46515.89221618</DistanceMeters>
          </Trackpoint>
          <Trackpoint>
            <Time>2018-09-13T09:36:32.000Z</Time>
            <Position>
              <LatitudeDegrees>39.50348610989749431610107421875</LatitudeDegrees>
              <LongitudeDegrees>-8.169303238391876220703125</LongitudeDegrees>
            </Position>
            <AltitudeMeters>120.1999969482421875</AltitudeMeters>
            <DistanceMeters>46539.829519091</DistanceMeters>
          </Trackpoint>
          <Trackpoint>
            <Time>2018-09-13T09:36:35.000Z</Time>
            <Position>
              <LatitudeDegrees>39.50317162089049816131591796875</LatitudeDegrees>
              <LongitudeDegrees>-8.16943206824362277984619140625</LongitudeDegrees>
            </Position>
            <AltitudeMeters>119.59999847412109375</AltitudeMeters>
            <DistanceMeters>46576.539483928</DistanceMeters>
          </Trackpoint>
          <Trackpoint>
            <Time>2018-09-13T09:36:37.000Z</Time>
            <Position>
              <LatitudeDegrees>39.50295804999768733978271484375</LatitudeDegrees>
              <LongitudeDegrees>-8.1695213355123996734619140625</LongitudeDegrees>
            </Position>
            <AltitudeMeters>119</AltitudeMeters>
            <DistanceMeters>46601.515787515</DistanceMeters>
          </Trackpoint>
          <Trackpoint>
            <Time>2018-09-13T09:36:38.000Z</Time>
            <Position>
              <LatitudeDegrees>39.5028506778180599212646484375</LatitudeDegrees>
              <LongitudeDegrees>-8.16956869326531887054443359375</LongitudeDegrees>
            </Position>
            <AltitudeMeters>118.8000030517578125</AltitudeMeters>
            <DistanceMeters>46614.139327391</DistanceMeters>
          </Trackpoint>
          <Trackpoint>
            <Time>2018-09-13T09:36:40.000Z</Time>
            <Position>
              <LatitudeDegrees>39.502633921802043914794921875</LatitudeDegrees>
              <LongitudeDegrees>-8.1696688570082187652587890625</LongitudeDegrees>
            </Position>
            <AltitudeMeters>117</AltitudeMeters>
            <DistanceMeters>46639.75250864</DistanceMeters>
          </Trackpoint>
          <Trackpoint>
            <Time>2018-09-13T09:36:42.000Z</Time>
            <Position>
              <LatitudeDegrees>39.5024134777486324310302734375</LatitudeDegrees>
              <LongitudeDegrees>-8.1697748042643070220947265625</LongitudeDegrees>
            </Position>
            <AltitudeMeters>115.1999969482421875</AltitudeMeters>
            <DistanceMeters>46665.920940328</DistanceMeters>
          </Trackpoint>
          <Trackpoint>
            <Time>2018-09-13T09:36:44.000Z</Time>
            <Position>
              <LatitudeDegrees>39.502189345657825469970703125</LatitudeDegrees>
              <LongitudeDegrees>-8.1698847748339176177978515625</LongitudeDegrees>
            </Position>
            <AltitudeMeters>113</AltitudeMeters>
            <DistanceMeters>46692.595194645</DistanceMeters>
          </Trackpoint>
          <Trackpoint>
            <Time>2018-09-13T09:36:46.000Z</Time>
            <Position>
              <LatitudeDegrees>39.5019648782908916473388671875</LatitudeDegrees>
              <LongitudeDegrees>-8.17000128328800201416015625</LongitudeDegrees>
            </Position>
            <AltitudeMeters>111.1999969482421875</AltitudeMeters>
            <DistanceMeters>46719.508062042</DistanceMeters>
          </Trackpoint>
          <Trackpoint>
            <Time>2018-09-13T09:36:49.000Z</Time>
            <Position>
              <LatitudeDegrees>39.501622729003429412841796875</LatitudeDegrees>
              <LongitudeDegrees>-8.1701845116913318634033203125</LongitudeDegrees>
            </Position>
            <AltitudeMeters>111.59999847412109375</AltitudeMeters>
            <DistanceMeters>46760.713074276</DistanceMeters>
          </Trackpoint>
          <Trackpoint>
            <Time>2018-09-13T09:36:50.000Z</Time>
            <Position>
              <LatitudeDegrees>39.50150907039642333984375</LatitudeDegrees>
              <LongitudeDegrees>-8.17024645395576953887939453125</LongitudeDegrees>
            </Position>
            <AltitudeMeters>111.59999847412109375</AltitudeMeters>
            <DistanceMeters>46774.437116482</DistanceMeters>
          </Trackpoint>
          <Trackpoint>
            <Time>2018-09-13T09:36:52.000Z</Time>
            <Position>
              <LatitudeDegrees>39.50128217227756977081298828125</LatitudeDegrees>
              <LongitudeDegrees>-8.1703759543597698211669921875</LongitudeDegrees>
            </Position>
            <AltitudeMeters>111.8000030517578125</AltitudeMeters>
            <DistanceMeters>46802.031866457</DistanceMeters>
          </Trackpoint>
          <Trackpoint>
            <Time>2018-09-13T09:36:53.000Z</Time>
            <Position>
              <LatitudeDegrees>39.50116968713700771331787109375</LatitudeDegrees>
              <LongitudeDegrees>-8.17044359631836414337158203125</LongitudeDegrees>
            </Position>
            <AltitudeMeters>111.8000030517578125</AltitudeMeters>
            <DistanceMeters>46815.833985594</DistanceMeters>
          </Trackpoint>
          <Trackpoint>
            <Time>2018-09-13T09:36:55.000Z</Time>
            <Position>
              <LatitudeDegrees>39.50094379484653472900390625</LatitudeDegrees>
              <LongitudeDegrees>-8.170580975711345672607421875</LongitudeDegrees>
            </Position>
            <AltitudeMeters>110.40000152587890625</AltitudeMeters>
            <DistanceMeters>46843.6068333</DistanceMeters>
          </Trackpoint>
          <Trackpoint>
            <Time>2018-09-13T09:36:56.000Z</Time>
            <Position>
              <LatitudeDegrees>39.5008319802582263946533203125</LatitudeDegrees>
              <LongitudeDegrees>-8.17065280862152576446533203125</LongitudeDegrees>
            </Position>
            <AltitudeMeters>109.8000030517578125</AltitudeMeters>
            <DistanceMeters>46857.496995765</DistanceMeters>
          </Trackpoint>
          <Trackpoint>
            <Time>2018-09-13T09:36:57.000Z</Time>
            <Position>
              <LatitudeDegrees>39.50072058476507663726806640625</LatitudeDegrees>
              <LongitudeDegrees>-8.170725814998149871826171875</LongitudeDegrees>
            </Position>
            <AltitudeMeters>109.1999969482421875</AltitudeMeters>
            <DistanceMeters>46871.391058317</DistanceMeters>
          </Trackpoint>
          <Trackpoint>
            <Time>2018-09-13T09:36:59.000Z</Time>
            <Position>
              <LatitudeDegrees>39.50049913488328456878662109375</LatitudeDegrees>
              <LongitudeDegrees>-8.1708735041320323944091796875</LongitudeDegrees>
            </Position>
            <AltitudeMeters>107.59999847412109375</AltitudeMeters>
            <DistanceMeters>46899.111183225</DistanceMeters>
          </Trackpoint>
          <Trackpoint>
            <Time>2018-09-13T09:37:01.000Z</Time>
            <Position>
              <LatitudeDegrees>39.50028036721050739288330078125</LatitudeDegrees>
              <LongitudeDegrees>-8.171030245721340179443359375</LongitudeDegrees>
            </Position>
            <AltitudeMeters>106.1999969482421875</AltitudeMeters>
            <DistanceMeters>46926.933732948</DistanceMeters>
          </Trackpoint>
          <Trackpoint>
            <Time>2018-09-13T09:37:03.000Z</Time>
            <Position>
              <LatitudeDegrees>39.50006880797445774078369140625</LatitudeDegrees>
              <LongitudeDegrees>-8.1712020747363567352294921875</LongitudeDegrees>
            </Position>
            <AltitudeMeters>103.8000030517578125</AltitudeMeters>
            <DistanceMeters>46954.722995397</DistanceMeters>
          </Trackpoint>
          <Trackpoint>
            <Time>2018-09-13T09:37:05.000Z</Time>
            <Position>
              <LatitudeDegrees>39.49985708110034465789794921875</LatitudeDegrees>
              <LongitudeDegrees>-8.1713752448558807373046875</LongitudeDegrees>
            </Position>
            <AltitudeMeters>101.8000030517578125</AltitudeMeters>
            <DistanceMeters>46982.589488247</DistanceMeters>
          </Trackpoint>
          <Trackpoint>
            <Time>2018-09-13T09:37:06.000Z</Time>
            <Position>
              <LatitudeDegrees>39.4997510500252246856689453125</LatitudeDegrees>
              <LongitudeDegrees>-8.17146241664886474609375</LongitudeDegrees>
            </Position>
            <AltitudeMeters>100.59999847412109375</AltitudeMeters>
            <DistanceMeters>46996.565201234</DistanceMeters>
          </Trackpoint>
          <Trackpoint>
            <Time>2018-09-13T09:37:08.000Z</Time>
            <Position>
              <LatitudeDegrees>39.49953823350369930267333984375</LatitudeDegrees>
              <LongitudeDegrees>-8.171633742749691009521484375</LongitudeDegrees>
            </Position>
            <AltitudeMeters>98.40000152587890625</AltitudeMeters>
            <DistanceMeters>47024.450320609</DistanceMeters>
          </Trackpoint>
          <Trackpoint>
            <Time>2018-09-13T09:37:10.000Z</Time>
            <Position>
              <LatitudeDegrees>39.4993244111537933349609375</LatitudeDegrees>
              <LongitudeDegrees>-8.17180263809859752655029296875</LongitudeDegrees>
            </Position>
            <AltitudeMeters>97</AltitudeMeters>
            <DistanceMeters>47052.321511758</DistanceMeters>
          </Trackpoint>
          <Trackpoint>
            <Time>2018-09-13T09:37:12.000Z</Time>
            <Position>
              <LatitudeDegrees>39.49910840950906276702880859375</LatitudeDegrees>
              <LongitudeDegrees>-8.17197077907621860504150390625</LongitudeDegrees>
            </Position>
            <AltitudeMeters>96.59999847412109375</AltitudeMeters>
            <DistanceMeters>47080.366469562</DistanceMeters>
          </Trackpoint>
          <Trackpoint>
            <Time>2018-09-13T09:37:13.000Z</Time>
            <Position>
              <LatitudeDegrees>39.4989993609488010406494140625</LatitudeDegrees>
              <LongitudeDegrees>-8.1720546819269657135009765625</LongitudeDegrees>
            </Position>
            <AltitudeMeters>96.40000152587890625</AltitudeMeters>
            <DistanceMeters>47094.482015486</DistanceMeters>
          </Trackpoint>
          <Trackpoint>
            <Time>2018-09-13T09:37:14.000Z</Time>
            <Position>
              <LatitudeDegrees>39.4988900609314441680908203125</LatitudeDegrees>
              <LongitudeDegrees>-8.17213833332061767578125</LongitudeDegrees>
            </Position>
            <AltitudeMeters>96.1999969482421875</AltitudeMeters>
            <DistanceMeters>47108.61035013</DistanceMeters>
          </Trackpoint>
          <Trackpoint>
            <Time>2018-09-13T09:37:16.000Z</Time>
            <Position>
              <LatitudeDegrees>39.4986711256206035614013671875</LatitudeDegrees>
              <LongitudeDegrees>-8.17230639047920703887939453125</LongitudeDegrees>
            </Position>
            <AltitudeMeters>95.8000030517578125</AltitudeMeters>
            <DistanceMeters>47136.932137333</DistanceMeters>
          </Trackpoint>
          <Trackpoint>
            <Time>2018-09-13T09:37:20.000Z</Time>
            <Position>
              <LatitudeDegrees>39.49823685921728610992431640625</LatitudeDegrees>
              <LongitudeDegrees>-8.17264652810990810394287109375</LongitudeDegrees>
            </Position>
            <AltitudeMeters>95.1999969482421875</AltitudeMeters>
            <DistanceMeters>47193.409032802</DistanceMeters>
          </Trackpoint>
          <Trackpoint>
            <Time>2018-09-13T09:37:23.000Z</Time>
            <Position>
              <LatitudeDegrees>39.497913233935832977294921875</LatitudeDegrees>
              <LongitudeDegrees>-8.17289262078702449798583984375</LongitudeDegrees>
            </Position>
            <AltitudeMeters>93.1999969482421875</AltitudeMeters>
            <DistanceMeters>47235.172381869</DistanceMeters>
          </Trackpoint>
          <Trackpoint>
            <Time>2018-09-13T09:37:26.000Z</Time>
            <Position>
              <LatitudeDegrees>39.4975918717682361602783203125</LatitudeDegrees>
              <LongitudeDegrees>-8.173132427036762237548828125</LongitudeDegrees>
            </Position>
            <AltitudeMeters>90.8000030517578125</AltitudeMeters>
            <DistanceMeters>47276.446587391</DistanceMeters>
          </Trackpoint>
          <Trackpoint>
            <Time>2018-09-13T09:37:30.000Z</Time>
            <Position>
              <LatitudeDegrees>39.497145116329193115234375</LatitudeDegrees>
              <LongitudeDegrees>-8.1734283082187175750732421875</LongitudeDegrees>
            </Position>
            <AltitudeMeters>87.40000152587890625</AltitudeMeters>
            <DistanceMeters>47332.288751285</DistanceMeters>
          </Trackpoint>
          <Trackpoint>
            <Time>2018-09-13T09:37:31.000Z</Time>
            <Position>
              <LatitudeDegrees>39.49703455902636051177978515625</LatitudeDegrees>
              <LongitudeDegrees>-8.17350952886044979095458984375</LongitudeDegrees>
            </Position>
            <AltitudeMeters>86.40000152587890625</AltitudeMeters>
            <DistanceMeters>47346.433374775</DistanceMeters>
          </Trackpoint>
          <Trackpoint>
            <Time>2018-09-13T09:37:32.000Z</Time>
            <Position>
              <LatitudeDegrees>39.496924169361591339111328125</LatitudeDegrees>
              <LongitudeDegrees>-8.17359318025410175323486328125</LongitudeDegrees>
            </Position>
            <AltitudeMeters>85.8000030517578125</AltitudeMeters>
            <DistanceMeters>47360.6664607</DistanceMeters>
          </Trackpoint>
          <Trackpoint>
            <Time>2018-09-13T09:37:34.000Z</Time>
            <Position>
              <LatitudeDegrees>39.4967054016888141632080078125</LatitudeDegrees>
              <LongitudeDegrees>-8.17376098595559597015380859375</LongitudeDegrees>
            </Position>
            <AltitudeMeters>85</AltitudeMeters>
            <DistanceMeters>47388.961452793</DistanceMeters>
          </Trackpoint>
          <Trackpoint>
            <Time>2018-09-13T09:37:37.000Z</Time>
            <Position>
              <LatitudeDegrees>39.496383033692836761474609375</LatitudeDegrees>
              <LongitudeDegrees>-8.17400515079498291015625</LongitudeDegrees>
            </Position>
            <AltitudeMeters>84.1999969482421875</AltitudeMeters>
            <DistanceMeters>47430.520514756</DistanceMeters>
          </Trackpoint>
          <Trackpoint>
            <Time>2018-09-13T09:37:40.000Z</Time>
            <Position>
              <LatitudeDegrees>39.49606225825846195220947265625</LatitudeDegrees>
              <LongitudeDegrees>-8.17424830980598926544189453125</LongitudeDegrees>
            </Position>
            <AltitudeMeters>83</AltitudeMeters>
            <DistanceMeters>47471.883013994</DistanceMeters>
          </Trackpoint>
          <Trackpoint>
            <Time>2018-09-13T09:37:42.000Z</Time>
            <Position>
              <LatitudeDegrees>39.49584315530955791473388671875</LatitudeDegrees>
              <LongitudeDegrees>-8.17440421320497989654541015625</LongitudeDegrees>
            </Position>
            <AltitudeMeters>81.1999969482421875</AltitudeMeters>
            <DistanceMeters>47499.703940871</DistanceMeters>
          </Trackpoint>
          <Trackpoint>
            <Time>2018-09-13T09:37:45.000Z</Time>
            <Position>
              <LatitudeDegrees>39.495506621897220611572265625</LatitudeDegrees>
              <LongitudeDegrees>-8.1745965778827667236328125</LongitudeDegrees>
            </Position>
            <AltitudeMeters>79</AltitudeMeters>
            <DistanceMeters>47540.642702308</DistanceMeters>
          </Trackpoint>
          <Trackpoint>
            <Time>2018-09-13T09:37:46.000Z</Time>
            <Position>
              <LatitudeDegrees>39.495391957461833953857421875</LatitudeDegrees>
              <LongitudeDegrees>-8.17464930005371570587158203125</LongitudeDegrees>
            </Position>
            <AltitudeMeters>78.59999847412109375</AltitudeMeters>
            <DistanceMeters>47554.184592591</DistanceMeters>
          </Trackpoint>
          <Trackpoint>
            <Time>2018-09-13T09:37:49.000Z</Time>
            <Position>
              <LatitudeDegrees>39.4950461201369762420654296875</LatitudeDegrees>
              <LongitudeDegrees>-8.17477586679160594940185546875</LongitudeDegrees>
            </Position>
            <AltitudeMeters>74.59999847412109375</AltitudeMeters>
            <DistanceMeters>47594.182599834</DistanceMeters>
          </Trackpoint>
          <Trackpoint>
            <Time>2018-09-13T09:37:50.000Z</Time>
            <Position>
              <LatitudeDegrees>39.494929276406764984130859375</LatitudeDegrees>
              <LongitudeDegrees>-8.17480654455721378326416015625</LongitudeDegrees>
            </Position>
            <AltitudeMeters>73.1999969482421875</AltitudeMeters>
            <DistanceMeters>47607.451677816</DistanceMeters>
          </Trackpoint>
          <Trackpoint>
            <Time>2018-09-13T09:37:52.000Z</Time>
            <Position>
              <LatitudeDegrees>39.49469089508056640625</LatitudeDegrees>
              <LongitudeDegrees>-8.17485566250979900360107421875</LongitudeDegrees>
            </Position>
            <AltitudeMeters>70.59999847412109375</AltitudeMeters>
            <DistanceMeters>47634.317193818</DistanceMeters>
          </Trackpoint>
          <Trackpoint>
            <Time>2018-09-13T09:37:54.000Z</Time>
            <Position>
              <LatitudeDegrees>39.4944486580789089202880859375</LatitudeDegrees>
              <LongitudeDegrees>-8.17490167915821075439453125</LongitudeDegrees>
            </Position>
            <AltitudeMeters>68</AltitudeMeters>
            <DistanceMeters>47661.56683943</DistanceMeters>
          </Trackpoint>
          <Trackpoint>
            <Time>2018-09-13T09:37:56.000Z</Time>
            <Position>
              <LatitudeDegrees>39.49420717544853687286376953125</LatitudeDegrees>
              <LongitudeDegrees>-8.17495188675820827484130859375</LongitudeDegrees>
            </Position>
            <AltitudeMeters>67.40000152587890625</AltitudeMeters>
            <DistanceMeters>47688.787971163</DistanceMeters>
          </Trackpoint>
          <Trackpoint>
            <Time>2018-09-13T09:38:01.000Z</Time>
            <Position>
              <LatitudeDegrees>39.49362144805490970611572265625</LatitudeDegrees>
              <LongitudeDegrees>-8.17513461224734783172607421875</LongitudeDegrees>
            </Position>
            <AltitudeMeters>64.8000030517578125</AltitudeMeters>
            <DistanceMeters>47755.843106046</DistanceMeters>
          </Trackpoint>
          <Trackpoint>
            <Time>2018-09-13T09:38:04.000Z</Time>
            <Position>
              <LatitudeDegrees>39.49330008588731288909912109375</LatitudeDegrees>
              <LongitudeDegrees>-8.175315745174884796142578125</LongitudeDegrees>
            </Position>
            <AltitudeMeters>62.799999237060546875</AltitudeMeters>
            <DistanceMeters>47794.848302359</DistanceMeters>
          </Trackpoint>
          <Trackpoint>
            <Time>2018-09-13T09:38:09.000Z</Time>
            <Position>
              <LatitudeDegrees>39.49282206594944000244140625</LatitudeDegrees>
              <LongitudeDegrees>-8.175693266093730926513671875</LongitudeDegrees>
            </Position>
            <AltitudeMeters>59.200000762939453125</AltitudeMeters>
            <DistanceMeters>47857.155399423</DistanceMeters>
          </Trackpoint>
          <Trackpoint>
            <Time>2018-09-13T09:38:14.000Z</Time>
            <Position>
              <LatitudeDegrees>39.492391236126422882080078125</LatitudeDegrees>
              <LongitudeDegrees>-8.17609182558953762054443359375</LongitudeDegrees>
            </Position>
            <AltitudeMeters>57.200000762939453125</AltitudeMeters>
            <DistanceMeters>47916.073341736</DistanceMeters>
          </Trackpoint>
          <Trackpoint>
            <Time>2018-09-13T09:38:17.000Z</Time>
            <Position>
              <LatitudeDegrees>39.49216534383594989776611328125</LatitudeDegrees>
              <LongitudeDegrees>-8.176351748406887054443359375</LongitudeDegrees>
            </Position>
            <AltitudeMeters>57.40000152587890625</AltitudeMeters>
            <DistanceMeters>47949.69722567</DistanceMeters>
          </Trackpoint>
          <Trackpoint>
            <Time>2018-09-13T09:38:18.000Z</Time>
            <Position>
              <LatitudeDegrees>39.49210097081959247589111328125</LatitudeDegrees>
              <LongitudeDegrees>-8.1764491461217403411865234375</LongitudeDegrees>
            </Position>
            <AltitudeMeters>57.40000152587890625</AltitudeMeters>
            <DistanceMeters>47960.711309697</DistanceMeters>
          </Trackpoint>
          <Trackpoint>
            <Time>2018-09-13T09:38:21.000Z</Time>
            <Position>
              <LatitudeDegrees>39.49188320897519588470458984375</LatitudeDegrees>
              <LongitudeDegrees>-8.17669465206563472747802734375</LongitudeDegrees>
            </Position>
            <AltitudeMeters>57.40000152587890625</AltitudeMeters>
            <DistanceMeters>47992.837929149</DistanceMeters>
          </Trackpoint>
          <Trackpoint>
            <Time>2018-09-13T09:38:23.000Z</Time>
            <Position>
              <LatitudeDegrees>39.4917047582566738128662109375</LatitudeDegrees>
              <LongitudeDegrees>-8.17677360959351062774658203125</LongitudeDegrees>
            </Position>
            <AltitudeMeters>57</AltitudeMeters>
            <DistanceMeters>48013.82571438</DistanceMeters>
          </Trackpoint>
          <Trackpoint>
            <Time>2018-09-13T09:38:24.000Z</Time>
            <Position>
              <LatitudeDegrees>39.4916172511875629425048828125</LatitudeDegrees>
              <LongitudeDegrees>-8.17681350745260715484619140625</LongitudeDegrees>
            </Position>
            <AltitudeMeters>56.799999237060546875</AltitudeMeters>
            <DistanceMeters>48024.150881812</DistanceMeters>
          </Trackpoint>
          <Trackpoint>
            <Time>2018-09-13T09:38:27.000Z</Time>
            <Position>
              <LatitudeDegrees>39.49137903749942779541015625</LatitudeDegrees>
              <LongitudeDegrees>-8.17699338309466838836669921875</LongitudeDegrees>
            </Position>
            <AltitudeMeters>56.799999237060546875</AltitudeMeters>
            <DistanceMeters>48054.837596067</DistanceMeters>
          </Trackpoint>
          <Trackpoint>
            <Time>2018-09-13T09:38:29.000Z</Time>
            <Position>
              <LatitudeDegrees>39.49122321791946887969970703125</LatitudeDegrees>
              <LongitudeDegrees>-8.17711718380451202392578125</LongitudeDegrees>
            </Position>
            <AltitudeMeters>56.799999237060546875</AltitudeMeters>
            <DistanceMeters>48075.180860392</DistanceMeters>
          </Trackpoint>
          <Trackpoint>
            <Time>2018-09-13T09:38:33.000Z</Time>
            <Position>
              <LatitudeDegrees>39.490933455526828765869140625</LatitudeDegrees>
              <LongitudeDegrees>-8.177391774952411651611328125</LongitudeDegrees>
            </Position>
            <AltitudeMeters>59.40000152587890625</AltitudeMeters>
            <DistanceMeters>48115.136062613</DistanceMeters>
          </Trackpoint>
          <Trackpoint>
            <Time>2018-09-13T09:38:35.000Z</Time>
            <Position>
              <LatitudeDegrees>39.4908095709979534149169921875</LatitudeDegrees>
              <LongitudeDegrees>-8.17755279131233692169189453125</LongitudeDegrees>
            </Position>
            <AltitudeMeters>60.799999237060546875</AltitudeMeters>
            <DistanceMeters>48134.6658442</DistanceMeters>
          </Trackpoint>
          <Trackpoint>
            <Time>2018-09-13T09:38:39.000Z</Time>
            <Position>
              <LatitudeDegrees>39.49049851857125759124755859375</LatitudeDegrees>
              <LongitudeDegrees>-8.17769913934171199798583984375</LongitudeDegrees>
            </Position>
            <AltitudeMeters>64</AltitudeMeters>
            <DistanceMeters>48171.498105526</DistanceMeters>
          </Trackpoint>
          <Trackpoint>
            <Time>2018-09-13T09:38:40.000Z</Time>
            <Position>
              <LatitudeDegrees>39.49041721411049365997314453125</LatitudeDegrees>
              <LongitudeDegrees>-8.17772294394671916961669921875</LongitudeDegrees>
            </Position>
            <AltitudeMeters>64.59999847412109375</AltitudeMeters>
            <DistanceMeters>48180.77575009</DistanceMeters>
          </Trackpoint>
          <Trackpoint>
            <Time>2018-09-13T09:38:44.000Z</Time>
            <Position>
              <LatitudeDegrees>39.4901185669004917144775390625</LatitudeDegrees>
              <LongitudeDegrees>-8.1778777576982975006103515625</LongitudeDegrees>
            </Position>
            <AltitudeMeters>66.40000152587890625</AltitudeMeters>
            <DistanceMeters>48216.57699379</DistanceMeters>
          </Trackpoint>
          <Trackpoint>
            <Time>2018-09-13T09:38:49.000Z</Time>
            <Position>
              <LatitudeDegrees>39.4897806085646152496337890625</LatitudeDegrees>
              <LongitudeDegrees>-8.17807263694703578948974609375</LongitudeDegrees>
            </Position>
            <AltitudeMeters>68.59999847412109375</AltitudeMeters>
            <DistanceMeters>48257.748791419</DistanceMeters>
          </Trackpoint>
          <Trackpoint>
            <Time>2018-09-13T09:38:52.000Z</Time>
            <Position>
              <LatitudeDegrees>39.48959260247647762298583984375</LatitudeDegrees>
              <LongitudeDegrees>-8.178180344402790069580078125</LongitudeDegrees>
            </Position>
            <AltitudeMeters>70</AltitudeMeters>
            <DistanceMeters>48280.628335371</DistanceMeters>
          </Trackpoint>
          <Trackpoint>
            <Time>2018-09-13T09:38:56.000Z</Time>
            <Position>
              <LatitudeDegrees>39.48936578817665576934814453125</LatitudeDegrees>
              <LongitudeDegrees>-8.17831051535904407501220703125</LongitudeDegrees>
            </Position>
            <AltitudeMeters>70.59999847412109375</AltitudeMeters>
            <DistanceMeters>48308.238461293</DistanceMeters>
          </Trackpoint>
          <Trackpoint>
            <Time>2018-09-13T09:39:01.000Z</Time>
            <Position>
              <LatitudeDegrees>39.4891050271689891815185546875</LatitudeDegrees>
              <LongitudeDegrees>-8.17845937795937061309814453125</LongitudeDegrees>
            </Position>
            <AltitudeMeters>70.59999847412109375</AltitudeMeters>
            <DistanceMeters>48339.953760678</DistanceMeters>
          </Trackpoint>
          <Trackpoint>
            <Time>2018-09-13T09:39:04.000Z</Time>
            <Position>
              <LatitudeDegrees>39.48894334025681018829345703125</LatitudeDegrees>
              <LongitudeDegrees>-8.17855208180844783782958984375</LongitudeDegrees>
            </Position>
            <AltitudeMeters>71</AltitudeMeters>
            <DistanceMeters>48359.632781446</DistanceMeters>
          </Trackpoint>
          <Trackpoint>
            <Time>2018-09-13T09:39:08.000Z</Time>
            <Position>
              <LatitudeDegrees>39.48871602304279804229736328125</LatitudeDegrees>
              <LongitudeDegrees>-8.17868066020309925079345703125</LongitudeDegrees>
            </Position>
            <AltitudeMeters>71.40000152587890625</AltitudeMeters>
            <DistanceMeters>48387.239145959</DistanceMeters>
          </Trackpoint>
          <Trackpoint>
            <Time>2018-09-13T09:39:17.000Z</Time>
            <Position>
              <LatitudeDegrees>39.48818746022880077362060546875</LatitudeDegrees>
              <LongitudeDegrees>-8.17898534238338470458984375</LongitudeDegrees>
            </Position>
            <AltitudeMeters>73.8000030517578125</AltitudeMeters>
            <DistanceMeters>48451.628002272</DistanceMeters>
          </Trackpoint>
          <Trackpoint>
            <Time>2018-09-13T09:39:23.000Z</Time>
            <Position>
              <LatitudeDegrees>39.48790683411061763763427734375</LatitudeDegrees>
              <LongitudeDegrees>-8.17915876396000385284423828125</LongitudeDegrees>
            </Position>
            <AltitudeMeters>75.1999969482421875</AltitudeMeters>
            <DistanceMeters>48486.23260366</DistanceMeters>
          </Trackpoint>
          <Trackpoint>
            <Time>2018-09-13T09:39:25.000Z</Time>
            <Position>
              <LatitudeDegrees>39.48782318271696567535400390625</LatitudeDegrees>
              <LongitudeDegrees>-8.17920721136033535003662109375</LongitudeDegrees>
            </Position>
            <AltitudeMeters>75.8000030517578125</AltitudeMeters>
            <DistanceMeters>48496.431055527</DistanceMeters>
          </Trackpoint>
          <Trackpoint>
            <Time>2018-09-13T09:39:28.000Z</Time>
            <Position>
              <LatitudeDegrees>39.4876997172832489013671875</LatitudeDegrees>
              <LongitudeDegrees>-8.17927208729088306427001953125</LongitudeDegrees>
            </Position>
            <AltitudeMeters>76.1999969482421875</AltitudeMeters>
            <DistanceMeters>48511.260095333</DistanceMeters>
          </Trackpoint>
          <Trackpoint>
            <Time>2018-09-13T09:39:29.000Z</Time>
            <Position>
              <LatitudeDegrees>39.48766015470027923583984375</LatitudeDegrees>
              <LongitudeDegrees>-8.1792983226478099822998046875</LongitudeDegrees>
            </Position>
            <AltitudeMeters>76.40000152587890625</AltitudeMeters>
            <DistanceMeters>48516.206050962</DistanceMeters>
          </Trackpoint>
          <Trackpoint>
            <Time>2018-09-13T09:39:30.000Z</Time>
            <Position>
              <LatitudeDegrees>39.48762201704084873199462890625</LatitudeDegrees>
              <LongitudeDegrees>-8.1793288327753543853759765625</LongitudeDegrees>
            </Position>
            <AltitudeMeters>76.59999847412109375</AltitudeMeters>
            <DistanceMeters>48521.194727207</DistanceMeters>
          </Trackpoint>
          <Trackpoint>
            <Time>2018-09-13T09:39:35.000Z</Time>
            <Position>
              <LatitudeDegrees>39.4874296523630619049072265625</LatitudeDegrees>
              <LongitudeDegrees>-8.17947425879538059234619140625</LongitudeDegrees>
            </Position>
            <AltitudeMeters>77.40000152587890625</AltitudeMeters>
            <DistanceMeters>48545.983042634</DistanceMeters>
          </Trackpoint>
          <Trackpoint>
            <Time>2018-09-13T09:39:41.000Z</Time>
            <Position>
              <LatitudeDegrees>39.48720124550163745880126953125</LatitudeDegrees>
              <LongitudeDegrees>-8.17964290268719196319580078125</LongitudeDegrees>
            </Position>
            <AltitudeMeters>78.40000152587890625</AltitudeMeters>
            <DistanceMeters>48575.24293921</DistanceMeters>
          </Trackpoint>
          <Trackpoint>
            <Time>2018-09-13T09:39:53.000Z</Time>
            <Position>
              <LatitudeDegrees>39.48675750754773616790771484375</LatitudeDegrees>
              <LongitudeDegrees>-8.1799745745956897735595703125</LongitudeDegrees>
            </Position>
            <AltitudeMeters>78.59999847412109375</AltitudeMeters>
            <DistanceMeters>48632.260234841</DistanceMeters>
          </Trackpoint>
          <Trackpoint>
            <Time>2018-09-13T09:40:04.000Z</Time>
            <Position>
              <LatitudeDegrees>39.486282169818878173828125</LatitudeDegrees>
              <LongitudeDegrees>-8.1803534366190433502197265625</LongitudeDegrees>
            </Position>
            <AltitudeMeters>77.40000152587890625</AltitudeMeters>
            <DistanceMeters>48694.374495937</DistanceMeters>
          </Trackpoint>
          <Trackpoint>
            <Time>2018-09-13T09:40:11.000Z</Time>
            <Position>
              <LatitudeDegrees>39.4859571196138858795166015625</LatitudeDegrees>
              <LongitudeDegrees>-8.18069659173488616943359375</LongitudeDegrees>
            </Position>
            <AltitudeMeters>76.8000030517578125</AltitudeMeters>
            <DistanceMeters>48741.0416113</DistanceMeters>
          </Trackpoint>
          <Trackpoint>
            <Time>2018-09-13T09:40:14.000Z</Time>
            <Position>
              <LatitudeDegrees>39.485834576189517974853515625</LatitudeDegrees>
              <LongitudeDegrees>-8.1808687560260295867919921875</LongitudeDegrees>
            </Position>
            <AltitudeMeters>76.8000030517578125</AltitudeMeters>
            <DistanceMeters>48761.159913573</DistanceMeters>
          </Trackpoint>
          <Trackpoint>
            <Time>2018-09-13T09:40:17.000Z</Time>
            <Position>
              <LatitudeDegrees>39.48571421205997467041015625</LatitudeDegrees>
              <LongitudeDegrees>-8.18107545375823974609375</LongitudeDegrees>
            </Position>
            <AltitudeMeters>76.40000152587890625</AltitudeMeters>
            <DistanceMeters>48783.402255358</DistanceMeters>
          </Trackpoint>
          <Trackpoint>
            <Time>2018-09-13T09:40:21.000Z</Time>
            <Position>
              <LatitudeDegrees>39.48556308634579181671142578125</LatitudeDegrees>
              <LongitudeDegrees>-8.18140125833451747894287109375</LongitudeDegrees>
            </Position>
            <AltitudeMeters>76</AltitudeMeters>
            <DistanceMeters>48816.054961002</DistanceMeters>
          </Trackpoint>
          <Trackpoint>
            <Time>2018-09-13T09:40:24.000Z</Time>
            <Position>
              <LatitudeDegrees>39.4854743219912052154541015625</LatitudeDegrees>
              <LongitudeDegrees>-8.1816690601408481597900390625</LongitudeDegrees>
            </Position>
            <AltitudeMeters>75.8000030517578125</AltitudeMeters>
            <DistanceMeters>48841.091209249</DistanceMeters>
          </Trackpoint>
          <Trackpoint>
            <Time>2018-09-13T09:40:26.000Z</Time>
            <Position>
              <LatitudeDegrees>39.4854240305721759796142578125</LatitudeDegrees>
              <LongitudeDegrees>-8.181852959096431732177734375</LongitudeDegrees>
            </Position>
            <AltitudeMeters>75.59999847412109375</AltitudeMeters>
            <DistanceMeters>48857.850430523</DistanceMeters>
          </Trackpoint>
          <Trackpoint>
            <Time>2018-09-13T09:40:27.000Z</Time>
            <Position>
              <LatitudeDegrees>39.4853992201387882232666015625</LatitudeDegrees>
              <LongitudeDegrees>-8.1819456629455089569091796875</LongitudeDegrees>
            </Position>
            <AltitudeMeters>75.40000152587890625</AltitudeMeters>
            <DistanceMeters>48866.279466142</DistanceMeters>
          </Trackpoint>
          <Trackpoint>
            <Time>2018-09-13T09:40:32.000Z</Time>
            <Position>
              <LatitudeDegrees>39.485289417207241058349609375</LatitudeDegrees>
              <LongitudeDegrees>-8.182413876056671142578125</LongitudeDegrees>
            </Position>
            <AltitudeMeters>75</AltitudeMeters>
            <DistanceMeters>48908.315551221</DistanceMeters>
          </Trackpoint>
          <Trackpoint>
            <Time>2018-09-13T09:40:40.000Z</Time>
            <Position>
              <LatitudeDegrees>39.48514751158654689788818359375</LatitudeDegrees>
              <LongitudeDegrees>-8.18315022625029087066650390625</LongitudeDegrees>
            </Position>
            <AltitudeMeters>74.40000152587890625</AltitudeMeters>
            <DistanceMeters>48973.511357087</DistanceMeters>
          </Trackpoint>
          <Trackpoint>
            <Time>2018-09-13T09:40:44.000Z</Time>
            <Position>
              <LatitudeDegrees>39.48506838642060756683349609375</LatitudeDegrees>
              <LongitudeDegrees>-8.18351550959050655364990234375</LongitudeDegrees>
            </Position>
            <AltitudeMeters>74</AltitudeMeters>
            <DistanceMeters>49006.102333933</DistanceMeters>
          </Trackpoint>
          <Trackpoint>
            <Time>2018-09-13T09:40:51.000Z</Time>
            <Position>
              <LatitudeDegrees>39.484868310391902923583984375</LatitudeDegrees>
              <LongitudeDegrees>-8.18412403576076030731201171875</LongitudeDegrees>
            </Position>
            <AltitudeMeters>73.40000152587890625</AltitudeMeters>
            <DistanceMeters>49062.921634618</DistanceMeters>
          </Trackpoint>
          <Trackpoint>
            <Time>2018-09-13T09:40:55.000Z</Time>
            <Position>
              <LatitudeDegrees>39.48469254188239574432373046875</LatitudeDegrees>
              <LongitudeDegrees>-8.18443701602518558502197265625</LongitudeDegrees>
            </Position>
            <AltitudeMeters>73.40000152587890625</AltitudeMeters>
            <DistanceMeters>49096.171752199</DistanceMeters>
          </Trackpoint>
          <Trackpoint>
            <Time>2018-09-13T09:40:57.000Z</Time>
            <Position>
              <LatitudeDegrees>39.48458994738757610321044921875</LatitudeDegrees>
              <LongitudeDegrees>-8.18457934074103832244873046875</LongitudeDegrees>
            </Position>
            <AltitudeMeters>73.40000152587890625</AltitudeMeters>
            <DistanceMeters>49112.901042657</DistanceMeters>
          </Trackpoint>
          <Trackpoint>
            <Time>2018-09-13T09:41:05.000Z</Time>
            <Position>
              <LatitudeDegrees>39.48417806066572666168212890625</LatitudeDegrees>
              <LongitudeDegrees>-8.18507504649460315704345703125</LongitudeDegrees>
            </Position>
            <AltitudeMeters>73.59999847412109375</AltitudeMeters>
            <DistanceMeters>49175.47034345</DistanceMeters>
          </Trackpoint>
          <Trackpoint>
            <Time>2018-09-13T09:41:13.000Z</Time>
            <Position>
              <LatitudeDegrees>39.48373700492084026336669921875</LatitudeDegrees>
              <LongitudeDegrees>-8.1855213828384876251220703125</LongitudeDegrees>
            </Position>
            <AltitudeMeters>73.59999847412109375</AltitudeMeters>
            <DistanceMeters>49237.759611753</DistanceMeters>
          </Trackpoint>
          <Trackpoint>
            <Time>2018-09-13T09:41:21.000Z</Time>
            <Position>
              <LatitudeDegrees>39.4832499325275421142578125</LatitudeDegrees>
              <LongitudeDegrees>-8.18593871779739856719970703125</LongitudeDegrees>
            </Position>
            <AltitudeMeters>73.40000152587890625</AltitudeMeters>
            <DistanceMeters>49302.75371641</DistanceMeters>
          </Trackpoint>
          <Trackpoint>
            <Time>2018-09-13T09:41:29.000Z</Time>
            <Position>
              <LatitudeDegrees>39.48276956565678119659423828125</LatitudeDegrees>
              <LongitudeDegrees>-8.1863538734614849090576171875</LongitudeDegrees>
            </Position>
            <AltitudeMeters>74</AltitudeMeters>
            <DistanceMeters>49367.022553233</DistanceMeters>
          </Trackpoint>
          <Trackpoint>
            <Time>2018-09-13T09:41:37.000Z</Time>
            <Position>
              <LatitudeDegrees>39.48230034671723842620849609375</LatitudeDegrees>
              <LongitudeDegrees>-8.1867783330380916595458984375</LongitudeDegrees>
            </Position>
            <AltitudeMeters>75</AltitudeMeters>
            <DistanceMeters>49430.717252264</DistanceMeters>
          </Trackpoint>
          <Trackpoint>
            <Time>2018-09-13T09:41:45.000Z</Time>
            <Position>
              <LatitudeDegrees>39.4818503223359584808349609375</LatitudeDegrees>
              <LongitudeDegrees>-8.18720639683306217193603515625</LongitudeDegrees>
            </Position>
            <AltitudeMeters>75.40000152587890625</AltitudeMeters>
            <DistanceMeters>49492.85513287</DistanceMeters>
          </Trackpoint>
          <Trackpoint>
            <Time>2018-09-13T09:41:52.000Z</Time>
            <Position>
              <LatitudeDegrees>39.4814489968121051788330078125</LatitudeDegrees>
              <LongitudeDegrees>-8.187606967985630035400390625</LongitudeDegrees>
            </Position>
            <AltitudeMeters>75.40000152587890625</AltitudeMeters>
            <DistanceMeters>49549.241378048</DistanceMeters>
          </Trackpoint>
          <Trackpoint>
            <Time>2018-09-13T09:42:00.000Z</Time>
            <Position>
              <LatitudeDegrees>39.48098857887089252471923828125</LatitudeDegrees>
              <LongitudeDegrees>-8.1880652904510498046875</LongitudeDegrees>
            </Position>
            <AltitudeMeters>75.8000030517578125</AltitudeMeters>
            <DistanceMeters>49613.865832046</DistanceMeters>
          </Trackpoint>
          <Trackpoint>
            <Time>2018-09-13T09:42:08.000Z</Time>
            <Position>
              <LatitudeDegrees>39.48052740655839443206787109375</LatitudeDegrees>
              <LongitudeDegrees>-8.18852822296321392059326171875</LongitudeDegrees>
            </Position>
            <AltitudeMeters>78</AltitudeMeters>
            <DistanceMeters>49678.798914778</DistanceMeters>
          </Trackpoint>
          <Trackpoint>
            <Time>2018-09-13T09:42:16.000Z</Time>
            <Position>
              <LatitudeDegrees>39.48006757535040378570556640625</LatitudeDegrees>
              <LongitudeDegrees>-8.18899132311344146728515625</LongitudeDegrees>
            </Position>
            <AltitudeMeters>78</AltitudeMeters>
            <DistanceMeters>49743.623016264</DistanceMeters>
          </Trackpoint>
          <Trackpoint>
            <Time>2018-09-13T09:42:21.000Z</Time>
            <Position>
              <LatitudeDegrees>39.4797873683273792266845703125</LatitudeDegrees>
              <LongitudeDegrees>-8.18927085958421230316162109375</LongitudeDegrees>
            </Position>
            <AltitudeMeters>77.40000152587890625</AltitudeMeters>
            <DistanceMeters>49782.984957986</DistanceMeters>
          </Trackpoint>
          <Trackpoint>
            <Time>2018-09-13T09:42:25.000Z</Time>
            <Position>
              <LatitudeDegrees>39.4795238412916660308837890625</LatitudeDegrees>
              <LongitudeDegrees>-8.1894883699715137481689453125</LongitudeDegrees>
            </Position>
            <AltitudeMeters>76.8000030517578125</AltitudeMeters>
            <DistanceMeters>49817.76252847</DistanceMeters>
          </Trackpoint>
          <Trackpoint>
            <Time>2018-09-13T09:42:32.000Z</Time>
            <Position>
              <LatitudeDegrees>39.478941299021244049072265625</LatitudeDegrees>
              <LongitudeDegrees>-8.189736641943454742431640625</LongitudeDegrees>
            </Position>
            <AltitudeMeters>74.59999847412109375</AltitudeMeters>
            <DistanceMeters>49886.018703282</DistanceMeters>
          </Trackpoint>
          <Trackpoint>
            <Time>2018-09-13T09:42:34.000Z</Time>
            <Position>
              <LatitudeDegrees>39.4787599146366119384765625</LatitudeDegrees>
              <LongitudeDegrees>-8.1897656433284282684326171875</LongitudeDegrees>
            </Position>
            <AltitudeMeters>74</AltitudeMeters>
            <DistanceMeters>49906.36041395</DistanceMeters>
          </Trackpoint>
          <Trackpoint>
            <Time>2018-09-13T09:42:35.000Z</Time>
            <Position>
              <LatitudeDegrees>39.47867115028202533721923828125</LatitudeDegrees>
              <LongitudeDegrees>-8.18977913819253444671630859375</LongitudeDegrees>
            </Position>
            <AltitudeMeters>73.8000030517578125</AltitudeMeters>
            <DistanceMeters>49916.30785471</DistanceMeters>
          </Trackpoint>
          <Trackpoint>
            <Time>2018-09-13T09:42:36.000Z</Time>
            <Position>
              <LatitudeDegrees>39.4785830564796924591064453125</LatitudeDegrees>
              <LongitudeDegrees>-8.18979036994278430938720703125</LongitudeDegrees>
            </Position>
            <AltitudeMeters>73.1999969482421875</AltitudeMeters>
            <DistanceMeters>49926.159975887</DistanceMeters>
          </Trackpoint>
          <Trackpoint>
            <Time>2018-09-13T09:42:38.000Z</Time>
            <Position>
              <LatitudeDegrees>39.47840427048504352569580078125</LatitudeDegrees>
              <LongitudeDegrees>-8.18981367163360118865966796875</LongitudeDegrees>
            </Position>
            <AltitudeMeters>72.1999969482421875</AltitudeMeters>
            <DistanceMeters>49946.15943103</DistanceMeters>
          </Trackpoint>
          <Trackpoint>
            <Time>2018-09-13T09:42:41.000Z</Time>
            <Position>
              <LatitudeDegrees>39.4781388156116008758544921875</LatitudeDegrees>
              <LongitudeDegrees>-8.1898637115955352783203125</LongitudeDegrees>
            </Position>
            <AltitudeMeters>70.40000152587890625</AltitudeMeters>
            <DistanceMeters>49976.016274239</DistanceMeters>
          </Trackpoint>
          <Trackpoint>
            <Time>2018-09-13T09:42:43.000Z</Time>
            <Position>
              <LatitudeDegrees>39.47796153835952281951904296875</LatitudeDegrees>
              <LongitudeDegrees>-8.1898990832269191741943359375</LongitudeDegrees>
            </Position>
            <AltitudeMeters>69.1999969482421875</AltitudeMeters>
            <DistanceMeters>49995.980253903</DistanceMeters>
          </Trackpoint>
          <Trackpoint>
            <Time>2018-09-13T09:42:44.000Z</Time>
            <Position>
              <LatitudeDegrees>39.4778709299862384796142578125</LatitudeDegrees>
              <LongitudeDegrees>-8.18991526030004024505615234375</LongitudeDegrees>
            </Position>
            <AltitudeMeters>68.59999847412109375</AltitudeMeters>
            <DistanceMeters>50006.160538149</DistanceMeters>
          </Trackpoint>
          <Trackpoint>
            <Time>2018-09-13T09:42:47.000Z</Time>
            <Position>
              <LatitudeDegrees>39.477597177028656005859375</LatitudeDegrees>
              <LongitudeDegrees>-8.1899654679000377655029296875</LongitudeDegrees>
            </Position>
            <AltitudeMeters>66.59999847412109375</AltitudeMeters>
            <DistanceMeters>50036.933645186</DistanceMeters>
          </Trackpoint>
          <Trackpoint>
            <Time>2018-09-13T09:42:49.000Z</Time>
            <Position>
              <LatitudeDegrees>39.47742082178592681884765625</LatitudeDegrees>
              <LongitudeDegrees>-8.19000695832073688507080078125</LongitudeDegrees>
            </Position>
            <AltitudeMeters>65.1999969482421875</AltitudeMeters>
            <DistanceMeters>50056.88337173</DistanceMeters>
          </Trackpoint>
          <Trackpoint>
            <Time>2018-09-13T09:42:53.000Z</Time>
            <Position>
              <LatitudeDegrees>39.47709283791482448577880859375</LatitudeDegrees>
              <LongitudeDegrees>-8.19012749008834362030029296875</LongitudeDegrees>
            </Position>
            <AltitudeMeters>62.59999847412109375</AltitudeMeters>
            <DistanceMeters>50094.828908347</DistanceMeters>
          </Trackpoint>
          <Trackpoint>
            <Time>2018-09-13T09:43:00.000Z</Time>
            <Position>
              <LatitudeDegrees>39.4765113852918148040771484375</LatitudeDegrees>
              <LongitudeDegrees>-8.1903679668903350830078125</LongitudeDegrees>
            </Position>
            <AltitudeMeters>60.59999847412109375</AltitudeMeters>
            <DistanceMeters>50162.763372863</DistanceMeters>
          </Trackpoint>
          <Trackpoint>
            <Time>2018-09-13T09:43:01.000Z</Time>
            <Position>
              <LatitudeDegrees>39.47642815299332141876220703125</LatitudeDegrees>
              <LongitudeDegrees>-8.19040325470268726348876953125</LongitudeDegrees>
            </Position>
            <AltitudeMeters>60.200000762939453125</AltitudeMeters>
            <DistanceMeters>50172.510909184</DistanceMeters>
          </Trackpoint>
          <Trackpoint>
            <Time>2018-09-13T09:43:03.000Z</Time>
            <Position>
              <LatitudeDegrees>39.4762627780437469482421875</LatitudeDegrees>
              <LongitudeDegrees>-8.19046762771904468536376953125</LongitudeDegrees>
            </Position>
            <AltitudeMeters>59.799999237060546875</AltitudeMeters>
            <DistanceMeters>50191.730282406</DistanceMeters>
          </Trackpoint>
          <Trackpoint>
            <Time>2018-09-13T09:43:06.000Z</Time>
            <Position>
              <LatitudeDegrees>39.4760160148143768310546875</LatitudeDegrees>
              <LongitudeDegrees>-8.1905629299581050872802734375</LongitudeDegrees>
            </Position>
            <AltitudeMeters>58.799999237060546875</AltitudeMeters>
            <DistanceMeters>50220.38993616</DistanceMeters>
          </Trackpoint>
          <Trackpoint>
            <Time>2018-09-13T09:43:08.000Z</Time>
            <Position>
              <LatitudeDegrees>39.4758515618741512298583984375</LatitudeDegrees>
              <LongitudeDegrees>-8.19062537513673305511474609375</LongitudeDegrees>
            </Position>
            <AltitudeMeters>58</AltitudeMeters>
            <DistanceMeters>50239.464048982</DistanceMeters>
          </Trackpoint>
          <Trackpoint>
            <Time>2018-09-13T09:43:15.000Z</Time>
            <Position>
              <LatitudeDegrees>39.47529307566583156585693359375</LatitudeDegrees>
              <LongitudeDegrees>-8.19083341397345066070556640625</LongitudeDegrees>
            </Position>
            <AltitudeMeters>54.799999237060546875</AltitudeMeters>
            <DistanceMeters>50304.143254562</DistanceMeters>
          </Trackpoint>
          <Trackpoint>
            <Time>2018-09-13T09:43:16.000Z</Time>
            <Position>
              <LatitudeDegrees>39.47522685863077640533447265625</LatitudeDegrees>
              <LongitudeDegrees>-8.19085973314940929412841796875</LongitudeDegrees>
            </Position>
            <AltitudeMeters>54.59999847412109375</AltitudeMeters>
            <DistanceMeters>50311.851555478</DistanceMeters>
          </Trackpoint>
          <Trackpoint>
            <Time>2018-09-13T09:43:18.000Z</Time>
            <Position>
              <LatitudeDegrees>39.47512426413595676422119140625</LatitudeDegrees>
              <LongitudeDegrees>-8.19091673009097576141357421875</LongitudeDegrees>
            </Position>
            <AltitudeMeters>54.200000762939453125</AltitudeMeters>
            <DistanceMeters>50324.276457364</DistanceMeters>
          </Trackpoint>
          <Trackpoint>
            <Time>2018-09-13T09:43:21.000Z</Time>
            <Position>
              <LatitudeDegrees>39.475003816187381744384765625</LatitudeDegrees>
              <LongitudeDegrees>-8.1910678558051586151123046875</LongitudeDegrees>
            </Position>
            <AltitudeMeters>53.799999237060546875</AltitudeMeters>
            <DistanceMeters>50342.93947182</DistanceMeters>
          </Trackpoint>
          <Trackpoint>
            <Time>2018-09-13T09:43:22.000Z</Time>
            <Position>
              <LatitudeDegrees>39.47495453059673309326171875</LatitudeDegrees>
              <LongitudeDegrees>-8.191114962100982666015625</LongitudeDegrees>
            </Position>
            <AltitudeMeters>53.59999847412109375</AltitudeMeters>
            <DistanceMeters>50349.756272638</DistanceMeters>
          </Trackpoint>
          <Trackpoint>
            <Time>2018-09-13T09:43:24.000Z</Time>
            <Position>
              <LatitudeDegrees>39.4748403690755367279052734375</LatitudeDegrees>
              <LongitudeDegrees>-8.1911660917103290557861328125</LongitudeDegrees>
            </Position>
            <AltitudeMeters>53.200000762939453125</AltitudeMeters>
            <DistanceMeters>50363.200453911</DistanceMeters>
          </Trackpoint>
          <Trackpoint>
            <Time>2018-09-13T09:43:26.000Z</Time>
            <Position>
              <LatitudeDegrees>39.47471539489924907684326171875</LatitudeDegrees>
              <LongitudeDegrees>-8.191171623766422271728515625</LongitudeDegrees>
            </Position>
            <AltitudeMeters>52.799999237060546875</AltitudeMeters>
            <DistanceMeters>50377.118218451</DistanceMeters>
          </Trackpoint>
          <Trackpoint>
            <Time>2018-09-13T09:43:27.000Z</Time>
            <Position>
              <LatitudeDegrees>39.4746563024818897247314453125</LatitudeDegrees>
              <LongitudeDegrees>-8.19117589853703975677490234375</LongitudeDegrees>
            </Position>
            <AltitudeMeters>52.59999847412109375</AltitudeMeters>
            <DistanceMeters>50383.705290434</DistanceMeters>
          </Trackpoint>
          <Trackpoint>
            <Time>2018-09-13T09:43:29.000Z</Time>
            <Position>
              <LatitudeDegrees>39.474546499550342559814453125</LatitudeDegrees>
              <LongitudeDegrees>-8.191233314573764801025390625</LongitudeDegrees>
            </Position>
            <AltitudeMeters>52.200000762939453125</AltitudeMeters>
            <DistanceMeters>50396.884916775</DistanceMeters>
          </Trackpoint>
          <Trackpoint>
            <Time>2018-09-13T09:43:33.000Z</Time>
            <Position>
              <LatitudeDegrees>39.47435681708157062530517578125</LatitudeDegrees>
              <LongitudeDegrees>-8.191451914608478546142578125</LongitudeDegrees>
            </Position>
            <AltitudeMeters>52</AltitudeMeters>
            <DistanceMeters>50425.141586061</DistanceMeters>
          </Trackpoint>
          <Trackpoint>
            <Time>2018-09-13T09:43:36.000Z</Time>
            <Position>
              <LatitudeDegrees>39.47423511184751987457275390625</LatitudeDegrees>
              <LongitudeDegrees>-8.19165316410362720489501953125</LongitudeDegrees>
            </Position>
            <AltitudeMeters>52</AltitudeMeters>
            <DistanceMeters>50447.106533688</DistanceMeters>
          </Trackpoint>
          <Trackpoint>
            <Time>2018-09-13T09:43:44.000Z</Time>
            <Position>
              <LatitudeDegrees>39.47392866946756839752197265625</LatitudeDegrees>
              <LongitudeDegrees>-8.1922131590545177459716796875</LongitudeDegrees>
            </Position>
            <AltitudeMeters>52</AltitudeMeters>
            <DistanceMeters>50506.082075601</DistanceMeters>
          </Trackpoint>
          <Trackpoint>
            <Time>2018-09-13T09:43:49.000Z</Time>
            <Position>
              <LatitudeDegrees>39.47373546659946441650390625</LatitudeDegrees>
              <LongitudeDegrees>-8.19255690090358257293701171875</LongitudeDegrees>
            </Position>
            <AltitudeMeters>52</AltitudeMeters>
            <DistanceMeters>50542.614378815</DistanceMeters>
          </Trackpoint>
          <Trackpoint>
            <Time>2018-09-13T09:43:56.000Z</Time>
            <Position>
              <LatitudeDegrees>39.4734449498355388641357421875</LatitudeDegrees>
              <LongitudeDegrees>-8.193089067935943603515625</LongitudeDegrees>
            </Position>
            <AltitudeMeters>49.59999847412109375</AltitudeMeters>
            <DistanceMeters>50598.614630226</DistanceMeters>
          </Trackpoint>
          <Trackpoint>
            <Time>2018-09-13T09:43:59.000Z</Time>
            <Position>
              <LatitudeDegrees>39.47330622933804988861083984375</LatitudeDegrees>
              <LongitudeDegrees>-8.19333775900304317474365234375</LongitudeDegrees>
            </Position>
            <AltitudeMeters>48.200000762939453125</AltitudeMeters>
            <DistanceMeters>50624.976109564</DistanceMeters>
          </Trackpoint>
          <Trackpoint>
            <Time>2018-09-13T09:44:01.000Z</Time>
            <Position>
              <LatitudeDegrees>39.47321352548897266387939453125</LatitudeDegrees>
              <LongitudeDegrees>-8.193504810333251953125</LongitudeDegrees>
            </Position>
            <AltitudeMeters>47.59999847412109375</AltitudeMeters>
            <DistanceMeters>50642.652611059</DistanceMeters>
          </Trackpoint>
          <Trackpoint>
            <Time>2018-09-13T09:44:03.000Z</Time>
            <Position>
              <LatitudeDegrees>39.473122246563434600830078125</LatitudeDegrees>
              <LongitudeDegrees>-8.19366599433124065399169921875</LongitudeDegrees>
            </Position>
            <AltitudeMeters>47.799999237060546875</AltitudeMeters>
            <DistanceMeters>50659.828016069</DistanceMeters>
          </Trackpoint>
          <Trackpoint>
            <Time>2018-09-13T09:44:08.000Z</Time>
            <Position>
              <LatitudeDegrees>39.4729041494429111480712890625</LatitudeDegrees>
              <LongitudeDegrees>-8.1940306909382343292236328125</LongitudeDegrees>
            </Position>
            <AltitudeMeters>48.40000152587890625</AltitudeMeters>
            <DistanceMeters>50699.464409317</DistanceMeters>
          </Trackpoint>
          <Trackpoint>
            <Time>2018-09-13T09:44:11.000Z</Time>
            <Position>
              <LatitudeDegrees>39.4728005491197109222412109375</LatitudeDegrees>
              <LongitudeDegrees>-8.19422925822436809539794921875</LongitudeDegrees>
            </Position>
            <AltitudeMeters>49</AltitudeMeters>
            <DistanceMeters>50720.056064653</DistanceMeters>
          </Trackpoint>
          <Trackpoint>
            <Time>2018-09-13T09:44:13.000Z</Time>
            <Position>
              <LatitudeDegrees>39.47275570593774318695068359375</LatitudeDegrees>
              <LongitudeDegrees>-8.19435599260032176971435546875</LongitudeDegrees>
            </Position>
            <AltitudeMeters>49.59999847412109375</AltitudeMeters>
            <DistanceMeters>50732.033954891</DistanceMeters>
          </Trackpoint>
          <Trackpoint>
            <Time>2018-09-13T09:44:15.000Z</Time>
            <Position>
              <LatitudeDegrees>39.472719915211200714111328125</LatitudeDegrees>
              <LongitudeDegrees>-8.1944878399372100830078125</LongitudeDegrees>
            </Position>
            <AltitudeMeters>50</AltitudeMeters>
            <DistanceMeters>50744.041211051</DistanceMeters>
          </Trackpoint>
          <Trackpoint>
            <Time>2018-09-13T09:44:22.000Z</Time>
            <Position>
              <LatitudeDegrees>39.472451694309711456298828125</LatitudeDegrees>
              <LongitudeDegrees>-8.19448306225240230560302734375</LongitudeDegrees>
            </Position>
            <AltitudeMeters>51</AltitudeMeters>
            <DistanceMeters>50773.897298136</DistanceMeters>
          </Trackpoint>
          <Trackpoint>
            <Time>2018-09-13T09:44:28.000Z</Time>
            <Position>
              <LatitudeDegrees>39.47223787195980548858642578125</LatitudeDegrees>
              <LongitudeDegrees>-8.19418885745108127593994140625</LongitudeDegrees>
            </Position>
            <AltitudeMeters>50.799999237060546875</AltitudeMeters>
            <DistanceMeters>50808.615097226</DistanceMeters>
          </Trackpoint>
          <Trackpoint>
            <Time>2018-09-13T09:44:31.000Z</Time>
            <Position>
              <LatitudeDegrees>39.47209395468235015869140625</LatitudeDegrees>
              <LongitudeDegrees>-8.1941423378884792327880859375</LongitudeDegrees>
            </Position>
            <AltitudeMeters>51</AltitudeMeters>
            <DistanceMeters>50825.124330925</DistanceMeters>
          </Trackpoint>
          <Trackpoint>
            <Time>2018-09-13T09:44:43.000Z</Time>
            <Position>
              <LatitudeDegrees>39.47155483067035675048828125</LatitudeDegrees>
              <LongitudeDegrees>-8.1939326226711273193359375</LongitudeDegrees>
            </Position>
            <AltitudeMeters>51</AltitudeMeters>
            <DistanceMeters>50887.776705578</DistanceMeters>
          </Trackpoint>
          <Trackpoint>
            <Time>2018-09-13T09:44:48.000Z</Time>
            <Position>
              <LatitudeDegrees>39.47133111767470836639404296875</LatitudeDegrees>
              <LongitudeDegrees>-8.19383983500301837921142578125</LongitudeDegrees>
            </Position>
            <AltitudeMeters>51.799999237060546875</AltitudeMeters>
            <DistanceMeters>50913.921316237</DistanceMeters>
          </Trackpoint>
          <Trackpoint>
            <Time>2018-09-13T09:45:01.000Z</Time>
            <Position>
              <LatitudeDegrees>39.47078797034919261932373046875</LatitudeDegrees>
              <LongitudeDegrees>-8.19360547699034214019775390625</LongitudeDegrees>
            </Position>
            <AltitudeMeters>52.200000762939453125</AltitudeMeters>
            <DistanceMeters>50977.639970103</DistanceMeters>
          </Trackpoint>
          <Trackpoint>
            <Time>2018-09-13T09:45:05.000Z</Time>
            <Position>
              <LatitudeDegrees>39.47066433727741241455078125</LatitudeDegrees>
              <LongitudeDegrees>-8.1935307942330837249755859375</LongitudeDegrees>
            </Position>
            <AltitudeMeters>52.40000152587890625</AltitudeMeters>
            <DistanceMeters>50992.823443079</DistanceMeters>
          </Trackpoint>
          <Trackpoint>
            <Time>2018-09-13T09:45:11.000Z</Time>
            <Position>
              <LatitudeDegrees>39.47079886682331562042236328125</LatitudeDegrees>
              <LongitudeDegrees>-8.1935053132474422454833984375</LongitudeDegrees>
            </Position>
            <AltitudeMeters>52</AltitudeMeters>
            <DistanceMeters>51007.955981152</DistanceMeters>
          </Trackpoint>
          <Trackpoint>
            <Time>2018-09-13T09:45:15.000Z</Time>
            <Position>
              <LatitudeDegrees>39.4708680175244808197021484375</LatitudeDegrees>
              <LongitudeDegrees>-8.193387128412723541259765625</LongitudeDegrees>
            </Position>
            <AltitudeMeters>51.40000152587890625</AltitudeMeters>
            <DistanceMeters>51020.697713546</DistanceMeters>
          </Trackpoint>
          <Trackpoint>
            <Time>2018-09-13T09:45:27.000Z</Time>
            <Position>
              <LatitudeDegrees>39.4709541834890842437744140625</LatitudeDegrees>
              <LongitudeDegrees>-8.1928464956581592559814453125</LongitudeDegrees>
            </Position>
            <AltitudeMeters>49.40000152587890625</AltitudeMeters>
            <DistanceMeters>51068.128135053</DistanceMeters>
          </Trackpoint>
          <Trackpoint>
            <Time>2018-09-13T09:45:28.000Z</Time>
            <Position>
              <LatitudeDegrees>39.47095342911779880523681640625</LatitudeDegrees>
              <LongitudeDegrees>-8.19281087256968021392822265625</LongitudeDegrees>
            </Position>
            <AltitudeMeters>49.200000762939453125</AltitudeMeters>
            <DistanceMeters>51071.189706439</DistanceMeters>
          </Trackpoint>
          <Trackpoint>
            <Time>2018-09-13T09:45:31.000Z</Time>
            <Position>
              <LatitudeDegrees>39.470955692231655120849609375</LatitudeDegrees>
              <LongitudeDegrees>-8.19276242516934871673583984375</LongitudeDegrees>
            </Position>
            <AltitudeMeters>49</AltitudeMeters>
            <DistanceMeters>51075.3600694</DistanceMeters>
          </Trackpoint>
          <Trackpoint>
            <Time>2018-09-13T10:05:45.000Z</Time>
            <Position>
              <LatitudeDegrees>39.47094974108040332794189453125</LatitudeDegrees>
              <LongitudeDegrees>-8.1928934343159198760986328125</LongitudeDegrees>
            </Position>
            <AltitudeMeters>49.59999847412109375</AltitudeMeters>
            <DistanceMeters>51086.63546058</DistanceMeters>
          </Trackpoint>
          <Trackpoint>
            <Time>2018-09-13T10:05:46.000Z</Time>
            <Position>
              <LatitudeDegrees>39.47095795534551143646240234375</LatitudeDegrees>
              <LongitudeDegrees>-8.19291581399738788604736328125</LongitudeDegrees>
            </Position>
            <AltitudeMeters>49.59999847412109375</AltitudeMeters>
            <DistanceMeters>51088.764567992</DistanceMeters>
          </Trackpoint>
          <Trackpoint>
            <Time>2018-09-13T10:05:49.000Z</Time>
            <Position>
              <LatitudeDegrees>39.4709682650864124298095703125</LatitudeDegrees>
              <LongitudeDegrees>-8.1929911673069000244140625</LongitudeDegrees>
            </Position>
            <AltitudeMeters>49.799999237060546875</AltitudeMeters>
            <DistanceMeters>51095.339977182</DistanceMeters>
          </Trackpoint>
          <Trackpoint>
            <Time>2018-09-13T10:05:52.000Z</Time>
            <Position>
              <LatitudeDegrees>39.47094907052814960479736328125</LatitudeDegrees>
              <LongitudeDegrees>-8.1930949352681636810302734375</LongitudeDegrees>
            </Position>
            <AltitudeMeters>50.200000762939453125</AltitudeMeters>
            <DistanceMeters>51104.507962323</DistanceMeters>
          </Trackpoint>
          <Trackpoint>
            <Time>2018-09-13T10:06:06.000Z</Time>
            <Position>
              <LatitudeDegrees>39.47074840776622295379638671875</LatitudeDegrees>
              <LongitudeDegrees>-8.19353490136563777923583984375</LongitudeDegrees>
            </Position>
            <AltitudeMeters>52.200000762939453125</AltitudeMeters>
            <DistanceMeters>51148.41441788</DistanceMeters>
          </Trackpoint>
          <Trackpoint>
            <Time>2018-09-13T10:06:10.000Z</Time>
            <Position>
              <LatitudeDegrees>39.470619075000286102294921875</LatitudeDegrees>
              <LongitudeDegrees>-8.1935234181582927703857421875</LongitudeDegrees>
            </Position>
            <AltitudeMeters>52.40000152587890625</AltitudeMeters>
            <DistanceMeters>51162.842840605</DistanceMeters>
          </Trackpoint>
          <Trackpoint>
            <Time>2018-09-13T10:06:14.000Z</Time>
            <Position>
              <LatitudeDegrees>39.47046576999127864837646484375</LatitudeDegrees>
              <LongitudeDegrees>-8.193467594683170318603515625</LongitudeDegrees>
            </Position>
            <AltitudeMeters>52.799999237060546875</AltitudeMeters>
            <DistanceMeters>51180.567297141</DistanceMeters>
          </Trackpoint>
          <Trackpoint>
            <Time>2018-09-13T10:06:17.000Z</Time>
            <Position>
              <LatitudeDegrees>39.4703493453562259674072265625</LatitudeDegrees>
              <LongitudeDegrees>-8.19341621361672878265380859375</LongitudeDegrees>
            </Position>
            <AltitudeMeters>52.799999237060546875</AltitudeMeters>
            <DistanceMeters>51194.256422254</DistanceMeters>
          </Trackpoint>
          <Trackpoint>
            <Time>2018-09-13T10:06:28.000Z</Time>
            <Position>
              <LatitudeDegrees>39.46990351192653179168701171875</LatitudeDegrees>
              <LongitudeDegrees>-8.193264417350292205810546875</LongitudeDegrees>
            </Position>
            <AltitudeMeters>53.40000152587890625</AltitudeMeters>
            <DistanceMeters>51245.563984514</DistanceMeters>
          </Trackpoint>
          <Trackpoint>
            <Time>2018-09-13T10:06:33.000Z</Time>
            <Position>
              <LatitudeDegrees>39.4696886837482452392578125</LatitudeDegrees>
              <LongitudeDegrees>-8.193179927766323089599609375</LongitudeDegrees>
            </Position>
            <AltitudeMeters>53.200000762939453125</AltitudeMeters>
            <DistanceMeters>51270.552396949</DistanceMeters>
          </Trackpoint>
          <Trackpoint>
            <Time>2018-09-13T10:06:44.000Z</Time>
            <Position>
              <LatitudeDegrees>39.4692130945622920989990234375</LatitudeDegrees>
              <LongitudeDegrees>-8.1930018961429595947265625</LongitudeDegrees>
            </Position>
            <AltitudeMeters>53.200000762939453125</AltitudeMeters>
            <DistanceMeters>51325.652324365</DistanceMeters>
          </Trackpoint>
          <Trackpoint>
            <Time>2018-09-13T10:06:56.000Z</Time>
            <Position>
              <LatitudeDegrees>39.468677826225757598876953125</LatitudeDegrees>
              <LongitudeDegrees>-8.1927846372127532958984375</LongitudeDegrees>
            </Position>
            <AltitudeMeters>54.59999847412109375</AltitudeMeters>
            <DistanceMeters>51388.084803388</DistanceMeters>
          </Trackpoint>
          <Trackpoint>
            <Time>2018-09-13T10:07:08.000Z</Time>
            <Position>
              <LatitudeDegrees>39.4681294821202754974365234375</LatitudeDegrees>
              <LongitudeDegrees>-8.19256997667253017425537109375</LongitudeDegrees>
            </Position>
            <AltitudeMeters>55.59999847412109375</AltitudeMeters>
            <DistanceMeters>51451.842701039</DistanceMeters>
          </Trackpoint>
          <Trackpoint>
            <Time>2018-09-13T10:07:11.000Z</Time>
            <Position>
              <LatitudeDegrees>39.467990510165691375732421875</LatitudeDegrees>
              <LongitudeDegrees>-8.19251633249223232269287109375</LongitudeDegrees>
            </Position>
            <AltitudeMeters>55.799999237060546875</AltitudeMeters>
            <DistanceMeters>51467.98298218</DistanceMeters>
          </Trackpoint>
          <Trackpoint>
            <Time>2018-09-13T10:07:22.000Z</Time>
            <Position>
              <LatitudeDegrees>39.46747242473065853118896484375</LatitudeDegrees>
              <LongitudeDegrees>-8.19230519235134124755859375</LongitudeDegrees>
            </Position>
            <AltitudeMeters>60.200000762939453125</AltitudeMeters>
            <DistanceMeters>51528.433418201</DistanceMeters>
          </Trackpoint>
          <Trackpoint>
            <Time>2018-09-13T10:07:26.000Z</Time>
            <Position>
              <LatitudeDegrees>39.46727327071130275726318359375</LatitudeDegrees>
              <LongitudeDegrees>-8.1922098062932491302490234375</LongitudeDegrees>
            </Position>
            <AltitudeMeters>61</AltitudeMeters>
            <DistanceMeters>51552.066239193</DistanceMeters>
          </Trackpoint>
          <Trackpoint>
            <Time>2018-09-13T10:07:28.000Z</Time>
            <Position>
              <LatitudeDegrees>39.46716916747391223907470703125</LatitudeDegrees>
              <LongitudeDegrees>-8.19215440191328525543212890625</LongitudeDegrees>
            </Position>
            <AltitudeMeters>60.200000762939453125</AltitudeMeters>
            <DistanceMeters>51564.593196862</DistanceMeters>
          </Trackpoint>
          <Trackpoint>
            <Time>2018-09-13T10:07:31.000Z</Time>
            <Position>
              <LatitudeDegrees>39.46700722910463809967041015625</LatitudeDegrees>
              <LongitudeDegrees>-8.19206387735903263092041015625</LongitudeDegrees>
            </Position>
            <AltitudeMeters>58.799999237060546875</AltitudeMeters>
            <DistanceMeters>51584.223977344</DistanceMeters>
          </Trackpoint>
          <Trackpoint>
            <Time>2018-09-13T10:07:36.000Z</Time>
            <Position>
              <LatitudeDegrees>39.46671771816909313201904296875</LatitudeDegrees>
              <LongitudeDegrees>-8.19189523346722126007080078125</LongitudeDegrees>
            </Position>
            <AltitudeMeters>59.40000152587890625</AltitudeMeters>
            <DistanceMeters>51619.555390244</DistanceMeters>
          </Trackpoint>
          <Trackpoint>
            <Time>2018-09-13T10:07:41.000Z</Time>
            <Position>
              <LatitudeDegrees>39.4663897342979907989501953125</LatitudeDegrees>
              <LongitudeDegrees>-8.19170898757874965667724609375</LongitudeDegrees>
            </Position>
            <AltitudeMeters>57.40000152587890625</AltitudeMeters>
            <DistanceMeters>51659.414311321</DistanceMeters>
          </Trackpoint>
          <Trackpoint>
            <Time>2018-09-13T10:07:42.000Z</Time>
            <Position>
              <LatitudeDegrees>39.4663223437964916229248046875</LatitudeDegrees>
              <LongitudeDegrees>-8.19166925735771656036376953125</LongitudeDegrees>
            </Position>
            <AltitudeMeters>57.59999847412109375</AltitudeMeters>
            <DistanceMeters>51667.654831624</DistanceMeters>
          </Trackpoint>
          <Trackpoint>
            <Time>2018-09-13T10:07:45.000Z</Time>
            <Position>
              <LatitudeDegrees>39.46612176485359668731689453125</LatitudeDegrees>
              <LongitudeDegrees>-8.19155358709394931793212890625</LongitudeDegrees>
            </Position>
            <AltitudeMeters>56.40000152587890625</AltitudeMeters>
            <DistanceMeters>51692.09203718</DistanceMeters>
          </Trackpoint>
          <Trackpoint>
            <Time>2018-09-13T10:07:50.000Z</Time>
            <Position>
              <LatitudeDegrees>39.46579487062990665435791015625</LatitudeDegrees>
              <LongitudeDegrees>-8.19136834703385829925537109375</LongitudeDegrees>
            </Position>
            <AltitudeMeters>59.40000152587890625</AltitudeMeters>
            <DistanceMeters>51731.805246207</DistanceMeters>
          </Trackpoint>
          <Trackpoint>
            <Time>2018-09-13T10:07:56.000Z</Time>
            <Position>
              <LatitudeDegrees>39.46543696336448192596435546875</LatitudeDegrees>
              <LongitudeDegrees>-8.191181682050228118896484375</LongitudeDegrees>
            </Position>
            <AltitudeMeters>58.40000152587890625</AltitudeMeters>
            <DistanceMeters>51774.748700558</DistanceMeters>
          </Trackpoint>
          <Trackpoint>
            <Time>2018-09-13T10:07:59.000Z</Time>
            <Position>
              <LatitudeDegrees>39.465285837650299072265625</LatitudeDegrees>
              <LongitudeDegrees>-8.19111764430999755859375</LongitudeDegrees>
            </Position>
            <AltitudeMeters>58.59999847412109375</AltitudeMeters>
            <DistanceMeters>51792.446389713</DistanceMeters>
          </Trackpoint>
          <Trackpoint>
            <Time>2018-09-13T10:08:01.000Z</Time>
            <Position>
              <LatitudeDegrees>39.465190283954143524169921875</LatitudeDegrees>
              <LongitudeDegrees>-8.1910802610218524932861328125</LongitudeDegrees>
            </Position>
            <AltitudeMeters>59.40000152587890625</AltitudeMeters>
            <DistanceMeters>51803.555983983</DistanceMeters>
          </Trackpoint>
          <Trackpoint>
            <Time>2018-09-13T10:08:03.000Z</Time>
            <Position>
              <LatitudeDegrees>39.46509665809571743011474609375</LatitudeDegrees>
              <LongitudeDegrees>-8.191044889390468597412109375</LongitudeDegrees>
            </Position>
            <AltitudeMeters>59.799999237060546875</AltitudeMeters>
            <DistanceMeters>51814.410680544</DistanceMeters>
          </Trackpoint>
          <Trackpoint>
            <Time>2018-09-13T10:08:04.000Z</Time>
            <Position>
              <LatitudeDegrees>39.46505072526633739471435546875</LatitudeDegrees>
              <LongitudeDegrees>-8.1910279579460620880126953125</LongitudeDegrees>
            </Position>
            <AltitudeMeters>60</AltitudeMeters>
            <DistanceMeters>51819.725384592</DistanceMeters>
          </Trackpoint>
          <Trackpoint>
            <Time>2018-09-13T10:08:06.000Z</Time>
            <Position>
              <LatitudeDegrees>39.4649617932736873626708984375</LatitudeDegrees>
              <LongitudeDegrees>-8.19099937565624713897705078125</LongitudeDegrees>
            </Position>
            <AltitudeMeters>60.40000152587890625</AltitudeMeters>
            <DistanceMeters>51829.923836459</DistanceMeters>
          </Trackpoint>
          <Trackpoint>
            <Time>2018-09-13T10:08:08.000Z</Time>
            <Position>
              <LatitudeDegrees>39.464878477156162261962890625</LatitudeDegrees>
              <LongitudeDegrees>-8.19097188301384449005126953125</LongitudeDegrees>
            </Position>
            <AltitudeMeters>61</AltitudeMeters>
            <DistanceMeters>51839.492795396</DistanceMeters>
          </Trackpoint>
          <Trackpoint>
            <Time>2018-09-13T10:08:11.000Z</Time>
            <Position>
              <LatitudeDegrees>39.46476071141660213470458984375</LatitudeDegrees>
              <LongitudeDegrees>-8.1909300573170185089111328125</LongitudeDegrees>
            </Position>
            <AltitudeMeters>61.799999237060546875</AltitudeMeters>
            <DistanceMeters>51853.083941181</DistanceMeters>
          </Trackpoint>
          <Trackpoint>
            <Time>2018-09-13T10:08:15.000Z</Time>
            <Position>
              <LatitudeDegrees>39.46460715495049953460693359375</LatitudeDegrees>
              <LongitudeDegrees>-8.19087448529899120330810546875</LongitudeDegrees>
            </Position>
            <AltitudeMeters>63.40000152587890625</AltitudeMeters>
            <DistanceMeters>51870.829273687</DistanceMeters>
          </Trackpoint>
          <Trackpoint>
            <Time>2018-09-13T10:08:19.000Z</Time>
            <Position>
              <LatitudeDegrees>39.46445577777922153472900390625</LatitudeDegrees>
              <LongitudeDegrees>-8.19082000292837619781494140625</LongitudeDegrees>
            </Position>
            <AltitudeMeters>63.40000152587890625</AltitudeMeters>
            <DistanceMeters>51888.315996611</DistanceMeters>
          </Trackpoint>
          <Trackpoint>
            <Time>2018-09-13T10:08:23.000Z</Time>
            <Position>
              <LatitudeDegrees>39.46430255658924579620361328125</LatitudeDegrees>
              <LongitudeDegrees>-8.19075965322554111480712890625</LongitudeDegrees>
            </Position>
            <AltitudeMeters>64.1999969482421875</AltitudeMeters>
            <DistanceMeters>51906.141042747</DistanceMeters>
          </Trackpoint>
          <Trackpoint>
            <Time>2018-09-13T10:08:28.000Z</Time>
            <Position>
              <LatitudeDegrees>39.46410834789276123046875</LatitudeDegrees>
              <LongitudeDegrees>-8.19067935459315776824951171875</LongitudeDegrees>
            </Position>
            <AltitudeMeters>64.8000030517578125</AltitudeMeters>
            <DistanceMeters>51928.831145841</DistanceMeters>
          </Trackpoint>
          <Trackpoint>
            <Time>2018-09-13T10:08:33.000Z</Time>
            <Position>
              <LatitudeDegrees>39.46392059326171875</LatitudeDegrees>
              <LongitudeDegrees>-8.19060056470334529876708984375</LongitudeDegrees>
            </Position>
            <AltitudeMeters>64.8000030517578125</AltitudeMeters>
            <DistanceMeters>51950.797737858</DistanceMeters>
          </Trackpoint>
          <Trackpoint>
            <Time>2018-09-13T10:08:39.000Z</Time>
            <Position>
              <LatitudeDegrees>39.46368816308677196502685546875</LatitudeDegrees>
              <LongitudeDegrees>-8.190505765378475189208984375</LongitudeDegrees>
            </Position>
            <AltitudeMeters>63.200000762939453125</AltitudeMeters>
            <DistanceMeters>51977.91966731</DistanceMeters>
          </Trackpoint>
          <Trackpoint>
            <Time>2018-09-13T10:08:51.000Z</Time>
            <Position>
              <LatitudeDegrees>39.4631335325539112091064453125</LatitudeDegrees>
              <LongitudeDegrees>-8.1902766041457653045654296875</LongitudeDegrees>
            </Position>
            <AltitudeMeters>65</AltitudeMeters>
            <DistanceMeters>52042.71569352</DistanceMeters>
          </Trackpoint>
          <Trackpoint>
            <Time>2018-09-13T10:08:57.000Z</Time>
            <Position>
              <LatitudeDegrees>39.462827257812023162841796875</LatitudeDegrees>
              <LongitudeDegrees>-8.19014777429401874542236328125</LongitudeDegrees>
            </Position>
            <AltitudeMeters>66.1999969482421875</AltitudeMeters>
            <DistanceMeters>52078.557019036</DistanceMeters>
          </Trackpoint>
          <Trackpoint>
            <Time>2018-09-13T10:09:00.000Z</Time>
            <Position>
              <LatitudeDegrees>39.46266674436628818511962890625</LatitudeDegrees>
              <LongitudeDegrees>-8.19004987366497516632080078125</LongitudeDegrees>
            </Position>
            <AltitudeMeters>65.40000152587890625</AltitudeMeters>
            <DistanceMeters>52098.304064159</DistanceMeters>
          </Trackpoint>
          <Trackpoint>
            <Time>2018-09-13T10:09:04.000Z</Time>
            <Position>
              <LatitudeDegrees>39.4624482281506061553955078125</LatitudeDegrees>
              <LongitudeDegrees>-8.1898648850619792938232421875</LongitudeDegrees>
            </Position>
            <AltitudeMeters>62.799999237060546875</AltitudeMeters>
            <DistanceMeters>52127.359560141</DistanceMeters>
          </Trackpoint>
          <Trackpoint>
            <Time>2018-09-13T10:09:06.000Z</Time>
            <Position>
              <LatitudeDegrees>39.46233264170587062835693359375</LatitudeDegrees>
              <LongitudeDegrees>-8.189756087958812713623046875</LongitudeDegrees>
            </Position>
            <AltitudeMeters>61.200000762939453125</AltitudeMeters>
            <DistanceMeters>52143.262842225</DistanceMeters>
          </Trackpoint>
          <Trackpoint>
            <Time>2018-09-13T10:09:08.000Z</Time>
            <Position>
              <LatitudeDegrees>39.46221479214727878570556640625</LatitudeDegrees>
              <LongitudeDegrees>-8.1896365620195865631103515625</LongitudeDegrees>
            </Position>
            <AltitudeMeters>59.40000152587890625</AltitudeMeters>
            <DistanceMeters>52159.922356008</DistanceMeters>
          </Trackpoint>
          <Trackpoint>
            <Time>2018-09-13T10:09:09.000Z</Time>
            <Position>
              <LatitudeDegrees>39.4621572084724903106689453125</LatitudeDegrees>
              <LongitudeDegrees>-8.1895768828690052032470703125</LongitudeDegrees>
            </Position>
            <AltitudeMeters>58.40000152587890625</AltitudeMeters>
            <DistanceMeters>52168.131036196</DistanceMeters>
          </Trackpoint>
          <Trackpoint>
            <Time>2018-09-13T10:09:11.000Z</Time>
            <Position>
              <LatitudeDegrees>39.46203961037099361419677734375</LatitudeDegrees>
              <LongitudeDegrees>-8.189459703862667083740234375</LongitudeDegrees>
            </Position>
            <AltitudeMeters>56.799999237060546875</AltitudeMeters>
            <DistanceMeters>52184.644918496</DistanceMeters>
          </Trackpoint>
          <Trackpoint>
            <Time>2018-09-13T10:09:15.000Z</Time>
            <Position>
              <LatitudeDegrees>39.4617847166955471038818359375</LatitudeDegrees>
              <LongitudeDegrees>-8.1892533414065837860107421875</LongitudeDegrees>
            </Position>
            <AltitudeMeters>52.799999237060546875</AltitudeMeters>
            <DistanceMeters>52218.101205283</DistanceMeters>
          </Trackpoint>
          <Trackpoint>
            <Time>2018-09-13T10:09:17.000Z</Time>
            <Position>
              <LatitudeDegrees>39.46164716966450214385986328125</LatitudeDegrees>
              <LongitudeDegrees>-8.1891809217631816864013671875</LongitudeDegrees>
            </Position>
            <AltitudeMeters>52.200000762939453125</AltitudeMeters>
            <DistanceMeters>52234.627113185</DistanceMeters>
          </Trackpoint>
          <Trackpoint>
            <Time>2018-09-13T10:09:25.000Z</Time>
            <Position>
              <LatitudeDegrees>39.46110402233898639678955078125</LatitudeDegrees>
              <LongitudeDegrees>-8.18905108608305454254150390625</LongitudeDegrees>
            </Position>
            <AltitudeMeters>53.59999847412109375</AltitudeMeters>
            <DistanceMeters>52296.101392293</DistanceMeters>
          </Trackpoint>
          <Trackpoint>
            <Time>2018-09-13T10:09:30.000Z</Time>
            <Position>
              <LatitudeDegrees>39.46078903041779994964599609375</LatitudeDegrees>
              <LongitudeDegrees>-8.1890243478119373321533203125</LongitudeDegrees>
            </Position>
            <AltitudeMeters>54.799999237060546875</AltitudeMeters>
            <DistanceMeters>52331.235841342</DistanceMeters>
          </Trackpoint>
          <Trackpoint>
            <Time>2018-09-13T10:09:36.000Z</Time>
            <Position>
              <LatitudeDegrees>39.46042927913367748260498046875</LatitudeDegrees>
              <LongitudeDegrees>-8.1889866292476654052734375</LongitudeDegrees>
            </Position>
            <AltitudeMeters>56.40000152587890625</AltitudeMeters>
            <DistanceMeters>52371.407984447</DistanceMeters>
          </Trackpoint>
          <Trackpoint>
            <Time>2018-09-13T10:09:41.000Z</Time>
            <Position>
              <LatitudeDegrees>39.460130631923675537109375</LatitudeDegrees>
              <LongitudeDegrees>-8.1889542751014232635498046875</LongitudeDegrees>
            </Position>
            <AltitudeMeters>57.40000152587890625</AltitudeMeters>
            <DistanceMeters>52404.764120898</DistanceMeters>
          </Trackpoint>
          <Trackpoint>
            <Time>2018-09-13T10:09:45.000Z</Time>
            <Position>
              <LatitudeDegrees>39.45988881401717662811279296875</LatitudeDegrees>
              <LongitudeDegrees>-8.18893038667738437652587890625</LongitudeDegrees>
            </Position>
            <AltitudeMeters>58</AltitudeMeters>
            <DistanceMeters>52431.757060866</DistanceMeters>
          </Trackpoint>
          <Trackpoint>
            <Time>2018-09-13T10:09:50.000Z</Time>
            <Position>
              <LatitudeDegrees>39.45958756841719150543212890625</LatitudeDegrees>
              <LongitudeDegrees>-8.18891219794750213623046875</LongitudeDegrees>
            </Position>
            <AltitudeMeters>57.200000762939453125</AltitudeMeters>
            <DistanceMeters>52465.322750904</DistanceMeters>
          </Trackpoint>
          <Trackpoint>
            <Time>2018-09-13T10:09:52.000Z</Time>
            <Position>
              <LatitudeDegrees>39.459468461573123931884765625</LatitudeDegrees>
              <LongitudeDegrees>-8.18891831673681735992431640625</LongitudeDegrees>
            </Position>
            <AltitudeMeters>56.799999237060546875</AltitudeMeters>
            <DistanceMeters>52478.590127439</DistanceMeters>
          </Trackpoint>
          <Trackpoint>
            <Time>2018-09-13T10:10:02.000Z</Time>
            <Position>
              <LatitudeDegrees>39.45890125818550586700439453125</LatitudeDegrees>
              <LongitudeDegrees>-8.18910397589206695556640625</LongitudeDegrees>
            </Position>
            <AltitudeMeters>55.59999847412109375</AltitudeMeters>
            <DistanceMeters>52543.705827037</DistanceMeters>
          </Trackpoint>
          <Trackpoint>
            <Time>2018-09-13T10:10:04.000Z</Time>
            <Position>
              <LatitudeDegrees>39.45879179053008556365966796875</LatitudeDegrees>
              <LongitudeDegrees>-8.189174048602581024169921875</LongitudeDegrees>
            </Position>
            <AltitudeMeters>56</AltitudeMeters>
            <DistanceMeters>52557.296308396</DistanceMeters>
          </Trackpoint>
          <Trackpoint>
            <Time>2018-09-13T10:10:11.000Z</Time>
            <Position>
              <LatitudeDegrees>39.45840270258486270904541015625</LatitudeDegrees>
              <LongitudeDegrees>-8.189455680549144744873046875</LongitudeDegrees>
            </Position>
            <AltitudeMeters>57</AltitudeMeters>
            <DistanceMeters>52606.90626037</DistanceMeters>
          </Trackpoint>
          <Trackpoint>
            <Time>2018-09-13T10:10:14.000Z</Time>
            <Position>
              <LatitudeDegrees>39.4582331366837024688720703125</LatitudeDegrees>
              <LongitudeDegrees>-8.18957327865064144134521484375</LongitudeDegrees>
            </Position>
            <AltitudeMeters>57</AltitudeMeters>
            <DistanceMeters>52628.314705664</DistanceMeters>
          </Trackpoint>
          <Trackpoint>
            <Time>2018-09-13T10:10:20.000Z</Time>
            <Position>
              <LatitudeDegrees>39.4579062424600124359130859375</LatitudeDegrees>
              <LongitudeDegrees>-8.1898122467100620269775390625</LongitudeDegrees>
            </Position>
            <AltitudeMeters>57.200000762939453125</AltitudeMeters>
            <DistanceMeters>52670.093835819</DistanceMeters>
          </Trackpoint>
          <Trackpoint>
            <Time>2018-09-13T10:10:22.000Z</Time>
            <Position>
              <LatitudeDegrees>39.45779669098556041717529296875</LatitudeDegrees>
              <LongitudeDegrees>-8.18989296443760395050048828125</LongitudeDegrees>
            </Position>
            <AltitudeMeters>57</AltitudeMeters>
            <DistanceMeters>52684.121787411</DistanceMeters>
          </Trackpoint>
          <Trackpoint>
            <Time>2018-09-13T10:10:29.000Z</Time>
            <Position>
              <LatitudeDegrees>39.45743040181696414947509765625</LatitudeDegrees>
              <LongitudeDegrees>-8.19016235880553722381591796875</LongitudeDegrees>
            </Position>
            <AltitudeMeters>55.40000152587890625</AltitudeMeters>
            <DistanceMeters>52731.004929022</DistanceMeters>
          </Trackpoint>
          <Trackpoint>
            <Time>2018-09-13T10:10:33.000Z</Time>
            <Position>
              <LatitudeDegrees>39.45733518339693546295166015625</LatitudeDegrees>
              <LongitudeDegrees>-8.190238215029239654541015625</LongitudeDegrees>
            </Position>
            <AltitudeMeters>54.59999847412109375</AltitudeMeters>
            <DistanceMeters>52743.447261221</DistanceMeters>
          </Trackpoint>
          <Trackpoint>
            <Time>2018-09-13T10:10:34.000Z</Time>
            <Position>
              <LatitudeDegrees>39.4573335908353328704833984375</LatitudeDegrees>
              <LongitudeDegrees>-8.19023863412439823150634765625</LongitudeDegrees>
            </Position>
            <AltitudeMeters>54.59999847412109375</AltitudeMeters>
            <DistanceMeters>52743.63731465</DistanceMeters>
          </Trackpoint>
          <Trackpoint>
            <Time>2018-09-13T10:12:16.000Z</Time>
            <Position>
              <LatitudeDegrees>39.4572920165956020355224609375</LatitudeDegrees>
              <LongitudeDegrees>-8.190260343253612518310546875</LongitudeDegrees>
            </Position>
            <AltitudeMeters>54.200000762939453125</AltitudeMeters>
            <DistanceMeters>52748.627800682</DistanceMeters>
          </Trackpoint>
          <Trackpoint>
            <Time>2018-09-13T10:12:26.000Z</Time>
            <Position>
              <LatitudeDegrees>39.45683210156857967376708984375</LatitudeDegrees>
              <LongitudeDegrees>-8.1905904226005077362060546875</LongitudeDegrees>
            </Position>
            <AltitudeMeters>51.200000762939453125</AltitudeMeters>
            <DistanceMeters>52807.151142813</DistanceMeters>
          </Trackpoint>
          <Trackpoint>
            <Time>2018-09-13T10:12:28.000Z</Time>
            <Position>
              <LatitudeDegrees>39.45670251734554767608642578125</LatitudeDegrees>
              <LongitudeDegrees>-8.19068656302988529205322265625</LongitudeDegrees>
            </Position>
            <AltitudeMeters>50.59999847412109375</AltitudeMeters>
            <DistanceMeters>52823.77294232</DistanceMeters>
          </Trackpoint>
          <Trackpoint>
            <Time>2018-09-13T10:12:29.000Z</Time>
            <Position>
              <LatitudeDegrees>39.45663680322468280792236328125</LatitudeDegrees>
              <LongitudeDegrees>-8.190738447010517120361328125</LongitudeDegrees>
            </Position>
            <AltitudeMeters>50.40000152587890625</AltitudeMeters>
            <DistanceMeters>52832.339061698</DistanceMeters>
          </Trackpoint>
          <Trackpoint>
            <Time>2018-09-13T10:12:31.000Z</Time>
            <Position>
              <LatitudeDegrees>39.45650436915457248687744140625</LatitudeDegrees>
              <LongitudeDegrees>-8.19085101597011089324951171875</LongitudeDegrees>
            </Position>
            <AltitudeMeters>50</AltitudeMeters>
            <DistanceMeters>52849.970038741</DistanceMeters>
          </Trackpoint>
          <Trackpoint>
            <Time>2018-09-13T10:12:32.000Z</Time>
            <Position>
              <LatitudeDegrees>39.456439577043056488037109375</LatitudeDegrees>
              <LongitudeDegrees>-8.19091555662453174591064453125</LongitudeDegrees>
            </Position>
            <AltitudeMeters>50</AltitudeMeters>
            <DistanceMeters>52859.067823124</DistanceMeters>
          </Trackpoint>
          <Trackpoint>
            <Time>2018-09-13T10:12:33.000Z</Time>
            <Position>
              <LatitudeDegrees>39.45637880824506282806396484375</LatitudeDegrees>
              <LongitudeDegrees>-8.19099049083888530731201171875</LongitudeDegrees>
            </Position>
            <AltitudeMeters>49.799999237060546875</AltitudeMeters>
            <DistanceMeters>52868.406585264</DistanceMeters>
          </Trackpoint>
          <Trackpoint>
            <Time>2018-09-13T10:12:35.000Z</Time>
            <Position>
              <LatitudeDegrees>39.45625844411551952362060546875</LatitudeDegrees>
              <LongitudeDegrees>-8.19114455021917819976806640625</LongitudeDegrees>
            </Position>
            <AltitudeMeters>48.799999237060546875</AltitudeMeters>
            <DistanceMeters>52887.241541679</DistanceMeters>
          </Trackpoint>
          <Trackpoint>
            <Time>2018-09-13T10:12:36.000Z</Time>
            <Position>
              <LatitudeDegrees>39.45618577301502227783203125</LatitudeDegrees>
              <LongitudeDegrees>-8.19119878113269805908203125</LongitudeDegrees>
            </Position>
            <AltitudeMeters>48.200000762939453125</AltitudeMeters>
            <DistanceMeters>52896.576435234</DistanceMeters>
          </Trackpoint>
          <Trackpoint>
            <Time>2018-09-13T10:12:39.000Z</Time>
            <Position>
              <LatitudeDegrees>39.45594429038465023040771484375</LatitudeDegrees>
              <LongitudeDegrees>-8.1912914849817752838134765625</LongitudeDegrees>
            </Position>
            <AltitudeMeters>46.200000762939453125</AltitudeMeters>
            <DistanceMeters>52924.609799156</DistanceMeters>
          </Trackpoint>
          <Trackpoint>
            <Time>2018-09-13T10:12:41.000Z</Time>
            <Position>
              <LatitudeDegrees>39.45578654296696186065673828125</LatitudeDegrees>
              <LongitudeDegrees>-8.1913759745657444000244140625</LongitudeDegrees>
            </Position>
            <AltitudeMeters>45</AltitudeMeters>
            <DistanceMeters>52943.609439572</DistanceMeters>
          </Trackpoint>
          <Trackpoint>
            <Time>2018-09-13T10:12:44.000Z</Time>
            <Position>
              <LatitudeDegrees>39.45555620826780796051025390625</LatitudeDegrees>
              <LongitudeDegrees>-8.19152240641415119171142578125</LongitudeDegrees>
            </Position>
            <AltitudeMeters>43.40000152587890625</AltitudeMeters>
            <DistanceMeters>52972.168247924</DistanceMeters>
          </Trackpoint>
          <Trackpoint>
            <Time>2018-09-13T10:12:46.000Z</Time>
            <Position>
              <LatitudeDegrees>39.4554003886878490447998046875</LatitudeDegrees>
              <LongitudeDegrees>-8.1916260905563831329345703125</LongitudeDegrees>
            </Position>
            <AltitudeMeters>42.40000152587890625</AltitudeMeters>
            <DistanceMeters>52991.666099557</DistanceMeters>
          </Trackpoint>
          <Trackpoint>
            <Time>2018-09-13T10:12:48.000Z</Time>
            <Position>
              <LatitudeDegrees>39.455248005688190460205078125</LatitudeDegrees>
              <LongitudeDegrees>-8.191735558211803436279296875</LongitudeDegrees>
            </Position>
            <AltitudeMeters>41.59999847412109375</AltitudeMeters>
            <DistanceMeters>53011.060863395</DistanceMeters>
          </Trackpoint>
          <Trackpoint>
            <Time>2018-09-13T10:12:50.000Z</Time>
            <Position>
              <LatitudeDegrees>39.45508983917534351348876953125</LatitudeDegrees>
              <LongitudeDegrees>-8.19184779189527034759521484375</LongitudeDegrees>
            </Position>
            <AltitudeMeters>41</AltitudeMeters>
            <DistanceMeters>53031.134005675</DistanceMeters>
          </Trackpoint>
          <Trackpoint>
            <Time>2018-09-13T10:12:53.000Z</Time>
            <Position>
              <LatitudeDegrees>39.45484374649822711944580078125</LatitudeDegrees>
              <LongitudeDegrees>-8.19202163256704807281494140625</LongitudeDegrees>
            </Position>
            <AltitudeMeters>40.200000762939453125</AltitudeMeters>
            <DistanceMeters>53062.334041583</DistanceMeters>
          </Trackpoint>
          <Trackpoint>
            <Time>2018-09-13T10:12:56.000Z</Time>
            <Position>
              <LatitudeDegrees>39.45459815673530101776123046875</LatitudeDegrees>
              <LongitudeDegrees>-8.1921945512294769287109375</LongitudeDegrees>
            </Position>
            <AltitudeMeters>39.40000152587890625</AltitudeMeters>
            <DistanceMeters>53093.446838543</DistanceMeters>
          </Trackpoint>
          <Trackpoint>
            <Time>2018-09-13T10:13:00.000Z</Time>
            <Position>
              <LatitudeDegrees>39.4542939774692058563232421875</LatitudeDegrees>
              <LongitudeDegrees>-8.19245539605617523193359375</LongitudeDegrees>
            </Position>
            <AltitudeMeters>38.40000152587890625</AltitudeMeters>
            <DistanceMeters>53134.051387762</DistanceMeters>
          </Trackpoint>
          <Trackpoint>
            <Time>2018-09-13T10:13:03.000Z</Time>
            <Position>
              <LatitudeDegrees>39.4541213102638721466064453125</LatitudeDegrees>
              <LongitudeDegrees>-8.1926946155726909637451171875</LongitudeDegrees>
            </Position>
            <AltitudeMeters>38.200000762939453125</AltitudeMeters>
            <DistanceMeters>53162.193898572</DistanceMeters>
          </Trackpoint>
          <Trackpoint>
            <Time>2018-09-13T10:13:05.000Z</Time>
            <Position>
              <LatitudeDegrees>39.45403874851763248443603515625</LatitudeDegrees>
              <LongitudeDegrees>-8.1928635947406291961669921875</LongitudeDegrees>
            </Position>
            <AltitudeMeters>38.40000152587890625</AltitudeMeters>
            <DistanceMeters>53179.379290047</DistanceMeters>
          </Trackpoint>
          <Trackpoint>
            <Time>2018-09-13T10:13:08.000Z</Time>
            <Position>
              <LatitudeDegrees>39.45395660586655139923095703125</LatitudeDegrees>
              <LongitudeDegrees>-8.19310851395130157470703125</LongitudeDegrees>
            </Position>
            <AltitudeMeters>39.200000762939453125</AltitudeMeters>
            <DistanceMeters>53202.327405396</DistanceMeters>
          </Trackpoint>
          <Trackpoint>
            <Time>2018-09-13T10:13:12.000Z</Time>
            <Position>
              <LatitudeDegrees>39.4538797438144683837890625</LatitudeDegrees>
              <LongitudeDegrees>-8.19339391775429248809814453125</LongitudeDegrees>
            </Position>
            <AltitudeMeters>40.40000152587890625</AltitudeMeters>
            <DistanceMeters>53228.304135799</DistanceMeters>
          </Trackpoint>
          <Trackpoint>
            <Time>2018-09-13T10:13:14.000Z</Time>
            <Position>
              <LatitudeDegrees>39.45384286344051361083984375</LatitudeDegrees>
              <LongitudeDegrees>-8.19353087805211544036865234375</LongitudeDegrees>
            </Position>
            <AltitudeMeters>40.799999237060546875</AltitudeMeters>
            <DistanceMeters>53240.769670503</DistanceMeters>
          </Trackpoint>
          <Trackpoint>
            <Time>2018-09-13T10:13:16.000Z</Time>
            <Position>
              <LatitudeDegrees>39.45380933582782745361328125</LatitudeDegrees>
              <LongitudeDegrees>-8.19366381503641605377197265625</LongitudeDegrees>
            </Position>
            <AltitudeMeters>41</AltitudeMeters>
            <DistanceMeters>53252.788202143</DistanceMeters>
          </Trackpoint>
          <Trackpoint>
            <Time>2018-09-13T10:13:18.000Z</Time>
            <Position>
              <LatitudeDegrees>39.45377857424318790435791015625</LatitudeDegrees>
              <LongitudeDegrees>-8.19379423744976520538330078125</LongitudeDegrees>
            </Position>
            <AltitudeMeters>41.200000762939453125</AltitudeMeters>
            <DistanceMeters>53264.508120778</DistanceMeters>
          </Trackpoint>
          <Trackpoint>
            <Time>2018-09-13T10:13:22.000Z</Time>
            <Position>
              <LatitudeDegrees>39.45370447821915149688720703125</LatitudeDegrees>
              <LongitudeDegrees>-8.19406899623572826385498046875</LongitudeDegrees>
            </Position>
            <AltitudeMeters>41.59999847412109375</AltitudeMeters>
            <DistanceMeters>53289.519830753</DistanceMeters>
          </Trackpoint>
          <Trackpoint>
            <Time>2018-09-13T10:13:28.000Z</Time>
            <Position>
              <LatitudeDegrees>39.453591741621494293212890625</LatitudeDegrees>
              <LongitudeDegrees>-8.19452044554054737091064453125</LongitudeDegrees>
            </Position>
            <AltitudeMeters>41.40000152587890625</AltitudeMeters>
            <DistanceMeters>53330.296257836</DistanceMeters>
          </Trackpoint>
          <Trackpoint>
            <Time>2018-09-13T10:13:37.000Z</Time>
            <Position>
              <LatitudeDegrees>39.45339350961148738861083984375</LatitudeDegrees>
              <LongitudeDegrees>-8.1952363438904285430908203125</LongitudeDegrees>
            </Position>
            <AltitudeMeters>40</AltitudeMeters>
            <DistanceMeters>53395.657646328</DistanceMeters>
          </Trackpoint>
          <Trackpoint>
            <Time>2018-09-13T10:13:42.000Z</Time>
            <Position>
              <LatitudeDegrees>39.45322469808161258697509765625</LatitudeDegrees>
              <LongitudeDegrees>-8.19562040269374847412109375</LongitudeDegrees>
            </Position>
            <AltitudeMeters>38.799999237060546875</AltitudeMeters>
            <DistanceMeters>53433.637435837</DistanceMeters>
          </Trackpoint>
          <Trackpoint>
            <Time>2018-09-13T10:13:45.000Z</Time>
            <Position>
              <LatitudeDegrees>39.4530866481363773345947265625</LatitudeDegrees>
              <LongitudeDegrees>-8.19583271630108356475830078125</LongitudeDegrees>
            </Position>
            <AltitudeMeters>37.799999237060546875</AltitudeMeters>
            <DistanceMeters>53457.491601868</DistanceMeters>
          </Trackpoint>
          <Trackpoint>
            <Time>2018-09-13T10:13:47.000Z</Time>
            <Position>
              <LatitudeDegrees>39.45297860540449619293212890625</LatitudeDegrees>
              <LongitudeDegrees>-8.19595743902027606964111328125</LongitudeDegrees>
            </Position>
            <AltitudeMeters>37</AltitudeMeters>
            <DistanceMeters>53473.600802247</DistanceMeters>
          </Trackpoint>
          <Trackpoint>
            <Time>2018-09-13T10:13:50.000Z</Time>
            <Position>
              <LatitudeDegrees>39.4527983106672763824462890625</LatitudeDegrees>
              <LongitudeDegrees>-8.1961161084473133087158203125</LongitudeDegrees>
            </Position>
            <AltitudeMeters>36.59999847412109375</AltitudeMeters>
            <DistanceMeters>53497.862594495</DistanceMeters>
          </Trackpoint>
          <Trackpoint>
            <Time>2018-09-13T10:13:52.000Z</Time>
            <Position>
              <LatitudeDegrees>39.4526779465377330780029296875</LatitudeDegrees>
              <LongitudeDegrees>-8.19620889611542224884033203125</LongitudeDegrees>
            </Position>
            <AltitudeMeters>35.799999237060546875</AltitudeMeters>
            <DistanceMeters>53513.453348092</DistanceMeters>
          </Trackpoint>
          <Trackpoint>
            <Time>2018-09-13T10:13:55.000Z</Time>
            <Position>
              <LatitudeDegrees>39.45248222909867763519287109375</LatitudeDegrees>
              <LongitudeDegrees>-8.19632071070373058319091796875</LongitudeDegrees>
            </Position>
            <AltitudeMeters>34.40000152587890625</AltitudeMeters>
            <DistanceMeters>53537.262423648</DistanceMeters>
          </Trackpoint>
          <Trackpoint>
            <Time>2018-09-13T10:14:05.000Z</Time>
            <Position>
              <LatitudeDegrees>39.45191460661590099334716796875</LatitudeDegrees>
              <LongitudeDegrees>-8.19640536792576313018798828125</LongitudeDegrees>
            </Position>
            <AltitudeMeters>29.6000003814697265625</AltitudeMeters>
            <DistanceMeters>53600.857521394</DistanceMeters>
          </Trackpoint>
          <Trackpoint>
            <Time>2018-09-13T10:14:11.000Z</Time>
            <Position>
              <LatitudeDegrees>39.4516446255147457122802734375</LatitudeDegrees>
              <LongitudeDegrees>-8.19636295549571514129638671875</LongitudeDegrees>
            </Position>
            <AltitudeMeters>27</AltitudeMeters>
            <DistanceMeters>53631.127072703</DistanceMeters>
          </Trackpoint>
          <Trackpoint>
            <Time>2018-09-13T10:14:16.000Z</Time>
            <Position>
              <LatitudeDegrees>39.45148377679288387298583984375</LatitudeDegrees>
              <LongitudeDegrees>-8.19631551392376422882080078125</LongitudeDegrees>
            </Position>
            <AltitudeMeters>25.3999996185302734375</AltitudeMeters>
            <DistanceMeters>53649.488142224</DistanceMeters>
          </Trackpoint>
          <Trackpoint>
            <Time>2018-09-13T10:14:19.000Z</Time>
            <Position>
              <LatitudeDegrees>39.45146382786333560943603515625</LatitudeDegrees>
              <LongitudeDegrees>-8.1963078863918781280517578125</LongitudeDegrees>
            </Position>
            <AltitudeMeters>25.200000762939453125</AltitudeMeters>
            <DistanceMeters>53651.804144255</DistanceMeters>
          </Trackpoint>
          <Trackpoint>
            <Time>2018-09-13T10:15:47.000Z</Time>
            <Position>
              <LatitudeDegrees>39.45141186006367206573486328125</LatitudeDegrees>
              <LongitudeDegrees>-8.196278549730777740478515625</LongitudeDegrees>
            </Position>
            <AltitudeMeters>24.799999237060546875</AltitudeMeters>
            <DistanceMeters>53658.11466223</DistanceMeters>
          </Trackpoint>
          <Trackpoint>
            <Time>2018-09-13T10:15:48.000Z</Time>
            <Position>
              <LatitudeDegrees>39.45139107294380664825439453125</LatitudeDegrees>
              <LongitudeDegrees>-8.19626555778086185455322265625</LongitudeDegrees>
            </Position>
            <AltitudeMeters>24.3999996185302734375</AltitudeMeters>
            <DistanceMeters>53660.682142669</DistanceMeters>
          </Trackpoint>
          <Trackpoint>
            <Time>2018-09-13T10:15:51.000Z</Time>
            <Position>
              <LatitudeDegrees>39.451297111809253692626953125</LatitudeDegrees>
              <LongitudeDegrees>-8.19621979258954524993896484375</LongitudeDegrees>
            </Position>
            <AltitudeMeters>23.3999996185302734375</AltitudeMeters>
            <DistanceMeters>53671.855360954</DistanceMeters>
          </Trackpoint>
          <Trackpoint>
            <Time>2018-09-13T10:15:54.000Z</Time>
            <Position>
              <LatitudeDegrees>39.451171718537807464599609375</LatitudeDegrees>
              <LongitudeDegrees>-8.196160532534122467041015625</LongitudeDegrees>
            </Position>
            <AltitudeMeters>22.200000762939453125</AltitudeMeters>
            <DistanceMeters>53686.712385845</DistanceMeters>
          </Trackpoint>
          <Trackpoint>
            <Time>2018-09-13T10:16:01.000Z</Time>
            <Position>
              <LatitudeDegrees>39.45084993727505207061767578125</LatitudeDegrees>
              <LongitudeDegrees>-8.19600999355316162109375</LongitudeDegrees>
            </Position>
            <AltitudeMeters>21.6000003814697265625</AltitudeMeters>
            <DistanceMeters>53724.792615043</DistanceMeters>
          </Trackpoint>
          <Trackpoint>
            <Time>2018-09-13T10:16:12.000Z</Time>
            <Position>
              <LatitudeDegrees>39.45033981464803218841552734375</LatitudeDegrees>
              <LongitudeDegrees>-8.1957603804767131805419921875</LongitudeDegrees>
            </Position>
            <AltitudeMeters>22.799999237060546875</AltitudeMeters>
            <DistanceMeters>53785.487985923</DistanceMeters>
          </Trackpoint>
          <Trackpoint>
            <Time>2018-09-13T10:16:23.000Z</Time>
            <Position>
              <LatitudeDegrees>39.449789710342884063720703125</LatitudeDegrees>
              <LongitudeDegrees>-8.19550783373415470123291015625</LongitudeDegrees>
            </Position>
            <AltitudeMeters>22.6000003814697265625</AltitudeMeters>
            <DistanceMeters>53850.449154201</DistanceMeters>
          </Trackpoint>
          <Trackpoint>
            <Time>2018-09-13T10:16:33.000Z</Time>
            <Position>
              <LatitudeDegrees>39.44926609285175800323486328125</LatitudeDegrees>
              <LongitudeDegrees>-8.1952638365328311920166015625</LongitudeDegrees>
            </Position>
            <AltitudeMeters>23.799999237060546875</AltitudeMeters>
            <DistanceMeters>53912.386893068</DistanceMeters>
          </Trackpoint>
          <Trackpoint>
            <Time>2018-09-13T10:16:43.000Z</Time>
            <Position>
              <LatitudeDegrees>39.44873920641839504241943359375</LatitudeDegrees>
              <LongitudeDegrees>-8.19501766003668308258056640625</LongitudeDegrees>
            </Position>
            <AltitudeMeters>27.799999237060546875</AltitudeMeters>
            <DistanceMeters>53974.730501426</DistanceMeters>
          </Trackpoint>
          <Trackpoint>
            <Time>2018-09-13T10:16:53.000Z</Time>
            <Position>
              <LatitudeDegrees>39.4481973163783550262451171875</LatitudeDegrees>
              <LongitudeDegrees>-8.19476687349379062652587890625</LongitudeDegrees>
            </Position>
            <AltitudeMeters>34.200000762939453125</AltitudeMeters>
            <DistanceMeters>54038.779775802</DistanceMeters>
          </Trackpoint>
          <Trackpoint>
            <Time>2018-09-13T10:16:58.000Z</Time>
            <Position>
              <LatitudeDegrees>39.44790252484381198883056640625</LatitudeDegrees>
              <LongitudeDegrees>-8.1946358643472194671630859375</LongitudeDegrees>
            </Position>
            <AltitudeMeters>35.59999847412109375</AltitudeMeters>
            <DistanceMeters>54073.468952166</DistanceMeters>
          </Trackpoint>
          <Trackpoint>
            <Time>2018-09-13T10:16:59.000Z</Time>
            <Position>
              <LatitudeDegrees>39.4478340446949005126953125</LatitudeDegrees>
              <LongitudeDegrees>-8.19461189210414886474609375</LongitudeDegrees>
            </Position>
            <AltitudeMeters>35.799999237060546875</AltitudeMeters>
            <DistanceMeters>54081.364751541</DistanceMeters>
          </Trackpoint>
          <Trackpoint>
            <Time>2018-09-13T10:17:02.000Z</Time>
            <Position>
              <LatitudeDegrees>39.44760999642312526702880859375</LatitudeDegrees>
              <LongitudeDegrees>-8.194659166038036346435546875</LongitudeDegrees>
            </Position>
            <AltitudeMeters>36.40000152587890625</AltitudeMeters>
            <DistanceMeters>54106.630423192</DistanceMeters>
          </Trackpoint>
          <Trackpoint>
            <Time>2018-09-13T10:17:03.000Z</Time>
            <Position>
              <LatitudeDegrees>39.44754595868289470672607421875</LatitudeDegrees>
              <LongitudeDegrees>-8.1947173364460468292236328125</LongitudeDegrees>
            </Position>
            <AltitudeMeters>36.40000152587890625</AltitudeMeters>
            <DistanceMeters>54115.33665439</DistanceMeters>
          </Trackpoint>
          <Trackpoint>
            <Time>2018-09-13T10:17:04.000Z</Time>
            <Position>
              <LatitudeDegrees>39.4474826753139495849609375</LatitudeDegrees>
              <LongitudeDegrees>-8.19476335309445858001708984375</LongitudeDegrees>
            </Position>
            <AltitudeMeters>36.40000152587890625</AltitudeMeters>
            <DistanceMeters>54123.415042995</DistanceMeters>
          </Trackpoint>
          <Trackpoint>
            <Time>2018-09-13T10:17:05.000Z</Time>
            <Position>
              <LatitudeDegrees>39.447415955364704132080078125</LatitudeDegrees>
              <LongitudeDegrees>-8.19478196091949939727783203125</LongitudeDegrees>
            </Position>
            <AltitudeMeters>36.59999847412109375</AltitudeMeters>
            <DistanceMeters>54131.011238654</DistanceMeters>
          </Trackpoint>
          <Trackpoint>
            <Time>2018-09-13T10:17:07.000Z</Time>
            <Position>
              <LatitudeDegrees>39.44729835726320743560791015625</LatitudeDegrees>
              <LongitudeDegrees>-8.1947159953415393829345703125</LongitudeDegrees>
            </Position>
            <AltitudeMeters>37.40000152587890625</AltitudeMeters>
            <DistanceMeters>54145.275378391</DistanceMeters>
          </Trackpoint>
          <Trackpoint>
            <Time>2018-09-13T10:17:09.000Z</Time>
            <Position>
              <LatitudeDegrees>39.44723499007523059844970703125</LatitudeDegrees>
              <LongitudeDegrees>-8.19455623626708984375</LongitudeDegrees>
            </Position>
            <AltitudeMeters>38.200000762939453125</AltitudeMeters>
            <DistanceMeters>54160.711882438</DistanceMeters>
          </Trackpoint>
          <Trackpoint>
            <Time>2018-09-13T10:17:12.000Z</Time>
            <Position>
              <LatitudeDegrees>39.44710674695670604705810546875</LatitudeDegrees>
              <LongitudeDegrees>-8.194324560463428497314453125</LongitudeDegrees>
            </Position>
            <AltitudeMeters>39.40000152587890625</AltitudeMeters>
            <DistanceMeters>54185.211826139</DistanceMeters>
          </Trackpoint>
          <Trackpoint>
            <Time>2018-09-13T10:17:14.000Z</Time>
            <Position>
              <LatitudeDegrees>39.4469759054481983184814453125</LatitudeDegrees>
              <LongitudeDegrees>-8.194238729774951934814453125</LongitudeDegrees>
            </Position>
            <AltitudeMeters>39.799999237060546875</AltitudeMeters>
            <DistanceMeters>54201.536519583</DistanceMeters>
          </Trackpoint>
          <Trackpoint>
            <Time>2018-09-13T10:17:15.000Z</Time>
            <Position>
              <LatitudeDegrees>39.44690541364252567291259765625</LatitudeDegrees>
              <LongitudeDegrees>-8.19421048276126384735107421875</LongitudeDegrees>
            </Position>
            <AltitudeMeters>39.200000762939453125</AltitudeMeters>
            <DistanceMeters>54209.749598849</DistanceMeters>
          </Trackpoint>
          <Trackpoint>
            <Time>2018-09-13T10:17:21.000Z</Time>
            <Position>
              <LatitudeDegrees>39.4464696384966373443603515625</LatitudeDegrees>
              <LongitudeDegrees>-8.19406497292220592498779296875</LongitudeDegrees>
            </Position>
            <AltitudeMeters>35.799999237060546875</AltitudeMeters>
            <DistanceMeters>54259.83868388</DistanceMeters>
          </Trackpoint>
          <Trackpoint>
            <Time>2018-09-13T10:17:29.000Z</Time>
            <Position>
              <LatitudeDegrees>39.4458974897861480712890625</LatitudeDegrees>
              <LongitudeDegrees>-8.193893730640411376953125</LongitudeDegrees>
            </Position>
            <AltitudeMeters>34.200000762939453125</AltitudeMeters>
            <DistanceMeters>54325.198759875</DistanceMeters>
          </Trackpoint>
          <Trackpoint>
            <Time>2018-09-13T10:17:37.000Z</Time>
            <Position>
              <LatitudeDegrees>39.44535191170871257781982421875</LatitudeDegrees>
              <LongitudeDegrees>-8.1937319599092006683349609375</LongitudeDegrees>
            </Position>
            <AltitudeMeters>33.40000152587890625</AltitudeMeters>
            <DistanceMeters>54387.494261576</DistanceMeters>
          </Trackpoint>
          <Trackpoint>
            <Time>2018-09-13T10:17:46.000Z</Time>
            <Position>
              <LatitudeDegrees>39.444767273962497711181640625</LatitudeDegrees>
              <LongitudeDegrees>-8.1935517489910125732421875</LongitudeDegrees>
            </Position>
            <AltitudeMeters>34</AltitudeMeters>
            <DistanceMeters>54454.383754147</DistanceMeters>
          </Trackpoint>
          <Trackpoint>
            <Time>2018-09-13T10:17:55.000Z</Time>
            <Position>
              <LatitudeDegrees>39.44417006336152553558349609375</LatitudeDegrees>
              <LongitudeDegrees>-8.19342107512056827545166015625</LongitudeDegrees>
            </Position>
            <AltitudeMeters>35.200000762939453125</AltitudeMeters>
            <DistanceMeters>54521.796685855</DistanceMeters>
          </Trackpoint>
          <Trackpoint>
            <Time>2018-09-13T10:18:01.000Z</Time>
            <Position>
              <LatitudeDegrees>39.4437892735004425048828125</LatitudeDegrees>
              <LongitudeDegrees>-8.193351924419403076171875</LongitudeDegrees>
            </Position>
            <AltitudeMeters>35.40000152587890625</AltitudeMeters>
            <DistanceMeters>54564.59406376</DistanceMeters>
          </Trackpoint>
          <Trackpoint>
            <Time>2018-09-13T10:18:08.000Z</Time>
            <Position>
              <LatitudeDegrees>39.4433431886136531829833984375</LatitudeDegrees>
              <LongitudeDegrees>-8.193260394036769866943359375</LongitudeDegrees>
            </Position>
            <AltitudeMeters>35</AltitudeMeters>
            <DistanceMeters>54614.863644746</DistanceMeters>
          </Trackpoint>
          <Trackpoint>
            <Time>2018-09-13T10:18:17.000Z</Time>
            <Position>
              <LatitudeDegrees>39.4427681900560855865478515625</LatitudeDegrees>
              <LongitudeDegrees>-8.1931811012327671051025390625</LongitudeDegrees>
            </Position>
            <AltitudeMeters>35.200000762939453125</AltitudeMeters>
            <DistanceMeters>54679.224025465</DistanceMeters>
          </Trackpoint>
          <Trackpoint>
            <Time>2018-09-13T10:18:26.000Z</Time>
            <Position>
              <LatitudeDegrees>39.442201070487499237060546875</LatitudeDegrees>
              <LongitudeDegrees>-8.1929980404675006866455078125</LongitudeDegrees>
            </Position>
            <AltitudeMeters>36.200000762939453125</AltitudeMeters>
            <DistanceMeters>54744.277151486</DistanceMeters>
          </Trackpoint>
          <Trackpoint>
            <Time>2018-09-13T10:18:35.000Z</Time>
            <Position>
              <LatitudeDegrees>39.4416346214711666107177734375</LatitudeDegrees>
              <LongitudeDegrees>-8.19277684204280376434326171875</LongitudeDegrees>
            </Position>
            <AltitudeMeters>36</AltitudeMeters>
            <DistanceMeters>54810.128607658</DistanceMeters>
          </Trackpoint>
          <Trackpoint>
            <Time>2018-09-13T10:18:44.000Z</Time>
            <Position>
              <LatitudeDegrees>39.441057108342647552490234375</LatitudeDegrees>
              <LongitudeDegrees>-8.192639462649822235107421875</LongitudeDegrees>
            </Position>
            <AltitudeMeters>36</AltitudeMeters>
            <DistanceMeters>54875.482673464</DistanceMeters>
          </Trackpoint>
          <Trackpoint>
            <Time>2018-09-13T10:18:52.000Z</Time>
            <Position>
              <LatitudeDegrees>39.44045470096170902252197265625</LatitudeDegrees>
              <LongitudeDegrees>-8.19262848235666751861572265625</LongitudeDegrees>
            </Position>
            <AltitudeMeters>36</AltitudeMeters>
            <DistanceMeters>54942.538414343</DistanceMeters>
          </Trackpoint>
          <Trackpoint>
            <Time>2018-09-13T10:18:54.000Z</Time>
            <Position>
              <LatitudeDegrees>39.44029728882014751434326171875</LatitudeDegrees>
              <LongitudeDegrees>-8.192641474306583404541015625</LongitudeDegrees>
            </Position>
            <AltitudeMeters>36</AltitudeMeters>
            <DistanceMeters>54960.09419798</DistanceMeters>
          </Trackpoint>
          <Trackpoint>
            <Time>2018-09-13T10:19:01.000Z</Time>
            <Position>
              <LatitudeDegrees>39.43978046067059040069580078125</LatitudeDegrees>
              <LongitudeDegrees>-8.1925943680107593536376953125</LongitudeDegrees>
            </Position>
            <AltitudeMeters>35.40000152587890625</AltitudeMeters>
            <DistanceMeters>55017.760617595</DistanceMeters>
          </Trackpoint>
          <Trackpoint>
            <Time>2018-09-13T10:19:09.000Z</Time>
            <Position>
              <LatitudeDegrees>39.43922272883355617523193359375</LatitudeDegrees>
              <LongitudeDegrees>-8.19244332611560821533203125</LongitudeDegrees>
            </Position>
            <AltitudeMeters>35</AltitudeMeters>
            <DistanceMeters>55081.180538353</DistanceMeters>
          </Trackpoint>
          <Trackpoint>
            <Time>2018-09-13T10:19:17.000Z</Time>
            <Position>
              <LatitudeDegrees>39.4387053139507770538330078125</LatitudeDegrees>
              <LongitudeDegrees>-8.192237801849842071533203125</LongitudeDegrees>
            </Position>
            <AltitudeMeters>35</AltitudeMeters>
            <DistanceMeters>55141.418706388</DistanceMeters>
          </Trackpoint>
          <Trackpoint>
            <Time>2018-09-13T10:19:18.000Z</Time>
            <Position>
              <LatitudeDegrees>39.43865083158016204833984375</LatitudeDegrees>
              <LongitudeDegrees>-8.19219731725752353668212890625</LongitudeDegrees>
            </Position>
            <AltitudeMeters>35</AltitudeMeters>
            <DistanceMeters>55148.410761441</DistanceMeters>
          </Trackpoint>
          <Trackpoint>
            <Time>2018-09-13T10:19:22.000Z</Time>
            <Position>
              <LatitudeDegrees>39.43845880217850208282470703125</LatitudeDegrees>
              <LongitudeDegrees>-8.19200336001813411712646484375</LongitudeDegrees>
            </Position>
            <AltitudeMeters>34.59999847412109375</AltitudeMeters>
            <DistanceMeters>55175.517704285</DistanceMeters>
          </Trackpoint>
          <Trackpoint>
            <Time>2018-09-13T10:19:25.000Z</Time>
            <Position>
              <LatitudeDegrees>39.43832804448902606964111328125</LatitudeDegrees>
              <LongitudeDegrees>-8.191831447184085845947265625</LongitudeDegrees>
            </Position>
            <AltitudeMeters>34.59999847412109375</AltitudeMeters>
            <DistanceMeters>55196.258577259</DistanceMeters>
          </Trackpoint>
          <Trackpoint>
            <Time>2018-09-13T10:19:29.000Z</Time>
            <Position>
              <LatitudeDegrees>39.43814984522759914398193359375</LatitudeDegrees>
              <LongitudeDegrees>-8.1916327960789203643798828125</LongitudeDegrees>
            </Position>
            <AltitudeMeters>34.40000152587890625</AltitudeMeters>
            <DistanceMeters>55222.430459472</DistanceMeters>
          </Trackpoint>
          <Trackpoint>
            <Time>2018-09-13T10:19:32.000Z</Time>
            <Position>
              <LatitudeDegrees>39.43802093155682086944580078125</LatitudeDegrees>
              <LongitudeDegrees>-8.19162969477474689483642578125</LongitudeDegrees>
            </Position>
            <AltitudeMeters>34.200000762939453125</AltitudeMeters>
            <DistanceMeters>55236.781066545</DistanceMeters>
          </Trackpoint>
          <Trackpoint>
            <Time>2018-09-13T10:19:39.000Z</Time>
            <Position>
              <LatitudeDegrees>39.437715746462345123291015625</LatitudeDegrees>
              <LongitudeDegrees>-8.191808648407459259033203125</LongitudeDegrees>
            </Position>
            <AltitudeMeters>34</AltitudeMeters>
            <DistanceMeters>55274.069578324</DistanceMeters>
          </Trackpoint>
          <Trackpoint>
            <Time>2018-09-13T10:19:42.000Z</Time>
            <Position>
              <LatitudeDegrees>39.4375301711261272430419921875</LatitudeDegrees>
              <LongitudeDegrees>-8.1918324530124664306640625</LongitudeDegrees>
            </Position>
            <AltitudeMeters>33.799999237060546875</AltitudeMeters>
            <DistanceMeters>55294.825466332</DistanceMeters>
          </Trackpoint>
          <Trackpoint>
            <Time>2018-09-13T10:19:45.000Z</Time>
            <Position>
              <LatitudeDegrees>39.437332190573215484619140625</LatitudeDegrees>
              <LongitudeDegrees>-8.19177419878542423248291015625</LongitudeDegrees>
            </Position>
            <AltitudeMeters>34</AltitudeMeters>
            <DistanceMeters>55317.422850978</DistanceMeters>
          </Trackpoint>
          <Trackpoint>
            <Time>2018-09-13T10:19:47.000Z</Time>
            <Position>
              <LatitudeDegrees>39.43720051087439060211181640625</LatitudeDegrees>
              <LongitudeDegrees>-8.191725499927997589111328125</LongitudeDegrees>
            </Position>
            <AltitudeMeters>34</AltitudeMeters>
            <DistanceMeters>55332.665088568</DistanceMeters>
          </Trackpoint>
          <Trackpoint>
            <Time>2018-09-13T10:19:52.000Z</Time>
            <Position>
              <LatitudeDegrees>39.4368777237832546234130859375</LatitudeDegrees>
              <LongitudeDegrees>-8.191609494388103485107421875</LongitudeDegrees>
            </Position>
            <AltitudeMeters>33.799999237060546875</AltitudeMeters>
            <DistanceMeters>55369.950088749</DistanceMeters>
          </Trackpoint>
          <Trackpoint>
            <Time>2018-09-13T10:20:00.000Z</Time>
            <Position>
              <LatitudeDegrees>39.43635678850114345550537109375</LatitudeDegrees>
              <LongitudeDegrees>-8.1913954205811023712158203125</LongitudeDegrees>
            </Position>
            <AltitudeMeters>33.40000152587890625</AltitudeMeters>
            <DistanceMeters>55430.781364061</DistanceMeters>
          </Trackpoint>
          <Trackpoint>
            <Time>2018-09-13T10:20:07.000Z</Time>
            <Position>
              <LatitudeDegrees>39.4358940236270427703857421875</LatitudeDegrees>
              <LongitudeDegrees>-8.19126776419579982757568359375</LongitudeDegrees>
            </Position>
            <AltitudeMeters>33.40000152587890625</AltitudeMeters>
            <DistanceMeters>55483.44399975</DistanceMeters>
          </Trackpoint>
          <Trackpoint>
            <Time>2018-09-13T10:20:15.000Z</Time>
            <Position>
              <LatitudeDegrees>39.43536554463207721710205078125</LatitudeDegrees>
              <LongitudeDegrees>-8.19111588411033153533935546875</LongitudeDegrees>
            </Position>
            <AltitudeMeters>32.799999237060546875</AltitudeMeters>
            <DistanceMeters>55543.696332258</DistanceMeters>
          </Trackpoint>
          <Trackpoint>
            <Time>2018-09-13T10:20:24.000Z</Time>
            <Position>
              <LatitudeDegrees>39.43479222245514392852783203125</LatitudeDegrees>
              <LongitudeDegrees>-8.190936259925365447998046875</LongitudeDegrees>
            </Position>
            <AltitudeMeters>32.40000152587890625</AltitudeMeters>
            <DistanceMeters>55609.34982089</DistanceMeters>
          </Trackpoint>
          <Trackpoint>
            <Time>2018-09-13T10:20:33.000Z</Time>
            <Position>
              <LatitudeDegrees>39.43421739153563976287841796875</LatitudeDegrees>
              <LongitudeDegrees>-8.19072478450834751129150390625</LongitudeDegrees>
            </Position>
            <AltitudeMeters>32.799999237060546875</AltitudeMeters>
            <DistanceMeters>55675.862276043</DistanceMeters>
          </Trackpoint>
          <Trackpoint>
            <Time>2018-09-13T10:20:42.000Z</Time>
            <Position>
              <LatitudeDegrees>39.433634765446186065673828125</LatitudeDegrees>
              <LongitudeDegrees>-8.19050752557814121246337890625</LongitudeDegrees>
            </Position>
            <AltitudeMeters>32.40000152587890625</AltitudeMeters>
            <DistanceMeters>55743.34562956</DistanceMeters>
          </Trackpoint>
          <Trackpoint>
            <Time>2018-09-13T10:20:51.000Z</Time>
            <Position>
              <LatitudeDegrees>39.4330538995563983917236328125</LatitudeDegrees>
              <LongitudeDegrees>-8.190293200314044952392578125</LongitudeDegrees>
            </Position>
            <AltitudeMeters>33.200000762939453125</AltitudeMeters>
            <DistanceMeters>55810.571371788</DistanceMeters>
          </Trackpoint>
          <Trackpoint>
            <Time>2018-09-13T10:20:59.000Z</Time>
            <Position>
              <LatitudeDegrees>39.4325332157313823699951171875</LatitudeDegrees>
              <LongitudeDegrees>-8.190089352428913116455078125</LongitudeDegrees>
            </Position>
            <AltitudeMeters>34</AltitudeMeters>
            <DistanceMeters>55871.116142261</DistanceMeters>
          </Trackpoint>
          <Trackpoint>
            <Time>2018-09-13T10:21:08.000Z</Time>
            <Position>
              <LatitudeDegrees>39.4319843687117099761962890625</LatitudeDegrees>
              <LongitudeDegrees>-8.1898005120456218719482421875</LongitudeDegrees>
            </Position>
            <AltitudeMeters>34</AltitudeMeters>
            <DistanceMeters>55937.057629963</DistanceMeters>
          </Trackpoint>
          <Trackpoint>
            <Time>2018-09-13T10:21:13.000Z</Time>
            <Position>
              <LatitudeDegrees>39.43166996352374553680419921875</LatitudeDegrees>
              <LongitudeDegrees>-8.18963748402893543243408203125</LongitudeDegrees>
            </Position>
            <AltitudeMeters>34.40000152587890625</AltitudeMeters>
            <DistanceMeters>55974.75366277</DistanceMeters>
          </Trackpoint>
          <Trackpoint>
            <Time>2018-09-13T10:21:22.000Z</Time>
            <Position>
              <LatitudeDegrees>39.431110806763172149658203125</LatitudeDegrees>
              <LongitudeDegrees>-8.18934143520891666412353515625</LongitudeDegrees>
            </Position>
            <AltitudeMeters>34</AltitudeMeters>
            <DistanceMeters>56041.991761733</DistanceMeters>
          </Trackpoint>
          <Trackpoint>
            <Time>2018-09-13T10:21:31.000Z</Time>
            <Position>
              <LatitudeDegrees>39.430536143481731414794921875</LatitudeDegrees>
              <LongitudeDegrees>-8.18912149406969547271728515625</LongitudeDegrees>
            </Position>
            <AltitudeMeters>35</AltitudeMeters>
            <DistanceMeters>56108.68907584</DistanceMeters>
          </Trackpoint>
          <Trackpoint>
            <Time>2018-09-13T10:21:40.000Z</Time>
            <Position>
              <LatitudeDegrees>39.4300186447799205780029296875</LatitudeDegrees>
              <LongitudeDegrees>-8.1887988746166229248046875</LongitudeDegrees>
            </Position>
            <AltitudeMeters>35.40000152587890625</AltitudeMeters>
            <DistanceMeters>56172.617551945</DistanceMeters>
          </Trackpoint>
          <Trackpoint>
            <Time>2018-09-13T10:21:47.000Z</Time>
            <Position>
              <LatitudeDegrees>39.42968931980431079864501953125</LatitudeDegrees>
              <LongitudeDegrees>-8.188433088362216949462890625</LongitudeDegrees>
            </Position>
            <AltitudeMeters>35.799999237060546875</AltitudeMeters>
            <DistanceMeters>56220.91300396</DistanceMeters>
          </Trackpoint>
          <Trackpoint>
            <Time>2018-09-13T10:21:53.000Z</Time>
            <Position>
              <LatitudeDegrees>39.429424367845058441162109375</LatitudeDegrees>
              <LongitudeDegrees>-8.1880735047161579132080078125</LongitudeDegrees>
            </Position>
            <AltitudeMeters>37.200000762939453125</AltitudeMeters>
            <DistanceMeters>56263.636363752</DistanceMeters>
          </Trackpoint>
          <Trackpoint>
            <Time>2018-09-13T10:21:59.000Z</Time>
            <Position>
              <LatitudeDegrees>39.4291724078357219696044921875</LatitudeDegrees>
              <LongitudeDegrees>-8.18770025856792926788330078125</LongitudeDegrees>
            </Position>
            <AltitudeMeters>37.40000152587890625</AltitudeMeters>
            <DistanceMeters>56306.252004709</DistanceMeters>
          </Trackpoint>
          <Trackpoint>
            <Time>2018-09-13T10:22:08.000Z</Time>
            <Position>
              <LatitudeDegrees>39.42872305400669574737548828125</LatitudeDegrees>
              <LongitudeDegrees>-8.1872490607202053070068359375</LongitudeDegrees>
            </Position>
            <AltitudeMeters>35.799999237060546875</AltitudeMeters>
            <DistanceMeters>56369.545503532</DistanceMeters>
          </Trackpoint>
          <Trackpoint>
            <Time>2018-09-13T10:22:16.000Z</Time>
            <Position>
              <LatitudeDegrees>39.42825836129486560821533203125</LatitudeDegrees>
              <LongitudeDegrees>-8.18699265830218791961669921875</LongitudeDegrees>
            </Position>
            <AltitudeMeters>36.59999847412109375</AltitudeMeters>
            <DistanceMeters>56425.768241987</DistanceMeters>
          </Trackpoint>
          <Trackpoint>
            <Time>2018-09-13T10:22:25.000Z</Time>
            <Position>
              <LatitudeDegrees>39.42770431749522686004638671875</LatitudeDegrees>
              <LongitudeDegrees>-8.1867106072604656219482421875</LongitudeDegrees>
            </Position>
            <AltitudeMeters>36.200000762939453125</AltitudeMeters>
            <DistanceMeters>56492.030690852</DistanceMeters>
          </Trackpoint>
          <Trackpoint>
            <Time>2018-09-13T10:22:34.000Z</Time>
            <Position>
              <LatitudeDegrees>39.4271302409470081329345703125</LatitudeDegrees>
              <LongitudeDegrees>-8.1864926777780055999755859375</LongitudeDegrees>
            </Position>
            <AltitudeMeters>37</AltitudeMeters>
            <DistanceMeters>56558.616961311</DistanceMeters>
          </Trackpoint>
          <Trackpoint>
            <Time>2018-09-13T10:22:43.000Z</Time>
            <Position>
              <LatitudeDegrees>39.4265587627887725830078125</LatitudeDegrees>
              <LongitudeDegrees>-8.186318166553974151611328125</LongitudeDegrees>
            </Position>
            <AltitudeMeters>36.59999847412109375</AltitudeMeters>
            <DistanceMeters>56623.969161774</DistanceMeters>
          </Trackpoint>
          <Trackpoint>
            <Time>2018-09-13T10:22:45.000Z</Time>
            <Position>
              <LatitudeDegrees>39.426429681479930877685546875</LatitudeDegrees>
              <LongitudeDegrees>-8.18627919070422649383544921875</LongitudeDegrees>
            </Position>
            <AltitudeMeters>36.59999847412109375</AltitudeMeters>
            <DistanceMeters>56638.721580978</DistanceMeters>
          </Trackpoint>
          <Trackpoint>
            <Time>2018-09-13T10:22:54.000Z</Time>
            <Position>
              <LatitudeDegrees>39.4258407689630985260009765625</LatitudeDegrees>
              <LongitudeDegrees>-8.18609277717769145965576171875</LongitudeDegrees>
            </Position>
            <AltitudeMeters>37.59999847412109375</AltitudeMeters>
            <DistanceMeters>56706.199648718</DistanceMeters>
          </Trackpoint>
          <Trackpoint>
            <Time>2018-09-13T10:23:03.000Z</Time>
            <Position>
              <LatitudeDegrees>39.4252845458686351776123046875</LatitudeDegrees>
              <LongitudeDegrees>-8.1858110614120960235595703125</LongitudeDegrees>
            </Position>
            <AltitudeMeters>38</AltitudeMeters>
            <DistanceMeters>56772.677678485</DistanceMeters>
          </Trackpoint>
          <Trackpoint>
            <Time>2018-09-13T10:23:09.000Z</Time>
            <Position>
              <LatitudeDegrees>39.4248959608376026153564453125</LatitudeDegrees>
              <LongitudeDegrees>-8.18564199842512607574462890625</LongitudeDegrees>
            </Position>
            <AltitudeMeters>38</AltitudeMeters>
            <DistanceMeters>56818.305148983</DistanceMeters>
          </Trackpoint>
          <Trackpoint>
            <Time>2018-09-13T10:23:15.000Z</Time>
            <Position>
              <LatitudeDegrees>39.42449639551341533660888671875</LatitudeDegrees>
              <LongitudeDegrees>-8.18552901037037372589111328125</LongitudeDegrees>
            </Position>
            <AltitudeMeters>38.40000152587890625</AltitudeMeters>
            <DistanceMeters>56863.826218411</DistanceMeters>
          </Trackpoint>
          <Trackpoint>
            <Time>2018-09-13T10:23:23.000Z</Time>
            <Position>
              <LatitudeDegrees>39.423956684768199920654296875</LatitudeDegrees>
              <LongitudeDegrees>-8.18548190407454967498779296875</LongitudeDegrees>
            </Position>
            <AltitudeMeters>39.200000762939453125</AltitudeMeters>
            <DistanceMeters>56924.033422853</DistanceMeters>
          </Trackpoint>
          <Trackpoint>
            <Time>2018-09-13T10:23:29.000Z</Time>
            <Position>
              <LatitudeDegrees>39.42356701008975505828857421875</LatitudeDegrees>
              <LongitudeDegrees>-8.18532407283782958984375</LongitudeDegrees>
            </Position>
            <AltitudeMeters>39.799999237060546875</AltitudeMeters>
            <DistanceMeters>56969.478253837</DistanceMeters>
          </Trackpoint>
          <Trackpoint>
            <Time>2018-09-13T10:23:37.000Z</Time>
            <Position>
              <LatitudeDegrees>39.42305537872016429901123046875</LatitudeDegrees>
              <LongitudeDegrees>-8.18508242256939411163330078125</LongitudeDegrees>
            </Position>
            <AltitudeMeters>40</AltitudeMeters>
            <DistanceMeters>57030.095615427</DistanceMeters>
          </Trackpoint>
          <Trackpoint>
            <Time>2018-09-13T10:23:44.000Z</Time>
            <Position>
              <LatitudeDegrees>39.42262169905006885528564453125</LatitudeDegrees>
              <LongitudeDegrees>-8.18491545505821704864501953125</LongitudeDegrees>
            </Position>
            <AltitudeMeters>41</AltitudeMeters>
            <DistanceMeters>57080.4545742</DistanceMeters>
          </Trackpoint>
          <Trackpoint>
            <Time>2018-09-13T10:23:53.000Z</Time>
            <Position>
              <LatitudeDegrees>39.422051645815372467041015625</LatitudeDegrees>
              <LongitudeDegrees>-8.18470288999378681182861328125</LongitudeDegrees>
            </Position>
            <AltitudeMeters>42</AltitudeMeters>
            <DistanceMeters>57146.48241497</DistanceMeters>
          </Trackpoint>
          <Trackpoint>
            <Time>2018-09-13T10:23:58.000Z</Time>
            <Position>
              <LatitudeDegrees>39.421742856502532958984375</LatitudeDegrees>
              <LongitudeDegrees>-8.18458981812000274658203125</LongitudeDegrees>
            </Position>
            <AltitudeMeters>43.200000762939453125</AltitudeMeters>
            <DistanceMeters>57182.199820807</DistanceMeters>
          </Trackpoint>
          <Trackpoint>
            <Time>2018-09-13T10:24:07.000Z</Time>
            <Position>
              <LatitudeDegrees>39.421177916228771209716796875</LatitudeDegrees>
              <LongitudeDegrees>-8.1843960285186767578125</LongitudeDegrees>
            </Position>
            <AltitudeMeters>44</AltitudeMeters>
            <DistanceMeters>57247.24906001</DistanceMeters>
          </Trackpoint>
          <Trackpoint>
            <Time>2018-09-13T10:24:10.000Z</Time>
            <Position>
              <LatitudeDegrees>39.42098236642777919769287109375</LatitudeDegrees>
              <LongitudeDegrees>-8.1843291409313678741455078125</LongitudeDegrees>
            </Position>
            <AltitudeMeters>44</AltitudeMeters>
            <DistanceMeters>57269.761367985</DistanceMeters>
          </Trackpoint>
          <Trackpoint>
            <Time>2018-09-13T10:24:18.000Z</Time>
            <Position>
              <LatitudeDegrees>39.42043150775134563446044921875</LatitudeDegrees>
              <LongitudeDegrees>-8.1842694617807865142822265625</LongitudeDegrees>
            </Position>
            <AltitudeMeters>45</AltitudeMeters>
            <DistanceMeters>57331.287478099</DistanceMeters>
          </Trackpoint>
          <Trackpoint>
            <Time>2018-09-13T10:24:27.000Z</Time>
            <Position>
              <LatitudeDegrees>39.419840835034847259521484375</LatitudeDegrees>
              <LongitudeDegrees>-8.184319920837879180908203125</LongitudeDegrees>
            </Position>
            <AltitudeMeters>45.59999847412109375</AltitudeMeters>
            <DistanceMeters>57397.173549984</DistanceMeters>
          </Trackpoint>
          <Trackpoint>
            <Time>2018-09-13T10:24:30.000Z</Time>
            <Position>
              <LatitudeDegrees>39.41965098492801189422607421875</LatitudeDegrees>
              <LongitudeDegrees>-8.1843284703791141510009765625</LongitudeDegrees>
            </Position>
            <AltitudeMeters>45.799999237060546875</AltitudeMeters>
            <DistanceMeters>57418.317154088</DistanceMeters>
          </Trackpoint>
          <Trackpoint>
            <Time>2018-09-13T10:24:35.000Z</Time>
            <Position>
              <LatitudeDegrees>39.419329203665256500244140625</LatitudeDegrees>
              <LongitudeDegrees>-8.1843210943043231964111328125</LongitudeDegrees>
            </Position>
            <AltitudeMeters>45.799999237060546875</AltitudeMeters>
            <DistanceMeters>57454.137688034</DistanceMeters>
          </Trackpoint>
          <Trackpoint>
            <Time>2018-09-13T10:24:43.000Z</Time>
            <Position>
              <LatitudeDegrees>39.41878261975944042205810546875</LatitudeDegrees>
              <LongitudeDegrees>-8.18428597413003444671630859375</LongitudeDegrees>
            </Position>
            <AltitudeMeters>44.40000152587890625</AltitudeMeters>
            <DistanceMeters>57515.048403577</DistanceMeters>
          </Trackpoint>
          <Trackpoint>
            <Time>2018-09-13T10:24:50.000Z</Time>
            <Position>
              <LatitudeDegrees>39.4182734191417694091796875</LatitudeDegrees>
              <LongitudeDegrees>-8.184330649673938751220703125</LongitudeDegrees>
            </Position>
            <AltitudeMeters>45.200000762939453125</AltitudeMeters>
            <DistanceMeters>57571.853399101</DistanceMeters>
          </Trackpoint>
          <Trackpoint>
            <Time>2018-09-13T10:24:58.000Z</Time>
            <Position>
              <LatitudeDegrees>39.4177009351551532745361328125</LatitudeDegrees>
              <LongitudeDegrees>-8.18442695774137973785400390625</LongitudeDegrees>
            </Position>
            <AltitudeMeters>46.200000762939453125</AltitudeMeters>
            <DistanceMeters>57636.107902842</DistanceMeters>
          </Trackpoint>
          <Trackpoint>
            <Time>2018-09-13T10:25:06.000Z</Time>
            <Position>
              <LatitudeDegrees>39.41712484695017337799072265625</LatitudeDegrees>
              <LongitudeDegrees>-8.18426887504756450653076171875</LongitudeDegrees>
            </Position>
            <AltitudeMeters>44.59999847412109375</AltitudeMeters>
            <DistanceMeters>57701.652574774</DistanceMeters>
          </Trackpoint>
          <Trackpoint>
            <Time>2018-09-13T10:25:14.000Z</Time>
            <Position>
              <LatitudeDegrees>39.4166588969528675079345703125</LatitudeDegrees>
              <LongitudeDegrees>-8.18383988924324512481689453125</LongitudeDegrees>
            </Position>
            <AltitudeMeters>45.799999237060546875</AltitudeMeters>
            <DistanceMeters>57765.293874549</DistanceMeters>
          </Trackpoint>
          <Trackpoint>
            <Time>2018-09-13T10:25:21.000Z</Time>
            <Position>
              <LatitudeDegrees>39.416325129568576812744140625</LatitudeDegrees>
              <LongitudeDegrees>-8.1833209656178951263427734375</LongitudeDegrees>
            </Position>
            <AltitudeMeters>46</AltitudeMeters>
            <DistanceMeters>57823.354419391</DistanceMeters>
          </Trackpoint>
          <Trackpoint>
            <Time>2018-09-13T10:25:29.000Z</Time>
            <Position>
              <LatitudeDegrees>39.41585230641067028045654296875</LatitudeDegrees>
              <LongitudeDegrees>-8.1828971765935420989990234375</LongitudeDegrees>
            </Position>
            <AltitudeMeters>46.59999847412109375</AltitudeMeters>
            <DistanceMeters>57887.36547505</DistanceMeters>
          </Trackpoint>
          <Trackpoint>
            <Time>2018-09-13T10:25:34.000Z</Time>
            <Position>
              <LatitudeDegrees>39.4155481271445751190185546875</LatitudeDegrees>
              <LongitudeDegrees>-8.1826480664312839508056640625</LongitudeDegrees>
            </Position>
            <AltitudeMeters>46</AltitudeMeters>
            <DistanceMeters>57927.428449322</DistanceMeters>
          </Trackpoint>
          <Trackpoint>
            <Time>2018-09-13T10:25:40.000Z</Time>
            <Position>
              <LatitudeDegrees>39.41516817547380924224853515625</LatitudeDegrees>
              <LongitudeDegrees>-8.18237741477787494659423828125</LongitudeDegrees>
            </Position>
            <AltitudeMeters>46</AltitudeMeters>
            <DistanceMeters>57975.698653016</DistanceMeters>
          </Trackpoint>
          <Trackpoint>
            <Time>2018-09-13T10:25:48.000Z</Time>
            <Position>
              <LatitudeDegrees>39.41459678113460540771484375</LatitudeDegrees>
              <LongitudeDegrees>-8.1823091022670269012451171875</LongitudeDegrees>
            </Position>
            <AltitudeMeters>44.799999237060546875</AltitudeMeters>
            <DistanceMeters>58039.566644309</DistanceMeters>
          </Trackpoint>
          <Trackpoint>
            <Time>2018-09-13T10:25:49.000Z</Time>
            <Position>
              <LatitudeDegrees>39.41452595405280590057373046875</LatitudeDegrees>
              <LongitudeDegrees>-8.1823188252747058868408203125</LongitudeDegrees>
            </Position>
            <AltitudeMeters>44.59999847412109375</AltitudeMeters>
            <DistanceMeters>58047.494401372</DistanceMeters>
          </Trackpoint>
          <Trackpoint>
            <Time>2018-09-13T10:25:54.000Z</Time>
            <Position>
              <LatitudeDegrees>39.41419620998203754425048828125</LatitudeDegrees>
              <LongitudeDegrees>-8.18248160183429718017578125</LongitudeDegrees>
            </Position>
            <AltitudeMeters>44.200000762939453125</AltitudeMeters>
            <DistanceMeters>58086.774013021</DistanceMeters>
          </Trackpoint>
          <Trackpoint>
            <Time>2018-09-13T10:25:55.000Z</Time>
            <Position>
              <LatitudeDegrees>39.41413720138370990753173828125</LatitudeDegrees>
              <LongitudeDegrees>-8.1825317256152629852294921875</LongitudeDegrees>
            </Position>
            <AltitudeMeters>44</AltitudeMeters>
            <DistanceMeters>58094.629682465</DistanceMeters>
          </Trackpoint>
          <Trackpoint>
            <Time>2018-09-13T10:26:02.000Z</Time>
            <Position>
              <LatitudeDegrees>39.41373319365084171295166015625</LatitudeDegrees>
              <LongitudeDegrees>-8.1828787364065647125244140625</LongitudeDegrees>
            </Position>
            <AltitudeMeters>45</AltitudeMeters>
            <DistanceMeters>58148.596323225</DistanceMeters>
          </Trackpoint>
          <Trackpoint>
            <Time>2018-09-13T10:26:10.000Z</Time>
            <Position>
              <LatitudeDegrees>39.41326933912932872772216796875</LatitudeDegrees>
              <LongitudeDegrees>-8.18326078355312347412109375</LongitudeDegrees>
            </Position>
            <AltitudeMeters>46.40000152587890625</AltitudeMeters>
            <DistanceMeters>58209.790428503</DistanceMeters>
          </Trackpoint>
          <Trackpoint>
            <Time>2018-09-13T10:26:13.000Z</Time>
            <Position>
              <LatitudeDegrees>39.41310220398008823394775390625</LatitudeDegrees>
              <LongitudeDegrees>-8.18339430727064609527587890625</LongitudeDegrees>
            </Position>
            <AltitudeMeters>46.799999237060546875</AltitudeMeters>
            <DistanceMeters>58231.651117092</DistanceMeters>
          </Trackpoint>
          <Trackpoint>
            <Time>2018-09-13T10:26:20.000Z</Time>
            <Position>
              <LatitudeDegrees>39.4126868806779384613037109375</LatitudeDegrees>
              <LongitudeDegrees>-8.18369622342288494110107421875</LongitudeDegrees>
            </Position>
            <AltitudeMeters>47</AltitudeMeters>
            <DistanceMeters>58284.669211322</DistanceMeters>
          </Trackpoint>
          <Trackpoint>
            <Time>2018-09-13T10:26:28.000Z</Time>
            <Position>
              <LatitudeDegrees>39.41216829232871532440185546875</LatitudeDegrees>
              <LongitudeDegrees>-8.1835134141147136688232421875</LongitudeDegrees>
            </Position>
            <AltitudeMeters>45.59999847412109375</AltitudeMeters>
            <DistanceMeters>58344.491452717</DistanceMeters>
          </Trackpoint>
          <Trackpoint>
            <Time>2018-09-13T10:26:36.000Z</Time>
            <Position>
              <LatitudeDegrees>39.41169337369501590728759765625</LatitudeDegrees>
              <LongitudeDegrees>-8.18307302892208099365234375</LongitudeDegrees>
            </Position>
            <AltitudeMeters>45.59999847412109375</AltitudeMeters>
            <DistanceMeters>58409.516255169</DistanceMeters>
          </Trackpoint>
          <Trackpoint>
            <Time>2018-09-13T10:26:44.000Z</Time>
            <Position>
              <LatitudeDegrees>39.41121208481490612030029296875</LatitudeDegrees>
              <LongitudeDegrees>-8.18263314664363861083984375</LongitudeDegrees>
            </Position>
            <AltitudeMeters>45</AltitudeMeters>
            <DistanceMeters>58475.093914667</DistanceMeters>
          </Trackpoint>
          <Trackpoint>
            <Time>2018-09-13T10:26:52.000Z</Time>
            <Position>
              <LatitudeDegrees>39.41075845621526241302490234375</LatitudeDegrees>
              <LongitudeDegrees>-8.18220038898289203643798828125</LongitudeDegrees>
            </Position>
            <AltitudeMeters>44.59999847412109375</AltitudeMeters>
            <DistanceMeters>58537.816441276</DistanceMeters>
          </Trackpoint>
          <Trackpoint>
            <Time>2018-09-13T10:27:00.000Z</Time>
            <Position>
              <LatitudeDegrees>39.410359561443328857421875</LatitudeDegrees>
              <LongitudeDegrees>-8.18166344426572322845458984375</LongitudeDegrees>
            </Position>
            <AltitudeMeters>44</AltitudeMeters>
            <DistanceMeters>58601.872623613</DistanceMeters>
          </Trackpoint>
          <Trackpoint>
            <Time>2018-09-13T10:27:08.000Z</Time>
            <Position>
              <LatitudeDegrees>39.409962594509124755859375</LatitudeDegrees>
              <LongitudeDegrees>-8.1811158545315265655517578125</LongitudeDegrees>
            </Position>
            <AltitudeMeters>45</AltitudeMeters>
            <DistanceMeters>58666.444936701</DistanceMeters>
          </Trackpoint>
          <Trackpoint>
            <Time>2018-09-13T10:27:16.000Z</Time>
            <Position>
              <LatitudeDegrees>39.40957727842032909393310546875</LatitudeDegrees>
              <LongitudeDegrees>-8.18058234639465808868408203125</LongitudeDegrees>
            </Position>
            <AltitudeMeters>45.59999847412109375</AltitudeMeters>
            <DistanceMeters>58729.24724318</DistanceMeters>
          </Trackpoint>
          <Trackpoint>
            <Time>2018-09-13T10:27:22.000Z</Time>
            <Position>
              <LatitudeDegrees>39.409286342561244964599609375</LatitudeDegrees>
              <LongitudeDegrees>-8.180180601775646209716796875</LongitudeDegrees>
            </Position>
            <AltitudeMeters>46.799999237060546875</AltitudeMeters>
            <DistanceMeters>58776.598588682</DistanceMeters>
          </Trackpoint>
          <Trackpoint>
            <Time>2018-09-13T10:27:30.000Z</Time>
            <Position>
              <LatitudeDegrees>39.40888761542737483978271484375</LatitudeDegrees>
              <LongitudeDegrees>-8.1796527095139026641845703125</LongitudeDegrees>
            </Position>
            <AltitudeMeters>46</AltitudeMeters>
            <DistanceMeters>58840.083546261</DistanceMeters>
          </Trackpoint>
          <Trackpoint>
            <Time>2018-09-13T10:27:38.000Z</Time>
            <Position>
              <LatitudeDegrees>39.40842241980135440826416015625</LatitudeDegrees>
              <LongitudeDegrees>-8.179214335978031158447265625</LongitudeDegrees>
            </Position>
            <AltitudeMeters>46.59999847412109375</AltitudeMeters>
            <DistanceMeters>58904.130846797</DistanceMeters>
          </Trackpoint>
          <Trackpoint>
            <Time>2018-09-13T10:27:46.000Z</Time>
            <Position>
              <LatitudeDegrees>39.4079467467963695526123046875</LatitudeDegrees>
              <LongitudeDegrees>-8.17880454473197460174560546875</LongitudeDegrees>
            </Position>
            <AltitudeMeters>46</AltitudeMeters>
            <DistanceMeters>58967.730346182</DistanceMeters>
          </Trackpoint>
          <Trackpoint>
            <Time>2018-09-13T10:27:47.000Z</Time>
            <Position>
              <LatitudeDegrees>39.4078867323696613311767578125</LatitudeDegrees>
              <LongitudeDegrees>-8.17875333130359649658203125</LongitudeDegrees>
            </Position>
            <AltitudeMeters>46</AltitudeMeters>
            <DistanceMeters>58975.731234377</DistanceMeters>
          </Trackpoint>
          <Trackpoint>
            <Time>2018-09-13T10:27:55.000Z</Time>
            <Position>
              <LatitudeDegrees>39.4074453413486480712890625</LatitudeDegrees>
              <LongitudeDegrees>-8.17829945124685764312744140625</LongitudeDegrees>
            </Position>
            <AltitudeMeters>45.799999237060546875</AltitudeMeters>
            <DistanceMeters>59038.477223485</DistanceMeters>
          </Trackpoint>
          <Trackpoint>
            <Time>2018-09-13T10:28:03.000Z</Time>
            <Position>
              <LatitudeDegrees>39.40707586705684661865234375</LatitudeDegrees>
              <LongitudeDegrees>-8.17773853428661823272705078125</LongitudeDegrees>
            </Position>
            <AltitudeMeters>46.59999847412109375</AltitudeMeters>
            <DistanceMeters>59101.864743267</DistanceMeters>
          </Trackpoint>
          <Trackpoint>
            <Time>2018-09-13T10:28:11.000Z</Time>
            <Position>
              <LatitudeDegrees>39.406723491847515106201171875</LatitudeDegrees>
              <LongitudeDegrees>-8.1771823950111865997314453125</LongitudeDegrees>
            </Position>
            <AltitudeMeters>47.40000152587890625</AltitudeMeters>
            <DistanceMeters>59163.716550565</DistanceMeters>
          </Trackpoint>
          <Trackpoint>
            <Time>2018-09-13T10:28:14.000Z</Time>
            <Position>
              <LatitudeDegrees>39.40659265033900737762451171875</LatitudeDegrees>
              <LongitudeDegrees>-8.17697276361286640167236328125</LongitudeDegrees>
            </Position>
            <AltitudeMeters>48.200000762939453125</AltitudeMeters>
            <DistanceMeters>59186.89177196</DistanceMeters>
          </Trackpoint>
          <Trackpoint>
            <Time>2018-09-13T10:28:20.000Z</Time>
            <Position>
              <LatitudeDegrees>39.40630498342216014862060546875</LatitudeDegrees>
              <LongitudeDegrees>-8.1765698455274105072021484375</LongitudeDegrees>
            </Position>
            <AltitudeMeters>50.799999237060546875</AltitudeMeters>
            <DistanceMeters>59234.070214946</DistanceMeters>
          </Trackpoint>
          <Trackpoint>
            <Time>2018-09-13T10:28:24.000Z</Time>
            <Position>
              <LatitudeDegrees>39.40608621574938297271728515625</LatitudeDegrees>
              <LongitudeDegrees>-8.17633456550538539886474609375</LongitudeDegrees>
            </Position>
            <AltitudeMeters>52</AltitudeMeters>
            <DistanceMeters>59265.729088975</DistanceMeters>
          </Trackpoint>
          <Trackpoint>
            <Time>2018-09-13T10:28:32.000Z</Time>
            <Position>
              <LatitudeDegrees>39.40564884804189205169677734375</LatitudeDegrees>
              <LongitudeDegrees>-8.17586869932711124420166015625</LongitudeDegrees>
            </Position>
            <AltitudeMeters>51.40000152587890625</AltitudeMeters>
            <DistanceMeters>59328.77578706</DistanceMeters>
          </Trackpoint>
          <Trackpoint>
            <Time>2018-09-13T10:28:38.000Z</Time>
            <Position>
              <LatitudeDegrees>39.4053201936185359954833984375</LatitudeDegrees>
              <LongitudeDegrees>-8.17551967687904834747314453125</LongitudeDegrees>
            </Position>
            <AltitudeMeters>51</AltitudeMeters>
            <DistanceMeters>59376.094320158</DistanceMeters>
          </Trackpoint>
          <Trackpoint>
            <Time>2018-09-13T10:28:46.000Z</Time>
            <Position>
              <LatitudeDegrees>39.40490000881254673004150390625</LatitudeDegrees>
              <LongitudeDegrees>-8.17503553815186023712158203125</LongitudeDegrees>
            </Position>
            <AltitudeMeters>53</AltitudeMeters>
            <DistanceMeters>59438.710219346</DistanceMeters>
          </Trackpoint>
          <Trackpoint>
            <Time>2018-09-13T10:28:47.000Z</Time>
            <Position>
              <LatitudeDegrees>39.40485357306897640228271484375</LatitudeDegrees>
              <LongitudeDegrees>-8.17496546544134616851806640625</LongitudeDegrees>
            </Position>
            <AltitudeMeters>53</AltitudeMeters>
            <DistanceMeters>59446.649358694</DistanceMeters>
          </Trackpoint>
          <Trackpoint>
            <Time>2018-09-13T10:28:54.000Z</Time>
            <Position>
              <LatitudeDegrees>39.40451527945697307586669921875</LatitudeDegrees>
              <LongitudeDegrees>-8.17447931505739688873291015625</LongitudeDegrees>
            </Position>
            <AltitudeMeters>54</AltitudeMeters>
            <DistanceMeters>59502.91448288</DistanceMeters>
          </Trackpoint>
          <Trackpoint>
            <Time>2018-09-13T10:29:02.000Z</Time>
            <Position>
              <LatitudeDegrees>39.40402443520724773406982421875</LatitudeDegrees>
              <LongitudeDegrees>-8.17409425042569637298583984375</LongitudeDegrees>
            </Position>
            <AltitudeMeters>55.40000152587890625</AltitudeMeters>
            <DistanceMeters>59566.799721006</DistanceMeters>
          </Trackpoint>
          <Trackpoint>
            <Time>2018-09-13T10:29:10.000Z</Time>
            <Position>
              <LatitudeDegrees>39.403604082763195037841796875</LatitudeDegrees>
              <LongitudeDegrees>-8.17358613945543766021728515625</LongitudeDegrees>
            </Position>
            <AltitudeMeters>55.40000152587890625</AltitudeMeters>
            <DistanceMeters>59630.819240341</DistanceMeters>
          </Trackpoint>
          <Trackpoint>
            <Time>2018-09-13T10:29:12.000Z</Time>
            <Position>
              <LatitudeDegrees>39.403511546552181243896484375</LatitudeDegrees>
              <LongitudeDegrees>-8.17345194518566131591796875</LongitudeDegrees>
            </Position>
            <AltitudeMeters>55.59999847412109375</AltitudeMeters>
            <DistanceMeters>59646.287301158</DistanceMeters>
          </Trackpoint>
          <Trackpoint>
            <Time>2018-09-13T10:29:20.000Z</Time>
            <Position>
              <LatitudeDegrees>39.40315581858158111572265625</LatitudeDegrees>
              <LongitudeDegrees>-8.172922544181346893310546875</LongitudeDegrees>
            </Position>
            <AltitudeMeters>55.59999847412109375</AltitudeMeters>
            <DistanceMeters>59706.624625506</DistanceMeters>
          </Trackpoint>
          <Trackpoint>
            <Time>2018-09-13T10:29:21.000Z</Time>
            <Position>
              <LatitudeDegrees>39.4031107239425182342529296875</LatitudeDegrees>
              <LongitudeDegrees>-8.17285741679370403289794921875</LongitudeDegrees>
            </Position>
            <AltitudeMeters>55.59999847412109375</AltitudeMeters>
            <DistanceMeters>59714.145556222</DistanceMeters>
          </Trackpoint>
          <Trackpoint>
            <Time>2018-09-13T10:29:30.000Z</Time>
            <Position>
              <LatitudeDegrees>39.402640163898468017578125</LatitudeDegrees>
              <LongitudeDegrees>-8.17236690782010555267333984375</LongitudeDegrees>
            </Position>
            <AltitudeMeters>56.799999237060546875</AltitudeMeters>
            <DistanceMeters>59781.396412475</DistanceMeters>
          </Trackpoint>
          <Trackpoint>
            <Time>2018-09-13T10:29:38.000Z</Time>
            <Position>
              <LatitudeDegrees>39.40218293108046054840087890625</LatitudeDegrees>
              <LongitudeDegrees>-8.17198368720710277557373046875</LongitudeDegrees>
            </Position>
            <AltitudeMeters>58</AltitudeMeters>
            <DistanceMeters>59842.027626551</DistanceMeters>
          </Trackpoint>
          <Trackpoint>
            <Time>2018-09-13T10:29:42.000Z</Time>
            <Position>
              <LatitudeDegrees>39.40194086171686649322509765625</LatitudeDegrees>
              <LongitudeDegrees>-8.171789981424808502197265625</LongitudeDegrees>
            </Position>
            <AltitudeMeters>58</AltitudeMeters>
            <DistanceMeters>59873.704892605</DistanceMeters>
          </Trackpoint>
          <Trackpoint>
            <Time>2018-09-13T10:29:50.000Z</Time>
            <Position>
              <LatitudeDegrees>39.40142772160470485687255859375</LatitudeDegrees>
              <LongitudeDegrees>-8.17138337530195713043212890625</LongitudeDegrees>
            </Position>
            <AltitudeMeters>57.59999847412109375</AltitudeMeters>
            <DistanceMeters>59940.673987765</DistanceMeters>
          </Trackpoint>
          <Trackpoint>
            <Time>2018-09-13T10:29:58.000Z</Time>
            <Position>
              <LatitudeDegrees>39.40092480741441249847412109375</LatitudeDegrees>
              <LongitudeDegrees>-8.1709952093660831451416015625</LongitudeDegrees>
            </Position>
            <AltitudeMeters>58.799999237060546875</AltitudeMeters>
            <DistanceMeters>60005.848737165</DistanceMeters>
          </Trackpoint>
          <Trackpoint>
            <Time>2018-09-13T10:30:05.000Z</Time>
            <Position>
              <LatitudeDegrees>39.4004984200000762939453125</LatitudeDegrees>
              <LongitudeDegrees>-8.1706525571644306182861328125</LongitudeDegrees>
            </Position>
            <AltitudeMeters>59.40000152587890625</AltitudeMeters>
            <DistanceMeters>60061.712323145</DistanceMeters>
          </Trackpoint>
          <Trackpoint>
            <Time>2018-09-13T10:30:13.000Z</Time>
            <Position>
              <LatitudeDegrees>39.400118552148342132568359375</LatitudeDegrees>
              <LongitudeDegrees>-8.17007915116846561431884765625</LongitudeDegrees>
            </Position>
            <AltitudeMeters>59.59999847412109375</AltitudeMeters>
            <DistanceMeters>60126.671684303</DistanceMeters>
          </Trackpoint>
          <Trackpoint>
            <Time>2018-09-13T10:30:21.000Z</Time>
            <Position>
              <LatitudeDegrees>39.39976818859577178955078125</LatitudeDegrees>
              <LongitudeDegrees>-8.16949040628969669342041015625</LongitudeDegrees>
            </Position>
            <AltitudeMeters>59.40000152587890625</AltitudeMeters>
            <DistanceMeters>60190.583490404</DistanceMeters>
          </Trackpoint>
          <Trackpoint>
            <Time>2018-09-13T10:30:24.000Z</Time>
            <Position>
              <LatitudeDegrees>39.39959979616105556488037109375</LatitudeDegrees>
              <LongitudeDegrees>-8.169310279190540313720703125</LongitudeDegrees>
            </Position>
            <AltitudeMeters>59</AltitudeMeters>
            <DistanceMeters>60214.899933515</DistanceMeters>
          </Trackpoint>
          <Trackpoint>
            <Time>2018-09-13T10:30:32.000Z</Time>
            <Position>
              <LatitudeDegrees>39.3991239555180072784423828125</LatitudeDegrees>
              <LongitudeDegrees>-8.16884952597320079803466796875</LongitudeDegrees>
            </Position>
            <AltitudeMeters>59.799999237060546875</AltitudeMeters>
            <DistanceMeters>60281.046581652</DistanceMeters>
          </Trackpoint>
          <Trackpoint>
            <Time>2018-09-13T10:30:40.000Z</Time>
            <Position>
              <LatitudeDegrees>39.39860084094107151031494140625</LatitudeDegrees>
              <LongitudeDegrees>-8.16848985850811004638671875</LongitudeDegrees>
            </Position>
            <AltitudeMeters>61.40000152587890625</AltitudeMeters>
            <DistanceMeters>60346.977866479</DistanceMeters>
          </Trackpoint>
          <Trackpoint>
            <Time>2018-09-13T10:30:48.000Z</Time>
            <Position>
              <LatitudeDegrees>39.398059956729412078857421875</LatitudeDegrees>
              <LongitudeDegrees>-8.16819238476455211639404296875</LongitudeDegrees>
            </Position>
            <AltitudeMeters>66.59999847412109375</AltitudeMeters>
            <DistanceMeters>60412.39062886</DistanceMeters>
          </Trackpoint>
          <Trackpoint>
            <Time>2018-09-13T10:30:52.000Z</Time>
            <Position>
              <LatitudeDegrees>39.39780355431139469146728515625</LatitudeDegrees>
              <LongitudeDegrees>-8.16805391572415828704833984375</LongitudeDegrees>
            </Position>
            <AltitudeMeters>66.40000152587890625</AltitudeMeters>
            <DistanceMeters>60443.314196495</DistanceMeters>
          </Trackpoint>
          <Trackpoint>
            <Time>2018-09-13T10:31:01.000Z</Time>
            <Position>
              <LatitudeDegrees>39.39725889824330806732177734375</LatitudeDegrees>
              <LongitudeDegrees>-8.16774713806807994842529296875</LongitudeDegrees>
            </Position>
            <AltitudeMeters>71.59999847412109375</AltitudeMeters>
            <DistanceMeters>60509.428960459</DistanceMeters>
          </Trackpoint>
          <Trackpoint>
            <Time>2018-09-13T10:31:06.000Z</Time>
            <Position>
              <LatitudeDegrees>39.39698765985667705535888671875</LatitudeDegrees>
              <LongitudeDegrees>-8.16757178865373134613037109375</LongitudeDegrees>
            </Position>
            <AltitudeMeters>72.59999847412109375</AltitudeMeters>
            <DistanceMeters>60543.176156507</DistanceMeters>
          </Trackpoint>
          <Trackpoint>
            <Time>2018-09-13T10:31:11.000Z</Time>
            <Position>
              <LatitudeDegrees>39.39674190245568752288818359375</LatitudeDegrees>
              <LongitudeDegrees>-8.16737129352986812591552734375</LongitudeDegrees>
            </Position>
            <AltitudeMeters>73.40000152587890625</AltitudeMeters>
            <DistanceMeters>60575.511500812</DistanceMeters>
          </Trackpoint>
          <Trackpoint>
            <Time>2018-09-13T10:31:16.000Z</Time>
            <Position>
              <LatitudeDegrees>39.3965302594006061553955078125</LatitudeDegrees>
              <LongitudeDegrees>-8.16712637431919574737548828125</LongitudeDegrees>
            </Position>
            <AltitudeMeters>73</AltitudeMeters>
            <DistanceMeters>60607.112991506</DistanceMeters>
          </Trackpoint>
          <Trackpoint>
            <Time>2018-09-13T10:31:25.000Z</Time>
            <Position>
              <LatitudeDegrees>39.39613270573318004608154296875</LatitudeDegrees>
              <LongitudeDegrees>-8.166520111262798309326171875</LongitudeDegrees>
            </Position>
            <AltitudeMeters>70.1999969482421875</AltitudeMeters>
            <DistanceMeters>60675.502127439</DistanceMeters>
          </Trackpoint>
          <Trackpoint>
            <Time>2018-09-13T10:31:31.000Z</Time>
            <Position>
              <LatitudeDegrees>39.395822994410991668701171875</LatitudeDegrees>
              <LongitudeDegrees>-8.166029267013072967529296875</LongitudeDegrees>
            </Position>
            <AltitudeMeters>69.1999969482421875</AltitudeMeters>
            <DistanceMeters>60730.006057832</DistanceMeters>
          </Trackpoint>
          <Trackpoint>
            <Time>2018-09-13T10:31:35.000Z</Time>
            <Position>
              <LatitudeDegrees>39.39560431055724620819091796875</LatitudeDegrees>
              <LongitudeDegrees>-8.16567999310791492462158203125</LongitudeDegrees>
            </Position>
            <AltitudeMeters>69.59999847412109375</AltitudeMeters>
            <DistanceMeters>60768.6706051</DistanceMeters>
          </Trackpoint>
          <Trackpoint>
            <Time>2018-09-13T10:31:37.000Z</Time>
            <Position>
              <LatitudeDegrees>39.395492412149906158447265625</LatitudeDegrees>
              <LongitudeDegrees>-8.16550313495099544525146484375</LongitudeDegrees>
            </Position>
            <AltitudeMeters>69.1999969482421875</AltitudeMeters>
            <DistanceMeters>60788.330573616</DistanceMeters>
          </Trackpoint>
          <Trackpoint>
            <Time>2018-09-13T10:31:41.000Z</Time>
            <Position>
              <LatitudeDegrees>39.3952645920217037200927734375</LatitudeDegrees>
              <LongitudeDegrees>-8.16515008918941020965576171875</LongitudeDegrees>
            </Position>
            <AltitudeMeters>68.40000152587890625</AltitudeMeters>
            <DistanceMeters>60827.891599754</DistanceMeters>
          </Trackpoint>
          <Trackpoint>
            <Time>2018-09-13T10:31:48.000Z</Time>
            <Position>
              <LatitudeDegrees>39.39490224234759807586669921875</LatitudeDegrees>
              <LongitudeDegrees>-8.164582550525665283203125</LongitudeDegrees>
            </Position>
            <AltitudeMeters>69.1999969482421875</AltitudeMeters>
            <DistanceMeters>60891.21212875</DistanceMeters>
          </Trackpoint>
          <Trackpoint>
            <Time>2018-09-13T10:31:56.000Z</Time>
            <Position>
              <LatitudeDegrees>39.39450971782207489013671875</LatitudeDegrees>
              <LongitudeDegrees>-8.16399472765624523162841796875</LongitudeDegrees>
            </Position>
            <AltitudeMeters>68</AltitudeMeters>
            <DistanceMeters>60958.033479149</DistanceMeters>
          </Trackpoint>
          <Trackpoint>
            <Time>2018-09-13T10:32:00.000Z</Time>
            <Position>
              <LatitudeDegrees>39.3943191133439540863037109375</LatitudeDegrees>
              <LongitudeDegrees>-8.1637334637343883514404296875</LongitudeDegrees>
            </Position>
            <AltitudeMeters>70</AltitudeMeters>
            <DistanceMeters>60988.937767932</DistanceMeters>
          </Trackpoint>
          <Trackpoint>
            <Time>2018-09-13T10:32:06.000Z</Time>
            <Position>
              <LatitudeDegrees>39.394041337072849273681640625</LatitudeDegrees>
              <LongitudeDegrees>-8.16337161697447299957275390625</LongitudeDegrees>
            </Position>
            <AltitudeMeters>69.59999847412109375</AltitudeMeters>
            <DistanceMeters>61032.807496701</DistanceMeters>
          </Trackpoint>
          <Trackpoint>
            <Time>2018-09-13T10:32:12.000Z</Time>
            <Position>
              <LatitudeDegrees>39.39374906010925769805908203125</LatitudeDegrees>
              <LongitudeDegrees>-8.16301035694777965545654296875</LongitudeDegrees>
            </Position>
            <AltitudeMeters>70</AltitudeMeters>
            <DistanceMeters>61077.794592549</DistanceMeters>
          </Trackpoint>
          <Trackpoint>
            <Time>2018-09-13T10:32:14.000Z</Time>
            <Position>
              <LatitudeDegrees>39.3936562724411487579345703125</LatitudeDegrees>
              <LongitudeDegrees>-8.1628914177417755126953125</LongitudeDegrees>
            </Position>
            <AltitudeMeters>70.40000152587890625</AltitudeMeters>
            <DistanceMeters>61092.331505871</DistanceMeters>
          </Trackpoint>
          <Trackpoint>
            <Time>2018-09-13T10:32:22.000Z</Time>
            <Position>
              <LatitudeDegrees>39.39326584339141845703125</LatitudeDegrees>
              <LongitudeDegrees>-8.1624657846987247467041015625</LongitudeDegrees>
            </Position>
            <AltitudeMeters>70</AltitudeMeters>
            <DistanceMeters>61149.153508237</DistanceMeters>
          </Trackpoint>
          <Trackpoint>
            <Time>2018-09-13T10:32:24.000Z</Time>
            <Position>
              <LatitudeDegrees>39.3931563757359981536865234375</LatitudeDegrees>
              <LongitudeDegrees>-8.16235204227268695831298828125</LongitudeDegrees>
            </Position>
            <AltitudeMeters>69.8000030517578125</AltitudeMeters>
            <DistanceMeters>61164.77897485</DistanceMeters>
          </Trackpoint>
          <Trackpoint>
            <Time>2018-09-13T10:32:31.000Z</Time>
            <Position>
              <LatitudeDegrees>39.39273769967257976531982421875</LatitudeDegrees>
              <LongitudeDegrees>-8.161905705928802490234375</LongitudeDegrees>
            </Position>
            <AltitudeMeters>69.59999847412109375</AltitudeMeters>
            <DistanceMeters>61225.156469502</DistanceMeters>
          </Trackpoint>
          <Trackpoint>
            <Time>2018-09-13T10:32:38.000Z</Time>
            <Position>
              <LatitudeDegrees>39.39232564531266689300537109375</LatitudeDegrees>
              <LongitudeDegrees>-8.16145383752882480621337890625</LongitudeDegrees>
            </Position>
            <AltitudeMeters>71.59999847412109375</AltitudeMeters>
            <DistanceMeters>61285.273691702</DistanceMeters>
          </Trackpoint>
          <Trackpoint>
            <Time>2018-09-13T10:32:46.000Z</Time>
            <Position>
              <LatitudeDegrees>39.39188341610133647918701171875</LatitudeDegrees>
              <LongitudeDegrees>-8.16097757779061794281005859375</LongitudeDegrees>
            </Position>
            <AltitudeMeters>71</AltitudeMeters>
            <DistanceMeters>61349.312250215</DistanceMeters>
          </Trackpoint>
          <Trackpoint>
            <Time>2018-09-13T10:32:54.000Z</Time>
            <Position>
              <LatitudeDegrees>39.39145409502089023590087890625</LatitudeDegrees>
              <LongitudeDegrees>-8.16049729473888874053955078125</LongitudeDegrees>
            </Position>
            <AltitudeMeters>72</AltitudeMeters>
            <DistanceMeters>61412.479288518</DistanceMeters>
          </Trackpoint>
          <Trackpoint>
            <Time>2018-09-13T10:33:01.000Z</Time>
            <Position>
              <LatitudeDegrees>39.39111412502825260162353515625</LatitudeDegrees>
              <LongitudeDegrees>-8.160151205956935882568359375</LongitudeDegrees>
            </Position>
            <AltitudeMeters>72.40000152587890625</AltitudeMeters>
            <DistanceMeters>61460.625490273</DistanceMeters>
          </Trackpoint>
          <Trackpoint>
            <Time>2018-09-13T10:33:04.000Z</Time>
            <Position>
              <LatitudeDegrees>39.390967190265655517578125</LatitudeDegrees>
              <LongitudeDegrees>-8.16001265309751033782958984375</LongitudeDegrees>
            </Position>
            <AltitudeMeters>73.40000152587890625</AltitudeMeters>
            <DistanceMeters>61480.861495476</DistanceMeters>
          </Trackpoint>
          <Trackpoint>
            <Time>2018-09-13T10:33:07.000Z</Time>
            <Position>
              <LatitudeDegrees>39.39081472344696521759033203125</LatitudeDegrees>
              <LongitudeDegrees>-8.15987552516162395477294921875</LongitudeDegrees>
            </Position>
            <AltitudeMeters>74.8000030517578125</AltitudeMeters>
            <DistanceMeters>61501.528003542</DistanceMeters>
          </Trackpoint>
          <Trackpoint>
            <Time>2018-09-13T10:33:10.000Z</Time>
            <Position>
              <LatitudeDegrees>39.390657730400562286376953125</LatitudeDegrees>
              <LongitudeDegrees>-8.1597363017499446868896484375</LongitudeDegrees>
            </Position>
            <AltitudeMeters>76</AltitudeMeters>
            <DistanceMeters>61522.711502281</DistanceMeters>
          </Trackpoint>
          <Trackpoint>
            <Time>2018-09-13T10:33:18.000Z</Time>
            <Position>
              <LatitudeDegrees>39.39022379927337169647216796875</LatitudeDegrees>
              <LongitudeDegrees>-8.15933606587350368499755859375</LongitudeDegrees>
            </Position>
            <AltitudeMeters>75.40000152587890625</AltitudeMeters>
            <DistanceMeters>61582.023474857</DistanceMeters>
          </Trackpoint>
          <Trackpoint>
            <Time>2018-09-13T10:33:27.000Z</Time>
            <Position>
              <LatitudeDegrees>39.3897776305675506591796875</LatitudeDegrees>
              <LongitudeDegrees>-8.158825524151325225830078125</LongitudeDegrees>
            </Position>
            <AltitudeMeters>76</AltitudeMeters>
            <DistanceMeters>61648.3161023</DistanceMeters>
          </Trackpoint>
          <Trackpoint>
            <Time>2018-09-13T10:33:35.000Z</Time>
            <Position>
              <LatitudeDegrees>39.38938024453818798065185546875</LatitudeDegrees>
              <LongitudeDegrees>-8.1583395414054393768310546875</LongitudeDegrees>
            </Position>
            <AltitudeMeters>76.40000152587890625</AltitudeMeters>
            <DistanceMeters>61709.175501369</DistanceMeters>
          </Trackpoint>
          <Trackpoint>
            <Time>2018-09-13T10:33:43.000Z</Time>
            <Position>
              <LatitudeDegrees>39.38897858373820781707763671875</LatitudeDegrees>
              <LongitudeDegrees>-8.15784375183284282684326171875</LongitudeDegrees>
            </Position>
            <AltitudeMeters>77.8000030517578125</AltitudeMeters>
            <DistanceMeters>61770.960991224</DistanceMeters>
          </Trackpoint>
          <Trackpoint>
            <Time>2018-09-13T10:33:46.000Z</Time>
            <Position>
              <LatitudeDegrees>39.38881999813020229339599609375</LatitudeDegrees>
              <LongitudeDegrees>-8.1576632894575595855712890625</LongitudeDegrees>
            </Position>
            <AltitudeMeters>78</AltitudeMeters>
            <DistanceMeters>61794.466997211</DistanceMeters>
          </Trackpoint>
          <Trackpoint>
            <Time>2018-09-13T10:33:55.000Z</Time>
            <Position>
              <LatitudeDegrees>39.38833619467914104461669921875</LatitudeDegrees>
              <LongitudeDegrees>-8.1571865268051624298095703125</LongitudeDegrees>
            </Position>
            <AltitudeMeters>78.40000152587890625</AltitudeMeters>
            <DistanceMeters>61862.154439808</DistanceMeters>
          </Trackpoint>
          <Trackpoint>
            <Time>2018-09-13T10:34:02.000Z</Time>
            <Position>
              <LatitudeDegrees>39.38795037567615509033203125</LatitudeDegrees>
              <LongitudeDegrees>-8.15677740611135959625244140625</LongitudeDegrees>
            </Position>
            <AltitudeMeters>79.59999847412109375</AltitudeMeters>
            <DistanceMeters>61917.675744331</DistanceMeters>
          </Trackpoint>
          <Trackpoint>
            <Time>2018-09-13T10:34:03.000Z</Time>
            <Position>
              <LatitudeDegrees>39.38790653832256793975830078125</LatitudeDegrees>
              <LongitudeDegrees>-8.15670490264892578125</LongitudeDegrees>
            </Position>
            <AltitudeMeters>79.8000030517578125</AltitudeMeters>
            <DistanceMeters>61925.594383786</DistanceMeters>
          </Trackpoint>
          <Trackpoint>
            <Time>2018-09-13T10:34:09.000Z</Time>
            <Position>
              <LatitudeDegrees>39.38769414089620113372802734375</LatitudeDegrees>
              <LongitudeDegrees>-8.15622872672975063323974609375</LongitudeDegrees>
            </Position>
            <AltitudeMeters>80.1999969482421875</AltitudeMeters>
            <DistanceMeters>61972.888292642</DistanceMeters>
          </Trackpoint>
          <Trackpoint>
            <Time>2018-09-13T10:34:17.000Z</Time>
            <Position>
              <LatitudeDegrees>39.38740462996065616607666015625</LatitudeDegrees>
              <LongitudeDegrees>-8.15559245645999908447265625</LongitudeDegrees>
            </Position>
            <AltitudeMeters>78.40000152587890625</AltitudeMeters>
            <DistanceMeters>62036.402544825</DistanceMeters>
          </Trackpoint>
          <Trackpoint>
            <Time>2018-09-13T10:34:25.000Z</Time>
            <Position>
              <LatitudeDegrees>39.38712199218571186065673828125</LatitudeDegrees>
              <LongitudeDegrees>-8.15495182760059833526611328125</LongitudeDegrees>
            </Position>
            <AltitudeMeters>77.8000030517578125</AltitudeMeters>
            <DistanceMeters>62099.857696206</DistanceMeters>
          </Trackpoint>
          <Trackpoint>
            <Time>2018-09-13T10:34:28.000Z</Time>
            <Position>
              <LatitudeDegrees>39.387013278901576995849609375</LatitudeDegrees>
              <LongitudeDegrees>-8.15470841713249683380126953125</LongitudeDegrees>
            </Position>
            <AltitudeMeters>77.8000030517578125</AltitudeMeters>
            <DistanceMeters>62124.041201555</DistanceMeters>
          </Trackpoint>
          <Trackpoint>
            <Time>2018-09-13T10:34:34.000Z</Time>
            <Position>
              <LatitudeDegrees>39.3867891468107700347900390625</LatitudeDegrees>
              <LongitudeDegrees>-8.154204078018665313720703125</LongitudeDegrees>
            </Position>
            <AltitudeMeters>77.40000152587890625</AltitudeMeters>
            <DistanceMeters>62174.086820168</DistanceMeters>
          </Trackpoint>
          <Trackpoint>
            <Time>2018-09-13T10:34:38.000Z</Time>
            <Position>
              <LatitudeDegrees>39.38662846572697162628173828125</LatitudeDegrees>
              <LongitudeDegrees>-8.15384709276258945465087890625</LongitudeDegrees>
            </Position>
            <AltitudeMeters>76.1999969482421875</AltitudeMeters>
            <DistanceMeters>62209.624016329</DistanceMeters>
          </Trackpoint>
          <Trackpoint>
            <Time>2018-09-13T10:34:39.000Z</Time>
            <Position>
              <LatitudeDegrees>39.38658923842012882232666015625</LatitudeDegrees>
              <LongitudeDegrees>-8.15375723876059055328369140625</LongitudeDegrees>
            </Position>
            <AltitudeMeters>75.59999847412109375</AltitudeMeters>
            <DistanceMeters>62218.501769829</DistanceMeters>
          </Trackpoint>
          <Trackpoint>
            <Time>2018-09-13T10:34:44.000Z</Time>
            <Position>
              <LatitudeDegrees>39.3863713927567005157470703125</LatitudeDegrees>
              <LongitudeDegrees>-8.15330478362739086151123046875</LongitudeDegrees>
            </Position>
            <AltitudeMeters>72.1999969482421875</AltitudeMeters>
            <DistanceMeters>62264.358141374</DistanceMeters>
          </Trackpoint>
          <Trackpoint>
            <Time>2018-09-13T10:34:48.000Z</Time>
            <Position>
              <LatitudeDegrees>39.386130832135677337646484375</LatitudeDegrees>
              <LongitudeDegrees>-8.15297788940370082855224609375</LongitudeDegrees>
            </Position>
            <AltitudeMeters>71.40000152587890625</AltitudeMeters>
            <DistanceMeters>62303.186875491</DistanceMeters>
          </Trackpoint>
          <Trackpoint>
            <Time>2018-09-13T10:34:50.000Z</Time>
            <Position>
              <LatitudeDegrees>39.385989010334014892578125</LatitudeDegrees>
              <LongitudeDegrees>-8.15283380448818206787109375</LongitudeDegrees>
            </Position>
            <AltitudeMeters>70.59999847412109375</AltitudeMeters>
            <DistanceMeters>62323.256643548</DistanceMeters>
          </Trackpoint>
          <Trackpoint>
            <Time>2018-09-13T10:34:52.000Z</Time>
            <Position>
              <LatitudeDegrees>39.3858429975807666778564453125</LatitudeDegrees>
              <LongitudeDegrees>-8.1527070701122283935546875</LongitudeDegrees>
            </Position>
            <AltitudeMeters>71</AltitudeMeters>
            <DistanceMeters>62342.826148958</DistanceMeters>
          </Trackpoint>
          <Trackpoint>
            <Time>2018-09-13T10:34:53.000Z</Time>
            <Position>
              <LatitudeDegrees>39.38576797954738140106201171875</LatitudeDegrees>
              <LongitudeDegrees>-8.15264479257166385650634765625</LongitudeDegrees>
            </Position>
            <AltitudeMeters>71.40000152587890625</AltitudeMeters>
            <DistanceMeters>62352.746774098</DistanceMeters>
          </Trackpoint>
          <Trackpoint>
            <Time>2018-09-13T10:34:59.000Z</Time>
            <Position>
              <LatitudeDegrees>39.38534821383655071258544921875</LatitudeDegrees>
              <LongitudeDegrees>-8.1522868014872074127197265625</LongitudeDegrees>
            </Position>
            <AltitudeMeters>72.1999969482421875</AltitudeMeters>
            <DistanceMeters>62408.704116398</DistanceMeters>
          </Trackpoint>
          <Trackpoint>
            <Time>2018-09-13T10:35:01.000Z</Time>
            <Position>
              <LatitudeDegrees>39.38521058298647403717041015625</LatitudeDegrees>
              <LongitudeDegrees>-8.15217339433729648590087890625</LongitudeDegrees>
            </Position>
            <AltitudeMeters>72.40000152587890625</AltitudeMeters>
            <DistanceMeters>62426.865409639</DistanceMeters>
          </Trackpoint>
          <Trackpoint>
            <Time>2018-09-13T10:35:04.000Z</Time>
            <Position>
              <LatitudeDegrees>39.3849974311888217926025390625</LatitudeDegrees>
              <LongitudeDegrees>-8.15201765857636928558349609375</LongitudeDegrees>
            </Position>
            <AltitudeMeters>73</AltitudeMeters>
            <DistanceMeters>62454.111078362</DistanceMeters>
          </Trackpoint>
          <Trackpoint>
            <Time>2018-09-13T10:35:11.000Z</Time>
            <Position>
              <LatitudeDegrees>39.38447423279285430908203125</LatitudeDegrees>
              <LongitudeDegrees>-8.151784054934978485107421875</LongitudeDegrees>
            </Position>
            <AltitudeMeters>73</AltitudeMeters>
            <DistanceMeters>62515.714047007</DistanceMeters>
          </Trackpoint>
          <Trackpoint>
            <Time>2018-09-13T10:35:16.000Z</Time>
            <Position>
              <LatitudeDegrees>39.38408187590539455413818359375</LatitudeDegrees>
              <LongitudeDegrees>-8.15170685760676860809326171875</LongitudeDegrees>
            </Position>
            <AltitudeMeters>74.40000152587890625</AltitudeMeters>
            <DistanceMeters>62559.886241856</DistanceMeters>
          </Trackpoint>
          <Trackpoint>
            <Time>2018-09-13T10:35:22.000Z</Time>
            <Position>
              <LatitudeDegrees>39.38367468304932117462158203125</LatitudeDegrees>
              <LongitudeDegrees>-8.151868879795074462890625</LongitudeDegrees>
            </Position>
            <AltitudeMeters>76.8000030517578125</AltitudeMeters>
            <DistanceMeters>62607.302572724</DistanceMeters>
          </Trackpoint>
          <Trackpoint>
            <Time>2018-09-13T10:35:28.000Z</Time>
            <Position>
              <LatitudeDegrees>39.38336153514683246612548828125</LatitudeDegrees>
              <LongitudeDegrees>-8.15209812484681606292724609375</LongitudeDegrees>
            </Position>
            <AltitudeMeters>77</AltitudeMeters>
            <DistanceMeters>62647.349315119</DistanceMeters>
          </Trackpoint>
          <Trackpoint>
            <Time>2018-09-13T10:35:29.000Z</Time>
            <Position>
              <LatitudeDegrees>39.3833123333752155303955078125</LatitudeDegrees>
              <LongitudeDegrees>-8.15213165245950222015380859375</LongitudeDegrees>
            </Position>
            <AltitudeMeters>77</AltitudeMeters>
            <DistanceMeters>62653.538465649</DistanceMeters>
          </Trackpoint>
          <Trackpoint>
            <Time>2018-09-13T10:35:32.000Z</Time>
            <Position>
              <LatitudeDegrees>39.38316958956420421600341796875</LatitudeDegrees>
              <LongitudeDegrees>-8.1522271223366260528564453125</LongitudeDegrees>
            </Position>
            <AltitudeMeters>77.1999969482421875</AltitudeMeters>
            <DistanceMeters>62671.423694972</DistanceMeters>
          </Trackpoint>
          <Trackpoint>
            <Time>2018-09-13T10:35:35.000Z</Time>
            <Position>
              <LatitudeDegrees>39.38302625901997089385986328125</LatitudeDegrees>
              <LongitudeDegrees>-8.1522975303232669830322265625</LongitudeDegrees>
            </Position>
            <AltitudeMeters>77.40000152587890625</AltitudeMeters>
            <DistanceMeters>62688.487804823</DistanceMeters>
          </Trackpoint>
          <Trackpoint>
            <Time>2018-09-13T10:35:39.000Z</Time>
            <Position>
              <LatitudeDegrees>39.38283045776188373565673828125</LatitudeDegrees>
              <LongitudeDegrees>-8.152356706559658050537109375</LongitudeDegrees>
            </Position>
            <AltitudeMeters>78.1999969482421875</AltitudeMeters>
            <DistanceMeters>62710.867554374</DistanceMeters>
          </Trackpoint>
          <Trackpoint>
            <Time>2018-09-13T10:35:43.000Z</Time>
            <Position>
              <LatitudeDegrees>39.3826327286660671234130859375</LatitudeDegrees>
              <LongitudeDegrees>-8.1523759849369525909423828125</LongitudeDegrees>
            </Position>
            <AltitudeMeters>79</AltitudeMeters>
            <DistanceMeters>62732.937700578</DistanceMeters>
          </Trackpoint>
          <Trackpoint>
            <Time>2018-09-13T10:35:45.000Z</Time>
            <Position>
              <LatitudeDegrees>39.38253675587475299835205078125</LatitudeDegrees>
              <LongitudeDegrees>-8.152366764843463897705078125</LongitudeDegrees>
            </Position>
            <AltitudeMeters>79.40000152587890625</AltitudeMeters>
            <DistanceMeters>62743.649196799</DistanceMeters>
          </Trackpoint>
          <Trackpoint>
            <Time>2018-09-13T10:35:48.000Z</Time>
            <Position>
              <LatitudeDegrees>39.38239862211048603057861328125</LatitudeDegrees>
              <LongitudeDegrees>-8.152314461767673492431640625</LongitudeDegrees>
            </Position>
            <AltitudeMeters>80.40000152587890625</AltitudeMeters>
            <DistanceMeters>62759.668457468</DistanceMeters>
          </Trackpoint>
          <Trackpoint>
            <Time>2018-09-13T10:35:53.000Z</Time>
            <Position>
              <LatitudeDegrees>39.38218018971383571624755859375</LatitudeDegrees>
              <LongitudeDegrees>-8.1521778367459774017333984375</LongitudeDegrees>
            </Position>
            <AltitudeMeters>81.8000030517578125</AltitudeMeters>
            <DistanceMeters>62786.672769222</DistanceMeters>
          </Trackpoint>
          <Trackpoint>
            <Time>2018-09-13T10:35:54.000Z</Time>
            <Position>
              <LatitudeDegrees>39.38213777728378772735595703125</LatitudeDegrees>
              <LongitudeDegrees>-8.15214623697102069854736328125</LongitudeDegrees>
            </Position>
            <AltitudeMeters>82</AltitudeMeters>
            <DistanceMeters>62792.120046634</DistanceMeters>
          </Trackpoint>
          <Trackpoint>
            <Time>2018-09-13T10:36:00.000Z</Time>
            <Position>
              <LatitudeDegrees>39.38188715837895870208740234375</LatitudeDegrees>
              <LongitudeDegrees>-8.151941634714603424072265625</LongitudeDegrees>
            </Position>
            <AltitudeMeters>84</AltitudeMeters>
            <DistanceMeters>62825.103763068</DistanceMeters>
          </Trackpoint>
          <Trackpoint>
            <Time>2018-09-13T10:36:06.000Z</Time>
            <Position>
              <LatitudeDegrees>39.38161843456327915191650390625</LatitudeDegrees>
              <LongitudeDegrees>-8.1517278961837291717529296875</LongitudeDegrees>
            </Position>
            <AltitudeMeters>85.59999847412109375</AltitudeMeters>
            <DistanceMeters>62860.213401421</DistanceMeters>
          </Trackpoint>
          <Trackpoint>
            <Time>2018-09-13T10:36:16.000Z</Time>
            <Position>
              <LatitudeDegrees>39.3811109103262424468994140625</LatitudeDegrees>
              <LongitudeDegrees>-8.15133218653500080108642578125</LongitudeDegrees>
            </Position>
            <AltitudeMeters>86.59999847412109375</AltitudeMeters>
            <DistanceMeters>62926.166801892</DistanceMeters>
          </Trackpoint>
          <Trackpoint>
            <Time>2018-09-13T10:36:25.000Z</Time>
            <Position>
              <LatitudeDegrees>39.380618892610073089599609375</LatitudeDegrees>
              <LongitudeDegrees>-8.15095097757875919342041015625</LongitudeDegrees>
            </Position>
            <AltitudeMeters>87</AltitudeMeters>
            <DistanceMeters>62989.998446493</DistanceMeters>
          </Trackpoint>
          <Trackpoint>
            <Time>2018-09-13T10:36:33.000Z</Time>
            <Position>
              <LatitudeDegrees>39.38017372973263263702392578125</LatitudeDegrees>
              <LongitudeDegrees>-8.150609917938709259033203125</LongitudeDegrees>
            </Position>
            <AltitudeMeters>86.59999847412109375</AltitudeMeters>
            <DistanceMeters>63047.582204798</DistanceMeters>
          </Trackpoint>
          <Trackpoint>
            <Time>2018-09-13T10:36:38.000Z</Time>
            <Position>
              <LatitudeDegrees>39.37987290322780609130859375</LatitudeDegrees>
              <LongitudeDegrees>-8.15038134343922138214111328125</LongitudeDegrees>
            </Position>
            <AltitudeMeters>86.59999847412109375</AltitudeMeters>
            <DistanceMeters>63086.412450537</DistanceMeters>
          </Trackpoint>
          <Trackpoint>
            <Time>2018-09-13T10:36:44.000Z</Time>
            <Position>
              <LatitudeDegrees>39.37951239757239818572998046875</LatitudeDegrees>
              <LongitudeDegrees>-8.15010507591068744659423828125</LongitudeDegrees>
            </Position>
            <AltitudeMeters>85.8000030517578125</AltitudeMeters>
            <DistanceMeters>63133.048595659</DistanceMeters>
          </Trackpoint>
          <Trackpoint>
            <Time>2018-09-13T10:36:52.000Z</Time>
            <Position>
              <LatitudeDegrees>39.37902105040848255157470703125</LatitudeDegrees>
              <LongitudeDegrees>-8.1497541256248950958251953125</LongitudeDegrees>
            </Position>
            <AltitudeMeters>86.1999969482421875</AltitudeMeters>
            <DistanceMeters>63195.517729523</DistanceMeters>
          </Trackpoint>
          <Trackpoint>
            <Time>2018-09-13T10:36:58.000Z</Time>
            <Position>
              <LatitudeDegrees>39.3786476366221904754638671875</LatitudeDegrees>
              <LongitudeDegrees>-8.14950962550938129425048828125</LongitudeDegrees>
            </Position>
            <AltitudeMeters>84.40000152587890625</AltitudeMeters>
            <DistanceMeters>63242.099433323</DistanceMeters>
          </Trackpoint>
          <Trackpoint>
            <Time>2018-09-13T10:37:06.000Z</Time>
            <Position>
              <LatitudeDegrees>39.37814229167997837066650390625</LatitudeDegrees>
              <LongitudeDegrees>-8.1491854973137378692626953125</LongitudeDegrees>
            </Position>
            <AltitudeMeters>85</AltitudeMeters>
            <DistanceMeters>63304.878657947</DistanceMeters>
          </Trackpoint>
          <Trackpoint>
            <Time>2018-09-13T10:37:14.000Z</Time>
            <Position>
              <LatitudeDegrees>39.37763049267232418060302734375</LatitudeDegrees>
              <LongitudeDegrees>-8.14885340631008148193359375</LongitudeDegrees>
            </Position>
            <AltitudeMeters>85.8000030517578125</AltitudeMeters>
            <DistanceMeters>63368.606451965</DistanceMeters>
          </Trackpoint>
          <Trackpoint>
            <Time>2018-09-13T10:37:22.000Z</Time>
            <Position>
              <LatitudeDegrees>39.3771127425134181976318359375</LatitudeDegrees>
              <LongitudeDegrees>-8.14852408133447170257568359375</LongitudeDegrees>
            </Position>
            <AltitudeMeters>85.40000152587890625</AltitudeMeters>
            <DistanceMeters>63432.821734167</DistanceMeters>
          </Trackpoint>
          <Trackpoint>
            <Time>2018-09-13T10:37:30.000Z</Time>
            <Position>
              <LatitudeDegrees>39.3765990994870662689208984375</LatitudeDegrees>
              <LongitudeDegrees>-8.14818863756954669952392578125</LongitudeDegrees>
            </Position>
            <AltitudeMeters>86.59999847412109375</AltitudeMeters>
            <DistanceMeters>63496.862760307</DistanceMeters>
          </Trackpoint>
          <Trackpoint>
            <Time>2018-09-13T10:37:36.000Z</Time>
            <Position>
              <LatitudeDegrees>39.37621512450277805328369140625</LatitudeDegrees>
              <LongitudeDegrees>-8.1479461491107940673828125</LongitudeDegrees>
            </Position>
            <AltitudeMeters>87</AltitudeMeters>
            <DistanceMeters>63544.420379325</DistanceMeters>
          </Trackpoint>
          <Trackpoint>
            <Time>2018-09-13T10:37:39.000Z</Time>
            <Position>
              <LatitudeDegrees>39.3760173954069614410400390625</LatitudeDegrees>
              <LongitudeDegrees>-8.1478413753211498260498046875</LongitudeDegrees>
            </Position>
            <AltitudeMeters>87.40000152587890625</AltitudeMeters>
            <DistanceMeters>63568.20270129</DistanceMeters>
          </Trackpoint>
          <Trackpoint>
            <Time>2018-09-13T10:37:47.000Z</Time>
            <Position>
              <LatitudeDegrees>39.375464357435703277587890625</LatitudeDegrees>
              <LongitudeDegrees>-8.14760508947074413299560546875</LongitudeDegrees>
            </Position>
            <AltitudeMeters>87.59999847412109375</AltitudeMeters>
            <DistanceMeters>63633.027081378</DistanceMeters>
          </Trackpoint>
          <Trackpoint>
            <Time>2018-09-13T10:37:49.000Z</Time>
            <Position>
              <LatitudeDegrees>39.37532597221434116363525390625</LatitudeDegrees>
              <LongitudeDegrees>-8.1475480087101459503173828125</LongitudeDegrees>
            </Position>
            <AltitudeMeters>87.8000030517578125</AltitudeMeters>
            <DistanceMeters>63649.193357153</DistanceMeters>
          </Trackpoint>
          <Trackpoint>
            <Time>2018-09-13T10:37:57.000Z</Time>
            <Position>
              <LatitudeDegrees>39.3747674860060214996337890625</LatitudeDegrees>
              <LongitudeDegrees>-8.14731515944004058837890625</LongitudeDegrees>
            </Position>
            <AltitudeMeters>88.59999847412109375</AltitudeMeters>
            <DistanceMeters>63714.502640014</DistanceMeters>
          </Trackpoint>
          <Trackpoint>
            <Time>2018-09-13T10:38:05.000Z</Time>
            <Position>
              <LatitudeDegrees>39.3742261826992034912109375</LatitudeDegrees>
              <LongitudeDegrees>-8.14709496684372425079345703125</LongitudeDegrees>
            </Position>
            <AltitudeMeters>88.40000152587890625</AltitudeMeters>
            <DistanceMeters>63777.659170213</DistanceMeters>
          </Trackpoint>
          <Trackpoint>
            <Time>2018-09-13T10:38:14.000Z</Time>
            <Position>
              <LatitudeDegrees>39.37366358935832977294921875</LatitudeDegrees>
              <LongitudeDegrees>-8.1468786299228668212890625</LongitudeDegrees>
            </Position>
            <AltitudeMeters>88.40000152587890625</AltitudeMeters>
            <DistanceMeters>63842.984835582</DistanceMeters>
          </Trackpoint>
          <Trackpoint>
            <Time>2018-09-13T10:38:16.000Z</Time>
            <Position>
              <LatitudeDegrees>39.3735368549823760986328125</LatitudeDegrees>
              <LongitudeDegrees>-8.1468358822166919708251953125</LongitudeDegrees>
            </Position>
            <AltitudeMeters>88.40000152587890625</AltitudeMeters>
            <DistanceMeters>63857.562689301</DistanceMeters>
          </Trackpoint>
          <Trackpoint>
            <Time>2018-09-13T10:38:21.000Z</Time>
            <Position>
              <LatitudeDegrees>39.3732091225683689117431640625</LatitudeDegrees>
              <LongitudeDegrees>-8.1467255763709545135498046875</LongitudeDegrees>
            </Position>
            <AltitudeMeters>89</AltitudeMeters>
            <DistanceMeters>63895.254409965</DistanceMeters>
          </Trackpoint>
          <Trackpoint>
            <Time>2018-09-13T10:38:29.000Z</Time>
            <Position>
              <LatitudeDegrees>39.37265776097774505615234375</LatitudeDegrees>
              <LongitudeDegrees>-8.1465498916804790496826171875</LongitudeDegrees>
            </Position>
            <AltitudeMeters>89.59999847412109375</AltitudeMeters>
            <DistanceMeters>63958.456248349</DistanceMeters>
          </Trackpoint>
          <Trackpoint>
            <Time>2018-09-13T10:38:37.000Z</Time>
            <Position>
              <LatitudeDegrees>39.3721412681043148040771484375</LatitudeDegrees>
              <LongitudeDegrees>-8.146378062665462493896484375</LongitudeDegrees>
            </Position>
            <AltitudeMeters>89.8000030517578125</AltitudeMeters>
            <DistanceMeters>64017.81364929</DistanceMeters>
          </Trackpoint>
          <Trackpoint>
            <Time>2018-09-13T10:38:45.000Z</Time>
            <Position>
              <LatitudeDegrees>39.37163718044757843017578125</LatitudeDegrees>
              <LongitudeDegrees>-8.146222494542598724365234375</LongitudeDegrees>
            </Position>
            <AltitudeMeters>90.40000152587890625</AltitudeMeters>
            <DistanceMeters>64075.494160427</DistanceMeters>
          </Trackpoint>
          <Trackpoint>
            <Time>2018-09-13T10:38:53.000Z</Time>
            <Position>
              <LatitudeDegrees>39.37105757184326648712158203125</LatitudeDegrees>
              <LongitudeDegrees>-8.14605527557432651519775390625</LongitudeDegrees>
            </Position>
            <AltitudeMeters>91.59999847412109375</AltitudeMeters>
            <DistanceMeters>64141.5906882</DistanceMeters>
          </Trackpoint>
          <Trackpoint>
            <Time>2018-09-13T10:39:01.000Z</Time>
            <Position>
              <LatitudeDegrees>39.37052364461123943328857421875</LatitudeDegrees>
              <LongitudeDegrees>-8.14589417539536952972412109375</LongitudeDegrees>
            </Position>
            <AltitudeMeters>90.8000030517578125</AltitudeMeters>
            <DistanceMeters>64202.61308264</DistanceMeters>
          </Trackpoint>
          <Trackpoint>
            <Time>2018-09-13T10:39:05.000Z</Time>
            <Position>
              <LatitudeDegrees>39.370255507528781890869140625</LatitudeDegrees>
              <LongitudeDegrees>-8.1458116136491298675537109375</LongitudeDegrees>
            </Position>
            <AltitudeMeters>91.1999969482421875</AltitudeMeters>
            <DistanceMeters>64233.290967625</DistanceMeters>
          </Trackpoint>
          <Trackpoint>
            <Time>2018-09-13T10:39:13.000Z</Time>
            <Position>
              <LatitudeDegrees>39.36971294693648815155029296875</LatitudeDegrees>
              <LongitudeDegrees>-8.1456590630114078521728515625</LongitudeDegrees>
            </Position>
            <AltitudeMeters>93.59999847412109375</AltitudeMeters>
            <DistanceMeters>64295.089171401</DistanceMeters>
          </Trackpoint>
          <Trackpoint>
            <Time>2018-09-13T10:39:21.000Z</Time>
            <Position>
              <LatitudeDegrees>39.36916963197290897369384765625</LatitudeDegrees>
              <LongitudeDegrees>-8.1455316580832004547119140625</LongitudeDegrees>
            </Position>
            <AltitudeMeters>93.8000030517578125</AltitudeMeters>
            <DistanceMeters>64356.546776011</DistanceMeters>
          </Trackpoint>
          <Trackpoint>
            <Time>2018-09-13T10:39:29.000Z</Time>
            <Position>
              <LatitudeDegrees>39.36863243579864501953125</LatitudeDegrees>
              <LongitudeDegrees>-8.14544423483312129974365234375</LongitudeDegrees>
            </Position>
            <AltitudeMeters>94</AltitudeMeters>
            <DistanceMeters>64416.809074115</DistanceMeters>
          </Trackpoint>
          <Trackpoint>
            <Time>2018-09-13T10:39:38.000Z</Time>
            <Position>
              <LatitudeDegrees>39.3680364824831485748291015625</LatitudeDegrees>
              <LongitudeDegrees>-8.14535572193562984466552734375</LongitudeDegrees>
            </Position>
            <AltitudeMeters>94.59999847412109375</AltitudeMeters>
            <DistanceMeters>64483.575738982</DistanceMeters>
          </Trackpoint>
          <Trackpoint>
            <Time>2018-09-13T10:39:40.000Z</Time>
            <Position>
              <LatitudeDegrees>39.36790765263140201568603515625</LatitudeDegrees>
              <LongitudeDegrees>-8.145335018634796142578125</LongitudeDegrees>
            </Position>
            <AltitudeMeters>94.8000030517578125</AltitudeMeters>
            <DistanceMeters>64498.025112583</DistanceMeters>
          </Trackpoint>
          <Trackpoint>
            <Time>2018-09-13T10:39:49.000Z</Time>
            <Position>
              <LatitudeDegrees>39.367313124239444732666015625</LatitudeDegrees>
              <LongitudeDegrees>-8.14523485489189624786376953125</LongitudeDegrees>
            </Position>
            <AltitudeMeters>94.40000152587890625</AltitudeMeters>
            <DistanceMeters>64564.756197672</DistanceMeters>
          </Trackpoint>
          <Trackpoint>
            <Time>2018-09-13T10:39:53.000Z</Time>
            <Position>
              <LatitudeDegrees>39.36703694052994251251220703125</LatitudeDegrees>
              <LongitudeDegrees>-8.145170398056507110595703125</LongitudeDegrees>
            </Position>
            <AltitudeMeters>94.1999969482421875</AltitudeMeters>
            <DistanceMeters>64595.992390778</DistanceMeters>
          </Trackpoint>
          <Trackpoint>
            <Time>2018-09-13T10:40:01.000Z</Time>
            <Position>
              <LatitudeDegrees>39.366452805697917938232421875</LatitudeDegrees>
              <LongitudeDegrees>-8.14502849243581295013427734375</LongitudeDegrees>
            </Position>
            <AltitudeMeters>94.59999847412109375</AltitudeMeters>
            <DistanceMeters>64662.14449933</DistanceMeters>
          </Trackpoint>
          <Trackpoint>
            <Time>2018-09-13T10:40:08.000Z</Time>
            <Position>
              <LatitudeDegrees>39.36592080630362033843994140625</LatitudeDegrees>
              <LongitudeDegrees>-8.144900500774383544921875</LongitudeDegrees>
            </Position>
            <AltitudeMeters>94.59999847412109375</AltitudeMeters>
            <DistanceMeters>64722.372697775</DistanceMeters>
          </Trackpoint>
          <Trackpoint>
            <Time>2018-09-13T10:40:13.000Z</Time>
            <Position>
              <LatitudeDegrees>39.36555904336273670196533203125</LatitudeDegrees>
              <LongitudeDegrees>-8.144816346466541290283203125</LongitudeDegrees>
            </Position>
            <AltitudeMeters>95</AltitudeMeters>
            <DistanceMeters>64763.283657294</DistanceMeters>
          </Trackpoint>
          <Trackpoint>
            <Time>2018-09-13T10:40:21.000Z</Time>
            <Position>
              <LatitudeDegrees>39.36501078307628631591796875</LatitudeDegrees>
              <LongitudeDegrees>-8.1446847505867481231689453125</LongitudeDegrees>
            </Position>
            <AltitudeMeters>96.59999847412109375</AltitudeMeters>
            <DistanceMeters>64825.347960794</DistanceMeters>
          </Trackpoint>
          <Trackpoint>
            <Time>2018-09-13T10:40:30.000Z</Time>
            <Position>
              <LatitudeDegrees>39.364454559981822967529296875</LatitudeDegrees>
              <LongitudeDegrees>-8.144550137221813201904296875</LongitudeDegrees>
            </Position>
            <AltitudeMeters>96.59999847412109375</AltitudeMeters>
            <DistanceMeters>64888.331033373</DistanceMeters>
          </Trackpoint>
          <Trackpoint>
            <Time>2018-09-13T10:40:39.000Z</Time>
            <Position>
              <LatitudeDegrees>39.36385097913444042205810546875</LatitudeDegrees>
              <LongitudeDegrees>-8.1443881988525390625</LongitudeDegrees>
            </Position>
            <AltitudeMeters>96.40000152587890625</AltitudeMeters>
            <DistanceMeters>64956.94084761</DistanceMeters>
          </Trackpoint>
          <Trackpoint>
            <Time>2018-09-13T10:40:46.000Z</Time>
            <Position>
              <LatitudeDegrees>39.36332073993980884552001953125</LatitudeDegrees>
              <LongitudeDegrees>-8.14423874951899051666259765625</LongitudeDegrees>
            </Position>
            <AltitudeMeters>96.1999969482421875</AltitudeMeters>
            <DistanceMeters>65017.342416671</DistanceMeters>
          </Trackpoint>
          <Trackpoint>
            <Time>2018-09-13T10:40:54.000Z</Time>
            <Position>
              <LatitudeDegrees>39.3627431429922580718994140625</LatitudeDegrees>
              <LongitudeDegrees>-8.14407865516841411590576171875</LongitudeDegrees>
            </Position>
            <AltitudeMeters>96.40000152587890625</AltitudeMeters>
            <DistanceMeters>65083.08964166</DistanceMeters>
          </Trackpoint>
          <Trackpoint>
            <Time>2018-09-13T10:41:01.000Z</Time>
            <Position>
              <LatitudeDegrees>39.36226478777825832366943359375</LatitudeDegrees>
              <LongitudeDegrees>-8.14395292662084102630615234375</LongitudeDegrees>
            </Position>
            <AltitudeMeters>96.59999847412109375</AltitudeMeters>
            <DistanceMeters>65137.419664557</DistanceMeters>
          </Trackpoint>
          <Trackpoint>
            <Time>2018-09-13T10:41:09.000Z</Time>
            <Position>
              <LatitudeDegrees>39.36166481114923954010009765625</LatitudeDegrees>
              <LongitudeDegrees>-8.14381211064755916595458984375</LongitudeDegrees>
            </Position>
            <AltitudeMeters>96</AltitudeMeters>
            <DistanceMeters>65205.288832329</DistanceMeters>
          </Trackpoint>
          <Trackpoint>
            <Time>2018-09-13T10:41:16.000Z</Time>
            <Position>
              <LatitudeDegrees>39.361107163131237030029296875</LatitudeDegrees>
              <LongitudeDegrees>-8.14371697604656219482421875</LongitudeDegrees>
            </Position>
            <AltitudeMeters>95.8000030517578125</AltitudeMeters>
            <DistanceMeters>65267.893770308</DistanceMeters>
          </Trackpoint>
          <Trackpoint>
            <Time>2018-09-13T10:41:23.000Z</Time>
            <Position>
              <LatitudeDegrees>39.36056259088218212127685546875</LatitudeDegrees>
              <LongitudeDegrees>-8.14362670294940471649169921875</LongitudeDegrees>
            </Position>
            <AltitudeMeters>96.1999969482421875</AltitudeMeters>
            <DistanceMeters>65329.001489391</DistanceMeters>
          </Trackpoint>
          <Trackpoint>
            <Time>2018-09-13T10:41:30.000Z</Time>
            <Position>
              <LatitudeDegrees>39.36001676134765148162841796875</LatitudeDegrees>
              <LongitudeDegrees>-8.143532574176788330078125</LongitudeDegrees>
            </Position>
            <AltitudeMeters>96.40000152587890625</AltitudeMeters>
            <DistanceMeters>65390.290994527</DistanceMeters>
          </Trackpoint>
          <Trackpoint>
            <Time>2018-09-13T10:41:37.000Z</Time>
            <Position>
              <LatitudeDegrees>39.3594767153263092041015625</LatitudeDegrees>
              <LongitudeDegrees>-8.14344607293605804443359375</LongitudeDegrees>
            </Position>
            <AltitudeMeters>96</AltitudeMeters>
            <DistanceMeters>65450.858282024</DistanceMeters>
          </Trackpoint>
          <Trackpoint>
            <Time>2018-09-13T10:41:45.000Z</Time>
            <Position>
              <LatitudeDegrees>39.3588764034211635589599609375</LatitudeDegrees>
              <LongitudeDegrees>-8.14335487782955169677734375</LongitudeDegrees>
            </Position>
            <AltitudeMeters>99</AltitudeMeters>
            <DistanceMeters>65518.133437574</DistanceMeters>
          </Trackpoint>
          <Trackpoint>
            <Time>2018-09-13T10:41:54.000Z</Time>
            <Position>
              <LatitudeDegrees>39.35828304849565029144287109375</LatitudeDegrees>
              <LongitudeDegrees>-8.143253624439239501953125</LongitudeDegrees>
            </Position>
            <AltitudeMeters>99.1999969482421875</AltitudeMeters>
            <DistanceMeters>65584.747367686</DistanceMeters>
          </Trackpoint>
          <Trackpoint>
            <Time>2018-09-13T10:41:58.000Z</Time>
            <Position>
              <LatitudeDegrees>39.35802270658314228057861328125</LatitudeDegrees>
              <LongitudeDegrees>-8.14319587312638759613037109375</LongitudeDegrees>
            </Position>
            <AltitudeMeters>98.40000152587890625</AltitudeMeters>
            <DistanceMeters>65614.147042124</DistanceMeters>
          </Trackpoint>
          <Trackpoint>
            <Time>2018-09-13T10:42:05.000Z</Time>
            <Position>
              <LatitudeDegrees>39.357519708573818206787109375</LatitudeDegrees>
              <LongitudeDegrees>-8.14307969994843006134033203125</LongitudeDegrees>
            </Position>
            <AltitudeMeters>97.1999969482421875</AltitudeMeters>
            <DistanceMeters>65671.017335242</DistanceMeters>
          </Trackpoint>
          <Trackpoint>
            <Time>2018-09-13T10:42:11.000Z</Time>
            <Position>
              <LatitudeDegrees>39.3570659123361110687255859375</LatitudeDegrees>
              <LongitudeDegrees>-8.14298280514776706695556640625</LongitudeDegrees>
            </Position>
            <AltitudeMeters>96.1999969482421875</AltitudeMeters>
            <DistanceMeters>65722.209400202</DistanceMeters>
          </Trackpoint>
          <Trackpoint>
            <Time>2018-09-13T10:42:13.000Z</Time>
            <Position>
              <LatitudeDegrees>39.35691654682159423828125</LatitudeDegrees>
              <LongitudeDegrees>-8.14294693060219287872314453125</LongitudeDegrees>
            </Position>
            <AltitudeMeters>95.8000030517578125</AltitudeMeters>
            <DistanceMeters>65739.118548923</DistanceMeters>
          </Trackpoint>
          <Trackpoint>
            <Time>2018-09-13T10:42:20.000Z</Time>
            <Position>
              <LatitudeDegrees>39.35637247748672962188720703125</LatitudeDegrees>
              <LongitudeDegrees>-8.14283126033842563629150390625</LongitudeDegrees>
            </Position>
            <AltitudeMeters>96</AltitudeMeters>
            <DistanceMeters>65800.487268985</DistanceMeters>
          </Trackpoint>
          <Trackpoint>
            <Time>2018-09-13T10:42:27.000Z</Time>
            <Position>
              <LatitudeDegrees>39.35582178644835948944091796875</LatitudeDegrees>
              <LongitudeDegrees>-8.1426995806396007537841796875</LongitudeDegrees>
            </Position>
            <AltitudeMeters>94.8000030517578125</AltitudeMeters>
            <DistanceMeters>65862.819143902</DistanceMeters>
          </Trackpoint>
          <Trackpoint>
            <Time>2018-09-13T10:42:33.000Z</Time>
            <Position>
              <LatitudeDegrees>39.35535675846040248870849609375</LatitudeDegrees>
              <LongitudeDegrees>-8.14247134141623973846435546875</LongitudeDegrees>
            </Position>
            <AltitudeMeters>92</AltitudeMeters>
            <DistanceMeters>65918.17968838</DistanceMeters>
          </Trackpoint>
          <Trackpoint>
            <Time>2018-09-13T10:42:37.000Z</Time>
            <Position>
              <LatitudeDegrees>39.35502382926642894744873046875</LatitudeDegrees>
              <LongitudeDegrees>-8.142250142991542816162109375</LongitudeDegrees>
            </Position>
            <AltitudeMeters>90.8000030517578125</AltitudeMeters>
            <DistanceMeters>65959.839230888</DistanceMeters>
          </Trackpoint>
          <Trackpoint>
            <Time>2018-09-13T10:42:41.000Z</Time>
            <Position>
              <LatitudeDegrees>39.35476206243038177490234375</LatitudeDegrees>
              <LongitudeDegrees>-8.14185963012278079986572265625</LongitudeDegrees>
            </Position>
            <AltitudeMeters>89.8000030517578125</AltitudeMeters>
            <DistanceMeters>66004.318230292</DistanceMeters>
          </Trackpoint>
          <Trackpoint>
            <Time>2018-09-13T10:42:42.000Z</Time>
            <Position>
              <LatitudeDegrees>39.3547109328210353851318359375</LatitudeDegrees>
              <LongitudeDegrees>-8.1417484022676944732666015625</LongitudeDegrees>
            </Position>
            <AltitudeMeters>89.59999847412109375</AltitudeMeters>
            <DistanceMeters>66015.454615248</DistanceMeters>
          </Trackpoint>
          <Trackpoint>
            <Time>2018-09-13T10:42:44.000Z</Time>
            <Position>
              <LatitudeDegrees>39.35461278073489665985107421875</LatitudeDegrees>
              <LongitudeDegrees>-8.14152452163398265838623046875</LongitudeDegrees>
            </Position>
            <AltitudeMeters>88.8000030517578125</AltitudeMeters>
            <DistanceMeters>66037.603994994</DistanceMeters>
          </Trackpoint>
          <Trackpoint>
            <Time>2018-09-13T10:42:46.000Z</Time>
            <Position>
              <LatitudeDegrees>39.35452292673289775848388671875</LatitudeDegrees>
              <LongitudeDegrees>-8.14129670150578022003173828125</LongitudeDegrees>
            </Position>
            <AltitudeMeters>88</AltitudeMeters>
            <DistanceMeters>66059.614118598</DistanceMeters>
          </Trackpoint>
          <Trackpoint>
            <Time>2018-09-13T10:42:47.000Z</Time>
            <Position>
              <LatitudeDegrees>39.35447900556027889251708984375</LatitudeDegrees>
              <LongitudeDegrees>-8.1411834619939327239990234375</LongitudeDegrees>
            </Position>
            <AltitudeMeters>87.59999847412109375</AltitudeMeters>
            <DistanceMeters>66070.517372992</DistanceMeters>
          </Trackpoint>
          <Trackpoint>
            <Time>2018-09-13T10:42:48.000Z</Time>
            <Position>
              <LatitudeDegrees>39.3544350005686283111572265625</LatitudeDegrees>
              <LongitudeDegrees>-8.14107089303433895111083984375</LongitudeDegrees>
            </Position>
            <AltitudeMeters>87.1999969482421875</AltitudeMeters>
            <DistanceMeters>66081.373317339</DistanceMeters>
          </Trackpoint>
          <Trackpoint>
            <Time>2018-09-13T10:42:50.000Z</Time>
            <Position>
              <LatitudeDegrees>39.354346655309200286865234375</LatitudeDegrees>
              <LongitudeDegrees>-8.14084676094353199005126953125</LongitudeDegrees>
            </Position>
            <AltitudeMeters>87.40000152587890625</AltitudeMeters>
            <DistanceMeters>66103.024398798</DistanceMeters>
          </Trackpoint>
          <Trackpoint>
            <Time>2018-09-13T10:42:56.000Z</Time>
            <Position>
              <LatitudeDegrees>39.35408673249185085296630859375</LatitudeDegrees>
              <LongitudeDegrees>-8.14020940102636814117431640625</LongitudeDegrees>
            </Position>
            <AltitudeMeters>88.8000030517578125</AltitudeMeters>
            <DistanceMeters>66165.038922876</DistanceMeters>
          </Trackpoint>
          <Trackpoint>
            <Time>2018-09-13T10:43:01.000Z</Time>
            <Position>
              <LatitudeDegrees>39.35389394871890544891357421875</LatitudeDegrees>
              <LongitudeDegrees>-8.13975401222705841064453125</LongitudeDegrees>
            </Position>
            <AltitudeMeters>89.40000152587890625</AltitudeMeters>
            <DistanceMeters>66209.72058098</DistanceMeters>
          </Trackpoint>
          <Trackpoint>
            <Time>2018-09-13T10:43:08.000Z</Time>
            <Position>
              <LatitudeDegrees>39.35341550968587398529052734375</LatitudeDegrees>
              <LongitudeDegrees>-8.13940725289285182952880859375</LongitudeDegrees>
            </Position>
            <AltitudeMeters>90.1999969482421875</AltitudeMeters>
            <DistanceMeters>66270.764132852</DistanceMeters>
          </Trackpoint>
          <Trackpoint>
            <Time>2018-09-13T10:43:10.000Z</Time>
            <Position>
              <LatitudeDegrees>39.3532581813633441925048828125</LatitudeDegrees>
              <LongitudeDegrees>-8.139396607875823974609375</LongitudeDegrees>
            </Position>
            <AltitudeMeters>90.40000152587890625</AltitudeMeters>
            <DistanceMeters>66288.299072342</DistanceMeters>
          </Trackpoint>
          <Trackpoint>
            <Time>2018-09-13T10:43:16.000Z</Time>
            <Position>
              <LatitudeDegrees>39.35280807316303253173828125</LatitudeDegrees>
              <LongitudeDegrees>-8.13939451240003108978271484375</LongitudeDegrees>
            </Position>
            <AltitudeMeters>90.8000030517578125</AltitudeMeters>
            <DistanceMeters>66338.397440949</DistanceMeters>
          </Trackpoint>
          <Trackpoint>
            <Time>2018-09-13T10:43:21.000Z</Time>
            <Position>
              <LatitudeDegrees>39.35245092026889324188232421875</LatitudeDegrees>
              <LongitudeDegrees>-8.13939149491488933563232421875</LongitudeDegrees>
            </Position>
            <AltitudeMeters>91</AltitudeMeters>
            <DistanceMeters>66378.150194788</DistanceMeters>
          </Trackpoint>
          <Trackpoint>
            <Time>2018-09-13T10:43:29.000Z</Time>
            <Position>
              <LatitudeDegrees>39.3518952839076519012451171875</LatitudeDegrees>
              <LongitudeDegrees>-8.13935847021639347076416015625</LongitudeDegrees>
            </Position>
            <AltitudeMeters>91</AltitudeMeters>
            <DistanceMeters>66440.05891409</DistanceMeters>
          </Trackpoint>
          <Trackpoint>
            <Time>2018-09-13T10:43:37.000Z</Time>
            <Position>
              <LatitudeDegrees>39.3513417430222034454345703125</LatitudeDegrees>
              <LongitudeDegrees>-8.13925989903509616851806640625</LongitudeDegrees>
            </Position>
            <AltitudeMeters>91.8000030517578125</AltitudeMeters>
            <DistanceMeters>66502.250541041</DistanceMeters>
          </Trackpoint>
          <Trackpoint>
            <Time>2018-09-13T10:43:38.000Z</Time>
            <Position>
              <LatitudeDegrees>39.35127326287329196929931640625</LatitudeDegrees>
              <LongitudeDegrees>-8.1392485834658145904541015625</LongitudeDegrees>
            </Position>
            <AltitudeMeters>91.8000030517578125</AltitudeMeters>
            <DistanceMeters>66509.934201614</DistanceMeters>
          </Trackpoint>
          <Trackpoint>
            <Time>2018-09-13T10:43:46.000Z</Time>
            <Position>
              <LatitudeDegrees>39.3507003597915172576904296875</LatitudeDegrees>
              <LongitudeDegrees>-8.13924305140972137451171875</LongitudeDegrees>
            </Position>
            <AltitudeMeters>92</AltitudeMeters>
            <DistanceMeters>66573.701162985</DistanceMeters>
          </Trackpoint>
          <Trackpoint>
            <Time>2018-09-13T10:43:47.000Z</Time>
            <Position>
              <LatitudeDegrees>39.35063187964260578155517578125</LatitudeDegrees>
              <LongitudeDegrees>-8.13924531452357769012451171875</LongitudeDegrees>
            </Position>
            <AltitudeMeters>92</AltitudeMeters>
            <DistanceMeters>66581.325835578</DistanceMeters>
          </Trackpoint>
          <Trackpoint>
            <Time>2018-09-13T10:43:53.000Z</Time>
            <Position>
              <LatitudeDegrees>39.35027539730072021484375</LatitudeDegrees>
              <LongitudeDegrees>-8.1390420533716678619384765625</LongitudeDegrees>
            </Position>
            <AltitudeMeters>91.40000152587890625</AltitudeMeters>
            <DistanceMeters>66624.688640122</DistanceMeters>
          </Trackpoint>
          <Trackpoint>
            <Time>2018-09-13T10:43:56.000Z</Time>
            <Position>
              <LatitudeDegrees>39.35011488385498523712158203125</LatitudeDegrees>
              <LongitudeDegrees>-8.1388802826404571533203125</LongitudeDegrees>
            </Position>
            <AltitudeMeters>91</AltitudeMeters>
            <DistanceMeters>66647.338910829</DistanceMeters>
          </Trackpoint>
          <Trackpoint>
            <Time>2018-09-13T10:44:00.000Z</Time>
            <Position>
              <LatitudeDegrees>39.34987398795783519744873046875</LatitudeDegrees>
              <LongitudeDegrees>-8.13868925906717777252197265625</LongitudeDegrees>
            </Position>
            <AltitudeMeters>91</AltitudeMeters>
            <DistanceMeters>66678.790600038</DistanceMeters>
          </Trackpoint>
          <Trackpoint>
            <Time>2018-09-13T10:44:02.000Z</Time>
            <Position>
              <LatitudeDegrees>39.349737279117107391357421875</LatitudeDegrees>
              <LongitudeDegrees>-8.13862471841275691986083984375</LongitudeDegrees>
            </Position>
            <AltitudeMeters>91.40000152587890625</AltitudeMeters>
            <DistanceMeters>66694.988683294</DistanceMeters>
          </Trackpoint>
          <Trackpoint>
            <Time>2018-09-13T10:44:07.000Z</Time>
            <Position>
              <LatitudeDegrees>39.349403344094753265380859375</LatitudeDegrees>
              <LongitudeDegrees>-8.138521872460842132568359375</LongitudeDegrees>
            </Position>
            <AltitudeMeters>92.1999969482421875</AltitudeMeters>
            <DistanceMeters>66733.196040674</DistanceMeters>
          </Trackpoint>
          <Trackpoint>
            <Time>2018-09-13T10:44:16.000Z</Time>
            <Position>
              <LatitudeDegrees>39.34897729195654392242431640625</LatitudeDegrees>
              <LongitudeDegrees>-8.13853788189589977264404296875</LongitudeDegrees>
            </Position>
            <AltitudeMeters>95.1999969482421875</AltitudeMeters>
            <DistanceMeters>66780.636551552</DistanceMeters>
          </Trackpoint>
          <Trackpoint>
            <Time>2018-09-13T10:44:18.000Z</Time>
            <Position>
              <LatitudeDegrees>39.34890537522733211517333984375</LatitudeDegrees>
              <LongitudeDegrees>-8.138543665409088134765625</LongitudeDegrees>
            </Position>
            <AltitudeMeters>95.8000030517578125</AltitudeMeters>
            <DistanceMeters>66788.656603579</DistanceMeters>
          </Trackpoint>
          <Trackpoint>
            <Time>2018-09-13T10:44:20.000Z</Time>
            <Position>
              <LatitudeDegrees>39.34883714653551578521728515625</LatitudeDegrees>
              <LongitudeDegrees>-8.13854777254164218902587890625</LongitudeDegrees>
            </Position>
            <AltitudeMeters>96.1999969482421875</AltitudeMeters>
            <DistanceMeters>66796.258740729</DistanceMeters>
          </Trackpoint>
          <Trackpoint>
            <Time>2018-09-13T10:44:23.000Z</Time>
            <Position>
              <LatitudeDegrees>39.3487416766583919525146484375</LatitudeDegrees>
              <LongitudeDegrees>-8.13855280168354511260986328125</LongitudeDegrees>
            </Position>
            <AltitudeMeters>96.8000030517578125</AltitudeMeters>
            <DistanceMeters>66806.893244825</DistanceMeters>
          </Trackpoint>
          <Trackpoint>
            <Time>2018-09-13T10:44:26.000Z</Time>
            <Position>
              <LatitudeDegrees>39.3486541695892810821533203125</LatitudeDegrees>
              <LongitudeDegrees>-8.13855783082544803619384765625</LongitudeDegrees>
            </Position>
            <AltitudeMeters>97.40000152587890625</AltitudeMeters>
            <DistanceMeters>66816.642633763</DistanceMeters>
          </Trackpoint>
          <Trackpoint>
            <Time>2018-09-13T10:44:30.000Z</Time>
            <Position>
              <LatitudeDegrees>39.3485378287732601165771484375</LatitudeDegrees>
              <LongitudeDegrees>-8.13856688328087329864501953125</LongitudeDegrees>
            </Position>
            <AltitudeMeters>100.1999969482421875</AltitudeMeters>
            <DistanceMeters>66829.615085521</DistanceMeters>
          </Trackpoint>
          <Trackpoint>
            <Time>2018-09-13T10:44:33.000Z</Time>
            <Position>
              <LatitudeDegrees>39.34844990260899066925048828125</LatitudeDegrees>
              <LongitudeDegrees>-8.13856981694698333740234375</LongitudeDegrees>
            </Position>
            <AltitudeMeters>101.8000030517578125</AltitudeMeters>
            <DistanceMeters>66839.405143303</DistanceMeters>
          </Trackpoint>
          <Trackpoint>
            <Time>2018-09-13T10:44:37.000Z</Time>
            <Position>
              <LatitudeDegrees>39.34833389706909656524658203125</LatitudeDegrees>
              <LongitudeDegrees>-8.1385733373463153839111328125</LongitudeDegrees>
            </Position>
            <AltitudeMeters>103.8000030517578125</AltitudeMeters>
            <DistanceMeters>66852.320389025</DistanceMeters>
          </Trackpoint>
          <Trackpoint>
            <Time>2018-09-13T10:44:42.000Z</Time>
            <Position>
              <LatitudeDegrees>39.34819039888679981231689453125</LatitudeDegrees>
              <LongitudeDegrees>-8.13856579363346099853515625</LongitudeDegrees>
            </Position>
            <AltitudeMeters>106.1999969482421875</AltitudeMeters>
            <DistanceMeters>66868.305509392</DistanceMeters>
          </Trackpoint>
          <Trackpoint>
            <Time>2018-09-13T10:44:48.000Z</Time>
            <Position>
              <LatitudeDegrees>39.34801873750984668731689453125</LatitudeDegrees>
              <LongitudeDegrees>-8.13854441978037357330322265625</LongitudeDegrees>
            </Position>
            <AltitudeMeters>109</AltitudeMeters>
            <DistanceMeters>66887.500200038</DistanceMeters>
          </Trackpoint>
          <Trackpoint>
            <Time>2018-09-13T10:44:53.000Z</Time>
            <Position>
              <LatitudeDegrees>39.34787909500300884246826171875</LatitudeDegrees>
              <LongitudeDegrees>-8.13852287828922271728515625</LongitudeDegrees>
            </Position>
            <AltitudeMeters>111.1999969482421875</AltitudeMeters>
            <DistanceMeters>66903.152804743</DistanceMeters>
          </Trackpoint>
          <Trackpoint>
            <Time>2018-09-13T10:44:58.000Z</Time>
            <Position>
              <LatitudeDegrees>39.34773861430585384368896484375</LatitudeDegrees>
              <LongitudeDegrees>-8.13850468955934047698974609375</LongitudeDegrees>
            </Position>
            <AltitudeMeters>113.59999847412109375</AltitudeMeters>
            <DistanceMeters>66918.86644246</DistanceMeters>
          </Trackpoint>
          <Trackpoint>
            <Time>2018-09-13T10:45:04.000Z</Time>
            <Position>
              <LatitudeDegrees>39.34757508337497711181640625</LatitudeDegrees>
              <LongitudeDegrees>-8.13847459852695465087890625</LongitudeDegrees>
            </Position>
            <AltitudeMeters>116.40000152587890625</AltitudeMeters>
            <DistanceMeters>66937.251103493</DistanceMeters>
          </Trackpoint>
          <Trackpoint>
            <Time>2018-09-13T10:45:08.000Z</Time>
            <Position>
              <LatitudeDegrees>39.34746586717665195465087890625</LatitudeDegrees>
              <LongitudeDegrees>-8.138456158339977264404296875</LongitudeDegrees>
            </Position>
            <AltitudeMeters>118.1999969482421875</AltitudeMeters>
            <DistanceMeters>66949.509917962</DistanceMeters>
          </Trackpoint>
          <Trackpoint>
            <Time>2018-09-13T10:45:14.000Z</Time>
            <Position>
              <LatitudeDegrees>39.3472994863986968994140625</LatitudeDegrees>
              <LongitudeDegrees>-8.13842288218438625335693359375</LongitudeDegrees>
            </Position>
            <AltitudeMeters>120.8000030517578125</AltitudeMeters>
            <DistanceMeters>66968.248501753</DistanceMeters>
          </Trackpoint>
          <Trackpoint>
            <Time>2018-09-13T10:45:19.000Z</Time>
            <Position>
              <LatitudeDegrees>39.3471655435860157012939453125</LatitudeDegrees>
              <LongitudeDegrees>-8.13838549889624118804931640625</LongitudeDegrees>
            </Position>
            <AltitudeMeters>122.59999847412109375</AltitudeMeters>
            <DistanceMeters>66983.49962332</DistanceMeters>
          </Trackpoint>
          <Trackpoint>
            <Time>2018-09-13T10:45:25.000Z</Time>
            <Position>
              <LatitudeDegrees>39.34700871817767620086669921875</LatitudeDegrees>
              <LongitudeDegrees>-8.138297237455844879150390625</LongitudeDegrees>
            </Position>
            <AltitudeMeters>124.1999969482421875</AltitudeMeters>
            <DistanceMeters>67002.536062004</DistanceMeters>
          </Trackpoint>
          <Trackpoint>
            <Time>2018-09-13T10:45:30.000Z</Time>
            <Position>
              <LatitudeDegrees>39.34688349254429340362548828125</LatitudeDegrees>
              <LongitudeDegrees>-8.13821040093898773193359375</LongitudeDegrees>
            </Position>
            <AltitudeMeters>125.1999969482421875</AltitudeMeters>
            <DistanceMeters>67018.35165929</DistanceMeters>
          </Trackpoint>
          <Trackpoint>
            <Time>2018-09-13T10:45:37.000Z</Time>
            <Position>
              <LatitudeDegrees>39.3467253260314464569091796875</LatitudeDegrees>
              <LongitudeDegrees>-8.1380580179393291473388671875</LongitudeDegrees>
            </Position>
            <AltitudeMeters>125.59999847412109375</AltitudeMeters>
            <DistanceMeters>67040.304681401</DistanceMeters>
          </Trackpoint>
          <Trackpoint>
            <Time>2018-09-13T10:45:41.000Z</Time>
            <Position>
              <LatitudeDegrees>39.34663832187652587890625</LatitudeDegrees>
              <LongitudeDegrees>-8.1379738636314868927001953125</LongitudeDegrees>
            </Position>
            <AltitudeMeters>126</AltitudeMeters>
            <DistanceMeters>67052.397367535</DistanceMeters>
          </Trackpoint>
          <Trackpoint>
            <Time>2018-09-13T10:45:47.000Z</Time>
            <Position>
              <LatitudeDegrees>39.34652499854564666748046875</LatitudeDegrees>
              <LongitudeDegrees>-8.13783262856304645538330078125</LongitudeDegrees>
            </Position>
            <AltitudeMeters>125.59999847412109375</AltitudeMeters>
            <DistanceMeters>67069.914789084</DistanceMeters>
          </Trackpoint>
          <Trackpoint>
            <Time>2018-09-13T10:45:53.000Z</Time>
            <Position>
              <LatitudeDegrees>39.346409328281879425048828125</LatitudeDegrees>
              <LongitudeDegrees>-8.1376999430358409881591796875</LongitudeDegrees>
            </Position>
            <AltitudeMeters>125.1999969482421875</AltitudeMeters>
            <DistanceMeters>67087.124334319</DistanceMeters>
          </Trackpoint>
          <Trackpoint>
            <Time>2018-09-13T10:46:00.000Z</Time>
            <Position>
              <LatitudeDegrees>39.34628896415233612060546875</LatitudeDegrees>
              <LongitudeDegrees>-8.13751093111932277679443359375</LongitudeDegrees>
            </Position>
            <AltitudeMeters>124.8000030517578125</AltitudeMeters>
            <DistanceMeters>67108.198851628</DistanceMeters>
          </Trackpoint>
          <Trackpoint>
            <Time>2018-09-13T10:46:07.000Z</Time>
            <Position>
              <LatitudeDegrees>39.34616264887154102325439453125</LatitudeDegrees>
              <LongitudeDegrees>-8.13732267357409000396728515625</LongitudeDegrees>
            </Position>
            <AltitudeMeters>124.40000152587890625</AltitudeMeters>
            <DistanceMeters>67129.651750641</DistanceMeters>
          </Trackpoint>
          <Trackpoint>
            <Time>2018-09-13T10:46:13.000Z</Time>
            <Position>
              <LatitudeDegrees>39.34603281319141387939453125</LatitudeDegrees>
              <LongitudeDegrees>-8.1372044049203395843505859375</LongitudeDegrees>
            </Position>
            <AltitudeMeters>123.40000152587890625</AltitudeMeters>
            <DistanceMeters>67147.32850756</DistanceMeters>
          </Trackpoint>
          <Trackpoint>
            <Time>2018-09-13T10:46:18.000Z</Time>
            <Position>
              <LatitudeDegrees>39.34590733610093593597412109375</LatitudeDegrees>
              <LongitudeDegrees>-8.13714983873069286346435546875</LongitudeDegrees>
            </Position>
            <AltitudeMeters>123</AltitudeMeters>
            <DistanceMeters>67162.063471355</DistanceMeters>
          </Trackpoint>
          <Trackpoint>
            <Time>2018-09-13T10:46:23.000Z</Time>
            <Position>
              <LatitudeDegrees>39.34577356092631816864013671875</LatitudeDegrees>
              <LongitudeDegrees>-8.1371795944869518280029296875</LongitudeDegrees>
            </Position>
            <AltitudeMeters>123.8000030517578125</AltitudeMeters>
            <DistanceMeters>67177.171822434</DistanceMeters>
          </Trackpoint>
          <Trackpoint>
            <Time>2018-09-13T10:46:27.000Z</Time>
            <Position>
              <LatitudeDegrees>39.34566400945186614990234375</LatitudeDegrees>
              <LongitudeDegrees>-8.1372318975627422332763671875</LongitudeDegrees>
            </Position>
            <AltitudeMeters>124.8000030517578125</AltitudeMeters>
            <DistanceMeters>67190.169309504</DistanceMeters>
          </Trackpoint>
          <Trackpoint>
            <Time>2018-09-13T10:46:33.000Z</Time>
            <Position>
              <LatitudeDegrees>39.34548136778175830841064453125</LatitudeDegrees>
              <LongitudeDegrees>-8.137328960001468658447265625</LongitudeDegrees>
            </Position>
            <AltitudeMeters>126.8000030517578125</AltitudeMeters>
            <DistanceMeters>67212.147819674</DistanceMeters>
          </Trackpoint>
          <Trackpoint>
            <Time>2018-09-13T10:46:42.000Z</Time>
            <Position>
              <LatitudeDegrees>39.3452082015573978424072265625</LatitudeDegrees>
              <LongitudeDegrees>-8.13750707544386386871337890625</LongitudeDegrees>
            </Position>
            <AltitudeMeters>129.8000030517578125</AltitudeMeters>
            <DistanceMeters>67246.198425472</DistanceMeters>
          </Trackpoint>
          <Trackpoint>
            <Time>2018-09-13T10:46:50.000Z</Time>
            <Position>
              <LatitudeDegrees>39.3449922837316989898681640625</LatitudeDegrees>
              <LongitudeDegrees>-8.13766398467123508453369140625</LongitudeDegrees>
            </Position>
            <AltitudeMeters>132.600006103515625</AltitudeMeters>
            <DistanceMeters>67273.76550989</DistanceMeters>
          </Trackpoint>
          <Trackpoint>
            <Time>2018-09-13T10:46:55.000Z</Time>
            <Position>
              <LatitudeDegrees>39.34488642029464244842529296875</LatitudeDegrees>
              <LongitudeDegrees>-8.13775601796805858612060546875</LongitudeDegrees>
            </Position>
            <AltitudeMeters>134.1999969482421875</AltitudeMeters>
            <DistanceMeters>67287.963658591</DistanceMeters>
          </Trackpoint>
          <Trackpoint>
            <Time>2018-09-13T10:47:00.000Z</Time>
            <Position>
              <LatitudeDegrees>39.3447780422866344451904296875</LatitudeDegrees>
              <LongitudeDegrees>-8.13787235878407955169677734375</LongitudeDegrees>
            </Position>
            <AltitudeMeters>136</AltitudeMeters>
            <DistanceMeters>67303.641050614</DistanceMeters>
          </Trackpoint>
          <Trackpoint>
            <Time>2018-09-13T10:47:05.000Z</Time>
            <Position>
              <LatitudeDegrees>39.3447056226432323455810546875</LatitudeDegrees>
              <LongitudeDegrees>-8.13801149837672710418701171875</LongitudeDegrees>
            </Position>
            <AltitudeMeters>138</AltitudeMeters>
            <DistanceMeters>67318.076981626</DistanceMeters>
          </Trackpoint>
          <Trackpoint>
            <Time>2018-09-13T10:47:10.000Z</Time>
            <Position>
              <LatitudeDegrees>39.3446395732462406158447265625</LatitudeDegrees>
              <LongitudeDegrees>-8.13813068903982639312744140625</LongitudeDegrees>
            </Position>
            <AltitudeMeters>139.600006103515625</AltitudeMeters>
            <DistanceMeters>67330.698375311</DistanceMeters>
          </Trackpoint>
          <Trackpoint>
            <Time>2018-09-13T10:47:15.000Z</Time>
            <Position>
              <LatitudeDegrees>39.34455357491970062255859375</LatitudeDegrees>
              <LongitudeDegrees>-8.13823596574366092681884765625</LongitudeDegrees>
            </Position>
            <AltitudeMeters>141.399993896484375</AltitudeMeters>
            <DistanceMeters>67343.879371889</DistanceMeters>
          </Trackpoint>
          <Trackpoint>
            <Time>2018-09-13T10:47:19.000Z</Time>
            <Position>
              <LatitudeDegrees>39.34445491991937160491943359375</LatitudeDegrees>
              <LongitudeDegrees>-8.13828877173364162445068359375</LongitudeDegrees>
            </Position>
            <AltitudeMeters>142.8000030517578125</AltitudeMeters>
            <DistanceMeters>67355.76341142</DistanceMeters>
          </Trackpoint>
          <Trackpoint>
            <Time>2018-09-13T10:47:24.000Z</Time>
            <Position>
              <LatitudeDegrees>39.344334639608860015869140625</LatitudeDegrees>
              <LongitudeDegrees>-8.13833286054432392120361328125</LongitudeDegrees>
            </Position>
            <AltitudeMeters>145.8000030517578125</AltitudeMeters>
            <DistanceMeters>67369.678255979</DistanceMeters>
          </Trackpoint>
          <Trackpoint>
            <Time>2018-09-13T10:47:33.000Z</Time>
            <Position>
              <LatitudeDegrees>39.3440940789878368377685546875</LatitudeDegrees>
              <LongitudeDegrees>-8.13828139565885066986083984375</LongitudeDegrees>
            </Position>
            <AltitudeMeters>150.600006103515625</AltitudeMeters>
            <DistanceMeters>67396.816993881</DistanceMeters>
          </Trackpoint>
          <Trackpoint>
            <Time>2018-09-13T10:47:40.000Z</Time>
            <Position>
              <LatitudeDegrees>39.34392618946731090545654296875</LatitudeDegrees>
              <LongitudeDegrees>-8.13815549947321414947509765625</LongitudeDegrees>
            </Position>
            <AltitudeMeters>152.8000030517578125</AltitudeMeters>
            <DistanceMeters>67418.418386664</DistanceMeters>
          </Trackpoint>
          <Trackpoint>
            <Time>2018-09-13T10:47:45.000Z</Time>
            <Position>
              <LatitudeDegrees>39.3438037298619747161865234375</LatitudeDegrees>
              <LongitudeDegrees>-8.13806422054767608642578125</LongitudeDegrees>
            </Position>
            <AltitudeMeters>153.1999969482421875</AltitudeMeters>
            <DistanceMeters>67434.150976894</DistanceMeters>
          </Trackpoint>
          <Trackpoint>
            <Time>2018-09-13T10:47:50.000Z</Time>
            <Position>
              <LatitudeDegrees>39.34367674402892589569091796875</LatitudeDegrees>
              <LongitudeDegrees>-8.13799909316003322601318359375</LongitudeDegrees>
            </Position>
            <AltitudeMeters>154</AltitudeMeters>
            <DistanceMeters>67449.355845099</DistanceMeters>
          </Trackpoint>
          <Trackpoint>
            <Time>2018-09-13T10:47:51.000Z</Time>
            <Position>
              <LatitudeDegrees>39.34365025721490383148193359375</LatitudeDegrees>
              <LongitudeDegrees>-8.1379872746765613555908203125</LongitudeDegrees>
            </Position>
            <AltitudeMeters>154.1999969482421875</AltitudeMeters>
            <DistanceMeters>67452.472953094</DistanceMeters>
          </Trackpoint>
          <Trackpoint>
            <Time>2018-09-13T10:47:58.000Z</Time>
            <Position>
              <LatitudeDegrees>39.3434694595634937286376953125</LatitudeDegrees>
              <LongitudeDegrees>-8.137919045984745025634765625</LongitudeDegrees>
            </Position>
            <AltitudeMeters>155</AltitudeMeters>
            <DistanceMeters>67473.435337975</DistanceMeters>
          </Trackpoint>
          <Trackpoint>
            <Time>2018-09-13T10:48:03.000Z</Time>
            <Position>
              <LatitudeDegrees>39.34334062971174716949462890625</LatitudeDegrees>
              <LongitudeDegrees>-8.1378692574799060821533203125</LongitudeDegrees>
            </Position>
            <AltitudeMeters>155.600006103515625</AltitudeMeters>
            <DistanceMeters>67488.400763327</DistanceMeters>
          </Trackpoint>
          <Trackpoint>
            <Time>2018-09-13T10:48:09.000Z</Time>
            <Position>
              <LatitudeDegrees>39.34317634440958499908447265625</LatitudeDegrees>
              <LongitudeDegrees>-8.13782692886888980865478515625</LongitudeDegrees>
            </Position>
            <AltitudeMeters>157.600006103515625</AltitudeMeters>
            <DistanceMeters>67507.045382465</DistanceMeters>
          </Trackpoint>
          <Trackpoint>
            <Time>2018-09-13T10:48:15.000Z</Time>
            <Position>
              <LatitudeDegrees>39.3430161662399768829345703125</LatitudeDegrees>
              <LongitudeDegrees>-8.1377966701984405517578125</LongitudeDegrees>
            </Position>
            <AltitudeMeters>159.8000030517578125</AltitudeMeters>
            <DistanceMeters>67525.06265801</DistanceMeters>
          </Trackpoint>
          <Trackpoint>
            <Time>2018-09-13T10:48:20.000Z</Time>
            <Position>
              <LatitudeDegrees>39.34288901276886463165283203125</LatitudeDegrees>
              <LongitudeDegrees>-8.13777043484151363372802734375</LongitudeDegrees>
            </Position>
            <AltitudeMeters>161.600006103515625</AltitudeMeters>
            <DistanceMeters>67539.394375241</DistanceMeters>
          </Trackpoint>
          <Trackpoint>
            <Time>2018-09-13T10:48:25.000Z</Time>
            <Position>
              <LatitudeDegrees>39.34276646934449672698974609375</LatitudeDegrees>
              <LongitudeDegrees>-8.137728273868560791015625</LongitudeDegrees>
            </Position>
            <AltitudeMeters>162.1999969482421875</AltitudeMeters>
            <DistanceMeters>67553.508641656</DistanceMeters>
          </Trackpoint>
          <Trackpoint>
            <Time>2018-09-13T10:48:30.000Z</Time>
            <Position>
              <LatitudeDegrees>39.34264786541461944580078125</LatitudeDegrees>
              <LongitudeDegrees>-8.137652836740016937255859375</LongitudeDegrees>
            </Position>
            <AltitudeMeters>162.399993896484375</AltitudeMeters>
            <DistanceMeters>67568.219992448</DistanceMeters>
          </Trackpoint>
          <Trackpoint>
            <Time>2018-09-13T10:48:34.000Z</Time>
            <Position>
              <LatitudeDegrees>39.34256781823933124542236328125</LatitudeDegrees>
              <LongitudeDegrees>-8.13756809569895267486572265625</LongitudeDegrees>
            </Position>
            <AltitudeMeters>163.1999969482421875</AltitudeMeters>
            <DistanceMeters>67579.734313199</DistanceMeters>
          </Trackpoint>
          <Trackpoint>
            <Time>2018-09-13T10:48:40.000Z</Time>
            <Position>
              <LatitudeDegrees>39.34246681630611419677734375</LatitudeDegrees>
              <LongitudeDegrees>-8.1374129466712474822998046875</LongitudeDegrees>
            </Position>
            <AltitudeMeters>164.600006103515625</AltitudeMeters>
            <DistanceMeters>67597.190800809</DistanceMeters>
          </Trackpoint>
          <Trackpoint>
            <Time>2018-09-13T10:48:45.000Z</Time>
            <Position>
              <LatitudeDegrees>39.3424178659915924072265625</LatitudeDegrees>
              <LongitudeDegrees>-8.1372473202645778656005859375</LongitudeDegrees>
            </Position>
            <AltitudeMeters>165.600006103515625</AltitudeMeters>
            <DistanceMeters>67612.45316799</DistanceMeters>
          </Trackpoint>
          <Trackpoint>
            <Time>2018-09-13T10:48:49.000Z</Time>
            <Position>
              <LatitudeDegrees>39.34238760732114315032958984375</LatitudeDegrees>
              <LongitudeDegrees>-8.13710893504321575164794921875</LongitudeDegrees>
            </Position>
            <AltitudeMeters>165.8000030517578125</AltitudeMeters>
            <DistanceMeters>67624.831469048</DistanceMeters>
          </Trackpoint>
          <Trackpoint>
            <Time>2018-09-13T10:48:55.000Z</Time>
            <Position>
              <LatitudeDegrees>39.34231652878224849700927734375</LatitudeDegrees>
              <LongitudeDegrees>-8.1369029916822910308837890625</LongitudeDegrees>
            </Position>
            <AltitudeMeters>165.399993896484375</AltitudeMeters>
            <DistanceMeters>67644.243684792</DistanceMeters>
          </Trackpoint>
          <Trackpoint>
            <Time>2018-09-13T10:49:01.000Z</Time>
            <Position>
              <LatitudeDegrees>39.3422071449458599090576171875</LatitudeDegrees>
              <LongitudeDegrees>-8.1367293186485767364501953125</LongitudeDegrees>
            </Position>
            <AltitudeMeters>165.8000030517578125</AltitudeMeters>
            <DistanceMeters>67663.523338229</DistanceMeters>
          </Trackpoint>
          <Trackpoint>
            <Time>2018-09-13T10:49:06.000Z</Time>
            <Position>
              <LatitudeDegrees>39.3421068973839282989501953125</LatitudeDegrees>
              <LongitudeDegrees>-8.13663250766694545745849609375</LongitudeDegrees>
            </Position>
            <AltitudeMeters>167</AltitudeMeters>
            <DistanceMeters>67677.449210615</DistanceMeters>
          </Trackpoint>
          <Trackpoint>
            <Time>2018-09-13T10:49:11.000Z</Time>
            <Position>
              <LatitudeDegrees>39.3419959209859371185302734375</LatitudeDegrees>
              <LongitudeDegrees>-8.13655790872871875762939453125</LongitudeDegrees>
            </Position>
            <AltitudeMeters>166.399993896484375</AltitudeMeters>
            <DistanceMeters>67691.370218861</DistanceMeters>
          </Trackpoint>
          <Trackpoint>
            <Time>2018-09-13T10:49:16.000Z</Time>
            <Position>
              <LatitudeDegrees>39.3418802507221698760986328125</LatitudeDegrees>
              <LongitudeDegrees>-8.136498145759105682373046875</LongitudeDegrees>
            </Position>
            <AltitudeMeters>166.399993896484375</AltitudeMeters>
            <DistanceMeters>67705.234352702</DistanceMeters>
          </Trackpoint>
          <Trackpoint>
            <Time>2018-09-13T10:49:22.000Z</Time>
            <Position>
              <LatitudeDegrees>39.34173901565372943878173828125</LatitudeDegrees>
              <LongitudeDegrees>-8.13644475303590297698974609375</LongitudeDegrees>
            </Position>
            <AltitudeMeters>166.399993896484375</AltitudeMeters>
            <DistanceMeters>67721.612062881</DistanceMeters>
          </Trackpoint>
          <Trackpoint>
            <Time>2018-09-13T10:49:27.000Z</Time>
            <Position>
              <LatitudeDegrees>39.3416207469999790191650390625</LatitudeDegrees>
              <LongitudeDegrees>-8.13642128370702266693115234375</LongitudeDegrees>
            </Position>
            <AltitudeMeters>166.399993896484375</AltitudeMeters>
            <DistanceMeters>67734.930049272</DistanceMeters>
          </Trackpoint>
          <Trackpoint>
            <Time>2018-09-13T10:49:33.000Z</Time>
            <Position>
              <LatitudeDegrees>39.34147708117961883544921875</LatitudeDegrees>
              <LongitudeDegrees>-8.13642832450568675994873046875</LongitudeDegrees>
            </Position>
            <AltitudeMeters>166.399993896484375</AltitudeMeters>
            <DistanceMeters>67750.931825662</DistanceMeters>
          </Trackpoint>
          <Trackpoint>
            <Time>2018-09-13T10:49:38.000Z</Time>
            <Position>
              <LatitudeDegrees>39.34135646559298038482666015625</LatitudeDegrees>
              <LongitudeDegrees>-8.136464618146419525146484375</LongitudeDegrees>
            </Position>
            <AltitudeMeters>166.1999969482421875</AltitudeMeters>
            <DistanceMeters>67764.715613544</DistanceMeters>
          </Trackpoint>
          <Trackpoint>
            <Time>2018-09-13T10:49:42.000Z</Time>
            <Position>
              <LatitudeDegrees>39.34125789441168308258056640625</LatitudeDegrees>
              <LongitudeDegrees>-8.13651465810835361480712890625</LongitudeDegrees>
            </Position>
            <AltitudeMeters>166</AltitudeMeters>
            <DistanceMeters>67776.501991106</DistanceMeters>
          </Trackpoint>
          <Trackpoint>
            <Time>2018-09-13T10:49:49.000Z</Time>
            <Position>
              <LatitudeDegrees>39.3410816229879856109619140625</LatitudeDegrees>
              <LongitudeDegrees>-8.13665614463388919830322265625</LongitudeDegrees>
            </Position>
            <AltitudeMeters>165.8000030517578125</AltitudeMeters>
            <DistanceMeters>67799.594069275</DistanceMeters>
          </Trackpoint>
          <Trackpoint>
            <Time>2018-09-13T10:49:56.000Z</Time>
            <Position>
              <LatitudeDegrees>39.34088942594826221466064453125</LatitudeDegrees>
              <LongitudeDegrees>-8.136827051639556884765625</LongitudeDegrees>
            </Position>
            <AltitudeMeters>166.1999969482421875</AltitudeMeters>
            <DistanceMeters>67825.556369367</DistanceMeters>
          </Trackpoint>
          <Trackpoint>
            <Time>2018-09-13T10:50:08.000Z</Time>
            <Position>
              <LatitudeDegrees>39.34051156975328922271728515625</LatitudeDegrees>
              <LongitudeDegrees>-8.1371561251580715179443359375</LongitudeDegrees>
            </Position>
            <AltitudeMeters>167.399993896484375</AltitudeMeters>
            <DistanceMeters>67876.26244963</DistanceMeters>
          </Trackpoint>
          <Trackpoint>
            <Time>2018-09-13T10:50:09.000Z</Time>
            <Position>
              <LatitudeDegrees>39.3404737673699855804443359375</LatitudeDegrees>
              <LongitudeDegrees>-8.1371842883527278900146484375</LongitudeDegrees>
            </Position>
            <AltitudeMeters>167.399993896484375</AltitudeMeters>
            <DistanceMeters>67881.11811947</DistanceMeters>
          </Trackpoint>
          <Trackpoint>
            <Time>2018-09-13T10:50:21.000Z</Time>
            <Position>
              <LatitudeDegrees>39.33994822204113006591796875</LatitudeDegrees>
              <LongitudeDegrees>-8.1374246813356876373291015625</LongitudeDegrees>
            </Position>
            <AltitudeMeters>167</AltitudeMeters>
            <DistanceMeters>67943.164815518</DistanceMeters>
          </Trackpoint>
          <Trackpoint>
            <Time>2018-09-13T10:50:23.000Z</Time>
            <Position>
              <LatitudeDegrees>39.33985090814530849456787109375</LatitudeDegrees>
              <LongitudeDegrees>-8.1374488212168216705322265625</LongitudeDegrees>
            </Position>
            <AltitudeMeters>166.8000030517578125</AltitudeMeters>
            <DistanceMeters>67954.193647264</DistanceMeters>
          </Trackpoint>
          <Trackpoint>
            <Time>2018-09-13T10:50:28.000Z</Time>
            <Position>
              <LatitudeDegrees>39.33957941830158233642578125</LatitudeDegrees>
              <LongitudeDegrees>-8.1374746374785900115966796875</LongitudeDegrees>
            </Position>
            <AltitudeMeters>166</AltitudeMeters>
            <DistanceMeters>67984.492569053</DistanceMeters>
          </Trackpoint>
          <Trackpoint>
            <Time>2018-09-13T10:50:37.000Z</Time>
            <Position>
              <LatitudeDegrees>39.3390364386141300201416015625</LatitudeDegrees>
              <LongitudeDegrees>-8.13737078569829463958740234375</LongitudeDegrees>
            </Position>
            <AltitudeMeters>163.399993896484375</AltitudeMeters>
            <DistanceMeters>68045.584917801</DistanceMeters>
          </Trackpoint>
          <Trackpoint>
            <Time>2018-09-13T10:50:46.000Z</Time>
            <Position>
              <LatitudeDegrees>39.33846437372267246246337890625</LatitudeDegrees>
              <LongitudeDegrees>-8.1371527723968029022216796875</LongitudeDegrees>
            </Position>
            <AltitudeMeters>161</AltitudeMeters>
            <DistanceMeters>68111.965005942</DistanceMeters>
          </Trackpoint>
          <Trackpoint>
            <Time>2018-09-13T10:50:49.000Z</Time>
            <Position>
              <LatitudeDegrees>39.33825884945690631866455078125</LatitudeDegrees>
              <LongitudeDegrees>-8.1370751559734344482421875</LongitudeDegrees>
            </Position>
            <AltitudeMeters>159.8000030517578125</AltitudeMeters>
            <DistanceMeters>68135.796069026</DistanceMeters>
          </Trackpoint>
          <Trackpoint>
            <Time>2018-09-13T10:50:55.000Z</Time>
            <Position>
              <LatitudeDegrees>39.3378408439457416534423828125</LatitudeDegrees>
              <LongitudeDegrees>-8.13690475188195705413818359375</LongitudeDegrees>
            </Position>
            <AltitudeMeters>162</AltitudeMeters>
            <DistanceMeters>68184.578752693</DistanceMeters>
          </Trackpoint>
          <Trackpoint>
            <Time>2018-09-13T10:51:03.000Z</Time>
            <Position>
              <LatitudeDegrees>39.337320663034915924072265625</LatitudeDegrees>
              <LongitudeDegrees>-8.13655539415776729583740234375</LongitudeDegrees>
            </Position>
            <AltitudeMeters>158.1999969482421875</AltitudeMeters>
            <DistanceMeters>68249.8208035</DistanceMeters>
          </Trackpoint>
          <Trackpoint>
            <Time>2018-09-13T10:51:04.000Z</Time>
            <Position>
              <LatitudeDegrees>39.33726333081722259521484375</LatitudeDegrees>
              <LongitudeDegrees>-8.13650493510067462921142578125</LongitudeDegrees>
            </Position>
            <AltitudeMeters>157.399993896484375</AltitudeMeters>
            <DistanceMeters>68257.539640484</DistanceMeters>
          </Trackpoint>
          <Trackpoint>
            <Time>2018-09-13T10:51:05.000Z</Time>
            <Position>
              <LatitudeDegrees>39.33720767498016357421875</LatitudeDegrees>
              <LongitudeDegrees>-8.13645422458648681640625</LongitudeDegrees>
            </Position>
            <AltitudeMeters>158</AltitudeMeters>
            <DistanceMeters>68265.117983718</DistanceMeters>
          </Trackpoint>
          <Trackpoint>
            <Time>2018-09-13T10:51:13.000Z</Time>
            <Position>
              <LatitudeDegrees>39.33679218403995037078857421875</LatitudeDegrees>
              <LongitudeDegrees>-8.1359974108636379241943359375</LongitudeDegrees>
            </Position>
            <AltitudeMeters>163.1999969482421875</AltitudeMeters>
            <DistanceMeters>68325.822280563</DistanceMeters>
          </Trackpoint>
          <Trackpoint>
            <Time>2018-09-13T10:51:20.000Z</Time>
            <Position>
              <LatitudeDegrees>39.3364923633635044097900390625</LatitudeDegrees>
              <LongitudeDegrees>-8.135527186095714569091796875</LongitudeDegrees>
            </Position>
            <AltitudeMeters>163</AltitudeMeters>
            <DistanceMeters>68378.283396053</DistanceMeters>
          </Trackpoint>
          <Trackpoint>
            <Time>2018-09-13T10:51:21.000Z</Time>
            <Position>
              <LatitudeDegrees>39.3364531360566616058349609375</LatitudeDegrees>
              <LongitudeDegrees>-8.1354549340903759002685546875</LongitudeDegrees>
            </Position>
            <AltitudeMeters>163.600006103515625</AltitudeMeters>
            <DistanceMeters>68385.882563038</DistanceMeters>
          </Trackpoint>
          <Trackpoint>
            <Time>2018-09-13T10:51:27.000Z</Time>
            <Position>
              <LatitudeDegrees>39.33622405864298343658447265625</LatitudeDegrees>
              <LongitudeDegrees>-8.13500474207103252410888671875</LongitudeDegrees>
            </Position>
            <AltitudeMeters>166.1999969482421875</AltitudeMeters>
            <DistanceMeters>68432.272537795</DistanceMeters>
          </Trackpoint>
          <Trackpoint>
            <Time>2018-09-13T10:51:35.000Z</Time>
            <Position>
              <LatitudeDegrees>39.33592624962329864501953125</LatitudeDegrees>
              <LongitudeDegrees>-8.134413063526153564453125</LongitudeDegrees>
            </Position>
            <AltitudeMeters>163.8000030517578125</AltitudeMeters>
            <DistanceMeters>68493.043291812</DistanceMeters>
          </Trackpoint>
          <Trackpoint>
            <Time>2018-09-13T10:51:40.000Z</Time>
            <Position>
              <LatitudeDegrees>39.33573522605001926422119140625</LatitudeDegrees>
              <LongitudeDegrees>-8.13404585234820842742919921875</LongitudeDegrees>
            </Position>
            <AltitudeMeters>163.8000030517578125</AltitudeMeters>
            <DistanceMeters>68531.139642637</DistanceMeters>
          </Trackpoint>
          <Trackpoint>
            <Time>2018-09-13T10:51:48.000Z</Time>
            <Position>
              <LatitudeDegrees>39.33537505567073822021484375</LatitudeDegrees>
              <LongitudeDegrees>-8.13348946161568164825439453125</LongitudeDegrees>
            </Position>
            <AltitudeMeters>164</AltitudeMeters>
            <DistanceMeters>68593.599163013</DistanceMeters>
          </Trackpoint>
          <Trackpoint>
            <Time>2018-09-13T10:51:50.000Z</Time>
            <Position>
              <LatitudeDegrees>39.3352773226797580718994140625</LatitudeDegrees>
              <LongitudeDegrees>-8.1333576142787933349609375</LongitudeDegrees>
            </Position>
            <AltitudeMeters>164</AltitudeMeters>
            <DistanceMeters>68609.320269598</DistanceMeters>
          </Trackpoint>
          <Trackpoint>
            <Time>2018-09-13T10:51:52.000Z</Time>
            <Position>
              <LatitudeDegrees>39.33517648838460445404052734375</LatitudeDegrees>
              <LongitudeDegrees>-8.1332280300557613372802734375</LongitudeDegrees>
            </Position>
            <AltitudeMeters>163.600006103515625</AltitudeMeters>
            <DistanceMeters>68625.144428969</DistanceMeters>
          </Trackpoint>
          <Trackpoint>
            <Time>2018-09-13T10:51:54.000Z</Time>
            <Position>
              <LatitudeDegrees>39.33507489971816539764404296875</LatitudeDegrees>
              <LongitudeDegrees>-8.1330959312617778778076171875</LongitudeDegrees>
            </Position>
            <AltitudeMeters>163</AltitudeMeters>
            <DistanceMeters>68641.180873308</DistanceMeters>
          </Trackpoint>
          <Trackpoint>
            <Time>2018-09-13T10:51:56.000Z</Time>
            <Position>
              <LatitudeDegrees>39.3349718861281871795654296875</LatitudeDegrees>
              <LongitudeDegrees>-8.1329628266394138336181640625</LongitudeDegrees>
            </Position>
            <AltitudeMeters>162.600006103515625</AltitudeMeters>
            <DistanceMeters>68657.390380836</DistanceMeters>
          </Trackpoint>
          <Trackpoint>
            <Time>2018-09-13T10:51:58.000Z</Time>
            <Position>
              <LatitudeDegrees>39.33486652560532093048095703125</LatitudeDegrees>
              <LongitudeDegrees>-8.1328273750841617584228515625</LongitudeDegrees>
            </Position>
            <AltitudeMeters>164</AltitudeMeters>
            <DistanceMeters>68673.927213514</DistanceMeters>
          </Trackpoint>
          <Trackpoint>
            <Time>2018-09-13T10:52:06.000Z</Time>
            <Position>
              <LatitudeDegrees>39.3344391323626041412353515625</LatitudeDegrees>
              <LongitudeDegrees>-8.13228665851056575775146484375</LongitudeDegrees>
            </Position>
            <AltitudeMeters>168</AltitudeMeters>
            <DistanceMeters>68740.482963674</DistanceMeters>
          </Trackpoint>
          <Trackpoint>
            <Time>2018-09-13T10:52:15.000Z</Time>
            <Position>
              <LatitudeDegrees>39.33402012102305889129638671875</LatitudeDegrees>
              <LongitudeDegrees>-8.1317518092691898345947265625</LongitudeDegrees>
            </Position>
            <AltitudeMeters>167.1999969482421875</AltitudeMeters>
            <DistanceMeters>68806.019575577</DistanceMeters>
          </Trackpoint>
          <Trackpoint>
            <Time>2018-09-13T10:52:24.000Z</Time>
            <Position>
              <LatitudeDegrees>39.333613179624080657958984375</LatitudeDegrees>
              <LongitudeDegrees>-8.1312311254441738128662109375</LongitudeDegrees>
            </Position>
            <AltitudeMeters>166.399993896484375</AltitudeMeters>
            <DistanceMeters>68869.743614496</DistanceMeters>
          </Trackpoint>
          <Trackpoint>
            <Time>2018-09-13T10:52:33.000Z</Time>
            <Position>
              <LatitudeDegrees>39.3331788294017314910888671875</LatitudeDegrees>
              <LongitudeDegrees>-8.13072728924453258514404296875</LongitudeDegrees>
            </Position>
            <AltitudeMeters>165</AltitudeMeters>
            <DistanceMeters>68934.693661238</DistanceMeters>
          </Trackpoint>
          <Trackpoint>
            <Time>2018-09-13T10:52:41.000Z</Time>
            <Position>
              <LatitudeDegrees>39.3327218480408191680908203125</LatitudeDegrees>
              <LongitudeDegrees>-8.13033686019480228424072265625</LongitudeDegrees>
            </Position>
            <AltitudeMeters>166.8000030517578125</AltitudeMeters>
            <DistanceMeters>68995.659056868</DistanceMeters>
          </Trackpoint>
          <Trackpoint>
            <Time>2018-09-13T10:52:49.000Z</Time>
            <Position>
              <LatitudeDegrees>39.33220309205353260040283203125</LatitudeDegrees>
              <LongitudeDegrees>-8.13000141642987728118896484375</LongitudeDegrees>
            </Position>
            <AltitudeMeters>165.600006103515625</AltitudeMeters>
            <DistanceMeters>69060.216824501</DistanceMeters>
          </Trackpoint>
          <Trackpoint>
            <Time>2018-09-13T10:52:57.000Z</Time>
            <Position>
              <LatitudeDegrees>39.33164770714938640594482421875</LatitudeDegrees>
              <LongitudeDegrees>-8.12972682528197765350341796875</LongitudeDegrees>
            </Position>
            <AltitudeMeters>161.1999969482421875</AltitudeMeters>
            <DistanceMeters>69126.398275065</DistanceMeters>
          </Trackpoint>
          <Trackpoint>
            <Time>2018-09-13T10:52:59.000Z</Time>
            <Position>
              <LatitudeDegrees>39.33150152675807476043701171875</LatitudeDegrees>
              <LongitudeDegrees>-8.12966362573206424713134765625</LongitudeDegrees>
            </Position>
            <AltitudeMeters>160.1999969482421875</AltitudeMeters>
            <DistanceMeters>69143.554216065</DistanceMeters>
          </Trackpoint>
          <Trackpoint>
            <Time>2018-09-13T10:53:06.000Z</Time>
            <Position>
              <LatitudeDegrees>39.33098218403756618499755859375</LatitudeDegrees>
              <LongitudeDegrees>-8.1294249929487705230712890625</LongitudeDegrees>
            </Position>
            <AltitudeMeters>160.8000030517578125</AltitudeMeters>
            <DistanceMeters>69204.900345271</DistanceMeters>
          </Trackpoint>
          <Trackpoint>
            <Time>2018-09-13T10:53:11.000Z</Time>
            <Position>
              <LatitudeDegrees>39.33059561066329479217529296875</LatitudeDegrees>
              <LongitudeDegrees>-8.12927537597715854644775390625</LongitudeDegrees>
            </Position>
            <AltitudeMeters>160.399993896484375</AltitudeMeters>
            <DistanceMeters>69249.813412706</DistanceMeters>
          </Trackpoint>
          <Trackpoint>
            <Time>2018-09-13T10:53:18.000Z</Time>
            <Position>
              <LatitudeDegrees>39.330048523843288421630859375</LatitudeDegrees>
              <LongitudeDegrees>-8.129195161163806915283203125</LongitudeDegrees>
            </Position>
            <AltitudeMeters>158.399993896484375</AltitudeMeters>
            <DistanceMeters>69311.09555066</DistanceMeters>
          </Trackpoint>
          <Trackpoint>
            <Time>2018-09-13T10:53:20.000Z</Time>
            <Position>
              <LatitudeDegrees>39.32989471592009067535400390625</LatitudeDegrees>
              <LongitudeDegrees>-8.12918585725128650665283203125</LongitudeDegrees>
            </Position>
            <AltitudeMeters>158</AltitudeMeters>
            <DistanceMeters>69328.23332287</DistanceMeters>
          </Trackpoint>
          <Trackpoint>
            <Time>2018-09-13T10:53:28.000Z</Time>
            <Position>
              <LatitudeDegrees>39.32932608760893344879150390625</LatitudeDegrees>
              <LongitudeDegrees>-8.1290672533214092254638671875</LongitudeDegrees>
            </Position>
            <AltitudeMeters>160</AltitudeMeters>
            <DistanceMeters>69392.34115033</DistanceMeters>
          </Trackpoint>
          <Trackpoint>
            <Time>2018-09-13T10:53:37.000Z</Time>
            <Position>
              <LatitudeDegrees>39.3288819305598735809326171875</LatitudeDegrees>
              <LongitudeDegrees>-8.1287906505167484283447265625</LongitudeDegrees>
            </Position>
            <AltitudeMeters>163.1999969482421875</AltitudeMeters>
            <DistanceMeters>69447.213462377</DistanceMeters>
          </Trackpoint>
          <Trackpoint>
            <Time>2018-09-13T10:53:38.000Z</Time>
            <Position>
              <LatitudeDegrees>39.32884530164301395416259765625</LatitudeDegrees>
              <LongitudeDegrees>-8.128752596676349639892578125</LongitudeDegrees>
            </Position>
            <AltitudeMeters>163.8000030517578125</AltitudeMeters>
            <DistanceMeters>69452.44424928</DistanceMeters>
          </Trackpoint>
          <Trackpoint>
            <Time>2018-09-13T10:53:40.000Z</Time>
            <Position>
              <LatitudeDegrees>39.3287813477218151092529296875</LatitudeDegrees>
              <LongitudeDegrees>-8.12867380678653717041015625</LongitudeDegrees>
            </Position>
            <AltitudeMeters>165.1999969482421875</AltitudeMeters>
            <DistanceMeters>69462.276185423</DistanceMeters>
          </Trackpoint>
          <Trackpoint>
            <Time>2018-09-13T10:53:41.000Z</Time>
            <Position>
              <LatitudeDegrees>39.32875226251780986785888671875</LatitudeDegrees>
              <LongitudeDegrees>-8.12863281928002834320068359375</LongitudeDegrees>
            </Position>
            <AltitudeMeters>165.8000030517578125</AltitudeMeters>
            <DistanceMeters>69467.063495108</DistanceMeters>
          </Trackpoint>
          <Trackpoint>
            <Time>2018-09-13T10:53:42.000Z</Time>
            <Position>
              <LatitudeDegrees>39.32872225530445575714111328125</LatitudeDegrees>
              <LongitudeDegrees>-8.1285908259451389312744140625</LongitudeDegrees>
            </Position>
            <AltitudeMeters>166.600006103515625</AltitudeMeters>
            <DistanceMeters>69471.984741395</DistanceMeters>
          </Trackpoint>
          <Trackpoint>
            <Time>2018-09-13T10:53:44.000Z</Time>
            <Position>
              <LatitudeDegrees>39.328659474849700927734375</LatitudeDegrees>
              <LongitudeDegrees>-8.12849703244864940643310546875</LongitudeDegrees>
            </Position>
            <AltitudeMeters>168</AltitudeMeters>
            <DistanceMeters>69482.663308965</DistanceMeters>
          </Trackpoint>
          <Trackpoint>
            <Time>2018-09-13T10:53:49.000Z</Time>
            <Position>
              <LatitudeDegrees>39.3285101093351840972900390625</LatitudeDegrees>
              <LongitudeDegrees>-8.12825412489473819732666015625</LongitudeDegrees>
            </Position>
            <AltitudeMeters>168.8000030517578125</AltitudeMeters>
            <DistanceMeters>69509.379170211</DistanceMeters>
          </Trackpoint>
          <Trackpoint>
            <Time>2018-09-13T10:53:53.000Z</Time>
            <Position>
              <LatitudeDegrees>39.32839167304337024688720703125</LatitudeDegrees>
              <LongitudeDegrees>-8.12805597670376300811767578125</LongitudeDegrees>
            </Position>
            <AltitudeMeters>168.8000030517578125</AltitudeMeters>
            <DistanceMeters>69530.938300405</DistanceMeters>
          </Trackpoint>
          <Trackpoint>
            <Time>2018-09-13T10:53:59.000Z</Time>
            <Position>
              <LatitudeDegrees>39.32821230031549930572509765625</LatitudeDegrees>
              <LongitudeDegrees>-8.1277422420680522918701171875</LongitudeDegrees>
            </Position>
            <AltitudeMeters>170.1999969482421875</AltitudeMeters>
            <DistanceMeters>69564.52671553</DistanceMeters>
          </Trackpoint>
          <Trackpoint>
            <Time>2018-09-13T10:54:01.000Z</Time>
            <Position>
              <LatitudeDegrees>39.3281527049839496612548828125</LatitudeDegrees>
              <LongitudeDegrees>-8.12763788737356662750244140625</LongitudeDegrees>
            </Position>
            <AltitudeMeters>171</AltitudeMeters>
            <DistanceMeters>69575.694679348</DistanceMeters>
          </Trackpoint>
          <Trackpoint>
            <Time>2018-09-13T10:54:09.000Z</Time>
            <Position>
              <LatitudeDegrees>39.32792211882770061492919921875</LatitudeDegrees>
              <LongitudeDegrees>-8.12723203562200069427490234375</LongitudeDegrees>
            </Position>
            <AltitudeMeters>171.600006103515625</AltitudeMeters>
            <DistanceMeters>69619.049153302</DistanceMeters>
          </Trackpoint>
          <Trackpoint>
            <Time>2018-09-13T10:54:15.000Z</Time>
            <Position>
              <LatitudeDegrees>39.32774291373789310455322265625</LatitudeDegrees>
              <LongitudeDegrees>-8.126923330128192901611328125</LongitudeDegrees>
            </Position>
            <AltitudeMeters>173.1999969482421875</AltitudeMeters>
            <DistanceMeters>69652.279167865</DistanceMeters>
          </Trackpoint>
          <Trackpoint>
            <Time>2018-09-13T10:54:22.000Z</Time>
            <Position>
              <LatitudeDegrees>39.327526576817035675048828125</LatitudeDegrees>
              <LongitudeDegrees>-8.1265500001609325408935546875</LongitudeDegrees>
            </Position>
            <AltitudeMeters>174</AltitudeMeters>
            <DistanceMeters>69692.440295017</DistanceMeters>
          </Trackpoint>
          <Trackpoint>
            <Time>2018-09-13T10:54:32.000Z</Time>
            <Position>
              <LatitudeDegrees>39.32718568481504917144775390625</LatitudeDegrees>
              <LongitudeDegrees>-8.12600224278867244720458984375</LongitudeDegrees>
            </Position>
            <AltitudeMeters>174.8000030517578125</AltitudeMeters>
            <DistanceMeters>69752.968358711</DistanceMeters>
          </Trackpoint>
          <Trackpoint>
            <Time>2018-09-13T10:54:42.000Z</Time>
            <Position>
              <LatitudeDegrees>39.32672400958836078643798828125</LatitudeDegrees>
              <LongitudeDegrees>-8.12557845376431941986083984375</LongitudeDegrees>
            </Position>
            <AltitudeMeters>174.8000030517578125</AltitudeMeters>
            <DistanceMeters>69815.990201773</DistanceMeters>
          </Trackpoint>
          <Trackpoint>
            <Time>2018-09-13T10:54:52.000Z</Time>
            <Position>
              <LatitudeDegrees>39.3261497654020786285400390625</LatitudeDegrees>
              <LongitudeDegrees>-8.1253753602504730224609375</LongitudeDegrees>
            </Position>
            <AltitudeMeters>175.399993896484375</AltitudeMeters>
            <DistanceMeters>69882.253536435</DistanceMeters>
          </Trackpoint>
          <Trackpoint>
            <Time>2018-09-13T10:55:01.000Z</Time>
            <Position>
              <LatitudeDegrees>39.32560150511562824249267578125</LatitudeDegrees>
              <LongitudeDegrees>-8.125296570360660552978515625</LongitudeDegrees>
            </Position>
            <AltitudeMeters>174.1999969482421875</AltitudeMeters>
            <DistanceMeters>69943.651898977</DistanceMeters>
          </Trackpoint>
          <Trackpoint>
            <Time>2018-09-13T10:55:10.000Z</Time>
            <Position>
              <LatitudeDegrees>39.32504612021148204803466796875</LatitudeDegrees>
              <LongitudeDegrees>-8.1252246536314487457275390625</LongitudeDegrees>
            </Position>
            <AltitudeMeters>173.600006103515625</AltitudeMeters>
            <DistanceMeters>70005.77662644</DistanceMeters>
          </Trackpoint>
          <Trackpoint>
            <Time>2018-09-13T10:55:11.000Z</Time>
            <Position>
              <LatitudeDegrees>39.32498275302350521087646484375</LatitudeDegrees>
              <LongitudeDegrees>-8.12521970830857753753662109375</LongitudeDegrees>
            </Position>
            <AltitudeMeters>173.8000030517578125</AltitudeMeters>
            <DistanceMeters>70012.842551196</DistanceMeters>
          </Trackpoint>
          <Trackpoint>
            <Time>2018-09-13T10:55:20.000Z</Time>
            <Position>
              <LatitudeDegrees>39.32441823184490203857421875</LatitudeDegrees>
              <LongitudeDegrees>-8.12519758008420467376708984375</LongitudeDegrees>
            </Position>
            <AltitudeMeters>175</AltitudeMeters>
            <DistanceMeters>70075.703854013</DistanceMeters>
          </Trackpoint>
          <Trackpoint>
            <Time>2018-09-13T10:55:29.000Z</Time>
            <Position>
              <LatitudeDegrees>39.3238650262355804443359375</LatitudeDegrees>
              <LongitudeDegrees>-8.1252176128327846527099609375</LongitudeDegrees>
            </Position>
            <AltitudeMeters>176.399993896484375</AltitudeMeters>
            <DistanceMeters>70137.300958975</DistanceMeters>
          </Trackpoint>
          <Trackpoint>
            <Time>2018-09-13T10:55:35.000Z</Time>
            <Position>
              <LatitudeDegrees>39.32348540984094142913818359375</LatitudeDegrees>
              <LongitudeDegrees>-8.12516455538570880889892578125</LongitudeDegrees>
            </Position>
            <AltitudeMeters>176.8000030517578125</AltitudeMeters>
            <DistanceMeters>70179.799259995</DistanceMeters>
          </Trackpoint>
          <Trackpoint>
            <Time>2018-09-13T10:55:44.000Z</Time>
            <Position>
              <LatitudeDegrees>39.32295374572277069091796875</LatitudeDegrees>
              <LongitudeDegrees>-8.1248877011239528656005859375</LongitudeDegrees>
            </Position>
            <AltitudeMeters>176.1999969482421875</AltitudeMeters>
            <DistanceMeters>70243.595386477</DistanceMeters>
          </Trackpoint>
          <Trackpoint>
            <Time>2018-09-13T10:55:53.000Z</Time>
            <Position>
              <LatitudeDegrees>39.32246583513915538787841796875</LatitudeDegrees>
              <LongitudeDegrees>-8.124448992311954498291015625</LongitudeDegrees>
            </Position>
            <AltitudeMeters>176.8000030517578125</AltitudeMeters>
            <DistanceMeters>70309.746198221</DistanceMeters>
          </Trackpoint>
          <Trackpoint>
            <Time>2018-09-13T10:55:54.000Z</Time>
            <Position>
              <LatitudeDegrees>39.3224134482443332672119140625</LatitudeDegrees>
              <LongitudeDegrees>-8.12439995817840099334716796875</LongitudeDegrees>
            </Position>
            <AltitudeMeters>176.8000030517578125</AltitudeMeters>
            <DistanceMeters>70316.945687008</DistanceMeters>
          </Trackpoint>
          <Trackpoint>
            <Time>2018-09-13T10:56:03.000Z</Time>
            <Position>
              <LatitudeDegrees>39.32192134670913219451904296875</LatitudeDegrees>
              <LongitudeDegrees>-8.1239891611039638519287109375</LongitudeDegrees>
            </Position>
            <AltitudeMeters>177.1999969482421875</AltitudeMeters>
            <DistanceMeters>70382.14578645</DistanceMeters>
          </Trackpoint>
          <Trackpoint>
            <Time>2018-09-13T10:56:11.000Z</Time>
            <Position>
              <LatitudeDegrees>39.3214119784533977508544921875</LatitudeDegrees>
              <LongitudeDegrees>-8.12375874258577823638916015625</LongitudeDegrees>
            </Position>
            <AltitudeMeters>177.1999969482421875</AltitudeMeters>
            <DistanceMeters>70442.210788754</DistanceMeters>
          </Trackpoint>
          <Trackpoint>
            <Time>2018-09-13T10:56:19.000Z</Time>
            <Position>
              <LatitudeDegrees>39.32085835374891757965087890625</LatitudeDegrees>
              <LongitudeDegrees>-8.1236659549176692962646484375</LongitudeDegrees>
            </Position>
            <AltitudeMeters>177.8000030517578125</AltitudeMeters>
            <DistanceMeters>70504.346126152</DistanceMeters>
          </Trackpoint>
          <Trackpoint>
            <Time>2018-09-13T10:56:27.000Z</Time>
            <Position>
              <LatitudeDegrees>39.3202851153910160064697265625</LatitudeDegrees>
              <LongitudeDegrees>-8.12376662157475948333740234375</LongitudeDegrees>
            </Position>
            <AltitudeMeters>176.8000030517578125</AltitudeMeters>
            <DistanceMeters>70568.7347721</DistanceMeters>
          </Trackpoint>
          <Trackpoint>
            <Time>2018-09-13T10:56:29.000Z</Time>
            <Position>
              <LatitudeDegrees>39.32014723308384418487548828125</LatitudeDegrees>
              <LongitudeDegrees>-8.12381959520280361175537109375</LongitudeDegrees>
            </Position>
            <AltitudeMeters>176.600006103515625</AltitudeMeters>
            <DistanceMeters>70584.744728998</DistanceMeters>
          </Trackpoint>
          <Trackpoint>
            <Time>2018-09-13T10:56:37.000Z</Time>
            <Position>
              <LatitudeDegrees>39.3195723183453083038330078125</LatitudeDegrees>
              <LongitudeDegrees>-8.12405764125287532806396484375</LongitudeDegrees>
            </Position>
            <AltitudeMeters>175.399993896484375</AltitudeMeters>
            <DistanceMeters>70651.936545683</DistanceMeters>
          </Trackpoint>
          <Trackpoint>
            <Time>2018-09-13T10:56:44.000Z</Time>
            <Position>
              <LatitudeDegrees>39.3190425820648670196533203125</LatitudeDegrees>
              <LongitudeDegrees>-8.1242724694311618804931640625</LongitudeDegrees>
            </Position>
            <AltitudeMeters>176</AltitudeMeters>
            <DistanceMeters>70713.730877105</DistanceMeters>
          </Trackpoint>
          <Trackpoint>
            <Time>2018-09-13T10:56:52.000Z</Time>
            <Position>
              <LatitudeDegrees>39.318511001765727996826171875</LatitudeDegrees>
              <LongitudeDegrees>-8.12447992153465747833251953125</LongitudeDegrees>
            </Position>
            <AltitudeMeters>177.8000030517578125</AltitudeMeters>
            <DistanceMeters>70775.534560212</DistanceMeters>
          </Trackpoint>
          <Trackpoint>
            <Time>2018-09-13T10:57:01.000Z</Time>
            <Position>
              <LatitudeDegrees>39.3180129490792751312255859375</LatitudeDegrees>
              <LongitudeDegrees>-8.12468477524816989898681640625</LongitudeDegrees>
            </Position>
            <AltitudeMeters>180.1999969482421875</AltitudeMeters>
            <DistanceMeters>70833.70767641</DistanceMeters>
          </Trackpoint>
          <Trackpoint>
            <Time>2018-09-13T10:57:05.000Z</Time>
            <Position>
              <LatitudeDegrees>39.3178144656121730804443359375</LatitudeDegrees>
              <LongitudeDegrees>-8.12476473860442638397216796875</LongitudeDegrees>
            </Position>
            <AltitudeMeters>181.1999969482421875</AltitudeMeters>
            <DistanceMeters>70856.847413072</DistanceMeters>
          </Trackpoint>
          <Trackpoint>
            <Time>2018-09-13T10:57:09.000Z</Time>
            <Position>
              <LatitudeDegrees>39.31762553751468658447265625</LatitudeDegrees>
              <LongitudeDegrees>-8.1248389184474945068359375</LongitudeDegrees>
            </Position>
            <AltitudeMeters>182.1999969482421875</AltitudeMeters>
            <DistanceMeters>70878.824279743</DistanceMeters>
          </Trackpoint>
          <Trackpoint>
            <Time>2018-09-13T10:57:15.000Z</Time>
            <Position>
              <LatitudeDegrees>39.31736326776444911956787109375</LatitudeDegrees>
              <LongitudeDegrees>-8.12495291233062744140625</LongitudeDegrees>
            </Position>
            <AltitudeMeters>183.8000030517578125</AltitudeMeters>
            <DistanceMeters>70909.621732712</DistanceMeters>
          </Trackpoint>
          <Trackpoint>
            <Time>2018-09-13T10:57:19.000Z</Time>
            <Position>
              <LatitudeDegrees>39.31719881482422351837158203125</LatitudeDegrees>
              <LongitudeDegrees>-8.1250291876494884490966796875</LongitudeDegrees>
            </Position>
            <AltitudeMeters>184.8000030517578125</AltitudeMeters>
            <DistanceMeters>70929.068340936</DistanceMeters>
          </Trackpoint>
          <Trackpoint>
            <Time>2018-09-13T10:57:23.000Z</Time>
            <Position>
              <LatitudeDegrees>39.31704190559685230255126953125</LatitudeDegrees>
              <LongitudeDegrees>-8.1251093186438083648681640625</LongitudeDegrees>
            </Position>
            <AltitudeMeters>185.8000030517578125</AltitudeMeters>
            <DistanceMeters>70947.846398744</DistanceMeters>
          </Trackpoint>
          <Trackpoint>
            <Time>2018-09-13T10:57:29.000Z</Time>
            <Position>
              <LatitudeDegrees>39.31683336384594440460205078125</LatitudeDegrees>
              <LongitudeDegrees>-8.12521870248019695281982421875</LongitudeDegrees>
            </Position>
            <AltitudeMeters>187.1999969482421875</AltitudeMeters>
            <DistanceMeters>70972.895628109</DistanceMeters>
          </Trackpoint>
          <Trackpoint>
            <Time>2018-09-13T10:57:34.000Z</Time>
            <Position>
              <LatitudeDegrees>39.31667963974177837371826171875</LatitudeDegrees>
              <LongitudeDegrees>-8.12533001415431499481201171875</LongitudeDegrees>
            </Position>
            <AltitudeMeters>188.600006103515625</AltitudeMeters>
            <DistanceMeters>70992.507309475</DistanceMeters>
          </Trackpoint>
          <Trackpoint>
            <Time>2018-09-13T10:57:40.000Z</Time>
            <Position>
              <LatitudeDegrees>39.3164981715381145477294921875</LatitudeDegrees>
              <LongitudeDegrees>-8.12545825727283954620361328125</LongitudeDegrees>
            </Position>
            <AltitudeMeters>190.1999969482421875</AltitudeMeters>
            <DistanceMeters>71015.526930364</DistanceMeters>
          </Trackpoint>
          <Trackpoint>
            <Time>2018-09-13T10:57:43.000Z</Time>
            <Position>
              <LatitudeDegrees>39.3164106644690036773681640625</LatitudeDegrees>
              <LongitudeDegrees>-8.12551978044211864471435546875</LongitudeDegrees>
            </Position>
            <AltitudeMeters>190.8000030517578125</AltitudeMeters>
            <DistanceMeters>71026.613742374</DistanceMeters>
          </Trackpoint>
          <Trackpoint>
            <Time>2018-09-13T10:57:47.000Z</Time>
            <Position>
              <LatitudeDegrees>39.31629373691976070404052734375</LatitudeDegrees>
              <LongitudeDegrees>-8.1255964748561382293701171875</LongitudeDegrees>
            </Position>
            <AltitudeMeters>191.8000030517578125</AltitudeMeters>
            <DistanceMeters>71041.208001968</DistanceMeters>
          </Trackpoint>
          <Trackpoint>
            <Time>2018-09-13T10:57:52.000Z</Time>
            <Position>
              <LatitudeDegrees>39.3161528371274471282958984375</LatitudeDegrees>
              <LongitudeDegrees>-8.12569580040872097015380859375</LongitudeDegrees>
            </Position>
            <AltitudeMeters>193</AltitudeMeters>
            <DistanceMeters>71059.07100231</DistanceMeters>
          </Trackpoint>
          <Trackpoint>
            <Time>2018-09-13T10:57:57.000Z</Time>
            <Position>
              <LatitudeDegrees>39.316013194620609283447265625</LatitudeDegrees>
              <LongitudeDegrees>-8.125790096819400787353515625</LongitudeDegrees>
            </Position>
            <AltitudeMeters>194.1999969482421875</AltitudeMeters>
            <DistanceMeters>71076.606456769</DistanceMeters>
          </Trackpoint>
          <Trackpoint>
            <Time>2018-09-13T10:58:02.000Z</Time>
            <Position>
              <LatitudeDegrees>39.31587112136185169219970703125</LatitudeDegrees>
              <LongitudeDegrees>-8.1258849799633026123046875</LongitudeDegrees>
            </Position>
            <AltitudeMeters>195.399993896484375</AltitudeMeters>
            <DistanceMeters>71094.405647817</DistanceMeters>
          </Trackpoint>
          <Trackpoint>
            <Time>2018-09-13T10:58:09.000Z</Time>
            <Position>
              <LatitudeDegrees>39.31567749939858913421630859375</LatitudeDegrees>
              <LongitudeDegrees>-8.126011379063129425048828125</LongitudeDegrees>
            </Position>
            <AltitudeMeters>197</AltitudeMeters>
            <DistanceMeters>71118.548605473</DistanceMeters>
          </Trackpoint>
          <Trackpoint>
            <Time>2018-09-13T10:58:15.000Z</Time>
            <Position>
              <LatitudeDegrees>39.315508268773555755615234375</LatitudeDegrees>
              <LongitudeDegrees>-8.12612277455627918243408203125</LongitudeDegrees>
            </Position>
            <AltitudeMeters>198.399993896484375</AltitudeMeters>
            <DistanceMeters>71139.686229567</DistanceMeters>
          </Trackpoint>
          <Trackpoint>
            <Time>2018-09-13T10:58:23.000Z</Time>
            <Position>
              <LatitudeDegrees>39.3152817897498607635498046875</LatitudeDegrees>
              <LongitudeDegrees>-8.126278258860111236572265625</LongitudeDegrees>
            </Position>
            <AltitudeMeters>200.1999969482421875</AltitudeMeters>
            <DistanceMeters>71168.22906574</DistanceMeters>
          </Trackpoint>
          <Trackpoint>
            <Time>2018-09-13T10:58:30.000Z</Time>
            <Position>
              <LatitudeDegrees>39.31507852859795093536376953125</LatitudeDegrees>
              <LongitudeDegrees>-8.1264192424714565277099609375</LongitudeDegrees>
            </Position>
            <AltitudeMeters>200.8000030517578125</AltitudeMeters>
            <DistanceMeters>71193.904221836</DistanceMeters>
          </Trackpoint>
          <Trackpoint>
            <Time>2018-09-13T10:58:40.000Z</Time>
            <Position>
              <LatitudeDegrees>39.3147701583802700042724609375</LatitudeDegrees>
              <LongitudeDegrees>-8.12662384472787380218505859375</LongitudeDegrees>
            </Position>
            <AltitudeMeters>201.399993896484375</AltitudeMeters>
            <DistanceMeters>71232.484482726</DistanceMeters>
          </Trackpoint>
          <Trackpoint>
            <Time>2018-09-13T10:58:45.000Z</Time>
            <Position>
              <LatitudeDegrees>39.31459103710949420928955078125</LatitudeDegrees>
              <LongitudeDegrees>-8.12674169428646564483642578125</LongitudeDegrees>
            </Position>
            <AltitudeMeters>201.8000030517578125</AltitudeMeters>
            <DistanceMeters>71254.855151838</DistanceMeters>
          </Trackpoint>
          <Trackpoint>
            <Time>2018-09-13T10:58:46.000Z</Time>
            <Position>
              <LatitudeDegrees>39.31455113925039768218994140625</LatitudeDegrees>
              <LongitudeDegrees>-8.12676466070115566253662109375</LongitudeDegrees>
            </Position>
            <AltitudeMeters>202</AltitudeMeters>
            <DistanceMeters>71259.715468698</DistanceMeters>
          </Trackpoint>
          <Trackpoint>
            <Time>2018-09-13T10:58:47.000Z</Time>
            <Position>
              <LatitudeDegrees>39.314510822296142578125</LatitudeDegrees>
              <LongitudeDegrees>-8.1267867051064968109130859375</LongitudeDegrees>
            </Position>
            <AltitudeMeters>202</AltitudeMeters>
            <DistanceMeters>71264.587847067</DistanceMeters>
          </Trackpoint>
          <Trackpoint>
            <Time>2018-09-13T10:58:48.000Z</Time>
            <Position>
              <LatitudeDegrees>39.31446983478963375091552734375</LatitudeDegrees>
              <LongitudeDegrees>-8.12680925242602825164794921875</LongitudeDegrees>
            </Position>
            <AltitudeMeters>202</AltitudeMeters>
            <DistanceMeters>71269.545655865</DistanceMeters>
          </Trackpoint>
          <Trackpoint>
            <Time>2018-09-13T10:58:49.000Z</Time>
            <Position>
              <LatitudeDegrees>39.31442926637828350067138671875</LatitudeDegrees>
              <LongitudeDegrees>-8.1268344819545745849609375</LongitudeDegrees>
            </Position>
            <AltitudeMeters>201.8000030517578125</AltitudeMeters>
            <DistanceMeters>71274.557808364</DistanceMeters>
          </Trackpoint>
          <Trackpoint>
            <Time>2018-09-13T10:58:50.000Z</Time>
            <Position>
              <LatitudeDegrees>39.3143882788717746734619140625</LatitudeDegrees>
              <LongitudeDegrees>-8.1268614716827869415283203125</LongitudeDegrees>
            </Position>
            <AltitudeMeters>201.8000030517578125</AltitudeMeters>
            <DistanceMeters>71279.678681531</DistanceMeters>
          </Trackpoint>
          <Trackpoint>
            <Time>2018-09-13T10:58:51.000Z</Time>
            <Position>
              <LatitudeDegrees>39.31434628553688526153564453125</LatitudeDegrees>
              <LongitudeDegrees>-8.1268896348774433135986328125</LongitudeDegrees>
            </Position>
            <AltitudeMeters>201.8000030517578125</AltitudeMeters>
            <DistanceMeters>71284.944739332</DistanceMeters>
          </Trackpoint>
          <Trackpoint>
            <Time>2018-09-13T10:58:52.000Z</Time>
            <Position>
              <LatitudeDegrees>39.31430320255458354949951171875</LatitudeDegrees>
              <LongitudeDegrees>-8.12691821716725826263427734375</LongitudeDegrees>
            </Position>
            <AltitudeMeters>201.600006103515625</AltitudeMeters>
            <DistanceMeters>71290.335359518</DistanceMeters>
          </Trackpoint>
          <Trackpoint>
            <Time>2018-09-13T10:58:54.000Z</Time>
            <Position>
              <LatitudeDegrees>39.3142166174948215484619140625</LatitudeDegrees>
              <LongitudeDegrees>-8.1269798241555690765380859375</LongitudeDegrees>
            </Position>
            <AltitudeMeters>201.399993896484375</AltitudeMeters>
            <DistanceMeters>71301.336317863</DistanceMeters>
          </Trackpoint>
          <Trackpoint>
            <Time>2018-09-13T10:58:56.000Z</Time>
            <Position>
              <LatitudeDegrees>39.3141277693212032318115234375</LatitudeDegrees>
              <LongitudeDegrees>-8.12704444862902164459228515625</LongitudeDegrees>
            </Position>
            <AltitudeMeters>201.399993896484375</AltitudeMeters>
            <DistanceMeters>71312.683558057</DistanceMeters>
          </Trackpoint>
          <Trackpoint>
            <Time>2018-09-13T10:59:07.000Z</Time>
            <Position>
              <LatitudeDegrees>39.31360817514359951019287109375</LatitudeDegrees>
              <LongitudeDegrees>-8.12740755267441272735595703125</LongitudeDegrees>
            </Position>
            <AltitudeMeters>200.600006103515625</AltitudeMeters>
            <DistanceMeters>71378.427074616</DistanceMeters>
          </Trackpoint>
          <Trackpoint>
            <Time>2018-09-13T10:59:12.000Z</Time>
            <Position>
              <LatitudeDegrees>39.31335546076297760009765625</LatitudeDegrees>
              <LongitudeDegrees>-8.12757938168942928314208984375</LongitudeDegrees>
            </Position>
            <AltitudeMeters>200.399993896484375</AltitudeMeters>
            <DistanceMeters>71410.209213484</DistanceMeters>
          </Trackpoint>
          <Trackpoint>
            <Time>2018-09-13T10:59:22.000Z</Time>
            <Position>
              <LatitudeDegrees>39.31284047663211822509765625</LatitudeDegrees>
              <LongitudeDegrees>-8.12792412936687469482421875</LongitudeDegrees>
            </Position>
            <AltitudeMeters>200.600006103515625</AltitudeMeters>
            <DistanceMeters>71474.759847051</DistanceMeters>
          </Trackpoint>
          <Trackpoint>
            <Time>2018-09-13T10:59:32.000Z</Time>
            <Position>
              <LatitudeDegrees>39.31232674978673458099365234375</LatitudeDegrees>
              <LongitudeDegrees>-8.1282721459865570068359375</LongitudeDegrees>
            </Position>
            <AltitudeMeters>200.8000030517578125</AltitudeMeters>
            <DistanceMeters>71539.316565606</DistanceMeters>
          </Trackpoint>
          <Trackpoint>
            <Time>2018-09-13T10:59:40.000Z</Time>
            <Position>
              <LatitudeDegrees>39.31189826689660549163818359375</LatitudeDegrees>
              <LongitudeDegrees>-8.128563500940799713134765625</LongitudeDegrees>
            </Position>
            <AltitudeMeters>200.8000030517578125</AltitudeMeters>
            <DistanceMeters>71593.204672857</DistanceMeters>
          </Trackpoint>
          <Trackpoint>
            <Time>2018-09-13T10:59:49.000Z</Time>
            <Position>
              <LatitudeDegrees>39.311395771801471710205078125</LatitudeDegrees>
              <LongitudeDegrees>-8.1289043091237545013427734375</LongitudeDegrees>
            </Position>
            <AltitudeMeters>200.399993896484375</AltitudeMeters>
            <DistanceMeters>71656.366207133</DistanceMeters>
          </Trackpoint>
          <Trackpoint>
            <Time>2018-09-13T10:59:58.000Z</Time>
            <Position>
              <LatitudeDegrees>39.310878105461597442626953125</LatitudeDegrees>
              <LongitudeDegrees>-8.1292511522769927978515625</LongitudeDegrees>
            </Position>
            <AltitudeMeters>199.600006103515625</AltitudeMeters>
            <DistanceMeters>71721.265348543</DistanceMeters>
          </Trackpoint>
          <Trackpoint>
            <Time>2018-09-13T11:00:07.000Z</Time>
            <Position>
              <LatitudeDegrees>39.3103482015430927276611328125</LatitudeDegrees>
              <LongitudeDegrees>-8.129605539143085479736328125</LongitudeDegrees>
            </Position>
            <AltitudeMeters>199</AltitudeMeters>
            <DistanceMeters>71787.672842265</DistanceMeters>
          </Trackpoint>
          <Trackpoint>
            <Time>2018-09-13T11:00:16.000Z</Time>
            <Position>
              <LatitudeDegrees>39.30981620214879512786865234375</LatitudeDegrees>
              <LongitudeDegrees>-8.12996068038046360015869140625</LongitudeDegrees>
            </Position>
            <AltitudeMeters>199</AltitudeMeters>
            <DistanceMeters>71854.317401529</DistanceMeters>
          </Trackpoint>
          <Trackpoint>
            <Time>2018-09-13T11:00:24.000Z</Time>
            <Position>
              <LatitudeDegrees>39.30932535789906978607177734375</LatitudeDegrees>
              <LongitudeDegrees>-8.130293190479278564453125</LongitudeDegrees>
            </Position>
            <AltitudeMeters>199</AltitudeMeters>
            <DistanceMeters>71915.999036138</DistanceMeters>
          </Trackpoint>
          <Trackpoint>
            <Time>2018-09-13T11:00:32.000Z</Time>
            <Position>
              <LatitudeDegrees>39.308824874460697174072265625</LatitudeDegrees>
              <LongitudeDegrees>-8.13062452711164951324462890625</LongitudeDegrees>
            </Position>
            <AltitudeMeters>199.1999969482421875</AltitudeMeters>
            <DistanceMeters>71978.586807318</DistanceMeters>
          </Trackpoint>
          <Trackpoint>
            <Time>2018-09-13T11:00:40.000Z</Time>
            <Position>
              <LatitudeDegrees>39.30831466801464557647705078125</LatitudeDegrees>
              <LongitudeDegrees>-8.1309095956385135650634765625</LongitudeDegrees>
            </Position>
            <AltitudeMeters>199</AltitudeMeters>
            <DistanceMeters>72040.453212428</DistanceMeters>
          </Trackpoint>
          <Trackpoint>
            <Time>2018-09-13T11:00:48.000Z</Time>
            <Position>
              <LatitudeDegrees>39.30778191424906253814697265625</LatitudeDegrees>
              <LongitudeDegrees>-8.13106524758040904998779296875</LongitudeDegrees>
            </Position>
            <AltitudeMeters>198.8000030517578125</AltitudeMeters>
            <DistanceMeters>72101.245954152</DistanceMeters>
          </Trackpoint>
          <Trackpoint>
            <Time>2018-09-13T11:00:56.000Z</Time>
            <Position>
              <LatitudeDegrees>39.3071939237415790557861328125</LatitudeDegrees>
              <LongitudeDegrees>-8.13107966445386409759521484375</LongitudeDegrees>
            </Position>
            <AltitudeMeters>198.1999969482421875</AltitudeMeters>
            <DistanceMeters>72166.702256069</DistanceMeters>
          </Trackpoint>
          <Trackpoint>
            <Time>2018-09-13T11:00:59.000Z</Time>
            <Position>
              <LatitudeDegrees>39.30696752853691577911376953125</LatitudeDegrees>
              <LongitudeDegrees>-8.13106725923717021942138671875</LongitudeDegrees>
            </Position>
            <AltitudeMeters>198</AltitudeMeters>
            <DistanceMeters>72191.923033511</DistanceMeters>
          </Trackpoint>
          <Trackpoint>
            <Time>2018-09-13T11:01:05.000Z</Time>
            <Position>
              <LatitudeDegrees>39.30653016082942485809326171875</LatitudeDegrees>
              <LongitudeDegrees>-8.131061308085918426513671875</LongitudeDegrees>
            </Position>
            <AltitudeMeters>199</AltitudeMeters>
            <DistanceMeters>72240.605563367</DistanceMeters>
          </Trackpoint>
          <Trackpoint>
            <Time>2018-09-13T11:01:12.000Z</Time>
            <Position>
              <LatitudeDegrees>39.30604040622711181640625</LatitudeDegrees>
              <LongitudeDegrees>-8.131041862070560455322265625</LongitudeDegrees>
            </Position>
            <AltitudeMeters>199.8000030517578125</AltitudeMeters>
            <DistanceMeters>72295.142039677</DistanceMeters>
          </Trackpoint>
          <Trackpoint>
            <Time>2018-09-13T11:01:20.000Z</Time>
            <Position>
              <LatitudeDegrees>39.305487535893917083740234375</LatitudeDegrees>
              <LongitudeDegrees>-8.1310229189693927764892578125</LongitudeDegrees>
            </Position>
            <AltitudeMeters>199.8000030517578125</AltitudeMeters>
            <DistanceMeters>72356.699256786</DistanceMeters>
          </Trackpoint>
          <Trackpoint>
            <Time>2018-09-13T11:01:28.000Z</Time>
            <Position>
              <LatitudeDegrees>39.3049412034451961517333984375</LatitudeDegrees>
              <LongitudeDegrees>-8.13101001083850860595703125</LongitudeDegrees>
            </Position>
            <AltitudeMeters>200</AltitudeMeters>
            <DistanceMeters>72417.517244851</DistanceMeters>
          </Trackpoint>
          <Trackpoint>
            <Time>2018-09-13T11:01:37.000Z</Time>
            <Position>
              <LatitudeDegrees>39.30433410219848155975341796875</LatitudeDegrees>
              <LongitudeDegrees>-8.130994252860546112060546875</LongitudeDegrees>
            </Position>
            <AltitudeMeters>199.8000030517578125</AltitudeMeters>
            <DistanceMeters>72485.102419323</DistanceMeters>
          </Trackpoint>
          <Trackpoint>
            <Time>2018-09-13T11:01:46.000Z</Time>
            <Position>
              <LatitudeDegrees>39.30375155992805957794189453125</LatitudeDegrees>
              <LongitudeDegrees>-8.1309806741774082183837890625</LongitudeDegrees>
            </Position>
            <AltitudeMeters>199.1999969482421875</AltitudeMeters>
            <DistanceMeters>72549.951033188</DistanceMeters>
          </Trackpoint>
          <Trackpoint>
            <Time>2018-09-13T11:01:54.000Z</Time>
            <Position>
              <LatitudeDegrees>39.30322048254311084747314453125</LatitudeDegrees>
              <LongitudeDegrees>-8.13095879741013050079345703125</LongitudeDegrees>
            </Position>
            <AltitudeMeters>200</AltitudeMeters>
            <DistanceMeters>72609.090945331</DistanceMeters>
          </Trackpoint>
          <Trackpoint>
            <Time>2018-09-13T11:02:02.000Z</Time>
            <Position>
              <LatitudeDegrees>39.30267716757953166961669921875</LatitudeDegrees>
              <LongitudeDegrees>-8.13094806857407093048095703125</LongitudeDegrees>
            </Position>
            <AltitudeMeters>201.399993896484375</AltitudeMeters>
            <DistanceMeters>72669.57005548</DistanceMeters>
          </Trackpoint>
          <Trackpoint>
            <Time>2018-09-13T11:02:06.000Z</Time>
            <Position>
              <LatitudeDegrees>39.30240693502128124237060546875</LatitudeDegrees>
              <LongitudeDegrees>-8.1309384293854236602783203125</LongitudeDegrees>
            </Position>
            <AltitudeMeters>202.399993896484375</AltitudeMeters>
            <DistanceMeters>72699.658880717</DistanceMeters>
          </Trackpoint>
          <Trackpoint>
            <Time>2018-09-13T11:02:14.000Z</Time>
            <Position>
              <LatitudeDegrees>39.301856495440006256103515625</LatitudeDegrees>
              <LongitudeDegrees>-8.1309206597506999969482421875</LongitudeDegrees>
            </Position>
            <AltitudeMeters>203.600006103515625</AltitudeMeters>
            <DistanceMeters>72760.942934223</DistanceMeters>
          </Trackpoint>
          <Trackpoint>
            <Time>2018-09-13T11:02:23.000Z</Time>
            <Position>
              <LatitudeDegrees>39.30126079358160495758056640625</LatitudeDegrees>
              <LongitudeDegrees>-8.1309028901159763336181640625</LongitudeDegrees>
            </Position>
            <AltitudeMeters>202.1999969482421875</AltitudeMeters>
            <DistanceMeters>72827.263411865</DistanceMeters>
          </Trackpoint>
          <Trackpoint>
            <Time>2018-09-13T11:02:32.000Z</Time>
            <Position>
              <LatitudeDegrees>39.30068881250917911529541015625</LatitudeDegrees>
              <LongitudeDegrees>-8.1308861263096332550048828125</LongitudeDegrees>
            </Position>
            <AltitudeMeters>202</AltitudeMeters>
            <DistanceMeters>72890.942443247</DistanceMeters>
          </Trackpoint>
          <Trackpoint>
            <Time>2018-09-13T11:02:40.000Z</Time>
            <Position>
              <LatitudeDegrees>39.300177097320556640625</LatitudeDegrees>
              <LongitudeDegrees>-8.13086978159844875335693359375</LongitudeDegrees>
            </Position>
            <AltitudeMeters>202.399993896484375</AltitudeMeters>
            <DistanceMeters>72947.914742811</DistanceMeters>
          </Trackpoint>
          <Trackpoint>
            <Time>2018-09-13T11:02:49.000Z</Time>
            <Position>
              <LatitudeDegrees>39.299602098762989044189453125</LatitudeDegrees>
              <LongitudeDegrees>-8.130851425230503082275390625</LongitudeDegrees>
            </Position>
            <AltitudeMeters>203.8000030517578125</AltitudeMeters>
            <DistanceMeters>73011.932710556</DistanceMeters>
          </Trackpoint>
          <Trackpoint>
            <Time>2018-09-13T11:02:50.000Z</Time>
            <Position>
              <LatitudeDegrees>39.2995372228324413299560546875</LatitudeDegrees>
              <LongitudeDegrees>-8.130849413573741912841796875</LongitudeDegrees>
            </Position>
            <AltitudeMeters>204</AltitudeMeters>
            <DistanceMeters>73019.155991091</DistanceMeters>
          </Trackpoint>
          <Trackpoint>
            <Time>2018-09-13T11:02:58.000Z</Time>
            <Position>
              <LatitudeDegrees>39.29902014322578907012939453125</LatitudeDegrees>
              <LongitudeDegrees>-8.13083960674703121185302734375</LongitudeDegrees>
            </Position>
            <AltitudeMeters>204.600006103515625</AltitudeMeters>
            <DistanceMeters>73076.714104208</DistanceMeters>
          </Trackpoint>
          <Trackpoint>
            <Time>2018-09-13T11:03:07.000Z</Time>
            <Position>
              <LatitudeDegrees>39.2984385229647159576416015625</LatitudeDegrees>
              <LongitudeDegrees>-8.13082569278776645660400390625</LongitudeDegrees>
            </Position>
            <AltitudeMeters>205.399993896484375</AltitudeMeters>
            <DistanceMeters>73141.460638157</DistanceMeters>
          </Trackpoint>
          <Trackpoint>
            <Time>2018-09-13T11:03:16.000Z</Time>
            <Position>
              <LatitudeDegrees>39.29786478169262409210205078125</LatitudeDegrees>
              <LongitudeDegrees>-8.130807168781757354736328125</LongitudeDegrees>
            </Position>
            <AltitudeMeters>206.8000030517578125</AltitudeMeters>
            <DistanceMeters>73205.339091199</DistanceMeters>
          </Trackpoint>
          <Trackpoint>
            <Time>2018-09-13T11:03:17.000Z</Time>
            <Position>
              <LatitudeDegrees>39.29780040867626667022705078125</LatitudeDegrees>
              <LongitudeDegrees>-8.1308046542108058929443359375</LongitudeDegrees>
            </Position>
            <AltitudeMeters>206.8000030517578125</AltitudeMeters>
            <DistanceMeters>73212.507154743</DistanceMeters>
          </Trackpoint>
          <Trackpoint>
            <Time>2018-09-13T11:03:26.000Z</Time>
            <Position>
              <LatitudeDegrees>39.29724435321986675262451171875</LatitudeDegrees>
              <LongitudeDegrees>-8.130796439945697784423828125</LongitudeDegrees>
            </Position>
            <AltitudeMeters>206.8000030517578125</AltitudeMeters>
            <DistanceMeters>73274.401286212</DistanceMeters>
          </Trackpoint>
          <Trackpoint>
            <Time>2018-09-13T11:03:31.000Z</Time>
            <Position>
              <LatitudeDegrees>39.29694646038115024566650390625</LatitudeDegrees>
              <LongitudeDegrees>-8.13078814186155796051025390625</LongitudeDegrees>
            </Position>
            <AltitudeMeters>206.8000030517578125</AltitudeMeters>
            <DistanceMeters>73307.565064957</DistanceMeters>
          </Trackpoint>
          <Trackpoint>
            <Time>2018-09-13T11:03:40.000Z</Time>
            <Position>
              <LatitudeDegrees>39.29640431888401508331298828125</LatitudeDegrees>
              <LongitudeDegrees>-8.1307704560458660125732421875</LongitudeDegrees>
            </Position>
            <AltitudeMeters>207.399993896484375</AltitudeMeters>
            <DistanceMeters>73367.925731729</DistanceMeters>
          </Trackpoint>
          <Trackpoint>
            <Time>2018-09-13T11:03:43.000Z</Time>
            <Position>
              <LatitudeDegrees>39.29622226394712924957275390625</LatitudeDegrees>
              <LongitudeDegrees>-8.130765594542026519775390625</LongitudeDegrees>
            </Position>
            <AltitudeMeters>207.600006103515625</AltitudeMeters>
            <DistanceMeters>73388.192949528</DistanceMeters>
          </Trackpoint>
          <Trackpoint>
            <Time>2018-09-13T11:03:52.000Z</Time>
            <Position>
              <LatitudeDegrees>39.2956724949181079864501953125</LatitudeDegrees>
              <LongitudeDegrees>-8.1307546980679035186767578125</LongitudeDegrees>
            </Position>
            <AltitudeMeters>208.1999969482421875</AltitudeMeters>
            <DistanceMeters>73449.390596252</DistanceMeters>
          </Trackpoint>
          <Trackpoint>
            <Time>2018-09-13T11:04:01.000Z</Time>
            <Position>
              <LatitudeDegrees>39.2951310239732265472412109375</LatitudeDegrees>
              <LongitudeDegrees>-8.13073751516640186309814453125</LongitudeDegrees>
            </Position>
            <AltitudeMeters>208.399993896484375</AltitudeMeters>
            <DistanceMeters>73509.675666676</DistanceMeters>
          </Trackpoint>
          <Trackpoint>
            <Time>2018-09-13T11:04:10.000Z</Time>
            <Position>
              <LatitudeDegrees>39.29458444006741046905517578125</LatitudeDegrees>
              <LongitudeDegrees>-8.1307238526642322540283203125</LongitudeDegrees>
            </Position>
            <AltitudeMeters>206.600006103515625</AltitudeMeters>
            <DistanceMeters>73570.522897693</DistanceMeters>
          </Trackpoint>
          <Trackpoint>
            <Time>2018-09-13T11:04:16.000Z</Time>
            <Position>
              <LatitudeDegrees>39.2942234314978122711181640625</LatitudeDegrees>
              <LongitudeDegrees>-8.13071773387491703033447265625</LongitudeDegrees>
            </Position>
            <AltitudeMeters>207.1999969482421875</AltitudeMeters>
            <DistanceMeters>73610.707402045</DistanceMeters>
          </Trackpoint>
          <Trackpoint>
            <Time>2018-09-13T11:04:25.000Z</Time>
            <Position>
              <LatitudeDegrees>39.29368204437196254730224609375</LatitudeDegrees>
              <LongitudeDegrees>-8.1307459808886051177978515625</LongitudeDegrees>
            </Position>
            <AltitudeMeters>208.399993896484375</AltitudeMeters>
            <DistanceMeters>73671.013963446</DistanceMeters>
          </Trackpoint>
          <Trackpoint>
            <Time>2018-09-13T11:04:34.000Z</Time>
            <Position>
              <LatitudeDegrees>39.2931388132274150848388671875</LatitudeDegrees>
              <LongitudeDegrees>-8.13086391426622867584228515625</LongitudeDegrees>
            </Position>
            <AltitudeMeters>207</AltitudeMeters>
            <DistanceMeters>73732.324091983</DistanceMeters>
          </Trackpoint>
          <Trackpoint>
            <Time>2018-09-13T11:04:43.000Z</Time>
            <Position>
              <LatitudeDegrees>39.29260480217635631561279296875</LatitudeDegrees>
              <LongitudeDegrees>-8.1310584582388401031494140625</LongitudeDegrees>
            </Position>
            <AltitudeMeters>206.399993896484375</AltitudeMeters>
            <DistanceMeters>73794.077785583</DistanceMeters>
          </Trackpoint>
          <Trackpoint>
            <Time>2018-09-13T11:04:50.000Z</Time>
            <Position>
              <LatitudeDegrees>39.29218553937971591949462890625</LatitudeDegrees>
              <LongitudeDegrees>-8.131214193999767303466796875</LongitudeDegrees>
            </Position>
            <AltitudeMeters>207.399993896484375</AltitudeMeters>
            <DistanceMeters>73842.632438273</DistanceMeters>
          </Trackpoint>
          <Trackpoint>
            <Time>2018-09-13T11:04:59.000Z</Time>
            <Position>
              <LatitudeDegrees>39.29164222441613674163818359375</LatitudeDegrees>
              <LongitudeDegrees>-8.13133665360510349273681640625</LongitudeDegrees>
            </Position>
            <AltitudeMeters>207.600006103515625</AltitudeMeters>
            <DistanceMeters>73904.01763632</DistanceMeters>
          </Trackpoint>
          <Trackpoint>
            <Time>2018-09-13T11:05:06.000Z</Time>
            <Position>
              <LatitudeDegrees>39.2911989055573940277099609375</LatitudeDegrees>
              <LongitudeDegrees>-8.13135341741144657135009765625</LongitudeDegrees>
            </Position>
            <AltitudeMeters>207.600006103515625</AltitudeMeters>
            <DistanceMeters>73953.381064769</DistanceMeters>
          </Trackpoint>
          <Trackpoint>
            <Time>2018-09-13T11:05:15.000Z</Time>
            <Position>
              <LatitudeDegrees>39.29062767885625362396240234375</LatitudeDegrees>
              <LongitudeDegrees>-8.13126591034233570098876953125</LongitudeDegrees>
            </Position>
            <AltitudeMeters>208.8000030517578125</AltitudeMeters>
            <DistanceMeters>74017.404956564</DistanceMeters>
          </Trackpoint>
          <Trackpoint>
            <Time>2018-09-13T11:05:22.000Z</Time>
            <Position>
              <LatitudeDegrees>39.2901974357664585113525390625</LatitudeDegrees>
              <LongitudeDegrees>-8.1311107613146305084228515625</LongitudeDegrees>
            </Position>
            <AltitudeMeters>210</AltitudeMeters>
            <DistanceMeters>74067.122003588</DistanceMeters>
          </Trackpoint>
          <Trackpoint>
            <Time>2018-09-13T11:05:31.000Z</Time>
            <Position>
              <LatitudeDegrees>39.2896740697324275970458984375</LatitudeDegrees>
              <LongitudeDegrees>-8.13083340413868427276611328125</LongitudeDegrees>
            </Position>
            <AltitudeMeters>210.600006103515625</AltitudeMeters>
            <DistanceMeters>74130.083064555</DistanceMeters>
          </Trackpoint>
          <Trackpoint>
            <Time>2018-09-13T11:05:40.000Z</Time>
            <Position>
              <LatitudeDegrees>39.2891714908182621002197265625</LatitudeDegrees>
              <LongitudeDegrees>-8.130438365042209625244140625</LongitudeDegrees>
            </Position>
            <AltitudeMeters>209</AltitudeMeters>
            <DistanceMeters>74195.558884307</DistanceMeters>
          </Trackpoint>
          <Trackpoint>
            <Time>2018-09-13T11:05:41.000Z</Time>
            <Position>
              <LatitudeDegrees>39.289116002619266510009765625</LatitudeDegrees>
              <LongitudeDegrees>-8.13038564287126064300537109375</LongitudeDegrees>
            </Position>
            <AltitudeMeters>209</AltitudeMeters>
            <DistanceMeters>74203.224896145</DistanceMeters>
          </Trackpoint>
          <Trackpoint>
            <Time>2018-09-13T11:05:49.000Z</Time>
            <Position>
              <LatitudeDegrees>39.2886739410459995269775390625</LatitudeDegrees>
              <LongitudeDegrees>-8.12993318773806095123291015625</LongitudeDegrees>
            </Position>
            <AltitudeMeters>208.8000030517578125</AltitudeMeters>
            <DistanceMeters>74265.994410912</DistanceMeters>
          </Trackpoint>
          <Trackpoint>
            <Time>2018-09-13T11:05:55.000Z</Time>
            <Position>
              <LatitudeDegrees>39.288347549736499786376953125</LatitudeDegrees>
              <LongitudeDegrees>-8.12958936206996440887451171875</LongitudeDegrees>
            </Position>
            <AltitudeMeters>208.399993896484375</AltitudeMeters>
            <DistanceMeters>74312.866476246</DistanceMeters>
          </Trackpoint>
          <Trackpoint>
            <Time>2018-09-13T11:06:03.000Z</Time>
            <Position>
              <LatitudeDegrees>39.28791563026607036590576171875</LatitudeDegrees>
              <LongitudeDegrees>-8.12909147702157497406005859375</LongitudeDegrees>
            </Position>
            <AltitudeMeters>210</AltitudeMeters>
            <DistanceMeters>74377.29178538</DistanceMeters>
          </Trackpoint>
          <Trackpoint>
            <Time>2018-09-13T11:06:11.000Z</Time>
            <Position>
              <LatitudeDegrees>39.28752922452986240386962890625</LatitudeDegrees>
              <LongitudeDegrees>-8.1285137124359607696533203125</LongitudeDegrees>
            </Position>
            <AltitudeMeters>208.600006103515625</AltitudeMeters>
            <DistanceMeters>74443.070729496</DistanceMeters>
          </Trackpoint>
          <Trackpoint>
            <Time>2018-09-13T11:06:16.000Z</Time>
            <Position>
              <LatitudeDegrees>39.28732520900666713714599609375</LatitudeDegrees>
              <LongitudeDegrees>-8.12809620983898639678955078125</LongitudeDegrees>
            </Position>
            <AltitudeMeters>207.399993896484375</AltitudeMeters>
            <DistanceMeters>74485.605136928</DistanceMeters>
          </Trackpoint>
          <Trackpoint>
            <Time>2018-09-13T11:06:24.000Z</Time>
            <Position>
              <LatitudeDegrees>39.28707274608314037322998046875</LatitudeDegrees>
              <LongitudeDegrees>-8.12738508917391300201416015625</LongitudeDegrees>
            </Position>
            <AltitudeMeters>202.8000030517578125</AltitudeMeters>
            <DistanceMeters>74553.002327474</DistanceMeters>
          </Trackpoint>
          <Trackpoint>
            <Time>2018-09-13T11:06:27.000Z</Time>
            <Position>
              <LatitudeDegrees>39.28700183518230915069580078125</LatitudeDegrees>
              <LongitudeDegrees>-8.12710999511182308197021484375</LongitudeDegrees>
            </Position>
            <AltitudeMeters>202</AltitudeMeters>
            <DistanceMeters>74577.980438725</DistanceMeters>
          </Trackpoint>
          <Trackpoint>
            <Time>2018-09-13T11:06:35.000Z</Time>
            <Position>
              <LatitudeDegrees>39.2868832312524318695068359375</LatitudeDegrees>
              <LongitudeDegrees>-8.12633760273456573486328125</LongitudeDegrees>
            </Position>
            <AltitudeMeters>201.600006103515625</AltitudeMeters>
            <DistanceMeters>74645.815803065</DistanceMeters>
          </Trackpoint>
          <Trackpoint>
            <Time>2018-09-13T11:06:39.000Z</Time>
            <Position>
              <LatitudeDegrees>39.2868626117706298828125</LatitudeDegrees>
              <LongitudeDegrees>-8.12594457529485225677490234375</LongitudeDegrees>
            </Position>
            <AltitudeMeters>202.600006103515625</AltitudeMeters>
            <DistanceMeters>74679.75138482</DistanceMeters>
          </Trackpoint>
          <Trackpoint>
            <Time>2018-09-13T11:06:46.000Z</Time>
            <Position>
              <LatitudeDegrees>39.28687660954892635345458984375</LatitudeDegrees>
              <LongitudeDegrees>-8.125243596732616424560546875</LongitudeDegrees>
            </Position>
            <AltitudeMeters>204.399993896484375</AltitudeMeters>
            <DistanceMeters>74740.158036691</DistanceMeters>
          </Trackpoint>
          <Trackpoint>
            <Time>2018-09-13T11:06:52.000Z</Time>
            <Position>
              <LatitudeDegrees>39.2869063653051853179931640625</LatitudeDegrees>
              <LongitudeDegrees>-8.1246364116668701171875</LongitudeDegrees>
            </Position>
            <AltitudeMeters>206</AltitudeMeters>
            <DistanceMeters>74792.569383308</DistanceMeters>
          </Trackpoint>
          <Trackpoint>
            <Time>2018-09-13T11:07:00.000Z</Time>
            <Position>
              <LatitudeDegrees>39.286946095526218414306640625</LatitudeDegrees>
              <LongitudeDegrees>-8.12386804260313510894775390625</LongitudeDegrees>
            </Position>
            <AltitudeMeters>207.399993896484375</AltitudeMeters>
            <DistanceMeters>74858.908920359</DistanceMeters>
          </Trackpoint>
          <Trackpoint>
            <Time>2018-09-13T11:07:08.000Z</Time>
            <Position>
              <LatitudeDegrees>39.28699311800301074981689453125</LatitudeDegrees>
              <LongitudeDegrees>-8.123163878917694091796875</LongitudeDegrees>
            </Position>
            <AltitudeMeters>207.1999969482421875</AltitudeMeters>
            <DistanceMeters>74919.795169567</DistanceMeters>
          </Trackpoint>
          <Trackpoint>
            <Time>2018-09-13T11:07:16.000Z</Time>
            <Position>
              <LatitudeDegrees>39.28702262230217456817626953125</LatitudeDegrees>
              <LongitudeDegrees>-8.122464828193187713623046875</LongitudeDegrees>
            </Position>
            <AltitudeMeters>206</AltitudeMeters>
            <DistanceMeters>74980.105025075</DistanceMeters>
          </Trackpoint>
          <Trackpoint>
            <Time>2018-09-13T11:07:19.000Z</Time>
            <Position>
              <LatitudeDegrees>39.28703402169048786163330078125</LatitudeDegrees>
              <LongitudeDegrees>-8.12220591120421886444091796875</LongitudeDegrees>
            </Position>
            <AltitudeMeters>206.600006103515625</AltitudeMeters>
            <DistanceMeters>75002.445399402</DistanceMeters>
          </Trackpoint>
          <Trackpoint>
            <Time>2018-09-13T11:07:28.000Z</Time>
            <Position>
              <LatitudeDegrees>39.2870797030627727508544921875</LatitudeDegrees>
              <LongitudeDegrees>-8.1214581616222858428955078125</LongitudeDegrees>
            </Position>
            <AltitudeMeters>207.600006103515625</AltitudeMeters>
            <DistanceMeters>75067.061189462</DistanceMeters>
          </Trackpoint>
          <Trackpoint>
            <Time>2018-09-13T11:07:35.000Z</Time>
            <Position>
              <LatitudeDegrees>39.28710895590484142303466796875</LatitudeDegrees>
              <LongitudeDegrees>-8.120887689292430877685546875</LongitudeDegrees>
            </Position>
            <AltitudeMeters>207.600006103515625</AltitudeMeters>
            <DistanceMeters>75116.312720553</DistanceMeters>
          </Trackpoint>
          <Trackpoint>
            <Time>2018-09-13T11:07:37.000Z</Time>
            <Position>
              <LatitudeDegrees>39.28711817599833011627197265625</LatitudeDegrees>
              <LongitudeDegrees>-8.1207217276096343994140625</LongitudeDegrees>
            </Position>
            <AltitudeMeters>207.8000030517578125</AltitudeMeters>
            <DistanceMeters>75130.646642882</DistanceMeters>
          </Trackpoint>
          <Trackpoint>
            <Time>2018-09-13T11:07:46.000Z</Time>
            <Position>
              <LatitudeDegrees>39.287149272859096527099609375</LatitudeDegrees>
              <LongitudeDegrees>-8.119980432093143463134765625</LongitudeDegrees>
            </Position>
            <AltitudeMeters>209.8000030517578125</AltitudeMeters>
            <DistanceMeters>75194.59990405</DistanceMeters>
          </Trackpoint>
          <Trackpoint>
            <Time>2018-09-13T11:07:51.000Z</Time>
            <Position>
              <LatitudeDegrees>39.28716813214123249053955078125</LatitudeDegrees>
              <LongitudeDegrees>-8.1195715628564357757568359375</LongitudeDegrees>
            </Position>
            <AltitudeMeters>209.8000030517578125</AltitudeMeters>
            <DistanceMeters>75229.884642389</DistanceMeters>
          </Trackpoint>
          <Trackpoint>
            <Time>2018-09-13T11:07:57.000Z</Time>
            <Position>
              <LatitudeDegrees>39.28719076327979564666748046875</LatitudeDegrees>
              <LongitudeDegrees>-8.1190907768905162811279296875</LongitudeDegrees>
            </Position>
            <AltitudeMeters>210.1999969482421875</AltitudeMeters>
            <DistanceMeters>75271.378794695</DistanceMeters>
          </Trackpoint>
          <Trackpoint>
            <Time>2018-09-13T11:08:06.000Z</Time>
            <Position>
              <LatitudeDegrees>39.28722697310149669647216796875</LatitudeDegrees>
              <LongitudeDegrees>-8.11835526488721370697021484375</LongitudeDegrees>
            </Position>
            <AltitudeMeters>209.8000030517578125</AltitudeMeters>
            <DistanceMeters>75334.868090434</DistanceMeters>
          </Trackpoint>
          <Trackpoint>
            <Time>2018-09-13T11:08:07.000Z</Time>
            <Position>
              <LatitudeDegrees>39.2872319184243679046630859375</LatitudeDegrees>
              <LongitudeDegrees>-8.11827245168387889862060546875</LongitudeDegrees>
            </Position>
            <AltitudeMeters>210</AltitudeMeters>
            <DistanceMeters>75342.022283141</DistanceMeters>
          </Trackpoint>
          <Trackpoint>
            <Time>2018-09-13T11:08:16.000Z</Time>
            <Position>
              <LatitudeDegrees>39.2872636020183563232421875</LatitudeDegrees>
              <LongitudeDegrees>-8.11751020140945911407470703125</LongitudeDegrees>
            </Position>
            <AltitudeMeters>211.1999969482421875</AltitudeMeters>
            <DistanceMeters>75407.781456091</DistanceMeters>
          </Trackpoint>
          <Trackpoint>
            <Time>2018-09-13T11:08:25.000Z</Time>
            <Position>
              <LatitudeDegrees>39.2872969619929790496826171875</LatitudeDegrees>
              <LongitudeDegrees>-8.11673906631767749786376953125</LongitudeDegrees>
            </Position>
            <AltitudeMeters>207.399993896484375</AltitudeMeters>
            <DistanceMeters>75474.314951522</DistanceMeters>
          </Trackpoint>
          <Trackpoint>
            <Time>2018-09-13T11:08:29.000Z</Time>
            <Position>
              <LatitudeDegrees>39.28731498308479785919189453125</LatitudeDegrees>
              <LongitudeDegrees>-8.1163921393454074859619140625</LongitudeDegrees>
            </Position>
            <AltitudeMeters>206.600006103515625</AltitudeMeters>
            <DistanceMeters>75504.268421025</DistanceMeters>
          </Trackpoint>
          <Trackpoint>
            <Time>2018-09-13T11:08:35.000Z</Time>
            <Position>
              <LatitudeDegrees>39.2873070202767848968505859375</LatitudeDegrees>
              <LongitudeDegrees>-8.115852177143096923828125</LongitudeDegrees>
            </Position>
            <AltitudeMeters>206.600006103515625</AltitudeMeters>
            <DistanceMeters>75550.7921262</DistanceMeters>
          </Trackpoint>
          <Trackpoint>
            <Time>2018-09-13T11:08:43.000Z</Time>
            <Position>
              <LatitudeDegrees>39.2872225306928157806396484375</LatitudeDegrees>
              <LongitudeDegrees>-8.1150899268686771392822265625</LongitudeDegrees>
            </Position>
            <AltitudeMeters>204.600006103515625</AltitudeMeters>
            <DistanceMeters>75617.126490524</DistanceMeters>
          </Trackpoint>
          <Trackpoint>
            <Time>2018-09-13T11:08:50.000Z</Time>
            <Position>
              <LatitudeDegrees>39.287083558738231658935546875</LatitudeDegrees>
              <LongitudeDegrees>-8.11439816839993000030517578125</LongitudeDegrees>
            </Position>
            <AltitudeMeters>203.600006103515625</AltitudeMeters>
            <DistanceMeters>75678.693242007</DistanceMeters>
          </Trackpoint>
          <Trackpoint>
            <Time>2018-09-13T11:08:52.000Z</Time>
            <Position>
              <LatitudeDegrees>39.287037290632724761962890625</LatitudeDegrees>
              <LongitudeDegrees>-8.11420002020895481109619140625</LongitudeDegrees>
            </Position>
            <AltitudeMeters>203.600006103515625</AltitudeMeters>
            <DistanceMeters>75696.522846914</DistanceMeters>
          </Trackpoint>
          <Trackpoint>
            <Time>2018-09-13T11:08:59.000Z</Time>
            <Position>
              <LatitudeDegrees>39.28686688654124736785888671875</LatitudeDegrees>
              <LongitudeDegrees>-8.1135017238557338714599609375</LongitudeDegrees>
            </Position>
            <AltitudeMeters>202</AltitudeMeters>
            <DistanceMeters>75759.597396766</DistanceMeters>
          </Trackpoint>
          <Trackpoint>
            <Time>2018-09-13T11:09:06.000Z</Time>
            <Position>
              <LatitudeDegrees>39.28669388405978679656982421875</LatitudeDegrees>
              <LongitudeDegrees>-8.11277191154658794403076171875</LongitudeDegrees>
            </Position>
            <AltitudeMeters>200.399993896484375</AltitudeMeters>
            <DistanceMeters>75825.35052734</DistanceMeters>
          </Trackpoint>
          <Trackpoint>
            <Time>2018-09-13T11:09:08.000Z</Time>
            <Position>
              <LatitudeDegrees>39.28664526902139186859130859375</LatitudeDegrees>
              <LongitudeDegrees>-8.11256839893758296966552734375</LongitudeDegrees>
            </Position>
            <AltitudeMeters>200.8000030517578125</AltitudeMeters>
            <DistanceMeters>75843.698313306</DistanceMeters>
          </Trackpoint>
          <Trackpoint>
            <Time>2018-09-13T11:09:14.000Z</Time>
            <Position>
              <LatitudeDegrees>39.2865013517439365386962890625</LatitudeDegrees>
              <LongitudeDegrees>-8.11196942813694477081298828125</LongitudeDegrees>
            </Position>
            <AltitudeMeters>200</AltitudeMeters>
            <DistanceMeters>75897.72666245</DistanceMeters>
          </Trackpoint>
          <Trackpoint>
            <Time>2018-09-13T11:09:21.000Z</Time>
            <Position>
              <LatitudeDegrees>39.28633782081305980682373046875</LatitudeDegrees>
              <LongitudeDegrees>-8.1112775020301342010498046875</LongitudeDegrees>
            </Position>
            <AltitudeMeters>198.399993896484375</AltitudeMeters>
            <DistanceMeters>75960.050713846</DistanceMeters>
          </Trackpoint>
          <Trackpoint>
            <Time>2018-09-13T11:09:28.000Z</Time>
            <Position>
              <LatitudeDegrees>39.286168925464153289794921875</LatitudeDegrees>
              <LongitudeDegrees>-8.1105673871934413909912109375</LongitudeDegrees>
            </Position>
            <AltitudeMeters>197.1999969482421875</AltitudeMeters>
            <DistanceMeters>76024.048013647</DistanceMeters>
          </Trackpoint>
          <Trackpoint>
            <Time>2018-09-13T11:09:30.000Z</Time>
            <Position>
              <LatitudeDegrees>39.28611821494996547698974609375</LatitudeDegrees>
              <LongitudeDegrees>-8.11035825870931148529052734375</LongitudeDegrees>
            </Position>
            <AltitudeMeters>197</AltitudeMeters>
            <DistanceMeters>76042.92702626</DistanceMeters>
          </Trackpoint>
          <Trackpoint>
            <Time>2018-09-13T11:09:36.000Z</Time>
            <Position>
              <LatitudeDegrees>39.28595996461808681488037109375</LatitudeDegrees>
              <LongitudeDegrees>-8.109708912670612335205078125</LongitudeDegrees>
            </Position>
            <AltitudeMeters>194.399993896484375</AltitudeMeters>
            <DistanceMeters>76101.573754442</DistanceMeters>
          </Trackpoint>
          <Trackpoint>
            <Time>2018-09-13T11:09:39.000Z</Time>
            <Position>
              <LatitudeDegrees>39.28588285110890865325927734375</LatitudeDegrees>
              <LongitudeDegrees>-8.1093664281070232391357421875</LongitudeDegrees>
            </Position>
            <AltitudeMeters>193.399993896484375</AltitudeMeters>
            <DistanceMeters>76132.30075678</DistanceMeters>
          </Trackpoint>
          <Trackpoint>
            <Time>2018-09-13T11:09:45.000Z</Time>
            <Position>
              <LatitudeDegrees>39.285720996558666229248046875</LatitudeDegrees>
              <LongitudeDegrees>-8.10866896994411945343017578125</LongitudeDegrees>
            </Position>
            <AltitudeMeters>192</AltitudeMeters>
            <DistanceMeters>76195.027458341</DistanceMeters>
          </Trackpoint>
          <Trackpoint>
            <Time>2018-09-13T11:09:46.000Z</Time>
            <Position>
              <LatitudeDegrees>39.28569375537335872650146484375</LatitudeDegrees>
              <LongitudeDegrees>-8.10855313204228878021240234375</LongitudeDegrees>
            </Position>
            <AltitudeMeters>192</AltitudeMeters>
            <DistanceMeters>76205.457046101</DistanceMeters>
          </Trackpoint>
          <Trackpoint>
            <Time>2018-09-13T11:09:48.000Z</Time>
            <Position>
              <LatitudeDegrees>39.28563977591693401336669921875</LatitudeDegrees>
              <LongitudeDegrees>-8.1083196960389614105224609375</LongitudeDegrees>
            </Position>
            <AltitudeMeters>192</AltitudeMeters>
            <DistanceMeters>76226.445261582</DistanceMeters>
          </Trackpoint>
          <Trackpoint>
            <Time>2018-09-13T11:09:50.000Z</Time>
            <Position>
              <LatitudeDegrees>39.2855837009847164154052734375</LatitudeDegrees>
              <LongitudeDegrees>-8.1080836616456508636474609375</LongitudeDegrees>
            </Position>
            <AltitudeMeters>191.399993896484375</AltitudeMeters>
            <DistanceMeters>76247.715331162</DistanceMeters>
          </Trackpoint>
          <Trackpoint>
            <Time>2018-09-13T11:09:52.000Z</Time>
            <Position>
              <LatitudeDegrees>39.2855267040431499481201171875</LatitudeDegrees>
              <LongitudeDegrees>-8.1078462861478328704833984375</LongitudeDegrees>
            </Position>
            <AltitudeMeters>191</AltitudeMeters>
            <DistanceMeters>76269.12567447</DistanceMeters>
          </Trackpoint>
          <Trackpoint>
            <Time>2018-09-13T11:09:55.000Z</Time>
            <Position>
              <LatitudeDegrees>39.285438358783721923828125</LatitudeDegrees>
              <LongitudeDegrees>-8.10748569667339324951171875</LongitudeDegrees>
            </Position>
            <AltitudeMeters>190.1999969482421875</AltitudeMeters>
            <DistanceMeters>76301.708615212</DistanceMeters>
          </Trackpoint>
          <Trackpoint>
            <Time>2018-09-13T11:09:57.000Z</Time>
            <Position>
              <LatitudeDegrees>39.28537842817604541778564453125</LatitudeDegrees>
              <LongitudeDegrees>-8.10724153183400630950927734375</LongitudeDegrees>
            </Position>
            <AltitudeMeters>189.600006103515625</AltitudeMeters>
            <DistanceMeters>76323.775283337</DistanceMeters>
          </Trackpoint>
          <Trackpoint>
            <Time>2018-09-13T11:10:02.000Z</Time>
            <Position>
              <LatitudeDegrees>39.285229146480560302734375</LatitudeDegrees>
              <LongitudeDegrees>-8.10661154799163341522216796875</LongitudeDegrees>
            </Position>
            <AltitudeMeters>187.1999969482421875</AltitudeMeters>
            <DistanceMeters>76380.533682643</DistanceMeters>
          </Trackpoint>
          <Trackpoint>
            <Time>2018-09-13T11:10:04.000Z</Time>
            <Position>
              <LatitudeDegrees>39.285167120397090911865234375</LatitudeDegrees>
              <LongitudeDegrees>-8.10635380446910858154296875</LongitudeDegrees>
            </Position>
            <AltitudeMeters>186</AltitudeMeters>
            <DistanceMeters>76403.786313831</DistanceMeters>
          </Trackpoint>
          <Trackpoint>
            <Time>2018-09-13T11:10:09.000Z</Time>
            <Position>
              <LatitudeDegrees>39.2850105464458465576171875</LatitudeDegrees>
              <LongitudeDegrees>-8.10570378787815570831298828125</LongitudeDegrees>
            </Position>
            <AltitudeMeters>180.1999969482421875</AltitudeMeters>
            <DistanceMeters>76462.433195987</DistanceMeters>
          </Trackpoint>
          <Trackpoint>
            <Time>2018-09-13T11:10:11.000Z</Time>
            <Position>
              <LatitudeDegrees>39.2849488556385040283203125</LatitudeDegrees>
              <LongitudeDegrees>-8.1054420210421085357666015625</LongitudeDegrees>
            </Position>
            <AltitudeMeters>177.399993896484375</AltitudeMeters>
            <DistanceMeters>76486.006142645</DistanceMeters>
          </Trackpoint>
          <Trackpoint>
            <Time>2018-09-13T11:10:13.000Z</Time>
            <Position>
              <LatitudeDegrees>39.2848853208124637603759765625</LatitudeDegrees>
              <LongitudeDegrees>-8.10518209822475910186767578125</LongitudeDegrees>
            </Position>
            <AltitudeMeters>176.1999969482421875</AltitudeMeters>
            <DistanceMeters>76509.488318608</DistanceMeters>
          </Trackpoint>
          <Trackpoint>
            <Time>2018-09-13T11:10:15.000Z</Time>
            <Position>
              <LatitudeDegrees>39.28482153452932834625244140625</LatitudeDegrees>
              <LongitudeDegrees>-8.10492343269288539886474609375</LongitudeDegrees>
            </Position>
            <AltitudeMeters>174</AltitudeMeters>
            <DistanceMeters>76532.875703891</DistanceMeters>
          </Trackpoint>
          <Trackpoint>
            <Time>2018-09-13T11:10:17.000Z</Time>
            <Position>
              <LatitudeDegrees>39.284757077693939208984375</LatitudeDegrees>
              <LongitudeDegrees>-8.10466359369456768035888671875</LongitudeDegrees>
            </Position>
            <AltitudeMeters>172.600006103515625</AltitudeMeters>
            <DistanceMeters>76556.382094035</DistanceMeters>
          </Trackpoint>
          <Trackpoint>
            <Time>2018-09-13T11:10:19.000Z</Time>
            <Position>
              <LatitudeDegrees>39.28469664417207241058349609375</LatitudeDegrees>
              <LongitudeDegrees>-8.1044031679630279541015625</LongitudeDegrees>
            </Position>
            <AltitudeMeters>173.399993896484375</AltitudeMeters>
            <DistanceMeters>76579.804010568</DistanceMeters>
          </Trackpoint>
          <Trackpoint>
            <Time>2018-09-13T11:10:21.000Z</Time>
            <Position>
              <LatitudeDegrees>39.28463545627892017364501953125</LatitudeDegrees>
              <LongitudeDegrees>-8.104146681725978851318359375</LongitudeDegrees>
            </Position>
            <AltitudeMeters>173</AltitudeMeters>
            <DistanceMeters>76602.925593898</DistanceMeters>
          </Trackpoint>
          <Trackpoint>
            <Time>2018-09-13T11:10:25.000Z</Time>
            <Position>
              <LatitudeDegrees>39.28451827727258205413818359375</LatitudeDegrees>
              <LongitudeDegrees>-8.103647790849208831787109375</LongitudeDegrees>
            </Position>
            <AltitudeMeters>174.1999969482421875</AltitudeMeters>
            <DistanceMeters>76647.839767132</DistanceMeters>
          </Trackpoint>
          <Trackpoint>
            <Time>2018-09-13T11:10:31.000Z</Time>
            <Position>
              <LatitudeDegrees>39.2843518964946269989013671875</LatitudeDegrees>
              <LongitudeDegrees>-8.10294111259281635284423828125</LongitudeDegrees>
            </Position>
            <AltitudeMeters>175.8000030517578125</AltitudeMeters>
            <DistanceMeters>76711.473617236</DistanceMeters>
          </Trackpoint>
          <Trackpoint>
            <Time>2018-09-13T11:10:33.000Z</Time>
            <Position>
              <LatitudeDegrees>39.28430085070431232452392578125</LatitudeDegrees>
              <LongitudeDegrees>-8.102725446224212646484375</LongitudeDegrees>
            </Position>
            <AltitudeMeters>176.1999969482421875</AltitudeMeters>
            <DistanceMeters>76730.902339672</DistanceMeters>
          </Trackpoint>
          <Trackpoint>
            <Time>2018-09-13T11:10:38.000Z</Time>
            <Position>
              <LatitudeDegrees>39.28418098948895931243896484375</LatitudeDegrees>
              <LongitudeDegrees>-8.10222881846129894256591796875</LongitudeDegrees>
            </Position>
            <AltitudeMeters>178</AltitudeMeters>
            <DistanceMeters>76775.718292219</DistanceMeters>
          </Trackpoint>
          <Trackpoint>
            <Time>2018-09-13T11:10:40.000Z</Time>
            <Position>
              <LatitudeDegrees>39.28413270972669124603271484375</LatitudeDegrees>
              <LongitudeDegrees>-8.1020393036305904388427734375</LongitudeDegrees>
            </Position>
            <AltitudeMeters>179</AltitudeMeters>
            <DistanceMeters>76792.90683611</DistanceMeters>
          </Trackpoint>
          <Trackpoint>
            <Time>2018-09-13T11:10:45.000Z</Time>
            <Position>
              <LatitudeDegrees>39.28402014076709747314453125</LatitudeDegrees>
              <LongitudeDegrees>-8.10157821513712406158447265625</LongitudeDegrees>
            </Position>
            <AltitudeMeters>181.600006103515625</AltitudeMeters>
            <DistanceMeters>76834.558466167</DistanceMeters>
          </Trackpoint>
          <Trackpoint>
            <Time>2018-09-13T11:10:50.000Z</Time>
            <Position>
              <LatitudeDegrees>39.283908493816852569580078125</LatitudeDegrees>
              <LongitudeDegrees>-8.10112911276519298553466796875</LongitudeDegrees>
            </Position>
            <AltitudeMeters>180.1999969482421875</AltitudeMeters>
            <DistanceMeters>76875.195138144</DistanceMeters>
          </Trackpoint>
          <Trackpoint>
            <Time>2018-09-13T11:10:51.000Z</Time>
            <Position>
              <LatitudeDegrees>39.28388644941151142120361328125</LatitudeDegrees>
              <LongitudeDegrees>-8.101038672029972076416015625</LongitudeDegrees>
            </Position>
            <AltitudeMeters>179.8000030517578125</AltitudeMeters>
            <DistanceMeters>76883.363567298</DistanceMeters>
          </Trackpoint>
          <Trackpoint>
            <Time>2018-09-13T11:10:54.000Z</Time>
            <Position>
              <LatitudeDegrees>39.28382157348096370697021484375</LatitudeDegrees>
              <LongitudeDegrees>-8.10076433233916759490966796875</LongitudeDegrees>
            </Position>
            <AltitudeMeters>179.8000030517578125</AltitudeMeters>
            <DistanceMeters>76908.076360141</DistanceMeters>
          </Trackpoint>
          <Trackpoint>
            <Time>2018-09-13T11:11:00.000Z</Time>
            <Position>
              <LatitudeDegrees>39.28368863649666309356689453125</LatitudeDegrees>
              <LongitudeDegrees>-8.10022923164069652557373046875</LongitudeDegrees>
            </Position>
            <AltitudeMeters>182</AltitudeMeters>
            <DistanceMeters>76956.49151524</DistanceMeters>
          </Trackpoint>
          <Trackpoint>
            <Time>2018-09-13T11:11:08.000Z</Time>
            <Position>
              <LatitudeDegrees>39.28352552466094493865966796875</LatitudeDegrees>
              <LongitudeDegrees>-8.09954694472253322601318359375</LongitudeDegrees>
            </Position>
            <AltitudeMeters>185.399993896484375</AltitudeMeters>
            <DistanceMeters>77018.010433292</DistanceMeters>
          </Trackpoint>
          <Trackpoint>
            <Time>2018-09-13T11:11:09.000Z</Time>
            <Position>
              <LatitudeDegrees>39.28350641392171382904052734375</LatitudeDegrees>
              <LongitudeDegrees>-8.09946346096694469451904296875</LongitudeDegrees>
            </Position>
            <AltitudeMeters>185.8000030517578125</AltitudeMeters>
            <DistanceMeters>77025.510925026</DistanceMeters>
          </Trackpoint>
          <Trackpoint>
            <Time>2018-09-13T11:11:18.000Z</Time>
            <Position>
              <LatitudeDegrees>39.2833314836025238037109375</LatitudeDegrees>
              <LongitudeDegrees>-8.0987230874598026275634765625</LongitudeDegrees>
            </Position>
            <AltitudeMeters>185.1999969482421875</AltitudeMeters>
            <DistanceMeters>77092.199912195</DistanceMeters>
          </Trackpoint>
          <Trackpoint>
            <Time>2018-09-13T11:11:27.000Z</Time>
            <Position>
              <LatitudeDegrees>39.28316024132072925567626953125</LatitudeDegrees>
              <LongitudeDegrees>-8.09798355214297771453857421875</LongitudeDegrees>
            </Position>
            <AltitudeMeters>180.600006103515625</AltitudeMeters>
            <DistanceMeters>77158.701097882</DistanceMeters>
          </Trackpoint>
          <Trackpoint>
            <Time>2018-09-13T11:11:35.000Z</Time>
            <Position>
              <LatitudeDegrees>39.2829967103898525238037109375</LatitudeDegrees>
              <LongitudeDegrees>-8.09731735847890377044677734375</LongitudeDegrees>
            </Position>
            <AltitudeMeters>178.8000030517578125</AltitudeMeters>
            <DistanceMeters>77218.911151939</DistanceMeters>
          </Trackpoint>
          <Trackpoint>
            <Time>2018-09-13T11:11:38.000Z</Time>
            <Position>
              <LatitudeDegrees>39.28293745033442974090576171875</LatitudeDegrees>
              <LongitudeDegrees>-8.097061626613140106201171875</LongitudeDegrees>
            </Position>
            <AltitudeMeters>179.399993896484375</AltitudeMeters>
            <DistanceMeters>77241.908794804</DistanceMeters>
          </Trackpoint>
          <Trackpoint>
            <Time>2018-09-13T11:11:46.000Z</Time>
            <Position>
              <LatitudeDegrees>39.282781966030597686767578125</LatitudeDegrees>
              <LongitudeDegrees>-8.09637322090566158294677734375</LongitudeDegrees>
            </Position>
            <AltitudeMeters>181.1999969482421875</AltitudeMeters>
            <DistanceMeters>77303.68902296</DistanceMeters>
          </Trackpoint>
          <Trackpoint>
            <Time>2018-09-13T11:11:54.000Z</Time>
            <Position>
              <LatitudeDegrees>39.28261608816683292388916015625</LatitudeDegrees>
              <LongitudeDegrees>-8.09569193981587886810302734375</LongitudeDegrees>
            </Position>
            <AltitudeMeters>183.399993896484375</AltitudeMeters>
            <DistanceMeters>77365.217554702</DistanceMeters>
          </Trackpoint>
          <Trackpoint>
            <Time>2018-09-13T11:12:02.000Z</Time>
            <Position>
              <LatitudeDegrees>39.28245968185365200042724609375</LatitudeDegrees>
              <LongitudeDegrees>-8.095025829970836639404296875</LongitudeDegrees>
            </Position>
            <AltitudeMeters>183</AltitudeMeters>
            <DistanceMeters>77425.186263242</DistanceMeters>
          </Trackpoint>
          <Trackpoint>
            <Time>2018-09-13T11:12:11.000Z</Time>
            <Position>
              <LatitudeDegrees>39.2822855897247791290283203125</LatitudeDegrees>
              <LongitudeDegrees>-8.09429367072880268096923828125</LongitudeDegrees>
            </Position>
            <AltitudeMeters>183.600006103515625</AltitudeMeters>
            <DistanceMeters>77491.172104829</DistanceMeters>
          </Trackpoint>
          <Trackpoint>
            <Time>2018-09-13T11:12:15.000Z</Time>
            <Position>
              <LatitudeDegrees>39.282208979129791259765625</LatitudeDegrees>
              <LongitudeDegrees>-8.09397046454250812530517578125</LongitudeDegrees>
            </Position>
            <AltitudeMeters>184</AltitudeMeters>
            <DistanceMeters>77520.293258121</DistanceMeters>
          </Trackpoint>
          <Trackpoint>
            <Time>2018-09-13T11:12:24.000Z</Time>
            <Position>
              <LatitudeDegrees>39.282032959163188934326171875</LatitudeDegrees>
              <LongitudeDegrees>-8.09325397945940494537353515625</LongitudeDegrees>
            </Position>
            <AltitudeMeters>180.8000030517578125</AltitudeMeters>
            <DistanceMeters>77585.054225409</DistanceMeters>
          </Trackpoint>
          <Trackpoint>
            <Time>2018-09-13T11:12:30.000Z</Time>
            <Position>
              <LatitudeDegrees>39.28191594779491424560546875</LatitudeDegrees>
              <LongitudeDegrees>-8.09279716573655605316162109375</LongitudeDegrees>
            </Position>
            <AltitudeMeters>180.8000030517578125</AltitudeMeters>
            <DistanceMeters>77626.5085336</DistanceMeters>
          </Trackpoint>
          <Trackpoint>
            <Time>2018-09-13T11:12:39.000Z</Time>
            <Position>
              <LatitudeDegrees>39.2817468009889125823974609375</LatitudeDegrees>
              <LongitudeDegrees>-8.09207975864410400390625</LongitudeDegrees>
            </Position>
            <AltitudeMeters>181.399993896484375</AltitudeMeters>
            <DistanceMeters>77691.118593644</DistanceMeters>
          </Trackpoint>
          <Trackpoint>
            <Time>2018-09-13T11:12:48.000Z</Time>
            <Position>
              <LatitudeDegrees>39.281573630869388580322265625</LatitudeDegrees>
              <LongitudeDegrees>-8.09134106151759624481201171875</LongitudeDegrees>
            </Position>
            <AltitudeMeters>183</AltitudeMeters>
            <DistanceMeters>77757.613872283</DistanceMeters>
          </Trackpoint>
          <Trackpoint>
            <Time>2018-09-13T11:12:57.000Z</Time>
            <Position>
              <LatitudeDegrees>39.281402640044689178466796875</LatitudeDegrees>
              <LongitudeDegrees>-8.090618290007114410400390625</LongitudeDegrees>
            </Position>
            <AltitudeMeters>184</AltitudeMeters>
            <DistanceMeters>77822.726104853</DistanceMeters>
          </Trackpoint>
          <Trackpoint>
            <Time>2018-09-13T11:13:05.000Z</Time>
            <Position>
              <LatitudeDegrees>39.281255789101123809814453125</LatitudeDegrees>
              <LongitudeDegrees>-8.09002141468226909637451171875</LongitudeDegrees>
            </Position>
            <AltitudeMeters>183.600006103515625</AltitudeMeters>
            <DistanceMeters>77876.683792875</DistanceMeters>
          </Trackpoint>
          <Trackpoint>
            <Time>2018-09-13T11:13:12.000Z</Time>
            <Position>
              <LatitudeDegrees>39.2811392806470394134521484375</LatitudeDegrees>
              <LongitudeDegrees>-8.0895278044044971466064453125</LongitudeDegrees>
            </Position>
            <AltitudeMeters>184.399993896484375</AltitudeMeters>
            <DistanceMeters>77921.142891977</DistanceMeters>
          </Trackpoint>
          <Trackpoint>
            <Time>2018-09-13T11:13:17.000Z</Time>
            <Position>
              <LatitudeDegrees>39.28106191568076610565185546875</LatitudeDegrees>
              <LongitudeDegrees>-8.08920032344758510589599609375</LongitudeDegrees>
            </Position>
            <AltitudeMeters>185.8000030517578125</AltitudeMeters>
            <DistanceMeters>77950.641149489</DistanceMeters>
          </Trackpoint>
          <Trackpoint>
            <Time>2018-09-13T11:13:22.000Z</Time>
            <Position>
              <LatitudeDegrees>39.28098983131349086761474609375</LatitudeDegrees>
              <LongitudeDegrees>-8.088885582983493804931640625</LongitudeDegrees>
            </Position>
            <AltitudeMeters>187.600006103515625</AltitudeMeters>
            <DistanceMeters>77978.919222079</DistanceMeters>
          </Trackpoint>
          <Trackpoint>
            <Time>2018-09-13T11:13:27.000Z</Time>
            <Position>
              <LatitudeDegrees>39.28091908805072307586669921875</LatitudeDegrees>
              <LongitudeDegrees>-8.08859162963926792144775390625</LongitudeDegrees>
            </Position>
            <AltitudeMeters>189.399993896484375</AltitudeMeters>
            <DistanceMeters>78005.44018896</DistanceMeters>
          </Trackpoint>
          <Trackpoint>
            <Time>2018-09-13T11:13:35.000Z</Time>
            <Position>
              <LatitudeDegrees>39.280813895165920257568359375</LatitudeDegrees>
              <LongitudeDegrees>-8.088154010474681854248046875</LongitudeDegrees>
            </Position>
            <AltitudeMeters>191.8000030517578125</AltitudeMeters>
            <DistanceMeters>78044.91872837</DistanceMeters>
          </Trackpoint>
          <Trackpoint>
            <Time>2018-09-13T11:13:40.000Z</Time>
            <Position>
              <LatitudeDegrees>39.28075077943503856658935546875</LatitudeDegrees>
              <LongitudeDegrees>-8.0878940038383007049560546875</LongitudeDegrees>
            </Position>
            <AltitudeMeters>192.8000030517578125</AltitudeMeters>
            <DistanceMeters>78068.394943048</DistanceMeters>
          </Trackpoint>
          <Trackpoint>
            <Time>2018-09-13T11:13:45.000Z</Time>
            <Position>
              <LatitudeDegrees>39.28069177083671092987060546875</LatitudeDegrees>
              <LongitudeDegrees>-8.0876361764967441558837890625</LongitudeDegrees>
            </Position>
            <AltitudeMeters>191.600006103515625</AltitudeMeters>
            <DistanceMeters>78091.558082343</DistanceMeters>
          </Trackpoint>
          <Trackpoint>
            <Time>2018-09-13T11:13:51.000Z</Time>
            <Position>
              <LatitudeDegrees>39.280622117221355438232421875</LatitudeDegrees>
              <LongitudeDegrees>-8.0873337574303150177001953125</LongitudeDegrees>
            </Position>
            <AltitudeMeters>192.8000030517578125</AltitudeMeters>
            <DistanceMeters>78118.741702697</DistanceMeters>
          </Trackpoint>
          <Trackpoint>
            <Time>2018-09-13T11:13:56.000Z</Time>
            <Position>
              <LatitudeDegrees>39.28056537173688411712646484375</LatitudeDegrees>
              <LongitudeDegrees>-8.0870893411338329315185546875</LongitudeDegrees>
            </Position>
            <AltitudeMeters>193.399993896484375</AltitudeMeters>
            <DistanceMeters>78140.725964145</DistanceMeters>
          </Trackpoint>
          <Trackpoint>
            <Time>2018-09-13T11:14:04.000Z</Time>
            <Position>
              <LatitudeDegrees>39.2804697342216968536376953125</LatitudeDegrees>
              <LongitudeDegrees>-8.0867067910730838775634765625</LongitudeDegrees>
            </Position>
            <AltitudeMeters>194.1999969482421875</AltitudeMeters>
            <DistanceMeters>78175.360561802</DistanceMeters>
          </Trackpoint>
          <Trackpoint>
            <Time>2018-09-13T11:14:11.000Z</Time>
            <Position>
              <LatitudeDegrees>39.28038817830383777618408203125</LatitudeDegrees>
              <LongitudeDegrees>-8.08638014830648899078369140625</LongitudeDegrees>
            </Position>
            <AltitudeMeters>196.600006103515625</AltitudeMeters>
            <DistanceMeters>78204.929907107</DistanceMeters>
          </Trackpoint>
          <Trackpoint>
            <Time>2018-09-13T11:14:17.000Z</Time>
            <Position>
              <LatitudeDegrees>39.2803180217742919921875</LatitudeDegrees>
              <LongitudeDegrees>-8.086094744503498077392578125</LongitudeDegrees>
            </Position>
            <AltitudeMeters>199.399993896484375</AltitudeMeters>
            <DistanceMeters>78230.728741275</DistanceMeters>
          </Trackpoint>
          <Trackpoint>
            <Time>2018-09-13T11:14:24.000Z</Time>
            <Position>
              <LatitudeDegrees>39.28023378364741802215576171875</LatitudeDegrees>
              <LongitudeDegrees>-8.085758797824382781982421875</LongitudeDegrees>
            </Position>
            <AltitudeMeters>201.399993896484375</AltitudeMeters>
            <DistanceMeters>78261.152727796</DistanceMeters>
          </Trackpoint>
          <Trackpoint>
            <Time>2018-09-13T11:14:31.000Z</Time>
            <Position>
              <LatitudeDegrees>39.28015172481536865234375</LatitudeDegrees>
              <LongitudeDegrees>-8.08542176149785518646240234375</LongitudeDegrees>
            </Position>
            <AltitudeMeters>202.399993896484375</AltitudeMeters>
            <DistanceMeters>78291.592441065</DistanceMeters>
          </Trackpoint>
          <Trackpoint>
            <Time>2018-09-13T11:14:38.000Z</Time>
            <Position>
              <LatitudeDegrees>39.28007151000201702117919921875</LatitudeDegrees>
              <LongitudeDegrees>-8.08508195914328098297119140625</LongitudeDegrees>
            </Position>
            <AltitudeMeters>204.1999969482421875</AltitudeMeters>
            <DistanceMeters>78322.199010134</DistanceMeters>
          </Trackpoint>
          <Trackpoint>
            <Time>2018-09-13T11:14:46.000Z</Time>
            <Position>
              <LatitudeDegrees>39.27997763268649578094482421875</LatitudeDegrees>
              <LongitudeDegrees>-8.084683232009410858154296875</LongitudeDegrees>
            </Position>
            <AltitudeMeters>206.600006103515625</AltitudeMeters>
            <DistanceMeters>78358.105027374</DistanceMeters>
          </Trackpoint>
          <Trackpoint>
            <Time>2018-09-13T11:14:54.000Z</Time>
            <Position>
              <LatitudeDegrees>39.2798789776861667633056640625</LatitudeDegrees>
              <LongitudeDegrees>-8.08427746407687664031982421875</LongitudeDegrees>
            </Position>
            <AltitudeMeters>210.8000030517578125</AltitudeMeters>
            <DistanceMeters>78394.747776951</DistanceMeters>
          </Trackpoint>
          <Trackpoint>
            <Time>2018-09-13T11:15:01.000Z</Time>
            <Position>
              <LatitudeDegrees>39.27978895604610443115234375</LatitudeDegrees>
              <LongitudeDegrees>-8.08390446938574314117431640625</LongitudeDegrees>
            </Position>
            <AltitudeMeters>213.1999969482421875</AltitudeMeters>
            <DistanceMeters>78428.408970216</DistanceMeters>
          </Trackpoint>
          <Trackpoint>
            <Time>2018-09-13T11:15:10.000Z</Time>
            <Position>
              <LatitudeDegrees>39.279669262468814849853515625</LatitudeDegrees>
              <LongitudeDegrees>-8.0833935923874378204345703125</LongitudeDegrees>
            </Position>
            <AltitudeMeters>215.399993896484375</AltitudeMeters>
            <DistanceMeters>78474.395616784</DistanceMeters>
          </Trackpoint>
          <Trackpoint>
            <Time>2018-09-13T11:15:22.000Z</Time>
            <Position>
              <LatitudeDegrees>39.2795034684240818023681640625</LatitudeDegrees>
              <LongitudeDegrees>-8.08271122165024280548095703125</LongitudeDegrees>
            </Position>
            <AltitudeMeters>219.1999969482421875</AltitudeMeters>
            <DistanceMeters>78536.013388744</DistanceMeters>
          </Trackpoint>
          <Trackpoint>
            <Time>2018-09-13T11:15:25.000Z</Time>
            <Position>
              <LatitudeDegrees>39.27946248091757297515869140625</LatitudeDegrees>
              <LongitudeDegrees>-8.08253872208297252655029296875</LongitudeDegrees>
            </Position>
            <AltitudeMeters>220</AltitudeMeters>
            <DistanceMeters>78551.559480406</DistanceMeters>
          </Trackpoint>
          <Trackpoint>
            <Time>2018-09-13T11:15:34.000Z</Time>
            <Position>
              <LatitudeDegrees>39.27933608181774616241455078125</LatitudeDegrees>
              <LongitudeDegrees>-8.0820172838866710662841796875</LongitudeDegrees>
            </Position>
            <AltitudeMeters>219.399993896484375</AltitudeMeters>
            <DistanceMeters>78598.635411631</DistanceMeters>
          </Trackpoint>
          <Trackpoint>
            <Time>2018-09-13T11:15:46.000Z</Time>
            <Position>
              <LatitudeDegrees>39.27917464636266231536865234375</LatitudeDegrees>
              <LongitudeDegrees>-8.08132636360824108123779296875</LongitudeDegrees>
            </Position>
            <AltitudeMeters>220.600006103515625</AltitudeMeters>
            <DistanceMeters>78660.814695559</DistanceMeters>
          </Trackpoint>
          <Trackpoint>
            <Time>2018-09-13T11:15:50.000Z</Time>
            <Position>
              <LatitudeDegrees>39.2791168950498104095458984375</LatitudeDegrees>
              <LongitudeDegrees>-8.08109150268137454986572265625</LongitudeDegrees>
            </Position>
            <AltitudeMeters>221.399993896484375</AltitudeMeters>
            <DistanceMeters>78682.045671181</DistanceMeters>
          </Trackpoint>
          <Trackpoint>
            <Time>2018-09-13T11:15:59.000Z</Time>
            <Position>
              <LatitudeDegrees>39.2789925076067447662353515625</LatitudeDegrees>
              <LongitudeDegrees>-8.0805668793618679046630859375</LongitudeDegrees>
            </Position>
            <AltitudeMeters>224</AltitudeMeters>
            <DistanceMeters>78729.317808402</DistanceMeters>
          </Trackpoint>
          <Trackpoint>
            <Time>2018-09-13T11:16:11.000Z</Time>
            <Position>
              <LatitudeDegrees>39.27882009185850620269775390625</LatitudeDegrees>
              <LongitudeDegrees>-8.0798473767936229705810546875</LongitudeDegrees>
            </Position>
            <AltitudeMeters>224.8000030517578125</AltitudeMeters>
            <DistanceMeters>78794.209644543</DistanceMeters>
          </Trackpoint>
          <Trackpoint>
            <Time>2018-09-13T11:16:18.000Z</Time>
            <Position>
              <LatitudeDegrees>39.27872009575366973876953125</LatitudeDegrees>
              <LongitudeDegrees>-8.07942316867411136627197265625</LongitudeDegrees>
            </Position>
            <AltitudeMeters>224.8000030517578125</AltitudeMeters>
            <DistanceMeters>78832.414992946</DistanceMeters>
          </Trackpoint>
          <Trackpoint>
            <Time>2018-09-13T11:16:29.000Z</Time>
            <Position>
              <LatitudeDegrees>39.278556816279888153076171875</LatitudeDegrees>
              <LongitudeDegrees>-8.07874155230820178985595703125</LongitudeDegrees>
            </Position>
            <AltitudeMeters>221.399993896484375</AltitudeMeters>
            <DistanceMeters>78893.888243802</DistanceMeters>
          </Trackpoint>
          <Trackpoint>
            <Time>2018-09-13T11:16:32.000Z</Time>
            <Position>
              <LatitudeDegrees>39.27851616404950618743896484375</LatitudeDegrees>
              <LongitudeDegrees>-8.0785552226006984710693359375</LongitudeDegrees>
            </Position>
            <AltitudeMeters>220</AltitudeMeters>
            <DistanceMeters>78910.567259511</DistanceMeters>
          </Trackpoint>
          <Trackpoint>
            <Time>2018-09-13T11:16:43.000Z</Time>
            <Position>
              <LatitudeDegrees>39.2783507890999317169189453125</LatitudeDegrees>
              <LongitudeDegrees>-8.07785332202911376953125</LongitudeDegrees>
            </Position>
            <AltitudeMeters>215.399993896484375</AltitudeMeters>
            <DistanceMeters>78973.779669894</DistanceMeters>
          </Trackpoint>
          <Trackpoint>
            <Time>2018-09-13T11:16:53.000Z</Time>
            <Position>
              <LatitudeDegrees>39.27819245494902133941650390625</LatitudeDegrees>
              <LongitudeDegrees>-8.0771826021373271942138671875</LongitudeDegrees>
            </Position>
            <AltitudeMeters>213.399993896484375</AltitudeMeters>
            <DistanceMeters>79034.194094647</DistanceMeters>
          </Trackpoint>
          <Trackpoint>
            <Time>2018-09-13T11:17:03.000Z</Time>
            <Position>
              <LatitudeDegrees>39.27801609970629215240478515625</LatitudeDegrees>
              <LongitudeDegrees>-8.0764537118375301361083984375</LongitudeDegrees>
            </Position>
            <AltitudeMeters>213.8000030517578125</AltitudeMeters>
            <DistanceMeters>79099.989098462</DistanceMeters>
          </Trackpoint>
          <Trackpoint>
            <Time>2018-09-13T11:17:12.000Z</Time>
            <Position>
              <LatitudeDegrees>39.27785575389862060546875</LatitudeDegrees>
              <LongitudeDegrees>-8.07578475214540958404541015625</LongitudeDegrees>
            </Position>
            <AltitudeMeters>215</AltitudeMeters>
            <DistanceMeters>79160.324626864</DistanceMeters>
          </Trackpoint>
          <Trackpoint>
            <Time>2018-09-13T11:17:21.000Z</Time>
            <Position>
              <LatitudeDegrees>39.2776889540255069732666015625</LatitudeDegrees>
              <LongitudeDegrees>-8.075088299810886383056640625</LongitudeDegrees>
            </Position>
            <AltitudeMeters>214.8000030517578125</AltitudeMeters>
            <DistanceMeters>79223.135488011</DistanceMeters>
          </Trackpoint>
          <Trackpoint>
            <Time>2018-09-13T11:17:29.000Z</Time>
            <Position>
              <LatitudeDegrees>39.2775300331413745880126953125</LatitudeDegrees>
              <LongitudeDegrees>-8.0744232796132564544677734375</LongitudeDegrees>
            </Position>
            <AltitudeMeters>213.600006103515625</AltitudeMeters>
            <DistanceMeters>79283.100130759</DistanceMeters>
          </Trackpoint>
          <Trackpoint>
            <Time>2018-09-13T11:17:37.000Z</Time>
            <Position>
              <LatitudeDegrees>39.2773667536675930023193359375</LatitudeDegrees>
              <LongitudeDegrees>-8.0737362988293170928955078125</LongitudeDegrees>
            </Position>
            <AltitudeMeters>212.1999969482421875</AltitudeMeters>
            <DistanceMeters>79345.015996844</DistanceMeters>
          </Trackpoint>
          <Trackpoint>
            <Time>2018-09-13T11:17:45.000Z</Time>
            <Position>
              <LatitudeDegrees>39.2771880514919757843017578125</LatitudeDegrees>
              <LongitudeDegrees>-8.07299978099763393402099609375</LongitudeDegrees>
            </Position>
            <AltitudeMeters>209.600006103515625</AltitudeMeters>
            <DistanceMeters>79411.516978849</DistanceMeters>
          </Trackpoint>
          <Trackpoint>
            <Time>2018-09-13T11:17:52.000Z</Time>
            <Position>
              <LatitudeDegrees>39.277033992111682891845703125</LatitudeDegrees>
              <LongitudeDegrees>-8.0723361857235431671142578125</LongitudeDegrees>
            </Position>
            <AltitudeMeters>208.600006103515625</AltitudeMeters>
            <DistanceMeters>79471.206994192</DistanceMeters>
          </Trackpoint>
          <Trackpoint>
            <Time>2018-09-13T11:17:59.000Z</Time>
            <Position>
              <LatitudeDegrees>39.276873730123043060302734375</LatitudeDegrees>
              <LongitudeDegrees>-8.0716629512608051300048828125</LongitudeDegrees>
            </Position>
            <AltitudeMeters>208.600006103515625</AltitudeMeters>
            <DistanceMeters>79531.892470594</DistanceMeters>
          </Trackpoint>
          <Trackpoint>
            <Time>2018-09-13T11:18:06.000Z</Time>
            <Position>
              <LatitudeDegrees>39.276706092059612274169921875</LatitudeDegrees>
              <LongitudeDegrees>-8.07098091579973697662353515625</LongitudeDegrees>
            </Position>
            <AltitudeMeters>208.8000030517578125</AltitudeMeters>
            <DistanceMeters>79593.546722673</DistanceMeters>
          </Trackpoint>
          <Trackpoint>
            <Time>2018-09-13T11:18:07.000Z</Time>
            <Position>
              <LatitudeDegrees>39.27668119780719280242919921875</LatitudeDegrees>
              <LongitudeDegrees>-8.07088301517069339752197265625</LongitudeDegrees>
            </Position>
            <AltitudeMeters>208.600006103515625</AltitudeMeters>
            <DistanceMeters>79602.425493272</DistanceMeters>
          </Trackpoint>
          <Trackpoint>
            <Time>2018-09-13T11:18:10.000Z</Time>
            <Position>
              <LatitudeDegrees>39.27659444510936737060546875</LatitudeDegrees>
              <LongitudeDegrees>-8.07059316895902156829833984375</LongitudeDegrees>
            </Position>
            <AltitudeMeters>207.600006103515625</AltitudeMeters>
            <DistanceMeters>79629.199934044</DistanceMeters>
          </Trackpoint>
          <Trackpoint>
            <Time>2018-09-13T11:18:17.000Z</Time>
            <Position>
              <LatitudeDegrees>39.27635681815445423126220703125</LatitudeDegrees>
              <LongitudeDegrees>-8.0699449963867664337158203125</LongitudeDegrees>
            </Position>
            <AltitudeMeters>206.399993896484375</AltitudeMeters>
            <DistanceMeters>79690.992146528</DistanceMeters>
          </Trackpoint>
          <Trackpoint>
            <Time>2018-09-13T11:18:19.000Z</Time>
            <Position>
              <LatitudeDegrees>39.276276938617229461669921875</LatitudeDegrees>
              <LongitudeDegrees>-8.06976981461048126220703125</LongitudeDegrees>
            </Position>
            <AltitudeMeters>206.600006103515625</AltitudeMeters>
            <DistanceMeters>79708.509568076</DistanceMeters>
          </Trackpoint>
          <Trackpoint>
            <Time>2018-09-13T11:18:26.000Z</Time>
            <Position>
              <LatitudeDegrees>39.2759659700095653533935546875</LatitudeDegrees>
              <LongitudeDegrees>-8.06917981244623661041259765625</LongitudeDegrees>
            </Position>
            <AltitudeMeters>207.600006103515625</AltitudeMeters>
            <DistanceMeters>79770.008079579</DistanceMeters>
          </Trackpoint>
          <Trackpoint>
            <Time>2018-09-13T11:18:33.000Z</Time>
            <Position>
              <LatitudeDegrees>39.27559725008904933929443359375</LatitudeDegrees>
              <LongitudeDegrees>-8.068638928234577178955078125</LongitudeDegrees>
            </Position>
            <AltitudeMeters>206.399993896484375</AltitudeMeters>
            <DistanceMeters>79832.104820097</DistanceMeters>
          </Trackpoint>
          <Trackpoint>
            <Time>2018-09-13T11:18:40.000Z</Time>
            <Position>
              <LatitudeDegrees>39.2752102576196193695068359375</LatitudeDegrees>
              <LongitudeDegrees>-8.06812553666532039642333984375</LongitudeDegrees>
            </Position>
            <AltitudeMeters>206.399993896484375</AltitudeMeters>
            <DistanceMeters>79893.845571225</DistanceMeters>
          </Trackpoint>
          <Trackpoint>
            <Time>2018-09-13T11:18:42.000Z</Time>
            <Position>
              <LatitudeDegrees>39.27509902976453304290771484375</LatitudeDegrees>
              <LongitudeDegrees>-8.0679796077311038970947265625</LongitudeDegrees>
            </Position>
            <AltitudeMeters>206</AltitudeMeters>
            <DistanceMeters>79911.490371468</DistanceMeters>
          </Trackpoint>
          <Trackpoint>
            <Time>2018-09-13T11:18:49.000Z</Time>
            <Position>
              <LatitudeDegrees>39.274705834686756134033203125</LatitudeDegrees>
              <LongitudeDegrees>-8.06745716370642185211181640625</LongitudeDegrees>
            </Position>
            <AltitudeMeters>203</AltitudeMeters>
            <DistanceMeters>79974.271825552</DistanceMeters>
          </Trackpoint>
          <Trackpoint>
            <Time>2018-09-13T11:18:54.000Z</Time>
            <Position>
              <LatitudeDegrees>39.27442579530179500579833984375</LatitudeDegrees>
              <LongitudeDegrees>-8.0670834146440029144287109375</LongitudeDegrees>
            </Position>
            <AltitudeMeters>205.399993896484375</AltitudeMeters>
            <DistanceMeters>80019.088181081</DistanceMeters>
          </Trackpoint>
          <Trackpoint>
            <Time>2018-09-13T11:19:01.000Z</Time>
            <Position>
              <LatitudeDegrees>39.27403218112885951995849609375</LatitudeDegrees>
              <LongitudeDegrees>-8.0665593780577182769775390625</LongitudeDegrees>
            </Position>
            <AltitudeMeters>203</AltitudeMeters>
            <DistanceMeters>80082.000889865</DistanceMeters>
          </Trackpoint>
          <Trackpoint>
            <Time>2018-09-13T11:19:08.000Z</Time>
            <Position>
              <LatitudeDegrees>39.27362599410116672515869140625</LatitudeDegrees>
              <LongitudeDegrees>-8.0660222657024860382080078125</LongitudeDegrees>
            </Position>
            <AltitudeMeters>202.600006103515625</AltitudeMeters>
            <DistanceMeters>80146.697195813</DistanceMeters>
          </Trackpoint>
          <Trackpoint>
            <Time>2018-09-13T11:19:10.000Z</Time>
            <Position>
              <LatitudeDegrees>39.27350982092320919036865234375</LatitudeDegrees>
              <LongitudeDegrees>-8.065867535769939422607421875</LongitudeDegrees>
            </Position>
            <AltitudeMeters>202.600006103515625</AltitudeMeters>
            <DistanceMeters>80165.269510154</DistanceMeters>
          </Trackpoint>
          <Trackpoint>
            <Time>2018-09-13T11:19:13.000Z</Time>
            <Position>
              <LatitudeDegrees>39.27333648316562175750732421875</LatitudeDegrees>
              <LongitudeDegrees>-8.06563259102404117584228515625</LongitudeDegrees>
            </Position>
            <AltitudeMeters>202.399993896484375</AltitudeMeters>
            <DistanceMeters>80193.233855669</DistanceMeters>
          </Trackpoint>
          <Trackpoint>
            <Time>2018-09-13T11:19:16.000Z</Time>
            <Position>
              <LatitudeDegrees>39.27316029556095600128173828125</LatitudeDegrees>
              <LongitudeDegrees>-8.06539873592555522918701171875</LongitudeDegrees>
            </Position>
            <AltitudeMeters>202</AltitudeMeters>
            <DistanceMeters>80221.350685192</DistanceMeters>
          </Trackpoint>
          <Trackpoint>
            <Time>2018-09-13T11:19:23.000Z</Time>
            <Position>
              <LatitudeDegrees>39.272741116583347320556640625</LatitudeDegrees>
              <LongitudeDegrees>-8.06484284810721874237060546875</LongitudeDegrees>
            </Position>
            <AltitudeMeters>201.1999969482421875</AltitudeMeters>
            <DistanceMeters>80288.215198112</DistanceMeters>
          </Trackpoint>
          <Trackpoint>
            <Time>2018-09-13T11:19:30.000Z</Time>
            <Position>
              <LatitudeDegrees>39.2723478376865386962890625</LatitudeDegrees>
              <LongitudeDegrees>-8.06431311182677745819091796875</LongitudeDegrees>
            </Position>
            <AltitudeMeters>200.1999969482421875</AltitudeMeters>
            <DistanceMeters>80351.456244017</DistanceMeters>
          </Trackpoint>
          <Trackpoint>
            <Time>2018-09-13T11:19:32.000Z</Time>
            <Position>
              <LatitudeDegrees>39.27224180661141872406005859375</LatitudeDegrees>
              <LongitudeDegrees>-8.06417598389089107513427734375</LongitudeDegrees>
            </Position>
            <AltitudeMeters>199.399993896484375</AltitudeMeters>
            <DistanceMeters>80368.15609075</DistanceMeters>
          </Trackpoint>
          <Trackpoint>
            <Time>2018-09-13T11:19:40.000Z</Time>
            <Position>
              <LatitudeDegrees>39.2718301713466644287109375</LatitudeDegrees>
              <LongitudeDegrees>-8.06361909024417400360107421875</LongitudeDegrees>
            </Position>
            <AltitudeMeters>199.8000030517578125</AltitudeMeters>
            <DistanceMeters>80434.500527906</DistanceMeters>
          </Trackpoint>
          <Trackpoint>
            <Time>2018-09-13T11:19:47.000Z</Time>
            <Position>
              <LatitudeDegrees>39.27142641507089138031005859375</LatitudeDegrees>
              <LongitudeDegrees>-8.063092119991779327392578125</LongitudeDegrees>
            </Position>
            <AltitudeMeters>196.8000030517578125</AltitudeMeters>
            <DistanceMeters>80498.385059286</DistanceMeters>
          </Trackpoint>
          <Trackpoint>
            <Time>2018-09-13T11:19:49.000Z</Time>
            <Position>
              <LatitudeDegrees>39.2713059671223163604736328125</LatitudeDegrees>
              <LongitudeDegrees>-8.06293697096407413482666015625</LongitudeDegrees>
            </Position>
            <AltitudeMeters>197.600006103515625</AltitudeMeters>
            <DistanceMeters>80517.317567159</DistanceMeters>
          </Trackpoint>
          <Trackpoint>
            <Time>2018-09-13T11:19:56.000Z</Time>
            <Position>
              <LatitudeDegrees>39.27089382894337177276611328125</LatitudeDegrees>
              <LongitudeDegrees>-8.06237907148897647857666015625</LongitudeDegrees>
            </Position>
            <AltitudeMeters>197.1999969482421875</AltitudeMeters>
            <DistanceMeters>80583.763871767</DistanceMeters>
          </Trackpoint>
          <Trackpoint>
            <Time>2018-09-13T11:20:01.000Z</Time>
            <Position>
              <LatitudeDegrees>39.27059610374271869659423828125</LatitudeDegrees>
              <LongitudeDegrees>-8.06198336184024810791015625</LongitudeDegrees>
            </Position>
            <AltitudeMeters>196.399993896484375</AltitudeMeters>
            <DistanceMeters>80631.31047667</DistanceMeters>
          </Trackpoint>
          <Trackpoint>
            <Time>2018-09-13T11:20:05.000Z</Time>
            <Position>
              <LatitudeDegrees>39.27035269327461719512939453125</LatitudeDegrees>
              <LongitudeDegrees>-8.0616579763591289520263671875</LongitudeDegrees>
            </Position>
            <AltitudeMeters>197.399993896484375</AltitudeMeters>
            <DistanceMeters>80670.298421705</DistanceMeters>
          </Trackpoint>
          <Trackpoint>
            <Time>2018-09-13T11:20:10.000Z</Time>
            <Position>
              <LatitudeDegrees>39.2700491845607757568359375</LatitudeDegrees>
              <LongitudeDegrees>-8.06124885566532611846923828125</LongitudeDegrees>
            </Position>
            <AltitudeMeters>193.8000030517578125</AltitudeMeters>
            <DistanceMeters>80719.123754177</DistanceMeters>
          </Trackpoint>
          <Trackpoint>
            <Time>2018-09-13T11:20:16.000Z</Time>
            <Position>
              <LatitudeDegrees>39.26968079991638660430908203125</LatitudeDegrees>
              <LongitudeDegrees>-8.0607530660927295684814453125</LongitudeDegrees>
            </Position>
            <AltitudeMeters>193.1999969482421875</AltitudeMeters>
            <DistanceMeters>80778.337217189</DistanceMeters>
          </Trackpoint>
          <Trackpoint>
            <Time>2018-09-13T11:20:23.000Z</Time>
            <Position>
              <LatitudeDegrees>39.26925600506365299224853515625</LatitudeDegrees>
              <LongitudeDegrees>-8.0601834319531917572021484375</LongitudeDegrees>
            </Position>
            <AltitudeMeters>191.1999969482421875</AltitudeMeters>
            <DistanceMeters>80846.489128605</DistanceMeters>
          </Trackpoint>
          <Trackpoint>
            <Time>2018-09-13T11:20:24.000Z</Time>
            <Position>
              <LatitudeDegrees>39.26919464953243732452392578125</LatitudeDegrees>
              <LongitudeDegrees>-8.06009986437857151031494140625</LongitudeDegrees>
            </Position>
            <AltitudeMeters>191.399993896484375</AltitudeMeters>
            <DistanceMeters>80856.412939047</DistanceMeters>
          </Trackpoint>
          <Trackpoint>
            <Time>2018-09-13T11:20:28.000Z</Time>
            <Position>
              <LatitudeDegrees>39.26894570700824260711669921875</LatitudeDegrees>
              <LongitudeDegrees>-8.05976140312850475311279296875</LongitudeDegrees>
            </Position>
            <AltitudeMeters>190</AltitudeMeters>
            <DistanceMeters>80896.641014562</DistanceMeters>
          </Trackpoint>
          <Trackpoint>
            <Time>2018-09-13T11:20:34.000Z</Time>
            <Position>
              <LatitudeDegrees>39.26855980418622493743896484375</LatitudeDegrees>
              <LongitudeDegrees>-8.05924574844539165496826171875</LongitudeDegrees>
            </Position>
            <AltitudeMeters>192.600006103515625</AltitudeMeters>
            <DistanceMeters>80958.440241183</DistanceMeters>
          </Trackpoint>
          <Trackpoint>
            <Time>2018-09-13T11:20:39.000Z</Time>
            <Position>
              <LatitudeDegrees>39.26823131740093231201171875</LatitudeDegrees>
              <LongitudeDegrees>-8.0588024295866489410400390625</LongitudeDegrees>
            </Position>
            <AltitudeMeters>189</AltitudeMeters>
            <DistanceMeters>81011.317292627</DistanceMeters>
          </Trackpoint>
          <Trackpoint>
            <Time>2018-09-13T11:20:45.000Z</Time>
            <Position>
              <LatitudeDegrees>39.26785019226372241973876953125</LatitudeDegrees>
              <LongitudeDegrees>-8.0582864396274089813232421875</LongitudeDegrees>
            </Position>
            <AltitudeMeters>189</AltitudeMeters>
            <DistanceMeters>81072.769387048</DistanceMeters>
          </Trackpoint>
          <Trackpoint>
            <Time>2018-09-13T11:20:47.000Z</Time>
            <Position>
              <LatitudeDegrees>39.2677232064306735992431640625</LatitudeDegrees>
              <LongitudeDegrees>-8.05811829864978790283203125</LongitudeDegrees>
            </Position>
            <AltitudeMeters>187.600006103515625</AltitudeMeters>
            <DistanceMeters>81093.010300275</DistanceMeters>
          </Trackpoint>
          <Trackpoint>
            <Time>2018-09-13T11:20:51.000Z</Time>
            <Position>
              <LatitudeDegrees>39.26747552119195461273193359375</LatitudeDegrees>
              <LongitudeDegrees>-8.05778302252292633056640625</LongitudeDegrees>
            </Position>
            <AltitudeMeters>184.399993896484375</AltitudeMeters>
            <DistanceMeters>81132.943460925</DistanceMeters>
          </Trackpoint>
          <Trackpoint>
            <Time>2018-09-13T11:20:53.000Z</Time>
            <Position>
              <LatitudeDegrees>39.26735398359596729278564453125</LatitudeDegrees>
              <LongitudeDegrees>-8.05761362425982952117919921875</LongitudeDegrees>
            </Position>
            <AltitudeMeters>183.399993896484375</AltitudeMeters>
            <DistanceMeters>81152.844695883</DistanceMeters>
          </Trackpoint>
          <Trackpoint>
            <Time>2018-09-13T11:20:59.000Z</Time>
            <Position>
              <LatitudeDegrees>39.26696640439331531524658203125</LatitudeDegrees>
              <LongitudeDegrees>-8.05710853077471256256103515625</LongitudeDegrees>
            </Position>
            <AltitudeMeters>183.1999969482421875</AltitudeMeters>
            <DistanceMeters>81214.124918224</DistanceMeters>
          </Trackpoint>
          <Trackpoint>
            <Time>2018-09-13T11:21:05.000Z</Time>
            <Position>
              <LatitudeDegrees>39.266576729714870452880859375</LatitudeDegrees>
              <LongitudeDegrees>-8.05660025216639041900634765625</LongitudeDegrees>
            </Position>
            <AltitudeMeters>181.1999969482421875</AltitudeMeters>
            <DistanceMeters>81275.764375749</DistanceMeters>
          </Trackpoint>
          <Trackpoint>
            <Time>2018-09-13T11:21:11.000Z</Time>
            <Position>
              <LatitudeDegrees>39.26617967896163463592529296875</LatitudeDegrees>
              <LongitudeDegrees>-8.05606112815439701080322265625</LongitudeDegrees>
            </Position>
            <AltitudeMeters>179.8000030517578125</AltitudeMeters>
            <DistanceMeters>81339.883259579</DistanceMeters>
          </Trackpoint>
          <Trackpoint>
            <Time>2018-09-13T11:21:17.000Z</Time>
            <Position>
              <LatitudeDegrees>39.2657817900180816650390625</LatitudeDegrees>
              <LongitudeDegrees>-8.05552653037011623382568359375</LongitudeDegrees>
            </Position>
            <AltitudeMeters>180.399993896484375</AltitudeMeters>
            <DistanceMeters>81403.784962672</DistanceMeters>
          </Trackpoint>
          <Trackpoint>
            <Time>2018-09-13T11:21:19.000Z</Time>
            <Position>
              <LatitudeDegrees>39.26565547473728656768798828125</LatitudeDegrees>
              <LongitudeDegrees>-8.0553531087934970855712890625</LongitudeDegrees>
            </Position>
            <AltitudeMeters>180.1999969482421875</AltitudeMeters>
            <DistanceMeters>81424.302812555</DistanceMeters>
          </Trackpoint>
          <Trackpoint>
            <Time>2018-09-13T11:21:25.000Z</Time>
            <Position>
              <LatitudeDegrees>39.26527560688555240631103515625</LatitudeDegrees>
              <LongitudeDegrees>-8.05484374053776264190673828125</LongitudeDegrees>
            </Position>
            <AltitudeMeters>178</AltitudeMeters>
            <DistanceMeters>81485.247394044</DistanceMeters>
          </Trackpoint>
          <Trackpoint>
            <Time>2018-09-13T11:21:27.000Z</Time>
            <Position>
              <LatitudeDegrees>39.26515306346118450164794921875</LatitudeDegrees>
              <LongitudeDegrees>-8.05467392317950725555419921875</LongitudeDegrees>
            </Position>
            <AltitudeMeters>176.8000030517578125</AltitudeMeters>
            <DistanceMeters>81505.251815248</DistanceMeters>
          </Trackpoint>
          <Trackpoint>
            <Time>2018-09-13T11:21:32.000Z</Time>
            <Position>
              <LatitudeDegrees>39.26484276540577411651611328125</LatitudeDegrees>
              <LongitudeDegrees>-8.0542591027915477752685546875</LongitudeDegrees>
            </Position>
            <AltitudeMeters>176.600006103515625</AltitudeMeters>
            <DistanceMeters>81554.956873288</DistanceMeters>
          </Trackpoint>
          <Trackpoint>
            <Time>2018-09-13T11:21:38.000Z</Time>
            <Position>
              <LatitudeDegrees>39.2644572816789150238037109375</LatitudeDegrees>
              <LongitudeDegrees>-8.05374621413648128509521484375</LongitudeDegrees>
            </Position>
            <AltitudeMeters>177.600006103515625</AltitudeMeters>
            <DistanceMeters>81616.554418046</DistanceMeters>
          </Trackpoint>
          <Trackpoint>
            <Time>2018-09-13T11:21:39.000Z</Time>
            <Position>
              <LatitudeDegrees>39.26439332775771617889404296875</LatitudeDegrees>
              <LongitudeDegrees>-8.05365870706737041473388671875</LongitudeDegrees>
            </Position>
            <AltitudeMeters>177.399993896484375</AltitudeMeters>
            <DistanceMeters>81626.924092597</DistanceMeters>
          </Trackpoint>
          <Trackpoint>
            <Time>2018-09-13T11:21:44.000Z</Time>
            <Position>
              <LatitudeDegrees>39.26406727172434329986572265625</LatitudeDegrees>
              <LongitudeDegrees>-8.053222931921482086181640625</LongitudeDegrees>
            </Position>
            <AltitudeMeters>175.399993896484375</AltitudeMeters>
            <DistanceMeters>81679.146697636</DistanceMeters>
          </Trackpoint>
          <Trackpoint>
            <Time>2018-09-13T11:21:49.000Z</Time>
            <Position>
              <LatitudeDegrees>39.263738282024860382080078125</LatitudeDegrees>
              <LongitudeDegrees>-8.05278933607041835784912109375</LongitudeDegrees>
            </Position>
            <AltitudeMeters>174.8000030517578125</AltitudeMeters>
            <DistanceMeters>81731.462593497</DistanceMeters>
          </Trackpoint>
          <Trackpoint>
            <Time>2018-09-13T11:21:54.000Z</Time>
            <Position>
              <LatitudeDegrees>39.2634095437824726104736328125</LatitudeDegrees>
              <LongitudeDegrees>-8.05234442465007305145263671875</LongitudeDegrees>
            </Position>
            <AltitudeMeters>173.399993896484375</AltitudeMeters>
            <DistanceMeters>81784.460074921</DistanceMeters>
          </Trackpoint>
          <Trackpoint>
            <Time>2018-09-13T11:21:58.000Z</Time>
            <Position>
              <LatitudeDegrees>39.26314710639417171478271484375</LatitudeDegrees>
              <LongitudeDegrees>-8.0519933067262172698974609375</LongitudeDegrees>
            </Position>
            <AltitudeMeters>172.399993896484375</AltitudeMeters>
            <DistanceMeters>81826.516455331</DistanceMeters>
          </Trackpoint>
          <Trackpoint>
            <Time>2018-09-13T11:22:04.000Z</Time>
            <Position>
              <LatitudeDegrees>39.2627614550292491912841796875</LatitudeDegrees>
              <LongitudeDegrees>-8.05147237144410610198974609375</LongitudeDegrees>
            </Position>
            <AltitudeMeters>173.1999969482421875</AltitudeMeters>
            <DistanceMeters>81888.627009165</DistanceMeters>
          </Trackpoint>
          <Trackpoint>
            <Time>2018-09-13T11:22:06.000Z</Time>
            <Position>
              <LatitudeDegrees>39.2626355588436126708984375</LatitudeDegrees>
              <LongitudeDegrees>-8.0513019673526287078857421875</LongitudeDegrees>
            </Position>
            <AltitudeMeters>173</AltitudeMeters>
            <DistanceMeters>81908.924279365</DistanceMeters>
          </Trackpoint>
          <Trackpoint>
            <Time>2018-09-13T11:22:12.000Z</Time>
            <Position>
              <LatitudeDegrees>39.26226231269538402557373046875</LatitudeDegrees>
              <LongitudeDegrees>-8.05079695768654346466064453125</LongitudeDegrees>
            </Position>
            <AltitudeMeters>171</AltitudeMeters>
            <DistanceMeters>81969.089098599</DistanceMeters>
          </Trackpoint>
          <Trackpoint>
            <Time>2018-09-13T11:22:16.000Z</Time>
            <Position>
              <LatitudeDegrees>39.2620070837438106536865234375</LatitudeDegrees>
              <LongitudeDegrees>-8.05045883171260356903076171875</LongitudeDegrees>
            </Position>
            <AltitudeMeters>170.600006103515625</AltitudeMeters>
            <DistanceMeters>82009.783616402</DistanceMeters>
          </Trackpoint>
          <Trackpoint>
            <Time>2018-09-13T11:22:22.000Z</Time>
            <Position>
              <LatitudeDegrees>39.261626712977886199951171875</LatitudeDegrees>
              <LongitudeDegrees>-8.049946613609790802001953125</LongitudeDegrees>
            </Position>
            <AltitudeMeters>169.399993896484375</AltitudeMeters>
            <DistanceMeters>82070.945765627</DistanceMeters>
          </Trackpoint>
          <Trackpoint>
            <Time>2018-09-13T11:22:28.000Z</Time>
            <Position>
              <LatitudeDegrees>39.26126771606504917144775390625</LatitudeDegrees>
              <LongitudeDegrees>-8.0494160391390323638916015625</LongitudeDegrees>
            </Position>
            <AltitudeMeters>169.399993896484375</AltitudeMeters>
            <DistanceMeters>82131.668133532</DistanceMeters>
          </Trackpoint>
          <Trackpoint>
            <Time>2018-09-13T11:22:29.000Z</Time>
            <Position>
              <LatitudeDegrees>39.26121206022799015045166015625</LatitudeDegrees>
              <LongitudeDegrees>-8.04932291619479656219482421875</LongitudeDegrees>
            </Position>
            <AltitudeMeters>169.8000030517578125</AltitudeMeters>
            <DistanceMeters>82141.806196961</DistanceMeters>
          </Trackpoint>
          <Trackpoint>
            <Time>2018-09-13T11:22:35.000Z</Time>
            <Position>
              <LatitudeDegrees>39.2609150893986225128173828125</LatitudeDegrees>
              <LongitudeDegrees>-8.048734925687313079833984375</LongitudeDegrees>
            </Position>
            <AltitudeMeters>166.399993896484375</AltitudeMeters>
            <DistanceMeters>82202.305460469</DistanceMeters>
          </Trackpoint>
          <Trackpoint>
            <Time>2018-09-13T11:22:41.000Z</Time>
            <Position>
              <LatitudeDegrees>39.2606760375201702117919921875</LatitudeDegrees>
              <LongitudeDegrees>-8.0481044389307498931884765625</LongitudeDegrees>
            </Position>
            <AltitudeMeters>165.8000030517578125</AltitudeMeters>
            <DistanceMeters>82262.804500088</DistanceMeters>
          </Trackpoint>
          <Trackpoint>
            <Time>2018-09-13T11:22:47.000Z</Time>
            <Position>
              <LatitudeDegrees>39.260492138564586639404296875</LatitudeDegrees>
              <LongitudeDegrees>-8.04741703905165195465087890625</LongitudeDegrees>
            </Position>
            <AltitudeMeters>166.1999969482421875</AltitudeMeters>
            <DistanceMeters>82325.479931273</DistanceMeters>
          </Trackpoint>
          <Trackpoint>
            <Time>2018-09-13T11:22:49.000Z</Time>
            <Position>
              <LatitudeDegrees>39.26044360734522342681884765625</LatitudeDegrees>
              <LongitudeDegrees>-8.04717220366001129150390625</LongitudeDegrees>
            </Position>
            <AltitudeMeters>166</AltitudeMeters>
            <DistanceMeters>82347.259921534</DistanceMeters>
          </Trackpoint>
          <Trackpoint>
            <Time>2018-09-13T11:22:53.000Z</Time>
            <Position>
              <LatitudeDegrees>39.26036414690315723419189453125</LatitudeDegrees>
              <LongitudeDegrees>-8.0466624163091182708740234375</LongitudeDegrees>
            </Position>
            <AltitudeMeters>165.600006103515625</AltitudeMeters>
            <DistanceMeters>82392.074060612</DistanceMeters>
          </Trackpoint>
          <Trackpoint>
            <Time>2018-09-13T11:22:55.000Z</Time>
            <Position>
              <LatitudeDegrees>39.26032559014856815338134765625</LatitudeDegrees>
              <LongitudeDegrees>-8.04640266112983226776123046875</LongitudeDegrees>
            </Position>
            <AltitudeMeters>165.399993896484375</AltitudeMeters>
            <DistanceMeters>82414.867204055</DistanceMeters>
          </Trackpoint>
          <Trackpoint>
            <Time>2018-09-13T11:22:57.000Z</Time>
            <Position>
              <LatitudeDegrees>39.260289967060089111328125</LatitudeDegrees>
              <LongitudeDegrees>-8.0461403913795948028564453125</LongitudeDegrees>
            </Position>
            <AltitudeMeters>165.1999969482421875</AltitudeMeters>
            <DistanceMeters>82437.814532391</DistanceMeters>
          </Trackpoint>
          <Trackpoint>
            <Time>2018-09-13T11:23:02.000Z</Time>
            <Position>
              <LatitudeDegrees>39.26020002923905849456787109375</LatitudeDegrees>
              <LongitudeDegrees>-8.0454829148948192596435546875</LongitudeDegrees>
            </Position>
            <AltitudeMeters>163.8000030517578125</AltitudeMeters>
            <DistanceMeters>82495.352560564</DistanceMeters>
          </Trackpoint>
          <Trackpoint>
            <Time>2018-09-13T11:23:04.000Z</Time>
            <Position>
              <LatitudeDegrees>39.260161556303501129150390625</LatitudeDegrees>
              <LongitudeDegrees>-8.04522315971553325653076171875</LongitudeDegrees>
            </Position>
            <AltitudeMeters>163.1999969482421875</AltitudeMeters>
            <DistanceMeters>82518.14392115</DistanceMeters>
          </Trackpoint>
          <Trackpoint>
            <Time>2018-09-13T11:23:06.000Z</Time>
            <Position>
              <LatitudeDegrees>39.260121993720531463623046875</LatitudeDegrees>
              <LongitudeDegrees>-8.04496214725077152252197265625</LongitudeDegrees>
            </Position>
            <AltitudeMeters>161.1999969482421875</AltitudeMeters>
            <DistanceMeters>82541.064474969</DistanceMeters>
          </Trackpoint>
          <Trackpoint>
            <Time>2018-09-13T11:23:09.000Z</Time>
            <Position>
              <LatitudeDegrees>39.2600594647228717803955078125</LatitudeDegrees>
              <LongitudeDegrees>-8.044575154781341552734375</LongitudeDegrees>
            </Position>
            <AltitudeMeters>158.600006103515625</AltitudeMeters>
            <DistanceMeters>82575.133374361</DistanceMeters>
          </Trackpoint>
          <Trackpoint>
            <Time>2018-09-13T11:23:12.000Z</Time>
            <Position>
              <LatitudeDegrees>39.25998042337596416473388671875</LatitudeDegrees>
              <LongitudeDegrees>-8.044200651347637176513671875</LongitudeDegrees>
            </Position>
            <AltitudeMeters>156</AltitudeMeters>
            <DistanceMeters>82608.585207392</DistanceMeters>
          </Trackpoint>
          <Trackpoint>
            <Time>2018-09-13T11:23:15.000Z</Time>
            <Position>
              <LatitudeDegrees>39.25987749360501766204833984375</LatitudeDegrees>
              <LongitudeDegrees>-8.04383226670324802398681640625</LongitudeDegrees>
            </Position>
            <AltitudeMeters>154.600006103515625</AltitudeMeters>
            <DistanceMeters>82642.336149353</DistanceMeters>
          </Trackpoint>
          <Trackpoint>
            <Time>2018-09-13T11:23:17.000Z</Time>
            <Position>
              <LatitudeDegrees>39.2597986198961734771728515625</LatitudeDegrees>
              <LongitudeDegrees>-8.04358935914933681488037109375</LongitudeDegrees>
            </Position>
            <AltitudeMeters>154.600006103515625</AltitudeMeters>
            <DistanceMeters>82665.035801818</DistanceMeters>
          </Trackpoint>
          <Trackpoint>
            <Time>2018-09-13T11:23:19.000Z</Time>
            <Position>
              <LatitudeDegrees>39.25970993936061859130859375</LatitudeDegrees>
              <LongitudeDegrees>-8.04334863089025020599365234375</LongitudeDegrees>
            </Position>
            <AltitudeMeters>154.1999969482421875</AltitudeMeters>
            <DistanceMeters>82688.010069994</DistanceMeters>
          </Trackpoint>
          <Trackpoint>
            <Time>2018-09-13T11:23:25.000Z</Time>
            <Position>
              <LatitudeDegrees>39.2593889124691486358642578125</LatitudeDegrees>
              <LongitudeDegrees>-8.042653016746044158935546875</LongitudeDegrees>
            </Position>
            <AltitudeMeters>154.600006103515625</AltitudeMeters>
            <DistanceMeters>82757.798571487</DistanceMeters>
          </Trackpoint>
          <Trackpoint>
            <Time>2018-09-13T11:23:28.000Z</Time>
            <Position>
              <LatitudeDegrees>39.25920308567583560943603515625</LatitudeDegrees>
              <LongitudeDegrees>-8.04232402704656124114990234375</LongitudeDegrees>
            </Position>
            <AltitudeMeters>153.1999969482421875</AltitudeMeters>
            <DistanceMeters>82792.893289272</DistanceMeters>
          </Trackpoint>
          <Trackpoint>
            <Time>2018-09-13T11:23:33.000Z</Time>
            <Position>
              <LatitudeDegrees>39.25888021476566791534423828125</LatitudeDegrees>
              <LongitudeDegrees>-8.0417655408382415771484375</LongitudeDegrees>
            </Position>
            <AltitudeMeters>152.399993896484375</AltitudeMeters>
            <DistanceMeters>82852.959494272</DistanceMeters>
          </Trackpoint>
          <Trackpoint>
            <Time>2018-09-13T11:23:37.000Z</Time>
            <Position>
              <LatitudeDegrees>39.25861098803579807281494140625</LatitudeDegrees>
              <LongitudeDegrees>-8.04130814038217067718505859375</LongitudeDegrees>
            </Position>
            <AltitudeMeters>151.399993896484375</AltitudeMeters>
            <DistanceMeters>82902.475160537</DistanceMeters>
          </Trackpoint>
          <Trackpoint>
            <Time>2018-09-13T11:23:41.000Z</Time>
            <Position>
              <LatitudeDegrees>39.25834343768656253814697265625</LatitudeDegrees>
              <LongitudeDegrees>-8.04085099138319492340087890625</LongitudeDegrees>
            </Position>
            <AltitudeMeters>149.600006103515625</AltitudeMeters>
            <DistanceMeters>82951.860718616</DistanceMeters>
          </Trackpoint>
          <Trackpoint>
            <Time>2018-09-13T11:23:43.000Z</Time>
            <Position>
              <LatitudeDegrees>39.25821192562580108642578125</LatitudeDegrees>
              <LongitudeDegrees>-8.04062761366367340087890625</LongitudeDegrees>
            </Position>
            <AltitudeMeters>148.1999969482421875</AltitudeMeters>
            <DistanceMeters>82976.044410664</DistanceMeters>
          </Trackpoint>
          <Trackpoint>
            <Time>2018-09-13T11:23:47.000Z</Time>
            <Position>
              <LatitudeDegrees>39.2579497396945953369140625</LatitudeDegrees>
              <LongitudeDegrees>-8.040185384452342987060546875</LongitudeDegrees>
            </Position>
            <AltitudeMeters>148.399993896484375</AltitudeMeters>
            <DistanceMeters>83024.045413208</DistanceMeters>
          </Trackpoint>
          <Trackpoint>
            <Time>2018-09-13T11:23:49.000Z</Time>
            <Position>
              <LatitudeDegrees>39.2578171379864215850830078125</LatitudeDegrees>
              <LongitudeDegrees>-8.039972148835659027099609375</LongitudeDegrees>
            </Position>
            <AltitudeMeters>148</AltitudeMeters>
            <DistanceMeters>83047.615103551</DistanceMeters>
          </Trackpoint>
          <Trackpoint>
            <Time>2018-09-13T11:23:51.000Z</Time>
            <Position>
              <LatitudeDegrees>39.25767908804118633270263671875</LatitudeDegrees>
              <LongitudeDegrees>-8.03977224044501781463623046875</LongitudeDegrees>
            </Position>
            <AltitudeMeters>146.600006103515625</AltitudeMeters>
            <DistanceMeters>83070.700141809</DistanceMeters>
          </Trackpoint>
          <Trackpoint>
            <Time>2018-09-13T11:23:54.000Z</Time>
            <Position>
              <LatitudeDegrees>39.2574597336351871490478515625</LatitudeDegrees>
              <LongitudeDegrees>-8.0394895188510417938232421875</LongitudeDegrees>
            </Position>
            <AltitudeMeters>145.1999969482421875</AltitudeMeters>
            <DistanceMeters>83105.193137504</DistanceMeters>
          </Trackpoint>
          <Trackpoint>
            <Time>2018-09-13T11:23:58.000Z</Time>
            <Position>
              <LatitudeDegrees>39.2571422271430492401123046875</LatitudeDegrees>
              <LongitudeDegrees>-8.03914024494588375091552734375</LongitudeDegrees>
            </Position>
            <AltitudeMeters>145.8000030517578125</AltitudeMeters>
            <DistanceMeters>83151.614441262</DistanceMeters>
          </Trackpoint>
          <Trackpoint>
            <Time>2018-09-13T11:24:02.000Z</Time>
            <Position>
              <LatitudeDegrees>39.25679228268563747406005859375</LatitudeDegrees>
              <LongitudeDegrees>-8.03883179090917110443115234375</LongitudeDegrees>
            </Position>
            <AltitudeMeters>143.399993896484375</AltitudeMeters>
            <DistanceMeters>83198.771059303</DistanceMeters>
          </Trackpoint>
          <Trackpoint>
            <Time>2018-09-13T11:24:05.000Z</Time>
            <Position>
              <LatitudeDegrees>39.2565226368606090545654296875</LatitudeDegrees>
              <LongitudeDegrees>-8.03862894885241985321044921875</LongitudeDegrees>
            </Position>
            <AltitudeMeters>141.399993896484375</AltitudeMeters>
            <DistanceMeters>83233.503290906</DistanceMeters>
          </Trackpoint>
          <Trackpoint>
            <Time>2018-09-13T11:24:10.000Z</Time>
            <Position>
              <LatitudeDegrees>39.25607931800186634063720703125</LatitudeDegrees>
              <LongitudeDegrees>-8.038322590291500091552734375</LongitudeDegrees>
            </Position>
            <AltitudeMeters>139</AltitudeMeters>
            <DistanceMeters>83289.465635586</DistanceMeters>
          </Trackpoint>
          <Trackpoint>
            <Time>2018-09-13T11:24:11.000Z</Time>
            <Position>
              <LatitudeDegrees>39.25598912872374057769775390625</LatitudeDegrees>
              <LongitudeDegrees>-8.0382625758647918701171875</LongitudeDegrees>
            </Position>
            <AltitudeMeters>137.8000030517578125</AltitudeMeters>
            <DistanceMeters>83300.758232256</DistanceMeters>
          </Trackpoint>
          <Trackpoint>
            <Time>2018-09-13T11:24:12.000Z</Time>
            <Position>
              <LatitudeDegrees>39.2558991909027099609375</LatitudeDegrees>
              <LongitudeDegrees>-8.038202226161956787109375</LongitudeDegrees>
            </Position>
            <AltitudeMeters>136.399993896484375</AltitudeMeters>
            <DistanceMeters>83312.039228104</DistanceMeters>
          </Trackpoint>
          <Trackpoint>
            <Time>2018-09-13T11:24:14.000Z</Time>
            <Position>
              <LatitudeDegrees>39.255721829831600189208984375</LatitudeDegrees>
              <LongitudeDegrees>-8.03808144293725490570068359375</LongitudeDegrees>
            </Position>
            <AltitudeMeters>134</AltitudeMeters>
            <DistanceMeters>83334.356348578</DistanceMeters>
          </Trackpoint>
          <Trackpoint>
            <Time>2018-09-13T11:24:17.000Z</Time>
            <Position>
              <LatitudeDegrees>39.25545503385365009307861328125</LatitudeDegrees>
              <LongitudeDegrees>-8.03790072910487651824951171875</LongitudeDegrees>
            </Position>
            <AltitudeMeters>131.600006103515625</AltitudeMeters>
            <DistanceMeters>83367.887854782</DistanceMeters>
          </Trackpoint>
          <Trackpoint>
            <Time>2018-09-13T11:24:23.000Z</Time>
            <Position>
              <LatitudeDegrees>39.2549166642129421234130859375</LatitudeDegrees>
              <LongitudeDegrees>-8.03753812797367572784423828125</LongitudeDegrees>
            </Position>
            <AltitudeMeters>128.600006103515625</AltitudeMeters>
            <DistanceMeters>83435.468954015</DistanceMeters>
          </Trackpoint>
          <Trackpoint>
            <Time>2018-09-13T11:24:26.000Z</Time>
            <Position>
              <LatitudeDegrees>39.2546460963785648345947265625</LatitudeDegrees>
              <LongitudeDegrees>-8.037354648113250732421875</LongitudeDegrees>
            </Position>
            <AltitudeMeters>127.8000030517578125</AltitudeMeters>
            <DistanceMeters>83469.48294311</DistanceMeters>
          </Trackpoint>
          <Trackpoint>
            <Time>2018-09-13T11:24:31.000Z</Time>
            <Position>
              <LatitudeDegrees>39.25418718717992305755615234375</LatitudeDegrees>
              <LongitudeDegrees>-8.03703873418271541595458984375</LongitudeDegrees>
            </Position>
            <AltitudeMeters>127</AltitudeMeters>
            <DistanceMeters>83527.364197688</DistanceMeters>
          </Trackpoint>
          <Trackpoint>
            <Time>2018-09-13T11:24:34.000Z</Time>
            <Position>
              <LatitudeDegrees>39.25391024909913539886474609375</LatitudeDegrees>
              <LongitudeDegrees>-8.0368515662848949432373046875</LongitudeDegrees>
            </Position>
            <AltitudeMeters>126.59999847412109375</AltitudeMeters>
            <DistanceMeters>83562.15383991</DistanceMeters>
          </Trackpoint>
          <Trackpoint>
            <Time>2018-09-13T11:24:39.000Z</Time>
            <Position>
              <LatitudeDegrees>39.25344429910182952880859375</LatitudeDegrees>
              <LongitudeDegrees>-8.03654101677238941192626953125</LongitudeDegrees>
            </Position>
            <AltitudeMeters>125.8000030517578125</AltitudeMeters>
            <DistanceMeters>83620.514479327</DistanceMeters>
          </Trackpoint>
          <Trackpoint>
            <Time>2018-09-13T11:24:42.000Z</Time>
            <Position>
              <LatitudeDegrees>39.253177754580974578857421875</LatitudeDegrees>
              <LongitudeDegrees>-8.03635644726455211639404296875</LongitudeDegrees>
            </Position>
            <AltitudeMeters>125.40000152587890625</AltitudeMeters>
            <DistanceMeters>83654.177282136</DistanceMeters>
          </Trackpoint>
          <Trackpoint>
            <Time>2018-09-13T11:24:46.000Z</Time>
            <Position>
              <LatitudeDegrees>39.252831749618053436279296875</LatitudeDegrees>
              <LongitudeDegrees>-8.03611538372933864593505859375</LongitudeDegrees>
            </Position>
            <AltitudeMeters>124.8000030517578125</AltitudeMeters>
            <DistanceMeters>83697.935407432</DistanceMeters>
          </Trackpoint>
          <Trackpoint>
            <Time>2018-09-13T11:24:49.000Z</Time>
            <Position>
              <LatitudeDegrees>39.2525720782577991485595703125</LatitudeDegrees>
              <LongitudeDegrees>-8.03593911230564117431640625</LongitudeDegrees>
            </Position>
            <AltitudeMeters>125</AltitudeMeters>
            <DistanceMeters>83730.587006861</DistanceMeters>
          </Trackpoint>
          <Trackpoint>
            <Time>2018-09-13T11:24:54.000Z</Time>
            <Position>
              <LatitudeDegrees>39.25214887596666812896728515625</LatitudeDegrees>
              <LongitudeDegrees>-8.035653121769428253173828125</LongitudeDegrees>
            </Position>
            <AltitudeMeters>125.1999969482421875</AltitudeMeters>
            <DistanceMeters>83783.749846382</DistanceMeters>
          </Trackpoint>
          <Trackpoint>
            <Time>2018-09-13T11:24:58.000Z</Time>
            <Position>
              <LatitudeDegrees>39.25181779079139232635498046875</LatitudeDegrees>
              <LongitudeDegrees>-8.03542546927928924560546875</LongitudeDegrees>
            </Position>
            <AltitudeMeters>124.59999847412109375</AltitudeMeters>
            <DistanceMeters>83825.498273595</DistanceMeters>
          </Trackpoint>
          <Trackpoint>
            <Time>2018-09-13T11:25:03.000Z</Time>
            <Position>
              <LatitudeDegrees>39.25140975974500179290771484375</LatitudeDegrees>
              <LongitudeDegrees>-8.03515263833105564117431640625</LongitudeDegrees>
            </Position>
            <AltitudeMeters>124.8000030517578125</AltitudeMeters>
            <DistanceMeters>83876.639864411</DistanceMeters>
          </Trackpoint>
          <Trackpoint>
            <Time>2018-09-13T11:25:10.000Z</Time>
            <Position>
              <LatitudeDegrees>39.25087801180779933929443359375</LatitudeDegrees>
              <LongitudeDegrees>-8.0347876064479351043701171875</LongitudeDegrees>
            </Position>
            <AltitudeMeters>124.8000030517578125</AltitudeMeters>
            <DistanceMeters>83943.667386988</DistanceMeters>
          </Trackpoint>
          <Trackpoint>
            <Time>2018-09-13T11:25:12.000Z</Time>
            <Position>
              <LatitudeDegrees>39.25073518417775630950927734375</LatitudeDegrees>
              <LongitudeDegrees>-8.03469029255211353302001953125</LongitudeDegrees>
            </Position>
            <AltitudeMeters>124.59999847412109375</AltitudeMeters>
            <DistanceMeters>83961.641508522</DistanceMeters>
          </Trackpoint>
          <Trackpoint>
            <Time>2018-09-13T11:25:16.000Z</Time>
            <Position>
              <LatitudeDegrees>39.25045975483953952789306640625</LatitudeDegrees>
              <LongitudeDegrees>-8.03451309911906719207763671875</LongitudeDegrees>
            </Position>
            <AltitudeMeters>125</AltitudeMeters>
            <DistanceMeters>83995.89096093</DistanceMeters>
          </Trackpoint>
          <Trackpoint>
            <Time>2018-09-13T11:25:24.000Z</Time>
            <Position>
              <LatitudeDegrees>39.2499190382659435272216796875</LatitudeDegrees>
              <LongitudeDegrees>-8.034139014780521392822265625</LongitudeDegrees>
            </Position>
            <AltitudeMeters>123.8000030517578125</AltitudeMeters>
            <DistanceMeters>84064.166646738</DistanceMeters>
          </Trackpoint>
          <Trackpoint>
            <Time>2018-09-13T11:25:32.000Z</Time>
            <Position>
              <LatitudeDegrees>39.24938150681555271148681640625</LatitudeDegrees>
              <LongitudeDegrees>-8.0337757430970668792724609375</LongitudeDegrees>
            </Position>
            <AltitudeMeters>122.40000152587890625</AltitudeMeters>
            <DistanceMeters>84131.693007079</DistanceMeters>
          </Trackpoint>
          <Trackpoint>
            <Time>2018-09-13T11:25:40.000Z</Time>
            <Position>
              <LatitudeDegrees>39.24884892068803310394287109375</LatitudeDegrees>
              <LongitudeDegrees>-8.03340752609074115753173828125</LongitudeDegrees>
            </Position>
            <AltitudeMeters>123</AltitudeMeters>
            <DistanceMeters>84198.932449029</DistanceMeters>
          </Trackpoint>
          <Trackpoint>
            <Time>2018-09-13T11:25:48.000Z</Time>
            <Position>
              <LatitudeDegrees>39.24831817857921123504638671875</LatitudeDegrees>
              <LongitudeDegrees>-8.03304408676922321319580078125</LongitudeDegrees>
            </Position>
            <AltitudeMeters>121.8000030517578125</AltitudeMeters>
            <DistanceMeters>84265.797232049</DistanceMeters>
          </Trackpoint>
          <Trackpoint>
            <Time>2018-09-13T11:25:56.000Z</Time>
            <Position>
              <LatitudeDegrees>39.2477920465171337127685546875</LatitudeDegrees>
              <LongitudeDegrees>-8.03268986754119396209716796875</LongitudeDegrees>
            </Position>
            <AltitudeMeters>121.8000030517578125</AltitudeMeters>
            <DistanceMeters>84331.838132266</DistanceMeters>
          </Trackpoint>
          <Trackpoint>
            <Time>2018-09-13T11:26:04.000Z</Time>
            <Position>
              <LatitudeDegrees>39.2472700215876102447509765625</LatitudeDegrees>
              <LongitudeDegrees>-8.03232626058161258697509765625</LongitudeDegrees>
            </Position>
            <AltitudeMeters>120.40000152587890625</AltitudeMeters>
            <DistanceMeters>84397.854415665</DistanceMeters>
          </Trackpoint>
          <Trackpoint>
            <Time>2018-09-13T11:26:09.000Z</Time>
            <Position>
              <LatitudeDegrees>39.24695125780999660491943359375</LatitudeDegrees>
              <LongitudeDegrees>-8.0321097560226917266845703125</LongitudeDegrees>
            </Position>
            <AltitudeMeters>120.8000030517578125</AltitudeMeters>
            <DistanceMeters>84437.942063316</DistanceMeters>
          </Trackpoint>
          <Trackpoint>
            <Time>2018-09-13T11:26:15.000Z</Time>
            <Position>
              <LatitudeDegrees>39.24656887538731098175048828125</LatitudeDegrees>
              <LongitudeDegrees>-8.031851761043071746826171875</LongitudeDegrees>
            </Position>
            <AltitudeMeters>120.40000152587890625</AltitudeMeters>
            <DistanceMeters>84485.961686393</DistanceMeters>
          </Trackpoint>
          <Trackpoint>
            <Time>2018-09-13T11:26:21.000Z</Time>
            <Position>
              <LatitudeDegrees>39.24622102640569210052490234375</LatitudeDegrees>
              <LongitudeDegrees>-8.0316106975078582763671875</LongitudeDegrees>
            </Position>
            <AltitudeMeters>119.59999847412109375</AltitudeMeters>
            <DistanceMeters>84529.901447252</DistanceMeters>
          </Trackpoint>
          <Trackpoint>
            <Time>2018-09-13T11:26:31.000Z</Time>
            <Position>
              <LatitudeDegrees>39.24572163261473178863525390625</LatitudeDegrees>
              <LongitudeDegrees>-8.03127533756196498870849609375</LongitudeDegrees>
            </Position>
            <AltitudeMeters>119.1999969482421875</AltitudeMeters>
            <DistanceMeters>84592.552236458</DistanceMeters>
          </Trackpoint>
          <Trackpoint>
            <Time>2018-09-13T11:26:40.000Z</Time>
            <Position>
              <LatitudeDegrees>39.2453140206634998321533203125</LatitudeDegrees>
              <LongitudeDegrees>-8.03106981329619884490966796875</LongitudeDegrees>
            </Position>
            <AltitudeMeters>118</AltitudeMeters>
            <DistanceMeters>84641.256370994</DistanceMeters>
          </Trackpoint>
          <Trackpoint>
            <Time>2018-09-13T11:26:43.000Z</Time>
            <Position>
              <LatitudeDegrees>39.24518099986016750335693359375</LatitudeDegrees>
              <LongitudeDegrees>-8.03104701451957225799560546875</LongitudeDegrees>
            </Position>
            <AltitudeMeters>118.1999969482421875</AltitudeMeters>
            <DistanceMeters>84656.191898383</DistanceMeters>
          </Trackpoint>
          <Trackpoint>
            <Time>2018-09-13T11:26:47.000Z</Time>
            <Position>
              <LatitudeDegrees>39.245006404817104339599609375</LatitudeDegrees>
              <LongitudeDegrees>-8.0309092998504638671875</LongitudeDegrees>
            </Position>
            <AltitudeMeters>117.40000152587890625</AltitudeMeters>
            <DistanceMeters>84678.963440046</DistanceMeters>
          </Trackpoint>
          <Trackpoint>
            <Time>2018-09-13T11:26:50.000Z</Time>
            <Position>
              <LatitudeDegrees>39.24500338733196258544921875</LatitudeDegrees>
              <LongitudeDegrees>-8.03070402704179286956787109375</LongitudeDegrees>
            </Position>
            <AltitudeMeters>118.40000152587890625</AltitudeMeters>
            <DistanceMeters>84696.66087408</DistanceMeters>
          </Trackpoint>
          <Trackpoint>
            <Time>2018-09-13T11:26:56.000Z</Time>
            <Position>
              <LatitudeDegrees>39.24506231211125850677490234375</LatitudeDegrees>
              <LongitudeDegrees>-8.030312173068523406982421875</LongitudeDegrees>
            </Position>
            <AltitudeMeters>120.40000152587890625</AltitudeMeters>
            <DistanceMeters>84731.068681367</DistanceMeters>
          </Trackpoint>
          <Trackpoint>
            <Time>2018-09-13T11:27:09.000Z</Time>
            <Position>
              <LatitudeDegrees>39.24504387192428112030029296875</LatitudeDegrees>
              <LongitudeDegrees>-8.0295774154365062713623046875</LongitudeDegrees>
            </Position>
            <AltitudeMeters>120.59999847412109375</AltitudeMeters>
            <DistanceMeters>84794.436253853</DistanceMeters>
          </Trackpoint>
          <Trackpoint>
            <Time>2018-09-13T11:27:18.000Z</Time>
            <Position>
              <LatitudeDegrees>39.245016463100910186767578125</LatitudeDegrees>
              <LongitudeDegrees>-8.029129989445209503173828125</LongitudeDegrees>
            </Position>
            <AltitudeMeters>120.40000152587890625</AltitudeMeters>
            <DistanceMeters>84833.123682178</DistanceMeters>
          </Trackpoint>
          <Trackpoint>
            <Time>2018-09-13T11:27:32.000Z</Time>
            <Position>
              <LatitudeDegrees>39.24497564323246479034423828125</LatitudeDegrees>
              <LongitudeDegrees>-8.028577454388141632080078125</LongitudeDegrees>
            </Position>
            <AltitudeMeters>119.40000152587890625</AltitudeMeters>
            <DistanceMeters>84880.967061317</DistanceMeters>
          </Trackpoint>
          <Trackpoint>
            <Time>2018-09-13T11:27:35.000Z</Time>
            <Position>
              <LatitudeDegrees>39.244964160025119781494140625</LatitudeDegrees>
              <LongitudeDegrees>-8.0284270830452442169189453125</LongitudeDegrees>
            </Position>
            <AltitudeMeters>119.59999847412109375</AltitudeMeters>
            <DistanceMeters>84893.991615669</DistanceMeters>
          </Trackpoint>
          <Trackpoint>
            <Time>2018-09-13T11:27:47.000Z</Time>
            <Position>
              <LatitudeDegrees>39.24491479061543941497802734375</LatitudeDegrees>
              <LongitudeDegrees>-8.02768235094845294952392578125</LongitudeDegrees>
            </Position>
            <AltitudeMeters>119</AltitudeMeters>
            <DistanceMeters>84958.420568951</DistanceMeters>
          </Trackpoint>
          <Trackpoint>
            <Time>2018-09-13T11:27:49.000Z</Time>
            <Position>
              <LatitudeDegrees>39.2449056543409824371337890625</LatitudeDegrees>
              <LongitudeDegrees>-8.0275416187942028045654296875</LongitudeDegrees>
            </Position>
            <AltitudeMeters>118.8000030517578125</AltitudeMeters>
            <DistanceMeters>84970.593635715</DistanceMeters>
          </Trackpoint>
          <Trackpoint>
            <Time>2018-09-13T11:27:50.000Z</Time>
            <Position>
              <LatitudeDegrees>39.24490146338939666748046875</LatitudeDegrees>
              <LongitudeDegrees>-8.02747045643627643585205078125</LongitudeDegrees>
            </Position>
            <AltitudeMeters>118.59999847412109375</AltitudeMeters>
            <DistanceMeters>84976.745468806</DistanceMeters>
          </Trackpoint>
          <Trackpoint>
            <Time>2018-09-13T11:27:53.000Z</Time>
            <Position>
              <LatitudeDegrees>39.24488662742078304290771484375</LatitudeDegrees>
              <LongitudeDegrees>-8.0272744037210941314697265625</LongitudeDegrees>
            </Position>
            <AltitudeMeters>117.8000030517578125</AltitudeMeters>
            <DistanceMeters>84993.72522972</DistanceMeters>
          </Trackpoint>
          <Trackpoint>
            <Time>2018-09-13T11:28:01.000Z</Time>
            <Position>
              <LatitudeDegrees>39.2448654212057590484619140625</LatitudeDegrees>
              <LongitudeDegrees>-8.02692177705466747283935546875</LongitudeDegrees>
            </Position>
            <AltitudeMeters>117.59999847412109375</AltitudeMeters>
            <DistanceMeters>85024.212370753</DistanceMeters>
          </Trackpoint>
          <Trackpoint>
            <Time>2018-09-13T11:28:07.000Z</Time>
            <Position>
              <LatitudeDegrees>39.2448634095489978790283203125</LatitudeDegrees>
              <LongitudeDegrees>-8.02679420448839664459228515625</LongitudeDegrees>
            </Position>
            <AltitudeMeters>117.59999847412109375</AltitudeMeters>
            <DistanceMeters>85035.210866289</DistanceMeters>
          </Trackpoint>
          <Trackpoint>
            <Time>2018-09-13T11:28:08.000Z</Time>
            <Position>
              <LatitudeDegrees>39.24487204290926456451416015625</LatitudeDegrees>
              <LongitudeDegrees>-8.0267741717398166656494140625</LongitudeDegrees>
            </Position>
            <AltitudeMeters>117.59999847412109375</AltitudeMeters>
            <DistanceMeters>85037.185959457</DistanceMeters>
          </Trackpoint>
          <Trackpoint>
            <Time>2018-09-13T11:28:10.000Z</Time>
            <Position>
              <LatitudeDegrees>39.244911186397075653076171875</LatitudeDegrees>
              <LongitudeDegrees>-8.02676956169307231903076171875</LongitudeDegrees>
            </Position>
            <AltitudeMeters>117.40000152587890625</AltitudeMeters>
            <DistanceMeters>85041.559253628</DistanceMeters>
          </Trackpoint>
          <Trackpoint>
            <Time>2018-09-13T11:28:16.000Z</Time>
            <Position>
              <LatitudeDegrees>39.24500179477035999298095703125</LatitudeDegrees>
              <LongitudeDegrees>-8.02684633992612361907958984375</LongitudeDegrees>
            </Position>
            <AltitudeMeters>117</AltitudeMeters>
            <DistanceMeters>85053.621284621</DistanceMeters>
          </Trackpoint>
          <Trackpoint>
            <Time>2018-09-13T11:28:19.000Z</Time>
            <Position>
              <LatitudeDegrees>39.2449981905519962310791015625</LatitudeDegrees>
              <LongitudeDegrees>-8.02686712704598903656005859375</LongitudeDegrees>
            </Position>
            <AltitudeMeters>117</AltitudeMeters>
            <DistanceMeters>85055.459013815</DistanceMeters>
          </Trackpoint>
          <Trackpoint>
            <Time>2018-09-13T11:29:11.000Z</Time>
            <Position>
              <LatitudeDegrees>39.2449706979095935821533203125</LatitudeDegrees>
              <LongitudeDegrees>-8.02689277566969394683837890625</LongitudeDegrees>
            </Position>
            <AltitudeMeters>117.1999969482421875</AltitudeMeters>
            <DistanceMeters>85059.23385959</DistanceMeters>
          </Trackpoint>
          <Trackpoint>
            <Time>2018-09-13T11:29:15.000Z</Time>
            <Position>
              <LatitudeDegrees>39.24495670013129711151123046875</LatitudeDegrees>
              <LongitudeDegrees>-8.0270299874246120452880859375</LongitudeDegrees>
            </Position>
            <AltitudeMeters>117.1999969482421875</AltitudeMeters>
            <DistanceMeters>85071.163402949</DistanceMeters>
          </Trackpoint>
          <Trackpoint>
            <Time>2018-09-13T11:29:17.000Z</Time>
            <Position>
              <LatitudeDegrees>39.24496089108288288116455078125</LatitudeDegrees>
              <LongitudeDegrees>-8.027117662131786346435546875</LongitudeDegrees>
            </Position>
            <AltitudeMeters>117.40000152587890625</AltitudeMeters>
            <DistanceMeters>85078.735786023</DistanceMeters>
          </Trackpoint>
          <Trackpoint>
            <Time>2018-09-13T11:29:21.000Z</Time>
            <Position>
              <LatitudeDegrees>39.24497161991894245147705078125</LatitudeDegrees>
              <LongitudeDegrees>-8.02730114199221134185791015625</LongitudeDegrees>
            </Position>
            <AltitudeMeters>118</AltitudeMeters>
            <DistanceMeters>85094.596425026</DistanceMeters>
          </Trackpoint>
          <Trackpoint>
            <Time>2018-09-13T11:29:25.000Z</Time>
            <Position>
              <LatitudeDegrees>39.24498218111693859100341796875</LatitudeDegrees>
              <LongitudeDegrees>-8.02749778144061565399169921875</LongitudeDegrees>
            </Position>
            <AltitudeMeters>118.59999847412109375</AltitudeMeters>
            <DistanceMeters>85111.586818893</DistanceMeters>
          </Trackpoint>
          <Trackpoint>
            <Time>2018-09-13T11:29:31.000Z</Time>
            <Position>
              <LatitudeDegrees>39.24499668180942535400390625</LatitudeDegrees>
              <LongitudeDegrees>-8.0277858674526214599609375</LongitudeDegrees>
            </Position>
            <AltitudeMeters>119</AltitudeMeters>
            <DistanceMeters>85136.47166473</DistanceMeters>
          </Trackpoint>
          <Trackpoint>
            <Time>2018-09-13T11:29:36.000Z</Time>
            <Position>
              <LatitudeDegrees>39.2450126074254512786865234375</LatitudeDegrees>
              <LongitudeDegrees>-8.0280234105885028839111328125</LongitudeDegrees>
            </Position>
            <AltitudeMeters>119.1999969482421875</AltitudeMeters>
            <DistanceMeters>85157.023814392</DistanceMeters>
          </Trackpoint>
          <Trackpoint>
            <Time>2018-09-13T11:29:39.000Z</Time>
            <Position>
              <LatitudeDegrees>39.24501973204314708709716796875</LatitudeDegrees>
              <LongitudeDegrees>-8.02817101590335369110107421875</LongitudeDegrees>
            </Position>
            <AltitudeMeters>119.40000152587890625</AltitudeMeters>
            <DistanceMeters>85169.771569319</DistanceMeters>
          </Trackpoint>
          <Trackpoint>
            <Time>2018-09-13T11:29:45.000Z</Time>
            <Position>
              <LatitudeDegrees>39.24503750167787075042724609375</LatitudeDegrees>
              <LongitudeDegrees>-8.02849053405225276947021484375</LongitudeDegrees>
            </Position>
            <AltitudeMeters>119.59999847412109375</AltitudeMeters>
            <DistanceMeters>85197.38431157</DistanceMeters>
          </Trackpoint>
          <Trackpoint>
            <Time>2018-09-13T11:29:50.000Z</Time>
            <Position>
              <LatitudeDegrees>39.2450561933219432830810546875</LatitudeDegrees>
              <LongitudeDegrees>-8.02879228256642818450927734375</LongitudeDegrees>
            </Position>
            <AltitudeMeters>119.8000030517578125</AltitudeMeters>
            <DistanceMeters>85223.477235393</DistanceMeters>
          </Trackpoint>
          <Trackpoint>
            <Time>2018-09-13T11:29:55.000Z</Time>
            <Position>
              <LatitudeDegrees>39.2450742982327938079833984375</LatitudeDegrees>
              <LongitudeDegrees>-8.0291348509490489959716796875</LongitudeDegrees>
            </Position>
            <AltitudeMeters>120.59999847412109375</AltitudeMeters>
            <DistanceMeters>85253.074357816</DistanceMeters>
          </Trackpoint>
          <Trackpoint>
            <Time>2018-09-13T11:30:05.000Z</Time>
            <Position>
              <LatitudeDegrees>39.2451207339763641357421875</LatitudeDegrees>
              <LongitudeDegrees>-8.02990087307989597320556640625</LongitudeDegrees>
            </Position>
            <AltitudeMeters>121</AltitudeMeters>
            <DistanceMeters>85319.305455454</DistanceMeters>
          </Trackpoint>
          <Trackpoint>
            <Time>2018-09-13T11:30:14.000Z</Time>
            <Position>
              <LatitudeDegrees>39.24523581750690937042236328125</LatitudeDegrees>
              <LongitudeDegrees>-8.03064652718603610992431640625</LongitudeDegrees>
            </Position>
            <AltitudeMeters>119.1999969482421875</AltitudeMeters>
            <DistanceMeters>85384.842825179</DistanceMeters>
          </Trackpoint>
          <Trackpoint>
            <Time>2018-09-13T11:30:16.000Z</Time>
            <Position>
              <LatitudeDegrees>39.2452778108417987823486328125</LatitudeDegrees>
              <LongitudeDegrees>-8.0308172665536403656005859375</LongitudeDegrees>
            </Position>
            <AltitudeMeters>118.40000152587890625</AltitudeMeters>
            <DistanceMeters>85400.284593167</DistanceMeters>
          </Trackpoint>
          <Trackpoint>
            <Time>2018-09-13T11:30:20.000Z</Time>
            <Position>
              <LatitudeDegrees>39.24524017609655857086181640625</LatitudeDegrees>
              <LongitudeDegrees>-8.031183890998363494873046875</LongitudeDegrees>
            </Position>
            <AltitudeMeters>117.8000030517578125</AltitudeMeters>
            <DistanceMeters>85432.162904647</DistanceMeters>
          </Trackpoint>
          <Trackpoint>
            <Time>2018-09-13T11:30:23.000Z</Time>
            <Position>
              <LatitudeDegrees>39.24519558437168598175048828125</LatitudeDegrees>
              <LongitudeDegrees>-8.03147868253290653228759765625</LongitudeDegrees>
            </Position>
            <AltitudeMeters>117.59999847412109375</AltitudeMeters>
            <DistanceMeters>85458.053106934</DistanceMeters>
          </Trackpoint>
          <Trackpoint>
            <Time>2018-09-13T11:30:30.000Z</Time>
            <Position>
              <LatitudeDegrees>39.24510891549289226531982421875</LatitudeDegrees>
              <LongitudeDegrees>-8.0321731232106685638427734375</LongitudeDegrees>
            </Position>
            <AltitudeMeters>118.40000152587890625</AltitudeMeters>
            <DistanceMeters>85518.684395477</DistanceMeters>
          </Trackpoint>
          <Trackpoint>
            <Time>2018-09-13T11:30:34.000Z</Time>
            <Position>
              <LatitudeDegrees>39.24502576701343059539794921875</LatitudeDegrees>
              <LongitudeDegrees>-8.03255206905305385589599609375</LongitudeDegrees>
            </Position>
            <AltitudeMeters>119.1999969482421875</AltitudeMeters>
            <DistanceMeters>85552.634343302</DistanceMeters>
          </Trackpoint>
          <Trackpoint>
            <Time>2018-09-13T11:30:42.000Z</Time>
            <Position>
              <LatitudeDegrees>39.24478168599307537078857421875</LatitudeDegrees>
              <LongitudeDegrees>-8.0332084558904170989990234375</LongitudeDegrees>
            </Position>
            <AltitudeMeters>120.8000030517578125</AltitudeMeters>
            <DistanceMeters>85615.397455935</DistanceMeters>
          </Trackpoint>
          <Trackpoint>
            <Time>2018-09-13T11:30:47.000Z</Time>
            <Position>
              <LatitudeDegrees>39.24459979869425296783447265625</LatitudeDegrees>
              <LongitudeDegrees>-8.03352587856352329254150390625</LongitudeDegrees>
            </Position>
            <AltitudeMeters>121.8000030517578125</AltitudeMeters>
            <DistanceMeters>85649.433738149</DistanceMeters>
          </Trackpoint>
          <Trackpoint>
            <Time>2018-09-13T11:30:51.000Z</Time>
            <Position>
              <LatitudeDegrees>39.2444285564124584197998046875</LatitudeDegrees>
              <LongitudeDegrees>-8.03374548442661762237548828125</LongitudeDegrees>
            </Position>
            <AltitudeMeters>122.40000152587890625</AltitudeMeters>
            <DistanceMeters>85676.296228887</DistanceMeters>
          </Trackpoint>
          <Trackpoint>
            <Time>2018-09-13T11:30:59.000Z</Time>
            <Position>
              <LatitudeDegrees>39.244007281959056854248046875</LatitudeDegrees>
              <LongitudeDegrees>-8.03408914245665073394775390625</LongitudeDegrees>
            </Position>
            <AltitudeMeters>121.8000030517578125</AltitudeMeters>
            <DistanceMeters>85731.758463068</DistanceMeters>
          </Trackpoint>
          <Trackpoint>
            <Time>2018-09-13T11:31:00.000Z</Time>
            <Position>
              <LatitudeDegrees>39.243947602808475494384765625</LatitudeDegrees>
              <LongitudeDegrees>-8.034120909869670867919921875</LongitudeDegrees>
            </Position>
            <AltitudeMeters>121.59999847412109375</AltitudeMeters>
            <DistanceMeters>85738.942884893</DistanceMeters>
          </Trackpoint>
          <Trackpoint>
            <Time>2018-09-13T11:31:09.000Z</Time>
            <Position>
              <LatitudeDegrees>39.24338559620082378387451171875</LatitudeDegrees>
              <LongitudeDegrees>-8.03439550101757049560546875</LongitudeDegrees>
            </Position>
            <AltitudeMeters>121.1999969482421875</AltitudeMeters>
            <DistanceMeters>85805.823871927</DistanceMeters>
          </Trackpoint>
          <Trackpoint>
            <Time>2018-09-13T11:31:17.000Z</Time>
            <Position>
              <LatitudeDegrees>39.242872707545757293701171875</LatitudeDegrees>
              <LongitudeDegrees>-8.03463849239051342010498046875</LongitudeDegrees>
            </Position>
            <AltitudeMeters>121.40000152587890625</AltitudeMeters>
            <DistanceMeters>85866.630723194</DistanceMeters>
          </Trackpoint>
          <Trackpoint>
            <Time>2018-09-13T11:31:24.000Z</Time>
            <Position>
              <LatitudeDegrees>39.24244749359786510467529296875</LatitudeDegrees>
              <LongitudeDegrees>-8.0348466150462627410888671875</LongitudeDegrees>
            </Position>
            <AltitudeMeters>122.1999969482421875</AltitudeMeters>
            <DistanceMeters>85917.24402447</DistanceMeters>
          </Trackpoint>
          <Trackpoint>
            <Time>2018-09-13T11:31:33.000Z</Time>
            <Position>
              <LatitudeDegrees>39.24189068377017974853515625</LatitudeDegrees>
              <LongitudeDegrees>-8.03510955534875392913818359375</LongitudeDegrees>
            </Position>
            <AltitudeMeters>122.8000030517578125</AltitudeMeters>
            <DistanceMeters>85983.232876659</DistanceMeters>
          </Trackpoint>
          <Trackpoint>
            <Time>2018-09-13T11:31:42.000Z</Time>
            <Position>
              <LatitudeDegrees>39.24132649786770343780517578125</LatitudeDegrees>
              <LongitudeDegrees>-8.03538179956376552581787109375</LongitudeDegrees>
            </Position>
            <AltitudeMeters>120.40000152587890625</AltitudeMeters>
            <DistanceMeters>86050.269896458</DistanceMeters>
          </Trackpoint>
          <Trackpoint>
            <Time>2018-09-13T11:31:51.000Z</Time>
            <Position>
              <LatitudeDegrees>39.24075686372816562652587890625</LatitudeDegrees>
              <LongitudeDegrees>-8.03565823473036289215087890625</LongitudeDegrees>
            </Position>
            <AltitudeMeters>120.1999969482421875</AltitudeMeters>
            <DistanceMeters>86118.001482857</DistanceMeters>
          </Trackpoint>
          <Trackpoint>
            <Time>2018-09-13T11:31:59.000Z</Time>
            <Position>
              <LatitudeDegrees>39.2402350902557373046875</LatitudeDegrees>
              <LongitudeDegrees>-8.03591153584420680999755859375</LongitudeDegrees>
            </Position>
            <AltitudeMeters>120.8000030517578125</AltitudeMeters>
            <DistanceMeters>86180.045122556</DistanceMeters>
          </Trackpoint>
          <Trackpoint>
            <Time>2018-09-13T11:32:07.000Z</Time>
            <Position>
              <LatitudeDegrees>39.2396971397101879119873046875</LatitudeDegrees>
              <LongitudeDegrees>-8.0361733026802539825439453125</LongitudeDegrees>
            </Position>
            <AltitudeMeters>119.8000030517578125</AltitudeMeters>
            <DistanceMeters>86244.031062726</DistanceMeters>
          </Trackpoint>
          <Trackpoint>
            <Time>2018-09-13T11:32:15.000Z</Time>
            <Position>
              <LatitudeDegrees>39.2391529865562915802001953125</LatitudeDegrees>
              <LongitudeDegrees>-8.03643959574401378631591796875</LongitudeDegrees>
            </Position>
            <AltitudeMeters>118.8000030517578125</AltitudeMeters>
            <DistanceMeters>86308.800813951</DistanceMeters>
          </Trackpoint>
          <Trackpoint>
            <Time>2018-09-13T11:32:22.000Z</Time>
            <Position>
              <LatitudeDegrees>39.23864780925214290618896484375</LatitudeDegrees>
              <LongitudeDegrees>-8.0366876162588596343994140625</LongitudeDegrees>
            </Position>
            <AltitudeMeters>118.1999969482421875</AltitudeMeters>
            <DistanceMeters>86368.955951667</DistanceMeters>
          </Trackpoint>
          <Trackpoint>
            <Time>2018-09-13T11:32:29.000Z</Time>
            <Position>
              <LatitudeDegrees>39.2380933463573455810546875</LatitudeDegrees>
              <LongitudeDegrees>-8.0369509756565093994140625</LongitudeDegrees>
            </Position>
            <AltitudeMeters>117.8000030517578125</AltitudeMeters>
            <DistanceMeters>86434.712378151</DistanceMeters>
          </Trackpoint>
          <Trackpoint>
            <Time>2018-09-13T11:32:33.000Z</Time>
            <Position>
              <LatitudeDegrees>39.23777860589325428009033203125</LatitudeDegrees>
              <LongitudeDegrees>-8.037107549607753753662109375</LongitudeDegrees>
            </Position>
            <AltitudeMeters>117.8000030517578125</AltitudeMeters>
            <DistanceMeters>86472.254064462</DistanceMeters>
          </Trackpoint>
          <Trackpoint>
            <Time>2018-09-13T11:32:40.000Z</Time>
            <Position>
              <LatitudeDegrees>39.2372375540435314178466796875</LatitudeDegrees>
              <LongitudeDegrees>-8.03737384267151355743408203125</LongitudeDegrees>
            </Position>
            <AltitudeMeters>117.8000030517578125</AltitudeMeters>
            <DistanceMeters>86536.70130545</DistanceMeters>
          </Trackpoint>
          <Trackpoint>
            <Time>2018-09-13T11:32:47.000Z</Time>
            <Position>
              <LatitudeDegrees>39.2367054708302021026611328125</LatitudeDegrees>
              <LongitudeDegrees>-8.0376314185559749603271484375</LongitudeDegrees>
            </Position>
            <AltitudeMeters>118</AltitudeMeters>
            <DistanceMeters>86599.949133432</DistanceMeters>
          </Trackpoint>
          <Trackpoint>
            <Time>2018-09-13T11:32:54.000Z</Time>
            <Position>
              <LatitudeDegrees>39.23617078922688961029052734375</LatitudeDegrees>
              <LongitudeDegrees>-8.0378946103155612945556640625</LongitudeDegrees>
            </Position>
            <AltitudeMeters>117.59999847412109375</AltitudeMeters>
            <DistanceMeters>86663.638870276</DistanceMeters>
          </Trackpoint>
          <Trackpoint>
            <Time>2018-09-13T11:33:01.000Z</Time>
            <Position>
              <LatitudeDegrees>39.23563702963292598724365234375</LatitudeDegrees>
              <LongitudeDegrees>-8.0381484143435955047607421875</LongitudeDegrees>
            </Position>
            <AltitudeMeters>116.8000030517578125</AltitudeMeters>
            <DistanceMeters>86726.948488744</DistanceMeters>
          </Trackpoint>
          <Trackpoint>
            <Time>2018-09-13T11:33:07.000Z</Time>
            <Position>
              <LatitudeDegrees>39.2351662181317806243896484375</LatitudeDegrees>
              <LongitudeDegrees>-8.03837631829082965850830078125</LongitudeDegrees>
            </Position>
            <AltitudeMeters>116.1999969482421875</AltitudeMeters>
            <DistanceMeters>86782.91301174</DistanceMeters>
          </Trackpoint>
          <Trackpoint>
            <Time>2018-09-13T11:33:14.000Z</Time>
            <Position>
              <LatitudeDegrees>39.2346173711121082305908203125</LatitudeDegrees>
              <LongitudeDegrees>-8.038647808134555816650390625</LongitudeDegrees>
            </Position>
            <AltitudeMeters>117</AltitudeMeters>
            <DistanceMeters>86848.331019721</DistanceMeters>
          </Trackpoint>
          <Trackpoint>
            <Time>2018-09-13T11:33:21.000Z</Time>
            <Position>
              <LatitudeDegrees>39.23405569978058338165283203125</LatitudeDegrees>
              <LongitudeDegrees>-8.038920052349567413330078125</LongitudeDegrees>
            </Position>
            <AltitudeMeters>118</AltitudeMeters>
            <DistanceMeters>86915.106880837</DistanceMeters>
          </Trackpoint>
          <Trackpoint>
            <Time>2018-09-13T11:33:28.000Z</Time>
            <Position>
              <LatitudeDegrees>39.2334921844303607940673828125</LatitudeDegrees>
              <LongitudeDegrees>-8.03919958882033824920654296875</LongitudeDegrees>
            </Position>
            <AltitudeMeters>118.8000030517578125</AltitudeMeters>
            <DistanceMeters>86982.297823965</DistanceMeters>
          </Trackpoint>
          <Trackpoint>
            <Time>2018-09-13T11:33:35.000Z</Time>
            <Position>
              <LatitudeDegrees>39.23294643871486186981201171875</LatitudeDegrees>
              <LongitudeDegrees>-8.039465881884098052978515625</LongitudeDegrees>
            </Position>
            <AltitudeMeters>118</AltitudeMeters>
            <DistanceMeters>87047.233966109</DistanceMeters>
          </Trackpoint>
          <Trackpoint>
            <Time>2018-09-13T11:33:39.000Z</Time>
            <Position>
              <LatitudeDegrees>39.23264603130519390106201171875</LatitudeDegrees>
              <LongitudeDegrees>-8.03961348719894886016845703125</LongitudeDegrees>
            </Position>
            <AltitudeMeters>117.8000030517578125</AltitudeMeters>
            <DistanceMeters>87083.009473301</DistanceMeters>
          </Trackpoint>
          <Trackpoint>
            <Time>2018-09-13T11:33:47.000Z</Time>
            <Position>
              <LatitudeDegrees>39.23207321204245090484619140625</LatitudeDegrees>
              <LongitudeDegrees>-8.03988933563232421875</LongitudeDegrees>
            </Position>
            <AltitudeMeters>118</AltitudeMeters>
            <DistanceMeters>87151.056430753</DistanceMeters>
          </Trackpoint>
          <Trackpoint>
            <Time>2018-09-13T11:33:55.000Z</Time>
            <Position>
              <LatitudeDegrees>39.2315029911696910858154296875</LatitudeDegrees>
              <LongitudeDegrees>-8.04016618989408016204833984375</LongitudeDegrees>
            </Position>
            <AltitudeMeters>118</AltitudeMeters>
            <DistanceMeters>87218.863102196</DistanceMeters>
          </Trackpoint>
          <Trackpoint>
            <Time>2018-09-13T11:34:03.000Z</Time>
            <Position>
              <LatitudeDegrees>39.230942241847515106201171875</LatitudeDegrees>
              <LongitudeDegrees>-8.04045067168772220611572265625</LongitudeDegrees>
            </Position>
            <AltitudeMeters>118</AltitudeMeters>
            <DistanceMeters>87285.921805645</DistanceMeters>
          </Trackpoint>
          <Trackpoint>
            <Time>2018-09-13T11:34:11.000Z</Time>
            <Position>
              <LatitudeDegrees>39.23041828908026218414306640625</LatitudeDegrees>
              <LongitudeDegrees>-8.0407394282519817352294921875</LongitudeDegrees>
            </Position>
            <AltitudeMeters>118</AltitudeMeters>
            <DistanceMeters>87349.33033454</DistanceMeters>
          </Trackpoint>
          <Trackpoint>
            <Time>2018-09-13T11:34:19.000Z</Time>
            <Position>
              <LatitudeDegrees>39.22989509068429470062255859375</LatitudeDegrees>
              <LongitudeDegrees>-8.04109339602291584014892578125</LongitudeDegrees>
            </Position>
            <AltitudeMeters>117.40000152587890625</AltitudeMeters>
            <DistanceMeters>87415.075361967</DistanceMeters>
          </Trackpoint>
          <Trackpoint>
            <Time>2018-09-13T11:34:26.000Z</Time>
            <Position>
              <LatitudeDegrees>39.22945487312972545623779296875</LatitudeDegrees>
              <LongitudeDegrees>-8.04145650006830692291259765625</LongitudeDegrees>
            </Position>
            <AltitudeMeters>116.40000152587890625</AltitudeMeters>
            <DistanceMeters>87473.219598652</DistanceMeters>
          </Trackpoint>
          <Trackpoint>
            <Time>2018-09-13T11:34:31.000Z</Time>
            <Position>
              <LatitudeDegrees>39.2291513644158840179443359375</LatitudeDegrees>
              <LongitudeDegrees>-8.04174114950001239776611328125</LongitudeDegrees>
            </Position>
            <AltitudeMeters>115.1999969482421875</AltitudeMeters>
            <DistanceMeters>87514.974189886</DistanceMeters>
          </Trackpoint>
          <Trackpoint>
            <Time>2018-09-13T11:34:37.000Z</Time>
            <Position>
              <LatitudeDegrees>39.228786416351795196533203125</LatitudeDegrees>
              <LongitudeDegrees>-8.04209520108997821807861328125</LongitudeDegrees>
            </Position>
            <AltitudeMeters>114.40000152587890625</AltitudeMeters>
            <DistanceMeters>87565.784966063</DistanceMeters>
          </Trackpoint>
          <Trackpoint>
            <Time>2018-09-13T11:34:42.000Z</Time>
            <Position>
              <LatitudeDegrees>39.22849397175014019012451171875</LatitudeDegrees>
              <LongitudeDegrees>-8.042349927127361297607421875</LongitudeDegrees>
            </Position>
            <AltitudeMeters>114.1999969482421875</AltitudeMeters>
            <DistanceMeters>87605.050781757</DistanceMeters>
          </Trackpoint>
          <Trackpoint>
            <Time>2018-09-13T11:34:48.000Z</Time>
            <Position>
              <LatitudeDegrees>39.22816137783229351043701171875</LatitudeDegrees>
              <LongitudeDegrees>-8.042523600161075592041015625</LongitudeDegrees>
            </Position>
            <AltitudeMeters>114.59999847412109375</AltitudeMeters>
            <DistanceMeters>87644.98292481</DistanceMeters>
          </Trackpoint>
          <Trackpoint>
            <Time>2018-09-13T11:34:54.000Z</Time>
            <Position>
              <LatitudeDegrees>39.22789315693080425262451171875</LatitudeDegrees>
              <LongitudeDegrees>-8.042715378105640411376953125</LongitudeDegrees>
            </Position>
            <AltitudeMeters>115.1999969482421875</AltitudeMeters>
            <DistanceMeters>87679.109821524</DistanceMeters>
          </Trackpoint>
          <Trackpoint>
            <Time>2018-09-13T11:34:58.000Z</Time>
            <Position>
              <LatitudeDegrees>39.22774010337889194488525390625</LatitudeDegrees>
              <LongitudeDegrees>-8.04282166063785552978515625</LongitudeDegrees>
            </Position>
            <AltitudeMeters>115.59999847412109375</AltitudeMeters>
            <DistanceMeters>87698.453302274</DistanceMeters>
          </Trackpoint>
          <Trackpoint>
            <Time>2018-09-13T11:35:00.000Z</Time>
            <Position>
              <LatitudeDegrees>39.227670617401599884033203125</LatitudeDegrees>
              <LongitudeDegrees>-8.0428603850305080413818359375</LongitudeDegrees>
            </Position>
            <AltitudeMeters>115.59999847412109375</AltitudeMeters>
            <DistanceMeters>87706.87697966</DistanceMeters>
          </Trackpoint>
          <Trackpoint>
            <Time>2018-09-13T11:35:02.000Z</Time>
            <Position>
              <LatitudeDegrees>39.22760657966136932373046875</LatitudeDegrees>
              <LongitudeDegrees>-8.04288092069327831268310546875</LongitudeDegrees>
            </Position>
            <AltitudeMeters>115.59999847412109375</AltitudeMeters>
            <DistanceMeters>87714.220522165</DistanceMeters>
          </Trackpoint>
          <Trackpoint>
            <Time>2018-09-13T11:35:06.000Z</Time>
            <Position>
              <LatitudeDegrees>39.22751077450811862945556640625</LatitudeDegrees>
              <LongitudeDegrees>-8.04290908388793468475341796875</LongitudeDegrees>
            </Position>
            <AltitudeMeters>115.8000030517578125</AltitudeMeters>
            <DistanceMeters>87725.156441533</DistanceMeters>
          </Trackpoint>
          <Trackpoint>
            <Time>2018-09-13T11:35:09.000Z</Time>
            <Position>
              <LatitudeDegrees>39.22747607342898845672607421875</LatitudeDegrees>
              <LongitudeDegrees>-8.04294638335704803466796875</LongitudeDegrees>
            </Position>
            <AltitudeMeters>115.8000030517578125</AltitudeMeters>
            <DistanceMeters>87730.182986458</DistanceMeters>
          </Trackpoint>
          <Trackpoint>
            <Time>2018-09-13T11:35:15.000Z</Time>
            <Position>
              <LatitudeDegrees>39.2274394445121288299560546875</LatitudeDegrees>
              <LongitudeDegrees>-8.04296138696372509002685546875</LongitudeDegrees>
            </Position>
            <AltitudeMeters>115.8000030517578125</AltitudeMeters>
            <DistanceMeters>87734.460244327</DistanceMeters>
          </Trackpoint>
          <Trackpoint>
            <Time>2018-09-13T12:54:07.000Z</Time>
            <Position>
              <LatitudeDegrees>39.227468110620975494384765625</LatitudeDegrees>
              <LongitudeDegrees>-8.04307110607624053955078125</LongitudeDegrees>
            </Position>
            <AltitudeMeters>116.1999969482421875</AltitudeMeters>
            <DistanceMeters>87744.443477957</DistanceMeters>
          </Trackpoint>
          <Trackpoint>
            <Time>2018-09-13T12:54:08.000Z</Time>
            <Position>
              <LatitudeDegrees>39.22746769152581691741943359375</LatitudeDegrees>
              <LongitudeDegrees>-8.0430712737143039703369140625</LongitudeDegrees>
            </Position>
            <AltitudeMeters>116.1999969482421875</AltitudeMeters>
            <DistanceMeters>87744.443477957</DistanceMeters>
          </Trackpoint>
          <Trackpoint>
            <Time>2018-09-13T12:54:37.000Z</Time>
            <Position>
              <LatitudeDegrees>39.227490238845348358154296875</LatitudeDegrees>
              <LongitudeDegrees>-8.04316707886755466461181640625</LongitudeDegrees>
            </Position>
            <AltitudeMeters>116.40000152587890625</AltitudeMeters>
            <DistanceMeters>87753.076800085</DistanceMeters>
          </Trackpoint>
          <Trackpoint>
            <Time>2018-09-13T12:54:38.000Z</Time>
            <Position>
              <LatitudeDegrees>39.2274974472820758819580078125</LatitudeDegrees>
              <LongitudeDegrees>-8.0432023666799068450927734375</LongitudeDegrees>
            </Position>
            <AltitudeMeters>116.40000152587890625</AltitudeMeters>
            <DistanceMeters>87756.222744106</DistanceMeters>
          </Trackpoint>
          <Trackpoint>
            <Time>2018-09-13T12:54:43.000Z</Time>
            <Position>
              <LatitudeDegrees>39.227464087307453155517578125</LatitudeDegrees>
              <LongitudeDegrees>-8.0433817394077777862548828125</LongitudeDegrees>
            </Position>
            <AltitudeMeters>116.8000030517578125</AltitudeMeters>
            <DistanceMeters>87772.127161774</DistanceMeters>
          </Trackpoint>
          <Trackpoint>
            <Time>2018-09-13T12:54:47.000Z</Time>
            <Position>
              <LatitudeDegrees>39.2273556254804134368896484375</LatitudeDegrees>
              <LongitudeDegrees>-8.04350403137505054473876953125</LongitudeDegrees>
            </Position>
            <AltitudeMeters>117</AltitudeMeters>
            <DistanceMeters>87788.156002499</DistanceMeters>
          </Trackpoint>
          <Trackpoint>
            <Time>2018-09-13T12:54:49.000Z</Time>
            <Position>
              <LatitudeDegrees>39.22728563658893108367919921875</LatitudeDegrees>
              <LongitudeDegrees>-8.0435745231807231903076171875</LongitudeDegrees>
            </Position>
            <AltitudeMeters>116.8000030517578125</AltitudeMeters>
            <DistanceMeters>87798.036953187</DistanceMeters>
          </Trackpoint>
          <Trackpoint>
            <Time>2018-09-13T12:55:00.000Z</Time>
            <Position>
              <LatitudeDegrees>39.22684994526207447052001953125</LatitudeDegrees>
              <LongitudeDegrees>-8.04399504326283931732177734375</LongitudeDegrees>
            </Position>
            <AltitudeMeters>116.1999969482421875</AltitudeMeters>
            <DistanceMeters>87858.585825067</DistanceMeters>
          </Trackpoint>
          <Trackpoint>
            <Time>2018-09-13T12:55:02.000Z</Time>
            <Position>
              <LatitudeDegrees>39.2267665453255176544189453125</LatitudeDegrees>
              <LongitudeDegrees>-8.04407416842877864837646484375</LongitudeDegrees>
            </Position>
            <AltitudeMeters>116</AltitudeMeters>
            <DistanceMeters>87870.105634242</DistanceMeters>
          </Trackpoint>
          <Trackpoint>
            <Time>2018-09-13T12:55:12.000Z</Time>
            <Position>
              <LatitudeDegrees>39.226327501237392425537109375</LatitudeDegrees>
              <LongitudeDegrees>-8.04448169656097888946533203125</LongitudeDegrees>
            </Position>
            <AltitudeMeters>115.1999969482421875</AltitudeMeters>
            <DistanceMeters>87930.293337693</DistanceMeters>
          </Trackpoint>
          <Trackpoint>
            <Time>2018-09-13T12:55:23.000Z</Time>
            <Position>
              <LatitudeDegrees>39.2258512414991855621337890625</LatitudeDegrees>
              <LongitudeDegrees>-8.0449226684868335723876953125</LongitudeDegrees>
            </Position>
            <AltitudeMeters>115.40000152587890625</AltitudeMeters>
            <DistanceMeters>87995.527706358</DistanceMeters>
          </Trackpoint>
          <Trackpoint>
            <Time>2018-09-13T12:55:34.000Z</Time>
            <Position>
              <LatitudeDegrees>39.22537053935229778289794921875</LatitudeDegrees>
              <LongitudeDegrees>-8.04536816664040088653564453125</LongitudeDegrees>
            </Position>
            <AltitudeMeters>116.1999969482421875</AltitudeMeters>
            <DistanceMeters>88061.391365787</DistanceMeters>
          </Trackpoint>
          <Trackpoint>
            <Time>2018-09-13T12:55:40.000Z</Time>
            <Position>
              <LatitudeDegrees>39.22510810196399688720703125</LatitudeDegrees>
              <LongitudeDegrees>-8.04559716023504734039306640625</LongitudeDegrees>
            </Position>
            <AltitudeMeters>116.40000152587890625</AltitudeMeters>
            <DistanceMeters>88096.648197792</DistanceMeters>
          </Trackpoint>
          <Trackpoint>
            <Time>2018-09-13T12:55:51.000Z</Time>
            <Position>
              <LatitudeDegrees>39.2246016673743724822998046875</LatitudeDegrees>
              <LongitudeDegrees>-8.04598306305706501007080078125</LongitudeDegrees>
            </Position>
            <AltitudeMeters>116.40000152587890625</AltitudeMeters>
            <DistanceMeters>88162.103396053</DistanceMeters>
          </Trackpoint>
          <Trackpoint>
            <Time>2018-09-13T12:56:02.000Z</Time>
            <Position>
              <LatitudeDegrees>39.2240917123854160308837890625</LatitudeDegrees>
              <LongitudeDegrees>-8.04630945436656475067138671875</LongitudeDegrees>
            </Position>
            <AltitudeMeters>116</AltitudeMeters>
            <DistanceMeters>88225.456289017</DistanceMeters>
          </Trackpoint>
          <Trackpoint>
            <Time>2018-09-13T12:56:12.000Z</Time>
            <Position>
              <LatitudeDegrees>39.22358703799545764923095703125</LatitudeDegrees>
              <LongitudeDegrees>-8.0466013960540294647216796875</LongitudeDegrees>
            </Position>
            <AltitudeMeters>115.8000030517578125</AltitudeMeters>
            <DistanceMeters>88287.009985369</DistanceMeters>
          </Trackpoint>
          <Trackpoint>
            <Time>2018-09-13T12:56:16.000Z</Time>
            <Position>
              <LatitudeDegrees>39.223380424082279205322265625</LatitudeDegrees>
              <LongitudeDegrees>-8.04671966470777988433837890625</LongitudeDegrees>
            </Position>
            <AltitudeMeters>115.59999847412109375</AltitudeMeters>
            <DistanceMeters>88312.166053368</DistanceMeters>
          </Trackpoint>
          <Trackpoint>
            <Time>2018-09-13T12:56:21.000Z</Time>
            <Position>
              <LatitudeDegrees>39.2231408692896366119384765625</LatitudeDegrees>
              <LongitudeDegrees>-8.04685679264366626739501953125</LongitudeDegrees>
            </Position>
            <AltitudeMeters>115.40000152587890625</AltitudeMeters>
            <DistanceMeters>88341.333218157</DistanceMeters>
          </Trackpoint>
          <Trackpoint>
            <Time>2018-09-13T12:56:24.000Z</Time>
            <Position>
              <LatitudeDegrees>39.223029054701328277587890625</LatitudeDegrees>
              <LongitudeDegrees>-8.046926446259021759033203125</LongitudeDegrees>
            </Position>
            <AltitudeMeters>115.1999969482421875</AltitudeMeters>
            <DistanceMeters>88355.151683936</DistanceMeters>
          </Trackpoint>
          <Trackpoint>
            <Time>2018-09-13T12:56:29.000Z</Time>
            <Position>
              <LatitudeDegrees>39.22298387624323368072509765625</LatitudeDegrees>
              <LongitudeDegrees>-8.0469628237187862396240234375</LongitudeDegrees>
            </Position>
            <AltitudeMeters>115.1999969482421875</AltitudeMeters>
            <DistanceMeters>88361.076963441</DistanceMeters>
          </Trackpoint>
          <Trackpoint>
            <Time>2018-09-13T12:57:49.000Z</Time>
            <Position>
              <LatitudeDegrees>39.22291296534240245819091796875</LatitudeDegrees>
              <LongitudeDegrees>-8.046989478170871734619140625</LongitudeDegrees>
            </Position>
            <AltitudeMeters>115.1999969482421875</AltitudeMeters>
            <DistanceMeters>88369.297186189</DistanceMeters>
          </Trackpoint>
          <Trackpoint>
            <Time>2018-09-13T12:57:50.000Z</Time>
            <Position>
              <LatitudeDegrees>39.2228947766125202178955078125</LatitudeDegrees>
              <LongitudeDegrees>-8.04699827916920185089111328125</LongitudeDegrees>
            </Position>
            <AltitudeMeters>115.1999969482421875</AltitudeMeters>
            <DistanceMeters>88371.459957466</DistanceMeters>
          </Trackpoint>
          <Trackpoint>
            <Time>2018-09-13T12:57:53.000Z</Time>
            <Position>
              <LatitudeDegrees>39.2228240333497524261474609375</LatitudeDegrees>
              <LongitudeDegrees>-8.04703499190509319305419921875</LongitudeDegrees>
            </Position>
            <AltitudeMeters>115</AltitudeMeters>
            <DistanceMeters>88379.946646439</DistanceMeters>
          </Trackpoint>
          <Trackpoint>
            <Time>2018-09-13T12:57:56.000Z</Time>
            <Position>
              <LatitudeDegrees>39.2227268032729625701904296875</LatitudeDegrees>
              <LongitudeDegrees>-8.04709215648472309112548828125</LongitudeDegrees>
            </Position>
            <AltitudeMeters>115</AltitudeMeters>
            <DistanceMeters>88391.838282033</DistanceMeters>
          </Trackpoint>
          <Trackpoint>
            <Time>2018-09-13T12:58:04.000Z</Time>
            <Position>
              <LatitudeDegrees>39.222379289567470550537109375</LatitudeDegrees>
              <LongitudeDegrees>-8.04729416035115718841552734375</LongitudeDegrees>
            </Position>
            <AltitudeMeters>115.40000152587890625</AltitudeMeters>
            <DistanceMeters>88434.258105149</DistanceMeters>
          </Trackpoint>
          <Trackpoint>
            <Time>2018-09-13T12:58:10.000Z</Time>
            <Position>
              <LatitudeDegrees>39.22208131290972232818603515625</LatitudeDegrees>
              <LongitudeDegrees>-8.04746230132877826690673828125</LongitudeDegrees>
            </Position>
            <AltitudeMeters>115.8000030517578125</AltitudeMeters>
            <DistanceMeters>88470.453929092</DistanceMeters>
          </Trackpoint>
          <Trackpoint>
            <Time>2018-09-13T12:58:15.000Z</Time>
            <Position>
              <LatitudeDegrees>39.2218309454619884490966796875</LatitudeDegrees>
              <LongitudeDegrees>-8.047606386244297027587890625</LongitudeDegrees>
            </Position>
            <AltitudeMeters>116.1999969482421875</AltitudeMeters>
            <DistanceMeters>88500.964460396</DistanceMeters>
          </Trackpoint>
          <Trackpoint>
            <Time>2018-09-13T12:58:22.000Z</Time>
            <Position>
              <LatitudeDegrees>39.22147513367235660552978515625</LatitudeDegrees>
              <LongitudeDegrees>-8.0478167720139026641845703125</LongitudeDegrees>
            </Position>
            <AltitudeMeters>116.40000152587890625</AltitudeMeters>
            <DistanceMeters>88544.524129964</DistanceMeters>
          </Trackpoint>
          <Trackpoint>
            <Time>2018-09-13T12:58:32.000Z</Time>
            <Position>
              <LatitudeDegrees>39.22094053588807582855224609375</LatitudeDegrees>
              <LongitudeDegrees>-8.04812229238450527191162109375</LongitudeDegrees>
            </Position>
            <AltitudeMeters>116.1999969482421875</AltitudeMeters>
            <DistanceMeters>88609.596964133</DistanceMeters>
          </Trackpoint>
          <Trackpoint>
            <Time>2018-09-13T12:58:42.000Z</Time>
            <Position>
              <LatitudeDegrees>39.22038900665938854217529296875</LatitudeDegrees>
              <LongitudeDegrees>-8.0484330095350742340087890625</LongitudeDegrees>
            </Position>
            <AltitudeMeters>115.1999969482421875</AltitudeMeters>
            <DistanceMeters>88676.57536257</DistanceMeters>
          </Trackpoint>
          <Trackpoint>
            <Time>2018-09-13T12:58:51.000Z</Time>
            <Position>
              <LatitudeDegrees>39.21988760121166706085205078125</LatitudeDegrees>
              <LongitudeDegrees>-8.0487129651010036468505859375</LongitudeDegrees>
            </Position>
            <AltitudeMeters>115</AltitudeMeters>
            <DistanceMeters>88737.380134741</DistanceMeters>
          </Trackpoint>
          <Trackpoint>
            <Time>2018-09-13T12:58:56.000Z</Time>
            <Position>
              <LatitudeDegrees>39.2196254990994930267333984375</LatitudeDegrees>
              <LongitudeDegrees>-8.04886601865291595458984375</LongitudeDegrees>
            </Position>
            <AltitudeMeters>115</AltitudeMeters>
            <DistanceMeters>88769.399202482</DistanceMeters>
          </Trackpoint>
          <Trackpoint>
            <Time>2018-09-13T12:59:01.000Z</Time>
            <Position>
              <LatitudeDegrees>39.21935400925576686859130859375</LatitudeDegrees>
              <LongitudeDegrees>-8.04901932366192340850830078125</LongitudeDegrees>
            </Position>
            <AltitudeMeters>115.1999969482421875</AltitudeMeters>
            <DistanceMeters>88802.381686911</DistanceMeters>
          </Trackpoint>
          <Trackpoint>
            <Time>2018-09-13T12:59:11.000Z</Time>
            <Position>
              <LatitudeDegrees>39.218816645443439483642578125</LatitudeDegrees>
              <LongitudeDegrees>-8.04933540523052215576171875</LongitudeDegrees>
            </Position>
            <AltitudeMeters>115.59999847412109375</AltitudeMeters>
            <DistanceMeters>88868.108925112</DistanceMeters>
          </Trackpoint>
          <Trackpoint>
            <Time>2018-09-13T12:59:21.000Z</Time>
            <Position>
              <LatitudeDegrees>39.21826721169054508209228515625</LatitudeDegrees>
              <LongitudeDegrees>-8.0496490560472011566162109375</LongitudeDegrees>
            </Position>
            <AltitudeMeters>116.40000152587890625</AltitudeMeters>
            <DistanceMeters>88934.97600394</DistanceMeters>
          </Trackpoint>
          <Trackpoint>
            <Time>2018-09-13T12:59:31.000Z</Time>
            <Position>
              <LatitudeDegrees>39.21772398054599761962890625</LatitudeDegrees>
              <LongitudeDegrees>-8.04995055310428142547607421875</LongitudeDegrees>
            </Position>
            <AltitudeMeters>116.8000030517578125</AltitudeMeters>
            <DistanceMeters>89000.791316972</DistanceMeters>
          </Trackpoint>
          <Trackpoint>
            <Time>2018-09-13T12:59:41.000Z</Time>
            <Position>
              <LatitudeDegrees>39.2171836830675601959228515625</LatitudeDegrees>
              <LongitudeDegrees>-8.050258420407772064208984375</LongitudeDegrees>
            </Position>
            <AltitudeMeters>115.8000030517578125</AltitudeMeters>
            <DistanceMeters>89066.526729199</DistanceMeters>
          </Trackpoint>
          <Trackpoint>
            <Time>2018-09-13T12:59:51.000Z</Time>
            <Position>
              <LatitudeDegrees>39.2166435532271862030029296875</LatitudeDegrees>
              <LongitudeDegrees>-8.05057534016668796539306640625</LongitudeDegrees>
            </Position>
            <AltitudeMeters>114.40000152587890625</AltitudeMeters>
            <DistanceMeters>89132.564347703</DistanceMeters>
          </Trackpoint>
          <Trackpoint>
            <Time>2018-09-13T13:00:01.000Z</Time>
            <Position>
              <LatitudeDegrees>39.216094873845577239990234375</LatitudeDegrees>
              <LongitudeDegrees>-8.05088496766984462738037109375</LongitudeDegrees>
            </Position>
            <AltitudeMeters>113.1999969482421875</AltitudeMeters>
            <DistanceMeters>89199.215139495</DistanceMeters>
          </Trackpoint>
          <Trackpoint>
            <Time>2018-09-13T13:00:11.000Z</Time>
            <Position>
              <LatitudeDegrees>39.2155502177774906158447265625</LatitudeDegrees>
              <LongitudeDegrees>-8.0512084253132343292236328125</LongitudeDegrees>
            </Position>
            <AltitudeMeters>114</AltitudeMeters>
            <DistanceMeters>89265.945547979</DistanceMeters>
          </Trackpoint>
          <Trackpoint>
            <Time>2018-09-13T13:00:14.000Z</Time>
            <Position>
              <LatitudeDegrees>39.21538375318050384521484375</LatitudeDegrees>
              <LongitudeDegrees>-8.0513049848377704620361328125</LongitudeDegrees>
            </Position>
            <AltitudeMeters>114.40000152587890625</AltitudeMeters>
            <DistanceMeters>89286.258605677</DistanceMeters>
          </Trackpoint>
          <Trackpoint>
            <Time>2018-09-13T13:00:23.000Z</Time>
            <Position>
              <LatitudeDegrees>39.21488192863762378692626953125</LatitudeDegrees>
              <LongitudeDegrees>-8.0515943281352519989013671875</LongitudeDegrees>
            </Position>
            <AltitudeMeters>114.59999847412109375</AltitudeMeters>
            <DistanceMeters>89347.432491281</DistanceMeters>
          </Trackpoint>
          <Trackpoint>
            <Time>2018-09-13T13:00:32.000Z</Time>
            <Position>
              <LatitudeDegrees>39.2143804393708705902099609375</LatitudeDegrees>
              <LongitudeDegrees>-8.051879815757274627685546875</LongitudeDegrees>
            </Position>
            <AltitudeMeters>115.1999969482421875</AltitudeMeters>
            <DistanceMeters>89408.437569638</DistanceMeters>
          </Trackpoint>
          <Trackpoint>
            <Time>2018-09-13T13:00:40.000Z</Time>
            <Position>
              <LatitudeDegrees>39.2139335162937641143798828125</LatitudeDegrees>
              <LongitudeDegrees>-8.05213487707078456878662109375</LongitudeDegrees>
            </Position>
            <AltitudeMeters>115.59999847412109375</AltitudeMeters>
            <DistanceMeters>89462.826979385</DistanceMeters>
          </Trackpoint>
          <Trackpoint>
            <Time>2018-09-13T13:00:49.000Z</Time>
            <Position>
              <LatitudeDegrees>39.21342917717993259429931640625</LatitudeDegrees>
              <LongitudeDegrees>-8.05242262780666351318359375</LongitudeDegrees>
            </Position>
            <AltitudeMeters>115.59999847412109375</AltitudeMeters>
            <DistanceMeters>89524.200996425</DistanceMeters>
          </Trackpoint>
          <Trackpoint>
            <Time>2018-09-13T13:00:58.000Z</Time>
            <Position>
              <LatitudeDegrees>39.21291570179164409637451171875</LatitudeDegrees>
              <LongitudeDegrees>-8.0527118034660816192626953125</LongitudeDegrees>
            </Position>
            <AltitudeMeters>114.40000152587890625</AltitudeMeters>
            <DistanceMeters>89586.555611929</DistanceMeters>
          </Trackpoint>
          <Trackpoint>
            <Time>2018-09-13T13:01:02.000Z</Time>
            <Position>
              <LatitudeDegrees>39.21268821693956851959228515625</LatitudeDegrees>
              <LongitudeDegrees>-8.05284214206039905548095703125</LongitudeDegrees>
            </Position>
            <AltitudeMeters>113.8000030517578125</AltitudeMeters>
            <DistanceMeters>89614.25797729</DistanceMeters>
          </Trackpoint>
          <Trackpoint>
            <Time>2018-09-13T13:01:11.000Z</Time>
            <Position>
              <LatitudeDegrees>39.2121924273669719696044921875</LatitudeDegrees>
              <LongitudeDegrees>-8.05312779732048511505126953125</LongitudeDegrees>
            </Position>
            <AltitudeMeters>113.1999969482421875</AltitudeMeters>
            <DistanceMeters>89674.689214952</DistanceMeters>
          </Trackpoint>
          <Trackpoint>
            <Time>2018-09-13T13:01:20.000Z</Time>
            <Position>
              <LatitudeDegrees>39.21167316846549510955810546875</LatitudeDegrees>
              <LongitudeDegrees>-8.05341999046504497528076171875</LongitudeDegrees>
            </Position>
            <AltitudeMeters>113</AltitudeMeters>
            <DistanceMeters>89737.737989814</DistanceMeters>
          </Trackpoint>
          <Trackpoint>
            <Time>2018-09-13T13:01:29.000Z</Time>
            <Position>
              <LatitudeDegrees>39.2111758701503276824951171875</LatitudeDegrees>
              <LongitudeDegrees>-8.05370547808706760406494140625</LongitudeDegrees>
            </Position>
            <AltitudeMeters>113.40000152587890625</AltitudeMeters>
            <DistanceMeters>89798.316905343</DistanceMeters>
          </Trackpoint>
          <Trackpoint>
            <Time>2018-09-13T13:01:38.000Z</Time>
            <Position>
              <LatitudeDegrees>39.2106863670051097869873046875</LatitudeDegrees>
              <LongitudeDegrees>-8.05398962460458278656005859375</LongitudeDegrees>
            </Position>
            <AltitudeMeters>112.59999847412109375</AltitudeMeters>
            <DistanceMeters>89858.056672015</DistanceMeters>
          </Trackpoint>
          <Trackpoint>
            <Time>2018-09-13T13:01:47.000Z</Time>
            <Position>
              <LatitudeDegrees>39.21017699874937534332275390625</LatitudeDegrees>
              <LongitudeDegrees>-8.054285086691379547119140625</LongitudeDegrees>
            </Position>
            <AltitudeMeters>112</AltitudeMeters>
            <DistanceMeters>89920.213296488</DistanceMeters>
          </Trackpoint>
          <Trackpoint>
            <Time>2018-09-13T13:01:56.000Z</Time>
            <Position>
              <LatitudeDegrees>39.2096651159226894378662109375</LatitudeDegrees>
              <LongitudeDegrees>-8.054590858519077301025390625</LongitudeDegrees>
            </Position>
            <AltitudeMeters>112.8000030517578125</AltitudeMeters>
            <DistanceMeters>89982.993527975</DistanceMeters>
          </Trackpoint>
          <Trackpoint>
            <Time>2018-09-13T13:02:05.000Z</Time>
            <Position>
              <LatitudeDegrees>39.209141246974468231201171875</LatitudeDegrees>
              <LongitudeDegrees>-8.0548947863280773162841796875</LongitudeDegrees>
            </Position>
            <AltitudeMeters>113.59999847412109375</AltitudeMeters>
            <DistanceMeters>90046.921580321</DistanceMeters>
          </Trackpoint>
          <Trackpoint>
            <Time>2018-09-13T13:02:14.000Z</Time>
            <Position>
              <LatitudeDegrees>39.20861662365496158599853515625</LatitudeDegrees>
              <LongitudeDegrees>-8.05519930087029933929443359375</LongitudeDegrees>
            </Position>
            <AltitudeMeters>114</AltitudeMeters>
            <DistanceMeters>90110.947094082</DistanceMeters>
          </Trackpoint>
          <Trackpoint>
            <Time>2018-09-13T13:02:23.000Z</Time>
            <Position>
              <LatitudeDegrees>39.208091832697391510009765625</LatitudeDegrees>
              <LongitudeDegrees>-8.0554945953190326690673828125</LongitudeDegrees>
            </Position>
            <AltitudeMeters>113.1999969482421875</AltitudeMeters>
            <DistanceMeters>90174.667802824</DistanceMeters>
          </Trackpoint>
          <Trackpoint>
            <Time>2018-09-13T13:02:32.000Z</Time>
            <Position>
              <LatitudeDegrees>39.20754424296319484710693359375</LatitudeDegrees>
              <LongitudeDegrees>-8.0558023788034915924072265625</LongitudeDegrees>
            </Position>
            <AltitudeMeters>112.1999969482421875</AltitudeMeters>
            <DistanceMeters>90241.145085493</DistanceMeters>
          </Trackpoint>
          <Trackpoint>
            <Time>2018-09-13T13:02:41.000Z</Time>
            <Position>
              <LatitudeDegrees>39.20701391994953155517578125</LatitudeDegrees>
              <LongitudeDegrees>-8.05610471405088901519775390625</LongitudeDegrees>
            </Position>
            <AltitudeMeters>111.8000030517578125</AltitudeMeters>
            <DistanceMeters>90305.673752377</DistanceMeters>
          </Trackpoint>
          <Trackpoint>
            <Time>2018-09-13T13:02:45.000Z</Time>
            <Position>
              <LatitudeDegrees>39.20678299851715564727783203125</LatitudeDegrees>
              <LongitudeDegrees>-8.05623630993068218231201171875</LongitudeDegrees>
            </Position>
            <AltitudeMeters>112</AltitudeMeters>
            <DistanceMeters>90333.770180668</DistanceMeters>
          </Trackpoint>
          <Trackpoint>
            <Time>2018-09-13T13:02:54.000Z</Time>
            <Position>
              <LatitudeDegrees>39.20624152757227420806884765625</LatitudeDegrees>
              <LongitudeDegrees>-8.05654375813901424407958984375</LongitudeDegrees>
            </Position>
            <AltitudeMeters>112.40000152587890625</AltitudeMeters>
            <DistanceMeters>90399.612242904</DistanceMeters>
          </Trackpoint>
          <Trackpoint>
            <Time>2018-09-13T13:03:03.000Z</Time>
            <Position>
              <LatitudeDegrees>39.20571631751954555511474609375</LatitudeDegrees>
              <LongitudeDegrees>-8.0568476021289825439453125</LongitudeDegrees>
            </Position>
            <AltitudeMeters>113.40000152587890625</AltitudeMeters>
            <DistanceMeters>90463.674134319</DistanceMeters>
          </Trackpoint>
          <Trackpoint>
            <Time>2018-09-13T13:03:08.000Z</Time>
            <Position>
              <LatitudeDegrees>39.205412976443767547607421875</LatitudeDegrees>
              <LongitudeDegrees>-8.05701867677271366119384765625</LongitudeDegrees>
            </Position>
            <AltitudeMeters>113.8000030517578125</AltitudeMeters>
            <DistanceMeters>90500.519877395</DistanceMeters>
          </Trackpoint>
          <Trackpoint>
            <Time>2018-09-13T13:03:17.000Z</Time>
            <Position>
              <LatitudeDegrees>39.204871170222759246826171875</LatitudeDegrees>
              <LongitudeDegrees>-8.0573345907032489776611328125</LongitudeDegrees>
            </Position>
            <AltitudeMeters>113.59999847412109375</AltitudeMeters>
            <DistanceMeters>90566.693550181</DistanceMeters>
          </Trackpoint>
          <Trackpoint>
            <Time>2018-09-13T13:03:25.000Z</Time>
            <Position>
              <LatitudeDegrees>39.204367585480213165283203125</LatitudeDegrees>
              <LongitudeDegrees>-8.05762284435331821441650390625</LongitudeDegrees>
            </Position>
            <AltitudeMeters>113</AltitudeMeters>
            <DistanceMeters>90628.009717115</DistanceMeters>
          </Trackpoint>
          <Trackpoint>
            <Time>2018-09-13T13:03:33.000Z</Time>
            <Position>
              <LatitudeDegrees>39.20387347228825092315673828125</LatitudeDegrees>
              <LongitudeDegrees>-8.05792509578168392181396484375</LongitudeDegrees>
            </Position>
            <AltitudeMeters>113.40000152587890625</AltitudeMeters>
            <DistanceMeters>90688.871045042</DistanceMeters>
          </Trackpoint>
          <Trackpoint>
            <Time>2018-09-13T13:03:41.000Z</Time>
            <Position>
              <LatitudeDegrees>39.2033599130809307098388671875</LatitudeDegrees>
              <LongitudeDegrees>-8.05821980349719524383544921875</LongitudeDegrees>
            </Position>
            <AltitudeMeters>113.40000152587890625</AltitudeMeters>
            <DistanceMeters>90751.427860806</DistanceMeters>
          </Trackpoint>
          <Trackpoint>
            <Time>2018-09-13T13:03:49.000Z</Time>
            <Position>
              <LatitudeDegrees>39.202827326953411102294921875</LatitudeDegrees>
              <LongitudeDegrees>-8.058510236442089080810546875</LongitudeDegrees>
            </Position>
            <AltitudeMeters>113.1999969482421875</AltitudeMeters>
            <DistanceMeters>90815.781225897</DistanceMeters>
          </Trackpoint>
          <Trackpoint>
            <Time>2018-09-13T13:03:55.000Z</Time>
            <Position>
              <LatitudeDegrees>39.2024295218288898468017578125</LatitudeDegrees>
              <LongitudeDegrees>-8.05873394943773746490478515625</LongitudeDegrees>
            </Position>
            <AltitudeMeters>113</AltitudeMeters>
            <DistanceMeters>90864.079388984</DistanceMeters>
          </Trackpoint>
          <Trackpoint>
            <Time>2018-09-13T13:04:03.000Z</Time>
            <Position>
              <LatitudeDegrees>39.20188562013208866119384765625</LatitudeDegrees>
              <LongitudeDegrees>-8.059047348797321319580078125</LongitudeDegrees>
            </Position>
            <AltitudeMeters>113</AltitudeMeters>
            <DistanceMeters>90930.37746482</DistanceMeters>
          </Trackpoint>
          <Trackpoint>
            <Time>2018-09-13T13:04:10.000Z</Time>
            <Position>
              <LatitudeDegrees>39.201374910771846771240234375</LatitudeDegrees>
              <LongitudeDegrees>-8.05933736264705657958984375</LongitudeDegrees>
            </Position>
            <AltitudeMeters>113</AltitudeMeters>
            <DistanceMeters>90992.480894274</DistanceMeters>
          </Trackpoint>
          <Trackpoint>
            <Time>2018-09-13T13:04:12.000Z</Time>
            <Position>
              <LatitudeDegrees>39.2012275569140911102294921875</LatitudeDegrees>
              <LongitudeDegrees>-8.05942076258361339569091796875</LongitudeDegrees>
            </Position>
            <AltitudeMeters>112.8000030517578125</AltitudeMeters>
            <DistanceMeters>91010.389585602</DistanceMeters>
          </Trackpoint>
          <Trackpoint>
            <Time>2018-09-13T13:04:19.000Z</Time>
            <Position>
              <LatitudeDegrees>39.20072405599057674407958984375</LatitudeDegrees>
              <LongitudeDegrees>-8.0597053281962871551513671875</LongitudeDegrees>
            </Position>
            <AltitudeMeters>112</AltitudeMeters>
            <DistanceMeters>91071.56952305</DistanceMeters>
          </Trackpoint>
          <Trackpoint>
            <Time>2018-09-13T13:04:21.000Z</Time>
            <Position>
              <LatitudeDegrees>39.20058391056954860687255859375</LatitudeDegrees>
              <LongitudeDegrees>-8.059782274067401885986328125</LongitudeDegrees>
            </Position>
            <AltitudeMeters>111.8000030517578125</AltitudeMeters>
            <DistanceMeters>91088.521074383</DistanceMeters>
          </Trackpoint>
          <Trackpoint>
            <Time>2018-09-13T13:04:29.000Z</Time>
            <Position>
              <LatitudeDegrees>39.20003573410212993621826171875</LatitudeDegrees>
              <LongitudeDegrees>-8.0600905604660511016845703125</LongitudeDegrees>
            </Position>
            <AltitudeMeters>110.8000030517578125</AltitudeMeters>
            <DistanceMeters>91155.076756704</DistanceMeters>
          </Trackpoint>
          <Trackpoint>
            <Time>2018-09-13T13:04:37.000Z</Time>
            <Position>
              <LatitudeDegrees>39.19950775802135467529296875</LatitudeDegrees>
              <LongitudeDegrees>-8.06039951741695404052734375</LongitudeDegrees>
            </Position>
            <AltitudeMeters>110.40000152587890625</AltitudeMeters>
            <DistanceMeters>91219.601505178</DistanceMeters>
          </Trackpoint>
          <Trackpoint>
            <Time>2018-09-13T13:04:43.000Z</Time>
            <Position>
              <LatitudeDegrees>39.19912328012287616729736328125</LatitudeDegrees>
              <LongitudeDegrees>-8.06062105111777782440185546875</LongitudeDegrees>
            </Position>
            <AltitudeMeters>110.59999847412109375</AltitudeMeters>
            <DistanceMeters>91266.467019828</DistanceMeters>
          </Trackpoint>
          <Trackpoint>
            <Time>2018-09-13T13:04:49.000Z</Time>
            <Position>
              <LatitudeDegrees>39.1987341083586215972900390625</LatitudeDegrees>
              <LongitudeDegrees>-8.06084367446601390838623046875</LongitudeDegrees>
            </Position>
            <AltitudeMeters>111</AltitudeMeters>
            <DistanceMeters>91313.848105767</DistanceMeters>
          </Trackpoint>
          <Trackpoint>
            <Time>2018-09-13T13:04:52.000Z</Time>
            <Position>
              <LatitudeDegrees>39.1985456831753253936767578125</LatitudeDegrees>
              <LongitudeDegrees>-8.060957081615924835205078125</LongitudeDegrees>
            </Position>
            <AltitudeMeters>111</AltitudeMeters>
            <DistanceMeters>91336.989013123</DistanceMeters>
          </Trackpoint>
          <Trackpoint>
            <Time>2018-09-13T13:04:59.000Z</Time>
            <Position>
              <LatitudeDegrees>39.19808886945247650146484375</LatitudeDegrees>
              <LongitudeDegrees>-8.06120929308235645294189453125</LongitudeDegrees>
            </Position>
            <AltitudeMeters>110.40000152587890625</AltitudeMeters>
            <DistanceMeters>91392.291785123</DistanceMeters>
          </Trackpoint>
          <Trackpoint>
            <Time>2018-09-13T13:05:07.000Z</Time>
            <Position>
              <LatitudeDegrees>39.1975807584822177886962890625</LatitudeDegrees>
              <LongitudeDegrees>-8.06150215677917003631591796875</LongitudeDegrees>
            </Position>
            <AltitudeMeters>109.8000030517578125</AltitudeMeters>
            <DistanceMeters>91454.230836111</DistanceMeters>
          </Trackpoint>
          <Trackpoint>
            <Time>2018-09-13T13:05:15.000Z</Time>
            <Position>
              <LatitudeDegrees>39.19708446599543094635009765625</LatitudeDegrees>
              <LongitudeDegrees>-8.06179116480052471160888671875</LongitudeDegrees>
            </Position>
            <AltitudeMeters>109.8000030517578125</AltitudeMeters>
            <DistanceMeters>91514.833746036</DistanceMeters>
          </Trackpoint>
          <Trackpoint>
            <Time>2018-09-13T13:05:23.000Z</Time>
            <Position>
              <LatitudeDegrees>39.19655405916273593902587890625</LatitudeDegrees>
              <LongitudeDegrees>-8.0620913207530975341796875</LongitudeDegrees>
            </Position>
            <AltitudeMeters>111.40000152587890625</AltitudeMeters>
            <DistanceMeters>91579.296818164</DistanceMeters>
          </Trackpoint>
          <Trackpoint>
            <Time>2018-09-13T13:05:31.000Z</Time>
            <Position>
              <LatitudeDegrees>39.195998422801494598388671875</LatitudeDegrees>
              <LongitudeDegrees>-8.0624140240252017974853515625</LongitudeDegrees>
            </Position>
            <AltitudeMeters>112.59999847412109375</AltitudeMeters>
            <DistanceMeters>91647.115940221</DistanceMeters>
          </Trackpoint>
          <Trackpoint>
            <Time>2018-09-13T13:05:37.000Z</Time>
            <Position>
              <LatitudeDegrees>39.19558041729032993316650390625</LatitudeDegrees>
              <LongitudeDegrees>-8.06264854967594146728515625</LongitudeDegrees>
            </Position>
            <AltitudeMeters>112.1999969482421875</AltitudeMeters>
            <DistanceMeters>91697.848548457</DistanceMeters>
          </Trackpoint>
          <Trackpoint>
            <Time>2018-09-13T13:05:39.000Z</Time>
            <Position>
              <LatitudeDegrees>39.1954489052295684814453125</LatitudeDegrees>
              <LongitudeDegrees>-8.06272289715707302093505859375</LongitudeDegrees>
            </Position>
            <AltitudeMeters>111.8000030517578125</AltitudeMeters>
            <DistanceMeters>91713.829148943</DistanceMeters>
          </Trackpoint>
          <Trackpoint>
            <Time>2018-09-13T13:05:47.000Z</Time>
            <Position>
              <LatitudeDegrees>39.194906093180179595947265625</LatitudeDegrees>
              <LongitudeDegrees>-8.06303503923118114471435546875</LongitudeDegrees>
            </Position>
            <AltitudeMeters>111.40000152587890625</AltitudeMeters>
            <DistanceMeters>91779.973271486</DistanceMeters>
          </Trackpoint>
          <Trackpoint>
            <Time>2018-09-13T13:05:55.000Z</Time>
            <Position>
              <LatitudeDegrees>39.1943564079701900482177734375</LatitudeDegrees>
              <LongitudeDegrees>-8.0633430741727352142333984375</LongitudeDegrees>
            </Position>
            <AltitudeMeters>111</AltitudeMeters>
            <DistanceMeters>91846.675120966</DistanceMeters>
          </Trackpoint>
          <Trackpoint>
            <Time>2018-09-13T13:06:03.000Z</Time>
            <Position>
              <LatitudeDegrees>39.1938337124884128570556640625</LatitudeDegrees>
              <LongitudeDegrees>-8.063659407198429107666015625</LongitudeDegrees>
            </Position>
            <AltitudeMeters>111.40000152587890625</AltitudeMeters>
            <DistanceMeters>91910.933489333</DistanceMeters>
          </Trackpoint>
          <Trackpoint>
            <Time>2018-09-13T13:06:04.000Z</Time>
            <Position>
              <LatitudeDegrees>39.19376841746270656585693359375</LatitudeDegrees>
              <LongitudeDegrees>-8.06369989179074764251708984375</LongitudeDegrees>
            </Position>
            <AltitudeMeters>111.40000152587890625</AltitudeMeters>
            <DistanceMeters>91918.996773428</DistanceMeters>
          </Trackpoint>
          <Trackpoint>
            <Time>2018-09-13T13:06:10.000Z</Time>
            <Position>
              <LatitudeDegrees>39.1933676786720752716064453125</LatitudeDegrees>
              <LongitudeDegrees>-8.0639314837753772735595703125</LongitudeDegrees>
            </Position>
            <AltitudeMeters>111.40000152587890625</AltitudeMeters>
            <DistanceMeters>91967.869336897</DistanceMeters>
          </Trackpoint>
          <Trackpoint>
            <Time>2018-09-13T13:06:18.000Z</Time>
            <Position>
              <LatitudeDegrees>39.192810952663421630859375</LatitudeDegrees>
              <LongitudeDegrees>-8.0642419494688510894775390625</LongitudeDegrees>
            </Position>
            <AltitudeMeters>111</AltitudeMeters>
            <DistanceMeters>92035.373829385</DistanceMeters>
          </Trackpoint>
          <Trackpoint>
            <Time>2018-09-13T13:06:25.000Z</Time>
            <Position>
              <LatitudeDegrees>39.19230929575860500335693359375</LatitudeDegrees>
              <LongitudeDegrees>-8.06453087367117404937744140625</LongitudeDegrees>
            </Position>
            <AltitudeMeters>110.59999847412109375</AltitudeMeters>
            <DistanceMeters>92096.519145153</DistanceMeters>
          </Trackpoint>
          <Trackpoint>
            <Time>2018-09-13T13:06:32.000Z</Time>
            <Position>
              <LatitudeDegrees>39.1918133385479450225830078125</LatitudeDegrees>
              <LongitudeDegrees>-8.06481636129319667816162109375</LongitudeDegrees>
            </Position>
            <AltitudeMeters>110.59999847412109375</AltitudeMeters>
            <DistanceMeters>92156.964427349</DistanceMeters>
          </Trackpoint>
          <Trackpoint>
            <Time>2018-09-13T13:06:39.000Z</Time>
            <Position>
              <LatitudeDegrees>39.1913204826414585113525390625</LatitudeDegrees>
              <LongitudeDegrees>-8.06510218419134616851806640625</LongitudeDegrees>
            </Position>
            <AltitudeMeters>111.59999847412109375</AltitudeMeters>
            <DistanceMeters>92217.106653949</DistanceMeters>
          </Trackpoint>
          <Trackpoint>
            <Time>2018-09-13T13:06:46.000Z</Time>
            <Position>
              <LatitudeDegrees>39.190843217074871063232421875</LatitudeDegrees>
              <LongitudeDegrees>-8.06538314558565616607666015625</LongitudeDegrees>
            </Position>
            <AltitudeMeters>112</AltitudeMeters>
            <DistanceMeters>92275.49521525</DistanceMeters>
          </Trackpoint>
          <Trackpoint>
            <Time>2018-09-13T13:06:54.000Z</Time>
            <Position>
              <LatitudeDegrees>39.19027802534401416778564453125</LatitudeDegrees>
              <LongitudeDegrees>-8.06570786051452159881591796875</LongitudeDegrees>
            </Position>
            <AltitudeMeters>111.40000152587890625</AltitudeMeters>
            <DistanceMeters>92344.35680754</DistanceMeters>
          </Trackpoint>
          <Trackpoint>
            <Time>2018-09-13T13:06:58.000Z</Time>
            <Position>
              <LatitudeDegrees>39.18998901732265949249267578125</LatitudeDegrees>
              <LongitudeDegrees>-8.065871559083461761474609375</LongitudeDegrees>
            </Position>
            <AltitudeMeters>111.1999969482421875</AltitudeMeters>
            <DistanceMeters>92379.487144111</DistanceMeters>
          </Trackpoint>
          <Trackpoint>
            <Time>2018-09-13T13:07:05.000Z</Time>
            <Position>
              <LatitudeDegrees>39.1894808225333690643310546875</LatitudeDegrees>
              <LongitudeDegrees>-8.06615863926708698272705078125</LongitudeDegrees>
            </Position>
            <AltitudeMeters>110</AltitudeMeters>
            <DistanceMeters>92441.23418401</DistanceMeters>
          </Trackpoint>
          <Trackpoint>
            <Time>2018-09-13T13:07:12.000Z</Time>
            <Position>
              <LatitudeDegrees>39.1889728792011737823486328125</LatitudeDegrees>
              <LongitudeDegrees>-8.0664527602493762969970703125</LongitudeDegrees>
            </Position>
            <AltitudeMeters>110</AltitudeMeters>
            <DistanceMeters>92503.201803195</DistanceMeters>
          </Trackpoint>
          <Trackpoint>
            <Time>2018-09-13T13:07:19.000Z</Time>
            <Position>
              <LatitudeDegrees>39.18846820481121540069580078125</LatitudeDegrees>
              <LongitudeDegrees>-8.06674269028007984161376953125</LongitudeDegrees>
            </Position>
            <AltitudeMeters>109.8000030517578125</AltitudeMeters>
            <DistanceMeters>92564.689815165</DistanceMeters>
          </Trackpoint>
          <Trackpoint>
            <Time>2018-09-13T13:07:26.000Z</Time>
            <Position>
              <LatitudeDegrees>39.1879683919250965118408203125</LatitudeDegrees>
              <LongitudeDegrees>-8.06702733971178531646728515625</LongitudeDegrees>
            </Position>
            <AltitudeMeters>109.1999969482421875</AltitudeMeters>
            <DistanceMeters>92625.498596956</DistanceMeters>
          </Trackpoint>
          <Trackpoint>
            <Time>2018-09-13T13:07:33.000Z</Time>
            <Position>
              <LatitudeDegrees>39.1874658130109310150146484375</LatitudeDegrees>
              <LongitudeDegrees>-8.06732187978923320770263671875</LongitudeDegrees>
            </Position>
            <AltitudeMeters>109.40000152587890625</AltitudeMeters>
            <DistanceMeters>92686.937170952</DistanceMeters>
          </Trackpoint>
          <Trackpoint>
            <Time>2018-09-13T13:07:40.000Z</Time>
            <Position>
              <LatitudeDegrees>39.18694739229977130889892578125</LatitudeDegrees>
              <LongitudeDegrees>-8.06761776097118854522705078125</LongitudeDegrees>
            </Position>
            <AltitudeMeters>110</AltitudeMeters>
            <DistanceMeters>92750.032190098</DistanceMeters>
          </Trackpoint>
          <Trackpoint>
            <Time>2018-09-13T13:07:47.000Z</Time>
            <Position>
              <LatitudeDegrees>39.1864391975104808807373046875</LatitudeDegrees>
              <LongitudeDegrees>-8.06790257804095745086669921875</LongitudeDegrees>
            </Position>
            <AltitudeMeters>110</AltitudeMeters>
            <DistanceMeters>92811.701672464</DistanceMeters>
          </Trackpoint>
          <Trackpoint>
            <Time>2018-09-13T13:07:55.000Z</Time>
            <Position>
              <LatitudeDegrees>39.18588054366409778594970703125</LatitudeDegrees>
              <LongitudeDegrees>-8.06823047809302806854248046875</LongitudeDegrees>
            </Position>
            <AltitudeMeters>109.8000030517578125</AltitudeMeters>
            <DistanceMeters>92880.013257162</DistanceMeters>
          </Trackpoint>
          <Trackpoint>
            <Time>2018-09-13T13:08:02.000Z</Time>
            <Position>
              <LatitudeDegrees>39.18538399972021579742431640625</LatitudeDegrees>
              <LongitudeDegrees>-8.0685180611908435821533203125</LongitudeDegrees>
            </Position>
            <AltitudeMeters>109.1999969482421875</AltitudeMeters>
            <DistanceMeters>92940.592918002</DistanceMeters>
          </Trackpoint>
          <Trackpoint>
            <Time>2018-09-13T13:08:09.000Z</Time>
            <Position>
              <LatitudeDegrees>39.184872619807720184326171875</LatitudeDegrees>
              <LongitudeDegrees>-8.068809248507022857666015625</LongitudeDegrees>
            </Position>
            <AltitudeMeters>109.40000152587890625</AltitudeMeters>
            <DistanceMeters>93002.807699664</DistanceMeters>
          </Trackpoint>
          <Trackpoint>
            <Time>2018-09-13T13:08:11.000Z</Time>
            <Position>
              <LatitudeDegrees>39.18472585268318653106689453125</LatitudeDegrees>
              <LongitudeDegrees>-8.06889164261519908905029296875</LongitudeDegrees>
            </Position>
            <AltitudeMeters>109.59999847412109375</AltitudeMeters>
            <DistanceMeters>93020.622611022</DistanceMeters>
          </Trackpoint>
          <Trackpoint>
            <Time>2018-09-13T13:08:18.000Z</Time>
            <Position>
              <LatitudeDegrees>39.18421070091426372528076171875</LatitudeDegrees>
              <LongitudeDegrees>-8.06918802671134471893310546875</LongitudeDegrees>
            </Position>
            <AltitudeMeters>109.40000152587890625</AltitudeMeters>
            <DistanceMeters>93083.40313018</DistanceMeters>
          </Trackpoint>
          <Trackpoint>
            <Time>2018-09-13T13:08:24.000Z</Time>
            <Position>
              <LatitudeDegrees>39.18378322385251522064208984375</LatitudeDegrees>
              <LongitudeDegrees>-8.069439232349395751953125</LongitudeDegrees>
            </Position>
            <AltitudeMeters>108.1999969482421875</AltitudeMeters>
            <DistanceMeters>93135.68544325</DistanceMeters>
          </Trackpoint>
          <Trackpoint>
            <Time>2018-09-13T13:08:32.000Z</Time>
            <Position>
              <LatitudeDegrees>39.1832295991480350494384765625</LatitudeDegrees>
              <LongitudeDegrees>-8.06975078769028186798095703125</LongitudeDegrees>
            </Position>
            <AltitudeMeters>107.8000030517578125</AltitudeMeters>
            <DistanceMeters>93202.912125744</DistanceMeters>
          </Trackpoint>
          <Trackpoint>
            <Time>2018-09-13T13:08:40.000Z</Time>
            <Position>
              <LatitudeDegrees>39.18267865665256977081298828125</LatitudeDegrees>
              <LongitudeDegrees>-8.070080280303955078125</LongitudeDegrees>
            </Position>
            <AltitudeMeters>107.8000030517578125</AltitudeMeters>
            <DistanceMeters>93270.501442008</DistanceMeters>
          </Trackpoint>
          <Trackpoint>
            <Time>2018-09-13T13:08:47.000Z</Time>
            <Position>
              <LatitudeDegrees>39.1821486689150333404541015625</LatitudeDegrees>
              <LongitudeDegrees>-8.07037733495235443115234375</LongitudeDegrees>
            </Position>
            <AltitudeMeters>107.1999969482421875</AltitudeMeters>
            <DistanceMeters>93334.816769086</DistanceMeters>
          </Trackpoint>
          <Trackpoint>
            <Time>2018-09-13T13:08:54.000Z</Time>
            <Position>
              <LatitudeDegrees>39.18159990571439266204833984375</LatitudeDegrees>
              <LongitudeDegrees>-8.07068838737905025482177734375</LongitudeDegrees>
            </Position>
            <AltitudeMeters>107.40000152587890625</AltitudeMeters>
            <DistanceMeters>93401.530666272</DistanceMeters>
          </Trackpoint>
          <Trackpoint>
            <Time>2018-09-13T13:09:01.000Z</Time>
            <Position>
              <LatitudeDegrees>39.18107788078486919403076171875</LatitudeDegrees>
              <LongitudeDegrees>-8.07098275981843471527099609375</LongitudeDegrees>
            </Position>
            <AltitudeMeters>107.8000030517578125</AltitudeMeters>
            <DistanceMeters>93464.941331298</DistanceMeters>
          </Trackpoint>
          <Trackpoint>
            <Time>2018-09-13T13:09:08.000Z</Time>
            <Position>
              <LatitudeDegrees>39.18056239373981952667236328125</LatitudeDegrees>
              <LongitudeDegrees>-8.07127042673528194427490234375</LongitudeDegrees>
            </Position>
            <AltitudeMeters>107</AltitudeMeters>
            <DistanceMeters>93527.454032582</DistanceMeters>
          </Trackpoint>
          <Trackpoint>
            <Time>2018-09-13T13:09:15.000Z</Time>
            <Position>
              <LatitudeDegrees>39.18003265745937824249267578125</LatitudeDegrees>
              <LongitudeDegrees>-8.071588017046451568603515625</LongitudeDegrees>
            </Position>
            <AltitudeMeters>105.59999847412109375</AltitudeMeters>
            <DistanceMeters>93592.470641113</DistanceMeters>
          </Trackpoint>
          <Trackpoint>
            <Time>2018-09-13T13:09:22.000Z</Time>
            <Position>
              <LatitudeDegrees>39.17951918207108974456787109375</LatitudeDegrees>
              <LongitudeDegrees>-8.07195246219635009765625</LongitudeDegrees>
            </Position>
            <AltitudeMeters>104.1999969482421875</AltitudeMeters>
            <DistanceMeters>93657.700372371</DistanceMeters>
          </Trackpoint>
          <Trackpoint>
            <Time>2018-09-13T13:09:29.000Z</Time>
            <Position>
              <LatitudeDegrees>39.179030098021030426025390625</LatitudeDegrees>
              <LongitudeDegrees>-8.0723589845001697540283203125</LongitudeDegrees>
            </Position>
            <AltitudeMeters>105</AltitudeMeters>
            <DistanceMeters>93722.457435305</DistanceMeters>
          </Trackpoint>
          <Trackpoint>
            <Time>2018-09-13T13:09:34.000Z</Time>
            <Position>
              <LatitudeDegrees>39.17868736200034618377685546875</LatitudeDegrees>
              <LongitudeDegrees>-8.072669617831707000732421875</LongitudeDegrees>
            </Position>
            <AltitudeMeters>105.8000030517578125</AltitudeMeters>
            <DistanceMeters>93769.078281284</DistanceMeters>
          </Trackpoint>
          <Trackpoint>
            <Time>2018-09-13T13:09:41.000Z</Time>
            <Position>
              <LatitudeDegrees>39.17818847112357616424560546875</LatitudeDegrees>
              <LongitudeDegrees>-8.0731281079351902008056640625</LongitudeDegrees>
            </Position>
            <AltitudeMeters>105.40000152587890625</AltitudeMeters>
            <DistanceMeters>93837.255694032</DistanceMeters>
          </Trackpoint>
          <Trackpoint>
            <Time>2018-09-13T13:09:45.000Z</Time>
            <Position>
              <LatitudeDegrees>39.17789049446582794189453125</LatitudeDegrees>
              <LongitudeDegrees>-8.0734000168740749359130859375</LongitudeDegrees>
            </Position>
            <AltitudeMeters>105.1999969482421875</AltitudeMeters>
            <DistanceMeters>93877.879808924</DistanceMeters>
          </Trackpoint>
          <Trackpoint>
            <Time>2018-09-13T13:09:49.000Z</Time>
            <Position>
              <LatitudeDegrees>39.17758899740874767303466796875</LatitudeDegrees>
              <LongitudeDegrees>-8.07367234490811824798583984375</LongitudeDegrees>
            </Position>
            <AltitudeMeters>104.40000152587890625</AltitudeMeters>
            <DistanceMeters>93918.845251268</DistanceMeters>
          </Trackpoint>
          <Trackpoint>
            <Time>2018-09-13T13:09:55.000Z</Time>
            <Position>
              <LatitudeDegrees>39.177143834531307220458984375</LatitudeDegrees>
              <LongitudeDegrees>-8.074077777564525604248046875</LongitudeDegrees>
            </Position>
            <AltitudeMeters>103.40000152587890625</AltitudeMeters>
            <DistanceMeters>93979.496940374</DistanceMeters>
          </Trackpoint>
          <Trackpoint>
            <Time>2018-09-13T13:10:02.000Z</Time>
            <Position>
              <LatitudeDegrees>39.17663522064685821533203125</LatitudeDegrees>
              <LongitudeDegrees>-8.07453668676316738128662109375</LongitudeDegrees>
            </Position>
            <AltitudeMeters>104</AltitudeMeters>
            <DistanceMeters>94048.579858531</DistanceMeters>
          </Trackpoint>
          <Trackpoint>
            <Time>2018-09-13T13:10:05.000Z</Time>
            <Position>
              <LatitudeDegrees>39.17642198503017425537109375</LatitudeDegrees>
              <LongitudeDegrees>-8.0747310630977153778076171875</LongitudeDegrees>
            </Position>
            <AltitudeMeters>104.59999847412109375</AltitudeMeters>
            <DistanceMeters>94077.640948144</DistanceMeters>
          </Trackpoint>
          <Trackpoint>
            <Time>2018-09-13T13:10:12.000Z</Time>
            <Position>
              <LatitudeDegrees>39.17592753656208515167236328125</LatitudeDegrees>
              <LongitudeDegrees>-8.07518410496413707733154296875</LongitudeDegrees>
            </Position>
            <AltitudeMeters>105.8000030517578125</AltitudeMeters>
            <DistanceMeters>94145.1437016</DistanceMeters>
          </Trackpoint>
          <Trackpoint>
            <Time>2018-09-13T13:10:19.000Z</Time>
            <Position>
              <LatitudeDegrees>39.17543350718915462493896484375</LatitudeDegrees>
              <LongitudeDegrees>-8.075629770755767822265625</LongitudeDegrees>
            </Position>
            <AltitudeMeters>105.1999969482421875</AltitudeMeters>
            <DistanceMeters>94212.241848616</DistanceMeters>
          </Trackpoint>
          <Trackpoint>
            <Time>2018-09-13T13:10:26.000Z</Time>
            <Position>
              <LatitudeDegrees>39.174938388168811798095703125</LatitudeDegrees>
              <LongitudeDegrees>-8.0760815553367137908935546875</LongitudeDegrees>
            </Position>
            <AltitudeMeters>104.8000030517578125</AltitudeMeters>
            <DistanceMeters>94279.743063659</DistanceMeters>
          </Trackpoint>
          <Trackpoint>
            <Time>2018-09-13T13:10:33.000Z</Time>
            <Position>
              <LatitudeDegrees>39.1744525730609893798828125</LatitudeDegrees>
              <LongitudeDegrees>-8.076519258320331573486328125</LongitudeDegrees>
            </Position>
            <AltitudeMeters>104.1999969482421875</AltitudeMeters>
            <DistanceMeters>94345.698586294</DistanceMeters>
          </Trackpoint>
          <Trackpoint>
            <Time>2018-09-13T13:10:40.000Z</Time>
            <Position>
              <LatitudeDegrees>39.173974134027957916259765625</LatitudeDegrees>
              <LongitudeDegrees>-8.0769542790949344635009765625</LongitudeDegrees>
            </Position>
            <AltitudeMeters>103.59999847412109375</AltitudeMeters>
            <DistanceMeters>94410.849223226</DistanceMeters>
          </Trackpoint>
          <Trackpoint>
            <Time>2018-09-13T13:10:47.000Z</Time>
            <Position>
              <LatitudeDegrees>39.17348789982497692108154296875</LatitudeDegrees>
              <LongitudeDegrees>-8.0774018727242946624755859375</LongitudeDegrees>
            </Position>
            <AltitudeMeters>102.40000152587890625</AltitudeMeters>
            <DistanceMeters>94477.335334714</DistanceMeters>
          </Trackpoint>
          <Trackpoint>
            <Time>2018-09-13T13:10:51.000Z</Time>
            <Position>
              <LatitudeDegrees>39.17319755069911479949951171875</LatitudeDegrees>
              <LongitudeDegrees>-8.077662549912929534912109375</LongitudeDegrees>
            </Position>
            <AltitudeMeters>101.40000152587890625</AltitudeMeters>
            <DistanceMeters>94516.708745333</DistanceMeters>
          </Trackpoint>
          <Trackpoint>
            <Time>2018-09-13T13:10:52.000Z</Time>
            <Position>
              <LatitudeDegrees>39.17312462814152240753173828125</LatitudeDegrees>
              <LongitudeDegrees>-8.07772952131927013397216796875</LongitudeDegrees>
            </Position>
            <AltitudeMeters>101</AltitudeMeters>
            <DistanceMeters>94526.672512714</DistanceMeters>
          </Trackpoint>
          <Trackpoint>
            <Time>2018-09-13T13:10:55.000Z</Time>
            <Position>
              <LatitudeDegrees>39.17290602810680866241455078125</LatitudeDegrees>
              <LongitudeDegrees>-8.07793001644313335418701171875</LongitudeDegrees>
            </Position>
            <AltitudeMeters>100.40000152587890625</AltitudeMeters>
            <DistanceMeters>94556.52648255</DistanceMeters>
          </Trackpoint>
          <Trackpoint>
            <Time>2018-09-13T13:10:57.000Z</Time>
            <Position>
              <LatitudeDegrees>39.17276152409613132476806640625</LatitudeDegrees>
              <LongitudeDegrees>-8.07806496508419513702392578125</LongitudeDegrees>
            </Position>
            <AltitudeMeters>99.8000030517578125</AltitudeMeters>
            <DistanceMeters>94576.382745987</DistanceMeters>
          </Trackpoint>
          <Trackpoint>
            <Time>2018-09-13T13:11:03.000Z</Time>
            <Position>
              <LatitudeDegrees>39.172313846647739410400390625</LatitudeDegrees>
              <LongitudeDegrees>-8.07846830226480960845947265625</LongitudeDegrees>
            </Position>
            <AltitudeMeters>96.8000030517578125</AltitudeMeters>
            <DistanceMeters>94637.160929173</DistanceMeters>
          </Trackpoint>
          <Trackpoint>
            <Time>2018-09-13T13:11:08.000Z</Time>
            <Position>
              <LatitudeDegrees>39.1719312965869903564453125</LatitudeDegrees>
              <LongitudeDegrees>-8.07882092893123626708984375</LongitudeDegrees>
            </Position>
            <AltitudeMeters>95.8000030517578125</AltitudeMeters>
            <DistanceMeters>94689.493824036</DistanceMeters>
          </Trackpoint>
          <Trackpoint>
            <Time>2018-09-13T13:11:12.000Z</Time>
            <Position>
              <LatitudeDegrees>39.1716201603412628173828125</LatitudeDegrees>
              <LongitudeDegrees>-8.0790965259075164794921875</LongitudeDegrees>
            </Position>
            <AltitudeMeters>94.59999847412109375</AltitudeMeters>
            <DistanceMeters>94731.502833421</DistanceMeters>
          </Trackpoint>
          <Trackpoint>
            <Time>2018-09-13T13:11:14.000Z</Time>
            <Position>
              <LatitudeDegrees>39.17146936990320682525634765625</LatitudeDegrees>
              <LongitudeDegrees>-8.07923440821468830108642578125</LongitudeDegrees>
            </Position>
            <AltitudeMeters>94</AltitudeMeters>
            <DistanceMeters>94752.075403821</DistanceMeters>
          </Trackpoint>
          <Trackpoint>
            <Time>2018-09-13T13:11:16.000Z</Time>
            <Position>
              <LatitudeDegrees>39.17132017202675342559814453125</LatitudeDegrees>
              <LongitudeDegrees>-8.0793699435889720916748046875</LongitudeDegrees>
            </Position>
            <AltitudeMeters>93.8000030517578125</AltitudeMeters>
            <DistanceMeters>94772.38623867</DistanceMeters>
          </Trackpoint>
          <Trackpoint>
            <Time>2018-09-13T13:11:17.000Z</Time>
            <Position>
              <LatitudeDegrees>39.17124607600271701812744140625</LatitudeDegrees>
              <LongitudeDegrees>-8.0794369988143444061279296875</LongitudeDegrees>
            </Position>
            <AltitudeMeters>93.8000030517578125</AltitudeMeters>
            <DistanceMeters>94782.460863191</DistanceMeters>
          </Trackpoint>
          <Trackpoint>
            <Time>2018-09-13T13:11:19.000Z</Time>
            <Position>
              <LatitudeDegrees>39.1711009852588176727294921875</LatitudeDegrees>
              <LongitudeDegrees>-8.0795711092650890350341796875</LongitudeDegrees>
            </Position>
            <AltitudeMeters>93.8000030517578125</AltitudeMeters>
            <DistanceMeters>94802.328038163</DistanceMeters>
          </Trackpoint>
          <Trackpoint>
            <Time>2018-09-13T13:11:22.000Z</Time>
            <Position>
              <LatitudeDegrees>39.1708840616047382354736328125</LatitudeDegrees>
              <LongitudeDegrees>-8.07977051474153995513916015625</LongitudeDegrees>
            </Position>
            <AltitudeMeters>93.40000152587890625</AltitudeMeters>
            <DistanceMeters>94831.975763894</DistanceMeters>
          </Trackpoint>
          <Trackpoint>
            <Time>2018-09-13T13:11:23.000Z</Time>
            <Position>
              <LatitudeDegrees>39.1708136536180973052978515625</LatitudeDegrees>
              <LongitudeDegrees>-8.0798376537859439849853515625</LongitudeDegrees>
            </Position>
            <AltitudeMeters>93.40000152587890625</AltitudeMeters>
            <DistanceMeters>94841.720520632</DistanceMeters>
          </Trackpoint>
          <Trackpoint>
            <Time>2018-09-13T13:11:28.000Z</Time>
            <Position>
              <LatitudeDegrees>39.1704636253416538238525390625</LatitudeDegrees>
              <LongitudeDegrees>-8.0801605246961116790771484375</LongitudeDegrees>
            </Position>
            <AltitudeMeters>92.59999847412109375</AltitudeMeters>
            <DistanceMeters>94889.616058626</DistanceMeters>
          </Trackpoint>
          <Trackpoint>
            <Time>2018-09-13T13:11:35.000Z</Time>
            <Position>
              <LatitudeDegrees>39.1699660755693912506103515625</LatitudeDegrees>
              <LongitudeDegrees>-8.0806071124970912933349609375</LongitudeDegrees>
            </Position>
            <AltitudeMeters>91.8000030517578125</AltitudeMeters>
            <DistanceMeters>94957.082884348</DistanceMeters>
          </Trackpoint>
          <Trackpoint>
            <Time>2018-09-13T13:11:37.000Z</Time>
            <Position>
              <LatitudeDegrees>39.16982375085353851318359375</LatitudeDegrees>
              <LongitudeDegrees>-8.08073761872947216033935546875</LongitudeDegrees>
            </Position>
            <AltitudeMeters>91.59999847412109375</AltitudeMeters>
            <DistanceMeters>94976.519041837</DistanceMeters>
          </Trackpoint>
          <Trackpoint>
            <Time>2018-09-13T13:11:39.000Z</Time>
            <Position>
              <LatitudeDegrees>39.16967815719544887542724609375</LatitudeDegrees>
              <LongitudeDegrees>-8.0808694660663604736328125</LongitudeDegrees>
            </Position>
            <AltitudeMeters>91.59999847412109375</AltitudeMeters>
            <DistanceMeters>94996.319061252</DistanceMeters>
          </Trackpoint>
          <Trackpoint>
            <Time>2018-09-13T13:11:43.000Z</Time>
            <Position>
              <LatitudeDegrees>39.16938495822250843048095703125</LatitudeDegrees>
              <LongitudeDegrees>-8.081141375005245208740234375</LongitudeDegrees>
            </Position>
            <AltitudeMeters>90.59999847412109375</AltitudeMeters>
            <DistanceMeters>95036.511879213</DistanceMeters>
          </Trackpoint>
          <Trackpoint>
            <Time>2018-09-13T13:11:47.000Z</Time>
            <Position>
              <LatitudeDegrees>39.1690866462886333465576171875</LatitudeDegrees>
              <LongitudeDegrees>-8.0814174748957157135009765625</LongitudeDegrees>
            </Position>
            <AltitudeMeters>89.1999969482421875</AltitudeMeters>
            <DistanceMeters>95077.378006968</DistanceMeters>
          </Trackpoint>
          <Trackpoint>
            <Time>2018-09-13T13:11:53.000Z</Time>
            <Position>
              <LatitudeDegrees>39.16862756945192813873291015625</LatitudeDegrees>
              <LongitudeDegrees>-8.081831037998199462890625</LongitudeDegrees>
            </Position>
            <AltitudeMeters>87.1999969482421875</AltitudeMeters>
            <DistanceMeters>95139.702710362</DistanceMeters>
          </Trackpoint>
          <Trackpoint>
            <Time>2018-09-13T13:11:56.000Z</Time>
            <Position>
              <LatitudeDegrees>39.16839145123958587646484375</LatitudeDegrees>
              <LongitudeDegrees>-8.0820437707006931304931640625</LongitudeDegrees>
            </Position>
            <AltitudeMeters>86.8000030517578125</AltitudeMeters>
            <DistanceMeters>95171.759546754</DistanceMeters>
          </Trackpoint>
          <Trackpoint>
            <Time>2018-09-13T13:12:00.000Z</Time>
            <Position>
              <LatitudeDegrees>39.168091714382171630859375</LatitudeDegrees>
              <LongitudeDegrees>-8.08232121169567108154296875</LongitudeDegrees>
            </Position>
            <AltitudeMeters>86.40000152587890625</AltitudeMeters>
            <DistanceMeters>95212.822304261</DistanceMeters>
          </Trackpoint>
          <Trackpoint>
            <Time>2018-09-13T13:12:03.000Z</Time>
            <Position>
              <LatitudeDegrees>39.1678757965564727783203125</LatitudeDegrees>
              <LongitudeDegrees>-8.082520030438899993896484375</LongitudeDegrees>
            </Position>
            <AltitudeMeters>86.1999969482421875</AltitudeMeters>
            <DistanceMeters>95242.349934895</DistanceMeters>
          </Trackpoint>
          <Trackpoint>
            <Time>2018-09-13T13:12:10.000Z</Time>
            <Position>
              <LatitudeDegrees>39.16738159954547882080078125</LatitudeDegrees>
              <LongitudeDegrees>-8.08297575451433658599853515625</LongitudeDegrees>
            </Position>
            <AltitudeMeters>86.40000152587890625</AltitudeMeters>
            <DistanceMeters>95309.966967918</DistanceMeters>
          </Trackpoint>
          <Trackpoint>
            <Time>2018-09-13T13:12:14.000Z</Time>
            <Position>
              <LatitudeDegrees>39.1671028174459934234619140625</LatitudeDegrees>
              <LongitudeDegrees>-8.0832353420555591583251953125</LongitudeDegrees>
            </Position>
            <AltitudeMeters>86.8000030517578125</AltitudeMeters>
            <DistanceMeters>95348.236905185</DistanceMeters>
          </Trackpoint>
          <Trackpoint>
            <Time>2018-09-13T13:12:19.000Z</Time>
            <Position>
              <LatitudeDegrees>39.1667504422366619110107421875</LatitudeDegrees>
              <LongitudeDegrees>-8.0835578776895999908447265625</LongitudeDegrees>
            </Position>
            <AltitudeMeters>86.59999847412109375</AltitudeMeters>
            <DistanceMeters>95396.329248439</DistanceMeters>
          </Trackpoint>
          <Trackpoint>
            <Time>2018-09-13T13:12:23.000Z</Time>
            <Position>
              <LatitudeDegrees>39.16646621190011501312255859375</LatitudeDegrees>
              <LongitudeDegrees>-8.08381210081279277801513671875</LongitudeDegrees>
            </Position>
            <AltitudeMeters>86.40000152587890625</AltitudeMeters>
            <DistanceMeters>95434.826680383</DistanceMeters>
          </Trackpoint>
          <Trackpoint>
            <Time>2018-09-13T13:12:29.000Z</Time>
            <Position>
              <LatitudeDegrees>39.166046194732189178466796875</LatitudeDegrees>
              <LongitudeDegrees>-8.0841992609202861785888671875</LongitudeDegrees>
            </Position>
            <AltitudeMeters>85.8000030517578125</AltitudeMeters>
            <DistanceMeters>95492.286655932</DistanceMeters>
          </Trackpoint>
          <Trackpoint>
            <Time>2018-09-13T13:12:35.000Z</Time>
            <Position>
              <LatitudeDegrees>39.16563145816326141357421875</LatitudeDegrees>
              <LongitudeDegrees>-8.08458231389522552490234375</LongitudeDegrees>
            </Position>
            <AltitudeMeters>86</AltitudeMeters>
            <DistanceMeters>95549.062553182</DistanceMeters>
          </Trackpoint>
          <Trackpoint>
            <Time>2018-09-13T13:12:42.000Z</Time>
            <Position>
              <LatitudeDegrees>39.16514991782605648040771484375</LatitudeDegrees>
              <LongitudeDegrees>-8.0850215256214141845703125</LongitudeDegrees>
            </Position>
            <AltitudeMeters>86.1999969482421875</AltitudeMeters>
            <DistanceMeters>95614.706481986</DistanceMeters>
          </Trackpoint>
          <Trackpoint>
            <Time>2018-09-13T13:12:49.000Z</Time>
            <Position>
              <LatitudeDegrees>39.164678938686847686767578125</LatitudeDegrees>
              <LongitudeDegrees>-8.0854598991572856903076171875</LongitudeDegrees>
            </Position>
            <AltitudeMeters>84.59999847412109375</AltitudeMeters>
            <DistanceMeters>95679.352032008</DistanceMeters>
          </Trackpoint>
          <Trackpoint>
            <Time>2018-09-13T13:12:53.000Z</Time>
            <Position>
              <LatitudeDegrees>39.16440325789153575897216796875</LatitudeDegrees>
              <LongitudeDegrees>-8.08570104651153087615966796875</LongitudeDegrees>
            </Position>
            <AltitudeMeters>83.59999847412109375</AltitudeMeters>
            <DistanceMeters>95716.427067225</DistanceMeters>
          </Trackpoint>
          <Trackpoint>
            <Time>2018-09-13T13:13:00.000Z</Time>
            <Position>
              <LatitudeDegrees>39.163928925991058349609375</LatitudeDegrees>
              <LongitudeDegrees>-8.08612550608813762664794921875</LongitudeDegrees>
            </Position>
            <AltitudeMeters>82.59999847412109375</AltitudeMeters>
            <DistanceMeters>95780.683960034</DistanceMeters>
          </Trackpoint>
          <Trackpoint>
            <Time>2018-09-13T13:13:07.000Z</Time>
            <Position>
              <LatitudeDegrees>39.1634459607303142547607421875</LatitudeDegrees>
              <LongitudeDegrees>-8.0865599401295185089111328125</LongitudeDegrees>
            </Position>
            <AltitudeMeters>81.59999847412109375</AltitudeMeters>
            <DistanceMeters>95846.221260867</DistanceMeters>
          </Trackpoint>
          <Trackpoint>
            <Time>2018-09-13T13:13:14.000Z</Time>
            <Position>
              <LatitudeDegrees>39.1629547812044620513916015625</LatitudeDegrees>
              <LongitudeDegrees>-8.08701507747173309326171875</LongitudeDegrees>
            </Position>
            <AltitudeMeters>82.59999847412109375</AltitudeMeters>
            <DistanceMeters>95913.537208761</DistanceMeters>
          </Trackpoint>
          <Trackpoint>
            <Time>2018-09-13T13:13:21.000Z</Time>
            <Position>
              <LatitudeDegrees>39.162466786801815032958984375</LatitudeDegrees>
              <LongitudeDegrees>-8.0874507687985897064208984375</LongitudeDegrees>
            </Position>
            <AltitudeMeters>82.59999847412109375</AltitudeMeters>
            <DistanceMeters>95979.596428874</DistanceMeters>
          </Trackpoint>
          <Trackpoint>
            <Time>2018-09-13T13:13:28.000Z</Time>
            <Position>
              <LatitudeDegrees>39.1620151698589324951171875</LatitudeDegrees>
              <LongitudeDegrees>-8.08785938657820224761962890625</LongitudeDegrees>
            </Position>
            <AltitudeMeters>82.40000152587890625</AltitudeMeters>
            <DistanceMeters>96040.998100482</DistanceMeters>
          </Trackpoint>
          <Trackpoint>
            <Time>2018-09-13T13:13:31.000Z</Time>
            <Position>
              <LatitudeDegrees>39.16182749904692173004150390625</LatitudeDegrees>
              <LongitudeDegrees>-8.08803171850740909576416015625</LongitudeDegrees>
            </Position>
            <AltitudeMeters>82.59999847412109375</AltitudeMeters>
            <DistanceMeters>96066.639822851</DistanceMeters>
          </Trackpoint>
          <Trackpoint>
            <Time>2018-09-13T13:13:39.000Z</Time>
            <Position>
              <LatitudeDegrees>39.1613353975117206573486328125</LatitudeDegrees>
              <LongitudeDegrees>-8.08848467655479907989501953125</LongitudeDegrees>
            </Position>
            <AltitudeMeters>83</AltitudeMeters>
            <DistanceMeters>96133.930412623</DistanceMeters>
          </Trackpoint>
          <Trackpoint>
            <Time>2018-09-13T13:13:47.000Z</Time>
            <Position>
              <LatitudeDegrees>39.16084312833845615386962890625</LatitudeDegrees>
              <LongitudeDegrees>-8.088935874402523040771484375</LongitudeDegrees>
            </Position>
            <AltitudeMeters>82.59999847412109375</AltitudeMeters>
            <DistanceMeters>96201.148162058</DistanceMeters>
          </Trackpoint>
          <Trackpoint>
            <Time>2018-09-13T13:13:54.000Z</Time>
            <Position>
              <LatitudeDegrees>39.16040106676518917083740234375</LatitudeDegrees>
              <LongitudeDegrees>-8.08933577500283718109130859375</LongitudeDegrees>
            </Position>
            <AltitudeMeters>82.1999969482421875</AltitudeMeters>
            <DistanceMeters>96261.247581995</DistanceMeters>
          </Trackpoint>
          <Trackpoint>
            <Time>2018-09-13T13:14:01.000Z</Time>
            <Position>
              <LatitudeDegrees>39.1599567420780658721923828125</LatitudeDegrees>
              <LongitudeDegrees>-8.0897329933941364288330078125</LongitudeDegrees>
            </Position>
            <AltitudeMeters>82.59999847412109375</AltitudeMeters>
            <DistanceMeters>96321.421330861</DistanceMeters>
          </Trackpoint>
          <Trackpoint>
            <Time>2018-09-13T13:14:05.000Z</Time>
            <Position>
              <LatitudeDegrees>39.15970553644001483917236328125</LatitudeDegrees>
              <LongitudeDegrees>-8.08996014297008514404296875</LongitudeDegrees>
            </Position>
            <AltitudeMeters>82.8000030517578125</AltitudeMeters>
            <DistanceMeters>96355.56859592</DistanceMeters>
          </Trackpoint>
          <Trackpoint>
            <Time>2018-09-13T13:14:13.000Z</Time>
            <Position>
              <LatitudeDegrees>39.1592063941061496734619140625</LatitudeDegrees>
              <LongitudeDegrees>-8.0904189683496952056884765625</LongitudeDegrees>
            </Position>
            <AltitudeMeters>83.1999969482421875</AltitudeMeters>
            <DistanceMeters>96423.791820865</DistanceMeters>
          </Trackpoint>
          <Trackpoint>
            <Time>2018-09-13T13:14:21.000Z</Time>
            <Position>
              <LatitudeDegrees>39.1587014682590961456298828125</LatitudeDegrees>
              <LongitudeDegrees>-8.090872429311275482177734375</LongitudeDegrees>
            </Position>
            <AltitudeMeters>83</AltitudeMeters>
            <DistanceMeters>96492.27477263</DistanceMeters>
          </Trackpoint>
          <Trackpoint>
            <Time>2018-09-13T13:14:23.000Z</Time>
            <Position>
              <LatitudeDegrees>39.15857532061636447906494140625</LatitudeDegrees>
              <LongitudeDegrees>-8.09098550118505954742431640625</LongitudeDegrees>
            </Position>
            <AltitudeMeters>83.1999969482421875</AltitudeMeters>
            <DistanceMeters>96509.373508988</DistanceMeters>
          </Trackpoint>
          <Trackpoint>
            <Time>2018-09-13T13:14:31.000Z</Time>
            <Position>
              <LatitudeDegrees>39.15807575918734073638916015625</LatitudeDegrees>
              <LongitudeDegrees>-8.0914372019469738006591796875</LongitudeDegrees>
            </Position>
            <AltitudeMeters>84.1999969482421875</AltitudeMeters>
            <DistanceMeters>96577.280186841</DistanceMeters>
          </Trackpoint>
          <Trackpoint>
            <Time>2018-09-13T13:14:39.000Z</Time>
            <Position>
              <LatitudeDegrees>39.157571084797382354736328125</LatitudeDegrees>
              <LongitudeDegrees>-8.09189661405980587005615234375</LongitudeDegrees>
            </Position>
            <AltitudeMeters>84.1999969482421875</AltitudeMeters>
            <DistanceMeters>96646.035413106</DistanceMeters>
          </Trackpoint>
          <Trackpoint>
            <Time>2018-09-13T13:14:46.000Z</Time>
            <Position>
              <LatitudeDegrees>39.15712089277803897857666015625</LatitudeDegrees>
              <LongitudeDegrees>-8.092302717268466949462890625</LongitudeDegrees>
            </Position>
            <AltitudeMeters>82.59999847412109375</AltitudeMeters>
            <DistanceMeters>96707.184051634</DistanceMeters>
          </Trackpoint>
          <Trackpoint>
            <Time>2018-09-13T13:14:53.000Z</Time>
            <Position>
              <LatitudeDegrees>39.156665503978729248046875</LatitudeDegrees>
              <LongitudeDegrees>-8.0927221477031707763671875</LongitudeDegrees>
            </Position>
            <AltitudeMeters>82</AltitudeMeters>
            <DistanceMeters>96769.469115664</DistanceMeters>
          </Trackpoint>
          <Trackpoint>
            <Time>2018-09-13T13:15:00.000Z</Time>
            <Position>
              <LatitudeDegrees>39.1562227718532085418701171875</LatitudeDegrees>
              <LongitudeDegrees>-8.09312841854989528656005859375</LongitudeDegrees>
            </Position>
            <AltitudeMeters>82.40000152587890625</AltitudeMeters>
            <DistanceMeters>96829.947927194</DistanceMeters>
          </Trackpoint>
          <Trackpoint>
            <Time>2018-09-13T13:15:08.000Z</Time>
            <Position>
              <LatitudeDegrees>39.1557403095066547393798828125</LatitudeDegrees>
              <LongitudeDegrees>-8.093571402132511138916015625</LongitudeDegrees>
            </Position>
            <AltitudeMeters>82.59999847412109375</AltitudeMeters>
            <DistanceMeters>96895.866884295</DistanceMeters>
          </Trackpoint>
          <Trackpoint>
            <Time>2018-09-13T13:15:16.000Z</Time>
            <Position>
              <LatitudeDegrees>39.155243933200836181640625</LatitudeDegrees>
              <LongitudeDegrees>-8.09402771294116973876953125</LongitudeDegrees>
            </Position>
            <AltitudeMeters>82</AltitudeMeters>
            <DistanceMeters>96963.714693982</DistanceMeters>
          </Trackpoint>
          <Trackpoint>
            <Time>2018-09-13T13:15:20.000Z</Time>
            <Position>
              <LatitudeDegrees>39.15499172173440456390380859375</LatitudeDegrees>
              <LongitudeDegrees>-8.0942582152783870697021484375</LongitudeDegrees>
            </Position>
            <AltitudeMeters>81.59999847412109375</AltitudeMeters>
            <DistanceMeters>96998.120926577</DistanceMeters>
          </Trackpoint>
          <Trackpoint>
            <Time>2018-09-13T13:15:28.000Z</Time>
            <Position>
              <LatitudeDegrees>39.154499955475330352783203125</LatitudeDegrees>
              <LongitudeDegrees>-8.094707317650318145751953125</LongitudeDegrees>
            </Position>
            <AltitudeMeters>81.59999847412109375</AltitudeMeters>
            <DistanceMeters>97065.190334583</DistanceMeters>
          </Trackpoint>
          <Trackpoint>
            <Time>2018-09-13T13:15:36.000Z</Time>
            <Position>
              <LatitudeDegrees>39.15402227081358432769775390625</LatitudeDegrees>
              <LongitudeDegrees>-8.0951500497758388519287109375</LongitudeDegrees>
            </Position>
            <AltitudeMeters>81</AltitudeMeters>
            <DistanceMeters>97130.664913092</DistanceMeters>
          </Trackpoint>
          <Trackpoint>
            <Time>2018-09-13T13:15:44.000Z</Time>
            <Position>
              <LatitudeDegrees>39.153555147349834442138671875</LatitudeDegrees>
              <LongitudeDegrees>-8.09557937085628509521484375</LongitudeDegrees>
            </Position>
            <AltitudeMeters>80.59999847412109375</AltitudeMeters>
            <DistanceMeters>97194.509854214</DistanceMeters>
          </Trackpoint>
          <Trackpoint>
            <Time>2018-09-13T13:15:52.000Z</Time>
            <Position>
              <LatitudeDegrees>39.1530882753431797027587890625</LatitudeDegrees>
              <LongitudeDegrees>-8.09599955566227436065673828125</LongitudeDegrees>
            </Position>
            <AltitudeMeters>81.8000030517578125</AltitudeMeters>
            <DistanceMeters>97257.877569203</DistanceMeters>
          </Trackpoint>
          <Trackpoint>
            <Time>2018-09-13T13:15:56.000Z</Time>
            <Position>
              <LatitudeDegrees>39.15286288596689701080322265625</LatitudeDegrees>
              <LongitudeDegrees>-8.09621103107929229736328125</LongitudeDegrees>
            </Position>
            <AltitudeMeters>82.59999847412109375</AltitudeMeters>
            <DistanceMeters>97288.901281066</DistanceMeters>
          </Trackpoint>
          <Trackpoint>
            <Time>2018-09-13T13:16:04.000Z</Time>
            <Position>
              <LatitudeDegrees>39.1524039767682552337646484375</LatitudeDegrees>
              <LongitudeDegrees>-8.09662342071533203125</LongitudeDegrees>
            </Position>
            <AltitudeMeters>83.59999847412109375</AltitudeMeters>
            <DistanceMeters>97351.157342383</DistanceMeters>
          </Trackpoint>
          <Trackpoint>
            <Time>2018-09-13T13:16:12.000Z</Time>
            <Position>
              <LatitudeDegrees>39.15195621550083160400390625</LatitudeDegrees>
              <LongitudeDegrees>-8.0970286019146442413330078125</LongitudeDegrees>
            </Position>
            <AltitudeMeters>84.40000152587890625</AltitudeMeters>
            <DistanceMeters>97412.040254512</DistanceMeters>
          </Trackpoint>
          <Trackpoint>
            <Time>2018-09-13T13:16:20.000Z</Time>
            <Position>
              <LatitudeDegrees>39.15147836320102214813232421875</LatitudeDegrees>
              <LongitudeDegrees>-8.097414672374725341796875</LongitudeDegrees>
            </Position>
            <AltitudeMeters>84.8000030517578125</AltitudeMeters>
            <DistanceMeters>97474.802791639</DistanceMeters>
          </Trackpoint>
          <Trackpoint>
            <Time>2018-09-13T13:16:23.000Z</Time>
            <Position>
              <LatitudeDegrees>39.15128541179001331329345703125</LatitudeDegrees>
              <LongitudeDegrees>-8.09755481779575347900390625</LongitudeDegrees>
            </Position>
            <AltitudeMeters>85</AltitudeMeters>
            <DistanceMeters>97499.451190029</DistanceMeters>
          </Trackpoint>
          <Trackpoint>
            <Time>2018-09-13T13:16:31.000Z</Time>
            <Position>
              <LatitudeDegrees>39.15075123310089111328125</LatitudeDegrees>
              <LongitudeDegrees>-8.097929321229457855224609375</LongitudeDegrees>
            </Position>
            <AltitudeMeters>84.59999847412109375</AltitudeMeters>
            <DistanceMeters>97567.125357184</DistanceMeters>
          </Trackpoint>
          <Trackpoint>
            <Time>2018-09-13T13:16:39.000Z</Time>
            <Position>
              <LatitudeDegrees>39.15022728033363819122314453125</LatitudeDegrees>
              <LongitudeDegrees>-8.09828848578035831451416015625</LongitudeDegrees>
            </Position>
            <AltitudeMeters>84</AltitudeMeters>
            <DistanceMeters>97633.170222585</DistanceMeters>
          </Trackpoint>
          <Trackpoint>
            <Time>2018-09-13T13:16:44.000Z</Time>
            <Position>
              <LatitudeDegrees>39.14989217184484004974365234375</LatitudeDegrees>
              <LongitudeDegrees>-8.09851882047951221466064453125</LongitudeDegrees>
            </Position>
            <AltitudeMeters>83.8000030517578125</AltitudeMeters>
            <DistanceMeters>97675.436284892</DistanceMeters>
          </Trackpoint>
          <Trackpoint>
            <Time>2018-09-13T13:16:51.000Z</Time>
            <Position>
              <LatitudeDegrees>39.1494183428585529327392578125</LatitudeDegrees>
              <LongitudeDegrees>-8.0988414399325847625732421875</LongitudeDegrees>
            </Position>
            <AltitudeMeters>84</AltitudeMeters>
            <DistanceMeters>97735.074766174</DistanceMeters>
          </Trackpoint>
          <Trackpoint>
            <Time>2018-09-13T13:16:59.000Z</Time>
            <Position>
              <LatitudeDegrees>39.14887569844722747802734375</LatitudeDegrees>
              <LongitudeDegrees>-8.099212758243083953857421875</LongitudeDegrees>
            </Position>
            <AltitudeMeters>83.59999847412109375</AltitudeMeters>
            <DistanceMeters>97803.449310171</DistanceMeters>
          </Trackpoint>
          <Trackpoint>
            <Time>2018-09-13T13:17:07.000Z</Time>
            <Position>
              <LatitudeDegrees>39.148361384868621826171875</LatitudeDegrees>
              <LongitudeDegrees>-8.09957510791718959808349609375</LongitudeDegrees>
            </Position>
            <AltitudeMeters>82.8000030517578125</AltitudeMeters>
            <DistanceMeters>97868.680564196</DistanceMeters>
          </Trackpoint>
          <Trackpoint>
            <Time>2018-09-13T13:17:15.000Z</Time>
            <Position>
              <LatitudeDegrees>39.14788328111171722412109375</LatitudeDegrees>
              <LongitudeDegrees>-8.09996017254889011383056640625</LongitudeDegrees>
            </Position>
            <AltitudeMeters>83</AltitudeMeters>
            <DistanceMeters>97931.421731973</DistanceMeters>
          </Trackpoint>
          <Trackpoint>
            <Time>2018-09-13T13:17:23.000Z</Time>
            <Position>
              <LatitudeDegrees>39.14744180627167224884033203125</LatitudeDegrees>
              <LongitudeDegrees>-8.10038857161998748779296875</LongitudeDegrees>
            </Position>
            <AltitudeMeters>80.8000030517578125</AltitudeMeters>
            <DistanceMeters>97992.918334603</DistanceMeters>
          </Trackpoint>
          <Trackpoint>
            <Time>2018-09-13T13:17:31.000Z</Time>
            <Position>
              <LatitudeDegrees>39.14701550267636775970458984375</LatitudeDegrees>
              <LongitudeDegrees>-8.100856281816959381103515625</LongitudeDegrees>
            </Position>
            <AltitudeMeters>78.40000152587890625</AltitudeMeters>
            <DistanceMeters>98055.217749981</DistanceMeters>
          </Trackpoint>
          <Trackpoint>
            <Time>2018-09-13T13:17:39.000Z</Time>
            <Position>
              <LatitudeDegrees>39.14662205614149570465087890625</LatitudeDegrees>
              <LongitudeDegrees>-8.10137386433780193328857421875</LongitudeDegrees>
            </Position>
            <AltitudeMeters>81.1999969482421875</AltitudeMeters>
            <DistanceMeters>98117.777380506</DistanceMeters>
          </Trackpoint>
          <Trackpoint>
            <Time>2018-09-13T13:17:40.000Z</Time>
            <Position>
              <LatitudeDegrees>39.14657763205468654632568359375</LatitudeDegrees>
              <LongitudeDegrees>-8.1014406681060791015625</LongitudeDegrees>
            </Position>
            <AltitudeMeters>81.8000030517578125</AltitudeMeters>
            <DistanceMeters>98125.373576164</DistanceMeters>
          </Trackpoint>
          <Trackpoint>
            <Time>2018-09-13T13:17:47.000Z</Time>
            <Position>
              <LatitudeDegrees>39.1462603770196437835693359375</LatitudeDegrees>
              <LongitudeDegrees>-8.1019541434943675994873046875</LongitudeDegrees>
            </Position>
            <AltitudeMeters>84.1999969482421875</AltitudeMeters>
            <DistanceMeters>98182.042492563</DistanceMeters>
          </Trackpoint>
          <Trackpoint>
            <Time>2018-09-13T13:17:55.000Z</Time>
            <Position>
              <LatitudeDegrees>39.14593474008142948150634765625</LatitudeDegrees>
              <LongitudeDegrees>-8.10259426943957805633544921875</LongitudeDegrees>
            </Position>
            <AltitudeMeters>83.40000152587890625</AltitudeMeters>
            <DistanceMeters>98248.123853828</DistanceMeters>
          </Trackpoint>
          <Trackpoint>
            <Time>2018-09-13T13:18:03.000Z</Time>
            <Position>
              <LatitudeDegrees>39.1456458158791065216064453125</LatitudeDegrees>
              <LongitudeDegrees>-8.1032667495310306549072265625</LongitudeDegrees>
            </Position>
            <AltitudeMeters>81.8000030517578125</AltitudeMeters>
            <DistanceMeters>98314.484281867</DistanceMeters>
          </Trackpoint>
          <Trackpoint>
            <Time>2018-09-13T13:18:11.000Z</Time>
            <Position>
              <LatitudeDegrees>39.145357310771942138671875</LatitudeDegrees>
              <LongitudeDegrees>-8.10394962318241596221923828125</LongitudeDegrees>
            </Position>
            <AltitudeMeters>81.8000030517578125</AltitudeMeters>
            <DistanceMeters>98381.608868667</DistanceMeters>
          </Trackpoint>
          <Trackpoint>
            <Time>2018-09-13T13:18:19.000Z</Time>
            <Position>
              <LatitudeDegrees>39.1450711525976657867431640625</LatitudeDegrees>
              <LongitudeDegrees>-8.10462637804448604583740234375</LongitudeDegrees>
            </Position>
            <AltitudeMeters>82.59999847412109375</AltitudeMeters>
            <DistanceMeters>98448.144807053</DistanceMeters>
          </Trackpoint>
          <Trackpoint>
            <Time>2018-09-13T13:18:27.000Z</Time>
            <Position>
              <LatitudeDegrees>39.14478491060435771942138671875</LatitudeDegrees>
              <LongitudeDegrees>-8.1053025461733341217041015625</LongitudeDegrees>
            </Position>
            <AltitudeMeters>84</AltitudeMeters>
            <DistanceMeters>98514.640900489</DistanceMeters>
          </Trackpoint>
          <Trackpoint>
            <Time>2018-09-13T13:18:35.000Z</Time>
            <Position>
              <LatitudeDegrees>39.1444944776594638824462890625</LatitudeDegrees>
              <LongitudeDegrees>-8.1059855036437511444091796875</LongitudeDegrees>
            </Position>
            <AltitudeMeters>84.8000030517578125</AltitudeMeters>
            <DistanceMeters>98581.875238947</DistanceMeters>
          </Trackpoint>
          <Trackpoint>
            <Time>2018-09-13T13:18:43.000Z</Time>
            <Position>
              <LatitudeDegrees>39.14420337416231632232666015625</LatitudeDegrees>
              <LongitudeDegrees>-8.10668145306408405303955078125</LongitudeDegrees>
            </Position>
            <AltitudeMeters>83.1999969482421875</AltitudeMeters>
            <DistanceMeters>98650.130686122</DistanceMeters>
          </Trackpoint>
          <Trackpoint>
            <Time>2018-09-13T13:18:50.000Z</Time>
            <Position>
              <LatitudeDegrees>39.143946468830108642578125</LatitudeDegrees>
              <LongitudeDegrees>-8.10729634948074817657470703125</LongitudeDegrees>
            </Position>
            <AltitudeMeters>84.59999847412109375</AltitudeMeters>
            <DistanceMeters>98710.42152317</DistanceMeters>
          </Trackpoint>
          <Trackpoint>
            <Time>2018-09-13T13:18:57.000Z</Time>
            <Position>
              <LatitudeDegrees>39.14369006641209125518798828125</LatitudeDegrees>
              <LongitudeDegrees>-8.10788425616919994354248046875</LongitudeDegrees>
            </Position>
            <AltitudeMeters>84.8000030517578125</AltitudeMeters>
            <DistanceMeters>98768.644368575</DistanceMeters>
          </Trackpoint>
          <Trackpoint>
            <Time>2018-09-13T13:19:05.000Z</Time>
            <Position>
              <LatitudeDegrees>39.1433753259479999542236328125</LatitudeDegrees>
              <LongitudeDegrees>-8.1085134856402873992919921875</LongitudeDegrees>
            </Position>
            <AltitudeMeters>84.1999969482421875</AltitudeMeters>
            <DistanceMeters>98833.277764776</DistanceMeters>
          </Trackpoint>
          <Trackpoint>
            <Time>2018-09-13T13:19:12.000Z</Time>
            <Position>
              <LatitudeDegrees>39.14305019192397594451904296875</LatitudeDegrees>
              <LongitudeDegrees>-8.1090385280549526214599609375</LongitudeDegrees>
            </Position>
            <AltitudeMeters>83.59999847412109375</AltitudeMeters>
            <DistanceMeters>98891.275519868</DistanceMeters>
          </Trackpoint>
          <Trackpoint>
            <Time>2018-09-13T13:19:20.000Z</Time>
            <Position>
              <LatitudeDegrees>39.14264869876205921173095703125</LatitudeDegrees>
              <LongitudeDegrees>-8.1096017919480800628662109375</LongitudeDegrees>
            </Position>
            <AltitudeMeters>82.8000030517578125</AltitudeMeters>
            <DistanceMeters>98957.314095555</DistanceMeters>
          </Trackpoint>
          <Trackpoint>
            <Time>2018-09-13T13:19:28.000Z</Time>
            <Position>
              <LatitudeDegrees>39.142208062112331390380859375</LatitudeDegrees>
              <LongitudeDegrees>-8.110106550157070159912109375</LongitudeDegrees>
            </Position>
            <AltitudeMeters>82.40000152587890625</AltitudeMeters>
            <DistanceMeters>99022.917912931</DistanceMeters>
          </Trackpoint>
          <Trackpoint>
            <Time>2018-09-13T13:19:32.000Z</Time>
            <Position>
              <LatitudeDegrees>39.14196431636810302734375</LatitudeDegrees>
              <LongitudeDegrees>-8.11032858677208423614501953125</LongitudeDegrees>
            </Position>
            <AltitudeMeters>82</AltitudeMeters>
            <DistanceMeters>99056.135153043</DistanceMeters>
          </Trackpoint>
          <Trackpoint>
            <Time>2018-09-13T13:19:39.000Z</Time>
            <Position>
              <LatitudeDegrees>39.14150993339717388153076171875</LatitudeDegrees>
              <LongitudeDegrees>-8.11073519289493560791015625</LongitudeDegrees>
            </Position>
            <AltitudeMeters>83</AltitudeMeters>
            <DistanceMeters>99117.695744023</DistanceMeters>
          </Trackpoint>
          <Trackpoint>
            <Time>2018-09-13T13:19:43.000Z</Time>
            <Position>
              <LatitudeDegrees>39.1412521898746490478515625</LatitudeDegrees>
              <LongitudeDegrees>-8.1109717302024364471435546875</LongitudeDegrees>
            </Position>
            <AltitudeMeters>83.59999847412109375</AltitudeMeters>
            <DistanceMeters>99152.907982469</DistanceMeters>
          </Trackpoint>
          <Trackpoint>
            <Time>2018-09-13T13:19:50.000Z</Time>
            <Position>
              <LatitudeDegrees>39.14080903865396976470947265625</LatitudeDegrees>
              <LongitudeDegrees>-8.11137816868722438812255859375</LongitudeDegrees>
            </Position>
            <AltitudeMeters>83.59999847412109375</AltitudeMeters>
            <DistanceMeters>99213.437538027</DistanceMeters>
          </Trackpoint>
          <Trackpoint>
            <Time>2018-09-13T13:19:58.000Z</Time>
            <Position>
              <LatitudeDegrees>39.14030872285366058349609375</LatitudeDegrees>
              <LongitudeDegrees>-8.11182995326817035675048828125</LongitudeDegrees>
            </Position>
            <AltitudeMeters>83</AltitudeMeters>
            <DistanceMeters>99281.422760299</DistanceMeters>
          </Trackpoint>
          <Trackpoint>
            <Time>2018-09-13T13:20:06.000Z</Time>
            <Position>
              <LatitudeDegrees>39.13980782032012939453125</LatitudeDegrees>
              <LongitudeDegrees>-8.11227553524076938629150390625</LongitudeDegrees>
            </Position>
            <AltitudeMeters>81.8000030517578125</AltitudeMeters>
            <DistanceMeters>99349.156213173</DistanceMeters>
          </Trackpoint>
          <Trackpoint>
            <Time>2018-09-13T13:20:13.000Z</Time>
            <Position>
              <LatitudeDegrees>39.13935528136789798736572265625</LatitudeDegrees>
              <LongitudeDegrees>-8.1126699037849903106689453125</LongitudeDegrees>
            </Position>
            <AltitudeMeters>81</AltitudeMeters>
            <DistanceMeters>99409.951108671</DistanceMeters>
          </Trackpoint>
          <Trackpoint>
            <Time>2018-09-13T13:20:20.000Z</Time>
            <Position>
              <LatitudeDegrees>39.13890190422534942626953125</LatitudeDegrees>
              <LongitudeDegrees>-8.11307944357395172119140625</LongitudeDegrees>
            </Position>
            <AltitudeMeters>81</AltitudeMeters>
            <DistanceMeters>99471.565509892</DistanceMeters>
          </Trackpoint>
          <Trackpoint>
            <Time>2018-09-13T13:20:27.000Z</Time>
            <Position>
              <LatitudeDegrees>39.1384439170360565185546875</LatitudeDegrees>
              <LongitudeDegrees>-8.11348906718194484710693359375</LongitudeDegrees>
            </Position>
            <AltitudeMeters>81.40000152587890625</AltitudeMeters>
            <DistanceMeters>99533.605147004</DistanceMeters>
          </Trackpoint>
          <Trackpoint>
            <Time>2018-09-13T13:20:34.000Z</Time>
            <Position>
              <LatitudeDegrees>39.13796824403107166290283203125</LatitudeDegrees>
              <LongitudeDegrees>-8.11391201801598072052001953125</LongitudeDegrees>
            </Position>
            <AltitudeMeters>83</AltitudeMeters>
            <DistanceMeters>99597.918297796</DistanceMeters>
          </Trackpoint>
          <Trackpoint>
            <Time>2018-09-13T13:20:41.000Z</Time>
            <Position>
              <LatitudeDegrees>39.1375049762427806854248046875</LatitudeDegrees>
              <LongitudeDegrees>-8.1143251620233058929443359375</LongitudeDegrees>
            </Position>
            <AltitudeMeters>83.59999847412109375</AltitudeMeters>
            <DistanceMeters>99660.61432858</DistanceMeters>
          </Trackpoint>
          <Trackpoint>
            <Time>2018-09-13T13:20:45.000Z</Time>
            <Position>
              <LatitudeDegrees>39.1372382640838623046875</LatitudeDegrees>
              <LongitudeDegrees>-8.1145652197301387786865234375</LongitudeDegrees>
            </Position>
            <AltitudeMeters>83.8000030517578125</AltitudeMeters>
            <DistanceMeters>99696.818134952</DistanceMeters>
          </Trackpoint>
          <Trackpoint>
            <Time>2018-09-13T13:20:48.000Z</Time>
            <Position>
              <LatitudeDegrees>39.13703701458871364593505859375</LatitudeDegrees>
              <LongitudeDegrees>-8.11474467627704143524169921875</LongitudeDegrees>
            </Position>
            <AltitudeMeters>84</AltitudeMeters>
            <DistanceMeters>99724.053195798</DistanceMeters>
          </Trackpoint>
          <Trackpoint>
            <Time>2018-09-13T13:20:56.000Z</Time>
            <Position>
              <LatitudeDegrees>39.1365397162735462188720703125</LatitudeDegrees>
              <LongitudeDegrees>-8.11519729904830455780029296875</LongitudeDegrees>
            </Position>
            <AltitudeMeters>85.8000030517578125</AltitudeMeters>
            <DistanceMeters>99791.806510115</DistanceMeters>
          </Trackpoint>
          <Trackpoint>
            <Time>2018-09-13T13:21:04.000Z</Time>
            <Position>
              <LatitudeDegrees>39.13608650676906108856201171875</LatitudeDegrees>
              <LongitudeDegrees>-8.1155935116112232208251953125</LongitudeDegrees>
            </Position>
            <AltitudeMeters>87</AltitudeMeters>
            <DistanceMeters>99852.753388175</DistanceMeters>
          </Trackpoint>
          <Trackpoint>
            <Time>2018-09-13T13:21:12.000Z</Time>
            <Position>
              <LatitudeDegrees>39.13562952540814876556396484375</LatitudeDegrees>
              <LongitudeDegrees>-8.11599634587764739990234375</LongitudeDegrees>
            </Position>
            <AltitudeMeters>85.40000152587890625</AltitudeMeters>
            <DistanceMeters>99914.36918168</DistanceMeters>
          </Trackpoint>
          <Trackpoint>
            <Time>2018-09-13T13:21:20.000Z</Time>
            <Position>
              <LatitudeDegrees>39.135157875716686248779296875</LatitudeDegrees>
              <LongitudeDegrees>-8.11641938053071498870849609375</LongitudeDegrees>
            </Position>
            <AltitudeMeters>85.40000152587890625</AltitudeMeters>
            <DistanceMeters>99978.319124607</DistanceMeters>
          </Trackpoint>
          <Trackpoint>
            <Time>2018-09-13T13:21:26.000Z</Time>
            <Position>
              <LatitudeDegrees>39.13480625487864017486572265625</LatitudeDegrees>
              <LongitudeDegrees>-8.11673822812736034393310546875</LongitudeDegrees>
            </Position>
            <AltitudeMeters>86.8000030517578125</AltitudeMeters>
            <DistanceMeters>100026.16646717</DistanceMeters>
          </Trackpoint>
          <Trackpoint>
            <Time>2018-09-13T13:21:34.000Z</Time>
            <Position>
              <LatitudeDegrees>39.13433468900620937347412109375</LatitudeDegrees>
              <LongitudeDegrees>-8.11714709736406803131103515625</LongitudeDegrees>
            </Position>
            <AltitudeMeters>88.1999969482421875</AltitudeMeters>
            <DistanceMeters>100089.41850682</DistanceMeters>
          </Trackpoint>
          <Trackpoint>
            <Time>2018-09-13T13:21:42.000Z</Time>
            <Position>
              <LatitudeDegrees>39.13386396132409572601318359375</LatitudeDegrees>
              <LongitudeDegrees>-8.1175723113119602203369140625</LongitudeDegrees>
            </Position>
            <AltitudeMeters>88.59999847412109375</AltitudeMeters>
            <DistanceMeters>100153.39245016</DistanceMeters>
          </Trackpoint>
          <Trackpoint>
            <Time>2018-09-13T13:21:45.000Z</Time>
            <Position>
              <LatitudeDegrees>39.13368643261492252349853515625</LatitudeDegrees>
              <LongitudeDegrees>-8.11772980727255344390869140625</LongitudeDegrees>
            </Position>
            <AltitudeMeters>87.59999847412109375</AltitudeMeters>
            <DistanceMeters>100177.37836749</DistanceMeters>
          </Trackpoint>
          <Trackpoint>
            <Time>2018-09-13T13:21:53.000Z</Time>
            <Position>
              <LatitudeDegrees>39.133209250867366790771484375</LatitudeDegrees>
              <LongitudeDegrees>-8.11814923770725727081298828125</LongitudeDegrees>
            </Position>
            <AltitudeMeters>84.40000152587890625</AltitudeMeters>
            <DistanceMeters>100241.65956754</DistanceMeters>
          </Trackpoint>
          <Trackpoint>
            <Time>2018-09-13T13:22:00.000Z</Time>
            <Position>
              <LatitudeDegrees>39.13278839550912380218505859375</LatitudeDegrees>
              <LongitudeDegrees>-8.11852223239839076995849609375</LongitudeDegrees>
            </Position>
            <AltitudeMeters>82.40000152587890625</AltitudeMeters>
            <DistanceMeters>100298.50301988</DistanceMeters>
          </Trackpoint>
          <Trackpoint>
            <Time>2018-09-13T13:22:08.000Z</Time>
            <Position>
              <LatitudeDegrees>39.13230811245739459991455078125</LatitudeDegrees>
              <LongitudeDegrees>-8.11895549297332763671875</LongitudeDegrees>
            </Position>
            <AltitudeMeters>83.40000152587890625</AltitudeMeters>
            <DistanceMeters>100363.74714678</DistanceMeters>
          </Trackpoint>
          <Trackpoint>
            <Time>2018-09-13T13:22:16.000Z</Time>
            <Position>
              <LatitudeDegrees>39.13183386437594890594482421875</LatitudeDegrees>
              <LongitudeDegrees>-8.1193784438073635101318359375</LongitudeDegrees>
            </Position>
            <AltitudeMeters>84.40000152587890625</AltitudeMeters>
            <DistanceMeters>100427.9316254</DistanceMeters>
          </Trackpoint>
          <Trackpoint>
            <Time>2018-09-13T13:22:24.000Z</Time>
            <Position>
              <LatitudeDegrees>39.1313597001135349273681640625</LatitudeDegrees>
              <LongitudeDegrees>-8.1198143027722835540771484375</LongitudeDegrees>
            </Position>
            <AltitudeMeters>85.8000030517578125</AltitudeMeters>
            <DistanceMeters>100492.74924905</DistanceMeters>
          </Trackpoint>
          <Trackpoint>
            <Time>2018-09-13T13:22:32.000Z</Time>
            <Position>
              <LatitudeDegrees>39.13089827634394168853759765625</LatitudeDegrees>
              <LongitudeDegrees>-8.12028310261666774749755859375</LongitudeDegrees>
            </Position>
            <AltitudeMeters>86.59999847412109375</AltitudeMeters>
            <DistanceMeters>100558.13888437</DistanceMeters>
          </Trackpoint>
          <Trackpoint>
            <Time>2018-09-13T13:22:38.000Z</Time>
            <Position>
              <LatitudeDegrees>39.13057171739637851715087890625</LatitudeDegrees>
              <LongitudeDegrees>-8.1206575222313404083251953125</LongitudeDegrees>
            </Position>
            <AltitudeMeters>86.40000152587890625</AltitudeMeters>
            <DistanceMeters>100606.78133209</DistanceMeters>
          </Trackpoint>
          <Trackpoint>
            <Time>2018-09-13T13:22:46.000Z</Time>
            <Position>
              <LatitudeDegrees>39.1301486827433109283447265625</LatitudeDegrees>
              <LongitudeDegrees>-8.121188767254352569580078125</LongitudeDegrees>
            </Position>
            <AltitudeMeters>86.40000152587890625</AltitudeMeters>
            <DistanceMeters>100672.51358473</DistanceMeters>
          </Trackpoint>
          <Trackpoint>
            <Time>2018-09-13T13:22:54.000Z</Time>
            <Position>
              <LatitudeDegrees>39.12973813712596893310546875</LatitudeDegrees>
              <LongitudeDegrees>-8.12170953489840030670166015625</LongitudeDegrees>
            </Position>
            <AltitudeMeters>87</AltitudeMeters>
            <DistanceMeters>100736.61993317</DistanceMeters>
          </Trackpoint>
          <Trackpoint>
            <Time>2018-09-13T13:22:57.000Z</Time>
            <Position>
              <LatitudeDegrees>39.12958332337439060211181640625</LatitudeDegrees>
              <LongitudeDegrees>-8.12190282158553600311279296875</LongitudeDegrees>
            </Position>
            <AltitudeMeters>87</AltitudeMeters>
            <DistanceMeters>100760.6077328</DistanceMeters>
          </Trackpoint>
          <Trackpoint>
            <Time>2018-09-13T13:23:05.000Z</Time>
            <Position>
              <LatitudeDegrees>39.12916456349194049835205078125</LatitudeDegrees>
              <LongitudeDegrees>-8.1224284507334232330322265625</LongitudeDegrees>
            </Position>
            <AltitudeMeters>86.40000152587890625</AltitudeMeters>
            <DistanceMeters>100825.66127525</DistanceMeters>
          </Trackpoint>
          <Trackpoint>
            <Time>2018-09-13T13:23:13.000Z</Time>
            <Position>
              <LatitudeDegrees>39.1287542693316936492919921875</LatitudeDegrees>
              <LongitudeDegrees>-8.122952990233898162841796875</LongitudeDegrees>
            </Position>
            <AltitudeMeters>86.1999969482421875</AltitudeMeters>
            <DistanceMeters>100889.97688313</DistanceMeters>
          </Trackpoint>
          <Trackpoint>
            <Time>2018-09-13T13:23:14.000Z</Time>
            <Position>
              <LatitudeDegrees>39.128702469170093536376953125</LatitudeDegrees>
              <LongitudeDegrees>-8.12301568686962127685546875</LongitudeDegrees>
            </Position>
            <AltitudeMeters>86.1999969482421875</AltitudeMeters>
            <DistanceMeters>100897.88525272</DistanceMeters>
          </Trackpoint>
          <Trackpoint>
            <Time>2018-09-13T13:23:22.000Z</Time>
            <Position>
              <LatitudeDegrees>39.12829586304724216461181640625</LatitudeDegrees>
              <LongitudeDegrees>-8.12353293411433696746826171875</LongitudeDegrees>
            </Position>
            <AltitudeMeters>87</AltitudeMeters>
            <DistanceMeters>100961.46650461</DistanceMeters>
          </Trackpoint>
          <Trackpoint>
            <Time>2018-09-13T13:23:30.000Z</Time>
            <Position>
              <LatitudeDegrees>39.12788665853440761566162109375</LatitudeDegrees>
              <LongitudeDegrees>-8.124050684273242950439453125</LongitudeDegrees>
            </Position>
            <AltitudeMeters>88.40000152587890625</AltitudeMeters>
            <DistanceMeters>101025.28456693</DistanceMeters>
          </Trackpoint>
          <Trackpoint>
            <Time>2018-09-13T13:23:38.000Z</Time>
            <Position>
              <LatitudeDegrees>39.12747611291706562042236328125</LatitudeDegrees>
              <LongitudeDegrees>-8.12456122599542140960693359375</LongitudeDegrees>
            </Position>
            <AltitudeMeters>89</AltitudeMeters>
            <DistanceMeters>101088.77578274</DistanceMeters>
          </Trackpoint>
          <Trackpoint>
            <Time>2018-09-13T13:23:46.000Z</Time>
            <Position>
              <LatitudeDegrees>39.12704075686633586883544921875</LatitudeDegrees>
              <LongitudeDegrees>-8.1251039542257785797119140625</LongitudeDegrees>
            </Position>
            <AltitudeMeters>89.1999969482421875</AltitudeMeters>
            <DistanceMeters>101156.18402598</DistanceMeters>
          </Trackpoint>
          <Trackpoint>
            <Time>2018-09-13T13:23:53.000Z</Time>
            <Position>
              <LatitudeDegrees>39.1266490705311298370361328125</LatitudeDegrees>
              <LongitudeDegrees>-8.1255979835987091064453125</LongitudeDegrees>
            </Position>
            <AltitudeMeters>87.40000152587890625</AltitudeMeters>
            <DistanceMeters>101217.17652119</DistanceMeters>
          </Trackpoint>
          <Trackpoint>
            <Time>2018-09-13T13:24:01.000Z</Time>
            <Position>
              <LatitudeDegrees>39.12621513940393924713134765625</LatitudeDegrees>
              <LongitudeDegrees>-8.12614607624709606170654296875</LongitudeDegrees>
            </Position>
            <AltitudeMeters>85.8000030517578125</AltitudeMeters>
            <DistanceMeters>101284.79468935</DistanceMeters>
          </Trackpoint>
          <Trackpoint>
            <Time>2018-09-13T13:24:08.000Z</Time>
            <Position>
              <LatitudeDegrees>39.12582118995487689971923828125</LatitudeDegrees>
              <LongitudeDegrees>-8.12662149779498577117919921875</LongitudeDegrees>
            </Position>
            <AltitudeMeters>86.40000152587890625</AltitudeMeters>
            <DistanceMeters>101344.85856411</DistanceMeters>
          </Trackpoint>
          <Trackpoint>
            <Time>2018-09-13T13:24:11.000Z</Time>
            <Position>
              <LatitudeDegrees>39.1256519593298435211181640625</LatitudeDegrees>
              <LongitudeDegrees>-8.1268103420734405517578125</LongitudeDegrees>
            </Position>
            <AltitudeMeters>86.59999847412109375</AltitudeMeters>
            <DistanceMeters>101369.77151685</DistanceMeters>
          </Trackpoint>
          <Trackpoint>
            <Time>2018-09-13T13:24:19.000Z</Time>
            <Position>
              <LatitudeDegrees>39.125163964927196502685546875</LatitudeDegrees>
              <LongitudeDegrees>-8.1272983364760875701904296875</LongitudeDegrees>
            </Position>
            <AltitudeMeters>86.1999969482421875</AltitudeMeters>
            <DistanceMeters>101438.51373956</DistanceMeters>
          </Trackpoint>
          <Trackpoint>
            <Time>2018-09-13T13:24:25.000Z</Time>
            <Position>
              <LatitudeDegrees>39.124784432351589202880859375</LatitudeDegrees>
              <LongitudeDegrees>-8.1276416592299938201904296875</LongitudeDegrees>
            </Position>
            <AltitudeMeters>85.1999969482421875</AltitudeMeters>
            <DistanceMeters>101490.12015763</DistanceMeters>
          </Trackpoint>
          <Trackpoint>
            <Time>2018-09-13T13:24:33.000Z</Time>
            <Position>
              <LatitudeDegrees>39.1242562048137187957763671875</LatitudeDegrees>
              <LongitudeDegrees>-8.1280429847538471221923828125</LongitudeDegrees>
            </Position>
            <AltitudeMeters>83.40000152587890625</AltitudeMeters>
            <DistanceMeters>101558.3652186</DistanceMeters>
          </Trackpoint>
          <Trackpoint>
            <Time>2018-09-13T13:24:41.000Z</Time>
            <Position>
              <LatitudeDegrees>39.12371448241174221038818359375</LatitudeDegrees>
              <LongitudeDegrees>-8.12840030528604984283447265625</LongitudeDegrees>
            </Position>
            <AltitudeMeters>83</AltitudeMeters>
            <DistanceMeters>101626.09547177</DistanceMeters>
          </Trackpoint>
          <Trackpoint>
            <Time>2018-09-13T13:24:48.000Z</Time>
            <Position>
              <LatitudeDegrees>39.1232141666114330291748046875</LatitudeDegrees>
              <LongitudeDegrees>-8.12869719229638576507568359375</LongitudeDegrees>
            </Position>
            <AltitudeMeters>84.8000030517578125</AltitudeMeters>
            <DistanceMeters>101687.39889846</DistanceMeters>
          </Trackpoint>
          <Trackpoint>
            <Time>2018-09-13T13:24:55.000Z</Time>
            <Position>
              <LatitudeDegrees>39.1227048821747303009033203125</LatitudeDegrees>
              <LongitudeDegrees>-8.128998018801212310791015625</LongitudeDegrees>
            </Position>
            <AltitudeMeters>86.1999969482421875</AltitudeMeters>
            <DistanceMeters>101749.75148648</DistanceMeters>
          </Trackpoint>
          <Trackpoint>
            <Time>2018-09-13T13:25:03.000Z</Time>
            <Position>
              <LatitudeDegrees>39.12215444259345531463623046875</LatitudeDegrees>
              <LongitudeDegrees>-8.12932063825428485870361328125</LongitudeDegrees>
            </Position>
            <AltitudeMeters>86</AltitudeMeters>
            <DistanceMeters>101817.05267684</DistanceMeters>
          </Trackpoint>
          <Trackpoint>
            <Time>2018-09-13T13:25:10.000Z</Time>
            <Position>
              <LatitudeDegrees>39.12165974266827106475830078125</LatitudeDegrees>
              <LongitudeDegrees>-8.129610233008861541748046875</LongitudeDegrees>
            </Position>
            <AltitudeMeters>86.1999969482421875</AltitudeMeters>
            <DistanceMeters>101877.52611298</DistanceMeters>
          </Trackpoint>
          <Trackpoint>
            <Time>2018-09-13T13:25:17.000Z</Time>
            <Position>
              <LatitudeDegrees>39.12116722203791141510009765625</LatitudeDegrees>
              <LongitudeDegrees>-8.12990636564791202545166015625</LongitudeDegrees>
            </Position>
            <AltitudeMeters>87.59999847412109375</AltitudeMeters>
            <DistanceMeters>101938.01522601</DistanceMeters>
          </Trackpoint>
          <Trackpoint>
            <Time>2018-09-13T13:25:25.000Z</Time>
            <Position>
              <LatitudeDegrees>39.12061150185763835906982421875</LatitudeDegrees>
              <LongitudeDegrees>-8.13024382106959819793701171875</LongitudeDegrees>
            </Position>
            <AltitudeMeters>86.59999847412109375</AltitudeMeters>
            <DistanceMeters>102006.38811914</DistanceMeters>
          </Trackpoint>
          <Trackpoint>
            <Time>2018-09-13T13:25:33.000Z</Time>
            <Position>
              <LatitudeDegrees>39.12007547914981842041015625</LatitudeDegrees>
              <LongitudeDegrees>-8.1305461563169956207275390625</LongitudeDegrees>
            </Position>
            <AltitudeMeters>84.59999847412109375</AltitudeMeters>
            <DistanceMeters>102071.51047491</DistanceMeters>
          </Trackpoint>
          <Trackpoint>
            <Time>2018-09-13T13:25:38.000Z</Time>
            <Position>
              <LatitudeDegrees>39.119759984314441680908203125</LatitudeDegrees>
              <LongitudeDegrees>-8.1307365931570529937744140625</LongitudeDegrees>
            </Position>
            <AltitudeMeters>83.8000030517578125</AltitudeMeters>
            <DistanceMeters>102110.2855665</DistanceMeters>
          </Trackpoint>
          <Trackpoint>
            <Time>2018-09-13T13:25:45.000Z</Time>
            <Position>
              <LatitudeDegrees>39.1192991472780704498291015625</LatitudeDegrees>
              <LongitudeDegrees>-8.13104714266955852508544921875</LongitudeDegrees>
            </Position>
            <AltitudeMeters>82.8000030517578125</AltitudeMeters>
            <DistanceMeters>102168.1647149</DistanceMeters>
          </Trackpoint>
          <Trackpoint>
            <Time>2018-09-13T13:25:50.000Z</Time>
            <Position>
              <LatitudeDegrees>39.1189813055098056793212890625</LatitudeDegrees>
              <LongitudeDegrees>-8.1313072331249713897705078125</LongitudeDegrees>
            </Position>
            <AltitudeMeters>82.1999969482421875</AltitudeMeters>
            <DistanceMeters>102210.06837136</DistanceMeters>
          </Trackpoint>
          <Trackpoint>
            <Time>2018-09-13T13:25:58.000Z</Time>
            <Position>
              <LatitudeDegrees>39.1185102425515651702880859375</LatitudeDegrees>
              <LongitudeDegrees>-8.131774105131626129150390625</LongitudeDegrees>
            </Position>
            <AltitudeMeters>81.59999847412109375</AltitudeMeters>
            <DistanceMeters>102276.2066915</DistanceMeters>
          </Trackpoint>
          <Trackpoint>
            <Time>2018-09-13T13:26:04.000Z</Time>
            <Position>
              <LatitudeDegrees>39.11819064058363437652587890625</LatitudeDegrees>
              <LongitudeDegrees>-8.13214031048119068145751953125</LongitudeDegrees>
            </Position>
            <AltitudeMeters>82.8000030517578125</AltitudeMeters>
            <DistanceMeters>102323.80283984</DistanceMeters>
          </Trackpoint>
          <Trackpoint>
            <Time>2018-09-13T13:26:12.000Z</Time>
            <Position>
              <LatitudeDegrees>39.11778462119400501251220703125</LatitudeDegrees>
              <LongitudeDegrees>-8.132606260478496551513671875</LongitudeDegrees>
            </Position>
            <AltitudeMeters>84</AltitudeMeters>
            <DistanceMeters>102384.31038668</DistanceMeters>
          </Trackpoint>
          <Trackpoint>
            <Time>2018-09-13T13:26:16.000Z</Time>
            <Position>
              <LatitudeDegrees>39.11759703420102596282958984375</LatitudeDegrees>
              <LongitudeDegrees>-8.1328265368938446044921875</LongitudeDegrees>
            </Position>
            <AltitudeMeters>84.59999847412109375</AltitudeMeters>
            <DistanceMeters>102412.55474971</DistanceMeters>
          </Trackpoint>
          <Trackpoint>
            <Time>2018-09-13T13:26:23.000Z</Time>
            <Position>
              <LatitudeDegrees>39.1172895021736621856689453125</LatitudeDegrees>
              <LongitudeDegrees>-8.13318469561636447906494140625</LongitudeDegrees>
            </Position>
            <AltitudeMeters>85.40000152587890625</AltitudeMeters>
            <DistanceMeters>102458.68696542</DistanceMeters>
          </Trackpoint>
          <Trackpoint>
            <Time>2018-09-13T13:26:26.000Z</Time>
            <Position>
              <LatitudeDegrees>39.117162935435771942138671875</LatitudeDegrees>
              <LongitudeDegrees>-8.13333372585475444793701171875</LongitudeDegrees>
            </Position>
            <AltitudeMeters>85.8000030517578125</AltitudeMeters>
            <DistanceMeters>102477.76723171</DistanceMeters>
          </Trackpoint>
          <Trackpoint>
            <Time>2018-09-13T13:26:33.000Z</Time>
            <Position>
              <LatitudeDegrees>39.11686914972960948944091796875</LatitudeDegrees>
              <LongitudeDegrees>-8.133671097457408905029296875</LongitudeDegrees>
            </Position>
            <AltitudeMeters>86.1999969482421875</AltitudeMeters>
            <DistanceMeters>102521.5620743</DistanceMeters>
          </Trackpoint>
          <Trackpoint>
            <Time>2018-09-13T13:26:38.000Z</Time>
            <Position>
              <LatitudeDegrees>39.11666731350123882293701171875</LatitudeDegrees>
              <LongitudeDegrees>-8.133905120193958282470703125</LongitudeDegrees>
            </Position>
            <AltitudeMeters>86.8000030517578125</AltitudeMeters>
            <DistanceMeters>102551.7790753</DistanceMeters>
          </Trackpoint>
          <Trackpoint>
            <Time>2018-09-13T13:26:44.000Z</Time>
            <Position>
              <LatitudeDegrees>39.1164362244307994842529296875</LatitudeDegrees>
              <LongitudeDegrees>-8.1341671384871006011962890625</LongitudeDegrees>
            </Position>
            <AltitudeMeters>87.1999969482421875</AltitudeMeters>
            <DistanceMeters>102586.03577748</DistanceMeters>
          </Trackpoint>
          <Trackpoint>
            <Time>2018-09-13T13:26:51.000Z</Time>
            <Position>
              <LatitudeDegrees>39.11616104654967784881591796875</LatitudeDegrees>
              <LongitudeDegrees>-8.1344732455909252166748046875</LongitudeDegrees>
            </Position>
            <AltitudeMeters>88.59999847412109375</AltitudeMeters>
            <DistanceMeters>102626.49339415</DistanceMeters>
          </Trackpoint>
          <Trackpoint>
            <Time>2018-09-13T13:26:57.000Z</Time>
            <Position>
              <LatitudeDegrees>39.1159026324748992919921875</LatitudeDegrees>
              <LongitudeDegrees>-8.134737946093082427978515625</LongitudeDegrees>
            </Position>
            <AltitudeMeters>89.8000030517578125</AltitudeMeters>
            <DistanceMeters>102663.23249657</DistanceMeters>
          </Trackpoint>
          <Trackpoint>
            <Time>2018-09-13T13:27:04.000Z</Time>
            <Position>
              <LatitudeDegrees>39.11557565443217754364013671875</LatitudeDegrees>
              <LongitudeDegrees>-8.13504715450108051300048828125</LongitudeDegrees>
            </Position>
            <AltitudeMeters>91.1999969482421875</AltitudeMeters>
            <DistanceMeters>102708.37088608</DistanceMeters>
          </Trackpoint>
          <Trackpoint>
            <Time>2018-09-13T13:27:13.000Z</Time>
            <Position>
              <LatitudeDegrees>39.11512403748929500579833984375</LatitudeDegrees>
              <LongitudeDegrees>-8.13542853109538555145263671875</LongitudeDegrees>
            </Position>
            <AltitudeMeters>91.1999969482421875</AltitudeMeters>
            <DistanceMeters>102768.46519722</DistanceMeters>
          </Trackpoint>
          <Trackpoint>
            <Time>2018-09-13T13:27:21.000Z</Time>
            <Position>
              <LatitudeDegrees>39.11464509554207324981689453125</LatitudeDegrees>
              <LongitudeDegrees>-8.13575844280421733856201171875</LongitudeDegrees>
            </Position>
            <AltitudeMeters>91.59999847412109375</AltitudeMeters>
            <DistanceMeters>102828.90816379</DistanceMeters>
          </Trackpoint>
          <Trackpoint>
            <Time>2018-09-13T13:27:29.000Z</Time>
            <Position>
              <LatitudeDegrees>39.114134721457958221435546875</LatitudeDegrees>
              <LongitudeDegrees>-8.1360802240669727325439453125</LongitudeDegrees>
            </Position>
            <AltitudeMeters>90.8000030517578125</AltitudeMeters>
            <DistanceMeters>102892.14642526</DistanceMeters>
          </Trackpoint>
          <Trackpoint>
            <Time>2018-09-13T13:27:31.000Z</Time>
            <Position>
              <LatitudeDegrees>39.11399650387465953826904296875</LatitudeDegrees>
              <LongitudeDegrees>-8.13615180552005767822265625</LongitudeDegrees>
            </Position>
            <AltitudeMeters>90.1999969482421875</AltitudeMeters>
            <DistanceMeters>102908.72579579</DistanceMeters>
          </Trackpoint>
          <Trackpoint>
            <Time>2018-09-13T13:27:38.000Z</Time>
            <Position>
              <LatitudeDegrees>39.113489650189876556396484375</LatitudeDegrees>
              <LongitudeDegrees>-8.13640527427196502685546875</LongitudeDegrees>
            </Position>
            <AltitudeMeters>88.40000152587890625</AltitudeMeters>
            <DistanceMeters>102969.23744655</DistanceMeters>
          </Trackpoint>
          <Trackpoint>
            <Time>2018-09-13T13:27:41.000Z</Time>
            <Position>
              <LatitudeDegrees>39.11327063106000423431396484375</LatitudeDegrees>
              <LongitudeDegrees>-8.13650988042354583740234375</LongitudeDegrees>
            </Position>
            <AltitudeMeters>88.1999969482421875</AltitudeMeters>
            <DistanceMeters>102995.23467854</DistanceMeters>
          </Trackpoint>
          <Trackpoint>
            <Time>2018-09-13T13:27:42.000Z</Time>
            <Position>
              <LatitudeDegrees>39.113197624683380126953125</LatitudeDegrees>
              <LongitudeDegrees>-8.13654617406427860260009765625</LongitudeDegrees>
            </Position>
            <AltitudeMeters>88.1999969482421875</AltitudeMeters>
            <DistanceMeters>103003.94402078</DistanceMeters>
          </Trackpoint>
          <Trackpoint>
            <Time>2018-09-13T13:27:44.000Z</Time>
            <Position>
              <LatitudeDegrees>39.11305001936852931976318359375</LatitudeDegrees>
              <LongitudeDegrees>-8.13662052154541015625</LongitudeDegrees>
            </Position>
            <AltitudeMeters>88.1999969482421875</AltitudeMeters>
            <DistanceMeters>103021.58267871</DistanceMeters>
          </Trackpoint>
          <Trackpoint>
            <Time>2018-09-13T13:27:49.000Z</Time>
            <Position>
              <LatitudeDegrees>39.11267124116420745849609375</LatitudeDegrees>
              <LongitudeDegrees>-8.1368178315460681915283203125</LongitudeDegrees>
            </Position>
            <AltitudeMeters>88.1999969482421875</AltitudeMeters>
            <DistanceMeters>103067.05482331</DistanceMeters>
          </Trackpoint>
          <Trackpoint>
            <Time>2018-09-13T13:27:56.000Z</Time>
            <Position>
              <LatitudeDegrees>39.1121406666934490203857421875</LatitudeDegrees>
              <LongitudeDegrees>-8.137082867324352264404296875</LongitudeDegrees>
            </Position>
            <AltitudeMeters>88.8000030517578125</AltitudeMeters>
            <DistanceMeters>103130.38939773</DistanceMeters>
          </Trackpoint>
          <Trackpoint>
            <Time>2018-09-13T13:28:03.000Z</Time>
            <Position>
              <LatitudeDegrees>39.11163398064672946929931640625</LatitudeDegrees>
              <LongitudeDegrees>-8.13733256421983242034912109375</LongitudeDegrees>
            </Position>
            <AltitudeMeters>88.59999847412109375</AltitudeMeters>
            <DistanceMeters>103190.76674282</DistanceMeters>
          </Trackpoint>
          <Trackpoint>
            <Time>2018-09-13T13:28:11.000Z</Time>
            <Position>
              <LatitudeDegrees>39.11107691936194896697998046875</LatitudeDegrees>
              <LongitudeDegrees>-8.13761050812900066375732421875</LongitudeDegrees>
            </Position>
            <AltitudeMeters>88</AltitudeMeters>
            <DistanceMeters>103257.25312595</DistanceMeters>
          </Trackpoint>
          <Trackpoint>
            <Time>2018-09-13T13:28:19.000Z</Time>
            <Position>
              <LatitudeDegrees>39.11053963936865329742431640625</LatitudeDegrees>
              <LongitudeDegrees>-8.13787604682147502899169921875</LongitudeDegrees>
            </Position>
            <AltitudeMeters>87.1999969482421875</AltitudeMeters>
            <DistanceMeters>103321.29986252</DistanceMeters>
          </Trackpoint>
          <Trackpoint>
            <Time>2018-09-13T13:28:27.000Z</Time>
            <Position>
              <LatitudeDegrees>39.11002281121909618377685546875</LatitudeDegrees>
              <LongitudeDegrees>-8.1381337903439998626708984375</LongitudeDegrees>
            </Position>
            <AltitudeMeters>87.59999847412109375</AltitudeMeters>
            <DistanceMeters>103382.98039913</DistanceMeters>
          </Trackpoint>
          <Trackpoint>
            <Time>2018-09-13T13:28:35.000Z</Time>
            <Position>
              <LatitudeDegrees>39.10950581543147563934326171875</LatitudeDegrees>
              <LongitudeDegrees>-8.13839203678071498870849609375</LongitudeDegrees>
            </Position>
            <AltitudeMeters>88.8000030517578125</AltitudeMeters>
            <DistanceMeters>103444.69408661</DistanceMeters>
          </Trackpoint>
          <Trackpoint>
            <Time>2018-09-13T13:28:43.000Z</Time>
            <Position>
              <LatitudeDegrees>39.10897356458008289337158203125</LatitudeDegrees>
              <LongitudeDegrees>-8.1386605091392993927001953125</LongitudeDegrees>
            </Position>
            <AltitudeMeters>89.8000030517578125</AltitudeMeters>
            <DistanceMeters>103508.31047978</DistanceMeters>
          </Trackpoint>
          <Trackpoint>
            <Time>2018-09-13T13:28:51.000Z</Time>
            <Position>
              <LatitudeDegrees>39.108438380062580108642578125</LatitudeDegrees>
              <LongitudeDegrees>-8.1389314122498035430908203125</LongitudeDegrees>
            </Position>
            <AltitudeMeters>90.40000152587890625</AltitudeMeters>
            <DistanceMeters>103572.30763848</DistanceMeters>
          </Trackpoint>
          <Trackpoint>
            <Time>2018-09-13T13:28:59.000Z</Time>
            <Position>
              <LatitudeDegrees>39.1079021058976650238037109375</LatitudeDegrees>
              <LongitudeDegrees>-8.13920323736965656280517578125</LongitudeDegrees>
            </Position>
            <AltitudeMeters>90</AltitudeMeters>
            <DistanceMeters>103636.4467991</DistanceMeters>
          </Trackpoint>
          <Trackpoint>
            <Time>2018-09-13T13:29:07.000Z</Time>
            <Position>
              <LatitudeDegrees>39.1073571145534515380859375</LatitudeDegrees>
              <LongitudeDegrees>-8.1394799239933490753173828125</LongitudeDegrees>
            </Position>
            <AltitudeMeters>88.8000030517578125</AltitudeMeters>
            <DistanceMeters>103701.64267422</DistanceMeters>
          </Trackpoint>
          <Trackpoint>
            <Time>2018-09-13T13:29:13.000Z</Time>
            <Position>
              <LatitudeDegrees>39.106947071850299835205078125</LatitudeDegrees>
              <LongitudeDegrees>-8.13968603499233722686767578125</LongitudeDegrees>
            </Position>
            <AltitudeMeters>87.59999847412109375</AltitudeMeters>
            <DistanceMeters>103750.63002846</DistanceMeters>
          </Trackpoint>
          <Trackpoint>
            <Time>2018-09-13T13:29:21.000Z</Time>
            <Position>
              <LatitudeDegrees>39.10638724453747272491455078125</LatitudeDegrees>
              <LongitudeDegrees>-8.13996347598731517791748046875</LongitudeDegrees>
            </Position>
            <AltitudeMeters>89.1999969482421875</AltitudeMeters>
            <DistanceMeters>103817.3885103</DistanceMeters>
          </Trackpoint>
          <Trackpoint>
            <Time>2018-09-13T13:29:29.000Z</Time>
            <Position>
              <LatitudeDegrees>39.10581341944634914398193359375</LatitudeDegrees>
              <LongitudeDegrees>-8.1402520649135112762451171875</LongitudeDegrees>
            </Position>
            <AltitudeMeters>89.8000030517578125</AltitudeMeters>
            <DistanceMeters>103885.94763406</DistanceMeters>
          </Trackpoint>
          <Trackpoint>
            <Time>2018-09-13T13:29:36.000Z</Time>
            <Position>
              <LatitudeDegrees>39.10531151108443737030029296875</LatitudeDegrees>
              <LongitudeDegrees>-8.1405244767665863037109375</LongitudeDegrees>
            </Position>
            <AltitudeMeters>89.40000152587890625</AltitudeMeters>
            <DistanceMeters>103946.56343146</DistanceMeters>
          </Trackpoint>
          <Trackpoint>
            <Time>2018-09-13T13:29:38.000Z</Time>
            <Position>
              <LatitudeDegrees>39.10516717471182346343994140625</LatitudeDegrees>
              <LongitudeDegrees>-8.14060368575155735015869140625</LongitudeDegrees>
            </Position>
            <AltitudeMeters>89</AltitudeMeters>
            <DistanceMeters>103964.02431549</DistanceMeters>
          </Trackpoint>
          <Trackpoint>
            <Time>2018-09-13T13:29:43.000Z</Time>
            <Position>
              <LatitudeDegrees>39.10481664352118968963623046875</LatitudeDegrees>
              <LongitudeDegrees>-8.1408260576426982879638671875</LongitudeDegrees>
            </Position>
            <AltitudeMeters>87.59999847412109375</AltitudeMeters>
            <DistanceMeters>104007.51033001</DistanceMeters>
          </Trackpoint>
          <Trackpoint>
            <Time>2018-09-13T13:29:49.000Z</Time>
            <Position>
              <LatitudeDegrees>39.104409031569957733154296875</LatitudeDegrees>
              <LongitudeDegrees>-8.14111900515854358673095703125</LongitudeDegrees>
            </Position>
            <AltitudeMeters>85.40000152587890625</AltitudeMeters>
            <DistanceMeters>104059.45683791</DistanceMeters>
          </Trackpoint>
          <Trackpoint>
            <Time>2018-09-13T13:29:55.000Z</Time>
            <Position>
              <LatitudeDegrees>39.10401483066380023956298828125</LatitudeDegrees>
              <LongitudeDegrees>-8.14145176671445369720458984375</LongitudeDegrees>
            </Position>
            <AltitudeMeters>83.59999847412109375</AltitudeMeters>
            <DistanceMeters>104111.90745249</DistanceMeters>
          </Trackpoint>
          <Trackpoint>
            <Time>2018-09-13T13:30:02.000Z</Time>
            <Position>
              <LatitudeDegrees>39.10356438718736171722412109375</LatitudeDegrees>
              <LongitudeDegrees>-8.14187924377620220184326171875</LongitudeDegrees>
            </Position>
            <AltitudeMeters>82.59999847412109375</AltitudeMeters>
            <DistanceMeters>104174.17105581</DistanceMeters>
          </Trackpoint>
          <Trackpoint>
            <Time>2018-09-13T13:30:09.000Z</Time>
            <Position>
              <LatitudeDegrees>39.103121571242809295654296875</LatitudeDegrees>
              <LongitudeDegrees>-8.1423284299671649932861328125</LongitudeDegrees>
            </Position>
            <AltitudeMeters>85.1999969482421875</AltitudeMeters>
            <DistanceMeters>104236.895382</DistanceMeters>
          </Trackpoint>
          <Trackpoint>
            <Time>2018-09-13T13:30:16.000Z</Time>
            <Position>
              <LatitudeDegrees>39.102698452770709991455078125</LatitudeDegrees>
              <LongitudeDegrees>-8.14276018179953098297119140625</LongitudeDegrees>
            </Position>
            <AltitudeMeters>87</AltitudeMeters>
            <DistanceMeters>104296.96602173</DistanceMeters>
          </Trackpoint>
          <Trackpoint>
            <Time>2018-09-13T13:30:24.000Z</Time>
            <Position>
              <LatitudeDegrees>39.10223568789660930633544921875</LatitudeDegrees>
              <LongitudeDegrees>-8.14323593862354755401611328125</LongitudeDegrees>
            </Position>
            <AltitudeMeters>86.40000152587890625</AltitudeMeters>
            <DistanceMeters>104362.85613664</DistanceMeters>
          </Trackpoint>
          <Trackpoint>
            <Time>2018-09-13T13:30:27.000Z</Time>
            <Position>
              <LatitudeDegrees>39.1020632721483707427978515625</LatitudeDegrees>
              <LongitudeDegrees>-8.1434132158756256103515625</LongitudeDegrees>
            </Position>
            <AltitudeMeters>86.1999969482421875</AltitudeMeters>
            <DistanceMeters>104387.40652324</DistanceMeters>
          </Trackpoint>
          <Trackpoint>
            <Time>2018-09-13T13:30:35.000Z</Time>
            <Position>
              <LatitudeDegrees>39.10161877982318401336669921875</LatitudeDegrees>
              <LongitudeDegrees>-8.143873549997806549072265625</LongitudeDegrees>
            </Position>
            <AltitudeMeters>86.8000030517578125</AltitudeMeters>
            <DistanceMeters>104450.87668618</DistanceMeters>
          </Trackpoint>
          <Trackpoint>
            <Time>2018-09-13T13:30:43.000Z</Time>
            <Position>
              <LatitudeDegrees>39.1011848486959934234619140625</LatitudeDegrees>
              <LongitudeDegrees>-8.14432038925588130950927734375</LongitudeDegrees>
            </Position>
            <AltitudeMeters>88</AltitudeMeters>
            <DistanceMeters>104512.7008942</DistanceMeters>
          </Trackpoint>
          <Trackpoint>
            <Time>2018-09-13T13:30:46.000Z</Time>
            <Position>
              <LatitudeDegrees>39.10102047957479953765869140625</LatitudeDegrees>
              <LongitudeDegrees>-8.14448718912899494171142578125</LongitudeDegrees>
            </Position>
            <AltitudeMeters>88.40000152587890625</AltitudeMeters>
            <DistanceMeters>104535.98728701</DistanceMeters>
          </Trackpoint>
          <Trackpoint>
            <Time>2018-09-13T13:30:54.000Z</Time>
            <Position>
              <LatitudeDegrees>39.1005692817270755767822265625</LatitudeDegrees>
              <LongitudeDegrees>-8.14494266174733638763427734375</LongitudeDegrees>
            </Position>
            <AltitudeMeters>89</AltitudeMeters>
            <DistanceMeters>104599.7815026</DistanceMeters>
          </Trackpoint>
          <Trackpoint>
            <Time>2018-09-13T13:31:02.000Z</Time>
            <Position>
              <LatitudeDegrees>39.10011104308068752288818359375</LatitudeDegrees>
              <LongitudeDegrees>-8.14541523344814777374267578125</LongitudeDegrees>
            </Position>
            <AltitudeMeters>89</AltitudeMeters>
            <DistanceMeters>104665.10716797</DistanceMeters>
          </Trackpoint>
          <Trackpoint>
            <Time>2018-09-13T13:31:09.000Z</Time>
            <Position>
              <LatitudeDegrees>39.09970854409039020538330078125</LatitudeDegrees>
              <LongitudeDegrees>-8.14582653343677520751953125</LongitudeDegrees>
            </Position>
            <AltitudeMeters>89</AltitudeMeters>
            <DistanceMeters>104722.28293446</DistanceMeters>
          </Trackpoint>
          <Trackpoint>
            <Time>2018-09-13T13:31:16.000Z</Time>
            <Position>
              <LatitudeDegrees>39.099273942410945892333984375</LatitudeDegrees>
              <LongitudeDegrees>-8.1462696008384227752685546875</LongitudeDegrees>
            </Position>
            <AltitudeMeters>89</AltitudeMeters>
            <DistanceMeters>104783.96339787</DistanceMeters>
          </Trackpoint>
          <Trackpoint>
            <Time>2018-09-13T13:31:23.000Z</Time>
            <Position>
              <LatitudeDegrees>39.0988402627408504486083984375</LatitudeDegrees>
              <LongitudeDegrees>-8.1467096507549285888671875</LongitudeDegrees>
            </Position>
            <AltitudeMeters>89.59999847412109375</AltitudeMeters>
            <DistanceMeters>104845.40197187</DistanceMeters>
          </Trackpoint>
          <Trackpoint>
            <Time>2018-09-13T13:31:27.000Z</Time>
            <Position>
              <LatitudeDegrees>39.098594672977924346923828125</LatitudeDegrees>
              <LongitudeDegrees>-8.1469575874507427215576171875</LongitudeDegrees>
            </Position>
            <AltitudeMeters>90</AltitudeMeters>
            <DistanceMeters>104880.12692296</DistanceMeters>
          </Trackpoint>
          <Trackpoint>
            <Time>2018-09-13T13:31:35.000Z</Time>
            <Position>
              <LatitudeDegrees>39.0981207601726055145263671875</LatitudeDegrees>
              <LongitudeDegrees>-8.14744097180664539337158203125</LongitudeDegrees>
            </Position>
            <AltitudeMeters>88.8000030517578125</AltitudeMeters>
            <DistanceMeters>104947.39979663</DistanceMeters>
          </Trackpoint>
          <Trackpoint>
            <Time>2018-09-13T13:31:43.000Z</Time>
            <Position>
              <LatitudeDegrees>39.0976711548864841461181640625</LatitudeDegrees>
              <LongitudeDegrees>-8.14790382049977779388427734375</LongitudeDegrees>
            </Position>
            <AltitudeMeters>88.40000152587890625</AltitudeMeters>
            <DistanceMeters>105011.45132674</DistanceMeters>
          </Trackpoint>
          <Trackpoint>
            <Time>2018-09-13T13:31:47.000Z</Time>
            <Position>
              <LatitudeDegrees>39.0974341146647930145263671875</LatitudeDegrees>
              <LongitudeDegrees>-8.14814521931111812591552734375</LongitudeDegrees>
            </Position>
            <AltitudeMeters>88.59999847412109375</AltitudeMeters>
            <DistanceMeters>105045.07950738</DistanceMeters>
          </Trackpoint>
          <Trackpoint>
            <Time>2018-09-13T13:31:54.000Z</Time>
            <Position>
              <LatitudeDegrees>39.0970130078494548797607421875</LatitudeDegrees>
              <LongitudeDegrees>-8.14858024008572101593017578125</LongitudeDegrees>
            </Position>
            <AltitudeMeters>88.8000030517578125</AltitudeMeters>
            <DistanceMeters>105105.15277773</DistanceMeters>
          </Trackpoint>
          <Trackpoint>
            <Time>2018-09-13T13:32:02.000Z</Time>
            <Position>
              <LatitudeDegrees>39.0965520031750202178955078125</LatitudeDegrees>
              <LongitudeDegrees>-8.14907125197350978851318359375</LongitudeDegrees>
            </Position>
            <AltitudeMeters>87.40000152587890625</AltitudeMeters>
            <DistanceMeters>105171.72365415</DistanceMeters>
          </Trackpoint>
          <Trackpoint>
            <Time>2018-09-13T13:32:10.000Z</Time>
            <Position>
              <LatitudeDegrees>39.096070043742656707763671875</LatitudeDegrees>
              <LongitudeDegrees>-8.14955153502523899078369140625</LongitudeDegrees>
            </Position>
            <AltitudeMeters>86.1999969482421875</AltitudeMeters>
            <DistanceMeters>105239.53764976</DistanceMeters>
          </Trackpoint>
          <Trackpoint>
            <Time>2018-09-13T13:32:16.000Z</Time>
            <Position>
              <LatitudeDegrees>39.09569411538541316986083984375</LatitudeDegrees>
              <LongitudeDegrees>-8.1499291397631168365478515625</LongitudeDegrees>
            </Position>
            <AltitudeMeters>86.1999969482421875</AltitudeMeters>
            <DistanceMeters>105292.59073333</DistanceMeters>
          </Trackpoint>
          <Trackpoint>
            <Time>2018-09-13T13:32:24.000Z</Time>
            <Position>
              <LatitudeDegrees>39.09521886147558689117431640625</LatitudeDegrees>
              <LongitudeDegrees>-8.15042761154472827911376953125</LongitudeDegrees>
            </Position>
            <AltitudeMeters>85.59999847412109375</AltitudeMeters>
            <DistanceMeters>105360.797014</DistanceMeters>
          </Trackpoint>
          <Trackpoint>
            <Time>2018-09-13T13:32:27.000Z</Time>
            <Position>
              <LatitudeDegrees>39.09503160975873470306396484375</LatitudeDegrees>
              <LongitudeDegrees>-8.15061503089964389801025390625</LongitudeDegrees>
            </Position>
            <AltitudeMeters>85.59999847412109375</AltitudeMeters>
            <DistanceMeters>105387.18776495</DistanceMeters>
          </Trackpoint>
          <Trackpoint>
            <Time>2018-09-13T13:32:34.000Z</Time>
            <Position>
              <LatitudeDegrees>39.09461234696209430694580078125</LatitudeDegrees>
              <LongitudeDegrees>-8.15106765367090702056884765625</LongitudeDegrees>
            </Position>
            <AltitudeMeters>86</AltitudeMeters>
            <DistanceMeters>105448.066969</DistanceMeters>
          </Trackpoint>
          <Trackpoint>
            <Time>2018-09-13T13:32:41.000Z</Time>
            <Position>
              <LatitudeDegrees>39.0942275337874889373779296875</LatitudeDegrees>
              <LongitudeDegrees>-8.15156989730894565582275390625</LongitudeDegrees>
            </Position>
            <AltitudeMeters>86.1999969482421875</AltitudeMeters>
            <DistanceMeters>105509.03177216</DistanceMeters>
          </Trackpoint>
          <Trackpoint>
            <Time>2018-09-13T13:32:48.000Z</Time>
            <Position>
              <LatitudeDegrees>39.09389519132673740386962890625</LatitudeDegrees>
              <LongitudeDegrees>-8.15213835798203945159912109375</LongitudeDegrees>
            </Position>
            <AltitudeMeters>86.1999969482421875</AltitudeMeters>
            <DistanceMeters>105570.51031098</DistanceMeters>
          </Trackpoint>
          <Trackpoint>
            <Time>2018-09-13T13:32:55.000Z</Time>
            <Position>
              <LatitudeDegrees>39.09361925907433032989501953125</LatitudeDegrees>
              <LongitudeDegrees>-8.15274738706648349761962890625</LongitudeDegrees>
            </Position>
            <AltitudeMeters>86.40000152587890625</AltitudeMeters>
            <DistanceMeters>105631.42843863</DistanceMeters>
          </Trackpoint>
          <Trackpoint>
            <Time>2018-09-13T13:33:02.000Z</Time>
            <Position>
              <LatitudeDegrees>39.09340602345764636993408203125</LatitudeDegrees>
              <LongitudeDegrees>-8.15338558517396450042724609375</LongitudeDegrees>
            </Position>
            <AltitudeMeters>87.1999969482421875</AltitudeMeters>
            <DistanceMeters>105691.44982696</DistanceMeters>
          </Trackpoint>
          <Trackpoint>
            <Time>2018-09-13T13:33:03.000Z</Time>
            <Position>
              <LatitudeDegrees>39.09338188357651233673095703125</LatitudeDegrees>
              <LongitudeDegrees>-8.1534763611853122711181640625</LongitudeDegrees>
            </Position>
            <AltitudeMeters>87.40000152587890625</AltitudeMeters>
            <DistanceMeters>105699.73951222</DistanceMeters>
          </Trackpoint>
          <Trackpoint>
            <Time>2018-09-13T13:33:11.000Z</Time>
            <Position>
              <LatitudeDegrees>39.09320938400924205780029296875</LatitudeDegrees>
              <LongitudeDegrees>-8.1542139686644077301025390625</LongitudeDegrees>
            </Position>
            <AltitudeMeters>88.40000152587890625</AltitudeMeters>
            <DistanceMeters>105766.28664634</DistanceMeters>
          </Trackpoint>
          <Trackpoint>
            <Time>2018-09-13T13:33:19.000Z</Time>
            <Position>
              <LatitudeDegrees>39.09302380867302417755126953125</LatitudeDegrees>
              <LongitudeDegrees>-8.15494126640260219573974609375</LongitudeDegrees>
            </Position>
            <AltitudeMeters>87</AltitudeMeters>
            <DistanceMeters>105832.42155306</DistanceMeters>
          </Trackpoint>
          <Trackpoint>
            <Time>2018-09-13T13:33:27.000Z</Time>
            <Position>
              <LatitudeDegrees>39.0928539074957370758056640625</LatitudeDegrees>
              <LongitudeDegrees>-8.1556241400539875030517578125</LongitudeDegrees>
            </Position>
            <AltitudeMeters>88.59999847412109375</AltitudeMeters>
            <DistanceMeters>105894.36789311</DistanceMeters>
          </Trackpoint>
          <Trackpoint>
            <Time>2018-09-13T13:33:36.000Z</Time>
            <Position>
              <LatitudeDegrees>39.0926747024059295654296875</LatitudeDegrees>
              <LongitudeDegrees>-8.15633676946163177490234375</LongitudeDegrees>
            </Position>
            <AltitudeMeters>90.8000030517578125</AltitudeMeters>
            <DistanceMeters>105959.0786436</DistanceMeters>
          </Trackpoint>
          <Trackpoint>
            <Time>2018-09-13T13:33:39.000Z</Time>
            <Position>
              <LatitudeDegrees>39.09261644817888736724853515625</LatitudeDegrees>
              <LongitudeDegrees>-8.15656651742756366729736328125</LongitudeDegrees>
            </Position>
            <AltitudeMeters>91.1999969482421875</AltitudeMeters>
            <DistanceMeters>105979.95750708</DistanceMeters>
          </Trackpoint>
          <Trackpoint>
            <Time>2018-09-13T13:33:48.000Z</Time>
            <Position>
              <LatitudeDegrees>39.09244109876453876495361328125</LatitudeDegrees>
              <LongitudeDegrees>-8.157263807952404022216796875</LongitudeDegrees>
            </Position>
            <AltitudeMeters>93</AltitudeMeters>
            <DistanceMeters>106043.27568298</DistanceMeters>
          </Trackpoint>
          <Trackpoint>
            <Time>2018-09-13T13:33:49.000Z</Time>
            <Position>
              <LatitudeDegrees>39.09242198802530765533447265625</LatitudeDegrees>
              <LongitudeDegrees>-8.15734150819480419158935546875</LongitudeDegrees>
            </Position>
            <AltitudeMeters>93</AltitudeMeters>
            <DistanceMeters>106050.31664312</DistanceMeters>
          </Trackpoint>
          <Trackpoint>
            <Time>2018-09-13T13:33:58.000Z</Time>
            <Position>
              <LatitudeDegrees>39.0922551043331623077392578125</LatitudeDegrees>
              <LongitudeDegrees>-8.15802463330328464508056640625</LongitudeDegrees>
            </Position>
            <AltitudeMeters>94.1999969482421875</AltitudeMeters>
            <DistanceMeters>106112.18261035</DistanceMeters>
          </Trackpoint>
          <Trackpoint>
            <Time>2018-09-13T13:34:04.000Z</Time>
            <Position>
              <LatitudeDegrees>39.09215074963867664337158203125</LatitudeDegrees>
              <LongitudeDegrees>-8.15844875760376453399658203125</LongitudeDegrees>
            </Position>
            <AltitudeMeters>94.8000030517578125</AltitudeMeters>
            <DistanceMeters>106150.61771534</DistanceMeters>
          </Trackpoint>
          <Trackpoint>
            <Time>2018-09-13T13:34:14.000Z</Time>
            <Position>
              <LatitudeDegrees>39.09198109991848468780517578125</LatitudeDegrees>
              <LongitudeDegrees>-8.15913221798837184906005859375</LongitudeDegrees>
            </Position>
            <AltitudeMeters>95</AltitudeMeters>
            <DistanceMeters>106212.60456691</DistanceMeters>
          </Trackpoint>
          <Trackpoint>
            <Time>2018-09-13T13:34:23.000Z</Time>
            <Position>
              <LatitudeDegrees>39.09180901944637298583984375</LatitudeDegrees>
              <LongitudeDegrees>-8.15982188098132610321044921875</LongitudeDegrees>
            </Position>
            <AltitudeMeters>95.59999847412109375</AltitudeMeters>
            <DistanceMeters>106275.18433011</DistanceMeters>
          </Trackpoint>
          <Trackpoint>
            <Time>2018-09-13T13:34:30.000Z</Time>
            <Position>
              <LatitudeDegrees>39.0916723944246768951416015625</LatitudeDegrees>
              <LongitudeDegrees>-8.160370476543903350830078125</LongitudeDegrees>
            </Position>
            <AltitudeMeters>95.59999847412109375</AltitudeMeters>
            <DistanceMeters>106324.95492897</DistanceMeters>
          </Trackpoint>
          <Trackpoint>
            <Time>2018-09-13T13:34:36.000Z</Time>
            <Position>
              <LatitudeDegrees>39.09154079854488372802734375</LatitudeDegrees>
              <LongitudeDegrees>-8.160869367420673370361328125</LongitudeDegrees>
            </Position>
            <AltitudeMeters>95</AltitudeMeters>
            <DistanceMeters>106370.47292353</DistanceMeters>
          </Trackpoint>
          <Trackpoint>
            <Time>2018-09-13T13:34:42.000Z</Time>
            <Position>
              <LatitudeDegrees>39.0913525409996509552001953125</LatitudeDegrees>
              <LongitudeDegrees>-8.16139809787273406982421875</LongitudeDegrees>
            </Position>
            <AltitudeMeters>94</AltitudeMeters>
            <DistanceMeters>106420.72471771</DistanceMeters>
          </Trackpoint>
          <Trackpoint>
            <Time>2018-09-13T13:34:46.000Z</Time>
            <Position>
              <LatitudeDegrees>39.09118532203137874603271484375</LatitudeDegrees>
              <LongitudeDegrees>-8.161747120320796966552734375</LongitudeDegrees>
            </Position>
            <AltitudeMeters>93.1999969482421875</AltitudeMeters>
            <DistanceMeters>106456.15719656</DistanceMeters>
          </Trackpoint>
          <Trackpoint>
            <Time>2018-09-13T13:34:48.000Z</Time>
            <Position>
              <LatitudeDegrees>39.0910900197923183441162109375</LatitudeDegrees>
              <LongitudeDegrees>-8.16191802732646465301513671875</LongitudeDegrees>
            </Position>
            <AltitudeMeters>92</AltitudeMeters>
            <DistanceMeters>106474.33638075</DistanceMeters>
          </Trackpoint>
          <Trackpoint>
            <Time>2018-09-13T13:34:50.000Z</Time>
            <Position>
              <LatitudeDegrees>39.090987928211688995361328125</LatitudeDegrees>
              <LongitudeDegrees>-8.1620879285037517547607421875</LongitudeDegrees>
            </Position>
            <AltitudeMeters>90</AltitudeMeters>
            <DistanceMeters>106492.89799535</DistanceMeters>
          </Trackpoint>
          <Trackpoint>
            <Time>2018-09-13T13:34:53.000Z</Time>
            <Position>
              <LatitudeDegrees>39.0908224694430828094482421875</LatitudeDegrees>
              <LongitudeDegrees>-8.16233276389539241790771484375</LongitudeDegrees>
            </Position>
            <AltitudeMeters>87.40000152587890625</AltitudeMeters>
            <DistanceMeters>106520.94230918</DistanceMeters>
          </Trackpoint>
          <Trackpoint>
            <Time>2018-09-13T13:35:00.000Z</Time>
            <Position>
              <LatitudeDegrees>39.09040396101772785186767578125</LatitudeDegrees>
              <LongitudeDegrees>-8.16283182241022586822509765625</LongitudeDegrees>
            </Position>
            <AltitudeMeters>82.59999847412109375</AltitudeMeters>
            <DistanceMeters>106584.41232984</DistanceMeters>
          </Trackpoint>
          <Trackpoint>
            <Time>2018-09-13T13:35:01.000Z</Time>
            <Position>
              <LatitudeDegrees>39.090342186391353607177734375</LatitudeDegrees>
              <LongitudeDegrees>-8.1628925912082195281982421875</LongitudeDegrees>
            </Position>
            <AltitudeMeters>82.1999969482421875</AltitudeMeters>
            <DistanceMeters>106593.06341495</DistanceMeters>
          </Trackpoint>
          <Trackpoint>
            <Time>2018-09-13T13:35:09.000Z</Time>
            <Position>
              <LatitudeDegrees>39.0898186527192592620849609375</LatitudeDegrees>
              <LongitudeDegrees>-8.16330925561487674713134765625</LongitudeDegrees>
            </Position>
            <AltitudeMeters>82.1999969482421875</AltitudeMeters>
            <DistanceMeters>106661.55467331</DistanceMeters>
          </Trackpoint>
          <Trackpoint>
            <Time>2018-09-13T13:35:17.000Z</Time>
            <Position>
              <LatitudeDegrees>39.08926167525351047515869140625</LatitudeDegrees>
              <LongitudeDegrees>-8.1635899655520915985107421875</LongitudeDegrees>
            </Position>
            <AltitudeMeters>84.40000152587890625</AltitudeMeters>
            <DistanceMeters>106728.1216837</DistanceMeters>
          </Trackpoint>
          <Trackpoint>
            <Time>2018-09-13T13:35:25.000Z</Time>
            <Position>
              <LatitudeDegrees>39.08871668390929698944091796875</LatitudeDegrees>
              <LongitudeDegrees>-8.16376246511936187744140625</LongitudeDegrees>
            </Position>
            <AltitudeMeters>87.1999969482421875</AltitudeMeters>
            <DistanceMeters>106790.58402322</DistanceMeters>
          </Trackpoint>
          <Trackpoint>
            <Time>2018-09-13T13:35:35.000Z</Time>
            <Position>
              <LatitudeDegrees>39.0881605446338653564453125</LatitudeDegrees>
              <LongitudeDegrees>-8.16380479373037815093994140625</LongitudeDegrees>
            </Position>
            <AltitudeMeters>89.1999969482421875</AltitudeMeters>
            <DistanceMeters>106852.59141189</DistanceMeters>
          </Trackpoint>
          <Trackpoint>
            <Time>2018-09-13T13:35:43.000Z</Time>
            <Position>
              <LatitudeDegrees>39.08791855908930301666259765625</LatitudeDegrees>
              <LongitudeDegrees>-8.1637512333691120147705078125</LongitudeDegrees>
            </Position>
            <AltitudeMeters>89.40000152587890625</AltitudeMeters>
            <DistanceMeters>106879.91948248</DistanceMeters>
          </Trackpoint>
          <Trackpoint>
            <Time>2018-09-13T13:35:45.000Z</Time>
            <Position>
              <LatitudeDegrees>39.08791990019381046295166015625</LatitudeDegrees>
              <LongitudeDegrees>-8.1637053005397319793701171875</LongitudeDegrees>
            </Position>
            <AltitudeMeters>89.1999969482421875</AltitudeMeters>
            <DistanceMeters>106883.8901894</DistanceMeters>
          </Trackpoint>
          <Trackpoint>
            <Time>2018-09-13T13:35:47.000Z</Time>
            <Position>
              <LatitudeDegrees>39.08792006783187389373779296875</LatitudeDegrees>
              <LongitudeDegrees>-8.16365894861519336700439453125</LongitudeDegrees>
            </Position>
            <AltitudeMeters>89</AltitudeMeters>
            <DistanceMeters>106887.89373604</DistanceMeters>
          </Trackpoint>
          <Trackpoint>
            <Time>2018-09-13T13:35:49.000Z</Time>
            <Position>
              <LatitudeDegrees>39.0879203192889690399169921875</LatitudeDegrees>
              <LongitudeDegrees>-8.1636456213891506195068359375</LongitudeDegrees>
            </Position>
            <AltitudeMeters>88.8000030517578125</AltitudeMeters>
            <DistanceMeters>106889.04978591</DistanceMeters>
          </Trackpoint>
          <Trackpoint>
            <Time>2018-09-13T13:53:24.000Z</Time>
            <Position>
              <LatitudeDegrees>39.0878234244883060455322265625</LatitudeDegrees>
              <LongitudeDegrees>-8.16369272768497467041015625</LongitudeDegrees>
            </Position>
            <AltitudeMeters>89.40000152587890625</AltitudeMeters>
            <DistanceMeters>106900.57664779</DistanceMeters>
          </Trackpoint>
          <Trackpoint>
            <Time>2018-09-13T13:53:25.000Z</Time>
            <Position>
              <LatitudeDegrees>39.087812192738056182861328125</LatitudeDegrees>
              <LongitudeDegrees>-8.16371745429933071136474609375</LongitudeDegrees>
            </Position>
            <AltitudeMeters>89.59999847412109375</AltitudeMeters>
            <DistanceMeters>106903.05099454</DistanceMeters>
          </Trackpoint>
          <Trackpoint>
            <Time>2018-09-13T13:53:32.000Z</Time>
            <Position>
              <LatitudeDegrees>39.0877448022365570068359375</LatitudeDegrees>
              <LongitudeDegrees>-8.16391258500516414642333984375</LongitudeDegrees>
            </Position>
            <AltitudeMeters>90.8000030517578125</AltitudeMeters>
            <DistanceMeters>106921.50184498</DistanceMeters>
          </Trackpoint>
          <Trackpoint>
            <Time>2018-09-13T13:53:35.000Z</Time>
            <Position>
              <LatitudeDegrees>39.08767246641218662261962890625</LatitudeDegrees>
              <LongitudeDegrees>-8.163932450115680694580078125</LongitudeDegrees>
            </Position>
            <AltitudeMeters>91</AltitudeMeters>
            <DistanceMeters>106929.73359411</DistanceMeters>
          </Trackpoint>
          <Trackpoint>
            <Time>2018-09-13T13:53:37.000Z</Time>
            <Position>
              <LatitudeDegrees>39.0876199118793010711669921875</LatitudeDegrees>
              <LongitudeDegrees>-8.16393353976309299468994140625</LongitudeDegrees>
            </Position>
            <AltitudeMeters>91.1999969482421875</AltitudeMeters>
            <DistanceMeters>106935.58372143</DistanceMeters>
          </Trackpoint>
          <Trackpoint>
            <Time>2018-09-13T13:53:41.000Z</Time>
            <Position>
              <LatitudeDegrees>39.0875142998993396759033203125</LatitudeDegrees>
              <LongitudeDegrees>-8.1639413349330425262451171875</LongitudeDegrees>
            </Position>
            <AltitudeMeters>91.1999969482421875</AltitudeMeters>
            <DistanceMeters>106947.35783429</DistanceMeters>
          </Trackpoint>
          <Trackpoint>
            <Time>2018-09-13T13:53:52.000Z</Time>
            <Position>
              <LatitudeDegrees>39.087206684052944183349609375</LatitudeDegrees>
              <LongitudeDegrees>-8.163969330489635467529296875</LongitudeDegrees>
            </Position>
            <AltitudeMeters>92</AltitudeMeters>
            <DistanceMeters>106981.6812941</DistanceMeters>
          </Trackpoint>
          <Trackpoint>
            <Time>2018-09-13T13:53:53.000Z</Time>
            <Position>
              <LatitudeDegrees>39.0871790237724781036376953125</LatitudeDegrees>
              <LongitudeDegrees>-8.1639711745083332061767578125</LongitudeDegrees>
            </Position>
            <AltitudeMeters>92.1999969482421875</AltitudeMeters>
            <DistanceMeters>106984.76344277</DistanceMeters>
          </Trackpoint>
          <Trackpoint>
            <Time>2018-09-13T13:53:58.000Z</Time>
            <Position>
              <LatitudeDegrees>39.0870385430753231048583984375</LatitudeDegrees>
              <LongitudeDegrees>-8.16398450173437595367431640625</LongitudeDegrees>
            </Position>
            <AltitudeMeters>93.1999969482421875</AltitudeMeters>
            <DistanceMeters>107000.44169875</DistanceMeters>
          </Trackpoint>
          <Trackpoint>
            <Time>2018-09-13T13:54:07.000Z</Time>
            <Position>
              <LatitudeDegrees>39.0867830626666545867919921875</LatitudeDegrees>
              <LongitudeDegrees>-8.16401283256709575653076171875</LongitudeDegrees>
            </Position>
            <AltitudeMeters>95.59999847412109375</AltitudeMeters>
            <DistanceMeters>107028.98200386</DistanceMeters>
          </Trackpoint>
          <Trackpoint>
            <Time>2018-09-13T13:54:17.000Z</Time>
            <Position>
              <LatitudeDegrees>39.0865010954439640045166015625</LatitudeDegrees>
              <LongitudeDegrees>-8.16403127275407314300537109375</LongitudeDegrees>
            </Position>
            <AltitudeMeters>98.59999847412109375</AltitudeMeters>
            <DistanceMeters>107060.40583112</DistanceMeters>
          </Trackpoint>
          <Trackpoint>
            <Time>2018-09-13T13:54:27.000Z</Time>
            <Position>
              <LatitudeDegrees>39.0862761251628398895263671875</LatitudeDegrees>
              <LongitudeDegrees>-8.16404535435140132904052734375</LongitudeDegrees>
            </Position>
            <AltitudeMeters>100.8000030517578125</AltitudeMeters>
            <DistanceMeters>107085.47487976</DistanceMeters>
          </Trackpoint>
          <Trackpoint>
            <Time>2018-09-13T13:54:40.000Z</Time>
            <Position>
              <LatitudeDegrees>39.0859770588576793670654296875</LatitudeDegrees>
              <LongitudeDegrees>-8.1640769541263580322265625</LongitudeDegrees>
            </Position>
            <AltitudeMeters>102.1999969482421875</AltitudeMeters>
            <DistanceMeters>107118.87335657</DistanceMeters>
          </Trackpoint>
          <Trackpoint>
            <Time>2018-09-13T13:54:52.000Z</Time>
            <Position>
              <LatitudeDegrees>39.0856754779815673828125</LatitudeDegrees>
              <LongitudeDegrees>-8.16410721279680728912353515625</LongitudeDegrees>
            </Position>
            <AltitudeMeters>103.59999847412109375</AltitudeMeters>
            <DistanceMeters>107152.54152397</DistanceMeters>
          </Trackpoint>
          <Trackpoint>
            <Time>2018-09-13T13:55:02.000Z</Time>
            <Position>
              <LatitudeDegrees>39.08539376221597194671630859375</LatitudeDegrees>
              <LongitudeDegrees>-8.16414090804755687713623046875</LongitudeDegrees>
            </Position>
            <AltitudeMeters>104.8000030517578125</AltitudeMeters>
            <DistanceMeters>107184.0319491</DistanceMeters>
          </Trackpoint>
          <Trackpoint>
            <Time>2018-09-13T13:55:06.000Z</Time>
            <Position>
              <LatitudeDegrees>39.08527859486639499664306640625</LatitudeDegrees>
              <LongitudeDegrees>-8.16415406763553619384765625</LongitudeDegrees>
            </Position>
            <AltitudeMeters>105</AltitudeMeters>
            <DistanceMeters>107196.90061538</DistanceMeters>
          </Trackpoint>
          <Trackpoint>
            <Time>2018-09-13T13:55:14.000Z</Time>
            <Position>
              <LatitudeDegrees>39.0850446559488773345947265625</LatitudeDegrees>
              <LongitudeDegrees>-8.16417845897376537322998046875</LongitudeDegrees>
            </Position>
            <AltitudeMeters>103.8000030517578125</AltitudeMeters>
            <DistanceMeters>107223.02363027</DistanceMeters>
          </Trackpoint>
          <Trackpoint>
            <Time>2018-09-13T13:55:24.000Z</Time>
            <Position>
              <LatitudeDegrees>39.0847442485392093658447265625</LatitudeDegrees>
              <LongitudeDegrees>-8.1642155908048152923583984375</LongitudeDegrees>
            </Position>
            <AltitudeMeters>102.40000152587890625</AltitudeMeters>
            <DistanceMeters>107256.61312076</DistanceMeters>
          </Trackpoint>
          <Trackpoint>
            <Time>2018-09-13T13:55:34.000Z</Time>
            <Position>
              <LatitudeDegrees>39.08444694243371486663818359375</LatitudeDegrees>
              <LongitudeDegrees>-8.164247609674930572509765625</LongitudeDegrees>
            </Position>
            <AltitudeMeters>100.8000030517578125</AltitudeMeters>
            <DistanceMeters>107289.81921319</DistanceMeters>
          </Trackpoint>
          <Trackpoint>
            <Time>2018-09-13T13:55:51.000Z</Time>
            <Position>
              <LatitudeDegrees>39.08392190001904964447021484375</LatitudeDegrees>
              <LongitudeDegrees>-8.16431944258511066436767578125</LongitudeDegrees>
            </Position>
            <AltitudeMeters>101</AltitudeMeters>
            <DistanceMeters>107348.58614893</DistanceMeters>
          </Trackpoint>
          <Trackpoint>
            <Time>2018-09-13T13:55:59.000Z</Time>
            <Position>
              <LatitudeDegrees>39.083669520914554595947265625</LatitudeDegrees>
              <LongitudeDegrees>-8.1643429957330226898193359375</LongitudeDegrees>
            </Position>
            <AltitudeMeters>101</AltitudeMeters>
            <DistanceMeters>107376.74998948</DistanceMeters>
          </Trackpoint>
          <Trackpoint>
            <Time>2018-09-13T13:56:07.000Z</Time>
            <Position>
              <LatitudeDegrees>39.08342921175062656402587890625</LatitudeDegrees>
              <LongitudeDegrees>-8.16437006928026676177978515625</LongitudeDegrees>
            </Position>
            <AltitudeMeters>102</AltitudeMeters>
            <DistanceMeters>107403.59903048</DistanceMeters>
          </Trackpoint>
          <Trackpoint>
            <Time>2018-09-13T13:56:16.000Z</Time>
            <Position>
              <LatitudeDegrees>39.083160571753978729248046875</LatitudeDegrees>
              <LongitudeDegrees>-8.16438163630664348602294921875</LongitudeDegrees>
            </Position>
            <AltitudeMeters>104.1999969482421875</AltitudeMeters>
            <DistanceMeters>107433.51599986</DistanceMeters>
          </Trackpoint>
          <Trackpoint>
            <Time>2018-09-13T13:56:23.000Z</Time>
            <Position>
              <LatitudeDegrees>39.08293836750090122222900390625</LatitudeDegrees>
              <LongitudeDegrees>-8.1643728353083133697509765625</LongitudeDegrees>
            </Position>
            <AltitudeMeters>106.1999969482421875</AltitudeMeters>
            <DistanceMeters>107458.25946734</DistanceMeters>
          </Trackpoint>
          <Trackpoint>
            <Time>2018-09-13T13:56:33.000Z</Time>
            <Position>
              <LatitudeDegrees>39.08261843025684356689453125</LatitudeDegrees>
              <LongitudeDegrees>-8.16432815976440906524658203125</LongitudeDegrees>
            </Position>
            <AltitudeMeters>109.59999847412109375</AltitudeMeters>
            <DistanceMeters>107494.07773238</DistanceMeters>
          </Trackpoint>
          <Trackpoint>
            <Time>2018-09-13T13:56:42.000Z</Time>
            <Position>
              <LatitudeDegrees>39.082319028675556182861328125</LatitudeDegrees>
              <LongitudeDegrees>-8.16425590775907039642333984375</LongitudeDegrees>
            </Position>
            <AltitudeMeters>112.1999969482421875</AltitudeMeters>
            <DistanceMeters>107527.98136774</DistanceMeters>
          </Trackpoint>
          <Trackpoint>
            <Time>2018-09-13T13:56:43.000Z</Time>
            <Position>
              <LatitudeDegrees>39.0822866745293140411376953125</LatitudeDegrees>
              <LongitudeDegrees>-8.16424467600882053375244140625</LongitudeDegrees>
            </Position>
            <AltitudeMeters>112.40000152587890625</AltitudeMeters>
            <DistanceMeters>107531.7104853</DistanceMeters>
          </Trackpoint>
          <Trackpoint>
            <Time>2018-09-13T13:56:52.000Z</Time>
            <Position>
              <LatitudeDegrees>39.08198886550962924957275390625</LatitudeDegrees>
              <LongitudeDegrees>-8.16412732936441898345947265625</LongitudeDegrees>
            </Position>
            <AltitudeMeters>115.1999969482421875</AltitudeMeters>
            <DistanceMeters>107566.37322972</DistanceMeters>
          </Trackpoint>
          <Trackpoint>
            <Time>2018-09-13T13:57:00.000Z</Time>
            <Position>
              <LatitudeDegrees>39.08171863295137882232666015625</LatitudeDegrees>
              <LongitudeDegrees>-8.16400227136909961700439453125</LongitudeDegrees>
            </Position>
            <AltitudeMeters>117.8000030517578125</AltitudeMeters>
            <DistanceMeters>107598.33245291</DistanceMeters>
          </Trackpoint>
          <Trackpoint>
            <Time>2018-09-13T13:57:11.000Z</Time>
            <Position>
              <LatitudeDegrees>39.081339351832866668701171875</LatitudeDegrees>
              <LongitudeDegrees>-8.16379641182720661163330078125</LongitudeDegrees>
            </Position>
            <AltitudeMeters>119.40000152587890625</AltitudeMeters>
            <DistanceMeters>107644.14094769</DistanceMeters>
          </Trackpoint>
          <Trackpoint>
            <Time>2018-09-13T13:57:20.000Z</Time>
            <Position>
              <LatitudeDegrees>39.08101840876042842864990234375</LatitudeDegrees>
              <LongitudeDegrees>-8.1636124290525913238525390625</LongitudeDegrees>
            </Position>
            <AltitudeMeters>118.8000030517578125</AltitudeMeters>
            <DistanceMeters>107683.23967748</DistanceMeters>
          </Trackpoint>
          <Trackpoint>
            <Time>2018-09-13T13:57:33.000Z</Time>
            <Position>
              <LatitudeDegrees>39.08052521757781505584716796875</LatitudeDegrees>
              <LongitudeDegrees>-8.163327611982822418212890625</LongitudeDegrees>
            </Position>
            <AltitudeMeters>118.40000152587890625</AltitudeMeters>
            <DistanceMeters>107743.39624126</DistanceMeters>
          </Trackpoint>
          <Trackpoint>
            <Time>2018-09-13T13:57:37.000Z</Time>
            <Position>
              <LatitudeDegrees>39.08037073910236358642578125</LatitudeDegrees>
              <LongitudeDegrees>-8.1632379256188869476318359375</LongitudeDegrees>
            </Position>
            <AltitudeMeters>117.59999847412109375</AltitudeMeters>
            <DistanceMeters>107762.25539343</DistanceMeters>
          </Trackpoint>
          <Trackpoint>
            <Time>2018-09-13T13:57:50.000Z</Time>
            <Position>
              <LatitudeDegrees>39.07983966171741485595703125</LatitudeDegrees>
              <LongitudeDegrees>-8.1629569642245769500732421875</LongitudeDegrees>
            </Position>
            <AltitudeMeters>113</AltitudeMeters>
            <DistanceMeters>107826.15589536</DistanceMeters>
          </Trackpoint>
          <Trackpoint>
            <Time>2018-09-13T13:58:01.000Z</Time>
            <Position>
              <LatitudeDegrees>39.07930548302829265594482421875</LatitudeDegrees>
              <LongitudeDegrees>-8.16280634142458438873291015625</LongitudeDegrees>
            </Position>
            <AltitudeMeters>112.59999847412109375</AltitudeMeters>
            <DistanceMeters>107887.01855862</DistanceMeters>
          </Trackpoint>
          <Trackpoint>
            <Time>2018-09-13T13:58:09.000Z</Time>
            <Position>
              <LatitudeDegrees>39.07889259047806262969970703125</LatitudeDegrees>
              <LongitudeDegrees>-8.16279745660722255706787109375</LongitudeDegrees>
            </Position>
            <AltitudeMeters>113.8000030517578125</AltitudeMeters>
            <DistanceMeters>107932.98065326</DistanceMeters>
          </Trackpoint>
          <Trackpoint>
            <Time>2018-09-13T13:58:14.000Z</Time>
            <Position>
              <LatitudeDegrees>39.0786341764032840728759765625</LatitudeDegrees>
              <LongitudeDegrees>-8.1628409586846828460693359375</LongitudeDegrees>
            </Position>
            <AltitudeMeters>115.40000152587890625</AltitudeMeters>
            <DistanceMeters>107961.98731461</DistanceMeters>
          </Trackpoint>
          <Trackpoint>
            <Time>2018-09-13T13:58:23.000Z</Time>
            <Position>
              <LatitudeDegrees>39.0781470201909542083740234375</LatitudeDegrees>
              <LongitudeDegrees>-8.16299459896981716156005859375</LongitudeDegrees>
            </Position>
            <AltitudeMeters>116.40000152587890625</AltitudeMeters>
            <DistanceMeters>108017.81015115</DistanceMeters>
          </Trackpoint>
          <Trackpoint>
            <Time>2018-09-13T13:58:33.000Z</Time>
            <Position>
              <LatitudeDegrees>39.077607728540897369384765625</LatitudeDegrees>
              <LongitudeDegrees>-8.16332970745861530303955078125</LongitudeDegrees>
            </Position>
            <AltitudeMeters>118.1999969482421875</AltitudeMeters>
            <DistanceMeters>108084.45288119</DistanceMeters>
          </Trackpoint>
          <Trackpoint>
            <Time>2018-09-13T13:58:42.000Z</Time>
            <Position>
              <LatitudeDegrees>39.0771247632801532745361328125</LatitudeDegrees>
              <LongitudeDegrees>-8.1637354753911495208740234375</LongitudeDegrees>
            </Position>
            <AltitudeMeters>114.40000152587890625</AltitudeMeters>
            <DistanceMeters>108148.63060636</DistanceMeters>
          </Trackpoint>
          <Trackpoint>
            <Time>2018-09-13T13:58:49.000Z</Time>
            <Position>
              <LatitudeDegrees>39.07672972418367862701416015625</LatitudeDegrees>
              <LongitudeDegrees>-8.1640823185443878173828125</LongitudeDegrees>
            </Position>
            <AltitudeMeters>112.1999969482421875</AltitudeMeters>
            <DistanceMeters>108201.84115427</DistanceMeters>
          </Trackpoint>
          <Trackpoint>
            <Time>2018-09-13T13:58:53.000Z</Time>
            <Position>
              <LatitudeDegrees>39.07649083994328975677490234375</LatitudeDegrees>
              <LongitudeDegrees>-8.1642883457243442535400390625</LongitudeDegrees>
            </Position>
            <AltitudeMeters>112</AltitudeMeters>
            <DistanceMeters>108233.83864007</DistanceMeters>
          </Trackpoint>
          <Trackpoint>
            <Time>2018-09-13T13:58:56.000Z</Time>
            <Position>
              <LatitudeDegrees>39.07630962319672107696533203125</LatitudeDegrees>
              <LongitudeDegrees>-8.1644499488174915313720703125</LongitudeDegrees>
            </Position>
            <AltitudeMeters>112</AltitudeMeters>
            <DistanceMeters>108258.37026077</DistanceMeters>
          </Trackpoint>
          <Trackpoint>
            <Time>2018-09-13T13:59:04.000Z</Time>
            <Position>
              <LatitudeDegrees>39.075816683471202850341796875</LatitudeDegrees>
              <LongitudeDegrees>-8.164883963763713836669921875</LongitudeDegrees>
            </Position>
            <AltitudeMeters>110.8000030517578125</AltitudeMeters>
            <DistanceMeters>108324.82716476</DistanceMeters>
          </Trackpoint>
          <Trackpoint>
            <Time>2018-09-13T13:59:08.000Z</Time>
            <Position>
              <LatitudeDegrees>39.0755707584321498870849609375</LatitudeDegrees>
              <LongitudeDegrees>-8.16509510390460491180419921875</LongitudeDegrees>
            </Position>
            <AltitudeMeters>110</AltitudeMeters>
            <DistanceMeters>108357.72178439</DistanceMeters>
          </Trackpoint>
          <Trackpoint>
            <Time>2018-09-13T13:59:13.000Z</Time>
            <Position>
              <LatitudeDegrees>39.07526456750929355621337890625</LatitudeDegrees>
              <LongitudeDegrees>-8.16535477526485919952392578125</LongitudeDegrees>
            </Position>
            <AltitudeMeters>107.8000030517578125</AltitudeMeters>
            <DistanceMeters>108398.5243346</DistanceMeters>
          </Trackpoint>
          <Trackpoint>
            <Time>2018-09-13T13:59:18.000Z</Time>
            <Position>
              <LatitudeDegrees>39.07495343126356601715087890625</LatitudeDegrees>
              <LongitudeDegrees>-8.1656311266124248504638671875</LongitudeDegrees>
            </Position>
            <AltitudeMeters>107.8000030517578125</AltitudeMeters>
            <DistanceMeters>108440.58887333</DistanceMeters>
          </Trackpoint>
          <Trackpoint>
            <Time>2018-09-13T13:59:26.000Z</Time>
            <Position>
              <LatitudeDegrees>39.074449427425861358642578125</LatitudeDegrees>
              <LongitudeDegrees>-8.166068159043788909912109375</LongitudeDegrees>
            </Position>
            <AltitudeMeters>108.8000030517578125</AltitudeMeters>
            <DistanceMeters>108508.21164865</DistanceMeters>
          </Trackpoint>
          <Trackpoint>
            <Time>2018-09-13T13:59:29.000Z</Time>
            <Position>
              <LatitudeDegrees>39.074256308376789093017578125</LatitudeDegrees>
              <LongitudeDegrees>-8.1662356294691562652587890625</LongitudeDegrees>
            </Position>
            <AltitudeMeters>109.1999969482421875</AltitudeMeters>
            <DistanceMeters>108534.12346649</DistanceMeters>
          </Trackpoint>
          <Trackpoint>
            <Time>2018-09-13T13:59:35.000Z</Time>
            <Position>
              <LatitudeDegrees>39.07386177219450473785400390625</LatitudeDegrees>
              <LongitudeDegrees>-8.16657400690019130706787109375</LongitudeDegrees>
            </Position>
            <AltitudeMeters>109.8000030517578125</AltitudeMeters>
            <DistanceMeters>108586.87947071</DistanceMeters>
          </Trackpoint>
          <Trackpoint>
            <Time>2018-09-13T13:59:37.000Z</Time>
            <Position>
              <LatitudeDegrees>39.073729924857616424560546875</LatitudeDegrees>
              <LongitudeDegrees>-8.16668749786913394927978515625</LongitudeDegrees>
            </Position>
            <AltitudeMeters>110.1999969482421875</AltitudeMeters>
            <DistanceMeters>108604.52938791</DistanceMeters>
          </Trackpoint>
          <Trackpoint>
            <Time>2018-09-13T13:59:44.000Z</Time>
            <Position>
              <LatitudeDegrees>39.073291383683681488037109375</LatitudeDegrees>
              <LongitudeDegrees>-8.167084716260433197021484375</LongitudeDegrees>
            </Position>
            <AltitudeMeters>110.40000152587890625</AltitudeMeters>
            <DistanceMeters>108664.19950624</DistanceMeters>
          </Trackpoint>
          <Trackpoint>
            <Time>2018-09-13T13:59:49.000Z</Time>
            <Position>
              <LatitudeDegrees>39.07295451499521732330322265625</LatitudeDegrees>
              <LongitudeDegrees>-8.167369030416011810302734375</LongitudeDegrees>
            </Position>
            <AltitudeMeters>110.40000152587890625</AltitudeMeters>
            <DistanceMeters>108709.02543156</DistanceMeters>
          </Trackpoint>
          <Trackpoint>
            <Time>2018-09-13T13:59:53.000Z</Time>
            <Position>
              <LatitudeDegrees>39.07268579117953777313232421875</LatitudeDegrees>
              <LongitudeDegrees>-8.1675965152680873870849609375</LongitudeDegrees>
            </Position>
            <AltitudeMeters>110.8000030517578125</AltitudeMeters>
            <DistanceMeters>108744.81608011</DistanceMeters>
          </Trackpoint>
          <Trackpoint>
            <Time>2018-09-13T13:59:56.000Z</Time>
            <Position>
              <LatitudeDegrees>39.0724878944456577301025390625</LatitudeDegrees>
              <LongitudeDegrees>-8.1677708588540554046630859375</LongitudeDegrees>
            </Position>
            <AltitudeMeters>109.40000152587890625</AltitudeMeters>
            <DistanceMeters>108771.50150363</DistanceMeters>
          </Trackpoint>
          <Trackpoint>
            <Time>2018-09-13T14:00:01.000Z</Time>
            <Position>
              <LatitudeDegrees>39.07216091640293598175048828125</LatitudeDegrees>
              <LongitudeDegrees>-8.1680493056774139404296875</LongitudeDegrees>
            </Position>
            <AltitudeMeters>107</AltitudeMeters>
            <DistanceMeters>108815.12911579</DistanceMeters>
          </Trackpoint>
          <Trackpoint>
            <Time>2018-09-13T14:00:07.000Z</Time>
            <Position>
              <LatitudeDegrees>39.07176059670746326446533203125</LatitudeDegrees>
              <LongitudeDegrees>-8.16839271225035190582275390625</LongitudeDegrees>
            </Position>
            <AltitudeMeters>103</AltitudeMeters>
            <DistanceMeters>108868.66231223</DistanceMeters>
          </Trackpoint>
          <Trackpoint>
            <Time>2018-09-13T14:00:12.000Z</Time>
            <Position>
              <LatitudeDegrees>39.07143219374120235443115234375</LatitudeDegrees>
              <LongitudeDegrees>-8.16867786459624767303466796875</LongitudeDegrees>
            </Position>
            <AltitudeMeters>102.1999969482421875</AltitudeMeters>
            <DistanceMeters>108912.74374959</DistanceMeters>
          </Trackpoint>
          <Trackpoint>
            <Time>2018-09-13T14:00:19.000Z</Time>
            <Position>
              <LatitudeDegrees>39.07098476774990558624267578125</LatitudeDegrees>
              <LongitudeDegrees>-8.16907969303429126739501953125</LongitudeDegrees>
            </Position>
            <AltitudeMeters>101.59999847412109375</AltitudeMeters>
            <DistanceMeters>108973.4531039</DistanceMeters>
          </Trackpoint>
          <Trackpoint>
            <Time>2018-09-13T14:00:23.000Z</Time>
            <Position>
              <LatitudeDegrees>39.07071352936327457427978515625</LatitudeDegrees>
              <LongitudeDegrees>-8.1693077646195888519287109375</LongitudeDegrees>
            </Position>
            <AltitudeMeters>101</AltitudeMeters>
            <DistanceMeters>109009.50581854</DistanceMeters>
          </Trackpoint>
          <Trackpoint>
            <Time>2018-09-13T14:00:24.000Z</Time>
            <Position>
              <LatitudeDegrees>39.070646725594997406005859375</LatitudeDegrees>
              <LongitudeDegrees>-8.169364593923091888427734375</LongitudeDegrees>
            </Position>
            <AltitudeMeters>101</AltitudeMeters>
            <DistanceMeters>109018.41707503</DistanceMeters>
          </Trackpoint>
          <Trackpoint>
            <Time>2018-09-13T14:00:29.000Z</Time>
            <Position>
              <LatitudeDegrees>39.07030885107815265655517578125</LatitudeDegrees>
              <LongitudeDegrees>-8.169655613601207733154296875</LongitudeDegrees>
            </Position>
            <AltitudeMeters>100.59999847412109375</AltitudeMeters>
            <DistanceMeters>109063.65657819</DistanceMeters>
          </Trackpoint>
          <Trackpoint>
            <Time>2018-09-13T14:00:36.000Z</Time>
            <Position>
              <LatitudeDegrees>39.069799818098545074462890625</LatitudeDegrees>
              <LongitudeDegrees>-8.17003724165260791778564453125</LongitudeDegrees>
            </Position>
            <AltitudeMeters>99</AltitudeMeters>
            <DistanceMeters>109129.21144429</DistanceMeters>
          </Trackpoint>
          <Trackpoint>
            <Time>2018-09-13T14:00:43.000Z</Time>
            <Position>
              <LatitudeDegrees>39.06928458251059055328369140625</LatitudeDegrees>
              <LongitudeDegrees>-8.1703373976051807403564453125</LongitudeDegrees>
            </Position>
            <AltitudeMeters>97.1999969482421875</AltitudeMeters>
            <DistanceMeters>109192.1509881</DistanceMeters>
          </Trackpoint>
          <Trackpoint>
            <Time>2018-09-13T14:00:44.000Z</Time>
            <Position>
              <LatitudeDegrees>39.069211743772029876708984375</LatitudeDegrees>
              <LongitudeDegrees>-8.17037302069365978240966796875</LongitudeDegrees>
            </Position>
            <AltitudeMeters>97</AltitudeMeters>
            <DistanceMeters>109200.82292426</DistanceMeters>
          </Trackpoint>
          <Trackpoint>
            <Time>2018-09-13T14:00:51.000Z</Time>
            <Position>
              <LatitudeDegrees>39.06869751401245594024658203125</LatitudeDegrees>
              <LongitudeDegrees>-8.17061458714306354522705078125</LongitudeDegrees>
            </Position>
            <AltitudeMeters>96.40000152587890625</AltitudeMeters>
            <DistanceMeters>109261.74549873</DistanceMeters>
          </Trackpoint>
          <Trackpoint>
            <Time>2018-09-13T14:00:59.000Z</Time>
            <Position>
              <LatitudeDegrees>39.0681215934455394744873046875</LatitudeDegrees>
              <LongitudeDegrees>-8.17088515497744083404541015625</LongitudeDegrees>
            </Position>
            <AltitudeMeters>97.59999847412109375</AltitudeMeters>
            <DistanceMeters>109329.97759126</DistanceMeters>
          </Trackpoint>
          <Trackpoint>
            <Time>2018-09-13T14:01:03.000Z</Time>
            <Position>
              <LatitudeDegrees>39.06783635728061199188232421875</LatitudeDegrees>
              <LongitudeDegrees>-8.17101742140948772430419921875</LongitudeDegrees>
            </Position>
            <AltitudeMeters>98.59999847412109375</AltitudeMeters>
            <DistanceMeters>109363.71970291</DistanceMeters>
          </Trackpoint>
          <Trackpoint>
            <Time>2018-09-13T14:01:11.000Z</Time>
            <Position>
              <LatitudeDegrees>39.0672795474529266357421875</LatitudeDegrees>
              <LongitudeDegrees>-8.17127558402717113494873046875</LongitudeDegrees>
            </Position>
            <AltitudeMeters>99.1999969482421875</AltitudeMeters>
            <DistanceMeters>109429.58685836</DistanceMeters>
          </Trackpoint>
          <Trackpoint>
            <Time>2018-09-13T14:01:17.000Z</Time>
            <Position>
              <LatitudeDegrees>39.06687830574810504913330078125</LatitudeDegrees>
              <LongitudeDegrees>-8.17146484740078449249267578125</LongitudeDegrees>
            </Position>
            <AltitudeMeters>99.59999847412109375</AltitudeMeters>
            <DistanceMeters>109477.14656597</DistanceMeters>
          </Trackpoint>
          <Trackpoint>
            <Time>2018-09-13T14:01:22.000Z</Time>
            <Position>
              <LatitudeDegrees>39.06654705293476581573486328125</LatitudeDegrees>
              <LongitudeDegrees>-8.171616308391094207763671875</LongitudeDegrees>
            </Position>
            <AltitudeMeters>100.40000152587890625</AltitudeMeters>
            <DistanceMeters>109516.26988482</DistanceMeters>
          </Trackpoint>
          <Trackpoint>
            <Time>2018-09-13T14:01:30.000Z</Time>
            <Position>
              <LatitudeDegrees>39.066014550626277923583984375</LatitudeDegrees>
              <LongitudeDegrees>-8.17186365835368633270263671875</LongitudeDegrees>
            </Position>
            <AltitudeMeters>100.59999847412109375</AltitudeMeters>
            <DistanceMeters>109579.27510464</DistanceMeters>
          </Trackpoint>
          <Trackpoint>
            <Time>2018-09-13T14:01:38.000Z</Time>
            <Position>
              <LatitudeDegrees>39.0654742531478404998779296875</LatitudeDegrees>
              <LongitudeDegrees>-8.17211025394499301910400390625</LongitudeDegrees>
            </Position>
            <AltitudeMeters>97</AltitudeMeters>
            <DistanceMeters>109643.07547736</DistanceMeters>
          </Trackpoint>
          <Trackpoint>
            <Time>2018-09-13T14:01:46.000Z</Time>
            <Position>
              <LatitudeDegrees>39.06492884270846843719482421875</LatitudeDegrees>
              <LongitudeDegrees>-8.172350227832794189453125</LongitudeDegrees>
            </Position>
            <AltitudeMeters>97.1999969482421875</AltitudeMeters>
            <DistanceMeters>109707.22526666</DistanceMeters>
          </Trackpoint>
          <Trackpoint>
            <Time>2018-09-13T14:01:47.000Z</Time>
            <Position>
              <LatitudeDegrees>39.06485876999795436859130859375</LatitudeDegrees>
              <LongitudeDegrees>-8.17237495444715023040771484375</LongitudeDegrees>
            </Position>
            <AltitudeMeters>97.59999847412109375</AltitudeMeters>
            <DistanceMeters>109715.31203447</DistanceMeters>
          </Trackpoint>
          <Trackpoint>
            <Time>2018-09-13T14:01:55.000Z</Time>
            <Position>
              <LatitudeDegrees>39.064294584095478057861328125</LatitudeDegrees>
              <LongitudeDegrees>-8.17252666689455509185791015625</LongitudeDegrees>
            </Position>
            <AltitudeMeters>100</AltitudeMeters>
            <DistanceMeters>109779.46111994</DistanceMeters>
          </Trackpoint>
          <Trackpoint>
            <Time>2018-09-13T14:02:03.000Z</Time>
            <Position>
              <LatitudeDegrees>39.0637046657502651214599609375</LatitudeDegrees>
              <LongitudeDegrees>-8.172602355480194091796875</LongitudeDegrees>
            </Position>
            <AltitudeMeters>103.40000152587890625</AltitudeMeters>
            <DistanceMeters>109845.44518247</DistanceMeters>
          </Trackpoint>
          <Trackpoint>
            <Time>2018-09-13T14:02:09.000Z</Time>
            <Position>
              <LatitudeDegrees>39.06326654367148876190185546875</LatitudeDegrees>
              <LongitudeDegrees>-8.1726471148431301116943359375</LongitudeDegrees>
            </Position>
            <AltitudeMeters>101.8000030517578125</AltitudeMeters>
            <DistanceMeters>109894.36225471</DistanceMeters>
          </Trackpoint>
          <Trackpoint>
            <Time>2018-09-13T14:02:17.000Z</Time>
            <Position>
              <LatitudeDegrees>39.06269498169422149658203125</LatitudeDegrees>
              <LongitudeDegrees>-8.172702603042125701904296875</LongitudeDegrees>
            </Position>
            <AltitudeMeters>98.1999969482421875</AltitudeMeters>
            <DistanceMeters>109958.15873506</DistanceMeters>
          </Trackpoint>
          <Trackpoint>
            <Time>2018-09-13T14:02:25.000Z</Time>
            <Position>
              <LatitudeDegrees>39.0621382556855678558349609375</LatitudeDegrees>
              <LongitudeDegrees>-8.17276052199304103851318359375</LongitudeDegrees>
            </Position>
            <AltitudeMeters>94.59999847412109375</AltitudeMeters>
            <DistanceMeters>110020.32523774</DistanceMeters>
          </Trackpoint>
          <Trackpoint>
            <Time>2018-09-13T14:02:33.000Z</Time>
            <Position>
              <LatitudeDegrees>39.0615947730839252471923828125</LatitudeDegrees>
              <LongitudeDegrees>-8.17281936295330524444580078125</LongitudeDegrees>
            </Position>
            <AltitudeMeters>93.59999847412109375</AltitudeMeters>
            <DistanceMeters>110081.02938583</DistanceMeters>
          </Trackpoint>
          <Trackpoint>
            <Time>2018-09-13T14:02:35.000Z</Time>
            <Position>
              <LatitudeDegrees>39.06146108172833919525146484375</LatitudeDegrees>
              <LongitudeDegrees>-8.172835372388362884521484375</LongitudeDegrees>
            </Position>
            <AltitudeMeters>93.59999847412109375</AltitudeMeters>
            <DistanceMeters>110095.97367741</DistanceMeters>
          </Trackpoint>
          <Trackpoint>
            <Time>2018-09-13T14:02:44.000Z</Time>
            <Position>
              <LatitudeDegrees>39.060858003795146942138671875</LatitudeDegrees>
              <LongitudeDegrees>-8.17290904931724071502685546875</LongitudeDegrees>
            </Position>
            <AltitudeMeters>93.8000030517578125</AltitudeMeters>
            <DistanceMeters>110163.39886458</DistanceMeters>
          </Trackpoint>
          <Trackpoint>
            <Time>2018-09-13T14:02:52.000Z</Time>
            <Position>
              <LatitudeDegrees>39.06031678430736064910888671875</LatitudeDegrees>
              <LongitudeDegrees>-8.173061348497867584228515625</LongitudeDegrees>
            </Position>
            <AltitudeMeters>93.8000030517578125</AltitudeMeters>
            <DistanceMeters>110225.05897491</DistanceMeters>
          </Trackpoint>
          <Trackpoint>
            <Time>2018-09-13T14:02:54.000Z</Time>
            <Position>
              <LatitudeDegrees>39.06018485315144062042236328125</LatitudeDegrees>
              <LongitudeDegrees>-8.17312337458133697509765625</LongitudeDegrees>
            </Position>
            <AltitudeMeters>93.40000152587890625</AltitudeMeters>
            <DistanceMeters>110240.69079721</DistanceMeters>
          </Trackpoint>
          <Trackpoint>
            <Time>2018-09-13T14:03:02.000Z</Time>
            <Position>
              <LatitudeDegrees>39.05970104970037937164306640625</LatitudeDegrees>
              <LongitudeDegrees>-8.17348639480769634246826171875</LongitudeDegrees>
            </Position>
            <AltitudeMeters>91.8000030517578125</AltitudeMeters>
            <DistanceMeters>110303.01224055</DistanceMeters>
          </Trackpoint>
          <Trackpoint>
            <Time>2018-09-13T14:03:10.000Z</Time>
            <Position>
              <LatitudeDegrees>39.05929938890039920806884765625</LatitudeDegrees>
              <LongitudeDegrees>-8.1740063242614269256591796875</LongitudeDegrees>
            </Position>
            <AltitudeMeters>89</AltitudeMeters>
            <DistanceMeters>110366.39797958</DistanceMeters>
          </Trackpoint>
          <Trackpoint>
            <Time>2018-09-13T14:03:18.000Z</Time>
            <Position>
              <LatitudeDegrees>39.058952629566192626953125</LatitudeDegrees>
              <LongitudeDegrees>-8.17463270388543605804443359375</LongitudeDegrees>
            </Position>
            <AltitudeMeters>90.40000152587890625</AltitudeMeters>
            <DistanceMeters>110432.88259704</DistanceMeters>
          </Trackpoint>
          <Trackpoint>
            <Time>2018-09-13T14:03:26.000Z</Time>
            <Position>
              <LatitudeDegrees>39.058620035648345947265625</LatitudeDegrees>
              <LongitudeDegrees>-8.175266794860363006591796875</LongitudeDegrees>
            </Position>
            <AltitudeMeters>92.8000030517578125</AltitudeMeters>
            <DistanceMeters>110499.01586526</DistanceMeters>
          </Trackpoint>
          <Trackpoint>
            <Time>2018-09-13T14:03:32.000Z</Time>
            <Position>
              <LatitudeDegrees>39.05836950056254863739013671875</LatitudeDegrees>
              <LongitudeDegrees>-8.17573945038020610809326171875</LongitudeDegrees>
            </Position>
            <AltitudeMeters>92.8000030517578125</AltitudeMeters>
            <DistanceMeters>110548.4757867</DistanceMeters>
          </Trackpoint>
          <Trackpoint>
            <Time>2018-09-13T14:03:40.000Z</Time>
            <Position>
              <LatitudeDegrees>39.05803087167441844940185546875</LatitudeDegrees>
              <LongitudeDegrees>-8.17636549472808837890625</LongitudeDegrees>
            </Position>
            <AltitudeMeters>90.59999847412109375</AltitudeMeters>
            <DistanceMeters>110614.41590498</DistanceMeters>
          </Trackpoint>
          <Trackpoint>
            <Time>2018-09-13T14:03:48.000Z</Time>
            <Position>
              <LatitudeDegrees>39.057689644396305084228515625</LatitudeDegrees>
              <LongitudeDegrees>-8.17700545303523540496826171875</LongitudeDegrees>
            </Position>
            <AltitudeMeters>89.59999847412109375</AltitudeMeters>
            <DistanceMeters>110681.50981259</DistanceMeters>
          </Trackpoint>
          <Trackpoint>
            <Time>2018-09-13T14:03:50.000Z</Time>
            <Position>
              <LatitudeDegrees>39.057600796222686767578125</LatitudeDegrees>
              <LongitudeDegrees>-8.1771679781377315521240234375</LongitudeDegrees>
            </Position>
            <AltitudeMeters>90.1999969482421875</AltitudeMeters>
            <DistanceMeters>110698.68837184</DistanceMeters>
          </Trackpoint>
          <Trackpoint>
            <Time>2018-09-13T14:03:57.000Z</Time>
            <Position>
              <LatitudeDegrees>39.05727800913155078887939453125</LatitudeDegrees>
              <LongitudeDegrees>-8.17776250652968883514404296875</LongitudeDegrees>
            </Position>
            <AltitudeMeters>92.40000152587890625</AltitudeMeters>
            <DistanceMeters>110761.38620297</DistanceMeters>
          </Trackpoint>
          <Trackpoint>
            <Time>2018-09-13T14:03:59.000Z</Time>
            <Position>
              <LatitudeDegrees>39.05718429945409297943115234375</LatitudeDegrees>
              <LongitudeDegrees>-8.1779372692108154296875</LongitudeDegrees>
            </Position>
            <AltitudeMeters>92.8000030517578125</AltitudeMeters>
            <DistanceMeters>110779.74186183</DistanceMeters>
          </Trackpoint>
          <Trackpoint>
            <Time>2018-09-13T14:04:02.000Z</Time>
            <Position>
              <LatitudeDegrees>39.05704348348081111907958984375</LatitudeDegrees>
              <LongitudeDegrees>-8.17819769494235515594482421875</LongitudeDegrees>
            </Position>
            <AltitudeMeters>93.40000152587890625</AltitudeMeters>
            <DistanceMeters>110807.1692122</DistanceMeters>
          </Trackpoint>
          <Trackpoint>
            <Time>2018-09-13T14:04:06.000Z</Time>
            <Position>
              <LatitudeDegrees>39.0568511188030242919921875</LatitudeDegrees>
              <LongitudeDegrees>-8.1785312108695507049560546875</LongitudeDegrees>
            </Position>
            <AltitudeMeters>94</AltitudeMeters>
            <DistanceMeters>110843.07610965</DistanceMeters>
          </Trackpoint>
          <Trackpoint>
            <Time>2018-09-13T14:04:07.000Z</Time>
            <Position>
              <LatitudeDegrees>39.05679957009851932525634765625</LatitudeDegrees>
              <LongitudeDegrees>-8.17860849201679229736328125</LongitudeDegrees>
            </Position>
            <AltitudeMeters>94</AltitudeMeters>
            <DistanceMeters>110851.88083601</DistanceMeters>
          </Trackpoint>
          <Trackpoint>
            <Time>2018-09-13T14:04:12.000Z</Time>
            <Position>
              <LatitudeDegrees>39.0564898587763309478759765625</LatitudeDegrees>
              <LongitudeDegrees>-8.17892071790993213653564453125</LongitudeDegrees>
            </Position>
            <AltitudeMeters>93.40000152587890625</AltitudeMeters>
            <DistanceMeters>110895.65845831</DistanceMeters>
          </Trackpoint>
          <Trackpoint>
            <Time>2018-09-13T14:04:15.000Z</Time>
            <Position>
              <LatitudeDegrees>39.0562632121145725250244140625</LatitudeDegrees>
              <LongitudeDegrees>-8.17902063019573688507080078125</LongitudeDegrees>
            </Position>
            <AltitudeMeters>91.8000030517578125</AltitudeMeters>
            <DistanceMeters>110922.32187742</DistanceMeters>
          </Trackpoint>
          <Trackpoint>
            <Time>2018-09-13T14:04:18.000Z</Time>
            <Position>
              <LatitudeDegrees>39.05602592043578624725341796875</LatitudeDegrees>
              <LongitudeDegrees>-8.1790570914745330810546875</LongitudeDegrees>
            </Position>
            <AltitudeMeters>90.1999969482421875</AltitudeMeters>
            <DistanceMeters>110948.92036232</DistanceMeters>
          </Trackpoint>
          <Trackpoint>
            <Time>2018-09-13T14:04:23.000Z</Time>
            <Position>
              <LatitudeDegrees>39.0556218288838863372802734375</LatitudeDegrees>
              <LongitudeDegrees>-8.1789442710578441619873046875</LongitudeDegrees>
            </Position>
            <AltitudeMeters>87.1999969482421875</AltitudeMeters>
            <DistanceMeters>110994.94145769</DistanceMeters>
          </Trackpoint>
          <Trackpoint>
            <Time>2018-09-13T14:04:26.000Z</Time>
            <Position>
              <LatitudeDegrees>39.05540314503014087677001953125</LatitudeDegrees>
              <LongitudeDegrees>-8.17879197187721729278564453125</LongitudeDegrees>
            </Position>
            <AltitudeMeters>85.40000152587890625</AltitudeMeters>
            <DistanceMeters>111022.61283879</DistanceMeters>
          </Trackpoint>
          <Trackpoint>
            <Time>2018-09-13T14:04:30.000Z</Time>
            <Position>
              <LatitudeDegrees>39.055181443691253662109375</LatitudeDegrees>
              <LongitudeDegrees>-8.17847438156604766845703125</LongitudeDegrees>
            </Position>
            <AltitudeMeters>82.59999847412109375</AltitudeMeters>
            <DistanceMeters>111059.52298107</DistanceMeters>
          </Trackpoint>
          <Trackpoint>
            <Time>2018-09-13T14:04:31.000Z</Time>
            <Position>
              <LatitudeDegrees>39.0551329962909221649169921875</LatitudeDegrees>
              <LongitudeDegrees>-8.178389556705951690673828125</LongitudeDegrees>
            </Position>
            <AltitudeMeters>82</AltitudeMeters>
            <DistanceMeters>111068.62374264</DistanceMeters>
          </Trackpoint>
          <Trackpoint>
            <Time>2018-09-13T14:04:35.000Z</Time>
            <Position>
              <LatitudeDegrees>39.05494163744151592254638671875</LatitudeDegrees>
              <LongitudeDegrees>-8.1780567951500415802001953125</LongitudeDegrees>
            </Position>
            <AltitudeMeters>79.1999969482421875</AltitudeMeters>
            <DistanceMeters>111104.4121204</DistanceMeters>
          </Trackpoint>
          <Trackpoint>
            <Time>2018-09-13T14:04:42.000Z</Time>
            <Position>
              <LatitudeDegrees>39.054612815380096435546875</LatitudeDegrees>
              <LongitudeDegrees>-8.17749805748462677001953125</LongitudeDegrees>
            </Position>
            <AltitudeMeters>74</AltitudeMeters>
            <DistanceMeters>111165.00564235</DistanceMeters>
          </Trackpoint>
          <Trackpoint>
            <Time>2018-09-13T14:04:50.000Z</Time>
            <Position>
              <LatitudeDegrees>39.05425809323787689208984375</LatitudeDegrees>
              <LongitudeDegrees>-8.17689648829400539398193359375</LongitudeDegrees>
            </Position>
            <AltitudeMeters>71.8000030517578125</AltitudeMeters>
            <DistanceMeters>111230.29100075</DistanceMeters>
          </Trackpoint>
          <Trackpoint>
            <Time>2018-09-13T14:04:58.000Z</Time>
            <Position>
              <LatitudeDegrees>39.0539140999317169189453125</LatitudeDegrees>
              <LongitudeDegrees>-8.17632366903126239776611328125</LongitudeDegrees>
            </Position>
            <AltitudeMeters>68</AltitudeMeters>
            <DistanceMeters>111292.87790625</DistanceMeters>
          </Trackpoint>
          <Trackpoint>
            <Time>2018-09-13T14:05:03.000Z</Time>
            <Position>
              <LatitudeDegrees>39.05370966531336307525634765625</LatitudeDegrees>
              <LongitudeDegrees>-8.17597858607769012451171875</LongitudeDegrees>
            </Position>
            <AltitudeMeters>71.1999969482421875</AltitudeMeters>
            <DistanceMeters>111330.39264301</DistanceMeters>
          </Trackpoint>
          <Trackpoint>
            <Time>2018-09-13T14:05:10.000Z</Time>
            <Position>
              <LatitudeDegrees>39.05342987738549709320068359375</LatitudeDegrees>
              <LongitudeDegrees>-8.17550928331911563873291015625</LongitudeDegrees>
            </Position>
            <AltitudeMeters>74.8000030517578125</AltitudeMeters>
            <DistanceMeters>111381.53079059</DistanceMeters>
          </Trackpoint>
          <Trackpoint>
            <Time>2018-09-13T14:05:19.000Z</Time>
            <Position>
              <LatitudeDegrees>39.05306744389235973358154296875</LatitudeDegrees>
              <LongitudeDegrees>-8.17490444518625736236572265625</LongitudeDegrees>
            </Position>
            <AltitudeMeters>85.59999847412109375</AltitudeMeters>
            <DistanceMeters>111447.56300759</DistanceMeters>
          </Trackpoint>
          <Trackpoint>
            <Time>2018-09-13T14:05:28.000Z</Time>
            <Position>
              <LatitudeDegrees>39.0526952035725116729736328125</LatitudeDegrees>
              <LongitudeDegrees>-8.17429675720632076263427734375</LongitudeDegrees>
            </Position>
            <AltitudeMeters>95.1999969482421875</AltitudeMeters>
            <DistanceMeters>111514.46100461</DistanceMeters>
          </Trackpoint>
          <Trackpoint>
            <Time>2018-09-13T14:05:30.000Z</Time>
            <Position>
              <LatitudeDegrees>39.05261834152042865753173828125</LatitudeDegrees>
              <LongitudeDegrees>-8.1741699390113353729248046875</LongitudeDegrees>
            </Position>
            <AltitudeMeters>95.59999847412109375</AltitudeMeters>
            <DistanceMeters>111528.36578677</DistanceMeters>
          </Trackpoint>
          <Trackpoint>
            <Time>2018-09-13T14:05:35.000Z</Time>
            <Position>
              <LatitudeDegrees>39.05244232155382633209228515625</LatitudeDegrees>
              <LongitudeDegrees>-8.17388118244707584381103515625</LongitudeDegrees>
            </Position>
            <AltitudeMeters>96.8000030517578125</AltitudeMeters>
            <DistanceMeters>111560.09503451</DistanceMeters>
          </Trackpoint>
          <Trackpoint>
            <Time>2018-09-13T14:05:39.000Z</Time>
            <Position>
              <LatitudeDegrees>39.0523072890937328338623046875</LatitudeDegrees>
              <LongitudeDegrees>-8.1736609898507595062255859375</LongitudeDegrees>
            </Position>
            <AltitudeMeters>97</AltitudeMeters>
            <DistanceMeters>111584.34603075</DistanceMeters>
          </Trackpoint>
          <Trackpoint>
            <Time>2018-09-13T14:05:43.000Z</Time>
            <Position>
              <LatitudeDegrees>39.0521758608520030975341796875</LatitudeDegrees>
              <LongitudeDegrees>-8.1734383665025234222412109375</LongitudeDegrees>
            </Position>
            <AltitudeMeters>97</AltitudeMeters>
            <DistanceMeters>111608.51739762</DistanceMeters>
          </Trackpoint>
          <Trackpoint>
            <Time>2018-09-13T14:05:48.000Z</Time>
            <Position>
              <LatitudeDegrees>39.0520135872066020965576171875</LatitudeDegrees>
              <LongitudeDegrees>-8.1731688044965267181396484375</LongitudeDegrees>
            </Position>
            <AltitudeMeters>96.59999847412109375</AltitudeMeters>
            <DistanceMeters>111637.99743522</DistanceMeters>
          </Trackpoint>
          <Trackpoint>
            <Time>2018-09-13T14:05:49.000Z</Time>
            <Position>
              <LatitudeDegrees>39.051981903612613677978515625</LatitudeDegrees>
              <LongitudeDegrees>-8.1731158308684825897216796875</LongitudeDegrees>
            </Position>
            <AltitudeMeters>96.40000152587890625</AltitudeMeters>
            <DistanceMeters>111643.77690343</DistanceMeters>
          </Trackpoint>
          <Trackpoint>
            <Time>2018-09-13T14:05:55.000Z</Time>
            <Position>
              <LatitudeDegrees>39.0517993457615375518798828125</LatitudeDegrees>
              <LongitudeDegrees>-8.172813244163990020751953125</LongitudeDegrees>
            </Position>
            <AltitudeMeters>94.8000030517578125</AltitudeMeters>
            <DistanceMeters>111676.8962696</DistanceMeters>
          </Trackpoint>
          <Trackpoint>
            <Time>2018-09-13T14:06:02.000Z</Time>
            <Position>
              <LatitudeDegrees>39.051598012447357177734375</LatitudeDegrees>
              <LongitudeDegrees>-8.1724798120558261871337890625</LongitudeDegrees>
            </Position>
            <AltitudeMeters>93.1999969482421875</AltitudeMeters>
            <DistanceMeters>111713.40310434</DistanceMeters>
          </Trackpoint>
          <Trackpoint>
            <Time>2018-09-13T14:06:07.000Z</Time>
            <Position>
              <LatitudeDegrees>39.0514476411044597625732421875</LatitudeDegrees>
              <LongitudeDegrees>-8.1722327135503292083740234375</LongitudeDegrees>
            </Position>
            <AltitudeMeters>91.8000030517578125</AltitudeMeters>
            <DistanceMeters>111740.53734991</DistanceMeters>
          </Trackpoint>
          <Trackpoint>
            <Time>2018-09-13T14:06:18.000Z</Time>
            <Position>
              <LatitudeDegrees>39.0511163882911205291748046875</LatitudeDegrees>
              <LongitudeDegrees>-8.17167439498007297515869140625</LongitudeDegrees>
            </Position>
            <AltitudeMeters>92</AltitudeMeters>
            <DistanceMeters>111801.26797071</DistanceMeters>
          </Trackpoint>
          <Trackpoint>
            <Time>2018-09-13T14:06:19.000Z</Time>
            <Position>
              <LatitudeDegrees>39.05108713544905185699462890625</LatitudeDegrees>
              <LongitudeDegrees>-8.17162242718040943145751953125</LongitudeDegrees>
            </Position>
            <AltitudeMeters>92.1999969482421875</AltitudeMeters>
            <DistanceMeters>111806.81544766</DistanceMeters>
          </Trackpoint>
          <Trackpoint>
            <Time>2018-09-13T14:06:30.000Z</Time>
            <Position>
              <LatitudeDegrees>39.05074448324739933013916015625</LatitudeDegrees>
              <LongitudeDegrees>-8.17104005254805088043212890625</LongitudeDegrees>
            </Position>
            <AltitudeMeters>92.59999847412109375</AltitudeMeters>
            <DistanceMeters>111869.96926119</DistanceMeters>
          </Trackpoint>
          <Trackpoint>
            <Time>2018-09-13T14:06:32.000Z</Time>
            <Position>
              <LatitudeDegrees>39.0506825409829616546630859375</LatitudeDegrees>
              <LongitudeDegrees>-8.170935697853565216064453125</LongitudeDegrees>
            </Position>
            <AltitudeMeters>93</AltitudeMeters>
            <DistanceMeters>111881.32207058</DistanceMeters>
          </Trackpoint>
          <Trackpoint>
            <Time>2018-09-13T14:06:39.000Z</Time>
            <Position>
              <LatitudeDegrees>39.0504572354257106781005859375</LatitudeDegrees>
              <LongitudeDegrees>-8.170559518039226531982421875</LongitudeDegrees>
            </Position>
            <AltitudeMeters>93.59999847412109375</AltitudeMeters>
            <DistanceMeters>111922.38438827</DistanceMeters>
          </Trackpoint>
          <Trackpoint>
            <Time>2018-09-13T14:06:49.000Z</Time>
            <Position>
              <LatitudeDegrees>39.0501306764781475067138671875</LatitudeDegrees>
              <LongitudeDegrees>-8.17000052891671657562255859375</LongitudeDegrees>
            </Position>
            <AltitudeMeters>96</AltitudeMeters>
            <DistanceMeters>111982.84602674</DistanceMeters>
          </Trackpoint>
          <Trackpoint>
            <Time>2018-09-13T14:06:53.000Z</Time>
            <Position>
              <LatitudeDegrees>39.04999111779034137725830078125</LatitudeDegrees>
              <LongitudeDegrees>-8.1697784923017024993896484375</LongitudeDegrees>
            </Position>
            <AltitudeMeters>96</AltitudeMeters>
            <DistanceMeters>112007.5363372</DistanceMeters>
          </Trackpoint>
          <Trackpoint>
            <Time>2018-09-13T14:07:03.000Z</Time>
            <Position>
              <LatitudeDegrees>39.04963907785713672637939453125</LatitudeDegrees>
              <LongitudeDegrees>-8.169202320277690887451171875</LongitudeDegrees>
            </Position>
            <AltitudeMeters>98.40000152587890625</AltitudeMeters>
            <DistanceMeters>112070.90497845</DistanceMeters>
          </Trackpoint>
          <Trackpoint>
            <Time>2018-09-13T14:07:08.000Z</Time>
            <Position>
              <LatitudeDegrees>39.049459286034107208251953125</LatitudeDegrees>
              <LongitudeDegrees>-8.16891540773212909698486328125</LongitudeDegrees>
            </Position>
            <AltitudeMeters>98.1999969482421875</AltitudeMeters>
            <DistanceMeters>112102.77181555</DistanceMeters>
          </Trackpoint>
          <Trackpoint>
            <Time>2018-09-13T14:07:17.000Z</Time>
            <Position>
              <LatitudeDegrees>39.0491129457950592041015625</LatitudeDegrees>
              <LongitudeDegrees>-8.1683478690683841705322265625</LongitudeDegrees>
            </Position>
            <AltitudeMeters>97</AltitudeMeters>
            <DistanceMeters>112165.16204613</DistanceMeters>
          </Trackpoint>
          <Trackpoint>
            <Time>2018-09-13T14:07:18.000Z</Time>
            <Position>
              <LatitudeDegrees>39.0490738861262798309326171875</LatitudeDegrees>
              <LongitudeDegrees>-8.1682845018804073333740234375</LongitudeDegrees>
            </Position>
            <AltitudeMeters>97.1999969482421875</AltitudeMeters>
            <DistanceMeters>112172.15668366</DistanceMeters>
          </Trackpoint>
          <Trackpoint>
            <Time>2018-09-13T14:07:27.000Z</Time>
            <Position>
              <LatitudeDegrees>39.0487213432788848876953125</LatitudeDegrees>
              <LongitudeDegrees>-8.16771126352250576019287109375</LongitudeDegrees>
            </Position>
            <AltitudeMeters>98</AltitudeMeters>
            <DistanceMeters>112235.36152239</DistanceMeters>
          </Trackpoint>
          <Trackpoint>
            <Time>2018-09-13T14:07:34.000Z</Time>
            <Position>
              <LatitudeDegrees>39.04844482429325580596923828125</LatitudeDegrees>
              <LongitudeDegrees>-8.16725579090416431427001953125</LongitudeDegrees>
            </Position>
            <AltitudeMeters>97.59999847412109375</AltitudeMeters>
            <DistanceMeters>112285.33410097</DistanceMeters>
          </Trackpoint>
          <Trackpoint>
            <Time>2018-09-13T14:07:43.000Z</Time>
            <Position>
              <LatitudeDegrees>39.0480955503880977630615234375</LatitudeDegrees>
              <LongitudeDegrees>-8.1666694767773151397705078125</LongitudeDegrees>
            </Position>
            <AltitudeMeters>98.59999847412109375</AltitudeMeters>
            <DistanceMeters>112349.20704061</DistanceMeters>
          </Trackpoint>
          <Trackpoint>
            <Time>2018-09-13T14:07:52.000Z</Time>
            <Position>
              <LatitudeDegrees>39.04774527065455913543701171875</LatitudeDegrees>
              <LongitudeDegrees>-8.1660901196300983428955078125</LongitudeDegrees>
            </Position>
            <AltitudeMeters>99.40000152587890625</AltitudeMeters>
            <DistanceMeters>112412.67279293</DistanceMeters>
          </Trackpoint>
          <Trackpoint>
            <Time>2018-09-13T14:08:01.000Z</Time>
            <Position>
              <LatitudeDegrees>39.04738736338913440704345703125</LatitudeDegrees>
              <LongitudeDegrees>-8.16548972390592098236083984375</LongitudeDegrees>
            </Position>
            <AltitudeMeters>100</AltitudeMeters>
            <DistanceMeters>112478.09673621</DistanceMeters>
          </Trackpoint>
          <Trackpoint>
            <Time>2018-09-13T14:08:02.000Z</Time>
            <Position>
              <LatitudeDegrees>39.04734738171100616455078125</LatitudeDegrees>
              <LongitudeDegrees>-8.1654215790331363677978515625</LongitudeDegrees>
            </Position>
            <AltitudeMeters>100.1999969482421875</AltitudeMeters>
            <DistanceMeters>112485.47952305</DistanceMeters>
          </Trackpoint>
          <Trackpoint>
            <Time>2018-09-13T14:08:11.000Z</Time>
            <Position>
              <LatitudeDegrees>39.04698335565626621246337890625</LatitudeDegrees>
              <LongitudeDegrees>-8.16482755355536937713623046875</LongitudeDegrees>
            </Position>
            <AltitudeMeters>102.8000030517578125</AltitudeMeters>
            <DistanceMeters>112550.88745358</DistanceMeters>
          </Trackpoint>
          <Trackpoint>
            <Time>2018-09-13T14:08:20.000Z</Time>
            <Position>
              <LatitudeDegrees>39.04662494547665119171142578125</LatitudeDegrees>
              <LongitudeDegrees>-8.16423243843019008636474609375</LongitudeDegrees>
            </Position>
            <AltitudeMeters>102.1999969482421875</AltitudeMeters>
            <DistanceMeters>112615.98463711</DistanceMeters>
          </Trackpoint>
          <Trackpoint>
            <Time>2018-09-13T14:08:29.000Z</Time>
            <Position>
              <LatitudeDegrees>39.046262763440608978271484375</LatitudeDegrees>
              <LongitudeDegrees>-8.16362357698380947113037109375</LongitudeDegrees>
            </Position>
            <AltitudeMeters>100.59999847412109375</AltitudeMeters>
            <DistanceMeters>112682.27951207</DistanceMeters>
          </Trackpoint>
          <Trackpoint>
            <Time>2018-09-13T14:08:33.000Z</Time>
            <Position>
              <LatitudeDegrees>39.04609671793878078460693359375</LatitudeDegrees>
              <LongitudeDegrees>-8.16335502080619335174560546875</LongitudeDegrees>
            </Position>
            <AltitudeMeters>100.40000152587890625</AltitudeMeters>
            <DistanceMeters>112711.95205062</DistanceMeters>
          </Trackpoint>
          <Trackpoint>
            <Time>2018-09-13T14:08:42.000Z</Time>
            <Position>
              <LatitudeDegrees>39.04572866857051849365234375</LatitudeDegrees>
              <LongitudeDegrees>-8.16274129785597324371337890625</LongitudeDegrees>
            </Position>
            <AltitudeMeters>101.40000152587890625</AltitudeMeters>
            <DistanceMeters>112778.97842805</DistanceMeters>
          </Trackpoint>
          <Trackpoint>
            <Time>2018-09-13T14:08:51.000Z</Time>
            <Position>
              <LatitudeDegrees>39.045370928943157196044921875</LatitudeDegrees>
              <LongitudeDegrees>-8.1621444225311279296875</LongitudeDegrees>
            </Position>
            <AltitudeMeters>101</AltitudeMeters>
            <DistanceMeters>112844.15096058</DistanceMeters>
          </Trackpoint>
          <Trackpoint>
            <Time>2018-09-13T14:09:00.000Z</Time>
            <Position>
              <LatitudeDegrees>39.04500639997422695159912109375</LatitudeDegrees>
              <LongitudeDegrees>-8.1615397520363330841064453125</LongitudeDegrees>
            </Position>
            <AltitudeMeters>104.59999847412109375</AltitudeMeters>
            <DistanceMeters>112910.31917473</DistanceMeters>
          </Trackpoint>
          <Trackpoint>
            <Time>2018-09-13T14:09:01.000Z</Time>
            <Position>
              <LatitudeDegrees>39.044964574277400970458984375</LatitudeDegrees>
              <LongitudeDegrees>-8.16147278062999248504638671875</LongitudeDegrees>
            </Position>
            <AltitudeMeters>105.1999969482421875</AltitudeMeters>
            <DistanceMeters>112917.74829495</DistanceMeters>
          </Trackpoint>
          <Trackpoint>
            <Time>2018-09-13T14:09:10.000Z</Time>
            <Position>
              <LatitudeDegrees>39.04460138641297817230224609375</LatitudeDegrees>
              <LongitudeDegrees>-8.16087280400097370147705078125</LongitudeDegrees>
            </Position>
            <AltitudeMeters>105.1999969482421875</AltitudeMeters>
            <DistanceMeters>112983.50485876</DistanceMeters>
          </Trackpoint>
          <Trackpoint>
            <Time>2018-09-13T14:09:18.000Z</Time>
            <Position>
              <LatitudeDegrees>39.04431556351482868194580078125</LatitudeDegrees>
              <LongitudeDegrees>-8.160396628081798553466796875</LongitudeDegrees>
            </Position>
            <AltitudeMeters>106.40000152587890625</AltitudeMeters>
            <DistanceMeters>113035.52779746</DistanceMeters>
          </Trackpoint>
          <Trackpoint>
            <Time>2018-09-13T14:09:22.000Z</Time>
            <Position>
              <LatitudeDegrees>39.0441832132637500762939453125</LatitudeDegrees>
              <LongitudeDegrees>-8.1601795367896556854248046875</LongitudeDegrees>
            </Position>
            <AltitudeMeters>106.59999847412109375</AltitudeMeters>
            <DistanceMeters>113059.38518098</DistanceMeters>
          </Trackpoint>
          <Trackpoint>
            <Time>2018-09-13T14:09:30.000Z</Time>
            <Position>
              <LatitudeDegrees>39.04392890632152557373046875</LatitudeDegrees>
              <LongitudeDegrees>-8.1597601063549518585205078125</LongitudeDegrees>
            </Position>
            <AltitudeMeters>107.8000030517578125</AltitudeMeters>
            <DistanceMeters>113105.38252808</DistanceMeters>
          </Trackpoint>
          <Trackpoint>
            <Time>2018-09-13T14:09:36.000Z</Time>
            <Position>
              <LatitudeDegrees>39.043753556907176971435546875</LatitudeDegrees>
              <LongitudeDegrees>-8.15946363843977451324462890625</LongitudeDegrees>
            </Position>
            <AltitudeMeters>107.59999847412109375</AltitudeMeters>
            <DistanceMeters>113137.59588346</DistanceMeters>
          </Trackpoint>
          <Trackpoint>
            <Time>2018-09-13T14:09:42.000Z</Time>
            <Position>
              <LatitudeDegrees>39.043579883873462677001953125</LatitudeDegrees>
              <LongitudeDegrees>-8.15917597152292728424072265625</LongitudeDegrees>
            </Position>
            <AltitudeMeters>107.59999847412109375</AltitudeMeters>
            <DistanceMeters>113169.0923299</DistanceMeters>
          </Trackpoint>
          <Trackpoint>
            <Time>2018-09-13T14:09:51.000Z</Time>
            <Position>
              <LatitudeDegrees>39.0433220565319061279296875</LatitudeDegrees>
              <LongitudeDegrees>-8.15874597989022731781005859375</LongitudeDegrees>
            </Position>
            <AltitudeMeters>111.1999969482421875</AltitudeMeters>
            <DistanceMeters>113216.05129781</DistanceMeters>
          </Trackpoint>
          <Trackpoint>
            <Time>2018-09-13T14:09:55.000Z</Time>
            <Position>
              <LatitudeDegrees>39.043209739029407501220703125</LatitudeDegrees>
              <LongitudeDegrees>-8.15856308676302433013916015625</LongitudeDegrees>
            </Position>
            <AltitudeMeters>111.8000030517578125</AltitudeMeters>
            <DistanceMeters>113236.20682011</DistanceMeters>
          </Trackpoint>
          <Trackpoint>
            <Time>2018-09-13T14:10:00.000Z</Time>
            <Position>
              <LatitudeDegrees>39.04306397773325443267822265625</LatitudeDegrees>
              <LongitudeDegrees>-8.15833032131195068359375</LongitudeDegrees>
            </Position>
            <AltitudeMeters>112.1999969482421875</AltitudeMeters>
            <DistanceMeters>113262.05408642</DistanceMeters>
          </Trackpoint>
          <Trackpoint>
            <Time>2018-09-13T14:10:09.000Z</Time>
            <Position>
              <LatitudeDegrees>39.0428250096738338470458984375</LatitudeDegrees>
              <LongitudeDegrees>-8.1579305045306682586669921875</LongitudeDegrees>
            </Position>
            <AltitudeMeters>115.40000152587890625</AltitudeMeters>
            <DistanceMeters>113305.66586168</DistanceMeters>
          </Trackpoint>
          <Trackpoint>
            <Time>2018-09-13T14:10:14.000Z</Time>
            <Position>
              <LatitudeDegrees>39.0426882170140743255615234375</LatitudeDegrees>
              <LongitudeDegrees>-8.15770377404987812042236328125</LongitudeDegrees>
            </Position>
            <AltitudeMeters>117.40000152587890625</AltitudeMeters>
            <DistanceMeters>113330.48457648</DistanceMeters>
          </Trackpoint>
          <Trackpoint>
            <Time>2018-09-13T14:10:22.000Z</Time>
            <Position>
              <LatitudeDegrees>39.04247104190289974212646484375</LatitudeDegrees>
              <LongitudeDegrees>-8.157348297536373138427734375</LongitudeDegrees>
            </Position>
            <AltitudeMeters>120</AltitudeMeters>
            <DistanceMeters>113369.58180503</DistanceMeters>
          </Trackpoint>
          <Trackpoint>
            <Time>2018-09-13T14:10:29.000Z</Time>
            <Position>
              <LatitudeDegrees>39.04228211380541324615478515625</LatitudeDegrees>
              <LongitudeDegrees>-8.15703724510967731475830078125</LongitudeDegrees>
            </Position>
            <AltitudeMeters>121.40000152587890625</AltitudeMeters>
            <DistanceMeters>113403.71703572</DistanceMeters>
          </Trackpoint>
          <Trackpoint>
            <Time>2018-09-13T14:10:37.000Z</Time>
            <Position>
              <LatitudeDegrees>39.04205881990492343902587890625</LatitudeDegrees>
              <LongitudeDegrees>-8.15666324459016323089599609375</LongitudeDegrees>
            </Position>
            <AltitudeMeters>123</AltitudeMeters>
            <DistanceMeters>113444.49645231</DistanceMeters>
          </Trackpoint>
          <Trackpoint>
            <Time>2018-09-13T14:10:45.000Z</Time>
            <Position>
              <LatitudeDegrees>39.04183049686253070831298828125</LatitudeDegrees>
              <LongitudeDegrees>-8.1562905013561248779296875</LongitudeDegrees>
            </Position>
            <AltitudeMeters>123</AltitudeMeters>
            <DistanceMeters>113485.53413252</DistanceMeters>
          </Trackpoint>
          <Trackpoint>
            <Time>2018-09-13T14:10:55.000Z</Time>
            <Position>
              <LatitudeDegrees>39.0415479429066181182861328125</LatitudeDegrees>
              <LongitudeDegrees>-8.15582404844462871551513671875</LongitudeDegrees>
            </Position>
            <AltitudeMeters>124</AltitudeMeters>
            <DistanceMeters>113536.6712206</DistanceMeters>
          </Trackpoint>
          <Trackpoint>
            <Time>2018-09-13T14:11:05.000Z</Time>
            <Position>
              <LatitudeDegrees>39.0412366390228271484375</LatitudeDegrees>
              <LongitudeDegrees>-8.15538768656551837921142578125</LongitudeDegrees>
            </Position>
            <AltitudeMeters>125.59999847412109375</AltitudeMeters>
            <DistanceMeters>113587.89141299</DistanceMeters>
          </Trackpoint>
          <Trackpoint>
            <Time>2018-09-13T14:11:10.000Z</Time>
            <Position>
              <LatitudeDegrees>39.04106154106557369232177734375</LatitudeDegrees>
              <LongitudeDegrees>-8.15518752671778202056884765625</LongitudeDegrees>
            </Position>
            <AltitudeMeters>126.59999847412109375</AltitudeMeters>
            <DistanceMeters>113613.95334481</DistanceMeters>
          </Trackpoint>
          <Trackpoint>
            <Time>2018-09-13T14:11:17.000Z</Time>
            <Position>
              <LatitudeDegrees>39.04080706648528575897216796875</LatitudeDegrees>
              <LongitudeDegrees>-8.15492299385368824005126953125</LongitudeDegrees>
            </Position>
            <AltitudeMeters>126.1999969482421875</AltitudeMeters>
            <DistanceMeters>113650.35639109</DistanceMeters>
          </Trackpoint>
          <Trackpoint>
            <Time>2018-09-13T14:11:25.000Z</Time>
            <Position>
              <LatitudeDegrees>39.04050012119114398956298828125</LatitudeDegrees>
              <LongitudeDegrees>-8.1546364165842533111572265625</LongitudeDegrees>
            </Position>
            <AltitudeMeters>127</AltitudeMeters>
            <DistanceMeters>113692.55724032</DistanceMeters>
          </Trackpoint>
          <Trackpoint>
            <Time>2018-09-13T14:11:34.000Z</Time>
            <Position>
              <LatitudeDegrees>39.04014891944825649261474609375</LatitudeDegrees>
              <LongitudeDegrees>-8.1543199159204959869384765625</LongitudeDegrees>
            </Position>
            <AltitudeMeters>130.399993896484375</AltitudeMeters>
            <DistanceMeters>113740.27106109</DistanceMeters>
          </Trackpoint>
          <Trackpoint>
            <Time>2018-09-13T14:11:41.000Z</Time>
            <Position>
              <LatitudeDegrees>39.03987986035645008087158203125</LatitudeDegrees>
              <LongitudeDegrees>-8.154078684747219085693359375</LongitudeDegrees>
            </Position>
            <AltitudeMeters>130</AltitudeMeters>
            <DistanceMeters>113776.76354653</DistanceMeters>
          </Trackpoint>
          <Trackpoint>
            <Time>2018-09-13T14:11:52.000Z</Time>
            <Position>
              <LatitudeDegrees>39.0394601784646511077880859375</LatitudeDegrees>
              <LongitudeDegrees>-8.15369890071451663970947265625</LongitudeDegrees>
            </Position>
            <AltitudeMeters>130.399993896484375</AltitudeMeters>
            <DistanceMeters>113833.85910456</DistanceMeters>
          </Trackpoint>
          <Trackpoint>
            <Time>2018-09-13T14:11:59.000Z</Time>
            <Position>
              <LatitudeDegrees>39.03918483294546604156494140625</LatitudeDegrees>
              <LongitudeDegrees>-8.1534515507519245147705078125</LongitudeDegrees>
            </Position>
            <AltitudeMeters>130.1999969482421875</AltitudeMeters>
            <DistanceMeters>113871.2281712</DistanceMeters>
          </Trackpoint>
          <Trackpoint>
            <Time>2018-09-13T14:12:10.000Z</Time>
            <Position>
              <LatitudeDegrees>39.03871092014014720916748046875</LatitudeDegrees>
              <LongitudeDegrees>-8.1530227325856685638427734375</LongitudeDegrees>
            </Position>
            <AltitudeMeters>129.600006103515625</AltitudeMeters>
            <DistanceMeters>113935.6997177</DistanceMeters>
          </Trackpoint>
          <Trackpoint>
            <Time>2018-09-13T14:12:20.000Z</Time>
            <Position>
              <LatitudeDegrees>39.03824052773416042327880859375</LatitudeDegrees>
              <LongitudeDegrees>-8.15260170958936214447021484375</LongitudeDegrees>
            </Position>
            <AltitudeMeters>130.600006103515625</AltitudeMeters>
            <DistanceMeters>113999.46427165</DistanceMeters>
          </Trackpoint>
          <Trackpoint>
            <Time>2018-09-13T14:12:26.000Z</Time>
            <Position>
              <LatitudeDegrees>39.03795671649277210235595703125</LatitudeDegrees>
              <LongitudeDegrees>-8.15234388224780559539794921875</LongitudeDegrees>
            </Position>
            <AltitudeMeters>130.399993896484375</AltitudeMeters>
            <DistanceMeters>114038.12508194</DistanceMeters>
          </Trackpoint>
          <Trackpoint>
            <Time>2018-09-13T14:12:35.000Z</Time>
            <Position>
              <LatitudeDegrees>39.037516750395298004150390625</LatitudeDegrees>
              <LongitudeDegrees>-8.15193803049623966217041015625</LongitudeDegrees>
            </Position>
            <AltitudeMeters>132.8000030517578125</AltitudeMeters>
            <DistanceMeters>114098.36662278</DistanceMeters>
          </Trackpoint>
          <Trackpoint>
            <Time>2018-09-13T14:12:41.000Z</Time>
            <Position>
              <LatitudeDegrees>39.03722296468913555145263671875</LatitudeDegrees>
              <LongitudeDegrees>-8.15167601220309734344482421875</LongitudeDegrees>
            </Position>
            <AltitudeMeters>132.8000030517578125</AltitudeMeters>
            <DistanceMeters>114138.14526397</DistanceMeters>
          </Trackpoint>
          <Trackpoint>
            <Time>2018-09-13T14:12:50.000Z</Time>
            <Position>
              <LatitudeDegrees>39.0367658995091915130615234375</LatitudeDegrees>
              <LongitudeDegrees>-8.15125339664518833160400390625</LongitudeDegrees>
            </Position>
            <AltitudeMeters>132.1999969482421875</AltitudeMeters>
            <DistanceMeters>114200.77817807</DistanceMeters>
          </Trackpoint>
          <Trackpoint>
            <Time>2018-09-13T14:12:59.000Z</Time>
            <Position>
              <LatitudeDegrees>39.036299027502536773681640625</LatitudeDegrees>
              <LongitudeDegrees>-8.15082474611699581146240234375</LongitudeDegrees>
            </Position>
            <AltitudeMeters>132.1999969482421875</AltitudeMeters>
            <DistanceMeters>114264.60246596</DistanceMeters>
          </Trackpoint>
          <Trackpoint>
            <Time>2018-09-13T14:13:08.000Z</Time>
            <Position>
              <LatitudeDegrees>39.03582863509654998779296875</LatitudeDegrees>
              <LongitudeDegrees>-8.15040263347327709197998046875</LongitudeDegrees>
            </Position>
            <AltitudeMeters>132.600006103515625</AltitudeMeters>
            <DistanceMeters>114328.42151875</DistanceMeters>
          </Trackpoint>
          <Trackpoint>
            <Time>2018-09-13T14:13:17.000Z</Time>
            <Position>
              <LatitudeDegrees>39.03538196347653865814208984375</LatitudeDegrees>
              <LongitudeDegrees>-8.1499405391514301300048828125</LongitudeDegrees>
            </Position>
            <AltitudeMeters>132.8000030517578125</AltitudeMeters>
            <DistanceMeters>114392.19952479</DistanceMeters>
          </Trackpoint>
          <Trackpoint>
            <Time>2018-09-13T14:13:25.000Z</Time>
            <Position>
              <LatitudeDegrees>39.03496420942246913909912109375</LatitudeDegrees>
              <LongitudeDegrees>-8.149411641061305999755859375</LongitudeDegrees>
            </Position>
            <AltitudeMeters>129.600006103515625</AltitudeMeters>
            <DistanceMeters>114457.41312638</DistanceMeters>
          </Trackpoint>
          <Trackpoint>
            <Time>2018-09-13T14:13:32.000Z</Time>
            <Position>
              <LatitudeDegrees>39.03458249755203723907470703125</LatitudeDegrees>
              <LongitudeDegrees>-8.148889280855655670166015625</LongitudeDegrees>
            </Position>
            <AltitudeMeters>127.40000152587890625</AltitudeMeters>
            <DistanceMeters>114519.41716549</DistanceMeters>
          </Trackpoint>
          <Trackpoint>
            <Time>2018-09-13T14:13:33.000Z</Time>
            <Position>
              <LatitudeDegrees>39.03452700935304164886474609375</LatitudeDegrees>
              <LongitudeDegrees>-8.14881225116550922393798828125</LongitudeDegrees>
            </Position>
            <AltitudeMeters>127.40000152587890625</AltitudeMeters>
            <DistanceMeters>114528.49905506</DistanceMeters>
          </Trackpoint>
          <Trackpoint>
            <Time>2018-09-13T14:13:36.000Z</Time>
            <Position>
              <LatitudeDegrees>39.0343612991273403167724609375</LatitudeDegrees>
              <LongitudeDegrees>-8.14858652651309967041015625</LongitudeDegrees>
            </Position>
            <AltitudeMeters>127.1999969482421875</AltitudeMeters>
            <DistanceMeters>114555.35078655</DistanceMeters>
          </Trackpoint>
          <Trackpoint>
            <Time>2018-09-13T14:13:37.000Z</Time>
            <Position>
              <LatitudeDegrees>39.03430706821382045745849609375</LatitudeDegrees>
              <LongitudeDegrees>-8.14851268194615840911865234375</LongitudeDegrees>
            </Position>
            <AltitudeMeters>127</AltitudeMeters>
            <DistanceMeters>114564.13651893</DistanceMeters>
          </Trackpoint>
          <Trackpoint>
            <Time>2018-09-13T14:13:39.000Z</Time>
            <Position>
              <LatitudeDegrees>39.034200869500637054443359375</LatitudeDegrees>
              <LongitudeDegrees>-8.1483687646687030792236328125</LongitudeDegrees>
            </Position>
            <AltitudeMeters>126.59999847412109375</AltitudeMeters>
            <DistanceMeters>114581.29824883</DistanceMeters>
          </Trackpoint>
          <Trackpoint>
            <Time>2018-09-13T14:13:45.000Z</Time>
            <Position>
              <LatitudeDegrees>39.03389384038746356964111328125</LatitudeDegrees>
              <LongitudeDegrees>-8.147946484386920928955078125</LongitudeDegrees>
            </Position>
            <AltitudeMeters>125.8000030517578125</AltitudeMeters>
            <DistanceMeters>114631.30505846</DistanceMeters>
          </Trackpoint>
          <Trackpoint>
            <Time>2018-09-13T14:13:53.000Z</Time>
            <Position>
              <LatitudeDegrees>39.03348513878881931304931640625</LatitudeDegrees>
              <LongitudeDegrees>-8.14737894572317600250244140625</LongitudeDegrees>
            </Position>
            <AltitudeMeters>127.1999969482421875</AltitudeMeters>
            <DistanceMeters>114698.214663</DistanceMeters>
          </Trackpoint>
          <Trackpoint>
            <Time>2018-09-13T14:14:00.000Z</Time>
            <Position>
              <LatitudeDegrees>39.03312438167631626129150390625</LatitudeDegrees>
              <LongitudeDegrees>-8.14688055776059627532958984375</LongitudeDegrees>
            </Position>
            <AltitudeMeters>127.40000152587890625</AltitudeMeters>
            <DistanceMeters>114757.11237082</DistanceMeters>
          </Trackpoint>
          <Trackpoint>
            <Time>2018-09-13T14:14:07.000Z</Time>
            <Position>
              <LatitudeDegrees>39.03277686797082424163818359375</LatitudeDegrees>
              <LongitudeDegrees>-8.14640429802238941192626953125</LongitudeDegrees>
            </Position>
            <AltitudeMeters>127.40000152587890625</AltitudeMeters>
            <DistanceMeters>114813.60613213</DistanceMeters>
          </Trackpoint>
          <Trackpoint>
            <Time>2018-09-13T14:14:11.000Z</Time>
            <Position>
              <LatitudeDegrees>39.03257846832275390625</LatitudeDegrees>
              <LongitudeDegrees>-8.14612652175128459930419921875</LongitudeDegrees>
            </Position>
            <AltitudeMeters>127.59999847412109375</AltitudeMeters>
            <DistanceMeters>114846.23089436</DistanceMeters>
          </Trackpoint>
          <Trackpoint>
            <Time>2018-09-13T14:14:13.000Z</Time>
            <Position>
              <LatitudeDegrees>39.032478891313076019287109375</LatitudeDegrees>
              <LongitudeDegrees>-8.14598939381539821624755859375</LongitudeDegrees>
            </Position>
            <AltitudeMeters>127.59999847412109375</AltitudeMeters>
            <DistanceMeters>114862.46044457</DistanceMeters>
          </Trackpoint>
          <Trackpoint>
            <Time>2018-09-13T14:14:15.000Z</Time>
            <Position>
              <LatitudeDegrees>39.03237998485565185546875</LatitudeDegrees>
              <LongitudeDegrees>-8.1458545289933681488037109375</LongitudeDegrees>
            </Position>
            <AltitudeMeters>127.59999847412109375</AltitudeMeters>
            <DistanceMeters>114878.49604424</DistanceMeters>
          </Trackpoint>
          <Trackpoint>
            <Time>2018-09-13T14:14:20.000Z</Time>
            <Position>
              <LatitudeDegrees>39.0321367420256137847900390625</LatitudeDegrees>
              <LongitudeDegrees>-8.14552185125648975372314453125</LongitudeDegrees>
            </Position>
            <AltitudeMeters>128</AltitudeMeters>
            <DistanceMeters>114917.99630738</DistanceMeters>
          </Trackpoint>
          <Trackpoint>
            <Time>2018-09-13T14:14:27.000Z</Time>
            <Position>
              <LatitudeDegrees>39.0318044833838939666748046875</LatitudeDegrees>
              <LongitudeDegrees>-8.1450686417520046234130859375</LongitudeDegrees>
            </Position>
            <AltitudeMeters>129</AltitudeMeters>
            <DistanceMeters>114971.87553265</DistanceMeters>
          </Trackpoint>
          <Trackpoint>
            <Time>2018-09-13T14:14:31.000Z</Time>
            <Position>
              <LatitudeDegrees>39.0316066704690456390380859375</LatitudeDegrees>
              <LongitudeDegrees>-8.1448051147162914276123046875</LongitudeDegrees>
            </Position>
            <AltitudeMeters>129.399993896484375</AltitudeMeters>
            <DistanceMeters>115003.55949702</DistanceMeters>
          </Trackpoint>
          <Trackpoint>
            <Time>2018-09-13T14:14:34.000Z</Time>
            <Position>
              <LatitudeDegrees>39.03144632466137409210205078125</LatitudeDegrees>
              <LongitudeDegrees>-8.14460990019142627716064453125</LongitudeDegrees>
            </Position>
            <AltitudeMeters>129.600006103515625</AltitudeMeters>
            <DistanceMeters>115028.1231215</DistanceMeters>
          </Trackpoint>
          <Trackpoint>
            <Time>2018-09-13T14:14:37.000Z</Time>
            <Position>
              <LatitudeDegrees>39.0312814526259899139404296875</LatitudeDegrees>
              <LongitudeDegrees>-8.144417703151702880859375</LongitudeDegrees>
            </Position>
            <AltitudeMeters>129.8000030517578125</AltitudeMeters>
            <DistanceMeters>115052.87935886</DistanceMeters>
          </Trackpoint>
          <Trackpoint>
            <Time>2018-09-13T14:14:41.000Z</Time>
            <Position>
              <LatitudeDegrees>39.03105572797358036041259765625</LatitudeDegrees>
              <LongitudeDegrees>-8.1441843509674072265625</LongitudeDegrees>
            </Position>
            <AltitudeMeters>129.600006103515625</AltitudeMeters>
            <DistanceMeters>115085.10126289</DistanceMeters>
          </Trackpoint>
          <Trackpoint>
            <Time>2018-09-13T14:14:43.000Z</Time>
            <Position>
              <LatitudeDegrees>39.03093871660530567169189453125</LatitudeDegrees>
              <LongitudeDegrees>-8.14407370984554290771484375</LongitudeDegrees>
            </Position>
            <AltitudeMeters>128.8000030517578125</AltitudeMeters>
            <DistanceMeters>115101.26055497</DistanceMeters>
          </Trackpoint>
          <Trackpoint>
            <Time>2018-09-13T14:14:46.000Z</Time>
            <Position>
              <LatitudeDegrees>39.03075934387743473052978515625</LatitudeDegrees>
              <LongitudeDegrees>-8.1439067423343658447265625</LongitudeDegrees>
            </Position>
            <AltitudeMeters>127.59999847412109375</AltitudeMeters>
            <DistanceMeters>115125.89759372</DistanceMeters>
          </Trackpoint>
          <Trackpoint>
            <Time>2018-09-13T14:14:49.000Z</Time>
            <Position>
              <LatitudeDegrees>39.03057930059731006622314453125</LatitudeDegrees>
              <LongitudeDegrees>-8.1437389366328716278076171875</LongitudeDegrees>
            </Position>
            <AltitudeMeters>127</AltitudeMeters>
            <DistanceMeters>115150.63777645</DistanceMeters>
          </Trackpoint>
          <Trackpoint>
            <Time>2018-09-13T14:14:52.000Z</Time>
            <Position>
              <LatitudeDegrees>39.03039858676493167877197265625</LatitudeDegrees>
              <LongitudeDegrees>-8.1435689516365528106689453125</LongitudeDegrees>
            </Position>
            <AltitudeMeters>127</AltitudeMeters>
            <DistanceMeters>115175.5489168</DistanceMeters>
          </Trackpoint>
          <Trackpoint>
            <Time>2018-09-13T14:14:55.000Z</Time>
            <Position>
              <LatitudeDegrees>39.0302162803709506988525390625</LatitudeDegrees>
              <LongitudeDegrees>-8.1434009782969951629638671875</LongitudeDegrees>
            </Position>
            <AltitudeMeters>127</AltitudeMeters>
            <DistanceMeters>115200.50170885</DistanceMeters>
          </Trackpoint>
          <Trackpoint>
            <Time>2018-09-13T14:14:58.000Z</Time>
            <Position>
              <LatitudeDegrees>39.0300342254340648651123046875</LatitudeDegrees>
              <LongitudeDegrees>-8.1432333402335643768310546875</LongitudeDegrees>
            </Position>
            <AltitudeMeters>127.1999969482421875</AltitudeMeters>
            <DistanceMeters>115225.41502405</DistanceMeters>
          </Trackpoint>
          <Trackpoint>
            <Time>2018-09-13T14:15:01.000Z</Time>
            <Position>
              <LatitudeDegrees>39.029857702553272247314453125</LatitudeDegrees>
              <LongitudeDegrees>-8.14306830056011676788330078125</LongitudeDegrees>
            </Position>
            <AltitudeMeters>127.40000152587890625</AltitudeMeters>
            <DistanceMeters>115249.69746424</DistanceMeters>
          </Trackpoint>
          <Trackpoint>
            <Time>2018-09-13T14:15:04.000Z</Time>
            <Position>
              <LatitudeDegrees>39.02968361042439937591552734375</LatitudeDegrees>
              <LongitudeDegrees>-8.14290736801922321319580078125</LongitudeDegrees>
            </Position>
            <AltitudeMeters>127</AltitudeMeters>
            <DistanceMeters>115273.55257663</DistanceMeters>
          </Trackpoint>
          <Trackpoint>
            <Time>2018-09-13T14:15:08.000Z</Time>
            <Position>
              <LatitudeDegrees>39.02945629321038722991943359375</LatitudeDegrees>
              <LongitudeDegrees>-8.14269228838384151458740234375</LongitudeDegrees>
            </Position>
            <AltitudeMeters>126.1999969482421875</AltitudeMeters>
            <DistanceMeters>115304.95225603</DistanceMeters>
          </Trackpoint>
          <Trackpoint>
            <Time>2018-09-13T14:15:14.000Z</Time>
            <Position>
              <LatitudeDegrees>39.0291169099509716033935546875</LatitudeDegrees>
              <LongitudeDegrees>-8.14237729646265506744384765625</LongitudeDegrees>
            </Position>
            <AltitudeMeters>127.40000152587890625</AltitudeMeters>
            <DistanceMeters>115351.5206789</DistanceMeters>
          </Trackpoint>
          <Trackpoint>
            <Time>2018-09-13T14:15:17.000Z</Time>
            <Position>
              <LatitudeDegrees>39.02894265018403530120849609375</LatitudeDegrees>
              <LongitudeDegrees>-8.14221669919788837432861328125</LongitudeDegrees>
            </Position>
            <AltitudeMeters>128</AltitudeMeters>
            <DistanceMeters>115375.37446638</DistanceMeters>
          </Trackpoint>
          <Trackpoint>
            <Time>2018-09-13T14:15:21.000Z</Time>
            <Position>
              <LatitudeDegrees>39.02871767990291118621826171875</LatitudeDegrees>
              <LongitudeDegrees>-8.14200572669506072998046875</LongitudeDegrees>
            </Position>
            <AltitudeMeters>127.59999847412109375</AltitudeMeters>
            <DistanceMeters>115406.35404973</DistanceMeters>
          </Trackpoint>
          <Trackpoint>
            <Time>2018-09-13T14:15:24.000Z</Time>
            <Position>
              <LatitudeDegrees>39.028551466763019561767578125</LatitudeDegrees>
              <LongitudeDegrees>-8.14185778610408306121826171875</LongitudeDegrees>
            </Position>
            <AltitudeMeters>127.1999969482421875</AltitudeMeters>
            <DistanceMeters>115428.84548993</DistanceMeters>
          </Trackpoint>
          <Trackpoint>
            <Time>2018-09-13T14:15:27.000Z</Time>
            <Position>
              <LatitudeDegrees>39.02839355170726776123046875</LatitudeDegrees>
              <LongitudeDegrees>-8.14171026460826396942138671875</LongitudeDegrees>
            </Position>
            <AltitudeMeters>127.40000152587890625</AltitudeMeters>
            <DistanceMeters>115450.56236891</DistanceMeters>
          </Trackpoint>
          <Trackpoint>
            <Time>2018-09-13T14:15:30.000Z</Time>
            <Position>
              <LatitudeDegrees>39.02823773212730884552001953125</LatitudeDegrees>
              <LongitudeDegrees>-8.1415720470249652862548828125</LongitudeDegrees>
            </Position>
            <AltitudeMeters>128</AltitudeMeters>
            <DistanceMeters>115471.62424217</DistanceMeters>
          </Trackpoint>
          <Trackpoint>
            <Time>2018-09-13T14:15:33.000Z</Time>
            <Position>
              <LatitudeDegrees>39.02807847596704959869384765625</LatitudeDegrees>
              <LongitudeDegrees>-8.1414417922496795654296875</LongitudeDegrees>
            </Position>
            <AltitudeMeters>128.600006103515625</AltitudeMeters>
            <DistanceMeters>115492.62493105</DistanceMeters>
          </Trackpoint>
          <Trackpoint>
            <Time>2018-09-13T14:15:36.000Z</Time>
            <Position>
              <LatitudeDegrees>39.02791854925453662872314453125</LatitudeDegrees>
              <LongitudeDegrees>-8.14131480641663074493408203125</LongitudeDegrees>
            </Position>
            <AltitudeMeters>128.8000030517578125</AltitudeMeters>
            <DistanceMeters>115513.53901346</DistanceMeters>
          </Trackpoint>
          <Trackpoint>
            <Time>2018-09-13T14:15:40.000Z</Time>
            <Position>
              <LatitudeDegrees>39.0276926569640636444091796875</LatitudeDegrees>
              <LongitudeDegrees>-8.1411445699632167816162109375</LongitudeDegrees>
            </Position>
            <AltitudeMeters>129.1999969482421875</AltitudeMeters>
            <DistanceMeters>115542.6730325</DistanceMeters>
          </Trackpoint>
          <Trackpoint>
            <Time>2018-09-13T14:15:44.000Z</Time>
            <Position>
              <LatitudeDegrees>39.02745343744754791259765625</LatitudeDegrees>
              <LongitudeDegrees>-8.14097869209945201873779296875</LongitudeDegrees>
            </Position>
            <AltitudeMeters>129.1999969482421875</AltitudeMeters>
            <DistanceMeters>115572.9157229</DistanceMeters>
          </Trackpoint>
          <Trackpoint>
            <Time>2018-09-13T14:15:48.000Z</Time>
            <Position>
              <LatitudeDegrees>39.02721229009330272674560546875</LatitudeDegrees>
              <LongitudeDegrees>-8.140817843377590179443359375</LongitudeDegrees>
            </Position>
            <AltitudeMeters>128.600006103515625</AltitudeMeters>
            <DistanceMeters>115603.14512325</DistanceMeters>
          </Trackpoint>
          <Trackpoint>
            <Time>2018-09-13T14:15:52.000Z</Time>
            <Position>
              <LatitudeDegrees>39.02696904726326465606689453125</LatitudeDegrees>
              <LongitudeDegrees>-8.14066059887409210205078125</LongitudeDegrees>
            </Position>
            <AltitudeMeters>128.1999969482421875</AltitudeMeters>
            <DistanceMeters>115633.44061747</DistanceMeters>
          </Trackpoint>
          <Trackpoint>
            <Time>2018-09-13T14:15:57.000Z</Time>
            <Position>
              <LatitudeDegrees>39.0266606770455837249755859375</LatitudeDegrees>
              <LongitudeDegrees>-8.14046873711049556732177734375</LongitudeDegrees>
            </Position>
            <AltitudeMeters>127.40000152587890625</AltitudeMeters>
            <DistanceMeters>115671.56184859</DistanceMeters>
          </Trackpoint>
          <Trackpoint>
            <Time>2018-09-13T14:16:04.000Z</Time>
            <Position>
              <LatitudeDegrees>39.02616186998784542083740234375</LatitudeDegrees>
              <LongitudeDegrees>-8.1402285955846309661865234375</LongitudeDegrees>
            </Position>
            <AltitudeMeters>123.8000030517578125</AltitudeMeters>
            <DistanceMeters>115730.83589951</DistanceMeters>
          </Trackpoint>
          <Trackpoint>
            <Time>2018-09-13T14:16:07.000Z</Time>
            <Position>
              <LatitudeDegrees>39.0259160287678241729736328125</LatitudeDegrees>
              <LongitudeDegrees>-8.1401427648961544036865234375</LongitudeDegrees>
            </Position>
            <AltitudeMeters>122.59999847412109375</AltitudeMeters>
            <DistanceMeters>115759.18716394</DistanceMeters>
          </Trackpoint>
          <Trackpoint>
            <Time>2018-09-13T14:16:12.000Z</Time>
            <Position>
              <LatitudeDegrees>39.02547840960323810577392578125</LatitudeDegrees>
              <LongitudeDegrees>-8.14000119455158710479736328125</LongitudeDegrees>
            </Position>
            <AltitudeMeters>121.1999969482421875</AltitudeMeters>
            <DistanceMeters>115809.40965902</DistanceMeters>
          </Trackpoint>
          <Trackpoint>
            <Time>2018-09-13T14:16:18.000Z</Time>
            <Position>
              <LatitudeDegrees>39.024913050234317779541015625</LatitudeDegrees>
              <LongitudeDegrees>-8.13981260173022747039794921875</LongitudeDegrees>
            </Position>
            <AltitudeMeters>118.59999847412109375</AltitudeMeters>
            <DistanceMeters>115874.41390528</DistanceMeters>
          </Trackpoint>
          <Trackpoint>
            <Time>2018-09-13T14:16:22.000Z</Time>
            <Position>
              <LatitudeDegrees>39.02451616711914539337158203125</LatitudeDegrees>
              <LongitudeDegrees>-8.13962669111788272857666015625</LongitudeDegrees>
            </Position>
            <AltitudeMeters>117</AltitudeMeters>
            <DistanceMeters>115921.4218834</DistanceMeters>
          </Trackpoint>
          <Trackpoint>
            <Time>2018-09-13T14:16:25.000Z</Time>
            <Position>
              <LatitudeDegrees>39.02422129176557064056396484375</LatitudeDegrees>
              <LongitudeDegrees>-8.13947665505111217498779296875</LongitudeDegrees>
            </Position>
            <AltitudeMeters>116.1999969482421875</AltitudeMeters>
            <DistanceMeters>115956.71301916</DistanceMeters>
          </Trackpoint>
          <Trackpoint>
            <Time>2018-09-13T14:16:27.000Z</Time>
            <Position>
              <LatitudeDegrees>39.02403454296290874481201171875</LatitudeDegrees>
              <LongitudeDegrees>-8.139377497136592864990234375</LongitudeDegrees>
            </Position>
            <AltitudeMeters>116</AltitudeMeters>
            <DistanceMeters>115979.1974322</DistanceMeters>
          </Trackpoint>
          <Trackpoint>
            <Time>2018-09-13T14:16:29.000Z</Time>
            <Position>
              <LatitudeDegrees>39.0238527394831180572509765625</LatitudeDegrees>
              <LongitudeDegrees>-8.13927314244210720062255859375</LongitudeDegrees>
            </Position>
            <AltitudeMeters>115.59999847412109375</AltitudeMeters>
            <DistanceMeters>116001.35333402</DistanceMeters>
          </Trackpoint>
          <Trackpoint>
            <Time>2018-09-13T14:16:34.000Z</Time>
            <Position>
              <LatitudeDegrees>39.02341025881469249725341796875</LatitudeDegrees>
              <LongitudeDegrees>-8.1390360184013843536376953125</LongitudeDegrees>
            </Position>
            <AltitudeMeters>113.59999847412109375</AltitudeMeters>
            <DistanceMeters>116054.70006533</DistanceMeters>
          </Trackpoint>
          <Trackpoint>
            <Time>2018-09-13T14:16:38.000Z</Time>
            <Position>
              <LatitudeDegrees>39.0230551175773143768310546875</LatitudeDegrees>
              <LongitudeDegrees>-8.13886108808219432830810546875</LongitudeDegrees>
            </Position>
            <AltitudeMeters>112</AltitudeMeters>
            <DistanceMeters>116097.02324</DistanceMeters>
          </Trackpoint>
          <Trackpoint>
            <Time>2018-09-13T14:16:43.000Z</Time>
            <Position>
              <LatitudeDegrees>39.02262755669653415679931640625</LatitudeDegrees>
              <LongitudeDegrees>-8.13863997347652912139892578125</LongitudeDegrees>
            </Position>
            <AltitudeMeters>112.8000030517578125</AltitudeMeters>
            <DistanceMeters>116148.30888571</DistanceMeters>
          </Trackpoint>
          <Trackpoint>
            <Time>2018-09-13T14:16:48.000Z</Time>
            <Position>
              <LatitudeDegrees>39.02223394252359867095947265625</LatitudeDegrees>
              <LongitudeDegrees>-8.13844978809356689453125</LongitudeDegrees>
            </Position>
            <AltitudeMeters>115.40000152587890625</AltitudeMeters>
            <DistanceMeters>116195.1039226</DistanceMeters>
          </Trackpoint>
          <Trackpoint>
            <Time>2018-09-13T14:16:51.000Z</Time>
            <Position>
              <LatitudeDegrees>39.0220117382705211639404296875</LatitudeDegrees>
              <LongitudeDegrees>-8.13836554996669292449951171875</LongitudeDegrees>
            </Position>
            <AltitudeMeters>116.8000030517578125</AltitudeMeters>
            <DistanceMeters>116220.88612552</DistanceMeters>
          </Trackpoint>
          <Trackpoint>
            <Time>2018-09-13T14:16:52.000Z</Time>
            <Position>
              <LatitudeDegrees>39.0219383127987384796142578125</LatitudeDegrees>
              <LongitudeDegrees>-8.13833906315267086029052734375</LongitudeDegrees>
            </Position>
            <AltitudeMeters>117.1999969482421875</AltitudeMeters>
            <DistanceMeters>116229.37387845</DistanceMeters>
          </Trackpoint>
          <Trackpoint>
            <Time>2018-09-13T14:16:55.000Z</Time>
            <Position>
              <LatitudeDegrees>39.02172767557203769683837890625</LatitudeDegrees>
              <LongitudeDegrees>-8.13826563768088817596435546875</LongitudeDegrees>
            </Position>
            <AltitudeMeters>117.40000152587890625</AltitudeMeters>
            <DistanceMeters>116253.66282561</DistanceMeters>
          </Trackpoint>
          <Trackpoint>
            <Time>2018-09-13T14:16:56.000Z</Time>
            <Position>
              <LatitudeDegrees>39.021659530699253082275390625</LatitudeDegrees>
              <LongitudeDegrees>-8.13824233599007129669189453125</LongitudeDegrees>
            </Position>
            <AltitudeMeters>117.40000152587890625</AltitudeMeters>
            <DistanceMeters>116261.51044445</DistanceMeters>
          </Trackpoint>
          <Trackpoint>
            <Time>2018-09-13T14:16:59.000Z</Time>
            <Position>
              <LatitudeDegrees>39.0214566886425018310546875</LatitudeDegrees>
              <LongitudeDegrees>-8.1381736882030963897705078125</LongitudeDegrees>
            </Position>
            <AltitudeMeters>117.40000152587890625</AltitudeMeters>
            <DistanceMeters>116284.85454548</DistanceMeters>
          </Trackpoint>
          <Trackpoint>
            <Time>2018-09-13T14:17:03.000Z</Time>
            <Position>
              <LatitudeDegrees>39.02119207195937633514404296875</LatitudeDegrees>
              <LongitudeDegrees>-8.13808307982981204986572265625</LongitudeDegrees>
            </Position>
            <AltitudeMeters>118.40000152587890625</AltitudeMeters>
            <DistanceMeters>116315.33116985</DistanceMeters>
          </Trackpoint>
          <Trackpoint>
            <Time>2018-09-13T14:17:07.000Z</Time>
            <Position>
              <LatitudeDegrees>39.0209334902465343475341796875</LatitudeDegrees>
              <LongitudeDegrees>-8.13799339346587657928466796875</LongitudeDegrees>
            </Position>
            <AltitudeMeters>119</AltitudeMeters>
            <DistanceMeters>116345.13837068</DistanceMeters>
          </Trackpoint>
          <Trackpoint>
            <Time>2018-09-13T14:17:12.000Z</Time>
            <Position>
              <LatitudeDegrees>39.0206190012395381927490234375</LatitudeDegrees>
              <LongitudeDegrees>-8.13788610510528087615966796875</LongitudeDegrees>
            </Position>
            <AltitudeMeters>119.40000152587890625</AltitudeMeters>
            <DistanceMeters>116381.35015772</DistanceMeters>
          </Trackpoint>
          <Trackpoint>
            <Time>2018-09-13T14:17:17.000Z</Time>
            <Position>
              <LatitudeDegrees>39.0203175880014896392822265625</LatitudeDegrees>
              <LongitudeDegrees>-8.1377790682017803192138671875</LongitudeDegrees>
            </Position>
            <AltitudeMeters>119.8000030517578125</AltitudeMeters>
            <DistanceMeters>116416.15147829</DistanceMeters>
          </Trackpoint>
          <Trackpoint>
            <Time>2018-09-13T14:17:22.000Z</Time>
            <Position>
              <LatitudeDegrees>39.02002497576177120208740234375</LatitudeDegrees>
              <LongitudeDegrees>-8.1376437842845916748046875</LongitudeDegrees>
            </Position>
            <AltitudeMeters>120</AltitudeMeters>
            <DistanceMeters>116450.75712346</DistanceMeters>
          </Trackpoint>
          <Trackpoint>
            <Time>2018-09-13T14:17:27.000Z</Time>
            <Position>
              <LatitudeDegrees>39.0197412483394145965576171875</LatitudeDegrees>
              <LongitudeDegrees>-8.13746131025254726409912109375</LongitudeDegrees>
            </Position>
            <AltitudeMeters>119.40000152587890625</AltitudeMeters>
            <DistanceMeters>116486.05926008</DistanceMeters>
          </Trackpoint>
          <Trackpoint>
            <Time>2018-09-13T14:17:35.000Z</Time>
            <Position>
              <LatitudeDegrees>39.019318632781505584716796875</LatitudeDegrees>
              <LongitudeDegrees>-8.137141205370426177978515625</LongitudeDegrees>
            </Position>
            <AltitudeMeters>119.40000152587890625</AltitudeMeters>
            <DistanceMeters>116540.63752899</DistanceMeters>
          </Trackpoint>
          <Trackpoint>
            <Time>2018-09-13T14:17:45.000Z</Time>
            <Position>
              <LatitudeDegrees>39.01882753707468509674072265625</LatitudeDegrees>
              <LongitudeDegrees>-8.136744238436222076416015625</LongitudeDegrees>
            </Position>
            <AltitudeMeters>119.8000030517578125</AltitudeMeters>
            <DistanceMeters>116605.18277651</DistanceMeters>
          </Trackpoint>
          <Trackpoint>
            <Time>2018-09-13T14:17:47.000Z</Time>
            <Position>
              <LatitudeDegrees>39.0187310613691806793212890625</LatitudeDegrees>
              <LongitudeDegrees>-8.1366525404155254364013671875</LongitudeDegrees>
            </Position>
            <AltitudeMeters>120</AltitudeMeters>
            <DistanceMeters>116618.53123966</DistanceMeters>
          </Trackpoint>
          <Trackpoint>
            <Time>2018-09-13T14:17:55.000Z</Time>
            <Position>
              <LatitudeDegrees>39.018332920968532562255859375</LatitudeDegrees>
              <LongitudeDegrees>-8.13624023459851741790771484375</LongitudeDegrees>
            </Position>
            <AltitudeMeters>122.1999969482421875</AltitudeMeters>
            <DistanceMeters>116675.40780439</DistanceMeters>
          </Trackpoint>
          <Trackpoint>
            <Time>2018-09-13T14:18:02.000Z</Time>
            <Position>
              <LatitudeDegrees>39.0179743431508541107177734375</LatitudeDegrees>
              <LongitudeDegrees>-8.13587159849703311920166015625</LongitudeDegrees>
            </Position>
            <AltitudeMeters>120.8000030517578125</AltitudeMeters>
            <DistanceMeters>116726.48676275</DistanceMeters>
          </Trackpoint>
          <Trackpoint>
            <Time>2018-09-13T14:18:08.000Z</Time>
            <Position>
              <LatitudeDegrees>39.01764719747006893157958984375</LatitudeDegrees>
              <LongitudeDegrees>-8.13558745197951793670654296875</LongitudeDegrees>
            </Position>
            <AltitudeMeters>121.59999847412109375</AltitudeMeters>
            <DistanceMeters>116770.41398568</DistanceMeters>
          </Trackpoint>
          <Trackpoint>
            <Time>2018-09-13T14:18:16.000Z</Time>
            <Position>
              <LatitudeDegrees>39.017201364040374755859375</LatitudeDegrees>
              <LongitudeDegrees>-8.13524764962494373321533203125</LongitudeDegrees>
            </Position>
            <AltitudeMeters>121.40000152587890625</AltitudeMeters>
            <DistanceMeters>116828.08400679</DistanceMeters>
          </Trackpoint>
          <Trackpoint>
            <Time>2018-09-13T14:18:23.000Z</Time>
            <Position>
              <LatitudeDegrees>39.01681789197027683258056640625</LatitudeDegrees>
              <LongitudeDegrees>-8.13497356139123439788818359375</LongitudeDegrees>
            </Position>
            <AltitudeMeters>120.8000030517578125</AltitudeMeters>
            <DistanceMeters>116876.90490035</DistanceMeters>
          </Trackpoint>
          <Trackpoint>
            <Time>2018-09-13T14:18:29.000Z</Time>
            <Position>
              <LatitudeDegrees>39.016486890614032745361328125</LatitudeDegrees>
              <LongitudeDegrees>-8.13473836518824100494384765625</LongitudeDegrees>
            </Position>
            <AltitudeMeters>122.8000030517578125</AltitudeMeters>
            <DistanceMeters>116918.98736037</DistanceMeters>
          </Trackpoint>
          <Trackpoint>
            <Time>2018-09-13T14:18:35.000Z</Time>
            <Position>
              <LatitudeDegrees>39.01616091839969158172607421875</LatitudeDegrees>
              <LongitudeDegrees>-8.1344856508076190948486328125</LongitudeDegrees>
            </Position>
            <AltitudeMeters>123</AltitudeMeters>
            <DistanceMeters>116961.34242036</DistanceMeters>
          </Trackpoint>
          <Trackpoint>
            <Time>2018-09-13T14:18:44.000Z</Time>
            <Position>
              <LatitudeDegrees>39.0156599320471286773681640625</LatitudeDegrees>
              <LongitudeDegrees>-8.134119026362895965576171875</LongitudeDegrees>
            </Position>
            <AltitudeMeters>123.8000030517578125</AltitudeMeters>
            <DistanceMeters>117025.48664918</DistanceMeters>
          </Trackpoint>
          <Trackpoint>
            <Time>2018-09-13T14:18:45.000Z</Time>
            <Position>
              <LatitudeDegrees>39.01560301892459392547607421875</LatitudeDegrees>
              <LongitudeDegrees>-8.134080134332180023193359375</LongitudeDegrees>
            </Position>
            <AltitudeMeters>124</AltitudeMeters>
            <DistanceMeters>117032.65849103</DistanceMeters>
          </Trackpoint>
          <Trackpoint>
            <Time>2018-09-13T14:18:50.000Z</Time>
            <Position>
              <LatitudeDegrees>39.015308059751987457275390625</LatitudeDegrees>
              <LongitudeDegrees>-8.13389078713953495025634765625</LongitudeDegrees>
            </Position>
            <AltitudeMeters>124.8000030517578125</AltitudeMeters>
            <DistanceMeters>117069.34520298</DistanceMeters>
          </Trackpoint>
          <Trackpoint>
            <Time>2018-09-13T14:18:59.000Z</Time>
            <Position>
              <LatitudeDegrees>39.01477237232029438018798828125</LatitudeDegrees>
              <LongitudeDegrees>-8.1335669942200183868408203125</LongitudeDegrees>
            </Position>
            <AltitudeMeters>126.1999969482421875</AltitudeMeters>
            <DistanceMeters>117135.21619699</DistanceMeters>
          </Trackpoint>
          <Trackpoint>
            <Time>2018-09-13T14:19:08.000Z</Time>
            <Position>
              <LatitudeDegrees>39.0142450667917728424072265625</LatitudeDegrees>
              <LongitudeDegrees>-8.13327488489449024200439453125</LongitudeDegrees>
            </Position>
            <AltitudeMeters>127</AltitudeMeters>
            <DistanceMeters>117199.11203536</DistanceMeters>
          </Trackpoint>
          <Trackpoint>
            <Time>2018-09-13T14:19:17.000Z</Time>
            <Position>
              <LatitudeDegrees>39.01371189393103122711181640625</LatitudeDegrees>
              <LongitudeDegrees>-8.13305209390819072723388671875</LongitudeDegrees>
            </Position>
            <AltitudeMeters>128.8000030517578125</AltitudeMeters>
            <DistanceMeters>117261.50465404</DistanceMeters>
          </Trackpoint>
          <Trackpoint>
            <Time>2018-09-13T14:19:27.000Z</Time>
            <Position>
              <LatitudeDegrees>39.01311811991035938262939453125</LatitudeDegrees>
              <LongitudeDegrees>-8.13294782303273677825927734375</LongitudeDegrees>
            </Position>
            <AltitudeMeters>130.8000030517578125</AltitudeMeters>
            <DistanceMeters>117328.20528509</DistanceMeters>
          </Trackpoint>
          <Trackpoint>
            <Time>2018-09-13T14:19:30.000Z</Time>
            <Position>
              <LatitudeDegrees>39.01293371804058551788330078125</LatitudeDegrees>
              <LongitudeDegrees>-8.13294329680502414703369140625</LongitudeDegrees>
            </Position>
            <AltitudeMeters>131.1999969482421875</AltitudeMeters>
            <DistanceMeters>117348.73325497</DistanceMeters>
          </Trackpoint>
          <Trackpoint>
            <Time>2018-09-13T14:19:40.000Z</Time>
            <Position>
              <LatitudeDegrees>39.01233592070639133453369140625</LatitudeDegrees>
              <LongitudeDegrees>-8.1329614855349063873291015625</LongitudeDegrees>
            </Position>
            <AltitudeMeters>131.1999969482421875</AltitudeMeters>
            <DistanceMeters>117415.28785186</DistanceMeters>
          </Trackpoint>
          <Trackpoint>
            <Time>2018-09-13T14:19:50.000Z</Time>
            <Position>
              <LatitudeDegrees>39.01175706647336483001708984375</LatitudeDegrees>
              <LongitudeDegrees>-8.1329862959682941436767578125</LongitudeDegrees>
            </Position>
            <AltitudeMeters>130.8000030517578125</AltitudeMeters>
            <DistanceMeters>117479.75120415</DistanceMeters>
          </Trackpoint>
          <Trackpoint>
            <Time>2018-09-13T14:19:52.000Z</Time>
            <Position>
              <LatitudeDegrees>39.01163888163864612579345703125</LatitudeDegrees>
              <LongitudeDegrees>-8.1330000422894954681396484375</LongitudeDegrees>
            </Position>
            <AltitudeMeters>130.8000030517578125</AltitudeMeters>
            <DistanceMeters>117492.95889194</DistanceMeters>
          </Trackpoint>
          <Trackpoint>
            <Time>2018-09-13T14:20:01.000Z</Time>
            <Position>
              <LatitudeDegrees>39.0110336244106292724609375</LatitudeDegrees>
              <LongitudeDegrees>-8.1330298818647861480712890625</LongitudeDegrees>
            </Position>
            <AltitudeMeters>128.8000030517578125</AltitudeMeters>
            <DistanceMeters>117560.37470355</DistanceMeters>
          </Trackpoint>
          <Trackpoint>
            <Time>2018-09-13T14:20:03.000Z</Time>
            <Position>
              <LatitudeDegrees>39.010887779295444488525390625</LatitudeDegrees>
              <LongitudeDegrees>-8.13303549773991107940673828125</LongitudeDegrees>
            </Position>
            <AltitudeMeters>128.1999969482421875</AltitudeMeters>
            <DistanceMeters>117576.61482186</DistanceMeters>
          </Trackpoint>
          <Trackpoint>
            <Time>2018-09-13T14:20:11.000Z</Time>
            <Position>
              <LatitudeDegrees>39.01029492728412151336669921875</LatitudeDegrees>
              <LongitudeDegrees>-8.1330536864697933197021484375</LongitudeDegrees>
            </Position>
            <AltitudeMeters>127</AltitudeMeters>
            <DistanceMeters>117642.61913543</DistanceMeters>
          </Trackpoint>
          <Trackpoint>
            <Time>2018-09-13T14:20:18.000Z</Time>
            <Position>
              <LatitudeDegrees>39.00973686017096042633056640625</LatitudeDegrees>
              <LongitudeDegrees>-8.133083023130893707275390625</LongitudeDegrees>
            </Position>
            <AltitudeMeters>127.1999969482421875</AltitudeMeters>
            <DistanceMeters>117704.78483921</DistanceMeters>
          </Trackpoint>
          <Trackpoint>
            <Time>2018-09-13T14:20:19.000Z</Time>
            <Position>
              <LatitudeDegrees>39.00965421460568904876708984375</LatitudeDegrees>
              <LongitudeDegrees>-8.13309014774858951568603515625</LongitudeDegrees>
            </Position>
            <AltitudeMeters>127</AltitudeMeters>
            <DistanceMeters>117714.00389987</DistanceMeters>
          </Trackpoint>
          <Trackpoint>
            <Time>2018-09-13T14:20:22.000Z</Time>
            <Position>
              <LatitudeDegrees>39.00940678082406520843505859375</LatitudeDegrees>
              <LongitudeDegrees>-8.1331204064190387725830078125</LongitudeDegrees>
            </Position>
            <AltitudeMeters>126.1999969482421875</AltitudeMeters>
            <DistanceMeters>117741.66761109</DistanceMeters>
          </Trackpoint>
          <Trackpoint>
            <Time>2018-09-13T14:20:24.000Z</Time>
            <Position>
              <LatitudeDegrees>39.0092440880835056304931640625</LatitudeDegrees>
              <LongitudeDegrees>-8.1331529282033443450927734375</LongitudeDegrees>
            </Position>
            <AltitudeMeters>126.1999969482421875</AltitudeMeters>
            <DistanceMeters>117759.99274363</DistanceMeters>
          </Trackpoint>
          <Trackpoint>
            <Time>2018-09-13T14:20:28.000Z</Time>
            <Position>
              <LatitudeDegrees>39.0089242346584796905517578125</LatitudeDegrees>
              <LongitudeDegrees>-8.133227862417697906494140625</LongitudeDegrees>
            </Position>
            <AltitudeMeters>126</AltitudeMeters>
            <DistanceMeters>117796.17808797</DistanceMeters>
          </Trackpoint>
          <Trackpoint>
            <Time>2018-09-13T14:20:36.000Z</Time>
            <Position>
              <LatitudeDegrees>39.0083462186157703399658203125</LatitudeDegrees>
              <LongitudeDegrees>-8.13336633145809173583984375</LongitudeDegrees>
            </Position>
            <AltitudeMeters>125.40000152587890625</AltitudeMeters>
            <DistanceMeters>117861.61762611</DistanceMeters>
          </Trackpoint>
          <Trackpoint>
            <Time>2018-09-13T14:20:39.000Z</Time>
            <Position>
              <LatitudeDegrees>39.0081473998725414276123046875</LatitudeDegrees>
              <LongitudeDegrees>-8.13342123292386531829833984375</LongitudeDegrees>
            </Position>
            <AltitudeMeters>125.40000152587890625</AltitudeMeters>
            <DistanceMeters>117884.25014886</DistanceMeters>
          </Trackpoint>
          <Trackpoint>
            <Time>2018-09-13T14:20:45.000Z</Time>
            <Position>
              <LatitudeDegrees>39.00775202549993991851806640625</LatitudeDegrees>
              <LongitudeDegrees>-8.13352298922836780548095703125</LongitudeDegrees>
            </Position>
            <AltitudeMeters>125.1999969482421875</AltitudeMeters>
            <DistanceMeters>117929.12741392</DistanceMeters>
          </Trackpoint>
          <Trackpoint>
            <Time>2018-09-13T14:20:53.000Z</Time>
            <Position>
              <LatitudeDegrees>39.00717987678945064544677734375</LatitudeDegrees>
              <LongitudeDegrees>-8.13366414047777652740478515625</LongitudeDegrees>
            </Position>
            <AltitudeMeters>123.40000152587890625</AltitudeMeters>
            <DistanceMeters>117993.96829903</DistanceMeters>
          </Trackpoint>
          <Trackpoint>
            <Time>2018-09-13T14:20:56.000Z</Time>
            <Position>
              <LatitudeDegrees>39.006944932043552398681640625</LatitudeDegrees>
              <LongitudeDegrees>-8.13372038304805755615234375</LongitudeDegrees>
            </Position>
            <AltitudeMeters>122.40000152587890625</AltitudeMeters>
            <DistanceMeters>118020.56695368</DistanceMeters>
          </Trackpoint>
          <Trackpoint>
            <Time>2018-09-13T14:21:01.000Z</Time>
            <Position>
              <LatitudeDegrees>39.00652474723756313323974609375</LatitudeDegrees>
              <LongitudeDegrees>-8.13382473774254322052001953125</LongitudeDegrees>
            </Position>
            <AltitudeMeters>122.8000030517578125</AltitudeMeters>
            <DistanceMeters>118068.19733469</DistanceMeters>
          </Trackpoint>
          <Trackpoint>
            <Time>2018-09-13T14:21:03.000Z</Time>
            <Position>
              <LatitudeDegrees>39.0063493140041828155517578125</LatitudeDegrees>
              <LongitudeDegrees>-8.13386815600097179412841796875</LongitudeDegrees>
            </Position>
            <AltitudeMeters>123.1999969482421875</AltitudeMeters>
            <DistanceMeters>118088.08131988</DistanceMeters>
          </Trackpoint>
          <Trackpoint>
            <Time>2018-09-13T14:21:05.000Z</Time>
            <Position>
              <LatitudeDegrees>39.00617354549467563629150390625</LatitudeDegrees>
              <LongitudeDegrees>-8.13390989787876605987548828125</LongitudeDegrees>
            </Position>
            <AltitudeMeters>123.59999847412109375</AltitudeMeters>
            <DistanceMeters>118107.97506665</DistanceMeters>
          </Trackpoint>
          <Trackpoint>
            <Time>2018-09-13T14:21:12.000Z</Time>
            <Position>
              <LatitudeDegrees>39.00558329187333583831787109375</LatitudeDegrees>
              <LongitudeDegrees>-8.13405524007976055145263671875</LongitudeDegrees>
            </Position>
            <AltitudeMeters>121.8000030517578125</AltitudeMeters>
            <DistanceMeters>118174.86334421</DistanceMeters>
          </Trackpoint>
          <Trackpoint>
            <Time>2018-09-13T14:21:15.000Z</Time>
            <Position>
              <LatitudeDegrees>39.0053374506533145904541015625</LatitudeDegrees>
              <LongitudeDegrees>-8.13411894254386425018310546875</LongitudeDegrees>
            </Position>
            <AltitudeMeters>121.1999969482421875</AltitudeMeters>
            <DistanceMeters>118202.77516689</DistanceMeters>
          </Trackpoint>
          <Trackpoint>
            <Time>2018-09-13T14:21:22.000Z</Time>
            <Position>
              <LatitudeDegrees>39.00475298054516315460205078125</LatitudeDegrees>
              <LongitudeDegrees>-8.1342636980116367340087890625</LongitudeDegrees>
            </Position>
            <AltitudeMeters>120.40000152587890625</AltitudeMeters>
            <DistanceMeters>118269.02166937</DistanceMeters>
          </Trackpoint>
          <Trackpoint>
            <Time>2018-09-13T14:21:29.000Z</Time>
            <Position>
              <LatitudeDegrees>39.004187621176242828369140625</LatitudeDegrees>
              <LongitudeDegrees>-8.13439990393817424774169921875</LongitudeDegrees>
            </Position>
            <AltitudeMeters>120.40000152587890625</AltitudeMeters>
            <DistanceMeters>118333.0406245</DistanceMeters>
          </Trackpoint>
          <Trackpoint>
            <Time>2018-09-13T14:21:34.000Z</Time>
            <Position>
              <LatitudeDegrees>39.0037663467228412628173828125</LatitudeDegrees>
              <LongitudeDegrees>-8.1345037557184696197509765625</LongitudeDegrees>
            </Position>
            <AltitudeMeters>120.59999847412109375</AltitudeMeters>
            <DistanceMeters>118380.78206849</DistanceMeters>
          </Trackpoint>
          <Trackpoint>
            <Time>2018-09-13T14:21:38.000Z</Time>
            <Position>
              <LatitudeDegrees>39.0034434758126735687255859375</LatitudeDegrees>
              <LongitudeDegrees>-8.13458447344601154327392578125</LongitudeDegrees>
            </Position>
            <AltitudeMeters>120.59999847412109375</AltitudeMeters>
            <DistanceMeters>118417.3901775</DistanceMeters>
          </Trackpoint>
          <Trackpoint>
            <Time>2018-09-13T14:21:45.000Z</Time>
            <Position>
              <LatitudeDegrees>39.00289337150752544403076171875</LatitudeDegrees>
              <LongitudeDegrees>-8.13471657223999500274658203125</LongitudeDegrees>
            </Position>
            <AltitudeMeters>120.40000152587890625</AltitudeMeters>
            <DistanceMeters>118479.67480659</DistanceMeters>
          </Trackpoint>
          <Trackpoint>
            <Time>2018-09-13T14:21:52.000Z</Time>
            <Position>
              <LatitudeDegrees>39.00232625193893909454345703125</LatitudeDegrees>
              <LongitudeDegrees>-8.13485763967037200927734375</LongitudeDegrees>
            </Position>
            <AltitudeMeters>119.1999969482421875</AltitudeMeters>
            <DistanceMeters>118543.96485613</DistanceMeters>
          </Trackpoint>
          <Trackpoint>
            <Time>2018-09-13T14:21:53.000Z</Time>
            <Position>
              <LatitudeDegrees>39.00224176235496997833251953125</LatitudeDegrees>
              <LongitudeDegrees>-8.13487867824733257293701171875</LongitudeDegrees>
            </Position>
            <AltitudeMeters>119</AltitudeMeters>
            <DistanceMeters>118553.54324726</DistanceMeters>
          </Trackpoint>
          <Trackpoint>
            <Time>2018-09-13T14:22:00.000Z</Time>
            <Position>
              <LatitudeDegrees>39.00162770412862300872802734375</LatitudeDegrees>
              <LongitudeDegrees>-8.13501991331577301025390625</LongitudeDegrees>
            </Position>
            <AltitudeMeters>118.8000030517578125</AltitudeMeters>
            <DistanceMeters>118622.97227762</DistanceMeters>
          </Trackpoint>
          <Trackpoint>
            <Time>2018-09-13T14:22:01.000Z</Time>
            <Position>
              <LatitudeDegrees>39.00153935886919498443603515625</LatitudeDegrees>
              <LongitudeDegrees>-8.13504195772111415863037109375</LongitudeDegrees>
            </Position>
            <AltitudeMeters>118.8000030517578125</AltitudeMeters>
            <DistanceMeters>118632.98847197</DistanceMeters>
          </Trackpoint>
          <Trackpoint>
            <Time>2018-09-13T14:22:05.000Z</Time>
            <Position>
              <LatitudeDegrees>39.00118681602180004119873046875</LatitudeDegrees>
              <LongitudeDegrees>-8.13513650558888912200927734375</LongitudeDegrees>
            </Position>
            <AltitudeMeters>119.1999969482421875</AltitudeMeters>
            <DistanceMeters>118673.07037513</DistanceMeters>
          </Trackpoint>
          <Trackpoint>
            <Time>2018-09-13T14:22:08.000Z</Time>
            <Position>
              <LatitudeDegrees>39.00092077441513538360595703125</LatitudeDegrees>
              <LongitudeDegrees>-8.135203979909420013427734375</LongitudeDegrees>
            </Position>
            <AltitudeMeters>118.8000030517578125</AltitudeMeters>
            <DistanceMeters>118703.25089551</DistanceMeters>
          </Trackpoint>
          <Trackpoint>
            <Time>2018-09-13T14:22:10.000Z</Time>
            <Position>
              <LatitudeDegrees>39.0007424913346767425537109375</LatitudeDegrees>
              <LongitudeDegrees>-8.1352485716342926025390625</LongitudeDegrees>
            </Position>
            <AltitudeMeters>118.1999969482421875</AltitudeMeters>
            <DistanceMeters>118723.4656933</DistanceMeters>
          </Trackpoint>
          <Trackpoint>
            <Time>2018-09-13T14:22:12.000Z</Time>
            <Position>
              <LatitudeDegrees>39.0005637891590595245361328125</LatitudeDegrees>
              <LongitudeDegrees>-8.1352914869785308837890625</LongitudeDegrees>
            </Position>
            <AltitudeMeters>117.59999847412109375</AltitudeMeters>
            <DistanceMeters>118743.69902089</DistanceMeters>
          </Trackpoint>
          <Trackpoint>
            <Time>2018-09-13T14:22:14.000Z</Time>
            <Position>
              <LatitudeDegrees>39.00038718245923519134521484375</LatitudeDegrees>
              <LongitudeDegrees>-8.135334067046642303466796875</LongitudeDegrees>
            </Position>
            <AltitudeMeters>117</AltitudeMeters>
            <DistanceMeters>118763.69779875</DistanceMeters>
          </Trackpoint>
          <Trackpoint>
            <Time>2018-09-13T14:22:17.000Z</Time>
            <Position>
              <LatitudeDegrees>39.0001185424625873565673828125</LatitudeDegrees>
              <LongitudeDegrees>-8.13540078699588775634765625</LongitudeDegrees>
            </Position>
            <AltitudeMeters>116</AltitudeMeters>
            <DistanceMeters>118794.14982069</DistanceMeters>
          </Trackpoint>
          <Trackpoint>
            <Time>2018-09-13T14:22:19.000Z</Time>
            <Position>
              <LatitudeDegrees>38.99993506260216236114501953125</LatitudeDegrees>
              <LongitudeDegrees>-8.13544697128236293792724609375</LongitudeDegrees>
            </Position>
            <AltitudeMeters>115.1999969482421875</AltitudeMeters>
            <DistanceMeters>118814.95828448</DistanceMeters>
          </Trackpoint>
          <Trackpoint>
            <Time>2018-09-13T14:22:21.000Z</Time>
            <Position>
              <LatitudeDegrees>38.99974714033305644989013671875</LatitudeDegrees>
              <LongitudeDegrees>-8.1354948319494724273681640625</LongitudeDegrees>
            </Position>
            <AltitudeMeters>114.40000152587890625</AltitudeMeters>
            <DistanceMeters>118836.27987374</DistanceMeters>
          </Trackpoint>
          <Trackpoint>
            <Time>2018-09-13T14:22:23.000Z</Time>
            <Position>
              <LatitudeDegrees>38.9995549432933330535888671875</LatitudeDegrees>
              <LongitudeDegrees>-8.1355414353311061859130859375</LongitudeDegrees>
            </Position>
            <AltitudeMeters>113.8000030517578125</AltitudeMeters>
            <DistanceMeters>118858.0484594</DistanceMeters>
          </Trackpoint>
          <Trackpoint>
            <Time>2018-09-13T14:22:25.000Z</Time>
            <Position>
              <LatitudeDegrees>38.99935721419751644134521484375</LatitudeDegrees>
              <LongitudeDegrees>-8.1355897150933742523193359375</LongitudeDegrees>
            </Position>
            <AltitudeMeters>113.1999969482421875</AltitudeMeters>
            <DistanceMeters>118880.44897921</DistanceMeters>
          </Trackpoint>
          <Trackpoint>
            <Time>2018-09-13T14:22:27.000Z</Time>
            <Position>
              <LatitudeDegrees>38.99915345013141632080078125</LatitudeDegrees>
              <LongitudeDegrees>-8.13563841395080089569091796875</LongitudeDegrees>
            </Position>
            <AltitudeMeters>113</AltitudeMeters>
            <DistanceMeters>118903.51601683</DistanceMeters>
          </Trackpoint>
          <Trackpoint>
            <Time>2018-09-13T14:22:29.000Z</Time>
            <Position>
              <LatitudeDegrees>38.99894432164728641510009765625</LatitudeDegrees>
              <LongitudeDegrees>-8.135688789188861846923828125</LongitudeDegrees>
            </Position>
            <AltitudeMeters>112.59999847412109375</AltitudeMeters>
            <DistanceMeters>118927.19655202</DistanceMeters>
          </Trackpoint>
          <Trackpoint>
            <Time>2018-09-13T14:22:31.000Z</Time>
            <Position>
              <LatitudeDegrees>38.99873108603060245513916015625</LatitudeDegrees>
              <LongitudeDegrees>-8.135740421712398529052734375</LongitudeDegrees>
            </Position>
            <AltitudeMeters>112.40000152587890625</AltitudeMeters>
            <DistanceMeters>118951.34680207</DistanceMeters>
          </Trackpoint>
          <Trackpoint>
            <Time>2018-09-13T14:22:33.000Z</Time>
            <Position>
              <LatitudeDegrees>38.998516090214252471923828125</LatitudeDegrees>
              <LongitudeDegrees>-8.1357928924262523651123046875</LongitudeDegrees>
            </Position>
            <AltitudeMeters>112.1999969482421875</AltitudeMeters>
            <DistanceMeters>118975.70294795</DistanceMeters>
          </Trackpoint>
          <Trackpoint>
            <Time>2018-09-13T14:22:35.000Z</Time>
            <Position>
              <LatitudeDegrees>38.99830360896885395050048828125</LatitudeDegrees>
              <LongitudeDegrees>-8.13584594987332820892333984375</LongitudeDegrees>
            </Position>
            <AltitudeMeters>111.59999847412109375</AltitudeMeters>
            <DistanceMeters>118999.79367257</DistanceMeters>
          </Trackpoint>
          <Trackpoint>
            <Time>2018-09-13T14:22:37.000Z</Time>
            <Position>
              <LatitudeDegrees>38.998093642294406890869140625</LatitudeDegrees>
              <LongitudeDegrees>-8.1358968280255794525146484375</LongitudeDegrees>
            </Position>
            <AltitudeMeters>111</AltitudeMeters>
            <DistanceMeters>119023.57428584</DistanceMeters>
          </Trackpoint>
          <Trackpoint>
            <Time>2018-09-13T14:22:39.000Z</Time>
            <Position>
              <LatitudeDegrees>38.99788334034383296966552734375</LatitudeDegrees>
              <LongitudeDegrees>-8.13594636507332324981689453125</LongitudeDegrees>
            </Position>
            <AltitudeMeters>110.59999847412109375</AltitudeMeters>
            <DistanceMeters>119047.37008323</DistanceMeters>
          </Trackpoint>
          <Trackpoint>
            <Time>2018-09-13T14:22:41.000Z</Time>
            <Position>
              <LatitudeDegrees>38.9976703561842441558837890625</LatitudeDegrees>
              <LongitudeDegrees>-8.13599984161555767059326171875</LongitudeDegrees>
            </Position>
            <AltitudeMeters>109.8000030517578125</AltitudeMeters>
            <DistanceMeters>119071.52257665</DistanceMeters>
          </Trackpoint>
          <Trackpoint>
            <Time>2018-09-13T14:22:43.000Z</Time>
            <Position>
              <LatitudeDegrees>38.99745292961597442626953125</LatitudeDegrees>
              <LongitudeDegrees>-8.13605080358684062957763671875</LongitudeDegrees>
            </Position>
            <AltitudeMeters>109.59999847412109375</AltitudeMeters>
            <DistanceMeters>119096.12091668</DistanceMeters>
          </Trackpoint>
          <Trackpoint>
            <Time>2018-09-13T14:22:45.000Z</Time>
            <Position>
              <LatitudeDegrees>38.99723290465772151947021484375</LatitudeDegrees>
              <LongitudeDegrees>-8.13609589822590351104736328125</LongitudeDegrees>
            </Position>
            <AltitudeMeters>109.1999969482421875</AltitudeMeters>
            <DistanceMeters>119120.91870178</DistanceMeters>
          </Trackpoint>
          <Trackpoint>
            <Time>2018-09-13T14:22:47.000Z</Time>
            <Position>
              <LatitudeDegrees>38.9970128796994686126708984375</LatitudeDegrees>
              <LongitudeDegrees>-8.1361221335828304290771484375</LongitudeDegrees>
            </Position>
            <AltitudeMeters>108.8000030517578125</AltitudeMeters>
            <DistanceMeters>119145.5126362</DistanceMeters>
          </Trackpoint>
          <Trackpoint>
            <Time>2018-09-13T14:22:49.000Z</Time>
            <Position>
              <LatitudeDegrees>38.99679872207343578338623046875</LatitudeDegrees>
              <LongitudeDegrees>-8.13612372614443302154541015625</LongitudeDegrees>
            </Position>
            <AltitudeMeters>108.59999847412109375</AltitudeMeters>
            <DistanceMeters>119169.349193</DistanceMeters>
          </Trackpoint>
          <Trackpoint>
            <Time>2018-09-13T14:22:51.000Z</Time>
            <Position>
              <LatitudeDegrees>38.996592275798320770263671875</LatitudeDegrees>
              <LongitudeDegrees>-8.13610645942389965057373046875</LongitudeDegrees>
            </Position>
            <AltitudeMeters>108.8000030517578125</AltitudeMeters>
            <DistanceMeters>119192.37548164</DistanceMeters>
          </Trackpoint>
          <Trackpoint>
            <Time>2018-09-13T14:22:53.000Z</Time>
            <Position>
              <LatitudeDegrees>38.996393792331218719482421875</LatitudeDegrees>
              <LongitudeDegrees>-8.1360765360295772552490234375</LongitudeDegrees>
            </Position>
            <AltitudeMeters>109.1999969482421875</AltitudeMeters>
            <DistanceMeters>119214.6182294</DistanceMeters>
          </Trackpoint>
          <Trackpoint>
            <Time>2018-09-13T14:22:55.000Z</Time>
            <Position>
              <LatitudeDegrees>38.9962031878530979156494140625</LatitudeDegrees>
              <LongitudeDegrees>-8.1360322795808315277099609375</LongitudeDegrees>
            </Position>
            <AltitudeMeters>109.59999847412109375</AltitudeMeters>
            <DistanceMeters>119236.17547468</DistanceMeters>
          </Trackpoint>
          <Trackpoint>
            <Time>2018-09-13T14:22:58.000Z</Time>
            <Position>
              <LatitudeDegrees>38.9959329552948474884033203125</LatitudeDegrees>
              <LongitudeDegrees>-8.1359424255788326263427734375</LongitudeDegrees>
            </Position>
            <AltitudeMeters>110.8000030517578125</AltitudeMeters>
            <DistanceMeters>119267.24092703</DistanceMeters>
          </Trackpoint>
          <Trackpoint>
            <Time>2018-09-13T14:23:01.000Z</Time>
            <Position>
              <LatitudeDegrees>38.99568258784711360931396484375</LatitudeDegrees>
              <LongitudeDegrees>-8.13584896735846996307373046875</LongitudeDegrees>
            </Position>
            <AltitudeMeters>112.40000152587890625</AltitudeMeters>
            <DistanceMeters>119296.25645938</DistanceMeters>
          </Trackpoint>
          <Trackpoint>
            <Time>2018-09-13T14:23:04.000Z</Time>
            <Position>
              <LatitudeDegrees>38.99545133113861083984375</LatitudeDegrees>
              <LongitudeDegrees>-8.1357647292315959930419921875</LongitudeDegrees>
            </Position>
            <AltitudeMeters>113.8000030517578125</AltitudeMeters>
            <DistanceMeters>119323.00744998</DistanceMeters>
          </Trackpoint>
          <Trackpoint>
            <Time>2018-09-13T14:23:07.000Z</Time>
            <Position>
              <LatitudeDegrees>38.9952382631599903106689453125</LatitudeDegrees>
              <LongitudeDegrees>-8.1356849335134029388427734375</LongitudeDegrees>
            </Position>
            <AltitudeMeters>115.59999847412109375</AltitudeMeters>
            <DistanceMeters>119347.70635368</DistanceMeters>
          </Trackpoint>
          <Trackpoint>
            <Time>2018-09-13T14:23:09.000Z</Time>
            <Position>
              <LatitudeDegrees>38.9951021410524845123291015625</LatitudeDegrees>
              <LongitudeDegrees>-8.13563740812242031097412109375</LongitudeDegrees>
            </Position>
            <AltitudeMeters>117</AltitudeMeters>
            <DistanceMeters>119363.405043</DistanceMeters>
          </Trackpoint>
          <Trackpoint>
            <Time>2018-09-13T14:23:12.000Z</Time>
            <Position>
              <LatitudeDegrees>38.99491078220307826995849609375</LatitudeDegrees>
              <LongitudeDegrees>-8.13555945642292499542236328125</LongitudeDegrees>
            </Position>
            <AltitudeMeters>119.1999969482421875</AltitudeMeters>
            <DistanceMeters>119385.74582153</DistanceMeters>
          </Trackpoint>
          <Trackpoint>
            <Time>2018-09-13T14:23:15.000Z</Time>
            <Position>
              <LatitudeDegrees>38.99472788907587528228759765625</LatitudeDegrees>
              <LongitudeDegrees>-8.1354899704456329345703125</LongitudeDegrees>
            </Position>
            <AltitudeMeters>120</AltitudeMeters>
            <DistanceMeters>119406.97105448</DistanceMeters>
          </Trackpoint>
          <Trackpoint>
            <Time>2018-09-13T14:23:20.000Z</Time>
            <Position>
              <LatitudeDegrees>38.99443234317004680633544921875</LatitudeDegrees>
              <LongitudeDegrees>-8.1353784911334514617919921875</LongitudeDegrees>
            </Position>
            <AltitudeMeters>120.40000152587890625</AltitudeMeters>
            <DistanceMeters>119441.25028707</DistanceMeters>
          </Trackpoint>
          <Trackpoint>
            <Time>2018-09-13T14:23:23.000Z</Time>
            <Position>
              <LatitudeDegrees>38.9942659623920917510986328125</LatitudeDegrees>
              <LongitudeDegrees>-8.13531319610774517059326171875</LongitudeDegrees>
            </Position>
            <AltitudeMeters>121.1999969482421875</AltitudeMeters>
            <DistanceMeters>119460.61126596</DistanceMeters>
          </Trackpoint>
          <Trackpoint>
            <Time>2018-09-13T14:23:27.000Z</Time>
            <Position>
              <LatitudeDegrees>38.994065634906291961669921875</LatitudeDegrees>
              <LongitudeDegrees>-8.13523658551275730133056640625</LongitudeDegrees>
            </Position>
            <AltitudeMeters>121.8000030517578125</AltitudeMeters>
            <DistanceMeters>119483.8724392</DistanceMeters>
          </Trackpoint>
          <Trackpoint>
            <Time>2018-09-13T14:23:30.000Z</Time>
            <Position>
              <LatitudeDegrees>38.993922807276248931884765625</LatitudeDegrees>
              <LongitudeDegrees>-8.13518495298922061920166015625</LongitudeDegrees>
            </Position>
            <AltitudeMeters>122</AltitudeMeters>
            <DistanceMeters>119500.38522783</DistanceMeters>
          </Trackpoint>
          <Trackpoint>
            <Time>2018-09-13T14:23:34.000Z</Time>
            <Position>
              <LatitudeDegrees>38.993746452033519744873046875</LatitudeDegrees>
              <LongitudeDegrees>-8.135119490325450897216796875</LongitudeDegrees>
            </Position>
            <AltitudeMeters>122.40000152587890625</AltitudeMeters>
            <DistanceMeters>119520.81442441</DistanceMeters>
          </Trackpoint>
          <Trackpoint>
            <Time>2018-09-13T14:23:38.000Z</Time>
            <Position>
              <LatitudeDegrees>38.99357520975172519683837890625</LatitudeDegrees>
              <LongitudeDegrees>-8.135055117309093475341796875</LongitudeDegrees>
            </Position>
            <AltitudeMeters>123</AltitudeMeters>
            <DistanceMeters>119540.67114261</DistanceMeters>
          </Trackpoint>
          <Trackpoint>
            <Time>2018-09-13T14:23:42.000Z</Time>
            <Position>
              <LatitudeDegrees>38.99341042153537273406982421875</LatitudeDegrees>
              <LongitudeDegrees>-8.13499451614916324615478515625</LongitudeDegrees>
            </Position>
            <AltitudeMeters>123.59999847412109375</AltitudeMeters>
            <DistanceMeters>119559.74667565</DistanceMeters>
          </Trackpoint>
          <Trackpoint>
            <Time>2018-09-13T14:23:45.000Z</Time>
            <Position>
              <LatitudeDegrees>38.993291147053241729736328125</LatitudeDegrees>
              <LongitudeDegrees>-8.13495042733848094940185546875</LongitudeDegrees>
            </Position>
            <AltitudeMeters>123.8000030517578125</AltitudeMeters>
            <DistanceMeters>119573.55893198</DistanceMeters>
          </Trackpoint>
          <Trackpoint>
            <Time>2018-09-13T14:23:48.000Z</Time>
            <Position>
              <LatitudeDegrees>38.993175141513347625732421875</LatitudeDegrees>
              <LongitudeDegrees>-8.13490197993814945220947265625</LongitudeDegrees>
            </Position>
            <AltitudeMeters>124.1999969482421875</AltitudeMeters>
            <DistanceMeters>119587.13345738</DistanceMeters>
          </Trackpoint>
          <Trackpoint>
            <Time>2018-09-13T14:23:52.000Z</Time>
            <Position>
              <LatitudeDegrees>38.99301781319081783294677734375</LatitudeDegrees>
              <LongitudeDegrees>-8.134853281080722808837890625</LongitudeDegrees>
            </Position>
            <AltitudeMeters>124.59999847412109375</AltitudeMeters>
            <DistanceMeters>119605.14396559</DistanceMeters>
          </Trackpoint>
          <Trackpoint>
            <Time>2018-09-13T14:23:57.000Z</Time>
            <Position>
              <LatitudeDegrees>38.99281865917146205902099609375</LatitudeDegrees>
              <LongitudeDegrees>-8.134804666042327880859375</LongitudeDegrees>
            </Position>
            <AltitudeMeters>125</AltitudeMeters>
            <DistanceMeters>119627.70515681</DistanceMeters>
          </Trackpoint>
          <Trackpoint>
            <Time>2018-09-13T14:24:01.000Z</Time>
            <Position>
              <LatitudeDegrees>38.99265579879283905029296875</LatitudeDegrees>
              <LongitudeDegrees>-8.13478178344666957855224609375</LongitudeDegrees>
            </Position>
            <AltitudeMeters>125.40000152587890625</AltitudeMeters>
            <DistanceMeters>119645.93964185</DistanceMeters>
          </Trackpoint>
          <Trackpoint>
            <Time>2018-09-13T14:24:05.000Z</Time>
            <Position>
              <LatitudeDegrees>38.9924970455467700958251953125</LatitudeDegrees>
              <LongitudeDegrees>-8.134788908064365386962890625</LongitudeDegrees>
            </Position>
            <AltitudeMeters>126</AltitudeMeters>
            <DistanceMeters>119663.61997432</DistanceMeters>
          </Trackpoint>
          <Trackpoint>
            <Time>2018-09-13T14:24:08.000Z</Time>
            <Position>
              <LatitudeDegrees>38.99238229729235172271728515625</LatitudeDegrees>
              <LongitudeDegrees>-8.13480801880359649658203125</LongitudeDegrees>
            </Position>
            <AltitudeMeters>126.40000152587890625</AltitudeMeters>
            <DistanceMeters>119676.49811021</DistanceMeters>
          </Trackpoint>
          <Trackpoint>
            <Time>2018-09-13T14:24:12.000Z</Time>
            <Position>
              <LatitudeDegrees>38.9922348596155643463134765625</LatitudeDegrees>
              <LongitudeDegrees>-8.13485302962362766265869140625</LongitudeDegrees>
            </Position>
            <AltitudeMeters>126.8000030517578125</AltitudeMeters>
            <DistanceMeters>119693.36367892</DistanceMeters>
          </Trackpoint>
          <Trackpoint>
            <Time>2018-09-13T14:24:15.000Z</Time>
            <Position>
              <LatitudeDegrees>38.9921265654265880584716796875</LatitudeDegrees>
              <LongitudeDegrees>-8.1349132955074310302734375</LongitudeDegrees>
            </Position>
            <AltitudeMeters>127.1999969482421875</AltitudeMeters>
            <DistanceMeters>119706.49594453</DistanceMeters>
          </Trackpoint>
          <Trackpoint>
            <Time>2018-09-13T14:24:19.000Z</Time>
            <Position>
              <LatitudeDegrees>38.9919840730726718902587890625</LatitudeDegrees>
              <LongitudeDegrees>-8.13500306569039821624755859375</LongitudeDegrees>
            </Position>
            <AltitudeMeters>127.8000030517578125</AltitudeMeters>
            <DistanceMeters>119724.15506851</DistanceMeters>
          </Trackpoint>
          <Trackpoint>
            <Time>2018-09-13T14:24:22.000Z</Time>
            <Position>
              <LatitudeDegrees>38.99188441224396228790283203125</LatitudeDegrees>
              <LongitudeDegrees>-8.13508093357086181640625</LongitudeDegrees>
            </Position>
            <AltitudeMeters>128</AltitudeMeters>
            <DistanceMeters>119737.13239203</DistanceMeters>
          </Trackpoint>
          <Trackpoint>
            <Time>2018-09-13T14:24:25.000Z</Time>
            <Position>
              <LatitudeDegrees>38.99178282357752323150634765625</LatitudeDegrees>
              <LongitudeDegrees>-8.13515963964164257049560546875</LongitudeDegrees>
            </Position>
            <AltitudeMeters>128.1999969482421875</AltitudeMeters>
            <DistanceMeters>119750.33118874</DistanceMeters>
          </Trackpoint>
          <Trackpoint>
            <Time>2018-09-13T14:24:27.000Z</Time>
            <Position>
              <LatitudeDegrees>38.99171308614313602447509765625</LatitudeDegrees>
              <LongitudeDegrees>-8.13521697185933589935302734375</LongitudeDegrees>
            </Position>
            <AltitudeMeters>128.1999969482421875</AltitudeMeters>
            <DistanceMeters>119759.54241007</DistanceMeters>
          </Trackpoint>
          <Trackpoint>
            <Time>2018-09-13T14:24:30.000Z</Time>
            <Position>
              <LatitudeDegrees>38.991604037582874298095703125</LatitudeDegrees>
              <LongitudeDegrees>-8.1353048980236053466796875</LongitudeDegrees>
            </Position>
            <AltitudeMeters>128.399993896484375</AltitudeMeters>
            <DistanceMeters>119773.86593396</DistanceMeters>
          </Trackpoint>
          <Trackpoint>
            <Time>2018-09-13T14:24:32.000Z</Time>
            <Position>
              <LatitudeDegrees>38.991528935730457305908203125</LatitudeDegrees>
              <LongitudeDegrees>-8.1353630684316158294677734375</LongitudeDegrees>
            </Position>
            <AltitudeMeters>128.399993896484375</AltitudeMeters>
            <DistanceMeters>119783.62272985</DistanceMeters>
          </Trackpoint>
          <Trackpoint>
            <Time>2018-09-13T14:24:34.000Z</Time>
            <Position>
              <LatitudeDegrees>38.99145207367837429046630859375</LatitudeDegrees>
              <LongitudeDegrees>-8.13542400486767292022705078125</LongitudeDegrees>
            </Position>
            <AltitudeMeters>128.600006103515625</AltitudeMeters>
            <DistanceMeters>119793.6713275</DistanceMeters>
          </Trackpoint>
          <Trackpoint>
            <Time>2018-09-13T14:24:36.000Z</Time>
            <Position>
              <LatitudeDegrees>38.99136926047503948211669921875</LatitudeDegrees>
              <LongitudeDegrees>-8.13549139536917209625244140625</LongitudeDegrees>
            </Position>
            <AltitudeMeters>128.600006103515625</AltitudeMeters>
            <DistanceMeters>119804.57748021</DistanceMeters>
          </Trackpoint>
          <Trackpoint>
            <Time>2018-09-13T14:24:38.000Z</Time>
            <Position>
              <LatitudeDegrees>38.991279490292072296142578125</LatitudeDegrees>
              <LongitudeDegrees>-8.1355628930032253265380859375</LongitudeDegrees>
            </Position>
            <AltitudeMeters>128.8000030517578125</AltitudeMeters>
            <DistanceMeters>119816.32894646</DistanceMeters>
          </Trackpoint>
          <Trackpoint>
            <Time>2018-09-13T14:24:40.000Z</Time>
            <Position>
              <LatitudeDegrees>38.99118184112012386322021484375</LatitudeDegrees>
              <LongitudeDegrees>-8.13563874922692775726318359375</LongitudeDegrees>
            </Position>
            <AltitudeMeters>128.8000030517578125</AltitudeMeters>
            <DistanceMeters>119829.02488536</DistanceMeters>
          </Trackpoint>
          <Trackpoint>
            <Time>2018-09-13T14:24:43.000Z</Time>
            <Position>
              <LatitudeDegrees>38.99101554416120052337646484375</LatitudeDegrees>
              <LongitudeDegrees>-8.13576213084161281585693359375</LongitudeDegrees>
            </Position>
            <AltitudeMeters>129</AltitudeMeters>
            <DistanceMeters>119850.39132036</DistanceMeters>
          </Trackpoint>
          <Trackpoint>
            <Time>2018-09-13T14:24:46.000Z</Time>
            <Position>
              <LatitudeDegrees>38.9908287115395069122314453125</LatitudeDegrees>
              <LongitudeDegrees>-8.135911412537097930908203125</LongitudeDegrees>
            </Position>
            <AltitudeMeters>128.600006103515625</AltitudeMeters>
            <DistanceMeters>119874.86987735</DistanceMeters>
          </Trackpoint>
          <Trackpoint>
            <Time>2018-09-13T14:24:49.000Z</Time>
            <Position>
              <LatitudeDegrees>38.990623019635677337646484375</LatitudeDegrees>
              <LongitudeDegrees>-8.13607678748667240142822265625</LongitudeDegrees>
            </Position>
            <AltitudeMeters>127.8000030517578125</AltitudeMeters>
            <DistanceMeters>119901.86649695</DistanceMeters>
          </Trackpoint>
          <Trackpoint>
            <Time>2018-09-13T14:24:52.000Z</Time>
            <Position>
              <LatitudeDegrees>38.990399725735187530517578125</LatitudeDegrees>
              <LongitudeDegrees>-8.1362515501677989959716796875</LongitudeDegrees>
            </Position>
            <AltitudeMeters>126.59999847412109375</AltitudeMeters>
            <DistanceMeters>119930.95693548</DistanceMeters>
          </Trackpoint>
          <Trackpoint>
            <Time>2018-09-13T14:24:55.000Z</Time>
            <Position>
              <LatitudeDegrees>38.99016846902668476104736328125</LatitudeDegrees>
              <LongitudeDegrees>-8.1364325992763042449951171875</LongitudeDegrees>
            </Position>
            <AltitudeMeters>125.40000152587890625</AltitudeMeters>
            <DistanceMeters>119961.08699813</DistanceMeters>
          </Trackpoint>
          <Trackpoint>
            <Time>2018-09-13T14:24:57.000Z</Time>
            <Position>
              <LatitudeDegrees>38.990011475980281829833984375</LatitudeDegrees>
              <LongitudeDegrees>-8.1365569867193698883056640625</LongitudeDegrees>
            </Position>
            <AltitudeMeters>124.1999969482421875</AltitudeMeters>
            <DistanceMeters>119981.60792854</DistanceMeters>
          </Trackpoint>
          <Trackpoint>
            <Time>2018-09-13T14:24:58.000Z</Time>
            <Position>
              <LatitudeDegrees>38.9899318479001522064208984375</LatitudeDegrees>
              <LongitudeDegrees>-8.13661909662187099456787109375</LongitudeDegrees>
            </Position>
            <AltitudeMeters>123.59999847412109375</AltitudeMeters>
            <DistanceMeters>119991.97237688</DistanceMeters>
          </Trackpoint>
          <Trackpoint>
            <Time>2018-09-13T14:25:00.000Z</Time>
            <Position>
              <LatitudeDegrees>38.989773094654083251953125</LatitudeDegrees>
              <LongitudeDegrees>-8.13674323260784149169921875</LongitudeDegrees>
            </Position>
            <AltitudeMeters>122.40000152587890625</AltitudeMeters>
            <DistanceMeters>120012.64936891</DistanceMeters>
          </Trackpoint>
          <Trackpoint>
            <Time>2018-09-13T14:25:03.000Z</Time>
            <Position>
              <LatitudeDegrees>38.98953479714691638946533203125</LatitudeDegrees>
              <LongitudeDegrees>-8.136931322515010833740234375</LongitudeDegrees>
            </Position>
            <AltitudeMeters>121.1999969482421875</AltitudeMeters>
            <DistanceMeters>120043.76593872</DistanceMeters>
          </Trackpoint>
          <Trackpoint>
            <Time>2018-09-13T14:25:04.000Z</Time>
            <Position>
              <LatitudeDegrees>38.98945382796227931976318359375</LatitudeDegrees>
              <LongitudeDegrees>-8.13699292950332164764404296875</LongitudeDegrees>
            </Position>
            <AltitudeMeters>120.8000030517578125</AltitudeMeters>
            <DistanceMeters>120054.23614063</DistanceMeters>
          </Trackpoint>
          <Trackpoint>
            <Time>2018-09-13T14:25:06.000Z</Time>
            <Position>
              <LatitudeDegrees>38.98929339833557605743408203125</LatitudeDegrees>
              <LongitudeDegrees>-8.13712066970765590667724609375</LongitudeDegrees>
            </Position>
            <AltitudeMeters>121.1999969482421875</AltitudeMeters>
            <DistanceMeters>120075.23510948</DistanceMeters>
          </Trackpoint>
          <Trackpoint>
            <Time>2018-09-13T14:25:10.000Z</Time>
            <Position>
              <LatitudeDegrees>38.98898863233625888824462890625</LatitudeDegrees>
              <LongitudeDegrees>-8.13736139796674251556396484375</LongitudeDegrees>
            </Position>
            <AltitudeMeters>122.40000152587890625</AltitudeMeters>
            <DistanceMeters>120115.03894061</DistanceMeters>
          </Trackpoint>
          <Trackpoint>
            <Time>2018-09-13T14:25:14.000Z</Time>
            <Position>
              <LatitudeDegrees>38.988708592951297760009765625</LatitudeDegrees>
              <LongitudeDegrees>-8.13756826333701610565185546875</LongitudeDegrees>
            </Position>
            <AltitudeMeters>123.40000152587890625</AltitudeMeters>
            <DistanceMeters>120150.9802751</DistanceMeters>
          </Trackpoint>
          <Trackpoint>
            <Time>2018-09-13T14:25:16.000Z</Time>
            <Position>
              <LatitudeDegrees>38.98857749998569488525390625</LatitudeDegrees>
              <LongitudeDegrees>-8.137654177844524383544921875</LongitudeDegrees>
            </Position>
            <AltitudeMeters>124</AltitudeMeters>
            <DistanceMeters>120167.35522823</DistanceMeters>
          </Trackpoint>
          <Trackpoint>
            <Time>2018-09-13T14:25:21.000Z</Time>
            <Position>
              <LatitudeDegrees>38.98825957439839839935302734375</LatitudeDegrees>
              <LongitudeDegrees>-8.1377918086946010589599609375</LongitudeDegrees>
            </Position>
            <AltitudeMeters>125</AltitudeMeters>
            <DistanceMeters>120204.69044914</DistanceMeters>
          </Trackpoint>
          <Trackpoint>
            <Time>2018-09-13T14:25:25.000Z</Time>
            <Position>
              <LatitudeDegrees>38.98801851086318492889404296875</LatitudeDegrees>
              <LongitudeDegrees>-8.13783447258174419403076171875</LongitudeDegrees>
            </Position>
            <AltitudeMeters>126.1999969482421875</AltitudeMeters>
            <DistanceMeters>120231.774063</DistanceMeters>
          </Trackpoint>
          <Trackpoint>
            <Time>2018-09-13T14:25:28.000Z</Time>
            <Position>
              <LatitudeDegrees>38.98784768767654895782470703125</LatitudeDegrees>
              <LongitudeDegrees>-8.1378410942852497100830078125</LongitudeDegrees>
            </Position>
            <AltitudeMeters>127</AltitudeMeters>
            <DistanceMeters>120250.79555355</DistanceMeters>
          </Trackpoint>
          <Trackpoint>
            <Time>2018-09-13T14:25:32.000Z</Time>
            <Position>
              <LatitudeDegrees>38.98762933909893035888671875</LatitudeDegrees>
              <LongitudeDegrees>-8.13782039098441600799560546875</LongitudeDegrees>
            </Position>
            <AltitudeMeters>128</AltitudeMeters>
            <DistanceMeters>120275.16393116</DistanceMeters>
          </Trackpoint>
          <Trackpoint>
            <Time>2018-09-13T14:25:35.000Z</Time>
            <Position>
              <LatitudeDegrees>38.987466059625148773193359375</LatitudeDegrees>
              <LongitudeDegrees>-8.13778971321880817413330078125</LongitudeDegrees>
            </Position>
            <AltitudeMeters>128.399993896484375</AltitudeMeters>
            <DistanceMeters>120293.52991807</DistanceMeters>
          </Trackpoint>
          <Trackpoint>
            <Time>2018-09-13T14:25:39.000Z</Time>
            <Position>
              <LatitudeDegrees>38.9872513152658939361572265625</LatitudeDegrees>
              <LongitudeDegrees>-8.13774193637073040008544921875</LongitudeDegrees>
            </Position>
            <AltitudeMeters>128.600006103515625</AltitudeMeters>
            <DistanceMeters>120317.78594064</DistanceMeters>
          </Trackpoint>
          <Trackpoint>
            <Time>2018-09-13T14:25:43.000Z</Time>
            <Position>
              <LatitudeDegrees>38.9870457910001277923583984375</LatitudeDegrees>
              <LongitudeDegrees>-8.13769583590328693389892578125</LongitudeDegrees>
            </Position>
            <AltitudeMeters>128.8000030517578125</AltitudeMeters>
            <DistanceMeters>120341.0063167</DistanceMeters>
          </Trackpoint>
          <Trackpoint>
            <Time>2018-09-13T14:25:46.000Z</Time>
            <Position>
              <LatitudeDegrees>38.98689382709562778472900390625</LatitudeDegrees>
              <LongitudeDegrees>-8.1376576982438564300537109375</LongitudeDegrees>
            </Position>
            <AltitudeMeters>129</AltitudeMeters>
            <DistanceMeters>120358.23893385</DistanceMeters>
          </Trackpoint>
          <Trackpoint>
            <Time>2018-09-13T14:25:49.000Z</Time>
            <Position>
              <LatitudeDegrees>38.986745215952396392822265625</LatitudeDegrees>
              <LongitudeDegrees>-8.13762442208826541900634765625</LongitudeDegrees>
            </Position>
            <AltitudeMeters>129.1999969482421875</AltitudeMeters>
            <DistanceMeters>120375.02830151</DistanceMeters>
          </Trackpoint>
          <Trackpoint>
            <Time>2018-09-13T14:25:58.000Z</Time>
            <Position>
              <LatitudeDegrees>38.98630156181752681732177734375</LatitudeDegrees>
              <LongitudeDegrees>-8.13750632107257843017578125</LongitudeDegrees>
            </Position>
            <AltitudeMeters>129.8000030517578125</AltitudeMeters>
            <DistanceMeters>120425.45392105</DistanceMeters>
          </Trackpoint>
          <Trackpoint>
            <Time>2018-09-13T14:26:03.000Z</Time>
            <Position>
              <LatitudeDegrees>38.9860570617020130157470703125</LatitudeDegrees>
              <LongitudeDegrees>-8.137451000511646270751953125</LongitudeDegrees>
            </Position>
            <AltitudeMeters>130.399993896484375</AltitudeMeters>
            <DistanceMeters>120453.08497067</DistanceMeters>
          </Trackpoint>
          <Trackpoint>
            <Time>2018-09-13T14:26:07.000Z</Time>
            <Position>
              <LatitudeDegrees>38.985861428081989288330078125</LatitudeDegrees>
              <LongitudeDegrees>-8.137402050197124481201171875</LongitudeDegrees>
            </Position>
            <AltitudeMeters>131</AltitudeMeters>
            <DistanceMeters>120475.26714516</DistanceMeters>
          </Trackpoint>
          <Trackpoint>
            <Time>2018-09-13T14:26:10.000Z</Time>
            <Position>
              <LatitudeDegrees>38.98571399040520191192626953125</LatitudeDegrees>
              <LongitudeDegrees>-8.137367181479930877685546875</LongitudeDegrees>
            </Position>
            <AltitudeMeters>131.399993896484375</AltitudeMeters>
            <DistanceMeters>120491.95238585</DistanceMeters>
          </Trackpoint>
          <Trackpoint>
            <Time>2018-09-13T14:26:16.000Z</Time>
            <Position>
              <LatitudeDegrees>38.98542062379419803619384765625</LatitudeDegrees>
              <LongitudeDegrees>-8.13729576766490936279296875</LongitudeDegrees>
            </Position>
            <AltitudeMeters>132</AltitudeMeters>
            <DistanceMeters>120525.18403084</DistanceMeters>
          </Trackpoint>
          <Trackpoint>
            <Time>2018-09-13T14:26:22.000Z</Time>
            <Position>
              <LatitudeDegrees>38.985138572752475738525390625</LatitudeDegrees>
              <LongitudeDegrees>-8.137223683297634124755859375</LongitudeDegrees>
            </Position>
            <AltitudeMeters>131.8000030517578125</AltitudeMeters>
            <DistanceMeters>120557.19012295</DistanceMeters>
          </Trackpoint>
          <Trackpoint>
            <Time>2018-09-13T14:26:31.000Z</Time>
            <Position>
              <LatitudeDegrees>38.98469206877052783966064453125</LatitudeDegrees>
              <LongitudeDegrees>-8.13711429946124553680419921875</LongitudeDegrees>
            </Position>
            <AltitudeMeters>131</AltitudeMeters>
            <DistanceMeters>120607.77995746</DistanceMeters>
          </Trackpoint>
          <Trackpoint>
            <Time>2018-09-13T14:26:36.000Z</Time>
            <Position>
              <LatitudeDegrees>38.984390236437320709228515625</LatitudeDegrees>
              <LongitudeDegrees>-8.1370401196181774139404296875</LongitudeDegrees>
            </Position>
            <AltitudeMeters>130.600006103515625</AltitudeMeters>
            <DistanceMeters>120641.98191885</DistanceMeters>
          </Trackpoint>
          <Trackpoint>
            <Time>2018-09-13T14:26:39.000Z</Time>
            <Position>
              <LatitudeDegrees>38.9841895736753940582275390625</LatitudeDegrees>
              <LongitudeDegrees>-8.1369891576468944549560546875</LongitudeDegrees>
            </Position>
            <AltitudeMeters>129.600006103515625</AltitudeMeters>
            <DistanceMeters>120664.74711481</DistanceMeters>
          </Trackpoint>
          <Trackpoint>
            <Time>2018-09-13T14:26:43.000Z</Time>
            <Position>
              <LatitudeDegrees>38.98390106856822967529296875</LatitudeDegrees>
              <LongitudeDegrees>-8.13691933639347553253173828125</LongitudeDegrees>
            </Position>
            <AltitudeMeters>129.1999969482421875</AltitudeMeters>
            <DistanceMeters>120697.42152235</DistanceMeters>
          </Trackpoint>
          <Trackpoint>
            <Time>2018-09-13T14:26:47.000Z</Time>
            <Position>
              <LatitudeDegrees>38.98360066115856170654296875</LatitudeDegrees>
              <LongitudeDegrees>-8.1368496827781200408935546875</LongitudeDegrees>
            </Position>
            <AltitudeMeters>128.8000030517578125</AltitudeMeters>
            <DistanceMeters>120731.39646329</DistanceMeters>
          </Trackpoint>
          <Trackpoint>
            <Time>2018-09-13T14:26:48.000Z</Time>
            <Position>
              <LatitudeDegrees>38.9835250563919544219970703125</LatitudeDegrees>
              <LongitudeDegrees>-8.13683182932436466217041015625</LongitudeDegrees>
            </Position>
            <AltitudeMeters>128.8000030517578125</AltitudeMeters>
            <DistanceMeters>120739.95203455</DistanceMeters>
          </Trackpoint>
          <Trackpoint>
            <Time>2018-09-13T14:26:52.000Z</Time>
            <Position>
              <LatitudeDegrees>38.98321081884205341339111328125</LatitudeDegrees>
              <LongitudeDegrees>-8.1367532908916473388671875</LongitudeDegrees>
            </Position>
            <AltitudeMeters>126.8000030517578125</AltitudeMeters>
            <DistanceMeters>120775.58122366</DistanceMeters>
          </Trackpoint>
          <Trackpoint>
            <Time>2018-09-13T14:26:56.000Z</Time>
            <Position>
              <LatitudeDegrees>38.98287856020033359527587890625</LatitudeDegrees>
              <LongitudeDegrees>-8.1366620957851409912109375</LongitudeDegrees>
            </Position>
            <AltitudeMeters>125</AltitudeMeters>
            <DistanceMeters>120813.39469248</DistanceMeters>
          </Trackpoint>
          <Trackpoint>
            <Time>2018-09-13T14:27:00.000Z</Time>
            <Position>
              <LatitudeDegrees>38.98254454135894775390625</LatitudeDegrees>
              <LongitudeDegrees>-8.13654365949332714080810546875</LongitudeDegrees>
            </Position>
            <AltitudeMeters>123.59999847412109375</AltitudeMeters>
            <DistanceMeters>120851.95798032</DistanceMeters>
          </Trackpoint>
          <Trackpoint>
            <Time>2018-09-13T14:27:02.000Z</Time>
            <Position>
              <LatitudeDegrees>38.98238251917064189910888671875</LatitudeDegrees>
              <LongitudeDegrees>-8.13646218739449977874755859375</LongitudeDegrees>
            </Position>
            <AltitudeMeters>123</AltitudeMeters>
            <DistanceMeters>120871.32012518</DistanceMeters>
          </Trackpoint>
          <Trackpoint>
            <Time>2018-09-13T14:27:04.000Z</Time>
            <Position>
              <LatitudeDegrees>38.98222208954393863677978515625</LatitudeDegrees>
              <LongitudeDegrees>-8.13636629842221736907958984375</LongitudeDegrees>
            </Position>
            <AltitudeMeters>122.40000152587890625</AltitudeMeters>
            <DistanceMeters>120891.00923846</DistanceMeters>
          </Trackpoint>
          <Trackpoint>
            <Time>2018-09-13T14:27:10.000Z</Time>
            <Position>
              <LatitudeDegrees>38.98174859583377838134765625</LatitudeDegrees>
              <LongitudeDegrees>-8.13600185327231884002685546875</LongitudeDegrees>
            </Position>
            <AltitudeMeters>120.40000152587890625</AltitudeMeters>
            <DistanceMeters>120952.42282123</DistanceMeters>
          </Trackpoint>
          <Trackpoint>
            <Time>2018-09-13T14:27:16.000Z</Time>
            <Position>
              <LatitudeDegrees>38.98127342574298381805419921875</LatitudeDegrees>
              <LongitudeDegrees>-8.13561092130839824676513671875</LongitudeDegrees>
            </Position>
            <AltitudeMeters>117.40000152587890625</AltitudeMeters>
            <DistanceMeters>121015.2011109</DistanceMeters>
          </Trackpoint>
          <Trackpoint>
            <Time>2018-09-13T14:27:22.000Z</Time>
            <Position>
              <LatitudeDegrees>38.9807731099426746368408203125</LatitudeDegrees>
              <LongitudeDegrees>-8.13526491634547710418701171875</LongitudeDegrees>
            </Position>
            <AltitudeMeters>117</AltitudeMeters>
            <DistanceMeters>121078.42416293</DistanceMeters>
          </Trackpoint>
          <Trackpoint>
            <Time>2018-09-13T14:27:29.000Z</Time>
            <Position>
              <LatitudeDegrees>38.98016299121081829071044921875</LatitudeDegrees>
              <LongitudeDegrees>-8.13508638180792331695556640625</LongitudeDegrees>
            </Position>
            <AltitudeMeters>116.1999969482421875</AltitudeMeters>
            <DistanceMeters>121148.06629793</DistanceMeters>
          </Trackpoint>
          <Trackpoint>
            <Time>2018-09-13T14:27:33.000Z</Time>
            <Position>
              <LatitudeDegrees>38.97981296293437480926513671875</LatitudeDegrees>
              <LongitudeDegrees>-8.13508319668471813201904296875</LongitudeDegrees>
            </Position>
            <AltitudeMeters>116.59999847412109375</AltitudeMeters>
            <DistanceMeters>121187.02609195</DistanceMeters>
          </Trackpoint>
          <Trackpoint>
            <Time>2018-09-13T14:27:40.000Z</Time>
            <Position>
              <LatitudeDegrees>38.979231007397174835205078125</LatitudeDegrees>
              <LongitudeDegrees>-8.13514371402561664581298828125</LongitudeDegrees>
            </Position>
            <AltitudeMeters>118.1999969482421875</AltitudeMeters>
            <DistanceMeters>121252.01019238</DistanceMeters>
          </Trackpoint>
          <Trackpoint>
            <Time>2018-09-13T14:27:48.000Z</Time>
            <Position>
              <LatitudeDegrees>38.97869682870805263519287109375</LatitudeDegrees>
              <LongitudeDegrees>-8.13527916558086872100830078125</LongitudeDegrees>
            </Position>
            <AltitudeMeters>121.59999847412109375</AltitudeMeters>
            <DistanceMeters>121312.6094516</DistanceMeters>
          </Trackpoint>
          <Trackpoint>
            <Time>2018-09-13T14:27:52.000Z</Time>
            <Position>
              <LatitudeDegrees>38.978483676910400390625</LatitudeDegrees>
              <LongitudeDegrees>-8.13535812310874462127685546875</LongitudeDegrees>
            </Position>
            <AltitudeMeters>122.40000152587890625</AltitudeMeters>
            <DistanceMeters>121337.29793332</DistanceMeters>
          </Trackpoint>
          <Trackpoint>
            <Time>2018-09-13T14:27:54.000Z</Time>
            <Position>
              <LatitudeDegrees>38.9783795736730098724365234375</LatitudeDegrees>
              <LongitudeDegrees>-8.1353934109210968017578125</LongitudeDegrees>
            </Position>
            <AltitudeMeters>122.8000030517578125</AltitudeMeters>
            <DistanceMeters>121349.27996927</DistanceMeters>
          </Trackpoint>
          <Trackpoint>
            <Time>2018-09-13T14:27:56.000Z</Time>
            <Position>
              <LatitudeDegrees>38.97827706299722194671630859375</LatitudeDegrees>
              <LongitudeDegrees>-8.13543029129505157470703125</LongitudeDegrees>
            </Position>
            <AltitudeMeters>123</AltitudeMeters>
            <DistanceMeters>121361.1274799</DistanceMeters>
          </Trackpoint>
          <Trackpoint>
            <Time>2018-09-13T14:27:58.000Z</Time>
            <Position>
              <LatitudeDegrees>38.9781747199594974517822265625</LatitudeDegrees>
              <LongitudeDegrees>-8.13546943478286266326904296875</LongitudeDegrees>
            </Position>
            <AltitudeMeters>123.1999969482421875</AltitudeMeters>
            <DistanceMeters>121373.01151943</DistanceMeters>
          </Trackpoint>
          <Trackpoint>
            <Time>2018-09-13T14:27:59.000Z</Time>
            <Position>
              <LatitudeDegrees>38.9781227521598339080810546875</LatitudeDegrees>
              <LongitudeDegrees>-8.13548737205564975738525390625</LongitudeDegrees>
            </Position>
            <AltitudeMeters>123</AltitudeMeters>
            <DistanceMeters>121378.99971061</DistanceMeters>
          </Trackpoint>
          <Trackpoint>
            <Time>2018-09-13T14:28:00.000Z</Time>
            <Position>
              <LatitudeDegrees>38.9780707843601703643798828125</LatitudeDegrees>
              <LongitudeDegrees>-8.13550539314746856689453125</LongitudeDegrees>
            </Position>
            <AltitudeMeters>123</AltitudeMeters>
            <DistanceMeters>121384.99016333</DistanceMeters>
          </Trackpoint>
          <Trackpoint>
            <Time>2018-09-13T14:28:01.000Z</Time>
            <Position>
              <LatitudeDegrees>38.97801906801760196685791015625</LatitudeDegrees>
              <LongitudeDegrees>-8.1355240009725093841552734375</LongitudeDegrees>
            </Position>
            <AltitudeMeters>123</AltitudeMeters>
            <DistanceMeters>121390.96703395</DistanceMeters>
          </Trackpoint>
          <Trackpoint>
            <Time>2018-09-13T14:28:02.000Z</Time>
            <Position>
              <LatitudeDegrees>38.97796743549406528472900390625</LatitudeDegrees>
              <LongitudeDegrees>-8.135542608797550201416015625</LongitudeDegrees>
            </Position>
            <AltitudeMeters>123</AltitudeMeters>
            <DistanceMeters>121396.93483266</DistanceMeters>
          </Trackpoint>
          <Trackpoint>
            <Time>2018-09-13T14:28:03.000Z</Time>
            <Position>
              <LatitudeDegrees>38.977916724979877471923828125</LatitudeDegrees>
              <LongitudeDegrees>-8.13556197099387645721435546875</LongitudeDegrees>
            </Position>
            <AltitudeMeters>123</AltitudeMeters>
            <DistanceMeters>121402.82188909</DistanceMeters>
          </Trackpoint>
          <Trackpoint>
            <Time>2018-09-13T14:28:04.000Z</Time>
            <Position>
              <LatitudeDegrees>38.9778662659227848052978515625</LatitudeDegrees>
              <LongitudeDegrees>-8.13558208756148815155029296875</LongitudeDegrees>
            </Position>
            <AltitudeMeters>122.8000030517578125</AltitudeMeters>
            <DistanceMeters>121408.70127109</DistanceMeters>
          </Trackpoint>
          <Trackpoint>
            <Time>2018-09-13T14:28:05.000Z</Time>
            <Position>
              <LatitudeDegrees>38.977816142141819000244140625</LatitudeDegrees>
              <LongitudeDegrees>-8.13560052774846553802490234375</LongitudeDegrees>
            </Position>
            <AltitudeMeters>122.8000030517578125</AltitudeMeters>
            <DistanceMeters>121414.5049066</DistanceMeters>
          </Trackpoint>
          <Trackpoint>
            <Time>2018-09-13T14:28:06.000Z</Time>
            <Position>
              <LatitudeDegrees>38.97776660509407520294189453125</LatitudeDegrees>
              <LongitudeDegrees>-8.1356178782880306243896484375</LongitudeDegrees>
            </Position>
            <AltitudeMeters>122.8000030517578125</AltitudeMeters>
            <DistanceMeters>121420.21995572</DistanceMeters>
          </Trackpoint>
          <Trackpoint>
            <Time>2018-09-13T14:28:07.000Z</Time>
            <Position>
              <LatitudeDegrees>38.97771782241761684417724609375</LatitudeDegrees>
              <LongitudeDegrees>-8.1356359831988811492919921875</LongitudeDegrees>
            </Position>
            <AltitudeMeters>122.59999847412109375</AltitudeMeters>
            <DistanceMeters>121425.87144936</DistanceMeters>
          </Trackpoint>
          <Trackpoint>
            <Time>2018-09-13T14:28:08.000Z</Time>
            <Position>
              <LatitudeDegrees>38.97767004556953907012939453125</LatitudeDegrees>
              <LongitudeDegrees>-8.13565383665263652801513671875</LongitudeDegrees>
            </Position>
            <AltitudeMeters>122.59999847412109375</AltitudeMeters>
            <DistanceMeters>121431.40915102</DistanceMeters>
          </Trackpoint>
          <Trackpoint>
            <Time>2018-09-13T14:28:09.000Z</Time>
            <Position>
              <LatitudeDegrees>38.97762310691177845001220703125</LatitudeDegrees>
              <LongitudeDegrees>-8.13567034900188446044921875</LongitudeDegrees>
            </Position>
            <AltitudeMeters>122.40000152587890625</AltitudeMeters>
            <DistanceMeters>121436.8248401</DistanceMeters>
          </Trackpoint>
          <Trackpoint>
            <Time>2018-09-13T14:28:10.000Z</Time>
            <Position>
              <LatitudeDegrees>38.97757683880627155303955078125</LatitudeDegrees>
              <LongitudeDegrees>-8.13568669371306896209716796875</LongitudeDegrees>
            </Position>
            <AltitudeMeters>122.40000152587890625</AltitudeMeters>
            <DistanceMeters>121442.16496945</DistanceMeters>
          </Trackpoint>
          <Trackpoint>
            <Time>2018-09-13T14:28:11.000Z</Time>
            <Position>
              <LatitudeDegrees>38.977531492710113525390625</LatitudeDegrees>
              <LongitudeDegrees>-8.135703541338443756103515625</LongitudeDegrees>
            </Position>
            <AltitudeMeters>122.40000152587890625</AltitudeMeters>
            <DistanceMeters>121447.41815073</DistanceMeters>
          </Trackpoint>
          <Trackpoint>
            <Time>2018-09-13T14:28:13.000Z</Time>
            <Position>
              <LatitudeDegrees>38.9774424768984317779541015625</LatitudeDegrees>
              <LongitudeDegrees>-8.13573245890438556671142578125</LongitudeDegrees>
            </Position>
            <AltitudeMeters>122.1999969482421875</AltitudeMeters>
            <DistanceMeters>121457.63694733</DistanceMeters>
          </Trackpoint>
          <Trackpoint>
            <Time>2018-09-13T14:28:15.000Z</Time>
            <Position>
              <LatitudeDegrees>38.9773542992770671844482421875</LatitudeDegrees>
              <LongitudeDegrees>-8.13575525768101215362548828125</LongitudeDegrees>
            </Position>
            <AltitudeMeters>122</AltitudeMeters>
            <DistanceMeters>121467.64773094</DistanceMeters>
          </Trackpoint>
          <Trackpoint>
            <Time>2018-09-13T14:28:17.000Z</Time>
            <Position>
              <LatitudeDegrees>38.97726754657924175262451171875</LatitudeDegrees>
              <LongitudeDegrees>-8.13577487133443355560302734375</LongitudeDegrees>
            </Position>
            <AltitudeMeters>121.8000030517578125</AltitudeMeters>
            <DistanceMeters>121477.45161454</DistanceMeters>
          </Trackpoint>
          <Trackpoint>
            <Time>2018-09-13T14:28:19.000Z</Time>
            <Position>
              <LatitudeDegrees>38.97718020714819431304931640625</LatitudeDegrees>
              <LongitudeDegrees>-8.135790713131427764892578125</LongitudeDegrees>
            </Position>
            <AltitudeMeters>121.59999847412109375</AltitudeMeters>
            <DistanceMeters>121487.26884459</DistanceMeters>
          </Trackpoint>
          <Trackpoint>
            <Time>2018-09-13T14:28:21.000Z</Time>
            <Position>
              <LatitudeDegrees>38.97709018550813198089599609375</LatitudeDegrees>
              <LongitudeDegrees>-8.1357972510159015655517578125</LongitudeDegrees>
            </Position>
            <AltitudeMeters>121.59999847412109375</AltitudeMeters>
            <DistanceMeters>121497.30395358</DistanceMeters>
          </Trackpoint>
          <Trackpoint>
            <Time>2018-09-13T14:28:24.000Z</Time>
            <Position>
              <LatitudeDegrees>38.9769507944583892822265625</LatitudeDegrees>
              <LongitudeDegrees>-8.13578995876014232635498046875</LongitudeDegrees>
            </Position>
            <AltitudeMeters>121.59999847412109375</AltitudeMeters>
            <DistanceMeters>121512.83115588</DistanceMeters>
          </Trackpoint>
          <Trackpoint>
            <Time>2018-09-13T14:28:27.000Z</Time>
            <Position>
              <LatitudeDegrees>38.9768004231154918670654296875</LatitudeDegrees>
              <LongitudeDegrees>-8.13576313666999340057373046875</LongitudeDegrees>
            </Position>
            <AltitudeMeters>122</AltitudeMeters>
            <DistanceMeters>121529.72801733</DistanceMeters>
          </Trackpoint>
          <Trackpoint>
            <Time>2018-09-13T14:28:37.000Z</Time>
            <Position>
              <LatitudeDegrees>38.97625098936259746551513671875</LatitudeDegrees>
              <LongitudeDegrees>-8.13556800596415996551513671875</LongitudeDegrees>
            </Position>
            <AltitudeMeters>123.59999847412109375</AltitudeMeters>
            <DistanceMeters>121593.16907881</DistanceMeters>
          </Trackpoint>
          <Trackpoint>
            <Time>2018-09-13T14:28:41.000Z</Time>
            <Position>
              <LatitudeDegrees>38.976031802594661712646484375</LatitudeDegrees>
              <LongitudeDegrees>-8.1354827620089054107666015625</LongitudeDegrees>
            </Position>
            <AltitudeMeters>124.40000152587890625</AltitudeMeters>
            <DistanceMeters>121618.65555539</DistanceMeters>
          </Trackpoint>
          <Trackpoint>
            <Time>2018-09-13T14:28:50.000Z</Time>
            <Position>
              <LatitudeDegrees>38.97559225559234619140625</LatitudeDegrees>
              <LongitudeDegrees>-8.1353074125945568084716796875</LongitudeDegrees>
            </Position>
            <AltitudeMeters>127.1999969482421875</AltitudeMeters>
            <DistanceMeters>121669.87671743</DistanceMeters>
          </Trackpoint>
          <Trackpoint>
            <Time>2018-09-13T14:28:58.000Z</Time>
            <Position>
              <LatitudeDegrees>38.97526008076965808868408203125</LatitudeDegrees>
              <LongitudeDegrees>-8.13517388887703418731689453125</LongitudeDegrees>
            </Position>
            <AltitudeMeters>128.8000030517578125</AltitudeMeters>
            <DistanceMeters>121708.61149923</DistanceMeters>
          </Trackpoint>
          <Trackpoint>
            <Time>2018-09-13T14:29:03.000Z</Time>
            <Position>
              <LatitudeDegrees>38.9750598371028900146484375</LatitudeDegrees>
              <LongitudeDegrees>-8.1350903213024139404296875</LongitudeDegrees>
            </Position>
            <AltitudeMeters>130</AltitudeMeters>
            <DistanceMeters>121732.04285958</DistanceMeters>
          </Trackpoint>
          <Trackpoint>
            <Time>2018-09-13T14:29:11.000Z</Time>
            <Position>
              <LatitudeDegrees>38.97473864257335662841796875</LatitudeDegrees>
              <LongitudeDegrees>-8.13495629467070102691650390625</LongitudeDegrees>
            </Position>
            <AltitudeMeters>132.600006103515625</AltitudeMeters>
            <DistanceMeters>121769.62649575</DistanceMeters>
          </Trackpoint>
          <Trackpoint>
            <Time>2018-09-13T14:29:16.000Z</Time>
            <Position>
              <LatitudeDegrees>38.9745339564979076385498046875</LatitudeDegrees>
              <LongitudeDegrees>-8.13487230800092220306396484375</LongitudeDegrees>
            </Position>
            <AltitudeMeters>133.399993896484375</AltitudeMeters>
            <DistanceMeters>121793.5396432</DistanceMeters>
          </Trackpoint>
          <Trackpoint>
            <Time>2018-09-13T14:29:20.000Z</Time>
            <Position>
              <LatitudeDegrees>38.9743624627590179443359375</LatitudeDegrees>
              <LongitudeDegrees>-8.134799636900424957275390625</LongitudeDegrees>
            </Position>
            <AltitudeMeters>133.399993896484375</AltitudeMeters>
            <DistanceMeters>121813.63638918</DistanceMeters>
          </Trackpoint>
          <Trackpoint>
            <Time>2018-09-13T14:29:31.000Z</Time>
            <Position>
              <LatitudeDegrees>38.97383901290595531463623046875</LatitudeDegrees>
              <LongitudeDegrees>-8.13456033356487751007080078125</LongitudeDegrees>
            </Position>
            <AltitudeMeters>132.1999969482421875</AltitudeMeters>
            <DistanceMeters>121875.46775375</DistanceMeters>
          </Trackpoint>
          <Trackpoint>
            <Time>2018-09-13T14:29:37.000Z</Time>
            <Position>
              <LatitudeDegrees>38.9734880626201629638671875</LatitudeDegrees>
              <LongitudeDegrees>-8.13437442295253276824951171875</LongitudeDegrees>
            </Position>
            <AltitudeMeters>129.1999969482421875</AltitudeMeters>
            <DistanceMeters>121917.71212518</DistanceMeters>
          </Trackpoint>
          <Trackpoint>
            <Time>2018-09-13T14:29:39.000Z</Time>
            <Position>
              <LatitudeDegrees>38.9733588136732578277587890625</LatitudeDegrees>
              <LongitudeDegrees>-8.1342972256243228912353515625</LongitudeDegrees>
            </Position>
            <AltitudeMeters>128.1999969482421875</AltitudeMeters>
            <DistanceMeters>121933.57333351</DistanceMeters>
          </Trackpoint>
          <Trackpoint>
            <Time>2018-09-13T14:29:42.000Z</Time>
            <Position>
              <LatitudeDegrees>38.97314884699881076812744140625</LatitudeDegrees>
              <LongitudeDegrees>-8.13416965305805206298828125</LongitudeDegrees>
            </Position>
            <AltitudeMeters>126.40000152587890625</AltitudeMeters>
            <DistanceMeters>121959.41920233</DistanceMeters>
          </Trackpoint>
          <Trackpoint>
            <Time>2018-09-13T14:29:45.000Z</Time>
            <Position>
              <LatitudeDegrees>38.972912728786468505859375</LatitudeDegrees>
              <LongitudeDegrees>-8.13403093256056308746337890625</LongitudeDegrees>
            </Position>
            <AltitudeMeters>124.40000152587890625</AltitudeMeters>
            <DistanceMeters>121988.31123058</DistanceMeters>
          </Trackpoint>
          <Trackpoint>
            <Time>2018-09-13T14:29:47.000Z</Time>
            <Position>
              <LatitudeDegrees>38.97274098359048366546630859375</LatitudeDegrees>
              <LongitudeDegrees>-8.133931271731853485107421875</LongitudeDegrees>
            </Position>
            <AltitudeMeters>122.59999847412109375</AltitudeMeters>
            <DistanceMeters>122009.2822292</DistanceMeters>
          </Trackpoint>
          <Trackpoint>
            <Time>2018-09-13T14:29:49.000Z</Time>
            <Position>
              <LatitudeDegrees>38.972563035786151885986328125</LatitudeDegrees>
              <LongitudeDegrees>-8.13383010216057300567626953125</LongitudeDegrees>
            </Position>
            <AltitudeMeters>120.8000030517578125</AltitudeMeters>
            <DistanceMeters>122030.93664698</DistanceMeters>
          </Trackpoint>
          <Trackpoint>
            <Time>2018-09-13T14:29:50.000Z</Time>
            <Position>
              <LatitudeDegrees>38.97247259505093097686767578125</LatitudeDegrees>
              <LongitudeDegrees>-8.1337782181799411773681640625</LongitudeDegrees>
            </Position>
            <AltitudeMeters>119.8000030517578125</AltitudeMeters>
            <DistanceMeters>122041.95851699</DistanceMeters>
          </Trackpoint>
          <Trackpoint>
            <Time>2018-09-13T14:29:52.000Z</Time>
            <Position>
              <LatitudeDegrees>38.97228819318115711212158203125</LatitudeDegrees>
              <LongitudeDegrees>-8.1336726061999797821044921875</LongitudeDegrees>
            </Position>
            <AltitudeMeters>117.59999847412109375</AltitudeMeters>
            <DistanceMeters>122064.42545298</DistanceMeters>
          </Trackpoint>
          <Trackpoint>
            <Time>2018-09-13T14:29:54.000Z</Time>
            <Position>
              <LatitudeDegrees>38.9721013605594635009765625</LatitudeDegrees>
              <LongitudeDegrees>-8.13356556929647922515869140625</LongitudeDegrees>
            </Position>
            <AltitudeMeters>115.40000152587890625</AltitudeMeters>
            <DistanceMeters>122087.18965727</DistanceMeters>
          </Trackpoint>
          <Trackpoint>
            <Time>2018-09-13T14:29:55.000Z</Time>
            <Position>
              <LatitudeDegrees>38.97200622595846652984619140625</LatitudeDegrees>
              <LongitudeDegrees>-8.1335103325545787811279296875</LongitudeDegrees>
            </Position>
            <AltitudeMeters>114.1999969482421875</AltitudeMeters>
            <DistanceMeters>122098.80703747</DistanceMeters>
          </Trackpoint>
          <Trackpoint>
            <Time>2018-09-13T14:29:56.000Z</Time>
            <Position>
              <LatitudeDegrees>38.97190891206264495849609375</LatitudeDegrees>
              <LongitudeDegrees>-8.13345576636493206024169921875</LongitudeDegrees>
            </Position>
            <AltitudeMeters>113.1999969482421875</AltitudeMeters>
            <DistanceMeters>122110.6228748</DistanceMeters>
          </Trackpoint>
          <Trackpoint>
            <Time>2018-09-13T14:29:57.000Z</Time>
            <Position>
              <LatitudeDegrees>38.9718088321387767791748046875</LatitudeDegrees>
              <LongitudeDegrees>-8.1334017030894756317138671875</LongitudeDegrees>
            </Position>
            <AltitudeMeters>112</AltitudeMeters>
            <DistanceMeters>122122.70510207</DistanceMeters>
          </Trackpoint>
          <Trackpoint>
            <Time>2018-09-13T14:29:58.000Z</Time>
            <Position>
              <LatitudeDegrees>38.9717059023678302764892578125</LatitudeDegrees>
              <LongitudeDegrees>-8.13334948383271694183349609375</LongitudeDegrees>
            </Position>
            <AltitudeMeters>111</AltitudeMeters>
            <DistanceMeters>122135.02013897</DistanceMeters>
          </Trackpoint>
          <Trackpoint>
            <Time>2018-09-13T14:30:00.000Z</Time>
            <Position>
              <LatitudeDegrees>38.97149048745632171630859375</LatitudeDegrees>
              <LongitudeDegrees>-8.13325661234557628631591796875</LongitudeDegrees>
            </Position>
            <AltitudeMeters>109</AltitudeMeters>
            <DistanceMeters>122160.30724583</DistanceMeters>
          </Trackpoint>
          <Trackpoint>
            <Time>2018-09-13T14:30:02.000Z</Time>
            <Position>
              <LatitudeDegrees>38.9712636731564998626708984375</LatitudeDegrees>
              <LongitudeDegrees>-8.13318318687379360198974609375</LongitudeDegrees>
            </Position>
            <AltitudeMeters>107.1999969482421875</AltitudeMeters>
            <DistanceMeters>122186.33901597</DistanceMeters>
          </Trackpoint>
          <Trackpoint>
            <Time>2018-09-13T14:30:04.000Z</Time>
            <Position>
              <LatitudeDegrees>38.97102839313447475433349609375</LatitudeDegrees>
              <LongitudeDegrees>-8.13313088379800319671630859375</LongitudeDegrees>
            </Position>
            <AltitudeMeters>105.59999847412109375</AltitudeMeters>
            <DistanceMeters>122212.91423523</DistanceMeters>
          </Trackpoint>
          <Trackpoint>
            <Time>2018-09-13T14:30:06.000Z</Time>
            <Position>
              <LatitudeDegrees>38.9707905985414981842041015625</LatitudeDegrees>
              <LongitudeDegrees>-8.13310615718364715576171875</LongitudeDegrees>
            </Position>
            <AltitudeMeters>104.40000152587890625</AltitudeMeters>
            <DistanceMeters>122239.46769882</DistanceMeters>
          </Trackpoint>
          <Trackpoint>
            <Time>2018-09-13T14:30:08.000Z</Time>
            <Position>
              <LatitudeDegrees>38.97055498324334621429443359375</LatitudeDegrees>
              <LongitudeDegrees>-8.13310724683105945587158203125</LongitudeDegrees>
            </Position>
            <AltitudeMeters>103.1999969482421875</AltitudeMeters>
            <DistanceMeters>122265.69231745</DistanceMeters>
          </Trackpoint>
          <Trackpoint>
            <Time>2018-09-13T14:30:09.000Z</Time>
            <Position>
              <LatitudeDegrees>38.97043772041797637939453125</LatitudeDegrees>
              <LongitudeDegrees>-8.13311629928648471832275390625</LongitudeDegrees>
            </Position>
            <AltitudeMeters>102.8000030517578125</AltitudeMeters>
            <DistanceMeters>122278.7673856</DistanceMeters>
          </Trackpoint>
          <Trackpoint>
            <Time>2018-09-13T14:30:10.000Z</Time>
            <Position>
              <LatitudeDegrees>38.9703203737735748291015625</LatitudeDegrees>
              <LongitudeDegrees>-8.13312493264675140380859375</LongitudeDegrees>
            </Position>
            <AltitudeMeters>102.1999969482421875</AltitudeMeters>
            <DistanceMeters>122291.84970339</DistanceMeters>
          </Trackpoint>
          <Trackpoint>
            <Time>2018-09-13T14:30:11.000Z</Time>
            <Position>
              <LatitudeDegrees>38.97020344622433185577392578125</LatitudeDegrees>
              <LongitudeDegrees>-8.13313390128314495086669921875</LongitudeDegrees>
            </Position>
            <AltitudeMeters>101.59999847412109375</AltitudeMeters>
            <DistanceMeters>122304.88673138</DistanceMeters>
          </Trackpoint>
          <Trackpoint>
            <Time>2018-09-13T14:30:12.000Z</Time>
            <Position>
              <LatitudeDegrees>38.97008626721799373626708984375</LatitudeDegrees>
              <LongitudeDegrees>-8.13314144499599933624267578125</LongitudeDegrees>
            </Position>
            <AltitudeMeters>101</AltitudeMeters>
            <DistanceMeters>122317.94521382</DistanceMeters>
          </Trackpoint>
          <Trackpoint>
            <Time>2018-09-13T14:30:14.000Z</Time>
            <Position>
              <LatitudeDegrees>38.96985408850014209747314453125</LatitudeDegrees>
              <LongitudeDegrees>-8.1331564486026763916015625</LongitudeDegrees>
            </Position>
            <AltitudeMeters>99.59999847412109375</AltitudeMeters>
            <DistanceMeters>122343.81971609</DistanceMeters>
          </Trackpoint>
          <Trackpoint>
            <Time>2018-09-13T14:30:17.000Z</Time>
            <Position>
              <LatitudeDegrees>38.969512023031711578369140625</LatitudeDegrees>
              <LongitudeDegrees>-8.133184947073459625244140625</LongitudeDegrees>
            </Position>
            <AltitudeMeters>97</AltitudeMeters>
            <DistanceMeters>122381.97196559</DistanceMeters>
          </Trackpoint>
          <Trackpoint>
            <Time>2018-09-13T14:30:19.000Z</Time>
            <Position>
              <LatitudeDegrees>38.9692882262170314788818359375</LatitudeDegrees>
              <LongitudeDegrees>-8.13319793902337551116943359375</LongitudeDegrees>
            </Position>
            <AltitudeMeters>95.40000152587890625</AltitudeMeters>
            <DistanceMeters>122406.9062946</DistanceMeters>
          </Trackpoint>
          <Trackpoint>
            <Time>2018-09-13T14:30:21.000Z</Time>
            <Position>
              <LatitudeDegrees>38.96906836889684200286865234375</LatitudeDegrees>
              <LongitudeDegrees>-8.13321436755359172821044921875</LongitudeDegrees>
            </Position>
            <AltitudeMeters>94.40000152587890625</AltitudeMeters>
            <DistanceMeters>122431.41821408</DistanceMeters>
          </Trackpoint>
          <Trackpoint>
            <Time>2018-09-13T14:30:23.000Z</Time>
            <Position>
              <LatitudeDegrees>38.9688505232334136962890625</LatitudeDegrees>
              <LongitudeDegrees>-8.1332320533692836761474609375</LongitudeDegrees>
            </Position>
            <AltitudeMeters>93.59999847412109375</AltitudeMeters>
            <DistanceMeters>122455.71310895</DistanceMeters>
          </Trackpoint>
          <Trackpoint>
            <Time>2018-09-13T14:30:25.000Z</Time>
            <Position>
              <LatitudeDegrees>38.96863418631255626678466796875</LatitudeDegrees>
              <LongitudeDegrees>-8.133248649537563323974609375</LongitudeDegrees>
            </Position>
            <AltitudeMeters>91.8000030517578125</AltitudeMeters>
            <DistanceMeters>122479.83492492</DistanceMeters>
          </Trackpoint>
          <Trackpoint>
            <Time>2018-09-13T14:30:27.000Z</Time>
            <Position>
              <LatitudeDegrees>38.968419693410396575927734375</LatitudeDegrees>
              <LongitudeDegrees>-8.1332659162580966949462890625</LongitudeDegrees>
            </Position>
            <AltitudeMeters>90</AltitudeMeters>
            <DistanceMeters>122503.75524606</DistanceMeters>
          </Trackpoint>
          <Trackpoint>
            <Time>2018-09-13T14:30:30.000Z</Time>
            <Position>
              <LatitudeDegrees>38.96810243837535381317138671875</LatitudeDegrees>
              <LongitudeDegrees>-8.1332850269973278045654296875</LongitudeDegrees>
            </Position>
            <AltitudeMeters>87.1999969482421875</AltitudeMeters>
            <DistanceMeters>122539.10505609</DistanceMeters>
          </Trackpoint>
          <Trackpoint>
            <Time>2018-09-13T14:30:33.000Z</Time>
            <Position>
              <LatitudeDegrees>38.96779230795800685882568359375</LatitudeDegrees>
              <LongitudeDegrees>-8.13330707140266895294189453125</LongitudeDegrees>
            </Position>
            <AltitudeMeters>84.40000152587890625</AltitudeMeters>
            <DistanceMeters>122573.67597851</DistanceMeters>
          </Trackpoint>
          <Trackpoint>
            <Time>2018-09-13T14:30:35.000Z</Time>
            <Position>
              <LatitudeDegrees>38.96758929826319217681884765625</LatitudeDegrees>
              <LongitudeDegrees>-8.13332115299999713897705078125</LongitudeDegrees>
            </Position>
            <AltitudeMeters>82.8000030517578125</AltitudeMeters>
            <DistanceMeters>122596.30391246</DistanceMeters>
          </Trackpoint>
          <Trackpoint>
            <Time>2018-09-13T14:30:37.000Z</Time>
            <Position>
              <LatitudeDegrees>38.96738779731094837188720703125</LatitudeDegrees>
              <LongitudeDegrees>-8.13333573751151561737060546875</LongitudeDegrees>
            </Position>
            <AltitudeMeters>81.1999969482421875</AltitudeMeters>
            <DistanceMeters>122618.76682882</DistanceMeters>
          </Trackpoint>
          <Trackpoint>
            <Time>2018-09-13T14:30:40.000Z</Time>
            <Position>
              <LatitudeDegrees>38.96708965301513671875</LatitudeDegrees>
              <LongitudeDegrees>-8.1333604641258716583251953125</LongitudeDegrees>
            </Position>
            <AltitudeMeters>79.1999969482421875</AltitudeMeters>
            <DistanceMeters>122652.01966209</DistanceMeters>
          </Trackpoint>
          <Trackpoint>
            <Time>2018-09-13T14:30:43.000Z</Time>
            <Position>
              <LatitudeDegrees>38.96680491976439952850341796875</LatitudeDegrees>
              <LongitudeDegrees>-8.13341955654323101043701171875</LongitudeDegrees>
            </Position>
            <AltitudeMeters>77.8000030517578125</AltitudeMeters>
            <DistanceMeters>122684.12097458</DistanceMeters>
          </Trackpoint>
          <Trackpoint>
            <Time>2018-09-13T14:30:44.000Z</Time>
            <Position>
              <LatitudeDegrees>38.9667146466672420501708984375</LatitudeDegrees>
              <LongitudeDegrees>-8.13345425762236118316650390625</LongitudeDegrees>
            </Position>
            <AltitudeMeters>77.40000152587890625</AltitudeMeters>
            <DistanceMeters>122694.60798088</DistanceMeters>
          </Trackpoint>
          <Trackpoint>
            <Time>2018-09-13T14:30:45.000Z</Time>
            <Position>
              <LatitudeDegrees>38.9666269719600677490234375</LatitudeDegrees>
              <LongitudeDegrees>-8.13349566422402858734130859375</LongitudeDegrees>
            </Position>
            <AltitudeMeters>77</AltitudeMeters>
            <DistanceMeters>122705.00374708</DistanceMeters>
          </Trackpoint>
          <Trackpoint>
            <Time>2018-09-13T14:30:47.000Z</Time>
            <Position>
              <LatitudeDegrees>38.96645556204020977020263671875</LatitudeDegrees>
              <LongitudeDegrees>-8.1335901282727718353271484375</LongitudeDegrees>
            </Position>
            <AltitudeMeters>76.1999969482421875</AltitudeMeters>
            <DistanceMeters>122725.75963509</DistanceMeters>
          </Trackpoint>
          <Trackpoint>
            <Time>2018-09-13T14:30:52.000Z</Time>
            <Position>
              <LatitudeDegrees>38.96603596396744251251220703125</LatitudeDegrees>
              <LongitudeDegrees>-8.13386379741132259368896484375</LongitudeDegrees>
            </Position>
            <AltitudeMeters>74.59999847412109375</AltitudeMeters>
            <DistanceMeters>122778.12349364</DistanceMeters>
          </Trackpoint>
          <Trackpoint>
            <Time>2018-09-13T14:30:58.000Z</Time>
            <Position>
              <LatitudeDegrees>38.96555199287831783294677734375</LatitudeDegrees>
              <LongitudeDegrees>-8.13414551317691802978515625</LongitudeDegrees>
            </Position>
            <AltitudeMeters>72</AltitudeMeters>
            <DistanceMeters>122837.25057842</DistanceMeters>
          </Trackpoint>
          <Trackpoint>
            <Time>2018-09-13T14:30:59.000Z</Time>
            <Position>
              <LatitudeDegrees>38.9654690958559513092041015625</LatitudeDegrees>
              <LongitudeDegrees>-8.1341730058193206787109375</LongitudeDegrees>
            </Position>
            <AltitudeMeters>71.40000152587890625</AltitudeMeters>
            <DistanceMeters>122846.77887253</DistanceMeters>
          </Trackpoint>
          <Trackpoint>
            <Time>2018-09-13T14:31:01.000Z</Time>
            <Position>
              <LatitudeDegrees>38.96529751829802989959716796875</LatitudeDegrees>
              <LongitudeDegrees>-8.1342033483088016510009765625</LongitudeDegrees>
            </Position>
            <AltitudeMeters>70</AltitudeMeters>
            <DistanceMeters>122866.0554813</DistanceMeters>
          </Trackpoint>
          <Trackpoint>
            <Time>2018-09-13T14:31:03.000Z</Time>
            <Position>
              <LatitudeDegrees>38.96511948667466640472412109375</LatitudeDegrees>
              <LongitudeDegrees>-8.13418197445571422576904296875</LongitudeDegrees>
            </Position>
            <AltitudeMeters>69.1999969482421875</AltitudeMeters>
            <DistanceMeters>122885.95671626</DistanceMeters>
          </Trackpoint>
          <Trackpoint>
            <Time>2018-09-13T14:31:05.000Z</Time>
            <Position>
              <LatitudeDegrees>38.96494455635547637939453125</LatitudeDegrees>
              <LongitudeDegrees>-8.134102262556552886962890625</LongitudeDegrees>
            </Position>
            <AltitudeMeters>68.40000152587890625</AltitudeMeters>
            <DistanceMeters>122906.61273504</DistanceMeters>
          </Trackpoint>
          <Trackpoint>
            <Time>2018-09-13T14:31:08.000Z</Time>
            <Position>
              <LatitudeDegrees>38.9647217653691768646240234375</LatitudeDegrees>
              <LongitudeDegrees>-8.133864216506481170654296875</LongitudeDegrees>
            </Position>
            <AltitudeMeters>66.59999847412109375</AltitudeMeters>
            <DistanceMeters>122938.85074922</DistanceMeters>
          </Trackpoint>
          <Trackpoint>
            <Time>2018-09-13T14:31:09.000Z</Time>
            <Position>
              <LatitudeDegrees>38.964659236371517181396484375</LatitudeDegrees>
              <LongitudeDegrees>-8.13376002945005893707275390625</LongitudeDegrees>
            </Position>
            <AltitudeMeters>66</AltitudeMeters>
            <DistanceMeters>122950.24088127</DistanceMeters>
          </Trackpoint>
          <Trackpoint>
            <Time>2018-09-13T14:31:10.000Z</Time>
            <Position>
              <LatitudeDegrees>38.96460064686834812164306640625</LatitudeDegrees>
              <LongitudeDegrees>-8.13365106470882892608642578125</LongitudeDegrees>
            </Position>
            <AltitudeMeters>65.40000152587890625</AltitudeMeters>
            <DistanceMeters>122961.70647558</DistanceMeters>
          </Trackpoint>
          <Trackpoint>
            <Time>2018-09-13T14:31:11.000Z</Time>
            <Position>
              <LatitudeDegrees>38.964552618563175201416015625</LatitudeDegrees>
              <LongitudeDegrees>-8.13353505916893482208251953125</LongitudeDegrees>
            </Position>
            <AltitudeMeters>64.8000030517578125</AltitudeMeters>
            <DistanceMeters>122973.08034366</DistanceMeters>
          </Trackpoint>
          <Trackpoint>
            <Time>2018-09-13T14:31:12.000Z</Time>
            <Position>
              <LatitudeDegrees>38.9645159058272838592529296875</LatitudeDegrees>
              <LongitudeDegrees>-8.13341192901134490966796875</LongitudeDegrees>
            </Position>
            <AltitudeMeters>64.1999969482421875</AltitudeMeters>
            <DistanceMeters>122984.49225685</DistanceMeters>
          </Trackpoint>
          <Trackpoint>
            <Time>2018-09-13T14:31:14.000Z</Time>
            <Position>
              <LatitudeDegrees>38.96444977261126041412353515625</LatitudeDegrees>
              <LongitudeDegrees>-8.133158795535564422607421875</LongitudeDegrees>
            </Position>
            <AltitudeMeters>63.40000152587890625</AltitudeMeters>
            <DistanceMeters>123007.60231615</DistanceMeters>
          </Trackpoint>
          <Trackpoint>
            <Time>2018-09-13T14:31:18.000Z</Time>
            <Position>
              <LatitudeDegrees>38.96433007903397083282470703125</LatitudeDegrees>
              <LongitudeDegrees>-8.132648505270481109619140625</LongitudeDegrees>
            </Position>
            <AltitudeMeters>62</AltitudeMeters>
            <DistanceMeters>123053.72934437</DistanceMeters>
          </Trackpoint>
          <Trackpoint>
            <Time>2018-09-13T14:31:20.000Z</Time>
            <Position>
              <LatitudeDegrees>38.96427266299724578857421875</LatitudeDegrees>
              <LongitudeDegrees>-8.132392354309558868408203125</LongitudeDegrees>
            </Position>
            <AltitudeMeters>60.200000762939453125</AltitudeMeters>
            <DistanceMeters>123076.79990496</DistanceMeters>
          </Trackpoint>
          <Trackpoint>
            <Time>2018-09-13T14:31:22.000Z</Time>
            <Position>
              <LatitudeDegrees>38.96420770324766635894775390625</LatitudeDegrees>
              <LongitudeDegrees>-8.1321330182254314422607421875</LongitudeDegrees>
            </Position>
            <AltitudeMeters>58.40000152587890625</AltitudeMeters>
            <DistanceMeters>123100.37917141</DistanceMeters>
          </Trackpoint>
          <Trackpoint>
            <Time>2018-09-13T14:31:24.000Z</Time>
            <Position>
              <LatitudeDegrees>38.96414081566035747528076171875</LatitudeDegrees>
              <LongitudeDegrees>-8.13186152838170528411865234375</LongitudeDegrees>
            </Position>
            <AltitudeMeters>57.40000152587890625</AltitudeMeters>
            <DistanceMeters>123125.02555476</DistanceMeters>
          </Trackpoint>
          <Trackpoint>
            <Time>2018-09-13T14:31:27.000Z</Time>
            <Position>
              <LatitudeDegrees>38.9640458486974239349365234375</LatitudeDegrees>
              <LongitudeDegrees>-8.1314752064645290374755859375</LongitudeDegrees>
            </Position>
            <AltitudeMeters>57.40000152587890625</AltitudeMeters>
            <DistanceMeters>123160.08963978</DistanceMeters>
          </Trackpoint>
          <Trackpoint>
            <Time>2018-09-13T14:31:29.000Z</Time>
            <Position>
              <LatitudeDegrees>38.9639854989945888519287109375</LatitudeDegrees>
              <LongitudeDegrees>-8.1312405131757259368896484375</LongitudeDegrees>
            </Position>
            <AltitudeMeters>58</AltitudeMeters>
            <DistanceMeters>123181.4824728</DistanceMeters>
          </Trackpoint>
          <Trackpoint>
            <Time>2018-09-13T14:31:32.000Z</Time>
            <Position>
              <LatitudeDegrees>38.96390930749475955963134765625</LatitudeDegrees>
              <LongitudeDegrees>-8.1309129483997821807861328125</LongitudeDegrees>
            </Position>
            <AltitudeMeters>60</AltitudeMeters>
            <DistanceMeters>123211.07166156</DistanceMeters>
          </Trackpoint>
          <Trackpoint>
            <Time>2018-09-13T14:31:35.000Z</Time>
            <Position>
              <LatitudeDegrees>38.96381693892180919647216796875</LatitudeDegrees>
              <LongitudeDegrees>-8.1306195817887783050537109375</LongitudeDegrees>
            </Position>
            <AltitudeMeters>61.799999237060546875</AltitudeMeters>
            <DistanceMeters>123238.462772</DistanceMeters>
          </Trackpoint>
          <Trackpoint>
            <Time>2018-09-13T14:31:39.000Z</Time>
            <Position>
              <LatitudeDegrees>38.9636398293077945709228515625</LatitudeDegrees>
              <LongitudeDegrees>-8.1303567253053188323974609375</LongitudeDegrees>
            </Position>
            <AltitudeMeters>65</AltitudeMeters>
            <DistanceMeters>123268.56359941</DistanceMeters>
          </Trackpoint>
          <Trackpoint>
            <Time>2018-09-13T14:31:42.000Z</Time>
            <Position>
              <LatitudeDegrees>38.9634968340396881103515625</LatitudeDegrees>
              <LongitudeDegrees>-8.130247257649898529052734375</LongitudeDegrees>
            </Position>
            <AltitudeMeters>66.40000152587890625</AltitudeMeters>
            <DistanceMeters>123287.08527871</DistanceMeters>
          </Trackpoint>
          <Trackpoint>
            <Time>2018-09-13T14:31:43.000Z</Time>
            <Position>
              <LatitudeDegrees>38.96345056593418121337890625</LatitudeDegrees>
              <LongitudeDegrees>-8.1302209384739398956298828125</LongitudeDegrees>
            </Position>
            <AltitudeMeters>66.59999847412109375</AltitudeMeters>
            <DistanceMeters>123292.71596236</DistanceMeters>
          </Trackpoint>
          <Trackpoint>
            <Time>2018-09-13T14:31:44.000Z</Time>
            <Position>
              <LatitudeDegrees>38.96340555511415004730224609375</LatitudeDegrees>
              <LongitudeDegrees>-8.13019939698278903961181640625</LongitudeDegrees>
            </Position>
            <AltitudeMeters>67</AltitudeMeters>
            <DistanceMeters>123298.06116225</DistanceMeters>
          </Trackpoint>
          <Trackpoint>
            <Time>2018-09-13T14:31:47.000Z</Time>
            <Position>
              <LatitudeDegrees>38.96327815018594264984130859375</LatitudeDegrees>
              <LongitudeDegrees>-8.13016821630299091339111328125</LongitudeDegrees>
            </Position>
            <AltitudeMeters>68</AltitudeMeters>
            <DistanceMeters>123312.49646772</DistanceMeters>
          </Trackpoint>
          <Trackpoint>
            <Time>2018-09-13T14:31:50.000Z</Time>
            <Position>
              <LatitudeDegrees>38.96316097117960453033447265625</LatitudeDegrees>
              <LongitudeDegrees>-8.13016620464622974395751953125</LongitudeDegrees>
            </Position>
            <AltitudeMeters>68.40000152587890625</AltitudeMeters>
            <DistanceMeters>123325.54042035</DistanceMeters>
          </Trackpoint>
          <Trackpoint>
            <Time>2018-09-13T14:31:52.000Z</Time>
            <Position>
              <LatitudeDegrees>38.96308637224137783050537109375</LatitudeDegrees>
              <LongitudeDegrees>-8.13017877750098705291748046875</LongitudeDegrees>
            </Position>
            <AltitudeMeters>68.8000030517578125</AltitudeMeters>
            <DistanceMeters>123333.91464113</DistanceMeters>
          </Trackpoint>
          <Trackpoint>
            <Time>2018-09-13T14:31:54.000Z</Time>
            <Position>
              <LatitudeDegrees>38.96301160566508769989013671875</LatitudeDegrees>
              <LongitudeDegrees>-8.130200989544391632080078125</LongitudeDegrees>
            </Position>
            <AltitudeMeters>69</AltitudeMeters>
            <DistanceMeters>123342.45542315</DistanceMeters>
          </Trackpoint>
          <Trackpoint>
            <Time>2018-09-13T14:31:58.000Z</Time>
            <Position>
              <LatitudeDegrees>38.9628623239696025848388671875</LatitudeDegrees>
              <LongitudeDegrees>-8.1302504427731037139892578125</LongitudeDegrees>
            </Position>
            <AltitudeMeters>69.1999969482421875</AltitudeMeters>
            <DistanceMeters>123359.61294314</DistanceMeters>
          </Trackpoint>
          <Trackpoint>
            <Time>2018-09-13T14:32:02.000Z</Time>
            <Position>
              <LatitudeDegrees>38.96271823905408382415771484375</LatitudeDegrees>
              <LongitudeDegrees>-8.13032336533069610595703125</LongitudeDegrees>
            </Position>
            <AltitudeMeters>69.1999969482421875</AltitudeMeters>
            <DistanceMeters>123376.84687027</DistanceMeters>
          </Trackpoint>
          <Trackpoint>
            <Time>2018-09-13T14:32:04.000Z</Time>
            <Position>
              <LatitudeDegrees>38.962644897401332855224609375</LatitudeDegrees>
              <LongitudeDegrees>-8.13035689294338226318359375</LongitudeDegrees>
            </Position>
            <AltitudeMeters>69.40000152587890625</AltitudeMeters>
            <DistanceMeters>123385.51047203</DistanceMeters>
          </Trackpoint>
          <Trackpoint>
            <Time>2018-09-13T14:32:08.000Z</Time>
            <Position>
              <LatitudeDegrees>38.962500393390655517578125</LatitudeDegrees>
              <LongitudeDegrees>-8.13042989932000637054443359375</LongitudeDegrees>
            </Position>
            <AltitudeMeters>69.40000152587890625</AltitudeMeters>
            <DistanceMeters>123402.79070836</DistanceMeters>
          </Trackpoint>
          <Trackpoint>
            <Time>2018-09-13T14:32:13.000Z</Time>
            <Position>
              <LatitudeDegrees>38.96232596598565578460693359375</LatitudeDegrees>
              <LongitudeDegrees>-8.13051673583686351776123046875</LongitudeDegrees>
            </Position>
            <AltitudeMeters>69.59999847412109375</AltitudeMeters>
            <DistanceMeters>123423.60871713</DistanceMeters>
          </Trackpoint>
          <Trackpoint>
            <Time>2018-09-13T14:32:21.000Z</Time>
            <Position>
              <LatitudeDegrees>38.9620365388691425323486328125</LatitudeDegrees>
              <LongitudeDegrees>-8.13065185211598873138427734375</LongitudeDegrees>
            </Position>
            <AltitudeMeters>69.59999847412109375</AltitudeMeters>
            <DistanceMeters>123457.87925553</DistanceMeters>
          </Trackpoint>
          <Trackpoint>
            <Time>2018-09-13T14:32:34.000Z</Time>
            <Position>
              <LatitudeDegrees>38.96153672598302364349365234375</LatitudeDegrees>
              <LongitudeDegrees>-8.1308073364198207855224609375</LongitudeDegrees>
            </Position>
            <AltitudeMeters>70.1999969482421875</AltitudeMeters>
            <DistanceMeters>123515.11366494</DistanceMeters>
          </Trackpoint>
          <Trackpoint>
            <Time>2018-09-13T14:32:42.000Z</Time>
            <Position>
              <LatitudeDegrees>38.96119256503880023956298828125</LatitudeDegrees>
              <LongitudeDegrees>-8.13081420958042144775390625</LongitudeDegrees>
            </Position>
            <AltitudeMeters>71.40000152587890625</AltitudeMeters>
            <DistanceMeters>123553.42392969</DistanceMeters>
          </Trackpoint>
          <Trackpoint>
            <Time>2018-09-13T14:32:53.000Z</Time>
            <Position>
              <LatitudeDegrees>38.96068797446787357330322265625</LatitudeDegrees>
              <LongitudeDegrees>-8.13073030672967433929443359375</LongitudeDegrees>
            </Position>
            <AltitudeMeters>71.40000152587890625</AltitudeMeters>
            <DistanceMeters>123610.053314</DistanceMeters>
          </Trackpoint>
          <Trackpoint>
            <Time>2018-09-13T14:33:04.000Z</Time>
            <Position>
              <LatitudeDegrees>38.96013242192566394805908203125</LatitudeDegrees>
              <LongitudeDegrees>-8.13064254820346832275390625</LongitudeDegrees>
            </Position>
            <AltitudeMeters>72</AltitudeMeters>
            <DistanceMeters>123672.35214959</DistanceMeters>
          </Trackpoint>
          <Trackpoint>
            <Time>2018-09-13T14:33:12.000Z</Time>
            <Position>
              <LatitudeDegrees>38.9596342854201793670654296875</LatitudeDegrees>
              <LongitudeDegrees>-8.1307577155530452728271484375</LongitudeDegrees>
            </Position>
            <AltitudeMeters>71.59999847412109375</AltitudeMeters>
            <DistanceMeters>123728.68455975</DistanceMeters>
          </Trackpoint>
          <Trackpoint>
            <Time>2018-09-13T14:33:16.000Z</Time>
            <Position>
              <LatitudeDegrees>38.95938693545758724212646484375</LatitudeDegrees>
              <LongitudeDegrees>-8.13089065253734588623046875</LongitudeDegrees>
            </Position>
            <AltitudeMeters>71.1999969482421875</AltitudeMeters>
            <DistanceMeters>123758.52264542</DistanceMeters>
          </Trackpoint>
          <Trackpoint>
            <Time>2018-09-13T14:33:26.000Z</Time>
            <Position>
              <LatitudeDegrees>38.95887966267764568328857421875</LatitudeDegrees>
              <LongitudeDegrees>-8.1312002800405025482177734375</LongitudeDegrees>
            </Position>
            <AltitudeMeters>73</AltitudeMeters>
            <DistanceMeters>123821.01974396</DistanceMeters>
          </Trackpoint>
          <Trackpoint>
            <Time>2018-09-13T14:33:35.000Z</Time>
            <Position>
              <LatitudeDegrees>38.95848152227699756622314453125</LatitudeDegrees>
              <LongitudeDegrees>-8.13144528307020664215087890625</LongitudeDegrees>
            </Position>
            <AltitudeMeters>74</AltitudeMeters>
            <DistanceMeters>123870.14561433</DistanceMeters>
          </Trackpoint>
          <Trackpoint>
            <Time>2018-09-13T14:33:43.000Z</Time>
            <Position>
              <LatitudeDegrees>38.958120681345462799072265625</LatitudeDegrees>
              <LongitudeDegrees>-8.1316632963716983795166015625</LongitudeDegrees>
            </Position>
            <AltitudeMeters>74</AltitudeMeters>
            <DistanceMeters>123914.51952884</DistanceMeters>
          </Trackpoint>
          <Trackpoint>
            <Time>2018-09-13T14:33:54.000Z</Time>
            <Position>
              <LatitudeDegrees>38.95761868916451930999755859375</LatitudeDegrees>
              <LongitudeDegrees>-8.13196429051458835601806640625</LongitudeDegrees>
            </Position>
            <AltitudeMeters>74.1999969482421875</AltitudeMeters>
            <DistanceMeters>123976.16697001</DistanceMeters>
          </Trackpoint>
          <Trackpoint>
            <Time>2018-09-13T14:34:05.000Z</Time>
            <Position>
              <LatitudeDegrees>38.95709230564534664154052734375</LatitudeDegrees>
              <LongitudeDegrees>-8.1322822161018848419189453125</LongitudeDegrees>
            </Position>
            <AltitudeMeters>74.8000030517578125</AltitudeMeters>
            <DistanceMeters>124040.89446376</DistanceMeters>
          </Trackpoint>
          <Trackpoint>
            <Time>2018-09-13T14:34:14.000Z</Time>
            <Position>
              <LatitudeDegrees>38.95659609697759151458740234375</LatitudeDegrees>
              <LongitudeDegrees>-8.13256493769586086273193359375</LongitudeDegrees>
            </Position>
            <AltitudeMeters>74.1999969482421875</AltitudeMeters>
            <DistanceMeters>124101.30148935</DistanceMeters>
          </Trackpoint>
          <Trackpoint>
            <Time>2018-09-13T14:34:22.000Z</Time>
            <Position>
              <LatitudeDegrees>38.95610399544239044189453125</LatitudeDegrees>
              <LongitudeDegrees>-8.13287280499935150146484375</LongitudeDegrees>
            </Position>
            <AltitudeMeters>73.40000152587890625</AltitudeMeters>
            <DistanceMeters>124162.21116713</DistanceMeters>
          </Trackpoint>
          <Trackpoint>
            <Time>2018-09-13T14:34:31.000Z</Time>
            <Position>
              <LatitudeDegrees>38.955654390156269073486328125</LatitudeDegrees>
              <LongitudeDegrees>-8.13330120407044887542724609375</LongitudeDegrees>
            </Position>
            <AltitudeMeters>77.40000152587890625</AltitudeMeters>
            <DistanceMeters>124224.49304152</DistanceMeters>
          </Trackpoint>
          <Trackpoint>
            <Time>2018-09-13T14:34:37.000Z</Time>
            <Position>
              <LatitudeDegrees>38.95542128942906856536865234375</LatitudeDegrees>
              <LongitudeDegrees>-8.1336213089525699615478515625</LongitudeDegrees>
            </Position>
            <AltitudeMeters>78.1999969482421875</AltitudeMeters>
            <DistanceMeters>124262.4499992</DistanceMeters>
          </Trackpoint>
          <Trackpoint>
            <Time>2018-09-13T14:34:42.000Z</Time>
            <Position>
              <LatitudeDegrees>38.95525180734694004058837890625</LatitudeDegrees>
              <LongitudeDegrees>-8.1338938884437084197998046875</LongitudeDegrees>
            </Position>
            <AltitudeMeters>77.59999847412109375</AltitudeMeters>
            <DistanceMeters>124292.65653896</DistanceMeters>
          </Trackpoint>
          <Trackpoint>
            <Time>2018-09-13T14:34:50.000Z</Time>
            <Position>
              <LatitudeDegrees>38.95501242019236087799072265625</LatitudeDegrees>
              <LongitudeDegrees>-8.13431306742131710052490234375</LongitudeDegrees>
            </Position>
            <AltitudeMeters>76.1999969482421875</AltitudeMeters>
            <DistanceMeters>124337.67012283</DistanceMeters>
          </Trackpoint>
          <Trackpoint>
            <Time>2018-09-13T14:34:51.000Z</Time>
            <Position>
              <LatitudeDegrees>38.954982496798038482666015625</LatitudeDegrees>
              <LongitudeDegrees>-8.13436386175453662872314453125</LongitudeDegrees>
            </Position>
            <AltitudeMeters>76.40000152587890625</AltitudeMeters>
            <DistanceMeters>124343.18576673</DistanceMeters>
          </Trackpoint>
          <Trackpoint>
            <Time>2018-09-13T14:34:58.000Z</Time>
            <Position>
              <LatitudeDegrees>38.95477839745581150054931640625</LatitudeDegrees>
              <LongitudeDegrees>-8.1347163207828998565673828125</LongitudeDegrees>
            </Position>
            <AltitudeMeters>78.1999969482421875</AltitudeMeters>
            <DistanceMeters>124381.2211514</DistanceMeters>
          </Trackpoint>
          <Trackpoint>
            <Time>2018-09-13T14:35:07.000Z</Time>
            <Position>
              <LatitudeDegrees>38.954520486295223236083984375</LatitudeDegrees>
              <LongitudeDegrees>-8.13516341149806976318359375</LongitudeDegrees>
            </Position>
            <AltitudeMeters>80.8000030517578125</AltitudeMeters>
            <DistanceMeters>124429.40297548</DistanceMeters>
          </Trackpoint>
          <Trackpoint>
            <Time>2018-09-13T14:35:18.000Z</Time>
            <Position>
              <LatitudeDegrees>38.95420172251760959625244140625</LatitudeDegrees>
              <LongitudeDegrees>-8.1357260048389434814453125</LongitudeDegrees>
            </Position>
            <AltitudeMeters>85.40000152587890625</AltitudeMeters>
            <DistanceMeters>124489.65171098</DistanceMeters>
          </Trackpoint>
          <Trackpoint>
            <Time>2018-09-13T14:35:29.000Z</Time>
            <Position>
              <LatitudeDegrees>38.9538812823593616485595703125</LatitudeDegrees>
              <LongitudeDegrees>-8.13627745024859905242919921875</LongitudeDegrees>
            </Position>
            <AltitudeMeters>87.40000152587890625</AltitudeMeters>
            <DistanceMeters>124549.23505223</DistanceMeters>
          </Trackpoint>
          <Trackpoint>
            <Time>2018-09-13T14:35:34.000Z</Time>
            <Position>
              <LatitudeDegrees>38.95372395403683185577392578125</LatitudeDegrees>
              <LongitudeDegrees>-8.13652706332504749298095703125</LongitudeDegrees>
            </Position>
            <AltitudeMeters>87.8000030517578125</AltitudeMeters>
            <DistanceMeters>124577.0454283</DistanceMeters>
          </Trackpoint>
          <Trackpoint>
            <Time>2018-09-13T14:35:43.000Z</Time>
            <Position>
              <LatitudeDegrees>38.95340309478342533111572265625</LatitudeDegrees>
              <LongitudeDegrees>-8.13694833777844905853271484375</LongitudeDegrees>
            </Position>
            <AltitudeMeters>88.1999969482421875</AltitudeMeters>
            <DistanceMeters>124628.08406339</DistanceMeters>
          </Trackpoint>
          <Trackpoint>
            <Time>2018-09-13T14:35:53.000Z</Time>
            <Position>
              <LatitudeDegrees>38.95296036265790462493896484375</LatitudeDegrees>
              <LongitudeDegrees>-8.13735871575772762298583984375</LongitudeDegrees>
            </Position>
            <AltitudeMeters>88.8000030517578125</AltitudeMeters>
            <DistanceMeters>124688.82873383</DistanceMeters>
          </Trackpoint>
          <Trackpoint>
            <Time>2018-09-13T14:36:03.000Z</Time>
            <Position>
              <LatitudeDegrees>38.95250421948730945587158203125</LatitudeDegrees>
              <LongitudeDegrees>-8.137750737369060516357421875</LongitudeDegrees>
            </Position>
            <AltitudeMeters>89.8000030517578125</AltitudeMeters>
            <DistanceMeters>124749.89365762</DistanceMeters>
          </Trackpoint>
          <Trackpoint>
            <Time>2018-09-13T14:36:13.000Z</Time>
            <Position>
              <LatitudeDegrees>38.95205042324960231781005859375</LatitudeDegrees>
              <LongitudeDegrees>-8.13813907094299793243408203125</LongitudeDegrees>
            </Position>
            <AltitudeMeters>90.59999847412109375</AltitudeMeters>
            <DistanceMeters>124810.56425207</DistanceMeters>
          </Trackpoint>
          <Trackpoint>
            <Time>2018-09-13T14:36:22.000Z</Time>
            <Position>
              <LatitudeDegrees>38.9516335912048816680908203125</LatitudeDegrees>
              <LongitudeDegrees>-8.13848792575299739837646484375</LongitudeDegrees>
            </Position>
            <AltitudeMeters>90.40000152587890625</AltitudeMeters>
            <DistanceMeters>124865.91957666</DistanceMeters>
          </Trackpoint>
          <Trackpoint>
            <Time>2018-09-13T14:36:26.000Z</Time>
            <Position>
              <LatitudeDegrees>38.9514485187828540802001953125</LatitudeDegrees>
              <LongitudeDegrees>-8.138649277389049530029296875</LongitudeDegrees>
            </Position>
            <AltitudeMeters>89.8000030517578125</AltitudeMeters>
            <DistanceMeters>124890.80659964</DistanceMeters>
          </Trackpoint>
          <Trackpoint>
            <Time>2018-09-13T14:36:36.000Z</Time>
            <Position>
              <LatitudeDegrees>38.9509908668696880340576171875</LatitudeDegrees>
              <LongitudeDegrees>-8.1390370242297649383544921875</LongitudeDegrees>
            </Position>
            <AltitudeMeters>88.59999847412109375</AltitudeMeters>
            <DistanceMeters>124951.80716317</DistanceMeters>
          </Trackpoint>
          <Trackpoint>
            <Time>2018-09-13T14:36:46.000Z</Time>
            <Position>
              <LatitudeDegrees>38.95053531043231487274169921875</LatitudeDegrees>
              <LongitudeDegrees>-8.13941714353859424591064453125</LongitudeDegrees>
            </Position>
            <AltitudeMeters>87.40000152587890625</AltitudeMeters>
            <DistanceMeters>125012.25139961</DistanceMeters>
          </Trackpoint>
          <Trackpoint>
            <Time>2018-09-13T14:36:50.000Z</Time>
            <Position>
              <LatitudeDegrees>38.95036063157021999359130859375</LatitudeDegrees>
              <LongitudeDegrees>-8.13956868834793567657470703125</LongitudeDegrees>
            </Position>
            <AltitudeMeters>87.59999847412109375</AltitudeMeters>
            <DistanceMeters>125035.70510159</DistanceMeters>
          </Trackpoint>
          <Trackpoint>
            <Time>2018-09-13T14:37:01.000Z</Time>
            <Position>
              <LatitudeDegrees>38.94990541040897369384765625</LatitudeDegrees>
              <LongitudeDegrees>-8.13995107077062129974365234375</LongitudeDegrees>
            </Position>
            <AltitudeMeters>89.1999969482421875</AltitudeMeters>
            <DistanceMeters>125096.22495938</DistanceMeters>
          </Trackpoint>
          <Trackpoint>
            <Time>2018-09-13T14:37:03.000Z</Time>
            <Position>
              <LatitudeDegrees>38.9498237706720829010009765625</LatitudeDegrees>
              <LongitudeDegrees>-8.1400197185575962066650390625</LongitudeDegrees>
            </Position>
            <AltitudeMeters>89.59999847412109375</AltitudeMeters>
            <DistanceMeters>125107.08215137</DistanceMeters>
          </Trackpoint>
          <Trackpoint>
            <Time>2018-09-13T14:37:08.000Z</Time>
            <Position>
              <LatitudeDegrees>38.949621431529521942138671875</LatitudeDegrees>
              <LongitudeDegrees>-8.14019297249615192413330078125</LongitudeDegrees>
            </Position>
            <AltitudeMeters>90.59999847412109375</AltitudeMeters>
            <DistanceMeters>125134.13924577</DistanceMeters>
          </Trackpoint>
          <Trackpoint>
            <Time>2018-09-13T14:37:15.000Z</Time>
            <Position>
              <LatitudeDegrees>38.949342481791973114013671875</LatitudeDegrees>
              <LongitudeDegrees>-8.14042322337627410888671875</LongitudeDegrees>
            </Position>
            <AltitudeMeters>91.40000152587890625</AltitudeMeters>
            <DistanceMeters>125171.03348235</DistanceMeters>
          </Trackpoint>
          <Trackpoint>
            <Time>2018-09-13T14:37:23.000Z</Time>
            <Position>
              <LatitudeDegrees>38.94902220927178859710693359375</LatitudeDegrees>
              <LongitudeDegrees>-8.14068767242133617401123046875</LongitudeDegrees>
            </Position>
            <AltitudeMeters>91.59999847412109375</AltitudeMeters>
            <DistanceMeters>125213.39728262</DistanceMeters>
          </Trackpoint>
          <Trackpoint>
            <Time>2018-09-13T14:37:33.000Z</Time>
            <Position>
              <LatitudeDegrees>38.9485641382634639739990234375</LatitudeDegrees>
              <LongitudeDegrees>-8.14108128659427165985107421875</LongitudeDegrees>
            </Position>
            <AltitudeMeters>91.40000152587890625</AltitudeMeters>
            <DistanceMeters>125274.71816203</DistanceMeters>
          </Trackpoint>
          <Trackpoint>
            <Time>2018-09-13T14:37:43.000Z</Time>
            <Position>
              <LatitudeDegrees>38.94808259792625904083251953125</LatitudeDegrees>
              <LongitudeDegrees>-8.14148646779358386993408203125</LongitudeDegrees>
            </Position>
            <AltitudeMeters>91.8000030517578125</AltitudeMeters>
            <DistanceMeters>125338.77032656</DistanceMeters>
          </Trackpoint>
          <Trackpoint>
            <Time>2018-09-13T14:37:54.000Z</Time>
            <Position>
              <LatitudeDegrees>38.9476112835109233856201171875</LatitudeDegrees>
              <LongitudeDegrees>-8.1418905593454837799072265625</LongitudeDegrees>
            </Position>
            <AltitudeMeters>92.40000152587890625</AltitudeMeters>
            <DistanceMeters>125401.82096331</DistanceMeters>
          </Trackpoint>
          <Trackpoint>
            <Time>2018-09-13T14:38:05.000Z</Time>
            <Position>
              <LatitudeDegrees>38.9471621811389923095703125</LatitudeDegrees>
              <LongitudeDegrees>-8.1422679126262664794921875</LongitudeDegrees>
            </Position>
            <AltitudeMeters>93.59999847412109375</AltitudeMeters>
            <DistanceMeters>125461.53336432</DistanceMeters>
          </Trackpoint>
          <Trackpoint>
            <Time>2018-09-13T14:38:15.000Z</Time>
            <Position>
              <LatitudeDegrees>38.94676211290061473846435546875</LatitudeDegrees>
              <LongitudeDegrees>-8.14260729588568210601806640625</LongitudeDegrees>
            </Position>
            <AltitudeMeters>94.40000152587890625</AltitudeMeters>
            <DistanceMeters>125514.87984172</DistanceMeters>
          </Trackpoint>
          <Trackpoint>
            <Time>2018-09-13T14:38:27.000Z</Time>
            <Position>
              <LatitudeDegrees>38.94631116650998592376708984375</LatitudeDegrees>
              <LongitudeDegrees>-8.142958581447601318359375</LongitudeDegrees>
            </Position>
            <AltitudeMeters>95</AltitudeMeters>
            <DistanceMeters>125573.56405062</DistanceMeters>
          </Trackpoint>
          <Trackpoint>
            <Time>2018-09-13T14:38:29.000Z</Time>
            <Position>
              <LatitudeDegrees>38.94624763168394565582275390625</LatitudeDegrees>
              <LongitudeDegrees>-8.14302387647330760955810546875</LongitudeDegrees>
            </Position>
            <AltitudeMeters>95</AltitudeMeters>
            <DistanceMeters>125582.61705972</DistanceMeters>
          </Trackpoint>
          <Trackpoint>
            <Time>2018-09-13T14:38:32.000Z</Time>
            <Position>
              <LatitudeDegrees>38.9461860246956348419189453125</LatitudeDegrees>
              <LongitudeDegrees>-8.14316737465560436248779296875</LongitudeDegrees>
            </Position>
            <AltitudeMeters>95</AltitudeMeters>
            <DistanceMeters>125596.80566516</DistanceMeters>
          </Trackpoint>
          <Trackpoint>
            <Time>2018-09-13T14:38:35.000Z</Time>
            <Position>
              <LatitudeDegrees>38.946121148765087127685546875</LatitudeDegrees>
              <LongitudeDegrees>-8.14331657253205776214599609375</LongitudeDegrees>
            </Position>
            <AltitudeMeters>95</AltitudeMeters>
            <DistanceMeters>125611.60239566</DistanceMeters>
          </Trackpoint>
          <Trackpoint>
            <Time>2018-09-13T14:38:40.000Z</Time>
            <Position>
              <LatitudeDegrees>38.94601025618612766265869140625</LatitudeDegrees>
              <LongitudeDegrees>-8.1436071731150150299072265625</LongitudeDegrees>
            </Position>
            <AltitudeMeters>94.59999847412109375</AltitudeMeters>
            <DistanceMeters>125639.62287186</DistanceMeters>
          </Trackpoint>
          <Trackpoint>
            <Time>2018-09-13T14:38:44.000Z</Time>
            <Position>
              <LatitudeDegrees>38.9459902234375476837158203125</LatitudeDegrees>
              <LongitudeDegrees>-8.14389022998511791229248046875</LongitudeDegrees>
            </Position>
            <AltitudeMeters>94</AltitudeMeters>
            <DistanceMeters>125664.2269013</DistanceMeters>
          </Trackpoint>
          <Trackpoint>
            <Time>2018-09-13T14:38:48.000Z</Time>
            <Position>
              <LatitudeDegrees>38.94599885679781436920166015625</LatitudeDegrees>
              <LongitudeDegrees>-8.14419038593769073486328125</LongitudeDegrees>
            </Position>
            <AltitudeMeters>93.1999969482421875</AltitudeMeters>
            <DistanceMeters>125690.22725923</DistanceMeters>
          </Trackpoint>
          <Trackpoint>
            <Time>2018-09-13T14:38:53.000Z</Time>
            <Position>
              <LatitudeDegrees>38.9460046403110027313232421875</LatitudeDegrees>
              <LongitudeDegrees>-8.1445979140698909759521484375</LongitudeDegrees>
            </Position>
            <AltitudeMeters>92.8000030517578125</AltitudeMeters>
            <DistanceMeters>125725.51020609</DistanceMeters>
          </Trackpoint>
          <Trackpoint>
            <Time>2018-09-13T14:38:54.000Z</Time>
            <Position>
              <LatitudeDegrees>38.9460036344826221466064453125</LatitudeDegrees>
              <LongitudeDegrees>-8.14468449912965297698974609375</LongitudeDegrees>
            </Position>
            <AltitudeMeters>92.59999847412109375</AltitudeMeters>
            <DistanceMeters>125733.00588055</DistanceMeters>
          </Trackpoint>
          <Trackpoint>
            <Time>2018-09-13T14:38:57.000Z</Time>
            <Position>
              <LatitudeDegrees>38.94599935971200466156005859375</LatitudeDegrees>
              <LongitudeDegrees>-8.14495322294533252716064453125</LongitudeDegrees>
            </Position>
            <AltitudeMeters>92.40000152587890625</AltitudeMeters>
            <DistanceMeters>125756.27248801</DistanceMeters>
          </Trackpoint>
          <Trackpoint>
            <Time>2018-09-13T14:38:59.000Z</Time>
            <Position>
              <LatitudeDegrees>38.9459945820271968841552734375</LatitudeDegrees>
              <LongitudeDegrees>-8.14513829536736011505126953125</LongitudeDegrees>
            </Position>
            <AltitudeMeters>92.1999969482421875</AltitudeMeters>
            <DistanceMeters>125772.30217376</DistanceMeters>
          </Trackpoint>
          <Trackpoint>
            <Time>2018-09-13T14:39:04.000Z</Time>
            <Position>
              <LatitudeDegrees>38.9459845237433910369873046875</LatitudeDegrees>
              <LongitudeDegrees>-8.14560634084045886993408203125</LongitudeDegrees>
            </Position>
            <AltitudeMeters>91.1999969482421875</AltitudeMeters>
            <DistanceMeters>125812.83360177</DistanceMeters>
          </Trackpoint>
          <Trackpoint>
            <Time>2018-09-13T14:39:07.000Z</Time>
            <Position>
              <LatitudeDegrees>38.945977985858917236328125</LatitudeDegrees>
              <LongitudeDegrees>-8.1459009647369384765625</LongitudeDegrees>
            </Position>
            <AltitudeMeters>90.59999847412109375</AltitudeMeters>
            <DistanceMeters>125838.34787642</DistanceMeters>
          </Trackpoint>
          <Trackpoint>
            <Time>2018-09-13T14:39:09.000Z</Time>
            <Position>
              <LatitudeDegrees>38.9459748007357120513916015625</LatitudeDegrees>
              <LongitudeDegrees>-8.14610104076564311981201171875</LongitudeDegrees>
            </Position>
            <AltitudeMeters>89.8000030517578125</AltitudeMeters>
            <DistanceMeters>125855.67091023</DistanceMeters>
          </Trackpoint>
          <Trackpoint>
            <Time>2018-09-13T14:39:13.000Z</Time>
            <Position>
              <LatitudeDegrees>38.945961892604827880859375</LatitudeDegrees>
              <LongitudeDegrees>-8.146504461765289306640625</LongitudeDegrees>
            </Position>
            <AltitudeMeters>88.40000152587890625</AltitudeMeters>
            <DistanceMeters>125890.62214399</DistanceMeters>
          </Trackpoint>
          <Trackpoint>
            <Time>2018-09-13T14:39:14.000Z</Time>
            <Position>
              <LatitudeDegrees>38.94595761783421039581298828125</LatitudeDegrees>
              <LongitudeDegrees>-8.14660328440368175506591796875</LongitudeDegrees>
            </Position>
            <AltitudeMeters>88</AltitudeMeters>
            <DistanceMeters>125899.18931747</DistanceMeters>
          </Trackpoint>
          <Trackpoint>
            <Time>2018-09-13T14:39:16.000Z</Time>
            <Position>
              <LatitudeDegrees>38.94595594145357608795166015625</LatitudeDegrees>
              <LongitudeDegrees>-8.14680025912821292877197265625</LongitudeDegrees>
            </Position>
            <AltitudeMeters>87.40000152587890625</AltitudeMeters>
            <DistanceMeters>125916.24125171</DistanceMeters>
          </Trackpoint>
          <Trackpoint>
            <Time>2018-09-13T14:39:19.000Z</Time>
            <Position>
              <LatitudeDegrees>38.94602299667894840240478515625</LatitudeDegrees>
              <LongitudeDegrees>-8.14706026576459407806396484375</LongitudeDegrees>
            </Position>
            <AltitudeMeters>87</AltitudeMeters>
            <DistanceMeters>125939.9534161</DistanceMeters>
          </Trackpoint>
          <Trackpoint>
            <Time>2018-09-13T14:39:20.000Z</Time>
            <Position>
              <LatitudeDegrees>38.94604763947427272796630859375</LatitudeDegrees>
              <LongitudeDegrees>-8.14714190550148487091064453125</LongitudeDegrees>
            </Position>
            <AltitudeMeters>87</AltitudeMeters>
            <DistanceMeters>125947.53414208</DistanceMeters>
          </Trackpoint>
          <Trackpoint>
            <Time>2018-09-13T14:39:24.000Z</Time>
            <Position>
              <LatitudeDegrees>38.94599248655140399932861328125</LatitudeDegrees>
              <LongitudeDegrees>-8.1474749185144901275634765625</LongitudeDegrees>
            </Position>
            <AltitudeMeters>87</AltitudeMeters>
            <DistanceMeters>125977.00744006</DistanceMeters>
          </Trackpoint>
          <Trackpoint>
            <Time>2018-09-13T14:39:25.000Z</Time>
            <Position>
              <LatitudeDegrees>38.9459540136158466339111328125</LatitudeDegrees>
              <LongitudeDegrees>-8.14754985272884368896484375</LongitudeDegrees>
            </Position>
            <AltitudeMeters>87</AltitudeMeters>
            <DistanceMeters>125984.77990501</DistanceMeters>
          </Trackpoint>
          <Trackpoint>
            <Time>2018-09-13T14:39:26.000Z</Time>
            <Position>
              <LatitudeDegrees>38.9459201507270336151123046875</LatitudeDegrees>
              <LongitudeDegrees>-8.14762906171381473541259765625</LongitudeDegrees>
            </Position>
            <AltitudeMeters>87</AltitudeMeters>
            <DistanceMeters>125992.60447646</DistanceMeters>
          </Trackpoint>
          <Trackpoint>
            <Time>2018-09-13T14:39:34.000Z</Time>
            <Position>
              <LatitudeDegrees>38.94577992148697376251220703125</LatitudeDegrees>
              <LongitudeDegrees>-8.1483779847621917724609375</LongitudeDegrees>
            </Position>
            <AltitudeMeters>85.8000030517578125</AltitudeMeters>
            <DistanceMeters>126059.28655757</DistanceMeters>
          </Trackpoint>
          <Trackpoint>
            <Time>2018-09-13T14:39:36.000Z</Time>
            <Position>
              <LatitudeDegrees>38.9457347430288791656494140625</LatitudeDegrees>
              <LongitudeDegrees>-8.1485752947628498077392578125</LongitudeDegrees>
            </Position>
            <AltitudeMeters>86</AltitudeMeters>
            <DistanceMeters>126077.0910748</DistanceMeters>
          </Trackpoint>
          <Trackpoint>
            <Time>2018-09-13T14:39:41.000Z</Time>
            <Position>
              <LatitudeDegrees>38.9456274546682834625244140625</LatitudeDegrees>
              <LongitudeDegrees>-8.14905515871942043304443359375</LongitudeDegrees>
            </Position>
            <AltitudeMeters>85.8000030517578125</AltitudeMeters>
            <DistanceMeters>126120.31245879</DistanceMeters>
          </Trackpoint>
          <Trackpoint>
            <Time>2018-09-13T14:39:45.000Z</Time>
            <Position>
              <LatitudeDegrees>38.9455433003604412078857421875</LatitudeDegrees>
              <LongitudeDegrees>-8.149438798427581787109375</LongitudeDegrees>
            </Position>
            <AltitudeMeters>84.1999969482421875</AltitudeMeters>
            <DistanceMeters>126154.81762578</DistanceMeters>
          </Trackpoint>
          <Trackpoint>
            <Time>2018-09-13T14:39:49.000Z</Time>
            <Position>
              <LatitudeDegrees>38.94545487128198146820068359375</LatitudeDegrees>
              <LongitudeDegrees>-8.14981573261320590972900390625</LongitudeDegrees>
            </Position>
            <AltitudeMeters>82.40000152587890625</AltitudeMeters>
            <DistanceMeters>126188.89871545</DistanceMeters>
          </Trackpoint>
          <Trackpoint>
            <Time>2018-09-13T14:39:52.000Z</Time>
            <Position>
              <LatitudeDegrees>38.945390917360782623291015625</LatitudeDegrees>
              <LongitudeDegrees>-8.150087557733058929443359375</LongitudeDegrees>
            </Position>
            <AltitudeMeters>81.1999969482421875</AltitudeMeters>
            <DistanceMeters>126213.48218339</DistanceMeters>
          </Trackpoint>
          <Trackpoint>
            <Time>2018-09-13T14:40:00.000Z</Time>
            <Position>
              <LatitudeDegrees>38.9452482573688030242919921875</LatitudeDegrees>
              <LongitudeDegrees>-8.15070790238678455352783203125</LongitudeDegrees>
            </Position>
            <AltitudeMeters>84.1999969482421875</AltitudeMeters>
            <DistanceMeters>126269.48041913</DistanceMeters>
          </Trackpoint>
          <Trackpoint>
            <Time>2018-09-13T14:40:02.000Z</Time>
            <Position>
              <LatitudeDegrees>38.94521229900419712066650390625</LatitudeDegrees>
              <LongitudeDegrees>-8.1508444435894489288330078125</LongitudeDegrees>
            </Position>
            <AltitudeMeters>84.59999847412109375</AltitudeMeters>
            <DistanceMeters>126281.9593481</DistanceMeters>
          </Trackpoint>
          <Trackpoint>
            <Time>2018-09-13T14:40:05.000Z</Time>
            <Position>
              <LatitudeDegrees>38.94516837783157825469970703125</LatitudeDegrees>
              <LongitudeDegrees>-8.15104133449494838714599609375</LongitudeDegrees>
            </Position>
            <AltitudeMeters>85.8000030517578125</AltitudeMeters>
            <DistanceMeters>126299.69042651</DistanceMeters>
          </Trackpoint>
          <Trackpoint>
            <Time>2018-09-13T14:40:06.000Z</Time>
            <Position>
              <LatitudeDegrees>38.945152200758457183837890625</LatitudeDegrees>
              <LongitudeDegrees>-8.1511032767593860626220703125</LongitudeDegrees>
            </Position>
            <AltitudeMeters>86.1999969482421875</AltitudeMeters>
            <DistanceMeters>126305.34671158</DistanceMeters>
          </Trackpoint>
          <Trackpoint>
            <Time>2018-09-13T14:40:09.000Z</Time>
            <Position>
              <LatitudeDegrees>38.94510081969201564788818359375</LatitudeDegrees>
              <LongitudeDegrees>-8.15128457732498645782470703125</LongitudeDegrees>
            </Position>
            <AltitudeMeters>87.59999847412109375</AltitudeMeters>
            <DistanceMeters>126322.05007268</DistanceMeters>
          </Trackpoint>
          <Trackpoint>
            <Time>2018-09-13T14:40:12.000Z</Time>
            <Position>
              <LatitudeDegrees>38.9450551383197307586669921875</LatitudeDegrees>
              <LongitudeDegrees>-8.1514600105583667755126953125</LongitudeDegrees>
            </Position>
            <AltitudeMeters>88.8000030517578125</AltitudeMeters>
            <DistanceMeters>126338.06538695</DistanceMeters>
          </Trackpoint>
          <Trackpoint>
            <Time>2018-09-13T14:40:16.000Z</Time>
            <Position>
              <LatitudeDegrees>38.94499755464494228363037109375</LatitudeDegrees>
              <LongitudeDegrees>-8.151687495410442352294921875</LongitudeDegrees>
            </Position>
            <AltitudeMeters>90.40000152587890625</AltitudeMeters>
            <DistanceMeters>126358.77467112</DistanceMeters>
          </Trackpoint>
          <Trackpoint>
            <Time>2018-09-13T14:40:17.000Z</Time>
            <Position>
              <LatitudeDegrees>38.94498129375278949737548828125</LatitudeDegrees>
              <LongitudeDegrees>-8.15174222923815250396728515625</LongitudeDegrees>
            </Position>
            <AltitudeMeters>90.8000030517578125</AltitudeMeters>
            <DistanceMeters>126363.84681936</DistanceMeters>
          </Trackpoint>
          <Trackpoint>
            <Time>2018-09-13T14:40:23.000Z</Time>
            <Position>
              <LatitudeDegrees>38.94489512778818607330322265625</LatitudeDegrees>
              <LongitudeDegrees>-8.15205152146518230438232421875</LongitudeDegrees>
            </Position>
            <AltitudeMeters>91</AltitudeMeters>
            <DistanceMeters>126392.28664965</DistanceMeters>
          </Trackpoint>
          <Trackpoint>
            <Time>2018-09-13T14:40:28.000Z</Time>
            <Position>
              <LatitudeDegrees>38.94481449387967586517333984375</LatitudeDegrees>
              <LongitudeDegrees>-8.15229811705648899078369140625</LongitudeDegrees>
            </Position>
            <AltitudeMeters>91</AltitudeMeters>
            <DistanceMeters>126415.4431606</DistanceMeters>
          </Trackpoint>
          <Trackpoint>
            <Time>2018-09-13T14:40:33.000Z</Time>
            <Position>
              <LatitudeDegrees>38.94473905675113201141357421875</LatitudeDegrees>
              <LongitudeDegrees>-8.1525536812841892242431640625</LongitudeDegrees>
            </Position>
            <AltitudeMeters>91.1999969482421875</AltitudeMeters>
            <DistanceMeters>126439.10595735</DistanceMeters>
          </Trackpoint>
          <Trackpoint>
            <Time>2018-09-13T14:40:40.000Z</Time>
            <Position>
              <LatitudeDegrees>38.94464702345430850982666015625</LatitudeDegrees>
              <LongitudeDegrees>-8.15293078310787677764892578125</LongitudeDegrees>
            </Position>
            <AltitudeMeters>91</AltitudeMeters>
            <DistanceMeters>126473.31953374</DistanceMeters>
          </Trackpoint>
          <Trackpoint>
            <Time>2018-09-13T14:40:41.000Z</Time>
            <Position>
              <LatitudeDegrees>38.94463042728602886199951171875</LatitudeDegrees>
              <LongitudeDegrees>-8.1529848463833332061767578125</LongitudeDegrees>
            </Position>
            <AltitudeMeters>91</AltitudeMeters>
            <DistanceMeters>126478.35325945</DistanceMeters>
          </Trackpoint>
          <Trackpoint>
            <Time>2018-09-13T14:40:52.000Z</Time>
            <Position>
              <LatitudeDegrees>38.9444264955818653106689453125</LatitudeDegrees>
              <LongitudeDegrees>-8.1535948812961578369140625</LongitudeDegrees>
            </Position>
            <AltitudeMeters>90.59999847412109375</AltitudeMeters>
            <DistanceMeters>126535.83279737</DistanceMeters>
          </Trackpoint>
          <Trackpoint>
            <Time>2018-09-13T14:41:03.000Z</Time>
            <Position>
              <LatitudeDegrees>38.944194316864013671875</LatitudeDegrees>
              <LongitudeDegrees>-8.15422712825238704681396484375</LongitudeDegrees>
            </Position>
            <AltitudeMeters>91</AltitudeMeters>
            <DistanceMeters>126596.35787722</DistanceMeters>
          </Trackpoint>
          <Trackpoint>
            <Time>2018-09-13T14:41:07.000Z</Time>
            <Position>
              <LatitudeDegrees>38.94410974346101284027099609375</LatitudeDegrees>
              <LongitudeDegrees>-8.154458217322826385498046875</LongitudeDegrees>
            </Position>
            <AltitudeMeters>91.8000030517578125</AltitudeMeters>
            <DistanceMeters>126618.4664504</DistanceMeters>
          </Trackpoint>
          <Trackpoint>
            <Time>2018-09-13T14:41:17.000Z</Time>
            <Position>
              <LatitudeDegrees>38.94391444511711597442626953125</LatitudeDegrees>
              <LongitudeDegrees>-8.15503380261361598968505859375</LongitudeDegrees>
            </Position>
            <AltitudeMeters>93.8000030517578125</AltitudeMeters>
            <DistanceMeters>126672.8278775</DistanceMeters>
          </Trackpoint>
          <Trackpoint>
            <Time>2018-09-13T14:41:25.000Z</Time>
            <Position>
              <LatitudeDegrees>38.94379089586436748504638671875</LatitudeDegrees>
              <LongitudeDegrees>-8.155487515032291412353515625</LongitudeDegrees>
            </Position>
            <AltitudeMeters>95.40000152587890625</AltitudeMeters>
            <DistanceMeters>126714.44187575</DistanceMeters>
          </Trackpoint>
          <Trackpoint>
            <Time>2018-09-13T14:41:34.000Z</Time>
            <Position>
              <LatitudeDegrees>38.94368042238056659698486328125</LatitudeDegrees>
              <LongitudeDegrees>-8.15600551664829254150390625</LongitudeDegrees>
            </Position>
            <AltitudeMeters>97</AltitudeMeters>
            <DistanceMeters>126760.93878793</DistanceMeters>
          </Trackpoint>
          <Trackpoint>
            <Time>2018-09-13T14:41:40.000Z</Time>
            <Position>
              <LatitudeDegrees>38.94364052452147006988525390625</LatitudeDegrees>
              <LongitudeDegrees>-8.15634439699351787567138671875</LongitudeDegrees>
            </Position>
            <AltitudeMeters>97.8000030517578125</AltitudeMeters>
            <DistanceMeters>126790.6087396</DistanceMeters>
          </Trackpoint>
          <Trackpoint>
            <Time>2018-09-13T14:41:42.000Z</Time>
            <Position>
              <LatitudeDegrees>38.94363750703632831573486328125</LatitudeDegrees>
              <LongitudeDegrees>-8.156456463038921356201171875</LongitudeDegrees>
            </Position>
            <AltitudeMeters>98</AltitudeMeters>
            <DistanceMeters>126800.31542892</DistanceMeters>
          </Trackpoint>
          <Trackpoint>
            <Time>2018-09-13T14:41:45.000Z</Time>
            <Position>
              <LatitudeDegrees>38.9436754770576953887939453125</LatitudeDegrees>
              <LongitudeDegrees>-8.15661747939884662628173828125</LongitudeDegrees>
            </Position>
            <AltitudeMeters>97.8000030517578125</AltitudeMeters>
            <DistanceMeters>126814.88088861</DistanceMeters>
          </Trackpoint>
          <Trackpoint>
            <Time>2018-09-13T14:41:46.000Z</Time>
            <Position>
              <LatitudeDegrees>38.94369341433048248291015625</LatitudeDegrees>
              <LongitudeDegrees>-8.156670033931732177734375</LongitudeDegrees>
            </Position>
            <AltitudeMeters>97.59999847412109375</AltitudeMeters>
            <DistanceMeters>126819.8496137</DistanceMeters>
          </Trackpoint>
          <Trackpoint>
            <Time>2018-09-13T14:41:48.000Z</Time>
            <Position>
              <LatitudeDegrees>38.9437204040586948394775390625</LatitudeDegrees>
              <LongitudeDegrees>-8.15677857957780361175537109375</LongitudeDegrees>
            </Position>
            <AltitudeMeters>97.1999969482421875</AltitudeMeters>
            <DistanceMeters>126829.71501607</DistanceMeters>
          </Trackpoint>
          <Trackpoint>
            <Time>2018-09-13T14:41:54.000Z</Time>
            <Position>
              <LatitudeDegrees>38.9436530135571956634521484375</LatitudeDegrees>
              <LongitudeDegrees>-8.15706926397979259490966796875</LongitudeDegrees>
            </Position>
            <AltitudeMeters>98.40000152587890625</AltitudeMeters>
            <DistanceMeters>126855.97267013</DistanceMeters>
          </Trackpoint>
          <Trackpoint>
            <Time>2018-09-13T14:41:55.000Z</Time>
            <Position>
              <LatitudeDegrees>38.943636082112789154052734375</LatitudeDegrees>
              <LongitudeDegrees>-8.1571057252585887908935546875</LongitudeDegrees>
            </Position>
            <AltitudeMeters>98.59999847412109375</AltitudeMeters>
            <DistanceMeters>126859.64812851</DistanceMeters>
          </Trackpoint>
          <Trackpoint>
            <Time>2018-09-13T14:41:59.000Z</Time>
            <Position>
              <LatitudeDegrees>38.94361822865903377532958984375</LatitudeDegrees>
              <LongitudeDegrees>-8.15723589621484279632568359375</LongitudeDegrees>
            </Position>
            <AltitudeMeters>99</AltitudeMeters>
            <DistanceMeters>126871.09046562</DistanceMeters>
          </Trackpoint>
          <Trackpoint>
            <Time>2018-09-13T14:42:01.000Z</Time>
            <Position>
              <LatitudeDegrees>38.943660221993923187255859375</LatitudeDegrees>
              <LongitudeDegrees>-8.15727420151233673095703125</LongitudeDegrees>
            </Position>
            <AltitudeMeters>98.59999847412109375</AltitudeMeters>
            <DistanceMeters>126876.82129348</DistanceMeters>
          </Trackpoint>
          <Trackpoint>
            <Time>2018-09-13T14:42:03.000Z</Time>
            <Position>
              <LatitudeDegrees>38.943730629980564117431640625</LatitudeDegrees>
              <LongitudeDegrees>-8.1572807393968105316162109375</LongitudeDegrees>
            </Position>
            <AltitudeMeters>97.8000030517578125</AltitudeMeters>
            <DistanceMeters>126884.67811234</DistanceMeters>
          </Trackpoint>
          <Trackpoint>
            <Time>2018-09-13T14:42:04.000Z</Time>
            <Position>
              <LatitudeDegrees>38.94376717507839202880859375</LatitudeDegrees>
              <LongitudeDegrees>-8.15727579407393932342529296875</LongitudeDegrees>
            </Position>
            <AltitudeMeters>97.1999969482421875</AltitudeMeters>
            <DistanceMeters>126888.76867852</DistanceMeters>
          </Trackpoint>
          <Trackpoint>
            <Time>2018-09-13T14:42:06.000Z</Time>
            <Position>
              <LatitudeDegrees>38.9438206516206264495849609375</LatitudeDegrees>
              <LongitudeDegrees>-8.1572804041206836700439453125</LongitudeDegrees>
            </Position>
            <AltitudeMeters>96.59999847412109375</AltitudeMeters>
            <DistanceMeters>126894.7334502</DistanceMeters>
          </Trackpoint>
          <Trackpoint>
            <Time>2018-09-13T14:42:09.000Z</Time>
            <Position>
              <LatitudeDegrees>38.94384386949241161346435546875</LatitudeDegrees>
              <LongitudeDegrees>-8.15730035305023193359375</LongitudeDegrees>
            </Position>
            <AltitudeMeters>96.40000152587890625</AltitudeMeters>
            <DistanceMeters>126897.83894881</DistanceMeters>
          </Trackpoint>
          <Trackpoint>
            <Time>2018-09-13T14:58:17.000Z</Time>
            <Position>
              <LatitudeDegrees>38.9438374154269695281982421875</LatitudeDegrees>
              <LongitudeDegrees>-8.157213516533374786376953125</LongitudeDegrees>
            </Position>
            <AltitudeMeters>96.40000152587890625</AltitudeMeters>
            <DistanceMeters>126905.39103215</DistanceMeters>
          </Trackpoint>
          <Trackpoint>
            <Time>2018-09-13T14:58:18.000Z</Time>
            <Position>
              <LatitudeDegrees>38.94384521059691905975341796875</LatitudeDegrees>
              <LongitudeDegrees>-8.15722550265491008758544921875</LongitudeDegrees>
            </Position>
            <AltitudeMeters>96.1999969482421875</AltitudeMeters>
            <DistanceMeters>126906.74161553</DistanceMeters>
          </Trackpoint>
          <Trackpoint>
            <Time>2018-09-13T14:58:19.000Z</Time>
            <Position>
              <LatitudeDegrees>38.94383766688406467437744140625</LatitudeDegrees>
              <LongitudeDegrees>-8.15723103471100330352783203125</LongitudeDegrees>
            </Position>
            <AltitudeMeters>96.40000152587890625</AltitudeMeters>
            <DistanceMeters>126907.70603135</DistanceMeters>
          </Trackpoint>
          <Trackpoint>
            <Time>2018-09-13T14:58:22.000Z</Time>
            <Position>
              <LatitudeDegrees>38.94379592500627040863037109375</LatitudeDegrees>
              <LongitudeDegrees>-8.15724142827093601226806640625</LongitudeDegrees>
            </Position>
            <AltitudeMeters>96.8000030517578125</AltitudeMeters>
            <DistanceMeters>126912.43927755</DistanceMeters>
          </Trackpoint>
          <Trackpoint>
            <Time>2018-09-13T14:58:28.000Z</Time>
            <Position>
              <LatitudeDegrees>38.94369634799659252166748046875</LatitudeDegrees>
              <LongitudeDegrees>-8.1572824157774448394775390625</LongitudeDegrees>
            </Position>
            <AltitudeMeters>98.1999969482421875</AltitudeMeters>
            <DistanceMeters>126924.07607378</DistanceMeters>
          </Trackpoint>
          <Trackpoint>
            <Time>2018-09-13T14:58:30.000Z</Time>
            <Position>
              <LatitudeDegrees>38.9436644129455089569091796875</LatitudeDegrees>
              <LongitudeDegrees>-8.1572901271283626556396484375</LongitudeDegrees>
            </Position>
            <AltitudeMeters>98.59999847412109375</AltitudeMeters>
            <DistanceMeters>126927.69458325</DistanceMeters>
          </Trackpoint>
          <Trackpoint>
            <Time>2018-09-13T14:58:32.000Z</Time>
            <Position>
              <LatitudeDegrees>38.9436295442283153533935546875</LatitudeDegrees>
              <LongitudeDegrees>-8.1572861038148403167724609375</LongitudeDegrees>
            </Position>
            <AltitudeMeters>99</AltitudeMeters>
            <DistanceMeters>126931.59067854</DistanceMeters>
          </Trackpoint>
          <Trackpoint>
            <Time>2018-09-13T14:58:36.000Z</Time>
            <Position>
              <LatitudeDegrees>38.943611942231655120849609375</LatitudeDegrees>
              <LongitudeDegrees>-8.157378472387790679931640625</LongitudeDegrees>
            </Position>
            <AltitudeMeters>99.1999969482421875</AltitudeMeters>
            <DistanceMeters>126939.82352458</DistanceMeters>
          </Trackpoint>
          <Trackpoint>
            <Time>2018-09-13T14:58:37.000Z</Time>
            <Position>
              <LatitudeDegrees>38.943611942231655120849609375</LatitudeDegrees>
              <LongitudeDegrees>-8.15740588121116161346435546875</LongitudeDegrees>
            </Position>
            <AltitudeMeters>99.40000152587890625</AltitudeMeters>
            <DistanceMeters>126942.19729114</DistanceMeters>
          </Trackpoint>
          <Trackpoint>
            <Time>2018-09-13T14:58:41.000Z</Time>
            <Position>
              <LatitudeDegrees>38.94360934384167194366455078125</LatitudeDegrees>
              <LongitudeDegrees>-8.1575140915811061859130859375</LongitudeDegrees>
            </Position>
            <AltitudeMeters>99.40000152587890625</AltitudeMeters>
            <DistanceMeters>126951.56887177</DistanceMeters>
          </Trackpoint>
          <Trackpoint>
            <Time>2018-09-13T14:58:43.000Z</Time>
            <Position>
              <LatitudeDegrees>38.943607918918132781982421875</LatitudeDegrees>
              <LongitudeDegrees>-8.157571256160736083984375</LongitudeDegrees>
            </Position>
            <AltitudeMeters>99.59999847412109375</AltitudeMeters>
            <DistanceMeters>126956.51938967</DistanceMeters>
          </Trackpoint>
          <Trackpoint>
            <Time>2018-09-13T14:58:48.000Z</Time>
            <Position>
              <LatitudeDegrees>38.94362501800060272216796875</LatitudeDegrees>
              <LongitudeDegrees>-8.1577507965266704559326171875</LongitudeDegrees>
            </Position>
            <AltitudeMeters>100.1999969482421875</AltitudeMeters>
            <DistanceMeters>126972.17776237</DistanceMeters>
          </Trackpoint>
          <Trackpoint>
            <Time>2018-09-13T14:59:01.000Z</Time>
            <Position>
              <LatitudeDegrees>38.94367941655218601226806640625</LatitudeDegrees>
              <LongitudeDegrees>-8.15820224583148956298828125</LongitudeDegrees>
            </Position>
            <AltitudeMeters>102.1999969482421875</AltitudeMeters>
            <DistanceMeters>127011.72451988</DistanceMeters>
          </Trackpoint>
          <Trackpoint>
            <Time>2018-09-13T14:59:13.000Z</Time>
            <Position>
              <LatitudeDegrees>38.9437160454690456390380859375</LatitudeDegrees>
              <LongitudeDegrees>-8.15859041176736354827880859375</LongitudeDegrees>
            </Position>
            <AltitudeMeters>103.40000152587890625</AltitudeMeters>
            <DistanceMeters>127045.57311024</DistanceMeters>
          </Trackpoint>
          <Trackpoint>
            <Time>2018-09-13T14:59:25.000Z</Time>
            <Position>
              <LatitudeDegrees>38.943752758204936981201171875</LatitudeDegrees>
              <LongitudeDegrees>-8.15902300179004669189453125</LongitudeDegrees>
            </Position>
            <AltitudeMeters>104.8000030517578125</AltitudeMeters>
            <DistanceMeters>127083.24326278</DistanceMeters>
          </Trackpoint>
          <Trackpoint>
            <Time>2018-09-13T14:59:35.000Z</Time>
            <Position>
              <LatitudeDegrees>38.94374974071979522705078125</LatitudeDegrees>
              <LongitudeDegrees>-8.1593991816043853759765625</LongitudeDegrees>
            </Position>
            <AltitudeMeters>106</AltitudeMeters>
            <DistanceMeters>127115.80943216</DistanceMeters>
          </Trackpoint>
          <Trackpoint>
            <Time>2018-09-13T14:59:48.000Z</Time>
            <Position>
              <LatitudeDegrees>38.9436852000653743743896484375</LatitudeDegrees>
              <LongitudeDegrees>-8.1599743478000164031982421875</LongitudeDegrees>
            </Position>
            <AltitudeMeters>107.1999969482421875</AltitudeMeters>
            <DistanceMeters>127166.11510643</DistanceMeters>
          </Trackpoint>
          <Trackpoint>
            <Time>2018-09-13T14:59:55.000Z</Time>
            <Position>
              <LatitudeDegrees>38.9436136186122894287109375</LatitudeDegrees>
              <LongitudeDegrees>-8.16032923758029937744140625</LongitudeDegrees>
            </Position>
            <AltitudeMeters>107.59999847412109375</AltitudeMeters>
            <DistanceMeters>127197.85317548</DistanceMeters>
          </Trackpoint>
          <Trackpoint>
            <Time>2018-09-13T15:00:03.000Z</Time>
            <Position>
              <LatitudeDegrees>38.94348596222698688507080078125</LatitudeDegrees>
              <LongitudeDegrees>-8.1607719697058200836181640625</LongitudeDegrees>
            </Position>
            <AltitudeMeters>107.40000152587890625</AltitudeMeters>
            <DistanceMeters>127238.72803051</DistanceMeters>
          </Trackpoint>
          <Trackpoint>
            <Time>2018-09-13T15:00:09.000Z</Time>
            <Position>
              <LatitudeDegrees>38.94335704855620861053466796875</LatitudeDegrees>
              <LongitudeDegrees>-8.1610777415335178375244140625</LongitudeDegrees>
            </Position>
            <AltitudeMeters>107.40000152587890625</AltitudeMeters>
            <DistanceMeters>127268.83635684</DistanceMeters>
          </Trackpoint>
          <Trackpoint>
            <Time>2018-09-13T15:00:22.000Z</Time>
            <Position>
              <LatitudeDegrees>38.9430401287972927093505859375</LatitudeDegrees>
              <LongitudeDegrees>-8.1616463698446750640869140625</LongitudeDegrees>
            </Position>
            <AltitudeMeters>108.1999969482421875</AltitudeMeters>
            <DistanceMeters>127329.39454906</DistanceMeters>
          </Trackpoint>
          <Trackpoint>
            <Time>2018-09-13T15:00:24.000Z</Time>
            <Position>
              <LatitudeDegrees>38.9429868198931217193603515625</LatitudeDegrees>
              <LongitudeDegrees>-8.16172666847705841064453125</LongitudeDegrees>
            </Position>
            <AltitudeMeters>108.40000152587890625</AltitudeMeters>
            <DistanceMeters>127338.53343176</DistanceMeters>
          </Trackpoint>
          <Trackpoint>
            <Time>2018-09-13T15:00:29.000Z</Time>
            <Position>
              <LatitudeDegrees>38.94285145215690135955810546875</LatitudeDegrees>
              <LongitudeDegrees>-8.1619166024029254913330078125</LongitudeDegrees>
            </Position>
            <AltitudeMeters>109.40000152587890625</AltitudeMeters>
            <DistanceMeters>127360.8345638</DistanceMeters>
          </Trackpoint>
          <Trackpoint>
            <Time>2018-09-13T15:00:35.000Z</Time>
            <Position>
              <LatitudeDegrees>38.942706026136875152587890625</LatitudeDegrees>
              <LongitudeDegrees>-8.162124641239643096923828125</LongitudeDegrees>
            </Position>
            <AltitudeMeters>110.8000030517578125</AltitudeMeters>
            <DistanceMeters>127385.04904136</DistanceMeters>
          </Trackpoint>
          <Trackpoint>
            <Time>2018-09-13T15:00:40.000Z</Time>
            <Position>
              <LatitudeDegrees>38.942589350044727325439453125</LatitudeDegrees>
              <LongitudeDegrees>-8.1622941233217716217041015625</LongitudeDegrees>
            </Position>
            <AltitudeMeters>112.1999969482421875</AltitudeMeters>
            <DistanceMeters>127404.64252676</DistanceMeters>
          </Trackpoint>
          <Trackpoint>
            <Time>2018-09-13T15:00:44.000Z</Time>
            <Position>
              <LatitudeDegrees>38.94250041805207729339599609375</LatitudeDegrees>
              <LongitudeDegrees>-8.162423036992549896240234375</LongitudeDegrees>
            </Position>
            <AltitudeMeters>113.40000152587890625</AltitudeMeters>
            <DistanceMeters>127419.55960234</DistanceMeters>
          </Trackpoint>
          <Trackpoint>
            <Time>2018-09-13T15:00:52.000Z</Time>
            <Position>
              <LatitudeDegrees>38.94232548773288726806640625</LatitudeDegrees>
              <LongitudeDegrees>-8.16267658956348896026611328125</LongitudeDegrees>
            </Position>
            <AltitudeMeters>115.59999847412109375</AltitudeMeters>
            <DistanceMeters>127448.90009104</DistanceMeters>
          </Trackpoint>
          <Trackpoint>
            <Time>2018-09-13T15:00:58.000Z</Time>
            <Position>
              <LatitudeDegrees>38.94219942390918731689453125</LatitudeDegrees>
              <LongitudeDegrees>-8.1628597341477870941162109375</LongitudeDegrees>
            </Position>
            <AltitudeMeters>117.40000152587890625</AltitudeMeters>
            <DistanceMeters>127470.07143735</DistanceMeters>
          </Trackpoint>
          <Trackpoint>
            <Time>2018-09-13T15:01:01.000Z</Time>
            <Position>
              <LatitudeDegrees>38.94213647581636905670166015625</LatitudeDegrees>
              <LongitudeDegrees>-8.1629522703588008880615234375</LongitudeDegrees>
            </Position>
            <AltitudeMeters>118.40000152587890625</AltitudeMeters>
            <DistanceMeters>127480.71358087</DistanceMeters>
          </Trackpoint>
          <Trackpoint>
            <Time>2018-09-13T15:01:03.000Z</Time>
            <Position>
              <LatitudeDegrees>38.9420926384627819061279296875</LatitudeDegrees>
              <LongitudeDegrees>-8.16301471553742885589599609375</LongitudeDegrees>
            </Position>
            <AltitudeMeters>119</AltitudeMeters>
            <DistanceMeters>127487.99538071</DistanceMeters>
          </Trackpoint>
          <Trackpoint>
            <Time>2018-09-13T15:01:07.000Z</Time>
            <Position>
              <LatitudeDegrees>38.94200772978365421295166015625</LatitudeDegrees>
              <LongitudeDegrees>-8.16314329393208026885986328125</LongitudeDegrees>
            </Position>
            <AltitudeMeters>120.1999969482421875</AltitudeMeters>
            <DistanceMeters>127502.5967541</DistanceMeters>
          </Trackpoint>
          <Trackpoint>
            <Time>2018-09-13T15:01:08.000Z</Time>
            <Position>
              <LatitudeDegrees>38.94198459573090076446533203125</LatitudeDegrees>
              <LongitudeDegrees>-8.1631742231547832489013671875</LongitudeDegrees>
            </Position>
            <AltitudeMeters>120.59999847412109375</AltitudeMeters>
            <DistanceMeters>127506.31131421</DistanceMeters>
          </Trackpoint>
          <Trackpoint>
            <Time>2018-09-13T15:01:12.000Z</Time>
            <Position>
              <LatitudeDegrees>38.94189767539501190185546875</LatitudeDegrees>
              <LongitudeDegrees>-8.16330053843557834625244140625</LongitudeDegrees>
            </Position>
            <AltitudeMeters>121.8000030517578125</AltitudeMeters>
            <DistanceMeters>127520.91145067</DistanceMeters>
          </Trackpoint>
          <Trackpoint>
            <Time>2018-09-13T15:01:20.000Z</Time>
            <Position>
              <LatitudeDegrees>38.94173783250153064727783203125</LatitudeDegrees>
              <LongitudeDegrees>-8.16353841684758663177490234375</LongitudeDegrees>
            </Position>
            <AltitudeMeters>123.1999969482421875</AltitudeMeters>
            <DistanceMeters>127548.12495153</DistanceMeters>
          </Trackpoint>
          <Trackpoint>
            <Time>2018-09-13T15:01:28.000Z</Time>
            <Position>
              <LatitudeDegrees>38.941576816141605377197265625</LatitudeDegrees>
              <LongitudeDegrees>-8.16376707516610622406005859375</LongitudeDegrees>
            </Position>
            <AltitudeMeters>124.40000152587890625</AltitudeMeters>
            <DistanceMeters>127574.82712009</DistanceMeters>
          </Trackpoint>
          <Trackpoint>
            <Time>2018-09-13T15:01:35.000Z</Time>
            <Position>
              <LatitudeDegrees>38.941434659063816070556640625</LatitudeDegrees>
              <LongitudeDegrees>-8.16397125832736492156982421875</LongitudeDegrees>
            </Position>
            <AltitudeMeters>125.59999847412109375</AltitudeMeters>
            <DistanceMeters>127598.55013538</DistanceMeters>
          </Trackpoint>
          <Trackpoint>
            <Time>2018-09-13T15:01:39.000Z</Time>
            <Position>
              <LatitudeDegrees>38.941356875002384185791015625</LatitudeDegrees>
              <LongitudeDegrees>-8.16408592276275157928466796875</LongitudeDegrees>
            </Position>
            <AltitudeMeters>126.1999969482421875</AltitudeMeters>
            <DistanceMeters>127611.7215373</DistanceMeters>
          </Trackpoint>
          <Trackpoint>
            <Time>2018-09-13T15:01:45.000Z</Time>
            <Position>
              <LatitudeDegrees>38.941230140626430511474609375</LatitudeDegrees>
              <LongitudeDegrees>-8.16425020806491374969482421875</LongitudeDegrees>
            </Position>
            <AltitudeMeters>127.1999969482421875</AltitudeMeters>
            <DistanceMeters>127631.75257364</DistanceMeters>
          </Trackpoint>
          <Trackpoint>
            <Time>2018-09-13T15:01:51.000Z</Time>
            <Position>
              <LatitudeDegrees>38.94109762273728847503662109375</LatitudeDegrees>
              <LongitudeDegrees>-8.1644144095480442047119140625</LongitudeDegrees>
            </Position>
            <AltitudeMeters>128.1999969482421875</AltitudeMeters>
            <DistanceMeters>127652.23716839</DistanceMeters>
          </Trackpoint>
          <Trackpoint>
            <Time>2018-09-13T15:01:59.000Z</Time>
            <Position>
              <LatitudeDegrees>38.94091439433395862579345703125</LatitudeDegrees>
              <LongitudeDegrees>-8.16461398266255855560302734375</LongitudeDegrees>
            </Position>
            <AltitudeMeters>128.399993896484375</AltitudeMeters>
            <DistanceMeters>127678.96553287</DistanceMeters>
          </Trackpoint>
          <Trackpoint>
            <Time>2018-09-13T15:02:04.000Z</Time>
            <Position>
              <LatitudeDegrees>38.94078045152127742767333984375</LatitudeDegrees>
              <LongitudeDegrees>-8.16473250277340412139892578125</LongitudeDegrees>
            </Position>
            <AltitudeMeters>128.399993896484375</AltitudeMeters>
            <DistanceMeters>127697.06307062</DistanceMeters>
          </Trackpoint>
          <Trackpoint>
            <Time>2018-09-13T15:02:11.000Z</Time>
            <Position>
              <LatitudeDegrees>38.94058984704315662384033203125</LatitudeDegrees>
              <LongitudeDegrees>-8.1648975424468517303466796875</LongitudeDegrees>
            </Position>
            <AltitudeMeters>128.399993896484375</AltitudeMeters>
            <DistanceMeters>127722.6402659</DistanceMeters>
          </Trackpoint>
          <Trackpoint>
            <Time>2018-09-13T15:02:17.000Z</Time>
            <Position>
              <LatitudeDegrees>38.9404219575226306915283203125</LatitudeDegrees>
              <LongitudeDegrees>-8.16502603702247142791748046875</LongitudeDegrees>
            </Position>
            <AltitudeMeters>128.1999969482421875</AltitudeMeters>
            <DistanceMeters>127744.38706252</DistanceMeters>
          </Trackpoint>
          <Trackpoint>
            <Time>2018-09-13T15:02:26.000Z</Time>
            <Position>
              <LatitudeDegrees>38.9401637949049472808837890625</LatitudeDegrees>
              <LongitudeDegrees>-8.165200464427471160888671875</LongitudeDegrees>
            </Position>
            <AltitudeMeters>128.399993896484375</AltitudeMeters>
            <DistanceMeters>127776.84727571</DistanceMeters>
          </Trackpoint>
          <Trackpoint>
            <Time>2018-09-13T15:02:27.000Z</Time>
            <Position>
              <LatitudeDegrees>38.9401332847774028778076171875</LatitudeDegrees>
              <LongitudeDegrees>-8.1652190722525119781494140625</LongitudeDegrees>
            </Position>
            <AltitudeMeters>128.600006103515625</AltitudeMeters>
            <DistanceMeters>127780.60533898</DistanceMeters>
          </Trackpoint>
          <Trackpoint>
            <Time>2018-09-13T15:02:43.000Z</Time>
            <Position>
              <LatitudeDegrees>38.93960279412567615509033203125</LatitudeDegrees>
              <LongitudeDegrees>-8.165486119687557220458984375</LongitudeDegrees>
            </Position>
            <AltitudeMeters>129.8000030517578125</AltitudeMeters>
            <DistanceMeters>127844.01465113</DistanceMeters>
          </Trackpoint>
          <Trackpoint>
            <Time>2018-09-13T15:02:55.000Z</Time>
            <Position>
              <LatitudeDegrees>38.93916408531367778778076171875</LatitudeDegrees>
              <LongitudeDegrees>-8.16564747132360935211181640625</LongitudeDegrees>
            </Position>
            <AltitudeMeters>130</AltitudeMeters>
            <DistanceMeters>127894.80240739</DistanceMeters>
          </Trackpoint>
          <Trackpoint>
            <Time>2018-09-13T15:03:10.000Z</Time>
            <Position>
              <LatitudeDegrees>38.93868514336645603179931640625</LatitudeDegrees>
              <LongitudeDegrees>-8.16599096171557903289794921875</LongitudeDegrees>
            </Position>
            <AltitudeMeters>130.399993896484375</AltitudeMeters>
            <DistanceMeters>127955.84285268</DistanceMeters>
          </Trackpoint>
          <Trackpoint>
            <Time>2018-09-13T15:03:13.000Z</Time>
            <Position>
              <LatitudeDegrees>38.93856561742722988128662109375</LatitudeDegrees>
              <LongitudeDegrees>-8.1659556739032268524169921875</LongitudeDegrees>
            </Position>
            <AltitudeMeters>130</AltitudeMeters>
            <DistanceMeters>127969.49234122</DistanceMeters>
          </Trackpoint>
          <Trackpoint>
            <Time>2018-09-13T15:03:14.000Z</Time>
            <Position>
              <LatitudeDegrees>38.9385249651968479156494140625</LatitudeDegrees>
              <LongitudeDegrees>-8.1659395806491374969482421875</LongitudeDegrees>
            </Position>
            <AltitudeMeters>130.399993896484375</AltitudeMeters>
            <DistanceMeters>127974.22654123</DistanceMeters>
          </Trackpoint>
          <Trackpoint>
            <Time>2018-09-13T15:03:20.000Z</Time>
            <Position>
              <LatitudeDegrees>38.93829278647899627685546875</LatitudeDegrees>
              <LongitudeDegrees>-8.1659422628581523895263671875</LongitudeDegrees>
            </Position>
            <AltitudeMeters>132.399993896484375</AltitudeMeters>
            <DistanceMeters>128000.06961484</DistanceMeters>
          </Trackpoint>
          <Trackpoint>
            <Time>2018-09-13T15:03:23.000Z</Time>
            <Position>
              <LatitudeDegrees>38.93818139098584651947021484375</LatitudeDegrees>
              <LongitudeDegrees>-8.16597436554729938507080078125</LongitudeDegrees>
            </Position>
            <AltitudeMeters>133.1999969482421875</AltitudeMeters>
            <DistanceMeters>128012.77550744</DistanceMeters>
          </Trackpoint>
          <Trackpoint>
            <Time>2018-09-13T15:03:30.000Z</Time>
            <Position>
              <LatitudeDegrees>38.93794300965964794158935546875</LatitudeDegrees>
              <LongitudeDegrees>-8.1660602800548076629638671875</LongitudeDegrees>
            </Position>
            <AltitudeMeters>134.8000030517578125</AltitudeMeters>
            <DistanceMeters>128040.33063305</DistanceMeters>
          </Trackpoint>
          <Trackpoint>
            <Time>2018-09-13T15:03:35.000Z</Time>
            <Position>
              <LatitudeDegrees>38.93777520395815372467041015625</LatitudeDegrees>
              <LongitudeDegrees>-8.16612574271857738494873046875</LongitudeDegrees>
            </Position>
            <AltitudeMeters>136</AltitudeMeters>
            <DistanceMeters>128059.84885185</DistanceMeters>
          </Trackpoint>
          <Trackpoint>
            <Time>2018-09-13T15:03:43.000Z</Time>
            <Position>
              <LatitudeDegrees>38.937512598931789398193359375</LatitudeDegrees>
              <LongitudeDegrees>-8.1662131659686565399169921875</LongitudeDegrees>
            </Position>
            <AltitudeMeters>138</AltitudeMeters>
            <DistanceMeters>128090.04148749</DistanceMeters>
          </Trackpoint>
          <Trackpoint>
            <Time>2018-09-13T15:03:54.000Z</Time>
            <Position>
              <LatitudeDegrees>38.9371677674353122711181640625</LatitudeDegrees>
              <LongitudeDegrees>-8.16634836606681346893310546875</LongitudeDegrees>
            </Position>
            <AltitudeMeters>140.1999969482421875</AltitudeMeters>
            <DistanceMeters>128130.16707322</DistanceMeters>
          </Trackpoint>
          <Trackpoint>
            <Time>2018-09-13T15:04:01.000Z</Time>
            <Position>
              <LatitudeDegrees>38.9369523525238037109375</LatitudeDegrees>
              <LongitudeDegrees>-8.16643235273659229278564453125</LongitudeDegrees>
            </Position>
            <AltitudeMeters>141.399993896484375</AltitudeMeters>
            <DistanceMeters>128155.2217094</DistanceMeters>
          </Trackpoint>
          <Trackpoint>
            <Time>2018-09-13T15:04:05.000Z</Time>
            <Position>
              <LatitudeDegrees>38.93683022819459438323974609375</LatitudeDegrees>
              <LongitudeDegrees>-8.1664854101836681365966796875</LongitudeDegrees>
            </Position>
            <AltitudeMeters>142.399993896484375</AltitudeMeters>
            <DistanceMeters>128169.56979926</DistanceMeters>
          </Trackpoint>
          <Trackpoint>
            <Time>2018-09-13T15:04:11.000Z</Time>
            <Position>
              <LatitudeDegrees>38.93664448522031307220458984375</LatitudeDegrees>
              <LongitudeDegrees>-8.1665581651031970977783203125</LongitudeDegrees>
            </Position>
            <AltitudeMeters>143.8000030517578125</AltitudeMeters>
            <DistanceMeters>128191.18164032</DistanceMeters>
          </Trackpoint>
          <Trackpoint>
            <Time>2018-09-13T15:04:16.000Z</Time>
            <Position>
              <LatitudeDegrees>38.9364928565919399261474609375</LatitudeDegrees>
              <LongitudeDegrees>-8.16664047539234161376953125</LongitudeDegrees>
            </Position>
            <AltitudeMeters>144.8000030517578125</AltitudeMeters>
            <DistanceMeters>128209.50085867</DistanceMeters>
          </Trackpoint>
          <Trackpoint>
            <Time>2018-09-13T15:04:25.000Z</Time>
            <Position>
              <LatitudeDegrees>38.93623360432684421539306640625</LatitudeDegrees>
              <LongitudeDegrees>-8.16682663746178150177001953125</LongitudeDegrees>
            </Position>
            <AltitudeMeters>146.600006103515625</AltitudeMeters>
            <DistanceMeters>128242.55212805</DistanceMeters>
          </Trackpoint>
          <Trackpoint>
            <Time>2018-09-13T15:04:33.000Z</Time>
            <Position>
              <LatitudeDegrees>38.93601835705339908599853515625</LatitudeDegrees>
              <LongitudeDegrees>-8.1670272164046764373779296875</LongitudeDegrees>
            </Position>
            <AltitudeMeters>148</AltitudeMeters>
            <DistanceMeters>128272.14116423</DistanceMeters>
          </Trackpoint>
          <Trackpoint>
            <Time>2018-09-13T15:04:38.000Z</Time>
            <Position>
              <LatitudeDegrees>38.9358803071081638336181640625</LatitudeDegrees>
              <LongitudeDegrees>-8.16715009510517120361328125</LongitudeDegrees>
            </Position>
            <AltitudeMeters>147.8000030517578125</AltitudeMeters>
            <DistanceMeters>128290.83004666</DistanceMeters>
          </Trackpoint>
          <Trackpoint>
            <Time>2018-09-13T15:04:43.000Z</Time>
            <Position>
              <LatitudeDegrees>38.9357287622988224029541015625</LatitudeDegrees>
              <LongitudeDegrees>-8.16727456636726856231689453125</LongitudeDegrees>
            </Position>
            <AltitudeMeters>147.600006103515625</AltitudeMeters>
            <DistanceMeters>128310.84597536</DistanceMeters>
          </Trackpoint>
          <Trackpoint>
            <Time>2018-09-13T15:04:52.000Z</Time>
            <Position>
              <LatitudeDegrees>38.93545056693255901336669921875</LatitudeDegrees>
              <LongitudeDegrees>-8.16754278726875782012939453125</LongitudeDegrees>
            </Position>
            <AltitudeMeters>147.1999969482421875</AltitudeMeters>
            <DistanceMeters>128349.54997233</DistanceMeters>
          </Trackpoint>
          <Trackpoint>
            <Time>2018-09-13T15:05:03.000Z</Time>
            <Position>
              <LatitudeDegrees>38.93504823558032512664794921875</LatitudeDegrees>
              <LongitudeDegrees>-8.16791075281798839569091796875</LongitudeDegrees>
            </Position>
            <AltitudeMeters>147.1999969482421875</AltitudeMeters>
            <DistanceMeters>128404.50598426</DistanceMeters>
          </Trackpoint>
          <Trackpoint>
            <Time>2018-09-13T15:05:10.000Z</Time>
            <Position>
              <LatitudeDegrees>38.93475897610187530517578125</LatitudeDegrees>
              <LongitudeDegrees>-8.1681755371391773223876953125</LongitudeDegrees>
            </Position>
            <AltitudeMeters>147.1999969482421875</AltitudeMeters>
            <DistanceMeters>128444.02875888</DistanceMeters>
          </Trackpoint>
          <Trackpoint>
            <Time>2018-09-13T15:05:17.000Z</Time>
            <Position>
              <LatitudeDegrees>38.934456892311573028564453125</LatitudeDegrees>
              <LongitudeDegrees>-8.16846840083599090576171875</LongitudeDegrees>
            </Position>
            <AltitudeMeters>147.1999969482421875</AltitudeMeters>
            <DistanceMeters>128486.14028453</DistanceMeters>
          </Trackpoint>
          <Trackpoint>
            <Time>2018-09-13T15:05:23.000Z</Time>
            <Position>
              <LatitudeDegrees>38.93421725369989871978759765625</LatitudeDegrees>
              <LongitudeDegrees>-8.1687547266483306884765625</LongitudeDegrees>
            </Position>
            <AltitudeMeters>147.8000030517578125</AltitudeMeters>
            <DistanceMeters>128522.55362377</DistanceMeters>
          </Trackpoint>
          <Trackpoint>
            <Time>2018-09-13T15:05:28.000Z</Time>
            <Position>
              <LatitudeDegrees>38.93405129201710224151611328125</LatitudeDegrees>
              <LongitudeDegrees>-8.16900710575282573699951171875</LongitudeDegrees>
            </Position>
            <AltitudeMeters>148.399993896484375</AltitudeMeters>
            <DistanceMeters>128551.16581872</DistanceMeters>
          </Trackpoint>
          <Trackpoint>
            <Time>2018-09-13T15:05:35.000Z</Time>
            <Position>
              <LatitudeDegrees>38.93371165730059146881103515625</LatitudeDegrees>
              <LongitudeDegrees>-8.16906108520925045013427734375</LongitudeDegrees>
            </Position>
            <AltitudeMeters>148.600006103515625</AltitudeMeters>
            <DistanceMeters>128589.25576913</DistanceMeters>
          </Trackpoint>
          <Trackpoint>
            <Time>2018-09-13T15:05:44.000Z</Time>
            <Position>
              <LatitudeDegrees>38.9331729523837566375732421875</LatitudeDegrees>
              <LongitudeDegrees>-8.168965280055999755859375</LongitudeDegrees>
            </Position>
            <AltitudeMeters>149.399993896484375</AltitudeMeters>
            <DistanceMeters>128649.78577224</DistanceMeters>
          </Trackpoint>
          <Trackpoint>
            <Time>2018-09-13T15:05:47.000Z</Time>
            <Position>
              <LatitudeDegrees>38.9330054819583892822265625</LatitudeDegrees>
              <LongitudeDegrees>-8.1689577363431453704833984375</LongitudeDegrees>
            </Position>
            <AltitudeMeters>149.600006103515625</AltitudeMeters>
            <DistanceMeters>128668.43692864</DistanceMeters>
          </Trackpoint>
          <Trackpoint>
            <Time>2018-09-13T15:05:53.000Z</Time>
            <Position>
              <LatitudeDegrees>38.9326700381934642791748046875</LatitudeDegrees>
              <LongitudeDegrees>-8.16894625313580036163330078125</LongitudeDegrees>
            </Position>
            <AltitudeMeters>150</AltitudeMeters>
            <DistanceMeters>128705.78569152</DistanceMeters>
          </Trackpoint>
          <Trackpoint>
            <Time>2018-09-13T15:05:56.000Z</Time>
            <Position>
              <LatitudeDegrees>38.932493515312671661376953125</LatitudeDegrees>
              <LongitudeDegrees>-8.16894675604999065399169921875</LongitudeDegrees>
            </Position>
            <AltitudeMeters>149.8000030517578125</AltitudeMeters>
            <DistanceMeters>128725.43279506</DistanceMeters>
          </Trackpoint>
          <Trackpoint>
            <Time>2018-09-13T15:06:05.000Z</Time>
            <Position>
              <LatitudeDegrees>38.9319042675197124481201171875</LatitudeDegrees>
              <LongitudeDegrees>-8.168981373310089111328125</LongitudeDegrees>
            </Position>
            <AltitudeMeters>149</AltitudeMeters>
            <DistanceMeters>128791.08573353</DistanceMeters>
          </Trackpoint>
          <Trackpoint>
            <Time>2018-09-13T15:06:10.000Z</Time>
            <Position>
              <LatitudeDegrees>38.9315354637801647186279296875</LatitudeDegrees>
              <LongitudeDegrees>-8.16904298029839992523193359375</LongitudeDegrees>
            </Position>
            <AltitudeMeters>148.600006103515625</AltitudeMeters>
            <DistanceMeters>128832.47954919</DistanceMeters>
          </Trackpoint>
          <Trackpoint>
            <Time>2018-09-13T15:06:13.000Z</Time>
            <Position>
              <LatitudeDegrees>38.93131309188902378082275390625</LatitudeDegrees>
              <LongitudeDegrees>-8.16908522509038448333740234375</LongitudeDegrees>
            </Position>
            <AltitudeMeters>148.1999969482421875</AltitudeMeters>
            <DistanceMeters>128857.49883973</DistanceMeters>
          </Trackpoint>
          <Trackpoint>
            <Time>2018-09-13T15:06:16.000Z</Time>
            <Position>
              <LatitudeDegrees>38.93108208663761615753173828125</LatitudeDegrees>
              <LongitudeDegrees>-8.16914708353579044342041015625</LongitudeDegrees>
            </Position>
            <AltitudeMeters>148.1999969482421875</AltitudeMeters>
            <DistanceMeters>128883.76199565</DistanceMeters>
          </Trackpoint>
          <Trackpoint>
            <Time>2018-09-13T15:06:19.000Z</Time>
            <Position>
              <LatitudeDegrees>38.93084563314914703369140625</LatitudeDegrees>
              <LongitudeDegrees>-8.16922050900757312774658203125</LongitudeDegrees>
            </Position>
            <AltitudeMeters>148.600006103515625</AltitudeMeters>
            <DistanceMeters>128910.83677258</DistanceMeters>
          </Trackpoint>
          <Trackpoint>
            <Time>2018-09-13T15:06:22.000Z</Time>
            <Position>
              <LatitudeDegrees>38.9306127838790416717529296875</LatitudeDegrees>
              <LongitudeDegrees>-8.16929728724062442779541015625</LongitudeDegrees>
            </Position>
            <AltitudeMeters>149</AltitudeMeters>
            <DistanceMeters>128937.59248861</DistanceMeters>
          </Trackpoint>
          <Trackpoint>
            <Time>2018-09-13T15:06:30.000Z</Time>
            <Position>
              <LatitudeDegrees>38.93004440702497959136962890625</LatitudeDegrees>
              <LongitudeDegrees>-8.16954086534678936004638671875</LongitudeDegrees>
            </Position>
            <AltitudeMeters>150</AltitudeMeters>
            <DistanceMeters>129004.2766687</DistanceMeters>
          </Trackpoint>
          <Trackpoint>
            <Time>2018-09-13T15:06:34.000Z</Time>
            <Position>
              <LatitudeDegrees>38.9297695644199848175048828125</LatitudeDegrees>
              <LongitudeDegrees>-8.16967212595045566558837890625</LongitudeDegrees>
            </Position>
            <AltitudeMeters>150.600006103515625</AltitudeMeters>
            <DistanceMeters>129036.91028687</DistanceMeters>
          </Trackpoint>
          <Trackpoint>
            <Time>2018-09-13T15:06:42.000Z</Time>
            <Position>
              <LatitudeDegrees>38.92926019616425037384033203125</LatitudeDegrees>
              <LongitudeDegrees>-8.16992618143558502197265625</LongitudeDegrees>
            </Position>
            <AltitudeMeters>150.8000030517578125</AltitudeMeters>
            <DistanceMeters>129097.72189009</DistanceMeters>
          </Trackpoint>
          <Trackpoint>
            <Time>2018-09-13T15:06:45.000Z</Time>
            <Position>
              <LatitudeDegrees>38.9290711842477321624755859375</LatitudeDegrees>
              <LongitudeDegrees>-8.16999080590903759002685546875</LongitudeDegrees>
            </Position>
            <AltitudeMeters>150.600006103515625</AltitudeMeters>
            <DistanceMeters>129119.49068316</DistanceMeters>
          </Trackpoint>
          <Trackpoint>
            <Time>2018-09-13T15:06:49.000Z</Time>
            <Position>
              <LatitudeDegrees>38.92881142906844615936279296875</LatitudeDegrees>
              <LongitudeDegrees>-8.17003925330936908721923828125</LongitudeDegrees>
            </Position>
            <AltitudeMeters>150.1999969482421875</AltitudeMeters>
            <DistanceMeters>129148.70486884</DistanceMeters>
          </Trackpoint>
          <Trackpoint>
            <Time>2018-09-13T15:06:54.000Z</Time>
            <Position>
              <LatitudeDegrees>38.9284713752567768096923828125</LatitudeDegrees>
              <LongitudeDegrees>-8.17004160024225711822509765625</LongitudeDegrees>
            </Position>
            <AltitudeMeters>149.8000030517578125</AltitudeMeters>
            <DistanceMeters>129186.55414159</DistanceMeters>
          </Trackpoint>
          <Trackpoint>
            <Time>2018-09-13T15:07:02.000Z</Time>
            <Position>
              <LatitudeDegrees>38.92792470753192901611328125</LatitudeDegrees>
              <LongitudeDegrees>-8.1700420193374156951904296875</LongitudeDegrees>
            </Position>
            <AltitudeMeters>149.8000030517578125</AltitudeMeters>
            <DistanceMeters>129247.3994433</DistanceMeters>
          </Trackpoint>
          <Trackpoint>
            <Time>2018-09-13T15:07:10.000Z</Time>
            <Position>
              <LatitudeDegrees>38.927374184131622314453125</LatitudeDegrees>
              <LongitudeDegrees>-8.17021720111370086669921875</LongitudeDegrees>
            </Position>
            <AltitudeMeters>149.399993896484375</AltitudeMeters>
            <DistanceMeters>129310.5233658</DistanceMeters>
          </Trackpoint>
          <Trackpoint>
            <Time>2018-09-13T15:07:13.000Z</Time>
            <Position>
              <LatitudeDegrees>38.927175700664520263671875</LatitudeDegrees>
              <LongitudeDegrees>-8.17031937651336193084716796875</LongitudeDegrees>
            </Position>
            <AltitudeMeters>148.8000030517578125</AltitudeMeters>
            <DistanceMeters>129334.32068107</DistanceMeters>
          </Trackpoint>
          <Trackpoint>
            <Time>2018-09-13T15:07:16.000Z</Time>
            <Position>
              <LatitudeDegrees>38.92697545699775218963623046875</LatitudeDegrees>
              <LongitudeDegrees>-8.17042901180684566497802734375</LongitudeDegrees>
            </Position>
            <AltitudeMeters>148.399993896484375</AltitudeMeters>
            <DistanceMeters>129358.54597092</DistanceMeters>
          </Trackpoint>
          <Trackpoint>
            <Time>2018-09-13T15:07:19.000Z</Time>
            <Position>
              <LatitudeDegrees>38.9267775602638721466064453125</LatitudeDegrees>
              <LongitudeDegrees>-8.1705456040799617767333984375</LongitudeDegrees>
            </Position>
            <AltitudeMeters>148.1999969482421875</AltitudeMeters>
            <DistanceMeters>129382.77554705</DistanceMeters>
          </Trackpoint>
          <Trackpoint>
            <Time>2018-09-13T15:07:21.000Z</Time>
            <Position>
              <LatitudeDegrees>38.9266459643840789794921875</LatitudeDegrees>
              <LongitudeDegrees>-8.1706203706562519073486328125</LongitudeDegrees>
            </Position>
            <AltitudeMeters>148</AltitudeMeters>
            <DistanceMeters>129398.78916972</DistanceMeters>
          </Trackpoint>
          <Trackpoint>
            <Time>2018-09-13T15:07:29.000Z</Time>
            <Position>
              <LatitudeDegrees>38.92612385563552379608154296875</LatitudeDegrees>
              <LongitudeDegrees>-8.1709043495357036590576171875</LongitudeDegrees>
            </Position>
            <AltitudeMeters>148</AltitudeMeters>
            <DistanceMeters>129461.88905471</DistanceMeters>
          </Trackpoint>
          <Trackpoint>
            <Time>2018-09-13T15:07:37.000Z</Time>
            <Position>
              <LatitudeDegrees>38.92558003775775432586669921875</LatitudeDegrees>
              <LongitudeDegrees>-8.17120651714503765106201171875</LongitudeDegrees>
            </Position>
            <AltitudeMeters>147.399993896484375</AltitudeMeters>
            <DistanceMeters>129527.82992618</DistanceMeters>
          </Trackpoint>
          <Trackpoint>
            <Time>2018-09-13T15:07:45.000Z</Time>
            <Position>
              <LatitudeDegrees>38.92504845745861530303955078125</LatitudeDegrees>
              <LongitudeDegrees>-8.17148856818675994873046875</LongitudeDegrees>
            </Position>
            <AltitudeMeters>147.399993896484375</AltitudeMeters>
            <DistanceMeters>129591.8382309</DistanceMeters>
          </Trackpoint>
          <Trackpoint>
            <Time>2018-09-13T15:07:50.000Z</Time>
            <Position>
              <LatitudeDegrees>38.92471519298851490020751953125</LatitudeDegrees>
              <LongitudeDegrees>-8.17167137749493122100830078125</LongitudeDegrees>
            </Position>
            <AltitudeMeters>147.8000030517578125</AltitudeMeters>
            <DistanceMeters>129632.16764013</DistanceMeters>
          </Trackpoint>
          <Trackpoint>
            <Time>2018-09-13T15:07:58.000Z</Time>
            <Position>
              <LatitudeDegrees>38.92419769428670406341552734375</LatitudeDegrees>
              <LongitudeDegrees>-8.17196005024015903472900390625</LongitudeDegrees>
            </Position>
            <AltitudeMeters>148.1999969482421875</AltitudeMeters>
            <DistanceMeters>129694.95635739</DistanceMeters>
          </Trackpoint>
          <Trackpoint>
            <Time>2018-09-13T15:08:06.000Z</Time>
            <Position>
              <LatitudeDegrees>38.92368606291711330413818359375</LatitudeDegrees>
              <LongitudeDegrees>-8.17224788479506969451904296875</LongitudeDegrees>
            </Position>
            <AltitudeMeters>148.1999969482421875</AltitudeMeters>
            <DistanceMeters>129757.11741272</DistanceMeters>
          </Trackpoint>
          <Trackpoint>
            <Time>2018-09-13T15:08:14.000Z</Time>
            <Position>
              <LatitudeDegrees>38.9231671392917633056640625</LatitudeDegrees>
              <LongitudeDegrees>-8.1725294329226016998291015625</LongitudeDegrees>
            </Position>
            <AltitudeMeters>148.8000030517578125</AltitudeMeters>
            <DistanceMeters>129819.80926651</DistanceMeters>
          </Trackpoint>
          <Trackpoint>
            <Time>2018-09-13T15:08:22.000Z</Time>
            <Position>
              <LatitudeDegrees>38.92261393368244171142578125</LatitudeDegrees>
              <LongitudeDegrees>-8.17283579148352146148681640625</LongitudeDegrees>
            </Position>
            <AltitudeMeters>148.8000030517578125</AltitudeMeters>
            <DistanceMeters>129886.85369456</DistanceMeters>
          </Trackpoint>
          <Trackpoint>
            <Time>2018-09-13T15:08:29.000Z</Time>
            <Position>
              <LatitudeDegrees>38.9221098460257053375244140625</LatitudeDegrees>
              <LongitudeDegrees>-8.17312697879970073699951171875</LongitudeDegrees>
            </Position>
            <AltitudeMeters>148.1999969482421875</AltitudeMeters>
            <DistanceMeters>129948.3651261</DistanceMeters>
          </Trackpoint>
          <Trackpoint>
            <Time>2018-09-13T15:08:33.000Z</Time>
            <Position>
              <LatitudeDegrees>38.9218359254300594329833984375</LatitudeDegrees>
              <LongitudeDegrees>-8.17331775091588497161865234375</LongitudeDegrees>
            </Position>
            <AltitudeMeters>148</AltitudeMeters>
            <DistanceMeters>129983.04089371</DistanceMeters>
          </Trackpoint>
          <Trackpoint>
            <Time>2018-09-13T15:08:36.000Z</Time>
            <Position>
              <LatitudeDegrees>38.9216418005526065826416015625</LatitudeDegrees>
              <LongitudeDegrees>-8.173484466969966888427734375</LongitudeDegrees>
            </Position>
            <AltitudeMeters>148.1999969482421875</AltitudeMeters>
            <DistanceMeters>130009.02648695</DistanceMeters>
          </Trackpoint>
          <Trackpoint>
            <Time>2018-09-13T15:08:38.000Z</Time>
            <Position>
              <LatitudeDegrees>38.92151959240436553955078125</LatitudeDegrees>
              <LongitudeDegrees>-8.1736023165285587310791015625</LongitudeDegrees>
            </Position>
            <AltitudeMeters>148.1999969482421875</AltitudeMeters>
            <DistanceMeters>130026.03122476</DistanceMeters>
          </Trackpoint>
          <Trackpoint>
            <Time>2018-09-13T15:08:44.000Z</Time>
            <Position>
              <LatitudeDegrees>38.92116822302341461181640625</LatitudeDegrees>
              <LongitudeDegrees>-8.17397740669548511505126953125</LongitudeDegrees>
            </Position>
            <AltitudeMeters>148.1999969482421875</AltitudeMeters>
            <DistanceMeters>130076.86847428</DistanceMeters>
          </Trackpoint>
          <Trackpoint>
            <Time>2018-09-13T15:08:52.000Z</Time>
            <Position>
              <LatitudeDegrees>38.920715264976024627685546875</LatitudeDegrees>
              <LongitudeDegrees>-8.1744824163615703582763671875</LongitudeDegrees>
            </Position>
            <AltitudeMeters>147.1999969482421875</AltitudeMeters>
            <DistanceMeters>130143.60740749</DistanceMeters>
          </Trackpoint>
          <Trackpoint>
            <Time>2018-09-13T15:08:55.000Z</Time>
            <Position>
              <LatitudeDegrees>38.920545615255832672119140625</LatitudeDegrees>
              <LongitudeDegrees>-8.17466841079294681549072265625</LongitudeDegrees>
            </Position>
            <AltitudeMeters>146.8000030517578125</AltitudeMeters>
            <DistanceMeters>130168.42557652</DistanceMeters>
          </Trackpoint>
          <Trackpoint>
            <Time>2018-09-13T15:09:03.000Z</Time>
            <Position>
              <LatitudeDegrees>38.920064158737659454345703125</LatitudeDegrees>
              <LongitudeDegrees>-8.17511198110878467559814453125</LongitudeDegrees>
            </Position>
            <AltitudeMeters>145.600006103515625</AltitudeMeters>
            <DistanceMeters>130234.35713527</DistanceMeters>
          </Trackpoint>
          <Trackpoint>
            <Time>2018-09-13T15:09:10.000Z</Time>
            <Position>
              <LatitudeDegrees>38.919620923697948455810546875</LatitudeDegrees>
              <LongitudeDegrees>-8.175425045192241668701171875</LongitudeDegrees>
            </Position>
            <AltitudeMeters>144.600006103515625</AltitudeMeters>
            <DistanceMeters>130290.64825308</DistanceMeters>
          </Trackpoint>
          <Trackpoint>
            <Time>2018-09-13T15:09:16.000Z</Time>
            <Position>
              <LatitudeDegrees>38.91920576803386211395263671875</LatitudeDegrees>
              <LongitudeDegrees>-8.175667785108089447021484375</LongitudeDegrees>
            </Position>
            <AltitudeMeters>144</AltitudeMeters>
            <DistanceMeters>130341.41244534</DistanceMeters>
          </Trackpoint>
          <Trackpoint>
            <Time>2018-09-13T15:09:24.000Z</Time>
            <Position>
              <LatitudeDegrees>38.91865323297679424285888671875</LatitudeDegrees>
              <LongitudeDegrees>-8.17593022249639034271240234375</LongitudeDegrees>
            </Position>
            <AltitudeMeters>144</AltitudeMeters>
            <DistanceMeters>130406.97550696</DistanceMeters>
          </Trackpoint>
          <Trackpoint>
            <Time>2018-09-13T15:09:32.000Z</Time>
            <Position>
              <LatitudeDegrees>38.9181066490709781646728515625</LatitudeDegrees>
              <LongitudeDegrees>-8.17611261270940303802490234375</LongitudeDegrees>
            </Position>
            <AltitudeMeters>144.399993896484375</AltitudeMeters>
            <DistanceMeters>130469.82826198</DistanceMeters>
          </Trackpoint>
          <Trackpoint>
            <Time>2018-09-13T15:09:40.000Z</Time>
            <Position>
              <LatitudeDegrees>38.9175303094089031219482421875</LatitudeDegrees>
              <LongitudeDegrees>-8.17625409923493862152099609375</LongitudeDegrees>
            </Position>
            <AltitudeMeters>144.600006103515625</AltitudeMeters>
            <DistanceMeters>130535.13574735</DistanceMeters>
          </Trackpoint>
          <Trackpoint>
            <Time>2018-09-13T15:09:48.000Z</Time>
            <Position>
              <LatitudeDegrees>38.91694986261427402496337890625</LatitudeDegrees>
              <LongitudeDegrees>-8.17639307118952274322509765625</LongitudeDegrees>
            </Position>
            <AltitudeMeters>143.600006103515625</AltitudeMeters>
            <DistanceMeters>130600.85192496</DistanceMeters>
          </Trackpoint>
          <Trackpoint>
            <Time>2018-09-13T15:09:56.000Z</Time>
            <Position>
              <LatitudeDegrees>38.9163538254797458648681640625</LatitudeDegrees>
              <LongitudeDegrees>-8.1765225715935230255126953125</LongitudeDegrees>
            </Position>
            <AltitudeMeters>143.600006103515625</AltitudeMeters>
            <DistanceMeters>130668.13325462</DistanceMeters>
          </Trackpoint>
          <Trackpoint>
            <Time>2018-09-13T15:10:04.000Z</Time>
            <Position>
              <LatitudeDegrees>38.9157883822917938232421875</LatitudeDegrees>
              <LongitudeDegrees>-8.17664016969501972198486328125</LongitudeDegrees>
            </Position>
            <AltitudeMeters>143.600006103515625</AltitudeMeters>
            <DistanceMeters>130731.88676157</DistanceMeters>
          </Trackpoint>
          <Trackpoint>
            <Time>2018-09-13T15:10:07.000Z</Time>
            <Position>
              <LatitudeDegrees>38.915583193302154541015625</LatitudeDegrees>
              <LongitudeDegrees>-8.1766962446272373199462890625</LongitudeDegrees>
            </Position>
            <AltitudeMeters>143.8000030517578125</AltitudeMeters>
            <DistanceMeters>130755.23511729</DistanceMeters>
          </Trackpoint>
          <Trackpoint>
            <Time>2018-09-13T15:10:11.000Z</Time>
            <Position>
              <LatitudeDegrees>38.91530759632587432861328125</LatitudeDegrees>
              <LongitudeDegrees>-8.1767931394279003143310546875</LongitudeDegrees>
            </Position>
            <AltitudeMeters>144</AltitudeMeters>
            <DistanceMeters>130787.03657074</DistanceMeters>
          </Trackpoint>
          <Trackpoint>
            <Time>2018-09-13T15:10:19.000Z</Time>
            <Position>
              <LatitudeDegrees>38.9147736690938472747802734375</LatitudeDegrees>
              <LongitudeDegrees>-8.17709178663790225982666015625</LongitudeDegrees>
            </Position>
            <AltitudeMeters>144.600006103515625</AltitudeMeters>
            <DistanceMeters>130851.84778558</DistanceMeters>
          </Trackpoint>
          <Trackpoint>
            <Time>2018-09-13T15:10:27.000Z</Time>
            <Position>
              <LatitudeDegrees>38.9142925478518009185791015625</LatitudeDegrees>
              <LongitudeDegrees>-8.17745237611234188079833984375</LongitudeDegrees>
            </Position>
            <AltitudeMeters>144.8000030517578125</AltitudeMeters>
            <DistanceMeters>130913.8376963</DistanceMeters>
          </Trackpoint>
          <Trackpoint>
            <Time>2018-09-13T15:10:36.000Z</Time>
            <Position>
              <LatitudeDegrees>38.9137232489883899688720703125</LatitudeDegrees>
              <LongitudeDegrees>-8.1777148135006427764892578125</LongitudeDegrees>
            </Position>
            <AltitudeMeters>143.399993896484375</AltitudeMeters>
            <DistanceMeters>130981.1545832</DistanceMeters>
          </Trackpoint>
          <Trackpoint>
            <Time>2018-09-13T15:10:44.000Z</Time>
            <Position>
              <LatitudeDegrees>38.913159482181072235107421875</LatitudeDegrees>
              <LongitudeDegrees>-8.17786577157676219940185546875</LongitudeDegrees>
            </Position>
            <AltitudeMeters>142.600006103515625</AltitudeMeters>
            <DistanceMeters>131045.25043664</DistanceMeters>
          </Trackpoint>
          <Trackpoint>
            <Time>2018-09-13T15:10:52.000Z</Time>
            <Position>
              <LatitudeDegrees>38.9125698991119861602783203125</LatitudeDegrees>
              <LongitudeDegrees>-8.17801999859511852264404296875</LongitudeDegrees>
            </Position>
            <AltitudeMeters>142</AltitudeMeters>
            <DistanceMeters>131112.21777886</DistanceMeters>
          </Trackpoint>
          <Trackpoint>
            <Time>2018-09-13T15:10:58.000Z</Time>
            <Position>
              <LatitudeDegrees>38.912133537232875823974609375</LatitudeDegrees>
              <LongitudeDegrees>-8.17813684232532978057861328125</LongitudeDegrees>
            </Position>
            <AltitudeMeters>142.1999969482421875</AltitudeMeters>
            <DistanceMeters>131161.82882295</DistanceMeters>
          </Trackpoint>
          <Trackpoint>
            <Time>2018-09-13T15:11:05.000Z</Time>
            <Position>
              <LatitudeDegrees>38.91164948232471942901611328125</LatitudeDegrees>
              <LongitudeDegrees>-8.1782650016248226165771484375</LongitudeDegrees>
            </Position>
            <AltitudeMeters>142.399993896484375</AltitudeMeters>
            <DistanceMeters>131216.83656964</DistanceMeters>
          </Trackpoint>
          <Trackpoint>
            <Time>2018-09-13T15:11:13.000Z</Time>
            <Position>
              <LatitudeDegrees>38.91110599972307682037353515625</LatitudeDegrees>
              <LongitudeDegrees>-8.17842031829059123992919921875</LongitudeDegrees>
            </Position>
            <AltitudeMeters>143</AltitudeMeters>
            <DistanceMeters>131278.80477171</DistanceMeters>
          </Trackpoint>
          <Trackpoint>
            <Time>2018-09-13T15:11:21.000Z</Time>
            <Position>
              <LatitudeDegrees>38.91054558567702770233154296875</LatitudeDegrees>
              <LongitudeDegrees>-8.17856733687222003936767578125</LongitudeDegrees>
            </Position>
            <AltitudeMeters>143.600006103515625</AltitudeMeters>
            <DistanceMeters>131342.46628763</DistanceMeters>
          </Trackpoint>
          <Trackpoint>
            <Time>2018-09-13T15:11:29.000Z</Time>
            <Position>
              <LatitudeDegrees>38.909971676766872406005859375</LatitudeDegrees>
              <LongitudeDegrees>-8.17871318198740482330322265625</LongitudeDegrees>
            </Position>
            <AltitudeMeters>143</AltitudeMeters>
            <DistanceMeters>131407.58039242</DistanceMeters>
          </Trackpoint>
          <Trackpoint>
            <Time>2018-09-13T15:11:37.000Z</Time>
            <Position>
              <LatitudeDegrees>38.909421823918819427490234375</LatitudeDegrees>
              <LongitudeDegrees>-8.17886657081544399261474609375</LongitudeDegrees>
            </Position>
            <AltitudeMeters>143</AltitudeMeters>
            <DistanceMeters>131470.20537641</DistanceMeters>
          </Trackpoint>
          <Trackpoint>
            <Time>2018-09-13T15:11:44.000Z</Time>
            <Position>
              <LatitudeDegrees>38.90887943096458911895751953125</LatitudeDegrees>
              <LongitudeDegrees>-8.1790297664701938629150390625</LongitudeDegrees>
            </Position>
            <AltitudeMeters>142.1999969482421875</AltitudeMeters>
            <DistanceMeters>131532.20730375</DistanceMeters>
          </Trackpoint>
          <Trackpoint>
            <Time>2018-09-13T15:11:51.000Z</Time>
            <Position>
              <LatitudeDegrees>38.90830795280635356903076171875</LatitudeDegrees>
              <LongitudeDegrees>-8.17917712032794952392578125</LongitudeDegrees>
            </Position>
            <AltitudeMeters>141.399993896484375</AltitudeMeters>
            <DistanceMeters>131597.08167348</DistanceMeters>
          </Trackpoint>
          <Trackpoint>
            <Time>2018-09-13T15:11:53.000Z</Time>
            <Position>
              <LatitudeDegrees>38.90814609825611114501953125</LatitudeDegrees>
              <LongitudeDegrees>-8.1792180240154266357421875</LongitudeDegrees>
            </Position>
            <AltitudeMeters>141.1999969482421875</AltitudeMeters>
            <DistanceMeters>131615.44175937</DistanceMeters>
          </Trackpoint>
          <Trackpoint>
            <Time>2018-09-13T15:11:58.000Z</Time>
            <Position>
              <LatitudeDegrees>38.9077390730381011962890625</LatitudeDegrees>
              <LongitudeDegrees>-8.179321624338626861572265625</LongitudeDegrees>
            </Position>
            <AltitudeMeters>141</AltitudeMeters>
            <DistanceMeters>131661.62454702</DistanceMeters>
          </Trackpoint>
          <Trackpoint>
            <Time>2018-09-13T15:12:01.000Z</Time>
            <Position>
              <LatitudeDegrees>38.90749239362776279449462890625</LatitudeDegrees>
              <LongitudeDegrees>-8.17938490770757198333740234375</LongitudeDegrees>
            </Position>
            <AltitudeMeters>141.1999969482421875</AltitudeMeters>
            <DistanceMeters>131689.62213292</DistanceMeters>
          </Trackpoint>
          <Trackpoint>
            <Time>2018-09-13T15:12:03.000Z</Time>
            <Position>
              <LatitudeDegrees>38.9073362387716770172119140625</LatitudeDegrees>
              <LongitudeDegrees>-8.179429583251476287841796875</LongitudeDegrees>
            </Position>
            <AltitudeMeters>141.1999969482421875</AltitudeMeters>
            <DistanceMeters>131707.42817161</DistanceMeters>
          </Trackpoint>
          <Trackpoint>
            <Time>2018-09-13T15:12:10.000Z</Time>
            <Position>
              <LatitudeDegrees>38.90677825547754764556884765625</LatitudeDegrees>
              <LongitudeDegrees>-8.17948113195598125457763671875</LongitudeDegrees>
            </Position>
            <AltitudeMeters>141</AltitudeMeters>
            <DistanceMeters>131769.69308019</DistanceMeters>
          </Trackpoint>
          <Trackpoint>
            <Time>2018-09-13T15:12:11.000Z</Time>
            <Position>
              <LatitudeDegrees>38.90669879503548145294189453125</LatitudeDegrees>
              <LongitudeDegrees>-8.1794709898531436920166015625</LongitudeDegrees>
            </Position>
            <AltitudeMeters>141</AltitudeMeters>
            <DistanceMeters>131778.58099945</DistanceMeters>
          </Trackpoint>
          <Trackpoint>
            <Time>2018-09-13T15:12:17.000Z</Time>
            <Position>
              <LatitudeDegrees>38.90622295439243316650390625</LatitudeDegrees>
              <LongitudeDegrees>-8.17939312197268009185791015625</LongitudeDegrees>
            </Position>
            <AltitudeMeters>140.399993896484375</AltitudeMeters>
            <DistanceMeters>131831.97070838</DistanceMeters>
          </Trackpoint>
          <Trackpoint>
            <Time>2018-09-13T15:12:24.000Z</Time>
            <Position>
              <LatitudeDegrees>38.9056511409580707550048828125</LatitudeDegrees>
              <LongitudeDegrees>-8.17927904427051544189453125</LongitudeDegrees>
            </Position>
            <AltitudeMeters>139.600006103515625</AltitudeMeters>
            <DistanceMeters>131896.37709267</DistanceMeters>
          </Trackpoint>
          <Trackpoint>
            <Time>2018-09-13T15:12:25.000Z</Time>
            <Position>
              <LatitudeDegrees>38.90556849539279937744140625</LatitudeDegrees>
              <LongitudeDegrees>-8.179260604083538055419921875</LongitudeDegrees>
            </Position>
            <AltitudeMeters>139.600006103515625</AltitudeMeters>
            <DistanceMeters>131905.71343713</DistanceMeters>
          </Trackpoint>
          <Trackpoint>
            <Time>2018-09-13T15:12:32.000Z</Time>
            <Position>
              <LatitudeDegrees>38.90500263310968875885009765625</LatitudeDegrees>
              <LongitudeDegrees>-8.1791467778384685516357421875</LongitudeDegrees>
            </Position>
            <AltitudeMeters>138.600006103515625</AltitudeMeters>
            <DistanceMeters>131969.46205729</DistanceMeters>
          </Trackpoint>
          <Trackpoint>
            <Time>2018-09-13T15:12:36.000Z</Time>
            <Position>
              <LatitudeDegrees>38.9046585559844970703125</LatitudeDegrees>
              <LongitudeDegrees>-8.179074190557003021240234375</LongitudeDegrees>
            </Position>
            <AltitudeMeters>137.399993896484375</AltitudeMeters>
            <DistanceMeters>132008.27113497</DistanceMeters>
          </Trackpoint>
          <Trackpoint>
            <Time>2018-09-13T15:12:40.000Z</Time>
            <Position>
              <LatitudeDegrees>38.904306180775165557861328125</LatitudeDegrees>
              <LongitudeDegrees>-8.1790022738277912139892578125</LongitudeDegrees>
            </Position>
            <AltitudeMeters>136.600006103515625</AltitudeMeters>
            <DistanceMeters>132047.98286599</DistanceMeters>
          </Trackpoint>
          <Trackpoint>
            <Time>2018-09-13T15:12:47.000Z</Time>
            <Position>
              <LatitudeDegrees>38.903690278530120849609375</LatitudeDegrees>
              <LongitudeDegrees>-8.1788849271833896636962890625</LongitudeDegrees>
            </Position>
            <AltitudeMeters>136.600006103515625</AltitudeMeters>
            <DistanceMeters>132117.28340629</DistanceMeters>
          </Trackpoint>
          <Trackpoint>
            <Time>2018-09-13T15:12:49.000Z</Time>
            <Position>
              <LatitudeDegrees>38.90352331101894378662109375</LatitudeDegrees>
              <LongitudeDegrees>-8.17884846590459346771240234375</LongitudeDegrees>
            </Position>
            <AltitudeMeters>136.600006103515625</AltitudeMeters>
            <DistanceMeters>132136.13369828</DistanceMeters>
          </Trackpoint>
          <Trackpoint>
            <Time>2018-09-13T15:12:56.000Z</Time>
            <Position>
              <LatitudeDegrees>38.902946971356868743896484375</LatitudeDegrees>
              <LongitudeDegrees>-8.1786574423313140869140625</LongitudeDegrees>
            </Position>
            <AltitudeMeters>134.600006103515625</AltitudeMeters>
            <DistanceMeters>132202.38095047</DistanceMeters>
          </Trackpoint>
          <Trackpoint>
            <Time>2018-09-13T15:13:00.000Z</Time>
            <Position>
              <LatitudeDegrees>38.90261043794453144073486328125</LatitudeDegrees>
              <LongitudeDegrees>-8.17849273793399333953857421875</LongitudeDegrees>
            </Position>
            <AltitudeMeters>132.8000030517578125</AltitudeMeters>
            <DistanceMeters>132242.46262833</DistanceMeters>
          </Trackpoint>
          <Trackpoint>
            <Time>2018-09-13T15:13:02.000Z</Time>
            <Position>
              <LatitudeDegrees>38.90244062058627605438232421875</LatitudeDegrees>
              <LongitudeDegrees>-8.1784064881503582000732421875</LongitudeDegrees>
            </Position>
            <AltitudeMeters>132</AltitudeMeters>
            <DistanceMeters>132262.78635231</DistanceMeters>
          </Trackpoint>
          <Trackpoint>
            <Time>2018-09-13T15:13:05.000Z</Time>
            <Position>
              <LatitudeDegrees>38.902188576757907867431640625</LatitudeDegrees>
              <LongitudeDegrees>-8.17827430553734302520751953125</LongitudeDegrees>
            </Position>
            <AltitudeMeters>131.8000030517578125</AltitudeMeters>
            <DistanceMeters>132293.08587016</DistanceMeters>
          </Trackpoint>
          <Trackpoint>
            <Time>2018-09-13T15:13:06.000Z</Time>
            <Position>
              <LatitudeDegrees>38.9021069370210170745849609375</LatitudeDegrees>
              <LongitudeDegrees>-8.17823222838342189788818359375</LongitudeDegrees>
            </Position>
            <AltitudeMeters>131.8000030517578125</AltitudeMeters>
            <DistanceMeters>132302.87638912</DistanceMeters>
          </Trackpoint>
          <Trackpoint>
            <Time>2018-09-13T15:13:07.000Z</Time>
            <Position>
              <LatitudeDegrees>38.902026303112506866455078125</LatitudeDegrees>
              <LongitudeDegrees>-8.1781907379627227783203125</LongitudeDegrees>
            </Position>
            <AltitudeMeters>131.399993896484375</AltitudeMeters>
            <DistanceMeters>132312.54392713</DistanceMeters>
          </Trackpoint>
          <Trackpoint>
            <Time>2018-09-13T15:13:09.000Z</Time>
            <Position>
              <LatitudeDegrees>38.90185858123004436492919921875</LatitudeDegrees>
              <LongitudeDegrees>-8.17810934968292713165283203125</LongitudeDegrees>
            </Position>
            <AltitudeMeters>131</AltitudeMeters>
            <DistanceMeters>132332.49817958</DistanceMeters>
          </Trackpoint>
          <Trackpoint>
            <Time>2018-09-13T15:13:12.000Z</Time>
            <Position>
              <LatitudeDegrees>38.9016113989055156707763671875</LatitudeDegrees>
              <LongitudeDegrees>-8.17798529751598834991455078125</LongitudeDegrees>
            </Position>
            <AltitudeMeters>131.399993896484375</AltitudeMeters>
            <DistanceMeters>132362.03391327</DistanceMeters>
          </Trackpoint>
          <Trackpoint>
            <Time>2018-09-13T15:13:16.000Z</Time>
            <Position>
              <LatitudeDegrees>38.901289366185665130615234375</LatitudeDegrees>
              <LongitudeDegrees>-8.17782537080347537994384765625</LongitudeDegrees>
            </Position>
            <AltitudeMeters>129.600006103515625</AltitudeMeters>
            <DistanceMeters>132400.46044187</DistanceMeters>
          </Trackpoint>
          <Trackpoint>
            <Time>2018-09-13T15:13:21.000Z</Time>
            <Position>
              <LatitudeDegrees>38.90089784748852252960205078125</LatitudeDegrees>
              <LongitudeDegrees>-8.17763661034405231475830078125</LongitudeDegrees>
            </Position>
            <AltitudeMeters>127.40000152587890625</AltitudeMeters>
            <DistanceMeters>132447.00364963</DistanceMeters>
          </Trackpoint>
          <Trackpoint>
            <Time>2018-09-13T15:13:22.000Z</Time>
            <Position>
              <LatitudeDegrees>38.90081696212291717529296875</LatitudeDegrees>
              <LongitudeDegrees>-8.17759620957076549530029296875</LongitudeDegrees>
            </Position>
            <AltitudeMeters>127.1999969482421875</AltitudeMeters>
            <DistanceMeters>132456.66277743</DistanceMeters>
          </Trackpoint>
          <Trackpoint>
            <Time>2018-09-13T15:13:28.000Z</Time>
            <Position>
              <LatitudeDegrees>38.90030105598270893096923828125</LatitudeDegrees>
              <LongitudeDegrees>-8.17734475247561931610107421875</LongitudeDegrees>
            </Position>
            <AltitudeMeters>126.1999969482421875</AltitudeMeters>
            <DistanceMeters>132518.0763602</DistanceMeters>
          </Trackpoint>
          <Trackpoint>
            <Time>2018-09-13T15:13:34.000Z</Time>
            <Position>
              <LatitudeDegrees>38.89976528473198413848876953125</LatitudeDegrees>
              <LongitudeDegrees>-8.17707720212638378143310546875</LongitudeDegrees>
            </Position>
            <AltitudeMeters>125.1999969482421875</AltitudeMeters>
            <DistanceMeters>132582.05383225</DistanceMeters>
          </Trackpoint>
          <Trackpoint>
            <Time>2018-09-13T15:13:36.000Z</Time>
            <Position>
              <LatitudeDegrees>38.89958180487155914306640625</LatitudeDegrees>
              <LongitudeDegrees>-8.17698977887630462646484375</LongitudeDegrees>
            </Position>
            <AltitudeMeters>124.1999969482421875</AltitudeMeters>
            <DistanceMeters>132603.83423711</DistanceMeters>
          </Trackpoint>
          <Trackpoint>
            <Time>2018-09-13T15:13:42.000Z</Time>
            <Position>
              <LatitudeDegrees>38.89903052709996700286865234375</LatitudeDegrees>
              <LongitudeDegrees>-8.17675097845494747161865234375</LongitudeDegrees>
            </Position>
            <AltitudeMeters>121.8000030517578125</AltitudeMeters>
            <DistanceMeters>132668.58530362</DistanceMeters>
          </Trackpoint>
          <Trackpoint>
            <Time>2018-09-13T15:13:43.000Z</Time>
            <Position>
              <LatitudeDegrees>38.89893673360347747802734375</LatitudeDegrees>
              <LongitudeDegrees>-8.1767140142619609832763671875</LongitudeDegrees>
            </Position>
            <AltitudeMeters>121.8000030517578125</AltitudeMeters>
            <DistanceMeters>132679.50469597</DistanceMeters>
          </Trackpoint>
          <Trackpoint>
            <Time>2018-09-13T15:13:49.000Z</Time>
            <Position>
              <LatitudeDegrees>38.89835678972303867340087890625</LatitudeDegrees>
              <LongitudeDegrees>-8.17649734206497669219970703125</LongitudeDegrees>
            </Position>
            <AltitudeMeters>122</AltitudeMeters>
            <DistanceMeters>132746.7268785</DistanceMeters>
          </Trackpoint>
          <Trackpoint>
            <Time>2018-09-13T15:13:50.000Z</Time>
            <Position>
              <LatitudeDegrees>38.89825972728431224822998046875</LatitudeDegrees>
              <LongitudeDegrees>-8.1764628924429416656494140625</LongitudeDegrees>
            </Position>
            <AltitudeMeters>122.1999969482421875</AltitudeMeters>
            <DistanceMeters>132757.9343922</DistanceMeters>
          </Trackpoint>
          <Trackpoint>
            <Time>2018-09-13T15:13:56.000Z</Time>
            <Position>
              <LatitudeDegrees>38.89769109897315502166748046875</LatitudeDegrees>
              <LongitudeDegrees>-8.17626826465129852294921875</LongitudeDegrees>
            </Position>
            <AltitudeMeters>121.8000030517578125</AltitudeMeters>
            <DistanceMeters>132823.43082695</DistanceMeters>
          </Trackpoint>
          <Trackpoint>
            <Time>2018-09-13T15:14:02.000Z</Time>
            <Position>
              <LatitudeDegrees>38.897129260003566741943359375</LatitudeDegrees>
              <LongitudeDegrees>-8.1760769896209239959716796875</LongitudeDegrees>
            </Position>
            <AltitudeMeters>119.1999969482421875</AltitudeMeters>
            <DistanceMeters>132888.12245692</DistanceMeters>
          </Trackpoint>
          <Trackpoint>
            <Time>2018-09-13T15:14:05.000Z</Time>
            <Position>
              <LatitudeDegrees>38.89684620313346385955810546875</LatitudeDegrees>
              <LongitudeDegrees>-8.17598118446767330169677734375</LongitudeDegrees>
            </Position>
            <AltitudeMeters>117.1999969482421875</AltitudeMeters>
            <DistanceMeters>132920.70193321</DistanceMeters>
          </Trackpoint>
          <Trackpoint>
            <Time>2018-09-13T15:14:11.000Z</Time>
            <Position>
              <LatitudeDegrees>38.89629417099058628082275390625</LatitudeDegrees>
              <LongitudeDegrees>-8.1757903285324573516845703125</LongitudeDegrees>
            </Position>
            <AltitudeMeters>118</AltitudeMeters>
            <DistanceMeters>132984.32961007</DistanceMeters>
          </Trackpoint>
          <Trackpoint>
            <Time>2018-09-13T15:14:14.000Z</Time>
            <Position>
              <LatitudeDegrees>38.896023519337177276611328125</LatitudeDegrees>
              <LongitudeDegrees>-8.1756904162466526031494140625</LongitudeDegrees>
            </Position>
            <AltitudeMeters>116.8000030517578125</AltitudeMeters>
            <DistanceMeters>133015.67229592</DistanceMeters>
          </Trackpoint>
          <Trackpoint>
            <Time>2018-09-13T15:14:20.000Z</Time>
            <Position>
              <LatitudeDegrees>38.89549420215189456939697265625</LatitudeDegrees>
              <LongitudeDegrees>-8.17551397718489170074462890625</LongitudeDegrees>
            </Position>
            <AltitudeMeters>116.1999969482421875</AltitudeMeters>
            <DistanceMeters>133076.53673956</DistanceMeters>
          </Trackpoint>
          <Trackpoint>
            <Time>2018-09-13T15:14:26.000Z</Time>
            <Position>
              <LatitudeDegrees>38.89496630989015102386474609375</LatitudeDegrees>
              <LongitudeDegrees>-8.1753368675708770751953125</LongitudeDegrees>
            </Position>
            <AltitudeMeters>114.8000030517578125</AltitudeMeters>
            <DistanceMeters>133137.26230467</DistanceMeters>
          </Trackpoint>
          <Trackpoint>
            <Time>2018-09-13T15:14:32.000Z</Time>
            <Position>
              <LatitudeDegrees>38.894420899450778961181640625</LatitudeDegrees>
              <LongitudeDegrees>-8.17517048679292201995849609375</LongitudeDegrees>
            </Position>
            <AltitudeMeters>112.59999847412109375</AltitudeMeters>
            <DistanceMeters>133199.65514043</DistanceMeters>
          </Trackpoint>
          <Trackpoint>
            <Time>2018-09-13T15:14:34.000Z</Time>
            <Position>
              <LatitudeDegrees>38.8942336477339267730712890625</LatitudeDegrees>
              <LongitudeDegrees>-8.1751248054206371307373046875</LongitudeDegrees>
            </Position>
            <AltitudeMeters>111.8000030517578125</AltitudeMeters>
            <DistanceMeters>133220.86888338</DistanceMeters>
          </Trackpoint>
          <Trackpoint>
            <Time>2018-09-13T15:14:40.000Z</Time>
            <Position>
              <LatitudeDegrees>38.8936717249453067779541015625</LatitudeDegrees>
              <LongitudeDegrees>-8.17502195946872234344482421875</LongitudeDegrees>
            </Position>
            <AltitudeMeters>110.59999847412109375</AltitudeMeters>
            <DistanceMeters>133284.04335493</DistanceMeters>
          </Trackpoint>
          <Trackpoint>
            <Time>2018-09-13T15:14:43.000Z</Time>
            <Position>
              <LatitudeDegrees>38.89339872635900974273681640625</LatitudeDegrees>
              <LongitudeDegrees>-8.17498348653316497802734375</LongitudeDegrees>
            </Position>
            <AltitudeMeters>110</AltitudeMeters>
            <DistanceMeters>133314.61080657</DistanceMeters>
          </Trackpoint>
          <Trackpoint>
            <Time>2018-09-13T15:14:45.000Z</Time>
            <Position>
              <LatitudeDegrees>38.89322287403047084808349609375</LatitudeDegrees>
              <LongitudeDegrees>-8.1749578379094600677490234375</LongitudeDegrees>
            </Position>
            <AltitudeMeters>109.8000030517578125</AltitudeMeters>
            <DistanceMeters>133334.30909038</DistanceMeters>
          </Trackpoint>
          <Trackpoint>
            <Time>2018-09-13T15:14:48.000Z</Time>
            <Position>
              <LatitudeDegrees>38.89296345412731170654296875</LatitudeDegrees>
              <LongitudeDegrees>-8.1749184429645538330078125</LongitudeDegrees>
            </Position>
            <AltitudeMeters>109.59999847412109375</AltitudeMeters>
            <DistanceMeters>133363.38415936</DistanceMeters>
          </Trackpoint>
          <Trackpoint>
            <Time>2018-09-13T15:14:54.000Z</Time>
            <Position>
              <LatitudeDegrees>38.8924130983650684356689453125</LatitudeDegrees>
              <LongitudeDegrees>-8.1748220510780811309814453125</LongitudeDegrees>
            </Position>
            <AltitudeMeters>108.59999847412109375</AltitudeMeters>
            <DistanceMeters>133425.20646856</DistanceMeters>
          </Trackpoint>
          <Trackpoint>
            <Time>2018-09-13T15:14:56.000Z</Time>
            <Position>
              <LatitudeDegrees>38.89222224242985248565673828125</LatitudeDegrees>
              <LongitudeDegrees>-8.17476731725037097930908203125</LongitudeDegrees>
            </Position>
            <AltitudeMeters>108.40000152587890625</AltitudeMeters>
            <DistanceMeters>133446.97194284</DistanceMeters>
          </Trackpoint>
          <Trackpoint>
            <Time>2018-09-13T15:14:59.000Z</Time>
            <Position>
              <LatitudeDegrees>38.8919443823397159576416015625</LatitudeDegrees>
              <LongitudeDegrees>-8.174666650593280792236328125</LongitudeDegrees>
            </Position>
            <AltitudeMeters>107</AltitudeMeters>
            <DistanceMeters>133479.10432386</DistanceMeters>
          </Trackpoint>
          <Trackpoint>
            <Time>2018-09-13T15:15:01.000Z</Time>
            <Position>
              <LatitudeDegrees>38.89176174066960811614990234375</LatitudeDegrees>
              <LongitudeDegrees>-8.17459347657859325408935546875</LongitudeDegrees>
            </Position>
            <AltitudeMeters>106.1999969482421875</AltitudeMeters>
            <DistanceMeters>133500.39815462</DistanceMeters>
          </Trackpoint>
          <Trackpoint>
            <Time>2018-09-13T15:15:06.000Z</Time>
            <Position>
              <LatitudeDegrees>38.8913254626095294952392578125</LatitudeDegrees>
              <LongitudeDegrees>-8.17443623207509517669677734375</LongitudeDegrees>
            </Position>
            <AltitudeMeters>106.8000030517578125</AltitudeMeters>
            <DistanceMeters>133550.83129484</DistanceMeters>
          </Trackpoint>
          <Trackpoint>
            <Time>2018-09-13T15:15:12.000Z</Time>
            <Position>
              <LatitudeDegrees>38.89082062058150768280029296875</LatitudeDegrees>
              <LongitudeDegrees>-8.17440547049045562744140625</LongitudeDegrees>
            </Position>
            <AltitudeMeters>107.40000152587890625</AltitudeMeters>
            <DistanceMeters>133607.08438087</DistanceMeters>
          </Trackpoint>
          <Trackpoint>
            <Time>2018-09-13T15:15:17.000Z</Time>
            <Position>
              <LatitudeDegrees>38.89043756760656833648681640625</LatitudeDegrees>
              <LongitudeDegrees>-8.17446707747876644134521484375</LongitudeDegrees>
            </Position>
            <AltitudeMeters>107.40000152587890625</AltitudeMeters>
            <DistanceMeters>133650.05180026</DistanceMeters>
          </Trackpoint>
          <Trackpoint>
            <Time>2018-09-13T15:15:24.000Z</Time>
            <Position>
              <LatitudeDegrees>38.889889307320117950439453125</LatitudeDegrees>
              <LongitudeDegrees>-8.17454704083502292633056640625</LongitudeDegrees>
            </Position>
            <AltitudeMeters>105.8000030517578125</AltitudeMeters>
            <DistanceMeters>133711.46611821</DistanceMeters>
          </Trackpoint>
          <Trackpoint>
            <Time>2018-09-13T15:15:28.000Z</Time>
            <Position>
              <LatitudeDegrees>38.8895800150930881500244140625</LatitudeDegrees>
              <LongitudeDegrees>-8.1745912134647369384765625</LongitudeDegrees>
            </Position>
            <AltitudeMeters>104.40000152587890625</AltitudeMeters>
            <DistanceMeters>133746.10306231</DistanceMeters>
          </Trackpoint>
          <Trackpoint>
            <Time>2018-09-13T15:15:34.000Z</Time>
            <Position>
              <LatitudeDegrees>38.8890881650149822235107421875</LatitudeDegrees>
              <LongitudeDegrees>-8.17464561201632022857666015625</LongitudeDegrees>
            </Position>
            <AltitudeMeters>101.8000030517578125</AltitudeMeters>
            <DistanceMeters>133801.04937882</DistanceMeters>
          </Trackpoint>
          <Trackpoint>
            <Time>2018-09-13T15:15:38.000Z</Time>
            <Position>
              <LatitudeDegrees>38.888744674623012542724609375</LatitudeDegrees>
              <LongitudeDegrees>-8.17468400113284587860107421875</LongitudeDegrees>
            </Position>
            <AltitudeMeters>100.1999969482421875</AltitudeMeters>
            <DistanceMeters>133839.42487943</DistanceMeters>
          </Trackpoint>
          <Trackpoint>
            <Time>2018-09-13T15:15:39.000Z</Time>
            <Position>
              <LatitudeDegrees>38.8886583410203456878662109375</LatitudeDegrees>
              <LongitudeDegrees>-8.17469514906406402587890625</LongitudeDegrees>
            </Position>
            <AltitudeMeters>99.8000030517578125</AltitudeMeters>
            <DistanceMeters>133849.08213729</DistanceMeters>
          </Trackpoint>
          <Trackpoint>
            <Time>2018-09-13T15:15:41.000Z</Time>
            <Position>
              <LatitudeDegrees>38.88848525471985340118408203125</LatitudeDegrees>
              <LongitudeDegrees>-8.17471048794686794281005859375</LongitudeDegrees>
            </Position>
            <AltitudeMeters>99</AltitudeMeters>
            <DistanceMeters>133868.39291244</DistanceMeters>
          </Trackpoint>
          <Trackpoint>
            <Time>2018-09-13T15:15:44.000Z</Time>
            <Position>
              <LatitudeDegrees>38.88822801411151885986328125</LatitudeDegrees>
              <LongitudeDegrees>-8.1747360527515411376953125</LongitudeDegrees>
            </Position>
            <AltitudeMeters>97.59999847412109375</AltitudeMeters>
            <DistanceMeters>133897.10985346</DistanceMeters>
          </Trackpoint>
          <Trackpoint>
            <Time>2018-09-13T15:15:47.000Z</Time>
            <Position>
              <LatitudeDegrees>38.88796876184642314910888671875</LatitudeDegrees>
              <LongitudeDegrees>-8.1747573427855968475341796875</LongitudeDegrees>
            </Position>
            <AltitudeMeters>96.40000152587890625</AltitudeMeters>
            <DistanceMeters>133926.02422008</DistanceMeters>
          </Trackpoint>
          <Trackpoint>
            <Time>2018-09-13T15:15:50.000Z</Time>
            <Position>
              <LatitudeDegrees>38.88771302998065948486328125</LatitudeDegrees>
              <LongitudeDegrees>-8.17476890981197357177734375</LongitudeDegrees>
            </Position>
            <AltitudeMeters>95.59999847412109375</AltitudeMeters>
            <DistanceMeters>133954.50529743</DistanceMeters>
          </Trackpoint>
          <Trackpoint>
            <Time>2018-09-13T15:15:55.000Z</Time>
            <Position>
              <LatitudeDegrees>38.88728924095630645751953125</LatitudeDegrees>
              <LongitudeDegrees>-8.17481040023267269134521484375</LongitudeDegrees>
            </Position>
            <AltitudeMeters>94.1999969482421875</AltitudeMeters>
            <DistanceMeters>134001.81066102</DistanceMeters>
          </Trackpoint>
          <Trackpoint>
            <Time>2018-09-13T15:15:57.000Z</Time>
            <Position>
              <LatitudeDegrees>38.88712294399738311767578125</LatitudeDegrees>
              <LongitudeDegrees>-8.1748259067535400390625</LongitudeDegrees>
            </Position>
            <AltitudeMeters>93.40000152587890625</AltitudeMeters>
            <DistanceMeters>134020.36862657</DistanceMeters>
          </Trackpoint>
          <Trackpoint>
            <Time>2018-09-13T15:16:00.000Z</Time>
            <Position>
              <LatitudeDegrees>38.88687995262444019317626953125</LatitudeDegrees>
              <LongitudeDegrees>-8.17484275437891483306884765625</LongitudeDegrees>
            </Position>
            <AltitudeMeters>92.1999969482421875</AltitudeMeters>
            <DistanceMeters>134047.45340736</DistanceMeters>
          </Trackpoint>
          <Trackpoint>
            <Time>2018-09-13T15:16:08.000Z</Time>
            <Position>
              <LatitudeDegrees>38.8862829096615314483642578125</LatitudeDegrees>
              <LongitudeDegrees>-8.17482749931514263153076171875</LongitudeDegrees>
            </Position>
            <AltitudeMeters>91</AltitudeMeters>
            <DistanceMeters>134113.91859943</DistanceMeters>
          </Trackpoint>
          <Trackpoint>
            <Time>2018-09-13T15:16:10.000Z</Time>
            <Position>
              <LatitudeDegrees>38.886136226356029510498046875</LatitudeDegrees>
              <LongitudeDegrees>-8.1748116575181484222412109375</LongitudeDegrees>
            </Position>
            <AltitudeMeters>91</AltitudeMeters>
            <DistanceMeters>134130.30209791</DistanceMeters>
          </Trackpoint>
          <Trackpoint>
            <Time>2018-09-13T15:16:12.000Z</Time>
            <Position>
              <LatitudeDegrees>38.885986022651195526123046875</LatitudeDegrees>
              <LongitudeDegrees>-8.1747871823608875274658203125</LongitudeDegrees>
            </Position>
            <AltitudeMeters>90.8000030517578125</AltitudeMeters>
            <DistanceMeters>134147.15400801</DistanceMeters>
          </Trackpoint>
          <Trackpoint>
            <Time>2018-09-13T15:16:14.000Z</Time>
            <Position>
              <LatitudeDegrees>38.88583523221313953399658203125</LatitudeDegrees>
              <LongitudeDegrees>-8.1747529841959476470947265625</LongitudeDegrees>
            </Position>
            <AltitudeMeters>90.59999847412109375</AltitudeMeters>
            <DistanceMeters>134164.19667238</DistanceMeters>
          </Trackpoint>
          <Trackpoint>
            <Time>2018-09-13T15:16:21.000Z</Time>
            <Position>
              <LatitudeDegrees>38.88531488366425037384033203125</LatitudeDegrees>
              <LongitudeDegrees>-8.1746363081037998199462890625</LongitudeDegrees>
            </Position>
            <AltitudeMeters>89</AltitudeMeters>
            <DistanceMeters>134222.98803484</DistanceMeters>
          </Trackpoint>
          <Trackpoint>
            <Time>2018-09-13T15:16:26.000Z</Time>
            <Position>
              <LatitudeDegrees>38.88495949096977710723876953125</LatitudeDegrees>
              <LongitudeDegrees>-8.17454871721565723419189453125</LongitudeDegrees>
            </Position>
            <AltitudeMeters>88.40000152587890625</AltitudeMeters>
            <DistanceMeters>134263.26523973</DistanceMeters>
          </Trackpoint>
          <Trackpoint>
            <Time>2018-09-13T15:16:34.000Z</Time>
            <Position>
              <LatitudeDegrees>38.8844355382025241851806640625</LatitudeDegrees>
              <LongitudeDegrees>-8.1743466295301914215087890625</LongitudeDegrees>
            </Position>
            <AltitudeMeters>86.8000030517578125</AltitudeMeters>
            <DistanceMeters>134324.15386186</DistanceMeters>
          </Trackpoint>
          <Trackpoint>
            <Time>2018-09-13T15:16:42.000Z</Time>
            <Position>
              <LatitudeDegrees>38.8839664869010448455810546875</LatitudeDegrees>
              <LongitudeDegrees>-8.1739246845245361328125</LongitudeDegrees>
            </Position>
            <AltitudeMeters>84.8000030517578125</AltitudeMeters>
            <DistanceMeters>134387.88704016</DistanceMeters>
          </Trackpoint>
          <Trackpoint>
            <Time>2018-09-13T15:16:47.000Z</Time>
            <Position>
              <LatitudeDegrees>38.88363364152610301971435546875</LatitudeDegrees>
              <LongitudeDegrees>-8.1736060045659542083740234375</LongitudeDegrees>
            </Position>
            <AltitudeMeters>83.1999969482421875</AltitudeMeters>
            <DistanceMeters>134434.09045152</DistanceMeters>
          </Trackpoint>
          <Trackpoint>
            <Time>2018-09-13T15:16:51.000Z</Time>
            <Position>
              <LatitudeDegrees>38.8833408616483211517333984375</LatitudeDegrees>
              <LongitudeDegrees>-8.17332311533391475677490234375</LongitudeDegrees>
            </Position>
            <AltitudeMeters>81.1999969482421875</AltitudeMeters>
            <DistanceMeters>134474.86588205</DistanceMeters>
          </Trackpoint>
          <Trackpoint>
            <Time>2018-09-13T15:16:52.000Z</Time>
            <Position>
              <LatitudeDegrees>38.883262909948825836181640625</LatitudeDegrees>
              <LongitudeDegrees>-8.17325002513825893402099609375</LongitudeDegrees>
            </Position>
            <AltitudeMeters>80.8000030517578125</AltitudeMeters>
            <DistanceMeters>134485.60768436</DistanceMeters>
          </Trackpoint>
          <Trackpoint>
            <Time>2018-09-13T15:16:55.000Z</Time>
            <Position>
              <LatitudeDegrees>38.8830186612904071807861328125</LatitudeDegrees>
              <LongitudeDegrees>-8.1730340234935283660888671875</LongitudeDegrees>
            </Position>
            <AltitudeMeters>79</AltitudeMeters>
            <DistanceMeters>134518.61179064</DistanceMeters>
          </Trackpoint>
          <Trackpoint>
            <Time>2018-09-13T15:16:56.000Z</Time>
            <Position>
              <LatitudeDegrees>38.8829286396503448486328125</LatitudeDegrees>
              <LongitudeDegrees>-8.17297878675162792205810546875</LongitudeDegrees>
            </Position>
            <AltitudeMeters>78.1999969482421875</AltitudeMeters>
            <DistanceMeters>134529.71569372</DistanceMeters>
          </Trackpoint>
          <Trackpoint>
            <Time>2018-09-13T15:16:57.000Z</Time>
            <Position>
              <LatitudeDegrees>38.88283434323966503143310546875</LatitudeDegrees>
              <LongitudeDegrees>-8.17294274456799030303955078125</LongitudeDegrees>
            </Position>
            <AltitudeMeters>77.40000152587890625</AltitudeMeters>
            <DistanceMeters>134540.66564144</DistanceMeters>
          </Trackpoint>
          <Trackpoint>
            <Time>2018-09-13T15:16:59.000Z</Time>
            <Position>
              <LatitudeDegrees>38.882645666599273681640625</LatitudeDegrees>
              <LongitudeDegrees>-8.17293025553226470947265625</LongitudeDegrees>
            </Position>
            <AltitudeMeters>76.59999847412109375</AltitudeMeters>
            <DistanceMeters>134561.69340222</DistanceMeters>
          </Trackpoint>
          <Trackpoint>
            <Time>2018-09-13T15:17:00.000Z</Time>
            <Position>
              <LatitudeDegrees>38.8825553096830844879150390625</LatitudeDegrees>
              <LongitudeDegrees>-8.172939307987689971923828125</LongitudeDegrees>
            </Position>
            <AltitudeMeters>76.59999847412109375</AltitudeMeters>
            <DistanceMeters>134571.78101499</DistanceMeters>
          </Trackpoint>
          <Trackpoint>
            <Time>2018-09-13T15:17:01.000Z</Time>
            <Position>
              <LatitudeDegrees>38.8824672996997833251953125</LatitudeDegrees>
              <LongitudeDegrees>-8.17294827662408351898193359375</LongitudeDegrees>
            </Position>
            <AltitudeMeters>76.59999847412109375</AltitudeMeters>
            <DistanceMeters>134581.6078984</DistanceMeters>
          </Trackpoint>
          <Trackpoint>
            <Time>2018-09-13T15:17:03.000Z</Time>
            <Position>
              <LatitudeDegrees>38.88229974545538425445556640625</LatitudeDegrees>
              <LongitudeDegrees>-8.17296403460204601287841796875</LongitudeDegrees>
            </Position>
            <AltitudeMeters>76.40000152587890625</AltitudeMeters>
            <DistanceMeters>134600.3071663</DistanceMeters>
          </Trackpoint>
          <Trackpoint>
            <Time>2018-09-13T15:17:04.000Z</Time>
            <Position>
              <LatitudeDegrees>38.8822190277278423309326171875</LatitudeDegrees>
              <LongitudeDegrees>-8.1729738414287567138671875</LongitudeDegrees>
            </Position>
            <AltitudeMeters>76.40000152587890625</AltitudeMeters>
            <DistanceMeters>134609.3312025</DistanceMeters>
          </Trackpoint>
          <Trackpoint>
            <Time>2018-09-13T15:17:09.000Z</Time>
            <Position>
              <LatitudeDegrees>38.88184024952352046966552734375</LatitudeDegrees>
              <LongitudeDegrees>-8.1730149127542972564697265625</LongitudeDegrees>
            </Position>
            <AltitudeMeters>76.1999969482421875</AltitudeMeters>
            <DistanceMeters>134651.63975947</DistanceMeters>
          </Trackpoint>
          <Trackpoint>
            <Time>2018-09-13T15:17:11.000Z</Time>
            <Position>
              <LatitudeDegrees>38.8816889561712741851806640625</LatitudeDegrees>
              <LongitudeDegrees>-8.17303083837032318115234375</LongitudeDegrees>
            </Position>
            <AltitudeMeters>76.8000030517578125</AltitudeMeters>
            <DistanceMeters>134668.53528482</DistanceMeters>
          </Trackpoint>
          <Trackpoint>
            <Time>2018-09-13T15:17:19.000Z</Time>
            <Position>
              <LatitudeDegrees>38.881097026169300079345703125</LatitudeDegrees>
              <LongitudeDegrees>-8.173122704029083251953125</LongitudeDegrees>
            </Position>
            <AltitudeMeters>78.59999847412109375</AltitudeMeters>
            <DistanceMeters>134734.89727771</DistanceMeters>
          </Trackpoint>
          <Trackpoint>
            <Time>2018-09-13T15:17:22.000Z</Time>
            <Position>
              <LatitudeDegrees>38.88089627958834171295166015625</LatitudeDegrees>
              <LongitudeDegrees>-8.1731937825679779052734375</LongitudeDegrees>
            </Position>
            <AltitudeMeters>79.59999847412109375</AltitudeMeters>
            <DistanceMeters>134758.07366801</DistanceMeters>
          </Trackpoint>
          <Trackpoint>
            <Time>2018-09-13T15:17:24.000Z</Time>
            <Position>
              <LatitudeDegrees>38.8807682879269123077392578125</LatitudeDegrees>
              <LongitudeDegrees>-8.17325555719435214996337890625</LongitudeDegrees>
            </Position>
            <AltitudeMeters>80.1999969482421875</AltitudeMeters>
            <DistanceMeters>134773.29159627</DistanceMeters>
          </Trackpoint>
          <Trackpoint>
            <Time>2018-09-13T15:17:27.000Z</Time>
            <Position>
              <LatitudeDegrees>38.8805865682661533355712890625</LatitudeDegrees>
              <LongitudeDegrees>-8.1733511947095394134521484375</LongitudeDegrees>
            </Position>
            <AltitudeMeters>81.1999969482421875</AltitudeMeters>
            <DistanceMeters>134795.14898002</DistanceMeters>
          </Trackpoint>
          <Trackpoint>
            <Time>2018-09-13T15:17:29.000Z</Time>
            <Position>
              <LatitudeDegrees>38.88047064654529094696044921875</LatitudeDegrees>
              <LongitudeDegrees>-8.17341263405978679656982421875</LongitudeDegrees>
            </Position>
            <AltitudeMeters>81.8000030517578125</AltitudeMeters>
            <DistanceMeters>134809.10626625</DistanceMeters>
          </Trackpoint>
          <Trackpoint>
            <Time>2018-09-13T15:17:33.000Z</Time>
            <Position>
              <LatitudeDegrees>38.88024450279772281646728515625</LatitudeDegrees>
              <LongitudeDegrees>-8.17354020662605762481689453125</LongitudeDegrees>
            </Position>
            <AltitudeMeters>82.40000152587890625</AltitudeMeters>
            <DistanceMeters>134836.59642881</DistanceMeters>
          </Trackpoint>
          <Trackpoint>
            <Time>2018-09-13T15:17:38.000Z</Time>
            <Position>
              <LatitudeDegrees>38.8799699954688549041748046875</LatitudeDegrees>
              <LongitudeDegrees>-8.1736980378627777099609375</LongitudeDegrees>
            </Position>
            <AltitudeMeters>83</AltitudeMeters>
            <DistanceMeters>134870.07038982</DistanceMeters>
          </Trackpoint>
          <Trackpoint>
            <Time>2018-09-13T15:17:40.000Z</Time>
            <Position>
              <LatitudeDegrees>38.87985994108021259307861328125</LatitudeDegrees>
              <LongitudeDegrees>-8.1737558729946613311767578125</LongitudeDegrees>
            </Position>
            <AltitudeMeters>83.40000152587890625</AltitudeMeters>
            <DistanceMeters>134883.3053973</DistanceMeters>
          </Trackpoint>
          <Trackpoint>
            <Time>2018-09-13T15:17:45.000Z</Time>
            <Position>
              <LatitudeDegrees>38.8795703463256359100341796875</LatitudeDegrees>
              <LongitudeDegrees>-8.17383256740868091583251953125</LongitudeDegrees>
            </Position>
            <AltitudeMeters>84.59999847412109375</AltitudeMeters>
            <DistanceMeters>134916.21579776</DistanceMeters>
          </Trackpoint>
          <Trackpoint>
            <Time>2018-09-13T15:17:46.000Z</Time>
            <Position>
              <LatitudeDegrees>38.87951142154633998870849609375</LatitudeDegrees>
              <LongitudeDegrees>-8.1738279573619365692138671875</LongitudeDegrees>
            </Position>
            <AltitudeMeters>85</AltitudeMeters>
            <DistanceMeters>134922.78639861</DistanceMeters>
          </Trackpoint>
          <Trackpoint>
            <Time>2018-09-13T15:17:51.000Z</Time>
            <Position>
              <LatitudeDegrees>38.87924286536872386932373046875</LatitudeDegrees>
              <LongitudeDegrees>-8.173703737556934356689453125</LongitudeDegrees>
            </Position>
            <AltitudeMeters>86.8000030517578125</AltitudeMeters>
            <DistanceMeters>134954.55603355</DistanceMeters>
          </Trackpoint>
          <Trackpoint>
            <Time>2018-09-13T15:17:58.000Z</Time>
            <Position>
              <LatitudeDegrees>38.87892343103885650634765625</LatitudeDegrees>
              <LongitudeDegrees>-8.17344549112021923065185546875</LongitudeDegrees>
            </Position>
            <AltitudeMeters>86.1999969482421875</AltitudeMeters>
            <DistanceMeters>134996.56493546</DistanceMeters>
          </Trackpoint>
          <Trackpoint>
            <Time>2018-09-13T15:18:05.000Z</Time>
            <Position>
              <LatitudeDegrees>38.87860919348895549774169921875</LatitudeDegrees>
              <LongitudeDegrees>-8.17318229936063289642333984375</LongitudeDegrees>
            </Position>
            <AltitudeMeters>87.8000030517578125</AltitudeMeters>
            <DistanceMeters>135038.31812094</DistanceMeters>
          </Trackpoint>
          <Trackpoint>
            <Time>2018-09-13T15:18:15.000Z</Time>
            <Position>
              <LatitudeDegrees>38.87818590737879276275634765625</LatitudeDegrees>
              <LongitudeDegrees>-8.1728063710033893585205078125</LongitudeDegrees>
            </Position>
            <AltitudeMeters>89.1999969482421875</AltitudeMeters>
            <DistanceMeters>135095.59456158</DistanceMeters>
          </Trackpoint>
          <Trackpoint>
            <Time>2018-09-13T15:18:26.000Z</Time>
            <Position>
              <LatitudeDegrees>38.87775725685060024261474609375</LatitudeDegrees>
              <LongitudeDegrees>-8.17229582928121089935302734375</LongitudeDegrees>
            </Position>
            <AltitudeMeters>88.8000030517578125</AltitudeMeters>
            <DistanceMeters>135160.65698726</DistanceMeters>
          </Trackpoint>
          <Trackpoint>
            <Time>2018-09-13T15:18:28.000Z</Time>
            <Position>
              <LatitudeDegrees>38.8776793889701366424560546875</LatitudeDegrees>
              <LongitudeDegrees>-8.17220010794699192047119140625</LongitudeDegrees>
            </Position>
            <AltitudeMeters>89.1999969482421875</AltitudeMeters>
            <DistanceMeters>135172.65333371</DistanceMeters>
          </Trackpoint>
          <Trackpoint>
            <Time>2018-09-13T15:18:37.000Z</Time>
            <Position>
              <LatitudeDegrees>38.87732483446598052978515625</LatitudeDegrees>
              <LongitudeDegrees>-8.1717579625546932220458984375</LongitudeDegrees>
            </Position>
            <AltitudeMeters>89.8000030517578125</AltitudeMeters>
            <DistanceMeters>135227.65344642</DistanceMeters>
          </Trackpoint>
          <Trackpoint>
            <Time>2018-09-13T15:18:47.000Z</Time>
            <Position>
              <LatitudeDegrees>38.87697882950305938720703125</LatitudeDegrees>
              <LongitudeDegrees>-8.17121288739144802093505859375</LongitudeDegrees>
            </Position>
            <AltitudeMeters>88.8000030517578125</AltitudeMeters>
            <DistanceMeters>135288.59380496</DistanceMeters>
          </Trackpoint>
          <Trackpoint>
            <Time>2018-09-13T15:18:57.000Z</Time>
            <Position>
              <LatitudeDegrees>38.8767359219491481781005859375</LatitudeDegrees>
              <LongitudeDegrees>-8.1705732643604278564453125</LongitudeDegrees>
            </Position>
            <AltitudeMeters>90.59999847412109375</AltitudeMeters>
            <DistanceMeters>135350.25874792</DistanceMeters>
          </Trackpoint>
          <Trackpoint>
            <Time>2018-09-13T15:18:59.000Z</Time>
            <Position>
              <LatitudeDegrees>38.8766869716346263885498046875</LatitudeDegrees>
              <LongitudeDegrees>-8.17044652998447418212890625</LongitudeDegrees>
            </Position>
            <AltitudeMeters>91.59999847412109375</AltitudeMeters>
            <DistanceMeters>135362.51756239</DistanceMeters>
          </Trackpoint>
          <Trackpoint>
            <Time>2018-09-13T15:19:09.000Z</Time>
            <Position>
              <LatitudeDegrees>38.8764442317187786102294921875</LatitudeDegrees>
              <LongitudeDegrees>-8.16977790556848049163818359375</LongitudeDegrees>
            </Position>
            <AltitudeMeters>94.40000152587890625</AltitudeMeters>
            <DistanceMeters>135426.44293086</DistanceMeters>
          </Trackpoint>
          <Trackpoint>
            <Time>2018-09-13T15:19:13.000Z</Time>
            <Position>
              <LatitudeDegrees>38.8763411343097686767578125</LatitudeDegrees>
              <LongitudeDegrees>-8.169510774314403533935546875</LongitudeDegrees>
            </Position>
            <AltitudeMeters>93.59999847412109375</AltitudeMeters>
            <DistanceMeters>135452.27796657</DistanceMeters>
          </Trackpoint>
          <Trackpoint>
            <Time>2018-09-13T15:19:23.000Z</Time>
            <Position>
              <LatitudeDegrees>38.87610149569809436798095703125</LatitudeDegrees>
              <LongitudeDegrees>-8.1688524596393108367919921875</LongitudeDegrees>
            </Position>
            <AltitudeMeters>91.59999847412109375</AltitudeMeters>
            <DistanceMeters>135515.24806255</DistanceMeters>
          </Trackpoint>
          <Trackpoint>
            <Time>2018-09-13T15:19:29.000Z</Time>
            <Position>
              <LatitudeDegrees>38.87595682404935359954833984375</LatitudeDegrees>
              <LongitudeDegrees>-8.1684494577348232269287109375</LongitudeDegrees>
            </Position>
            <AltitudeMeters>92</AltitudeMeters>
            <DistanceMeters>135553.70160618</DistanceMeters>
          </Trackpoint>
          <Trackpoint>
            <Time>2018-09-13T15:19:38.000Z</Time>
            <Position>
              <LatitudeDegrees>38.87572866864502429962158203125</LatitudeDegrees>
              <LongitudeDegrees>-8.16784344613552093505859375</LongitudeDegrees>
            </Position>
            <AltitudeMeters>94.8000030517578125</AltitudeMeters>
            <DistanceMeters>135612.03020793</DistanceMeters>
          </Trackpoint>
          <Trackpoint>
            <Time>2018-09-13T15:19:46.000Z</Time>
            <Position>
              <LatitudeDegrees>38.87553102336823940277099609375</LatitudeDegrees>
              <LongitudeDegrees>-8.16731245256960391998291015625</LongitudeDegrees>
            </Position>
            <AltitudeMeters>97.59999847412109375</AltitudeMeters>
            <DistanceMeters>135663.0291076</DistanceMeters>
          </Trackpoint>
          <Trackpoint>
            <Time>2018-09-13T15:19:52.000Z</Time>
            <Position>
              <LatitudeDegrees>38.87538299895823001861572265625</LatitudeDegrees>
              <LongitudeDegrees>-8.16690073348581790924072265625</LongitudeDegrees>
            </Position>
            <AltitudeMeters>95.40000152587890625</AltitudeMeters>
            <DistanceMeters>135702.32503821</DistanceMeters>
          </Trackpoint>
          <Trackpoint>
            <Time>2018-09-13T15:20:01.000Z</Time>
            <Position>
              <LatitudeDegrees>38.87514830566942691802978515625</LatitudeDegrees>
              <LongitudeDegrees>-8.166274689137935638427734375</LongitudeDegrees>
            </Position>
            <AltitudeMeters>96</AltitudeMeters>
            <DistanceMeters>135762.53359248</DistanceMeters>
          </Trackpoint>
          <Trackpoint>
            <Time>2018-09-13T15:20:11.000Z</Time>
            <Position>
              <LatitudeDegrees>38.874895088374614715576171875</LatitudeDegrees>
              <LongitudeDegrees>-8.1655992753803730010986328125</LongitudeDegrees>
            </Position>
            <AltitudeMeters>100</AltitudeMeters>
            <DistanceMeters>135827.49121598</DistanceMeters>
          </Trackpoint>
          <Trackpoint>
            <Time>2018-09-13T15:20:16.000Z</Time>
            <Position>
              <LatitudeDegrees>38.8747728802263736724853515625</LatitudeDegrees>
              <LongitudeDegrees>-8.165274560451507568359375</LongitudeDegrees>
            </Position>
            <AltitudeMeters>99.40000152587890625</AltitudeMeters>
            <DistanceMeters>135858.743305</DistanceMeters>
          </Trackpoint>
          <Trackpoint>
            <Time>2018-09-13T15:20:26.000Z</Time>
            <Position>
              <LatitudeDegrees>38.87452720664441585540771484375</LatitudeDegrees>
              <LongitudeDegrees>-8.164620436728000640869140625</LongitudeDegrees>
            </Position>
            <AltitudeMeters>97</AltitudeMeters>
            <DistanceMeters>135921.6747421</DistanceMeters>
          </Trackpoint>
          <Trackpoint>
            <Time>2018-09-13T15:20:31.000Z</Time>
            <Position>
              <LatitudeDegrees>38.87440650723874568939208984375</LatitudeDegrees>
              <LongitudeDegrees>-8.16429086029529571533203125</LongitudeDegrees>
            </Position>
            <AltitudeMeters>95.1999969482421875</AltitudeMeters>
            <DistanceMeters>135953.2350582</DistanceMeters>
          </Trackpoint>
          <Trackpoint>
            <Time>2018-09-13T15:20:41.000Z</Time>
            <Position>
              <LatitudeDegrees>38.87416007928550243377685546875</LatitudeDegrees>
              <LongitudeDegrees>-8.16364838741719722747802734375</LongitudeDegrees>
            </Position>
            <AltitudeMeters>100.8000030517578125</AltitudeMeters>
            <DistanceMeters>136015.29608797</DistanceMeters>
          </Trackpoint>
          <Trackpoint>
            <Time>2018-09-13T15:20:49.000Z</Time>
            <Position>
              <LatitudeDegrees>38.8739754259586334228515625</LatitudeDegrees>
              <LongitudeDegrees>-8.1631313078105449676513671875</LongitudeDegrees>
            </Position>
            <AltitudeMeters>100.8000030517578125</AltitudeMeters>
            <DistanceMeters>136064.59068656</DistanceMeters>
          </Trackpoint>
          <Trackpoint>
            <Time>2018-09-13T15:20:59.000Z</Time>
            <Position>
              <LatitudeDegrees>38.8737603463232517242431640625</LatitudeDegrees>
              <LongitudeDegrees>-8.162542395293712615966796875</LongitudeDegrees>
            </Position>
            <AltitudeMeters>98.40000152587890625</AltitudeMeters>
            <DistanceMeters>136120.95707004</DistanceMeters>
          </Trackpoint>
          <Trackpoint>
            <Time>2018-09-13T15:21:06.000Z</Time>
            <Position>
              <LatitudeDegrees>38.87360184453427791595458984375</LatitudeDegrees>
              <LongitudeDegrees>-8.16211835481226444244384765625</LongitudeDegrees>
            </Position>
            <AltitudeMeters>99</AltitudeMeters>
            <DistanceMeters>136161.71677397</DistanceMeters>
          </Trackpoint>
          <Trackpoint>
            <Time>2018-09-13T15:21:14.000Z</Time>
            <Position>
              <LatitudeDegrees>38.87341794557869434356689453125</LatitudeDegrees>
              <LongitudeDegrees>-8.161623738706111907958984375</LongitudeDegrees>
            </Position>
            <AltitudeMeters>102.1999969482421875</AltitudeMeters>
            <DistanceMeters>136209.21302326</DistanceMeters>
          </Trackpoint>
          <Trackpoint>
            <Time>2018-09-13T15:21:24.000Z</Time>
            <Position>
              <LatitudeDegrees>38.87318794615566730499267578125</LatitudeDegrees>
              <LongitudeDegrees>-8.16098897717893123626708984375</LongitudeDegrees>
            </Position>
            <AltitudeMeters>103.40000152587890625</AltitudeMeters>
            <DistanceMeters>136269.88205489</DistanceMeters>
          </Trackpoint>
          <Trackpoint>
            <Time>2018-09-13T15:21:25.000Z</Time>
            <Position>
              <LatitudeDegrees>38.87316380627453327178955078125</LatitudeDegrees>
              <LongitudeDegrees>-8.160925023257732391357421875</LongitudeDegrees>
            </Position>
            <AltitudeMeters>103.1999969482421875</AltitudeMeters>
            <DistanceMeters>136276.04122295</DistanceMeters>
          </Trackpoint>
          <Trackpoint>
            <Time>2018-09-13T15:21:35.000Z</Time>
            <Position>
              <LatitudeDegrees>38.872898183763027191162109375</LatitudeDegrees>
              <LongitudeDegrees>-8.16029495559632778167724609375</LongitudeDegrees>
            </Position>
            <AltitudeMeters>103.59999847412109375</AltitudeMeters>
            <DistanceMeters>136338.12909225</DistanceMeters>
          </Trackpoint>
          <Trackpoint>
            <Time>2018-09-13T15:21:39.000Z</Time>
            <Position>
              <LatitudeDegrees>38.87275175191462039947509765625</LatitudeDegrees>
              <LongitudeDegrees>-8.16006948240101337432861328125</LongitudeDegrees>
            </Position>
            <AltitudeMeters>102.8000030517578125</AltitudeMeters>
            <DistanceMeters>136363.57266138</DistanceMeters>
          </Trackpoint>
          <Trackpoint>
            <Time>2018-09-13T15:21:49.000Z</Time>
            <Position>
              <LatitudeDegrees>38.87231857515871524810791015625</LatitudeDegrees>
              <LongitudeDegrees>-8.1595512293279170989990234375</LongitudeDegrees>
            </Position>
            <AltitudeMeters>111</AltitudeMeters>
            <DistanceMeters>136429.46126875</DistanceMeters>
          </Trackpoint>
          <Trackpoint>
            <Time>2018-09-13T15:21:56.000Z</Time>
            <Position>
              <LatitudeDegrees>38.87205068953335285186767578125</LatitudeDegrees>
              <LongitudeDegrees>-8.159138672053813934326171875</LongitudeDegrees>
            </Position>
            <AltitudeMeters>107.59999847412109375</AltitudeMeters>
            <DistanceMeters>136476.01291539</DistanceMeters>
          </Trackpoint>
          <Trackpoint>
            <Time>2018-09-13T15:22:05.000Z</Time>
            <Position>
              <LatitudeDegrees>38.8717456720769405364990234375</LatitudeDegrees>
              <LongitudeDegrees>-8.15854833461344242095947265625</LongitudeDegrees>
            </Position>
            <AltitudeMeters>108</AltitudeMeters>
            <DistanceMeters>136537.40840994</DistanceMeters>
          </Trackpoint>
          <Trackpoint>
            <Time>2018-09-13T15:22:15.000Z</Time>
            <Position>
              <LatitudeDegrees>38.8714395649731159210205078125</LatitudeDegrees>
              <LongitudeDegrees>-8.15795950591564178466796875</LongitudeDegrees>
            </Position>
            <AltitudeMeters>113.8000030517578125</AltitudeMeters>
            <DistanceMeters>136598.76241377</DistanceMeters>
          </Trackpoint>
          <Trackpoint>
            <Time>2018-09-13T15:22:18.000Z</Time>
            <Position>
              <LatitudeDegrees>38.87136119417846202850341796875</LatitudeDegrees>
              <LongitudeDegrees>-8.1577849946916103363037109375</LongitudeDegrees>
            </Position>
            <AltitudeMeters>113</AltitudeMeters>
            <DistanceMeters>136616.2196773</DistanceMeters>
          </Trackpoint>
          <Trackpoint>
            <Time>2018-09-13T15:22:23.000Z</Time>
            <Position>
              <LatitudeDegrees>38.871262371540069580078125</LatitudeDegrees>
              <LongitudeDegrees>-8.15748207271099090576171875</LongitudeDegrees>
            </Position>
            <AltitudeMeters>113.1999969482421875</AltitudeMeters>
            <DistanceMeters>136644.68077316</DistanceMeters>
          </Trackpoint>
          <Trackpoint>
            <Time>2018-09-13T15:22:27.000Z</Time>
            <Position>
              <LatitudeDegrees>38.8712072186172008514404296875</LatitudeDegrees>
              <LongitudeDegrees>-8.15722567029297351837158203125</LongitudeDegrees>
            </Position>
            <AltitudeMeters>112.59999847412109375</AltitudeMeters>
            <DistanceMeters>136667.73175487</DistanceMeters>
          </Trackpoint>
          <Trackpoint>
            <Time>2018-09-13T15:22:33.000Z</Time>
            <Position>
              <LatitudeDegrees>38.87120001018047332763671875</LatitudeDegrees>
              <LongitudeDegrees>-8.1568388454616069793701171875</LongitudeDegrees>
            </Position>
            <AltitudeMeters>111.59999847412109375</AltitudeMeters>
            <DistanceMeters>136701.26177989</DistanceMeters>
          </Trackpoint>
          <Trackpoint>
            <Time>2018-09-13T15:22:34.000Z</Time>
            <Position>
              <LatitudeDegrees>38.871211744844913482666015625</LatitudeDegrees>
              <LongitudeDegrees>-8.156776987016201019287109375</LongitudeDegrees>
            </Position>
            <AltitudeMeters>111.59999847412109375</AltitudeMeters>
            <DistanceMeters>136706.77906071</DistanceMeters>
          </Trackpoint>
          <Trackpoint>
            <Time>2018-09-13T15:22:38.000Z</Time>
            <Position>
              <LatitudeDegrees>38.87126832269132137298583984375</LatitudeDegrees>
              <LongitudeDegrees>-8.156527541577816009521484375</LongitudeDegrees>
            </Position>
            <AltitudeMeters>111.1999969482421875</AltitudeMeters>
            <DistanceMeters>136729.29337418</DistanceMeters>
          </Trackpoint>
          <Trackpoint>
            <Time>2018-09-13T15:22:41.000Z</Time>
            <Position>
              <LatitudeDegrees>38.8713165186345577239990234375</LatitudeDegrees>
              <LongitudeDegrees>-8.15634213387966156005859375</LongitudeDegrees>
            </Position>
            <AltitudeMeters>112</AltitudeMeters>
            <DistanceMeters>136746.2316028</DistanceMeters>
          </Trackpoint>
          <Trackpoint>
            <Time>2018-09-13T15:22:46.000Z</Time>
            <Position>
              <LatitudeDegrees>38.87139706872403621673583984375</LatitudeDegrees>
              <LongitudeDegrees>-8.15603979863226413726806640625</LongitudeDegrees>
            </Position>
            <AltitudeMeters>113.59999847412109375</AltitudeMeters>
            <DistanceMeters>136773.92190473</DistanceMeters>
          </Trackpoint>
          <Trackpoint>
            <Time>2018-09-13T15:22:51.000Z</Time>
            <Position>
              <LatitudeDegrees>38.87149035930633544921875</LatitudeDegrees>
              <LongitudeDegrees>-8.1557227112352848052978515625</LongitudeDegrees>
            </Position>
            <AltitudeMeters>113.40000152587890625</AltitudeMeters>
            <DistanceMeters>136803.29545992</DistanceMeters>
          </Trackpoint>
          <Trackpoint>
            <Time>2018-09-13T15:22:53.000Z</Time>
            <Position>
              <LatitudeDegrees>38.8715217076241970062255859375</LatitudeDegrees>
              <LongitudeDegrees>-8.15559891052544116973876953125</LongitudeDegrees>
            </Position>
            <AltitudeMeters>113.1999969482421875</AltitudeMeters>
            <DistanceMeters>136814.57685599</DistanceMeters>
          </Trackpoint>
          <Trackpoint>
            <Time>2018-09-13T15:22:57.000Z</Time>
            <Position>
              <LatitudeDegrees>38.87158834375441074371337890625</LatitudeDegrees>
              <LongitudeDegrees>-8.1553730182349681854248046875</LongitudeDegrees>
            </Position>
            <AltitudeMeters>113</AltitudeMeters>
            <DistanceMeters>136835.50949628</DistanceMeters>
          </Trackpoint>
          <Trackpoint>
            <Time>2018-09-13T15:23:08.000Z</Time>
            <Position>
              <LatitudeDegrees>38.871744833886623382568359375</LatitudeDegrees>
              <LongitudeDegrees>-8.15475963056087493896484375</LongitudeDegrees>
            </Position>
            <AltitudeMeters>114.8000030517578125</AltitudeMeters>
            <DistanceMeters>136891.44335369</DistanceMeters>
          </Trackpoint>
          <Trackpoint>
            <Time>2018-09-13T15:23:12.000Z</Time>
            <Position>
              <LatitudeDegrees>38.87181096710264682769775390625</LatitudeDegrees>
              <LongitudeDegrees>-8.15451513044536113739013671875</LongitudeDegrees>
            </Position>
            <AltitudeMeters>115</AltitudeMeters>
            <DistanceMeters>136913.87247669</DistanceMeters>
          </Trackpoint>
          <Trackpoint>
            <Time>2018-09-13T15:23:18.000Z</Time>
            <Position>
              <LatitudeDegrees>38.871839381754398345947265625</LatitudeDegrees>
              <LongitudeDegrees>-8.154146410524845123291015625</LongitudeDegrees>
            </Position>
            <AltitudeMeters>115.59999847412109375</AltitudeMeters>
            <DistanceMeters>136945.97983655</DistanceMeters>
          </Trackpoint>
          <Trackpoint>
            <Time>2018-09-13T15:23:31.000Z</Time>
            <Position>
              <LatitudeDegrees>38.87167350389063358306884765625</LatitudeDegrees>
              <LongitudeDegrees>-8.15346973948180675506591796875</LongitudeDegrees>
            </Position>
            <AltitudeMeters>116</AltitudeMeters>
            <DistanceMeters>137007.45440944</DistanceMeters>
          </Trackpoint>
          <Trackpoint>
            <Time>2018-09-13T15:23:36.000Z</Time>
            <Position>
              <LatitudeDegrees>38.87157727964222431182861328125</LatitudeDegrees>
              <LongitudeDegrees>-8.1532487086951732635498046875</LongitudeDegrees>
            </Position>
            <AltitudeMeters>118.40000152587890625</AltitudeMeters>
            <DistanceMeters>137029.39879179</DistanceMeters>
          </Trackpoint>
          <Trackpoint>
            <Time>2018-09-13T15:23:43.000Z</Time>
            <Position>
              <LatitudeDegrees>38.8714650459587574005126953125</LatitudeDegrees>
              <LongitudeDegrees>-8.15297663211822509765625</LongitudeDegrees>
            </Position>
            <AltitudeMeters>122</AltitudeMeters>
            <DistanceMeters>137056.08049276</DistanceMeters>
          </Trackpoint>
          <Trackpoint>
            <Time>2018-09-13T15:23:47.000Z</Time>
            <Position>
              <LatitudeDegrees>38.87142908759415149688720703125</LatitudeDegrees>
              <LongitudeDegrees>-8.152833469212055206298828125</LongitudeDegrees>
            </Position>
            <AltitudeMeters>123.1999969482421875</AltitudeMeters>
            <DistanceMeters>137069.11544264</DistanceMeters>
          </Trackpoint>
          <Trackpoint>
            <Time>2018-09-13T15:23:48.000Z</Time>
            <Position>
              <LatitudeDegrees>38.8714228011667728424072265625</LatitudeDegrees>
              <LongitudeDegrees>-8.15279868431389331817626953125</LongitudeDegrees>
            </Position>
            <AltitudeMeters>123.40000152587890625</AltitudeMeters>
            <DistanceMeters>137072.20928831</DistanceMeters>
          </Trackpoint>
          <Trackpoint>
            <Time>2018-09-13T15:23:51.000Z</Time>
            <Position>
              <LatitudeDegrees>38.871406204998493194580078125</LatitudeDegrees>
              <LongitudeDegrees>-8.1526928208768367767333984375</LongitudeDegrees>
            </Position>
            <AltitudeMeters>124.1999969482421875</AltitudeMeters>
            <DistanceMeters>137081.56736938</DistanceMeters>
          </Trackpoint>
          <Trackpoint>
            <Time>2018-09-13T15:23:54.000Z</Time>
            <Position>
              <LatitudeDegrees>38.8713869266211986541748046875</LatitudeDegrees>
              <LongitudeDegrees>-8.1525890529155731201171875</LongitudeDegrees>
            </Position>
            <AltitudeMeters>125.40000152587890625</AltitudeMeters>
            <DistanceMeters>137090.81186198</DistanceMeters>
          </Trackpoint>
          <Trackpoint>
            <Time>2018-09-13T15:23:58.000Z</Time>
            <Position>
              <LatitudeDegrees>38.87136706151068210601806640625</LatitudeDegrees>
              <LongitudeDegrees>-8.1524587981402873992919921875</LongitudeDegrees>
            </Position>
            <AltitudeMeters>127.40000152587890625</AltitudeMeters>
            <DistanceMeters>137102.31402047</DistanceMeters>
          </Trackpoint>
          <Trackpoint>
            <Time>2018-09-13T15:24:03.000Z</Time>
            <Position>
              <LatitudeDegrees>38.87134292162954807281494140625</LatitudeDegrees>
              <LongitudeDegrees>-8.15230599604547023773193359375</LongitudeDegrees>
            </Position>
            <AltitudeMeters>129.399993896484375</AltitudeMeters>
            <DistanceMeters>137115.82520197</DistanceMeters>
          </Trackpoint>
          <Trackpoint>
            <Time>2018-09-13T15:24:08.000Z</Time>
            <Position>
              <LatitudeDegrees>38.8713165186345577239990234375</LatitudeDegrees>
              <LongitudeDegrees>-8.1521560437977313995361328125</LongitudeDegrees>
            </Position>
            <AltitudeMeters>129.600006103515625</AltitudeMeters>
            <DistanceMeters>137129.14793377</DistanceMeters>
          </Trackpoint>
          <Trackpoint>
            <Time>2018-09-13T15:24:14.000Z</Time>
            <Position>
              <LatitudeDegrees>38.87129120528697967529296875</LatitudeDegrees>
              <LongitudeDegrees>-8.15196803770959377288818359375</LongitudeDegrees>
            </Position>
            <AltitudeMeters>130</AltitudeMeters>
            <DistanceMeters>137145.68148977</DistanceMeters>
          </Trackpoint>
          <Trackpoint>
            <Time>2018-09-13T15:24:20.000Z</Time>
            <Position>
              <LatitudeDegrees>38.87124585919082164764404296875</LatitudeDegrees>
              <LongitudeDegrees>-8.15179084427654743194580078125</LongitudeDegrees>
            </Position>
            <AltitudeMeters>130.1999969482421875</AltitudeMeters>
            <DistanceMeters>137161.84441375</DistanceMeters>
          </Trackpoint>
          <Trackpoint>
            <Time>2018-09-13T15:24:27.000Z</Time>
            <Position>
              <LatitudeDegrees>38.87110286392271518707275390625</LatitudeDegrees>
              <LongitudeDegrees>-8.15165095031261444091796875</LongitudeDegrees>
            </Position>
            <AltitudeMeters>129</AltitudeMeters>
            <DistanceMeters>137181.85086617</DistanceMeters>
          </Trackpoint>
          <Trackpoint>
            <Time>2018-09-13T15:24:35.000Z</Time>
            <Position>
              <LatitudeDegrees>38.87090538628399372100830078125</LatitudeDegrees>
              <LongitudeDegrees>-8.1515981443226337432861328125</LongitudeDegrees>
            </Position>
            <AltitudeMeters>129.399993896484375</AltitudeMeters>
            <DistanceMeters>137204.30171931</DistanceMeters>
          </Trackpoint>
          <Trackpoint>
            <Time>2018-09-13T15:24:41.000Z</Time>
            <Position>
              <LatitudeDegrees>38.8707666657865047454833984375</LatitudeDegrees>
              <LongitudeDegrees>-8.151566796004772186279296875</LongitudeDegrees>
            </Position>
            <AltitudeMeters>130.1999969482421875</AltitudeMeters>
            <DistanceMeters>137219.97882334</DistanceMeters>
          </Trackpoint>
          <Trackpoint>
            <Time>2018-09-13T15:24:46.000Z</Time>
            <Position>
              <LatitudeDegrees>38.87064747512340545654296875</LatitudeDegrees>
              <LongitudeDegrees>-8.1515622697770595550537109375</LongitudeDegrees>
            </Position>
            <AltitudeMeters>131</AltitudeMeters>
            <DistanceMeters>137233.25062318</DistanceMeters>
          </Trackpoint>
          <Trackpoint>
            <Time>2018-09-13T15:24:52.000Z</Time>
            <Position>
              <LatitudeDegrees>38.87051160447299480438232421875</LatitudeDegrees>
              <LongitudeDegrees>-8.1515153311192989349365234375</LongitudeDegrees>
            </Position>
            <AltitudeMeters>132</AltitudeMeters>
            <DistanceMeters>137248.91072587</DistanceMeters>
          </Trackpoint>
          <Trackpoint>
            <Time>2018-09-13T15:24:58.000Z</Time>
            <Position>
              <LatitudeDegrees>38.87037782929837703704833984375</LatitudeDegrees>
              <LongitudeDegrees>-8.15145338885486125946044921875</LongitudeDegrees>
            </Position>
            <AltitudeMeters>132.1999969482421875</AltitudeMeters>
            <DistanceMeters>137264.73830877</DistanceMeters>
          </Trackpoint>
          <Trackpoint>
            <Time>2018-09-13T15:25:03.000Z</Time>
            <Position>
              <LatitudeDegrees>38.8702724687755107879638671875</LatitudeDegrees>
              <LongitudeDegrees>-8.1513922847807407379150390625</LongitudeDegrees>
            </Position>
            <AltitudeMeters>132.399993896484375</AltitudeMeters>
            <DistanceMeters>137277.60522066</DistanceMeters>
          </Trackpoint>
          <Trackpoint>
            <Time>2018-09-13T15:25:09.000Z</Time>
            <Position>
              <LatitudeDegrees>38.8701470755040645599365234375</LatitudeDegrees>
              <LongitudeDegrees>-8.1513284146785736083984375</LongitudeDegrees>
            </Position>
            <AltitudeMeters>132.8000030517578125</AltitudeMeters>
            <DistanceMeters>137292.61944153</DistanceMeters>
          </Trackpoint>
          <Trackpoint>
            <Time>2018-09-13T15:25:15.000Z</Time>
            <Position>
              <LatitudeDegrees>38.87002226896584033966064453125</LatitudeDegrees>
              <LongitudeDegrees>-8.15125457011163234710693359375</LongitudeDegrees>
            </Position>
            <AltitudeMeters>133.399993896484375</AltitudeMeters>
            <DistanceMeters>137307.91372478</DistanceMeters>
          </Trackpoint>
          <Trackpoint>
            <Time>2018-09-13T15:25:21.000Z</Time>
            <Position>
              <LatitudeDegrees>38.8698939420282840728759765625</LatitudeDegrees>
              <LongitudeDegrees>-8.15119321458041667938232421875</LongitudeDegrees>
            </Position>
            <AltitudeMeters>134.1999969482421875</AltitudeMeters>
            <DistanceMeters>137323.15418496</DistanceMeters>
          </Trackpoint>
          <Trackpoint>
            <Time>2018-09-13T15:25:26.000Z</Time>
            <Position>
              <LatitudeDegrees>38.8697911798954010009765625</LatitudeDegrees>
              <LongitudeDegrees>-8.15113588236272335052490234375</LongitudeDegrees>
            </Position>
            <AltitudeMeters>135.1999969482421875</AltitudeMeters>
            <DistanceMeters>137335.62406532</DistanceMeters>
          </Trackpoint>
          <Trackpoint>
            <Time>2018-09-13T15:25:31.000Z</Time>
            <Position>
              <LatitudeDegrees>38.8696900941431522369384765625</LatitudeDegrees>
              <LongitudeDegrees>-8.151076622307300567626953125</LongitudeDegrees>
            </Position>
            <AltitudeMeters>136.1999969482421875</AltitudeMeters>
            <DistanceMeters>137347.99178398</DistanceMeters>
          </Trackpoint>
          <Trackpoint>
            <Time>2018-09-13T15:25:36.000Z</Time>
            <Position>
              <LatitudeDegrees>38.869584314525127410888671875</LatitudeDegrees>
              <LongitudeDegrees>-8.1510248221457004547119140625</LongitudeDegrees>
            </Position>
            <AltitudeMeters>137.1999969482421875</AltitudeMeters>
            <DistanceMeters>137360.59205398</DistanceMeters>
          </Trackpoint>
          <Trackpoint>
            <Time>2018-09-13T15:25:40.000Z</Time>
            <Position>
              <LatitudeDegrees>38.86950074695050716400146484375</LatitudeDegrees>
              <LongitudeDegrees>-8.1509755365550518035888671875</LongitudeDegrees>
            </Position>
            <AltitudeMeters>138</AltitudeMeters>
            <DistanceMeters>137370.82718548</DistanceMeters>
          </Trackpoint>
          <Trackpoint>
            <Time>2018-09-13T15:25:46.000Z</Time>
            <Position>
              <LatitudeDegrees>38.869372420012950897216796875</LatitudeDegrees>
              <LongitudeDegrees>-8.1509041227400302886962890625</LongitudeDegrees>
            </Position>
            <AltitudeMeters>139</AltitudeMeters>
            <DistanceMeters>137386.3930138</DistanceMeters>
          </Trackpoint>
          <Trackpoint>
            <Time>2018-09-13T15:25:52.000Z</Time>
            <Position>
              <LatitudeDegrees>38.86924392543733119964599609375</LatitudeDegrees>
              <LongitudeDegrees>-8.1508387438952922821044921875</LongitudeDegrees>
            </Position>
            <AltitudeMeters>139.399993896484375</AltitudeMeters>
            <DistanceMeters>137401.77619238</DistanceMeters>
          </Trackpoint>
          <Trackpoint>
            <Time>2018-09-13T15:25:58.000Z</Time>
            <Position>
              <LatitudeDegrees>38.8691187836229801177978515625</LatitudeDegrees>
              <LongitudeDegrees>-8.15076724626123905181884765625</LongitudeDegrees>
            </Position>
            <AltitudeMeters>139.8000030517578125</AltitudeMeters>
            <DistanceMeters>137417.02079954</DistanceMeters>
          </Trackpoint>
          <Trackpoint>
            <Time>2018-09-13T15:26:03.000Z</Time>
            <Position>
              <LatitudeDegrees>38.86901325546205043792724609375</LatitudeDegrees>
              <LongitudeDegrees>-8.150710165500640869140625</LongitudeDegrees>
            </Position>
            <AltitudeMeters>140.1999969482421875</AltitudeMeters>
            <DistanceMeters>137429.76501214</DistanceMeters>
          </Trackpoint>
          <Trackpoint>
            <Time>2018-09-13T15:26:08.000Z</Time>
            <Position>
              <LatitudeDegrees>38.86890445835888385772705078125</LatitudeDegrees>
              <LongitudeDegrees>-8.15065157599747180938720703125</LongitudeDegrees>
            </Position>
            <AltitudeMeters>140.600006103515625</AltitudeMeters>
            <DistanceMeters>137442.89590243</DistanceMeters>
          </Trackpoint>
          <Trackpoint>
            <Time>2018-09-13T15:26:09.000Z</Time>
            <Position>
              <LatitudeDegrees>38.868880905210971832275390625</LatitudeDegrees>
              <LongitudeDegrees>-8.15064202062785625457763671875</LongitudeDegrees>
            </Position>
            <AltitudeMeters>140.600006103515625</AltitudeMeters>
            <DistanceMeters>137445.64347297</DistanceMeters>
          </Trackpoint>
          <Trackpoint>
            <Time>2018-09-13T15:26:15.000Z</Time>
            <Position>
              <LatitudeDegrees>38.8687385804951190948486328125</LatitudeDegrees>
              <LongitudeDegrees>-8.15058074891567230224609375</LongitudeDegrees>
            </Position>
            <AltitudeMeters>141.1999969482421875</AltitudeMeters>
            <DistanceMeters>137462.35088818</DistanceMeters>
          </Trackpoint>
          <Trackpoint>
            <Time>2018-09-13T15:26:20.000Z</Time>
            <Position>
              <LatitudeDegrees>38.868594579398632049560546875</LatitudeDegrees>
              <LongitudeDegrees>-8.150560297071933746337890625</LongitudeDegrees>
            </Position>
            <AltitudeMeters>141.8000030517578125</AltitudeMeters>
            <DistanceMeters>137478.47633643</DistanceMeters>
          </Trackpoint>
          <Trackpoint>
            <Time>2018-09-13T15:26:30.000Z</Time>
            <Position>
              <LatitudeDegrees>38.86824262328445911407470703125</LatitudeDegrees>
              <LongitudeDegrees>-8.1506275199353694915771484375</LongitudeDegrees>
            </Position>
            <AltitudeMeters>142.1999969482421875</AltitudeMeters>
            <DistanceMeters>137518.08047963</DistanceMeters>
          </Trackpoint>
          <Trackpoint>
            <Time>2018-09-13T15:26:38.000Z</Time>
            <Position>
              <LatitudeDegrees>38.86797088198363780975341796875</LatitudeDegrees>
              <LongitudeDegrees>-8.150693736970424652099609375</LongitudeDegrees>
            </Position>
            <AltitudeMeters>142.399993896484375</AltitudeMeters>
            <DistanceMeters>137548.86502872</DistanceMeters>
          </Trackpoint>
          <Trackpoint>
            <Time>2018-09-13T15:26:46.000Z</Time>
            <Position>
              <LatitudeDegrees>38.8677029125392436981201171875</LatitudeDegrees>
              <LongitudeDegrees>-8.15074997954070568084716796875</LongitudeDegrees>
            </Position>
            <AltitudeMeters>142.600006103515625</AltitudeMeters>
            <DistanceMeters>137579.0862132</DistanceMeters>
          </Trackpoint>
          <Trackpoint>
            <Time>2018-09-13T15:26:50.000Z</Time>
            <Position>
              <LatitudeDegrees>38.86754306964576244354248046875</LatitudeDegrees>
              <LongitudeDegrees>-8.1507991813123226165771484375</LongitudeDegrees>
            </Position>
            <AltitudeMeters>142.8000030517578125</AltitudeMeters>
            <DistanceMeters>137597.38076849</DistanceMeters>
          </Trackpoint>
          <Trackpoint>
            <Time>2018-09-13T15:26:58.000Z</Time>
            <Position>
              <LatitudeDegrees>38.86714585125446319580078125</LatitudeDegrees>
              <LongitudeDegrees>-8.1508974172174930572509765625</LongitudeDegrees>
            </Position>
            <AltitudeMeters>143.600006103515625</AltitudeMeters>
            <DistanceMeters>137642.40418107</DistanceMeters>
          </Trackpoint>
          <Trackpoint>
            <Time>2018-09-13T15:27:08.000Z</Time>
            <Position>
              <LatitudeDegrees>38.86662474833428859710693359375</LatitudeDegrees>
              <LongitudeDegrees>-8.15104016102850437164306640625</LongitudeDegrees>
            </Position>
            <AltitudeMeters>145.1999969482421875</AltitudeMeters>
            <DistanceMeters>137701.70846467</DistanceMeters>
          </Trackpoint>
          <Trackpoint>
            <Time>2018-09-13T15:27:19.000Z</Time>
            <Position>
              <LatitudeDegrees>38.86608797125518321990966796875</LatitudeDegrees>
              <LongitudeDegrees>-8.1512491218745708465576171875</LongitudeDegrees>
            </Position>
            <AltitudeMeters>147.399993896484375</AltitudeMeters>
            <DistanceMeters>137764.13689371</DistanceMeters>
          </Trackpoint>
          <Trackpoint>
            <Time>2018-09-13T15:27:26.000Z</Time>
            <Position>
              <LatitudeDegrees>38.86576040647923946380615234375</LatitudeDegrees>
              <LongitudeDegrees>-8.151396811008453369140625</LongitudeDegrees>
            </Position>
            <AltitudeMeters>147.8000030517578125</AltitudeMeters>
            <DistanceMeters>137802.77679368</DistanceMeters>
          </Trackpoint>
          <Trackpoint>
            <Time>2018-09-13T15:27:37.000Z</Time>
            <Position>
              <LatitudeDegrees>38.86524776928126811981201171875</LatitudeDegrees>
              <LongitudeDegrees>-8.151725046336650848388671875</LongitudeDegrees>
            </Position>
            <AltitudeMeters>148.1999969482421875</AltitudeMeters>
            <DistanceMeters>137866.53185865</DistanceMeters>
          </Trackpoint>
          <Trackpoint>
            <Time>2018-09-13T15:27:47.000Z</Time>
            <Position>
              <LatitudeDegrees>38.86477804742753505706787109375</LatitudeDegrees>
              <LongitudeDegrees>-8.15205437131226062774658203125</LongitudeDegrees>
            </Position>
            <AltitudeMeters>148.1999969482421875</AltitudeMeters>
            <DistanceMeters>137926.09557046</DistanceMeters>
          </Trackpoint>
          <Trackpoint>
            <Time>2018-09-13T15:27:57.000Z</Time>
            <Position>
              <LatitudeDegrees>38.8643095828592777252197265625</LatitudeDegrees>
              <LongitudeDegrees>-8.1524634920060634613037109375</LongitudeDegrees>
            </Position>
            <AltitudeMeters>149</AltitudeMeters>
            <DistanceMeters>137989.14950116</DistanceMeters>
          </Trackpoint>
          <Trackpoint>
            <Time>2018-09-13T15:28:05.000Z</Time>
            <Position>
              <LatitudeDegrees>38.86398528702557086944580078125</LatitudeDegrees>
              <LongitudeDegrees>-8.15285316668450832366943359375</LongitudeDegrees>
            </Position>
            <AltitudeMeters>151.600006103515625</AltitudeMeters>
            <DistanceMeters>138038.57910609</DistanceMeters>
          </Trackpoint>
          <Trackpoint>
            <Time>2018-09-13T15:28:14.000Z</Time>
            <Position>
              <LatitudeDegrees>38.863649256527423858642578125</LatitudeDegrees>
              <LongitudeDegrees>-8.15330428071320056915283203125</LongitudeDegrees>
            </Position>
            <AltitudeMeters>153.600006103515625</AltitudeMeters>
            <DistanceMeters>138092.68344863</DistanceMeters>
          </Trackpoint>
          <Trackpoint>
            <Time>2018-09-13T15:28:18.000Z</Time>
            <Position>
              <LatitudeDegrees>38.8635109551250934600830078125</LatitudeDegrees>
              <LongitudeDegrees>-8.1534983217716217041015625</LongitudeDegrees>
            </Position>
            <AltitudeMeters>153.8000030517578125</AltitudeMeters>
            <DistanceMeters>138115.48154372</DistanceMeters>
          </Trackpoint>
          <Trackpoint>
            <Time>2018-09-13T15:28:21.000Z</Time>
            <Position>
              <LatitudeDegrees>38.8634080253541469573974609375</LatitudeDegrees>
              <LongitudeDegrees>-8.15364114940166473388671875</LongitudeDegrees>
            </Position>
            <AltitudeMeters>153.1999969482421875</AltitudeMeters>
            <DistanceMeters>138132.34764784</DistanceMeters>
          </Trackpoint>
          <Trackpoint>
            <Time>2018-09-13T15:28:26.000Z</Time>
            <Position>
              <LatitudeDegrees>38.86323879472911357879638671875</LatitudeDegrees>
              <LongitudeDegrees>-8.15387257374823093414306640625</LongitudeDegrees>
            </Position>
            <AltitudeMeters>152.1999969482421875</AltitudeMeters>
            <DistanceMeters>138159.86194337</DistanceMeters>
          </Trackpoint>
          <Trackpoint>
            <Time>2018-09-13T15:28:34.000Z</Time>
            <Position>
              <LatitudeDegrees>38.86290536262094974517822265625</LatitudeDegrees>
              <LongitudeDegrees>-8.154324777424335479736328125</LongitudeDegrees>
            </Position>
            <AltitudeMeters>150.399993896484375</AltitudeMeters>
            <DistanceMeters>138213.83552776</DistanceMeters>
          </Trackpoint>
          <Trackpoint>
            <Time>2018-09-13T15:28:37.000Z</Time>
            <Position>
              <LatitudeDegrees>38.86276370845735073089599609375</LatitudeDegrees>
              <LongitudeDegrees>-8.15450976602733135223388671875</LongitudeDegrees>
            </Position>
            <AltitudeMeters>149.8000030517578125</AltitudeMeters>
            <DistanceMeters>138236.3213464</DistanceMeters>
          </Trackpoint>
          <Trackpoint>
            <Time>2018-09-13T15:28:42.000Z</Time>
            <Position>
              <LatitudeDegrees>38.8625299371778964996337890625</LatitudeDegrees>
              <LongitudeDegrees>-8.15483875572681427001953125</LongitudeDegrees>
            </Position>
            <AltitudeMeters>148</AltitudeMeters>
            <DistanceMeters>138274.92114631</DistanceMeters>
          </Trackpoint>
          <Trackpoint>
            <Time>2018-09-13T15:28:44.000Z</Time>
            <Position>
              <LatitudeDegrees>38.862432539463043212890625</LatitudeDegrees>
              <LongitudeDegrees>-8.15497077070176601409912109375</LongitudeDegrees>
            </Position>
            <AltitudeMeters>147</AltitudeMeters>
            <DistanceMeters>138290.68240905</DistanceMeters>
          </Trackpoint>
          <Trackpoint>
            <Time>2018-09-13T15:28:48.000Z</Time>
            <Position>
              <LatitudeDegrees>38.8622332178056240081787109375</LatitudeDegrees>
              <LongitudeDegrees>-8.15523144789040088653564453125</LongitudeDegrees>
            </Position>
            <AltitudeMeters>145.1999969482421875</AltitudeMeters>
            <DistanceMeters>138322.34556125</DistanceMeters>
          </Trackpoint>
          <Trackpoint>
            <Time>2018-09-13T15:28:49.000Z</Time>
            <Position>
              <LatitudeDegrees>38.86218200437724590301513671875</LatitudeDegrees>
              <LongitudeDegrees>-8.1552948988974094390869140625</LongitudeDegrees>
            </Position>
            <AltitudeMeters>144.8000030517578125</AltitudeMeters>
            <DistanceMeters>138330.26648109</DistanceMeters>
          </Trackpoint>
          <Trackpoint>
            <Time>2018-09-13T15:28:52.000Z</Time>
            <Position>
              <LatitudeDegrees>38.8620283640921115875244140625</LatitudeDegrees>
              <LongitudeDegrees>-8.1554930470883846282958984375</LongitudeDegrees>
            </Position>
            <AltitudeMeters>143.600006103515625</AltitudeMeters>
            <DistanceMeters>138354.5014606</DistanceMeters>
          </Trackpoint>
          <Trackpoint>
            <Time>2018-09-13T15:28:57.000Z</Time>
            <Position>
              <LatitudeDegrees>38.86175318621098995208740234375</LatitudeDegrees>
              <LongitudeDegrees>-8.155853636562824249267578125</LongitudeDegrees>
            </Position>
            <AltitudeMeters>141.399993896484375</AltitudeMeters>
            <DistanceMeters>138398.25855407</DistanceMeters>
          </Trackpoint>
          <Trackpoint>
            <Time>2018-09-13T15:29:03.000Z</Time>
            <Position>
              <LatitudeDegrees>38.86139460839331150054931640625</LatitudeDegrees>
              <LongitudeDegrees>-8.15631170757114887237548828125</LongitudeDegrees>
            </Position>
            <AltitudeMeters>139.600006103515625</AltitudeMeters>
            <DistanceMeters>138454.55143644</DistanceMeters>
          </Trackpoint>
          <Trackpoint>
            <Time>2018-09-13T15:29:06.000Z</Time>
            <Position>
              <LatitudeDegrees>38.8612076081335544586181640625</LatitudeDegrees>
              <LongitudeDegrees>-8.15651220269501209259033203125</LongitudeDegrees>
            </Position>
            <AltitudeMeters>138.8000030517578125</AltitudeMeters>
            <DistanceMeters>138481.6648745</DistanceMeters>
          </Trackpoint>
          <Trackpoint>
            <Time>2018-09-13T15:29:07.000Z</Time>
            <Position>
              <LatitudeDegrees>38.8611385412514209747314453125</LatitudeDegrees>
              <LongitudeDegrees>-8.15656735561788082122802734375</LongitudeDegrees>
            </Position>
            <AltitudeMeters>138.399993896484375</AltitudeMeters>
            <DistanceMeters>138490.71688608</DistanceMeters>
          </Trackpoint>
          <Trackpoint>
            <Time>2018-09-13T15:29:12.000Z</Time>
            <Position>
              <LatitudeDegrees>38.8607419095933437347412109375</LatitudeDegrees>
              <LongitudeDegrees>-8.1567620672285556793212890625</LongitudeDegrees>
            </Position>
            <AltitudeMeters>136.8000030517578125</AltitudeMeters>
            <DistanceMeters>138537.97822926</DistanceMeters>
          </Trackpoint>
          <Trackpoint>
            <Time>2018-09-13T15:29:17.000Z</Time>
            <Position>
              <LatitudeDegrees>38.86030563153326511383056640625</LatitudeDegrees>
              <LongitudeDegrees>-8.15692953765392303466796875</LongitudeDegrees>
            </Position>
            <AltitudeMeters>135.399993896484375</AltitudeMeters>
            <DistanceMeters>138588.65963852</DistanceMeters>
          </Trackpoint>
          <Trackpoint>
            <Time>2018-09-13T15:29:18.000Z</Time>
            <Position>
              <LatitudeDegrees>38.8602156937122344970703125</LatitudeDegrees>
              <LongitudeDegrees>-8.15696314908564090728759765625</LongitudeDegrees>
            </Position>
            <AltitudeMeters>135.1999969482421875</AltitudeMeters>
            <DistanceMeters>138599.08576245</DistanceMeters>
          </Trackpoint>
          <Trackpoint>
            <Time>2018-09-13T15:29:21.000Z</Time>
            <Position>
              <LatitudeDegrees>38.85994252748787403106689453125</LatitudeDegrees>
              <LongitudeDegrees>-8.15706943161785602569580078125</LongitudeDegrees>
            </Position>
            <AltitudeMeters>135</AltitudeMeters>
            <DistanceMeters>138630.85454467</DistanceMeters>
          </Trackpoint>
          <Trackpoint>
            <Time>2018-09-13T15:29:24.000Z</Time>
            <Position>
              <LatitudeDegrees>38.85966693051159381866455078125</LatitudeDegrees>
              <LongitudeDegrees>-8.157174624502658843994140625</LongitudeDegrees>
            </Position>
            <AltitudeMeters>134.600006103515625</AltitudeMeters>
            <DistanceMeters>138662.85527574</DistanceMeters>
          </Trackpoint>
          <Trackpoint>
            <Time>2018-09-13T15:29:26.000Z</Time>
            <Position>
              <LatitudeDegrees>38.85948001407086849212646484375</LatitudeDegrees>
              <LongitudeDegrees>-8.1572519056499004364013671875</LongitudeDegrees>
            </Position>
            <AltitudeMeters>134.399993896484375</AltitudeMeters>
            <DistanceMeters>138684.71100688</DistanceMeters>
          </Trackpoint>
          <Trackpoint>
            <Time>2018-09-13T15:29:28.000Z</Time>
            <Position>
              <LatitudeDegrees>38.8592888228595256805419921875</LatitudeDegrees>
              <LongitudeDegrees>-8.15733480267226696014404296875</LongitudeDegrees>
            </Position>
            <AltitudeMeters>133.600006103515625</AltitudeMeters>
            <DistanceMeters>138707.17110907</DistanceMeters>
          </Trackpoint>
          <Trackpoint>
            <Time>2018-09-13T15:29:30.000Z</Time>
            <Position>
              <LatitudeDegrees>38.85909260250627994537353515625</LatitudeDegrees>
              <LongitudeDegrees>-8.1574195437133312225341796875</LongitudeDegrees>
            </Position>
            <AltitudeMeters>132.399993896484375</AltitudeMeters>
            <DistanceMeters>138730.21268702</DistanceMeters>
          </Trackpoint>
          <Trackpoint>
            <Time>2018-09-13T15:29:32.000Z</Time>
            <Position>
              <LatitudeDegrees>38.85889680124819278717041015625</LatitudeDegrees>
              <LongitudeDegrees>-8.1575162708759307861328125</LongitudeDegrees>
            </Position>
            <AltitudeMeters>131.1999969482421875</AltitudeMeters>
            <DistanceMeters>138753.56258971</DistanceMeters>
          </Trackpoint>
          <Trackpoint>
            <Time>2018-09-13T15:29:34.000Z</Time>
            <Position>
              <LatitudeDegrees>38.85869898833334445953369140625</LatitudeDegrees>
              <LongitudeDegrees>-8.15761425532400608062744140625</LongitudeDegrees>
            </Position>
            <AltitudeMeters>130</AltitudeMeters>
            <DistanceMeters>138777.16061408</DistanceMeters>
          </Trackpoint>
          <Trackpoint>
            <Time>2018-09-13T15:29:36.000Z</Time>
            <Position>
              <LatitudeDegrees>38.8585002534091472625732421875</LatitudeDegrees>
              <LongitudeDegrees>-8.15772204659879207611083984375</LongitudeDegrees>
            </Position>
            <AltitudeMeters>129</AltitudeMeters>
            <DistanceMeters>138801.17230604</DistanceMeters>
          </Trackpoint>
          <Trackpoint>
            <Time>2018-09-13T15:29:38.000Z</Time>
            <Position>
              <LatitudeDegrees>38.8582957349717617034912109375</LatitudeDegrees>
              <LongitudeDegrees>-8.1578272394835948944091796875</LongitudeDegrees>
            </Position>
            <AltitudeMeters>127.59999847412109375</AltitudeMeters>
            <DistanceMeters>138825.6936178</DistanceMeters>
          </Trackpoint>
          <Trackpoint>
            <Time>2018-09-13T15:29:39.000Z</Time>
            <Position>
              <LatitudeDegrees>38.85818987153470516204833984375</LatitudeDegrees>
              <LongitudeDegrees>-8.15787342377007007598876953125</LongitudeDegrees>
            </Position>
            <AltitudeMeters>126.8000030517578125</AltitudeMeters>
            <DistanceMeters>138838.13812707</DistanceMeters>
          </Trackpoint>
          <Trackpoint>
            <Time>2018-09-13T15:29:41.000Z</Time>
            <Position>
              <LatitudeDegrees>38.85797093622386455535888671875</LatitudeDegrees>
              <LongitudeDegrees>-8.15794684924185276031494140625</LongitudeDegrees>
            </Position>
            <AltitudeMeters>125.1999969482421875</AltitudeMeters>
            <DistanceMeters>138863.32325422</DistanceMeters>
          </Trackpoint>
          <Trackpoint>
            <Time>2018-09-13T15:29:42.000Z</Time>
            <Position>
              <LatitudeDegrees>38.85785778053104877471923828125</LatitudeDegrees>
              <LongitudeDegrees>-8.15796847455203533172607421875</LongitudeDegrees>
            </Position>
            <AltitudeMeters>124.40000152587890625</AltitudeMeters>
            <DistanceMeters>138876.05612477</DistanceMeters>
          </Trackpoint>
          <Trackpoint>
            <Time>2018-09-13T15:29:46.000Z</Time>
            <Position>
              <LatitudeDegrees>38.8573941774666309356689453125</LatitudeDegrees>
              <LongitudeDegrees>-8.1580153293907642364501953125</LongitudeDegrees>
            </Position>
            <AltitudeMeters>119.8000030517578125</AltitudeMeters>
            <DistanceMeters>138927.8155981</DistanceMeters>
          </Trackpoint>
          <Trackpoint>
            <Time>2018-09-13T15:29:48.000Z</Time>
            <Position>
              <LatitudeDegrees>38.85715504176914691925048828125</LatitudeDegrees>
              <LongitudeDegrees>-8.15803653560578823089599609375</LongitudeDegrees>
            </Position>
            <AltitudeMeters>118</AltitudeMeters>
            <DistanceMeters>138954.49526837</DistanceMeters>
          </Trackpoint>
          <Trackpoint>
            <Time>2018-09-13T15:29:49.000Z</Time>
            <Position>
              <LatitudeDegrees>38.8570347614586353302001953125</LatitudeDegrees>
              <LongitudeDegrees>-8.15806302241981029510498046875</LongitudeDegrees>
            </Position>
            <AltitudeMeters>117.40000152587890625</AltitudeMeters>
            <DistanceMeters>138968.0777741</DistanceMeters>
          </Trackpoint>
          <Trackpoint>
            <Time>2018-09-13T15:29:50.000Z</Time>
            <Position>
              <LatitudeDegrees>38.85691716335713863372802734375</LatitudeDegrees>
              <LongitudeDegrees>-8.158101998269557952880859375</LongitudeDegrees>
            </Position>
            <AltitudeMeters>116.59999847412109375</AltitudeMeters>
            <DistanceMeters>138981.59563735</DistanceMeters>
          </Trackpoint>
          <Trackpoint>
            <Time>2018-09-13T15:29:51.000Z</Time>
            <Position>
              <LatitudeDegrees>38.85680216364562511444091796875</LatitudeDegrees>
              <LongitudeDegrees>-8.1581519544124603271484375</LongitudeDegrees>
            </Position>
            <AltitudeMeters>116.8000030517578125</AltitudeMeters>
            <DistanceMeters>138995.10815546</DistanceMeters>
          </Trackpoint>
          <Trackpoint>
            <Time>2018-09-13T15:29:54.000Z</Time>
            <Position>
              <LatitudeDegrees>38.8564664684236049652099609375</LatitudeDegrees>
              <LongitudeDegrees>-8.1583318300545215606689453125</LongitudeDegrees>
            </Position>
            <AltitudeMeters>118.59999847412109375</AltitudeMeters>
            <DistanceMeters>139035.59377384</DistanceMeters>
          </Trackpoint>
          <Trackpoint>
            <Time>2018-09-13T15:29:56.000Z</Time>
            <Position>
              <LatitudeDegrees>38.856266476213932037353515625</LatitudeDegrees>
              <LongitudeDegrees>-8.15849318169057369232177734375</LongitudeDegrees>
            </Position>
            <AltitudeMeters>119.8000030517578125</AltitudeMeters>
            <DistanceMeters>139061.88167391</DistanceMeters>
          </Trackpoint>
          <Trackpoint>
            <Time>2018-09-13T15:29:57.000Z</Time>
            <Position>
              <LatitudeDegrees>38.8561871834099292755126953125</LatitudeDegrees>
              <LongitudeDegrees>-8.1585946865379810333251953125</LongitudeDegrees>
            </Position>
            <AltitudeMeters>120.59999847412109375</AltitudeMeters>
            <DistanceMeters>139074.34358607</DistanceMeters>
          </Trackpoint>
          <Trackpoint>
            <Time>2018-09-13T15:29:58.000Z</Time>
            <Position>
              <LatitudeDegrees>38.85612524114549160003662109375</LatitudeDegrees>
              <LongitudeDegrees>-8.158705495297908782958984375</LongitudeDegrees>
            </Position>
            <AltitudeMeters>121.1999969482421875</AltitudeMeters>
            <DistanceMeters>139086.16591762</DistanceMeters>
          </Trackpoint>
          <Trackpoint>
            <Time>2018-09-13T15:30:01.000Z</Time>
            <Position>
              <LatitudeDegrees>38.85602650232613086700439453125</LatitudeDegrees>
              <LongitudeDegrees>-8.1590345688164234161376953125</LongitudeDegrees>
            </Position>
            <AltitudeMeters>122.8000030517578125</AltitudeMeters>
            <DistanceMeters>139116.73174444</DistanceMeters>
          </Trackpoint>
          <Trackpoint>
            <Time>2018-09-13T15:30:02.000Z</Time>
            <Position>
              <LatitudeDegrees>38.85601225309073925018310546875</LatitudeDegrees>
              <LongitudeDegrees>-8.15913607366383075714111328125</LongitudeDegrees>
            </Position>
            <AltitudeMeters>123.40000152587890625</AltitudeMeters>
            <DistanceMeters>139125.67132925</DistanceMeters>
          </Trackpoint>
          <Trackpoint>
            <Time>2018-09-13T15:30:04.000Z</Time>
            <Position>
              <LatitudeDegrees>38.85599448345601558685302734375</LatitudeDegrees>
              <LongitudeDegrees>-8.1593208946287631988525390625</LongitudeDegrees>
            </Position>
            <AltitudeMeters>124</AltitudeMeters>
            <DistanceMeters>139141.81189012</DistanceMeters>
          </Trackpoint>
          <Trackpoint>
            <Time>2018-09-13T15:30:07.000Z</Time>
            <Position>
              <LatitudeDegrees>38.85598425753414630889892578125</LatitudeDegrees>
              <LongitudeDegrees>-8.15956271253526210784912109375</LongitudeDegrees>
            </Position>
            <AltitudeMeters>124.59999847412109375</AltitudeMeters>
            <DistanceMeters>139162.80225672</DistanceMeters>
          </Trackpoint>
          <Trackpoint>
            <Time>2018-09-13T15:30:10.000Z</Time>
            <Position>
              <LatitudeDegrees>38.8559766300022602081298828125</LatitudeDegrees>
              <LongitudeDegrees>-8.159775026142597198486328125</LongitudeDegrees>
            </Position>
            <AltitudeMeters>125.1999969482421875</AltitudeMeters>
            <DistanceMeters>139181.223719</DistanceMeters>
          </Trackpoint>
          <Trackpoint>
            <Time>2018-09-13T15:30:11.000Z</Time>
            <Position>
              <LatitudeDegrees>38.85597520507872104644775390625</LatitudeDegrees>
              <LongitudeDegrees>-8.15984015353024005889892578125</LongitudeDegrees>
            </Position>
            <AltitudeMeters>125.40000152587890625</AltitudeMeters>
            <DistanceMeters>139186.87121668</DistanceMeters>
          </Trackpoint>
          <Trackpoint>
            <Time>2018-09-13T15:30:12.000Z</Time>
            <Position>
              <LatitudeDegrees>38.85597235523164272308349609375</LatitudeDegrees>
              <LongitudeDegrees>-8.159902431070804595947265625</LongitudeDegrees>
            </Position>
            <AltitudeMeters>125.59999847412109375</AltitudeMeters>
            <DistanceMeters>139192.27856238</DistanceMeters>
          </Trackpoint>
          <Trackpoint>
            <Time>2018-09-13T15:30:14.000Z</Time>
            <Position>
              <LatitudeDegrees>38.85596782900393009185791015625</LatitudeDegrees>
              <LongitudeDegrees>-8.1600229628384113311767578125</LongitudeDegrees>
            </Position>
            <AltitudeMeters>125.8000030517578125</AltitudeMeters>
            <DistanceMeters>139202.73754637</DistanceMeters>
          </Trackpoint>
          <Trackpoint>
            <Time>2018-09-13T15:30:15.000Z</Time>
            <Position>
              <LatitudeDegrees>38.8559655658900737762451171875</LatitudeDegrees>
              <LongitudeDegrees>-8.16008188761770725250244140625</LongitudeDegrees>
            </Position>
            <AltitudeMeters>126</AltitudeMeters>
            <DistanceMeters>139207.849595</DistanceMeters>
          </Trackpoint>
          <Trackpoint>
            <Time>2018-09-13T15:30:17.000Z</Time>
            <Position>
              <LatitudeDegrees>38.85596028529107570648193359375</LatitudeDegrees>
              <LongitudeDegrees>-8.160197474062442779541015625</LongitudeDegrees>
            </Position>
            <AltitudeMeters>126.1999969482421875</AltitudeMeters>
            <DistanceMeters>139217.88470399</DistanceMeters>
          </Trackpoint>
          <Trackpoint>
            <Time>2018-09-13T15:30:21.000Z</Time>
            <Position>
              <LatitudeDegrees>38.85595492087304592132568359375</LatitudeDegrees>
              <LongitudeDegrees>-8.16041464917361736297607421875</LongitudeDegrees>
            </Position>
            <AltitudeMeters>127.1999969482421875</AltitudeMeters>
            <DistanceMeters>139236.71750284</DistanceMeters>
          </Trackpoint>
          <Trackpoint>
            <Time>2018-09-13T15:30:25.000Z</Time>
            <Position>
              <LatitudeDegrees>38.85595458559691905975341796875</LatitudeDegrees>
              <LongitudeDegrees>-8.16062285564839839935302734375</LongitudeDegrees>
            </Position>
            <AltitudeMeters>128.1999969482421875</AltitudeMeters>
            <DistanceMeters>139254.7635738</DistanceMeters>
          </Trackpoint>
          <Trackpoint>
            <Time>2018-09-13T15:30:30.000Z</Time>
            <Position>
              <LatitudeDegrees>38.85595969855785369873046875</LatitudeDegrees>
              <LongitudeDegrees>-8.16086157225072383880615234375</LongitudeDegrees>
            </Position>
            <AltitudeMeters>129.399993896484375</AltitudeMeters>
            <DistanceMeters>139275.46195409</DistanceMeters>
          </Trackpoint>
          <Trackpoint>
            <Time>2018-09-13T15:30:34.000Z</Time>
            <Position>
              <LatitudeDegrees>38.85596699081361293792724609375</LatitudeDegrees>
              <LongitudeDegrees>-8.16103172488510608673095703125</LongitudeDegrees>
            </Position>
            <AltitudeMeters>129.399993896484375</AltitudeMeters>
            <DistanceMeters>139290.23211377</DistanceMeters>
          </Trackpoint>
          <Trackpoint>
            <Time>2018-09-13T15:30:35.000Z</Time>
            <Position>
              <LatitudeDegrees>38.8559675775468349456787109375</LatitudeDegrees>
              <LongitudeDegrees>-8.16107346676290035247802734375</LongitudeDegrees>
            </Position>
            <AltitudeMeters>129.399993896484375</AltitudeMeters>
            <DistanceMeters>139293.85062324</DistanceMeters>
          </Trackpoint>
          <Trackpoint>
            <Time>2018-09-13T15:30:39.000Z</Time>
            <Position>
              <LatitudeDegrees>38.8559642247855663299560546875</LatitudeDegrees>
              <LongitudeDegrees>-8.1612406857311725616455078125</LongitudeDegrees>
            </Position>
            <AltitudeMeters>129</AltitudeMeters>
            <DistanceMeters>139308.3489721</DistanceMeters>
          </Trackpoint>
          <Trackpoint>
            <Time>2018-09-13T15:30:44.000Z</Time>
            <Position>
              <LatitudeDegrees>38.85594360530376434326171875</LatitudeDegrees>
              <LongitudeDegrees>-8.16144503653049468994140625</LongitudeDegrees>
            </Position>
            <AltitudeMeters>128.600006103515625</AltitudeMeters>
            <DistanceMeters>139326.20893907</DistanceMeters>
          </Trackpoint>
          <Trackpoint>
            <Time>2018-09-13T15:30:50.000Z</Time>
            <Position>
              <LatitudeDegrees>38.85583438910543918609619140625</LatitudeDegrees>
              <LongitudeDegrees>-8.16168249584734439849853515625</LongitudeDegrees>
            </Position>
            <AltitudeMeters>128.8000030517578125</AltitudeMeters>
            <DistanceMeters>139350.11245528</DistanceMeters>
          </Trackpoint>
          <Trackpoint>
            <Time>2018-09-13T15:30:58.000Z</Time>
            <Position>
              <LatitudeDegrees>38.855620734393596649169921875</LatitudeDegrees>
              <LongitudeDegrees>-8.1619316898286342620849609375</LongitudeDegrees>
            </Position>
            <AltitudeMeters>129.399993896484375</AltitudeMeters>
            <DistanceMeters>139382.23724767</DistanceMeters>
          </Trackpoint>
          <Trackpoint>
            <Time>2018-09-13T15:31:07.000Z</Time>
            <Position>
              <LatitudeDegrees>38.8553399406373500823974609375</LatitudeDegrees>
              <LongitudeDegrees>-8.16211483441293239593505859375</LongitudeDegrees>
            </Position>
            <AltitudeMeters>130.600006103515625</AltitudeMeters>
            <DistanceMeters>139417.29051473</DistanceMeters>
          </Trackpoint>
          <Trackpoint>
            <Time>2018-09-13T15:31:16.000Z</Time>
            <Position>
              <LatitudeDegrees>38.85501413606107234954833984375</LatitudeDegrees>
              <LongitudeDegrees>-8.16221290268003940582275390625</LongitudeDegrees>
            </Position>
            <AltitudeMeters>130.399993896484375</AltitudeMeters>
            <DistanceMeters>139454.53601693</DistanceMeters>
          </Trackpoint>
          <Trackpoint>
            <Time>2018-09-13T15:31:22.000Z</Time>
            <Position>
              <LatitudeDegrees>38.8547542132437229156494140625</LatitudeDegrees>
              <LongitudeDegrees>-8.162276856601238250732421875</LongitudeDegrees>
            </Position>
            <AltitudeMeters>129.399993896484375</AltitudeMeters>
            <DistanceMeters>139483.99215254</DistanceMeters>
          </Trackpoint>
          <Trackpoint>
            <Time>2018-09-13T15:31:26.000Z</Time>
            <Position>
              <LatitudeDegrees>38.85452144779264926910400390625</LatitudeDegrees>
              <LongitudeDegrees>-8.16233293153345584869384765625</LongitudeDegrees>
            </Position>
            <AltitudeMeters>128.399993896484375</AltitudeMeters>
            <DistanceMeters>139510.35140522</DistanceMeters>
          </Trackpoint>
          <Trackpoint>
            <Time>2018-09-13T15:31:28.000Z</Time>
            <Position>
              <LatitudeDegrees>38.8543880917131900787353515625</LatitudeDegrees>
              <LongitudeDegrees>-8.1623635254800319671630859375</LongitudeDegrees>
            </Position>
            <AltitudeMeters>127.8000030517578125</AltitudeMeters>
            <DistanceMeters>139525.42924341</DistanceMeters>
          </Trackpoint>
          <Trackpoint>
            <Time>2018-09-13T15:31:32.000Z</Time>
            <Position>
              <LatitudeDegrees>38.8540870137512683868408203125</LatitudeDegrees>
              <LongitudeDegrees>-8.16242245025932788848876953125</LongitudeDegrees>
            </Position>
            <AltitudeMeters>127</AltitudeMeters>
            <DistanceMeters>139559.32661908</DistanceMeters>
          </Trackpoint>
          <Trackpoint>
            <Time>2018-09-13T15:31:35.000Z</Time>
            <Position>
              <LatitudeDegrees>38.85384033434092998504638671875</LatitudeDegrees>
              <LongitudeDegrees>-8.16248497925698757171630859375</LongitudeDegrees>
            </Position>
            <AltitudeMeters>126.1999969482421875</AltitudeMeters>
            <DistanceMeters>139587.3122688</DistanceMeters>
          </Trackpoint>
          <Trackpoint>
            <Time>2018-09-13T15:31:37.000Z</Time>
            <Position>
              <LatitudeDegrees>38.8536685891449451446533203125</LatitudeDegrees>
              <LongitudeDegrees>-8.16252755932509899139404296875</LongitudeDegrees>
            </Position>
            <AltitudeMeters>125.59999847412109375</AltitudeMeters>
            <DistanceMeters>139606.78092126</DistanceMeters>
          </Trackpoint>
          <Trackpoint>
            <Time>2018-09-13T15:31:40.000Z</Time>
            <Position>
              <LatitudeDegrees>38.85341470129787921905517578125</LatitudeDegrees>
              <LongitudeDegrees>-8.1625910103321075439453125</LongitudeDegrees>
            </Position>
            <AltitudeMeters>125.40000152587890625</AltitudeMeters>
            <DistanceMeters>139635.5691542</DistanceMeters>
          </Trackpoint>
          <Trackpoint>
            <Time>2018-09-13T15:31:42.000Z</Time>
            <Position>
              <LatitudeDegrees>38.85324454866349697113037109375</LatitudeDegrees>
              <LongitudeDegrees>-8.16263065673410892486572265625</LongitudeDegrees>
            </Position>
            <AltitudeMeters>125.1999969482421875</AltitudeMeters>
            <DistanceMeters>139654.8169319</DistanceMeters>
          </Trackpoint>
          <Trackpoint>
            <Time>2018-09-13T15:31:44.000Z</Time>
            <Position>
              <LatitudeDegrees>38.85307900607585906982421875</LatitudeDegrees>
              <LongitudeDegrees>-8.1626756675541400909423828125</LongitudeDegrees>
            </Position>
            <AltitudeMeters>125.1999969482421875</AltitudeMeters>
            <DistanceMeters>139673.65044996</DistanceMeters>
          </Trackpoint>
          <Trackpoint>
            <Time>2018-09-13T15:31:47.000Z</Time>
            <Position>
              <LatitudeDegrees>38.85284305550158023834228515625</LatitudeDegrees>
              <LongitudeDegrees>-8.16274054348468780517578125</LongitudeDegrees>
            </Position>
            <AltitudeMeters>125</AltitudeMeters>
            <DistanceMeters>139700.50756161</DistanceMeters>
          </Trackpoint>
          <Trackpoint>
            <Time>2018-09-13T15:31:51.000Z</Time>
            <Position>
              <LatitudeDegrees>38.85253409855067729949951171875</LatitudeDegrees>
              <LongitudeDegrees>-8.16282075829803943634033203125</LongitudeDegrees>
            </Position>
            <AltitudeMeters>125</AltitudeMeters>
            <DistanceMeters>139735.59082742</DistanceMeters>
          </Trackpoint>
          <Trackpoint>
            <Time>2018-09-13T15:31:53.000Z</Time>
            <Position>
              <LatitudeDegrees>38.852382637560367584228515625</LatitudeDegrees>
              <LongitudeDegrees>-8.1628580577671527862548828125</LongitudeDegrees>
            </Position>
            <AltitudeMeters>124.8000030517578125</AltitudeMeters>
            <DistanceMeters>139752.75624015</DistanceMeters>
          </Trackpoint>
          <Trackpoint>
            <Time>2018-09-13T15:32:00.000Z</Time>
            <Position>
              <LatitudeDegrees>38.85188818909227848052978515625</LatitudeDegrees>
              <LongitudeDegrees>-8.16306534223258495330810546875</LongitudeDegrees>
            </Position>
            <AltitudeMeters>123.8000030517578125</AltitudeMeters>
            <DistanceMeters>139810.64802447</DistanceMeters>
          </Trackpoint>
          <Trackpoint>
            <Time>2018-09-13T15:32:07.000Z</Time>
            <Position>
              <LatitudeDegrees>38.851404972374439239501953125</LatitudeDegrees>
              <LongitudeDegrees>-8.163381256163120269775390625</LongitudeDegrees>
            </Position>
            <AltitudeMeters>120.59999847412109375</AltitudeMeters>
            <DistanceMeters>139871.00068701</DistanceMeters>
          </Trackpoint>
          <Trackpoint>
            <Time>2018-09-13T15:32:13.000Z</Time>
            <Position>
              <LatitudeDegrees>38.85102099739015102386474609375</LatitudeDegrees>
              <LongitudeDegrees>-8.16373136825859546661376953125</LongitudeDegrees>
            </Position>
            <AltitudeMeters>117.59999847412109375</AltitudeMeters>
            <DistanceMeters>139923.41668531</DistanceMeters>
          </Trackpoint>
          <Trackpoint>
            <Time>2018-09-13T15:32:16.000Z</Time>
            <Position>
              <LatitudeDegrees>38.85083424858748912811279296875</LatitudeDegrees>
              <LongitudeDegrees>-8.1639135070145130157470703125</LongitudeDegrees>
            </Position>
            <AltitudeMeters>116.8000030517578125</AltitudeMeters>
            <DistanceMeters>139949.51808657</DistanceMeters>
          </Trackpoint>
          <Trackpoint>
            <Time>2018-09-13T15:32:23.000Z</Time>
            <Position>
              <LatitudeDegrees>38.85039486922323703765869140625</LatitudeDegrees>
              <LongitudeDegrees>-8.1643332727253437042236328125</LongitudeDegrees>
            </Position>
            <AltitudeMeters>114.8000030517578125</AltitudeMeters>
            <DistanceMeters>140010.47281676</DistanceMeters>
          </Trackpoint>
          <Trackpoint>
            <Time>2018-09-13T15:32:28.000Z</Time>
            <Position>
              <LatitudeDegrees>38.85006420314311981201171875</LatitudeDegrees>
              <LongitudeDegrees>-8.16464114002883434295654296875</LongitudeDegrees>
            </Position>
            <AltitudeMeters>113.40000152587890625</AltitudeMeters>
            <DistanceMeters>140055.93334267</DistanceMeters>
          </Trackpoint>
          <Trackpoint>
            <Time>2018-09-13T15:32:31.000Z</Time>
            <Position>
              <LatitudeDegrees>38.84986613877117633819580078125</LatitudeDegrees>
              <LongitudeDegrees>-8.1648308224976062774658203125</LongitudeDegrees>
            </Position>
            <AltitudeMeters>112</AltitudeMeters>
            <DistanceMeters>140083.43434306</DistanceMeters>
          </Trackpoint>
          <Trackpoint>
            <Time>2018-09-13T15:32:35.000Z</Time>
            <Position>
              <LatitudeDegrees>38.8495926372706890106201171875</LatitudeDegrees>
              <LongitudeDegrees>-8.1651087664067745208740234375</LongitudeDegrees>
            </Position>
            <AltitudeMeters>110</AltitudeMeters>
            <DistanceMeters>140122.25598339</DistanceMeters>
          </Trackpoint>
          <Trackpoint>
            <Time>2018-09-13T15:32:40.000Z</Time>
            <Position>
              <LatitudeDegrees>38.84923003613948822021484375</LatitudeDegrees>
              <LongitudeDegrees>-8.165466003119945526123046875</LongitudeDegrees>
            </Position>
            <AltitudeMeters>109.40000152587890625</AltitudeMeters>
            <DistanceMeters>140173.125107</DistanceMeters>
          </Trackpoint>
          <Trackpoint>
            <Time>2018-09-13T15:32:43.000Z</Time>
            <Position>
              <LatitudeDegrees>38.84902484714984893798828125</LatitudeDegrees>
              <LongitudeDegrees>-8.1656666658818721771240234375</LongitudeDegrees>
            </Position>
            <AltitudeMeters>110</AltitudeMeters>
            <DistanceMeters>140201.83245565</DistanceMeters>
          </Trackpoint>
          <Trackpoint>
            <Time>2018-09-13T15:32:50.000Z</Time>
            <Position>
              <LatitudeDegrees>38.84861974976956844329833984375</LatitudeDegrees>
              <LongitudeDegrees>-8.16605684347450733184814453125</LongitudeDegrees>
            </Position>
            <AltitudeMeters>112.40000152587890625</AltitudeMeters>
            <DistanceMeters>140258.19587528</DistanceMeters>
          </Trackpoint>
          <Trackpoint>
            <Time>2018-09-13T15:32:56.000Z</Time>
            <Position>
              <LatitudeDegrees>38.84836770594120025634765625</LatitudeDegrees>
              <LongitudeDegrees>-8.16630813293159008026123046875</LongitudeDegrees>
            </Position>
            <AltitudeMeters>115</AltitudeMeters>
            <DistanceMeters>140293.71273746</DistanceMeters>
          </Trackpoint>
          <Trackpoint>
            <Time>2018-09-13T15:32:58.000Z</Time>
            <Position>
              <LatitudeDegrees>38.84829905815422534942626953125</LatitudeDegrees>
              <LongitudeDegrees>-8.16638692282140254974365234375</LongitudeDegrees>
            </Position>
            <AltitudeMeters>116</AltitudeMeters>
            <DistanceMeters>140303.96065379</DistanceMeters>
          </Trackpoint>
          <Trackpoint>
            <Time>2018-09-13T15:33:00.000Z</Time>
            <Position>
              <LatitudeDegrees>38.84823669679462909698486328125</LatitudeDegrees>
              <LongitudeDegrees>-8.1664605997502803802490234375</LongitudeDegrees>
            </Position>
            <AltitudeMeters>116.59999847412109375</AltitudeMeters>
            <DistanceMeters>140313.39274333</DistanceMeters>
          </Trackpoint>
          <Trackpoint>
            <Time>2018-09-13T15:33:01.000Z</Time>
            <Position>
              <LatitudeDegrees>38.84820819832384586334228515625</LatitudeDegrees>
              <LongitudeDegrees>-8.1664989888668060302734375</LongitudeDegrees>
            </Position>
            <AltitudeMeters>117</AltitudeMeters>
            <DistanceMeters>140317.98952251</DistanceMeters>
          </Trackpoint>
          <Trackpoint>
            <Time>2018-09-13T15:33:05.000Z</Time>
            <Position>
              <LatitudeDegrees>38.84809403680264949798583984375</LatitudeDegrees>
              <LongitudeDegrees>-8.16664558835327625274658203125</LongitudeDegrees>
            </Position>
            <AltitudeMeters>118.40000152587890625</AltitudeMeters>
            <DistanceMeters>140335.9598757</DistanceMeters>
          </Trackpoint>
          <Trackpoint>
            <Time>2018-09-13T15:33:07.000Z</Time>
            <Position>
              <LatitudeDegrees>38.8480416499078273773193359375</LatitudeDegrees>
              <LongitudeDegrees>-8.16672228276729583740234375</LongitudeDegrees>
            </Position>
            <AltitudeMeters>119.1999969482421875</AltitudeMeters>
            <DistanceMeters>140344.80297821</DistanceMeters>
          </Trackpoint>
          <Trackpoint>
            <Time>2018-09-13T15:33:10.000Z</Time>
            <Position>
              <LatitudeDegrees>38.84796344675123691558837890625</LatitudeDegrees>
              <LongitudeDegrees>-8.16683351062238216400146484375</LongitudeDegrees>
            </Position>
            <AltitudeMeters>120</AltitudeMeters>
            <DistanceMeters>140357.79212554</DistanceMeters>
          </Trackpoint>
          <Trackpoint>
            <Time>2018-09-13T15:33:15.000Z</Time>
            <Position>
              <LatitudeDegrees>38.8478367961943149566650390625</LatitudeDegrees>
              <LongitudeDegrees>-8.1670153141021728515625</LongitudeDegrees>
            </Position>
            <AltitudeMeters>121</AltitudeMeters>
            <DistanceMeters>140378.93594319</DistanceMeters>
          </Trackpoint>
          <Trackpoint>
            <Time>2018-09-13T15:33:17.000Z</Time>
            <Position>
              <LatitudeDegrees>38.8477863371372222900390625</LatitudeDegrees>
              <LongitudeDegrees>-8.16708496771752834320068359375</LongitudeDegrees>
            </Position>
            <AltitudeMeters>121.40000152587890625</AltitudeMeters>
            <DistanceMeters>140387.18139318</DistanceMeters>
          </Trackpoint>
          <Trackpoint>
            <Time>2018-09-13T15:33:22.000Z</Time>
            <Position>
              <LatitudeDegrees>38.84765918366611003875732421875</LatitudeDegrees>
              <LongitudeDegrees>-8.16726283170282840728759765625</LongitudeDegrees>
            </Position>
            <AltitudeMeters>122</AltitudeMeters>
            <DistanceMeters>140408.10971914</DistanceMeters>
          </Trackpoint>
          <Trackpoint>
            <Time>2018-09-13T15:33:28.000Z</Time>
            <Position>
              <LatitudeDegrees>38.84749188087880611419677734375</LatitudeDegrees>
              <LongitudeDegrees>-8.167500458657741546630859375</LongitudeDegrees>
            </Position>
            <AltitudeMeters>121.8000030517578125</AltitudeMeters>
            <DistanceMeters>140435.87736412</DistanceMeters>
          </Trackpoint>
          <Trackpoint>
            <Time>2018-09-13T15:33:33.000Z</Time>
            <Position>
              <LatitudeDegrees>38.84735324420034885406494140625</LatitudeDegrees>
              <LongitudeDegrees>-8.1677121855318546295166015625</LongitudeDegrees>
            </Position>
            <AltitudeMeters>121.8000030517578125</AltitudeMeters>
            <DistanceMeters>140459.85537419</DistanceMeters>
          </Trackpoint>
          <Trackpoint>
            <Time>2018-09-13T15:33:44.000Z</Time>
            <Position>
              <LatitudeDegrees>38.84698762558400630950927734375</LatitudeDegrees>
              <LongitudeDegrees>-8.16822892986238002777099609375</LongitudeDegrees>
            </Position>
            <AltitudeMeters>121</AltitudeMeters>
            <DistanceMeters>140520.37381448</DistanceMeters>
          </Trackpoint>
          <Trackpoint>
            <Time>2018-09-13T15:33:47.000Z</Time>
            <Position>
              <LatitudeDegrees>38.8468866236507892608642578125</LatitudeDegrees>
              <LongitudeDegrees>-8.16837443970143795013427734375</LongitudeDegrees>
            </Position>
            <AltitudeMeters>121</AltitudeMeters>
            <DistanceMeters>140537.26987428</DistanceMeters>
          </Trackpoint>
          <Trackpoint>
            <Time>2018-09-13T15:33:56.000Z</Time>
            <Position>
              <LatitudeDegrees>38.8465712964534759521484375</LatitudeDegrees>
              <LongitudeDegrees>-8.16883142106235027313232421875</LongitudeDegrees>
            </Position>
            <AltitudeMeters>122.8000030517578125</AltitudeMeters>
            <DistanceMeters>140590.19420924</DistanceMeters>
          </Trackpoint>
          <Trackpoint>
            <Time>2018-09-13T15:34:08.000Z</Time>
            <Position>
              <LatitudeDegrees>38.84620048105716705322265625</LatitudeDegrees>
              <LongitudeDegrees>-8.1693734787404537200927734375</LongitudeDegrees>
            </Position>
            <AltitudeMeters>125.40000152587890625</AltitudeMeters>
            <DistanceMeters>140652.73492791</DistanceMeters>
          </Trackpoint>
          <Trackpoint>
            <Time>2018-09-13T15:34:10.000Z</Time>
            <Position>
              <LatitudeDegrees>38.84614675305783748626708984375</LatitudeDegrees>
              <LongitudeDegrees>-8.1694542802870273590087890625</LongitudeDegrees>
            </Position>
            <AltitudeMeters>125.59999847412109375</AltitudeMeters>
            <DistanceMeters>140661.94467861</DistanceMeters>
          </Trackpoint>
          <Trackpoint>
            <Time>2018-09-13T15:34:16.000Z</Time>
            <Position>
              <LatitudeDegrees>38.84598364122211933135986328125</LatitudeDegrees>
              <LongitudeDegrees>-8.16968503408133983612060546875</LongitudeDegrees>
            </Position>
            <AltitudeMeters>126.8000030517578125</AltitudeMeters>
            <DistanceMeters>140688.95801749</DistanceMeters>
          </Trackpoint>
          <Trackpoint>
            <Time>2018-09-13T15:34:21.000Z</Time>
            <Position>
              <LatitudeDegrees>38.8458645343780517578125</LatitudeDegrees>
              <LongitudeDegrees>-8.16985770128667354583740234375</LongitudeDegrees>
            </Position>
            <AltitudeMeters>127.8000030517578125</AltitudeMeters>
            <DistanceMeters>140708.95250534</DistanceMeters>
          </Trackpoint>
          <Trackpoint>
            <Time>2018-09-13T15:34:27.000Z</Time>
            <Position>
              <LatitudeDegrees>38.8457289151847362518310546875</LatitudeDegrees>
              <LongitudeDegrees>-8.17005484364926815032958984375</LongitudeDegrees>
            </Position>
            <AltitudeMeters>129</AltitudeMeters>
            <DistanceMeters>140731.75376893</DistanceMeters>
          </Trackpoint>
          <Trackpoint>
            <Time>2018-09-13T15:34:32.000Z</Time>
            <Position>
              <LatitudeDegrees>38.84561953134834766387939453125</LatitudeDegrees>
              <LongitudeDegrees>-8.1702140159904956817626953125</LongitudeDegrees>
            </Position>
            <AltitudeMeters>129.600006103515625</AltitudeMeters>
            <DistanceMeters>140750.15512232</DistanceMeters>
          </Trackpoint>
          <Trackpoint>
            <Time>2018-09-13T15:34:33.000Z</Time>
            <Position>
              <LatitudeDegrees>38.84559706784784793853759765625</LatitudeDegrees>
              <LongitudeDegrees>-8.17024393938481807708740234375</LongitudeDegrees>
            </Position>
            <AltitudeMeters>129.600006103515625</AltitudeMeters>
            <DistanceMeters>140753.75737437</DistanceMeters>
          </Trackpoint>
          <Trackpoint>
            <Time>2018-09-13T15:34:36.000Z</Time>
            <Position>
              <LatitudeDegrees>38.84553152136504650115966796875</LatitudeDegrees>
              <LongitudeDegrees>-8.17033127881586551666259765625</LongitudeDegrees>
            </Position>
            <AltitudeMeters>129.8000030517578125</AltitudeMeters>
            <DistanceMeters>140764.27146947</DistanceMeters>
          </Trackpoint>
          <Trackpoint>
            <Time>2018-09-13T15:34:42.000Z</Time>
            <Position>
              <LatitudeDegrees>38.84539204649627208709716796875</LatitudeDegrees>
              <LongitudeDegrees>-8.17052590660750865936279296875</LongitudeDegrees>
            </Position>
            <AltitudeMeters>130.399993896484375</AltitudeMeters>
            <DistanceMeters>140787.19871985</DistanceMeters>
          </Trackpoint>
          <Trackpoint>
            <Time>2018-09-13T15:34:48.000Z</Time>
            <Position>
              <LatitudeDegrees>38.8452132605016231536865234375</LatitudeDegrees>
              <LongitudeDegrees>-8.17074827849864959716796875</LongitudeDegrees>
            </Position>
            <AltitudeMeters>131</AltitudeMeters>
            <DistanceMeters>140814.9038558</DistanceMeters>
          </Trackpoint>
          <Trackpoint>
            <Time>2018-09-13T15:34:58.000Z</Time>
            <Position>
              <LatitudeDegrees>38.84487002156674861907958984375</LatitudeDegrees>
              <LongitudeDegrees>-8.171168379485607147216796875</LongitudeDegrees>
            </Position>
            <AltitudeMeters>132</AltitudeMeters>
            <DistanceMeters>140867.68364684</DistanceMeters>
          </Trackpoint>
          <Trackpoint>
            <Time>2018-09-13T15:35:08.000Z</Time>
            <Position>
              <LatitudeDegrees>38.84450758807361125946044921875</LatitudeDegrees>
              <LongitudeDegrees>-8.17159510217607021331787109375</LongitudeDegrees>
            </Position>
            <AltitudeMeters>132.8000030517578125</AltitudeMeters>
            <DistanceMeters>140922.41622964</DistanceMeters>
          </Trackpoint>
          <Trackpoint>
            <Time>2018-09-13T15:35:16.000Z</Time>
            <Position>
              <LatitudeDegrees>38.84421103633940219879150390625</LatitudeDegrees>
              <LongitudeDegrees>-8.1719587929546833038330078125</LongitudeDegrees>
            </Position>
            <AltitudeMeters>133.399993896484375</AltitudeMeters>
            <DistanceMeters>140968.06091495</DistanceMeters>
          </Trackpoint>
          <Trackpoint>
            <Time>2018-09-13T15:35:27.000Z</Time>
            <Position>
              <LatitudeDegrees>38.8437893427908420562744140625</LatitudeDegrees>
              <LongitudeDegrees>-8.17246883176267147064208984375</LongitudeDegrees>
            </Position>
            <AltitudeMeters>134</AltitudeMeters>
            <DistanceMeters>141032.54219509</DistanceMeters>
          </Trackpoint>
          <Trackpoint>
            <Time>2018-09-13T15:35:28.000Z</Time>
            <Position>
              <LatitudeDegrees>38.843750618398189544677734375</LatitudeDegrees>
              <LongitudeDegrees>-8.1725160218775272369384765625</LongitudeDegrees>
            </Position>
            <AltitudeMeters>134</AltitudeMeters>
            <DistanceMeters>141038.48421486</DistanceMeters>
          </Trackpoint>
          <Trackpoint>
            <Time>2018-09-13T15:35:38.000Z</Time>
            <Position>
              <LatitudeDegrees>38.8433541543781757354736328125</LatitudeDegrees>
              <LongitudeDegrees>-8.17299731075763702392578125</LongitudeDegrees>
            </Position>
            <AltitudeMeters>134.600006103515625</AltitudeMeters>
            <DistanceMeters>141099.21290264</DistanceMeters>
          </Trackpoint>
          <Trackpoint>
            <Time>2018-09-13T15:35:48.000Z</Time>
            <Position>
              <LatitudeDegrees>38.84292977862060070037841796875</LatitudeDegrees>
              <LongitudeDegrees>-8.17350558936595916748046875</LongitudeDegrees>
            </Position>
            <AltitudeMeters>135.1999969482421875</AltitudeMeters>
            <DistanceMeters>141163.80814614</DistanceMeters>
          </Trackpoint>
          <Trackpoint>
            <Time>2018-09-13T15:35:58.000Z</Time>
            <Position>
              <LatitudeDegrees>38.8425256870687007904052734375</LatitudeDegrees>
              <LongitudeDegrees>-8.17400674335658550262451171875</LongitudeDegrees>
            </Position>
            <AltitudeMeters>137.1999969482421875</AltitudeMeters>
            <DistanceMeters>141226.34077861</DistanceMeters>
          </Trackpoint>
          <Trackpoint>
            <Time>2018-09-13T15:36:03.000Z</Time>
            <Position>
              <LatitudeDegrees>38.8423483259975910186767578125</LatitudeDegrees>
              <LongitudeDegrees>-8.17421914078295230865478515625</LongitudeDegrees>
            </Position>
            <AltitudeMeters>138.1999969482421875</AltitudeMeters>
            <DistanceMeters>141253.33572571</DistanceMeters>
          </Trackpoint>
          <Trackpoint>
            <Time>2018-09-13T15:36:06.000Z</Time>
            <Position>
              <LatitudeDegrees>38.84226559661328792572021484375</LatitudeDegrees>
              <LongitudeDegrees>-8.1743372417986392974853515625</LongitudeDegrees>
            </Position>
            <AltitudeMeters>138.8000030517578125</AltitudeMeters>
            <DistanceMeters>141267.10542124</DistanceMeters>
          </Trackpoint>
          <Trackpoint>
            <Time>2018-09-13T15:36:10.000Z</Time>
            <Position>
              <LatitudeDegrees>38.84215034544467926025390625</LatitudeDegrees>
              <LongitudeDegrees>-8.17447428591549396514892578125</LongitudeDegrees>
            </Position>
            <AltitudeMeters>140</AltitudeMeters>
            <DistanceMeters>141284.58930376</DistanceMeters>
          </Trackpoint>
          <Trackpoint>
            <Time>2018-09-13T15:36:16.000Z</Time>
            <Position>
              <LatitudeDegrees>38.84197910316288471221923828125</LatitudeDegrees>
              <LongitudeDegrees>-8.17468098364770412445068359375</LongitudeDegrees>
            </Position>
            <AltitudeMeters>141.600006103515625</AltitudeMeters>
            <DistanceMeters>141310.74945233</DistanceMeters>
          </Trackpoint>
          <Trackpoint>
            <Time>2018-09-13T15:36:22.000Z</Time>
            <Position>
              <LatitudeDegrees>38.84180710650980472564697265625</LatitudeDegrees>
              <LongitudeDegrees>-8.17489136941730976104736328125</LongitudeDegrees>
            </Position>
            <AltitudeMeters>142.399993896484375</AltitudeMeters>
            <DistanceMeters>141337.19045417</DistanceMeters>
          </Trackpoint>
          <Trackpoint>
            <Time>2018-09-13T15:36:24.000Z</Time>
            <Position>
              <LatitudeDegrees>38.841751702129840850830078125</LatitudeDegrees>
              <LongitudeDegrees>-8.17496110685169696807861328125</LongitudeDegrees>
            </Position>
            <AltitudeMeters>142.399993896484375</AltitudeMeters>
            <DistanceMeters>141345.82639079</DistanceMeters>
          </Trackpoint>
          <Trackpoint>
            <Time>2018-09-13T15:36:29.000Z</Time>
            <Position>
              <LatitudeDegrees>38.841605521738529205322265625</LatitudeDegrees>
              <LongitudeDegrees>-8.17511935718357563018798828125</LongitudeDegrees>
            </Position>
            <AltitudeMeters>142.399993896484375</AltitudeMeters>
            <DistanceMeters>141367.10834428</DistanceMeters>
          </Trackpoint>
          <Trackpoint>
            <Time>2018-09-13T15:36:34.000Z</Time>
            <Position>
              <LatitudeDegrees>38.8414531387388706207275390625</LatitudeDegrees>
              <LongitudeDegrees>-8.17527224309742450714111328125</LongitudeDegrees>
            </Position>
            <AltitudeMeters>141.8000030517578125</AltitudeMeters>
            <DistanceMeters>141388.63310124</DistanceMeters>
          </Trackpoint>
          <Trackpoint>
            <Time>2018-09-13T15:36:39.000Z</Time>
            <Position>
              <LatitudeDegrees>38.84127737022936344146728515625</LatitudeDegrees>
              <LongitudeDegrees>-8.17543677985668182373046875</LongitudeDegrees>
            </Position>
            <AltitudeMeters>141.1999969482421875</AltitudeMeters>
            <DistanceMeters>141412.84422229</DistanceMeters>
          </Trackpoint>
          <Trackpoint>
            <Time>2018-09-13T15:36:49.000Z</Time>
            <Position>
              <LatitudeDegrees>38.8408125936985015869140625</LatitudeDegrees>
              <LongitudeDegrees>-8.17576576955616474151611328125</LongitudeDegrees>
            </Position>
            <AltitudeMeters>139.600006103515625</AltitudeMeters>
            <DistanceMeters>141471.91599541</DistanceMeters>
          </Trackpoint>
          <Trackpoint>
            <Time>2018-09-13T15:36:53.000Z</Time>
            <Position>
              <LatitudeDegrees>38.8405834324657917022705078125</LatitudeDegrees>
              <LongitudeDegrees>-8.175913207232952117919921875</LongitudeDegrees>
            </Position>
            <AltitudeMeters>138.600006103515625</AltitudeMeters>
            <DistanceMeters>141500.44554098</DistanceMeters>
          </Trackpoint>
          <Trackpoint>
            <Time>2018-09-13T15:36:54.000Z</Time>
            <Position>
              <LatitudeDegrees>38.84052400477230548858642578125</LatitudeDegrees>
              <LongitudeDegrees>-8.17595385946333408355712890625</LongitudeDegrees>
            </Position>
            <AltitudeMeters>138.399993896484375</AltitudeMeters>
            <DistanceMeters>141507.94001064</DistanceMeters>
          </Trackpoint>
          <Trackpoint>
            <Time>2018-09-13T15:36:56.000Z</Time>
            <Position>
              <LatitudeDegrees>38.8404010422527790069580078125</LatitudeDegrees>
              <LongitudeDegrees>-8.1760401092469692230224609375</LongitudeDegrees>
            </Position>
            <AltitudeMeters>137.8000030517578125</AltitudeMeters>
            <DistanceMeters>141523.5353971</DistanceMeters>
          </Trackpoint>
          <Trackpoint>
            <Time>2018-09-13T15:36:58.000Z</Time>
            <Position>
              <LatitudeDegrees>38.840271122753620147705078125</LatitudeDegrees>
              <LongitudeDegrees>-8.176127783954143524169921875</LongitudeDegrees>
            </Position>
            <AltitudeMeters>137.399993896484375</AltitudeMeters>
            <DistanceMeters>141539.87114989</DistanceMeters>
          </Trackpoint>
          <Trackpoint>
            <Time>2018-09-13T15:37:01.000Z</Time>
            <Position>
              <LatitudeDegrees>38.84007205255329608917236328125</LatitudeDegrees>
              <LongitudeDegrees>-8.17627119831740856170654296875</LongitudeDegrees>
            </Position>
            <AltitudeMeters>137</AltitudeMeters>
            <DistanceMeters>141565.2779597</DistanceMeters>
          </Trackpoint>
          <Trackpoint>
            <Time>2018-09-13T15:37:04.000Z</Time>
            <Position>
              <LatitudeDegrees>38.8398692943155765533447265625</LatitudeDegrees>
              <LongitudeDegrees>-8.17641084082424640655517578125</LongitudeDegrees>
            </Position>
            <AltitudeMeters>136.8000030517578125</AltitudeMeters>
            <DistanceMeters>141590.88761514</DistanceMeters>
          </Trackpoint>
          <Trackpoint>
            <Time>2018-09-13T15:37:08.000Z</Time>
            <Position>
              <LatitudeDegrees>38.83961641229689121246337890625</LatitudeDegrees>
              <LongitudeDegrees>-8.176577389240264892578125</LongitudeDegrees>
            </Position>
            <AltitudeMeters>136.399993896484375</AltitudeMeters>
            <DistanceMeters>141622.52137893</DistanceMeters>
          </Trackpoint>
          <Trackpoint>
            <Time>2018-09-13T15:37:16.000Z</Time>
            <Position>
              <LatitudeDegrees>38.83909774012863636016845703125</LatitudeDegrees>
              <LongitudeDegrees>-8.17694677971303462982177734375</LongitudeDegrees>
            </Position>
            <AltitudeMeters>135.8000030517578125</AltitudeMeters>
            <DistanceMeters>141688.53800429</DistanceMeters>
          </Trackpoint>
          <Trackpoint>
            <Time>2018-09-13T15:37:23.000Z</Time>
            <Position>
              <LatitudeDegrees>38.83861293084919452667236328125</LatitudeDegrees>
              <LongitudeDegrees>-8.17727266810834407806396484375</LongitudeDegrees>
            </Position>
            <AltitudeMeters>135.399993896484375</AltitudeMeters>
            <DistanceMeters>141749.44723731</DistanceMeters>
          </Trackpoint>
          <Trackpoint>
            <Time>2018-09-13T15:37:31.000Z</Time>
            <Position>
              <LatitudeDegrees>38.83807606995105743408203125</LatitudeDegrees>
              <LongitudeDegrees>-8.1776283122599124908447265625</LongitudeDegrees>
            </Position>
            <AltitudeMeters>134.399993896484375</AltitudeMeters>
            <DistanceMeters>141816.68681355</DistanceMeters>
          </Trackpoint>
          <Trackpoint>
            <Time>2018-09-13T15:37:38.000Z</Time>
            <Position>
              <LatitudeDegrees>38.8375984691083431243896484375</LatitudeDegrees>
              <LongitudeDegrees>-8.17795545794069766998291015625</LongitudeDegrees>
            </Position>
            <AltitudeMeters>133</AltitudeMeters>
            <DistanceMeters>141876.93772227</DistanceMeters>
          </Trackpoint>
          <Trackpoint>
            <Time>2018-09-13T15:37:43.000Z</Time>
            <Position>
              <LatitudeDegrees>38.8372561521828174591064453125</LatitudeDegrees>
              <LongitudeDegrees>-8.1781821884214878082275390625</LongitudeDegrees>
            </Position>
            <AltitudeMeters>133</AltitudeMeters>
            <DistanceMeters>141919.81004364</DistanceMeters>
          </Trackpoint>
          <Trackpoint>
            <Time>2018-09-13T15:37:50.000Z</Time>
            <Position>
              <LatitudeDegrees>38.83678416721522808074951171875</LatitudeDegrees>
              <LongitudeDegrees>-8.1785221584141254425048828125</LongitudeDegrees>
            </Position>
            <AltitudeMeters>133</AltitudeMeters>
            <DistanceMeters>141980.04663764</DistanceMeters>
          </Trackpoint>
          <Trackpoint>
            <Time>2018-09-13T15:37:58.000Z</Time>
            <Position>
              <LatitudeDegrees>38.83629851974546909332275390625</LatitudeDegrees>
              <LongitudeDegrees>-8.17899699322879314422607421875</LongitudeDegrees>
            </Position>
            <AltitudeMeters>133</AltitudeMeters>
            <DistanceMeters>142047.99146939</DistanceMeters>
          </Trackpoint>
          <Trackpoint>
            <Time>2018-09-13T15:38:06.000Z</Time>
            <Position>
              <LatitudeDegrees>38.835842125117778778076171875</LatitudeDegrees>
              <LongitudeDegrees>-8.179508037865161895751953125</LongitudeDegrees>
            </Position>
            <AltitudeMeters>132.1999969482421875</AltitudeMeters>
            <DistanceMeters>142115.39669843</DistanceMeters>
          </Trackpoint>
          <Trackpoint>
            <Time>2018-09-13T15:38:10.000Z</Time>
            <Position>
              <LatitudeDegrees>38.83560114540159702301025390625</LatitudeDegrees>
              <LongitudeDegrees>-8.17977382801473140716552734375</LongitudeDegrees>
            </Position>
            <AltitudeMeters>131.399993896484375</AltitudeMeters>
            <DistanceMeters>142150.75761874</DistanceMeters>
          </Trackpoint>
          <Trackpoint>
            <Time>2018-09-13T15:38:12.000Z</Time>
            <Position>
              <LatitudeDegrees>38.83547223173081874847412109375</LatitudeDegrees>
              <LongitudeDegrees>-8.17991799674928188323974609375</LongitudeDegrees>
            </Position>
            <AltitudeMeters>130.8000030517578125</AltitudeMeters>
            <DistanceMeters>142169.78670347</DistanceMeters>
          </Trackpoint>
          <Trackpoint>
            <Time>2018-09-13T15:38:15.000Z</Time>
            <Position>
              <LatitudeDegrees>38.8352684676647186279296875</LatitudeDegrees>
              <LongitudeDegrees>-8.1801459006965160369873046875</LongitudeDegrees>
            </Position>
            <AltitudeMeters>130</AltitudeMeters>
            <DistanceMeters>142199.86622373</DistanceMeters>
          </Trackpoint>
          <Trackpoint>
            <Time>2018-09-13T15:38:17.000Z</Time>
            <Position>
              <LatitudeDegrees>38.835125975310802459716796875</LatitudeDegrees>
              <LongitudeDegrees>-8.1803031452000141143798828125</LongitudeDegrees>
            </Position>
            <AltitudeMeters>128.8000030517578125</AltitudeMeters>
            <DistanceMeters>142220.78030614</DistanceMeters>
          </Trackpoint>
          <Trackpoint>
            <Time>2018-09-13T15:38:19.000Z</Time>
            <Position>
              <LatitudeDegrees>38.83497753180563449859619140625</LatitudeDegrees>
              <LongitudeDegrees>-8.1804627366364002227783203125</LongitudeDegrees>
            </Position>
            <AltitudeMeters>127.8000030517578125</AltitudeMeters>
            <DistanceMeters>142242.33084816</DistanceMeters>
          </Trackpoint>
          <Trackpoint>
            <Time>2018-09-13T15:38:21.000Z</Time>
            <Position>
              <LatitudeDegrees>38.83482514880597591400146484375</LatitudeDegrees>
              <LongitudeDegrees>-8.18062408827245235443115234375</LongitudeDegrees>
            </Position>
            <AltitudeMeters>126.59999847412109375</AltitudeMeters>
            <DistanceMeters>142264.3159311</DistanceMeters>
          </Trackpoint>
          <Trackpoint>
            <Time>2018-09-13T15:38:23.000Z</Time>
            <Position>
              <LatitudeDegrees>38.83466840721666812896728515625</LatitudeDegrees>
              <LongitudeDegrees>-8.1807876192033290863037109375</LongitudeDegrees>
            </Position>
            <AltitudeMeters>125.40000152587890625</AltitudeMeters>
            <DistanceMeters>142286.79632763</DistanceMeters>
          </Trackpoint>
          <Trackpoint>
            <Time>2018-09-13T15:38:25.000Z</Time>
            <Position>
              <LatitudeDegrees>38.83450604975223541259765625</LatitudeDegrees>
              <LongitudeDegrees>-8.1809522397816181182861328125</LongitudeDegrees>
            </Position>
            <AltitudeMeters>124.1999969482421875</AltitudeMeters>
            <DistanceMeters>142309.82379273</DistanceMeters>
          </Trackpoint>
          <Trackpoint>
            <Time>2018-09-13T15:38:27.000Z</Time>
            <Position>
              <LatitudeDegrees>38.834335394203662872314453125</LatitudeDegrees>
              <LongitudeDegrees>-8.181114010512828826904296875</LongitudeDegrees>
            </Position>
            <AltitudeMeters>123</AltitudeMeters>
            <DistanceMeters>142333.43520648</DistanceMeters>
          </Trackpoint>
          <Trackpoint>
            <Time>2018-09-13T15:38:29.000Z</Time>
            <Position>
              <LatitudeDegrees>38.8341588713228702545166015625</LatitudeDegrees>
              <LongitudeDegrees>-8.18127469159662723541259765625</LongitudeDegrees>
            </Position>
            <AltitudeMeters>121.1999969482421875</AltitudeMeters>
            <DistanceMeters>142357.52030791</DistanceMeters>
          </Trackpoint>
          <Trackpoint>
            <Time>2018-09-13T15:38:31.000Z</Time>
            <Position>
              <LatitudeDegrees>38.83398159407079219818115234375</LatitudeDegrees>
              <LongitudeDegrees>-8.1814427487552165985107421875</LongitudeDegrees>
            </Position>
            <AltitudeMeters>119.1999969482421875</AltitudeMeters>
            <DistanceMeters>142382.04843142</DistanceMeters>
          </Trackpoint>
          <Trackpoint>
            <Time>2018-09-13T15:38:35.000Z</Time>
            <Position>
              <LatitudeDegrees>38.8336106948554515838623046875</LatitudeDegrees>
              <LongitudeDegrees>-8.18178154528141021728515625</LongitudeDegrees>
            </Position>
            <AltitudeMeters>115.40000152587890625</AltitudeMeters>
            <DistanceMeters>142432.714159</DistanceMeters>
          </Trackpoint>
          <Trackpoint>
            <Time>2018-09-13T15:38:37.000Z</Time>
            <Position>
              <LatitudeDegrees>38.83342218585312366485595703125</LatitudeDegrees>
              <LongitudeDegrees>-8.181941471993923187255859375</LongitudeDegrees>
            </Position>
            <AltitudeMeters>116</AltitudeMeters>
            <DistanceMeters>142457.8634058</DistanceMeters>
          </Trackpoint>
          <Trackpoint>
            <Time>2018-09-13T15:38:40.000Z</Time>
            <Position>
              <LatitudeDegrees>38.833158910274505615234375</LatitudeDegrees>
              <LongitudeDegrees>-8.18217775784432888031005859375</LongitudeDegrees>
            </Position>
            <AltitudeMeters>117.8000030517578125</AltitudeMeters>
            <DistanceMeters>142493.61757803</DistanceMeters>
          </Trackpoint>
          <Trackpoint>
            <Time>2018-09-13T15:38:42.000Z</Time>
            <Position>
              <LatitudeDegrees>38.83299705572426319122314453125</LatitudeDegrees>
              <LongitudeDegrees>-8.18232712335884571075439453125</LongitudeDegrees>
            </Position>
            <AltitudeMeters>119</AltitudeMeters>
            <DistanceMeters>142515.80423003</DistanceMeters>
          </Trackpoint>
          <Trackpoint>
            <Time>2018-09-13T15:38:45.000Z</Time>
            <Position>
              <LatitudeDegrees>38.83278029970824718475341796875</LatitudeDegrees>
              <LongitudeDegrees>-8.1825193203985691070556640625</LongitudeDegrees>
            </Position>
            <AltitudeMeters>120.1999969482421875</AltitudeMeters>
            <DistanceMeters>142545.12516893</DistanceMeters>
          </Trackpoint>
          <Trackpoint>
            <Time>2018-09-13T15:38:47.000Z</Time>
            <Position>
              <LatitudeDegrees>38.832660019397735595703125</LatitudeDegrees>
              <LongitudeDegrees>-8.18262937478721141815185546875</LongitudeDegrees>
            </Position>
            <AltitudeMeters>121</AltitudeMeters>
            <DistanceMeters>142561.56533979</DistanceMeters>
          </Trackpoint>
          <Trackpoint>
            <Time>2018-09-13T15:38:49.000Z</Time>
            <Position>
              <LatitudeDegrees>38.83255449123680591583251953125</LatitudeDegrees>
              <LongitudeDegrees>-8.18273414857685565948486328125</LongitudeDegrees>
            </Position>
            <AltitudeMeters>121.59999847412109375</AltitudeMeters>
            <DistanceMeters>142576.41415714</DistanceMeters>
          </Trackpoint>
          <Trackpoint>
            <Time>2018-09-13T15:38:51.000Z</Time>
            <Position>
              <LatitudeDegrees>38.83245357312262058258056640625</LatitudeDegrees>
              <LongitudeDegrees>-8.1828307919204235076904296875</LongitudeDegrees>
            </Position>
            <AltitudeMeters>122</AltitudeMeters>
            <DistanceMeters>142590.42793973</DistanceMeters>
          </Trackpoint>
          <Trackpoint>
            <Time>2018-09-13T15:38:53.000Z</Time>
            <Position>
              <LatitudeDegrees>38.83235625922679901123046875</LatitudeDegrees>
              <LongitudeDegrees>-8.1829226575791835784912109375</LongitudeDegrees>
            </Position>
            <AltitudeMeters>122.40000152587890625</AltitudeMeters>
            <DistanceMeters>142603.87279266</DistanceMeters>
          </Trackpoint>
          <Trackpoint>
            <Time>2018-09-13T15:38:55.000Z</Time>
            <Position>
              <LatitudeDegrees>38.83226229809224605560302734375</LatitudeDegrees>
              <LongitudeDegrees>-8.18300857208669185638427734375</LongitudeDegrees>
            </Position>
            <AltitudeMeters>122.8000030517578125</AltitudeMeters>
            <DistanceMeters>142616.71265658</DistanceMeters>
          </Trackpoint>
          <Trackpoint>
            <Time>2018-09-13T15:38:57.000Z</Time>
            <Position>
              <LatitudeDegrees>38.83217110298573970794677734375</LatitudeDegrees>
              <LongitudeDegrees>-8.1830919720232486724853515625</LongitudeDegrees>
            </Position>
            <AltitudeMeters>123.1999969482421875</AltitudeMeters>
            <DistanceMeters>142629.17529334</DistanceMeters>
          </Trackpoint>
          <Trackpoint>
            <Time>2018-09-13T15:38:59.000Z</Time>
            <Position>
              <LatitudeDegrees>38.83208041079342365264892578125</LatitudeDegrees>
              <LongitudeDegrees>-8.18317553959786891937255859375</LongitudeDegrees>
            </Position>
            <AltitudeMeters>123.59999847412109375</AltitudeMeters>
            <DistanceMeters>142641.60128533</DistanceMeters>
          </Trackpoint>
          <Trackpoint>
            <Time>2018-09-13T15:39:03.000Z</Time>
            <Position>
              <LatitudeDegrees>38.8318947516381740570068359375</LatitudeDegrees>
              <LongitudeDegrees>-8.18334502167999744415283203125</LongitudeDegrees>
            </Position>
            <AltitudeMeters>124.59999847412109375</AltitudeMeters>
            <DistanceMeters>142666.95757534</DistanceMeters>
          </Trackpoint>
          <Trackpoint>
            <Time>2018-09-13T15:39:07.000Z</Time>
            <Position>
              <LatitudeDegrees>38.83170758374035358428955078125</LatitudeDegrees>
              <LongitudeDegrees>-8.18352053873240947723388671875</LongitudeDegrees>
            </Position>
            <AltitudeMeters>124.8000030517578125</AltitudeMeters>
            <DistanceMeters>142692.75605949</DistanceMeters>
          </Trackpoint>
          <Trackpoint>
            <Time>2018-09-13T15:39:08.000Z</Time>
            <Position>
              <LatitudeDegrees>38.8316613994538784027099609375</LatitudeDegrees>
              <LongitudeDegrees>-8.1835650466382503509521484375</LongitudeDegrees>
            </Position>
            <AltitudeMeters>125</AltitudeMeters>
            <DistanceMeters>142699.18424973</DistanceMeters>
          </Trackpoint>
          <Trackpoint>
            <Time>2018-09-13T15:39:12.000Z</Time>
            <Position>
              <LatitudeDegrees>38.8314716331660747528076171875</LatitudeDegrees>
              <LongitudeDegrees>-8.18373763002455234527587890625</LongitudeDegrees>
            </Position>
            <AltitudeMeters>125.40000152587890625</AltitudeMeters>
            <DistanceMeters>142725.06921973</DistanceMeters>
          </Trackpoint>
          <Trackpoint>
            <Time>2018-09-13T15:39:15.000Z</Time>
            <Position>
              <LatitudeDegrees>38.831331990659236907958984375</LatitudeDegrees>
              <LongitudeDegrees>-8.18386503495275974273681640625</LongitudeDegrees>
            </Position>
            <AltitudeMeters>125.8000030517578125</AltitudeMeters>
            <DistanceMeters>142744.1371771</DistanceMeters>
          </Trackpoint>
          <Trackpoint>
            <Time>2018-09-13T15:39:21.000Z</Time>
            <Position>
              <LatitudeDegrees>38.831081204116344451904296875</LatitudeDegrees>
              <LongitudeDegrees>-8.18409092724323272705078125</LongitudeDegrees>
            </Position>
            <AltitudeMeters>126.59999847412109375</AltitudeMeters>
            <DistanceMeters>142778.23601436</DistanceMeters>
          </Trackpoint>
          <Trackpoint>
            <Time>2018-09-13T15:39:26.000Z</Time>
            <Position>
              <LatitudeDegrees>38.83089604787528514862060546875</LatitudeDegrees>
              <LongitudeDegrees>-8.1842909194529056549072265625</LongitudeDegrees>
            </Position>
            <AltitudeMeters>127.1999969482421875</AltitudeMeters>
            <DistanceMeters>142805.16900604</DistanceMeters>
          </Trackpoint>
          <Trackpoint>
            <Time>2018-09-13T15:39:30.000Z</Time>
            <Position>
              <LatitudeDegrees>38.8307551480829715728759765625</LatitudeDegrees>
              <LongitudeDegrees>-8.18447389639914035797119140625</LongitudeDegrees>
            </Position>
            <AltitudeMeters>126.59999847412109375</AltitudeMeters>
            <DistanceMeters>142827.47681819</DistanceMeters>
          </Trackpoint>
          <Trackpoint>
            <Time>2018-09-13T15:39:40.000Z</Time>
            <Position>
              <LatitudeDegrees>38.83038860745728015899658203125</LatitudeDegrees>
              <LongitudeDegrees>-8.18502207286655902862548828125</LongitudeDegrees>
            </Position>
            <AltitudeMeters>124.8000030517578125</AltitudeMeters>
            <DistanceMeters>142890.11405738</DistanceMeters>
          </Trackpoint>
          <Trackpoint>
            <Time>2018-09-13T15:39:45.000Z</Time>
            <Position>
              <LatitudeDegrees>38.83017939515411853790283203125</LatitudeDegrees>
              <LongitudeDegrees>-8.18535382859408855438232421875</LongitudeDegrees>
            </Position>
            <AltitudeMeters>123.59999847412109375</AltitudeMeters>
            <DistanceMeters>142927.12278439</DistanceMeters>
          </Trackpoint>
          <Trackpoint>
            <Time>2018-09-13T15:39:48.000Z</Time>
            <Position>
              <LatitudeDegrees>38.83004712872207164764404296875</LatitudeDegrees>
              <LongitudeDegrees>-8.18555717356503009796142578125</LongitudeDegrees>
            </Position>
            <AltitudeMeters>122.59999847412109375</AltitudeMeters>
            <DistanceMeters>142950.09174575</DistanceMeters>
          </Trackpoint>
          <Trackpoint>
            <Time>2018-09-13T15:39:49.000Z</Time>
            <Position>
              <LatitudeDegrees>38.83000287227332592010498046875</LatitudeDegrees>
              <LongitudeDegrees>-8.18562640808522701263427734375</LongitudeDegrees>
            </Position>
            <AltitudeMeters>122.40000152587890625</AltitudeMeters>
            <DistanceMeters>142957.85723675</DistanceMeters>
          </Trackpoint>
          <Trackpoint>
            <Time>2018-09-13T15:39:52.000Z</Time>
            <Position>
              <LatitudeDegrees>38.8298666663467884063720703125</LatitudeDegrees>
              <LongitudeDegrees>-8.18584416992962360382080078125</LongitudeDegrees>
            </Position>
            <AltitudeMeters>121.40000152587890625</AltitudeMeters>
            <DistanceMeters>142982.07134139</DistanceMeters>
          </Trackpoint>
          <Trackpoint>
            <Time>2018-09-13T15:39:55.000Z</Time>
            <Position>
              <LatitudeDegrees>38.82972274906933307647705078125</LatitudeDegrees>
              <LongitudeDegrees>-8.18607182241976261138916015625</LongitudeDegrees>
            </Position>
            <AltitudeMeters>120.59999847412109375</AltitudeMeters>
            <DistanceMeters>143007.49165355</DistanceMeters>
          </Trackpoint>
          <Trackpoint>
            <Time>2018-09-13T15:39:58.000Z</Time>
            <Position>
              <LatitudeDegrees>38.82957438938319683074951171875</LatitudeDegrees>
              <LongitudeDegrees>-8.18630634807050228118896484375</LongitudeDegrees>
            </Position>
            <AltitudeMeters>119.8000030517578125</AltitudeMeters>
            <DistanceMeters>143033.68629783</DistanceMeters>
          </Trackpoint>
          <Trackpoint>
            <Time>2018-09-13T15:40:00.000Z</Time>
            <Position>
              <LatitudeDegrees>38.8294777460396289825439453125</LatitudeDegrees>
              <LongitudeDegrees>-8.18646308965981006622314453125</LongitudeDegrees>
            </Position>
            <AltitudeMeters>119.40000152587890625</AltitudeMeters>
            <DistanceMeters>143051.01871206</DistanceMeters>
          </Trackpoint>
          <Trackpoint>
            <Time>2018-09-13T15:40:04.000Z</Time>
            <Position>
              <LatitudeDegrees>38.82927901111543178558349609375</LatitudeDegrees>
              <LongitudeDegrees>-8.18676969967782497406005859375</LongitudeDegrees>
            </Position>
            <AltitudeMeters>118.40000152587890625</AltitudeMeters>
            <DistanceMeters>143085.60256169</DistanceMeters>
          </Trackpoint>
          <Trackpoint>
            <Time>2018-09-13T15:40:09.000Z</Time>
            <Position>
              <LatitudeDegrees>38.82902889512479305267333984375</LatitudeDegrees>
              <LongitudeDegrees>-8.1871642358601093292236328125</LongitudeDegrees>
            </Position>
            <AltitudeMeters>116.8000030517578125</AltitudeMeters>
            <DistanceMeters>143129.70714101</DistanceMeters>
          </Trackpoint>
          <Trackpoint>
            <Time>2018-09-13T15:40:14.000Z</Time>
            <Position>
              <LatitudeDegrees>38.828769810497760772705078125</LatitudeDegrees>
              <LongitudeDegrees>-8.187580816447734832763671875</LongitudeDegrees>
            </Position>
            <AltitudeMeters>115.1999969482421875</AltitudeMeters>
            <DistanceMeters>143175.92647814</DistanceMeters>
          </Trackpoint>
          <Trackpoint>
            <Time>2018-09-13T15:40:15.000Z</Time>
            <Position>
              <LatitudeDegrees>38.828716166317462921142578125</LatitudeDegrees>
              <LongitudeDegrees>-8.18766589276492595672607421875</LongitudeDegrees>
            </Position>
            <AltitudeMeters>115</AltitudeMeters>
            <DistanceMeters>143185.41678806</DistanceMeters>
          </Trackpoint>
          <Trackpoint>
            <Time>2018-09-13T15:40:19.000Z</Time>
            <Position>
              <LatitudeDegrees>38.828500248491764068603515625</LatitudeDegrees>
              <LongitudeDegrees>-8.18800468929111957550048828125</LongitudeDegrees>
            </Position>
            <AltitudeMeters>114.59999847412109375</AltitudeMeters>
            <DistanceMeters>143223.37065288</DistanceMeters>
          </Trackpoint>
          <Trackpoint>
            <Time>2018-09-13T15:40:21.000Z</Time>
            <Position>
              <LatitudeDegrees>38.828389607369899749755859375</LatitudeDegrees>
              <LongitudeDegrees>-8.1881747581064701080322265625</LongitudeDegrees>
            </Position>
            <AltitudeMeters>114.8000030517578125</AltitudeMeters>
            <DistanceMeters>143242.58274216</DistanceMeters>
          </Trackpoint>
          <Trackpoint>
            <Time>2018-09-13T15:40:25.000Z</Time>
            <Position>
              <LatitudeDegrees>38.82817276753485202789306640625</LatitudeDegrees>
              <LongitudeDegrees>-8.18850358016788959503173828125</LongitudeDegrees>
            </Position>
            <AltitudeMeters>115.8000030517578125</AltitudeMeters>
            <DistanceMeters>143279.93754898</DistanceMeters>
          </Trackpoint>
          <Trackpoint>
            <Time>2018-09-13T15:40:32.000Z</Time>
            <Position>
              <LatitudeDegrees>38.82785391993820667266845703125</LatitudeDegrees>
              <LongitudeDegrees>-8.18900850601494312286376953125</LongitudeDegrees>
            </Position>
            <AltitudeMeters>119.1999969482421875</AltitudeMeters>
            <DistanceMeters>143336.29528082</DistanceMeters>
          </Trackpoint>
          <Trackpoint>
            <Time>2018-09-13T15:40:37.000Z</Time>
            <Position>
              <LatitudeDegrees>38.8276732899248600006103515625</LatitudeDegrees>
              <LongitudeDegrees>-8.18930036388337612152099609375</LongitudeDegrees>
            </Position>
            <AltitudeMeters>121</AltitudeMeters>
            <DistanceMeters>143368.61554139</DistanceMeters>
          </Trackpoint>
          <Trackpoint>
            <Time>2018-09-13T15:40:38.000Z</Time>
            <Position>
              <LatitudeDegrees>38.82764085195958614349365234375</LatitudeDegrees>
              <LongitudeDegrees>-8.1893549300730228424072265625</LongitudeDegrees>
            </Position>
            <AltitudeMeters>121.1999969482421875</AltitudeMeters>
            <DistanceMeters>143374.56667235</DistanceMeters>
          </Trackpoint>
          <Trackpoint>
            <Time>2018-09-13T15:40:41.000Z</Time>
            <Position>
              <LatitudeDegrees>38.8275455497205257415771484375</LatitudeDegrees>
              <LongitudeDegrees>-8.18951024673879146575927734375</LongitudeDegrees>
            </Position>
            <AltitudeMeters>121.40000152587890625</AltitudeMeters>
            <DistanceMeters>143391.70971286</DistanceMeters>
          </Trackpoint>
          <Trackpoint>
            <Time>2018-09-13T15:40:43.000Z</Time>
            <Position>
              <LatitudeDegrees>38.82748226635158061981201171875</LatitudeDegrees>
              <LongitudeDegrees>-8.18960680626332759857177734375</LongitudeDegrees>
            </Position>
            <AltitudeMeters>121.59999847412109375</AltitudeMeters>
            <DistanceMeters>143402.65099814</DistanceMeters>
          </Trackpoint>
          <Trackpoint>
            <Time>2018-09-13T15:40:46.000Z</Time>
            <Position>
              <LatitudeDegrees>38.827391155064105987548828125</LatitudeDegrees>
              <LongitudeDegrees>-8.18974762223660945892333984375</LongitudeDegrees>
            </Position>
            <AltitudeMeters>122</AltitudeMeters>
            <DistanceMeters>143418.52301983</DistanceMeters>
          </Trackpoint>
          <Trackpoint>
            <Time>2018-09-13T15:40:50.000Z</Time>
            <Position>
              <LatitudeDegrees>38.82727322168648242950439453125</LatitudeDegrees>
              <LongitudeDegrees>-8.18993370048701763153076171875</LongitudeDegrees>
            </Position>
            <AltitudeMeters>122.40000152587890625</AltitudeMeters>
            <DistanceMeters>143439.32236843</DistanceMeters>
          </Trackpoint>
          <Trackpoint>
            <Time>2018-09-13T15:40:51.000Z</Time>
            <Position>
              <LatitudeDegrees>38.82724371738731861114501953125</LatitudeDegrees>
              <LongitudeDegrees>-8.1899775378406047821044921875</LongitudeDegrees>
            </Position>
            <AltitudeMeters>122.40000152587890625</AltitudeMeters>
            <DistanceMeters>143444.34531912</DistanceMeters>
          </Trackpoint>
          <Trackpoint>
            <Time>2018-09-13T15:40:55.000Z</Time>
            <Position>
              <LatitudeDegrees>38.82711916230618953704833984375</LatitudeDegrees>
              <LongitudeDegrees>-8.1901693157851696014404296875</LongitudeDegrees>
            </Position>
            <AltitudeMeters>122.59999847412109375</AltitudeMeters>
            <DistanceMeters>143465.99494077</DistanceMeters>
          </Trackpoint>
          <Trackpoint>
            <Time>2018-09-13T15:40:59.000Z</Time>
            <Position>
              <LatitudeDegrees>38.82698002271354198455810546875</LatitudeDegrees>
              <LongitudeDegrees>-8.1903855688869953155517578125</LongitudeDegrees>
            </Position>
            <AltitudeMeters>122.59999847412109375</AltitudeMeters>
            <DistanceMeters>143490.31435456</DistanceMeters>
          </Trackpoint>
          <Trackpoint>
            <Time>2018-09-13T15:41:09.000Z</Time>
            <Position>
              <LatitudeDegrees>38.82661004550755023956298828125</LatitudeDegrees>
              <LongitudeDegrees>-8.1909776665270328521728515625</LongitudeDegrees>
            </Position>
            <AltitudeMeters>122.8000030517578125</AltitudeMeters>
            <DistanceMeters>143556.12884436</DistanceMeters>
          </Trackpoint>
          <Trackpoint>
            <Time>2018-09-13T15:41:19.000Z</Time>
            <Position>
              <LatitudeDegrees>38.8262544013559818267822265625</LatitudeDegrees>
              <LongitudeDegrees>-8.1915362365543842315673828125</LongitudeDegrees>
            </Position>
            <AltitudeMeters>124.1999969482421875</AltitudeMeters>
            <DistanceMeters>143618.68031895</DistanceMeters>
          </Trackpoint>
          <Trackpoint>
            <Time>2018-09-13T15:41:30.000Z</Time>
            <Position>
              <LatitudeDegrees>38.82588501088321208953857421875</LatitudeDegrees>
              <LongitudeDegrees>-8.19212456233799457550048828125</LongitudeDegrees>
            </Position>
            <AltitudeMeters>125.40000152587890625</AltitudeMeters>
            <DistanceMeters>143684.19949851</DistanceMeters>
          </Trackpoint>
          <Trackpoint>
            <Time>2018-09-13T15:41:34.000Z</Time>
            <Position>
              <LatitudeDegrees>38.82574888877570629119873046875</LatitudeDegrees>
              <LongitudeDegrees>-8.19234215654432773590087890625</LongitudeDegrees>
            </Position>
            <AltitudeMeters>125.8000030517578125</AltitudeMeters>
            <DistanceMeters>143708.39737542</DistanceMeters>
          </Trackpoint>
          <Trackpoint>
            <Time>2018-09-13T15:41:45.000Z</Time>
            <Position>
              <LatitudeDegrees>38.82537581026554107666015625</LatitudeDegrees>
              <LongitudeDegrees>-8.19292754866182804107666015625</LongitudeDegrees>
            </Position>
            <AltitudeMeters>126.59999847412109375</AltitudeMeters>
            <DistanceMeters>143773.97806426</DistanceMeters>
          </Trackpoint>
          <Trackpoint>
            <Time>2018-09-13T15:41:55.000Z</Time>
            <Position>
              <LatitudeDegrees>38.82501530461013317108154296875</LatitudeDegrees>
              <LongitudeDegrees>-8.1934955902397632598876953125</LongitudeDegrees>
            </Position>
            <AltitudeMeters>126</AltitudeMeters>
            <DistanceMeters>143837.50852221</DistanceMeters>
          </Trackpoint>
          <Trackpoint>
            <Time>2018-09-13T15:42:02.000Z</Time>
            <Position>
              <LatitudeDegrees>38.8247386179864406585693359375</LatitudeDegrees>
              <LongitudeDegrees>-8.193935640156269073486328125</LongitudeDegrees>
            </Position>
            <AltitudeMeters>125.40000152587890625</AltitudeMeters>
            <DistanceMeters>143886.5428593</DistanceMeters>
          </Trackpoint>
          <Trackpoint>
            <Time>2018-09-13T15:42:07.000Z</Time>
            <Position>
              <LatitudeDegrees>38.824521861970424652099609375</LatitudeDegrees>
              <LongitudeDegrees>-8.194274939596652984619140625</LongitudeDegrees>
            </Position>
            <AltitudeMeters>124.8000030517578125</AltitudeMeters>
            <DistanceMeters>143924.59082475</DistanceMeters>
          </Trackpoint>
          <Trackpoint>
            <Time>2018-09-13T15:42:15.000Z</Time>
            <Position>
              <LatitudeDegrees>38.824173510074615478515625</LatitudeDegrees>
              <LongitudeDegrees>-8.194824792444705963134765625</LongitudeDegrees>
            </Position>
            <AltitudeMeters>123.40000152587890625</AltitudeMeters>
            <DistanceMeters>143986.04460902</DistanceMeters>
          </Trackpoint>
          <Trackpoint>
            <Time>2018-09-13T15:42:19.000Z</Time>
            <Position>
              <LatitudeDegrees>38.8239798881113529205322265625</LatitudeDegrees>
              <LongitudeDegrees>-8.19512628950178623199462890625</LongitudeDegrees>
            </Position>
            <AltitudeMeters>122.40000152587890625</AltitudeMeters>
            <DistanceMeters>144019.92533094</DistanceMeters>
          </Trackpoint>
          <Trackpoint>
            <Time>2018-09-13T15:42:22.000Z</Time>
            <Position>
              <LatitudeDegrees>38.8238239847123622894287109375</LatitudeDegrees>
              <LongitudeDegrees>-8.195363916456699371337890625</LongitudeDegrees>
            </Position>
            <AltitudeMeters>121.40000152587890625</AltitudeMeters>
            <DistanceMeters>144046.86385416</DistanceMeters>
          </Trackpoint>
          <Trackpoint>
            <Time>2018-09-13T15:42:27.000Z</Time>
            <Position>
              <LatitudeDegrees>38.8235550932586193084716796875</LatitudeDegrees>
              <LongitudeDegrees>-8.19578938186168670654296875</LongitudeDegrees>
            </Position>
            <AltitudeMeters>119.59999847412109375</AltitudeMeters>
            <DistanceMeters>144094.36979868</DistanceMeters>
          </Trackpoint>
          <Trackpoint>
            <Time>2018-09-13T15:42:29.000Z</Time>
            <Position>
              <LatitudeDegrees>38.82344235666096210479736328125</LatitudeDegrees>
              <LongitudeDegrees>-8.19596506655216217041015625</LongitudeDegrees>
            </Position>
            <AltitudeMeters>119.1999969482421875</AltitudeMeters>
            <DistanceMeters>144114.10609462</DistanceMeters>
          </Trackpoint>
          <Trackpoint>
            <Time>2018-09-13T15:42:34.000Z</Time>
            <Position>
              <LatitudeDegrees>38.823173046112060546875</LatitudeDegrees>
              <LongitudeDegrees>-8.1963883526623249053955078125</LongitudeDegrees>
            </Position>
            <AltitudeMeters>118.8000030517578125</AltitudeMeters>
            <DistanceMeters>144161.49499386</DistanceMeters>
          </Trackpoint>
          <Trackpoint>
            <Time>2018-09-13T15:42:37.000Z</Time>
            <Position>
              <LatitudeDegrees>38.823024518787860870361328125</LatitudeDegrees>
              <LongitudeDegrees>-8.19662648253142833709716796875</LongitudeDegrees>
            </Position>
            <AltitudeMeters>118.59999847412109375</AltitudeMeters>
            <DistanceMeters>144187.94623926</DistanceMeters>
          </Trackpoint>
          <Trackpoint>
            <Time>2018-09-13T15:42:45.000Z</Time>
            <Position>
              <LatitudeDegrees>38.822649680078029632568359375</LatitudeDegrees>
              <LongitudeDegrees>-8.1972047500312328338623046875</LongitudeDegrees>
            </Position>
            <AltitudeMeters>119.59999847412109375</AltitudeMeters>
            <DistanceMeters>144253.17666268</DistanceMeters>
          </Trackpoint>
          <Trackpoint>
            <Time>2018-09-13T15:42:49.000Z</Time>
            <Position>
              <LatitudeDegrees>38.82247659377753734588623046875</LatitudeDegrees>
              <LongitudeDegrees>-8.197470121085643768310546875</LongitudeDegrees>
            </Position>
            <AltitudeMeters>120.40000152587890625</AltitudeMeters>
            <DistanceMeters>144283.18765774</DistanceMeters>
          </Trackpoint>
          <Trackpoint>
            <Time>2018-09-13T15:42:56.000Z</Time>
            <Position>
              <LatitudeDegrees>38.82220250554382801055908203125</LatitudeDegrees>
              <LongitudeDegrees>-8.1979074887931346893310546875</LongitudeDegrees>
            </Position>
            <AltitudeMeters>121.1999969482421875</AltitudeMeters>
            <DistanceMeters>144331.86054121</DistanceMeters>
          </Trackpoint>
          <Trackpoint>
            <Time>2018-09-13T15:43:02.000Z</Time>
            <Position>
              <LatitudeDegrees>38.82197770290076732635498046875</LatitudeDegrees>
              <LongitudeDegrees>-8.19825458340346813201904296875</LongitudeDegrees>
            </Position>
            <AltitudeMeters>121.8000030517578125</AltitudeMeters>
            <DistanceMeters>144371.00059025</DistanceMeters>
          </Trackpoint>
          <Trackpoint>
            <Time>2018-09-13T15:43:11.000Z</Time>
            <Position>
              <LatitudeDegrees>38.82166556082665920257568359375</LatitudeDegrees>
              <LongitudeDegrees>-8.19875582121312618255615234375</LongitudeDegrees>
            </Position>
            <AltitudeMeters>122.8000030517578125</AltitudeMeters>
            <DistanceMeters>144426.64422916</DistanceMeters>
          </Trackpoint>
          <Trackpoint>
            <Time>2018-09-13T15:43:13.000Z</Time>
            <Position>
              <LatitudeDegrees>38.8215970806777477264404296875</LatitudeDegrees>
              <LongitudeDegrees>-8.1988610140979290008544921875</LongitudeDegrees>
            </Position>
            <AltitudeMeters>123</AltitudeMeters>
            <DistanceMeters>144438.5313077</DistanceMeters>
          </Trackpoint>
          <Trackpoint>
            <Time>2018-09-13T15:43:19.000Z</Time>
            <Position>
              <LatitudeDegrees>38.821399770677089691162109375</LatitudeDegrees>
              <LongitudeDegrees>-8.19916854612529277801513671875</LongitudeDegrees>
            </Position>
            <AltitudeMeters>123.8000030517578125</AltitudeMeters>
            <DistanceMeters>144473.07766819</DistanceMeters>
          </Trackpoint>
          <Trackpoint>
            <Time>2018-09-13T15:43:30.000Z</Time>
            <Position>
              <LatitudeDegrees>38.8210512511432170867919921875</LatitudeDegrees>
              <LongitudeDegrees>-8.1997260265052318572998046875</LongitudeDegrees>
            </Position>
            <AltitudeMeters>123.40000152587890625</AltitudeMeters>
            <DistanceMeters>144535.05927515</DistanceMeters>
          </Trackpoint>
          <Trackpoint>
            <Time>2018-09-13T15:43:34.000Z</Time>
            <Position>
              <LatitudeDegrees>38.82092007435858249664306640625</LatitudeDegrees>
              <LongitudeDegrees>-8.199931718409061431884765625</LongitudeDegrees>
            </Position>
            <AltitudeMeters>123</AltitudeMeters>
            <DistanceMeters>144558.10986512</DistanceMeters>
          </Trackpoint>
          <Trackpoint>
            <Time>2018-09-13T15:43:45.000Z</Time>
            <Position>
              <LatitudeDegrees>38.82056753151118755340576171875</LatitudeDegrees>
              <LongitudeDegrees>-8.20048282854259014129638671875</LongitudeDegrees>
            </Position>
            <AltitudeMeters>124</AltitudeMeters>
            <DistanceMeters>144619.94517275</DistanceMeters>
          </Trackpoint>
          <Trackpoint>
            <Time>2018-09-13T15:43:50.000Z</Time>
            <Position>
              <LatitudeDegrees>38.8204226084053516387939453125</LatitudeDegrees>
              <LongitudeDegrees>-8.200713582336902618408203125</LongitudeDegrees>
            </Position>
            <AltitudeMeters>124.8000030517578125</AltitudeMeters>
            <DistanceMeters>144645.64739585</DistanceMeters>
          </Trackpoint>
          <Trackpoint>
            <Time>2018-09-13T15:43:54.000Z</Time>
            <Position>
              <LatitudeDegrees>38.82031154818832874298095703125</LatitudeDegrees>
              <LongitudeDegrees>-8.200886249542236328125</LongitudeDegrees>
            </Position>
            <AltitudeMeters>125.40000152587890625</AltitudeMeters>
            <DistanceMeters>144665.06379771</DistanceMeters>
          </Trackpoint>
          <Trackpoint>
            <Time>2018-09-13T15:43:58.000Z</Time>
            <Position>
              <LatitudeDegrees>38.8202083669602870941162109375</LatitudeDegrees>
              <LongitudeDegrees>-8.2010557316243648529052734375</LongitudeDegrees>
            </Position>
            <AltitudeMeters>126.1999969482421875</AltitudeMeters>
            <DistanceMeters>144683.71543826</DistanceMeters>
          </Trackpoint>
          <Trackpoint>
            <Time>2018-09-13T15:44:02.000Z</Time>
            <Position>
              <LatitudeDegrees>38.82010669447481632232666015625</LatitudeDegrees>
              <LongitudeDegrees>-8.2012220285832881927490234375</LongitudeDegrees>
            </Position>
            <AltitudeMeters>127</AltitudeMeters>
            <DistanceMeters>144702.04623678</DistanceMeters>
          </Trackpoint>
          <Trackpoint>
            <Time>2018-09-13T15:44:06.000Z</Time>
            <Position>
              <LatitudeDegrees>38.820004351437091827392578125</LatitudeDegrees>
              <LongitudeDegrees>-8.20138941518962383270263671875</LongitudeDegrees>
            </Position>
            <AltitudeMeters>128</AltitudeMeters>
            <DistanceMeters>144720.49782133</DistanceMeters>
          </Trackpoint>
          <Trackpoint>
            <Time>2018-09-13T15:44:14.000Z</Time>
            <Position>
              <LatitudeDegrees>38.8198184408247470855712890625</LatitudeDegrees>
              <LongitudeDegrees>-8.20169568993151187896728515625</LongitudeDegrees>
            </Position>
            <AltitudeMeters>129.8000030517578125</AltitudeMeters>
            <DistanceMeters>144754.16652514</DistanceMeters>
          </Trackpoint>
          <Trackpoint>
            <Time>2018-09-13T15:44:18.000Z</Time>
            <Position>
              <LatitudeDegrees>38.81972045637667179107666015625</LatitudeDegrees>
              <LongitudeDegrees>-8.20183910429477691650390625</LongitudeDegrees>
            </Position>
            <AltitudeMeters>130.600006103515625</AltitudeMeters>
            <DistanceMeters>144770.70772571</DistanceMeters>
          </Trackpoint>
          <Trackpoint>
            <Time>2018-09-13T15:44:24.000Z</Time>
            <Position>
              <LatitudeDegrees>38.819555081427097320556640625</LatitudeDegrees>
              <LongitudeDegrees>-8.2020947523415088653564453125</LongitudeDegrees>
            </Position>
            <AltitudeMeters>131.600006103515625</AltitudeMeters>
            <DistanceMeters>144799.52229509</DistanceMeters>
          </Trackpoint>
          <Trackpoint>
            <Time>2018-09-13T15:44:36.000Z</Time>
            <Position>
              <LatitudeDegrees>38.81919792853295803070068359375</LatitudeDegrees>
              <LongitudeDegrees>-8.20266790688037872314453125</LongitudeDegrees>
            </Position>
            <AltitudeMeters>131.8000030517578125</AltitudeMeters>
            <DistanceMeters>144863.16657449</DistanceMeters>
          </Trackpoint>
          <Trackpoint>
            <Time>2018-09-13T15:44:41.000Z</Time>
            <Position>
              <LatitudeDegrees>38.81903171539306640625</LatitudeDegrees>
              <LongitudeDegrees>-8.20292028598487377166748046875</LongitudeDegrees>
            </Position>
            <AltitudeMeters>131.1999969482421875</AltitudeMeters>
            <DistanceMeters>144891.8240226</DistanceMeters>
          </Trackpoint>
          <Trackpoint>
            <Time>2018-09-13T15:44:43.000Z</Time>
            <Position>
              <LatitudeDegrees>38.8189665041863918304443359375</LatitudeDegrees>
              <LongitudeDegrees>-8.20301927626132965087890625</LongitudeDegrees>
            </Position>
            <AltitudeMeters>131</AltitudeMeters>
            <DistanceMeters>144903.06532545</DistanceMeters>
          </Trackpoint>
          <Trackpoint>
            <Time>2018-09-13T15:44:48.000Z</Time>
            <Position>
              <LatitudeDegrees>38.81879911758005619049072265625</LatitudeDegrees>
              <LongitudeDegrees>-8.2032869942486286163330078125</LongitudeDegrees>
            </Position>
            <AltitudeMeters>130</AltitudeMeters>
            <DistanceMeters>144932.83251009</DistanceMeters>
          </Trackpoint>
          <Trackpoint>
            <Time>2018-09-13T15:44:51.000Z</Time>
            <Position>
              <LatitudeDegrees>38.81869233213365077972412109375</LatitudeDegrees>
              <LongitudeDegrees>-8.2034583203494548797607421875</LongitudeDegrees>
            </Position>
            <AltitudeMeters>129.399993896484375</AltitudeMeters>
            <DistanceMeters>144951.85874735</DistanceMeters>
          </Trackpoint>
          <Trackpoint>
            <Time>2018-09-13T15:44:57.000Z</Time>
            <Position>
              <LatitudeDegrees>38.81848362274467945098876953125</LatitudeDegrees>
              <LongitudeDegrees>-8.2037791796028614044189453125</LongitudeDegrees>
            </Position>
            <AltitudeMeters>130.399993896484375</AltitudeMeters>
            <DistanceMeters>144988.10567829</DistanceMeters>
          </Trackpoint>
          <Trackpoint>
            <Time>2018-09-13T15:45:09.000Z</Time>
            <Position>
              <LatitudeDegrees>38.81812152452766895294189453125</LatitudeDegrees>
              <LongitudeDegrees>-8.204351998865604400634765625</LongitudeDegrees>
            </Position>
            <AltitudeMeters>132.1999969482421875</AltitudeMeters>
            <DistanceMeters>145052.07319887</DistanceMeters>
          </Trackpoint>
          <Trackpoint>
            <Time>2018-09-13T15:45:10.000Z</Time>
            <Position>
              <LatitudeDegrees>38.818095289170742034912109375</LatitudeDegrees>
              <LongitudeDegrees>-8.20439130999147891998291015625</LongitudeDegrees>
            </Position>
            <AltitudeMeters>132.399993896484375</AltitudeMeters>
            <DistanceMeters>145056.56264545</DistanceMeters>
          </Trackpoint>
          <Trackpoint>
            <Time>2018-09-13T15:45:13.000Z</Time>
            <Position>
              <LatitudeDegrees>38.81801893003284931182861328125</LatitudeDegrees>
              <LongitudeDegrees>-8.20450748316943645477294921875</LongitudeDegrees>
            </Position>
            <AltitudeMeters>132.8000030517578125</AltitudeMeters>
            <DistanceMeters>145069.74364203</DistanceMeters>
          </Trackpoint>
          <Trackpoint>
            <Time>2018-09-13T15:45:20.000Z</Time>
            <Position>
              <LatitudeDegrees>38.8178564049303531646728515625</LatitudeDegrees>
              <LongitudeDegrees>-8.20475391112267971038818359375</LongitudeDegrees>
            </Position>
            <AltitudeMeters>134</AltitudeMeters>
            <DistanceMeters>145097.7421955</DistanceMeters>
          </Trackpoint>
          <Trackpoint>
            <Time>2018-09-13T15:45:25.000Z</Time>
            <Position>
              <LatitudeDegrees>38.81775104440748691558837890625</LatitudeDegrees>
              <LongitudeDegrees>-8.2049211300909519195556640625</LongitudeDegrees>
            </Position>
            <AltitudeMeters>134.600006103515625</AltitudeMeters>
            <DistanceMeters>145116.39189937</DistanceMeters>
          </Trackpoint>
          <Trackpoint>
            <Time>2018-09-13T15:45:32.000Z</Time>
            <Position>
              <LatitudeDegrees>38.81760771386325359344482421875</LatitudeDegrees>
              <LongitudeDegrees>-8.20514819584786891937255859375</LongitudeDegrees>
            </Position>
            <AltitudeMeters>135.600006103515625</AltitudeMeters>
            <DistanceMeters>145141.73429659</DistanceMeters>
          </Trackpoint>
          <Trackpoint>
            <Time>2018-09-13T15:45:37.000Z</Time>
            <Position>
              <LatitudeDegrees>38.81750562228262424468994140625</LatitudeDegrees>
              <LongitudeDegrees>-8.20531130768358707427978515625</LongitudeDegrees>
            </Position>
            <AltitudeMeters>136.399993896484375</AltitudeMeters>
            <DistanceMeters>145159.87793009</DistanceMeters>
          </Trackpoint>
          <Trackpoint>
            <Time>2018-09-13T15:45:44.000Z</Time>
            <Position>
              <LatitudeDegrees>38.81735592149198055267333984375</LatitudeDegrees>
              <LongitudeDegrees>-8.2055383734405040740966796875</LongitudeDegrees>
            </Position>
            <AltitudeMeters>137.8000030517578125</AltitudeMeters>
            <DistanceMeters>145185.67273873</DistanceMeters>
          </Trackpoint>
          <Trackpoint>
            <Time>2018-09-13T15:45:45.000Z</Time>
            <Position>
              <LatitudeDegrees>38.8173350505530834197998046875</LatitudeDegrees>
              <LongitudeDegrees>-8.20557198487222194671630859375</LongitudeDegrees>
            </Position>
            <AltitudeMeters>138</AltitudeMeters>
            <DistanceMeters>145189.39943399</DistanceMeters>
          </Trackpoint>
          <Trackpoint>
            <Time>2018-09-13T15:45:49.000Z</Time>
            <Position>
              <LatitudeDegrees>38.81724997423589229583740234375</LatitudeDegrees>
              <LongitudeDegrees>-8.20570089854300022125244140625</LongitudeDegrees>
            </Position>
            <AltitudeMeters>138.8000030517578125</AltitudeMeters>
            <DistanceMeters>145204.05019906</DistanceMeters>
          </Trackpoint>
          <Trackpoint>
            <Time>2018-09-13T15:45:56.000Z</Time>
            <Position>
              <LatitudeDegrees>38.81710714660584926605224609375</LatitudeDegrees>
              <LongitudeDegrees>-8.20591765455901622772216796875</LongitudeDegrees>
            </Position>
            <AltitudeMeters>140</AltitudeMeters>
            <DistanceMeters>145228.66835457</DistanceMeters>
          </Trackpoint>
          <Trackpoint>
            <Time>2018-09-13T15:45:57.000Z</Time>
            <Position>
              <LatitudeDegrees>38.8170866109430789947509765625</LatitudeDegrees>
              <LongitudeDegrees>-8.20594699122011661529541015625</LongitudeDegrees>
            </Position>
            <AltitudeMeters>140.1999969482421875</AltitudeMeters>
            <DistanceMeters>145232.08931628</DistanceMeters>
          </Trackpoint>
          <Trackpoint>
            <Time>2018-09-13T15:46:05.000Z</Time>
            <Position>
              <LatitudeDegrees>38.81693087518215179443359375</LatitudeDegrees>
              <LongitudeDegrees>-8.2061924971640110015869140625</LongitudeDegrees>
            </Position>
            <AltitudeMeters>141.8000030517578125</AltitudeMeters>
            <DistanceMeters>145259.54365075</DistanceMeters>
          </Trackpoint>
          <Trackpoint>
            <Time>2018-09-13T15:46:10.000Z</Time>
            <Position>
              <LatitudeDegrees>38.81684311665594577789306640625</LatitudeDegrees>
              <LongitudeDegrees>-8.20633322931826114654541015625</LongitudeDegrees>
            </Position>
            <AltitudeMeters>142.1999969482421875</AltitudeMeters>
            <DistanceMeters>145275.17547305</DistanceMeters>
          </Trackpoint>
          <Trackpoint>
            <Time>2018-09-13T15:46:15.000Z</Time>
            <Position>
              <LatitudeDegrees>38.81675024516880512237548828125</LatitudeDegrees>
              <LongitudeDegrees>-8.20648360066115856170654296875</LongitudeDegrees>
            </Position>
            <AltitudeMeters>142.1999969482421875</AltitudeMeters>
            <DistanceMeters>145291.81573339</DistanceMeters>
          </Trackpoint>
          <Trackpoint>
            <Time>2018-09-13T15:46:29.000Z</Time>
            <Position>
              <LatitudeDegrees>38.81638864986598491668701171875</LatitudeDegrees>
              <LongitudeDegrees>-8.20706396363675594329833984375</LongitudeDegrees>
            </Position>
            <AltitudeMeters>142</AltitudeMeters>
            <DistanceMeters>145356.25856058</DistanceMeters>
          </Trackpoint>
          <Trackpoint>
            <Time>2018-09-13T15:46:36.000Z</Time>
            <Position>
              <LatitudeDegrees>38.8161528669297695159912109375</LatitudeDegrees>
              <LongitudeDegrees>-8.20742304436862468719482421875</LongitudeDegrees>
            </Position>
            <AltitudeMeters>141.1999969482421875</AltitudeMeters>
            <DistanceMeters>145396.98213679</DistanceMeters>
          </Trackpoint>
          <Trackpoint>
            <Time>2018-09-13T15:46:42.000Z</Time>
            <Position>
              <LatitudeDegrees>38.81593217141926288604736328125</LatitudeDegrees>
              <LongitudeDegrees>-8.2077703066170215606689453125</LongitudeDegrees>
            </Position>
            <AltitudeMeters>140.600006103515625</AltitudeMeters>
            <DistanceMeters>145435.84504244</DistanceMeters>
          </Trackpoint>
          <Trackpoint>
            <Time>2018-09-13T15:46:47.000Z</Time>
            <Position>
              <LatitudeDegrees>38.81573083810508251190185546875</LatitudeDegrees>
              <LongitudeDegrees>-8.2080871425569057464599609375</LongitudeDegrees>
            </Position>
            <AltitudeMeters>139.8000030517578125</AltitudeMeters>
            <DistanceMeters>145471.30108737</DistanceMeters>
          </Trackpoint>
          <Trackpoint>
            <Time>2018-09-13T15:46:48.000Z</Time>
            <Position>
              <LatitudeDegrees>38.8156898505985736846923828125</LatitudeDegrees>
              <LongitudeDegrees>-8.20815168321132659912109375</LongitudeDegrees>
            </Position>
            <AltitudeMeters>139.600006103515625</AltitudeMeters>
            <DistanceMeters>145478.5218672</DistanceMeters>
          </Trackpoint>
          <Trackpoint>
            <Time>2018-09-13T15:46:53.000Z</Time>
            <Position>
              <LatitudeDegrees>38.8154762797057628631591796875</LatitudeDegrees>
              <LongitudeDegrees>-8.20848251692950725555419921875</LongitudeDegrees>
            </Position>
            <AltitudeMeters>139</AltitudeMeters>
            <DistanceMeters>145515.78058044</DistanceMeters>
          </Trackpoint>
          <Trackpoint>
            <Time>2018-09-13T15:47:01.000Z</Time>
            <Position>
              <LatitudeDegrees>38.81512616761028766632080078125</LatitudeDegrees>
              <LongitudeDegrees>-8.2090399973094463348388671875</LongitudeDegrees>
            </Position>
            <AltitudeMeters>137.8000030517578125</AltitudeMeters>
            <DistanceMeters>145577.87644843</DistanceMeters>
          </Trackpoint>
          <Trackpoint>
            <Time>2018-09-13T15:47:03.000Z</Time>
            <Position>
              <LatitudeDegrees>38.81503446958959102630615234375</LatitudeDegrees>
              <LongitudeDegrees>-8.20918357931077480316162109375</LongitudeDegrees>
            </Position>
            <AltitudeMeters>137.600006103515625</AltitudeMeters>
            <DistanceMeters>145593.97667745</DistanceMeters>
          </Trackpoint>
          <Trackpoint>
            <Time>2018-09-13T15:47:08.000Z</Time>
            <Position>
              <LatitudeDegrees>38.81481033749878406524658203125</LatitudeDegrees>
              <LongitudeDegrees>-8.209534697234630584716796875</LongitudeDegrees>
            </Position>
            <AltitudeMeters>137.399993896484375</AltitudeMeters>
            <DistanceMeters>145633.34091322</DistanceMeters>
          </Trackpoint>
          <Trackpoint>
            <Time>2018-09-13T15:47:16.000Z</Time>
            <Position>
              <LatitudeDegrees>38.8144530169665813446044921875</LatitudeDegrees>
              <LongitudeDegrees>-8.21009092032909393310546875</LongitudeDegrees>
            </Position>
            <AltitudeMeters>137.1999969482421875</AltitudeMeters>
            <DistanceMeters>145695.85968118</DistanceMeters>
          </Trackpoint>
          <Trackpoint>
            <Time>2018-09-13T15:47:18.000Z</Time>
            <Position>
              <LatitudeDegrees>38.8143685273826122283935546875</LatitudeDegrees>
              <LongitudeDegrees>-8.21023316122591495513916015625</LongitudeDegrees>
            </Position>
            <AltitudeMeters>137</AltitudeMeters>
            <DistanceMeters>145711.37088219</DistanceMeters>
          </Trackpoint>
          <Trackpoint>
            <Time>2018-09-13T15:47:26.000Z</Time>
            <Position>
              <LatitudeDegrees>38.81401975639164447784423828125</LatitudeDegrees>
              <LongitudeDegrees>-8.21078251115977764129638671875</LongitudeDegrees>
            </Position>
            <AltitudeMeters>136.1999969482421875</AltitudeMeters>
            <DistanceMeters>145772.82562157</DistanceMeters>
          </Trackpoint>
          <Trackpoint>
            <Time>2018-09-13T15:47:34.000Z</Time>
            <Position>
              <LatitudeDegrees>38.81366386078298091888427734375</LatitudeDegrees>
              <LongitudeDegrees>-8.21134150028228759765625</LongitudeDegrees>
            </Position>
            <AltitudeMeters>136.600006103515625</AltitudeMeters>
            <DistanceMeters>145835.42954987</DistanceMeters>
          </Trackpoint>
          <Trackpoint>
            <Time>2018-09-13T15:47:42.000Z</Time>
            <Position>
              <LatitudeDegrees>38.81332774646580219268798828125</LatitudeDegrees>
              <LongitudeDegrees>-8.2118854857981204986572265625</LongitudeDegrees>
            </Position>
            <AltitudeMeters>137.600006103515625</AltitudeMeters>
            <DistanceMeters>145895.63945395</DistanceMeters>
          </Trackpoint>
          <Trackpoint>
            <Time>2018-09-13T15:47:50.000Z</Time>
            <Position>
              <LatitudeDegrees>38.81306187249720096588134765625</LatitudeDegrees>
              <LongitudeDegrees>-8.21249359287321567535400390625</LongitudeDegrees>
            </Position>
            <AltitudeMeters>136.8000030517578125</AltitudeMeters>
            <DistanceMeters>145956.11303941</DistanceMeters>
          </Trackpoint>
          <Trackpoint>
            <Time>2018-09-13T15:47:51.000Z</Time>
            <Position>
              <LatitudeDegrees>38.81303706206381320953369140625</LatitudeDegrees>
              <LongitudeDegrees>-8.21257774718105792999267578125</LongitudeDegrees>
            </Position>
            <AltitudeMeters>136.8000030517578125</AltitudeMeters>
            <DistanceMeters>145963.91681001</DistanceMeters>
          </Trackpoint>
          <Trackpoint>
            <Time>2018-09-13T15:47:58.000Z</Time>
            <Position>
              <LatitudeDegrees>38.8128856010735034942626953125</LatitudeDegrees>
              <LongitudeDegrees>-8.21322080679237842559814453125</LongitudeDegrees>
            </Position>
            <AltitudeMeters>134.1999969482421875</AltitudeMeters>
            <DistanceMeters>146022.17903624</DistanceMeters>
          </Trackpoint>
          <Trackpoint>
            <Time>2018-09-13T15:48:04.000Z</Time>
            <Position>
              <LatitudeDegrees>38.81277202628552913665771484375</LatitudeDegrees>
              <LongitudeDegrees>-8.2138233818113803863525390625</LongitudeDegrees>
            </Position>
            <AltitudeMeters>132.600006103515625</AltitudeMeters>
            <DistanceMeters>146075.94526544</DistanceMeters>
          </Trackpoint>
          <Trackpoint>
            <Time>2018-09-13T15:48:05.000Z</Time>
            <Position>
              <LatitudeDegrees>38.8127535022795200347900390625</LatitudeDegrees>
              <LongitudeDegrees>-8.21392639540135860443115234375</LongitudeDegrees>
            </Position>
            <AltitudeMeters>132.600006103515625</AltitudeMeters>
            <DistanceMeters>146085.11423549</DistanceMeters>
          </Trackpoint>
          <Trackpoint>
            <Time>2018-09-13T15:48:07.000Z</Time>
            <Position>
              <LatitudeDegrees>38.81271871738135814666748046875</LatitudeDegrees>
              <LongitudeDegrees>-8.21412689052522182464599609375</LongitudeDegrees>
            </Position>
            <AltitudeMeters>132.1999969482421875</AltitudeMeters>
            <DistanceMeters>146102.92813305</DistanceMeters>
          </Trackpoint>
          <Trackpoint>
            <Time>2018-09-13T15:48:15.000Z</Time>
            <Position>
              <LatitudeDegrees>38.81259248591959476470947265625</LatitudeDegrees>
              <LongitudeDegrees>-8.21486927568912506103515625</LongitudeDegrees>
            </Position>
            <AltitudeMeters>132.600006103515625</AltitudeMeters>
            <DistanceMeters>146168.82770356</DistanceMeters>
          </Trackpoint>
          <Trackpoint>
            <Time>2018-09-13T15:48:16.000Z</Time>
            <Position>
              <LatitudeDegrees>38.8125761412084102630615234375</LatitudeDegrees>
              <LongitudeDegrees>-8.2149606384336948394775390625</LongitudeDegrees>
            </Position>
            <AltitudeMeters>132.600006103515625</AltitudeMeters>
            <DistanceMeters>146176.95790402</DistanceMeters>
          </Trackpoint>
          <Trackpoint>
            <Time>2018-09-13T15:48:20.000Z</Time>
            <Position>
              <LatitudeDegrees>38.812508247792720794677734375</LatitudeDegrees>
              <LongitudeDegrees>-8.21531812660396099090576171875</LongitudeDegrees>
            </Position>
            <AltitudeMeters>132.8000030517578125</AltitudeMeters>
            <DistanceMeters>146208.86934054</DistanceMeters>
          </Trackpoint>
          <Trackpoint>
            <Time>2018-09-13T15:48:26.000Z</Time>
            <Position>
              <LatitudeDegrees>38.81241395138204097747802734375</LatitudeDegrees>
              <LongitudeDegrees>-8.21583076380193233489990234375</LongitudeDegrees>
            </Position>
            <AltitudeMeters>132.1999969482421875</AltitudeMeters>
            <DistanceMeters>146254.55070935</DistanceMeters>
          </Trackpoint>
          <Trackpoint>
            <Time>2018-09-13T15:48:35.000Z</Time>
            <Position>
              <LatitudeDegrees>38.8122770749032497406005859375</LatitudeDegrees>
              <LongitudeDegrees>-8.21658882312476634979248046875</LongitudeDegrees>
            </Position>
            <AltitudeMeters>131.1999969482421875</AltitudeMeters>
            <DistanceMeters>146322.03680595</DistanceMeters>
          </Trackpoint>
          <Trackpoint>
            <Time>2018-09-13T15:48:43.000Z</Time>
            <Position>
              <LatitudeDegrees>38.81214623339474201202392578125</LatitudeDegrees>
              <LongitudeDegrees>-8.21729131042957305908203125</LongitudeDegrees>
            </Position>
            <AltitudeMeters>130.399993896484375</AltitudeMeters>
            <DistanceMeters>146384.67764916</DistanceMeters>
          </Trackpoint>
          <Trackpoint>
            <Time>2018-09-13T15:48:51.000Z</Time>
            <Position>
              <LatitudeDegrees>38.81201446987688541412353515625</LatitudeDegrees>
              <LongitudeDegrees>-8.218003772199153900146484375</LongitudeDegrees>
            </Position>
            <AltitudeMeters>129</AltitudeMeters>
            <DistanceMeters>146448.18401019</DistanceMeters>
          </Trackpoint>
          <Trackpoint>
            <Time>2018-09-13T15:48:53.000Z</Time>
            <Position>
              <LatitudeDegrees>38.8119803555309772491455078125</LatitudeDegrees>
              <LongitudeDegrees>-8.21817903779447078704833984375</LongitudeDegrees>
            </Position>
            <AltitudeMeters>128.600006103515625</AltitudeMeters>
            <DistanceMeters>146463.8510309</DistanceMeters>
          </Trackpoint>
          <Trackpoint>
            <Time>2018-09-13T15:49:01.000Z</Time>
            <Position>
              <LatitudeDegrees>38.8118485920131206512451171875</LatitudeDegrees>
              <LongitudeDegrees>-8.21891228668391704559326171875</LongitudeDegrees>
            </Position>
            <AltitudeMeters>126.8000030517578125</AltitudeMeters>
            <DistanceMeters>146529.11300954</DistanceMeters>
          </Trackpoint>
          <Trackpoint>
            <Time>2018-09-13T15:49:03.000Z</Time>
            <Position>
              <LatitudeDegrees>38.81181322038173675537109375</LatitudeDegrees>
              <LongitudeDegrees>-8.21909668855369091033935546875</LongitudeDegrees>
            </Position>
            <AltitudeMeters>126.40000152587890625</AltitudeMeters>
            <DistanceMeters>146545.58308836</DistanceMeters>
          </Trackpoint>
          <Trackpoint>
            <Time>2018-09-13T15:49:06.000Z</Time>
            <Position>
              <LatitudeDegrees>38.8117624260485172271728515625</LatitudeDegrees>
              <LongitudeDegrees>-8.2193705253303050994873046875</LongitudeDegrees>
            </Position>
            <AltitudeMeters>125.59999847412109375</AltitudeMeters>
            <DistanceMeters>146569.99570836</DistanceMeters>
          </Trackpoint>
          <Trackpoint>
            <Time>2018-09-13T15:49:14.000Z</Time>
            <Position>
              <LatitudeDegrees>38.81163460202515125274658203125</LatitudeDegrees>
              <LongitudeDegrees>-8.22008977644145488739013671875</LongitudeDegrees>
            </Position>
            <AltitudeMeters>124.40000152587890625</AltitudeMeters>
            <DistanceMeters>146633.97656779</DistanceMeters>
          </Trackpoint>
          <Trackpoint>
            <Time>2018-09-13T15:49:23.000Z</Time>
            <Position>
              <LatitudeDegrees>38.81149462424218654632568359375</LatitudeDegrees>
              <LongitudeDegrees>-8.2208410464227199554443359375</LongitudeDegrees>
            </Position>
            <AltitudeMeters>125</AltitudeMeters>
            <DistanceMeters>146700.96939049</DistanceMeters>
          </Trackpoint>
          <Trackpoint>
            <Time>2018-09-13T15:49:30.000Z</Time>
            <Position>
              <LatitudeDegrees>38.81140007637441158294677734375</LatitudeDegrees>
              <LongitudeDegrees>-8.2213999517261981964111328125</LongitudeDegrees>
            </Position>
            <AltitudeMeters>126</AltitudeMeters>
            <DistanceMeters>146750.57115082</DistanceMeters>
          </Trackpoint>
          <Trackpoint>
            <Time>2018-09-13T15:49:35.000Z</Time>
            <Position>
              <LatitudeDegrees>38.81134190596640110015869140625</LatitudeDegrees>
              <LongitudeDegrees>-8.22178962640464305877685546875</LongitudeDegrees>
            </Position>
            <AltitudeMeters>126</AltitudeMeters>
            <DistanceMeters>146784.98145122</DistanceMeters>
          </Trackpoint>
          <Trackpoint>
            <Time>2018-09-13T15:49:39.000Z</Time>
            <Position>
              <LatitudeDegrees>38.81128960289061069488525390625</LatitudeDegrees>
              <LongitudeDegrees>-8.22208835743367671966552734375</LongitudeDegrees>
            </Position>
            <AltitudeMeters>127</AltitudeMeters>
            <DistanceMeters>146811.53576498</DistanceMeters>
          </Trackpoint>
          <Trackpoint>
            <Time>2018-09-13T15:49:43.000Z</Time>
            <Position>
              <LatitudeDegrees>38.811236880719661712646484375</LatitudeDegrees>
              <LongitudeDegrees>-8.22238239459693431854248046875</LongitudeDegrees>
            </Position>
            <AltitudeMeters>128.1999969482421875</AltitudeMeters>
            <DistanceMeters>146837.70350651</DistanceMeters>
          </Trackpoint>
          <Trackpoint>
            <Time>2018-09-13T15:49:46.000Z</Time>
            <Position>
              <LatitudeDegrees>38.81119589321315288543701171875</LatitudeDegrees>
              <LongitudeDegrees>-8.2226022519171237945556640625</LongitudeDegrees>
            </Position>
            <AltitudeMeters>129</AltitudeMeters>
            <DistanceMeters>146857.30943149</DistanceMeters>
          </Trackpoint>
          <Trackpoint>
            <Time>2018-09-13T15:49:51.000Z</Time>
            <Position>
              <LatitudeDegrees>38.811128251254558563232421875</LatitudeDegrees>
              <LongitudeDegrees>-8.22296309284865856170654296875</LongitudeDegrees>
            </Position>
            <AltitudeMeters>129.399993896484375</AltitudeMeters>
            <DistanceMeters>146889.49726756</DistanceMeters>
          </Trackpoint>
          <Trackpoint>
            <Time>2018-09-13T15:50:01.000Z</Time>
            <Position>
              <LatitudeDegrees>38.81098969839513301849365234375</LatitudeDegrees>
              <LongitudeDegrees>-8.22368427179753780364990234375</LongitudeDegrees>
            </Position>
            <AltitudeMeters>129.8000030517578125</AltitudeMeters>
            <DistanceMeters>146953.91696991</DistanceMeters>
          </Trackpoint>
          <Trackpoint>
            <Time>2018-09-13T15:50:10.000Z</Time>
            <Position>
              <LatitudeDegrees>38.810853660106658935546875</LatitudeDegrees>
              <LongitudeDegrees>-8.2244271598756313323974609375</LongitudeDegrees>
            </Position>
            <AltitudeMeters>128.8000030517578125</AltitudeMeters>
            <DistanceMeters>147020.10189971</DistanceMeters>
          </Trackpoint>
          <Trackpoint>
            <Time>2018-09-13T15:50:17.000Z</Time>
            <Position>
              <LatitudeDegrees>38.81073371507227420806884765625</LatitudeDegrees>
              <LongitudeDegrees>-8.22502537630498409271240234375</LongitudeDegrees>
            </Position>
            <AltitudeMeters>127.1999969482421875</AltitudeMeters>
            <DistanceMeters>147073.67455314</DistanceMeters>
          </Trackpoint>
          <Trackpoint>
            <Time>2018-09-13T15:50:20.000Z</Time>
            <Position>
              <LatitudeDegrees>38.81069096736609935760498046875</LatitudeDegrees>
              <LongitudeDegrees>-8.2252750732004642486572265625</LongitudeDegrees>
            </Position>
            <AltitudeMeters>126.8000030517578125</AltitudeMeters>
            <DistanceMeters>147095.8469554</DistanceMeters>
          </Trackpoint>
          <Trackpoint>
            <Time>2018-09-13T15:50:23.000Z</Time>
            <Position>
              <LatitudeDegrees>38.81064704619348049163818359375</LatitudeDegrees>
              <LongitudeDegrees>-8.22551990859210491180419921875</LongitudeDegrees>
            </Position>
            <AltitudeMeters>126.59999847412109375</AltitudeMeters>
            <DistanceMeters>147117.63689389</DistanceMeters>
          </Trackpoint>
          <Trackpoint>
            <Time>2018-09-13T15:50:28.000Z</Time>
            <Position>
              <LatitudeDegrees>38.810560964047908782958984375</LatitudeDegrees>
              <LongitudeDegrees>-8.22592056356370449066162109375</LongitudeDegrees>
            </Position>
            <AltitudeMeters>124.59999847412109375</AltitudeMeters>
            <DistanceMeters>147153.68184317</DistanceMeters>
          </Trackpoint>
          <Trackpoint>
            <Time>2018-09-13T15:50:36.000Z</Time>
            <Position>
              <LatitudeDegrees>38.81030724383890628814697265625</LatitudeDegrees>
              <LongitudeDegrees>-8.22657586075365543365478515625</LongitudeDegrees>
            </Position>
            <AltitudeMeters>123.40000152587890625</AltitudeMeters>
            <DistanceMeters>147217.1444652</DistanceMeters>
          </Trackpoint>
          <Trackpoint>
            <Time>2018-09-13T15:50:37.000Z</Time>
            <Position>
              <LatitudeDegrees>38.8102595508098602294921875</LatitudeDegrees>
              <LongitudeDegrees>-8.22665716521441936492919921875</LongitudeDegrees>
            </Position>
            <AltitudeMeters>123.1999969482421875</AltitudeMeters>
            <DistanceMeters>147225.97121429</DistanceMeters>
          </Trackpoint>
          <Trackpoint>
            <Time>2018-09-13T15:50:39.000Z</Time>
            <Position>
              <LatitudeDegrees>38.810159973800182342529296875</LatitudeDegrees>
              <LongitudeDegrees>-8.2268253900110721588134765625</LongitudeDegrees>
            </Position>
            <AltitudeMeters>122.40000152587890625</AltitudeMeters>
            <DistanceMeters>147244.29338998</DistanceMeters>
          </Trackpoint>
          <Trackpoint>
            <Time>2018-09-13T15:50:42.000Z</Time>
            <Position>
              <LatitudeDegrees>38.8100002147257328033447265625</LatitudeDegrees>
              <LongitudeDegrees>-8.22708673775196075439453125</LongitudeDegrees>
            </Position>
            <AltitudeMeters>120.8000030517578125</AltitudeMeters>
            <DistanceMeters>147273.10231786</DistanceMeters>
          </Trackpoint>
          <Trackpoint>
            <Time>2018-09-13T15:50:46.000Z</Time>
            <Position>
              <LatitudeDegrees>38.80978119559586048126220703125</LatitudeDegrees>
              <LongitudeDegrees>-8.2274493388831615447998046875</LongitudeDegrees>
            </Position>
            <AltitudeMeters>118.59999847412109375</AltitudeMeters>
            <DistanceMeters>147312.89219438</DistanceMeters>
          </Trackpoint>
          <Trackpoint>
            <Time>2018-09-13T15:50:48.000Z</Time>
            <Position>
              <LatitudeDegrees>38.8096682913601398468017578125</LatitudeDegrees>
              <LongitudeDegrees>-8.2276332378387451171875</LongitudeDegrees>
            </Position>
            <AltitudeMeters>117.40000152587890625</AltitudeMeters>
            <DistanceMeters>147333.19724868</DistanceMeters>
          </Trackpoint>
          <Trackpoint>
            <Time>2018-09-13T15:50:49.000Z</Time>
            <Position>
              <LatitudeDegrees>38.8096123002469539642333984375</LatitudeDegrees>
              <LongitudeDegrees>-8.227726779878139495849609375</LongitudeDegrees>
            </Position>
            <AltitudeMeters>117</AltitudeMeters>
            <DistanceMeters>147343.42752658</DistanceMeters>
          </Trackpoint>
          <Trackpoint>
            <Time>2018-09-13T15:50:51.000Z</Time>
            <Position>
              <LatitudeDegrees>38.80949989892542362213134765625</LatitudeDegrees>
              <LongitudeDegrees>-8.227914534509181976318359375</LongitudeDegrees>
            </Position>
            <AltitudeMeters>116.1999969482421875</AltitudeMeters>
            <DistanceMeters>147363.96253352</DistanceMeters>
          </Trackpoint>
          <Trackpoint>
            <Time>2018-09-13T15:50:54.000Z</Time>
            <Position>
              <LatitudeDegrees>38.80932874046266078948974609375</LatitudeDegrees>
              <LongitudeDegrees>-8.22819189168512821197509765625</LongitudeDegrees>
            </Position>
            <AltitudeMeters>114.8000030517578125</AltitudeMeters>
            <DistanceMeters>147394.64748212</DistanceMeters>
          </Trackpoint>
          <Trackpoint>
            <Time>2018-09-13T15:50:56.000Z</Time>
            <Position>
              <LatitudeDegrees>38.8092143274843692779541015625</LatitudeDegrees>
              <LongitudeDegrees>-8.22837864048779010772705078125</LongitudeDegrees>
            </Position>
            <AltitudeMeters>113.59999847412109375</AltitudeMeters>
            <DistanceMeters>147415.25053611</DistanceMeters>
          </Trackpoint>
          <Trackpoint>
            <Time>2018-09-13T15:50:57.000Z</Time>
            <Position>
              <LatitudeDegrees>38.80915624089539051055908203125</LatitudeDegrees>
              <LongitudeDegrees>-8.22847209870815277099609375</LongitudeDegrees>
            </Position>
            <AltitudeMeters>113.1999969482421875</AltitudeMeters>
            <DistanceMeters>147425.61890435</DistanceMeters>
          </Trackpoint>
          <Trackpoint>
            <Time>2018-09-13T15:50:58.000Z</Time>
            <Position>
              <LatitudeDegrees>38.8090963102877140045166015625</LatitudeDegrees>
              <LongitudeDegrees>-8.2285644672811031341552734375</LongitudeDegrees>
            </Position>
            <AltitudeMeters>112.8000030517578125</AltitudeMeters>
            <DistanceMeters>147436.04329594</DistanceMeters>
          </Trackpoint>
          <Trackpoint>
            <Time>2018-09-13T15:51:01.000Z</Time>
            <Position>
              <LatitudeDegrees>38.8089219667017459869384765625</LatitudeDegrees>
              <LongitudeDegrees>-8.22884970344603061676025390625</LongitudeDegrees>
            </Position>
            <AltitudeMeters>111.59999847412109375</AltitudeMeters>
            <DistanceMeters>147467.4843603</DistanceMeters>
          </Trackpoint>
          <Trackpoint>
            <Time>2018-09-13T15:51:05.000Z</Time>
            <Position>
              <LatitudeDegrees>38.8086963258683681488037109375</LatitudeDegrees>
              <LongitudeDegrees>-8.22923652827739715576171875</LongitudeDegrees>
            </Position>
            <AltitudeMeters>109.59999847412109375</AltitudeMeters>
            <DistanceMeters>147509.39254194</DistanceMeters>
          </Trackpoint>
          <Trackpoint>
            <Time>2018-09-13T15:51:06.000Z</Time>
            <Position>
              <LatitudeDegrees>38.808641172945499420166015625</LatitudeDegrees>
              <LongitudeDegrees>-8.229330740869045257568359375</LongitudeDegrees>
            </Position>
            <AltitudeMeters>109.1999969482421875</AltitudeMeters>
            <DistanceMeters>147519.61310573</DistanceMeters>
          </Trackpoint>
          <Trackpoint>
            <Time>2018-09-13T15:51:09.000Z</Time>
            <Position>
              <LatitudeDegrees>38.8084780611097812652587890625</LatitudeDegrees>
              <LongitudeDegrees>-8.22960575111210346221923828125</LongitudeDegrees>
            </Position>
            <AltitudeMeters>108.1999969482421875</AltitudeMeters>
            <DistanceMeters>147549.58827323</DistanceMeters>
          </Trackpoint>
          <Trackpoint>
            <Time>2018-09-13T15:51:10.000Z</Time>
            <Position>
              <LatitudeDegrees>38.80842433311045169830322265625</LatitudeDegrees>
              <LongitudeDegrees>-8.2296946831047534942626953125</LongitudeDegrees>
            </Position>
            <AltitudeMeters>108</AltitudeMeters>
            <DistanceMeters>147559.34784526</DistanceMeters>
          </Trackpoint>
          <Trackpoint>
            <Time>2018-09-13T15:51:12.000Z</Time>
            <Position>
              <LatitudeDegrees>38.80831821821630001068115234375</LatitudeDegrees>
              <LongitudeDegrees>-8.22987246327102184295654296875</LongitudeDegrees>
            </Position>
            <AltitudeMeters>107.1999969482421875</AltitudeMeters>
            <DistanceMeters>147578.77075708</DistanceMeters>
          </Trackpoint>
          <Trackpoint>
            <Time>2018-09-13T15:51:14.000Z</Time>
            <Position>
              <LatitudeDegrees>38.80820791237056255340576171875</LatitudeDegrees>
              <LongitudeDegrees>-8.230044543743133544921875</LongitudeDegrees>
            </Position>
            <AltitudeMeters>106.40000152587890625</AltitudeMeters>
            <DistanceMeters>147598.09649023</DistanceMeters>
          </Trackpoint>
          <Trackpoint>
            <Time>2018-09-13T15:51:19.000Z</Time>
            <Position>
              <LatitudeDegrees>38.80790029652416706085205078125</LatitudeDegrees>
              <LongitudeDegrees>-8.23042985983192920684814453125</LongitudeDegrees>
            </Position>
            <AltitudeMeters>104.1999969482421875</AltitudeMeters>
            <DistanceMeters>147645.94109618</DistanceMeters>
          </Trackpoint>
          <Trackpoint>
            <Time>2018-09-13T15:51:25.000Z</Time>
            <Position>
              <LatitudeDegrees>38.80741775035858154296875</LatitudeDegrees>
              <LongitudeDegrees>-8.23060168884694576263427734375</LongitudeDegrees>
            </Position>
            <AltitudeMeters>101.8000030517578125</AltitudeMeters>
            <DistanceMeters>147701.67878038</DistanceMeters>
          </Trackpoint>
          <Trackpoint>
            <Time>2018-09-13T15:51:26.000Z</Time>
            <Position>
              <LatitudeDegrees>38.80733518861234188079833984375</LatitudeDegrees>
              <LongitudeDegrees>-8.23060043156147003173828125</LongitudeDegrees>
            </Position>
            <AltitudeMeters>101.40000152587890625</AltitudeMeters>
            <DistanceMeters>147710.86840904</DistanceMeters>
          </Trackpoint>
          <Trackpoint>
            <Time>2018-09-13T15:51:27.000Z</Time>
            <Position>
              <LatitudeDegrees>38.8072546385228633880615234375</LatitudeDegrees>
              <LongitudeDegrees>-8.23059230111539363861083984375</LongitudeDegrees>
            </Position>
            <AltitudeMeters>101.1999969482421875</AltitudeMeters>
            <DistanceMeters>147719.86137099</DistanceMeters>
          </Trackpoint>
          <Trackpoint>
            <Time>2018-09-13T15:51:31.000Z</Time>
            <Position>
              <LatitudeDegrees>38.80695163272321224212646484375</LatitudeDegrees>
              <LongitudeDegrees>-8.23052993975579738616943359375</LongitudeDegrees>
            </Position>
            <AltitudeMeters>100.1999969482421875</AltitudeMeters>
            <DistanceMeters>147754.017626</DistanceMeters>
          </Trackpoint>
          <Trackpoint>
            <Time>2018-09-13T15:51:33.000Z</Time>
            <Position>
              <LatitudeDegrees>38.80681064911186695098876953125</LatitudeDegrees>
              <LongitudeDegrees>-8.23049406521022319793701171875</LongitudeDegrees>
            </Position>
            <AltitudeMeters>100.40000152587890625</AltitudeMeters>
            <DistanceMeters>147770.01488721</DistanceMeters>
          </Trackpoint>
          <Trackpoint>
            <Time>2018-09-13T15:51:36.000Z</Time>
            <Position>
              <LatitudeDegrees>38.80660034716129302978515625</LatitudeDegrees>
              <LongitudeDegrees>-8.23044377379119396209716796875</LongitudeDegrees>
            </Position>
            <AltitudeMeters>101.1999969482421875</AltitudeMeters>
            <DistanceMeters>147793.8247213</DistanceMeters>
          </Trackpoint>
          <Trackpoint>
            <Time>2018-09-13T15:51:42.000Z</Time>
            <Position>
              <LatitudeDegrees>38.8061904720962047576904296875</LatitudeDegrees>
              <LongitudeDegrees>-8.2303275167942047119140625</LongitudeDegrees>
            </Position>
            <AltitudeMeters>104.1999969482421875</AltitudeMeters>
            <DistanceMeters>147840.54559863</DistanceMeters>
          </Trackpoint>
          <Trackpoint>
            <Time>2018-09-13T15:51:46.000Z</Time>
            <Position>
              <LatitudeDegrees>38.805956952273845672607421875</LatitudeDegrees>
              <LongitudeDegrees>-8.230274207890033721923828125</LongitudeDegrees>
            </Position>
            <AltitudeMeters>105.8000030517578125</AltitudeMeters>
            <DistanceMeters>147866.94490241</DistanceMeters>
          </Trackpoint>
          <Trackpoint>
            <Time>2018-09-13T15:51:48.000Z</Time>
            <Position>
              <LatitudeDegrees>38.805859051644802093505859375</LatitudeDegrees>
              <LongitudeDegrees>-8.23025182820856571197509765625</LongitudeDegrees>
            </Position>
            <AltitudeMeters>106.59999847412109375</AltitudeMeters>
            <DistanceMeters>147878.01296534</DistanceMeters>
          </Trackpoint>
          <Trackpoint>
            <Time>2018-09-13T15:51:52.000Z</Time>
            <Position>
              <LatitudeDegrees>38.80568713881075382232666015625</LatitudeDegrees>
              <LongitudeDegrees>-8.23021075688302516937255859375</LongitudeDegrees>
            </Position>
            <AltitudeMeters>108</AltitudeMeters>
            <DistanceMeters>147897.47605108</DistanceMeters>
          </Trackpoint>
          <Trackpoint>
            <Time>2018-09-13T15:51:54.000Z</Time>
            <Position>
              <LatitudeDegrees>38.80561136640608310699462890625</LatitudeDegrees>
              <LongitudeDegrees>-8.23018762283027172088623046875</LongitudeDegrees>
            </Position>
            <AltitudeMeters>108.8000030517578125</AltitudeMeters>
            <DistanceMeters>147906.1453836</DistanceMeters>
          </Trackpoint>
          <Trackpoint>
            <Time>2018-09-13T15:51:57.000Z</Time>
            <Position>
              <LatitudeDegrees>38.8055055029690265655517578125</LatitudeDegrees>
              <LongitudeDegrees>-8.2301590405404567718505859375</LongitudeDegrees>
            </Position>
            <AltitudeMeters>109.8000030517578125</AltitudeMeters>
            <DistanceMeters>147918.18643452</DistanceMeters>
          </Trackpoint>
          <Trackpoint>
            <Time>2018-09-13T15:51:59.000Z</Time>
            <Position>
              <LatitudeDegrees>38.80543836392462253570556640625</LatitudeDegrees>
              <LongitudeDegrees>-8.2301406003534793853759765625</LongitudeDegrees>
            </Position>
            <AltitudeMeters>110.1999969482421875</AltitudeMeters>
            <DistanceMeters>147925.82826051</DistanceMeters>
          </Trackpoint>
          <Trackpoint>
            <Time>2018-09-13T15:52:03.000Z</Time>
            <Position>
              <LatitudeDegrees>38.805303834378719329833984375</LatitudeDegrees>
              <LongitudeDegrees>-8.2301161251962184906005859375</LongitudeDegrees>
            </Position>
            <AltitudeMeters>111.40000152587890625</AltitudeMeters>
            <DistanceMeters>147940.9515464</DistanceMeters>
          </Trackpoint>
          <Trackpoint>
            <Time>2018-09-13T15:52:04.000Z</Time>
            <Position>
              <LatitudeDegrees>38.80527022294700145721435546875</LatitudeDegrees>
              <LongitudeDegrees>-8.2301080785691738128662109375</LongitudeDegrees>
            </Position>
            <AltitudeMeters>111.59999847412109375</AltitudeMeters>
            <DistanceMeters>147944.75736334</DistanceMeters>
          </Trackpoint>
          <Trackpoint>
            <Time>2018-09-13T15:52:08.000Z</Time>
            <Position>
              <LatitudeDegrees>38.8051392138004302978515625</LatitudeDegrees>
              <LongitudeDegrees>-8.2300789095461368560791015625</LongitudeDegrees>
            </Position>
            <AltitudeMeters>112.59999847412109375</AltitudeMeters>
            <DistanceMeters>147959.55683983</DistanceMeters>
          </Trackpoint>
          <Trackpoint>
            <Time>2018-09-13T15:52:11.000Z</Time>
            <Position>
              <LatitudeDegrees>38.80504173226654529571533203125</LatitudeDegrees>
              <LongitudeDegrees>-8.2300527580082416534423828125</LongitudeDegrees>
            </Position>
            <AltitudeMeters>113.1999969482421875</AltitudeMeters>
            <DistanceMeters>147970.64161543</DistanceMeters>
          </Trackpoint>
          <Trackpoint>
            <Time>2018-09-13T15:52:15.000Z</Time>
            <Position>
              <LatitudeDegrees>38.804915584623813629150390625</LatitudeDegrees>
              <LongitudeDegrees>-8.2300190627574920654296875</LongitudeDegrees>
            </Position>
            <AltitudeMeters>114</AltitudeMeters>
            <DistanceMeters>147984.98278069</DistanceMeters>
          </Trackpoint>
          <Trackpoint>
            <Time>2018-09-13T15:52:16.000Z</Time>
            <Position>
              <LatitudeDegrees>38.8048842363059520721435546875</LatitudeDegrees>
              <LongitudeDegrees>-8.230010010302066802978515625</LongitudeDegrees>
            </Position>
            <AltitudeMeters>114.1999969482421875</AltitudeMeters>
            <DistanceMeters>147988.55735174</DistanceMeters>
          </Trackpoint>
          <Trackpoint>
            <Time>2018-09-13T15:52:20.000Z</Time>
            <Position>
              <LatitudeDegrees>38.80475909449160099029541015625</LatitudeDegrees>
              <LongitudeDegrees>-8.2299815118312835693359375</LongitudeDegrees>
            </Position>
            <AltitudeMeters>115</AltitudeMeters>
            <DistanceMeters>148002.70357117</DistanceMeters>
          </Trackpoint>
          <Trackpoint>
            <Time>2018-09-13T15:52:26.000Z</Time>
            <Position>
              <LatitudeDegrees>38.804578967392444610595703125</LatitudeDegrees>
              <LongitudeDegrees>-8.22991001419723033905029296875</LongitudeDegrees>
            </Position>
            <AltitudeMeters>116.1999969482421875</AltitudeMeters>
            <DistanceMeters>148023.68920502</DistanceMeters>
          </Trackpoint>
          <Trackpoint>
            <Time>2018-09-13T15:52:33.000Z</Time>
            <Position>
              <LatitudeDegrees>38.8043789751827716827392578125</LatitudeDegrees>
              <LongitudeDegrees>-8.2297956012189388275146484375</LongitudeDegrees>
            </Position>
            <AltitudeMeters>117.8000030517578125</AltitudeMeters>
            <DistanceMeters>148048.06073222</DistanceMeters>
          </Trackpoint>
          <Trackpoint>
            <Time>2018-09-13T15:52:39.000Z</Time>
            <Position>
              <LatitudeDegrees>38.80423505790531635284423828125</LatitudeDegrees>
              <LongitudeDegrees>-8.22964615188539028167724609375</LongitudeDegrees>
            </Position>
            <AltitudeMeters>118.8000030517578125</AltitudeMeters>
            <DistanceMeters>148068.666854</DistanceMeters>
          </Trackpoint>
          <Trackpoint>
            <Time>2018-09-13T15:52:45.000Z</Time>
            <Position>
              <LatitudeDegrees>38.80409323610365390777587890625</LatitudeDegrees>
              <LongitudeDegrees>-8.22948505170643329620361328125</LongitudeDegrees>
            </Position>
            <AltitudeMeters>120.40000152587890625</AltitudeMeters>
            <DistanceMeters>148089.74822592</DistanceMeters>
          </Trackpoint>
          <Trackpoint>
            <Time>2018-09-13T15:52:54.000Z</Time>
            <Position>
              <LatitudeDegrees>38.8038898073136806488037109375</LatitudeDegrees>
              <LongitudeDegrees>-8.2292336784303188323974609375</LongitudeDegrees>
            </Position>
            <AltitudeMeters>123.8000030517578125</AltitudeMeters>
            <DistanceMeters>148121.18153476</DistanceMeters>
          </Trackpoint>
          <Trackpoint>
            <Time>2018-09-13T15:52:59.000Z</Time>
            <Position>
              <LatitudeDegrees>38.8037717901170253753662109375</LatitudeDegrees>
              <LongitudeDegrees>-8.22909311391413211822509765625</LongitudeDegrees>
            </Position>
            <AltitudeMeters>124.8000030517578125</AltitudeMeters>
            <DistanceMeters>148139.10358316</DistanceMeters>
          </Trackpoint>
          <Trackpoint>
            <Time>2018-09-13T15:53:05.000Z</Time>
            <Position>
              <LatitudeDegrees>38.80363021977245807647705078125</LatitudeDegrees>
              <LongitudeDegrees>-8.228931091725826263427734375</LongitudeDegrees>
            </Position>
            <AltitudeMeters>125.59999847412109375</AltitudeMeters>
            <DistanceMeters>148160.21705644</DistanceMeters>
          </Trackpoint>
          <Trackpoint>
            <Time>2018-09-13T15:53:12.000Z</Time>
            <Position>
              <LatitudeDegrees>38.803444392979145050048828125</LatitudeDegrees>
              <LongitudeDegrees>-8.22878013364970684051513671875</LongitudeDegrees>
            </Position>
            <AltitudeMeters>127</AltitudeMeters>
            <DistanceMeters>148184.69598233</DistanceMeters>
          </Trackpoint>
          <Trackpoint>
            <Time>2018-09-13T15:53:17.000Z</Time>
            <Position>
              <LatitudeDegrees>38.80330533720552921295166015625</LatitudeDegrees>
              <LongitudeDegrees>-8.22869732044637203216552734375</LongitudeDegrees>
            </Position>
            <AltitudeMeters>128.1999969482421875</AltitudeMeters>
            <DistanceMeters>148201.75876916</DistanceMeters>
          </Trackpoint>
          <Trackpoint>
            <Time>2018-09-13T15:53:25.000Z</Time>
            <Position>
              <LatitudeDegrees>38.8031146489083766937255859375</LatitudeDegrees>
              <LongitudeDegrees>-8.22861559689044952392578125</LongitudeDegrees>
            </Position>
            <AltitudeMeters>129.399993896484375</AltitudeMeters>
            <DistanceMeters>148224.13508876</DistanceMeters>
          </Trackpoint>
          <Trackpoint>
            <Time>2018-09-13T15:53:30.000Z</Time>
            <Position>
              <LatitudeDegrees>38.80302756093442440032958984375</LatitudeDegrees>
              <LongitudeDegrees>-8.22853915393352508544921875</LongitudeDegrees>
            </Position>
            <AltitudeMeters>129.8000030517578125</AltitudeMeters>
            <DistanceMeters>148235.87925274</DistanceMeters>
          </Trackpoint>
          <Trackpoint>
            <Time>2018-09-13T15:53:35.000Z</Time>
            <Position>
              <LatitudeDegrees>38.80297601222991943359375</LatitudeDegrees>
              <LongitudeDegrees>-8.228489197790622711181640625</LongitudeDegrees>
            </Position>
            <AltitudeMeters>130</AltitudeMeters>
            <DistanceMeters>148243.06870039</DistanceMeters>
          </Trackpoint>
          <Trackpoint>
            <Time>2018-09-13T16:07:55.000Z</Time>
            <Position>
              <LatitudeDegrees>38.80290401168167591094970703125</LatitudeDegrees>
              <LongitudeDegrees>-8.22850855998694896697998046875</LongitudeDegrees>
            </Position>
            <AltitudeMeters>130.600006103515625</AltitudeMeters>
            <DistanceMeters>148251.25645268</DistanceMeters>
          </Trackpoint>
          <Trackpoint>
            <Time>2018-09-13T16:07:56.000Z</Time>
            <Position>
              <LatitudeDegrees>38.8028836436569690704345703125</LatitudeDegrees>
              <LongitudeDegrees>-8.22850696742534637451171875</LongitudeDegrees>
            </Position>
            <AltitudeMeters>130.8000030517578125</AltitudeMeters>
            <DistanceMeters>148253.52717364</DistanceMeters>
          </Trackpoint>
          <Trackpoint>
            <Time>2018-09-13T16:07:59.000Z</Time>
            <Position>
              <LatitudeDegrees>38.8028209470212459564208984375</LatitudeDegrees>
              <LongitudeDegrees>-8.22849933989346027374267578125</LongitudeDegrees>
            </Position>
            <AltitudeMeters>131.399993896484375</AltitudeMeters>
            <DistanceMeters>148260.53728605</DistanceMeters>
          </Trackpoint>
          <Trackpoint>
            <Time>2018-09-13T16:08:07.000Z</Time>
            <Position>
              <LatitudeDegrees>38.8026234693825244903564453125</LatitudeDegrees>
              <LongitudeDegrees>-8.22844753973186016082763671875</LongitudeDegrees>
            </Position>
            <AltitudeMeters>132.600006103515625</AltitudeMeters>
            <DistanceMeters>148282.9716423</DistanceMeters>
          </Trackpoint>
          <Trackpoint>
            <Time>2018-09-13T16:08:11.000Z</Time>
            <Position>
              <LatitudeDegrees>38.80252045579254627227783203125</LatitudeDegrees>
              <LongitudeDegrees>-8.22840102016925811767578125</LongitudeDegrees>
            </Position>
            <AltitudeMeters>133.399993896484375</AltitudeMeters>
            <DistanceMeters>148295.12689264</DistanceMeters>
          </Trackpoint>
          <Trackpoint>
            <Time>2018-09-13T16:08:16.000Z</Time>
            <Position>
              <LatitudeDegrees>38.8024006783962249755859375</LatitudeDegrees>
              <LongitudeDegrees>-8.22835148312151432037353515625</LongitudeDegrees>
            </Position>
            <AltitudeMeters>134.1999969482421875</AltitudeMeters>
            <DistanceMeters>148309.13358536</DistanceMeters>
          </Trackpoint>
          <Trackpoint>
            <Time>2018-09-13T16:08:19.000Z</Time>
            <Position>
              <LatitudeDegrees>38.80232582800090312957763671875</LatitudeDegrees>
              <LongitudeDegrees>-8.22832516394555568695068359375</LongitudeDegrees>
            </Position>
            <AltitudeMeters>134.600006103515625</AltitudeMeters>
            <DistanceMeters>148317.77213568</DistanceMeters>
          </Trackpoint>
          <Trackpoint>
            <Time>2018-09-13T16:08:22.000Z</Time>
            <Position>
              <LatitudeDegrees>38.802249468863010406494140625</LatitudeDegrees>
              <LongitudeDegrees>-8.22829247452318668365478515625</LongitudeDegrees>
            </Position>
            <AltitudeMeters>135.1999969482421875</AltitudeMeters>
            <DistanceMeters>148326.73190017</DistanceMeters>
          </Trackpoint>
          <Trackpoint>
            <Time>2018-09-13T16:08:27.000Z</Time>
            <Position>
              <LatitudeDegrees>38.80211971700191497802734375</LatitudeDegrees>
              <LongitudeDegrees>-8.22823832742869853973388671875</LongitudeDegrees>
            </Position>
            <AltitudeMeters>136</AltitudeMeters>
            <DistanceMeters>148341.9183465</DistanceMeters>
          </Trackpoint>
          <Trackpoint>
            <Time>2018-09-13T16:08:33.000Z</Time>
            <Position>
              <LatitudeDegrees>38.80196414887905120849609375</LatitudeDegrees>
              <LongitudeDegrees>-8.22819625027477741241455078125</LongitudeDegrees>
            </Position>
            <AltitudeMeters>136.8000030517578125</AltitudeMeters>
            <DistanceMeters>148359.61399458</DistanceMeters>
          </Trackpoint>
          <Trackpoint>
            <Time>2018-09-13T16:08:38.000Z</Time>
            <Position>
              <LatitudeDegrees>38.80183163098990917205810546875</LatitudeDegrees>
              <LongitudeDegrees>-8.2281691767275333404541015625</LongitudeDegrees>
            </Position>
            <AltitudeMeters>137.600006103515625</AltitudeMeters>
            <DistanceMeters>148374.54982427</DistanceMeters>
          </Trackpoint>
          <Trackpoint>
            <Time>2018-09-13T16:08:44.000Z</Time>
            <Position>
              <LatitudeDegrees>38.80166382528841495513916015625</LatitudeDegrees>
              <LongitudeDegrees>-8.2281611301004886627197265625</LongitudeDegrees>
            </Position>
            <AltitudeMeters>138.8000030517578125</AltitudeMeters>
            <DistanceMeters>148393.24015619</DistanceMeters>
          </Trackpoint>
          <Trackpoint>
            <Time>2018-09-13T16:08:54.000Z</Time>
            <Position>
              <LatitudeDegrees>38.80137414671480655670166015625</LatitudeDegrees>
              <LongitudeDegrees>-8.22816657833755016326904296875</LongitudeDegrees>
            </Position>
            <AltitudeMeters>141</AltitudeMeters>
            <DistanceMeters>148425.48545231</DistanceMeters>
          </Trackpoint>
          <Trackpoint>
            <Time>2018-09-13T16:09:00.000Z</Time>
            <Position>
              <LatitudeDegrees>38.80119158886373043060302734375</LatitudeDegrees>
              <LongitudeDegrees>-8.2281696796417236328125</LongitudeDegrees>
            </Position>
            <AltitudeMeters>141.600006103515625</AltitudeMeters>
            <DistanceMeters>148445.80606587</DistanceMeters>
          </Trackpoint>
          <Trackpoint>
            <Time>2018-09-13T16:09:03.000Z</Time>
            <Position>
              <LatitudeDegrees>38.8010971248149871826171875</LatitudeDegrees>
              <LongitudeDegrees>-8.22817009873688220977783203125</LongitudeDegrees>
            </Position>
            <AltitudeMeters>141.8000030517578125</AltitudeMeters>
            <DistanceMeters>148456.32016098</DistanceMeters>
          </Trackpoint>
          <Trackpoint>
            <Time>2018-09-13T16:09:08.000Z</Time>
            <Position>
              <LatitudeDegrees>38.80094180814921855926513671875</LatitudeDegrees>
              <LongitudeDegrees>-8.22816456668078899383544921875</LongitudeDegrees>
            </Position>
            <AltitudeMeters>142</AltitudeMeters>
            <DistanceMeters>148473.61397871</DistanceMeters>
          </Trackpoint>
          <Trackpoint>
            <Time>2018-09-13T16:09:16.000Z</Time>
            <Position>
              <LatitudeDegrees>38.8006976433098316192626953125</LatitudeDegrees>
              <LongitudeDegrees>-8.22817630134522914886474609375</LongitudeDegrees>
            </Position>
            <AltitudeMeters>142.399993896484375</AltitudeMeters>
            <DistanceMeters>148500.80905714</DistanceMeters>
          </Trackpoint>
          <Trackpoint>
            <Time>2018-09-13T16:09:22.000Z</Time>
            <Position>
              <LatitudeDegrees>38.8005192764103412628173828125</LatitudeDegrees>
              <LongitudeDegrees>-8.2281745411455631256103515625</LongitudeDegrees>
            </Position>
            <AltitudeMeters>142.600006103515625</AltitudeMeters>
            <DistanceMeters>148520.66213692</DistanceMeters>
          </Trackpoint>
          <Trackpoint>
            <Time>2018-09-13T16:09:29.000Z</Time>
            <Position>
              <LatitudeDegrees>38.80028382875025272369384765625</LatitudeDegrees>
              <LongitudeDegrees>-8.2281576097011566162109375</LongitudeDegrees>
            </Position>
            <AltitudeMeters>142.1999969482421875</AltitudeMeters>
            <DistanceMeters>148546.90912783</DistanceMeters>
          </Trackpoint>
          <Trackpoint>
            <Time>2018-09-13T16:09:35.000Z</Time>
            <Position>
              <LatitudeDegrees>38.80004595033824443817138671875</LatitudeDegrees>
              <LongitudeDegrees>-8.2281678356230258941650390625</LongitudeDegrees>
            </Position>
            <AltitudeMeters>142.600006103515625</AltitudeMeters>
            <DistanceMeters>148573.40028524</DistanceMeters>
          </Trackpoint>
          <Trackpoint>
            <Time>2018-09-13T16:09:39.000Z</Time>
            <Position>
              <LatitudeDegrees>38.7999818287789821624755859375</LatitudeDegrees>
              <LongitudeDegrees>-8.22821033187210559844970703125</LongitudeDegrees>
            </Position>
            <AltitudeMeters>143.1999969482421875</AltitudeMeters>
            <DistanceMeters>148581.43271303</DistanceMeters>
          </Trackpoint>
          <Trackpoint>
            <Time>2018-09-13T16:09:42.000Z</Time>
            <Position>
              <LatitudeDegrees>38.7999684177339076995849609375</LatitudeDegrees>
              <LongitudeDegrees>-8.22820748202502727508544921875</LongitudeDegrees>
            </Position>
            <AltitudeMeters>143.1999969482421875</AltitudeMeters>
            <DistanceMeters>148582.94718964</DistanceMeters>
          </Trackpoint>
          <Trackpoint>
            <Time>2018-09-13T16:11:37.000Z</Time>
            <Position>
              <LatitudeDegrees>38.799907900393009185791015625</LatitudeDegrees>
              <LongitudeDegrees>-8.22819457389414310455322265625</LongitudeDegrees>
            </Position>
            <AltitudeMeters>143.1999969482421875</AltitudeMeters>
            <DistanceMeters>148589.77590217</DistanceMeters>
          </Trackpoint>
          <Trackpoint>
            <Time>2018-09-13T16:11:38.000Z</Time>
            <Position>
              <LatitudeDegrees>38.79987847991287708282470703125</LatitudeDegrees>
              <LongitudeDegrees>-8.2281980104744434356689453125</LongitudeDegrees>
            </Position>
            <AltitudeMeters>143.399993896484375</AltitudeMeters>
            <DistanceMeters>148593.06497979</DistanceMeters>
          </Trackpoint>
          <Trackpoint>
            <Time>2018-09-13T16:11:41.000Z</Time>
            <Position>
              <LatitudeDegrees>38.79977571777999401092529296875</LatitudeDegrees>
              <LongitudeDegrees>-8.228207565844058990478515625</LongitudeDegrees>
            </Position>
            <AltitudeMeters>143.600006103515625</AltitudeMeters>
            <DistanceMeters>148604.53214915</DistanceMeters>
          </Trackpoint>
          <Trackpoint>
            <Time>2018-09-13T16:11:45.000Z</Time>
            <Position>
              <LatitudeDegrees>38.799625933170318603515625</LatitudeDegrees>
              <LongitudeDegrees>-8.2282452844083309173583984375</LongitudeDegrees>
            </Position>
            <AltitudeMeters>144.399993896484375</AltitudeMeters>
            <DistanceMeters>148621.52201153</DistanceMeters>
          </Trackpoint>
          <Trackpoint>
            <Time>2018-09-13T16:11:49.000Z</Time>
            <Position>
              <LatitudeDegrees>38.7994752265512943267822265625</LatitudeDegrees>
              <LongitudeDegrees>-8.2282959111034870147705078125</LongitudeDegrees>
            </Position>
            <AltitudeMeters>146.1999969482421875</AltitudeMeters>
            <DistanceMeters>148638.86145775</DistanceMeters>
          </Trackpoint>
          <Trackpoint>
            <Time>2018-09-13T16:11:52.000Z</Time>
            <Position>
              <LatitudeDegrees>38.79936550743877887725830078125</LatitudeDegrees>
              <LongitudeDegrees>-8.22833254002034664154052734375</LongitudeDegrees>
            </Position>
            <AltitudeMeters>147.8000030517578125</AltitudeMeters>
            <DistanceMeters>148651.47963146</DistanceMeters>
          </Trackpoint>
          <Trackpoint>
            <Time>2018-09-13T16:11:56.000Z</Time>
            <Position>
              <LatitudeDegrees>38.79922016523778438568115234375</LatitudeDegrees>
              <LongitudeDegrees>-8.2283864356577396392822265625</LongitudeDegrees>
            </Position>
            <AltitudeMeters>148.600006103515625</AltitudeMeters>
            <DistanceMeters>148668.31840815</DistanceMeters>
          </Trackpoint>
          <Trackpoint>
            <Time>2018-09-13T16:12:00.000Z</Time>
            <Position>
              <LatitudeDegrees>38.79907633177936077117919921875</LatitudeDegrees>
              <LongitudeDegrees>-8.2284434325993061065673828125</LongitudeDegrees>
            </Position>
            <AltitudeMeters>149.1999969482421875</AltitudeMeters>
            <DistanceMeters>148685.07331837</DistanceMeters>
          </Trackpoint>
          <Trackpoint>
            <Time>2018-09-13T16:12:04.000Z</Time>
            <Position>
              <LatitudeDegrees>38.79893870092928409576416015625</LatitudeDegrees>
              <LongitudeDegrees>-8.228497244417667388916015625</LongitudeDegrees>
            </Position>
            <AltitudeMeters>150.1999969482421875</AltitudeMeters>
            <DistanceMeters>148701.08750492</DistanceMeters>
          </Trackpoint>
          <Trackpoint>
            <Time>2018-09-13T16:12:06.000Z</Time>
            <Position>
              <LatitudeDegrees>38.79887424409389495849609375</LatitudeDegrees>
              <LongitudeDegrees>-8.228520713746547698974609375</LongitudeDegrees>
            </Position>
            <AltitudeMeters>150.8000030517578125</AltitudeMeters>
            <DistanceMeters>148708.54574003</DistanceMeters>
          </Trackpoint>
          <Trackpoint>
            <Time>2018-09-13T16:12:12.000Z</Time>
            <Position>
              <LatitudeDegrees>38.79868607036769390106201171875</LatitudeDegrees>
              <LongitudeDegrees>-8.22858550585806369781494140625</LongitudeDegrees>
            </Position>
            <AltitudeMeters>152.1999969482421875</AltitudeMeters>
            <DistanceMeters>148730.23099449</DistanceMeters>
          </Trackpoint>
          <Trackpoint>
            <Time>2018-09-13T16:12:20.000Z</Time>
            <Position>
              <LatitudeDegrees>38.7984533049166202545166015625</LatitudeDegrees>
              <LongitudeDegrees>-8.22865205816924571990966796875</LongitudeDegrees>
            </Position>
            <AltitudeMeters>153.1999969482421875</AltitudeMeters>
            <DistanceMeters>148756.77374367</DistanceMeters>
          </Trackpoint>
          <Trackpoint>
            <Time>2018-09-13T16:12:26.000Z</Time>
            <Position>
              <LatitudeDegrees>38.79827267490327358245849609375</LatitudeDegrees>
              <LongitudeDegrees>-8.228664882481098175048828125</LongitudeDegrees>
            </Position>
            <AltitudeMeters>153.399993896484375</AltitudeMeters>
            <DistanceMeters>148776.9086465</DistanceMeters>
          </Trackpoint>
          <Trackpoint>
            <Time>2018-09-13T16:12:35.000Z</Time>
            <Position>
              <LatitudeDegrees>38.79798802547156810760498046875</LatitudeDegrees>
              <LongitudeDegrees>-8.22866178117692470550537109375</LongitudeDegrees>
            </Position>
            <AltitudeMeters>154.600006103515625</AltitudeMeters>
            <DistanceMeters>148808.59175584</DistanceMeters>
          </Trackpoint>
          <Trackpoint>
            <Time>2018-09-13T16:12:41.000Z</Time>
            <Position>
              <LatitudeDegrees>38.79779892973601818084716796875</LatitudeDegrees>
              <LongitudeDegrees>-8.22864049114286899566650390625</LongitudeDegrees>
            </Position>
            <AltitudeMeters>155.1999969482421875</AltitudeMeters>
            <DistanceMeters>148829.71933826</DistanceMeters>
          </Trackpoint>
          <Trackpoint>
            <Time>2018-09-13T16:12:42.000Z</Time>
            <Position>
              <LatitudeDegrees>38.7977669946849346160888671875</LatitudeDegrees>
              <LongitudeDegrees>-8.22863931767642498016357421875</LongitudeDegrees>
            </Position>
            <AltitudeMeters>155.399993896484375</AltitudeMeters>
            <DistanceMeters>148833.27491234</DistanceMeters>
          </Trackpoint>
          <Trackpoint>
            <Time>2018-09-13T16:12:52.000Z</Time>
            <Position>
              <LatitudeDegrees>38.79744462668895721435546875</LatitudeDegrees>
              <LongitudeDegrees>-8.22861651889979839324951171875</LongitudeDegrees>
            </Position>
            <AltitudeMeters>157.399993896484375</AltitudeMeters>
            <DistanceMeters>148869.20958823</DistanceMeters>
          </Trackpoint>
          <Trackpoint>
            <Time>2018-09-13T16:12:59.000Z</Time>
            <Position>
              <LatitudeDegrees>38.7972312234342098236083984375</LatitudeDegrees>
              <LongitudeDegrees>-8.2285956479609012603759765625</LongitudeDegrees>
            </Position>
            <AltitudeMeters>158.399993896484375</AltitudeMeters>
            <DistanceMeters>148893.03079735</DistanceMeters>
          </Trackpoint>
          <Trackpoint>
            <Time>2018-09-13T16:13:08.000Z</Time>
            <Position>
              <LatitudeDegrees>38.7969499267637729644775390625</LatitudeDegrees>
              <LongitudeDegrees>-8.2285651378333568572998046875</LongitudeDegrees>
            </Position>
            <AltitudeMeters>159.600006103515625</AltitudeMeters>
            <DistanceMeters>148924.45146344</DistanceMeters>
          </Trackpoint>
          <Trackpoint>
            <Time>2018-09-13T16:13:15.000Z</Time>
            <Position>
              <LatitudeDegrees>38.79672445356845855712890625</LatitudeDegrees>
              <LongitudeDegrees>-8.22854812256991863250732421875</LongitudeDegrees>
            </Position>
            <AltitudeMeters>160.8000030517578125</AltitudeMeters>
            <DistanceMeters>148949.59029535</DistanceMeters>
          </Trackpoint>
          <Trackpoint>
            <Time>2018-09-13T16:13:22.000Z</Time>
            <Position>
              <LatitudeDegrees>38.7964959628880023956298828125</LatitudeDegrees>
              <LongitudeDegrees>-8.22852951474487781524658203125</LongitudeDegrees>
            </Position>
            <AltitudeMeters>161.1999969482421875</AltitudeMeters>
            <DistanceMeters>148975.07305143</DistanceMeters>
          </Trackpoint>
          <Trackpoint>
            <Time>2018-09-13T16:13:33.000Z</Time>
            <Position>
              <LatitudeDegrees>38.79613109864294528961181640625</LatitudeDegrees>
              <LongitudeDegrees>-8.2284987531602382659912109375</LongitudeDegrees>
            </Position>
            <AltitudeMeters>162</AltitudeMeters>
            <DistanceMeters>149015.7706757</DistanceMeters>
          </Trackpoint>
          <Trackpoint>
            <Time>2018-09-13T16:13:41.000Z</Time>
            <Position>
              <LatitudeDegrees>38.79587193019688129425048828125</LatitudeDegrees>
              <LongitudeDegrees>-8.22847402654588222503662109375</LongitudeDegrees>
            </Position>
            <AltitudeMeters>162.8000030517578125</AltitudeMeters>
            <DistanceMeters>149044.69643918</DistanceMeters>
          </Trackpoint>
          <Trackpoint>
            <Time>2018-09-13T16:13:47.000Z</Time>
            <Position>
              <LatitudeDegrees>38.79567914642393589019775390625</LatitudeDegrees>
              <LongitudeDegrees>-8.22846245951950550079345703125</LongitudeDegrees>
            </Position>
            <AltitudeMeters>163.8000030517578125</AltitudeMeters>
            <DistanceMeters>149066.17710132</DistanceMeters>
          </Trackpoint>
          <Trackpoint>
            <Time>2018-09-13T16:13:58.000Z</Time>
            <Position>
              <LatitudeDegrees>38.7953223288059234619140625</LatitudeDegrees>
              <LongitudeDegrees>-8.2284427620470523834228515625</LongitudeDegrees>
            </Position>
            <AltitudeMeters>165.600006103515625</AltitudeMeters>
            <DistanceMeters>149105.92826504</DistanceMeters>
          </Trackpoint>
          <Trackpoint>
            <Time>2018-09-13T16:14:06.000Z</Time>
            <Position>
              <LatitudeDegrees>38.795039691030979156494140625</LatitudeDegrees>
              <LongitudeDegrees>-8.2284216396510601043701171875</LongitudeDegrees>
            </Position>
            <AltitudeMeters>166.600006103515625</AltitudeMeters>
            <DistanceMeters>149137.43975971</DistanceMeters>
          </Trackpoint>
          <Trackpoint>
            <Time>2018-09-13T16:14:16.000Z</Time>
            <Position>
              <LatitudeDegrees>38.79466678015887737274169921875</LatitudeDegrees>
              <LongitudeDegrees>-8.22838081978261470794677734375</LongitudeDegrees>
            </Position>
            <AltitudeMeters>167.399993896484375</AltitudeMeters>
            <DistanceMeters>149179.09637587</DistanceMeters>
          </Trackpoint>
          <Trackpoint>
            <Time>2018-09-13T16:14:26.000Z</Time>
            <Position>
              <LatitudeDegrees>38.79435715265572071075439453125</LatitudeDegrees>
              <LongitudeDegrees>-8.2283627986907958984375</LongitudeDegrees>
            </Position>
            <AltitudeMeters>168.399993896484375</AltitudeMeters>
            <DistanceMeters>149213.59408354</DistanceMeters>
          </Trackpoint>
          <Trackpoint>
            <Time>2018-09-13T16:14:31.000Z</Time>
            <Position>
              <LatitudeDegrees>38.79421256482601165771484375</LatitudeDegrees>
              <LongitudeDegrees>-8.228345699608325958251953125</LongitudeDegrees>
            </Position>
            <AltitudeMeters>169.1999969482421875</AltitudeMeters>
            <DistanceMeters>149229.75533136</DistanceMeters>
          </Trackpoint>
          <Trackpoint>
            <Time>2018-09-13T16:14:35.000Z</Time>
            <Position>
              <LatitudeDegrees>38.79409111104905605316162109375</LatitudeDegrees>
              <LongitudeDegrees>-8.22832189500331878662109375</LongitudeDegrees>
            </Position>
            <AltitudeMeters>169.8000030517578125</AltitudeMeters>
            <DistanceMeters>149243.43059674</DistanceMeters>
          </Trackpoint>
          <Trackpoint>
            <Time>2018-09-13T16:14:39.000Z</Time>
            <Position>
              <LatitudeDegrees>38.7939709983766078948974609375</LatitudeDegrees>
              <LongitudeDegrees>-8.22829415090382099151611328125</LongitudeDegrees>
            </Position>
            <AltitudeMeters>170.600006103515625</AltitudeMeters>
            <DistanceMeters>149257.01443206</DistanceMeters>
          </Trackpoint>
          <Trackpoint>
            <Time>2018-09-13T16:14:43.000Z</Time>
            <Position>
              <LatitudeDegrees>38.79385046660900115966796875</LatitudeDegrees>
              <LongitudeDegrees>-8.2282757945358753204345703125</LongitudeDegrees>
            </Position>
            <AltitudeMeters>171.1999969482421875</AltitudeMeters>
            <DistanceMeters>149270.5242768</DistanceMeters>
          </Trackpoint>
          <Trackpoint>
            <Time>2018-09-13T16:14:50.000Z</Time>
            <Position>
              <LatitudeDegrees>38.79363915883004665374755859375</LatitudeDegrees>
              <LongitudeDegrees>-8.2282369025051593780517578125</LongitudeDegrees>
            </Position>
            <AltitudeMeters>171.399993896484375</AltitudeMeters>
            <DistanceMeters>149294.28437611</DistanceMeters>
          </Trackpoint>
          <Trackpoint>
            <Time>2018-09-13T16:14:55.000Z</Time>
            <Position>
              <LatitudeDegrees>38.79348493181169033050537109375</LatitudeDegrees>
              <LongitudeDegrees>-8.22820999659597873687744140625</LongitudeDegrees>
            </Position>
            <AltitudeMeters>171.1999969482421875</AltitudeMeters>
            <DistanceMeters>149311.60819182</DistanceMeters>
          </Trackpoint>
          <Trackpoint>
            <Time>2018-09-13T16:15:02.000Z</Time>
            <Position>
              <LatitudeDegrees>38.7932582013309001922607421875</LatitudeDegrees>
              <LongitudeDegrees>-8.22816305793821811676025390625</LongitudeDegrees>
            </Position>
            <AltitudeMeters>171.399993896484375</AltitudeMeters>
            <DistanceMeters>149337.17020135</DistanceMeters>
          </Trackpoint>
          <Trackpoint>
            <Time>2018-09-13T16:15:11.000Z</Time>
            <Position>
              <LatitudeDegrees>38.79287037067115306854248046875</LatitudeDegrees>
              <LongitudeDegrees>-8.228107988834381103515625</LongitudeDegrees>
            </Position>
            <AltitudeMeters>172</AltitudeMeters>
            <DistanceMeters>149380.60000894</DistanceMeters>
          </Trackpoint>
          <Trackpoint>
            <Time>2018-09-13T16:15:16.000Z</Time>
            <Position>
              <LatitudeDegrees>38.792625702917575836181640625</LatitudeDegrees>
              <LongitudeDegrees>-8.2280615530908107757568359375</LongitudeDegrees>
            </Position>
            <AltitudeMeters>173.1999969482421875</AltitudeMeters>
            <DistanceMeters>149408.12824926</DistanceMeters>
          </Trackpoint>
          <Trackpoint>
            <Time>2018-09-13T16:15:21.000Z</Time>
            <Position>
              <LatitudeDegrees>38.792388327419757843017578125</LatitudeDegrees>
              <LongitudeDegrees>-8.228027522563934326171875</LongitudeDegrees>
            </Position>
            <AltitudeMeters>174.8000030517578125</AltitudeMeters>
            <DistanceMeters>149434.71298103</DistanceMeters>
          </Trackpoint>
          <Trackpoint>
            <Time>2018-09-13T16:15:29.000Z</Time>
            <Position>
              <LatitudeDegrees>38.7920398078858852386474609375</LatitudeDegrees>
              <LongitudeDegrees>-8.227946050465106964111328125</LongitudeDegrees>
            </Position>
            <AltitudeMeters>176.8000030517578125</AltitudeMeters>
            <DistanceMeters>149474.14242651</DistanceMeters>
          </Trackpoint>
          <Trackpoint>
            <Time>2018-09-13T16:15:33.000Z</Time>
            <Position>
              <LatitudeDegrees>38.791890107095241546630859375</LatitudeDegrees>
              <LongitudeDegrees>-8.22784043848514556884765625</LongitudeDegrees>
            </Position>
            <AltitudeMeters>177.399993896484375</AltitudeMeters>
            <DistanceMeters>149493.15703223</DistanceMeters>
          </Trackpoint>
          <Trackpoint>
            <Time>2018-09-13T16:15:37.000Z</Time>
            <Position>
              <LatitudeDegrees>38.79175373353064060211181640625</LatitudeDegrees>
              <LongitudeDegrees>-8.22770322673022747039794921875</LongitudeDegrees>
            </Position>
            <AltitudeMeters>177</AltitudeMeters>
            <DistanceMeters>149512.44628493</DistanceMeters>
          </Trackpoint>
          <Trackpoint>
            <Time>2018-09-13T16:15:41.000Z</Time>
            <Position>
              <LatitudeDegrees>38.79160637967288494110107421875</LatitudeDegrees>
              <LongitudeDegrees>-8.22754765860736370086669921875</LongitudeDegrees>
            </Position>
            <AltitudeMeters>176.399993896484375</AltitudeMeters>
            <DistanceMeters>149533.68576536</DistanceMeters>
          </Trackpoint>
          <Trackpoint>
            <Time>2018-09-13T16:15:44.000Z</Time>
            <Position>
              <LatitudeDegrees>38.79148718900978565216064453125</LatitudeDegrees>
              <LongitudeDegrees>-8.22741488926112651824951171875</LongitudeDegrees>
            </Position>
            <AltitudeMeters>175.8000030517578125</AltitudeMeters>
            <DistanceMeters>149551.25414642</DistanceMeters>
          </Trackpoint>
          <Trackpoint>
            <Time>2018-09-13T16:15:52.000Z</Time>
            <Position>
              <LatitudeDegrees>38.79105501808226108551025390625</LatitudeDegrees>
              <LongitudeDegrees>-8.226950950920581817626953125</LongitudeDegrees>
            </Position>
            <AltitudeMeters>174.399993896484375</AltitudeMeters>
            <DistanceMeters>149613.97292973</DistanceMeters>
          </Trackpoint>
          <Trackpoint>
            <Time>2018-09-13T16:15:55.000Z</Time>
            <Position>
              <LatitudeDegrees>38.7908730469644069671630859375</LatitudeDegrees>
              <LongitudeDegrees>-8.22676059789955615997314453125</LongitudeDegrees>
            </Position>
            <AltitudeMeters>173.600006103515625</AltitudeMeters>
            <DistanceMeters>149640.10562173</DistanceMeters>
          </Trackpoint>
          <Trackpoint>
            <Time>2018-09-13T16:15:56.000Z</Time>
            <Position>
              <LatitudeDegrees>38.790810517966747283935546875</LatitudeDegrees>
              <LongitudeDegrees>-8.22670527733862400054931640625</LongitudeDegrees>
            </Position>
            <AltitudeMeters>173.1999969482421875</AltitudeMeters>
            <DistanceMeters>149648.55926148</DistanceMeters>
          </Trackpoint>
          <Trackpoint>
            <Time>2018-09-13T16:15:57.000Z</Time>
            <Position>
              <LatitudeDegrees>38.79074539057910442352294921875</LatitudeDegrees>
              <LongitudeDegrees>-8.2266580872237682342529296875</LongitudeDegrees>
            </Position>
            <AltitudeMeters>172.8000030517578125</AltitudeMeters>
            <DistanceMeters>149656.88481652</DistanceMeters>
          </Trackpoint>
          <Trackpoint>
            <Time>2018-09-13T16:15:59.000Z</Time>
            <Position>
              <LatitudeDegrees>38.79061010666191577911376953125</LatitudeDegrees>
              <LongitudeDegrees>-8.2265933789312839508056640625</LongitudeDegrees>
            </Position>
            <AltitudeMeters>172.399993896484375</AltitudeMeters>
            <DistanceMeters>149672.95473022</DistanceMeters>
          </Trackpoint>
          <Trackpoint>
            <Time>2018-09-13T16:16:03.000Z</Time>
            <Position>
              <LatitudeDegrees>38.79032160155475139617919921875</LatitudeDegrees>
              <LongitudeDegrees>-8.22657736949622631072998046875</LongitudeDegrees>
            </Position>
            <AltitudeMeters>172</AltitudeMeters>
            <DistanceMeters>149705.09596239</DistanceMeters>
          </Trackpoint>
          <Trackpoint>
            <Time>2018-09-13T16:16:05.000Z</Time>
            <Position>
              <LatitudeDegrees>38.7901646085083484649658203125</LatitudeDegrees>
              <LongitudeDegrees>-8.2265953905880451202392578125</LongitudeDegrees>
            </Position>
            <AltitudeMeters>172.1999969482421875</AltitudeMeters>
            <DistanceMeters>149722.63965429</DistanceMeters>
          </Trackpoint>
          <Trackpoint>
            <Time>2018-09-13T16:16:07.000Z</Time>
            <Position>
              <LatitudeDegrees>38.789999149739742279052734375</LatitudeDegrees>
              <LongitudeDegrees>-8.2266134954988956451416015625</LongitudeDegrees>
            </Position>
            <AltitudeMeters>172.399993896484375</AltitudeMeters>
            <DistanceMeters>149741.12228916</DistanceMeters>
          </Trackpoint>
          <Trackpoint>
            <Time>2018-09-13T16:16:08.000Z</Time>
            <Position>
              <LatitudeDegrees>38.78991524688899517059326171875</LatitudeDegrees>
              <LongitudeDegrees>-8.22662246413528919219970703125</LongitudeDegrees>
            </Position>
            <AltitudeMeters>172.600006103515625</AltitudeMeters>
            <DistanceMeters>149750.49290618</DistanceMeters>
          </Trackpoint>
          <Trackpoint>
            <Time>2018-09-13T16:16:11.000Z</Time>
            <Position>
              <LatitudeDegrees>38.78965490497648715972900390625</LatitudeDegrees>
              <LongitudeDegrees>-8.22664626874029636383056640625</LongitudeDegrees>
            </Position>
            <AltitudeMeters>173</AltitudeMeters>
            <DistanceMeters>149779.54280745</DistanceMeters>
          </Trackpoint>
          <Trackpoint>
            <Time>2018-09-13T16:16:14.000Z</Time>
            <Position>
              <LatitudeDegrees>38.7893919646739959716796875</LatitudeDegrees>
              <LongitudeDegrees>-8.2266721688210964202880859375</LongitudeDegrees>
            </Position>
            <AltitudeMeters>174.1999969482421875</AltitudeMeters>
            <DistanceMeters>149808.89468139</DistanceMeters>
          </Trackpoint>
          <Trackpoint>
            <Time>2018-09-13T16:16:16.000Z</Time>
            <Position>
              <LatitudeDegrees>38.78922164440155029296875</LatitudeDegrees>
              <LongitudeDegrees>-8.22668868117034435272216796875</LongitudeDegrees>
            </Position>
            <AltitudeMeters>174.8000030517578125</AltitudeMeters>
            <DistanceMeters>149827.90572501</DistanceMeters>
          </Trackpoint>
          <Trackpoint>
            <Time>2018-09-13T16:16:24.000Z</Time>
            <Position>
              <LatitudeDegrees>38.78862007521092891693115234375</LatitudeDegrees>
              <LongitudeDegrees>-8.22675439529120922088623046875</LongitudeDegrees>
            </Position>
            <AltitudeMeters>176.8000030517578125</AltitudeMeters>
            <DistanceMeters>149895.10379065</DistanceMeters>
          </Trackpoint>
          <Trackpoint>
            <Time>2018-09-13T16:16:26.000Z</Time>
            <Position>
              <LatitudeDegrees>38.788491077721118927001953125</LatitudeDegrees>
              <LongitudeDegrees>-8.22676897980272769927978515625</LongitudeDegrees>
            </Position>
            <AltitudeMeters>177.1999969482421875</AltitudeMeters>
            <DistanceMeters>149909.51718507</DistanceMeters>
          </Trackpoint>
          <Trackpoint>
            <Time>2018-09-13T16:16:30.000Z</Time>
            <Position>
              <LatitudeDegrees>38.78825395368039608001708984375</LatitudeDegrees>
              <LongitudeDegrees>-8.22677535004913806915283203125</LongitudeDegrees>
            </Position>
            <AltitudeMeters>178.1999969482421875</AltitudeMeters>
            <DistanceMeters>149935.91546265</DistanceMeters>
          </Trackpoint>
          <Trackpoint>
            <Time>2018-09-13T16:16:32.000Z</Time>
            <Position>
              <LatitudeDegrees>38.7881425581872463226318359375</LatitudeDegrees>
              <LongitudeDegrees>-8.2267603464424610137939453125</LongitudeDegrees>
            </Position>
            <AltitudeMeters>178.600006103515625</AltitudeMeters>
            <DistanceMeters>149948.38244608</DistanceMeters>
          </Trackpoint>
          <Trackpoint>
            <Time>2018-09-13T16:16:35.000Z</Time>
            <Position>
              <LatitudeDegrees>38.78798170946538448333740234375</LatitudeDegrees>
              <LongitudeDegrees>-8.22671215049922466278076171875</LongitudeDegrees>
            </Position>
            <AltitudeMeters>179.399993896484375</AltitudeMeters>
            <DistanceMeters>149966.76710711</DistanceMeters>
          </Trackpoint>
          <Trackpoint>
            <Time>2018-09-13T16:16:37.000Z</Time>
            <Position>
              <LatitudeDegrees>38.7878860719501972198486328125</LatitudeDegrees>
              <LongitudeDegrees>-8.22664492763578891754150390625</LongitudeDegrees>
            </Position>
            <AltitudeMeters>180</AltitudeMeters>
            <DistanceMeters>149978.90451487</DistanceMeters>
          </Trackpoint>
          <Trackpoint>
            <Time>2018-09-13T16:16:38.000Z</Time>
            <Position>
              <LatitudeDegrees>38.78784407861530780792236328125</LatitudeDegrees>
              <LongitudeDegrees>-8.22660083882510662078857421875</LongitudeDegrees>
            </Position>
            <AltitudeMeters>180.1999969482421875</AltitudeMeters>
            <DistanceMeters>149984.94375976</DistanceMeters>
          </Trackpoint>
          <Trackpoint>
            <Time>2018-09-13T16:16:40.000Z</Time>
            <Position>
              <LatitudeDegrees>38.78776587545871734619140625</LatitudeDegrees>
              <LongitudeDegrees>-8.2265041954815387725830078125</LongitudeDegrees>
            </Position>
            <AltitudeMeters>180</AltitudeMeters>
            <DistanceMeters>149997.02972337</DistanceMeters>
          </Trackpoint>
          <Trackpoint>
            <Time>2018-09-13T16:16:42.000Z</Time>
            <Position>
              <LatitudeDegrees>38.78769286908209323883056640625</LatitudeDegrees>
              <LongitudeDegrees>-8.2264062948524951934814453125</LongitudeDegrees>
            </Position>
            <AltitudeMeters>180</AltitudeMeters>
            <DistanceMeters>150008.78464701</DistanceMeters>
          </Trackpoint>
          <Trackpoint>
            <Time>2018-09-13T16:16:46.000Z</Time>
            <Position>
              <LatitudeDegrees>38.78754434175789356231689453125</LatitudeDegrees>
              <LongitudeDegrees>-8.2261903770267963409423828125</LongitudeDegrees>
            </Position>
            <AltitudeMeters>179.399993896484375</AltitudeMeters>
            <DistanceMeters>150033.76818047</DistanceMeters>
          </Trackpoint>
          <Trackpoint>
            <Time>2018-09-13T16:16:47.000Z</Time>
            <Position>
              <LatitudeDegrees>38.78750477917492389678955078125</LatitudeDegrees>
              <LongitudeDegrees>-8.2261323742568492889404296875</LongitudeDegrees>
            </Position>
            <AltitudeMeters>179.1999969482421875</AltitudeMeters>
            <DistanceMeters>150040.45525296</DistanceMeters>
          </Trackpoint>
          <Trackpoint>
            <Time>2018-09-13T16:16:51.000Z</Time>
            <Position>
              <LatitudeDegrees>38.78732590936124324798583984375</LatitudeDegrees>
              <LongitudeDegrees>-8.22588100098073482513427734375</LongitudeDegrees>
            </Position>
            <AltitudeMeters>178.399993896484375</AltitudeMeters>
            <DistanceMeters>150069.98425975</DistanceMeters>
          </Trackpoint>
          <Trackpoint>
            <Time>2018-09-13T16:16:57.000Z</Time>
            <Position>
              <LatitudeDegrees>38.7870703451335430145263671875</LatitudeDegrees>
              <LongitudeDegrees>-8.22540138848125934600830078125</LongitudeDegrees>
            </Position>
            <AltitudeMeters>176.399993896484375</AltitudeMeters>
            <DistanceMeters>150120.38748967</DistanceMeters>
          </Trackpoint>
          <Trackpoint>
            <Time>2018-09-13T16:17:04.000Z</Time>
            <Position>
              <LatitudeDegrees>38.78685920499265193939208984375</LatitudeDegrees>
              <LongitudeDegrees>-8.2247215323150157928466796875</LongitudeDegrees>
            </Position>
            <AltitudeMeters>175</AltitudeMeters>
            <DistanceMeters>150183.8794166</DistanceMeters>
          </Trackpoint>
          <Trackpoint>
            <Time>2018-09-13T16:17:06.000Z</Time>
            <Position>
              <LatitudeDegrees>38.7868048064410686492919921875</LatitudeDegrees>
              <LongitudeDegrees>-8.224534951150417327880859375</LongitudeDegrees>
            </Position>
            <AltitudeMeters>175</AltitudeMeters>
            <DistanceMeters>150201.16174308</DistanceMeters>
          </Trackpoint>
          <Trackpoint>
            <Time>2018-09-13T16:17:14.000Z</Time>
            <Position>
              <LatitudeDegrees>38.786598779261112213134765625</LatitudeDegrees>
              <LongitudeDegrees>-8.22383464314043521881103515625</LongitudeDegrees>
            </Position>
            <AltitudeMeters>176.399993896484375</AltitudeMeters>
            <DistanceMeters>150266.1025436</DistanceMeters>
          </Trackpoint>
          <Trackpoint>
            <Time>2018-09-13T16:17:22.000Z</Time>
            <Position>
              <LatitudeDegrees>38.78643055446445941925048828125</LatitudeDegrees>
              <LongitudeDegrees>-8.22326953522861003875732421875</LongitudeDegrees>
            </Position>
            <AltitudeMeters>177.8000030517578125</AltitudeMeters>
            <DistanceMeters>150318.5840524</DistanceMeters>
          </Trackpoint>
          <Trackpoint>
            <Time>2018-09-13T16:17:23.000Z</Time>
            <Position>
              <LatitudeDegrees>38.7864135392010211944580078125</LatitudeDegrees>
              <LongitudeDegrees>-8.22320692241191864013671875</LongitudeDegrees>
            </Position>
            <AltitudeMeters>177.8000030517578125</AltitudeMeters>
            <DistanceMeters>150324.33768258</DistanceMeters>
          </Trackpoint>
          <Trackpoint>
            <Time>2018-09-13T16:17:26.000Z</Time>
            <Position>
              <LatitudeDegrees>38.78636031411588191986083984375</LatitudeDegrees>
              <LongitudeDegrees>-8.223022855818271636962890625</LongitudeDegrees>
            </Position>
            <AltitudeMeters>178.600006103515625</AltitudeMeters>
            <DistanceMeters>150341.3702768</DistanceMeters>
          </Trackpoint>
          <Trackpoint>
            <Time>2018-09-13T16:17:29.000Z</Time>
            <Position>
              <LatitudeDegrees>38.78630943596363067626953125</LatitudeDegrees>
              <LongitudeDegrees>-8.22284750640392303466796875</LongitudeDegrees>
            </Position>
            <AltitudeMeters>179.600006103515625</AltitudeMeters>
            <DistanceMeters>150357.60316505</DistanceMeters>
          </Trackpoint>
          <Trackpoint>
            <Time>2018-09-13T16:17:33.000Z</Time>
            <Position>
              <LatitudeDegrees>38.78624531440436840057373046875</LatitudeDegrees>
              <LongitudeDegrees>-8.22262211702764034271240234375</LongitudeDegrees>
            </Position>
            <AltitudeMeters>181</AltitudeMeters>
            <DistanceMeters>150378.41943869</DistanceMeters>
          </Trackpoint>
          <Trackpoint>
            <Time>2018-09-13T16:17:37.000Z</Time>
            <Position>
              <LatitudeDegrees>38.78618697635829448699951171875</LatitudeDegrees>
              <LongitudeDegrees>-8.22242313064634799957275390625</LongitudeDegrees>
            </Position>
            <AltitudeMeters>181.399993896484375</AltitudeMeters>
            <DistanceMeters>150396.86392567</DistanceMeters>
          </Trackpoint>
          <Trackpoint>
            <Time>2018-09-13T16:17:41.000Z</Time>
            <Position>
              <LatitudeDegrees>38.78613115288317203521728515625</LatitudeDegrees>
              <LongitudeDegrees>-8.22223889641463756561279296875</LongitudeDegrees>
            </Position>
            <AltitudeMeters>182.1999969482421875</AltitudeMeters>
            <DistanceMeters>150414.01302272</DistanceMeters>
          </Trackpoint>
          <Trackpoint>
            <Time>2018-09-13T16:17:45.000Z</Time>
            <Position>
              <LatitudeDegrees>38.78607784397900104522705078125</LatitudeDegrees>
              <LongitudeDegrees>-8.22206773795187473297119140625</LongitudeDegrees>
            </Position>
            <AltitudeMeters>183</AltitudeMeters>
            <DistanceMeters>150430.00407349</DistanceMeters>
          </Trackpoint>
          <Trackpoint>
            <Time>2018-09-13T16:17:52.000Z</Time>
            <Position>
              <LatitudeDegrees>38.78596502356231212615966796875</LatitudeDegrees>
              <LongitudeDegrees>-8.22175676934421062469482421875</LongitudeDegrees>
            </Position>
            <AltitudeMeters>184</AltitudeMeters>
            <DistanceMeters>150459.76230775</DistanceMeters>
          </Trackpoint>
          <Trackpoint>
            <Time>2018-09-13T16:17:57.000Z</Time>
            <Position>
              <LatitudeDegrees>38.78583393059670925140380859375</LatitudeDegrees>
              <LongitudeDegrees>-8.22152383625507354736328125</LongitudeDegrees>
            </Position>
            <AltitudeMeters>183.600006103515625</AltitudeMeters>
            <DistanceMeters>150484.68794354</DistanceMeters>
          </Trackpoint>
          <Trackpoint>
            <Time>2018-09-13T16:18:08.000Z</Time>
            <Position>
              <LatitudeDegrees>38.78543679602444171905517578125</LatitudeDegrees>
              <LongitudeDegrees>-8.22097524069249629974365234375</LongitudeDegrees>
            </Position>
            <AltitudeMeters>185</AltitudeMeters>
            <DistanceMeters>150549.64299521</DistanceMeters>
          </Trackpoint>
          <Trackpoint>
            <Time>2018-09-13T16:18:16.000Z</Time>
            <Position>
              <LatitudeDegrees>38.7850593589246273040771484375</LatitudeDegrees>
              <LongitudeDegrees>-8.2206023298203945159912109375</LongitudeDegrees>
            </Position>
            <AltitudeMeters>184.399993896484375</AltitudeMeters>
            <DistanceMeters>150602.66713548</DistanceMeters>
          </Trackpoint>
          <Trackpoint>
            <Time>2018-09-13T16:18:23.000Z</Time>
            <Position>
              <LatitudeDegrees>38.78468393348157405853271484375</LatitudeDegrees>
              <LongitudeDegrees>-8.2202888466417789459228515625</LongitudeDegrees>
            </Position>
            <AltitudeMeters>183.600006103515625</AltitudeMeters>
            <DistanceMeters>150652.52456545</DistanceMeters>
          </Trackpoint>
          <Trackpoint>
            <Time>2018-09-13T16:18:28.000Z</Time>
            <Position>
              <LatitudeDegrees>38.7844028882682323455810546875</LatitudeDegrees>
              <LongitudeDegrees>-8.22005398571491241455078125</LongitudeDegrees>
            </Position>
            <AltitudeMeters>183.8000030517578125</AltitudeMeters>
            <DistanceMeters>150689.85688387</DistanceMeters>
          </Trackpoint>
          <Trackpoint>
            <Time>2018-09-13T16:18:37.000Z</Time>
            <Position>
              <LatitudeDegrees>38.78392361104488372802734375</LatitudeDegrees>
              <LongitudeDegrees>-8.2196578569710254669189453125</LongitudeDegrees>
            </Position>
            <AltitudeMeters>184.600006103515625</AltitudeMeters>
            <DistanceMeters>150753.31424096</DistanceMeters>
          </Trackpoint>
          <Trackpoint>
            <Time>2018-09-13T16:18:46.000Z</Time>
            <Position>
              <LatitudeDegrees>38.7834570743143558502197265625</LatitudeDegrees>
              <LongitudeDegrees>-8.21925845928490161895751953125</LongitudeDegrees>
            </Position>
            <AltitudeMeters>186.399993896484375</AltitudeMeters>
            <DistanceMeters>150815.74136816</DistanceMeters>
          </Trackpoint>
          <Trackpoint>
            <Time>2018-09-13T16:18:53.000Z</Time>
            <Position>
              <LatitudeDegrees>38.783108554780483245849609375</LatitudeDegrees>
              <LongitudeDegrees>-8.21896743960678577423095703125</LongitudeDegrees>
            </Position>
            <AltitudeMeters>188.8000030517578125</AltitudeMeters>
            <DistanceMeters>150862.0260119</DistanceMeters>
          </Trackpoint>
          <Trackpoint>
            <Time>2018-09-13T16:18:58.000Z</Time>
            <Position>
              <LatitudeDegrees>38.78286975435912609100341796875</LatitudeDegrees>
              <LongitudeDegrees>-8.2187717221677303314208984375</LongitudeDegrees>
            </Position>
            <AltitudeMeters>190.399993896484375</AltitudeMeters>
            <DistanceMeters>150893.56629315</DistanceMeters>
          </Trackpoint>
          <Trackpoint>
            <Time>2018-09-13T16:19:03.000Z</Time>
            <Position>
              <LatitudeDegrees>38.7826379947364330291748046875</LatitudeDegrees>
              <LongitudeDegrees>-8.21857365779578685760498046875</LongitudeDegrees>
            </Position>
            <AltitudeMeters>192.1999969482421875</AltitudeMeters>
            <DistanceMeters>150924.56161268</DistanceMeters>
          </Trackpoint>
          <Trackpoint>
            <Time>2018-09-13T16:19:07.000Z</Time>
            <Position>
              <LatitudeDegrees>38.7824606336653232574462890625</LatitudeDegrees>
              <LongitudeDegrees>-8.218422196805477142333984375</LongitudeDegrees>
            </Position>
            <AltitudeMeters>192.600006103515625</AltitudeMeters>
            <DistanceMeters>150948.27606188</DistanceMeters>
          </Trackpoint>
          <Trackpoint>
            <Time>2018-09-13T16:19:11.000Z</Time>
            <Position>
              <LatitudeDegrees>38.7822867929935455322265625</LatitudeDegrees>
              <LongitudeDegrees>-8.2182755134999752044677734375</LongitudeDegrees>
            </Position>
            <AltitudeMeters>193</AltitudeMeters>
            <DistanceMeters>150971.43530238</DistanceMeters>
          </Trackpoint>
          <Trackpoint>
            <Time>2018-09-13T16:19:17.000Z</Time>
            <Position>
              <LatitudeDegrees>38.78203826956450939178466796875</LatitudeDegrees>
              <LongitudeDegrees>-8.21800611913204193115234375</LongitudeDegrees>
            </Position>
            <AltitudeMeters>192.1999969482421875</AltitudeMeters>
            <DistanceMeters>151007.64933366</DistanceMeters>
          </Trackpoint>
          <Trackpoint>
            <Time>2018-09-13T16:19:25.000Z</Time>
            <Position>
              <LatitudeDegrees>38.78166854381561279296875</LatitudeDegrees>
              <LongitudeDegrees>-8.21747303009033203125</LongitudeDegrees>
            </Position>
            <AltitudeMeters>189.600006103515625</AltitudeMeters>
            <DistanceMeters>151069.55856348</DistanceMeters>
          </Trackpoint>
          <Trackpoint>
            <Time>2018-09-13T16:19:31.000Z</Time>
            <Position>
              <LatitudeDegrees>38.78136151470243930816650390625</LatitudeDegrees>
              <LongitudeDegrees>-8.2170249335467815399169921875</LongitudeDegrees>
            </Position>
            <AltitudeMeters>189</AltitudeMeters>
            <DistanceMeters>151121.32100258</DistanceMeters>
          </Trackpoint>
          <Trackpoint>
            <Time>2018-09-13T16:19:34.000Z</Time>
            <Position>
              <LatitudeDegrees>38.781204521656036376953125</LatitudeDegrees>
              <LongitudeDegrees>-8.21679485030472278594970703125</LongitudeDegrees>
            </Position>
            <AltitudeMeters>188.8000030517578125</AltitudeMeters>
            <DistanceMeters>151147.85099086</DistanceMeters>
          </Trackpoint>
          <Trackpoint>
            <Time>2018-09-13T16:19:35.000Z</Time>
            <Position>
              <LatitudeDegrees>38.7811530567705631256103515625</LatitudeDegrees>
              <LongitudeDegrees>-8.21671773679554462432861328125</LongitudeDegrees>
            </Position>
            <AltitudeMeters>188.600006103515625</AltitudeMeters>
            <DistanceMeters>151156.65930607</DistanceMeters>
          </Trackpoint>
          <Trackpoint>
            <Time>2018-09-13T16:19:39.000Z</Time>
            <Position>
              <LatitudeDegrees>38.780935965478420257568359375</LatitudeDegrees>
              <LongitudeDegrees>-8.21639771573245525360107421875</LongitudeDegrees>
            </Position>
            <AltitudeMeters>189.1999969482421875</AltitudeMeters>
            <DistanceMeters>151193.46716514</DistanceMeters>
          </Trackpoint>
          <Trackpoint>
            <Time>2018-09-13T16:19:40.000Z</Time>
            <Position>
              <LatitudeDegrees>38.78088039346039295196533203125</LatitudeDegrees>
              <LongitudeDegrees>-8.21631632745265960693359375</LongitudeDegrees>
            </Position>
            <AltitudeMeters>189.1999969482421875</AltitudeMeters>
            <DistanceMeters>151202.85415006</DistanceMeters>
          </Trackpoint>
          <Trackpoint>
            <Time>2018-09-13T16:19:41.000Z</Time>
            <Position>
              <LatitudeDegrees>38.7808244861662387847900390625</LatitudeDegrees>
              <LongitudeDegrees>-8.2162343524396419525146484375</LongitudeDegrees>
            </Position>
            <AltitudeMeters>189.1999969482421875</AltitudeMeters>
            <DistanceMeters>151212.30441228</DistanceMeters>
          </Trackpoint>
          <Trackpoint>
            <Time>2018-09-13T16:19:45.000Z</Time>
            <Position>
              <LatitudeDegrees>38.7806011922657489776611328125</LatitudeDegrees>
              <LongitudeDegrees>-8.21590117178857326507568359375</LongitudeDegrees>
            </Position>
            <AltitudeMeters>189.600006103515625</AltitudeMeters>
            <DistanceMeters>151250.42753838</DistanceMeters>
          </Trackpoint>
          <Trackpoint>
            <Time>2018-09-13T16:19:46.000Z</Time>
            <Position>
              <LatitudeDegrees>38.78054562024772167205810546875</LatitudeDegrees>
              <LongitudeDegrees>-8.21581819094717502593994140625</LongitudeDegrees>
            </Position>
            <AltitudeMeters>189.600006103515625</AltitudeMeters>
            <DistanceMeters>151259.91879976</DistanceMeters>
          </Trackpoint>
          <Trackpoint>
            <Time>2018-09-13T16:19:53.000Z</Time>
            <Position>
              <LatitudeDegrees>38.780158460140228271484375</LatitudeDegrees>
              <LongitudeDegrees>-8.21526221930980682373046875</LongitudeDegrees>
            </Position>
            <AltitudeMeters>189.1999969482421875</AltitudeMeters>
            <DistanceMeters>151324.602054</DistanceMeters>
          </Trackpoint>
          <Trackpoint>
            <Time>2018-09-13T16:20:00.000Z</Time>
            <Position>
              <LatitudeDegrees>38.77979091368615627288818359375</LatitudeDegrees>
              <LongitudeDegrees>-8.214720077812671661376953125</LongitudeDegrees>
            </Position>
            <AltitudeMeters>191.399993896484375</AltitudeMeters>
            <DistanceMeters>151386.94175146</DistanceMeters>
          </Trackpoint>
          <Trackpoint>
            <Time>2018-09-13T16:20:08.000Z</Time>
            <Position>
              <LatitudeDegrees>38.77941004000604152679443359375</LatitudeDegrees>
              <LongitudeDegrees>-8.2141599990427494049072265625</LongitudeDegrees>
            </Position>
            <AltitudeMeters>191</AltitudeMeters>
            <DistanceMeters>151451.4294732</DistanceMeters>
          </Trackpoint>
          <Trackpoint>
            <Time>2018-09-13T16:20:10.000Z</Time>
            <Position>
              <LatitudeDegrees>38.77931884489953517913818359375</LatitudeDegrees>
              <LongitudeDegrees>-8.21402379311621189117431640625</LongitudeDegrees>
            </Position>
            <AltitudeMeters>191.1999969482421875</AltitudeMeters>
            <DistanceMeters>151467.00805897</DistanceMeters>
          </Trackpoint>
          <Trackpoint>
            <Time>2018-09-13T16:20:13.000Z</Time>
            <Position>
              <LatitudeDegrees>38.77918205223977565765380859375</LatitudeDegrees>
              <LongitudeDegrees>-8.2138280756771564483642578125</LongitudeDegrees>
            </Position>
            <AltitudeMeters>191.399993896484375</AltitudeMeters>
            <DistanceMeters>151489.81565822</DistanceMeters>
          </Trackpoint>
          <Trackpoint>
            <Time>2018-09-13T16:20:17.000Z</Time>
            <Position>
              <LatitudeDegrees>38.77899982966482639312744140625</LatitudeDegrees>
              <LongitudeDegrees>-8.21357016451656818389892578125</LongitudeDegrees>
            </Position>
            <AltitudeMeters>191.600006103515625</AltitudeMeters>
            <DistanceMeters>151520.01711549</DistanceMeters>
          </Trackpoint>
          <Trackpoint>
            <Time>2018-09-13T16:20:22.000Z</Time>
            <Position>
              <LatitudeDegrees>38.77877519465982913970947265625</LatitudeDegrees>
              <LongitudeDegrees>-8.2132544182240962982177734375</LongitudeDegrees>
            </Position>
            <AltitudeMeters>192.600006103515625</AltitudeMeters>
            <DistanceMeters>151557.10724849</DistanceMeters>
          </Trackpoint>
          <Trackpoint>
            <Time>2018-09-13T16:20:29.000Z</Time>
            <Position>
              <LatitudeDegrees>38.77847746945917606353759765625</LatitudeDegrees>
              <LongitudeDegrees>-8.2128222472965717315673828125</LongitudeDegrees>
            </Position>
            <AltitudeMeters>193</AltitudeMeters>
            <DistanceMeters>151607.14943869</DistanceMeters>
          </Trackpoint>
          <Trackpoint>
            <Time>2018-09-13T16:20:32.000Z</Time>
            <Position>
              <LatitudeDegrees>38.77836666069924831390380859375</LatitudeDegrees>
              <LongitudeDegrees>-8.21263709105551242828369140625</LongitudeDegrees>
            </Position>
            <AltitudeMeters>192.8000030517578125</AltitudeMeters>
            <DistanceMeters>151627.40328555</DistanceMeters>
          </Trackpoint>
          <Trackpoint>
            <Time>2018-09-13T16:20:39.000Z</Time>
            <Position>
              <LatitudeDegrees>38.77821863628923892974853515625</LatitudeDegrees>
              <LongitudeDegrees>-8.21210467256605625152587890625</LongitudeDegrees>
            </Position>
            <AltitudeMeters>195</AltitudeMeters>
            <DistanceMeters>151676.45032791</DistanceMeters>
          </Trackpoint>
          <Trackpoint>
            <Time>2018-09-13T16:20:46.000Z</Time>
            <Position>
              <LatitudeDegrees>38.7781349010765552520751953125</LatitudeDegrees>
              <LongitudeDegrees>-8.21151693351566791534423828125</LongitudeDegrees>
            </Position>
            <AltitudeMeters>194.8000030517578125</AltitudeMeters>
            <DistanceMeters>151728.29208204</DistanceMeters>
          </Trackpoint>
          <Trackpoint>
            <Time>2018-09-13T16:20:55.000Z</Time>
            <Position>
              <LatitudeDegrees>38.7780118547379970550537109375</LatitudeDegrees>
              <LongitudeDegrees>-8.21075736545026302337646484375</LongitudeDegrees>
            </Position>
            <AltitudeMeters>196.399993896484375</AltitudeMeters>
            <DistanceMeters>151795.6066214</DistanceMeters>
          </Trackpoint>
          <Trackpoint>
            <Time>2018-09-13T16:20:56.000Z</Time>
            <Position>
              <LatitudeDegrees>38.77799198962748050689697265625</LatitudeDegrees>
              <LongitudeDegrees>-8.21067622862756252288818359375</LongitudeDegrees>
            </Position>
            <AltitudeMeters>196.399993896484375</AltitudeMeters>
            <DistanceMeters>151802.98634979</DistanceMeters>
          </Trackpoint>
          <Trackpoint>
            <Time>2018-09-13T16:21:04.000Z</Time>
            <Position>
              <LatitudeDegrees>38.77778411842882633209228515625</LatitudeDegrees>
              <LongitudeDegrees>-8.21003551594913005828857421875</LongitudeDegrees>
            </Position>
            <AltitudeMeters>197.1999969482421875</AltitudeMeters>
            <DistanceMeters>151863.2024026</DistanceMeters>
          </Trackpoint>
          <Trackpoint>
            <Time>2018-09-13T16:21:09.000Z</Time>
            <Position>
              <LatitudeDegrees>38.777639865875244140625</LatitudeDegrees>
              <LongitudeDegrees>-8.20962429977953433990478515625</LongitudeDegrees>
            </Position>
            <AltitudeMeters>197.399993896484375</AltitudeMeters>
            <DistanceMeters>151902.32918345</DistanceMeters>
          </Trackpoint>
          <Trackpoint>
            <Time>2018-09-13T16:21:17.000Z</Time>
            <Position>
              <LatitudeDegrees>38.7774056755006313323974609375</LatitudeDegrees>
              <LongitudeDegrees>-8.20894427597522735595703125</LongitudeDegrees>
            </Position>
            <AltitudeMeters>197.8000030517578125</AltitudeMeters>
            <DistanceMeters>151966.83531622</DistanceMeters>
          </Trackpoint>
          <Trackpoint>
            <Time>2018-09-13T16:21:18.000Z</Time>
            <Position>
              <LatitudeDegrees>38.77737675793468952178955078125</LatitudeDegrees>
              <LongitudeDegrees>-8.20885651744902133941650390625</LongitudeDegrees>
            </Position>
            <AltitudeMeters>197.8000030517578125</AltitudeMeters>
            <DistanceMeters>151975.10264037</DistanceMeters>
          </Trackpoint>
          <Trackpoint>
            <Time>2018-09-13T16:21:26.000Z</Time>
            <Position>
              <LatitudeDegrees>38.7771367840468883514404296875</LatitudeDegrees>
              <LongitudeDegrees>-8.2081645913422107696533203125</LongitudeDegrees>
            </Position>
            <AltitudeMeters>198</AltitudeMeters>
            <DistanceMeters>152040.81393973</DistanceMeters>
          </Trackpoint>
          <Trackpoint>
            <Time>2018-09-13T16:21:34.000Z</Time>
            <Position>
              <LatitudeDegrees>38.7769017554819583892822265625</LatitudeDegrees>
              <LongitudeDegrees>-8.2074804604053497314453125</LongitudeDegrees>
            </Position>
            <AltitudeMeters>199.1999969482421875</AltitudeMeters>
            <DistanceMeters>152105.68406393</DistanceMeters>
          </Trackpoint>
          <Trackpoint>
            <Time>2018-09-13T16:21:40.000Z</Time>
            <Position>
              <LatitudeDegrees>38.776686675846576690673828125</LatitudeDegrees>
              <LongitudeDegrees>-8.206983916461467742919921875</LongitudeDegrees>
            </Position>
            <AltitudeMeters>199</AltitudeMeters>
            <DistanceMeters>152154.97298344</DistanceMeters>
          </Trackpoint>
          <Trackpoint>
            <Time>2018-09-13T16:21:48.000Z</Time>
            <Position>
              <LatitudeDegrees>38.77621737308800220489501953125</LatitudeDegrees>
              <LongitudeDegrees>-8.2065344788134098052978515625</LongitudeDegrees>
            </Position>
            <AltitudeMeters>199.600006103515625</AltitudeMeters>
            <DistanceMeters>152220.15950867</DistanceMeters>
          </Trackpoint>
          <Trackpoint>
            <Time>2018-09-13T16:21:56.000Z</Time>
            <Position>
              <LatitudeDegrees>38.775728456676006317138671875</LatitudeDegrees>
              <LongitudeDegrees>-8.2061304710805416107177734375</LongitudeDegrees>
            </Position>
            <AltitudeMeters>200.399993896484375</AltitudeMeters>
            <DistanceMeters>152284.89104807</DistanceMeters>
          </Trackpoint>
          <Trackpoint>
            <Time>2018-09-13T16:21:59.000Z</Time>
            <Position>
              <LatitudeDegrees>38.775545060634613037109375</LatitudeDegrees>
              <LongitudeDegrees>-8.20597708225250244140625</LongitudeDegrees>
            </Position>
            <AltitudeMeters>201</AltitudeMeters>
            <DistanceMeters>152309.25942567</DistanceMeters>
          </Trackpoint>
          <Trackpoint>
            <Time>2018-09-13T16:22:07.000Z</Time>
            <Position>
              <LatitudeDegrees>38.7750590778887271881103515625</LatitudeDegrees>
              <LongitudeDegrees>-8.2055822946131229400634765625</LongitudeDegrees>
            </Position>
            <AltitudeMeters>201.1999969482421875</AltitudeMeters>
            <DistanceMeters>152373.28543306</DistanceMeters>
          </Trackpoint>
          <Trackpoint>
            <Time>2018-09-13T16:22:08.000Z</Time>
            <Position>
              <LatitudeDegrees>38.7749970518052577972412109375</LatitudeDegrees>
              <LongitudeDegrees>-8.20553057827055454254150390625</LongitudeDegrees>
            </Position>
            <AltitudeMeters>201.1999969482421875</AltitudeMeters>
            <DistanceMeters>152381.51937586</DistanceMeters>
          </Trackpoint>
          <Trackpoint>
            <Time>2018-09-13T16:22:16.000Z</Time>
            <Position>
              <LatitudeDegrees>38.77452473156154155731201171875</LatitudeDegrees>
              <LongitudeDegrees>-8.20511952973902225494384765625</LongitudeDegrees>
            </Position>
            <AltitudeMeters>203.399993896484375</AltitudeMeters>
            <DistanceMeters>152445.04741742</DistanceMeters>
          </Trackpoint>
          <Trackpoint>
            <Time>2018-09-13T16:22:23.000Z</Time>
            <Position>
              <LatitudeDegrees>38.7741967476904392242431640625</LatitudeDegrees>
              <LongitudeDegrees>-8.20463907904922962188720703125</LongitudeDegrees>
            </Position>
            <AltitudeMeters>202.399993896484375</AltitudeMeters>
            <DistanceMeters>152500.46127449</DistanceMeters>
          </Trackpoint>
          <Trackpoint>
            <Time>2018-09-13T16:22:27.000Z</Time>
            <Position>
              <LatitudeDegrees>38.77402449958026409149169921875</LatitudeDegrees>
              <LongitudeDegrees>-8.20433297194540500640869140625</LongitudeDegrees>
            </Position>
            <AltitudeMeters>202.399993896484375</AltitudeMeters>
            <DistanceMeters>152533.21917589</DistanceMeters>
          </Trackpoint>
          <Trackpoint>
            <Time>2018-09-13T16:22:35.000Z</Time>
            <Position>
              <LatitudeDegrees>38.7736871279776096343994140625</LatitudeDegrees>
              <LongitudeDegrees>-8.20371589623391628265380859375</LongitudeDegrees>
            </Position>
            <AltitudeMeters>202.399993896484375</AltitudeMeters>
            <DistanceMeters>152598.61930569</DistanceMeters>
          </Trackpoint>
          <Trackpoint>
            <Time>2018-09-13T16:22:43.000Z</Time>
            <Position>
              <LatitudeDegrees>38.77333869226276874542236328125</LatitudeDegrees>
              <LongitudeDegrees>-8.203081972897052764892578125</LongitudeDegrees>
            </Position>
            <AltitudeMeters>203.1999969482421875</AltitudeMeters>
            <DistanceMeters>152665.92398449</DistanceMeters>
          </Trackpoint>
          <Trackpoint>
            <Time>2018-09-13T16:22:51.000Z</Time>
            <Position>
              <LatitudeDegrees>38.77298422157764434814453125</LatitudeDegrees>
              <LongitudeDegrees>-8.202457688748836517333984375</LongitudeDegrees>
            </Position>
            <AltitudeMeters>204.1999969482421875</AltitudeMeters>
            <DistanceMeters>152732.9401221</DistanceMeters>
          </Trackpoint>
          <Trackpoint>
            <Time>2018-09-13T16:22:56.000Z</Time>
            <Position>
              <LatitudeDegrees>38.77276771701872348785400390625</LatitudeDegrees>
              <LongitudeDegrees>-8.20206885226070880889892578125</LongitudeDegrees>
            </Position>
            <AltitudeMeters>204.8000030517578125</AltitudeMeters>
            <DistanceMeters>152774.40292487</DistanceMeters>
          </Trackpoint>
          <Trackpoint>
            <Time>2018-09-13T16:23:01.000Z</Time>
            <Position>
              <LatitudeDegrees>38.7725530564785003662109375</LatitudeDegrees>
              <LongitudeDegrees>-8.2016883976757526397705078125</LongitudeDegrees>
            </Position>
            <AltitudeMeters>205.1999969482421875</AltitudeMeters>
            <DistanceMeters>152815.15531718</DistanceMeters>
          </Trackpoint>
          <Trackpoint>
            <Time>2018-09-13T16:23:06.000Z</Time>
            <Position>
              <LatitudeDegrees>38.77234225161373615264892578125</LatitudeDegrees>
              <LongitudeDegrees>-8.20131313987076282501220703125</LongitudeDegrees>
            </Position>
            <AltitudeMeters>206.1999969482421875</AltitudeMeters>
            <DistanceMeters>152855.29091617</DistanceMeters>
          </Trackpoint>
          <Trackpoint>
            <Time>2018-09-13T16:23:11.000Z</Time>
            <Position>
              <LatitudeDegrees>38.77213186584413051605224609375</LatitudeDegrees>
              <LongitudeDegrees>-8.20093645714223384857177734375</LongitudeDegrees>
            </Position>
            <AltitudeMeters>206.399993896484375</AltitudeMeters>
            <DistanceMeters>152895.49968246</DistanceMeters>
          </Trackpoint>
          <Trackpoint>
            <Time>2018-09-13T16:23:17.000Z</Time>
            <Position>
              <LatitudeDegrees>38.7718789838254451751708984375</LatitudeDegrees>
              <LongitudeDegrees>-8.2004901207983493804931640625</LongitudeDegrees>
            </Position>
            <AltitudeMeters>206.600006103515625</AltitudeMeters>
            <DistanceMeters>152943.37787192</DistanceMeters>
          </Trackpoint>
          <Trackpoint>
            <Time>2018-09-13T16:23:25.000Z</Time>
            <Position>
              <LatitudeDegrees>38.77153188921511173248291015625</LatitudeDegrees>
              <LongitudeDegrees>-8.19987363182008266448974609375</LongitudeDegrees>
            </Position>
            <AltitudeMeters>207.8000030517578125</AltitudeMeters>
            <DistanceMeters>153009.36535567</DistanceMeters>
          </Trackpoint>
          <Trackpoint>
            <Time>2018-09-13T16:23:33.000Z</Time>
            <Position>
              <LatitudeDegrees>38.771186806261539459228515625</LatitudeDegrees>
              <LongitudeDegrees>-8.199251107871532440185546875</LongitudeDegrees>
            </Position>
            <AltitudeMeters>210</AltitudeMeters>
            <DistanceMeters>153075.64831112</DistanceMeters>
          </Trackpoint>
          <Trackpoint>
            <Time>2018-09-13T16:23:40.000Z</Time>
            <Position>
              <LatitudeDegrees>38.7708845548331737518310546875</LatitudeDegrees>
              <LongitudeDegrees>-8.19870787672698497772216796875</LongitudeDegrees>
            </Position>
            <AltitudeMeters>210.600006103515625</AltitudeMeters>
            <DistanceMeters>153133.5613051</DistanceMeters>
          </Trackpoint>
          <Trackpoint>
            <Time>2018-09-13T16:23:48.000Z</Time>
            <Position>
              <LatitudeDegrees>38.770563192665576934814453125</LatitudeDegrees>
              <LongitudeDegrees>-8.19814528338611125946044921875</LongitudeDegrees>
            </Position>
            <AltitudeMeters>213.399993896484375</AltitudeMeters>
            <DistanceMeters>153194.08235654</DistanceMeters>
          </Trackpoint>
          <Trackpoint>
            <Time>2018-09-13T16:23:53.000Z</Time>
            <Position>
              <LatitudeDegrees>38.77037149854004383087158203125</LatitudeDegrees>
              <LongitudeDegrees>-8.1978069059550762176513671875</LongitudeDegrees>
            </Position>
            <AltitudeMeters>214.399993896484375</AltitudeMeters>
            <DistanceMeters>153230.37907861</DistanceMeters>
          </Trackpoint>
          <Trackpoint>
            <Time>2018-09-13T16:23:59.000Z</Time>
            <Position>
              <LatitudeDegrees>38.7701444327831268310546875</LatitudeDegrees>
              <LongitudeDegrees>-8.19739728234708309173583984375</LongitudeDegrees>
            </Position>
            <AltitudeMeters>214.8000030517578125</AltitudeMeters>
            <DistanceMeters>153273.99406312</DistanceMeters>
          </Trackpoint>
          <Trackpoint>
            <Time>2018-09-13T16:24:03.000Z</Time>
            <Position>
              <LatitudeDegrees>38.76998308114707469940185546875</LatitudeDegrees>
              <LongitudeDegrees>-8.19710978306829929351806640625</LongitudeDegrees>
            </Position>
            <AltitudeMeters>214.600006103515625</AltitudeMeters>
            <DistanceMeters>153304.73414037</DistanceMeters>
          </Trackpoint>
          <Trackpoint>
            <Time>2018-09-13T16:24:11.000Z</Time>
            <Position>
              <LatitudeDegrees>38.76960807479918003082275390625</LatitudeDegrees>
              <LongitudeDegrees>-8.19652992300689220428466796875</LongitudeDegrees>
            </Position>
            <AltitudeMeters>213.600006103515625</AltitudeMeters>
            <DistanceMeters>153370.11141489</DistanceMeters>
          </Trackpoint>
          <Trackpoint>
            <Time>2018-09-13T16:24:17.000Z</Time>
            <Position>
              <LatitudeDegrees>38.76926994882524013519287109375</LatitudeDegrees>
              <LongitudeDegrees>-8.19615877233445644378662109375</LongitudeDegrees>
            </Position>
            <AltitudeMeters>213.399993896484375</AltitudeMeters>
            <DistanceMeters>153419.6462261</DistanceMeters>
          </Trackpoint>
          <Trackpoint>
            <Time>2018-09-13T16:24:20.000Z</Time>
            <Position>
              <LatitudeDegrees>38.76909644342958927154541015625</LatitudeDegrees>
              <LongitudeDegrees>-8.19597688503563404083251953125</LongitudeDegrees>
            </Position>
            <AltitudeMeters>213.399993896484375</AltitudeMeters>
            <DistanceMeters>153444.58779714</DistanceMeters>
          </Trackpoint>
          <Trackpoint>
            <Time>2018-09-13T16:24:22.000Z</Time>
            <Position>
              <LatitudeDegrees>38.76897742040455341339111328125</LatitudeDegrees>
              <LongitudeDegrees>-8.1958529166877269744873046875</LongitudeDegrees>
            </Position>
            <AltitudeMeters>213.1999969482421875</AltitudeMeters>
            <DistanceMeters>153461.65349448</DistanceMeters>
          </Trackpoint>
          <Trackpoint>
            <Time>2018-09-13T16:24:25.000Z</Time>
            <Position>
              <LatitudeDegrees>38.768791593611240386962890625</LatitudeDegrees>
              <LongitudeDegrees>-8.19566600024700164794921875</LongitudeDegrees>
            </Position>
            <AltitudeMeters>212.600006103515625</AltitudeMeters>
            <DistanceMeters>153487.9383028</DistanceMeters>
          </Trackpoint>
          <Trackpoint>
            <Time>2018-09-13T16:24:27.000Z</Time>
            <Position>
              <LatitudeDegrees>38.768667876720428466796875</LatitudeDegrees>
              <LongitudeDegrees>-8.19553113542497158050537109375</LongitudeDegrees>
            </Position>
            <AltitudeMeters>211.1999969482421875</AltitudeMeters>
            <DistanceMeters>153506.00987564</DistanceMeters>
          </Trackpoint>
          <Trackpoint>
            <Time>2018-09-13T16:24:30.000Z</Time>
            <Position>
              <LatitudeDegrees>38.7684786133468151092529296875</LatitudeDegrees>
              <LongitudeDegrees>-8.19533717818558216094970703125</LongitudeDegrees>
            </Position>
            <AltitudeMeters>209.1999969482421875</AltitudeMeters>
            <DistanceMeters>153532.97369537</DistanceMeters>
          </Trackpoint>
          <Trackpoint>
            <Time>2018-09-13T16:24:33.000Z</Time>
            <Position>
              <LatitudeDegrees>38.7682844884693622589111328125</LatitudeDegrees>
              <LongitudeDegrees>-8.1951431371271610260009765625</LongitudeDegrees>
            </Position>
            <AltitudeMeters>207.8000030517578125</AltitudeMeters>
            <DistanceMeters>153560.3669486</DistanceMeters>
          </Trackpoint>
          <Trackpoint>
            <Time>2018-09-13T16:24:34.000Z</Time>
            <Position>
              <LatitudeDegrees>38.7682164274156093597412109375</LatitudeDegrees>
              <LongitudeDegrees>-8.1950790993869304656982421875</LongitudeDegrees>
            </Position>
            <AltitudeMeters>207.600006103515625</AltitudeMeters>
            <DistanceMeters>153569.76258734</DistanceMeters>
          </Trackpoint>
          <Trackpoint>
            <Time>2018-09-13T16:24:36.000Z</Time>
            <Position>
              <LatitudeDegrees>38.76807049848139286041259765625</LatitudeDegrees>
              <LongitudeDegrees>-8.19495596922934055328369140625</LongitudeDegrees>
            </Position>
            <AltitudeMeters>207</AltitudeMeters>
            <DistanceMeters>153589.20478372</DistanceMeters>
          </Trackpoint>
          <Trackpoint>
            <Time>2018-09-13T16:24:37.000Z</Time>
            <Position>
              <LatitudeDegrees>38.7679938040673732757568359375</LatitudeDegrees>
              <LongitudeDegrees>-8.19489880464971065521240234375</LongitudeDegrees>
            </Position>
            <AltitudeMeters>206.8000030517578125</AltitudeMeters>
            <DistanceMeters>153599.07750599</DistanceMeters>
          </Trackpoint>
          <Trackpoint>
            <Time>2018-09-13T16:24:41.000Z</Time>
            <Position>
              <LatitudeDegrees>38.7676628865301609039306640625</LatitudeDegrees>
              <LongitudeDegrees>-8.19469663314521312713623046875</LongitudeDegrees>
            </Position>
            <AltitudeMeters>206</AltitudeMeters>
            <DistanceMeters>153639.87452304</DistanceMeters>
          </Trackpoint>
          <Trackpoint>
            <Time>2018-09-13T16:24:45.000Z</Time>
            <Position>
              <LatitudeDegrees>38.76731109805405139923095703125</LatitudeDegrees>
              <LongitudeDegrees>-8.19450301118195056915283203125</LongitudeDegrees>
            </Position>
            <AltitudeMeters>205</AltitudeMeters>
            <DistanceMeters>153682.48232313</DistanceMeters>
          </Trackpoint>
          <Trackpoint>
            <Time>2018-09-13T16:24:46.000Z</Time>
            <Position>
              <LatitudeDegrees>38.7672219984233379364013671875</LatitudeDegrees>
              <LongitudeDegrees>-8.194451965391635894775390625</LongitudeDegrees>
            </Position>
            <AltitudeMeters>204.8000030517578125</AltitudeMeters>
            <DistanceMeters>153693.34367289</DistanceMeters>
          </Trackpoint>
          <Trackpoint>
            <Time>2018-09-13T16:24:49.000Z</Time>
            <Position>
              <LatitudeDegrees>38.76695184968411922454833984375</LatitudeDegrees>
              <LongitudeDegrees>-8.1942979060113430023193359375</LongitudeDegrees>
            </Position>
            <AltitudeMeters>204.1999969482421875</AltitudeMeters>
            <DistanceMeters>153726.25009456</DistanceMeters>
          </Trackpoint>
          <Trackpoint>
            <Time>2018-09-13T16:24:52.000Z</Time>
            <Position>
              <LatitudeDegrees>38.76668061129748821258544921875</LatitudeDegrees>
              <LongitudeDegrees>-8.19414426572620868682861328125</LongitudeDegrees>
            </Position>
            <AltitudeMeters>204.399993896484375</AltitudeMeters>
            <DistanceMeters>153759.25269597</DistanceMeters>
          </Trackpoint>
          <Trackpoint>
            <Time>2018-09-13T16:24:53.000Z</Time>
            <Position>
              <LatitudeDegrees>38.76659025438129901885986328125</LatitudeDegrees>
              <LongitudeDegrees>-8.1940893642604351043701171875</LongitudeDegrees>
            </Position>
            <AltitudeMeters>204.399993896484375</AltitudeMeters>
            <DistanceMeters>153770.38096935</DistanceMeters>
          </Trackpoint>
          <Trackpoint>
            <Time>2018-09-13T16:24:58.000Z</Time>
            <Position>
              <LatitudeDegrees>38.7661561556160449981689453125</LatitudeDegrees>
              <LongitudeDegrees>-8.193776719272136688232421875</LongitudeDegrees>
            </Position>
            <AltitudeMeters>203.399993896484375</AltitudeMeters>
            <DistanceMeters>153825.79384867</DistanceMeters>
          </Trackpoint>
          <Trackpoint>
            <Time>2018-09-13T16:25:03.000Z</Time>
            <Position>
              <LatitudeDegrees>38.76575910486280918121337890625</LatitudeDegrees>
              <LongitudeDegrees>-8.19345854222774505615234375</LongitudeDegrees>
            </Position>
            <AltitudeMeters>201.399993896484375</AltitudeMeters>
            <DistanceMeters>153877.90359111</DistanceMeters>
          </Trackpoint>
          <Trackpoint>
            <Time>2018-09-13T16:25:04.000Z</Time>
            <Position>
              <LatitudeDegrees>38.76568199135363101959228515625</LatitudeDegrees>
              <LongitudeDegrees>-8.1933993659913539886474609375</LongitudeDegrees>
            </Position>
            <AltitudeMeters>201.399993896484375</AltitudeMeters>
            <DistanceMeters>153887.90580171</DistanceMeters>
          </Trackpoint>
          <Trackpoint>
            <Time>2018-09-13T16:25:07.000Z</Time>
            <Position>
              <LatitudeDegrees>38.76544930972158908843994140625</LatitudeDegrees>
              <LongitudeDegrees>-8.193228542804718017578125</LongitudeDegrees>
            </Position>
            <AltitudeMeters>201.399993896484375</AltitudeMeters>
            <DistanceMeters>153917.74661099</DistanceMeters>
          </Trackpoint>
          <Trackpoint>
            <Time>2018-09-13T16:25:08.000Z</Time>
            <Position>
              <LatitudeDegrees>38.7653689272701740264892578125</LatitudeDegrees>
              <LongitudeDegrees>-8.19317917339503765106201171875</LongitudeDegrees>
            </Position>
            <AltitudeMeters>201.1999969482421875</AltitudeMeters>
            <DistanceMeters>153927.666781</DistanceMeters>
          </Trackpoint>
          <Trackpoint>
            <Time>2018-09-13T16:25:12.000Z</Time>
            <Position>
              <LatitudeDegrees>38.7650256045162677764892578125</LatitudeDegrees>
              <LongitudeDegrees>-8.19308571517467498779296875</LongitudeDegrees>
            </Position>
            <AltitudeMeters>200.8000030517578125</AltitudeMeters>
            <DistanceMeters>153966.73062091</DistanceMeters>
          </Trackpoint>
          <Trackpoint>
            <Time>2018-09-13T16:25:16.000Z</Time>
            <Position>
              <LatitudeDegrees>38.7646769173443317413330078125</LatitudeDegrees>
              <LongitudeDegrees>-8.19303810596466064453125</LongitudeDegrees>
            </Position>
            <AltitudeMeters>201</AltitudeMeters>
            <DistanceMeters>154005.75965542</DistanceMeters>
          </Trackpoint>
          <Trackpoint>
            <Time>2018-09-13T16:25:21.000Z</Time>
            <Position>
              <LatitudeDegrees>38.764252960681915283203125</LatitudeDegrees>
              <LongitudeDegrees>-8.1930486671626567840576171875</LongitudeDegrees>
            </Position>
            <AltitudeMeters>202.600006103515625</AltitudeMeters>
            <DistanceMeters>154052.95589549</DistanceMeters>
          </Trackpoint>
          <Trackpoint>
            <Time>2018-09-13T16:25:26.000Z</Time>
            <Position>
              <LatitudeDegrees>38.76391055993735790252685546875</LatitudeDegrees>
              <LongitudeDegrees>-8.19323583506047725677490234375</LongitudeDegrees>
            </Position>
            <AltitudeMeters>206.600006103515625</AltitudeMeters>
            <DistanceMeters>154094.38307472</DistanceMeters>
          </Trackpoint>
          <Trackpoint>
            <Time>2018-09-13T16:25:32.000Z</Time>
            <Position>
              <LatitudeDegrees>38.7635933049023151397705078125</LatitudeDegrees>
              <LongitudeDegrees>-8.1934466399252414703369140625</LongitudeDegrees>
            </Position>
            <AltitudeMeters>210.399993896484375</AltitudeMeters>
            <DistanceMeters>154134.15206689</DistanceMeters>
          </Trackpoint>
          <Trackpoint>
            <Time>2018-09-13T16:25:36.000Z</Time>
            <Position>
              <LatitudeDegrees>38.76340814866125583648681640625</LatitudeDegrees>
              <LongitudeDegrees>-8.193570859730243682861328125</LongitudeDegrees>
            </Position>
            <AltitudeMeters>211</AltitudeMeters>
            <DistanceMeters>154157.40994017</DistanceMeters>
          </Trackpoint>
          <Trackpoint>
            <Time>2018-09-13T16:25:37.000Z</Time>
            <Position>
              <LatitudeDegrees>38.76336322166025638580322265625</LatitudeDegrees>
              <LongitudeDegrees>-8.1935961730778217315673828125</LongitudeDegrees>
            </Position>
            <AltitudeMeters>211.1999969482421875</AltitudeMeters>
            <DistanceMeters>154162.87129005</DistanceMeters>
          </Trackpoint>
          <Trackpoint>
            <Time>2018-09-13T16:25:40.000Z</Time>
            <Position>
              <LatitudeDegrees>38.76322911120951175689697265625</LatitudeDegrees>
              <LongitudeDegrees>-8.19366750307381153106689453125</LongitudeDegrees>
            </Position>
            <AltitudeMeters>211.399993896484375</AltitudeMeters>
            <DistanceMeters>154179.03086153</DistanceMeters>
          </Trackpoint>
          <Trackpoint>
            <Time>2018-09-13T16:25:44.000Z</Time>
            <Position>
              <LatitudeDegrees>38.7630528397858142852783203125</LatitudeDegrees>
              <LongitudeDegrees>-8.19377864710986614227294921875</LongitudeDegrees>
            </Position>
            <AltitudeMeters>211.600006103515625</AltitudeMeters>
            <DistanceMeters>154200.89320235</DistanceMeters>
          </Trackpoint>
          <Trackpoint>
            <Time>2018-09-13T16:25:47.000Z</Time>
            <Position>
              <LatitudeDegrees>38.76292149536311626434326171875</LatitudeDegrees>
              <LongitudeDegrees>-8.193867243826389312744140625</LongitudeDegrees>
            </Position>
            <AltitudeMeters>211.8000030517578125</AltitudeMeters>
            <DistanceMeters>154217.41091193</DistanceMeters>
          </Trackpoint>
          <Trackpoint>
            <Time>2018-09-13T16:25:50.000Z</Time>
            <Position>
              <LatitudeDegrees>38.7627817690372467041015625</LatitudeDegrees>
              <LongitudeDegrees>-8.193949051201343536376953125</LongitudeDegrees>
            </Position>
            <AltitudeMeters>212</AltitudeMeters>
            <DistanceMeters>154234.50674341</DistanceMeters>
          </Trackpoint>
          <Trackpoint>
            <Time>2018-09-13T16:25:57.000Z</Time>
            <Position>
              <LatitudeDegrees>38.7623906694352626800537109375</LatitudeDegrees>
              <LongitudeDegrees>-8.19406480528414249420166015625</LongitudeDegrees>
            </Position>
            <AltitudeMeters>210.1999969482421875</AltitudeMeters>
            <DistanceMeters>154279.18102433</DistanceMeters>
          </Trackpoint>
          <Trackpoint>
            <Time>2018-09-13T16:26:05.000Z</Time>
            <Position>
              <LatitudeDegrees>38.7618133239448070526123046875</LatitudeDegrees>
              <LongitudeDegrees>-8.194062709808349609375</LongitudeDegrees>
            </Position>
            <AltitudeMeters>208</AltitudeMeters>
            <DistanceMeters>154343.44100875</DistanceMeters>
          </Trackpoint>
          <Trackpoint>
            <Time>2018-09-13T16:26:12.000Z</Time>
            <Position>
              <LatitudeDegrees>38.76126724295318126678466796875</LatitudeDegrees>
              <LongitudeDegrees>-8.19404535926878452301025390625</LongitudeDegrees>
            </Position>
            <AltitudeMeters>208</AltitudeMeters>
            <DistanceMeters>154404.2395432</DistanceMeters>
          </Trackpoint>
          <Trackpoint>
            <Time>2018-09-13T16:26:18.000Z</Time>
            <Position>
              <LatitudeDegrees>38.76081747002899646759033203125</LatitudeDegrees>
              <LongitudeDegrees>-8.19401987828314304351806640625</LongitudeDegrees>
            </Position>
            <AltitudeMeters>207</AltitudeMeters>
            <DistanceMeters>154454.34899577</DistanceMeters>
          </Trackpoint>
          <Trackpoint>
            <Time>2018-09-13T16:26:23.000Z</Time>
            <Position>
              <LatitudeDegrees>38.76046408899128437042236328125</LatitudeDegrees>
              <LongitudeDegrees>-8.19401551969349384307861328125</LongitudeDegrees>
            </Position>
            <AltitudeMeters>206.600006103515625</AltitudeMeters>
            <DistanceMeters>154493.68282456</DistanceMeters>
          </Trackpoint>
          <Trackpoint>
            <Time>2018-09-13T16:26:26.000Z</Time>
            <Position>
              <LatitudeDegrees>38.76025202684104442596435546875</LatitudeDegrees>
              <LongitudeDegrees>-8.19401551969349384307861328125</LongitudeDegrees>
            </Position>
            <AltitudeMeters>205.600006103515625</AltitudeMeters>
            <DistanceMeters>154517.28563173</DistanceMeters>
          </Trackpoint>
          <Trackpoint>
            <Time>2018-09-13T16:26:30.000Z</Time>
            <Position>
              <LatitudeDegrees>38.75994340516626834869384765625</LatitudeDegrees>
              <LongitudeDegrees>-8.19401987828314304351806640625</LongitudeDegrees>
            </Position>
            <AltitudeMeters>203.399993896484375</AltitudeMeters>
            <DistanceMeters>154551.63801898</DistanceMeters>
          </Trackpoint>
          <Trackpoint>
            <Time>2018-09-13T16:26:32.000Z</Time>
            <Position>
              <LatitudeDegrees>38.7597788684070110321044921875</LatitudeDegrees>
              <LongitudeDegrees>-8.1940407492220401763916015625</LongitudeDegrees>
            </Position>
            <AltitudeMeters>202.399993896484375</AltitudeMeters>
            <DistanceMeters>154570.0408445</DistanceMeters>
          </Trackpoint>
          <Trackpoint>
            <Time>2018-09-13T16:26:33.000Z</Time>
            <Position>
              <LatitudeDegrees>38.759694881737232208251953125</LatitudeDegrees>
              <LongitudeDegrees>-8.194064386188983917236328125</LongitudeDegrees>
            </Position>
            <AltitudeMeters>201.8000030517578125</AltitudeMeters>
            <DistanceMeters>154579.61074707</DistanceMeters>
          </Trackpoint>
          <Trackpoint>
            <Time>2018-09-13T16:26:35.000Z</Time>
            <Position>
              <LatitudeDegrees>38.759532608091831207275390625</LatitudeDegrees>
              <LongitudeDegrees>-8.19415859878063201904296875</LongitudeDegrees>
            </Position>
            <AltitudeMeters>200.8000030517578125</AltitudeMeters>
            <DistanceMeters>154599.43697282</DistanceMeters>
          </Trackpoint>
          <Trackpoint>
            <Time>2018-09-13T16:26:38.000Z</Time>
            <Position>
              <LatitudeDegrees>38.75932532362639904022216796875</LatitudeDegrees>
              <LongitudeDegrees>-8.1943827308714389801025390625</LongitudeDegrees>
            </Position>
            <AltitudeMeters>199.600006103515625</AltitudeMeters>
            <DistanceMeters>154629.61450104</DistanceMeters>
          </Trackpoint>
          <Trackpoint>
            <Time>2018-09-13T16:26:40.000Z</Time>
            <Position>
              <LatitudeDegrees>38.75920730642974376678466796875</LatitudeDegrees>
              <LongitudeDegrees>-8.19454173557460308074951171875</LongitudeDegrees>
            </Position>
            <AltitudeMeters>199</AltitudeMeters>
            <DistanceMeters>154648.66658709</DistanceMeters>
          </Trackpoint>
          <Trackpoint>
            <Time>2018-09-13T16:26:41.000Z</Time>
            <Position>
              <LatitudeDegrees>38.75915743410587310791015625</LatitudeDegrees>
              <LongitudeDegrees>-8.1946313381195068359375</LongitudeDegrees>
            </Position>
            <AltitudeMeters>198.8000030517578125</AltitudeMeters>
            <DistanceMeters>154658.22043515</DistanceMeters>
          </Trackpoint>
          <Trackpoint>
            <Time>2018-09-13T16:26:42.000Z</Time>
            <Position>
              <LatitudeDegrees>38.759114183485507965087890625</LatitudeDegrees>
              <LongitudeDegrees>-8.19472881965339183807373046875</LongitudeDegrees>
            </Position>
            <AltitudeMeters>198.600006103515625</AltitudeMeters>
            <DistanceMeters>154667.95499329</DistanceMeters>
          </Trackpoint>
          <Trackpoint>
            <Time>2018-09-13T16:26:45.000Z</Time>
            <Position>
              <LatitudeDegrees>38.7590607069432735443115234375</LatitudeDegrees>
              <LongitudeDegrees>-8.19506627507507801055908203125</LongitudeDegrees>
            </Position>
            <AltitudeMeters>198</AltitudeMeters>
            <DistanceMeters>154697.8419147</DistanceMeters>
          </Trackpoint>
          <Trackpoint>
            <Time>2018-09-13T16:26:47.000Z</Time>
            <Position>
              <LatitudeDegrees>38.75908124260604381561279296875</LatitudeDegrees>
              <LongitudeDegrees>-8.195305578410625457763671875</LongitudeDegrees>
            </Position>
            <AltitudeMeters>197.8000030517578125</AltitudeMeters>
            <DistanceMeters>154718.73655842</DistanceMeters>
          </Trackpoint>
          <Trackpoint>
            <Time>2018-09-13T16:26:49.000Z</Time>
            <Position>
              <LatitudeDegrees>38.75911091454327106475830078125</LatitudeDegrees>
              <LongitudeDegrees>-8.19554672576487064361572265625</LongitudeDegrees>
            </Position>
            <AltitudeMeters>197.600006103515625</AltitudeMeters>
            <DistanceMeters>154739.92495879</DistanceMeters>
          </Trackpoint>
          <Trackpoint>
            <Time>2018-09-13T16:26:50.000Z</Time>
            <Position>
              <LatitudeDegrees>38.75911862589418888092041015625</LatitudeDegrees>
              <LongitudeDegrees>-8.195667006075382232666015625</LongitudeDegrees>
            </Position>
            <AltitudeMeters>197.399993896484375</AltitudeMeters>
            <DistanceMeters>154750.39947209</DistanceMeters>
          </Trackpoint>
          <Trackpoint>
            <Time>2018-09-13T16:26:52.000Z</Time>
            <Position>
              <LatitudeDegrees>38.759092055261135101318359375</LatitudeDegrees>
              <LongitudeDegrees>-8.195907063782215118408203125</LongitudeDegrees>
            </Position>
            <AltitudeMeters>197</AltitudeMeters>
            <DistanceMeters>154771.443116</DistanceMeters>
          </Trackpoint>
          <Trackpoint>
            <Time>2018-09-13T16:26:54.000Z</Time>
            <Position>
              <LatitudeDegrees>38.75899675302207469940185546875</LatitudeDegrees>
              <LongitudeDegrees>-8.196123652160167694091796875</LongitudeDegrees>
            </Position>
            <AltitudeMeters>196</AltitudeMeters>
            <DistanceMeters>154793.02736266</DistanceMeters>
          </Trackpoint>
          <Trackpoint>
            <Time>2018-09-13T16:26:56.000Z</Time>
            <Position>
              <LatitudeDegrees>38.7588684260845184326171875</LatitudeDegrees>
              <LongitudeDegrees>-8.19631869904696941375732421875</LongitudeDegrees>
            </Position>
            <AltitudeMeters>194.8000030517578125</AltitudeMeters>
            <DistanceMeters>154815.17653856</DistanceMeters>
          </Trackpoint>
          <Trackpoint>
            <Time>2018-09-13T16:26:58.000Z</Time>
            <Position>
              <LatitudeDegrees>38.75873238779604434967041015625</LatitudeDegrees>
              <LongitudeDegrees>-8.19651232101023197174072265625</LongitudeDegrees>
            </Position>
            <AltitudeMeters>193.600006103515625</AltitudeMeters>
            <DistanceMeters>154837.79648974</DistanceMeters>
          </Trackpoint>
          <Trackpoint>
            <Time>2018-09-13T16:27:00.000Z</Time>
            <Position>
              <LatitudeDegrees>38.75859140418469905853271484375</LatitudeDegrees>
              <LongitudeDegrees>-8.19670711643993854522705078125</LongitudeDegrees>
            </Position>
            <AltitudeMeters>192.399993896484375</AltitudeMeters>
            <DistanceMeters>154860.86313588</DistanceMeters>
          </Trackpoint>
          <Trackpoint>
            <Time>2018-09-13T16:27:03.000Z</Time>
            <Position>
              <LatitudeDegrees>38.7583748996257781982421875</LatitudeDegrees>
              <LongitudeDegrees>-8.1969915144145488739013671875</LongitudeDegrees>
            </Position>
            <AltitudeMeters>190.8000030517578125</AltitudeMeters>
            <DistanceMeters>154895.35901119</DistanceMeters>
          </Trackpoint>
          <Trackpoint>
            <Time>2018-09-13T16:27:06.000Z</Time>
            <Position>
              <LatitudeDegrees>38.758143223822116851806640625</LatitudeDegrees>
              <LongitudeDegrees>-8.1972486712038516998291015625</LongitudeDegrees>
            </Position>
            <AltitudeMeters>189.399993896484375</AltitudeMeters>
            <DistanceMeters>154929.46287968</DistanceMeters>
          </Trackpoint>
          <Trackpoint>
            <Time>2018-09-13T16:27:08.000Z</Time>
            <Position>
              <LatitudeDegrees>38.7579854764044284820556640625</LatitudeDegrees>
              <LongitudeDegrees>-8.1974142976105213165283203125</LongitudeDegrees>
            </Position>
            <AltitudeMeters>188.399993896484375</AltitudeMeters>
            <DistanceMeters>154952.15477359</DistanceMeters>
          </Trackpoint>
          <Trackpoint>
            <Time>2018-09-13T16:27:11.000Z</Time>
            <Position>
              <LatitudeDegrees>38.7577514536678791046142578125</LatitudeDegrees>
              <LongitudeDegrees>-8.1976597197353839874267578125</LongitudeDegrees>
            </Position>
            <AltitudeMeters>187</AltitudeMeters>
            <DistanceMeters>154985.80281937</DistanceMeters>
          </Trackpoint>
          <Trackpoint>
            <Time>2018-09-13T16:27:15.000Z</Time>
            <Position>
              <LatitudeDegrees>38.75743604265153408050537109375</LatitudeDegrees>
              <LongitudeDegrees>-8.1979795731604099273681640625</LongitudeDegrees>
            </Position>
            <AltitudeMeters>186.600006103515625</AltitudeMeters>
            <DistanceMeters>155030.55878776</DistanceMeters>
          </Trackpoint>
          <Trackpoint>
            <Time>2018-09-13T16:27:18.000Z</Time>
            <Position>
              <LatitudeDegrees>38.757210485637187957763671875</LatitudeDegrees>
              <LongitudeDegrees>-8.1982119195163249969482421875</LongitudeDegrees>
            </Position>
            <AltitudeMeters>186.1999969482421875</AltitudeMeters>
            <DistanceMeters>155062.7602273</DistanceMeters>
          </Trackpoint>
          <Trackpoint>
            <Time>2018-09-13T16:27:20.000Z</Time>
            <Position>
              <LatitudeDegrees>38.757062293589115142822265625</LatitudeDegrees>
              <LongitudeDegrees>-8.19836405105888843536376953125</LongitudeDegrees>
            </Position>
            <AltitudeMeters>186.1999969482421875</AltitudeMeters>
            <DistanceMeters>155083.88866451</DistanceMeters>
          </Trackpoint>
          <Trackpoint>
            <Time>2018-09-13T16:27:23.000Z</Time>
            <Position>
              <LatitudeDegrees>38.75683740712702274322509765625</LatitudeDegrees>
              <LongitudeDegrees>-8.19858918897807598114013671875</LongitudeDegrees>
            </Position>
            <AltitudeMeters>186.600006103515625</AltitudeMeters>
            <DistanceMeters>155115.64323137</DistanceMeters>
          </Trackpoint>
          <Trackpoint>
            <Time>2018-09-13T16:27:27.000Z</Time>
            <Position>
              <LatitudeDegrees>38.75656717456877231597900390625</LatitudeDegrees>
              <LongitudeDegrees>-8.198866210877895355224609375</LongitudeDegrees>
            </Position>
            <AltitudeMeters>188.399993896484375</AltitudeMeters>
            <DistanceMeters>155154.14992744</DistanceMeters>
          </Trackpoint>
          <Trackpoint>
            <Time>2018-09-13T16:27:31.000Z</Time>
            <Position>
              <LatitudeDegrees>38.7563422881066799163818359375</LatitudeDegrees>
              <LongitudeDegrees>-8.1990836374461650848388671875</LongitudeDegrees>
            </Position>
            <AltitudeMeters>190</AltitudeMeters>
            <DistanceMeters>155185.49722267</DistanceMeters>
          </Trackpoint>
          <Trackpoint>
            <Time>2018-09-13T16:27:34.000Z</Time>
            <Position>
              <LatitudeDegrees>38.756178505718708038330078125</LatitudeDegrees>
              <LongitudeDegrees>-8.199178017675876617431640625</LongitudeDegrees>
            </Position>
            <AltitudeMeters>191</AltitudeMeters>
            <DistanceMeters>155205.48245</DistanceMeters>
          </Trackpoint>
          <Trackpoint>
            <Time>2018-09-13T16:27:37.000Z</Time>
            <Position>
              <LatitudeDegrees>38.75602201558649539947509765625</LatitudeDegrees>
              <LongitudeDegrees>-8.1992542929947376251220703125</LongitudeDegrees>
            </Position>
            <AltitudeMeters>192</AltitudeMeters>
            <DistanceMeters>155224.115684</DistanceMeters>
          </Trackpoint>
          <Trackpoint>
            <Time>2018-09-13T16:27:38.000Z</Time>
            <Position>
              <LatitudeDegrees>38.75597122125327587127685546875</LatitudeDegrees>
              <LongitudeDegrees>-8.1992801092565059661865234375</LongitudeDegrees>
            </Position>
            <AltitudeMeters>191.8000030517578125</AltitudeMeters>
            <DistanceMeters>155230.19739372</DistanceMeters>
          </Trackpoint>
          <Trackpoint>
            <Time>2018-09-13T16:27:40.000Z</Time>
            <Position>
              <LatitudeDegrees>38.7558698840439319610595703125</LatitudeDegrees>
              <LongitudeDegrees>-8.199328221380710601806640625</LongitudeDegrees>
            </Position>
            <AltitudeMeters>191.399993896484375</AltitudeMeters>
            <DistanceMeters>155242.22456273</DistanceMeters>
          </Trackpoint>
          <Trackpoint>
            <Time>2018-09-13T16:27:43.000Z</Time>
            <Position>
              <LatitudeDegrees>38.7557186745107173919677734375</LatitudeDegrees>
              <LongitudeDegrees>-8.199384212493896484375</LongitudeDegrees>
            </Position>
            <AltitudeMeters>190.8000030517578125</AltitudeMeters>
            <DistanceMeters>155259.74198428</DistanceMeters>
          </Trackpoint>
          <Trackpoint>
            <Time>2018-09-13T16:27:47.000Z</Time>
            <Position>
              <LatitudeDegrees>38.75550292432308197021484375</LatitudeDegrees>
              <LongitudeDegrees>-8.19941111840307712554931640625</LongitudeDegrees>
            </Position>
            <AltitudeMeters>190</AltitudeMeters>
            <DistanceMeters>155283.86866635</DistanceMeters>
          </Trackpoint>
          <Trackpoint>
            <Time>2018-09-13T16:27:48.000Z</Time>
            <Position>
              <LatitudeDegrees>38.75544802285730838775634765625</LatitudeDegrees>
              <LongitudeDegrees>-8.19940575398504734039306640625</LongitudeDegrees>
            </Position>
            <AltitudeMeters>190</AltitudeMeters>
            <DistanceMeters>155289.99696856</DistanceMeters>
          </Trackpoint>
          <Trackpoint>
            <Time>2018-09-13T16:27:52.000Z</Time>
            <Position>
              <LatitudeDegrees>38.7552291713654994964599609375</LatitudeDegrees>
              <LongitudeDegrees>-8.199334926903247833251953125</LongitudeDegrees>
            </Position>
            <AltitudeMeters>189.8000030517578125</AltitudeMeters>
            <DistanceMeters>155315.11927145</DistanceMeters>
          </Trackpoint>
          <Trackpoint>
            <Time>2018-09-13T16:27:57.000Z</Time>
            <Position>
              <LatitudeDegrees>38.75490906648337841033935546875</LatitudeDegrees>
              <LongitudeDegrees>-8.19916988722980022430419921875</LongitudeDegrees>
            </Position>
            <AltitudeMeters>188.1999969482421875</AltitudeMeters>
            <DistanceMeters>155353.51947149</DistanceMeters>
          </Trackpoint>
          <Trackpoint>
            <Time>2018-09-13T16:28:01.000Z</Time>
            <Position>
              <LatitudeDegrees>38.7546595372259616851806640625</LatitudeDegrees>
              <LongitudeDegrees>-8.198892362415790557861328125</LongitudeDegrees>
            </Position>
            <AltitudeMeters>186.8000030517578125</AltitudeMeters>
            <DistanceMeters>155390.28363586</DistanceMeters>
          </Trackpoint>
          <Trackpoint>
            <Time>2018-09-13T16:28:05.000Z</Time>
            <Position>
              <LatitudeDegrees>38.7544023804366588592529296875</LatitudeDegrees>
              <LongitudeDegrees>-8.1985679827630519866943359375</LongitudeDegrees>
            </Position>
            <AltitudeMeters>185.1999969482421875</AltitudeMeters>
            <DistanceMeters>155430.43261949</DistanceMeters>
          </Trackpoint>
          <Trackpoint>
            <Time>2018-09-13T16:28:08.000Z</Time>
            <Position>
              <LatitudeDegrees>38.75416642986238002777099609375</LatitudeDegrees>
              <LongitudeDegrees>-8.19833035580813884735107421875</LongitudeDegrees>
            </Position>
            <AltitudeMeters>184</AltitudeMeters>
            <DistanceMeters>155463.82555317</DistanceMeters>
          </Trackpoint>
          <Trackpoint>
            <Time>2018-09-13T16:28:11.000Z</Time>
            <Position>
              <LatitudeDegrees>38.7539048306643962860107421875</LatitudeDegrees>
              <LongitudeDegrees>-8.19810320623219013214111328125</LongitudeDegrees>
            </Position>
            <AltitudeMeters>182.8000030517578125</AltitudeMeters>
            <DistanceMeters>155498.98941811</DistanceMeters>
          </Trackpoint>
          <Trackpoint>
            <Time>2018-09-13T16:28:14.000Z</Time>
            <Position>
              <LatitudeDegrees>38.75363434664905071258544921875</LatitudeDegrees>
              <LongitudeDegrees>-8.19787236861884593963623046875</LongitudeDegrees>
            </Position>
            <AltitudeMeters>182</AltitudeMeters>
            <DistanceMeters>155535.15267046</DistanceMeters>
          </Trackpoint>
          <Trackpoint>
            <Time>2018-09-13T16:28:16.000Z</Time>
            <Position>
              <LatitudeDegrees>38.7534498609602451324462890625</LatitudeDegrees>
              <LongitudeDegrees>-8.19773406721651554107666015625</LongitudeDegrees>
            </Position>
            <AltitudeMeters>181.399993896484375</AltitudeMeters>
            <DistanceMeters>155558.93783999</DistanceMeters>
          </Trackpoint>
          <Trackpoint>
            <Time>2018-09-13T16:28:17.000Z</Time>
            <Position>
              <LatitudeDegrees>38.75335556454956531524658203125</LatitudeDegrees>
              <LongitudeDegrees>-8.19767707027494907379150390625</LongitudeDegrees>
            </Position>
            <AltitudeMeters>181</AltitudeMeters>
            <DistanceMeters>155570.54122052</DistanceMeters>
          </Trackpoint>
          <Trackpoint>
            <Time>2018-09-13T16:28:18.000Z</Time>
            <Position>
              <LatitudeDegrees>38.75326001085340976715087890625</LatitudeDegrees>
              <LongitudeDegrees>-8.1976308859884738922119140625</LongitudeDegrees>
            </Position>
            <AltitudeMeters>180.600006103515625</AltitudeMeters>
            <DistanceMeters>155581.90674926</DistanceMeters>
          </Trackpoint>
          <Trackpoint>
            <Time>2018-09-13T16:28:20.000Z</Time>
            <Position>
              <LatitudeDegrees>38.7530689872801303863525390625</LatitudeDegrees>
              <LongitudeDegrees>-8.19755754433572292327880859375</LongitudeDegrees>
            </Position>
            <AltitudeMeters>180</AltitudeMeters>
            <DistanceMeters>155604.10072614</DistanceMeters>
          </Trackpoint>
          <Trackpoint>
            <Time>2018-09-13T16:28:23.000Z</Time>
            <Position>
              <LatitudeDegrees>38.752790875732898712158203125</LatitudeDegrees>
              <LongitudeDegrees>-8.19747204892337322235107421875</LongitudeDegrees>
            </Position>
            <AltitudeMeters>179</AltitudeMeters>
            <DistanceMeters>155635.93226424</DistanceMeters>
          </Trackpoint>
          <Trackpoint>
            <Time>2018-09-13T16:28:24.000Z</Time>
            <Position>
              <LatitudeDegrees>38.7526988424360752105712890625</LatitudeDegrees>
              <LongitudeDegrees>-8.1974624097347259521484375</LongitudeDegrees>
            </Position>
            <AltitudeMeters>178.600006103515625</AltitudeMeters>
            <DistanceMeters>155646.20965711</DistanceMeters>
          </Trackpoint>
          <Trackpoint>
            <Time>2018-09-13T16:28:29.000Z</Time>
            <Position>
              <LatitudeDegrees>38.752262480556964874267578125</LatitudeDegrees>
              <LongitudeDegrees>-8.19759258069097995758056640625</LongitudeDegrees>
            </Position>
            <AltitudeMeters>177.600006103515625</AltitudeMeters>
            <DistanceMeters>155696.07469345</DistanceMeters>
          </Trackpoint>
          <Trackpoint>
            <Time>2018-09-13T16:28:36.000Z</Time>
            <Position>
              <LatitudeDegrees>38.7517042458057403564453125</LatitudeDegrees>
              <LongitudeDegrees>-8.197906315326690673828125</LongitudeDegrees>
            </Position>
            <AltitudeMeters>177.600006103515625</AltitudeMeters>
            <DistanceMeters>155763.91325254</DistanceMeters>
          </Trackpoint>
          <Trackpoint>
            <Time>2018-09-13T16:28:40.000Z</Time>
            <Position>
              <LatitudeDegrees>38.75138975679874420166015625</LatitudeDegrees>
              <LongitudeDegrees>-8.19807420484721660614013671875</LongitudeDegrees>
            </Position>
            <AltitudeMeters>178.600006103515625</AltitudeMeters>
            <DistanceMeters>155801.82879249</DistanceMeters>
          </Trackpoint>
          <Trackpoint>
            <Time>2018-09-13T16:28:47.000Z</Time>
            <Position>
              <LatitudeDegrees>38.75084183178842067718505859375</LatitudeDegrees>
              <LongitudeDegrees>-8.19826464168727397918701171875</LongitudeDegrees>
            </Position>
            <AltitudeMeters>180.1999969482421875</AltitudeMeters>
            <DistanceMeters>155865.01448373</DistanceMeters>
          </Trackpoint>
          <Trackpoint>
            <Time>2018-09-13T16:28:51.000Z</Time>
            <Position>
              <LatitudeDegrees>38.75056221149861812591552734375</LatitudeDegrees>
              <LongitudeDegrees>-8.19834644906222820281982421875</LongitudeDegrees>
            </Position>
            <AltitudeMeters>182</AltitudeMeters>
            <DistanceMeters>155896.93667142</DistanceMeters>
          </Trackpoint>
          <Trackpoint>
            <Time>2018-09-13T16:28:57.000Z</Time>
            <Position>
              <LatitudeDegrees>38.75023045577108860015869140625</LatitudeDegrees>
              <LongitudeDegrees>-8.1984187848865985870361328125</LongitudeDegrees>
            </Position>
            <AltitudeMeters>183.8000030517578125</AltitudeMeters>
            <DistanceMeters>155934.3917857</DistanceMeters>
          </Trackpoint>
          <Trackpoint>
            <Time>2018-09-13T16:28:58.000Z</Time>
            <Position>
              <LatitudeDegrees>38.75018200837075710296630859375</LatitudeDegrees>
              <LongitudeDegrees>-8.19842859171330928802490234375</LongitudeDegrees>
            </Position>
            <AltitudeMeters>184</AltitudeMeters>
            <DistanceMeters>155939.85065484</DistanceMeters>
          </Trackpoint>
          <Trackpoint>
            <Time>2018-09-13T16:29:01.000Z</Time>
            <Position>
              <LatitudeDegrees>38.75004638917744159698486328125</LatitudeDegrees>
              <LongitudeDegrees>-8.198455162346363067626953125</LongitudeDegrees>
            </Position>
            <AltitudeMeters>184.8000030517578125</AltitudeMeters>
            <DistanceMeters>155955.12071161</DistanceMeters>
          </Trackpoint>
          <Trackpoint>
            <Time>2018-09-13T16:29:04.000Z</Time>
            <Position>
              <LatitudeDegrees>38.749917559325695037841796875</LatitudeDegrees>
              <LongitudeDegrees>-8.1984801404178142547607421875</LongitudeDegrees>
            </Position>
            <AltitudeMeters>185.600006103515625</AltitudeMeters>
            <DistanceMeters>155969.62279699</DistanceMeters>
          </Trackpoint>
          <Trackpoint>
            <Time>2018-09-13T16:29:08.000Z</Time>
            <Position>
              <LatitudeDegrees>38.7497541122138500213623046875</LatitudeDegrees>
              <LongitudeDegrees>-8.1985203735530376434326171875</LongitudeDegrees>
            </Position>
            <AltitudeMeters>186.8000030517578125</AltitudeMeters>
            <DistanceMeters>155988.14691384</DistanceMeters>
          </Trackpoint>
          <Trackpoint>
            <Time>2018-09-13T16:29:12.000Z</Time>
            <Position>
              <LatitudeDegrees>38.74960097484290599822998046875</LatitudeDegrees>
              <LongitudeDegrees>-8.19855214096605777740478515625</LongitudeDegrees>
            </Position>
            <AltitudeMeters>187.8000030517578125</AltitudeMeters>
            <DistanceMeters>156005.41303511</DistanceMeters>
          </Trackpoint>
          <Trackpoint>
            <Time>2018-09-13T16:29:17.000Z</Time>
            <Position>
              <LatitudeDegrees>38.749414645135402679443359375</LatitudeDegrees>
              <LongitudeDegrees>-8.19860092364251613616943359375</LongitudeDegrees>
            </Position>
            <AltitudeMeters>189</AltitudeMeters>
            <DistanceMeters>156026.57990245</DistanceMeters>
          </Trackpoint>
          <Trackpoint>
            <Time>2018-09-13T16:29:23.000Z</Time>
            <Position>
              <LatitudeDegrees>38.74919227324426174163818359375</LatitudeDegrees>
              <LongitudeDegrees>-8.198643587529659271240234375</LongitudeDegrees>
            </Position>
            <AltitudeMeters>189.399993896484375</AltitudeMeters>
            <DistanceMeters>156051.60604961</DistanceMeters>
          </Trackpoint>
          <Trackpoint>
            <Time>2018-09-13T16:29:24.000Z</Time>
            <Position>
              <LatitudeDegrees>38.74915338121354579925537109375</LatitudeDegrees>
              <LongitudeDegrees>-8.1986481137573719024658203125</LongitudeDegrees>
            </Position>
            <AltitudeMeters>189.399993896484375</AltitudeMeters>
            <DistanceMeters>156055.9524182</DistanceMeters>
          </Trackpoint>
          <Trackpoint>
            <Time>2018-09-13T16:29:29.000Z</Time>
            <Position>
              <LatitudeDegrees>38.7489652074873447418212890625</LatitudeDegrees>
              <LongitudeDegrees>-8.198697231709957122802734375</LongitudeDegrees>
            </Position>
            <AltitudeMeters>189.8000030517578125</AltitudeMeters>
            <DistanceMeters>156077.32603669</DistanceMeters>
          </Trackpoint>
          <Trackpoint>
            <Time>2018-09-13T16:29:34.000Z</Time>
            <Position>
              <LatitudeDegrees>38.748783655464649200439453125</LatitudeDegrees>
              <LongitudeDegrees>-8.198780380189418792724609375</LongitudeDegrees>
            </Position>
            <AltitudeMeters>190.399993896484375</AltitudeMeters>
            <DistanceMeters>156098.78356539</DistanceMeters>
          </Trackpoint>
          <Trackpoint>
            <Time>2018-09-13T16:29:42.000Z</Time>
            <Position>
              <LatitudeDegrees>38.7485404126346111297607421875</LatitudeDegrees>
              <LongitudeDegrees>-8.1989894248545169830322265625</LongitudeDegrees>
            </Position>
            <AltitudeMeters>191.8000030517578125</AltitudeMeters>
            <DistanceMeters>156131.37565051</DistanceMeters>
          </Trackpoint>
          <Trackpoint>
            <Time>2018-09-13T16:29:48.000Z</Time>
            <Position>
              <LatitudeDegrees>38.7483675777912139892578125</LatitudeDegrees>
              <LongitudeDegrees>-8.19919369183480739593505859375</LongitudeDegrees>
            </Position>
            <AltitudeMeters>192.600006103515625</AltitudeMeters>
            <DistanceMeters>156157.53769753</DistanceMeters>
          </Trackpoint>
          <Trackpoint>
            <Time>2018-09-13T16:29:58.000Z</Time>
            <Position>
              <LatitudeDegrees>38.748069517314434051513671875</LatitudeDegrees>
              <LongitudeDegrees>-8.1995620764791965484619140625</LongitudeDegrees>
            </Position>
            <AltitudeMeters>194.399993896484375</AltitudeMeters>
            <DistanceMeters>156203.61517047</DistanceMeters>
          </Trackpoint>
          <Trackpoint>
            <Time>2018-09-13T16:30:06.000Z</Time>
            <Position>
              <LatitudeDegrees>38.7478266097605228424072265625</LatitudeDegrees>
              <LongitudeDegrees>-8.19986055605113506317138671875</LongitudeDegrees>
            </Position>
            <AltitudeMeters>196.1999969482421875</AltitudeMeters>
            <DistanceMeters>156241.06184564</DistanceMeters>
          </Trackpoint>
          <Trackpoint>
            <Time>2018-09-13T16:30:16.000Z</Time>
            <Position>
              <LatitudeDegrees>38.74752544797956943511962890625</LatitudeDegrees>
              <LongitudeDegrees>-8.200261294841766357421875</LongitudeDegrees>
            </Position>
            <AltitudeMeters>198.399993896484375</AltitudeMeters>
            <DistanceMeters>156289.3698234</DistanceMeters>
          </Trackpoint>
          <Trackpoint>
            <Time>2018-09-13T16:30:26.000Z</Time>
            <Position>
              <LatitudeDegrees>38.74717793427407741546630859375</LatitudeDegrees>
              <LongitudeDegrees>-8.20061744190752506256103515625</LongitudeDegrees>
            </Position>
            <AltitudeMeters>199.1999969482421875</AltitudeMeters>
            <DistanceMeters>156338.88594558</DistanceMeters>
          </Trackpoint>
          <Trackpoint>
            <Time>2018-09-13T16:30:39.000Z</Time>
            <Position>
              <LatitudeDegrees>38.74669915996491909027099609375</LatitudeDegrees>
              <LongitudeDegrees>-8.2010393030941486358642578125</LongitudeDegrees>
            </Position>
            <AltitudeMeters>200.399993896484375</AltitudeMeters>
            <DistanceMeters>156403.54434544</DistanceMeters>
          </Trackpoint>
          <Trackpoint>
            <Time>2018-09-13T16:30:42.000Z</Time>
            <Position>
              <LatitudeDegrees>38.7465944699943065643310546875</LatitudeDegrees>
              <LongitudeDegrees>-8.201129995286464691162109375</LongitudeDegrees>
            </Position>
            <AltitudeMeters>200.8000030517578125</AltitudeMeters>
            <DistanceMeters>156417.60701496</DistanceMeters>
          </Trackpoint>
          <Trackpoint>
            <Time>2018-09-13T16:30:50.000Z</Time>
            <Position>
              <LatitudeDegrees>38.74633806757628917694091796875</LatitudeDegrees>
              <LongitudeDegrees>-8.20134398527443408966064453125</LongitudeDegrees>
            </Position>
            <AltitudeMeters>201.8000030517578125</AltitudeMeters>
            <DistanceMeters>156451.65815115</DistanceMeters>
          </Trackpoint>
          <Trackpoint>
            <Time>2018-09-13T16:30:53.000Z</Time>
            <Position>
              <LatitudeDegrees>38.746254332363605499267578125</LatitudeDegrees>
              <LongitudeDegrees>-8.20142948068678379058837890625</LongitudeDegrees>
            </Position>
            <AltitudeMeters>202.399993896484375</AltitudeMeters>
            <DistanceMeters>156463.57254587</DistanceMeters>
          </Trackpoint>
          <Trackpoint>
            <Time>2018-09-13T16:30:59.000Z</Time>
            <Position>
              <LatitudeDegrees>38.74609080143272876739501953125</LatitudeDegrees>
              <LongitudeDegrees>-8.20160717703402042388916015625</LongitudeDegrees>
            </Position>
            <AltitudeMeters>203.1999969482421875</AltitudeMeters>
            <DistanceMeters>156487.43106487</DistanceMeters>
          </Trackpoint>
          <Trackpoint>
            <Time>2018-09-13T16:31:11.000Z</Time>
            <Position>
              <LatitudeDegrees>38.74578888528048992156982421875</LatitudeDegrees>
              <LongitudeDegrees>-8.20193792693316936492919921875</LongitudeDegrees>
            </Position>
            <AltitudeMeters>207</AltitudeMeters>
            <DistanceMeters>156531.63023611</DistanceMeters>
          </Trackpoint>
          <Trackpoint>
            <Time>2018-09-13T16:31:15.000Z</Time>
            <Position>
              <LatitudeDegrees>38.74569299630820751190185546875</LatitudeDegrees>
              <LongitudeDegrees>-8.2020516693592071533203125</LongitudeDegrees>
            </Position>
            <AltitudeMeters>208.600006103515625</AltitudeMeters>
            <DistanceMeters>156546.16963395</DistanceMeters>
          </Trackpoint>
          <Trackpoint>
            <Time>2018-09-13T16:31:20.000Z</Time>
            <Position>
              <LatitudeDegrees>38.74559576623141765594482421875</LatitudeDegrees>
              <LongitudeDegrees>-8.202224671840667724609375</LongitudeDegrees>
            </Position>
            <AltitudeMeters>210.399993896484375</AltitudeMeters>
            <DistanceMeters>156564.68058424</DistanceMeters>
          </Trackpoint>
          <Trackpoint>
            <Time>2018-09-13T16:31:30.000Z</Time>
            <Position>
              <LatitudeDegrees>38.74543659389019012451171875</LatitudeDegrees>
              <LongitudeDegrees>-8.20257402956485748291015625</LongitudeDegrees>
            </Position>
            <AltitudeMeters>214</AltitudeMeters>
            <DistanceMeters>156599.80320862</DistanceMeters>
          </Trackpoint>
          <Trackpoint>
            <Time>2018-09-13T16:31:36.000Z</Time>
            <Position>
              <LatitudeDegrees>38.745335005223751068115234375</LatitudeDegrees>
              <LongitudeDegrees>-8.2027790509164333343505859375</LongitudeDegrees>
            </Position>
            <AltitudeMeters>215</AltitudeMeters>
            <DistanceMeters>156620.88886355</DistanceMeters>
          </Trackpoint>
          <Trackpoint>
            <Time>2018-09-13T16:31:41.000Z</Time>
            <Position>
              <LatitudeDegrees>38.7452495098114013671875</LatitudeDegrees>
              <LongitudeDegrees>-8.20295481942594051361083984375</LongitudeDegrees>
            </Position>
            <AltitudeMeters>215.600006103515625</AltitudeMeters>
            <DistanceMeters>156638.87127266</DistanceMeters>
          </Trackpoint>
          <Trackpoint>
            <Time>2018-09-13T16:31:51.000Z</Time>
            <Position>
              <LatitudeDegrees>38.7450349330902099609375</LatitudeDegrees>
              <LongitudeDegrees>-8.20324701257050037384033203125</LongitudeDegrees>
            </Position>
            <AltitudeMeters>216.8000030517578125</AltitudeMeters>
            <DistanceMeters>156673.71045599</DistanceMeters>
          </Trackpoint>
          <Trackpoint>
            <Time>2018-09-13T16:31:58.000Z</Time>
            <Position>
              <LatitudeDegrees>38.7448708154261112213134765625</LatitudeDegrees>
              <LongitudeDegrees>-8.20344130508601665496826171875</LongitudeDegrees>
            </Position>
            <AltitudeMeters>217.600006103515625</AltitudeMeters>
            <DistanceMeters>156698.57297503</DistanceMeters>
          </Trackpoint>
          <Trackpoint>
            <Time>2018-09-13T16:32:02.000Z</Time>
            <Position>
              <LatitudeDegrees>38.74477450735867023468017578125</LatitudeDegrees>
              <LongitudeDegrees>-8.20355311967432498931884765625</LongitudeDegrees>
            </Position>
            <AltitudeMeters>218</AltitudeMeters>
            <DistanceMeters>156713.0339055</DistanceMeters>
          </Trackpoint>
          <Trackpoint>
            <Time>2018-09-13T16:32:07.000Z</Time>
            <Position>
              <LatitudeDegrees>38.744655065238475799560546875</LatitudeDegrees>
              <LongitudeDegrees>-8.20369251072406768798828125</LongitudeDegrees>
            </Position>
            <AltitudeMeters>218.399993896484375</AltitudeMeters>
            <DistanceMeters>156731.01053883</DistanceMeters>
          </Trackpoint>
          <Trackpoint>
            <Time>2018-09-13T16:32:13.000Z</Time>
            <Position>
              <LatitudeDegrees>38.74450611881911754608154296875</LatitudeDegrees>
              <LongitudeDegrees>-8.2038581371307373046875</LongitudeDegrees>
            </Position>
            <AltitudeMeters>218.8000030517578125</AltitudeMeters>
            <DistanceMeters>156752.95492118</DistanceMeters>
          </Trackpoint>
          <Trackpoint>
            <Time>2018-09-13T16:32:19.000Z</Time>
            <Position>
              <LatitudeDegrees>38.74436345882713794708251953125</LatitudeDegrees>
              <LongitudeDegrees>-8.2040326483547687530517578125</LongitudeDegrees>
            </Position>
            <AltitudeMeters>219.399993896484375</AltitudeMeters>
            <DistanceMeters>156774.90074372</DistanceMeters>
          </Trackpoint>
          <Trackpoint>
            <Time>2018-09-13T16:32:24.000Z</Time>
            <Position>
              <LatitudeDegrees>38.7442423403263092041015625</LatitudeDegrees>
              <LongitudeDegrees>-8.2041732966899871826171875</LongitudeDegrees>
            </Position>
            <AltitudeMeters>219.8000030517578125</AltitudeMeters>
            <DistanceMeters>156793.08886678</DistanceMeters>
          </Trackpoint>
          <Trackpoint>
            <Time>2018-09-13T16:32:39.000Z</Time>
            <Position>
              <LatitudeDegrees>38.74381595291197299957275390625</LatitudeDegrees>
              <LongitudeDegrees>-8.20465316064655780792236328125</LongitudeDegrees>
            </Position>
            <AltitudeMeters>220.399993896484375</AltitudeMeters>
            <DistanceMeters>156856.23588814</DistanceMeters>
          </Trackpoint>
          <Trackpoint>
            <Time>2018-09-13T16:32:48.000Z</Time>
            <Position>
              <LatitudeDegrees>38.7434844486415386199951171875</LatitudeDegrees>
              <LongitudeDegrees>-8.2049559988081455230712890625</LongitudeDegrees>
            </Position>
            <AltitudeMeters>220.8000030517578125</AltitudeMeters>
            <DistanceMeters>156901.54081476</DistanceMeters>
          </Trackpoint>
          <Trackpoint>
            <Time>2018-09-13T16:32:49.000Z</Time>
            <Position>
              <LatitudeDegrees>38.7434442155063152313232421875</LatitudeDegrees>
              <LongitudeDegrees>-8.20499346591532230377197265625</LongitudeDegrees>
            </Position>
            <AltitudeMeters>220.8000030517578125</AltitudeMeters>
            <DistanceMeters>156907.07606989</DistanceMeters>
          </Trackpoint>
          <Trackpoint>
            <Time>2018-09-13T16:32:54.000Z</Time>
            <Position>
              <LatitudeDegrees>38.743227459490299224853515625</LatitudeDegrees>
              <LongitudeDegrees>-8.20518356747925281524658203125</LongitudeDegrees>
            </Position>
            <AltitudeMeters>220.8000030517578125</AltitudeMeters>
            <DistanceMeters>156936.30601537</DistanceMeters>
          </Trackpoint>
          <Trackpoint>
            <Time>2018-09-13T16:32:58.000Z</Time>
            <Position>
              <LatitudeDegrees>38.74305135570466518402099609375</LatitudeDegrees>
              <LongitudeDegrees>-8.205344416201114654541015625</LongitudeDegrees>
            </Position>
            <AltitudeMeters>221</AltitudeMeters>
            <DistanceMeters>156960.37180048</DistanceMeters>
          </Trackpoint>
          <Trackpoint>
            <Time>2018-09-13T16:33:04.000Z</Time>
            <Position>
              <LatitudeDegrees>38.74277140013873577117919921875</LatitudeDegrees>
              <LongitudeDegrees>-8.2055903412401676177978515625</LongitudeDegrees>
            </Position>
            <AltitudeMeters>221</AltitudeMeters>
            <DistanceMeters>156998.14345516</DistanceMeters>
          </Trackpoint>
          <Trackpoint>
            <Time>2018-09-13T16:33:07.000Z</Time>
            <Position>
              <LatitudeDegrees>38.74262806959450244903564453125</LatitudeDegrees>
              <LongitudeDegrees>-8.2057120464742183685302734375</LongitudeDegrees>
            </Position>
            <AltitudeMeters>221.1999969482421875</AltitudeMeters>
            <DistanceMeters>157017.27806986</DistanceMeters>
          </Trackpoint>
          <Trackpoint>
            <Time>2018-09-13T16:33:08.000Z</Time>
            <Position>
              <LatitudeDegrees>38.74257978983223438262939453125</LatitudeDegrees>
              <LongitudeDegrees>-8.20575035177171230316162109375</LongitudeDegrees>
            </Position>
            <AltitudeMeters>221.399993896484375</AltitudeMeters>
            <DistanceMeters>157023.59716774</DistanceMeters>
          </Trackpoint>
          <Trackpoint>
            <Time>2018-09-13T16:33:18.000Z</Time>
            <Position>
              <LatitudeDegrees>38.74210738576948642730712890625</LatitudeDegrees>
              <LongitudeDegrees>-8.20617263205349445343017578125</LongitudeDegrees>
            </Position>
            <AltitudeMeters>222.600006103515625</AltitudeMeters>
            <DistanceMeters>157087.69464133</DistanceMeters>
          </Trackpoint>
          <Trackpoint>
            <Time>2018-09-13T16:33:28.000Z</Time>
            <Position>
              <LatitudeDegrees>38.74166146852076053619384765625</LatitudeDegrees>
              <LongitudeDegrees>-8.20656490512192249298095703125</LongitudeDegrees>
            </Position>
            <AltitudeMeters>224.1999969482421875</AltitudeMeters>
            <DistanceMeters>157147.88587042</DistanceMeters>
          </Trackpoint>
          <Trackpoint>
            <Time>2018-09-13T16:33:36.000Z</Time>
            <Position>
              <LatitudeDegrees>38.74133842997252941131591796875</LatitudeDegrees>
              <LongitudeDegrees>-8.2068546675145626068115234375</LongitudeDegrees>
            </Position>
            <AltitudeMeters>225.600006103515625</AltitudeMeters>
            <DistanceMeters>157191.76681595</DistanceMeters>
          </Trackpoint>
          <Trackpoint>
            <Time>2018-09-13T16:33:39.000Z</Time>
            <Position>
              <LatitudeDegrees>38.74122083187103271484375</LatitudeDegrees>
              <LongitudeDegrees>-8.2069632969796657562255859375</LongitudeDegrees>
            </Position>
            <AltitudeMeters>226.1999969482421875</AltitudeMeters>
            <DistanceMeters>157207.89954242</DistanceMeters>
          </Trackpoint>
          <Trackpoint>
            <Time>2018-09-13T16:33:42.000Z</Time>
            <Position>
              <LatitudeDegrees>38.74110122211277484893798828125</LatitudeDegrees>
              <LongitudeDegrees>-8.20707117207348346710205078125</LongitudeDegrees>
            </Position>
            <AltitudeMeters>226.8000030517578125</AltitudeMeters>
            <DistanceMeters>157224.17659507</DistanceMeters>
          </Trackpoint>
          <Trackpoint>
            <Time>2018-09-13T16:33:47.000Z</Time>
            <Position>
              <LatitudeDegrees>38.740899972617626190185546875</LatitudeDegrees>
              <LongitudeDegrees>-8.20725582540035247802734375</LongitudeDegrees>
            </Position>
            <AltitudeMeters>227.1999969482421875</AltitudeMeters>
            <DistanceMeters>157251.72123198</DistanceMeters>
          </Trackpoint>
          <Trackpoint>
            <Time>2018-09-13T16:33:52.000Z</Time>
            <Position>
              <LatitudeDegrees>38.7406976334750652313232421875</LatitudeDegrees>
              <LongitudeDegrees>-8.2074346952140331268310546875</LongitudeDegrees>
            </Position>
            <AltitudeMeters>227.399993896484375</AltitudeMeters>
            <DistanceMeters>157279.0767147</DistanceMeters>
          </Trackpoint>
          <Trackpoint>
            <Time>2018-09-13T16:34:03.000Z</Time>
            <Position>
              <LatitudeDegrees>38.74022413976490497589111328125</LatitudeDegrees>
              <LongitudeDegrees>-8.2078262977302074432373046875</LongitudeDegrees>
            </Position>
            <AltitudeMeters>227.8000030517578125</AltitudeMeters>
            <DistanceMeters>157341.79146653</DistanceMeters>
          </Trackpoint>
          <Trackpoint>
            <Time>2018-09-13T16:34:08.000Z</Time>
            <Position>
              <LatitudeDegrees>38.73995876871049404144287109375</LatitudeDegrees>
              <LongitudeDegrees>-8.207945488393306732177734375</LongitudeDegrees>
            </Position>
            <AltitudeMeters>226.8000030517578125</AltitudeMeters>
            <DistanceMeters>157373.08773262</DistanceMeters>
          </Trackpoint>
          <Trackpoint>
            <Time>2018-09-13T16:34:13.000Z</Time>
            <Position>
              <LatitudeDegrees>38.73966506682336330413818359375</LatitudeDegrees>
              <LongitudeDegrees>-8.20795931853353977203369140625</LongitudeDegrees>
            </Position>
            <AltitudeMeters>225.399993896484375</AltitudeMeters>
            <DistanceMeters>157405.79915216</DistanceMeters>
          </Trackpoint>
          <Trackpoint>
            <Time>2018-09-13T16:34:20.000Z</Time>
            <Position>
              <LatitudeDegrees>38.73920741491019725799560546875</LatitudeDegrees>
              <LongitudeDegrees>-8.2079096138477325439453125</LongitudeDegrees>
            </Position>
            <AltitudeMeters>223.8000030517578125</AltitudeMeters>
            <DistanceMeters>157456.91910856</DistanceMeters>
          </Trackpoint>
          <Trackpoint>
            <Time>2018-09-13T16:34:25.000Z</Time>
            <Position>
              <LatitudeDegrees>38.73885042965412139892578125</LatitudeDegrees>
              <LongitudeDegrees>-8.20785236544907093048095703125</LongitudeDegrees>
            </Position>
            <AltitudeMeters>223.399993896484375</AltitudeMeters>
            <DistanceMeters>157496.96179196</DistanceMeters>
          </Trackpoint>
          <Trackpoint>
            <Time>2018-09-13T16:34:29.000Z</Time>
            <Position>
              <LatitudeDegrees>38.73857810162007808685302734375</LatitudeDegrees>
              <LongitudeDegrees>-8.2077941112220287322998046875</LongitudeDegrees>
            </Position>
            <AltitudeMeters>223</AltitudeMeters>
            <DistanceMeters>157527.69158604</DistanceMeters>
          </Trackpoint>
          <Trackpoint>
            <Time>2018-09-13T16:34:30.000Z</Time>
            <Position>
              <LatitudeDegrees>38.73850920237600803375244140625</LatitudeDegrees>
              <LongitudeDegrees>-8.20777893997728824615478515625</LongitudeDegrees>
            </Position>
            <AltitudeMeters>223</AltitudeMeters>
            <DistanceMeters>157535.47217936</DistanceMeters>
          </Trackpoint>
          <Trackpoint>
            <Time>2018-09-13T16:34:33.000Z</Time>
            <Position>
              <LatitudeDegrees>38.73829948715865612030029296875</LatitudeDegrees>
              <LongitudeDegrees>-8.20772680453956127166748046875</LongitudeDegrees>
            </Position>
            <AltitudeMeters>222.8000030517578125</AltitudeMeters>
            <DistanceMeters>157559.2486153</DistanceMeters>
          </Trackpoint>
          <Trackpoint>
            <Time>2018-09-13T16:34:36.000Z</Time>
            <Position>
              <LatitudeDegrees>38.73808440752327442169189453125</LatitudeDegrees>
              <LongitudeDegrees>-8.2076831348240375518798828125</LongitudeDegrees>
            </Position>
            <AltitudeMeters>222.600006103515625</AltitudeMeters>
            <DistanceMeters>157583.48583034</DistanceMeters>
          </Trackpoint>
          <Trackpoint>
            <Time>2018-09-13T16:34:39.000Z</Time>
            <Position>
              <LatitudeDegrees>38.73785474337637424468994140625</LatitudeDegrees>
              <LongitudeDegrees>-8.20763007737696170806884765625</LongitudeDegrees>
            </Position>
            <AltitudeMeters>222.1999969482421875</AltitudeMeters>
            <DistanceMeters>157609.45960579</DistanceMeters>
          </Trackpoint>
          <Trackpoint>
            <Time>2018-09-13T16:34:46.000Z</Time>
            <Position>
              <LatitudeDegrees>38.7373193912208080291748046875</LatitudeDegrees>
              <LongitudeDegrees>-8.20750686340034008026123046875</LongitudeDegrees>
            </Position>
            <AltitudeMeters>221.8000030517578125</AltitudeMeters>
            <DistanceMeters>157669.9979626</DistanceMeters>
          </Trackpoint>
          <Trackpoint>
            <Time>2018-09-13T16:34:52.000Z</Time>
            <Position>
              <LatitudeDegrees>38.73689820058643817901611328125</LatitudeDegrees>
              <LongitudeDegrees>-8.207410387694835662841796875</LongitudeDegrees>
            </Position>
            <AltitudeMeters>222.600006103515625</AltitudeMeters>
            <DistanceMeters>157717.61971664</DistanceMeters>
          </Trackpoint>
          <Trackpoint>
            <Time>2018-09-13T16:34:59.000Z</Time>
            <Position>
              <LatitudeDegrees>38.7364416383206844329833984375</LatitudeDegrees>
              <LongitudeDegrees>-8.2072958908975124359130859375</LongitudeDegrees>
            </Position>
            <AltitudeMeters>224.1999969482421875</AltitudeMeters>
            <DistanceMeters>157769.39916205</DistanceMeters>
          </Trackpoint>
          <Trackpoint>
            <Time>2018-09-13T16:35:06.000Z</Time>
            <Position>
              <LatitudeDegrees>38.735983483493328094482421875</LatitudeDegrees>
              <LongitudeDegrees>-8.20719011127948760986328125</LongitudeDegrees>
            </Position>
            <AltitudeMeters>224.600006103515625</AltitudeMeters>
            <DistanceMeters>157821.21312617</DistanceMeters>
          </Trackpoint>
          <Trackpoint>
            <Time>2018-09-13T16:35:14.000Z</Time>
            <Position>
              <LatitudeDegrees>38.73545181937515735626220703125</LatitudeDegrees>
              <LongitudeDegrees>-8.2070652209222316741943359375</LongitudeDegrees>
            </Position>
            <AltitudeMeters>224.600006103515625</AltitudeMeters>
            <DistanceMeters>157881.37359266</DistanceMeters>
          </Trackpoint>
          <Trackpoint>
            <Time>2018-09-13T16:35:19.000Z</Time>
            <Position>
              <LatitudeDegrees>38.73512886464595794677734375</LatitudeDegrees>
              <LongitudeDegrees>-8.206993639469146728515625</LongitudeDegrees>
            </Position>
            <AltitudeMeters>224.399993896484375</AltitudeMeters>
            <DistanceMeters>157917.8524658</DistanceMeters>
          </Trackpoint>
          <Trackpoint>
            <Time>2018-09-13T16:35:23.000Z</Time>
            <Position>
              <LatitudeDegrees>38.73487631790339946746826171875</LatitudeDegrees>
              <LongitudeDegrees>-8.20693220011889934539794921875</LongitudeDegrees>
            </Position>
            <AltitudeMeters>224.399993896484375</AltitudeMeters>
            <DistanceMeters>157946.46324051</DistanceMeters>
          </Trackpoint>
          <Trackpoint>
            <Time>2018-09-13T16:35:32.000Z</Time>
            <Position>
              <LatitudeDegrees>38.73428639955818653106689453125</LatitudeDegrees>
              <LongitudeDegrees>-8.2067909650504589080810546875</LongitudeDegrees>
            </Position>
            <AltitudeMeters>224</AltitudeMeters>
            <DistanceMeters>158013.25749033</DistanceMeters>
          </Trackpoint>
          <Trackpoint>
            <Time>2018-09-13T16:35:36.000Z</Time>
            <Position>
              <LatitudeDegrees>38.734026141464710235595703125</LatitudeDegrees>
              <LongitudeDegrees>-8.206736147403717041015625</LongitudeDegrees>
            </Position>
            <AltitudeMeters>224</AltitudeMeters>
            <DistanceMeters>158042.61305581</DistanceMeters>
          </Trackpoint>
          <Trackpoint>
            <Time>2018-09-13T16:35:38.000Z</Time>
            <Position>
              <LatitudeDegrees>38.7339029274880886077880859375</LatitudeDegrees>
              <LongitudeDegrees>-8.20671041496098041534423828125</LongitudeDegrees>
            </Position>
            <AltitudeMeters>224</AltitudeMeters>
            <DistanceMeters>158056.50776827</DistanceMeters>
          </Trackpoint>
          <Trackpoint>
            <Time>2018-09-13T16:35:47.000Z</Time>
            <Position>
              <LatitudeDegrees>38.7333805672824382781982421875</LatitudeDegrees>
              <LongitudeDegrees>-8.2065864466130733489990234375</LongitudeDegrees>
            </Position>
            <AltitudeMeters>223.8000030517578125</AltitudeMeters>
            <DistanceMeters>158115.63538759</DistanceMeters>
          </Trackpoint>
          <Trackpoint>
            <Time>2018-09-13T16:35:55.000Z</Time>
            <Position>
              <LatitudeDegrees>38.7329333089292049407958984375</LatitudeDegrees>
              <LongitudeDegrees>-8.2064707763493061065673828125</LongitudeDegrees>
            </Position>
            <AltitudeMeters>223.399993896484375</AltitudeMeters>
            <DistanceMeters>158166.41896537</DistanceMeters>
          </Trackpoint>
          <Trackpoint>
            <Time>2018-09-13T16:36:03.000Z</Time>
            <Position>
              <LatitudeDegrees>38.73249200172722339630126953125</LatitudeDegrees>
              <LongitudeDegrees>-8.2063695229589939117431640625</LongitudeDegrees>
            </Position>
            <AltitudeMeters>223.8000030517578125</AltitudeMeters>
            <DistanceMeters>158216.31785412</DistanceMeters>
          </Trackpoint>
          <Trackpoint>
            <Time>2018-09-13T16:36:13.000Z</Time>
            <Position>
              <LatitudeDegrees>38.73195840977132320404052734375</LatitudeDegrees>
              <LongitudeDegrees>-8.20625008083879947662353515625</LongitudeDegrees>
            </Position>
            <AltitudeMeters>224</AltitudeMeters>
            <DistanceMeters>158276.60636961</DistanceMeters>
          </Trackpoint>
          <Trackpoint>
            <Time>2018-09-13T16:36:17.000Z</Time>
            <Position>
              <LatitudeDegrees>38.73175070621073246002197265625</LatitudeDegrees>
              <LongitudeDegrees>-8.2062018848955631256103515625</LongitudeDegrees>
            </Position>
            <AltitudeMeters>224</AltitudeMeters>
            <DistanceMeters>158300.09988706</DistanceMeters>
          </Trackpoint>
          <Trackpoint>
            <Time>2018-09-13T16:36:28.000Z</Time>
            <Position>
              <LatitudeDegrees>38.73116531409323215484619140625</LatitudeDegrees>
              <LongitudeDegrees>-8.20607339031994342803955078125</LongitudeDegrees>
            </Position>
            <AltitudeMeters>224.8000030517578125</AltitudeMeters>
            <DistanceMeters>158366.20351867</DistanceMeters>
          </Trackpoint>
          <Trackpoint>
            <Time>2018-09-13T16:36:38.000Z</Time>
            <Position>
              <LatitudeDegrees>38.73060875572264194488525390625</LatitudeDegrees>
              <LongitudeDegrees>-8.2059396989643573760986328125</LongitudeDegrees>
            </Position>
            <AltitudeMeters>224.399993896484375</AltitudeMeters>
            <DistanceMeters>158429.22779753</DistanceMeters>
          </Trackpoint>
          <Trackpoint>
            <Time>2018-09-13T16:36:46.000Z</Time>
            <Position>
              <LatitudeDegrees>38.73010835610330104827880859375</LatitudeDegrees>
              <LongitudeDegrees>-8.20582763291895389556884765625</LongitudeDegrees>
            </Position>
            <AltitudeMeters>224.1999969482421875</AltitudeMeters>
            <DistanceMeters>158485.7668559</DistanceMeters>
          </Trackpoint>
          <Trackpoint>
            <Time>2018-09-13T16:36:50.000Z</Time>
            <Position>
              <LatitudeDegrees>38.72985832393169403076171875</LatitudeDegrees>
              <LongitudeDegrees>-8.205764852464199066162109375</LongitudeDegrees>
            </Position>
            <AltitudeMeters>224</AltitudeMeters>
            <DistanceMeters>158514.12464896</DistanceMeters>
          </Trackpoint>
          <Trackpoint>
            <Time>2018-09-13T16:36:59.000Z</Time>
            <Position>
              <LatitudeDegrees>38.72928005643188953399658203125</LatitudeDegrees>
              <LongitudeDegrees>-8.20563501678407192230224609375</LongitudeDegrees>
            </Position>
            <AltitudeMeters>224.1999969482421875</AltitudeMeters>
            <DistanceMeters>158579.46683093</DistanceMeters>
          </Trackpoint>
          <Trackpoint>
            <Time>2018-09-13T16:37:01.000Z</Time>
            <Position>
              <LatitudeDegrees>38.72915181331336498260498046875</LatitudeDegrees>
              <LongitudeDegrees>-8.20559981279075145721435546875</LongitudeDegrees>
            </Position>
            <AltitudeMeters>224.1999969482421875</AltitudeMeters>
            <DistanceMeters>158594.06449321</DistanceMeters>
          </Trackpoint>
          <Trackpoint>
            <Time>2018-09-13T16:37:03.000Z</Time>
            <Position>
              <LatitudeDegrees>38.72902340255677700042724609375</LatitudeDegrees>
              <LongitudeDegrees>-8.20556947030127048492431640625</LongitudeDegrees>
            </Position>
            <AltitudeMeters>224.399993896484375</AltitudeMeters>
            <DistanceMeters>158608.59767896</DistanceMeters>
          </Trackpoint>
          <Trackpoint>
            <Time>2018-09-13T16:37:08.000Z</Time>
            <Position>
              <LatitudeDegrees>38.7287115119397640228271484375</LatitudeDegrees>
              <LongitudeDegrees>-8.20549889467656612396240234375</LongitudeDegrees>
            </Position>
            <AltitudeMeters>224</AltitudeMeters>
            <DistanceMeters>158643.84836348</DistanceMeters>
          </Trackpoint>
          <Trackpoint>
            <Time>2018-09-13T16:37:11.000Z</Time>
            <Position>
              <LatitudeDegrees>38.728514872491359710693359375</LatitudeDegrees>
              <LongitudeDegrees>-8.20546067319810390472412109375</LongitudeDegrees>
            </Position>
            <AltitudeMeters>223.600006103515625</AltitudeMeters>
            <DistanceMeters>158665.98489727</DistanceMeters>
          </Trackpoint>
          <Trackpoint>
            <Time>2018-09-13T16:37:20.000Z</Time>
            <Position>
              <LatitudeDegrees>38.7279353477060794830322265625</LatitudeDegrees>
              <LongitudeDegrees>-8.20531482808291912078857421875</LongitudeDegrees>
            </Position>
            <AltitudeMeters>223.600006103515625</AltitudeMeters>
            <DistanceMeters>158731.71852366</DistanceMeters>
          </Trackpoint>
          <Trackpoint>
            <Time>2018-09-13T16:37:24.000Z</Time>
            <Position>
              <LatitudeDegrees>38.7276828847825527191162109375</LatitudeDegrees>
              <LongitudeDegrees>-8.2052595913410186767578125</LongitudeDegrees>
            </Position>
            <AltitudeMeters>223.600006103515625</AltitudeMeters>
            <DistanceMeters>158760.22463737</DistanceMeters>
          </Trackpoint>
          <Trackpoint>
            <Time>2018-09-13T16:37:33.000Z</Time>
            <Position>
              <LatitudeDegrees>38.7271504662930965423583984375</LatitudeDegrees>
              <LongitudeDegrees>-8.20513478480279445648193359375</LongitudeDegrees>
            </Position>
            <AltitudeMeters>225.1999969482421875</AltitudeMeters>
            <DistanceMeters>158820.4666279</DistanceMeters>
          </Trackpoint>
          <Trackpoint>
            <Time>2018-09-13T16:37:41.000Z</Time>
            <Position>
              <LatitudeDegrees>38.7266918085515499114990234375</LatitudeDegrees>
              <LongitudeDegrees>-8.205020539462566375732421875</LongitudeDegrees>
            </Position>
            <AltitudeMeters>226.399993896484375</AltitudeMeters>
            <DistanceMeters>158872.47107717</DistanceMeters>
          </Trackpoint>
          <Trackpoint>
            <Time>2018-09-13T16:37:52.000Z</Time>
            <Position>
              <LatitudeDegrees>38.726129047572612762451171875</LatitudeDegrees>
              <LongitudeDegrees>-8.20489548146724700927734375</LongitudeDegrees>
            </Position>
            <AltitudeMeters>227.1999969482421875</AltitudeMeters>
            <DistanceMeters>158936.04174738</DistanceMeters>
          </Trackpoint>
          <Trackpoint>
            <Time>2018-09-13T16:37:56.000Z</Time>
            <Position>
              <LatitudeDegrees>38.72590935789048671722412109375</LatitudeDegrees>
              <LongitudeDegrees>-8.2048451900482177734375</LongitudeDegrees>
            </Position>
            <AltitudeMeters>227</AltitudeMeters>
            <DistanceMeters>158960.88064718</DistanceMeters>
          </Trackpoint>
          <Trackpoint>
            <Time>2018-09-13T16:37:57.000Z</Time>
            <Position>
              <LatitudeDegrees>38.7258529476821422576904296875</LatitudeDegrees>
              <LongitudeDegrees>-8.20483203046023845672607421875</LongitudeDegrees>
            </Position>
            <AltitudeMeters>227</AltitudeMeters>
            <DistanceMeters>158967.26231191</DistanceMeters>
          </Trackpoint>
          <Trackpoint>
            <Time>2018-09-13T16:38:07.000Z</Time>
            <Position>
              <LatitudeDegrees>38.72527132742106914520263671875</LatitudeDegrees>
              <LongitudeDegrees>-8.20469372905790805816650390625</LongitudeDegrees>
            </Position>
            <AltitudeMeters>225.8000030517578125</AltitudeMeters>
            <DistanceMeters>159033.10224832</DistanceMeters>
          </Trackpoint>
          <Trackpoint>
            <Time>2018-09-13T16:38:16.000Z</Time>
            <Position>
              <LatitudeDegrees>38.72472533024847507476806640625</LatitudeDegrees>
              <LongitudeDegrees>-8.20456163026392459869384765625</LongitudeDegrees>
            </Position>
            <AltitudeMeters>225.399993896484375</AltitudeMeters>
            <DistanceMeters>159094.94573333</DistanceMeters>
          </Trackpoint>
          <Trackpoint>
            <Time>2018-09-13T16:38:24.000Z</Time>
            <Position>
              <LatitudeDegrees>38.7242295406758785247802734375</LatitudeDegrees>
              <LongitudeDegrees>-8.2044460438191890716552734375</LongitudeDegrees>
            </Position>
            <AltitudeMeters>226.1999969482421875</AltitudeMeters>
            <DistanceMeters>159151.03339499</DistanceMeters>
          </Trackpoint>
          <Trackpoint>
            <Time>2018-09-13T16:38:34.000Z</Time>
            <Position>
              <LatitudeDegrees>38.7236676178872585296630859375</LatitudeDegrees>
              <LongitudeDegrees>-8.2043099217116832733154296875</LongitudeDegrees>
            </Position>
            <AltitudeMeters>226.8000030517578125</AltitudeMeters>
            <DistanceMeters>159214.68356229</DistanceMeters>
          </Trackpoint>
          <Trackpoint>
            <Time>2018-09-13T16:38:44.000Z</Time>
            <Position>
              <LatitudeDegrees>38.72308817692101001739501953125</LatitudeDegrees>
              <LongitudeDegrees>-8.204171620309352874755859375</LongitudeDegrees>
            </Position>
            <AltitudeMeters>226.399993896484375</AltitudeMeters>
            <DistanceMeters>159280.2851773</DistanceMeters>
          </Trackpoint>
          <Trackpoint>
            <Time>2018-09-13T16:38:53.000Z</Time>
            <Position>
              <LatitudeDegrees>38.722546286880970001220703125</LatitudeDegrees>
              <LongitudeDegrees>-8.20405251346528530120849609375</LongitudeDegrees>
            </Position>
            <AltitudeMeters>226.1999969482421875</AltitudeMeters>
            <DistanceMeters>159341.47898744</DistanceMeters>
          </Trackpoint>
          <Trackpoint>
            <Time>2018-09-13T16:39:02.000Z</Time>
            <Position>
              <LatitudeDegrees>38.72198126278817653656005859375</LatitudeDegrees>
              <LongitudeDegrees>-8.2039131224155426025390625</LongitudeDegrees>
            </Position>
            <AltitudeMeters>225.1999969482421875</AltitudeMeters>
            <DistanceMeters>159405.52149412</DistanceMeters>
          </Trackpoint>
          <Trackpoint>
            <Time>2018-09-13T16:39:03.000Z</Time>
            <Position>
              <LatitudeDegrees>38.72191655449569225311279296875</LatitudeDegrees>
              <LongitudeDegrees>-8.2038961909711360931396484375</LongitudeDegrees>
            </Position>
            <AltitudeMeters>225.399993896484375</AltitudeMeters>
            <DistanceMeters>159412.87118236</DistanceMeters>
          </Trackpoint>
          <Trackpoint>
            <Time>2018-09-13T16:39:12.000Z</Time>
            <Position>
              <LatitudeDegrees>38.72132596559822559356689453125</LatitudeDegrees>
              <LongitudeDegrees>-8.20375763811171054840087890625</LongitudeDegrees>
            </Position>
            <AltitudeMeters>225.8000030517578125</AltitudeMeters>
            <DistanceMeters>159479.69692459</DistanceMeters>
          </Trackpoint>
          <Trackpoint>
            <Time>2018-09-13T16:39:15.000Z</Time>
            <Position>
              <LatitudeDegrees>38.721138127148151397705078125</LatitudeDegrees>
              <LongitudeDegrees>-8.20370952598750591278076171875</LongitudeDegrees>
            </Position>
            <AltitudeMeters>226</AltitudeMeters>
            <DistanceMeters>159501.01724325</DistanceMeters>
          </Trackpoint>
          <Trackpoint>
            <Time>2018-09-13T16:39:24.000Z</Time>
            <Position>
              <LatitudeDegrees>38.720586933195590972900390625</LatitudeDegrees>
              <LongitudeDegrees>-8.20358178578317165374755859375</LongitudeDegrees>
            </Position>
            <AltitudeMeters>227</AltitudeMeters>
            <DistanceMeters>159563.36106888</DistanceMeters>
          </Trackpoint>
          <Trackpoint>
            <Time>2018-09-13T16:39:33.000Z</Time>
            <Position>
              <LatitudeDegrees>38.720050156116485595703125</LatitudeDegrees>
              <LongitudeDegrees>-8.2034556381404399871826171875</LongitudeDegrees>
            </Position>
            <AltitudeMeters>228</AltitudeMeters>
            <DistanceMeters>159624.1013538</DistanceMeters>
          </Trackpoint>
          <Trackpoint>
            <Time>2018-09-13T16:39:35.000Z</Time>
            <Position>
              <LatitudeDegrees>38.71992476284503936767578125</LatitudeDegrees>
              <LongitudeDegrees>-8.20342102088034152984619140625</LongitudeDegrees>
            </Position>
            <AltitudeMeters>228</AltitudeMeters>
            <DistanceMeters>159638.37814915</DistanceMeters>
          </Trackpoint>
          <Trackpoint>
            <Time>2018-09-13T16:39:44.000Z</Time>
            <Position>
              <LatitudeDegrees>38.71936284005641937255859375</LatitudeDegrees>
              <LongitudeDegrees>-8.203292191028594970703125</LongitudeDegrees>
            </Position>
            <AltitudeMeters>227.8000030517578125</AltitudeMeters>
            <DistanceMeters>159701.91400811</DistanceMeters>
          </Trackpoint>
          <Trackpoint>
            <Time>2018-09-13T16:39:46.000Z</Time>
            <Position>
              <LatitudeDegrees>38.7192366085946559906005859375</LatitudeDegrees>
              <LongitudeDegrees>-8.2032608427107334136962890625</LongitudeDegrees>
            </Position>
            <AltitudeMeters>227.399993896484375</AltitudeMeters>
            <DistanceMeters>159716.22491771</DistanceMeters>
          </Trackpoint>
          <Trackpoint>
            <Time>2018-09-13T16:39:55.000Z</Time>
            <Position>
              <LatitudeDegrees>38.71864476241171360015869140625</LatitudeDegrees>
              <LongitudeDegrees>-8.20312388241291046142578125</LongitudeDegrees>
            </Position>
            <AltitudeMeters>226.399993896484375</AltitudeMeters>
            <DistanceMeters>159783.16366712</DistanceMeters>
          </Trackpoint>
          <Trackpoint>
            <Time>2018-09-13T16:40:04.000Z</Time>
            <Position>
              <LatitudeDegrees>38.7180530838668346405029296875</LatitudeDegrees>
              <LongitudeDegrees>-8.2029818929731845855712890625</LongitudeDegrees>
            </Position>
            <AltitudeMeters>227.1999969482421875</AltitudeMeters>
            <DistanceMeters>159850.16309429</DistanceMeters>
          </Trackpoint>
          <Trackpoint>
            <Time>2018-09-13T16:40:11.000Z</Time>
            <Position>
              <LatitudeDegrees>38.71758847497403621673583984375</LatitudeDegrees>
              <LongitudeDegrees>-8.2028722576797008514404296875</LongitudeDegrees>
            </Position>
            <AltitudeMeters>227</AltitudeMeters>
            <DistanceMeters>159902.74421852</DistanceMeters>
          </Trackpoint>
          <Trackpoint>
            <Time>2018-09-13T16:40:20.000Z</Time>
            <Position>
              <LatitudeDegrees>38.7170147337019443511962890625</LatitudeDegrees>
              <LongitudeDegrees>-8.2027321122586727142333984375</LongitudeDegrees>
            </Position>
            <AltitudeMeters>228.8000030517578125</AltitudeMeters>
            <DistanceMeters>159967.75221538</DistanceMeters>
          </Trackpoint>
          <Trackpoint>
            <Time>2018-09-13T16:40:30.000Z</Time>
            <Position>
              <LatitudeDegrees>38.71646798215806484222412109375</LatitudeDegrees>
              <LongitudeDegrees>-8.20260562933981418609619140625</LongitudeDegrees>
            </Position>
            <AltitudeMeters>231.399993896484375</AltitudeMeters>
            <DistanceMeters>160029.59015156</DistanceMeters>
          </Trackpoint>
          <Trackpoint>
            <Time>2018-09-13T16:40:33.000Z</Time>
            <Position>
              <LatitudeDegrees>38.71632029302418231964111328125</LatitudeDegrees>
              <LongitudeDegrees>-8.2025718502700328826904296875</LongitudeDegrees>
            </Position>
            <AltitudeMeters>232.1999969482421875</AltitudeMeters>
            <DistanceMeters>160046.28783524</DistanceMeters>
          </Trackpoint>
          <Trackpoint>
            <Time>2018-09-13T16:40:35.000Z</Time>
            <Position>
              <LatitudeDegrees>38.71622490696609020233154296875</LatitudeDegrees>
              <LongitudeDegrees>-8.20254947058856487274169921875</LongitudeDegrees>
            </Position>
            <AltitudeMeters>232.600006103515625</AltitudeMeters>
            <DistanceMeters>160057.08079527</DistanceMeters>
          </Trackpoint>
          <Trackpoint>
            <Time>2018-09-13T16:40:40.000Z</Time>
            <Position>
              <LatitudeDegrees>38.715989626944065093994140625</LatitudeDegrees>
              <LongitudeDegrees>-8.2024954073131084442138671875</LongitudeDegrees>
            </Position>
            <AltitudeMeters>233.8000030517578125</AltitudeMeters>
            <DistanceMeters>160083.6855601</DistanceMeters>
          </Trackpoint>
          <Trackpoint>
            <Time>2018-09-13T16:40:45.000Z</Time>
            <Position>
              <LatitudeDegrees>38.71575526893138885498046875</LatitudeDegrees>
              <LongitudeDegrees>-8.2024404220283031463623046875</LongitudeDegrees>
            </Position>
            <AltitudeMeters>234.1999969482421875</AltitudeMeters>
            <DistanceMeters>160110.20346241</DistanceMeters>
          </Trackpoint>
          <Trackpoint>
            <Time>2018-09-13T16:40:49.000Z</Time>
            <Position>
              <LatitudeDegrees>38.71556189842522144317626953125</LatitudeDegrees>
              <LongitudeDegrees>-8.2023961655795574188232421875</LongitudeDegrees>
            </Position>
            <AltitudeMeters>234.600006103515625</AltitudeMeters>
            <DistanceMeters>160132.06642279</DistanceMeters>
          </Trackpoint>
          <Trackpoint>
            <Time>2018-09-13T16:40:53.000Z</Time>
            <Position>
              <LatitudeDegrees>38.71536609716713428497314453125</LatitudeDegrees>
              <LongitudeDegrees>-8.20234696380794048309326171875</LongitudeDegrees>
            </Position>
            <AltitudeMeters>235.1999969482421875</AltitudeMeters>
            <DistanceMeters>160154.27422896</DistanceMeters>
          </Trackpoint>
          <Trackpoint>
            <Time>2018-09-13T16:41:03.000Z</Time>
            <Position>
              <LatitudeDegrees>38.71486972086131572723388671875</LatitudeDegrees>
              <LongitudeDegrees>-8.20222659967839717864990234375</LongitudeDegrees>
            </Position>
            <AltitudeMeters>236.8000030517578125</AltitudeMeters>
            <DistanceMeters>160210.50210678</DistanceMeters>
          </Trackpoint>
          <Trackpoint>
            <Time>2018-09-13T16:41:04.000Z</Time>
            <Position>
              <LatitudeDegrees>38.714816831052303314208984375</LatitudeDegrees>
              <LongitudeDegrees>-8.2022151164710521697998046875</LongitudeDegrees>
            </Position>
            <AltitudeMeters>237</AltitudeMeters>
            <DistanceMeters>160216.472931</DistanceMeters>
          </Trackpoint>
          <Trackpoint>
            <Time>2018-09-13T16:41:14.000Z</Time>
            <Position>
              <LatitudeDegrees>38.71425884775817394256591796875</LatitudeDegrees>
              <LongitudeDegrees>-8.2020575366914272308349609375</LongitudeDegrees>
            </Position>
            <AltitudeMeters>238.1999969482421875</AltitudeMeters>
            <DistanceMeters>160280.06760276</DistanceMeters>
          </Trackpoint>
          <Trackpoint>
            <Time>2018-09-13T16:41:25.000Z</Time>
            <Position>
              <LatitudeDegrees>38.71370363049209117889404296875</LatitudeDegrees>
              <LongitudeDegrees>-8.201948069036006927490234375</LongitudeDegrees>
            </Position>
            <AltitudeMeters>240.1999969482421875</AltitudeMeters>
            <DistanceMeters>160342.59142585</DistanceMeters>
          </Trackpoint>
          <Trackpoint>
            <Time>2018-09-13T16:41:29.000Z</Time>
            <Position>
              <LatitudeDegrees>38.7135395966470241546630859375</LatitudeDegrees>
              <LongitudeDegrees>-8.20190456695854663848876953125</LongitudeDegrees>
            </Position>
            <AltitudeMeters>240.8000030517578125</AltitudeMeters>
            <DistanceMeters>160361.23556065</DistanceMeters>
          </Trackpoint>
          <Trackpoint>
            <Time>2018-09-13T16:41:33.000Z</Time>
            <Position>
              <LatitudeDegrees>38.713377155363559722900390625</LatitudeDegrees>
              <LongitudeDegrees>-8.2018719613552093505859375</LongitudeDegrees>
            </Position>
            <AltitudeMeters>240.8000030517578125</AltitudeMeters>
            <DistanceMeters>160379.53579139</DistanceMeters>
          </Trackpoint>
          <Trackpoint>
            <Time>2018-09-13T16:41:40.000Z</Time>
            <Position>
              <LatitudeDegrees>38.71312259696424007415771484375</LatitudeDegrees>
              <LongitudeDegrees>-8.20181504823267459869384765625</LongitudeDegrees>
            </Position>
            <AltitudeMeters>241.399993896484375</AltitudeMeters>
            <DistanceMeters>160408.29640791</DistanceMeters>
          </Trackpoint>
          <Trackpoint>
            <Time>2018-09-13T16:41:47.000Z</Time>
            <Position>
              <LatitudeDegrees>38.7128677032887935638427734375</LatitudeDegrees>
              <LongitudeDegrees>-8.2017485797405242919921875</LongitudeDegrees>
            </Position>
            <AltitudeMeters>241.8000030517578125</AltitudeMeters>
            <DistanceMeters>160437.24791488</DistanceMeters>
          </Trackpoint>
          <Trackpoint>
            <Time>2018-09-13T16:41:58.000Z</Time>
            <Position>
              <LatitudeDegrees>38.71241684071719646453857421875</LatitudeDegrees>
              <LongitudeDegrees>-8.20165310986340045928955078125</LongitudeDegrees>
            </Position>
            <AltitudeMeters>242.399993896484375</AltitudeMeters>
            <DistanceMeters>160488.11020366</DistanceMeters>
          </Trackpoint>
          <Trackpoint>
            <Time>2018-09-13T16:42:02.000Z</Time>
            <Position>
              <LatitudeDegrees>38.7122434191405773162841796875</LatitudeDegrees>
              <LongitudeDegrees>-8.20162042044103145599365234375</LongitudeDegrees>
            </Position>
            <AltitudeMeters>242.399993896484375</AltitudeMeters>
            <DistanceMeters>160507.620093</DistanceMeters>
          </Trackpoint>
          <Trackpoint>
            <Time>2018-09-13T16:42:13.000Z</Time>
            <Position>
              <LatitudeDegrees>38.71174997650086879730224609375</LatitudeDegrees>
              <LongitudeDegrees>-8.2014852203428745269775390625</LongitudeDegrees>
            </Position>
            <AltitudeMeters>243.1999969482421875</AltitudeMeters>
            <DistanceMeters>160563.78240868</DistanceMeters>
          </Trackpoint>
          <Trackpoint>
            <Time>2018-09-13T16:42:17.000Z</Time>
            <Position>
              <LatitudeDegrees>38.71156758628785610198974609375</LatitudeDegrees>
              <LongitudeDegrees>-8.20144079625606536865234375</LongitudeDegrees>
            </Position>
            <AltitudeMeters>243.600006103515625</AltitudeMeters>
            <DistanceMeters>160584.44629492</DistanceMeters>
          </Trackpoint>
          <Trackpoint>
            <Time>2018-09-13T16:42:23.000Z</Time>
            <Position>
              <LatitudeDegrees>38.7112912349402904510498046875</LatitudeDegrees>
              <LongitudeDegrees>-8.20137164555490016937255859375</LongitudeDegrees>
            </Position>
            <AltitudeMeters>244</AltitudeMeters>
            <DistanceMeters>160615.78566735</DistanceMeters>
          </Trackpoint>
          <Trackpoint>
            <Time>2018-09-13T16:42:34.000Z</Time>
            <Position>
              <LatitudeDegrees>38.71079494245350360870361328125</LatitudeDegrees>
              <LongitudeDegrees>-8.2012568973004817962646484375</LongitudeDegrees>
            </Position>
            <AltitudeMeters>243.600006103515625</AltitudeMeters>
            <DistanceMeters>160671.91589719</DistanceMeters>
          </Trackpoint>
          <Trackpoint>
            <Time>2018-09-13T16:42:44.000Z</Time>
            <Position>
              <LatitudeDegrees>38.71033586561679840087890625</LatitudeDegrees>
              <LongitudeDegrees>-8.20115321315824985504150390625</LongitudeDegrees>
            </Position>
            <AltitudeMeters>244</AltitudeMeters>
            <DistanceMeters>160723.79961302</DistanceMeters>
          </Trackpoint>
          <Trackpoint>
            <Time>2018-09-13T16:42:53.000Z</Time>
            <Position>
              <LatitudeDegrees>38.7099172733724117279052734375</LatitudeDegrees>
              <LongitudeDegrees>-8.20103821344673633575439453125</LongitudeDegrees>
            </Position>
            <AltitudeMeters>245.8000030517578125</AltitudeMeters>
            <DistanceMeters>160771.44828561</DistanceMeters>
          </Trackpoint>
          <Trackpoint>
            <Time>2018-09-13T16:43:05.000Z</Time>
            <Position>
              <LatitudeDegrees>38.70935409329831600189208984375</LatitudeDegrees>
              <LongitudeDegrees>-8.20091248489916324615478515625</LongitudeDegrees>
            </Position>
            <AltitudeMeters>248</AltitudeMeters>
            <DistanceMeters>160835.07546575</DistanceMeters>
          </Trackpoint>
          <Trackpoint>
            <Time>2018-09-13T16:43:06.000Z</Time>
            <Position>
              <LatitudeDegrees>38.7093079090118408203125</LatitudeDegrees>
              <LongitudeDegrees>-8.20090033113956451416015625</LongitudeDegrees>
            </Position>
            <AltitudeMeters>248.1999969482421875</AltitudeMeters>
            <DistanceMeters>160840.32434784</DistanceMeters>
          </Trackpoint>
          <Trackpoint>
            <Time>2018-09-13T16:43:14.000Z</Time>
            <Position>
              <LatitudeDegrees>38.7089412845671176910400390625</LatitudeDegrees>
              <LongitudeDegrees>-8.2008243910968303680419921875</LongitudeDegrees>
            </Position>
            <AltitudeMeters>249</AltitudeMeters>
            <DistanceMeters>160881.65998555</DistanceMeters>
          </Trackpoint>
          <Trackpoint>
            <Time>2018-09-13T16:43:26.000Z</Time>
            <Position>
              <LatitudeDegrees>38.7083807028830051422119140625</LatitudeDegrees>
              <LongitudeDegrees>-8.200685419142246246337890625</LongitudeDegrees>
            </Position>
            <AltitudeMeters>250.600006103515625</AltitudeMeters>
            <DistanceMeters>160945.21062386</DistanceMeters>
          </Trackpoint>
          <Trackpoint>
            <Time>2018-09-13T16:43:30.000Z</Time>
            <Position>
              <LatitudeDegrees>38.70818674564361572265625</LatitudeDegrees>
              <LongitudeDegrees>-8.20064292289316654205322265625</LongitudeDegrees>
            </Position>
            <AltitudeMeters>251.1999969482421875</AltitudeMeters>
            <DistanceMeters>160967.11175626</DistanceMeters>
          </Trackpoint>
          <Trackpoint>
            <Time>2018-09-13T16:43:41.000Z</Time>
            <Position>
              <LatitudeDegrees>38.7076430954039096832275390625</LatitudeDegrees>
              <LongitudeDegrees>-8.200556673109531402587890625</LongitudeDegrees>
            </Position>
            <AltitudeMeters>252.1999969482421875</AltitudeMeters>
            <DistanceMeters>161028.08292822</DistanceMeters>
          </Trackpoint>
          <Trackpoint>
            <Time>2018-09-13T16:43:43.000Z</Time>
            <Position>
              <LatitudeDegrees>38.707547374069690704345703125</LatitudeDegrees>
              <LongitudeDegrees>-8.20055164396762847900390625</LongitudeDegrees>
            </Position>
            <AltitudeMeters>252.1999969482421875</AltitudeMeters>
            <DistanceMeters>161038.74541679</DistanceMeters>
          </Trackpoint>
          <Trackpoint>
            <Time>2018-09-13T16:43:51.000Z</Time>
            <Position>
              <LatitudeDegrees>38.7071519158780574798583984375</LatitudeDegrees>
              <LongitudeDegrees>-8.20054359734058380126953125</LongitudeDegrees>
            </Position>
            <AltitudeMeters>252.600006103515625</AltitudeMeters>
            <DistanceMeters>161082.76627939</DistanceMeters>
          </Trackpoint>
          <Trackpoint>
            <Time>2018-09-13T16:43:52.000Z</Time>
            <Position>
              <LatitudeDegrees>38.707102797925472259521484375</LatitudeDegrees>
              <LongitudeDegrees>-8.20054468698799610137939453125</LongitudeDegrees>
            </Position>
            <AltitudeMeters>252.600006103515625</AltitudeMeters>
            <DistanceMeters>161088.23341329</DistanceMeters>
          </Trackpoint>
          <Trackpoint>
            <Time>2018-09-13T16:44:03.000Z</Time>
            <Position>
              <LatitudeDegrees>38.7065537832677364349365234375</LatitudeDegrees>
              <LongitudeDegrees>-8.20053898729383945465087890625</LongitudeDegrees>
            </Position>
            <AltitudeMeters>252.600006103515625</AltitudeMeters>
            <DistanceMeters>161149.34179735</DistanceMeters>
          </Trackpoint>
          <Trackpoint>
            <Time>2018-09-13T16:44:04.000Z</Time>
            <Position>
              <LatitudeDegrees>38.70650676079094409942626953125</LatitudeDegrees>
              <LongitudeDegrees>-8.20053647272288799285888671875</LongitudeDegrees>
            </Position>
            <AltitudeMeters>252.600006103515625</AltitudeMeters>
            <DistanceMeters>161154.58034699</DistanceMeters>
          </Trackpoint>
          <Trackpoint>
            <Time>2018-09-13T16:44:06.000Z</Time>
            <Position>
              <LatitudeDegrees>38.70641238056123256683349609375</LatitudeDegrees>
              <LongitudeDegrees>-8.200542591512203216552734375</LongitudeDegrees>
            </Position>
            <AltitudeMeters>252.600006103515625</AltitudeMeters>
            <DistanceMeters>161165.09873548</DistanceMeters>
          </Trackpoint>
          <Trackpoint>
            <Time>2018-09-13T16:44:09.000Z</Time>
            <Position>
              <LatitudeDegrees>38.70626754127442836761474609375</LatitudeDegrees>
              <LongitudeDegrees>-8.20054552517831325531005859375</LongitudeDegrees>
            </Position>
            <AltitudeMeters>253.399993896484375</AltitudeMeters>
            <DistanceMeters>161181.22166359</DistanceMeters>
          </Trackpoint>
          <Trackpoint>
            <Time>2018-09-13T16:44:16.000Z</Time>
            <Position>
              <LatitudeDegrees>38.70593176223337650299072265625</LatitudeDegrees>
              <LongitudeDegrees>-8.20053420960903167724609375</LongitudeDegrees>
            </Position>
            <AltitudeMeters>254.1999969482421875</AltitudeMeters>
            <DistanceMeters>161218.60740007</DistanceMeters>
          </Trackpoint>
          <Trackpoint>
            <Time>2018-09-13T16:44:23.000Z</Time>
            <Position>
              <LatitudeDegrees>38.7055710889399051666259765625</LatitudeDegrees>
              <LongitudeDegrees>-8.20053814910352230072021484375</LongitudeDegrees>
            </Position>
            <AltitudeMeters>253.399993896484375</AltitudeMeters>
            <DistanceMeters>161258.75255996</DistanceMeters>
          </Trackpoint>
          <Trackpoint>
            <Time>2018-09-13T16:44:29.000Z</Time>
            <Position>
              <LatitudeDegrees>38.70521930046379566192626953125</LatitudeDegrees>
              <LongitudeDegrees>-8.20052389986813068389892578125</LongitudeDegrees>
            </Position>
            <AltitudeMeters>252</AltitudeMeters>
            <DistanceMeters>161297.92697</DistanceMeters>
          </Trackpoint>
          <Trackpoint>
            <Time>2018-09-13T16:44:32.000Z</Time>
            <Position>
              <LatitudeDegrees>38.7050343118607997894287109375</LatitudeDegrees>
              <LongitudeDegrees>-8.20052188821136951446533203125</LongitudeDegrees>
            </Position>
            <AltitudeMeters>251.8000030517578125</AltitudeMeters>
            <DistanceMeters>161318.5173097</DistanceMeters>
          </Trackpoint>
          <Trackpoint>
            <Time>2018-09-13T16:44:35.000Z</Time>
            <Position>
              <LatitudeDegrees>38.70485418476164340972900390625</LatitudeDegrees>
              <LongitudeDegrees>-8.20052205584943294525146484375</LongitudeDegrees>
            </Position>
            <AltitudeMeters>251.600006103515625</AltitudeMeters>
            <DistanceMeters>161338.56591969</DistanceMeters>
          </Trackpoint>
          <Trackpoint>
            <Time>2018-09-13T16:44:38.000Z</Time>
            <Position>
              <LatitudeDegrees>38.70468671433627605438232421875</LatitudeDegrees>
              <LongitudeDegrees>-8.200522474944591522216796875</LongitudeDegrees>
            </Position>
            <AltitudeMeters>251</AltitudeMeters>
            <DistanceMeters>161357.20569494</DistanceMeters>
          </Trackpoint>
          <Trackpoint>
            <Time>2018-09-13T16:44:40.000Z</Time>
            <Position>
              <LatitudeDegrees>38.70458093471825122833251953125</LatitudeDegrees>
              <LongitudeDegrees>-8.20052037946879863739013671875</LongitudeDegrees>
            </Position>
            <AltitudeMeters>250.399993896484375</AltitudeMeters>
            <DistanceMeters>161368.98095815</DistanceMeters>
          </Trackpoint>
          <Trackpoint>
            <Time>2018-09-13T16:44:44.000Z</Time>
            <Position>
              <LatitudeDegrees>38.70435931719839572906494140625</LatitudeDegrees>
              <LongitudeDegrees>-8.20053362287580966949462890625</LongitudeDegrees>
            </Position>
            <AltitudeMeters>249.600006103515625</AltitudeMeters>
            <DistanceMeters>161393.67437716</DistanceMeters>
          </Trackpoint>
          <Trackpoint>
            <Time>2018-09-13T16:44:54.000Z</Time>
            <Position>
              <LatitudeDegrees>38.7037632800638675689697265625</LatitudeDegrees>
              <LongitudeDegrees>-8.20051417686045169830322265625</LongitudeDegrees>
            </Position>
            <AltitudeMeters>249.399993896484375</AltitudeMeters>
            <DistanceMeters>161460.03602987</DistanceMeters>
          </Trackpoint>
          <Trackpoint>
            <Time>2018-09-13T16:45:03.000Z</Time>
            <Position>
              <LatitudeDegrees>38.703221976757049560546875</LatitudeDegrees>
              <LongitudeDegrees>-8.2005092315375804901123046875</LongitudeDegrees>
            </Position>
            <AltitudeMeters>249</AltitudeMeters>
            <DistanceMeters>161520.28573958</DistanceMeters>
          </Trackpoint>
          <Trackpoint>
            <Time>2018-09-13T16:45:12.000Z</Time>
            <Position>
              <LatitudeDegrees>38.7026813440024852752685546875</LatitudeDegrees>
              <LongitudeDegrees>-8.20050562731921672821044921875</LongitudeDegrees>
            </Position>
            <AltitudeMeters>248.8000030517578125</AltitudeMeters>
            <DistanceMeters>161580.46008871</DistanceMeters>
          </Trackpoint>
          <Trackpoint>
            <Time>2018-09-13T16:45:22.000Z</Time>
            <Position>
              <LatitudeDegrees>38.70208279229700565338134765625</LatitudeDegrees>
              <LongitudeDegrees>-8.20050068199634552001953125</LongitudeDegrees>
            </Position>
            <AltitudeMeters>247.399993896484375</AltitudeMeters>
            <DistanceMeters>161647.08160966</DistanceMeters>
          </Trackpoint>
          <Trackpoint>
            <Time>2018-09-13T16:45:30.000Z</Time>
            <Position>
              <LatitudeDegrees>38.701585493981838226318359375</LatitudeDegrees>
              <LongitudeDegrees>-8.20048936642706394195556640625</LongitudeDegrees>
            </Position>
            <AltitudeMeters>246.8000030517578125</AltitudeMeters>
            <DistanceMeters>161702.44068609</DistanceMeters>
          </Trackpoint>
          <Trackpoint>
            <Time>2018-09-13T16:45:39.000Z</Time>
            <Position>
              <LatitudeDegrees>38.70103522203862667083740234375</LatitudeDegrees>
              <LongitudeDegrees>-8.20048785768449306488037109375</LongitudeDegrees>
            </Position>
            <AltitudeMeters>247.399993896484375</AltitudeMeters>
            <DistanceMeters>161763.68715436</DistanceMeters>
          </Trackpoint>
          <Trackpoint>
            <Time>2018-09-13T16:45:49.000Z</Time>
            <Position>
              <LatitudeDegrees>38.70044094510376453399658203125</LatitudeDegrees>
              <LongitudeDegrees>-8.20047126151621341705322265625</LongitudeDegrees>
            </Position>
            <AltitudeMeters>249.1999969482421875</AltitudeMeters>
            <DistanceMeters>161829.84704322</DistanceMeters>
          </Trackpoint>
          <Trackpoint>
            <Time>2018-09-13T16:45:59.000Z</Time>
            <Position>
              <LatitudeDegrees>38.69989109225571155548095703125</LatitudeDegrees>
              <LongitudeDegrees>-8.2004730217158794403076171875</LongitudeDegrees>
            </Position>
            <AltitudeMeters>250.1999969482421875</AltitudeMeters>
            <DistanceMeters>161891.04682947</DistanceMeters>
          </Trackpoint>
          <Trackpoint>
            <Time>2018-09-13T16:46:03.000Z</Time>
            <Position>
              <LatitudeDegrees>38.6996692232787609100341796875</LatitudeDegrees>
              <LongitudeDegrees>-8.20047176443040370941162109375</LongitudeDegrees>
            </Position>
            <AltitudeMeters>250.8000030517578125</AltitudeMeters>
            <DistanceMeters>161915.74134551</DistanceMeters>
          </Trackpoint>
          <Trackpoint>
            <Time>2018-09-13T16:46:11.000Z</Time>
            <Position>
              <LatitudeDegrees>38.69922481477260589599609375</LatitudeDegrees>
              <LongitudeDegrees>-8.2004743628203868865966796875</LongitudeDegrees>
            </Position>
            <AltitudeMeters>251.8000030517578125</AltitudeMeters>
            <DistanceMeters>161965.20537468</DistanceMeters>
          </Trackpoint>
          <Trackpoint>
            <Time>2018-09-13T16:46:22.000Z</Time>
            <Position>
              <LatitudeDegrees>38.69864537380635738372802734375</LatitudeDegrees>
              <LongitudeDegrees>-8.20048199035227298736572265625</LongitudeDegrees>
            </Position>
            <AltitudeMeters>252.8000030517578125</AltitudeMeters>
            <DistanceMeters>162029.70170756</DistanceMeters>
          </Trackpoint>
          <Trackpoint>
            <Time>2018-09-13T16:46:28.000Z</Time>
            <Position>
              <LatitudeDegrees>38.69834379293024539947509765625</LatitudeDegrees>
              <LongitudeDegrees>-8.20048148743808269500732421875</LongitudeDegrees>
            </Position>
            <AltitudeMeters>253.1999969482421875</AltitudeMeters>
            <DistanceMeters>162063.26833918</DistanceMeters>
          </Trackpoint>
          <Trackpoint>
            <Time>2018-09-13T16:46:39.000Z</Time>
            <Position>
              <LatitudeDegrees>38.69779075495898723602294921875</LatitudeDegrees>
              <LongitudeDegrees>-8.2004676572978496551513671875</LongitudeDegrees>
            </Position>
            <AltitudeMeters>254.600006103515625</AltitudeMeters>
            <DistanceMeters>162124.83421063</DistanceMeters>
          </Trackpoint>
          <Trackpoint>
            <Time>2018-09-13T16:46:46.000Z</Time>
            <Position>
              <LatitudeDegrees>38.6974342726171016693115234375</LatitudeDegrees>
              <LongitudeDegrees>-8.20044343359768390655517578125</LongitudeDegrees>
            </Position>
            <AltitudeMeters>256</AltitudeMeters>
            <DistanceMeters>162164.56696971</DistanceMeters>
          </Trackpoint>
          <Trackpoint>
            <Time>2018-09-13T16:46:58.000Z</Time>
            <Position>
              <LatitudeDegrees>38.6968582682311534881591796875</LatitudeDegrees>
              <LongitudeDegrees>-8.2004250772297382354736328125</LongitudeDegrees>
            </Position>
            <AltitudeMeters>258</AltitudeMeters>
            <DistanceMeters>162228.69726003</DistanceMeters>
          </Trackpoint>
          <Trackpoint>
            <Time>2018-09-13T16:47:01.000Z</Time>
            <Position>
              <LatitudeDegrees>38.6967187933623790740966796875</LatitudeDegrees>
              <LongitudeDegrees>-8.20041728205978870391845703125</LongitudeDegrees>
            </Position>
            <AltitudeMeters>258.399993896484375</AltitudeMeters>
            <DistanceMeters>162244.23608926</DistanceMeters>
          </Trackpoint>
          <Trackpoint>
            <Time>2018-09-13T16:47:12.000Z</Time>
            <Position>
              <LatitudeDegrees>38.6962054856121540069580078125</LatitudeDegrees>
              <LongitudeDegrees>-8.20039884187281131744384765625</LongitudeDegrees>
            </Position>
            <AltitudeMeters>258.600006103515625</AltitudeMeters>
            <DistanceMeters>162301.3906885</DistanceMeters>
          </Trackpoint>
          <Trackpoint>
            <Time>2018-09-13T16:47:18.000Z</Time>
            <Position>
              <LatitudeDegrees>38.6959225125610828399658203125</LatitudeDegrees>
              <LongitudeDegrees>-8.20040102116763591766357421875</LongitudeDegrees>
            </Position>
            <AltitudeMeters>259</AltitudeMeters>
            <DistanceMeters>162332.88656153</DistanceMeters>
          </Trackpoint>
          <Trackpoint>
            <Time>2018-09-13T16:47:24.000Z</Time>
            <Position>
              <LatitudeDegrees>38.69563995860517024993896484375</LatitudeDegrees>
              <LongitudeDegrees>-8.20040353573858737945556640625</LongitudeDegrees>
            </Position>
            <AltitudeMeters>259.79998779296875</AltitudeMeters>
            <DistanceMeters>162364.33595378</DistanceMeters>
          </Trackpoint>
          <Trackpoint>
            <Time>2018-09-13T16:47:35.000Z</Time>
            <Position>
              <LatitudeDegrees>38.69512614794075489044189453125</LatitudeDegrees>
              <LongitudeDegrees>-8.20039297454059123992919921875</LongitudeDegrees>
            </Position>
            <AltitudeMeters>261.399993896484375</AltitudeMeters>
            <DistanceMeters>162421.53145879</DistanceMeters>
          </Trackpoint>
          <Trackpoint>
            <Time>2018-09-13T16:47:42.000Z</Time>
            <Position>
              <LatitudeDegrees>38.6948197893798351287841796875</LatitudeDegrees>
              <LongitudeDegrees>-8.200417868793010711669921875</LongitudeDegrees>
            </Position>
            <AltitudeMeters>261.79998779296875</AltitudeMeters>
            <DistanceMeters>162455.69828718</DistanceMeters>
          </Trackpoint>
          <Trackpoint>
            <Time>2018-09-13T16:47:50.000Z</Time>
            <Position>
              <LatitudeDegrees>38.69446531869471073150634765625</LatitudeDegrees>
              <LongitudeDegrees>-8.20047394372522830963134765625</LongitudeDegrees>
            </Position>
            <AltitudeMeters>262.399993896484375</AltitudeMeters>
            <DistanceMeters>162495.45126817</DistanceMeters>
          </Trackpoint>
          <Trackpoint>
            <Time>2018-09-13T16:47:58.000Z</Time>
            <Position>
              <LatitudeDegrees>38.6940965987741947174072265625</LatitudeDegrees>
              <LongitudeDegrees>-8.20056262426078319549560546875</LongitudeDegrees>
            </Position>
            <AltitudeMeters>261.79998779296875</AltitudeMeters>
            <DistanceMeters>162537.20726511</DistanceMeters>
          </Trackpoint>
          <Trackpoint>
            <Time>2018-09-13T16:48:00.000Z</Time>
            <Position>
              <LatitudeDegrees>38.69397765956819057464599609375</LatitudeDegrees>
              <LongitudeDegrees>-8.20058676414191722869873046875</LongitudeDegrees>
            </Position>
            <AltitudeMeters>261.600006103515625</AltitudeMeters>
            <DistanceMeters>162550.61041178</DistanceMeters>
          </Trackpoint>
          <Trackpoint>
            <Time>2018-09-13T16:48:08.000Z</Time>
            <Position>
              <LatitudeDegrees>38.69341540150344371795654296875</LatitudeDegrees>
              <LongitudeDegrees>-8.200702853500843048095703125</LongitudeDegrees>
            </Position>
            <AltitudeMeters>259.79998779296875</AltitudeMeters>
            <DistanceMeters>162613.99828771</DistanceMeters>
          </Trackpoint>
          <Trackpoint>
            <Time>2018-09-13T16:48:09.000Z</Time>
            <Position>
              <LatitudeDegrees>38.6933378688991069793701171875</LatitudeDegrees>
              <LongitudeDegrees>-8.20072020404040813446044921875</LongitudeDegrees>
            </Position>
            <AltitudeMeters>259.600006103515625</AltitudeMeters>
            <DistanceMeters>162622.75828712</DistanceMeters>
          </Trackpoint>
          <Trackpoint>
            <Time>2018-09-13T16:48:11.000Z</Time>
            <Position>
              <LatitudeDegrees>38.69317685253918170928955078125</LatitudeDegrees>
              <LongitudeDegrees>-8.20075490511953830718994140625</LongitudeDegrees>
            </Position>
            <AltitudeMeters>258.79998779296875</AltitudeMeters>
            <DistanceMeters>162640.93150961</DistanceMeters>
          </Trackpoint>
          <Trackpoint>
            <Time>2018-09-13T16:48:13.000Z</Time>
            <Position>
              <LatitudeDegrees>38.6930109746754169464111328125</LatitudeDegrees>
              <LongitudeDegrees>-8.20078407414257526397705078125</LongitudeDegrees>
            </Position>
            <AltitudeMeters>258.20001220703125</AltitudeMeters>
            <DistanceMeters>162659.56716656</DistanceMeters>
          </Trackpoint>
          <Trackpoint>
            <Time>2018-09-13T16:48:16.000Z</Time>
            <Position>
              <LatitudeDegrees>38.692759014666080474853515625</LatitudeDegrees>
              <LongitudeDegrees>-8.2008401490747928619384765625</LongitudeDegrees>
            </Position>
            <AltitudeMeters>257.20001220703125</AltitudeMeters>
            <DistanceMeters>162688.03080053</DistanceMeters>
          </Trackpoint>
          <Trackpoint>
            <Time>2018-09-13T16:48:20.000Z</Time>
            <Position>
              <LatitudeDegrees>38.69243103079497814178466796875</LatitudeDegrees>
              <LongitudeDegrees>-8.20090309716761112213134765625</LongitudeDegrees>
            </Position>
            <AltitudeMeters>257</AltitudeMeters>
            <DistanceMeters>162724.94326691</DistanceMeters>
          </Trackpoint>
          <Trackpoint>
            <Time>2018-09-13T16:48:22.000Z</Time>
            <Position>
              <LatitudeDegrees>38.69227445684373378753662109375</LatitudeDegrees>
              <LongitudeDegrees>-8.20093251764774322509765625</LongitudeDegrees>
            </Position>
            <AltitudeMeters>257</AltitudeMeters>
            <DistanceMeters>162742.55630885</DistanceMeters>
          </Trackpoint>
          <Trackpoint>
            <Time>2018-09-13T16:48:29.000Z</Time>
            <Position>
              <LatitudeDegrees>38.69175159372389316558837890625</LatitudeDegrees>
              <LongitudeDegrees>-8.20104106329381465911865234375</LongitudeDegrees>
            </Position>
            <AltitudeMeters>257</AltitudeMeters>
            <DistanceMeters>162801.51102336</DistanceMeters>
          </Trackpoint>
          <Trackpoint>
            <Time>2018-09-13T16:48:37.000Z</Time>
            <Position>
              <LatitudeDegrees>38.6911609210073947906494140625</LatitudeDegrees>
              <LongitudeDegrees>-8.2011583261191844940185546875</LongitudeDegrees>
            </Position>
            <AltitudeMeters>257</AltitudeMeters>
            <DistanceMeters>162868.03868248</DistanceMeters>
          </Trackpoint>
          <Trackpoint>
            <Time>2018-09-13T16:48:41.000Z</Time>
            <Position>
              <LatitudeDegrees>38.6908797919750213623046875</LatitudeDegrees>
              <LongitudeDegrees>-8.2012193463742733001708984375</LongitudeDegrees>
            </Position>
            <AltitudeMeters>256.79998779296875</AltitudeMeters>
            <DistanceMeters>162899.77475984</DistanceMeters>
          </Trackpoint>
          <Trackpoint>
            <Time>2018-09-13T16:48:49.000Z</Time>
            <Position>
              <LatitudeDegrees>38.69031049311161041259765625</LatitudeDegrees>
              <LongitudeDegrees>-8.20134750567376613616943359375</LongitudeDegrees>
            </Position>
            <AltitudeMeters>255.8000030517578125</AltitudeMeters>
            <DistanceMeters>162964.10974036</DistanceMeters>
          </Trackpoint>
          <Trackpoint>
            <Time>2018-09-13T16:48:57.000Z</Time>
            <Position>
              <LatitudeDegrees>38.68974781595170497894287109375</LatitudeDegrees>
              <LongitudeDegrees>-8.20146149955689907073974609375</LongitudeDegrees>
            </Position>
            <AltitudeMeters>255.600006103515625</AltitudeMeters>
            <DistanceMeters>163027.51499371</DistanceMeters>
          </Trackpoint>
          <Trackpoint>
            <Time>2018-09-13T16:49:05.000Z</Time>
            <Position>
              <LatitudeDegrees>38.68918170221149921417236328125</LatitudeDegrees>
              <LongitudeDegrees>-8.201577924191951751708984375</LongitudeDegrees>
            </Position>
            <AltitudeMeters>255.600006103515625</AltitudeMeters>
            <DistanceMeters>163091.33121654</DistanceMeters>
          </Trackpoint>
          <Trackpoint>
            <Time>2018-09-13T16:49:13.000Z</Time>
            <Position>
              <LatitudeDegrees>38.6886106431484222412109375</LatitudeDegrees>
              <LongitudeDegrees>-8.2016924209892749786376953125</LongitudeDegrees>
            </Position>
            <AltitudeMeters>254.1999969482421875</AltitudeMeters>
            <DistanceMeters>163155.66493381</DistanceMeters>
          </Trackpoint>
          <Trackpoint>
            <Time>2018-09-13T16:49:21.000Z</Time>
            <Position>
              <LatitudeDegrees>38.68803371675312519073486328125</LatitudeDegrees>
              <LongitudeDegrees>-8.2018171437084674835205078125</LongitudeDegrees>
            </Position>
            <AltitudeMeters>254.600006103515625</AltitudeMeters>
            <DistanceMeters>163220.78576427</DistanceMeters>
          </Trackpoint>
          <Trackpoint>
            <Time>2018-09-13T16:49:23.000Z</Time>
            <Position>
              <LatitudeDegrees>38.687890470027923583984375</LatitudeDegrees>
              <LongitudeDegrees>-8.20184220559895038604736328125</LongitudeDegrees>
            </Position>
            <AltitudeMeters>254.600006103515625</AltitudeMeters>
            <DistanceMeters>163236.87701692</DistanceMeters>
          </Trackpoint>
          <Trackpoint>
            <Time>2018-09-13T16:49:31.000Z</Time>
            <Position>
              <LatitudeDegrees>38.6873149685561656951904296875</LatitudeDegrees>
              <LongitudeDegrees>-8.2019613124430179595947265625</LongitudeDegrees>
            </Position>
            <AltitudeMeters>254.399993896484375</AltitudeMeters>
            <DistanceMeters>163301.7618949</DistanceMeters>
          </Trackpoint>
          <Trackpoint>
            <Time>2018-09-13T16:49:39.000Z</Time>
            <Position>
              <LatitudeDegrees>38.68672496639192104339599609375</LatitudeDegrees>
              <LongitudeDegrees>-8.202082850039005279541015625</LongitudeDegrees>
            </Position>
            <AltitudeMeters>253.600006103515625</AltitudeMeters>
            <DistanceMeters>163368.27380699</DistanceMeters>
          </Trackpoint>
          <Trackpoint>
            <Time>2018-09-13T16:49:42.000Z</Time>
            <Position>
              <LatitudeDegrees>38.6865086294710636138916015625</LatitudeDegrees>
              <LongitudeDegrees>-8.2021339796483516693115234375</LongitudeDegrees>
            </Position>
            <AltitudeMeters>252.8000030517578125</AltitudeMeters>
            <DistanceMeters>163392.75863443</DistanceMeters>
          </Trackpoint>
          <Trackpoint>
            <Time>2018-09-13T16:49:50.000Z</Time>
            <Position>
              <LatitudeDegrees>38.68593304418027400970458984375</LatitudeDegrees>
              <LongitudeDegrees>-8.20223866961896419525146484375</LongitudeDegrees>
            </Position>
            <AltitudeMeters>250.600006103515625</AltitudeMeters>
            <DistanceMeters>163457.46484955</DistanceMeters>
          </Trackpoint>
          <Trackpoint>
            <Time>2018-09-13T16:49:58.000Z</Time>
            <Position>
              <LatitudeDegrees>38.68537564761936664581298828125</LatitudeDegrees>
              <LongitudeDegrees>-8.2023596204817295074462890625</LongitudeDegrees>
            </Position>
            <AltitudeMeters>251.8000030517578125</AltitudeMeters>
            <DistanceMeters>163520.38774838</DistanceMeters>
          </Trackpoint>
          <Trackpoint>
            <Time>2018-09-13T16:50:07.000Z</Time>
            <Position>
              <LatitudeDegrees>38.68480928242206573486328125</LatitudeDegrees>
              <LongitudeDegrees>-8.20248174481093883514404296875</LongitudeDegrees>
            </Position>
            <AltitudeMeters>253.8000030517578125</AltitudeMeters>
            <DistanceMeters>163584.31205739</DistanceMeters>
          </Trackpoint>
          <Trackpoint>
            <Time>2018-09-13T16:50:14.000Z</Time>
            <Position>
              <LatitudeDegrees>38.68442228995263576507568359375</LatitudeDegrees>
              <LongitudeDegrees>-8.20256866514682769775390625</LongitudeDegrees>
            </Position>
            <AltitudeMeters>255.8000030517578125</AltitudeMeters>
            <DistanceMeters>163628.04210825</DistanceMeters>
          </Trackpoint>
          <Trackpoint>
            <Time>2018-09-13T16:50:17.000Z</Time>
            <Position>
              <LatitudeDegrees>38.684258759021759033203125</LatitudeDegrees>
              <LongitudeDegrees>-8.20260110311210155487060546875</LongitudeDegrees>
            </Position>
            <AltitudeMeters>256.20001220703125</AltitudeMeters>
            <DistanceMeters>163646.46038401</DistanceMeters>
          </Trackpoint>
          <Trackpoint>
            <Time>2018-09-13T16:50:20.000Z</Time>
            <Position>
              <LatitudeDegrees>38.68409455753862857818603515625</LatitudeDegrees>
              <LongitudeDegrees>-8.2026325352489948272705078125</LongitudeDegrees>
            </Position>
            <AltitudeMeters>256.79998779296875</AltitudeMeters>
            <DistanceMeters>163664.93959857</DistanceMeters>
          </Trackpoint>
          <Trackpoint>
            <Time>2018-09-13T16:50:26.000Z</Time>
            <Position>
              <LatitudeDegrees>38.68378090672194957733154296875</LatitudeDegrees>
              <LongitudeDegrees>-8.2026955671608448028564453125</LongitudeDegrees>
            </Position>
            <AltitudeMeters>257.79998779296875</AltitudeMeters>
            <DistanceMeters>163700.27650606</DistanceMeters>
          </Trackpoint>
          <Trackpoint>
            <Time>2018-09-13T16:50:28.000Z</Time>
            <Position>
              <LatitudeDegrees>38.6836799047887325286865234375</LatitudeDegrees>
              <LongitudeDegrees>-8.2027203775942325592041015625</LongitudeDegrees>
            </Position>
            <AltitudeMeters>258.20001220703125</AltitudeMeters>
            <DistanceMeters>163711.72318283</DistanceMeters>
          </Trackpoint>
          <Trackpoint>
            <Time>2018-09-13T16:50:33.000Z</Time>
            <Position>
              <LatitudeDegrees>38.6834267713129520416259765625</LatitudeDegrees>
              <LongitudeDegrees>-8.20277293212711811065673828125</LongitudeDegrees>
            </Position>
            <AltitudeMeters>258.79998779296875</AltitudeMeters>
            <DistanceMeters>163740.26506988</DistanceMeters>
          </Trackpoint>
          <Trackpoint>
            <Time>2018-09-13T16:50:44.000Z</Time>
            <Position>
              <LatitudeDegrees>38.682863004505634307861328125</LatitudeDegrees>
              <LongitudeDegrees>-8.2028938829898834228515625</LongitudeDegrees>
            </Position>
            <AltitudeMeters>259.399993896484375</AltitudeMeters>
            <DistanceMeters>163803.88728256</DistanceMeters>
          </Trackpoint>
          <Trackpoint>
            <Time>2018-09-13T16:50:47.000Z</Time>
            <Position>
              <LatitudeDegrees>38.68270249105989933013916015625</LatitudeDegrees>
              <LongitudeDegrees>-8.2029259018599987030029296875</LongitudeDegrees>
            </Position>
            <AltitudeMeters>259.399993896484375</AltitudeMeters>
            <DistanceMeters>163821.96809719</DistanceMeters>
          </Trackpoint>
          <Trackpoint>
            <Time>2018-09-13T16:50:50.000Z</Time>
            <Position>
              <LatitudeDegrees>38.68254222907125949859619140625</LatitudeDegrees>
              <LongitudeDegrees>-8.20295766927301883697509765625</LongitudeDegrees>
            </Position>
            <AltitudeMeters>259.399993896484375</AltitudeMeters>
            <DistanceMeters>163840.01767053</DistanceMeters>
          </Trackpoint>
          <Trackpoint>
            <Time>2018-09-13T16:51:01.000Z</Time>
            <Position>
              <LatitudeDegrees>38.6819668114185333251953125</LatitudeDegrees>
              <LongitudeDegrees>-8.2030844874680042266845703125</LongitudeDegrees>
            </Position>
            <AltitudeMeters>260</AltitudeMeters>
            <DistanceMeters>163905.00371635</DistanceMeters>
          </Trackpoint>
          <Trackpoint>
            <Time>2018-09-13T16:51:03.000Z</Time>
            <Position>
              <LatitudeDegrees>38.68186564184725284576416015625</LatitudeDegrees>
              <LongitudeDegrees>-8.2031004130840301513671875</LongitudeDegrees>
            </Position>
            <AltitudeMeters>260.20001220703125</AltitudeMeters>
            <DistanceMeters>163916.34856891</DistanceMeters>
          </Trackpoint>
          <Trackpoint>
            <Time>2018-09-13T16:51:12.000Z</Time>
            <Position>
              <LatitudeDegrees>38.6814385838806629180908203125</LatitudeDegrees>
              <LongitudeDegrees>-8.2031889259815216064453125</LongitudeDegrees>
            </Position>
            <AltitudeMeters>261.399993896484375</AltitudeMeters>
            <DistanceMeters>163964.49908425</DistanceMeters>
          </Trackpoint>
          <Trackpoint>
            <Time>2018-09-13T16:51:14.000Z</Time>
            <Position>
              <LatitudeDegrees>38.68134923279285430908203125</LatitudeDegrees>
              <LongitudeDegrees>-8.20320644415915012359619140625</LongitudeDegrees>
            </Position>
            <AltitudeMeters>261.600006103515625</AltitudeMeters>
            <DistanceMeters>163974.55980623</DistanceMeters>
          </Trackpoint>
          <Trackpoint>
            <Time>2018-09-13T16:51:15.000Z</Time>
            <Position>
              <LatitudeDegrees>38.68130405433475971221923828125</LatitudeDegrees>
              <LongitudeDegrees>-8.20321264676749706268310546875</LongitudeDegrees>
            </Position>
            <AltitudeMeters>261.79998779296875</AltitudeMeters>
            <DistanceMeters>163979.61590615</DistanceMeters>
          </Trackpoint>
          <Trackpoint>
            <Time>2018-09-13T16:51:23.000Z</Time>
            <Position>
              <LatitudeDegrees>38.68094824254512786865234375</LatitudeDegrees>
              <LongitudeDegrees>-8.20328288711607456207275390625</LongitudeDegrees>
            </Position>
            <AltitudeMeters>262.600006103515625</AltitudeMeters>
            <DistanceMeters>164019.68575445</DistanceMeters>
          </Trackpoint>
          <Trackpoint>
            <Time>2018-09-13T16:51:27.000Z</Time>
            <Position>
              <LatitudeDegrees>38.68077096529304981231689453125</LatitudeDegrees>
              <LongitudeDegrees>-8.2033191807568073272705078125</LongitudeDegrees>
            </Position>
            <AltitudeMeters>263</AltitudeMeters>
            <DistanceMeters>164039.66736674</DistanceMeters>
          </Trackpoint>
          <Trackpoint>
            <Time>2018-09-13T16:51:38.000Z</Time>
            <Position>
              <LatitudeDegrees>38.68027760647237300872802734375</LatitudeDegrees>
              <LongitudeDegrees>-8.20342957042157649993896484375</LongitudeDegrees>
            </Position>
            <AltitudeMeters>263.79998779296875</AltitudeMeters>
            <DistanceMeters>164095.41055902</DistanceMeters>
          </Trackpoint>
          <Trackpoint>
            <Time>2018-09-13T16:51:48.000Z</Time>
            <Position>
              <LatitudeDegrees>38.67983437143266201019287109375</LatitudeDegrees>
              <LongitudeDegrees>-8.20352663286030292510986328125</LongitudeDegrees>
            </Position>
            <AltitudeMeters>265</AltitudeMeters>
            <DistanceMeters>164145.45924496</DistanceMeters>
          </Trackpoint>
          <Trackpoint>
            <Time>2018-09-13T16:51:54.000Z</Time>
            <Position>
              <LatitudeDegrees>38.67957537062466144561767578125</LatitudeDegrees>
              <LongitudeDegrees>-8.20357306860387325286865234375</LongitudeDegrees>
            </Position>
            <AltitudeMeters>265.79998779296875</AltitudeMeters>
            <DistanceMeters>164174.56752682</DistanceMeters>
          </Trackpoint>
          <Trackpoint>
            <Time>2018-09-13T16:51:57.000Z</Time>
            <Position>
              <LatitudeDegrees>38.6794426850974559783935546875</LatitudeDegrees>
              <LongitudeDegrees>-8.20359150879085063934326171875</LongitudeDegrees>
            </Position>
            <AltitudeMeters>266.20001220703125</AltitudeMeters>
            <DistanceMeters>164189.42212032</DistanceMeters>
          </Trackpoint>
          <Trackpoint>
            <Time>2018-09-13T16:52:10.000Z</Time>
            <Position>
              <LatitudeDegrees>38.6788844503462314605712890625</LatitudeDegrees>
              <LongitudeDegrees>-8.20368940941989421844482421875</LongitudeDegrees>
            </Position>
            <AltitudeMeters>266.20001220703125</AltitudeMeters>
            <DistanceMeters>164252.13428033</DistanceMeters>
          </Trackpoint>
          <Trackpoint>
            <Time>2018-09-13T16:52:22.000Z</Time>
            <Position>
              <LatitudeDegrees>38.67832160554826259613037109375</LatitudeDegrees>
              <LongitudeDegrees>-8.20381497032940387725830078125</LongitudeDegrees>
            </Position>
            <AltitudeMeters>266.399993896484375</AltitudeMeters>
            <DistanceMeters>164315.72284605</DistanceMeters>
          </Trackpoint>
          <Trackpoint>
            <Time>2018-09-13T16:52:34.000Z</Time>
            <Position>
              <LatitudeDegrees>38.6777505464851856231689453125</LatitudeDegrees>
              <LongitudeDegrees>-8.20393122732639312744140625</LongitudeDegrees>
            </Position>
            <AltitudeMeters>266.600006103515625</AltitudeMeters>
            <DistanceMeters>164380.08056092</DistanceMeters>
          </Trackpoint>
          <Trackpoint>
            <Time>2018-09-13T16:52:39.000Z</Time>
            <Position>
              <LatitudeDegrees>38.67757142521440982818603515625</LatitudeDegrees>
              <LongitudeDegrees>-8.20397405885159969329833984375</LongitudeDegrees>
            </Position>
            <AltitudeMeters>266.600006103515625</AltitudeMeters>
            <DistanceMeters>164400.36158609</DistanceMeters>
          </Trackpoint>
          <Trackpoint>
            <Time>2018-09-13T16:52:40.000Z</Time>
            <Position>
              <LatitudeDegrees>38.6775483749806880950927734375</LatitudeDegrees>
              <LongitudeDegrees>-8.203980512917041778564453125</LongitudeDegrees>
            </Position>
            <AltitudeMeters>266.600006103515625</AltitudeMeters>
            <DistanceMeters>164402.98817673</DistanceMeters>
          </Trackpoint>
          <Trackpoint>
            <Time>2018-09-13T16:52:42.000Z</Time>
            <Position>
              <LatitudeDegrees>38.6775319464504718780517578125</LatitudeDegrees>
              <LongitudeDegrees>-8.2039863802492618560791015625</LongitudeDegrees>
            </Position>
            <AltitudeMeters>266.600006103515625</AltitudeMeters>
            <DistanceMeters>164404.88871102</DistanceMeters>
          </Trackpoint>
          <Trackpoint>
            <Time>2018-09-13T16:53:30.000Z</Time>
            <Position>
              <LatitudeDegrees>38.677516020834445953369140625</LatitudeDegrees>
              <LongitudeDegrees>-8.2039950974285602569580078125</LongitudeDegrees>
            </Position>
            <AltitudeMeters>266.600006103515625</AltitudeMeters>
            <DistanceMeters>164406.81520042</DistanceMeters>
          </Trackpoint>
          <Trackpoint>
            <Time>2018-09-13T16:53:31.000Z</Time>
            <Position>
              <LatitudeDegrees>38.67750152014195919036865234375</LatitudeDegrees>
              <LongitudeDegrees>-8.20400004275143146514892578125</LongitudeDegrees>
            </Position>
            <AltitudeMeters>266.600006103515625</AltitudeMeters>
            <DistanceMeters>164408.48831838</DistanceMeters>
          </Trackpoint>
          <Trackpoint>
            <Time>2018-09-13T16:53:36.000Z</Time>
            <Position>
              <LatitudeDegrees>38.6773485504090785980224609375</LatitudeDegrees>
              <LongitudeDegrees>-8.2040323130786418914794921875</LongitudeDegrees>
            </Position>
            <AltitudeMeters>266.600006103515625</AltitudeMeters>
            <DistanceMeters>164425.74371494</DistanceMeters>
          </Trackpoint>
          <Trackpoint>
            <Time>2018-09-13T16:53:40.000Z</Time>
            <Position>
              <LatitudeDegrees>38.67716574110090732574462890625</LatitudeDegrees>
              <LongitudeDegrees>-8.2040686905384063720703125</LongitudeDegrees>
            </Position>
            <AltitudeMeters>266.79998779296875</AltitudeMeters>
            <DistanceMeters>164446.3344932</DistanceMeters>
          </Trackpoint>
          <Trackpoint>
            <Time>2018-09-13T16:53:44.000Z</Time>
            <Position>
              <LatitudeDegrees>38.6769606359302997589111328125</LatitudeDegrees>
              <LongitudeDegrees>-8.2041003741323947906494140625</LongitudeDegrees>
            </Position>
            <AltitudeMeters>267</AltitudeMeters>
            <DistanceMeters>164469.32840557</DistanceMeters>
          </Trackpoint>
          <Trackpoint>
            <Time>2018-09-13T16:53:54.000Z</Time>
            <Position>
              <LatitudeDegrees>38.6764148063957691192626953125</LatitudeDegrees>
              <LongitudeDegrees>-8.2042012922465801239013671875</LongitudeDegrees>
            </Position>
            <AltitudeMeters>267.600006103515625</AltitudeMeters>
            <DistanceMeters>164530.70992587</DistanceMeters>
          </Trackpoint>
          <Trackpoint>
            <Time>2018-09-13T16:54:04.000Z</Time>
            <Position>
              <LatitudeDegrees>38.6758245527744293212890625</LatitudeDegrees>
              <LongitudeDegrees>-8.204327188432216644287109375</LongitudeDegrees>
            </Position>
            <AltitudeMeters>268.79998779296875</AltitudeMeters>
            <DistanceMeters>164597.31084111</DistanceMeters>
          </Trackpoint>
          <Trackpoint>
            <Time>2018-09-13T16:54:13.000Z</Time>
            <Position>
              <LatitudeDegrees>38.6752748675644397735595703125</LatitudeDegrees>
              <LongitudeDegrees>-8.204437159001827239990234375</LongitudeDegrees>
            </Position>
            <AltitudeMeters>270.79998779296875</AltitudeMeters>
            <DistanceMeters>164659.23370733</DistanceMeters>
          </Trackpoint>
          <Trackpoint>
            <Time>2018-09-13T16:54:16.000Z</Time>
            <Position>
              <LatitudeDegrees>38.67508216761052608489990234375</LatitudeDegrees>
              <LongitudeDegrees>-8.2044742070138454437255859375</LongitudeDegrees>
            </Position>
            <AltitudeMeters>271</AltitudeMeters>
            <DistanceMeters>164680.9218765</DistanceMeters>
          </Trackpoint>
          <Trackpoint>
            <Time>2018-09-13T16:54:25.000Z</Time>
            <Position>
              <LatitudeDegrees>38.674501217901706695556640625</LatitudeDegrees>
              <LongitudeDegrees>-8.2045915536582469940185546875</LongitudeDegrees>
            </Position>
            <AltitudeMeters>269.20001220703125</AltitudeMeters>
            <DistanceMeters>164746.38169619</DistanceMeters>
          </Trackpoint>
          <Trackpoint>
            <Time>2018-09-13T16:54:34.000Z</Time>
            <Position>
              <LatitudeDegrees>38.67390115745365619659423828125</LatitudeDegrees>
              <LongitudeDegrees>-8.2047271728515625</LongitudeDegrees>
            </Position>
            <AltitudeMeters>267.20001220703125</AltitudeMeters>
            <DistanceMeters>164814.20121769</DistanceMeters>
          </Trackpoint>
          <Trackpoint>
            <Time>2018-09-13T16:54:38.000Z</Time>
            <Position>
              <LatitudeDegrees>38.67359119467437267303466796875</LatitudeDegrees>
              <LongitudeDegrees>-8.20478727109730243682861328125</LongitudeDegrees>
            </Position>
            <AltitudeMeters>266.399993896484375</AltitudeMeters>
            <DistanceMeters>164849.09362456</DistanceMeters>
          </Trackpoint>
          <Trackpoint>
            <Time>2018-09-13T16:54:40.000Z</Time>
            <Position>
              <LatitudeDegrees>38.6734285019338130950927734375</LatitudeDegrees>
              <LongitudeDegrees>-8.2048188708722591400146484375</LongitudeDegrees>
            </Position>
            <AltitudeMeters>265.79998779296875</AltitudeMeters>
            <DistanceMeters>164867.40865253</DistanceMeters>
          </Trackpoint>
          <Trackpoint>
            <Time>2018-09-13T16:54:42.000Z</Time>
            <Position>
              <LatitudeDegrees>38.6732618696987628936767578125</LatitudeDegrees>
              <LongitudeDegrees>-8.20485466159880161285400390625</LongitudeDegrees>
            </Position>
            <AltitudeMeters>265</AltitudeMeters>
            <DistanceMeters>164886.21386068</DistanceMeters>
          </Trackpoint>
          <Trackpoint>
            <Time>2018-09-13T16:54:44.000Z</Time>
            <Position>
              <LatitudeDegrees>38.67309129796922206878662109375</LatitudeDegrees>
              <LongitudeDegrees>-8.20489414036273956298828125</LongitudeDegrees>
            </Position>
            <AltitudeMeters>264.20001220703125</AltitudeMeters>
            <DistanceMeters>164905.50639009</DistanceMeters>
          </Trackpoint>
          <Trackpoint>
            <Time>2018-09-13T16:54:45.000Z</Time>
            <Position>
              <LatitudeDegrees>38.67300496436655521392822265625</LatitudeDegrees>
              <LongitudeDegrees>-8.2049134187400341033935546875</LongitudeDegrees>
            </Position>
            <AltitudeMeters>263.79998779296875</AltitudeMeters>
            <DistanceMeters>164915.2608719</DistanceMeters>
          </Trackpoint>
          <Trackpoint>
            <Time>2018-09-13T16:54:49.000Z</Time>
            <Position>
              <LatitudeDegrees>38.67266549728810787200927734375</LatitudeDegrees>
              <LongitudeDegrees>-8.20498592220246791839599609375</LongitudeDegrees>
            </Position>
            <AltitudeMeters>262.20001220703125</AltitudeMeters>
            <DistanceMeters>164953.56595069</DistanceMeters>
          </Trackpoint>
          <Trackpoint>
            <Time>2018-09-13T16:54:53.000Z</Time>
            <Position>
              <LatitudeDegrees>38.6723351664841175079345703125</LatitudeDegrees>
              <LongitudeDegrees>-8.2050498761236667633056640625</LongitudeDegrees>
            </Position>
            <AltitudeMeters>261.79998779296875</AltitudeMeters>
            <DistanceMeters>164990.74994167</DistanceMeters>
          </Trackpoint>
          <Trackpoint>
            <Time>2018-09-13T16:54:59.000Z</Time>
            <Position>
              <LatitudeDegrees>38.67186267860233783721923828125</LatitudeDegrees>
              <LongitudeDegrees>-8.2051388919353485107421875</LongitudeDegrees>
            </Position>
            <AltitudeMeters>261</AltitudeMeters>
            <DistanceMeters>165043.90462743</DistanceMeters>
          </Trackpoint>
          <Trackpoint>
            <Time>2018-09-13T16:55:06.000Z</Time>
            <Position>
              <LatitudeDegrees>38.6713491193950176239013671875</LatitudeDegrees>
              <LongitudeDegrees>-8.20519924163818359375</LongitudeDegrees>
            </Position>
            <AltitudeMeters>260.399993896484375</AltitudeMeters>
            <DistanceMeters>165101.30485332</DistanceMeters>
          </Trackpoint>
          <Trackpoint>
            <Time>2018-09-13T16:55:11.000Z</Time>
            <Position>
              <LatitudeDegrees>38.67101107724010944366455078125</LatitudeDegrees>
              <LongitudeDegrees>-8.20521826855838298797607421875</LongitudeDegrees>
            </Position>
            <AltitudeMeters>260</AltitudeMeters>
            <DistanceMeters>165138.96589562</DistanceMeters>
          </Trackpoint>
          <Trackpoint>
            <Time>2018-09-13T16:55:15.000Z</Time>
            <Position>
              <LatitudeDegrees>38.670744784176349639892578125</LatitudeDegrees>
              <LongitudeDegrees>-8.2052315957844257354736328125</LongitudeDegrees>
            </Position>
            <AltitudeMeters>260.79998779296875</AltitudeMeters>
            <DistanceMeters>165168.62747646</DistanceMeters>
          </Trackpoint>
          <Trackpoint>
            <Time>2018-09-13T16:55:24.000Z</Time>
            <Position>
              <LatitudeDegrees>38.67017473094165325164794921875</LatitudeDegrees>
              <LongitudeDegrees>-8.2052099704742431640625</LongitudeDegrees>
            </Position>
            <AltitudeMeters>262.79998779296875</AltitudeMeters>
            <DistanceMeters>165232.10340118</DistanceMeters>
          </Trackpoint>
          <Trackpoint>
            <Time>2018-09-13T16:55:33.000Z</Time>
            <Position>
              <LatitudeDegrees>38.66962521336972713470458984375</LatitudeDegrees>
              <LongitudeDegrees>-8.20517711341381072998046875</LongitudeDegrees>
            </Position>
            <AltitudeMeters>262.20001220703125</AltitudeMeters>
            <DistanceMeters>165293.33239551</DistanceMeters>
          </Trackpoint>
          <Trackpoint>
            <Time>2018-09-13T16:55:41.000Z</Time>
            <Position>
              <LatitudeDegrees>38.66906203329563140869140625</LatitudeDegrees>
              <LongitudeDegrees>-8.20508658885955810546875</LongitudeDegrees>
            </Position>
            <AltitudeMeters>261</AltitudeMeters>
            <DistanceMeters>165356.50715294</DistanceMeters>
          </Trackpoint>
          <Trackpoint>
            <Time>2018-09-13T16:55:46.000Z</Time>
            <Position>
              <LatitudeDegrees>38.6686786450445652008056640625</LatitudeDegrees>
              <LongitudeDegrees>-8.205018527805805206298828125</LongitudeDegrees>
            </Position>
            <AltitudeMeters>259.600006103515625</AltitudeMeters>
            <DistanceMeters>165399.58696656</DistanceMeters>
          </Trackpoint>
          <Trackpoint>
            <Time>2018-09-13T16:55:50.000Z</Time>
            <Position>
              <LatitudeDegrees>38.668357618153095245361328125</LatitudeDegrees>
              <LongitudeDegrees>-8.204950802028179168701171875</LongitudeDegrees>
            </Position>
            <AltitudeMeters>258.20001220703125</AltitudeMeters>
            <DistanceMeters>165435.79937701</DistanceMeters>
          </Trackpoint>
          <Trackpoint>
            <Time>2018-09-13T16:55:51.000Z</Time>
            <Position>
              <LatitudeDegrees>38.66827421821653842926025390625</LatitudeDegrees>
              <LongitudeDegrees>-8.20493303239345550537109375</LongitudeDegrees>
            </Position>
            <AltitudeMeters>257.79998779296875</AltitudeMeters>
            <DistanceMeters>165445.20942109</DistanceMeters>
          </Trackpoint>
          <Trackpoint>
            <Time>2018-09-13T16:55:53.000Z</Time>
            <Position>
              <LatitudeDegrees>38.668103478848934173583984375</LatitudeDegrees>
              <LongitudeDegrees>-8.2048996724188327789306640625</LongitudeDegrees>
            </Position>
            <AltitudeMeters>257.20001220703125</AltitudeMeters>
            <DistanceMeters>165464.43278756</DistanceMeters>
          </Trackpoint>
          <Trackpoint>
            <Time>2018-09-13T16:55:57.000Z</Time>
            <Position>
              <LatitudeDegrees>38.66774951107800006866455078125</LatitudeDegrees>
              <LongitudeDegrees>-8.2048322819173336029052734375</LongitudeDegrees>
            </Position>
            <AltitudeMeters>255.600006103515625</AltitudeMeters>
            <DistanceMeters>165504.26292627</DistanceMeters>
          </Trackpoint>
          <Trackpoint>
            <Time>2018-09-13T16:56:00.000Z</Time>
            <Position>
              <LatitudeDegrees>38.66747542284429073333740234375</LatitudeDegrees>
              <LongitudeDegrees>-8.20478475652635097503662109375</LongitudeDegrees>
            </Position>
            <AltitudeMeters>255.1999969482421875</AltitudeMeters>
            <DistanceMeters>165535.04776869</DistanceMeters>
          </Trackpoint>
          <Trackpoint>
            <Time>2018-09-13T16:56:02.000Z</Time>
            <Position>
              <LatitudeDegrees>38.66729252971708774566650390625</LatitudeDegrees>
              <LongitudeDegrees>-8.20475198328495025634765625</LongitudeDegrees>
            </Position>
            <AltitudeMeters>255.1999969482421875</AltitudeMeters>
            <DistanceMeters>165555.60255443</DistanceMeters>
          </Trackpoint>
          <Trackpoint>
            <Time>2018-09-13T16:56:06.000Z</Time>
            <Position>
              <LatitudeDegrees>38.66692691110074520111083984375</LatitudeDegrees>
              <LongitudeDegrees>-8.204681575298309326171875</LongitudeDegrees>
            </Position>
            <AltitudeMeters>254.600006103515625</AltitudeMeters>
            <DistanceMeters>165596.75405933</DistanceMeters>
          </Trackpoint>
          <Trackpoint>
            <Time>2018-09-13T16:56:09.000Z</Time>
            <Position>
              <LatitudeDegrees>38.6666539125144481658935546875</LatitudeDegrees>
              <LongitudeDegrees>-8.204629607498645782470703125</LongitudeDegrees>
            </Position>
            <AltitudeMeters>253</AltitudeMeters>
            <DistanceMeters>165627.47312586</DistanceMeters>
          </Trackpoint>
          <Trackpoint>
            <Time>2018-09-13T16:56:13.000Z</Time>
            <Position>
              <LatitudeDegrees>38.66628594696521759033203125</LatitudeDegrees>
              <LongitudeDegrees>-8.2045657373964786529541015625</LongitudeDegrees>
            </Position>
            <AltitudeMeters>251</AltitudeMeters>
            <DistanceMeters>165668.8028648</DistanceMeters>
          </Trackpoint>
          <Trackpoint>
            <Time>2018-09-13T16:56:17.000Z</Time>
            <Position>
              <LatitudeDegrees>38.6659149639308452606201171875</LatitudeDegrees>
              <LongitudeDegrees>-8.204502202570438385009765625</LongitudeDegrees>
            </Position>
            <AltitudeMeters>248.8000030517578125</AltitudeMeters>
            <DistanceMeters>165710.46164864</DistanceMeters>
          </Trackpoint>
          <Trackpoint>
            <Time>2018-09-13T16:56:19.000Z</Time>
            <Position>
              <LatitudeDegrees>38.66572796367108821868896484375</LatitudeDegrees>
              <LongitudeDegrees>-8.20449759252369403839111328125</LongitudeDegrees>
            </Position>
            <AltitudeMeters>248.600006103515625</AltitudeMeters>
            <DistanceMeters>165731.27922364</DistanceMeters>
          </Trackpoint>
          <Trackpoint>
            <Time>2018-09-13T16:56:20.000Z</Time>
            <Position>
              <LatitudeDegrees>38.66563375107944011688232421875</LatitudeDegrees>
              <LongitudeDegrees>-8.20451536215841770172119140625</LongitudeDegrees>
            </Position>
            <AltitudeMeters>249</AltitudeMeters>
            <DistanceMeters>165741.87800427</DistanceMeters>
          </Trackpoint>
          <Trackpoint>
            <Time>2018-09-13T16:56:23.000Z</Time>
            <Position>
              <LatitudeDegrees>38.66537307389080524444580078125</LatitudeDegrees>
              <LongitudeDegrees>-8.2046388275921344757080078125</LongitudeDegrees>
            </Position>
            <AltitudeMeters>249.1999969482421875</AltitudeMeters>
            <DistanceMeters>165772.81222854</DistanceMeters>
          </Trackpoint>
          <Trackpoint>
            <Time>2018-09-13T16:56:26.000Z</Time>
            <Position>
              <LatitudeDegrees>38.6651408113539218902587890625</LatitudeDegrees>
              <LongitudeDegrees>-8.204794563353061676025390625</LongitudeDegrees>
            </Position>
            <AltitudeMeters>248.600006103515625</AltitudeMeters>
            <DistanceMeters>165801.99192933</DistanceMeters>
          </Trackpoint>
          <Trackpoint>
            <Time>2018-09-13T16:56:29.000Z</Time>
            <Position>
              <LatitudeDegrees>38.6649208702147006988525390625</LatitudeDegrees>
              <LongitudeDegrees>-8.2049663923680782318115234375</LongitudeDegrees>
            </Position>
            <AltitudeMeters>247</AltitudeMeters>
            <DistanceMeters>165830.66717529</DistanceMeters>
          </Trackpoint>
          <Trackpoint>
            <Time>2018-09-13T16:56:33.000Z</Time>
            <Position>
              <LatitudeDegrees>38.66462037898600101470947265625</LatitudeDegrees>
              <LongitudeDegrees>-8.205185495316982269287109375</LongitudeDegrees>
            </Position>
            <AltitudeMeters>244.8000030517578125</AltitudeMeters>
            <DistanceMeters>165869.15299461</DistanceMeters>
          </Trackpoint>
          <Trackpoint>
            <Time>2018-09-13T16:56:36.000Z</Time>
            <Position>
              <LatitudeDegrees>38.66438535042107105255126953125</LatitudeDegrees>
              <LongitudeDegrees>-8.20533561520278453826904296875</LongitudeDegrees>
            </Position>
            <AltitudeMeters>243.399993896484375</AltitudeMeters>
            <DistanceMeters>165898.38510253</DistanceMeters>
          </Trackpoint>
          <Trackpoint>
            <Time>2018-09-13T16:56:39.000Z</Time>
            <Position>
              <LatitudeDegrees>38.66412685252726078033447265625</LatitudeDegrees>
              <LongitudeDegrees>-8.2054245471954345703125</LongitudeDegrees>
            </Position>
            <AltitudeMeters>242.1999969482421875</AltitudeMeters>
            <DistanceMeters>165928.17654583</DistanceMeters>
          </Trackpoint>
          <Trackpoint>
            <Time>2018-09-13T16:56:40.000Z</Time>
            <Position>
              <LatitudeDegrees>38.664039932191371917724609375</LatitudeDegrees>
              <LongitudeDegrees>-8.2054381258785724639892578125</LongitudeDegrees>
            </Position>
            <AltitudeMeters>242</AltitudeMeters>
            <DistanceMeters>165937.92269245</DistanceMeters>
          </Trackpoint>
          <Trackpoint>
            <Time>2018-09-13T16:56:44.000Z</Time>
            <Position>
              <LatitudeDegrees>38.66370054893195629119873046875</LatitudeDegrees>
              <LongitudeDegrees>-8.20546939037740230560302734375</LongitudeDegrees>
            </Position>
            <AltitudeMeters>240.8000030517578125</AltitudeMeters>
            <DistanceMeters>165975.79450429</DistanceMeters>
          </Trackpoint>
          <Trackpoint>
            <Time>2018-09-13T16:56:49.000Z</Time>
            <Position>
              <LatitudeDegrees>38.6632914282381534576416015625</LatitudeDegrees>
              <LongitudeDegrees>-8.20547760464251041412353515625</LongitudeDegrees>
            </Position>
            <AltitudeMeters>241</AltitudeMeters>
            <DistanceMeters>166021.33600139</DistanceMeters>
          </Trackpoint>
          <Trackpoint>
            <Time>2018-09-13T16:56:56.000Z</Time>
            <Position>
              <LatitudeDegrees>38.66275540553033351898193359375</LatitudeDegrees>
              <LongitudeDegrees>-8.20548984222114086151123046875</LongitudeDegrees>
            </Position>
            <AltitudeMeters>240.8000030517578125</AltitudeMeters>
            <DistanceMeters>166081.00581705</DistanceMeters>
          </Trackpoint>
          <Trackpoint>
            <Time>2018-09-13T16:57:04.000Z</Time>
            <Position>
              <LatitudeDegrees>38.6621903814375400543212890625</LatitudeDegrees>
              <LongitudeDegrees>-8.2055092044174671173095703125</LongitudeDegrees>
            </Position>
            <AltitudeMeters>242.1999969482421875</AltitudeMeters>
            <DistanceMeters>166143.9165881</DistanceMeters>
          </Trackpoint>
          <Trackpoint>
            <Time>2018-09-13T16:57:08.000Z</Time>
            <Position>
              <LatitudeDegrees>38.66194470785558223724365234375</LatitudeDegrees>
              <LongitudeDegrees>-8.20555069483816623687744140625</LongitudeDegrees>
            </Position>
            <AltitudeMeters>242.8000030517578125</AltitudeMeters>
            <DistanceMeters>166171.49726321</DistanceMeters>
          </Trackpoint>
          <Trackpoint>
            <Time>2018-09-13T16:57:10.000Z</Time>
            <Position>
              <LatitudeDegrees>38.66182786412537097930908203125</LatitudeDegrees>
              <LongitudeDegrees>-8.20560165680944919586181640625</LongitudeDegrees>
            </Position>
            <AltitudeMeters>242.8000030517578125</AltitudeMeters>
            <DistanceMeters>166185.23577324</DistanceMeters>
          </Trackpoint>
          <Trackpoint>
            <Time>2018-09-13T16:57:16.000Z</Time>
            <Position>
              <LatitudeDegrees>38.6615121178328990936279296875</LatitudeDegrees>
              <LongitudeDegrees>-8.2058676145970821380615234375</LongitudeDegrees>
            </Position>
            <AltitudeMeters>242.1999969482421875</AltitudeMeters>
            <DistanceMeters>166227.29902393</DistanceMeters>
          </Trackpoint>
          <Trackpoint>
            <Time>2018-09-13T16:57:24.000Z</Time>
            <Position>
              <LatitudeDegrees>38.6611014045774936676025390625</LatitudeDegrees>
              <LongitudeDegrees>-8.2063222490251064300537109375</LongitudeDegrees>
            </Position>
            <AltitudeMeters>241.600006103515625</AltitudeMeters>
            <DistanceMeters>166287.72204253</DistanceMeters>
          </Trackpoint>
          <Trackpoint>
            <Time>2018-09-13T16:57:32.000Z</Time>
            <Position>
              <LatitudeDegrees>38.6606802977621555328369140625</LatitudeDegrees>
              <LongitudeDegrees>-8.2067812420427799224853515625</LongitudeDegrees>
            </Position>
            <AltitudeMeters>244.399993896484375</AltitudeMeters>
            <DistanceMeters>166349.2698705</DistanceMeters>
          </Trackpoint>
          <Trackpoint>
            <Time>2018-09-13T16:57:38.000Z</Time>
            <Position>
              <LatitudeDegrees>38.660371005535125732421875</LatitudeDegrees>
              <LongitudeDegrees>-8.2071205414831638336181640625</LongitudeDegrees>
            </Position>
            <AltitudeMeters>244.8000030517578125</AltitudeMeters>
            <DistanceMeters>166394.59841012</DistanceMeters>
          </Trackpoint>
          <Trackpoint>
            <Time>2018-09-13T16:57:47.000Z</Time>
            <Position>
              <LatitudeDegrees>38.65994025953114032745361328125</LatitudeDegrees>
              <LongitudeDegrees>-8.2076073624193668365478515625</LongitudeDegrees>
            </Position>
            <AltitudeMeters>244</AltitudeMeters>
            <DistanceMeters>166458.54129239</DistanceMeters>
          </Trackpoint>
          <Trackpoint>
            <Time>2018-09-13T16:57:57.000Z</Time>
            <Position>
              <LatitudeDegrees>38.65941010415554046630859375</LatitudeDegrees>
              <LongitudeDegrees>-8.20786694996058940887451171875</LongitudeDegrees>
            </Position>
            <AltitudeMeters>245.600006103515625</AltitudeMeters>
            <DistanceMeters>166521.71469189</DistanceMeters>
          </Trackpoint>
          <Trackpoint>
            <Time>2018-09-13T16:58:04.000Z</Time>
            <Position>
              <LatitudeDegrees>38.65908899344503879547119140625</LatitudeDegrees>
              <LongitudeDegrees>-8.2079275511205196380615234375</LongitudeDegrees>
            </Position>
            <AltitudeMeters>247.600006103515625</AltitudeMeters>
            <DistanceMeters>166557.84084431</DistanceMeters>
          </Trackpoint>
          <Trackpoint>
            <Time>2018-09-13T16:58:08.000Z</Time>
            <Position>
              <LatitudeDegrees>38.65891649387776851654052734375</LatitudeDegrees>
              <LongitudeDegrees>-8.2079543732106685638427734375</LongitudeDegrees>
            </Position>
            <AltitudeMeters>248.1999969482421875</AltitudeMeters>
            <DistanceMeters>166577.18129044</DistanceMeters>
          </Trackpoint>
          <Trackpoint>
            <Time>2018-09-13T16:58:10.000Z</Time>
            <Position>
              <LatitudeDegrees>38.65883250720798969268798828125</LatitudeDegrees>
              <LongitudeDegrees>-8.2079684548079967498779296875</LongitudeDegrees>
            </Position>
            <AltitudeMeters>248.399993896484375</AltitudeMeters>
            <DistanceMeters>166586.60859187</DistanceMeters>
          </Trackpoint>
          <Trackpoint>
            <Time>2018-09-13T16:58:17.000Z</Time>
            <Position>
              <LatitudeDegrees>38.65855850279331207275390625</LatitudeDegrees>
              <LongitudeDegrees>-8.20800307206809520721435546875</LongitudeDegrees>
            </Position>
            <AltitudeMeters>248.8000030517578125</AltitudeMeters>
            <DistanceMeters>166617.25378644</DistanceMeters>
          </Trackpoint>
          <Trackpoint>
            <Time>2018-09-13T16:58:21.000Z</Time>
            <Position>
              <LatitudeDegrees>38.65841207094490528106689453125</LatitudeDegrees>
              <LongitudeDegrees>-8.2080308161675930023193359375</LongitudeDegrees>
            </Position>
            <AltitudeMeters>249.1999969482421875</AltitudeMeters>
            <DistanceMeters>166633.72934707</DistanceMeters>
          </Trackpoint>
          <Trackpoint>
            <Time>2018-09-13T16:58:26.000Z</Time>
            <Position>
              <LatitudeDegrees>38.65822934545576572418212890625</LatitudeDegrees>
              <LongitudeDegrees>-8.20806224830448627471923828125</LongitudeDegrees>
            </Position>
            <AltitudeMeters>249.8000030517578125</AltitudeMeters>
            <DistanceMeters>166654.2496174</DistanceMeters>
          </Trackpoint>
          <Trackpoint>
            <Time>2018-09-13T16:58:30.000Z</Time>
            <Position>
              <LatitudeDegrees>38.6580909602344036102294921875</LatitudeDegrees>
              <LongitudeDegrees>-8.20808328688144683837890625</LongitudeDegrees>
            </Position>
            <AltitudeMeters>250.1999969482421875</AltitudeMeters>
            <DistanceMeters>166669.76023624</DistanceMeters>
          </Trackpoint>
          <Trackpoint>
            <Time>2018-09-13T16:58:38.000Z</Time>
            <Position>
              <LatitudeDegrees>38.65782114677131175994873046875</LatitudeDegrees>
              <LongitudeDegrees>-8.20813366211950778961181640625</LongitudeDegrees>
            </Position>
            <AltitudeMeters>251.1999969482421875</AltitudeMeters>
            <DistanceMeters>166700.10844239</DistanceMeters>
          </Trackpoint>
          <Trackpoint>
            <Time>2018-09-13T16:58:47.000Z</Time>
            <Position>
              <LatitudeDegrees>38.6575265228748321533203125</LatitudeDegrees>
              <LongitudeDegrees>-8.2081857137382030487060546875</LongitudeDegrees>
            </Position>
            <AltitudeMeters>252.600006103515625</AltitudeMeters>
            <DistanceMeters>166733.21130898</DistanceMeters>
          </Trackpoint>
          <Trackpoint>
            <Time>2018-09-13T16:58:52.000Z</Time>
            <Position>
              <LatitudeDegrees>38.657360561192035675048828125</LatitudeDegrees>
              <LongitudeDegrees>-8.20821815170347690582275390625</LongitudeDegrees>
            </Position>
            <AltitudeMeters>253.399993896484375</AltitudeMeters>
            <DistanceMeters>166751.89753375</DistanceMeters>
          </Trackpoint>
          <Trackpoint>
            <Time>2018-09-13T16:58:58.000Z</Time>
            <Position>
              <LatitudeDegrees>38.65715947933495044708251953125</LatitudeDegrees>
              <LongitudeDegrees>-8.2082765735685825347900390625</LongitudeDegrees>
            </Position>
            <AltitudeMeters>254.8000030517578125</AltitudeMeters>
            <DistanceMeters>166774.8470263</DistanceMeters>
          </Trackpoint>
          <Trackpoint>
            <Time>2018-09-13T16:59:06.000Z</Time>
            <Position>
              <LatitudeDegrees>38.65690894424915313720703125</LatitudeDegrees>
              <LongitudeDegrees>-8.208406828343868255615234375</LongitudeDegrees>
            </Position>
            <AltitudeMeters>256.600006103515625</AltitudeMeters>
            <DistanceMeters>166804.94275337</DistanceMeters>
          </Trackpoint>
          <Trackpoint>
            <Time>2018-09-13T16:59:12.000Z</Time>
            <Position>
              <LatitudeDegrees>38.65672345273196697235107421875</LatitudeDegrees>
              <LongitudeDegrees>-8.20852895267307758331298828125</LongitudeDegrees>
            </Position>
            <AltitudeMeters>256.79998779296875</AltitudeMeters>
            <DistanceMeters>166828.15729541</DistanceMeters>
          </Trackpoint>
          <Trackpoint>
            <Time>2018-09-13T16:59:18.000Z</Time>
            <Position>
              <LatitudeDegrees>38.6565158329904079437255859375</LatitudeDegrees>
              <LongitudeDegrees>-8.2086608000099658966064453125</LongitudeDegrees>
            </Position>
            <AltitudeMeters>256.600006103515625</AltitudeMeters>
            <DistanceMeters>166853.95122885</DistanceMeters>
          </Trackpoint>
          <Trackpoint>
            <Time>2018-09-13T16:59:22.000Z</Time>
            <Position>
              <LatitudeDegrees>38.65635666064918041229248046875</LatitudeDegrees>
              <LongitudeDegrees>-8.2087587006390094757080078125</LongitudeDegrees>
            </Position>
            <AltitudeMeters>256.399993896484375</AltitudeMeters>
            <DistanceMeters>166873.60476593</DistanceMeters>
          </Trackpoint>
          <Trackpoint>
            <Time>2018-09-13T16:59:33.000Z</Time>
            <Position>
              <LatitudeDegrees>38.65583312697708606719970703125</LatitudeDegrees>
              <LongitudeDegrees>-8.20898157544434070587158203125</LongitudeDegrees>
            </Position>
            <AltitudeMeters>256</AltitudeMeters>
            <DistanceMeters>166935.0107023</DistanceMeters>
          </Trackpoint>
          <Trackpoint>
            <Time>2018-09-13T16:59:38.000Z</Time>
            <Position>
              <LatitudeDegrees>38.65557462908327579498291015625</LatitudeDegrees>
              <LongitudeDegrees>-8.20902080275118350982666015625</LongitudeDegrees>
            </Position>
            <AltitudeMeters>256.20001220703125</AltitudeMeters>
            <DistanceMeters>166963.98341094</DistanceMeters>
          </Trackpoint>
          <Trackpoint>
            <Time>2018-09-13T16:59:41.000Z</Time>
            <Position>
              <LatitudeDegrees>38.6554127745330333709716796875</LatitudeDegrees>
              <LongitudeDegrees>-8.2090279273688793182373046875</LongitudeDegrees>
            </Position>
            <AltitudeMeters>256.20001220703125</AltitudeMeters>
            <DistanceMeters>166982.00895422</DistanceMeters>
          </Trackpoint>
          <Trackpoint>
            <Time>2018-09-13T16:59:46.000Z</Time>
            <Position>
              <LatitudeDegrees>38.65515218116343021392822265625</LatitudeDegrees>
              <LongitudeDegrees>-8.20900638587772846221923828125</LongitudeDegrees>
            </Position>
            <AltitudeMeters>256</AltitudeMeters>
            <DistanceMeters>167011.07377233</DistanceMeters>
          </Trackpoint>
          <Trackpoint>
            <Time>2018-09-13T16:59:50.000Z</Time>
            <Position>
              <LatitudeDegrees>38.6549516022205352783203125</LatitudeDegrees>
              <LongitudeDegrees>-8.2089568488299846649169921875</LongitudeDegrees>
            </Position>
            <AltitudeMeters>255.600006103515625</AltitudeMeters>
            <DistanceMeters>167033.80999356</DistanceMeters>
          </Trackpoint>
          <Trackpoint>
            <Time>2018-09-13T16:59:56.000Z</Time>
            <Position>
              <LatitudeDegrees>38.65465446375310420989990234375</LatitudeDegrees>
              <LongitudeDegrees>-8.20886942557990550994873046875</LongitudeDegrees>
            </Position>
            <AltitudeMeters>255</AltitudeMeters>
            <DistanceMeters>167067.74384566</DistanceMeters>
          </Trackpoint>
          <Trackpoint>
            <Time>2018-09-13T16:59:59.000Z</Time>
            <Position>
              <LatitudeDegrees>38.65448984317481517791748046875</LatitudeDegrees>
              <LongitudeDegrees>-8.20881930179893970489501953125</LongitudeDegrees>
            </Position>
            <AltitudeMeters>254.600006103515625</AltitudeMeters>
            <DistanceMeters>167086.57736372</DistanceMeters>
          </Trackpoint>
          <Trackpoint>
            <Time>2018-09-13T17:00:03.000Z</Time>
            <Position>
              <LatitudeDegrees>38.65424106828868389129638671875</LatitudeDegrees>
              <LongitudeDegrees>-8.2087704353034496307373046875</LongitudeDegrees>
            </Position>
            <AltitudeMeters>253.600006103515625</AltitudeMeters>
            <DistanceMeters>167114.5904268</DistanceMeters>
          </Trackpoint>
          <Trackpoint>
            <Time>2018-09-13T17:00:04.000Z</Time>
            <Position>
              <LatitudeDegrees>38.6541735939681529998779296875</LatitudeDegrees>
              <LongitudeDegrees>-8.20877186022698879241943359375</LongitudeDegrees>
            </Position>
            <AltitudeMeters>253.399993896484375</AltitudeMeters>
            <DistanceMeters>167122.1017461</DistanceMeters>
          </Trackpoint>
          <Trackpoint>
            <Time>2018-09-13T17:00:06.000Z</Time>
            <Position>
              <LatitudeDegrees>38.65403302945196628570556640625</LatitudeDegrees>
              <LongitudeDegrees>-8.20880371145904064178466796875</LongitudeDegrees>
            </Position>
            <AltitudeMeters>252.600006103515625</AltitudeMeters>
            <DistanceMeters>167137.98997404</DistanceMeters>
          </Trackpoint>
          <Trackpoint>
            <Time>2018-09-13T17:00:09.000Z</Time>
            <Position>
              <LatitudeDegrees>38.65383622236549854278564453125</LatitudeDegrees>
              <LongitudeDegrees>-8.20894352160394191741943359375</LongitudeDegrees>
            </Position>
            <AltitudeMeters>251.399993896484375</AltitudeMeters>
            <DistanceMeters>167163.04010462</DistanceMeters>
          </Trackpoint>
          <Trackpoint>
            <Time>2018-09-13T17:00:12.000Z</Time>
            <Position>
              <LatitudeDegrees>38.65368601866066455841064453125</LatitudeDegrees>
              <LongitudeDegrees>-8.2091434299945831298828125</LongitudeDegrees>
            </Position>
            <AltitudeMeters>250.1999969482421875</AltitudeMeters>
            <DistanceMeters>167187.1527472</DistanceMeters>
          </Trackpoint>
          <Trackpoint>
            <Time>2018-09-13T17:00:13.000Z</Time>
            <Position>
              <LatitudeDegrees>38.65364276804029941558837890625</LatitudeDegrees>
              <LongitudeDegrees>-8.209212161600589752197265625</LongitudeDegrees>
            </Position>
            <AltitudeMeters>249.8000030517578125</AltitudeMeters>
            <DistanceMeters>167194.8258234</DistanceMeters>
          </Trackpoint>
          <Trackpoint>
            <Time>2018-09-13T17:00:15.000Z</Time>
            <Position>
              <LatitudeDegrees>38.65355710498988628387451171875</LatitudeDegrees>
              <LongitudeDegrees>-8.20934124290943145751953125</LongitudeDegrees>
            </Position>
            <AltitudeMeters>249</AltitudeMeters>
            <DistanceMeters>167209.54944541</DistanceMeters>
          </Trackpoint>
          <Trackpoint>
            <Time>2018-09-13T17:00:16.000Z</Time>
            <Position>
              <LatitudeDegrees>38.65351318381726741790771484375</LatitudeDegrees>
              <LongitudeDegrees>-8.209403268992900848388671875</LongitudeDegrees>
            </Position>
            <AltitudeMeters>248.8000030517578125</AltitudeMeters>
            <DistanceMeters>167216.82690365</DistanceMeters>
          </Trackpoint>
          <Trackpoint>
            <Time>2018-09-13T17:00:19.000Z</Time>
            <Position>
              <LatitudeDegrees>38.65337505005300045013427734375</LatitudeDegrees>
              <LongitudeDegrees>-8.20959630422294139862060546875</LongitudeDegrees>
            </Position>
            <AltitudeMeters>248.1999969482421875</AltitudeMeters>
            <DistanceMeters>167239.5843634</DistanceMeters>
          </Trackpoint>
          <Trackpoint>
            <Time>2018-09-13T17:00:21.000Z</Time>
            <Position>
              <LatitudeDegrees>38.6532763950526714324951171875</LatitudeDegrees>
              <LongitudeDegrees>-8.20973393507301807403564453125</LongitudeDegrees>
            </Position>
            <AltitudeMeters>247.8000030517578125</AltitudeMeters>
            <DistanceMeters>167255.82281352</DistanceMeters>
          </Trackpoint>
          <Trackpoint>
            <Time>2018-09-13T17:00:24.000Z</Time>
            <Position>
              <LatitudeDegrees>38.65312208421528339385986328125</LatitudeDegrees>
              <LongitudeDegrees>-8.2099536247551441192626953125</LongitudeDegrees>
            </Position>
            <AltitudeMeters>247.1999969482421875</AltitudeMeters>
            <DistanceMeters>167281.50605755</DistanceMeters>
          </Trackpoint>
          <Trackpoint>
            <Time>2018-09-13T17:00:26.000Z</Time>
            <Position>
              <LatitudeDegrees>38.65301747806370258331298828125</LatitudeDegrees>
              <LongitudeDegrees>-8.2101034931838512420654296875</LongitudeDegrees>
            </Position>
            <AltitudeMeters>246.8000030517578125</AltitudeMeters>
            <DistanceMeters>167298.97754015</DistanceMeters>
          </Trackpoint>
          <Trackpoint>
            <Time>2018-09-13T17:00:30.000Z</Time>
            <Position>
              <LatitudeDegrees>38.65280977450311183929443359375</LatitudeDegrees>
              <LongitudeDegrees>-8.2104119472205638885498046875</LongitudeDegrees>
            </Position>
            <AltitudeMeters>244.8000030517578125</AltitudeMeters>
            <DistanceMeters>167334.37904081</DistanceMeters>
          </Trackpoint>
          <Trackpoint>
            <Time>2018-09-13T17:00:32.000Z</Time>
            <Position>
              <LatitudeDegrees>38.6527044139802455902099609375</LatitudeDegrees>
              <LongitudeDegrees>-8.2105757296085357666015625</LongitudeDegrees>
            </Position>
            <AltitudeMeters>243.8000030517578125</AltitudeMeters>
            <DistanceMeters>167352.82303821</DistanceMeters>
          </Trackpoint>
          <Trackpoint>
            <Time>2018-09-13T17:00:34.000Z</Time>
            <Position>
              <LatitudeDegrees>38.65259586833417415618896484375</LatitudeDegrees>
              <LongitudeDegrees>-8.21074672043323516845703125</LongitudeDegrees>
            </Position>
            <AltitudeMeters>243</AltitudeMeters>
            <DistanceMeters>167371.97652054</DistanceMeters>
          </Trackpoint>
          <Trackpoint>
            <Time>2018-09-13T17:00:36.000Z</Time>
            <Position>
              <LatitudeDegrees>38.6524774320423603057861328125</LatitudeDegrees>
              <LongitudeDegrees>-8.21092349477112293243408203125</LongitudeDegrees>
            </Position>
            <AltitudeMeters>242.399993896484375</AltitudeMeters>
            <DistanceMeters>167392.22167156</DistanceMeters>
          </Trackpoint>
          <Trackpoint>
            <Time>2018-09-13T17:00:37.000Z</Time>
            <Position>
              <LatitudeDegrees>38.6524147354066371917724609375</LatitudeDegrees>
              <LongitudeDegrees>-8.2110137678682804107666015625</LongitudeDegrees>
            </Position>
            <AltitudeMeters>242.1999969482421875</AltitudeMeters>
            <DistanceMeters>167402.72287594</DistanceMeters>
          </Trackpoint>
          <Trackpoint>
            <Time>2018-09-13T17:00:42.000Z</Time>
            <Position>
              <LatitudeDegrees>38.6520962230861186981201171875</LatitudeDegrees>
              <LongitudeDegrees>-8.21147033013403415679931640625</LongitudeDegrees>
            </Position>
            <AltitudeMeters>241.399993896484375</AltitudeMeters>
            <DistanceMeters>167455.9363936</DistanceMeters>
          </Trackpoint>
          <Trackpoint>
            <Time>2018-09-13T17:00:45.000Z</Time>
            <Position>
              <LatitudeDegrees>38.6519165150821208953857421875</LatitudeDegrees>
              <LongitudeDegrees>-8.21171231567859649658203125</LongitudeDegrees>
            </Position>
            <AltitudeMeters>241.1999969482421875</AltitudeMeters>
            <DistanceMeters>167484.96203868</DistanceMeters>
          </Trackpoint>
          <Trackpoint>
            <Time>2018-09-13T17:00:48.000Z</Time>
            <Position>
              <LatitudeDegrees>38.65176421590149402618408203125</LatitudeDegrees>
              <LongitudeDegrees>-8.2119237072765827178955078125</LongitudeDegrees>
            </Position>
            <AltitudeMeters>241.1999969482421875</AltitudeMeters>
            <DistanceMeters>167509.96147049</DistanceMeters>
          </Trackpoint>
          <Trackpoint>
            <Time>2018-09-13T17:00:52.000Z</Time>
            <Position>
              <LatitudeDegrees>38.6515973322093486785888671875</LatitudeDegrees>
              <LongitudeDegrees>-8.2121822051703929901123046875</LongitudeDegrees>
            </Position>
            <AltitudeMeters>241.8000030517578125</AltitudeMeters>
            <DistanceMeters>167539.11408057</DistanceMeters>
          </Trackpoint>
          <Trackpoint>
            <Time>2018-09-13T17:00:55.000Z</Time>
            <Position>
              <LatitudeDegrees>38.65148040466010570526123046875</LatitudeDegrees>
              <LongitudeDegrees>-8.21235562674701213836669921875</LongitudeDegrees>
            </Position>
            <AltitudeMeters>242.1999969482421875</AltitudeMeters>
            <DistanceMeters>167559.02892321</DistanceMeters>
          </Trackpoint>
          <Trackpoint>
            <Time>2018-09-13T17:00:58.000Z</Time>
            <Position>
              <LatitudeDegrees>38.65137076936662197113037109375</LatitudeDegrees>
              <LongitudeDegrees>-8.21251655928790569305419921875</LongitudeDegrees>
            </Position>
            <AltitudeMeters>242.399993896484375</AltitudeMeters>
            <DistanceMeters>167577.59199723</DistanceMeters>
          </Trackpoint>
          <Trackpoint>
            <Time>2018-09-13T17:01:04.000Z</Time>
            <Position>
              <LatitudeDegrees>38.6511589586734771728515625</LatitudeDegrees>
              <LongitudeDegrees>-8.21280774660408496856689453125</LongitudeDegrees>
            </Position>
            <AltitudeMeters>243.1999969482421875</AltitudeMeters>
            <DistanceMeters>167612.18119913</DistanceMeters>
          </Trackpoint>
          <Trackpoint>
            <Time>2018-09-13T17:01:20.000Z</Time>
            <Position>
              <LatitudeDegrees>38.65080012939870357513427734375</LatitudeDegrees>
              <LongitudeDegrees>-8.213189542293548583984375</LongitudeDegrees>
            </Position>
            <AltitudeMeters>243.600006103515625</AltitudeMeters>
            <DistanceMeters>167664.10849481</DistanceMeters>
          </Trackpoint>
          <Trackpoint>
            <Time>2018-09-13T17:04:22.000Z</Time>
            <Position>
              <LatitudeDegrees>38.650765009224414825439453125</LatitudeDegrees>
              <LongitudeDegrees>-8.2132202200591564178466796875</LongitudeDegrees>
            </Position>
            <AltitudeMeters>243.600006103515625</AltitudeMeters>
            <DistanceMeters>167668.83983284</DistanceMeters>
          </Trackpoint>
          <Trackpoint>
            <Time>2018-09-13T17:04:29.000Z</Time>
            <Position>
              <LatitudeDegrees>38.6506089381873607635498046875</LatitudeDegrees>
              <LongitudeDegrees>-8.213320635259151458740234375</LongitudeDegrees>
            </Position>
            <AltitudeMeters>243.600006103515625</AltitudeMeters>
            <DistanceMeters>167688.28017129</DistanceMeters>
          </Trackpoint>
          <Trackpoint>
            <Time>2018-09-13T17:04:31.000Z</Time>
            <Position>
              <LatitudeDegrees>38.650543391704559326171875</LatitudeDegrees>
              <LongitudeDegrees>-8.21335659362375736236572265625</LongitudeDegrees>
            </Position>
            <AltitudeMeters>243.600006103515625</AltitudeMeters>
            <DistanceMeters>167696.2164666</DistanceMeters>
          </Trackpoint>
          <Trackpoint>
            <Time>2018-09-13T17:04:41.000Z</Time>
            <Position>
              <LatitudeDegrees>38.65021708421409130096435546875</LatitudeDegrees>
              <LongitudeDegrees>-8.21354694664478302001953125</LongitudeDegrees>
            </Position>
            <AltitudeMeters>243.8000030517578125</AltitudeMeters>
            <DistanceMeters>167736.12655535</DistanceMeters>
          </Trackpoint>
          <Trackpoint>
            <Time>2018-09-13T17:04:47.000Z</Time>
            <Position>
              <LatitudeDegrees>38.649970404803752899169921875</LatitudeDegrees>
              <LongitudeDegrees>-8.213683068752288818359375</LongitudeDegrees>
            </Position>
            <AltitudeMeters>244.1999969482421875</AltitudeMeters>
            <DistanceMeters>167766.02344577</DistanceMeters>
          </Trackpoint>
          <Trackpoint>
            <Time>2018-09-13T17:04:59.000Z</Time>
            <Position>
              <LatitudeDegrees>38.64945131354033946990966796875</LatitudeDegrees>
              <LongitudeDegrees>-8.21395388804376125335693359375</LongitudeDegrees>
            </Position>
            <AltitudeMeters>245.1999969482421875</AltitudeMeters>
            <DistanceMeters>167828.4112158</DistanceMeters>
          </Trackpoint>
          <Trackpoint>
            <Time>2018-09-13T17:05:09.000Z</Time>
            <Position>
              <LatitudeDegrees>38.64910497330129146575927734375</LatitudeDegrees>
              <LongitudeDegrees>-8.2140946201980113983154296875</LongitudeDegrees>
            </Position>
            <AltitudeMeters>245.8000030517578125</AltitudeMeters>
            <DistanceMeters>167868.85398705</DistanceMeters>
          </Trackpoint>
          <Trackpoint>
            <Time>2018-09-13T17:05:12.000Z</Time>
            <Position>
              <LatitudeDegrees>38.6490512453019618988037109375</LatitudeDegrees>
              <LongitudeDegrees>-8.21411649696528911590576171875</LongitudeDegrees>
            </Position>
            <AltitudeMeters>246</AltitudeMeters>
            <DistanceMeters>167875.12862914</DistanceMeters>
          </Trackpoint>
          <Trackpoint>
            <Time>2018-09-13T17:05:17.000Z</Time>
            <Position>
              <LatitudeDegrees>38.64897228777408599853515625</LatitudeDegrees>
              <LongitudeDegrees>-8.21415086276829242706298828125</LongitudeDegrees>
            </Position>
            <AltitudeMeters>246</AltitudeMeters>
            <DistanceMeters>167884.41016615</DistanceMeters>
          </Trackpoint>
          <Trackpoint>
            <Time>2018-09-13T17:05:20.000Z</Time>
            <Position>
              <LatitudeDegrees>38.648955523967742919921875</LatitudeDegrees>
              <LongitudeDegrees>-8.21415983140468597412109375</LongitudeDegrees>
            </Position>
            <AltitudeMeters>246.1999969482421875</AltitudeMeters>
            <DistanceMeters>167886.43046181</DistanceMeters>
          </Trackpoint>
          <Trackpoint>
            <Time>2018-09-13T17:05:38.000Z</Time>
            <Position>
              <LatitudeDegrees>38.6489121057093143463134765625</LatitudeDegrees>
              <LongitudeDegrees>-8.21417592465877532958984375</LongitudeDegrees>
            </Position>
            <AltitudeMeters>246.1999969482421875</AltitudeMeters>
            <DistanceMeters>167891.46149592</DistanceMeters>
          </Trackpoint>
          <Trackpoint>
            <Time>2018-09-13T17:05:39.000Z</Time>
            <Position>
              <LatitudeDegrees>38.6488916538655757904052734375</LatitudeDegrees>
              <LongitudeDegrees>-8.2141935266554355621337890625</LongitudeDegrees>
            </Position>
            <AltitudeMeters>246.1999969482421875</AltitudeMeters>
            <DistanceMeters>167894.20248545</DistanceMeters>
          </Trackpoint>
          <Trackpoint>
            <Time>2018-09-13T17:05:43.000Z</Time>
            <Position>
              <LatitudeDegrees>38.648892156779766082763671875</LatitudeDegrees>
              <LongitudeDegrees>-8.21434414945542812347412109375</LongitudeDegrees>
            </Position>
            <AltitudeMeters>245.8000030517578125</AltitudeMeters>
            <DistanceMeters>167907.29549776</DistanceMeters>
          </Trackpoint>
          <Trackpoint>
            <Time>2018-09-13T17:05:48.000Z</Time>
            <Position>
              <LatitudeDegrees>38.648965246975421905517578125</LatitudeDegrees>
              <LongitudeDegrees>-8.21465260349214076995849609375</LongitudeDegrees>
            </Position>
            <AltitudeMeters>243.8000030517578125</AltitudeMeters>
            <DistanceMeters>167935.31500714</DistanceMeters>
          </Trackpoint>
          <Trackpoint>
            <Time>2018-09-13T17:05:51.000Z</Time>
            <Position>
              <LatitudeDegrees>38.649028949439525604248046875</LatitudeDegrees>
              <LongitudeDegrees>-8.21490950882434844970703125</LongitudeDegrees>
            </Position>
            <AltitudeMeters>243.1999969482421875</AltitudeMeters>
            <DistanceMeters>167958.7448259</DistanceMeters>
          </Trackpoint>
          <Trackpoint>
            <Time>2018-09-13T17:05:53.000Z</Time>
            <Position>
              <LatitudeDegrees>38.64907630719244480133056640625</LatitudeDegrees>
              <LongitudeDegrees>-8.2151014544069766998291015625</LongitudeDegrees>
            </Position>
            <AltitudeMeters>242.8000030517578125</AltitudeMeters>
            <DistanceMeters>167976.24264782</DistanceMeters>
          </Trackpoint>
          <Trackpoint>
            <Time>2018-09-13T17:05:56.000Z</Time>
            <Position>
              <LatitudeDegrees>38.64914487116038799285888671875</LatitudeDegrees>
              <LongitudeDegrees>-8.21538518182933330535888671875</LongitudeDegrees>
            </Position>
            <AltitudeMeters>241</AltitudeMeters>
            <DistanceMeters>168002.05950166</DistanceMeters>
          </Trackpoint>
          <Trackpoint>
            <Time>2018-09-13T17:05:58.000Z</Time>
            <Position>
              <LatitudeDegrees>38.64918393082916736602783203125</LatitudeDegrees>
              <LongitudeDegrees>-8.2155259139835834503173828125</LongitudeDegrees>
            </Position>
            <AltitudeMeters>240.399993896484375</AltitudeMeters>
            <DistanceMeters>168015.04239067</DistanceMeters>
          </Trackpoint>
          <Trackpoint>
            <Time>2018-09-13T17:06:01.000Z</Time>
            <Position>
              <LatitudeDegrees>38.64922315813601016998291015625</LatitudeDegrees>
              <LongitudeDegrees>-8.215678967535495758056640625</LongitudeDegrees>
            </Position>
            <AltitudeMeters>239.8000030517578125</AltitudeMeters>
            <DistanceMeters>168029.04489222</DistanceMeters>
          </Trackpoint>
          <Trackpoint>
            <Time>2018-09-13T17:06:03.000Z</Time>
            <Position>
              <LatitudeDegrees>38.649249561131000518798828125</LatitudeDegrees>
              <LongitudeDegrees>-8.21576907299458980560302734375</LongitudeDegrees>
            </Position>
            <AltitudeMeters>239.399993896484375</AltitudeMeters>
            <DistanceMeters>168037.40994228</DistanceMeters>
          </Trackpoint>
          <Trackpoint>
            <Time>2018-09-13T17:06:12.000Z</Time>
            <Position>
              <LatitudeDegrees>38.64931468851864337921142578125</LatitudeDegrees>
              <LongitudeDegrees>-8.2159902714192867279052734375</LongitudeDegrees>
            </Position>
            <AltitudeMeters>238.600006103515625</AltitudeMeters>
            <DistanceMeters>168057.95835692</DistanceMeters>
          </Trackpoint>
          <Trackpoint>
            <Time>2018-09-13T17:06:20.000Z</Time>
            <Position>
              <LatitudeDegrees>38.64940973930060863494873046875</LatitudeDegrees>
              <LongitudeDegrees>-8.21642671711742877960205078125</LongitudeDegrees>
            </Position>
            <AltitudeMeters>236.1999969482421875</AltitudeMeters>
            <DistanceMeters>168097.34380629</DistanceMeters>
          </Trackpoint>
          <Trackpoint>
            <Time>2018-09-13T17:06:25.000Z</Time>
            <Position>
              <LatitudeDegrees>38.64950043149292469024658203125</LatitudeDegrees>
              <LongitudeDegrees>-8.21685503236949443817138671875</LongitudeDegrees>
            </Position>
            <AltitudeMeters>234</AltitudeMeters>
            <DistanceMeters>168135.91915161</DistanceMeters>
          </Trackpoint>
          <Trackpoint>
            <Time>2018-09-13T17:06:29.000Z</Time>
            <Position>
              <LatitudeDegrees>38.64959564991295337677001953125</LatitudeDegrees>
              <LongitudeDegrees>-8.21724194101989269256591796875</LongitudeDegrees>
            </Position>
            <AltitudeMeters>233.8000030517578125</AltitudeMeters>
            <DistanceMeters>168171.18136179</DistanceMeters>
          </Trackpoint>
          <Trackpoint>
            <Time>2018-09-13T17:06:32.000Z</Time>
            <Position>
              <LatitudeDegrees>38.64966505207121372222900390625</LatitudeDegrees>
              <LongitudeDegrees>-8.21753597818315029144287109375</LongitudeDegrees>
            </Position>
            <AltitudeMeters>233</AltitudeMeters>
            <DistanceMeters>168197.88200851</DistanceMeters>
          </Trackpoint>
          <Trackpoint>
            <Time>2018-09-13T17:06:35.000Z</Time>
            <Position>
              <LatitudeDegrees>38.64972339011728763580322265625</LatitudeDegrees>
              <LongitudeDegrees>-8.217775784432888031005859375</LongitudeDegrees>
            </Position>
            <AltitudeMeters>231.399993896484375</AltitudeMeters>
            <DistanceMeters>168219.71479681</DistanceMeters>
          </Trackpoint>
          <Trackpoint>
            <Time>2018-09-13T17:06:37.000Z</Time>
            <Position>
              <LatitudeDegrees>38.6497516371309757232666015625</LatitudeDegrees>
              <LongitudeDegrees>-8.21789489127695560455322265625</LongitudeDegrees>
            </Position>
            <AltitudeMeters>230.600006103515625</AltitudeMeters>
            <DistanceMeters>168230.53491424</DistanceMeters>
          </Trackpoint>
          <Trackpoint>
            <Time>2018-09-13T17:06:40.000Z</Time>
            <Position>
              <LatitudeDegrees>38.6497955583035945892333984375</LatitudeDegrees>
              <LongitudeDegrees>-8.21806906722486019134521484375</LongitudeDegrees>
            </Position>
            <AltitudeMeters>229.399993896484375</AltitudeMeters>
            <DistanceMeters>168246.44500861</DistanceMeters>
          </Trackpoint>
          <Trackpoint>
            <Time>2018-09-13T17:06:45.000Z</Time>
            <Position>
              <LatitudeDegrees>38.64988180808722972869873046875</LatitudeDegrees>
              <LongitudeDegrees>-8.21848028339445590972900390625</LongitudeDegrees>
            </Position>
            <AltitudeMeters>228</AltitudeMeters>
            <DistanceMeters>168283.4564195</DistanceMeters>
          </Trackpoint>
          <Trackpoint>
            <Time>2018-09-13T17:06:46.000Z</Time>
            <Position>
              <LatitudeDegrees>38.64990569651126861572265625</LatitudeDegrees>
              <LongitudeDegrees>-8.2185708917677402496337890625</LongitudeDegrees>
            </Position>
            <AltitudeMeters>227.399993896484375</AltitudeMeters>
            <DistanceMeters>168291.7689489</DistanceMeters>
          </Trackpoint>
          <Trackpoint>
            <Time>2018-09-13T17:06:50.000Z</Time>
            <Position>
              <LatitudeDegrees>38.65000493824481964111328125</LatitudeDegrees>
              <LongitudeDegrees>-8.21894112043082714080810546875</LongitudeDegrees>
            </Position>
            <AltitudeMeters>225.600006103515625</AltitudeMeters>
            <DistanceMeters>168325.79368828</DistanceMeters>
          </Trackpoint>
          <Trackpoint>
            <Time>2018-09-13T17:06:56.000Z</Time>
            <Position>
              <LatitudeDegrees>38.65017517469823360443115234375</LatitudeDegrees>
              <LongitudeDegrees>-8.21946968324482440948486328125</LongitudeDegrees>
            </Position>
            <AltitudeMeters>225.600006103515625</AltitudeMeters>
            <DistanceMeters>168375.49220566</DistanceMeters>
          </Trackpoint>
          <Trackpoint>
            <Time>2018-09-13T17:06:58.000Z</Time>
            <Position>
              <LatitudeDegrees>38.65025346167385578155517578125</LatitudeDegrees>
              <LongitudeDegrees>-8.219627179205417633056640625</LongitudeDegrees>
            </Position>
            <AltitudeMeters>226.399993896484375</AltitudeMeters>
            <DistanceMeters>168391.72036481</DistanceMeters>
          </Trackpoint>
          <Trackpoint>
            <Time>2018-09-13T17:06:59.000Z</Time>
            <Position>
              <LatitudeDegrees>38.65027852356433868408203125</LatitudeDegrees>
              <LongitudeDegrees>-8.2197121717035770416259765625</LongitudeDegrees>
            </Position>
            <AltitudeMeters>226.8000030517578125</AltitudeMeters>
            <DistanceMeters>168399.61730776</DistanceMeters>
          </Trackpoint>
          <Trackpoint>
            <Time>2018-09-13T17:07:04.000Z</Time>
            <Position>
              <LatitudeDegrees>38.65013946779072284698486328125</LatitudeDegrees>
              <LongitudeDegrees>-8.22007066570222377777099609375</LongitudeDegrees>
            </Position>
            <AltitudeMeters>227.399993896484375</AltitudeMeters>
            <DistanceMeters>168434.4108432</DistanceMeters>
          </Trackpoint>
          <Trackpoint>
            <Time>2018-09-13T17:07:06.000Z</Time>
            <Position>
              <LatitudeDegrees>38.6500600911676883697509765625</LatitudeDegrees>
              <LongitudeDegrees>-8.22018139064311981201171875</LongitudeDegrees>
            </Position>
            <AltitudeMeters>226.8000030517578125</AltitudeMeters>
            <DistanceMeters>168447.47554774</DistanceMeters>
          </Trackpoint>
          <Trackpoint>
            <Time>2018-09-13T17:07:10.000Z</Time>
            <Position>
              <LatitudeDegrees>38.6499410681426525115966796875</LatitudeDegrees>
              <LongitudeDegrees>-8.22042153216898441314697265625</LongitudeDegrees>
            </Position>
            <AltitudeMeters>225.600006103515625</AltitudeMeters>
            <DistanceMeters>168472.19856969</DistanceMeters>
          </Trackpoint>
          <Trackpoint>
            <Time>2018-09-13T17:07:19.000Z</Time>
            <Position>
              <LatitudeDegrees>38.64964225329458713531494140625</LatitudeDegrees>
              <LongitudeDegrees>-8.22107599116861820220947265625</LongitudeDegrees>
            </Position>
            <AltitudeMeters>222.399993896484375</AltitudeMeters>
            <DistanceMeters>168538.09574217</DistanceMeters>
          </Trackpoint>
          <Trackpoint>
            <Time>2018-09-13T17:07:20.000Z</Time>
            <Position>
              <LatitudeDegrees>38.649603612720966339111328125</LatitudeDegrees>
              <LongitudeDegrees>-8.2211597263813018798828125</LongitudeDegrees>
            </Position>
            <AltitudeMeters>221.8000030517578125</AltitudeMeters>
            <DistanceMeters>168546.549916</DistanceMeters>
          </Trackpoint>
          <Trackpoint>
            <Time>2018-09-13T17:07:23.000Z</Time>
            <Position>
              <LatitudeDegrees>38.649480901658535003662109375</LatitudeDegrees>
              <LongitudeDegrees>-8.22142702527344226837158203125</LongitudeDegrees>
            </Position>
            <AltitudeMeters>220</AltitudeMeters>
            <DistanceMeters>168573.5018443</DistanceMeters>
          </Trackpoint>
          <Trackpoint>
            <Time>2018-09-13T17:07:26.000Z</Time>
            <Position>
              <LatitudeDegrees>38.64934704266488552093505859375</LatitudeDegrees>
              <LongitudeDegrees>-8.2217187993228435516357421875</LongitudeDegrees>
            </Position>
            <AltitudeMeters>218</AltitudeMeters>
            <DistanceMeters>168602.91656519</DistanceMeters>
          </Trackpoint>
          <Trackpoint>
            <Time>2018-09-13T17:07:29.000Z</Time>
            <Position>
              <LatitudeDegrees>38.6492054723203182220458984375</LatitudeDegrees>
              <LongitudeDegrees>-8.2220287621021270751953125</LongitudeDegrees>
            </Position>
            <AltitudeMeters>216.399993896484375</AltitudeMeters>
            <DistanceMeters>168634.1293332</DistanceMeters>
          </Trackpoint>
          <Trackpoint>
            <Time>2018-09-13T17:07:31.000Z</Time>
            <Position>
              <LatitudeDegrees>38.64910748787224292755126953125</LatitudeDegrees>
              <LongitudeDegrees>-8.22224291972815990447998046875</LongitudeDegrees>
            </Position>
            <AltitudeMeters>215.1999969482421875</AltitudeMeters>
            <DistanceMeters>168655.70437389</DistanceMeters>
          </Trackpoint>
          <Trackpoint>
            <Time>2018-09-13T17:07:33.000Z</Time>
            <Position>
              <LatitudeDegrees>38.64901117980480194091796875</LatitudeDegrees>
              <LongitudeDegrees>-8.2224426604807376861572265625</LongitudeDegrees>
            </Position>
            <AltitudeMeters>214</AltitudeMeters>
            <DistanceMeters>168676.10924499</DistanceMeters>
          </Trackpoint>
          <Trackpoint>
            <Time>2018-09-13T17:07:34.000Z</Time>
            <Position>
              <LatitudeDegrees>38.6489640735089778900146484375</LatitudeDegrees>
              <LongitudeDegrees>-8.22253100574016571044921875</LongitudeDegrees>
            </Position>
            <AltitudeMeters>213.399993896484375</AltitudeMeters>
            <DistanceMeters>168685.40779229</DistanceMeters>
          </Trackpoint>
          <Trackpoint>
            <Time>2018-09-13T17:07:36.000Z</Time>
            <Position>
              <LatitudeDegrees>38.6488765664398670196533203125</LatitudeDegrees>
              <LongitudeDegrees>-8.22269051335752010345458984375</LongitudeDegrees>
            </Position>
            <AltitudeMeters>212.399993896484375</AltitudeMeters>
            <DistanceMeters>168702.35161773</DistanceMeters>
          </Trackpoint>
          <Trackpoint>
            <Time>2018-09-13T17:07:38.000Z</Time>
            <Position>
              <LatitudeDegrees>38.6488128639757633209228515625</LatitudeDegrees>
              <LongitudeDegrees>-8.222827725112438201904296875</LongitudeDegrees>
            </Position>
            <AltitudeMeters>211.600006103515625</AltitudeMeters>
            <DistanceMeters>168716.2268197</DistanceMeters>
          </Trackpoint>
          <Trackpoint>
            <Time>2018-09-13T17:07:39.000Z</Time>
            <Position>
              <LatitudeDegrees>38.648779504001140594482421875</LatitudeDegrees>
              <LongitudeDegrees>-8.22288815863430500030517578125</LongitudeDegrees>
            </Position>
            <AltitudeMeters>211.1999969482421875</AltitudeMeters>
            <DistanceMeters>168722.65922285</DistanceMeters>
          </Trackpoint>
          <Trackpoint>
            <Time>2018-09-13T17:07:40.000Z</Time>
            <Position>
              <LatitudeDegrees>38.64874220453202724456787109375</LatitudeDegrees>
              <LongitudeDegrees>-8.222943060100078582763671875</LongitudeDegrees>
            </Position>
            <AltitudeMeters>210.8000030517578125</AltitudeMeters>
            <DistanceMeters>168728.9840342</DistanceMeters>
          </Trackpoint>
          <Trackpoint>
            <Time>2018-09-13T17:07:43.000Z</Time>
            <Position>
              <LatitudeDegrees>38.64860272966325283050537109375</LatitudeDegrees>
              <LongitudeDegrees>-8.2230077683925628662109375</LongitudeDegrees>
            </Position>
            <AltitudeMeters>210</AltitudeMeters>
            <DistanceMeters>168745.49545564</DistanceMeters>
          </Trackpoint>
          <Trackpoint>
            <Time>2018-09-13T17:07:44.000Z</Time>
            <Position>
              <LatitudeDegrees>38.6485573835670948028564453125</LatitudeDegrees>
              <LongitudeDegrees>-8.2229884900152683258056640625</LongitudeDegrees>
            </Position>
            <AltitudeMeters>209.8000030517578125</AltitudeMeters>
            <DistanceMeters>168750.81355675</DistanceMeters>
          </Trackpoint>
          <Trackpoint>
            <Time>2018-09-13T17:07:48.000Z</Time>
            <Position>
              <LatitudeDegrees>38.64843794144690036773681640625</LatitudeDegrees>
              <LongitudeDegrees>-8.22279696352779865264892578125</LongitudeDegrees>
            </Position>
            <AltitudeMeters>210.399993896484375</AltitudeMeters>
            <DistanceMeters>168772.11883433</DistanceMeters>
          </Trackpoint>
          <Trackpoint>
            <Time>2018-09-13T17:07:53.000Z</Time>
            <Position>
              <LatitudeDegrees>38.6483681201934814453125</LatitudeDegrees>
              <LongitudeDegrees>-8.2225318439304828643798828125</LongitudeDegrees>
            </Position>
            <AltitudeMeters>210.8000030517578125</AltitudeMeters>
            <DistanceMeters>168796.43973331</DistanceMeters>
          </Trackpoint>
          <Trackpoint>
            <Time>2018-09-13T17:07:57.000Z</Time>
            <Position>
              <LatitudeDegrees>38.64831087179481983184814453125</LatitudeDegrees>
              <LongitudeDegrees>-8.2222948037087917327880859375</LongitudeDegrees>
            </Position>
            <AltitudeMeters>210.8000030517578125</AltitudeMeters>
            <DistanceMeters>168818.00723891</DistanceMeters>
          </Trackpoint>
          <Trackpoint>
            <Time>2018-09-13T17:08:03.000Z</Time>
            <Position>
              <LatitudeDegrees>38.6482070200145244598388671875</LatitudeDegrees>
              <LongitudeDegrees>-8.22192977182567119598388671875</LongitudeDegrees>
            </Position>
            <AltitudeMeters>210.600006103515625</AltitudeMeters>
            <DistanceMeters>168851.7777064</DistanceMeters>
          </Trackpoint>
          <Trackpoint>
            <Time>2018-09-13T17:08:14.000Z</Time>
            <Position>
              <LatitudeDegrees>38.64801364950835704803466796875</LatitudeDegrees>
              <LongitudeDegrees>-8.22125385515391826629638671875</LongitudeDegrees>
            </Position>
            <AltitudeMeters>210.399993896484375</AltitudeMeters>
            <DistanceMeters>168914.35061512</DistanceMeters>
          </Trackpoint>
          <Trackpoint>
            <Time>2018-09-13T17:08:19.000Z</Time>
            <Position>
              <LatitudeDegrees>38.64791809581220149993896484375</LatitudeDegrees>
              <LongitudeDegrees>-8.22100373916327953338623046875</LongitudeDegrees>
            </Position>
            <AltitudeMeters>210.600006103515625</AltitudeMeters>
            <DistanceMeters>168938.55427557</DistanceMeters>
          </Trackpoint>
          <Trackpoint>
            <Time>2018-09-13T17:08:23.000Z</Time>
            <Position>
              <LatitudeDegrees>38.647752888500690460205078125</LatitudeDegrees>
              <LongitudeDegrees>-8.220966942608356475830078125</LongitudeDegrees>
            </Position>
            <AltitudeMeters>210.1999969482421875</AltitudeMeters>
            <DistanceMeters>168957.2182577</DistanceMeters>
          </Trackpoint>
          <Trackpoint>
            <Time>2018-09-13T17:08:26.000Z</Time>
            <Position>
              <LatitudeDegrees>38.6475862562656402587890625</LatitudeDegrees>
              <LongitudeDegrees>-8.2209751568734645843505859375</LongitudeDegrees>
            </Position>
            <AltitudeMeters>210</AltitudeMeters>
            <DistanceMeters>168975.77841277</DistanceMeters>
          </Trackpoint>
          <Trackpoint>
            <Time>2018-09-13T17:08:27.000Z</Time>
            <Position>
              <LatitudeDegrees>38.6475272476673126220703125</LatitudeDegrees>
              <LongitudeDegrees>-8.220987059175968170166015625</LongitudeDegrees>
            </Position>
            <AltitudeMeters>210</AltitudeMeters>
            <DistanceMeters>168982.4268881</DistanceMeters>
          </Trackpoint>
          <Trackpoint>
            <Time>2018-09-13T17:08:31.000Z</Time>
            <Position>
              <LatitudeDegrees>38.64730185829102993011474609375</LatitudeDegrees>
              <LongitudeDegrees>-8.22105134837329387664794921875</LongitudeDegrees>
            </Position>
            <AltitudeMeters>209.8000030517578125</AltitudeMeters>
            <DistanceMeters>169008.12805717</DistanceMeters>
          </Trackpoint>
          <Trackpoint>
            <Time>2018-09-13T17:08:33.000Z</Time>
            <Position>
              <LatitudeDegrees>38.647196330130100250244140625</LatitudeDegrees>
              <LongitudeDegrees>-8.22107456624507904052734375</LongitudeDegrees>
            </Position>
            <AltitudeMeters>209.8000030517578125</AltitudeMeters>
            <DistanceMeters>169020.04586202</DistanceMeters>
          </Trackpoint>
          <Trackpoint>
            <Time>2018-09-13T17:08:34.000Z</Time>
            <Position>
              <LatitudeDegrees>38.6471445299685001373291015625</LatitudeDegrees>
              <LongitudeDegrees>-8.22108755819499492645263671875</LongitudeDegrees>
            </Position>
            <AltitudeMeters>209.8000030517578125</AltitudeMeters>
            <DistanceMeters>169025.92140304</DistanceMeters>
          </Trackpoint>
          <Trackpoint>
            <Time>2018-09-13T17:08:38.000Z</Time>
            <Position>
              <LatitudeDegrees>38.6469239182770252227783203125</LatitudeDegrees>
              <LongitudeDegrees>-8.22114556096494197845458984375</LongitudeDegrees>
            </Position>
            <AltitudeMeters>209.8000030517578125</AltitudeMeters>
            <DistanceMeters>169050.98829035</DistanceMeters>
          </Trackpoint>
          <Trackpoint>
            <Time>2018-09-13T17:08:49.000Z</Time>
            <Position>
              <LatitudeDegrees>38.6463583074510097503662109375</LatitudeDegrees>
              <LongitudeDegrees>-8.221294842660427093505859375</LongitudeDegrees>
            </Position>
            <AltitudeMeters>209.1999969482421875</AltitudeMeters>
            <DistanceMeters>169115.26541641</DistanceMeters>
          </Trackpoint>
          <Trackpoint>
            <Time>2018-09-13T17:08:55.000Z</Time>
            <Position>
              <LatitudeDegrees>38.64604256115853786468505859375</LatitudeDegrees>
              <LongitudeDegrees>-8.2213707827031612396240234375</LongitudeDegrees>
            </Position>
            <AltitudeMeters>209.399993896484375</AltitudeMeters>
            <DistanceMeters>169151.02325058</DistanceMeters>
          </Trackpoint>
          <Trackpoint>
            <Time>2018-09-13T17:09:06.000Z</Time>
            <Position>
              <LatitudeDegrees>38.64547745324671268463134765625</LatitudeDegrees>
              <LongitudeDegrees>-8.22152190841734409332275390625</LongitudeDegrees>
            </Position>
            <AltitudeMeters>206.600006103515625</AltitudeMeters>
            <DistanceMeters>169215.27817593</DistanceMeters>
          </Trackpoint>
          <Trackpoint>
            <Time>2018-09-13T17:09:12.000Z</Time>
            <Position>
              <LatitudeDegrees>38.645112253725528717041015625</LatitudeDegrees>
              <LongitudeDegrees>-8.22162433527410030364990234375</LongitudeDegrees>
            </Position>
            <AltitudeMeters>206.1999969482421875</AltitudeMeters>
            <DistanceMeters>169256.88935312</DistanceMeters>
          </Trackpoint>
          <Trackpoint>
            <Time>2018-09-13T17:09:14.000Z</Time>
            <Position>
              <LatitudeDegrees>38.64499314688146114349365234375</LatitudeDegrees>
              <LongitudeDegrees>-8.22165719233453273773193359375</LongitudeDegrees>
            </Position>
            <AltitudeMeters>205.8000030517578125</AltitudeMeters>
            <DistanceMeters>169270.45056756</DistanceMeters>
          </Trackpoint>
          <Trackpoint>
            <Time>2018-09-13T17:09:20.000Z</Time>
            <Position>
              <LatitudeDegrees>38.6446420289576053619384765625</LatitudeDegrees>
              <LongitudeDegrees>-8.22176523506641387939453125</LongitudeDegrees>
            </Position>
            <AltitudeMeters>204.600006103515625</AltitudeMeters>
            <DistanceMeters>169310.64361019</DistanceMeters>
          </Trackpoint>
          <Trackpoint>
            <Time>2018-09-13T17:09:23.000Z</Time>
            <Position>
              <LatitudeDegrees>38.6444588005542755126953125</LatitudeDegrees>
              <LongitudeDegrees>-8.22181225754320621490478515625</LongitudeDegrees>
            </Position>
            <AltitudeMeters>204.399993896484375</AltitudeMeters>
            <DistanceMeters>169331.44274171</DistanceMeters>
          </Trackpoint>
          <Trackpoint>
            <Time>2018-09-13T17:09:29.000Z</Time>
            <Position>
              <LatitudeDegrees>38.644079267978668212890625</LatitudeDegrees>
              <LongitudeDegrees>-8.221922479569911956787109375</LongitudeDegrees>
            </Position>
            <AltitudeMeters>202.1999969482421875</AltitudeMeters>
            <DistanceMeters>169374.75856161</DistanceMeters>
          </Trackpoint>
          <Trackpoint>
            <Time>2018-09-13T17:09:35.000Z</Time>
            <Position>
              <LatitudeDegrees>38.64363812841475009918212890625</LatitudeDegrees>
              <LongitudeDegrees>-8.222043514251708984375</LongitudeDegrees>
            </Position>
            <AltitudeMeters>198.600006103515625</AltitudeMeters>
            <DistanceMeters>169424.97305489</DistanceMeters>
          </Trackpoint>
          <Trackpoint>
            <Time>2018-09-13T17:09:40.000Z</Time>
            <Position>
              <LatitudeDegrees>38.64320947788655757904052734375</LatitudeDegrees>
              <LongitudeDegrees>-8.2221603579819202423095703125</LongitudeDegrees>
            </Position>
            <AltitudeMeters>196.399993896484375</AltitudeMeters>
            <DistanceMeters>169473.75194369</DistanceMeters>
          </Trackpoint>
          <Trackpoint>
            <Time>2018-09-13T17:09:43.000Z</Time>
            <Position>
              <LatitudeDegrees>38.642922900617122650146484375</LatitudeDegrees>
              <LongitudeDegrees>-8.22223772294819355010986328125</LongitudeDegrees>
            </Position>
            <AltitudeMeters>195.600006103515625</AltitudeMeters>
            <DistanceMeters>169506.34984663</DistanceMeters>
          </Trackpoint>
          <Trackpoint>
            <Time>2018-09-13T17:09:45.000Z</Time>
            <Position>
              <LatitudeDegrees>38.642721064388751983642578125</LatitudeDegrees>
              <LongitudeDegrees>-8.22229136712849140167236328125</LongitudeDegrees>
            </Position>
            <AltitudeMeters>195.1999969482421875</AltitudeMeters>
            <DistanceMeters>169529.29343628</DistanceMeters>
          </Trackpoint>
          <Trackpoint>
            <Time>2018-09-13T17:09:47.000Z</Time>
            <Position>
              <LatitudeDegrees>38.64251486957073211669921875</LatitudeDegrees>
              <LongitudeDegrees>-8.222347609698772430419921875</LongitudeDegrees>
            </Position>
            <AltitudeMeters>194.1999969482421875</AltitudeMeters>
            <DistanceMeters>169552.75868593</DistanceMeters>
          </Trackpoint>
          <Trackpoint>
            <Time>2018-09-13T17:09:49.000Z</Time>
            <Position>
              <LatitudeDegrees>38.64231060259044170379638671875</LatitudeDegrees>
              <LongitudeDegrees>-8.222402594983577728271484375</LongitudeDegrees>
            </Position>
            <AltitudeMeters>193.1999969482421875</AltitudeMeters>
            <DistanceMeters>169575.99111433</DistanceMeters>
          </Trackpoint>
          <Trackpoint>
            <Time>2018-09-13T17:09:51.000Z</Time>
            <Position>
              <LatitudeDegrees>38.642114885151386260986328125</LatitudeDegrees>
              <LongitudeDegrees>-8.222462274134159088134765625</LongitudeDegrees>
            </Position>
            <AltitudeMeters>192.1999969482421875</AltitudeMeters>
            <DistanceMeters>169598.38397357</DistanceMeters>
          </Trackpoint>
          <Trackpoint>
            <Time>2018-09-13T17:09:53.000Z</Time>
            <Position>
              <LatitudeDegrees>38.64192335866391658782958984375</LatitudeDegrees>
              <LongitudeDegrees>-8.2225197739899158477783203125</LongitudeDegrees>
            </Position>
            <AltitudeMeters>191.1999969482421875</AltitudeMeters>
            <DistanceMeters>169620.27933286</DistanceMeters>
          </Trackpoint>
          <Trackpoint>
            <Time>2018-09-13T17:09:55.000Z</Time>
            <Position>
              <LatitudeDegrees>38.64174013026058673858642578125</LatitudeDegrees>
              <LongitudeDegrees>-8.2225737534463405609130859375</LongitudeDegrees>
            </Position>
            <AltitudeMeters>189.8000030517578125</AltitudeMeters>
            <DistanceMeters>169641.2057171</DistanceMeters>
          </Trackpoint>
          <Trackpoint>
            <Time>2018-09-13T17:09:57.000Z</Time>
            <Position>
              <LatitudeDegrees>38.6415584944188594818115234375</LatitudeDegrees>
              <LongitudeDegrees>-8.222623877227306365966796875</LongitudeDegrees>
            </Position>
            <AltitudeMeters>188.1999969482421875</AltitudeMeters>
            <DistanceMeters>169661.88663924</DistanceMeters>
          </Trackpoint>
          <Trackpoint>
            <Time>2018-09-13T17:10:01.000Z</Time>
            <Position>
              <LatitudeDegrees>38.6411766149103641510009765625</LatitudeDegrees>
              <LongitudeDegrees>-8.22266779839992523193359375</LongitudeDegrees>
            </Position>
            <AltitudeMeters>185.600006103515625</AltitudeMeters>
            <DistanceMeters>169704.56167558</DistanceMeters>
          </Trackpoint>
          <Trackpoint>
            <Time>2018-09-13T17:10:05.000Z</Time>
            <Position>
              <LatitudeDegrees>38.64079297520220279693603515625</LatitudeDegrees>
              <LongitudeDegrees>-8.22252958081662654876708984375</LongitudeDegrees>
            </Position>
            <AltitudeMeters>185.1999969482421875</AltitudeMeters>
            <DistanceMeters>169748.92001964</DistanceMeters>
          </Trackpoint>
          <Trackpoint>
            <Time>2018-09-13T17:10:06.000Z</Time>
            <Position>
              <LatitudeDegrees>38.64070178009569644927978515625</LatitudeDegrees>
              <LongitudeDegrees>-8.2224728353321552276611328125</LongitudeDegrees>
            </Position>
            <AltitudeMeters>185.399993896484375</AltitudeMeters>
            <DistanceMeters>169760.20581727</DistanceMeters>
          </Trackpoint>
          <Trackpoint>
            <Time>2018-09-13T17:10:08.000Z</Time>
            <Position>
              <LatitudeDegrees>38.64051637239754199981689453125</LatitudeDegrees>
              <LongitudeDegrees>-8.222379125654697418212890625</LongitudeDegrees>
            </Position>
            <AltitudeMeters>185.8000030517578125</AltitudeMeters>
            <DistanceMeters>169782.39206227</DistanceMeters>
          </Trackpoint>
          <Trackpoint>
            <Time>2018-09-13T17:10:10.000Z</Time>
            <Position>
              <LatitudeDegrees>38.64033079706132411956787109375</LatitudeDegrees>
              <LongitudeDegrees>-8.22240536101162433624267578125</LongitudeDegrees>
            </Position>
            <AltitudeMeters>184</AltitudeMeters>
            <DistanceMeters>169803.17273395</DistanceMeters>
          </Trackpoint>
          <Trackpoint>
            <Time>2018-09-13T17:10:12.000Z</Time>
            <Position>
              <LatitudeDegrees>38.6401714570820331573486328125</LatitudeDegrees>
              <LongitudeDegrees>-8.22251130826771259307861328125</LongitudeDegrees>
            </Position>
            <AltitudeMeters>182.399993896484375</AltitudeMeters>
            <DistanceMeters>169823.15683165</DistanceMeters>
          </Trackpoint>
          <Trackpoint>
            <Time>2018-09-13T17:10:15.000Z</Time>
            <Position>
              <LatitudeDegrees>38.63995335996150970458984375</LatitudeDegrees>
              <LongitudeDegrees>-8.222663439810276031494140625</LongitudeDegrees>
            </Position>
            <AltitudeMeters>186</AltitudeMeters>
            <DistanceMeters>169850.80062388</DistanceMeters>
          </Trackpoint>
          <Trackpoint>
            <Time>2018-09-13T17:10:18.000Z</Time>
            <Position>
              <LatitudeDegrees>38.639761246740818023681640625</LatitudeDegrees>
              <LongitudeDegrees>-8.222778104245662689208984375</LongitudeDegrees>
            </Position>
            <AltitudeMeters>189</AltitudeMeters>
            <DistanceMeters>169874.39252486</DistanceMeters>
          </Trackpoint>
          <Trackpoint>
            <Time>2018-09-13T17:10:20.000Z</Time>
            <Position>
              <LatitudeDegrees>38.63963149487972259521484375</LatitudeDegrees>
              <LongitudeDegrees>-8.2228158228099346160888671875</LongitudeDegrees>
            </Position>
            <AltitudeMeters>191.1999969482421875</AltitudeMeters>
            <DistanceMeters>169889.20206559</DistanceMeters>
          </Trackpoint>
          <Trackpoint>
            <Time>2018-09-13T17:10:22.000Z</Time>
            <Position>
              <LatitudeDegrees>38.6395079456269741058349609375</LatitudeDegrees>
              <LongitudeDegrees>-8.2228627614676952362060546875</LongitudeDegrees>
            </Position>
            <AltitudeMeters>193.1999969482421875</AltitudeMeters>
            <DistanceMeters>169903.54637882</DistanceMeters>
          </Trackpoint>
          <Trackpoint>
            <Time>2018-09-13T17:10:25.000Z</Time>
            <Position>
              <LatitudeDegrees>38.63935397006571292877197265625</LatitudeDegrees>
              <LongitudeDegrees>-8.22296812199056148529052734375</LongitudeDegrees>
            </Position>
            <AltitudeMeters>195.600006103515625</AltitudeMeters>
            <DistanceMeters>169922.97835444</DistanceMeters>
          </Trackpoint>
          <Trackpoint>
            <Time>2018-09-13T17:10:28.000Z</Time>
            <Position>
              <LatitudeDegrees>38.63923025317490100860595703125</LatitudeDegrees>
              <LongitudeDegrees>-8.22307004593312740325927734375</LongitudeDegrees>
            </Position>
            <AltitudeMeters>196.399993896484375</AltitudeMeters>
            <DistanceMeters>169939.3527561</DistanceMeters>
          </Trackpoint>
          <Trackpoint>
            <Time>2018-09-13T17:10:31.000Z</Time>
            <Position>
              <LatitudeDegrees>38.63912397064268589019775390625</LatitudeDegrees>
              <LongitudeDegrees>-8.22315730154514312744140625</LongitudeDegrees>
            </Position>
            <AltitudeMeters>197</AltitudeMeters>
            <DistanceMeters>169953.40579036</DistanceMeters>
          </Trackpoint>
          <Trackpoint>
            <Time>2018-09-13T17:10:34.000Z</Time>
            <Position>
              <LatitudeDegrees>38.63903461955487728118896484375</LatitudeDegrees>
              <LongitudeDegrees>-8.22323366068303585052490234375</LongitudeDegrees>
            </Position>
            <AltitudeMeters>197.600006103515625</AltitudeMeters>
            <DistanceMeters>169965.36330809</DistanceMeters>
          </Trackpoint>
          <Trackpoint>
            <Time>2018-09-13T17:10:37.000Z</Time>
            <Position>
              <LatitudeDegrees>38.6389567516744136810302734375</LatitudeDegrees>
              <LongitudeDegrees>-8.22329786606132984161376953125</LongitudeDegrees>
            </Position>
            <AltitudeMeters>198</AltitudeMeters>
            <DistanceMeters>169975.67228329</DistanceMeters>
          </Trackpoint>
          <Trackpoint>
            <Time>2018-09-13T17:10:40.000Z</Time>
            <Position>
              <LatitudeDegrees>38.638885505497455596923828125</LatitudeDegrees>
              <LongitudeDegrees>-8.22335737757384777069091796875</LongitudeDegrees>
            </Position>
            <AltitudeMeters>198.600006103515625</AltitudeMeters>
            <DistanceMeters>169985.14163697</DistanceMeters>
          </Trackpoint>
          <Trackpoint>
            <Time>2018-09-13T17:10:41.000Z</Time>
            <Position>
              <LatitudeDegrees>38.63886304199695587158203125</LatitudeDegrees>
              <LongitudeDegrees>-8.22337648831307888031005859375</LongitudeDegrees>
            </Position>
            <AltitudeMeters>198.600006103515625</AltitudeMeters>
            <DistanceMeters>169988.14363902</DistanceMeters>
          </Trackpoint>
          <Trackpoint>
            <Time>2018-09-13T17:10:44.000Z</Time>
            <Position>
              <LatitudeDegrees>38.6387968249619007110595703125</LatitudeDegrees>
              <LongitudeDegrees>-8.22343180887401103973388671875</LongitudeDegrees>
            </Position>
            <AltitudeMeters>199</AltitudeMeters>
            <DistanceMeters>169996.94374899</DistanceMeters>
          </Trackpoint>
          <Trackpoint>
            <Time>2018-09-13T17:10:48.000Z</Time>
            <Position>
              <LatitudeDegrees>38.6387086473405361175537109375</LatitudeDegrees>
              <LongitudeDegrees>-8.22350439615547657012939453125</LongitudeDegrees>
            </Position>
            <AltitudeMeters>199.1999969482421875</AltitudeMeters>
            <DistanceMeters>170008.61154366</DistanceMeters>
          </Trackpoint>
          <Trackpoint>
            <Time>2018-09-13T17:10:54.000Z</Time>
            <Position>
              <LatitudeDegrees>38.63859155215322971343994140625</LatitudeDegrees>
              <LongitudeDegrees>-8.223612271249294281005859375</LongitudeDegrees>
            </Position>
            <AltitudeMeters>199.399993896484375</AltitudeMeters>
            <DistanceMeters>170024.6685279</DistanceMeters>
          </Trackpoint>
          <Trackpoint>
            <Time>2018-09-13T17:11:01.000Z</Time>
            <Position>
              <LatitudeDegrees>38.63844771869480609893798828125</LatitudeDegrees>
              <LongitudeDegrees>-8.22372886352241039276123046875</LongitudeDegrees>
            </Position>
            <AltitudeMeters>199.8000030517578125</AltitudeMeters>
            <DistanceMeters>170043.61676896</DistanceMeters>
          </Trackpoint>
          <Trackpoint>
            <Time>2018-09-13T17:11:03.000Z</Time>
            <Position>
              <LatitudeDegrees>38.63840765319764614105224609375</LatitudeDegrees>
              <LongitudeDegrees>-8.22376239113509654998779296875</LongitudeDegrees>
            </Position>
            <AltitudeMeters>199.8000030517578125</AltitudeMeters>
            <DistanceMeters>170048.94420082</DistanceMeters>
          </Trackpoint>
          <Trackpoint>
            <Time>2018-09-13T17:11:09.000Z</Time>
            <Position>
              <LatitudeDegrees>38.6382818408310413360595703125</LatitudeDegrees>
              <LongitudeDegrees>-8.2238665781915187835693359375</LongitudeDegrees>
            </Position>
            <AltitudeMeters>200.399993896484375</AltitudeMeters>
            <DistanceMeters>170065.62132151</DistanceMeters>
          </Trackpoint>
          <Trackpoint>
            <Time>2018-09-13T17:11:11.000Z</Time>
            <Position>
              <LatitudeDegrees>38.63824211061000823974609375</LatitudeDegrees>
              <LongitudeDegrees>-8.22390119545161724090576171875</LongitudeDegrees>
            </Position>
            <AltitudeMeters>200.399993896484375</AltitudeMeters>
            <DistanceMeters>170070.97158714</DistanceMeters>
          </Trackpoint>
          <Trackpoint>
            <Time>2018-09-13T17:11:16.000Z</Time>
            <Position>
              <LatitudeDegrees>38.6381395161151885986328125</LatitudeDegrees>
              <LongitudeDegrees>-8.22398752905428409576416015625</LongitudeDegrees>
            </Position>
            <AltitudeMeters>200.8000030517578125</AltitudeMeters>
            <DistanceMeters>170084.63694411</DistanceMeters>
          </Trackpoint>
          <Trackpoint>
            <Time>2018-09-13T17:11:21.000Z</Time>
            <Position>
              <LatitudeDegrees>38.63803667016327381134033203125</LatitudeDegrees>
              <LongitudeDegrees>-8.2240712642669677734375</LongitudeDegrees>
            </Position>
            <AltitudeMeters>201.1999969482421875</AltitudeMeters>
            <DistanceMeters>170098.20281886</DistanceMeters>
          </Trackpoint>
          <Trackpoint>
            <Time>2018-09-13T17:11:28.000Z</Time>
            <Position>
              <LatitudeDegrees>38.63788981921970844268798828125</LatitudeDegrees>
              <LongitudeDegrees>-8.22418886236846446990966796875</LongitudeDegrees>
            </Position>
            <AltitudeMeters>201.8000030517578125</AltitudeMeters>
            <DistanceMeters>170117.48200392</DistanceMeters>
          </Trackpoint>
          <Trackpoint>
            <Time>2018-09-13T17:11:34.000Z</Time>
            <Position>
              <LatitudeDegrees>38.6377614922821521759033203125</LatitudeDegrees>
              <LongitudeDegrees>-8.22428659535944461822509765625</LongitudeDegrees>
            </Position>
            <AltitudeMeters>202.399993896484375</AltitudeMeters>
            <DistanceMeters>170134.10135855</DistanceMeters>
          </Trackpoint>
          <Trackpoint>
            <Time>2018-09-13T17:11:39.000Z</Time>
            <Position>
              <LatitudeDegrees>38.63765110261738300323486328125</LatitudeDegrees>
              <LongitudeDegrees>-8.22437074966728687286376953125</LongitudeDegrees>
            </Position>
            <AltitudeMeters>203.399993896484375</AltitudeMeters>
            <DistanceMeters>170148.40153726</DistanceMeters>
          </Trackpoint>
          <Trackpoint>
            <Time>2018-09-13T17:11:47.000Z</Time>
            <Position>
              <LatitudeDegrees>38.6374855600297451019287109375</LatitudeDegrees>
              <LongitudeDegrees>-8.2244937121868133544921875</LongitudeDegrees>
            </Position>
            <AltitudeMeters>205.1999969482421875</AltitudeMeters>
            <DistanceMeters>170169.70342383</DistanceMeters>
          </Trackpoint>
          <Trackpoint>
            <Time>2018-09-13T17:11:55.000Z</Time>
            <Position>
              <LatitudeDegrees>38.63731716759502887725830078125</LatitudeDegrees>
              <LongitudeDegrees>-8.22463628835976123809814453125</LongitudeDegrees>
            </Position>
            <AltitudeMeters>207</AltitudeMeters>
            <DistanceMeters>170192.17397688</DistanceMeters>
          </Trackpoint>
          <Trackpoint>
            <Time>2018-09-13T17:12:02.000Z</Time>
            <Position>
              <LatitudeDegrees>38.6371630243957042694091796875</LatitudeDegrees>
              <LongitudeDegrees>-8.224756233394145965576171875</LongitudeDegrees>
            </Position>
            <AltitudeMeters>208.600006103515625</AltitudeMeters>
            <DistanceMeters>170212.25094259</DistanceMeters>
          </Trackpoint>
          <Trackpoint>
            <Time>2018-09-13T17:12:08.000Z</Time>
            <Position>
              <LatitudeDegrees>38.6370289139449596405029296875</LatitudeDegrees>
              <LongitudeDegrees>-8.22486318647861480712890625</LongitudeDegrees>
            </Position>
            <AltitudeMeters>210</AltitudeMeters>
            <DistanceMeters>170229.8373043</DistanceMeters>
          </Trackpoint>
          <Trackpoint>
            <Time>2018-09-13T17:12:16.000Z</Time>
            <Position>
              <LatitudeDegrees>38.63684241659939289093017578125</LatitudeDegrees>
              <LongitudeDegrees>-8.2250115461647510528564453125</LongitudeDegrees>
            </Position>
            <AltitudeMeters>212</AltitudeMeters>
            <DistanceMeters>170254.2759879</DistanceMeters>
          </Trackpoint>
          <Trackpoint>
            <Time>2018-09-13T17:12:21.000Z</Time>
            <Position>
              <LatitudeDegrees>38.6367285065352916717529296875</LatitudeDegrees>
              <LongitudeDegrees>-8.2251024059951305389404296875</LongitudeDegrees>
            </Position>
            <AltitudeMeters>213.1999969482421875</AltitudeMeters>
            <DistanceMeters>170269.21423576</DistanceMeters>
          </Trackpoint>
          <Trackpoint>
            <Time>2018-09-13T17:12:26.000Z</Time>
            <Position>
              <LatitudeDegrees>38.63661543466150760650634765625</LatitudeDegrees>
              <LongitudeDegrees>-8.2251895777881145477294921875</LongitudeDegrees>
            </Position>
            <AltitudeMeters>214.1999969482421875</AltitudeMeters>
            <DistanceMeters>170283.90531663</DistanceMeters>
          </Trackpoint>
          <Trackpoint>
            <Time>2018-09-13T17:12:33.000Z</Time>
            <Position>
              <LatitudeDegrees>38.63646321929991245269775390625</LatitudeDegrees>
              <LongitudeDegrees>-8.2253086008131504058837890625</LongitudeDegrees>
            </Position>
            <AltitudeMeters>215.399993896484375</AltitudeMeters>
            <DistanceMeters>170303.75725926</DistanceMeters>
          </Trackpoint>
          <Trackpoint>
            <Time>2018-09-13T17:12:37.000Z</Time>
            <Position>
              <LatitudeDegrees>38.63637386821210384368896484375</LatitudeDegrees>
              <LongitudeDegrees>-8.2253726385533809661865234375</LongitudeDegrees>
            </Position>
            <AltitudeMeters>216</AltitudeMeters>
            <DistanceMeters>170315.15412811</DistanceMeters>
          </Trackpoint>
          <Trackpoint>
            <Time>2018-09-13T17:12:45.000Z</Time>
            <Position>
              <LatitudeDegrees>38.63620270974934101104736328125</LatitudeDegrees>
              <LongitudeDegrees>-8.22551856748759746551513671875</LongitudeDegrees>
            </Position>
            <AltitudeMeters>217.399993896484375</AltitudeMeters>
            <DistanceMeters>170338.04235335</DistanceMeters>
          </Trackpoint>
          <Trackpoint>
            <Time>2018-09-13T17:12:50.000Z</Time>
            <Position>
              <LatitudeDegrees>38.6360944993793964385986328125</LatitudeDegrees>
              <LongitudeDegrees>-8.22560540400445461273193359375</LongitudeDegrees>
            </Position>
            <AltitudeMeters>218.1999969482421875</AltitudeMeters>
            <DistanceMeters>170352.25702853</DistanceMeters>
          </Trackpoint>
          <Trackpoint>
            <Time>2018-09-13T17:12:57.000Z</Time>
            <Position>
              <LatitudeDegrees>38.63594555296003818511962890625</LatitudeDegrees>
              <LongitudeDegrees>-8.22572660632431507110595703125</LongitudeDegrees>
            </Position>
            <AltitudeMeters>219</AltitudeMeters>
            <DistanceMeters>170371.90068468</DistanceMeters>
          </Trackpoint>
          <Trackpoint>
            <Time>2018-09-13T17:13:03.000Z</Time>
            <Position>
              <LatitudeDegrees>38.63581278361380100250244140625</LatitudeDegrees>
              <LongitudeDegrees>-8.225837163627147674560546875</LongitudeDegrees>
            </Position>
            <AltitudeMeters>219.1999969482421875</AltitudeMeters>
            <DistanceMeters>170389.52910068</DistanceMeters>
          </Trackpoint>
          <Trackpoint>
            <Time>2018-09-13T17:13:10.000Z</Time>
            <Position>
              <LatitudeDegrees>38.635655455291271209716796875</LatitudeDegrees>
              <LongitudeDegrees>-8.22596825659275054931640625</LongitudeDegrees>
            </Position>
            <AltitudeMeters>219.8000030517578125</AltitudeMeters>
            <DistanceMeters>170410.42244784</DistanceMeters>
          </Trackpoint>
          <Trackpoint>
            <Time>2018-09-13T17:13:20.000Z</Time>
            <Position>
              <LatitudeDegrees>38.6354155652225017547607421875</LatitudeDegrees>
              <LongitudeDegrees>-8.22614000178873538970947265625</LongitudeDegrees>
            </Position>
            <AltitudeMeters>220.399993896484375</AltitudeMeters>
            <DistanceMeters>170441.01426149</DistanceMeters>
          </Trackpoint>
          <Trackpoint>
            <Time>2018-09-13T17:13:25.000Z</Time>
            <Position>
              <LatitudeDegrees>38.63528137095272541046142578125</LatitudeDegrees>
              <LongitudeDegrees>-8.22621795348823070526123046875</LongitudeDegrees>
            </Position>
            <AltitudeMeters>221</AltitudeMeters>
            <DistanceMeters>170457.41621373</DistanceMeters>
          </Trackpoint>
          <Trackpoint>
            <Time>2018-09-13T17:13:40.000Z</Time>
            <Position>
              <LatitudeDegrees>38.63491172902286052703857421875</LatitudeDegrees>
              <LongitudeDegrees>-8.2259550131857395172119140625</LongitudeDegrees>
            </Position>
            <AltitudeMeters>222.600006103515625</AltitudeMeters>
            <DistanceMeters>170504.48274487</DistanceMeters>
          </Trackpoint>
          <Trackpoint>
            <Time>2018-09-13T17:13:44.000Z</Time>
            <Position>
              <LatitudeDegrees>38.63484065048396587371826171875</LatitudeDegrees>
              <LongitudeDegrees>-8.22581361047923564910888671875</LongitudeDegrees>
            </Position>
            <AltitudeMeters>223.1999969482421875</AltitudeMeters>
            <DistanceMeters>170519.10204202</DistanceMeters>
          </Trackpoint>
          <Trackpoint>
            <Time>2018-09-13T17:13:49.000Z</Time>
            <Position>
              <LatitudeDegrees>38.6347570829093456268310546875</LatitudeDegrees>
              <LongitudeDegrees>-8.225653432309627532958984375</LongitudeDegrees>
            </Position>
            <AltitudeMeters>223.8000030517578125</AltitudeMeters>
            <DistanceMeters>170535.84886602</DistanceMeters>
          </Trackpoint>
          <Trackpoint>
            <Time>2018-09-13T17:13:56.000Z</Time>
            <Position>
              <LatitudeDegrees>38.63464266993105411529541015625</LatitudeDegrees>
              <LongitudeDegrees>-8.22547162882983684539794921875</LongitudeDegrees>
            </Position>
            <AltitudeMeters>225.1999969482421875</AltitudeMeters>
            <DistanceMeters>170556.14680355</DistanceMeters>
          </Trackpoint>
          <Trackpoint>
            <Time>2018-09-13T17:14:05.000Z</Time>
            <Position>
              <LatitudeDegrees>38.6345093138515949249267578125</LatitudeDegrees>
              <LongitudeDegrees>-8.2252083532512187957763671875</LongitudeDegrees>
            </Position>
            <AltitudeMeters>227.600006103515625</AltitudeMeters>
            <DistanceMeters>170583.42791241</DistanceMeters>
          </Trackpoint>
          <Trackpoint>
            <Time>2018-09-13T17:14:10.000Z</Time>
            <Position>
              <LatitudeDegrees>38.6344358883798122406005859375</LatitudeDegrees>
              <LongitudeDegrees>-8.2250677049160003662109375</LongitudeDegrees>
            </Position>
            <AltitudeMeters>228.600006103515625</AltitudeMeters>
            <DistanceMeters>170598.13588682</DistanceMeters>
          </Trackpoint>
          <Trackpoint>
            <Time>2018-09-13T17:14:17.000Z</Time>
            <Position>
              <LatitudeDegrees>38.63432482816278934478759765625</LatitudeDegrees>
              <LongitudeDegrees>-8.2248740829527378082275390625</LongitudeDegrees>
            </Position>
            <AltitudeMeters>229.600006103515625</AltitudeMeters>
            <DistanceMeters>170619.02123677</DistanceMeters>
          </Trackpoint>
          <Trackpoint>
            <Time>2018-09-13T17:14:22.000Z</Time>
            <Position>
              <LatitudeDegrees>38.634254671633243560791015625</LatitudeDegrees>
              <LongitudeDegrees>-8.22472664527595043182373046875</LongitudeDegrees>
            </Position>
            <AltitudeMeters>230</AltitudeMeters>
            <DistanceMeters>170634.03124701</DistanceMeters>
          </Trackpoint>
          <Trackpoint>
            <Time>2018-09-13T17:14:30.000Z</Time>
            <Position>
              <LatitudeDegrees>38.63411628641188144683837890625</LatitudeDegrees>
              <LongitudeDegrees>-8.2244740985333919525146484375</LongitudeDegrees>
            </Position>
            <AltitudeMeters>230.399993896484375</AltitudeMeters>
            <DistanceMeters>170660.85218994</DistanceMeters>
          </Trackpoint>
          <Trackpoint>
            <Time>2018-09-13T17:14:32.000Z</Time>
            <Position>
              <LatitudeDegrees>38.63406993448734283447265625</LatitudeDegrees>
              <LongitudeDegrees>-8.2244342006742954254150390625</LongitudeDegrees>
            </Position>
            <AltitudeMeters>230.399993896484375</AltitudeMeters>
            <DistanceMeters>170667.06899999</DistanceMeters>
          </Trackpoint>
          <Trackpoint>
            <Time>2018-09-13T17:14:36.000Z</Time>
            <Position>
              <LatitudeDegrees>38.63394521176815032958984375</LatitudeDegrees>
              <LongitudeDegrees>-8.22445792146027088165283203125</LongitudeDegrees>
            </Position>
            <AltitudeMeters>230</AltitudeMeters>
            <DistanceMeters>170681.10370902</DistanceMeters>
          </Trackpoint>
          <Trackpoint>
            <Time>2018-09-13T17:14:41.000Z</Time>
            <Position>
              <LatitudeDegrees>38.63375335000455379486083984375</LatitudeDegrees>
              <LongitudeDegrees>-8.22457493282854557037353515625</LongitudeDegrees>
            </Position>
            <AltitudeMeters>229.600006103515625</AltitudeMeters>
            <DistanceMeters>170704.757727</DistanceMeters>
          </Trackpoint>
          <Trackpoint>
            <Time>2018-09-13T17:14:44.000Z</Time>
            <Position>
              <LatitudeDegrees>38.6335983686149120330810546875</LatitudeDegrees>
              <LongitudeDegrees>-8.2246621884405612945556640625</LongitudeDegrees>
            </Position>
            <AltitudeMeters>229.1999969482421875</AltitudeMeters>
            <DistanceMeters>170723.60226961</DistanceMeters>
          </Trackpoint>
          <Trackpoint>
            <Time>2018-09-13T17:14:47.000Z</Time>
            <Position>
              <LatitudeDegrees>38.6334428004920482635498046875</LatitudeDegrees>
              <LongitudeDegrees>-8.2247550599277019500732421875</LongitudeDegrees>
            </Position>
            <AltitudeMeters>229.8000030517578125</AltitudeMeters>
            <DistanceMeters>170742.70783895</DistanceMeters>
          </Trackpoint>
          <Trackpoint>
            <Time>2018-09-13T17:14:49.000Z</Time>
            <Position>
              <LatitudeDegrees>38.6333462409675121307373046875</LatitudeDegrees>
              <LongitudeDegrees>-8.22480895556509494781494140625</LongitudeDegrees>
            </Position>
            <AltitudeMeters>230.600006103515625</AltitudeMeters>
            <DistanceMeters>170754.4327647</DistanceMeters>
          </Trackpoint>
          <Trackpoint>
            <Time>2018-09-13T17:15:03.000Z</Time>
            <Position>
              <LatitudeDegrees>38.6328419856727123260498046875</LatitudeDegrees>
              <LongitudeDegrees>-8.2250568084418773651123046875</LongitudeDegrees>
            </Position>
            <AltitudeMeters>235.600006103515625</AltitudeMeters>
            <DistanceMeters>170814.55231508</DistanceMeters>
          </Trackpoint>
          <Trackpoint>
            <Time>2018-09-13T17:15:09.000Z</Time>
            <Position>
              <LatitudeDegrees>38.6326973140239715576171875</LatitudeDegrees>
              <LongitudeDegrees>-8.22501129470765590667724609375</LongitudeDegrees>
            </Position>
            <AltitudeMeters>236.8000030517578125</AltitudeMeters>
            <DistanceMeters>170831.13331949</DistanceMeters>
          </Trackpoint>
          <Trackpoint>
            <Time>2018-09-13T17:15:10.000Z</Time>
            <Position>
              <LatitudeDegrees>38.6326813884079456329345703125</LatitudeDegrees>
              <LongitudeDegrees>-8.22498656809329986572265625</LongitudeDegrees>
            </Position>
            <AltitudeMeters>236.8000030517578125</AltitudeMeters>
            <DistanceMeters>170833.92004979</DistanceMeters>
          </Trackpoint>
          <Trackpoint>
            <Time>2018-09-13T17:15:14.000Z</Time>
            <Position>
              <LatitudeDegrees>38.63263369537889957427978515625</LatitudeDegrees>
              <LongitudeDegrees>-8.224874250590801239013671875</LongitudeDegrees>
            </Position>
            <AltitudeMeters>237</AltitudeMeters>
            <DistanceMeters>170845.03492612</DistanceMeters>
          </Trackpoint>
          <Trackpoint>
            <Time>2018-09-13T17:15:15.000Z</Time>
            <Position>
              <LatitudeDegrees>38.6326210387051105499267578125</LatitudeDegrees>
              <LongitudeDegrees>-8.22484399192035198211669921875</LongitudeDegrees>
            </Position>
            <AltitudeMeters>237</AltitudeMeters>
            <DistanceMeters>170848.01731196</DistanceMeters>
          </Trackpoint>
          <Trackpoint>
            <Time>2018-09-13T17:15:18.000Z</Time>
            <Position>
              <LatitudeDegrees>38.63258189521729946136474609375</LatitudeDegrees>
              <LongitudeDegrees>-8.22475179098546504974365234375</LongitudeDegrees>
            </Position>
            <AltitudeMeters>237.1999969482421875</AltitudeMeters>
            <DistanceMeters>170857.14086634</DistanceMeters>
          </Trackpoint>
          <Trackpoint>
            <Time>2018-09-13T17:15:22.000Z</Time>
            <Position>
              <LatitudeDegrees>38.632525317370891571044921875</LatitudeDegrees>
              <LongitudeDegrees>-8.22462287731468677520751953125</LongitudeDegrees>
            </Position>
            <AltitudeMeters>237.399993896484375</AltitudeMeters>
            <DistanceMeters>170869.99689564</DistanceMeters>
          </Trackpoint>
          <Trackpoint>
            <Time>2018-09-13T17:15:26.000Z</Time>
            <Position>
              <LatitudeDegrees>38.63246262073516845703125</LatitudeDegrees>
              <LongitudeDegrees>-8.22449916042387485504150390625</LongitudeDegrees>
            </Position>
            <AltitudeMeters>237.600006103515625</AltitudeMeters>
            <DistanceMeters>170882.81881327</DistanceMeters>
          </Trackpoint>
          <Trackpoint>
            <Time>2018-09-13T17:15:33.000Z</Time>
            <Position>
              <LatitudeDegrees>38.63228383474051952362060546875</LatitudeDegrees>
              <LongitudeDegrees>-8.22441215626895427703857421875</LongitudeDegrees>
            </Position>
            <AltitudeMeters>238.1999969482421875</AltitudeMeters>
            <DistanceMeters>170904.10734249</DistanceMeters>
          </Trackpoint>
          <Trackpoint>
            <Time>2018-09-13T17:15:41.000Z</Time>
            <Position>
              <LatitudeDegrees>38.63207411952316761016845703125</LatitudeDegrees>
              <LongitudeDegrees>-8.22448926977813243865966796875</LongitudeDegrees>
            </Position>
            <AltitudeMeters>239.399993896484375</AltitudeMeters>
            <DistanceMeters>170928.39294343</DistanceMeters>
          </Trackpoint>
          <Trackpoint>
            <Time>2018-09-13T17:15:46.000Z</Time>
            <Position>
              <LatitudeDegrees>38.63194973208010196685791015625</LatitudeDegrees>
              <LongitudeDegrees>-8.22455883957445621490478515625</LongitudeDegrees>
            </Position>
            <AltitudeMeters>240.1999969482421875</AltitudeMeters>
            <DistanceMeters>170943.50159335</DistanceMeters>
          </Trackpoint>
          <Trackpoint>
            <Time>2018-09-13T17:15:53.000Z</Time>
            <Position>
              <LatitudeDegrees>38.6317798309028148651123046875</LatitudeDegrees>
              <LongitudeDegrees>-8.22465875186026096343994140625</LongitudeDegrees>
            </Position>
            <AltitudeMeters>241.1999969482421875</AltitudeMeters>
            <DistanceMeters>170964.31179292</DistanceMeters>
          </Trackpoint>
          <Trackpoint>
            <Time>2018-09-13T17:16:00.000Z</Time>
            <Position>
              <LatitudeDegrees>38.63161311484873294830322265625</LatitudeDegrees>
              <LongitudeDegrees>-8.224730081856250762939453125</LongitudeDegrees>
            </Position>
            <AltitudeMeters>242</AltitudeMeters>
            <DistanceMeters>170983.87668342</DistanceMeters>
          </Trackpoint>
          <Trackpoint>
            <Time>2018-09-13T17:16:07.000Z</Time>
            <Position>
              <LatitudeDegrees>38.63144866190850734710693359375</LatitudeDegrees>
              <LongitudeDegrees>-8.224770985543727874755859375</LongitudeDegrees>
            </Position>
            <AltitudeMeters>242.600006103515625</AltitudeMeters>
            <DistanceMeters>171002.52275548</DistanceMeters>
          </Trackpoint>
          <Trackpoint>
            <Time>2018-09-13T17:16:13.000Z</Time>
            <Position>
              <LatitudeDegrees>38.63130784593522548675537109375</LatitudeDegrees>
              <LongitudeDegrees>-8.22479437105357646942138671875</LongitudeDegrees>
            </Position>
            <AltitudeMeters>243.1999969482421875</AltitudeMeters>
            <DistanceMeters>171018.3275008</DistanceMeters>
          </Trackpoint>
          <Trackpoint>
            <Time>2018-09-13T17:16:20.000Z</Time>
            <Position>
              <LatitudeDegrees>38.6311404593288898468017578125</LatitudeDegrees>
              <LongitudeDegrees>-8.22481834329664707183837890625</LongitudeDegrees>
            </Position>
            <AltitudeMeters>243.8000030517578125</AltitudeMeters>
            <DistanceMeters>171037.07427506</DistanceMeters>
          </Trackpoint>
          <Trackpoint>
            <Time>2018-09-13T17:16:26.000Z</Time>
            <Position>
              <LatitudeDegrees>38.63099888898432254791259765625</LatitudeDegrees>
              <LongitudeDegrees>-8.22482655756175518035888671875</LongitudeDegrees>
            </Position>
            <AltitudeMeters>244.1999969482421875</AltitudeMeters>
            <DistanceMeters>171052.84756471</DistanceMeters>
          </Trackpoint>
          <Trackpoint>
            <Time>2018-09-13T17:16:32.000Z</Time>
            <Position>
              <LatitudeDegrees>38.630836196243762969970703125</LatitudeDegrees>
              <LongitudeDegrees>-8.22486008517444133758544921875</LongitudeDegrees>
            </Position>
            <AltitudeMeters>243</AltitudeMeters>
            <DistanceMeters>171071.18870529</DistanceMeters>
          </Trackpoint>
          <Trackpoint>
            <Time>2018-09-13T17:16:38.000Z</Time>
            <Position>
              <LatitudeDegrees>38.630624301731586456298828125</LatitudeDegrees>
              <LongitudeDegrees>-8.22491758503019809722900390625</LongitudeDegrees>
            </Position>
            <AltitudeMeters>241.600006103515625</AltitudeMeters>
            <DistanceMeters>171095.29704078</DistanceMeters>
          </Trackpoint>
          <Trackpoint>
            <Time>2018-09-13T17:16:41.000Z</Time>
            <Position>
              <LatitudeDegrees>38.630498237907886505126953125</LatitudeDegrees>
              <LongitudeDegrees>-8.22495748288929462432861328125</LongitudeDegrees>
            </Position>
            <AltitudeMeters>240.8000030517578125</AltitudeMeters>
            <DistanceMeters>171109.75110071</DistanceMeters>
          </Trackpoint>
          <Trackpoint>
            <Time>2018-09-13T17:16:44.000Z</Time>
            <Position>
              <LatitudeDegrees>38.6303736828267574310302734375</LatitudeDegrees>
              <LongitudeDegrees>-8.2249887473881244659423828125</LongitudeDegrees>
            </Position>
            <AltitudeMeters>240</AltitudeMeters>
            <DistanceMeters>171123.8784766</DistanceMeters>
          </Trackpoint>
          <Trackpoint>
            <Time>2018-09-13T17:16:48.000Z</Time>
            <Position>
              <LatitudeDegrees>38.63018349744379520416259765625</LatitudeDegrees>
              <LongitudeDegrees>-8.22502587921917438507080078125</LongitudeDegrees>
            </Position>
            <AltitudeMeters>238.600006103515625</AltitudeMeters>
            <DistanceMeters>171145.29135034</DistanceMeters>
          </Trackpoint>
          <Trackpoint>
            <Time>2018-09-13T17:16:51.000Z</Time>
            <Position>
              <LatitudeDegrees>38.63002927042543888092041015625</LatitudeDegrees>
              <LongitudeDegrees>-8.2250588200986385345458984375</LongitudeDegrees>
            </Position>
            <AltitudeMeters>238</AltitudeMeters>
            <DistanceMeters>171162.69499433</DistanceMeters>
          </Trackpoint>
          <Trackpoint>
            <Time>2018-09-13T17:16:53.000Z</Time>
            <Position>
              <LatitudeDegrees>38.62992399372160434722900390625</LatitudeDegrees>
              <LongitudeDegrees>-8.2250762544572353363037109375</LongitudeDegrees>
            </Position>
            <AltitudeMeters>237.600006103515625</AltitudeMeters>
            <DistanceMeters>171174.50968525</DistanceMeters>
          </Trackpoint>
          <Trackpoint>
            <Time>2018-09-13T17:16:55.000Z</Time>
            <Position>
              <LatitudeDegrees>38.6298157833516597747802734375</LatitudeDegrees>
              <LongitudeDegrees>-8.225098215043544769287109375</LongitudeDegrees>
            </Position>
            <AltitudeMeters>237.1999969482421875</AltitudeMeters>
            <DistanceMeters>171186.70387521</DistanceMeters>
          </Trackpoint>
          <Trackpoint>
            <Time>2018-09-13T17:16:57.000Z</Time>
            <Position>
              <LatitudeDegrees>38.629709668457508087158203125</LatitudeDegrees>
              <LongitudeDegrees>-8.22511439211666584014892578125</LongitudeDegrees>
            </Position>
            <AltitudeMeters>236.600006103515625</AltitudeMeters>
            <DistanceMeters>171198.59778868</DistanceMeters>
          </Trackpoint>
          <Trackpoint>
            <Time>2018-09-13T17:16:59.000Z</Time>
            <Position>
              <LatitudeDegrees>38.6296055652201175689697265625</LatitudeDegrees>
              <LongitudeDegrees>-8.22513249702751636505126953125</LongitudeDegrees>
            </Position>
            <AltitudeMeters>236.1999969482421875</AltitudeMeters>
            <DistanceMeters>171210.29109521</DistanceMeters>
          </Trackpoint>
          <Trackpoint>
            <Time>2018-09-13T17:17:01.000Z</Time>
            <Position>
              <LatitudeDegrees>38.62950020469725131988525390625</LatitudeDegrees>
              <LongitudeDegrees>-8.2251476682722568511962890625</LongitudeDegrees>
            </Position>
            <AltitudeMeters>235.8000030517578125</AltitudeMeters>
            <DistanceMeters>171222.09202055</DistanceMeters>
          </Trackpoint>
          <Trackpoint>
            <Time>2018-09-13T17:17:02.000Z</Time>
            <Position>
              <LatitudeDegrees>38.62945024855434894561767578125</LatitudeDegrees>
              <LongitudeDegrees>-8.2251567207276821136474609375</LongitudeDegrees>
            </Position>
            <AltitudeMeters>235.600006103515625</AltitudeMeters>
            <DistanceMeters>171227.70744813</DistanceMeters>
          </Trackpoint>
          <Trackpoint>
            <Time>2018-09-13T17:17:16.000Z</Time>
            <Position>
              <LatitudeDegrees>38.6288897506892681121826171875</LatitudeDegrees>
              <LongitudeDegrees>-8.22520039044320583343505859375</LongitudeDegrees>
            </Position>
            <AltitudeMeters>236</AltitudeMeters>
            <DistanceMeters>171290.20736412</DistanceMeters>
          </Trackpoint>
          <Trackpoint>
            <Time>2018-09-13T17:17:30.000Z</Time>
            <Position>
              <LatitudeDegrees>38.6285420693457126617431640625</LatitudeDegrees>
              <LongitudeDegrees>-8.2249230332672595977783203125</LongitudeDegrees>
            </Position>
            <AltitudeMeters>234.8000030517578125</AltitudeMeters>
            <DistanceMeters>171335.80454452</DistanceMeters>
          </Trackpoint>
          <Trackpoint>
            <Time>2018-09-13T17:17:37.000Z</Time>
            <Position>
              <LatitudeDegrees>38.62839278765022754669189453125</LatitudeDegrees>
              <LongitudeDegrees>-8.2244549877941608428955078125</LongitudeDegrees>
            </Position>
            <AltitudeMeters>232</AltitudeMeters>
            <DistanceMeters>171379.76238657</DistanceMeters>
          </Trackpoint>
          <Trackpoint>
            <Time>2018-09-13T17:17:39.000Z</Time>
            <Position>
              <LatitudeDegrees>38.628337047994136810302734375</LatitudeDegrees>
              <LongitudeDegrees>-8.2242925465106964111328125</LongitudeDegrees>
            </Position>
            <AltitudeMeters>231</AltitudeMeters>
            <DistanceMeters>171395.18952807</DistanceMeters>
          </Trackpoint>
          <Trackpoint>
            <Time>2018-09-13T17:17:41.000Z</Time>
            <Position>
              <LatitudeDegrees>38.628281056880950927734375</LatitudeDegrees>
              <LongitudeDegrees>-8.22412851266562938690185546875</LongitudeDegrees>
            </Position>
            <AltitudeMeters>230.8000030517578125</AltitudeMeters>
            <DistanceMeters>171410.75448618</DistanceMeters>
          </Trackpoint>
          <Trackpoint>
            <Time>2018-09-13T17:17:43.000Z</Time>
            <Position>
              <LatitudeDegrees>38.62823822535574436187744140625</LatitudeDegrees>
              <LongitudeDegrees>-8.22399289347231388092041015625</LongitudeDegrees>
            </Position>
            <AltitudeMeters>230.600006103515625</AltitudeMeters>
            <DistanceMeters>171423.4738749</DistanceMeters>
          </Trackpoint>
          <Trackpoint>
            <Time>2018-09-13T17:17:45.000Z</Time>
            <Position>
              <LatitudeDegrees>38.62821006216108798980712890625</LatitudeDegrees>
              <LongitudeDegrees>-8.22390186600387096405029296875</LongitudeDegrees>
            </Position>
            <AltitudeMeters>230.600006103515625</AltitudeMeters>
            <DistanceMeters>171431.98659265</DistanceMeters>
          </Trackpoint>
          <Trackpoint>
            <Time>2018-09-13T17:17:48.000Z</Time>
            <Position>
              <LatitudeDegrees>38.62818625755608081817626953125</LatitudeDegrees>
              <LongitudeDegrees>-8.22385308332741260528564453125</LongitudeDegrees>
            </Position>
            <AltitudeMeters>230.399993896484375</AltitudeMeters>
            <DistanceMeters>171436.98792365</DistanceMeters>
          </Trackpoint>
          <Trackpoint>
            <Time>2018-09-13T17:17:50.000Z</Time>
            <Position>
              <LatitudeDegrees>38.62818541936576366424560546875</LatitudeDegrees>
              <LongitudeDegrees>-8.223848976194858551025390625</LongitudeDegrees>
            </Position>
            <AltitudeMeters>230.399993896484375</AltitudeMeters>
            <DistanceMeters>171437.34348106</DistanceMeters>
          </Trackpoint>
          <Trackpoint>
            <Time>2018-09-14T06:35:51.000Z</Time>
            <Position>
              <LatitudeDegrees>38.6280284263193607330322265625</LatitudeDegrees>
              <LongitudeDegrees>-8.22393380105495452880859375</LongitudeDegrees>
            </Position>
            <AltitudeMeters>230.600006103515625</AltitudeMeters>
            <DistanceMeters>171456.30982296</DistanceMeters>
          </Trackpoint>
          <Trackpoint>
            <Time>2018-09-14T06:35:52.000Z</Time>
            <Position>
              <LatitudeDegrees>38.62803085707128047943115234375</LatitudeDegrees>
              <LongitudeDegrees>-8.22393715381622314453125</LongitudeDegrees>
            </Position>
            <AltitudeMeters>230.600006103515625</AltitudeMeters>
            <DistanceMeters>171456.68992982</DistanceMeters>
          </Trackpoint>
          <Trackpoint>
            <Time>2018-09-14T06:36:24.000Z</Time>
            <Position>
              <LatitudeDegrees>38.62820268608629703521728515625</LatitudeDegrees>
              <LongitudeDegrees>-8.22397110052406787872314453125</LongitudeDegrees>
            </Position>
            <AltitudeMeters>230.600006103515625</AltitudeMeters>
            <DistanceMeters>171476.04111169</DistanceMeters>
          </Trackpoint>
          <Trackpoint>
            <Time>2018-09-14T06:36:35.000Z</Time>
            <Position>
              <LatitudeDegrees>38.62825331278145313262939453125</LatitudeDegrees>
              <LongitudeDegrees>-8.224126584827899932861328125</LongitudeDegrees>
            </Position>
            <AltitudeMeters>230.8000030517578125</AltitudeMeters>
            <DistanceMeters>171490.6878699</DistanceMeters>
          </Trackpoint>
          <Trackpoint>
            <Time>2018-09-14T06:36:47.000Z</Time>
            <Position>
              <LatitudeDegrees>38.62832707352936267852783203125</LatitudeDegrees>
              <LongitudeDegrees>-8.22434040717780590057373046875</LongitudeDegrees>
            </Position>
            <AltitudeMeters>231.399993896484375</AltitudeMeters>
            <DistanceMeters>171511.0120382</DistanceMeters>
          </Trackpoint>
          <Trackpoint>
            <Time>2018-09-14T06:36:52.000Z</Time>
            <Position>
              <LatitudeDegrees>38.628356158733367919921875</LatitudeDegrees>
              <LongitudeDegrees>-8.22442992590367794036865234375</LongitudeDegrees>
            </Position>
            <AltitudeMeters>231.8000030517578125</AltitudeMeters>
            <DistanceMeters>171519.44214506</DistanceMeters>
          </Trackpoint>
          <Trackpoint>
            <Time>2018-09-14T06:36:57.000Z</Time>
            <Position>
              <LatitudeDegrees>38.62839010544121265411376953125</LatitudeDegrees>
              <LongitudeDegrees>-8.22452430613338947296142578125</LongitudeDegrees>
            </Position>
            <AltitudeMeters>232.399993896484375</AltitudeMeters>
            <DistanceMeters>171528.47668218</DistanceMeters>
          </Trackpoint>
          <Trackpoint>
            <Time>2018-09-14T06:37:03.000Z</Time>
            <Position>
              <LatitudeDegrees>38.62842463888227939605712890625</LatitudeDegrees>
              <LongitudeDegrees>-8.22463695891201496124267578125</LongitudeDegrees>
            </Position>
            <AltitudeMeters>233</AltitudeMeters>
            <DistanceMeters>171538.99850413</DistanceMeters>
          </Trackpoint>
          <Trackpoint>
            <Time>2018-09-14T06:37:08.000Z</Time>
            <Position>
              <LatitudeDegrees>38.62845598720014095306396484375</LatitudeDegrees>
              <LongitudeDegrees>-8.2247262261807918548583984375</LongitudeDegrees>
            </Position>
            <AltitudeMeters>233.600006103515625</AltitudeMeters>
            <DistanceMeters>171547.50910006</DistanceMeters>
          </Trackpoint>
          <Trackpoint>
            <Time>2018-09-14T06:37:18.000Z</Time>
            <Position>
              <LatitudeDegrees>38.62850544042885303497314453125</LatitudeDegrees>
              <LongitudeDegrees>-8.22490878403186798095703125</LongitudeDegrees>
            </Position>
            <AltitudeMeters>234.8000030517578125</AltitudeMeters>
            <DistanceMeters>171564.30975867</DistanceMeters>
          </Trackpoint>
          <Trackpoint>
            <Time>2018-09-14T06:37:27.000Z</Time>
            <Position>
              <LatitudeDegrees>38.6285667121410369873046875</LatitudeDegrees>
              <LongitudeDegrees>-8.22506577707827091217041015625</LongitudeDegrees>
            </Position>
            <AltitudeMeters>235.600006103515625</AltitudeMeters>
            <DistanceMeters>171579.56887139</DistanceMeters>
          </Trackpoint>
          <Trackpoint>
            <Time>2018-09-14T06:37:37.000Z</Time>
            <Position>
              <LatitudeDegrees>38.62869168631732463836669921875</LatitudeDegrees>
              <LongitudeDegrees>-8.2251825369894504547119140625</LongitudeDegrees>
            </Position>
            <AltitudeMeters>236</AltitudeMeters>
            <DistanceMeters>171596.78943208</DistanceMeters>
          </Trackpoint>
          <Trackpoint>
            <Time>2018-09-14T06:37:44.000Z</Time>
            <Position>
              <LatitudeDegrees>38.62879461608827114105224609375</LatitudeDegrees>
              <LongitudeDegrees>-8.2251805253326892852783203125</LongitudeDegrees>
            </Position>
            <AltitudeMeters>236</AltitudeMeters>
            <DistanceMeters>171608.24714788</DistanceMeters>
          </Trackpoint>
          <Trackpoint>
            <Time>2018-09-14T06:37:46.000Z</Time>
            <Position>
              <LatitudeDegrees>38.62881741486489772796630859375</LatitudeDegrees>
              <LongitudeDegrees>-8.2251830399036407470703125</LongitudeDegrees>
            </Position>
            <AltitudeMeters>236</AltitudeMeters>
            <DistanceMeters>171610.79343829</DistanceMeters>
          </Trackpoint>
          <Trackpoint>
            <Time>2018-09-14T06:37:51.000Z</Time>
            <Position>
              <LatitudeDegrees>38.6288937740027904510498046875</LatitudeDegrees>
              <LongitudeDegrees>-8.2251696288585662841796875</LongitudeDegrees>
            </Position>
            <AltitudeMeters>235.8000030517578125</AltitudeMeters>
            <DistanceMeters>171619.37219829</DistanceMeters>
          </Trackpoint>
          <Trackpoint>
            <Time>2018-09-14T06:37:55.000Z</Time>
            <Position>
              <LatitudeDegrees>38.6289926804602146148681640625</LatitudeDegrees>
              <LongitudeDegrees>-8.225157894194126129150390625</LongitudeDegrees>
            </Position>
            <AltitudeMeters>235.600006103515625</AltitudeMeters>
            <DistanceMeters>171630.42760803</DistanceMeters>
          </Trackpoint>
          <Trackpoint>
            <Time>2018-09-14T06:38:00.000Z</Time>
            <Position>
              <LatitudeDegrees>38.6291599832475185394287109375</LatitudeDegrees>
              <LongitudeDegrees>-8.22515194304287433624267578125</LongitudeDegrees>
            </Position>
            <AltitudeMeters>235.399993896484375</AltitudeMeters>
            <DistanceMeters>171649.0557528</DistanceMeters>
          </Trackpoint>
          <Trackpoint>
            <Time>2018-09-14T06:38:05.000Z</Time>
            <Position>
              <LatitudeDegrees>38.62933491356670856475830078125</LatitudeDegrees>
              <LongitudeDegrees>-8.2251386158168315887451171875</LongitudeDegrees>
            </Position>
            <AltitudeMeters>235.1999969482421875</AltitudeMeters>
            <DistanceMeters>171668.56055018</DistanceMeters>
          </Trackpoint>
          <Trackpoint>
            <Time>2018-09-14T06:38:08.000Z</Time>
            <Position>
              <LatitudeDegrees>38.62942141480743885040283203125</LatitudeDegrees>
              <LongitudeDegrees>-8.2251292280852794647216796875</LongitudeDegrees>
            </Position>
            <AltitudeMeters>235.399993896484375</AltitudeMeters>
            <DistanceMeters>171678.22294948</DistanceMeters>
          </Trackpoint>
          <Trackpoint>
            <Time>2018-09-14T06:38:18.000Z</Time>
            <Position>
              <LatitudeDegrees>38.6297098360955715179443359375</LatitudeDegrees>
              <LongitudeDegrees>-8.22508371435105800628662109375</LongitudeDegrees>
            </Position>
            <AltitudeMeters>236.600006103515625</AltitudeMeters>
            <DistanceMeters>171710.56778735</DistanceMeters>
          </Trackpoint>
          <Trackpoint>
            <Time>2018-09-14T06:38:26.000Z</Time>
            <Position>
              <LatitudeDegrees>38.62991276197135448455810546875</LatitudeDegrees>
              <LongitudeDegrees>-8.2250328361988067626953125</LongitudeDegrees>
            </Position>
            <AltitudeMeters>237.399993896484375</AltitudeMeters>
            <DistanceMeters>171733.58309278</DistanceMeters>
          </Trackpoint>
          <Trackpoint>
            <Time>2018-09-14T06:38:34.000Z</Time>
            <Position>
              <LatitudeDegrees>38.630079813301563262939453125</LatitudeDegrees>
              <LongitudeDegrees>-8.2249981351196765899658203125</LongitudeDegrees>
            </Position>
            <AltitudeMeters>238</AltitudeMeters>
            <DistanceMeters>171752.41948744</DistanceMeters>
          </Trackpoint>
          <Trackpoint>
            <Time>2018-09-14T06:38:35.000Z</Time>
            <Position>
              <LatitudeDegrees>38.63009766675531864166259765625</LatitudeDegrees>
              <LongitudeDegrees>-8.22499318979680538177490234375</LongitudeDegrees>
            </Position>
            <AltitudeMeters>238.1999969482421875</AltitudeMeters>
            <DistanceMeters>171754.45314793</DistanceMeters>
          </Trackpoint>
          <Trackpoint>
            <Time>2018-09-14T06:38:38.000Z</Time>
            <Position>
              <LatitudeDegrees>38.63015064038336277008056640625</LatitudeDegrees>
              <LongitudeDegrees>-8.2249760068953037261962890625</LongitudeDegrees>
            </Position>
            <AltitudeMeters>238.1999969482421875</AltitudeMeters>
            <DistanceMeters>171760.53485765</DistanceMeters>
          </Trackpoint>
          <Trackpoint>
            <Time>2018-09-14T06:38:40.000Z</Time>
            <Position>
              <LatitudeDegrees>38.63018349744379520416259765625</LatitudeDegrees>
              <LongitudeDegrees>-8.22497315704822540283203125</LongitudeDegrees>
            </Position>
            <AltitudeMeters>238.399993896484375</AltitudeMeters>
            <DistanceMeters>171764.20047544</DistanceMeters>
          </Trackpoint>
          <Trackpoint>
            <Time>2018-09-14T06:38:43.000Z</Time>
            <Position>
              <LatitudeDegrees>38.63022674806416034698486328125</LatitudeDegrees>
              <LongitudeDegrees>-8.22496108710765838623046875</LongitudeDegrees>
            </Position>
            <AltitudeMeters>238.8000030517578125</AltitudeMeters>
            <DistanceMeters>171769.1272234</DistanceMeters>
          </Trackpoint>
          <Trackpoint>
            <Time>2018-09-14T06:38:45.000Z</Time>
            <Position>
              <LatitudeDegrees>38.6302576772868633270263671875</LatitudeDegrees>
              <LongitudeDegrees>-8.22495438158512115478515625</LongitudeDegrees>
            </Position>
            <AltitudeMeters>239</AltitudeMeters>
            <DistanceMeters>171772.61872783</DistanceMeters>
          </Trackpoint>
          <Trackpoint>
            <Time>2018-09-14T06:38:49.000Z</Time>
            <Position>
              <LatitudeDegrees>38.6303186975419521331787109375</LatitudeDegrees>
              <LongitudeDegrees>-8.22494507767260074615478515625</LongitudeDegrees>
            </Position>
            <AltitudeMeters>239.399993896484375</AltitudeMeters>
            <DistanceMeters>171779.45933132</DistanceMeters>
          </Trackpoint>
          <Trackpoint>
            <Time>2018-09-14T06:38:50.000Z</Time>
            <Position>
              <LatitudeDegrees>38.63033453933894634246826171875</LatitudeDegrees>
              <LongitudeDegrees>-8.2249391265213489532470703125</LongitudeDegrees>
            </Position>
            <AltitudeMeters>239.600006103515625</AltitudeMeters>
            <DistanceMeters>171781.29951574</DistanceMeters>
          </Trackpoint>
          <Trackpoint>
            <Time>2018-09-14T06:38:53.000Z</Time>
            <Position>
              <LatitudeDegrees>38.63037644885480403900146484375</LatitudeDegrees>
              <LongitudeDegrees>-8.22492227889597415924072265625</LongitudeDegrees>
            </Position>
            <AltitudeMeters>239.8000030517578125</AltitudeMeters>
            <DistanceMeters>171786.18762194</DistanceMeters>
          </Trackpoint>
          <Trackpoint>
            <Time>2018-09-14T06:38:55.000Z</Time>
            <Position>
              <LatitudeDegrees>38.6304072104394435882568359375</LatitudeDegrees>
              <LongitudeDegrees>-8.22491356171667575836181640625</LongitudeDegrees>
            </Position>
            <AltitudeMeters>240</AltitudeMeters>
            <DistanceMeters>171789.69460984</DistanceMeters>
          </Trackpoint>
          <Trackpoint>
            <Time>2018-09-14T06:39:00.000Z</Time>
            <Position>
              <LatitudeDegrees>38.6304752714931964874267578125</LatitudeDegrees>
              <LongitudeDegrees>-8.224897719919681549072265625</LongitudeDegrees>
            </Position>
            <AltitudeMeters>240.600006103515625</AltitudeMeters>
            <DistanceMeters>171797.39470607</DistanceMeters>
          </Trackpoint>
          <Trackpoint>
            <Time>2018-09-14T06:39:06.000Z</Time>
            <Position>
              <LatitudeDegrees>38.63056856207549571990966796875</LatitudeDegrees>
              <LongitudeDegrees>-8.22487215511500835418701171875</LongitudeDegrees>
            </Position>
            <AltitudeMeters>241.1999969482421875</AltitudeMeters>
            <DistanceMeters>171808.01348964</DistanceMeters>
          </Trackpoint>
          <Trackpoint>
            <Time>2018-09-14T06:39:13.000Z</Time>
            <Position>
              <LatitudeDegrees>38.63067903555929660797119140625</LatitudeDegrees>
              <LongitudeDegrees>-8.2248397171497344970703125</LongitudeDegrees>
            </Position>
            <AltitudeMeters>241.8000030517578125</AltitudeMeters>
            <DistanceMeters>171820.62844256</DistanceMeters>
          </Trackpoint>
          <Trackpoint>
            <Time>2018-09-14T06:39:18.000Z</Time>
            <Position>
              <LatitudeDegrees>38.63075681962072849273681640625</LatitudeDegrees>
              <LongitudeDegrees>-8.22481616400182247161865234375</LongitudeDegrees>
            </Position>
            <AltitudeMeters>242.399993896484375</AltitudeMeters>
            <DistanceMeters>171829.52448606</DistanceMeters>
          </Trackpoint>
          <Trackpoint>
            <Time>2018-09-14T06:39:31.000Z</Time>
            <Position>
              <LatitudeDegrees>38.63097240217030048370361328125</LatitudeDegrees>
              <LongitudeDegrees>-8.2247724942862987518310546875</LongitudeDegrees>
            </Position>
            <AltitudeMeters>243.8000030517578125</AltitudeMeters>
            <DistanceMeters>171853.81789414</DistanceMeters>
          </Trackpoint>
          <Trackpoint>
            <Time>2018-09-14T06:39:34.000Z</Time>
            <Position>
              <LatitudeDegrees>38.6310194246470928192138671875</LatitudeDegrees>
              <LongitudeDegrees>-8.22476889006793498992919921875</LongitudeDegrees>
            </Position>
            <AltitudeMeters>244.1999969482421875</AltitudeMeters>
            <DistanceMeters>171859.06075144</DistanceMeters>
          </Trackpoint>
          <Trackpoint>
            <Time>2018-09-14T06:39:37.000Z</Time>
            <Position>
              <LatitudeDegrees>38.63107885234057903289794921875</LatitudeDegrees>
              <LongitudeDegrees>-8.22476796805858612060546875</LongitudeDegrees>
            </Position>
            <AltitudeMeters>244</AltitudeMeters>
            <DistanceMeters>171865.67586674</DistanceMeters>
          </Trackpoint>
          <Trackpoint>
            <Time>2018-09-14T06:39:45.000Z</Time>
            <Position>
              <LatitudeDegrees>38.63131798803806304931640625</LatitudeDegrees>
              <LongitudeDegrees>-8.22478146292269229888916015625</LongitudeDegrees>
            </Position>
            <AltitudeMeters>243.1999969482421875</AltitudeMeters>
            <DistanceMeters>171892.31794115</DistanceMeters>
          </Trackpoint>
          <Trackpoint>
            <Time>2018-09-14T06:39:46.000Z</Time>
            <Position>
              <LatitudeDegrees>38.63135964609682559967041015625</LatitudeDegrees>
              <LongitudeDegrees>-8.2247761823236942291259765625</LongitudeDegrees>
            </Position>
            <AltitudeMeters>243</AltitudeMeters>
            <DistanceMeters>171896.97812718</DistanceMeters>
          </Trackpoint>
          <Trackpoint>
            <Time>2018-09-14T06:39:49.000Z</Time>
            <Position>
              <LatitudeDegrees>38.6314814351499080657958984375</LatitudeDegrees>
              <LongitudeDegrees>-8.224747180938720703125</LongitudeDegrees>
            </Position>
            <AltitudeMeters>242.399993896484375</AltitudeMeters>
            <DistanceMeters>171910.76584524</DistanceMeters>
          </Trackpoint>
          <Trackpoint>
            <Time>2018-09-14T06:39:52.000Z</Time>
            <Position>
              <LatitudeDegrees>38.63160364329814910888671875</LatitudeDegrees>
              <LongitudeDegrees>-8.22470401413738727569580078125</LongitudeDegrees>
            </Position>
            <AltitudeMeters>242</AltitudeMeters>
            <DistanceMeters>171924.87627243</DistanceMeters>
          </Trackpoint>
          <Trackpoint>
            <Time>2018-09-14T06:39:53.000Z</Time>
            <Position>
              <LatitudeDegrees>38.631646223366260528564453125</LatitudeDegrees>
              <LongitudeDegrees>-8.2246846519410610198974609375</LongitudeDegrees>
            </Position>
            <AltitudeMeters>241.8000030517578125</AltitudeMeters>
            <DistanceMeters>171929.90551135</DistanceMeters>
          </Trackpoint>
          <Trackpoint>
            <Time>2018-09-14T06:39:56.000Z</Time>
            <Position>
              <LatitudeDegrees>38.631768934428691864013671875</LatitudeDegrees>
              <LongitudeDegrees>-8.224626146256923675537109375</LongitudeDegrees>
            </Position>
            <AltitudeMeters>241.1999969482421875</AltitudeMeters>
            <DistanceMeters>171944.48026755</DistanceMeters>
          </Trackpoint>
          <Trackpoint>
            <Time>2018-09-14T06:40:00.000Z</Time>
            <Position>
              <LatitudeDegrees>38.6319012008607387542724609375</LatitudeDegrees>
              <LongitudeDegrees>-8.22453972883522510528564453125</LongitudeDegrees>
            </Position>
            <AltitudeMeters>240.399993896484375</AltitudeMeters>
            <DistanceMeters>171961.00836099</DistanceMeters>
          </Trackpoint>
          <Trackpoint>
            <Time>2018-09-14T06:40:01.000Z</Time>
            <Position>
              <LatitudeDegrees>38.63193565048277378082275390625</LatitudeDegrees>
              <LongitudeDegrees>-8.2245170138776302337646484375</LongitudeDegrees>
            </Position>
            <AltitudeMeters>240.1999969482421875</AltitudeMeters>
            <DistanceMeters>171965.32135965</DistanceMeters>
          </Trackpoint>
          <Trackpoint>
            <Time>2018-09-14T06:40:03.000Z</Time>
            <Position>
              <LatitudeDegrees>38.632007651031017303466796875</LatitudeDegrees>
              <LongitudeDegrees>-8.224476613104343414306640625</LongitudeDegrees>
            </Position>
            <AltitudeMeters>239.8000030517578125</AltitudeMeters>
            <DistanceMeters>171974.07156069</DistanceMeters>
          </Trackpoint>
          <Trackpoint>
            <Time>2018-09-14T06:40:05.000Z</Time>
            <Position>
              <LatitudeDegrees>38.6320866085588932037353515625</LatitudeDegrees>
              <LongitudeDegrees>-8.2244392298161983489990234375</LongitudeDegrees>
            </Position>
            <AltitudeMeters>239.1999969482421875</AltitudeMeters>
            <DistanceMeters>171983.44217771</DistanceMeters>
          </Trackpoint>
          <Trackpoint>
            <Time>2018-09-14T06:40:07.000Z</Time>
            <Position>
              <LatitudeDegrees>38.63216933794319629669189453125</LatitudeDegrees>
              <LongitudeDegrees>-8.2244107313454151153564453125</LongitudeDegrees>
            </Position>
            <AltitudeMeters>238.8000030517578125</AltitudeMeters>
            <DistanceMeters>171992.97805049</DistanceMeters>
          </Trackpoint>
          <Trackpoint>
            <Time>2018-09-14T06:40:12.000Z</Time>
            <Position>
              <LatitudeDegrees>38.63236782141029834747314453125</LatitudeDegrees>
              <LongitudeDegrees>-8.22439354844391345977783203125</LongitudeDegrees>
            </Position>
            <AltitudeMeters>237.8000030517578125</AltitudeMeters>
            <DistanceMeters>172015.12009061</DistanceMeters>
          </Trackpoint>
          <Trackpoint>
            <Time>2018-09-14T06:40:13.000Z</Time>
            <Position>
              <LatitudeDegrees>38.63240201957523822784423828125</LatitudeDegrees>
              <LongitudeDegrees>-8.2244171015918254852294921875</LongitudeDegrees>
            </Position>
            <AltitudeMeters>237.600006103515625</AltitudeMeters>
            <DistanceMeters>172019.4425006</DistanceMeters>
          </Trackpoint>
          <Trackpoint>
            <Time>2018-09-14T06:40:15.000Z</Time>
            <Position>
              <LatitudeDegrees>38.632464967668056488037109375</LatitudeDegrees>
              <LongitudeDegrees>-8.2244908623397350311279296875</LongitudeDegrees>
            </Position>
            <AltitudeMeters>237.600006103515625</AltitudeMeters>
            <DistanceMeters>172028.94089487</DistanceMeters>
          </Trackpoint>
          <Trackpoint>
            <Time>2018-09-14T06:40:17.000Z</Time>
            <Position>
              <LatitudeDegrees>38.63251291215419769287109375</LatitudeDegrees>
              <LongitudeDegrees>-8.22458096779882907867431640625</LongitudeDegrees>
            </Position>
            <AltitudeMeters>237.399993896484375</AltitudeMeters>
            <DistanceMeters>172038.42025618</DistanceMeters>
          </Trackpoint>
          <Trackpoint>
            <Time>2018-09-14T06:40:20.000Z</Time>
            <Position>
              <LatitudeDegrees>38.63257150165736675262451171875</LatitudeDegrees>
              <LongitudeDegrees>-8.2247084565460681915283203125</LongitudeDegrees>
            </Position>
            <AltitudeMeters>237.1999969482421875</AltitudeMeters>
            <DistanceMeters>172051.28085026</DistanceMeters>
          </Trackpoint>
          <Trackpoint>
            <Time>2018-09-14T06:40:23.000Z</Time>
            <Position>
              <LatitudeDegrees>38.63263587467372417449951171875</LatitudeDegrees>
              <LongitudeDegrees>-8.2248365320265293121337890625</LongitudeDegrees>
            </Position>
            <AltitudeMeters>237</AltitudeMeters>
            <DistanceMeters>172064.52199689</DistanceMeters>
          </Trackpoint>
          <Trackpoint>
            <Time>2018-09-14T06:40:28.000Z</Time>
            <Position>
              <LatitudeDegrees>38.632733523845672607421875</LatitudeDegrees>
              <LongitudeDegrees>-8.22501515038311481475830078125</LongitudeDegrees>
            </Position>
            <AltitudeMeters>236.399993896484375</AltitudeMeters>
            <DistanceMeters>172083.47738509</DistanceMeters>
          </Trackpoint>
          <Trackpoint>
            <Time>2018-09-14T06:40:29.000Z</Time>
            <Position>
              <LatitudeDegrees>38.6327662132680416107177734375</LatitudeDegrees>
              <LongitudeDegrees>-8.22503375820815563201904296875</LongitudeDegrees>
            </Position>
            <AltitudeMeters>236.1999969482421875</AltitudeMeters>
            <DistanceMeters>172087.45944665</DistanceMeters>
          </Trackpoint>
          <Trackpoint>
            <Time>2018-09-14T06:40:33.000Z</Time>
            <Position>
              <LatitudeDegrees>38.6329113878309726715087890625</LatitudeDegrees>
              <LongitudeDegrees>-8.22502068243920803070068359375</LongitudeDegrees>
            </Position>
            <AltitudeMeters>234.8000030517578125</AltitudeMeters>
            <DistanceMeters>172103.6575299</DistanceMeters>
          </Trackpoint>
          <Trackpoint>
            <Time>2018-09-14T06:40:37.000Z</Time>
            <Position>
              <LatitudeDegrees>38.63304407335817813873291015625</LatitudeDegrees>
              <LongitudeDegrees>-8.22495630942285060882568359375</LongitudeDegrees>
            </Position>
            <AltitudeMeters>233.600006103515625</AltitudeMeters>
            <DistanceMeters>172119.45055816</DistanceMeters>
          </Trackpoint>
          <Trackpoint>
            <Time>2018-09-14T06:40:40.000Z</Time>
            <Position>
              <LatitudeDegrees>38.63315823487937450408935546875</LatitudeDegrees>
              <LongitudeDegrees>-8.22490920312702655792236328125</LongitudeDegrees>
            </Position>
            <AltitudeMeters>232.399993896484375</AltitudeMeters>
            <DistanceMeters>172132.80037421</DistanceMeters>
          </Trackpoint>
          <Trackpoint>
            <Time>2018-09-14T06:40:44.000Z</Time>
            <Position>
              <LatitudeDegrees>38.63331011496484279632568359375</LatitudeDegrees>
              <LongitudeDegrees>-8.2248412258923053741455078125</LongitudeDegrees>
            </Position>
            <AltitudeMeters>231</AltitudeMeters>
            <DistanceMeters>172150.70830918</DistanceMeters>
          </Trackpoint>
          <Trackpoint>
            <Time>2018-09-14T06:40:49.000Z</Time>
            <Position>
              <LatitudeDegrees>38.6334937624633312225341796875</LatitudeDegrees>
              <LongitudeDegrees>-8.2247289083898067474365234375</LongitudeDegrees>
            </Position>
            <AltitudeMeters>229.1999969482421875</AltitudeMeters>
            <DistanceMeters>172173.36176906</DistanceMeters>
          </Trackpoint>
          <Trackpoint>
            <Time>2018-09-14T06:40:56.000Z</Time>
            <Position>
              <LatitudeDegrees>38.63370272330939769744873046875</LatitudeDegrees>
              <LongitudeDegrees>-8.22460829280316829681396484375</LongitudeDegrees>
            </Position>
            <AltitudeMeters>229.399993896484375</AltitudeMeters>
            <DistanceMeters>172198.87427403</DistanceMeters>
          </Trackpoint>
          <Trackpoint>
            <Time>2018-09-14T06:40:59.000Z</Time>
            <Position>
              <LatitudeDegrees>38.63378386013209819793701171875</LatitudeDegrees>
              <LongitudeDegrees>-8.22455733083188533782958984375</LongitudeDegrees>
            </Position>
            <AltitudeMeters>229.600006103515625</AltitudeMeters>
            <DistanceMeters>172208.93320074</DistanceMeters>
          </Trackpoint>
          <Trackpoint>
            <Time>2018-09-14T06:41:03.000Z</Time>
            <Position>
              <LatitudeDegrees>38.63388360477983951568603515625</LatitudeDegrees>
              <LongitudeDegrees>-8.22448776103556156158447265625</LongitudeDegrees>
            </Position>
            <AltitudeMeters>229.8000030517578125</AltitudeMeters>
            <DistanceMeters>172221.57603994</DistanceMeters>
          </Trackpoint>
          <Trackpoint>
            <Time>2018-09-14T06:41:07.000Z</Time>
            <Position>
              <LatitudeDegrees>38.633983433246612548828125</LatitudeDegrees>
              <LongitudeDegrees>-8.224436379969120025634765625</LongitudeDegrees>
            </Position>
            <AltitudeMeters>230.1999969482421875</AltitudeMeters>
            <DistanceMeters>172233.55166828</DistanceMeters>
          </Trackpoint>
          <Trackpoint>
            <Time>2018-09-14T06:41:10.000Z</Time>
            <Position>
              <LatitudeDegrees>38.63406616263091564178466796875</LatitudeDegrees>
              <LongitudeDegrees>-8.22444568388164043426513671875</LongitudeDegrees>
            </Position>
            <AltitudeMeters>230.399993896484375</AltitudeMeters>
            <DistanceMeters>172242.79567247</DistanceMeters>
          </Trackpoint>
          <Trackpoint>
            <Time>2018-09-14T06:41:14.000Z</Time>
            <Position>
              <LatitudeDegrees>38.6341458745300769805908203125</LatitudeDegrees>
              <LongitudeDegrees>-8.2245525531470775604248046875</LongitudeDegrees>
            </Position>
            <AltitudeMeters>230.399993896484375</AltitudeMeters>
            <DistanceMeters>172255.64291876</DistanceMeters>
          </Trackpoint>
          <Trackpoint>
            <Time>2018-09-14T06:41:27.000Z</Time>
            <Position>
              <LatitudeDegrees>38.634421639144420623779296875</LatitudeDegrees>
              <LongitudeDegrees>-8.2250430621206760406494140625</LongitudeDegrees>
            </Position>
            <AltitudeMeters>228.8000030517578125</AltitudeMeters>
            <DistanceMeters>172308.1860756</DistanceMeters>
          </Trackpoint>
          <Trackpoint>
            <Time>2018-09-14T06:41:32.000Z</Time>
            <Position>
              <LatitudeDegrees>38.63455717451870441436767578125</LatitudeDegrees>
              <LongitudeDegrees>-8.2252589799463748931884765625</LongitudeDegrees>
            </Position>
            <AltitudeMeters>227</AltitudeMeters>
            <DistanceMeters>172332.26892738</DistanceMeters>
          </Trackpoint>
          <Trackpoint>
            <Time>2018-09-14T06:41:36.000Z</Time>
            <Position>
              <LatitudeDegrees>38.63466748036444187164306640625</LatitudeDegrees>
              <LongitudeDegrees>-8.2254440523684024810791015625</LongitudeDegrees>
            </Position>
            <AltitudeMeters>225.1999969482421875</AltitudeMeters>
            <DistanceMeters>172352.50872526</DistanceMeters>
          </Trackpoint>
          <Trackpoint>
            <Time>2018-09-14T06:41:40.000Z</Time>
            <Position>
              <LatitudeDegrees>38.6347825638949871063232421875</LatitudeDegrees>
              <LongitudeDegrees>-8.22563976980745792388916015625</LongitudeDegrees>
            </Position>
            <AltitudeMeters>223.8000030517578125</AltitudeMeters>
            <DistanceMeters>172373.80700829</DistanceMeters>
          </Trackpoint>
          <Trackpoint>
            <Time>2018-09-14T06:41:44.000Z</Time>
            <Position>
              <LatitudeDegrees>38.63491457886993885040283203125</LatitudeDegrees>
              <LongitudeDegrees>-8.22587429545819759368896484375</LongitudeDegrees>
            </Position>
            <AltitudeMeters>222.8000030517578125</AltitudeMeters>
            <DistanceMeters>172398.93973292</DistanceMeters>
          </Trackpoint>
          <Trackpoint>
            <Time>2018-09-14T06:41:48.000Z</Time>
            <Position>
              <LatitudeDegrees>38.63504894077777862548828125</LatitudeDegrees>
              <LongitudeDegrees>-8.22611401788890361785888671875</LongitudeDegrees>
            </Position>
            <AltitudeMeters>222</AltitudeMeters>
            <DistanceMeters>172424.59201801</DistanceMeters>
          </Trackpoint>
          <Trackpoint>
            <Time>2018-09-14T06:41:51.000Z</Time>
            <Position>
              <LatitudeDegrees>38.63512404263019561767578125</LatitudeDegrees>
              <LongitudeDegrees>-8.22618191130459308624267578125</LongitudeDegrees>
            </Position>
            <AltitudeMeters>221.600006103515625</AltitudeMeters>
            <DistanceMeters>172434.82538483</DistanceMeters>
          </Trackpoint>
          <Trackpoint>
            <Time>2018-09-14T06:41:53.000Z</Time>
            <Position>
              <LatitudeDegrees>38.63516435958445072174072265625</LatitudeDegrees>
              <LongitudeDegrees>-8.22618551552295684814453125</LongitudeDegrees>
            </Position>
            <AltitudeMeters>221.600006103515625</AltitudeMeters>
            <DistanceMeters>172439.32286982</DistanceMeters>
          </Trackpoint>
          <Trackpoint>
            <Time>2018-09-14T06:41:57.000Z</Time>
            <Position>
              <LatitudeDegrees>38.635273240506649017333984375</LatitudeDegrees>
              <LongitudeDegrees>-8.22612122632563114166259765625</LongitudeDegrees>
            </Position>
            <AltitudeMeters>221.1999969482421875</AltitudeMeters>
            <DistanceMeters>172452.66862674</DistanceMeters>
          </Trackpoint>
          <Trackpoint>
            <Time>2018-09-14T06:42:01.000Z</Time>
            <Position>
              <LatitudeDegrees>38.6354170739650726318359375</LatitudeDegrees>
              <LongitudeDegrees>-8.2260287739336490631103515625</LongitudeDegrees>
            </Position>
            <AltitudeMeters>220.8000030517578125</AltitudeMeters>
            <DistanceMeters>172470.5821076</DistanceMeters>
          </Trackpoint>
          <Trackpoint>
            <Time>2018-09-14T06:42:04.000Z</Time>
            <Position>
              <LatitudeDegrees>38.63553953357040882110595703125</LatitudeDegrees>
              <LongitudeDegrees>-8.2259419374167919158935546875</LongitudeDegrees>
            </Position>
            <AltitudeMeters>220.399993896484375</AltitudeMeters>
            <DistanceMeters>172486.16359133</DistanceMeters>
          </Trackpoint>
          <Trackpoint>
            <Time>2018-09-14T06:42:07.000Z</Time>
            <Position>
              <LatitudeDegrees>38.6356800980865955352783203125</LatitudeDegrees>
              <LongitudeDegrees>-8.22583154775202274322509765625</LongitudeDegrees>
            </Position>
            <AltitudeMeters>220</AltitudeMeters>
            <DistanceMeters>172504.51777429</DistanceMeters>
          </Trackpoint>
          <Trackpoint>
            <Time>2018-09-14T06:42:08.000Z</Time>
            <Position>
              <LatitudeDegrees>38.6357327364385128021240234375</LatitudeDegrees>
              <LongitudeDegrees>-8.22578980587422847747802734375</LongitudeDegrees>
            </Position>
            <AltitudeMeters>219.8000030517578125</AltitudeMeters>
            <DistanceMeters>172511.40835786</DistanceMeters>
          </Trackpoint>
          <Trackpoint>
            <Time>2018-09-14T06:42:13.000Z</Time>
            <Position>
              <LatitudeDegrees>38.636042363941669464111328125</LatitudeDegrees>
              <LongitudeDegrees>-8.22554136626422405242919921875</LongitudeDegrees>
            </Position>
            <AltitudeMeters>218.8000030517578125</AltitudeMeters>
            <DistanceMeters>172552.08023565</DistanceMeters>
          </Trackpoint>
          <Trackpoint>
            <Time>2018-09-14T06:42:16.000Z</Time>
            <Position>
              <LatitudeDegrees>38.63626473583281040191650390625</LatitudeDegrees>
              <LongitudeDegrees>-8.22536400519311428070068359375</LongitudeDegrees>
            </Position>
            <AltitudeMeters>217</AltitudeMeters>
            <DistanceMeters>172581.24120784</DistanceMeters>
          </Trackpoint>
          <Trackpoint>
            <Time>2018-09-14T06:42:18.000Z</Time>
            <Position>
              <LatitudeDegrees>38.63642768003046512603759765625</LatitudeDegrees>
              <LongitudeDegrees>-8.22523861192166805267333984375</LongitudeDegrees>
            </Position>
            <AltitudeMeters>215.8000030517578125</AltitudeMeters>
            <DistanceMeters>172602.401675</DistanceMeters>
          </Trackpoint>
          <Trackpoint>
            <Time>2018-09-14T06:42:20.000Z</Time>
            <Position>
              <LatitudeDegrees>38.636596910655498504638671875</LatitudeDegrees>
              <LongitudeDegrees>-8.2251014001667499542236328125</LongitudeDegrees>
            </Position>
            <AltitudeMeters>214.399993896484375</AltitudeMeters>
            <DistanceMeters>172624.6971375</DistanceMeters>
          </Trackpoint>
          <Trackpoint>
            <Time>2018-09-14T06:42:22.000Z</Time>
            <Position>
              <LatitudeDegrees>38.6367764510214328765869140625</LatitudeDegrees>
              <LongitudeDegrees>-8.22495639324188232421875</LongitudeDegrees>
            </Position>
            <AltitudeMeters>212.600006103515625</AltitudeMeters>
            <DistanceMeters>172648.3246085</DistanceMeters>
          </Trackpoint>
          <Trackpoint>
            <Time>2018-09-14T06:42:24.000Z</Time>
            <Position>
              <LatitudeDegrees>38.636962361633777618408203125</LatitudeDegrees>
              <LongitudeDegrees>-8.22480811737477779388427734375</LongitudeDegrees>
            </Position>
            <AltitudeMeters>210.600006103515625</AltitudeMeters>
            <DistanceMeters>172672.70373013</DistanceMeters>
          </Trackpoint>
          <Trackpoint>
            <Time>2018-09-14T06:42:26.000Z</Time>
            <Position>
              <LatitudeDegrees>38.63715606741607189178466796875</LatitudeDegrees>
              <LongitudeDegrees>-8.22465799748897552490234375</LongitudeDegrees>
            </Position>
            <AltitudeMeters>208.600006103515625</AltitudeMeters>
            <DistanceMeters>172697.90642001</DistanceMeters>
          </Trackpoint>
          <Trackpoint>
            <Time>2018-09-14T06:42:28.000Z</Time>
            <Position>
              <LatitudeDegrees>38.6373541317880153656005859375</LatitudeDegrees>
              <LongitudeDegrees>-8.22450016625225543975830078125</LongitudeDegrees>
            </Position>
            <AltitudeMeters>206.399993896484375</AltitudeMeters>
            <DistanceMeters>172723.87289355</DistanceMeters>
          </Trackpoint>
          <Trackpoint>
            <Time>2018-09-14T06:42:29.000Z</Time>
            <Position>
              <LatitudeDegrees>38.63745513372123241424560546875</LatitudeDegrees>
              <LongitudeDegrees>-8.2244204543530941009521484375</LongitudeDegrees>
            </Position>
            <AltitudeMeters>205.399993896484375</AltitudeMeters>
            <DistanceMeters>172737.07921387</DistanceMeters>
          </Trackpoint>
          <Trackpoint>
            <Time>2018-09-14T06:42:30.000Z</Time>
            <Position>
              <LatitudeDegrees>38.637557141482830047607421875</LatitudeDegrees>
              <LongitudeDegrees>-8.2243396528065204620361328125</LongitudeDegrees>
            </Position>
            <AltitudeMeters>204.399993896484375</AltitudeMeters>
            <DistanceMeters>172750.43038269</DistanceMeters>
          </Trackpoint>
          <Trackpoint>
            <Time>2018-09-14T06:42:31.000Z</Time>
            <Position>
              <LatitudeDegrees>38.63766065798699855804443359375</LatitudeDegrees>
              <LongitudeDegrees>-8.224258683621883392333984375</LongitudeDegrees>
            </Position>
            <AltitudeMeters>203.399993896484375</AltitudeMeters>
            <DistanceMeters>172763.93220417</DistanceMeters>
          </Trackpoint>
          <Trackpoint>
            <Time>2018-09-14T06:42:32.000Z</Time>
            <Position>
              <LatitudeDegrees>38.63776492886245250701904296875</LatitudeDegrees>
              <LongitudeDegrees>-8.224177546799182891845703125</LongitudeDegrees>
            </Position>
            <AltitudeMeters>203</AltitudeMeters>
            <DistanceMeters>172777.51338017</DistanceMeters>
          </Trackpoint>
          <Trackpoint>
            <Time>2018-09-14T06:42:34.000Z</Time>
            <Position>
              <LatitudeDegrees>38.637975566089153289794921875</LatitudeDegrees>
              <LongitudeDegrees>-8.2240134291350841522216796875</LongitudeDegrees>
            </Position>
            <AltitudeMeters>202.1999969482421875</AltitudeMeters>
            <DistanceMeters>172804.95817451</DistanceMeters>
          </Trackpoint>
          <Trackpoint>
            <Time>2018-09-14T06:42:36.000Z</Time>
            <Position>
              <LatitudeDegrees>38.6381889693439006805419921875</LatitudeDegrees>
              <LongitudeDegrees>-8.223845958709716796875</LongitudeDegrees>
            </Position>
            <AltitudeMeters>201.399993896484375</AltitudeMeters>
            <DistanceMeters>172832.81753739</DistanceMeters>
          </Trackpoint>
          <Trackpoint>
            <Time>2018-09-14T06:42:37.000Z</Time>
            <Position>
              <LatitudeDegrees>38.6382965929806232452392578125</LatitudeDegrees>
              <LongitudeDegrees>-8.2237602956593036651611328125</LongitudeDegrees>
            </Position>
            <AltitudeMeters>201</AltitudeMeters>
            <DistanceMeters>172846.9225239</DistanceMeters>
          </Trackpoint>
          <Trackpoint>
            <Time>2018-09-14T06:42:38.000Z</Time>
            <Position>
              <LatitudeDegrees>38.63840480335056781768798828125</LatitudeDegrees>
              <LongitudeDegrees>-8.22367169894278049468994140625</LongitudeDegrees>
            </Position>
            <AltitudeMeters>200.600006103515625</AltitudeMeters>
            <DistanceMeters>172861.21891331</DistanceMeters>
          </Trackpoint>
          <Trackpoint>
            <Time>2018-09-14T06:42:39.000Z</Time>
            <Position>
              <LatitudeDegrees>38.63851443864405155181884765625</LatitudeDegrees>
              <LongitudeDegrees>-8.2235815934836864471435546875</LongitudeDegrees>
            </Position>
            <AltitudeMeters>200.1999969482421875</AltitudeMeters>
            <DistanceMeters>172875.71975329</DistanceMeters>
          </Trackpoint>
          <Trackpoint>
            <Time>2018-09-14T06:42:40.000Z</Time>
            <Position>
              <LatitudeDegrees>38.6386261694133281707763671875</LatitudeDegrees>
              <LongitudeDegrees>-8.22349115274846553802490234375</LongitudeDegrees>
            </Position>
            <AltitudeMeters>200</AltitudeMeters>
            <DistanceMeters>172890.43263854</DistanceMeters>
          </Trackpoint>
          <Trackpoint>
            <Time>2018-09-14T06:42:42.000Z</Time>
            <Position>
              <LatitudeDegrees>38.638851977884769439697265625</LatitudeDegrees>
              <LongitudeDegrees>-8.22330725379288196563720703125</LongitudeDegrees>
            </Position>
            <AltitudeMeters>198.8000030517578125</AltitudeMeters>
            <DistanceMeters>172920.21983799</DistanceMeters>
          </Trackpoint>
          <Trackpoint>
            <Time>2018-09-14T06:42:43.000Z</Time>
            <Position>
              <LatitudeDegrees>38.6389621160924434661865234375</LatitudeDegrees>
              <LongitudeDegrees>-8.2232142984867095947265625</LongitudeDegrees>
            </Position>
            <AltitudeMeters>198.1999969482421875</AltitudeMeters>
            <DistanceMeters>172934.90261856</DistanceMeters>
          </Trackpoint>
          <Trackpoint>
            <Time>2018-09-14T06:42:45.000Z</Time>
            <Position>
              <LatitudeDegrees>38.6391649581491947174072265625</LatitudeDegrees>
              <LongitudeDegrees>-8.22303769178688526153564453125</LongitudeDegrees>
            </Position>
            <AltitudeMeters>196.8000030517578125</AltitudeMeters>
            <DistanceMeters>172962.20539938</DistanceMeters>
          </Trackpoint>
          <Trackpoint>
            <Time>2018-09-14T06:42:47.000Z</Time>
            <Position>
              <LatitudeDegrees>38.63934156484901905059814453125</LatitudeDegrees>
              <LongitudeDegrees>-8.22287256829440593719482421875</LongitudeDegrees>
            </Position>
            <AltitudeMeters>195.8000030517578125</AltitudeMeters>
            <DistanceMeters>172986.54596871</DistanceMeters>
          </Trackpoint>
          <Trackpoint>
            <Time>2018-09-14T06:42:48.000Z</Time>
            <Position>
              <LatitudeDegrees>38.63942136056721210479736328125</LatitudeDegrees>
              <LongitudeDegrees>-8.22279252111911773681640625</LongitudeDegrees>
            </Position>
            <AltitudeMeters>194.8000030517578125</AltitudeMeters>
            <DistanceMeters>172997.82896555</DistanceMeters>
          </Trackpoint>
          <Trackpoint>
            <Time>2018-09-14T06:42:49.000Z</Time>
            <Position>
              <LatitudeDegrees>38.6394878290593624114990234375</LatitudeDegrees>
              <LongitudeDegrees>-8.22271616198122501373291015625</LongitudeDegrees>
            </Position>
            <AltitudeMeters>193.600006103515625</AltitudeMeters>
            <DistanceMeters>173007.7686872</DistanceMeters>
          </Trackpoint>
          <Trackpoint>
            <Time>2018-09-14T06:42:50.000Z</Time>
            <Position>
              <LatitudeDegrees>38.6395448260009288787841796875</LatitudeDegrees>
              <LongitudeDegrees>-8.2226336002349853515625</LongitudeDegrees>
            </Position>
            <AltitudeMeters>192.8000030517578125</AltitudeMeters>
            <DistanceMeters>173017.34802104</DistanceMeters>
          </Trackpoint>
          <Trackpoint>
            <Time>2018-09-14T06:42:51.000Z</Time>
            <Position>
              <LatitudeDegrees>38.63958832807838916778564453125</LatitudeDegrees>
              <LongitudeDegrees>-8.22254240512847900390625</LongitudeDegrees>
            </Position>
            <AltitudeMeters>192.1999969482421875</AltitudeMeters>
            <DistanceMeters>173026.63831009</DistanceMeters>
          </Trackpoint>
          <Trackpoint>
            <Time>2018-09-14T06:42:53.000Z</Time>
            <Position>
              <LatitudeDegrees>38.6396273039281368255615234375</LatitudeDegrees>
              <LongitudeDegrees>-8.22233545593917369842529296875</LongitudeDegrees>
            </Position>
            <AltitudeMeters>191.399993896484375</AltitudeMeters>
            <DistanceMeters>173045.14560134</DistanceMeters>
          </Trackpoint>
          <Trackpoint>
            <Time>2018-09-14T06:42:58.000Z</Time>
            <Position>
              <LatitudeDegrees>38.6395387910306453704833984375</LatitudeDegrees>
              <LongitudeDegrees>-8.22187981568276882171630859375</LongitudeDegrees>
            </Position>
            <AltitudeMeters>191.600006103515625</AltitudeMeters>
            <DistanceMeters>173085.9643041</DistanceMeters>
          </Trackpoint>
          <Trackpoint>
            <Time>2018-09-14T06:43:00.000Z</Time>
            <Position>
              <LatitudeDegrees>38.6395002342760562896728515625</LatitudeDegrees>
              <LongitudeDegrees>-8.2217364013195037841796875</LongitudeDegrees>
            </Position>
            <AltitudeMeters>192.1999969482421875</AltitudeMeters>
            <DistanceMeters>173099.1504378</DistanceMeters>
          </Trackpoint>
          <Trackpoint>
            <Time>2018-09-14T06:43:02.000Z</Time>
            <Position>
              <LatitudeDegrees>38.639463521540164947509765625</LatitudeDegrees>
              <LongitudeDegrees>-8.22161176241934299468994140625</LongitudeDegrees>
            </Position>
            <AltitudeMeters>192.399993896484375</AltitudeMeters>
            <DistanceMeters>173110.73122773</DistanceMeters>
          </Trackpoint>
          <Trackpoint>
            <Time>2018-09-14T06:43:05.000Z</Time>
            <Position>
              <LatitudeDegrees>38.63939411938190460205078125</LatitudeDegrees>
              <LongitudeDegrees>-8.2214520871639251708984375</LongitudeDegrees>
            </Position>
            <AltitudeMeters>190.8000030517578125</AltitudeMeters>
            <DistanceMeters>173126.61746631</DistanceMeters>
          </Trackpoint>
          <Trackpoint>
            <Time>2018-09-14T06:43:07.000Z</Time>
            <Position>
              <LatitudeDegrees>38.63934089429676532745361328125</LatitudeDegrees>
              <LongitudeDegrees>-8.2213607244193553924560546875</LongitudeDegrees>
            </Position>
            <AltitudeMeters>190.1999969482421875</AltitudeMeters>
            <DistanceMeters>173136.52625136</DistanceMeters>
          </Trackpoint>
          <Trackpoint>
            <Time>2018-09-14T06:43:09.000Z</Time>
            <Position>
              <LatitudeDegrees>38.6392856575548648834228515625</LatitudeDegrees>
              <LongitudeDegrees>-8.2212804257869720458984375</LongitudeDegrees>
            </Position>
            <AltitudeMeters>190.1999969482421875</AltitudeMeters>
            <DistanceMeters>173145.82868237</DistanceMeters>
          </Trackpoint>
          <Trackpoint>
            <Time>2018-09-14T06:43:12.000Z</Time>
            <Position>
              <LatitudeDegrees>38.639205358922481536865234375</LatitudeDegrees>
              <LongitudeDegrees>-8.22116483934223651885986328125</LongitudeDegrees>
            </Position>
            <AltitudeMeters>190.1999969482421875</AltitudeMeters>
            <DistanceMeters>173159.2772288</DistanceMeters>
          </Trackpoint>
          <Trackpoint>
            <Time>2018-09-14T06:43:14.000Z</Time>
            <Position>
              <LatitudeDegrees>38.639158420264720916748046875</LatitudeDegrees>
              <LongitudeDegrees>-8.221097029745578765869140625</LongitudeDegrees>
            </Position>
            <AltitudeMeters>190.399993896484375</AltitudeMeters>
            <DistanceMeters>173167.15470843</DistanceMeters>
          </Trackpoint>
          <Trackpoint>
            <Time>2018-09-14T06:43:16.000Z</Time>
            <Position>
              <LatitudeDegrees>38.63911055959761142730712890625</LatitudeDegrees>
              <LongitudeDegrees>-8.2210388593375682830810546875</LongitudeDegrees>
            </Position>
            <AltitudeMeters>190.8000030517578125</AltitudeMeters>
            <DistanceMeters>173174.49948049</DistanceMeters>
          </Trackpoint>
          <Trackpoint>
            <Time>2018-09-14T06:43:19.000Z</Time>
            <Position>
              <LatitudeDegrees>38.63903596065938472747802734375</LatitudeDegrees>
              <LongitudeDegrees>-8.2209599018096923828125</LongitudeDegrees>
            </Position>
            <AltitudeMeters>191.399993896484375</AltitudeMeters>
            <DistanceMeters>173185.27234188</DistanceMeters>
          </Trackpoint>
          <Trackpoint>
            <Time>2018-09-14T06:43:20.000Z</Time>
            <Position>
              <LatitudeDegrees>38.63901056349277496337890625</LatitudeDegrees>
              <LongitudeDegrees>-8.22093450464308261871337890625</LongitudeDegrees>
            </Position>
            <AltitudeMeters>191.8000030517578125</AltitudeMeters>
            <DistanceMeters>173188.85952168</DistanceMeters>
          </Trackpoint>
          <Trackpoint>
            <Time>2018-09-14T06:43:23.000Z</Time>
            <Position>
              <LatitudeDegrees>38.63893537782132625579833984375</LatitudeDegrees>
              <LongitudeDegrees>-8.22086426429450511932373046875</LongitudeDegrees>
            </Position>
            <AltitudeMeters>192.8000030517578125</AltitudeMeters>
            <DistanceMeters>173199.21874117</DistanceMeters>
          </Trackpoint>
          <Trackpoint>
            <Time>2018-09-14T06:43:24.000Z</Time>
            <Position>
              <LatitudeDegrees>38.63891023211181163787841796875</LatitudeDegrees>
              <LongitudeDegrees>-8.22084255516529083251953125</LongitudeDegrees>
            </Position>
            <AltitudeMeters>193.1999969482421875</AltitudeMeters>
            <DistanceMeters>173202.59453093</DistanceMeters>
          </Trackpoint>
          <Trackpoint>
            <Time>2018-09-14T06:43:27.000Z</Time>
            <Position>
              <LatitudeDegrees>38.6388315260410308837890625</LatitudeDegrees>
              <LongitudeDegrees>-8.22078765369951725006103515625</LongitudeDegrees>
            </Position>
            <AltitudeMeters>194.399993896484375</AltitudeMeters>
            <DistanceMeters>173212.57007314</DistanceMeters>
          </Trackpoint>
          <Trackpoint>
            <Time>2018-09-14T06:43:30.000Z</Time>
            <Position>
              <LatitudeDegrees>38.6387472040951251983642578125</LatitudeDegrees>
              <LongitudeDegrees>-8.22073434479534626007080078125</LongitudeDegrees>
            </Position>
            <AltitudeMeters>195.8000030517578125</AltitudeMeters>
            <DistanceMeters>173223.03768736</DistanceMeters>
          </Trackpoint>
          <Trackpoint>
            <Time>2018-09-14T06:43:34.000Z</Time>
            <Position>
              <LatitudeDegrees>38.63863329403102397918701171875</LatitudeDegrees>
              <LongitudeDegrees>-8.2206633500754833221435546875</LongitudeDegrees>
            </Position>
            <AltitudeMeters>196</AltitudeMeters>
            <DistanceMeters>173237.13883212</DistanceMeters>
          </Trackpoint>
          <Trackpoint>
            <Time>2018-09-14T06:43:41.000Z</Time>
            <Position>
              <LatitudeDegrees>38.6384350620210170745849609375</LatitudeDegrees>
              <LongitudeDegrees>-8.2205433212220668792724609375</LongitudeDegrees>
            </Position>
            <AltitudeMeters>196.1999969482421875</AltitudeMeters>
            <DistanceMeters>173261.5455331</DistanceMeters>
          </Trackpoint>
          <Trackpoint>
            <Time>2018-09-14T06:43:49.000Z</Time>
            <Position>
              <LatitudeDegrees>38.6382033862173557281494140625</LatitudeDegrees>
              <LongitudeDegrees>-8.22039688937366008758544921875</LongitudeDegrees>
            </Position>
            <AltitudeMeters>196.1999969482421875</AltitudeMeters>
            <DistanceMeters>173290.3028527</DistanceMeters>
          </Trackpoint>
          <Trackpoint>
            <Time>2018-09-14T06:43:51.000Z</Time>
            <Position>
              <LatitudeDegrees>38.6381421983242034912109375</LatitudeDegrees>
              <LongitudeDegrees>-8.2203609310090541839599609375</LongitudeDegrees>
            </Position>
            <AltitudeMeters>196.600006103515625</AltitudeMeters>
            <DistanceMeters>173297.79611737</DistanceMeters>
          </Trackpoint>
          <Trackpoint>
            <Time>2018-09-14T06:43:57.000Z</Time>
            <Position>
              <LatitudeDegrees>38.63796710036695003509521484375</LatitudeDegrees>
              <LongitudeDegrees>-8.22023998014628887176513671875</LongitudeDegrees>
            </Position>
            <AltitudeMeters>197.8000030517578125</AltitudeMeters>
            <DistanceMeters>173319.94080818</DistanceMeters>
          </Trackpoint>
          <Trackpoint>
            <Time>2018-09-14T06:44:05.000Z</Time>
            <Position>
              <LatitudeDegrees>38.63772117532789707183837890625</LatitudeDegrees>
              <LongitudeDegrees>-8.22006479837000370025634765625</LongitudeDegrees>
            </Position>
            <AltitudeMeters>199.399993896484375</AltitudeMeters>
            <DistanceMeters>173351.26447313</DistanceMeters>
          </Trackpoint>
          <Trackpoint>
            <Time>2018-09-14T06:44:17.000Z</Time>
            <Position>
              <LatitudeDegrees>38.6373269744217395782470703125</LatitudeDegrees>
              <LongitudeDegrees>-8.21973740123212337493896484375</LongitudeDegrees>
            </Position>
            <AltitudeMeters>200.399993896484375</AltitudeMeters>
            <DistanceMeters>173403.56388245</DistanceMeters>
          </Trackpoint>
          <Trackpoint>
            <Time>2018-09-14T06:44:25.000Z</Time>
            <Position>
              <LatitudeDegrees>38.6370758526027202606201171875</LatitudeDegrees>
              <LongitudeDegrees>-8.21952064521610736846923828125</LongitudeDegrees>
            </Position>
            <AltitudeMeters>201.1999969482421875</AltitudeMeters>
            <DistanceMeters>173437.27359648</DistanceMeters>
          </Trackpoint>
          <Trackpoint>
            <Time>2018-09-14T06:44:29.000Z</Time>
            <Position>
              <LatitudeDegrees>38.63695372827351093292236328125</LatitudeDegrees>
              <LongitudeDegrees>-8.21941067464649677276611328125</LongitudeDegrees>
            </Position>
            <AltitudeMeters>201.600006103515625</AltitudeMeters>
            <DistanceMeters>173453.89213606</DistanceMeters>
          </Trackpoint>
          <Trackpoint>
            <Time>2018-09-14T06:44:35.000Z</Time>
            <Position>
              <LatitudeDegrees>38.6367975734174251556396484375</LatitudeDegrees>
              <LongitudeDegrees>-8.21921311318874359130859375</LongitudeDegrees>
            </Position>
            <AltitudeMeters>201.8000030517578125</AltitudeMeters>
            <DistanceMeters>173478.32786349</DistanceMeters>
          </Trackpoint>
          <Trackpoint>
            <Time>2018-09-14T06:44:43.000Z</Time>
            <Position>
              <LatitudeDegrees>38.63665751181542873382568359375</LatitudeDegrees>
              <LongitudeDegrees>-8.21886819787323474884033203125</LongitudeDegrees>
            </Position>
            <AltitudeMeters>201.1999969482421875</AltitudeMeters>
            <DistanceMeters>173512.12505997</DistanceMeters>
          </Trackpoint>
          <Trackpoint>
            <Time>2018-09-14T06:44:55.000Z</Time>
            <Position>
              <LatitudeDegrees>38.63644226454198360443115234375</LatitudeDegrees>
              <LongitudeDegrees>-8.218196891248226165771484375</LongitudeDegrees>
            </Position>
            <AltitudeMeters>198</AltitudeMeters>
            <DistanceMeters>173575.2145688</DistanceMeters>
          </Trackpoint>
          <Trackpoint>
            <Time>2018-09-14T06:44:58.000Z</Time>
            <Position>
              <LatitudeDegrees>38.6363531649112701416015625</LatitudeDegrees>
              <LongitudeDegrees>-8.2179865054786205291748046875</LongitudeDegrees>
            </Position>
            <AltitudeMeters>196.8000030517578125</AltitudeMeters>
            <DistanceMeters>173596.02107968</DistanceMeters>
          </Trackpoint>
          <Trackpoint>
            <Time>2018-09-14T06:45:02.000Z</Time>
            <Position>
              <LatitudeDegrees>38.6362074874341487884521484375</LatitudeDegrees>
              <LongitudeDegrees>-8.2176710106432437896728515625</LongitudeDegrees>
            </Position>
            <AltitudeMeters>195.399993896484375</AltitudeMeters>
            <DistanceMeters>173627.88437447</DistanceMeters>
          </Trackpoint>
          <Trackpoint>
            <Time>2018-09-14T06:45:04.000Z</Time>
            <Position>
              <LatitudeDegrees>38.636129535734653472900390625</LatitudeDegrees>
              <LongitudeDegrees>-8.2174933142960071563720703125</LongitudeDegrees>
            </Position>
            <AltitudeMeters>194.8000030517578125</AltitudeMeters>
            <DistanceMeters>173645.60271631</DistanceMeters>
          </Trackpoint>
          <Trackpoint>
            <Time>2018-09-14T06:45:05.000Z</Time>
            <Position>
              <LatitudeDegrees>38.63608804531395435333251953125</LatitudeDegrees>
              <LongitudeDegrees>-8.2174031250178813934326171875</LongitudeDegrees>
            </Position>
            <AltitudeMeters>194.8000030517578125</AltitudeMeters>
            <DistanceMeters>173654.70298175</DistanceMeters>
          </Trackpoint>
          <Trackpoint>
            <Time>2018-09-14T06:45:07.000Z</Time>
            <Position>
              <LatitudeDegrees>38.6359996162354946136474609375</LatitudeDegrees>
              <LongitudeDegrees>-8.21722350083291530609130859375</LongitudeDegrees>
            </Position>
            <AltitudeMeters>194.600006103515625</AltitudeMeters>
            <DistanceMeters>173673.16263951</DistanceMeters>
          </Trackpoint>
          <Trackpoint>
            <Time>2018-09-14T06:45:09.000Z</Time>
            <Position>
              <LatitudeDegrees>38.6358986981213092803955078125</LatitudeDegrees>
              <LongitudeDegrees>-8.21704949252307415008544921875</LongitudeDegrees>
            </Position>
            <AltitudeMeters>194.399993896484375</AltitudeMeters>
            <DistanceMeters>173692.00526527</DistanceMeters>
          </Trackpoint>
          <Trackpoint>
            <Time>2018-09-14T06:45:11.000Z</Time>
            <Position>
              <LatitudeDegrees>38.63577959127724170684814453125</LatitudeDegrees>
              <LongitudeDegrees>-8.21689744479954242706298828125</LongitudeDegrees>
            </Position>
            <AltitudeMeters>194.1999969482421875</AltitudeMeters>
            <DistanceMeters>173710.72673389</DistanceMeters>
          </Trackpoint>
          <Trackpoint>
            <Time>2018-09-14T06:45:13.000Z</Time>
            <Position>
              <LatitudeDegrees>38.6356452293694019317626953125</LatitudeDegrees>
              <LongitudeDegrees>-8.21677573956549167633056640625</LongitudeDegrees>
            </Position>
            <AltitudeMeters>194</AltitudeMeters>
            <DistanceMeters>173729.04644516</DistanceMeters>
          </Trackpoint>
          <Trackpoint>
            <Time>2018-09-14T06:45:15.000Z</Time>
            <Position>
              <LatitudeDegrees>38.63550382666289806365966796875</LatitudeDegrees>
              <LongitudeDegrees>-8.21668915450572967529296875</LongitudeDegrees>
            </Position>
            <AltitudeMeters>194.399993896484375</AltitudeMeters>
            <DistanceMeters>173746.49258389</DistanceMeters>
          </Trackpoint>
          <Trackpoint>
            <Time>2018-09-14T06:45:17.000Z</Time>
            <Position>
              <LatitudeDegrees>38.63536569289863109588623046875</LatitudeDegrees>
              <LongitudeDegrees>-8.2166348397731781005859375</LongitudeDegrees>
            </Position>
            <AltitudeMeters>194.8000030517578125</AltitudeMeters>
            <DistanceMeters>173762.57597812</DistanceMeters>
          </Trackpoint>
          <Trackpoint>
            <Time>2018-09-14T06:45:25.000Z</Time>
            <Position>
              <LatitudeDegrees>38.63489865325391292572021484375</LatitudeDegrees>
              <LongitudeDegrees>-8.216481618583202362060546875</LongitudeDegrees>
            </Position>
            <AltitudeMeters>196.8000030517578125</AltitudeMeters>
            <DistanceMeters>173816.23822926</DistanceMeters>
          </Trackpoint>
          <Trackpoint>
            <Time>2018-09-14T06:45:33.000Z</Time>
            <Position>
              <LatitudeDegrees>38.63449104130268096923828125</LatitudeDegrees>
              <LongitudeDegrees>-8.21634055115282535552978515625</LongitudeDegrees>
            </Position>
            <AltitudeMeters>197.8000030517578125</AltitudeMeters>
            <DistanceMeters>173863.2348723</DistanceMeters>
          </Trackpoint>
          <Trackpoint>
            <Time>2018-09-14T06:45:38.000Z</Time>
            <Position>
              <LatitudeDegrees>38.63425232470035552978515625</LatitudeDegrees>
              <LongitudeDegrees>-8.21626494638621807098388671875</LongitudeDegrees>
            </Position>
            <AltitudeMeters>198.399993896484375</AltitudeMeters>
            <DistanceMeters>173890.60553547</DistanceMeters>
          </Trackpoint>
          <Trackpoint>
            <Time>2018-09-14T06:45:43.000Z</Time>
            <Position>
              <LatitudeDegrees>38.6340114288032054901123046875</LatitudeDegrees>
              <LongitudeDegrees>-8.21618917398154735565185546875</LongitudeDegrees>
            </Position>
            <AltitudeMeters>199.399993896484375</AltitudeMeters>
            <DistanceMeters>173918.21533433</DistanceMeters>
          </Trackpoint>
          <Trackpoint>
            <Time>2018-09-14T06:45:52.000Z</Time>
            <Position>
              <LatitudeDegrees>38.63358017988502979278564453125</LatitudeDegrees>
              <LongitudeDegrees>-8.216083310544490814208984375</LongitudeDegrees>
            </Position>
            <AltitudeMeters>199.1999969482421875</AltitudeMeters>
            <DistanceMeters>173967.08882163</DistanceMeters>
          </Trackpoint>
          <Trackpoint>
            <Time>2018-09-14T06:45:53.000Z</Time>
            <Position>
              <LatitudeDegrees>38.6335314810276031494140625</LatitudeDegrees>
              <LongitudeDegrees>-8.21607870049774646759033203125</LongitudeDegrees>
            </Position>
            <AltitudeMeters>199.399993896484375</AltitudeMeters>
            <DistanceMeters>173972.5236519</DistanceMeters>
          </Trackpoint>
          <Trackpoint>
            <Time>2018-09-14T06:46:00.000Z</Time>
            <Position>
              <LatitudeDegrees>38.63321296870708465576171875</LatitudeDegrees>
              <LongitudeDegrees>-8.21607501246035099029541015625</LongitudeDegrees>
            </Position>
            <AltitudeMeters>201</AltitudeMeters>
            <DistanceMeters>174007.97638579</DistanceMeters>
          </Trackpoint>
          <Trackpoint>
            <Time>2018-09-14T06:46:06.000Z</Time>
            <Position>
              <LatitudeDegrees>38.63297961652278900146484375</LatitudeDegrees>
              <LongitudeDegrees>-8.216096721589565277099609375</LongitudeDegrees>
            </Position>
            <AltitudeMeters>202.8000030517578125</AltitudeMeters>
            <DistanceMeters>174034.01752018</DistanceMeters>
          </Trackpoint>
          <Trackpoint>
            <Time>2018-09-14T06:46:10.000Z</Time>
            <Position>
              <LatitudeDegrees>38.63283812999725341796875</LatitudeDegrees>
              <LongitudeDegrees>-8.216117508709430694580078125</LongitudeDegrees>
            </Position>
            <AltitudeMeters>204</AltitudeMeters>
            <DistanceMeters>174049.86847747</DistanceMeters>
          </Trackpoint>
          <Trackpoint>
            <Time>2018-09-14T06:46:15.000Z</Time>
            <Position>
              <LatitudeDegrees>38.63266755826771259307861328125</LatitudeDegrees>
              <LongitudeDegrees>-8.21615396998822689056396484375</LongitudeDegrees>
            </Position>
            <AltitudeMeters>205.1999969482421875</AltitudeMeters>
            <DistanceMeters>174069.11625517</DistanceMeters>
          </Trackpoint>
          <Trackpoint>
            <Time>2018-09-14T06:46:19.000Z</Time>
            <Position>
              <LatitudeDegrees>38.63252707757055759429931640625</LatitudeDegrees>
              <LongitudeDegrees>-8.2161864079535007476806640625</LongitudeDegrees>
            </Position>
            <AltitudeMeters>205.8000030517578125</AltitudeMeters>
            <DistanceMeters>174085.00476728</DistanceMeters>
          </Trackpoint>
          <Trackpoint>
            <Time>2018-09-14T06:46:25.000Z</Time>
            <Position>
              <LatitudeDegrees>38.63231803290545940399169921875</LatitudeDegrees>
              <LongitudeDegrees>-8.216236531734466552734375</LongitudeDegrees>
            </Position>
            <AltitudeMeters>207</AltitudeMeters>
            <DistanceMeters>174108.67653028</DistanceMeters>
          </Trackpoint>
          <Trackpoint>
            <Time>2018-09-14T06:46:30.000Z</Time>
            <Position>
              <LatitudeDegrees>38.63214067183434963226318359375</LatitudeDegrees>
              <LongitudeDegrees>-8.21626595221459865570068359375</LongitudeDegrees>
            </Position>
            <AltitudeMeters>208</AltitudeMeters>
            <DistanceMeters>174128.58184852</DistanceMeters>
          </Trackpoint>
          <Trackpoint>
            <Time>2018-09-14T06:46:38.000Z</Time>
            <Position>
              <LatitudeDegrees>38.63186121918261051177978515625</LatitudeDegrees>
              <LongitudeDegrees>-8.21631842292845249176025390625</LongitudeDegrees>
            </Position>
            <AltitudeMeters>209.8000030517578125</AltitudeMeters>
            <DistanceMeters>174160.01831725</DistanceMeters>
          </Trackpoint>
          <Trackpoint>
            <Time>2018-09-14T06:46:44.000Z</Time>
            <Position>
              <LatitudeDegrees>38.6316554434597492218017578125</LatitudeDegrees>
              <LongitudeDegrees>-8.21636997163295745849609375</LongitudeDegrees>
            </Position>
            <AltitudeMeters>211</AltitudeMeters>
            <DistanceMeters>174183.35584134</DistanceMeters>
          </Trackpoint>
          <Trackpoint>
            <Time>2018-09-14T06:46:51.000Z</Time>
            <Position>
              <LatitudeDegrees>38.63142452202737331390380859375</LatitudeDegrees>
              <LongitudeDegrees>-8.2164046727120876312255859375</LongitudeDegrees>
            </Position>
            <AltitudeMeters>212.1999969482421875</AltitudeMeters>
            <DistanceMeters>174209.23435674</DistanceMeters>
          </Trackpoint>
          <Trackpoint>
            <Time>2018-09-14T06:46:56.000Z</Time>
            <Position>
              <LatitudeDegrees>38.631261326372623443603515625</LatitudeDegrees>
              <LongitudeDegrees>-8.21641422808170318603515625</LongitudeDegrees>
            </Position>
            <AltitudeMeters>212.399993896484375</AltitudeMeters>
            <DistanceMeters>174227.41701768</DistanceMeters>
          </Trackpoint>
          <Trackpoint>
            <Time>2018-09-14T06:47:02.000Z</Time>
            <Position>
              <LatitudeDegrees>38.6310670338571071624755859375</LatitudeDegrees>
              <LongitudeDegrees>-8.21642420254647731781005859375</LongitudeDegrees>
            </Position>
            <AltitudeMeters>212.8000030517578125</AltitudeMeters>
            <DistanceMeters>174249.05933884</DistanceMeters>
          </Trackpoint>
          <Trackpoint>
            <Time>2018-09-14T06:47:08.000Z</Time>
            <Position>
              <LatitudeDegrees>38.63087718375027179718017578125</LatitudeDegrees>
              <LongitudeDegrees>-8.21643962524831295013427734375</LongitudeDegrees>
            </Position>
            <AltitudeMeters>213.1999969482421875</AltitudeMeters>
            <DistanceMeters>174270.23260441</DistanceMeters>
          </Trackpoint>
          <Trackpoint>
            <Time>2018-09-14T06:47:14.000Z</Time>
            <Position>
              <LatitudeDegrees>38.63067802973091602325439453125</LatitudeDegrees>
              <LongitudeDegrees>-8.2164512760937213897705078125</LongitudeDegrees>
            </Position>
            <AltitudeMeters>213.8000030517578125</AltitudeMeters>
            <DistanceMeters>174292.42210527</DistanceMeters>
          </Trackpoint>
          <Trackpoint>
            <Time>2018-09-14T06:47:20.000Z</Time>
            <Position>
              <LatitudeDegrees>38.63047309219837188720703125</LatitudeDegrees>
              <LongitudeDegrees>-8.21648061275482177734375</LongitudeDegrees>
            </Position>
            <AltitudeMeters>214.600006103515625</AltitudeMeters>
            <DistanceMeters>174315.37415527</DistanceMeters>
          </Trackpoint>
          <Trackpoint>
            <Time>2018-09-14T06:47:34.000Z</Time>
            <Position>
              <LatitudeDegrees>38.6299150250852108001708984375</LatitudeDegrees>
              <LongitudeDegrees>-8.2165917567908763885498046875</LongitudeDegrees>
            </Position>
            <AltitudeMeters>216</AltitudeMeters>
            <DistanceMeters>174378.23545809</DistanceMeters>
          </Trackpoint>
          <Trackpoint>
            <Time>2018-09-14T06:47:35.000Z</Time>
            <Position>
              <LatitudeDegrees>38.62987269647419452667236328125</LatitudeDegrees>
              <LongitudeDegrees>-8.21660022251307964324951171875</LongitudeDegrees>
            </Position>
            <AltitudeMeters>216.1999969482421875</AltitudeMeters>
            <DistanceMeters>174383.00386794</DistanceMeters>
          </Trackpoint>
          <Trackpoint>
            <Time>2018-09-14T06:47:43.000Z</Time>
            <Position>
              <LatitudeDegrees>38.6295321397483348846435546875</LatitudeDegrees>
              <LongitudeDegrees>-8.2166681997478008270263671875</LongitudeDegrees>
            </Position>
            <AltitudeMeters>216.399993896484375</AltitudeMeters>
            <DistanceMeters>174421.3664244</DistanceMeters>
          </Trackpoint>
          <Trackpoint>
            <Time>2018-09-14T06:47:51.000Z</Time>
            <Position>
              <LatitudeDegrees>38.629181943833827972412109375</LatitudeDegrees>
              <LongitudeDegrees>-8.216703236103057861328125</LongitudeDegrees>
            </Position>
            <AltitudeMeters>216.1999969482421875</AltitudeMeters>
            <DistanceMeters>174460.46284457</DistanceMeters>
          </Trackpoint>
          <Trackpoint>
            <Time>2018-09-14T06:47:58.000Z</Time>
            <Position>
              <LatitudeDegrees>38.628802411258220672607421875</LatitudeDegrees>
              <LongitudeDegrees>-8.21669745258986949920654296875</LongitudeDegrees>
            </Position>
            <AltitudeMeters>214.8000030517578125</AltitudeMeters>
            <DistanceMeters>174502.7086054</DistanceMeters>
          </Trackpoint>
          <Trackpoint>
            <Time>2018-09-14T06:48:02.000Z</Time>
            <Position>
              <LatitudeDegrees>38.62854517064988613128662109375</LatitudeDegrees>
              <LongitudeDegrees>-8.21667633019387722015380859375</LongitudeDegrees>
            </Position>
            <AltitudeMeters>213.600006103515625</AltitudeMeters>
            <DistanceMeters>174531.39880561</DistanceMeters>
          </Trackpoint>
          <Trackpoint>
            <Time>2018-09-14T06:48:06.000Z</Time>
            <Position>
              <LatitudeDegrees>38.62826035358011722564697265625</LatitudeDegrees>
              <LongitudeDegrees>-8.2166531123220920562744140625</LongitudeDegrees>
            </Position>
            <AltitudeMeters>213.399993896484375</AltitudeMeters>
            <DistanceMeters>174563.16389245</DistanceMeters>
          </Trackpoint>
          <Trackpoint>
            <Time>2018-09-14T06:48:09.000Z</Time>
            <Position>
              <LatitudeDegrees>38.6280334554612636566162109375</LatitudeDegrees>
              <LongitudeDegrees>-8.2166321575641632080078125</LongitudeDegrees>
            </Position>
            <AltitudeMeters>213.1999969482421875</AltitudeMeters>
            <DistanceMeters>174588.48347474</DistanceMeters>
          </Trackpoint>
          <Trackpoint>
            <Time>2018-09-14T06:48:10.000Z</Time>
            <Position>
              <LatitudeDegrees>38.6279590241611003875732421875</LatitudeDegrees>
              <LongitudeDegrees>-8.21661078371107578277587890625</LongitudeDegrees>
            </Position>
            <AltitudeMeters>213.1999969482421875</AltitudeMeters>
            <DistanceMeters>174596.97335519</DistanceMeters>
          </Trackpoint>
          <Trackpoint>
            <Time>2018-09-14T06:48:15.000Z</Time>
            <Position>
              <LatitudeDegrees>38.6276492290198802947998046875</LatitudeDegrees>
              <LongitudeDegrees>-8.21637474931776523590087890625</LongitudeDegrees>
            </Position>
            <AltitudeMeters>213.8000030517578125</AltitudeMeters>
            <DistanceMeters>174637.09984109</DistanceMeters>
          </Trackpoint>
          <Trackpoint>
            <Time>2018-09-14T06:48:16.000Z</Time>
            <Position>
              <LatitudeDegrees>38.627598099410533905029296875</LatitudeDegrees>
              <LongitudeDegrees>-8.21630903519690036773681640625</LongitudeDegrees>
            </Position>
            <AltitudeMeters>214</AltitudeMeters>
            <DistanceMeters>174645.16424501</DistanceMeters>
          </Trackpoint>
          <Trackpoint>
            <Time>2018-09-14T06:48:25.000Z</Time>
            <Position>
              <LatitudeDegrees>38.627260141074657440185546875</LatitudeDegrees>
              <LongitudeDegrees>-8.21576513350009918212890625</LongitudeDegrees>
            </Position>
            <AltitudeMeters>217.600006103515625</AltitudeMeters>
            <DistanceMeters>174705.59234462</DistanceMeters>
          </Trackpoint>
          <Trackpoint>
            <Time>2018-09-14T06:48:30.000Z</Time>
            <Position>
              <LatitudeDegrees>38.62710298039019107818603515625</LatitudeDegrees>
              <LongitudeDegrees>-8.2155463658273220062255859375</LongitudeDegrees>
            </Position>
            <AltitudeMeters>219.399993896484375</AltitudeMeters>
            <DistanceMeters>174731.43471938</DistanceMeters>
          </Trackpoint>
          <Trackpoint>
            <Time>2018-09-14T06:48:33.000Z</Time>
            <Position>
              <LatitudeDegrees>38.627014048397541046142578125</LatitudeDegrees>
              <LongitudeDegrees>-8.21543077938258647918701171875</LongitudeDegrees>
            </Position>
            <AltitudeMeters>220.1999969482421875</AltitudeMeters>
            <DistanceMeters>174745.54130631</DistanceMeters>
          </Trackpoint>
          <Trackpoint>
            <Time>2018-09-14T06:48:37.000Z</Time>
            <Position>
              <LatitudeDegrees>38.626901395618915557861328125</LatitudeDegrees>
              <LongitudeDegrees>-8.2152848504483699798583984375</LongitudeDegrees>
            </Position>
            <AltitudeMeters>221.399993896484375</AltitudeMeters>
            <DistanceMeters>174763.38002526</DistanceMeters>
          </Trackpoint>
          <Trackpoint>
            <Time>2018-09-14T06:48:40.000Z</Time>
            <Position>
              <LatitudeDegrees>38.62682017497718334197998046875</LatitudeDegrees>
              <LongitudeDegrees>-8.21517278440296649932861328125</LongitudeDegrees>
            </Position>
            <AltitudeMeters>222</AltitudeMeters>
            <DistanceMeters>174776.67188162</DistanceMeters>
          </Trackpoint>
          <Trackpoint>
            <Time>2018-09-14T06:48:43.000Z</Time>
            <Position>
              <LatitudeDegrees>38.62673451192677021026611328125</LatitudeDegrees>
              <LongitudeDegrees>-8.21505543775856494903564453125</LongitudeDegrees>
            </Position>
            <AltitudeMeters>222.8000030517578125</AltitudeMeters>
            <DistanceMeters>174790.63660614</DistanceMeters>
          </Trackpoint>
          <Trackpoint>
            <Time>2018-09-14T06:48:47.000Z</Time>
            <Position>
              <LatitudeDegrees>38.62663124687969684600830078125</LatitudeDegrees>
              <LongitudeDegrees>-8.21487857960164546966552734375</LongitudeDegrees>
            </Position>
            <AltitudeMeters>223.600006103515625</AltitudeMeters>
            <DistanceMeters>174809.83529517</DistanceMeters>
          </Trackpoint>
          <Trackpoint>
            <Time>2018-09-14T06:48:51.000Z</Time>
            <Position>
              <LatitudeDegrees>38.6265354417264461517333984375</LatitudeDegrees>
              <LongitudeDegrees>-8.21469493210315704345703125</LongitudeDegrees>
            </Position>
            <AltitudeMeters>224.399993896484375</AltitudeMeters>
            <DistanceMeters>174829.03680608</DistanceMeters>
          </Trackpoint>
          <Trackpoint>
            <Time>2018-09-14T06:48:58.000Z</Time>
            <Position>
              <LatitudeDegrees>38.626367636024951934814453125</LatitudeDegrees>
              <LongitudeDegrees>-8.21436543948948383331298828125</LongitudeDegrees>
            </Position>
            <AltitudeMeters>225.399993896484375</AltitudeMeters>
            <DistanceMeters>174863.23718329</DistanceMeters>
          </Trackpoint>
          <Trackpoint>
            <Time>2018-09-14T06:49:07.000Z</Time>
            <Position>
              <LatitudeDegrees>38.62615129910409450531005859375</LatitudeDegrees>
              <LongitudeDegrees>-8.21397836320102214813232421875</LongitudeDegrees>
            </Position>
            <AltitudeMeters>227.8000030517578125</AltitudeMeters>
            <DistanceMeters>174904.62085372</DistanceMeters>
          </Trackpoint>
          <Trackpoint>
            <Time>2018-09-14T06:49:08.000Z</Time>
            <Position>
              <LatitudeDegrees>38.62612657248973846435546875</LatitudeDegrees>
              <LongitudeDegrees>-8.213940560817718505859375</LongitudeDegrees>
            </Position>
            <AltitudeMeters>228.1999969482421875</AltitudeMeters>
            <DistanceMeters>174908.906548</DistanceMeters>
          </Trackpoint>
          <Trackpoint>
            <Time>2018-09-14T06:49:14.000Z</Time>
            <Position>
              <LatitudeDegrees>38.62599807791411876678466796875</LatitudeDegrees>
              <LongitudeDegrees>-8.21373310871422290802001953125</LongitudeDegrees>
            </Position>
            <AltitudeMeters>229.8000030517578125</AltitudeMeters>
            <DistanceMeters>174931.92695344</DistanceMeters>
          </Trackpoint>
          <Trackpoint>
            <Time>2018-09-14T06:49:17.000Z</Time>
            <Position>
              <LatitudeDegrees>38.62593756057322025299072265625</LatitudeDegrees>
              <LongitudeDegrees>-8.2136399857699871063232421875</LongitudeDegrees>
            </Position>
            <AltitudeMeters>230.399993896484375</AltitudeMeters>
            <DistanceMeters>174942.45949772</DistanceMeters>
          </Trackpoint>
          <Trackpoint>
            <Time>2018-09-14T06:49:21.000Z</Time>
            <Position>
              <LatitudeDegrees>38.62585793249309062957763671875</LatitudeDegrees>
              <LongitudeDegrees>-8.2135169394314289093017578125</LongitudeDegrees>
            </Position>
            <AltitudeMeters>231.1999969482421875</AltitudeMeters>
            <DistanceMeters>174956.35258535</DistanceMeters>
          </Trackpoint>
          <Trackpoint>
            <Time>2018-09-14T06:49:26.000Z</Time>
            <Position>
              <LatitudeDegrees>38.62574863247573375701904296875</LatitudeDegrees>
              <LongitudeDegrees>-8.21337386034429073333740234375</LongitudeDegrees>
            </Position>
            <AltitudeMeters>231</AltitudeMeters>
            <DistanceMeters>174973.7531159</DistanceMeters>
          </Trackpoint>
          <Trackpoint>
            <Time>2018-09-14T06:49:31.000Z</Time>
            <Position>
              <LatitudeDegrees>38.625616617500782012939453125</LatitudeDegrees>
              <LongitudeDegrees>-8.2132631354033946990966796875</LongitudeDegrees>
            </Position>
            <AltitudeMeters>230.8000030517578125</AltitudeMeters>
            <DistanceMeters>174991.31995489</DistanceMeters>
          </Trackpoint>
          <Trackpoint>
            <Time>2018-09-14T06:49:37.000Z</Time>
            <Position>
              <LatitudeDegrees>38.62542978487908840179443359375</LatitudeDegrees>
              <LongitudeDegrees>-8.2132098264992237091064453125</LongitudeDegrees>
            </Position>
            <AltitudeMeters>230.8000030517578125</AltitudeMeters>
            <DistanceMeters>175012.62523247</DistanceMeters>
          </Trackpoint>
          <Trackpoint>
            <Time>2018-09-14T06:49:44.000Z</Time>
            <Position>
              <LatitudeDegrees>38.62520464695990085601806640625</LatitudeDegrees>
              <LongitudeDegrees>-8.21325601078569889068603515625</LongitudeDegrees>
            </Position>
            <AltitudeMeters>231.399993896484375</AltitudeMeters>
            <DistanceMeters>175038.00323697</DistanceMeters>
          </Trackpoint>
          <Trackpoint>
            <Time>2018-09-14T06:49:48.000Z</Time>
            <Position>
              <LatitudeDegrees>38.62506953068077564239501953125</LatitudeDegrees>
              <LongitudeDegrees>-8.21330764330923557281494140625</LongitudeDegrees>
            </Position>
            <AltitudeMeters>232</AltitudeMeters>
            <DistanceMeters>175053.69789928</DistanceMeters>
          </Trackpoint>
          <Trackpoint>
            <Time>2018-09-14T06:49:54.000Z</Time>
            <Position>
              <LatitudeDegrees>38.62484422512352466583251953125</LatitudeDegrees>
              <LongitudeDegrees>-8.21339531801640987396240234375</LongitudeDegrees>
            </Position>
            <AltitudeMeters>233.1999969482421875</AltitudeMeters>
            <DistanceMeters>175079.90805181</DistanceMeters>
          </Trackpoint>
          <Trackpoint>
            <Time>2018-09-14T06:50:06.000Z</Time>
            <Position>
              <LatitudeDegrees>38.62429185770452022552490234375</LatitudeDegrees>
              <LongitudeDegrees>-8.21345315314829349517822265625</LongitudeDegrees>
            </Position>
            <AltitudeMeters>235.1999969482421875</AltitudeMeters>
            <DistanceMeters>175141.59305349</DistanceMeters>
          </Trackpoint>
          <Trackpoint>
            <Time>2018-09-14T06:50:14.000Z</Time>
            <Position>
              <LatitudeDegrees>38.62387075088918209075927734375</LatitudeDegrees>
              <LongitudeDegrees>-8.2134274207055568695068359375</LongitudeDegrees>
            </Position>
            <AltitudeMeters>236</AltitudeMeters>
            <DistanceMeters>175188.51643294</DistanceMeters>
          </Trackpoint>
          <Trackpoint>
            <Time>2018-09-14T06:50:24.000Z</Time>
            <Position>
              <LatitudeDegrees>38.623296506702899932861328125</LatitudeDegrees>
              <LongitudeDegrees>-8.21338492445647716522216796875</LongitudeDegrees>
            </Position>
            <AltitudeMeters>238</AltitudeMeters>
            <DistanceMeters>175252.5377154</DistanceMeters>
          </Trackpoint>
          <Trackpoint>
            <Time>2018-09-14T06:50:34.000Z</Time>
            <Position>
              <LatitudeDegrees>38.62274271436035633087158203125</LatitudeDegrees>
              <LongitudeDegrees>-8.21334603242576122283935546875</LongitudeDegrees>
            </Position>
            <AltitudeMeters>240.399993896484375</AltitudeMeters>
            <DistanceMeters>175314.26859332</DistanceMeters>
          </Trackpoint>
          <Trackpoint>
            <Time>2018-09-14T06:50:38.000Z</Time>
            <Position>
              <LatitudeDegrees>38.62255982123315334320068359375</LatitudeDegrees>
              <LongitudeDegrees>-8.2133322022855281829833984375</LongitudeDegrees>
            </Position>
            <AltitudeMeters>240.8000030517578125</AltitudeMeters>
            <DistanceMeters>175334.66040516</DistanceMeters>
          </Trackpoint>
          <Trackpoint>
            <Time>2018-09-14T06:50:41.000Z</Time>
            <Position>
              <LatitudeDegrees>38.62242202274501323699951171875</LatitudeDegrees>
              <LongitudeDegrees>-8.213325999677181243896484375</LongitudeDegrees>
            </Position>
            <AltitudeMeters>240.600006103515625</AltitudeMeters>
            <DistanceMeters>175350.00714599</DistanceMeters>
          </Trackpoint>
          <Trackpoint>
            <Time>2018-09-14T06:50:46.000Z</Time>
            <Position>
              <LatitudeDegrees>38.62221297807991504669189453125</LatitudeDegrees>
              <LongitudeDegrees>-8.21330688893795013427734375</LongitudeDegrees>
            </Position>
            <AltitudeMeters>240.600006103515625</AltitudeMeters>
            <DistanceMeters>175373.3334463</DistanceMeters>
          </Trackpoint>
          <Trackpoint>
            <Time>2018-09-14T06:50:51.000Z</Time>
            <Position>
              <LatitudeDegrees>38.62200091592967510223388671875</LatitudeDegrees>
              <LongitudeDegrees>-8.2132936455309391021728515625</LongitudeDegrees>
            </Position>
            <AltitudeMeters>240.600006103515625</AltitudeMeters>
            <DistanceMeters>175396.96454778</DistanceMeters>
          </Trackpoint>
          <Trackpoint>
            <Time>2018-09-14T06:50:53.000Z</Time>
            <Position>
              <LatitudeDegrees>38.62191357649862766265869140625</LatitudeDegrees>
              <LongitudeDegrees>-8.21328987367451190948486328125</LongitudeDegrees>
            </Position>
            <AltitudeMeters>240.8000030517578125</AltitudeMeters>
            <DistanceMeters>175406.69168204</DistanceMeters>
          </Trackpoint>
          <Trackpoint>
            <Time>2018-09-14T06:51:01.000Z</Time>
            <Position>
              <LatitudeDegrees>38.621561117470264434814453125</LatitudeDegrees>
              <LongitudeDegrees>-8.21330026723444461822509765625</LongitudeDegrees>
            </Position>
            <AltitudeMeters>241.8000030517578125</AltitudeMeters>
            <DistanceMeters>175445.93150219</DistanceMeters>
          </Trackpoint>
          <Trackpoint>
            <Time>2018-09-14T06:51:06.000Z</Time>
            <Position>
              <LatitudeDegrees>38.62132097594439983367919921875</LatitudeDegrees>
              <LongitudeDegrees>-8.213332034647464752197265625</LongitudeDegrees>
            </Position>
            <AltitudeMeters>242.1999969482421875</AltitudeMeters>
            <DistanceMeters>175472.80205954</DistanceMeters>
          </Trackpoint>
          <Trackpoint>
            <Time>2018-09-14T06:51:14.000Z</Time>
            <Position>
              <LatitudeDegrees>38.62092845141887664794921875</LatitudeDegrees>
              <LongitudeDegrees>-8.21338090114295482635498046875</LongitudeDegrees>
            </Position>
            <AltitudeMeters>243</AltitudeMeters>
            <DistanceMeters>175516.69699627</DistanceMeters>
          </Trackpoint>
          <Trackpoint>
            <Time>2018-09-14T06:51:25.000Z</Time>
            <Position>
              <LatitudeDegrees>38.620374910533428192138671875</LatitudeDegrees>
              <LongitudeDegrees>-8.213448710739612579345703125</LongitudeDegrees>
            </Position>
            <AltitudeMeters>244.600006103515625</AltitudeMeters>
            <DistanceMeters>175578.58872042</DistanceMeters>
          </Trackpoint>
          <Trackpoint>
            <Time>2018-09-14T06:51:34.000Z</Time>
            <Position>
              <LatitudeDegrees>38.6199043504893779754638671875</LatitudeDegrees>
              <LongitudeDegrees>-8.2135122455656528472900390625</LongitudeDegrees>
            </Position>
            <AltitudeMeters>245.1999969482421875</AltitudeMeters>
            <DistanceMeters>175631.25358517</DistanceMeters>
          </Trackpoint>
          <Trackpoint>
            <Time>2018-09-14T06:51:45.000Z</Time>
            <Position>
              <LatitudeDegrees>38.619333542883396148681640625</LatitudeDegrees>
              <LongitudeDegrees>-8.2135759480297565460205078125</LongitudeDegrees>
            </Position>
            <AltitudeMeters>245.8000030517578125</AltitudeMeters>
            <DistanceMeters>175695.02663551</DistanceMeters>
          </Trackpoint>
          <Trackpoint>
            <Time>2018-09-14T06:51:48.000Z</Time>
            <Position>
              <LatitudeDegrees>38.619181998074054718017578125</LatitudeDegrees>
              <LongitudeDegrees>-8.2135937176644802093505859375</LongitudeDegrees>
            </Position>
            <AltitudeMeters>246</AltitudeMeters>
            <DistanceMeters>175711.964331</DistanceMeters>
          </Trackpoint>
          <Trackpoint>
            <Time>2018-09-14T06:51:56.000Z</Time>
            <Position>
              <LatitudeDegrees>38.61881059594452381134033203125</LatitudeDegrees>
              <LongitudeDegrees>-8.2136356271803379058837890625</LongitudeDegrees>
            </Position>
            <AltitudeMeters>246.8000030517578125</AltitudeMeters>
            <DistanceMeters>175753.46250914</DistanceMeters>
          </Trackpoint>
          <Trackpoint>
            <Time>2018-09-14T06:52:03.000Z</Time>
            <Position>
              <LatitudeDegrees>38.61850851215422153472900390625</LatitudeDegrees>
              <LongitudeDegrees>-8.21362196467816829681396484375</LongitudeDegrees>
            </Position>
            <AltitudeMeters>247.600006103515625</AltitudeMeters>
            <DistanceMeters>175787.10599234</DistanceMeters>
          </Trackpoint>
          <Trackpoint>
            <Time>2018-09-14T06:52:09.000Z</Time>
            <Position>
              <LatitudeDegrees>38.61825571395456790924072265625</LatitudeDegrees>
              <LongitudeDegrees>-8.21351199410855770111083984375</LongitudeDegrees>
            </Position>
            <AltitudeMeters>246.600006103515625</AltitudeMeters>
            <DistanceMeters>175816.82399255</DistanceMeters>
          </Trackpoint>
          <Trackpoint>
            <Time>2018-09-14T06:52:20.000Z</Time>
            <Position>
              <LatitudeDegrees>38.61777207814157009124755859375</LatitudeDegrees>
              <LongitudeDegrees>-8.213111422955989837646484375</LongitudeDegrees>
            </Position>
            <AltitudeMeters>245.1999969482421875</AltitudeMeters>
            <DistanceMeters>175880.94182012</DistanceMeters>
          </Trackpoint>
          <Trackpoint>
            <Time>2018-09-14T06:52:27.000Z</Time>
            <Position>
              <LatitudeDegrees>38.61743931658565998077392578125</LatitudeDegrees>
              <LongitudeDegrees>-8.2127907313406467437744140625</LongitudeDegrees>
            </Position>
            <AltitudeMeters>245.1999969482421875</AltitudeMeters>
            <DistanceMeters>175927.30453506</DistanceMeters>
          </Trackpoint>
          <Trackpoint>
            <Time>2018-09-14T06:52:31.000Z</Time>
            <Position>
              <LatitudeDegrees>38.61725323833525180816650390625</LatitudeDegrees>
              <LongitudeDegrees>-8.21258747018873691558837890625</LongitudeDegrees>
            </Position>
            <AltitudeMeters>244.399993896484375</AltitudeMeters>
            <DistanceMeters>175954.53296388</DistanceMeters>
          </Trackpoint>
          <Trackpoint>
            <Time>2018-09-14T06:52:38.000Z</Time>
            <Position>
              <LatitudeDegrees>38.6169374920427799224853515625</LatitudeDegrees>
              <LongitudeDegrees>-8.21220659650862216949462890625</LongitudeDegrees>
            </Position>
            <AltitudeMeters>244.1999969482421875</AltitudeMeters>
            <DistanceMeters>176002.82514371</DistanceMeters>
          </Trackpoint>
          <Trackpoint>
            <Time>2018-09-14T06:52:47.000Z</Time>
            <Position>
              <LatitudeDegrees>38.61654329113662242889404296875</LatitudeDegrees>
              <LongitudeDegrees>-8.21172078140079975128173828125</LongitudeDegrees>
            </Position>
            <AltitudeMeters>245.1999969482421875</AltitudeMeters>
            <DistanceMeters>176063.73482149</DistanceMeters>
          </Trackpoint>
          <Trackpoint>
            <Time>2018-09-14T06:52:57.000Z</Time>
            <Position>
              <LatitudeDegrees>38.6161200888454914093017578125</LatitudeDegrees>
              <LongitudeDegrees>-8.2111931405961513519287109375</LongitudeDegrees>
            </Position>
            <AltitudeMeters>246.600006103515625</AltitudeMeters>
            <DistanceMeters>176129.49399444</DistanceMeters>
          </Trackpoint>
          <Trackpoint>
            <Time>2018-09-14T06:53:07.000Z</Time>
            <Position>
              <LatitudeDegrees>38.61569085158407688140869140625</LatitudeDegrees>
              <LongitudeDegrees>-8.21066063828766345977783203125</LongitudeDegrees>
            </Position>
            <AltitudeMeters>247.600006103515625</AltitudeMeters>
            <DistanceMeters>176196.02972925</DistanceMeters>
          </Trackpoint>
          <Trackpoint>
            <Time>2018-09-14T06:53:17.000Z</Time>
            <Position>
              <LatitudeDegrees>38.61527896486222743988037109375</LatitudeDegrees>
              <LongitudeDegrees>-8.21014800108969211578369140625</LongitudeDegrees>
            </Position>
            <AltitudeMeters>248.1999969482421875</AltitudeMeters>
            <DistanceMeters>176259.97663619</DistanceMeters>
          </Trackpoint>
          <Trackpoint>
            <Time>2018-09-14T06:53:23.000Z</Time>
            <Position>
              <LatitudeDegrees>38.615044690668582916259765625</LatitudeDegrees>
              <LongitudeDegrees>-8.209851868450641632080078125</LongitudeDegrees>
            </Position>
            <AltitudeMeters>248.8000030517578125</AltitudeMeters>
            <DistanceMeters>176296.62591573</DistanceMeters>
          </Trackpoint>
          <Trackpoint>
            <Time>2018-09-14T06:53:33.000Z</Time>
            <Position>
              <LatitudeDegrees>38.61465048976242542266845703125</LatitudeDegrees>
              <LongitudeDegrees>-8.20942346937954425811767578125</LongitudeDegrees>
            </Position>
            <AltitudeMeters>249.399993896484375</AltitudeMeters>
            <DistanceMeters>176354.1854408</DistanceMeters>
          </Trackpoint>
          <Trackpoint>
            <Time>2018-09-14T06:53:41.000Z</Time>
            <Position>
              <LatitudeDegrees>38.61433683894574642181396484375</LatitudeDegrees>
              <LongitudeDegrees>-8.2091268338263034820556640625</LongitudeDegrees>
            </Position>
            <AltitudeMeters>249.8000030517578125</AltitudeMeters>
            <DistanceMeters>176397.59320291</DistanceMeters>
          </Trackpoint>
          <Trackpoint>
            <Time>2018-09-14T06:53:49.000Z</Time>
            <Position>
              <LatitudeDegrees>38.61400977708399295806884765625</LatitudeDegrees>
              <LongitudeDegrees>-8.20884427987039089202880859375</LongitudeDegrees>
            </Position>
            <AltitudeMeters>251.600006103515625</AltitudeMeters>
            <DistanceMeters>176441.51343594</DistanceMeters>
          </Trackpoint>
          <Trackpoint>
            <Time>2018-09-14T06:53:58.000Z</Time>
            <Position>
              <LatitudeDegrees>38.6136252991855144500732421875</LatitudeDegrees>
              <LongitudeDegrees>-8.208509422838687896728515625</LongitudeDegrees>
            </Position>
            <AltitudeMeters>251.1999969482421875</AltitudeMeters>
            <DistanceMeters>176493.27570059</DistanceMeters>
          </Trackpoint>
          <Trackpoint>
            <Time>2018-09-14T06:54:09.000Z</Time>
            <Position>
              <LatitudeDegrees>38.6131478659808635711669921875</LatitudeDegrees>
              <LongitudeDegrees>-8.20809024386107921600341796875</LongitudeDegrees>
            </Position>
            <AltitudeMeters>252.8000030517578125</AltitudeMeters>
            <DistanceMeters>176557.71768702</DistanceMeters>
          </Trackpoint>
          <Trackpoint>
            <Time>2018-09-14T06:54:19.000Z</Time>
            <Position>
              <LatitudeDegrees>38.61271477304399013519287109375</LatitudeDegrees>
              <LongitudeDegrees>-8.20770601741969585418701171875</LongitudeDegrees>
            </Position>
            <AltitudeMeters>254.600006103515625</AltitudeMeters>
            <DistanceMeters>176616.37142061</DistanceMeters>
          </Trackpoint>
          <Trackpoint>
            <Time>2018-09-14T06:54:30.000Z</Time>
            <Position>
              <LatitudeDegrees>38.6122620664536952972412109375</LatitudeDegrees>
              <LongitudeDegrees>-8.20730485953390598297119140625</LongitudeDegrees>
            </Position>
            <AltitudeMeters>256.20001220703125</AltitudeMeters>
            <DistanceMeters>176677.65834733</DistanceMeters>
          </Trackpoint>
          <Trackpoint>
            <Time>2018-09-14T06:54:32.000Z</Time>
            <Position>
              <LatitudeDegrees>38.612182773649692535400390625</LatitudeDegrees>
              <LongitudeDegrees>-8.207234703004360198974609375</LongitudeDegrees>
            </Position>
            <AltitudeMeters>256.399993896484375</AltitudeMeters>
            <DistanceMeters>176688.38753251</DistanceMeters>
          </Trackpoint>
          <Trackpoint>
            <Time>2018-09-14T06:54:42.000Z</Time>
            <Position>
              <LatitudeDegrees>38.6117903329432010650634765625</LatitudeDegrees>
              <LongitudeDegrees>-8.2068905420601367950439453125</LongitudeDegrees>
            </Position>
            <AltitudeMeters>256</AltitudeMeters>
            <DistanceMeters>176741.33839261</DistanceMeters>
          </Trackpoint>
          <Trackpoint>
            <Time>2018-09-14T06:54:49.000Z</Time>
            <Position>
              <LatitudeDegrees>38.61152756027877330780029296875</LatitudeDegrees>
              <LongitudeDegrees>-8.20665442384779453277587890625</LongitudeDegrees>
            </Position>
            <AltitudeMeters>256.79998779296875</AltitudeMeters>
            <DistanceMeters>176777.07475492</DistanceMeters>
          </Trackpoint>
          <Trackpoint>
            <Time>2018-09-14T06:54:56.000Z</Time>
            <Position>
              <LatitudeDegrees>38.6112840659916400909423828125</LatitudeDegrees>
              <LongitudeDegrees>-8.2063966803252696990966796875</LongitudeDegrees>
            </Position>
            <AltitudeMeters>257.600006103515625</AltitudeMeters>
            <DistanceMeters>176812.2454244</DistanceMeters>
          </Trackpoint>
          <Trackpoint>
            <Time>2018-09-14T06:55:04.000Z</Time>
            <Position>
              <LatitudeDegrees>38.61100955866277217864990234375</LatitudeDegrees>
              <LongitudeDegrees>-8.20608906447887420654296875</LongitudeDegrees>
            </Position>
            <AltitudeMeters>258.79998779296875</AltitudeMeters>
            <DistanceMeters>176852.85642244</DistanceMeters>
          </Trackpoint>
          <Trackpoint>
            <Time>2018-09-14T06:55:15.000Z</Time>
            <Position>
              <LatitudeDegrees>38.61062265001237392425537109375</LatitudeDegrees>
              <LongitudeDegrees>-8.20564440451562404632568359375</LongitudeDegrees>
            </Position>
            <AltitudeMeters>261</AltitudeMeters>
            <DistanceMeters>176910.7361949</DistanceMeters>
          </Trackpoint>
          <Trackpoint>
            <Time>2018-09-14T06:55:23.000Z</Time>
            <Position>
              <LatitudeDegrees>38.61034051515161991119384765625</LatitudeDegrees>
              <LongitudeDegrees>-8.20532329380512237548828125</LongitudeDegrees>
            </Position>
            <AltitudeMeters>261.600006103515625</AltitudeMeters>
            <DistanceMeters>176952.7605708</DistanceMeters>
          </Trackpoint>
          <Trackpoint>
            <Time>2018-09-14T06:55:33.000Z</Time>
            <Position>
              <LatitudeDegrees>38.60998311080038547515869140625</LatitudeDegrees>
              <LongitudeDegrees>-8.20492305792868137359619140625</LongitudeDegrees>
            </Position>
            <AltitudeMeters>262.79998779296875</AltitudeMeters>
            <DistanceMeters>177005.62011492</DistanceMeters>
          </Trackpoint>
          <Trackpoint>
            <Time>2018-09-14T06:55:40.000Z</Time>
            <Position>
              <LatitudeDegrees>38.60973701812326908111572265625</LatitudeDegrees>
              <LongitudeDegrees>-8.2046453654766082763671875</LongitudeDegrees>
            </Position>
            <AltitudeMeters>263.600006103515625</AltitudeMeters>
            <DistanceMeters>177042.13770792</DistanceMeters>
          </Trackpoint>
          <Trackpoint>
            <Time>2018-09-14T06:55:50.000Z</Time>
            <Position>
              <LatitudeDegrees>38.6094009876251220703125</LatitudeDegrees>
              <LongitudeDegrees>-8.2042767293751239776611328125</LongitudeDegrees>
            </Position>
            <AltitudeMeters>265.79998779296875</AltitudeMeters>
            <DistanceMeters>177091.39987194</DistanceMeters>
          </Trackpoint>
          <Trackpoint>
            <Time>2018-09-14T06:55:54.000Z</Time>
            <Position>
              <LatitudeDegrees>38.60926947556436061859130859375</LatitudeDegrees>
              <LongitudeDegrees>-8.20412971079349517822265625</LongitudeDegrees>
            </Position>
            <AltitudeMeters>266.79998779296875</AltitudeMeters>
            <DistanceMeters>177110.83602943</DistanceMeters>
          </Trackpoint>
          <Trackpoint>
            <Time>2018-09-14T06:56:00.000Z</Time>
            <Position>
              <LatitudeDegrees>38.609086163341999053955078125</LatitudeDegrees>
              <LongitudeDegrees>-8.20391773246228694915771484375</LongitudeDegrees>
            </Position>
            <AltitudeMeters>268.20001220703125</AltitudeMeters>
            <DistanceMeters>177138.33505962</DistanceMeters>
          </Trackpoint>
          <Trackpoint>
            <Time>2018-09-14T06:56:06.000Z</Time>
            <Position>
              <LatitudeDegrees>38.6089002527296543121337890625</LatitudeDegrees>
              <LongitudeDegrees>-8.20371530950069427490234375</LongitudeDegrees>
            </Position>
            <AltitudeMeters>269.399993896484375</AltitudeMeters>
            <DistanceMeters>177165.50339502</DistanceMeters>
          </Trackpoint>
          <Trackpoint>
            <Time>2018-09-14T06:56:12.000Z</Time>
            <Position>
              <LatitudeDegrees>38.60871476121246814727783203125</LatitudeDegrees>
              <LongitudeDegrees>-8.20350316353142261505126953125</LongitudeDegrees>
            </Position>
            <AltitudeMeters>270.20001220703125</AltitudeMeters>
            <DistanceMeters>177193.19239248</DistanceMeters>
          </Trackpoint>
          <Trackpoint>
            <Time>2018-09-14T06:56:17.000Z</Time>
            <Position>
              <LatitudeDegrees>38.60855449922382831573486328125</LatitudeDegrees>
              <LongitudeDegrees>-8.20332194678485393524169921875</LongitudeDegrees>
            </Position>
            <AltitudeMeters>270.79998779296875</AltitudeMeters>
            <DistanceMeters>177216.99577831</DistanceMeters>
          </Trackpoint>
          <Trackpoint>
            <Time>2018-09-14T06:56:23.000Z</Time>
            <Position>
              <LatitudeDegrees>38.6083604581654071807861328125</LatitudeDegrees>
              <LongitudeDegrees>-8.20310016162693500518798828125</LongitudeDegrees>
            </Position>
            <AltitudeMeters>272.20001220703125</AltitudeMeters>
            <DistanceMeters>177245.95321083</DistanceMeters>
          </Trackpoint>
          <Trackpoint>
            <Time>2018-09-14T06:56:31.000Z</Time>
            <Position>
              <LatitudeDegrees>38.60810053534805774688720703125</LatitudeDegrees>
              <LongitudeDegrees>-8.2028011791408061981201171875</LongitudeDegrees>
            </Position>
            <AltitudeMeters>274.20001220703125</AltitudeMeters>
            <DistanceMeters>177284.85246339</DistanceMeters>
          </Trackpoint>
          <Trackpoint>
            <Time>2018-09-14T06:56:41.000Z</Time>
            <Position>
              <LatitudeDegrees>38.6077747307717800140380859375</LatitudeDegrees>
              <LongitudeDegrees>-8.20243530906736850738525390625</LongitudeDegrees>
            </Position>
            <AltitudeMeters>277.399993896484375</AltitudeMeters>
            <DistanceMeters>177333.09768631</DistanceMeters>
          </Trackpoint>
          <Trackpoint>
            <Time>2018-09-14T06:56:47.000Z</Time>
            <Position>
              <LatitudeDegrees>38.60758840106427669525146484375</LatitudeDegrees>
              <LongitudeDegrees>-8.20221989415585994720458984375</LongitudeDegrees>
            </Position>
            <AltitudeMeters>278.20001220703125</AltitudeMeters>
            <DistanceMeters>177361.04652766</DistanceMeters>
          </Trackpoint>
          <Trackpoint>
            <Time>2018-09-14T06:56:52.000Z</Time>
            <Position>
              <LatitudeDegrees>38.6074377782642841339111328125</LatitudeDegrees>
              <LongitudeDegrees>-8.202052675187587738037109375</LongitudeDegrees>
            </Position>
            <AltitudeMeters>279.20001220703125</AltitudeMeters>
            <DistanceMeters>177383.24050454</DistanceMeters>
          </Trackpoint>
          <Trackpoint>
            <Time>2018-09-14T06:56:56.000Z</Time>
            <Position>
              <LatitudeDegrees>38.60731917433440685272216796875</LatitudeDegrees>
              <LongitudeDegrees>-8.20191881619393825531005859375</LongitudeDegrees>
            </Position>
            <AltitudeMeters>280</AltitudeMeters>
            <DistanceMeters>177400.84200711</DistanceMeters>
          </Trackpoint>
          <Trackpoint>
            <Time>2018-09-14T06:57:01.000Z</Time>
            <Position>
              <LatitudeDegrees>38.60717006027698516845703125</LatitudeDegrees>
              <LongitudeDegrees>-8.20175151340663433074951171875</LongitudeDegrees>
            </Position>
            <AltitudeMeters>281.20001220703125</AltitudeMeters>
            <DistanceMeters>177422.91440354</DistanceMeters>
          </Trackpoint>
          <Trackpoint>
            <Time>2018-09-14T06:57:07.000Z</Time>
            <Position>
              <LatitudeDegrees>38.6069868318736553192138671875</LatitudeDegrees>
              <LongitudeDegrees>-8.201544396579265594482421875</LongitudeDegrees>
            </Position>
            <AltitudeMeters>282.399993896484375</AltitudeMeters>
            <DistanceMeters>177450.12491783</DistanceMeters>
          </Trackpoint>
          <Trackpoint>
            <Time>2018-09-14T06:57:15.000Z</Time>
            <Position>
              <LatitudeDegrees>38.6067444272339344024658203125</LatitudeDegrees>
              <LongitudeDegrees>-8.2012723200023174285888671875</LongitudeDegrees>
            </Position>
            <AltitudeMeters>283</AltitudeMeters>
            <DistanceMeters>177486.01257146</DistanceMeters>
          </Trackpoint>
          <Trackpoint>
            <Time>2018-09-14T06:57:22.000Z</Time>
            <Position>
              <LatitudeDegrees>38.6065161041915416717529296875</LatitudeDegrees>
              <LongitudeDegrees>-8.201034106314182281494140625</LongitudeDegrees>
            </Position>
            <AltitudeMeters>282.79998779296875</AltitudeMeters>
            <DistanceMeters>177518.80105696</DistanceMeters>
          </Trackpoint>
          <Trackpoint>
            <Time>2018-09-14T06:57:32.000Z</Time>
            <Position>
              <LatitudeDegrees>38.6061058938503265380859375</LatitudeDegrees>
              <LongitudeDegrees>-8.20067636668682098388671875</LongitudeDegrees>
            </Position>
            <AltitudeMeters>281.399993896484375</AltitudeMeters>
            <DistanceMeters>177574.05253388</DistanceMeters>
          </Trackpoint>
          <Trackpoint>
            <Time>2018-09-14T06:57:40.000Z</Time>
            <Position>
              <LatitudeDegrees>38.60575377009809017181396484375</LatitudeDegrees>
              <LongitudeDegrees>-8.20038576610386371612548828125</LongitudeDegrees>
            </Position>
            <AltitudeMeters>281</AltitudeMeters>
            <DistanceMeters>177620.68809812</DistanceMeters>
          </Trackpoint>
          <Trackpoint>
            <Time>2018-09-14T06:57:44.000Z</Time>
            <Position>
              <LatitudeDegrees>38.6055712960660457611083984375</LatitudeDegrees>
              <LongitudeDegrees>-8.20024210028350353240966796875</LongitudeDegrees>
            </Position>
            <AltitudeMeters>281.399993896484375</AltitudeMeters>
            <DistanceMeters>177644.53412386</DistanceMeters>
          </Trackpoint>
          <Trackpoint>
            <Time>2018-09-14T06:57:52.000Z</Time>
            <Position>
              <LatitudeDegrees>38.60520207323133945465087890625</LatitudeDegrees>
              <LongitudeDegrees>-8.19995460100471973419189453125</LongitudeDegrees>
            </Position>
            <AltitudeMeters>282.79998779296875</AltitudeMeters>
            <DistanceMeters>177692.63960889</DistanceMeters>
          </Trackpoint>
          <Trackpoint>
            <Time>2018-09-14T06:58:03.000Z</Time>
            <Position>
              <LatitudeDegrees>38.604715168476104736328125</LatitudeDegrees>
              <LongitudeDegrees>-8.1995607353746891021728515625</LongitudeDegrees>
            </Position>
            <AltitudeMeters>284.20001220703125</AltitudeMeters>
            <DistanceMeters>177756.75314083</DistanceMeters>
          </Trackpoint>
          <Trackpoint>
            <Time>2018-09-14T06:58:04.000Z</Time>
            <Position>
              <LatitudeDegrees>38.6046747677028179168701171875</LatitudeDegrees>
              <LongitudeDegrees>-8.19952695630490779876708984375</LongitudeDegrees>
            </Position>
            <AltitudeMeters>284.20001220703125</AltitudeMeters>
            <DistanceMeters>177762.12362165</DistanceMeters>
          </Trackpoint>
          <Trackpoint>
            <Time>2018-09-14T06:58:12.000Z</Time>
            <Position>
              <LatitudeDegrees>38.6043646372854709625244140625</LatitudeDegrees>
              <LongitudeDegrees>-8.19922939874231815338134765625</LongitudeDegrees>
            </Position>
            <AltitudeMeters>283.79998779296875</AltitudeMeters>
            <DistanceMeters>177805.26690116</DistanceMeters>
          </Trackpoint>
          <Trackpoint>
            <Time>2018-09-14T06:58:20.000Z</Time>
            <Position>
              <LatitudeDegrees>38.60404939390718936920166015625</LatitudeDegrees>
              <LongitudeDegrees>-8.19888624362647533416748046875</LongitudeDegrees>
            </Position>
            <AltitudeMeters>285.20001220703125</AltitudeMeters>
            <DistanceMeters>177851.33202597</DistanceMeters>
          </Trackpoint>
          <Trackpoint>
            <Time>2018-09-14T06:58:26.000Z</Time>
            <Position>
              <LatitudeDegrees>38.6038167960941791534423828125</LatitudeDegrees>
              <LongitudeDegrees>-8.19862439297139644622802734375</LongitudeDegrees>
            </Position>
            <AltitudeMeters>285.399993896484375</AltitudeMeters>
            <DistanceMeters>177885.8132389</DistanceMeters>
          </Trackpoint>
          <Trackpoint>
            <Time>2018-09-14T06:58:37.000Z</Time>
            <Position>
              <LatitudeDegrees>38.6033990420401096343994140625</LatitudeDegrees>
              <LongitudeDegrees>-8.198167495429515838623046875</LongitudeDegrees>
            </Position>
            <AltitudeMeters>286.600006103515625</AltitudeMeters>
            <DistanceMeters>177946.97952195</DistanceMeters>
          </Trackpoint>
          <Trackpoint>
            <Time>2018-09-14T06:58:42.000Z</Time>
            <Position>
              <LatitudeDegrees>38.60321941785514354705810546875</LatitudeDegrees>
              <LongitudeDegrees>-8.1979721970856189727783203125</LongitudeDegrees>
            </Position>
            <AltitudeMeters>288</AltitudeMeters>
            <DistanceMeters>177973.21446861</DistanceMeters>
          </Trackpoint>
          <Trackpoint>
            <Time>2018-09-14T06:58:48.000Z</Time>
            <Position>
              <LatitudeDegrees>38.60300919972360134124755859375</LatitudeDegrees>
              <LongitudeDegrees>-8.19774261675775051116943359375</LongitudeDegrees>
            </Position>
            <AltitudeMeters>289.79998779296875</AltitudeMeters>
            <DistanceMeters>178003.9751019</DistanceMeters>
          </Trackpoint>
          <Trackpoint>
            <Time>2018-09-14T06:58:50.000Z</Time>
            <Position>
              <LatitudeDegrees>38.60294013284146785736083984375</LatitudeDegrees>
              <LongitudeDegrees>-8.19766583852469921112060546875</LongitudeDegrees>
            </Position>
            <AltitudeMeters>290.399993896484375</AltitudeMeters>
            <DistanceMeters>178014.15760345</DistanceMeters>
          </Trackpoint>
          <Trackpoint>
            <Time>2018-09-14T06:58:59.000Z</Time>
            <Position>
              <LatitudeDegrees>38.60263620503246784210205078125</LatitudeDegrees>
              <LongitudeDegrees>-8.19733290933072566986083984375</LongitudeDegrees>
            </Position>
            <AltitudeMeters>292.600006103515625</AltitudeMeters>
            <DistanceMeters>178058.68763283</DistanceMeters>
          </Trackpoint>
          <Trackpoint>
            <Time>2018-09-14T06:59:06.000Z</Time>
            <Position>
              <LatitudeDegrees>38.60242296941578388214111328125</LatitudeDegrees>
              <LongitudeDegrees>-8.1970949470996856689453125</LongitudeDegrees>
            </Position>
            <AltitudeMeters>293.600006103515625</AltitudeMeters>
            <DistanceMeters>178090.17906158</DistanceMeters>
          </Trackpoint>
          <Trackpoint>
            <Time>2018-09-14T06:59:10.000Z</Time>
            <Position>
              <LatitudeDegrees>38.60230453312397003173828125</LatitudeDegrees>
              <LongitudeDegrees>-8.196965865790843963623046875</LongitudeDegrees>
            </Position>
            <AltitudeMeters>294.20001220703125</AltitudeMeters>
            <DistanceMeters>178107.494796</DistanceMeters>
          </Trackpoint>
          <Trackpoint>
            <Time>2018-09-14T06:59:14.000Z</Time>
            <Position>
              <LatitudeDegrees>38.60218592919409275054931640625</LatitudeDegrees>
              <LongitudeDegrees>-8.1968349404633045196533203125</LongitudeDegrees>
            </Position>
            <AltitudeMeters>294.79998779296875</AltitudeMeters>
            <DistanceMeters>178124.92902592</DistanceMeters>
          </Trackpoint>
          <Trackpoint>
            <Time>2018-09-14T06:59:19.000Z</Time>
            <Position>
              <LatitudeDegrees>38.602046035230159759521484375</LatitudeDegrees>
              <LongitudeDegrees>-8.19667727686464786529541015625</LongitudeDegrees>
            </Position>
            <AltitudeMeters>295.600006103515625</AltitudeMeters>
            <DistanceMeters>178145.67795179</DistanceMeters>
          </Trackpoint>
          <Trackpoint>
            <Time>2018-09-14T06:59:23.000Z</Time>
            <Position>
              <LatitudeDegrees>38.60194201581180095672607421875</LatitudeDegrees>
              <LongitudeDegrees>-8.19656160660088062286376953125</LongitudeDegrees>
            </Position>
            <AltitudeMeters>296.399993896484375</AltitudeMeters>
            <DistanceMeters>178161.01645275</DistanceMeters>
          </Trackpoint>
          <Trackpoint>
            <Time>2018-09-14T06:59:28.000Z</Time>
            <Position>
              <LatitudeDegrees>38.6018188856542110443115234375</LatitudeDegrees>
              <LongitudeDegrees>-8.1964238919317722320556640625</LongitudeDegrees>
            </Position>
            <AltitudeMeters>297.399993896484375</AltitudeMeters>
            <DistanceMeters>178179.21797589</DistanceMeters>
          </Trackpoint>
          <Trackpoint>
            <Time>2018-09-14T06:59:34.000Z</Time>
            <Position>
              <LatitudeDegrees>38.6016841046512126922607421875</LatitudeDegrees>
              <LongitudeDegrees>-8.19626790471374988555908203125</LongitudeDegrees>
            </Position>
            <AltitudeMeters>299.600006103515625</AltitudeMeters>
            <DistanceMeters>178199.44505436</DistanceMeters>
          </Trackpoint>
          <Trackpoint>
            <Time>2018-09-14T06:59:39.000Z</Time>
            <Position>
              <LatitudeDegrees>38.6015754751861095428466796875</LatitudeDegrees>
              <LongitudeDegrees>-8.196146450936794281005859375</LongitudeDegrees>
            </Position>
            <AltitudeMeters>301.20001220703125</AltitudeMeters>
            <DistanceMeters>178215.501195</DistanceMeters>
          </Trackpoint>
          <Trackpoint>
            <Time>2018-09-14T06:59:43.000Z</Time>
            <Position>
              <LatitudeDegrees>38.60148914158344268798828125</LatitudeDegrees>
              <LongitudeDegrees>-8.1960483826696872711181640625</LongitudeDegrees>
            </Position>
            <AltitudeMeters>302.399993896484375</AltitudeMeters>
            <DistanceMeters>178228.34984698</DistanceMeters>
          </Trackpoint>
          <Trackpoint>
            <Time>2018-09-14T06:59:48.000Z</Time>
            <Position>
              <LatitudeDegrees>38.60137514770030975341796875</LatitudeDegrees>
              <LongitudeDegrees>-8.1959293596446514129638671875</LongitudeDegrees>
            </Position>
            <AltitudeMeters>303.79998779296875</AltitudeMeters>
            <DistanceMeters>178244.72535155</DistanceMeters>
          </Trackpoint>
          <Trackpoint>
            <Time>2018-09-14T06:59:54.000Z</Time>
            <Position>
              <LatitudeDegrees>38.601233661174774169921875</LatitudeDegrees>
              <LongitudeDegrees>-8.195775635540485382080078125</LongitudeDegrees>
            </Position>
            <AltitudeMeters>306.20001220703125</AltitudeMeters>
            <DistanceMeters>178265.38421171</DistanceMeters>
          </Trackpoint>
          <Trackpoint>
            <Time>2018-09-14T07:00:00.000Z</Time>
            <Position>
              <LatitudeDegrees>38.60109427012503147125244140625</LatitudeDegrees>
              <LongitudeDegrees>-8.19562182761728763580322265625</LongitudeDegrees>
            </Position>
            <AltitudeMeters>307.79998779296875</AltitudeMeters>
            <DistanceMeters>178285.87034928</DistanceMeters>
          </Trackpoint>
          <Trackpoint>
            <Time>2018-09-14T07:00:05.000Z</Time>
            <Position>
              <LatitudeDegrees>38.6009760014712810516357421875</LatitudeDegrees>
              <LongitudeDegrees>-8.19549140520393848419189453125</LongitudeDegrees>
            </Position>
            <AltitudeMeters>308.79998779296875</AltitudeMeters>
            <DistanceMeters>178303.24829066</DistanceMeters>
          </Trackpoint>
          <Trackpoint>
            <Time>2018-09-14T07:00:11.000Z</Time>
            <Position>
              <LatitudeDegrees>38.6008385382592678070068359375</LatitudeDegrees>
              <LongitudeDegrees>-8.19533935748040676116943359375</LongitudeDegrees>
            </Position>
            <AltitudeMeters>309.600006103515625</AltitudeMeters>
            <DistanceMeters>178323.47224385</DistanceMeters>
          </Trackpoint>
          <Trackpoint>
            <Time>2018-09-14T07:00:17.000Z</Time>
            <Position>
              <LatitudeDegrees>38.6007007397711277008056640625</LatitudeDegrees>
              <LongitudeDegrees>-8.1951847113668918609619140625</LongitudeDegrees>
            </Position>
            <AltitudeMeters>310.600006103515625</AltitudeMeters>
            <DistanceMeters>178343.8724677</DistanceMeters>
          </Trackpoint>
          <Trackpoint>
            <Time>2018-09-14T07:00:22.000Z</Time>
            <Position>
              <LatitudeDegrees>38.6005900986492633819580078125</LatitudeDegrees>
              <LongitudeDegrees>-8.19506359286606311798095703125</LongitudeDegrees>
            </Position>
            <AltitudeMeters>311.600006103515625</AltitudeMeters>
            <DistanceMeters>178360.07891097</DistanceMeters>
          </Trackpoint>
          <Trackpoint>
            <Time>2018-09-14T07:00:26.000Z</Time>
            <Position>
              <LatitudeDegrees>38.6005022563040256500244140625</LatitudeDegrees>
              <LongitudeDegrees>-8.19496317766606807708740234375</LongitudeDegrees>
            </Position>
            <AltitudeMeters>312.399993896484375</AltitudeMeters>
            <DistanceMeters>178373.1891541</DistanceMeters>
          </Trackpoint>
          <Trackpoint>
            <Time>2018-09-14T07:00:33.000Z</Time>
            <Position>
              <LatitudeDegrees>38.6003436706960201263427734375</LatitudeDegrees>
              <LongitudeDegrees>-8.1947877444326877593994140625</LongitudeDegrees>
            </Position>
            <AltitudeMeters>313.600006103515625</AltitudeMeters>
            <DistanceMeters>178396.52203452</DistanceMeters>
          </Trackpoint>
          <Trackpoint>
            <Time>2018-09-14T07:00:39.000Z</Time>
            <Position>
              <LatitudeDegrees>38.6002058722078800201416015625</LatitudeDegrees>
              <LongitudeDegrees>-8.1946372054517269134521484375</LongitudeDegrees>
            </Position>
            <AltitudeMeters>314.79998779296875</AltitudeMeters>
            <DistanceMeters>178416.68853032</DistanceMeters>
          </Trackpoint>
          <Trackpoint>
            <Time>2018-09-14T07:00:45.000Z</Time>
            <Position>
              <LatitudeDegrees>38.60006698407232761383056640625</LatitudeDegrees>
              <LongitudeDegrees>-8.1944826431572437286376953125</LongitudeDegrees>
            </Position>
            <AltitudeMeters>315.600006103515625</AltitudeMeters>
            <DistanceMeters>178437.17554946</DistanceMeters>
          </Trackpoint>
          <Trackpoint>
            <Time>2018-09-14T07:00:51.000Z</Time>
            <Position>
              <LatitudeDegrees>38.59992566518485546112060546875</LatitudeDegrees>
              <LongitudeDegrees>-8.19432782940566539764404296875</LongitudeDegrees>
            </Position>
            <AltitudeMeters>316.20001220703125</AltitudeMeters>
            <DistanceMeters>178457.88156306</DistanceMeters>
          </Trackpoint>
          <Trackpoint>
            <Time>2018-09-14T07:00:58.000Z</Time>
            <Position>
              <LatitudeDegrees>38.59976758249104022979736328125</LatitudeDegrees>
              <LongitudeDegrees>-8.19414644502103328704833984375</LongitudeDegrees>
            </Position>
            <AltitudeMeters>316.600006103515625</AltitudeMeters>
            <DistanceMeters>178481.51438406</DistanceMeters>
          </Trackpoint>
          <Trackpoint>
            <Time>2018-09-14T07:01:05.000Z</Time>
            <Position>
              <LatitudeDegrees>38.59959910623729228973388671875</LatitudeDegrees>
              <LongitudeDegrees>-8.1939589418470859527587890625</LongitudeDegrees>
            </Position>
            <AltitudeMeters>317</AltitudeMeters>
            <DistanceMeters>178506.3667314</DistanceMeters>
          </Trackpoint>
          <Trackpoint>
            <Time>2018-09-14T07:01:12.000Z</Time>
            <Position>
              <LatitudeDegrees>38.59940774738788604736328125</LatitudeDegrees>
              <LongitudeDegrees>-8.19375132210552692413330078125</LongitudeDegrees>
            </Position>
            <AltitudeMeters>317.399993896484375</AltitudeMeters>
            <DistanceMeters>178534.29133026</DistanceMeters>
          </Trackpoint>
          <Trackpoint>
            <Time>2018-09-14T07:01:22.000Z</Time>
            <Position>
              <LatitudeDegrees>38.59908563084900379180908203125</LatitudeDegrees>
              <LongitudeDegrees>-8.1933819316327571868896484375</LongitudeDegrees>
            </Position>
            <AltitudeMeters>318.399993896484375</AltitudeMeters>
            <DistanceMeters>178582.43509373</DistanceMeters>
          </Trackpoint>
          <Trackpoint>
            <Time>2018-09-14T07:01:30.000Z</Time>
            <Position>
              <LatitudeDegrees>38.59881388954818248748779296875</LatitudeDegrees>
              <LongitudeDegrees>-8.19303416647017002105712890625</LongitudeDegrees>
            </Position>
            <AltitudeMeters>319.600006103515625</AltitudeMeters>
            <DistanceMeters>178625.21221122</DistanceMeters>
          </Trackpoint>
          <Trackpoint>
            <Time>2018-09-14T07:01:34.000Z</Time>
            <Position>
              <LatitudeDegrees>38.5986853949725627899169921875</LatitudeDegrees>
              <LongitudeDegrees>-8.1928508542478084564208984375</LongitudeDegrees>
            </Position>
            <AltitudeMeters>319.399993896484375</AltitudeMeters>
            <DistanceMeters>178646.63183129</DistanceMeters>
          </Trackpoint>
          <Trackpoint>
            <Time>2018-09-14T07:01:44.000Z</Time>
            <Position>
              <LatitudeDegrees>38.5983715765178203582763671875</LatitudeDegrees>
              <LongitudeDegrees>-8.19238473661243915557861328125</LongitudeDegrees>
            </Position>
            <AltitudeMeters>319.600006103515625</AltitudeMeters>
            <DistanceMeters>178700.14798815</DistanceMeters>
          </Trackpoint>
          <Trackpoint>
            <Time>2018-09-14T07:01:53.000Z</Time>
            <Position>
              <LatitudeDegrees>38.598083741962909698486328125</LatitudeDegrees>
              <LongitudeDegrees>-8.19194921292364597320556640625</LongitudeDegrees>
            </Position>
            <AltitudeMeters>320.20001220703125</AltitudeMeters>
            <DistanceMeters>178749.76249046</DistanceMeters>
          </Trackpoint>
          <Trackpoint>
            <Time>2018-09-14T07:01:56.000Z</Time>
            <Position>
              <LatitudeDegrees>38.59798391349613666534423828125</LatitudeDegrees>
              <LongitudeDegrees>-8.19179465062916278839111328125</LongitudeDegrees>
            </Position>
            <AltitudeMeters>319.600006103515625</AltitudeMeters>
            <DistanceMeters>178767.20448792</DistanceMeters>
          </Trackpoint>
          <Trackpoint>
            <Time>2018-09-14T07:02:01.000Z</Time>
            <Position>
              <LatitudeDegrees>38.597814850509166717529296875</LatitudeDegrees>
              <LongitudeDegrees>-8.1915201433002948760986328125</LongitudeDegrees>
            </Position>
            <AltitudeMeters>319.399993896484375</AltitudeMeters>
            <DistanceMeters>178797.60650273</DistanceMeters>
          </Trackpoint>
          <Trackpoint>
            <Time>2018-09-14T07:02:10.000Z</Time>
            <Position>
              <LatitudeDegrees>38.59744143672287464141845703125</LatitudeDegrees>
              <LongitudeDegrees>-8.19093617610633373260498046875</LongitudeDegrees>
            </Position>
            <AltitudeMeters>316.79998779296875</AltitudeMeters>
            <DistanceMeters>178863.24031998</DistanceMeters>
          </Trackpoint>
          <Trackpoint>
            <Time>2018-09-14T07:02:15.000Z</Time>
            <Position>
              <LatitudeDegrees>38.597209341824054718017578125</LatitudeDegrees>
              <LongitudeDegrees>-8.19057759828865528106689453125</LongitudeDegrees>
            </Position>
            <AltitudeMeters>316.399993896484375</AltitudeMeters>
            <DistanceMeters>178903.74043363</DistanceMeters>
          </Trackpoint>
          <Trackpoint>
            <Time>2018-09-14T07:02:16.000Z</Time>
            <Position>
              <LatitudeDegrees>38.59716273844242095947265625</LatitudeDegrees>
              <LongitudeDegrees>-8.190503753721714019775390625</LongitudeDegrees>
            </Position>
            <AltitudeMeters>316.399993896484375</AltitudeMeters>
            <DistanceMeters>178911.99737478</DistanceMeters>
          </Trackpoint>
          <Trackpoint>
            <Time>2018-09-14T07:02:19.000Z</Time>
            <Position>
              <LatitudeDegrees>38.597022928297519683837890625</LatitudeDegrees>
              <LongitudeDegrees>-8.19028490222990512847900390625</LongitudeDegrees>
            </Position>
            <AltitudeMeters>316.20001220703125</AltitudeMeters>
            <DistanceMeters>178936.58561746</DistanceMeters>
          </Trackpoint>
          <Trackpoint>
            <Time>2018-09-14T07:02:23.000Z</Time>
            <Position>
              <LatitudeDegrees>38.59683844260871410369873046875</LatitudeDegrees>
              <LongitudeDegrees>-8.19000176154077053070068359375</LongitudeDegrees>
            </Position>
            <AltitudeMeters>316.20001220703125</AltitudeMeters>
            <DistanceMeters>178968.65202987</DistanceMeters>
          </Trackpoint>
          <Trackpoint>
            <Time>2018-09-14T07:02:30.000Z</Time>
            <Position>
              <LatitudeDegrees>38.596521355211734771728515625</LatitudeDegrees>
              <LongitudeDegrees>-8.18953455425798892974853515625</LongitudeDegrees>
            </Position>
            <AltitudeMeters>316.600006103515625</AltitudeMeters>
            <DistanceMeters>179022.47877124</DistanceMeters>
          </Trackpoint>
          <Trackpoint>
            <Time>2018-09-14T07:02:38.000Z</Time>
            <Position>
              <LatitudeDegrees>38.59609245322644710540771484375</LatitudeDegrees>
              <LongitudeDegrees>-8.18908511660993099212646484375</LongitudeDegrees>
            </Position>
            <AltitudeMeters>316.20001220703125</AltitudeMeters>
            <DistanceMeters>179084.18294705</DistanceMeters>
          </Trackpoint>
          <Trackpoint>
            <Time>2018-09-14T07:02:47.000Z</Time>
            <Position>
              <LatitudeDegrees>38.5956001840531826019287109375</LatitudeDegrees>
              <LongitudeDegrees>-8.18868244998157024383544921875</LongitudeDegrees>
            </Position>
            <AltitudeMeters>317</AltitudeMeters>
            <DistanceMeters>179149.21337354</DistanceMeters>
          </Trackpoint>
          <Trackpoint>
            <Time>2018-09-14T07:02:56.000Z</Time>
            <Position>
              <LatitudeDegrees>38.595072962343692779541015625</LatitudeDegrees>
              <LongitudeDegrees>-8.1883051805198192596435546875</LongitudeDegrees>
            </Position>
            <AltitudeMeters>316</AltitudeMeters>
            <DistanceMeters>179216.44811492</DistanceMeters>
          </Trackpoint>
          <Trackpoint>
            <Time>2018-09-14T07:02:59.000Z</Time>
            <Position>
              <LatitudeDegrees>38.5948746465146541595458984375</LatitudeDegrees>
              <LongitudeDegrees>-8.1882079504430294036865234375</LongitudeDegrees>
            </Position>
            <AltitudeMeters>315.79998779296875</AltitudeMeters>
            <DistanceMeters>179240.08590268</DistanceMeters>
          </Trackpoint>
          <Trackpoint>
            <Time>2018-09-14T07:03:06.000Z</Time>
            <Position>
              <LatitudeDegrees>38.59436343424022197723388671875</LatitudeDegrees>
              <LongitudeDegrees>-8.1879813037812709808349609375</LongitudeDegrees>
            </Position>
            <AltitudeMeters>313.600006103515625</AltitudeMeters>
            <DistanceMeters>179300.30397993</DistanceMeters>
          </Trackpoint>
          <Trackpoint>
            <Time>2018-09-14T07:03:07.000Z</Time>
            <Position>
              <LatitudeDegrees>38.59428095631301403045654296875</LatitudeDegrees>
              <LongitudeDegrees>-8.18794534541666507720947265625</LongitudeDegrees>
            </Position>
            <AltitudeMeters>313</AltitudeMeters>
            <DistanceMeters>179310.00229299</DistanceMeters>
          </Trackpoint>
          <Trackpoint>
            <Time>2018-09-14T07:03:11.000Z</Time>
            <Position>
              <LatitudeDegrees>38.59394249506294727325439453125</LatitudeDegrees>
              <LongitudeDegrees>-8.18779430352151393890380859375</LongitudeDegrees>
            </Position>
            <AltitudeMeters>310.20001220703125</AltitudeMeters>
            <DistanceMeters>179349.89948281</DistanceMeters>
          </Trackpoint>
          <Trackpoint>
            <Time>2018-09-14T07:03:14.000Z</Time>
            <Position>
              <LatitudeDegrees>38.59367745928466320037841796875</LatitudeDegrees>
              <LongitudeDegrees>-8.1876777112483978271484375</LongitudeDegrees>
            </Position>
            <AltitudeMeters>308.20001220703125</AltitudeMeters>
            <DistanceMeters>179381.09344019</DistanceMeters>
          </Trackpoint>
          <Trackpoint>
            <Time>2018-09-14T07:03:15.000Z</Time>
            <Position>
              <LatitudeDegrees>38.59358995221555233001708984375</LatitudeDegrees>
              <LongitudeDegrees>-8.18763840012252330780029296875</LongitudeDegrees>
            </Position>
            <AltitudeMeters>307.600006103515625</AltitudeMeters>
            <DistanceMeters>179391.41598358</DistanceMeters>
          </Trackpoint>
          <Trackpoint>
            <Time>2018-09-14T07:03:19.000Z</Time>
            <Position>
              <LatitudeDegrees>38.593229949474334716796875</LatitudeDegrees>
              <LongitudeDegrees>-8.18748031742870807647705078125</LongitudeDegrees>
            </Position>
            <AltitudeMeters>305.79998779296875</AltitudeMeters>
            <DistanceMeters>179433.77914438</DistanceMeters>
          </Trackpoint>
          <Trackpoint>
            <Time>2018-09-14T07:03:21.000Z</Time>
            <Position>
              <LatitudeDegrees>38.59304554760456085205078125</LatitudeDegrees>
              <LongitudeDegrees>-8.18740588612854480743408203125</LongitudeDegrees>
            </Position>
            <AltitudeMeters>305</AltitudeMeters>
            <DistanceMeters>179455.30054491</DistanceMeters>
          </Trackpoint>
          <Trackpoint>
            <Time>2018-09-14T07:03:24.000Z</Time>
            <Position>
              <LatitudeDegrees>38.5927570424973964691162109375</LatitudeDegrees>
              <LongitudeDegrees>-8.18730580620467662811279296875</LongitudeDegrees>
            </Position>
            <AltitudeMeters>303.79998779296875</AltitudeMeters>
            <DistanceMeters>179488.57116049</DistanceMeters>
          </Trackpoint>
          <Trackpoint>
            <Time>2018-09-14T07:03:30.000Z</Time>
            <Position>
              <LatitudeDegrees>38.59215639531612396240234375</LatitudeDegrees>
              <LongitudeDegrees>-8.1871253438293933868408203125</LongitudeDegrees>
            </Position>
            <AltitudeMeters>302.399993896484375</AltitudeMeters>
            <DistanceMeters>179557.24300313</DistanceMeters>
          </Trackpoint>
          <Trackpoint>
            <Time>2018-09-14T07:03:31.000Z</Time>
            <Position>
              <LatitudeDegrees>38.59205673448741436004638671875</LatitudeDegrees>
              <LongitudeDegrees>-8.18709424696862697601318359375</LongitudeDegrees>
            </Position>
            <AltitudeMeters>303.20001220703125</AltitudeMeters>
            <DistanceMeters>179568.66124484</DistanceMeters>
          </Trackpoint>
          <Trackpoint>
            <Time>2018-09-14T07:03:33.000Z</Time>
            <Position>
              <LatitudeDegrees>38.59186403453350067138671875</LatitudeDegrees>
              <LongitudeDegrees>-8.18703171797096729278564453125</LongitudeDegrees>
            </Position>
            <AltitudeMeters>305</AltitudeMeters>
            <DistanceMeters>179590.78819028</DistanceMeters>
          </Trackpoint>
          <Trackpoint>
            <Time>2018-09-14T07:03:35.000Z</Time>
            <Position>
              <LatitudeDegrees>38.59168223105370998382568359375</LatitudeDegrees>
              <LongitudeDegrees>-8.18697539158165454864501953125</LongitudeDegrees>
            </Position>
            <AltitudeMeters>306.79998779296875</AltitudeMeters>
            <DistanceMeters>179611.60793402</DistanceMeters>
          </Trackpoint>
          <Trackpoint>
            <Time>2018-09-14T07:03:37.000Z</Time>
            <Position>
              <LatitudeDegrees>38.59151802957057952880859375</LatitudeDegrees>
              <LongitudeDegrees>-8.18692468106746673583984375</LongitudeDegrees>
            </Position>
            <AltitudeMeters>307.399993896484375</AltitudeMeters>
            <DistanceMeters>179630.40881997</DistanceMeters>
          </Trackpoint>
          <Trackpoint>
            <Time>2018-09-14T07:03:39.000Z</Time>
            <Position>
              <LatitudeDegrees>38.591358773410320281982421875</LatitudeDegrees>
              <LongitudeDegrees>-8.18686709739267826080322265625</LongitudeDegrees>
            </Position>
            <AltitudeMeters>307.600006103515625</AltitudeMeters>
            <DistanceMeters>179648.8285665</DistanceMeters>
          </Trackpoint>
          <Trackpoint>
            <Time>2018-09-14T07:03:41.000Z</Time>
            <Position>
              <LatitudeDegrees>38.5912104137241840362548828125</LatitudeDegrees>
              <LongitudeDegrees>-8.1868061609566211700439453125</LongitudeDegrees>
            </Position>
            <AltitudeMeters>307.79998779296875</AltitudeMeters>
            <DistanceMeters>179666.17139747</DistanceMeters>
          </Trackpoint>
          <Trackpoint>
            <Time>2018-09-14T07:03:43.000Z</Time>
            <Position>
              <LatitudeDegrees>38.59107269905507564544677734375</LatitudeDegrees>
              <LongitudeDegrees>-8.18674053065478801727294921875</LongitudeDegrees>
            </Position>
            <AltitudeMeters>308.20001220703125</AltitudeMeters>
            <DistanceMeters>179682.52814241</DistanceMeters>
          </Trackpoint>
          <Trackpoint>
            <Time>2018-09-14T07:03:45.000Z</Time>
            <Position>
              <LatitudeDegrees>38.590943701565265655517578125</LatitudeDegrees>
              <LongitudeDegrees>-8.1866757385432720184326171875</LongitudeDegrees>
            </Position>
            <AltitudeMeters>308.600006103515625</AltitudeMeters>
            <DistanceMeters>179697.95235694</DistanceMeters>
          </Trackpoint>
          <Trackpoint>
            <Time>2018-09-14T07:03:48.000Z</Time>
            <Position>
              <LatitudeDegrees>38.59076474793255329132080078125</LatitudeDegrees>
              <LongitudeDegrees>-8.186571635305881500244140625</LongitudeDegrees>
            </Position>
            <AltitudeMeters>309</AltitudeMeters>
            <DistanceMeters>179719.83265774</DistanceMeters>
          </Trackpoint>
          <Trackpoint>
            <Time>2018-09-14T07:03:49.000Z</Time>
            <Position>
              <LatitudeDegrees>38.5907071642577648162841796875</LatitudeDegrees>
              <LongitudeDegrees>-8.1865369342267513275146484375</LongitudeDegrees>
            </Position>
            <AltitudeMeters>309</AltitudeMeters>
            <DistanceMeters>179726.9170889</DistanceMeters>
          </Trackpoint>
          <Trackpoint>
            <Time>2018-09-14T07:03:52.000Z</Time>
            <Position>
              <LatitudeDegrees>38.5905448906123638153076171875</LatitudeDegrees>
              <LongitudeDegrees>-8.18643392063677310943603515625</LongitudeDegrees>
            </Position>
            <AltitudeMeters>309.399993896484375</AltitudeMeters>
            <DistanceMeters>179747.07955431</DistanceMeters>
          </Trackpoint>
          <Trackpoint>
            <Time>2018-09-14T07:03:55.000Z</Time>
            <Position>
              <LatitudeDegrees>38.5903960280120372772216796875</LatitudeDegrees>
              <LongitudeDegrees>-8.1863243691623210906982421875</LongitudeDegrees>
            </Position>
            <AltitudeMeters>308.600006103515625</AltitudeMeters>
            <DistanceMeters>179766.1936293</DistanceMeters>
          </Trackpoint>
          <Trackpoint>
            <Time>2018-09-14T07:03:56.000Z</Time>
            <Position>
              <LatitudeDegrees>38.59034716151654720306396484375</LatitudeDegrees>
              <LongitudeDegrees>-8.18628371693193912506103515625</LongitudeDegrees>
            </Position>
            <AltitudeMeters>308.399993896484375</AltitudeMeters>
            <DistanceMeters>179772.68124722</DistanceMeters>
          </Trackpoint>
          <Trackpoint>
            <Time>2018-09-14T07:04:00.000Z</Time>
            <Position>
              <LatitudeDegrees>38.59016619622707366943359375</LatitudeDegrees>
              <LongitudeDegrees>-8.1860833056271076202392578125</LongitudeDegrees>
            </Position>
            <AltitudeMeters>307.600006103515625</AltitudeMeters>
            <DistanceMeters>179799.32094894</DistanceMeters>
          </Trackpoint>
          <Trackpoint>
            <Time>2018-09-14T07:04:08.000Z</Time>
            <Position>
              <LatitudeDegrees>38.58977652154862880706787109375</LatitudeDegrees>
              <LongitudeDegrees>-8.185482658445835113525390625</LongitudeDegrees>
            </Position>
            <AltitudeMeters>305.399993896484375</AltitudeMeters>
            <DistanceMeters>179867.22988738</DistanceMeters>
          </Trackpoint>
          <Trackpoint>
            <Time>2018-09-14T07:04:13.000Z</Time>
            <Position>
              <LatitudeDegrees>38.58949220739305019378662109375</LatitudeDegrees>
              <LongitudeDegrees>-8.1850218214094638824462890625</LongitudeDegrees>
            </Position>
            <AltitudeMeters>302.399993896484375</AltitudeMeters>
            <DistanceMeters>179918.30548668</DistanceMeters>
          </Trackpoint>
          <Trackpoint>
            <Time>2018-09-14T07:04:17.000Z</Time>
            <Position>
              <LatitudeDegrees>38.58924929983913898468017578125</LatitudeDegrees>
              <LongitudeDegrees>-8.18462862633168697357177734375</LongitudeDegrees>
            </Position>
            <AltitudeMeters>299.600006103515625</AltitudeMeters>
            <DistanceMeters>179961.90690792</DistanceMeters>
          </Trackpoint>
          <Trackpoint>
            <Time>2018-09-14T07:04:19.000Z</Time>
            <Position>
              <LatitudeDegrees>38.589126169681549072265625</LatitudeDegrees>
              <LongitudeDegrees>-8.1844300590455532073974609375</LongitudeDegrees>
            </Position>
            <AltitudeMeters>298.20001220703125</AltitudeMeters>
            <DistanceMeters>179983.95802028</DistanceMeters>
          </Trackpoint>
          <Trackpoint>
            <Time>2018-09-14T07:04:21.000Z</Time>
            <Position>
              <LatitudeDegrees>38.58899951912462711334228515625</LatitudeDegrees>
              <LongitudeDegrees>-8.1842337548732757568359375</LongitudeDegrees>
            </Position>
            <AltitudeMeters>296.79998779296875</AltitudeMeters>
            <DistanceMeters>180006.10230331</DistanceMeters>
          </Trackpoint>
          <Trackpoint>
            <Time>2018-09-14T07:04:23.000Z</Time>
            <Position>
              <LatitudeDegrees>38.58887647278606891632080078125</LatitudeDegrees>
              <LongitudeDegrees>-8.18403518758714199066162109375</LongitudeDegrees>
            </Position>
            <AltitudeMeters>296</AltitudeMeters>
            <DistanceMeters>180028.14768184</DistanceMeters>
          </Trackpoint>
          <Trackpoint>
            <Time>2018-09-14T07:04:26.000Z</Time>
            <Position>
              <LatitudeDegrees>38.58869391493499279022216796875</LatitudeDegrees>
              <LongitudeDegrees>-8.18373058922588825225830078125</LongitudeDegrees>
            </Position>
            <AltitudeMeters>293.79998779296875</AltitudeMeters>
            <DistanceMeters>180061.54061552</DistanceMeters>
          </Trackpoint>
          <Trackpoint>
            <Time>2018-09-14T07:04:27.000Z</Time>
            <Position>
              <LatitudeDegrees>38.5886311344802379608154296875</LatitudeDegrees>
              <LongitudeDegrees>-8.1836297549307346343994140625</LongitudeDegrees>
            </Position>
            <AltitudeMeters>292.79998779296875</AltitudeMeters>
            <DistanceMeters>180072.75578091</DistanceMeters>
          </Trackpoint>
          <Trackpoint>
            <Time>2018-09-14T07:04:29.000Z</Time>
            <Position>
              <LatitudeDegrees>38.58850599266588687896728515625</LatitudeDegrees>
              <LongitudeDegrees>-8.18342800252139568328857421875</LongitudeDegrees>
            </Position>
            <AltitudeMeters>291.20001220703125</AltitudeMeters>
            <DistanceMeters>180095.1627497</DistanceMeters>
          </Trackpoint>
          <Trackpoint>
            <Time>2018-09-14T07:04:32.000Z</Time>
            <Position>
              <LatitudeDegrees>38.58831941150128841400146484375</LatitudeDegrees>
              <LongitudeDegrees>-8.18311787210404872894287109375</LongitudeDegrees>
            </Position>
            <AltitudeMeters>293.20001220703125</AltitudeMeters>
            <DistanceMeters>180129.210173</DistanceMeters>
          </Trackpoint>
          <Trackpoint>
            <Time>2018-09-14T07:04:33.000Z</Time>
            <Position>
              <LatitudeDegrees>38.58825671486556529998779296875</LatitudeDegrees>
              <LongitudeDegrees>-8.18301712162792682647705078125</LongitudeDegrees>
            </Position>
            <AltitudeMeters>293.79998779296875</AltitudeMeters>
            <DistanceMeters>180140.41406039</DistanceMeters>
          </Trackpoint>
          <Trackpoint>
            <Time>2018-09-14T07:04:37.000Z</Time>
            <Position>
              <LatitudeDegrees>38.5880192555487155914306640625</LatitudeDegrees>
              <LongitudeDegrees>-8.18263943307101726531982421875</LongitudeDegrees>
            </Position>
            <AltitudeMeters>295.600006103515625</AltitudeMeters>
            <DistanceMeters>180182.58301477</DistanceMeters>
          </Trackpoint>
          <Trackpoint>
            <Time>2018-09-14T07:04:41.000Z</Time>
            <Position>
              <LatitudeDegrees>38.5877835564315319061279296875</LatitudeDegrees>
              <LongitudeDegrees>-8.1823510117828845977783203125</LongitudeDegrees>
            </Position>
            <AltitudeMeters>297.600006103515625</AltitudeMeters>
            <DistanceMeters>180218.88520969</DistanceMeters>
          </Trackpoint>
          <Trackpoint>
            <Time>2018-09-14T07:04:42.000Z</Time>
            <Position>
              <LatitudeDegrees>38.5877195186913013458251953125</LatitudeDegrees>
              <LongitudeDegrees>-8.1822966970503330230712890625</LongitudeDegrees>
            </Position>
            <AltitudeMeters>297.79998779296875</AltitudeMeters>
            <DistanceMeters>180227.43708604</DistanceMeters>
          </Trackpoint>
          <Trackpoint>
            <Time>2018-09-14T07:04:44.000Z</Time>
            <Position>
              <LatitudeDegrees>38.58758515678346157073974609375</LatitudeDegrees>
              <LongitudeDegrees>-8.18221463821828365325927734375</LongitudeDegrees>
            </Position>
            <AltitudeMeters>298.600006103515625</AltitudeMeters>
            <DistanceMeters>180244.00882961</DistanceMeters>
          </Trackpoint>
          <Trackpoint>
            <Time>2018-09-14T07:04:47.000Z</Time>
            <Position>
              <LatitudeDegrees>38.58738533221185207366943359375</LatitudeDegrees>
              <LongitudeDegrees>-8.18213869817554950714111328125</LongitudeDegrees>
            </Position>
            <AltitudeMeters>299.600006103515625</AltitudeMeters>
            <DistanceMeters>180267.21053164</DistanceMeters>
          </Trackpoint>
          <Trackpoint>
            <Time>2018-09-14T07:04:50.000Z</Time>
            <Position>
              <LatitudeDegrees>38.58718986622989177703857421875</LatitudeDegrees>
              <LongitudeDegrees>-8.18208186887204647064208984375</LongitudeDegrees>
            </Position>
            <AltitudeMeters>299.600006103515625</AltitudeMeters>
            <DistanceMeters>180289.52097479</DistanceMeters>
          </Trackpoint>
          <Trackpoint>
            <Time>2018-09-14T07:04:54.000Z</Time>
            <Position>
              <LatitudeDegrees>38.58693145215511322021484375</LatitudeDegrees>
              <LongitudeDegrees>-8.18200911395251750946044921875</LongitudeDegrees>
            </Position>
            <AltitudeMeters>298.79998779296875</AltitudeMeters>
            <DistanceMeters>180318.97128519</DistanceMeters>
          </Trackpoint>
          <Trackpoint>
            <Time>2018-09-14T07:04:55.000Z</Time>
            <Position>
              <LatitudeDegrees>38.5868705995380878448486328125</LatitudeDegrees>
              <LongitudeDegrees>-8.18199335597455501556396484375</LongitudeDegrees>
            </Position>
            <AltitudeMeters>298.600006103515625</AltitudeMeters>
            <DistanceMeters>180325.88149823</DistanceMeters>
          </Trackpoint>
          <Trackpoint>
            <Time>2018-09-14T07:04:59.000Z</Time>
            <Position>
              <LatitudeDegrees>38.58662794344127178192138671875</LatitudeDegrees>
              <LongitudeDegrees>-8.181924708187580108642578125</LongitudeDegrees>
            </Position>
            <AltitudeMeters>300</AltitudeMeters>
            <DistanceMeters>180353.54210825</DistanceMeters>
          </Trackpoint>
          <Trackpoint>
            <Time>2018-09-14T07:05:03.000Z</Time>
            <Position>
              <LatitudeDegrees>38.58639157377183437347412109375</LatitudeDegrees>
              <LongitudeDegrees>-8.18186192773282527923583984375</LongitudeDegrees>
            </Position>
            <AltitudeMeters>301.20001220703125</AltitudeMeters>
            <DistanceMeters>180380.41148937</DistanceMeters>
          </Trackpoint>
          <Trackpoint>
            <Time>2018-09-14T07:05:05.000Z</Time>
            <Position>
              <LatitudeDegrees>38.58627791516482830047607421875</LatitudeDegrees>
              <LongitudeDegrees>-8.1818323396146297454833984375</LongitudeDegrees>
            </Position>
            <AltitudeMeters>301.79998779296875</AltitudeMeters>
            <DistanceMeters>180393.32114045</DistanceMeters>
          </Trackpoint>
          <Trackpoint>
            <Time>2018-09-14T07:05:10.000Z</Time>
            <Position>
              <LatitudeDegrees>38.5860099457204341888427734375</LatitudeDegrees>
              <LongitudeDegrees>-8.1817548908293247222900390625</LongitudeDegrees>
            </Position>
            <AltitudeMeters>303.20001220703125</AltitudeMeters>
            <DistanceMeters>180423.89848688</DistanceMeters>
          </Trackpoint>
          <Trackpoint>
            <Time>2018-09-14T07:05:11.000Z</Time>
            <Position>
              <LatitudeDegrees>38.5859579779207706451416015625</LatitudeDegrees>
              <LongitudeDegrees>-8.18173955194652080535888671875</LongitudeDegrees>
            </Position>
            <AltitudeMeters>303.399993896484375</AltitudeMeters>
            <DistanceMeters>180429.83442474</DistanceMeters>
          </Trackpoint>
          <Trackpoint>
            <Time>2018-09-14T07:05:16.000Z</Time>
            <Position>
              <LatitudeDegrees>38.58570794574916362762451171875</LatitudeDegrees>
              <LongitudeDegrees>-8.18166981451213359832763671875</LongitudeDegrees>
            </Position>
            <AltitudeMeters>304.20001220703125</AltitudeMeters>
            <DistanceMeters>180458.31724584</DistanceMeters>
          </Trackpoint>
          <Trackpoint>
            <Time>2018-09-14T07:05:20.000Z</Time>
            <Position>
              <LatitudeDegrees>38.5855207778513431549072265625</LatitudeDegrees>
              <LongitudeDegrees>-8.18162002600729465484619140625</LongitudeDegrees>
            </Position>
            <AltitudeMeters>305</AltitudeMeters>
            <DistanceMeters>180479.59474364</DistanceMeters>
          </Trackpoint>
          <Trackpoint>
            <Time>2018-09-14T07:05:24.000Z</Time>
            <Position>
              <LatitudeDegrees>38.5853253118693828582763671875</LatitudeDegrees>
              <LongitudeDegrees>-8.18157367408275604248046875</LongitudeDegrees>
            </Position>
            <AltitudeMeters>305.79998779296875</AltitudeMeters>
            <DistanceMeters>180501.72107692</DistanceMeters>
          </Trackpoint>
          <Trackpoint>
            <Time>2018-09-14T07:05:33.000Z</Time>
            <Position>
              <LatitudeDegrees>38.58476866967976093292236328125</LatitudeDegrees>
              <LongitudeDegrees>-8.18151826970279216766357421875</LongitudeDegrees>
            </Position>
            <AltitudeMeters>304.399993896484375</AltitudeMeters>
            <DistanceMeters>180563.8636077</DistanceMeters>
          </Trackpoint>
          <Trackpoint>
            <Time>2018-09-14T07:05:37.000Z</Time>
            <Position>
              <LatitudeDegrees>38.58446792699396610260009765625</LatitudeDegrees>
              <LongitudeDegrees>-8.1815205328166484832763671875</LongitudeDegrees>
            </Position>
            <AltitudeMeters>302</AltitudeMeters>
            <DistanceMeters>180597.33743382</DistanceMeters>
          </Trackpoint>
          <Trackpoint>
            <Time>2018-09-14T07:05:42.000Z</Time>
            <Position>
              <LatitudeDegrees>38.5840740613639354705810546875</LatitudeDegrees>
              <LongitudeDegrees>-8.1815255619585514068603515625</LongitudeDegrees>
            </Position>
            <AltitudeMeters>298.600006103515625</AltitudeMeters>
            <DistanceMeters>180641.17761483</DistanceMeters>
          </Trackpoint>
          <Trackpoint>
            <Time>2018-09-14T07:05:43.000Z</Time>
            <Position>
              <LatitudeDegrees>38.58399284072220325469970703125</LatitudeDegrees>
              <LongitudeDegrees>-8.181521706283092498779296875</LongitudeDegrees>
            </Position>
            <AltitudeMeters>298</AltitudeMeters>
            <DistanceMeters>180650.22363897</DistanceMeters>
          </Trackpoint>
          <Trackpoint>
            <Time>2018-09-14T07:05:46.000Z</Time>
            <Position>
              <LatitudeDegrees>38.583748340606689453125</LatitudeDegrees>
              <LongitudeDegrees>-8.181485831737518310546875</LongitudeDegrees>
            </Position>
            <AltitudeMeters>296.20001220703125</AltitudeMeters>
            <DistanceMeters>180677.61540875</DistanceMeters>
          </Trackpoint>
          <Trackpoint>
            <Time>2018-09-14T07:05:47.000Z</Time>
            <Position>
              <LatitudeDegrees>38.58366158790886402130126953125</LatitudeDegrees>
              <LongitudeDegrees>-8.18146378733217716217041015625</LongitudeDegrees>
            </Position>
            <AltitudeMeters>295.79998779296875</AltitudeMeters>
            <DistanceMeters>180687.46065331</DistanceMeters>
          </Trackpoint>
          <Trackpoint>
            <Time>2018-09-14T07:05:49.000Z</Time>
            <Position>
              <LatitudeDegrees>38.5834826342761516571044921875</LatitudeDegrees>
              <LongitudeDegrees>-8.181405365467071533203125</LongitudeDegrees>
            </Position>
            <AltitudeMeters>295</AltitudeMeters>
            <DistanceMeters>180708.01675696</DistanceMeters>
          </Trackpoint>
          <Trackpoint>
            <Time>2018-09-14T07:05:51.000Z</Time>
            <Position>
              <LatitudeDegrees>38.58330116607248783111572265625</LatitudeDegrees>
              <LongitudeDegrees>-8.18132825195789337158203125</LongitudeDegrees>
            </Position>
            <AltitudeMeters>294.399993896484375</AltitudeMeters>
            <DistanceMeters>180729.29977118</DistanceMeters>
          </Trackpoint>
          <Trackpoint>
            <Time>2018-09-14T07:05:53.000Z</Time>
            <Position>
              <LatitudeDegrees>38.583113662898540496826171875</LatitudeDegrees>
              <LongitudeDegrees>-8.18124233745038509368896484375</LongitudeDegrees>
            </Position>
            <AltitudeMeters>293.600006103515625</AltitudeMeters>
            <DistanceMeters>180751.46769306</DistanceMeters>
          </Trackpoint>
          <Trackpoint>
            <Time>2018-09-14T07:05:55.000Z</Time>
            <Position>
              <LatitudeDegrees>38.58292280696332454681396484375</LatitudeDegrees>
              <LongitudeDegrees>-8.18115382455289363861083984375</LongitudeDegrees>
            </Position>
            <AltitudeMeters>292.79998779296875</AltitudeMeters>
            <DistanceMeters>180774.0632794</DistanceMeters>
          </Trackpoint>
          <Trackpoint>
            <Time>2018-09-14T07:05:57.000Z</Time>
            <Position>
              <LatitudeDegrees>38.582730777561664581298828125</LatitudeDegrees>
              <LongitudeDegrees>-8.18106405436992645263671875</LongitudeDegrees>
            </Position>
            <AltitudeMeters>291.79998779296875</AltitudeMeters>
            <DistanceMeters>180796.81895349</DistanceMeters>
          </Trackpoint>
          <Trackpoint>
            <Time>2018-09-14T07:05:58.000Z</Time>
            <Position>
              <LatitudeDegrees>38.5826343856751918792724609375</LatitudeDegrees>
              <LongitudeDegrees>-8.181020133197307586669921875</LongitudeDegrees>
            </Position>
            <AltitudeMeters>291.399993896484375</AltitudeMeters>
            <DistanceMeters>180808.20789629</DistanceMeters>
          </Trackpoint>
          <Trackpoint>
            <Time>2018-09-14T07:06:00.000Z</Time>
            <Position>
              <LatitudeDegrees>38.582441769540309906005859375</LatitudeDegrees>
              <LongitudeDegrees>-8.1809311173856258392333984375</LongitudeDegrees>
            </Position>
            <AltitudeMeters>290</AltitudeMeters>
            <DistanceMeters>180831.00242631</DistanceMeters>
          </Trackpoint>
          <Trackpoint>
            <Time>2018-09-14T07:06:03.000Z</Time>
            <Position>
              <LatitudeDegrees>38.58216458000242710113525390625</LatitudeDegrees>
              <LongitudeDegrees>-8.1807990185916423797607421875</LongitudeDegrees>
            </Position>
            <AltitudeMeters>288.20001220703125</AltitudeMeters>
            <DistanceMeters>180863.92558314</DistanceMeters>
          </Trackpoint>
          <Trackpoint>
            <Time>2018-09-14T07:06:06.000Z</Time>
            <Position>
              <LatitudeDegrees>38.58189887367188930511474609375</LatitudeDegrees>
              <LongitudeDegrees>-8.18067857064306735992431640625</LongitudeDegrees>
            </Position>
            <AltitudeMeters>286.20001220703125</AltitudeMeters>
            <DistanceMeters>180895.3010961</DistanceMeters>
          </Trackpoint>
          <Trackpoint>
            <Time>2018-09-14T07:06:10.000Z</Time>
            <Position>
              <LatitudeDegrees>38.581572063267230987548828125</LatitudeDegrees>
              <LongitudeDegrees>-8.18053306080400943756103515625</LongitudeDegrees>
            </Position>
            <AltitudeMeters>285.600006103515625</AltitudeMeters>
            <DistanceMeters>180933.81599903</DistanceMeters>
          </Trackpoint>
          <Trackpoint>
            <Time>2018-09-14T07:06:11.000Z</Time>
            <Position>
              <LatitudeDegrees>38.58149805106222629547119140625</LatitudeDegrees>
              <LongitudeDegrees>-8.1805002875626087188720703125</LongitudeDegrees>
            </Position>
            <AltitudeMeters>285.600006103515625</AltitudeMeters>
            <DistanceMeters>180942.53363193</DistanceMeters>
          </Trackpoint>
          <Trackpoint>
            <Time>2018-09-14T07:06:14.000Z</Time>
            <Position>
              <LatitudeDegrees>38.58128112740814685821533203125</LatitudeDegrees>
              <LongitudeDegrees>-8.18040632642805576324462890625</LongitudeDegrees>
            </Position>
            <AltitudeMeters>285.20001220703125</AltitudeMeters>
            <DistanceMeters>180968.02435987</DistanceMeters>
          </Trackpoint>
          <Trackpoint>
            <Time>2018-09-14T07:06:16.000Z</Time>
            <Position>
              <LatitudeDegrees>38.58113612048327922821044921875</LatitudeDegrees>
              <LongitudeDegrees>-8.180342875421047210693359375</LongitudeDegrees>
            </Position>
            <AltitudeMeters>285</AltitudeMeters>
            <DistanceMeters>180985.08211831</DistanceMeters>
          </Trackpoint>
          <Trackpoint>
            <Time>2018-09-14T07:06:19.000Z</Time>
            <Position>
              <LatitudeDegrees>38.5809241421520709991455078125</LatitudeDegrees>
              <LongitudeDegrees>-8.1802464835345745086669921875</LongitudeDegrees>
            </Position>
            <AltitudeMeters>285</AltitudeMeters>
            <DistanceMeters>181010.12233373</DistanceMeters>
          </Trackpoint>
          <Trackpoint>
            <Time>2018-09-14T07:06:27.000Z</Time>
            <Position>
              <LatitudeDegrees>38.5803726129233837127685546875</LatitudeDegrees>
              <LongitudeDegrees>-8.18000114522874355316162109375</LongitudeDegrees>
            </Position>
            <AltitudeMeters>286.20001220703125</AltitudeMeters>
            <DistanceMeters>181075.11421536</DistanceMeters>
          </Trackpoint>
          <Trackpoint>
            <Time>2018-09-14T07:06:30.000Z</Time>
            <Position>
              <LatitudeDegrees>38.5801774822175502777099609375</LatitudeDegrees>
              <LongitudeDegrees>-8.17991145886480808258056640625</LongitudeDegrees>
            </Position>
            <AltitudeMeters>285.79998779296875</AltitudeMeters>
            <DistanceMeters>181098.19221156</DistanceMeters>
          </Trackpoint>
          <Trackpoint>
            <Time>2018-09-14T07:06:39.000Z</Time>
            <Position>
              <LatitudeDegrees>38.57962989248335361480712890625</LatitudeDegrees>
              <LongitudeDegrees>-8.179666288197040557861328125</LongitudeDegrees>
            </Position>
            <AltitudeMeters>288.399993896484375</AltitudeMeters>
            <DistanceMeters>181162.76543363</DistanceMeters>
          </Trackpoint>
          <Trackpoint>
            <Time>2018-09-14T07:06:46.000Z</Time>
            <Position>
              <LatitudeDegrees>38.57923979870975017547607421875</LatitudeDegrees>
              <LongitudeDegrees>-8.179490268230438232421875</LongitudeDegrees>
            </Position>
            <AltitudeMeters>291.20001220703125</AltitudeMeters>
            <DistanceMeters>181208.80565609</DistanceMeters>
          </Trackpoint>
          <Trackpoint>
            <Time>2018-09-14T07:06:54.000Z</Time>
            <Position>
              <LatitudeDegrees>38.57886244542896747589111328125</LatitudeDegrees>
              <LongitudeDegrees>-8.179320953786373138427734375</LongitudeDegrees>
            </Position>
            <AltitudeMeters>293.20001220703125</AltitudeMeters>
            <DistanceMeters>181253.31469214</DistanceMeters>
          </Trackpoint>
          <Trackpoint>
            <Time>2018-09-14T07:06:57.000Z</Time>
            <Position>
              <LatitudeDegrees>38.57873353175818920135498046875</LatitudeDegrees>
              <LongitudeDegrees>-8.179261945188045501708984375</LongitudeDegrees>
            </Position>
            <AltitudeMeters>294</AltitudeMeters>
            <DistanceMeters>181268.55396726</DistanceMeters>
          </Trackpoint>
          <Trackpoint>
            <Time>2018-09-14T07:07:00.000Z</Time>
            <Position>
              <LatitudeDegrees>38.5786047019064426422119140625</LatitudeDegrees>
              <LongitudeDegrees>-8.17920318804681301116943359375</LongitudeDegrees>
            </Position>
            <AltitudeMeters>294.79998779296875</AltitudeMeters>
            <DistanceMeters>181283.77664185</DistanceMeters>
          </Trackpoint>
          <Trackpoint>
            <Time>2018-09-14T07:07:02.000Z</Time>
            <Position>
              <LatitudeDegrees>38.57851870357990264892578125</LatitudeDegrees>
              <LongitudeDegrees>-8.17916505038738250732421875</LongitudeDegrees>
            </Position>
            <AltitudeMeters>295.79998779296875</AltitudeMeters>
            <DistanceMeters>181293.90668571</DistanceMeters>
          </Trackpoint>
          <Trackpoint>
            <Time>2018-09-14T07:07:07.000Z</Time>
            <Position>
              <LatitudeDegrees>38.57831493951380252838134765625</LatitudeDegrees>
              <LongitudeDegrees>-8.17907846532762050628662109375</LongitudeDegrees>
            </Position>
            <AltitudeMeters>296.399993896484375</AltitudeMeters>
            <DistanceMeters>181317.8047236</DistanceMeters>
          </Trackpoint>
          <Trackpoint>
            <Time>2018-09-14T07:07:12.000Z</Time>
            <Position>
              <LatitudeDegrees>38.5781182162463665008544921875</LatitudeDegrees>
              <LongitudeDegrees>-8.17898936569690704345703125</LongitudeDegrees>
            </Position>
            <AltitudeMeters>297</AltitudeMeters>
            <DistanceMeters>181341.03248732</DistanceMeters>
          </Trackpoint>
          <Trackpoint>
            <Time>2018-09-14T07:07:18.000Z</Time>
            <Position>
              <LatitudeDegrees>38.57788159511983394622802734375</LatitudeDegrees>
              <LongitudeDegrees>-8.1788842566311359405517578125</LongitudeDegrees>
            </Position>
            <AltitudeMeters>297</AltitudeMeters>
            <DistanceMeters>181368.91177712</DistanceMeters>
          </Trackpoint>
          <Trackpoint>
            <Time>2018-09-14T07:07:24.000Z</Time>
            <Position>
              <LatitudeDegrees>38.57764723710715770721435546875</LatitudeDegrees>
              <LongitudeDegrees>-8.1787806563079357147216796875</LongitudeDegrees>
            </Position>
            <AltitudeMeters>296.399993896484375</AltitudeMeters>
            <DistanceMeters>181396.51012649</DistanceMeters>
          </Trackpoint>
          <Trackpoint>
            <Time>2018-09-14T07:07:31.000Z</Time>
            <Position>
              <LatitudeDegrees>38.577373065054416656494140625</LatitudeDegrees>
              <LongitudeDegrees>-8.1786592863500118255615234375</LongitudeDegrees>
            </Position>
            <AltitudeMeters>298.399993896484375</AltitudeMeters>
            <DistanceMeters>181428.8017365</DistanceMeters>
          </Trackpoint>
          <Trackpoint>
            <Time>2018-09-14T07:07:39.000Z</Time>
            <Position>
              <LatitudeDegrees>38.57708162628114223480224609375</LatitudeDegrees>
              <LongitudeDegrees>-8.17853028886020183563232421875</LongitudeDegrees>
            </Position>
            <AltitudeMeters>299.79998779296875</AltitudeMeters>
            <DistanceMeters>181463.12651173</DistanceMeters>
          </Trackpoint>
          <Trackpoint>
            <Time>2018-09-14T07:07:43.000Z</Time>
            <Position>
              <LatitudeDegrees>38.57694131322205066680908203125</LatitudeDegrees>
              <LongitudeDegrees>-8.17846834659576416015625</LongitudeDegrees>
            </Position>
            <AltitudeMeters>300.600006103515625</AltitudeMeters>
            <DistanceMeters>181479.64750112</DistanceMeters>
          </Trackpoint>
          <Trackpoint>
            <Time>2018-09-14T07:07:49.000Z</Time>
            <Position>
              <LatitudeDegrees>38.5767281614243984222412109375</LatitudeDegrees>
              <LongitudeDegrees>-8.17837036214768886566162109375</LongitudeDegrees>
            </Position>
            <AltitudeMeters>302.600006103515625</AltitudeMeters>
            <DistanceMeters>181504.85735594</DistanceMeters>
          </Trackpoint>
          <Trackpoint>
            <Time>2018-09-14T07:07:55.000Z</Time>
            <Position>
              <LatitudeDegrees>38.576512075960636138916015625</LatitudeDegrees>
              <LongitudeDegrees>-8.17827162332832813262939453125</LongitudeDegrees>
            </Position>
            <AltitudeMeters>305</AltitudeMeters>
            <DistanceMeters>181530.39674673</DistanceMeters>
          </Trackpoint>
          <Trackpoint>
            <Time>2018-09-14T07:08:02.000Z</Time>
            <Position>
              <LatitudeDegrees>38.57626296579837799072265625</LatitudeDegrees>
              <LongitudeDegrees>-8.17816324532032012939453125</LongitudeDegrees>
            </Position>
            <AltitudeMeters>307.79998779296875</AltitudeMeters>
            <DistanceMeters>181559.68286393</DistanceMeters>
          </Trackpoint>
          <Trackpoint>
            <Time>2018-09-14T07:08:03.000Z</Time>
            <Position>
              <LatitudeDegrees>38.57622809708118438720703125</LatitudeDegrees>
              <LongitudeDegrees>-8.1781478226184844970703125</LongitudeDegrees>
            </Position>
            <AltitudeMeters>307.79998779296875</AltitudeMeters>
            <DistanceMeters>181563.78775402</DistanceMeters>
          </Trackpoint>
          <Trackpoint>
            <Time>2018-09-14T07:08:10.000Z</Time>
            <Position>
              <LatitudeDegrees>38.575998432934284210205078125</LatitudeDegrees>
              <LongitudeDegrees>-8.1780430488288402557373046875</LongitudeDegrees>
            </Position>
            <AltitudeMeters>308.79998779296875</AltitudeMeters>
            <DistanceMeters>181590.92699102</DistanceMeters>
          </Trackpoint>
          <Trackpoint>
            <Time>2018-09-14T07:08:14.000Z</Time>
            <Position>
              <LatitudeDegrees>38.5758742131292819976806640625</LatitudeDegrees>
              <LongitudeDegrees>-8.17798890173435211181640625</LongitudeDegrees>
            </Position>
            <AltitudeMeters>311.20001220703125</AltitudeMeters>
            <DistanceMeters>181605.53362021</DistanceMeters>
          </Trackpoint>
          <Trackpoint>
            <Time>2018-09-14T07:08:18.000Z</Time>
            <Position>
              <LatitudeDegrees>38.57575342990458011627197265625</LatitudeDegrees>
              <LongitudeDegrees>-8.17793819122016429901123046875</LongitudeDegrees>
            </Position>
            <AltitudeMeters>313.399993896484375</AltitudeMeters>
            <DistanceMeters>181619.68271186</DistanceMeters>
          </Trackpoint>
          <Trackpoint>
            <Time>2018-09-14T07:08:24.000Z</Time>
            <Position>
              <LatitudeDegrees>38.57557891868054866790771484375</LatitudeDegrees>
              <LongitudeDegrees>-8.17785688675940036773681640625</LongitudeDegrees>
            </Position>
            <AltitudeMeters>315.600006103515625</AltitudeMeters>
            <DistanceMeters>181640.35446258</DistanceMeters>
          </Trackpoint>
          <Trackpoint>
            <Time>2018-09-14T07:08:29.000Z</Time>
            <Position>
              <LatitudeDegrees>38.5754376836121082305908203125</LatitudeDegrees>
              <LongitudeDegrees>-8.17779385484755039215087890625</LongitudeDegrees>
            </Position>
            <AltitudeMeters>316.79998779296875</AltitudeMeters>
            <DistanceMeters>181657.00340328</DistanceMeters>
          </Trackpoint>
          <Trackpoint>
            <Time>2018-09-14T07:08:33.000Z</Time>
            <Position>
              <LatitudeDegrees>38.57532964088022708892822265625</LatitudeDegrees>
              <LongitudeDegrees>-8.17774373106658458709716796875</LongitudeDegrees>
            </Position>
            <AltitudeMeters>317.79998779296875</AltitudeMeters>
            <DistanceMeters>181669.79535447</DistanceMeters>
          </Trackpoint>
          <Trackpoint>
            <Time>2018-09-14T07:08:38.000Z</Time>
            <Position>
              <LatitudeDegrees>38.5751969553530216217041015625</LatitudeDegrees>
              <LongitudeDegrees>-8.17768254317343235015869140625</LongitudeDegrees>
            </Position>
            <AltitudeMeters>319</AltitudeMeters>
            <DistanceMeters>181685.49375618</DistanceMeters>
          </Trackpoint>
          <Trackpoint>
            <Time>2018-09-14T07:08:44.000Z</Time>
            <Position>
              <LatitudeDegrees>38.57504297979176044464111328125</LatitudeDegrees>
              <LongitudeDegrees>-8.1776112131774425506591796875</LongitudeDegrees>
            </Position>
            <AltitudeMeters>320.600006103515625</AltitudeMeters>
            <DistanceMeters>181703.72081141</DistanceMeters>
          </Trackpoint>
          <Trackpoint>
            <Time>2018-09-14T07:08:50.000Z</Time>
            <Position>
              <LatitudeDegrees>38.574891351163387298583984375</LatitudeDegrees>
              <LongitudeDegrees>-8.1775458343327045440673828125</LongitudeDegrees>
            </Position>
            <AltitudeMeters>322.399993896484375</AltitudeMeters>
            <DistanceMeters>181721.5303997</DistanceMeters>
          </Trackpoint>
          <Trackpoint>
            <Time>2018-09-14T07:08:55.000Z</Time>
            <Position>
              <LatitudeDegrees>38.57477710582315921783447265625</LatitudeDegrees>
              <LongitudeDegrees>-8.17749009467661380767822265625</LongitudeDegrees>
            </Position>
            <AltitudeMeters>323.79998779296875</AltitudeMeters>
            <DistanceMeters>181735.1394727</DistanceMeters>
          </Trackpoint>
          <Trackpoint>
            <Time>2018-09-14T07:08:59.000Z</Time>
            <Position>
              <LatitudeDegrees>38.574690856039524078369140625</LatitudeDegrees>
              <LongitudeDegrees>-8.17745111882686614990234375</LongitudeDegrees>
            </Position>
            <AltitudeMeters>324.79998779296875</AltitudeMeters>
            <DistanceMeters>181745.32108738</DistanceMeters>
          </Trackpoint>
          <Trackpoint>
            <Time>2018-09-14T07:09:04.000Z</Time>
            <Position>
              <LatitudeDegrees>38.5745783708989620208740234375</LatitudeDegrees>
              <LongitudeDegrees>-8.17740241996943950653076171875</LongitudeDegrees>
            </Position>
            <AltitudeMeters>326.20001220703125</AltitudeMeters>
            <DistanceMeters>181758.53902667</DistanceMeters>
          </Trackpoint>
          <Trackpoint>
            <Time>2018-09-14T07:09:09.000Z</Time>
            <Position>
              <LatitudeDegrees>38.5744710825383663177490234375</LatitudeDegrees>
              <LongitudeDegrees>-8.17735531367361545562744140625</LongitudeDegrees>
            </Position>
            <AltitudeMeters>327</AltitudeMeters>
            <DistanceMeters>181771.16435476</DistanceMeters>
          </Trackpoint>
          <Trackpoint>
            <Time>2018-09-14T07:09:14.000Z</Time>
            <Position>
              <LatitudeDegrees>38.5743627883493900299072265625</LatitudeDegrees>
              <LongitudeDegrees>-8.177307285368442535400390625</LongitudeDegrees>
            </Position>
            <AltitudeMeters>327.79998779296875</AltitudeMeters>
            <DistanceMeters>181783.92131512</DistanceMeters>
          </Trackpoint>
          <Trackpoint>
            <Time>2018-09-14T07:09:19.000Z</Time>
            <Position>
              <LatitudeDegrees>38.574255667626857757568359375</LatitudeDegrees>
              <LongitudeDegrees>-8.177252970635890960693359375</LongitudeDegrees>
            </Position>
            <AltitudeMeters>329.600006103515625</AltitudeMeters>
            <DistanceMeters>181796.74675362</DistanceMeters>
          </Trackpoint>
          <Trackpoint>
            <Time>2018-09-14T07:09:25.000Z</Time>
            <Position>
              <LatitudeDegrees>38.574126921594142913818359375</LatitudeDegrees>
              <LongitudeDegrees>-8.17720175720751285552978515625</LongitudeDegrees>
            </Position>
            <AltitudeMeters>332</AltitudeMeters>
            <DistanceMeters>181811.7531538</DistanceMeters>
          </Trackpoint>
          <Trackpoint>
            <Time>2018-09-14T07:09:30.000Z</Time>
            <Position>
              <LatitudeDegrees>38.57402290217578411102294921875</LatitudeDegrees>
              <LongitudeDegrees>-8.17715448327362537384033203125</LongitudeDegrees>
            </Position>
            <AltitudeMeters>334</AltitudeMeters>
            <DistanceMeters>181824.0399279</DistanceMeters>
          </Trackpoint>
          <Trackpoint>
            <Time>2018-09-14T07:09:35.000Z</Time>
            <Position>
              <LatitudeDegrees>38.57391829602420330047607421875</LatitudeDegrees>
              <LongitudeDegrees>-8.17710804753005504608154296875</LongitudeDegrees>
            </Position>
            <AltitudeMeters>335.20001220703125</AltitudeMeters>
            <DistanceMeters>181836.36376074</DistanceMeters>
          </Trackpoint>
          <Trackpoint>
            <Time>2018-09-14T07:09:40.000Z</Time>
            <Position>
              <LatitudeDegrees>38.57381033711135387420654296875</LatitudeDegrees>
              <LongitudeDegrees>-8.17706244997680187225341796875</LongitudeDegrees>
            </Position>
            <AltitudeMeters>336.20001220703125</AltitudeMeters>
            <DistanceMeters>181849.01766589</DistanceMeters>
          </Trackpoint>
          <Trackpoint>
            <Time>2018-09-14T07:09:44.000Z</Time>
            <Position>
              <LatitudeDegrees>38.573726601898670196533203125</LatitudeDegrees>
              <LongitudeDegrees>-8.1770238094031810760498046875</LongitudeDegrees>
            </Position>
            <AltitudeMeters>336.79998779296875</AltitudeMeters>
            <DistanceMeters>181858.92553957</DistanceMeters>
          </Trackpoint>
          <Trackpoint>
            <Time>2018-09-14T07:09:50.000Z</Time>
            <Position>
              <LatitudeDegrees>38.57360263355076313018798828125</LatitudeDegrees>
              <LongitudeDegrees>-8.17696237005293369293212890625</LongitudeDegrees>
            </Position>
            <AltitudeMeters>337.79998779296875</AltitudeMeters>
            <DistanceMeters>181873.72318546</DistanceMeters>
          </Trackpoint>
          <Trackpoint>
            <Time>2018-09-14T07:09:55.000Z</Time>
            <Position>
              <LatitudeDegrees>38.5734974406659603118896484375</LatitudeDegrees>
              <LongitudeDegrees>-8.17692163400352001190185546875</LongitudeDegrees>
            </Position>
            <AltitudeMeters>338.600006103515625</AltitudeMeters>
            <DistanceMeters>181885.95619109</DistanceMeters>
          </Trackpoint>
          <Trackpoint>
            <Time>2018-09-14T07:10:01.000Z</Time>
            <Position>
              <LatitudeDegrees>38.573374561965465545654296875</LatitudeDegrees>
              <LongitudeDegrees>-8.1768642179667949676513671875</LongitudeDegrees>
            </Position>
            <AltitudeMeters>339.20001220703125</AltitudeMeters>
            <DistanceMeters>181900.5170003</DistanceMeters>
          </Trackpoint>
          <Trackpoint>
            <Time>2018-09-14T07:10:06.000Z</Time>
            <Position>
              <LatitudeDegrees>38.57327003963291645050048828125</LatitudeDegrees>
              <LongitudeDegrees>-8.17681945860385894775390625</LongitudeDegrees>
            </Position>
            <AltitudeMeters>340</AltitudeMeters>
            <DistanceMeters>181912.78538708</DistanceMeters>
          </Trackpoint>
          <Trackpoint>
            <Time>2018-09-14T07:10:11.000Z</Time>
            <Position>
              <LatitudeDegrees>38.5731688700616359710693359375</LatitudeDegrees>
              <LongitudeDegrees>-8.176765479147434234619140625</LongitudeDegrees>
            </Position>
            <AltitudeMeters>340.79998779296875</AltitudeMeters>
            <DistanceMeters>181924.98623993</DistanceMeters>
          </Trackpoint>
          <Trackpoint>
            <Time>2018-09-14T07:10:17.000Z</Time>
            <Position>
              <LatitudeDegrees>38.57304138131439685821533203125</LatitudeDegrees>
              <LongitudeDegrees>-8.1767113320529460906982421875</LongitudeDegrees>
            </Position>
            <AltitudeMeters>342.20001220703125</AltitudeMeters>
            <DistanceMeters>181939.93778073</DistanceMeters>
          </Trackpoint>
          <Trackpoint>
            <Time>2018-09-14T07:10:22.000Z</Time>
            <Position>
              <LatitudeDegrees>38.57293778099119663238525390625</LatitudeDegrees>
              <LongitudeDegrees>-8.17668409086763858795166015625</LongitudeDegrees>
            </Position>
            <AltitudeMeters>343.399993896484375</AltitudeMeters>
            <DistanceMeters>181951.70959253</DistanceMeters>
          </Trackpoint>
          <Trackpoint>
            <Time>2018-09-14T07:10:27.000Z</Time>
            <Position>
              <LatitudeDegrees>38.57283367775380611419677734375</LatitudeDegrees>
              <LongitudeDegrees>-8.17667956463992595672607421875</LongitudeDegrees>
            </Position>
            <AltitudeMeters>344.600006103515625</AltitudeMeters>
            <DistanceMeters>181963.30285169</DistanceMeters>
          </Trackpoint>
          <Trackpoint>
            <Time>2018-09-14T07:10:32.000Z</Time>
            <Position>
              <LatitudeDegrees>38.572732843458652496337890625</LatitudeDegrees>
              <LongitudeDegrees>-8.17671258933842182159423828125</LongitudeDegrees>
            </Position>
            <AltitudeMeters>345.600006103515625</AltitudeMeters>
            <DistanceMeters>181974.88753969</DistanceMeters>
          </Trackpoint>
          <Trackpoint>
            <Time>2018-09-14T07:10:36.000Z</Time>
            <Position>
              <LatitudeDegrees>38.5726525448262691497802734375</LatitudeDegrees>
              <LongitudeDegrees>-8.1767234019935131072998046875</LongitudeDegrees>
            </Position>
            <AltitudeMeters>346.399993896484375</AltitudeMeters>
            <DistanceMeters>181983.87447486</DistanceMeters>
          </Trackpoint>
          <Trackpoint>
            <Time>2018-09-14T07:10:41.000Z</Time>
            <Position>
              <LatitudeDegrees>38.57255439274013042449951171875</LatitudeDegrees>
              <LongitudeDegrees>-8.17673354409635066986083984375</LongitudeDegrees>
            </Position>
            <AltitudeMeters>347</AltitudeMeters>
            <DistanceMeters>181994.83513802</DistanceMeters>
          </Trackpoint>
          <Trackpoint>
            <Time>2018-09-14T07:10:46.000Z</Time>
            <Position>
              <LatitudeDegrees>38.57245380990207195281982421875</LatitudeDegrees>
              <LongitudeDegrees>-8.176743686199188232421875</LongitudeDegrees>
            </Position>
            <AltitudeMeters>347.79998779296875</AltitudeMeters>
            <DistanceMeters>182006.06478706</DistanceMeters>
          </Trackpoint>
          <Trackpoint>
            <Time>2018-09-14T07:10:51.000Z</Time>
            <Position>
              <LatitudeDegrees>38.57235926203429698944091796875</LatitudeDegrees>
              <LongitudeDegrees>-8.17675868980586528778076171875</LongitudeDegrees>
            </Position>
            <AltitudeMeters>348.399993896484375</AltitudeMeters>
            <DistanceMeters>182016.66867842</DistanceMeters>
          </Trackpoint>
          <Trackpoint>
            <Time>2018-09-14T07:10:56.000Z</Time>
            <Position>
              <LatitudeDegrees>38.57225851155817508697509765625</LatitudeDegrees>
              <LongitudeDegrees>-8.17676573060452938079833984375</LongitudeDegrees>
            </Position>
            <AltitudeMeters>349</AltitudeMeters>
            <DistanceMeters>182027.89953358</DistanceMeters>
          </Trackpoint>
          <Trackpoint>
            <Time>2018-09-14T07:11:03.000Z</Time>
            <Position>
              <LatitudeDegrees>38.57211937196552753448486328125</LatitudeDegrees>
              <LongitudeDegrees>-8.176777549088001251220703125</LongitudeDegrees>
            </Position>
            <AltitudeMeters>350</AltitudeMeters>
            <DistanceMeters>182043.42004644</DistanceMeters>
          </Trackpoint>
          <Trackpoint>
            <Time>2018-09-14T07:11:08.000Z</Time>
            <Position>
              <LatitudeDegrees>38.57201811857521533966064453125</LatitudeDegrees>
              <LongitudeDegrees>-8.1767921335995197296142578125</LongitudeDegrees>
            </Position>
            <AltitudeMeters>350.79998779296875</AltitudeMeters>
            <DistanceMeters>182054.76091848</DistanceMeters>
          </Trackpoint>
          <Trackpoint>
            <Time>2018-09-14T07:11:13.000Z</Time>
            <Position>
              <LatitudeDegrees>38.5719159431755542755126953125</LatitudeDegrees>
              <LongitudeDegrees>-8.17679456435143947601318359375</LongitudeDegrees>
            </Position>
            <AltitudeMeters>351.399993896484375</AltitudeMeters>
            <DistanceMeters>182066.13558047</DistanceMeters>
          </Trackpoint>
          <Trackpoint>
            <Time>2018-09-14T07:11:19.000Z</Time>
            <Position>
              <LatitudeDegrees>38.57179105281829833984375</LatitudeDegrees>
              <LongitudeDegrees>-8.17680445499718189239501953125</LongitudeDegrees>
            </Position>
            <AltitudeMeters>351.79998779296875</AltitudeMeters>
            <DistanceMeters>182080.06274967</DistanceMeters>
          </Trackpoint>
          <Trackpoint>
            <Time>2018-09-14T07:11:23.000Z</Time>
            <Position>
              <LatitudeDegrees>38.5717047192156314849853515625</LatitudeDegrees>
              <LongitudeDegrees>-8.17681870423257350921630859375</LongitudeDegrees>
            </Position>
            <AltitudeMeters>351.79998779296875</AltitudeMeters>
            <DistanceMeters>182089.75174728</DistanceMeters>
          </Trackpoint>
          <Trackpoint>
            <Time>2018-09-14T07:11:28.000Z</Time>
            <Position>
              <LatitudeDegrees>38.571596927940845489501953125</LatitudeDegrees>
              <LongitudeDegrees>-8.1768390722572803497314453125</LongitudeDegrees>
            </Position>
            <AltitudeMeters>351.79998779296875</AltitudeMeters>
            <DistanceMeters>182101.87947935</DistanceMeters>
          </Trackpoint>
          <Trackpoint>
            <Time>2018-09-14T07:11:33.000Z</Time>
            <Position>
              <LatitudeDegrees>38.5714918188750743865966796875</LatitudeDegrees>
              <LongitudeDegrees>-8.17685172893106937408447265625</LongitudeDegrees>
            </Position>
            <AltitudeMeters>351.600006103515625</AltitudeMeters>
            <DistanceMeters>182113.62979291</DistanceMeters>
          </Trackpoint>
          <Trackpoint>
            <Time>2018-09-14T07:11:38.000Z</Time>
            <Position>
              <LatitudeDegrees>38.5713659226894378662109375</LatitudeDegrees>
              <LongitudeDegrees>-8.1768373958766460418701171875</LongitudeDegrees>
            </Position>
            <AltitudeMeters>351.79998779296875</AltitudeMeters>
            <DistanceMeters>182127.69759855</DistanceMeters>
          </Trackpoint>
          <Trackpoint>
            <Time>2018-09-14T07:11:44.000Z</Time>
            <Position>
              <LatitudeDegrees>38.571191914379596710205078125</LatitudeDegrees>
              <LongitudeDegrees>-8.17676388658583164215087890625</LongitudeDegrees>
            </Position>
            <AltitudeMeters>352</AltitudeMeters>
            <DistanceMeters>182148.09383819</DistanceMeters>
          </Trackpoint>
          <Trackpoint>
            <Time>2018-09-14T07:11:48.000Z</Time>
            <Position>
              <LatitudeDegrees>38.5710653476417064666748046875</LatitudeDegrees>
              <LongitudeDegrees>-8.17668811418116092681884765625</LongitudeDegrees>
            </Position>
            <AltitudeMeters>352.399993896484375</AltitudeMeters>
            <DistanceMeters>182163.64776947</DistanceMeters>
          </Trackpoint>
          <Trackpoint>
            <Time>2018-09-14T07:11:53.000Z</Time>
            <Position>
              <LatitudeDegrees>38.570892177522182464599609375</LatitudeDegrees>
              <LongitudeDegrees>-8.17660697735846042633056640625</LongitudeDegrees>
            </Position>
            <AltitudeMeters>352.20001220703125</AltitudeMeters>
            <DistanceMeters>182184.17441963</DistanceMeters>
          </Trackpoint>
          <Trackpoint>
            <Time>2018-09-14T07:11:58.000Z</Time>
            <Position>
              <LatitudeDegrees>38.57071255333721637725830078125</LatitudeDegrees>
              <LongitudeDegrees>-8.17650522105395793914794921875</LongitudeDegrees>
            </Position>
            <AltitudeMeters>352</AltitudeMeters>
            <DistanceMeters>182206.04006454</DistanceMeters>
          </Trackpoint>
          <Trackpoint>
            <Time>2018-09-14T07:12:02.000Z</Time>
            <Position>
              <LatitudeDegrees>38.57055346481502056121826171875</LatitudeDegrees>
              <LongitudeDegrees>-8.176421485841274261474609375</LongitudeDegrees>
            </Position>
            <AltitudeMeters>351.600006103515625</AltitudeMeters>
            <DistanceMeters>182225.18765273</DistanceMeters>
          </Trackpoint>
          <Trackpoint>
            <Time>2018-09-14T07:12:07.000Z</Time>
            <Position>
              <LatitudeDegrees>38.57034475542604923248291015625</LatitudeDegrees>
              <LongitudeDegrees>-8.17631243728101253509521484375</LongitudeDegrees>
            </Position>
            <AltitudeMeters>351.20001220703125</AltitudeMeters>
            <DistanceMeters>182250.28082373</DistanceMeters>
          </Trackpoint>
          <Trackpoint>
            <Time>2018-09-14T07:12:12.000Z</Time>
            <Position>
              <LatitudeDegrees>38.57010972686111927032470703125</LatitudeDegrees>
              <LongitudeDegrees>-8.176190815865993499755859375</LongitudeDegrees>
            </Position>
            <AltitudeMeters>351.20001220703125</AltitudeMeters>
            <DistanceMeters>182278.49975817</DistanceMeters>
          </Trackpoint>
          <Trackpoint>
            <Time>2018-09-14T07:12:18.000Z</Time>
            <Position>
              <LatitudeDegrees>38.569813258945941925048828125</LatitudeDegrees>
              <LongitudeDegrees>-8.1760401092469692230224609375</LongitudeDegrees>
            </Position>
            <AltitudeMeters>352.20001220703125</AltitudeMeters>
            <DistanceMeters>182314.00797488</DistanceMeters>
          </Trackpoint>
          <Trackpoint>
            <Time>2018-09-14T07:12:21.000Z</Time>
            <Position>
              <LatitudeDegrees>38.5696612112224102020263671875</LatitudeDegrees>
              <LongitudeDegrees>-8.1759738922119140625</LongitudeDegrees>
            </Position>
            <AltitudeMeters>352.600006103515625</AltitudeMeters>
            <DistanceMeters>182331.88512413</DistanceMeters>
          </Trackpoint>
          <Trackpoint>
            <Time>2018-09-14T07:12:32.000Z</Time>
            <Position>
              <LatitudeDegrees>38.56910255737602710723876953125</LatitudeDegrees>
              <LongitudeDegrees>-8.17574515007436275482177734375</LongitudeDegrees>
            </Position>
            <AltitudeMeters>354.399993896484375</AltitudeMeters>
            <DistanceMeters>182397.17290303</DistanceMeters>
          </Trackpoint>
          <Trackpoint>
            <Time>2018-09-14T07:12:42.000Z</Time>
            <Position>
              <LatitudeDegrees>38.56857768259942531585693359375</LatitudeDegrees>
              <LongitudeDegrees>-8.175529651343822479248046875</LongitudeDegrees>
            </Position>
            <AltitudeMeters>355</AltitudeMeters>
            <DistanceMeters>182458.52882018</DistanceMeters>
          </Trackpoint>
          <Trackpoint>
            <Time>2018-09-14T07:12:49.000Z</Time>
            <Position>
              <LatitudeDegrees>38.5682366229593753814697265625</LatitudeDegrees>
              <LongitudeDegrees>-8.17538992501795291900634765625</LongitudeDegrees>
            </Position>
            <AltitudeMeters>355.600006103515625</AltitudeMeters>
            <DistanceMeters>182498.38932708</DistanceMeters>
          </Trackpoint>
          <Trackpoint>
            <Time>2018-09-14T07:12:53.000Z</Time>
            <Position>
              <LatitudeDegrees>38.568047024309635162353515625</LatitudeDegrees>
              <LongitudeDegrees>-8.17531012929975986480712890625</LongitudeDegrees>
            </Position>
            <AltitudeMeters>356.20001220703125</AltitudeMeters>
            <DistanceMeters>182520.60526411</DistanceMeters>
          </Trackpoint>
          <Trackpoint>
            <Time>2018-09-14T07:12:54.000Z</Time>
            <Position>
              <LatitudeDegrees>38.5680019296705722808837890625</LatitudeDegrees>
              <LongitudeDegrees>-8.175291605293750762939453125</LongitudeDegrees>
            </Position>
            <AltitudeMeters>356.20001220703125</AltitudeMeters>
            <DistanceMeters>182525.87732019</DistanceMeters>
          </Trackpoint>
          <Trackpoint>
            <Time>2018-09-14T07:12:59.000Z</Time>
            <Position>
              <LatitudeDegrees>38.5677846707403659820556640625</LatitudeDegrees>
              <LongitudeDegrees>-8.175182640552520751953125</LongitudeDegrees>
            </Position>
            <AltitudeMeters>356.79998779296875</AltitudeMeters>
            <DistanceMeters>182551.8514433</DistanceMeters>
          </Trackpoint>
          <Trackpoint>
            <Time>2018-09-14T07:13:04.000Z</Time>
            <Position>
              <LatitudeDegrees>38.5675759613513946533203125</LatitudeDegrees>
              <LongitudeDegrees>-8.17504995502531528472900390625</LongitudeDegrees>
            </Position>
            <AltitudeMeters>357.600006103515625</AltitudeMeters>
            <DistanceMeters>182577.7928661</DistanceMeters>
          </Trackpoint>
          <Trackpoint>
            <Time>2018-09-14T07:13:09.000Z</Time>
            <Position>
              <LatitudeDegrees>38.56737353838980197906494140625</LatitudeDegrees>
              <LongitudeDegrees>-8.1749132461845874786376953125</LongitudeDegrees>
            </Position>
            <AltitudeMeters>358.79998779296875</AltitudeMeters>
            <DistanceMeters>182603.27101508</DistanceMeters>
          </Trackpoint>
          <Trackpoint>
            <Time>2018-09-14T07:13:16.000Z</Time>
            <Position>
              <LatitudeDegrees>38.56711386702954769134521484375</LatitudeDegrees>
              <LongitudeDegrees>-8.17474015988409519195556640625</LongitudeDegrees>
            </Position>
            <AltitudeMeters>360.20001220703125</AltitudeMeters>
            <DistanceMeters>182635.86254606</DistanceMeters>
          </Trackpoint>
          <Trackpoint>
            <Time>2018-09-14T07:13:22.000Z</Time>
            <Position>
              <LatitudeDegrees>38.566903732717037200927734375</LatitudeDegrees>
              <LongitudeDegrees>-8.174608312547206878662109375</LongitudeDegrees>
            </Position>
            <AltitudeMeters>361</AltitudeMeters>
            <DistanceMeters>182661.91373462</DistanceMeters>
          </Trackpoint>
          <Trackpoint>
            <Time>2018-09-14T07:13:27.000Z</Time>
            <Position>
              <LatitudeDegrees>38.566733412444591522216796875</LatitudeDegrees>
              <LongitudeDegrees>-8.17450379021465778350830078125</LongitudeDegrees>
            </Position>
            <AltitudeMeters>362.20001220703125</AltitudeMeters>
            <DistanceMeters>182682.93999231</DistanceMeters>
          </Trackpoint>
          <Trackpoint>
            <Time>2018-09-14T07:13:33.000Z</Time>
            <Position>
              <LatitudeDegrees>38.566516153514385223388671875</LatitudeDegrees>
              <LongitudeDegrees>-8.174387030303478240966796875</LongitudeDegrees>
            </Position>
            <AltitudeMeters>363.600006103515625</AltitudeMeters>
            <DistanceMeters>182709.16960333</DistanceMeters>
          </Trackpoint>
          <Trackpoint>
            <Time>2018-09-14T07:13:40.000Z</Time>
            <Position>
              <LatitudeDegrees>38.5662594996392726898193359375</LatitudeDegrees>
              <LongitudeDegrees>-8.174270354211330413818359375</LongitudeDegrees>
            </Position>
            <AltitudeMeters>364.79998779296875</AltitudeMeters>
            <DistanceMeters>182739.48655075</DistanceMeters>
          </Trackpoint>
          <Trackpoint>
            <Time>2018-09-14T07:13:47.000Z</Time>
            <Position>
              <LatitudeDegrees>38.5660036839544773101806640625</LatitudeDegrees>
              <LongitudeDegrees>-8.17414797842502593994140625</LongitudeDegrees>
            </Position>
            <AltitudeMeters>365.20001220703125</AltitudeMeters>
            <DistanceMeters>182769.88574372</DistanceMeters>
          </Trackpoint>
          <Trackpoint>
            <Time>2018-09-14T07:13:53.000Z</Time>
            <Position>
              <LatitudeDegrees>38.56577879749238491058349609375</LatitudeDegrees>
              <LongitudeDegrees>-8.1740520894527435302734375</LongitudeDegrees>
            </Position>
            <AltitudeMeters>366</AltitudeMeters>
            <DistanceMeters>182796.27033493</DistanceMeters>
          </Trackpoint>
          <Trackpoint>
            <Time>2018-09-14T07:14:02.000Z</Time>
            <Position>
              <LatitudeDegrees>38.56543128378689289093017578125</LatitudeDegrees>
              <LongitudeDegrees>-8.17389274947345256805419921875</LongitudeDegrees>
            </Position>
            <AltitudeMeters>367.399993896484375</AltitudeMeters>
            <DistanceMeters>182837.35980271</DistanceMeters>
          </Trackpoint>
          <Trackpoint>
            <Time>2018-09-14T07:14:10.000Z</Time>
            <Position>
              <LatitudeDegrees>38.56511260382831096649169921875</LatitudeDegrees>
              <LongitudeDegrees>-8.1737545318901538848876953125</LongitudeDegrees>
            </Position>
            <AltitudeMeters>369.399993896484375</AltitudeMeters>
            <DistanceMeters>182874.81359097</DistanceMeters>
          </Trackpoint>
          <Trackpoint>
            <Time>2018-09-14T07:14:14.000Z</Time>
            <Position>
              <LatitudeDegrees>38.56495921500027179718017578125</LatitudeDegrees>
              <LongitudeDegrees>-8.1736827827990055084228515625</LongitudeDegrees>
            </Position>
            <AltitudeMeters>371.20001220703125</AltitudeMeters>
            <DistanceMeters>182892.99203005</DistanceMeters>
          </Trackpoint>
          <Trackpoint>
            <Time>2018-09-14T07:14:21.000Z</Time>
            <Position>
              <LatitudeDegrees>38.56467783451080322265625</LatitudeDegrees>
              <LongitudeDegrees>-8.17356233485043048858642578125</LongitudeDegrees>
            </Position>
            <AltitudeMeters>372.399993896484375</AltitudeMeters>
            <DistanceMeters>182926.01788074</DistanceMeters>
          </Trackpoint>
          <Trackpoint>
            <Time>2018-09-14T07:14:28.000Z</Time>
            <Position>
              <LatitudeDegrees>38.56438321061432361602783203125</LatitudeDegrees>
              <LongitudeDegrees>-8.17343409173190593719482421875</LongitudeDegrees>
            </Position>
            <AltitudeMeters>373.600006103515625</AltitudeMeters>
            <DistanceMeters>182960.65730145</DistanceMeters>
          </Trackpoint>
          <Trackpoint>
            <Time>2018-09-14T07:14:36.000Z</Time>
            <Position>
              <LatitudeDegrees>38.5640393011271953582763671875</LatitudeDegrees>
              <LongitudeDegrees>-8.173283636569976806640625</LongitudeDegrees>
            </Position>
            <AltitudeMeters>372.399993896484375</AltitudeMeters>
            <DistanceMeters>183001.11257447</DistanceMeters>
          </Trackpoint>
          <Trackpoint>
            <Time>2018-09-14T07:14:44.000Z</Time>
            <Position>
              <LatitudeDegrees>38.56367309577763080596923828125</LatitudeDegrees>
              <LongitudeDegrees>-8.17313519306480884552001953125</LongitudeDegrees>
            </Position>
            <AltitudeMeters>371.600006103515625</AltitudeMeters>
            <DistanceMeters>183043.87016113</DistanceMeters>
          </Trackpoint>
          <Trackpoint>
            <Time>2018-09-14T07:14:52.000Z</Time>
            <Position>
              <LatitudeDegrees>38.56318694539368152618408203125</LatitudeDegrees>
              <LongitudeDegrees>-8.17303217947483062744140625</LongitudeDegrees>
            </Position>
            <AltitudeMeters>368.20001220703125</AltitudeMeters>
            <DistanceMeters>183098.71745355</DistanceMeters>
          </Trackpoint>
          <Trackpoint>
            <Time>2018-09-14T07:14:55.000Z</Time>
            <Position>
              <LatitudeDegrees>38.5629416070878505706787109375</LatitudeDegrees>
              <LongitudeDegrees>-8.1730279885232448577880859375</LongitudeDegrees>
            </Position>
            <AltitudeMeters>366.79998779296875</AltitudeMeters>
            <DistanceMeters>183126.02668301</DistanceMeters>
          </Trackpoint>
          <Trackpoint>
            <Time>2018-09-14T07:14:57.000Z</Time>
            <Position>
              <LatitudeDegrees>38.56275477446615695953369140625</LatitudeDegrees>
              <LongitudeDegrees>-8.17301583476364612579345703125</LongitudeDegrees>
            </Position>
            <AltitudeMeters>366.600006103515625</AltitudeMeters>
            <DistanceMeters>183146.84837843</DistanceMeters>
          </Trackpoint>
          <Trackpoint>
            <Time>2018-09-14T07:14:59.000Z</Time>
            <Position>
              <LatitudeDegrees>38.56254539452493190765380859375</LatitudeDegrees>
              <LongitudeDegrees>-8.17299001850187778472900390625</LongitudeDegrees>
            </Position>
            <AltitudeMeters>365.79998779296875</AltitudeMeters>
            <DistanceMeters>183170.26084733</DistanceMeters>
          </Trackpoint>
          <Trackpoint>
            <Time>2018-09-14T07:15:00.000Z</Time>
            <Position>
              <LatitudeDegrees>38.56243408285081386566162109375</LatitudeDegrees>
              <LongitudeDegrees>-8.17297375760972499847412109375</LongitudeDegrees>
            </Position>
            <AltitudeMeters>365.20001220703125</AltitudeMeters>
            <DistanceMeters>183182.7307277</DistanceMeters>
          </Trackpoint>
          <Trackpoint>
            <Time>2018-09-14T07:15:03.000Z</Time>
            <Position>
              <LatitudeDegrees>38.56208740733563899993896484375</LatitudeDegrees>
              <LongitudeDegrees>-8.172918520867824554443359375</LongitudeDegrees>
            </Position>
            <AltitudeMeters>362.399993896484375</AltitudeMeters>
            <DistanceMeters>183221.61465599</DistanceMeters>
          </Trackpoint>
          <Trackpoint>
            <Time>2018-09-14T07:15:05.000Z</Time>
            <Position>
              <LatitudeDegrees>38.56184852309525012969970703125</LatitudeDegrees>
              <LongitudeDegrees>-8.17287736572325229644775390625</LongitudeDegrees>
            </Position>
            <AltitudeMeters>360.399993896484375</AltitudeMeters>
            <DistanceMeters>183248.44317316</DistanceMeters>
          </Trackpoint>
          <Trackpoint>
            <Time>2018-09-14T07:15:07.000Z</Time>
            <Position>
              <LatitudeDegrees>38.56161399744451045989990234375</LatitudeDegrees>
              <LongitudeDegrees>-8.17283906042575836181640625</LongitudeDegrees>
            </Position>
            <AltitudeMeters>357.600006103515625</AltitudeMeters>
            <DistanceMeters>183274.75853943</DistanceMeters>
          </Trackpoint>
          <Trackpoint>
            <Time>2018-09-14T07:15:08.000Z</Time>
            <Position>
              <LatitudeDegrees>38.56149581260979175567626953125</LatitudeDegrees>
              <LongitudeDegrees>-8.1728181056678295135498046875</LongitudeDegrees>
            </Position>
            <AltitudeMeters>356.20001220703125</AltitudeMeters>
            <DistanceMeters>183288.03850152</DistanceMeters>
          </Trackpoint>
          <Trackpoint>
            <Time>2018-09-14T07:15:09.000Z</Time>
            <Position>
              <LatitudeDegrees>38.5613731853663921356201171875</LatitudeDegrees>
              <LongitudeDegrees>-8.17279505543410778045654296875</LongitudeDegrees>
            </Position>
            <AltitudeMeters>354.600006103515625</AltitudeMeters>
            <DistanceMeters>183301.83374929</DistanceMeters>
          </Trackpoint>
          <Trackpoint>
            <Time>2018-09-14T07:15:10.000Z</Time>
            <Position>
              <LatitudeDegrees>38.5612501390278339385986328125</LatitudeDegrees>
              <LongitudeDegrees>-8.17277326248586177825927734375</LongitudeDegrees>
            </Position>
            <AltitudeMeters>353.20001220703125</AltitudeMeters>
            <DistanceMeters>183315.66005459</DistanceMeters>
          </Trackpoint>
          <Trackpoint>
            <Time>2018-09-14T07:15:11.000Z</Time>
            <Position>
              <LatitudeDegrees>38.56112591922283172607421875</LatitudeDegrees>
              <LongitudeDegrees>-8.17275348119437694549560546875</LongitudeDegrees>
            </Position>
            <AltitudeMeters>351.600006103515625</AltitudeMeters>
            <DistanceMeters>183329.59305798</DistanceMeters>
          </Trackpoint>
          <Trackpoint>
            <Time>2018-09-14T07:15:12.000Z</Time>
            <Position>
              <LatitudeDegrees>38.56100094504654407501220703125</LatitudeDegrees>
              <LongitudeDegrees>-8.17273554392158985137939453125</LongitudeDegrees>
            </Position>
            <AltitudeMeters>350.20001220703125</AltitudeMeters>
            <DistanceMeters>183343.5900769</DistanceMeters>
          </Trackpoint>
          <Trackpoint>
            <Time>2018-09-14T07:15:14.000Z</Time>
            <Position>
              <LatitudeDegrees>38.56074730865657329559326171875</LatitudeDegrees>
              <LongitudeDegrees>-8.172696568071842193603515625</LongitudeDegrees>
            </Position>
            <AltitudeMeters>349</AltitudeMeters>
            <DistanceMeters>183372.02339738</DistanceMeters>
          </Trackpoint>
          <Trackpoint>
            <Time>2018-09-14T07:15:16.000Z</Time>
            <Position>
              <LatitudeDegrees>38.56049291789531707763671875</LatitudeDegrees>
              <LongitudeDegrees>-8.1726561672985553741455078125</LongitudeDegrees>
            </Position>
            <AltitudeMeters>347.600006103515625</AltitudeMeters>
            <DistanceMeters>183400.55500024</DistanceMeters>
          </Trackpoint>
          <Trackpoint>
            <Time>2018-09-14T07:15:18.000Z</Time>
            <Position>
              <LatitudeDegrees>38.560233414173126220703125</LatitudeDegrees>
              <LongitudeDegrees>-8.17261484451591968536376953125</LongitudeDegrees>
            </Position>
            <AltitudeMeters>346.399993896484375</AltitudeMeters>
            <DistanceMeters>183429.66142069</DistanceMeters>
          </Trackpoint>
          <Trackpoint>
            <Time>2018-09-14T07:15:19.000Z</Time>
            <Position>
              <LatitudeDegrees>38.560101650655269622802734375</LatitudeDegrees>
              <LongitudeDegrees>-8.17259229719638824462890625</LongitudeDegrees>
            </Position>
            <AltitudeMeters>345.600006103515625</AltitudeMeters>
            <DistanceMeters>183444.4575409</DistanceMeters>
          </Trackpoint>
          <Trackpoint>
            <Time>2018-09-14T07:15:20.000Z</Time>
            <Position>
              <LatitudeDegrees>38.55996586382389068603515625</LatitudeDegrees>
              <LongitudeDegrees>-8.17256907932460308074951171875</LongitudeDegrees>
            </Position>
            <AltitudeMeters>344.79998779296875</AltitudeMeters>
            <DistanceMeters>183459.70570172</DistanceMeters>
          </Trackpoint>
          <Trackpoint>
            <Time>2018-09-14T07:15:21.000Z</Time>
            <Position>
              <LatitudeDegrees>38.55982580222189426422119140625</LatitudeDegrees>
              <LongitudeDegrees>-8.172548376023769378662109375</LongitudeDegrees>
            </Position>
            <AltitudeMeters>343.79998779296875</AltitudeMeters>
            <DistanceMeters>183475.39863786</DistanceMeters>
          </Trackpoint>
          <Trackpoint>
            <Time>2018-09-14T07:15:23.000Z</Time>
            <Position>
              <LatitudeDegrees>38.55953662656247615814208984375</LatitudeDegrees>
              <LongitudeDegrees>-8.17250554449856281280517578125</LongitudeDegrees>
            </Position>
            <AltitudeMeters>341.79998779296875</AltitudeMeters>
            <DistanceMeters>183507.79954259</DistanceMeters>
          </Trackpoint>
          <Trackpoint>
            <Time>2018-09-14T07:15:25.000Z</Time>
            <Position>
              <LatitudeDegrees>38.55923403985798358917236328125</LatitudeDegrees>
              <LongitudeDegrees>-8.17245659418404102325439453125</LongitudeDegrees>
            </Position>
            <AltitudeMeters>340.600006103515625</AltitudeMeters>
            <DistanceMeters>183541.74656449</DistanceMeters>
          </Trackpoint>
          <Trackpoint>
            <Time>2018-09-14T07:15:27.000Z</Time>
            <Position>
              <LatitudeDegrees>38.5589253343641757965087890625</LatitudeDegrees>
              <LongitudeDegrees>-8.17240261472761631011962890625</LongitudeDegrees>
            </Position>
            <AltitudeMeters>338.399993896484375</AltitudeMeters>
            <DistanceMeters>183576.42571732</DistanceMeters>
          </Trackpoint>
          <Trackpoint>
            <Time>2018-09-14T07:15:28.000Z</Time>
            <Position>
              <LatitudeDegrees>38.5587724484503269195556640625</LatitudeDegrees>
              <LongitudeDegrees>-8.1723797321319580078125</LongitudeDegrees>
            </Position>
            <AltitudeMeters>337.399993896484375</AltitudeMeters>
            <DistanceMeters>183593.55848314</DistanceMeters>
          </Trackpoint>
          <Trackpoint>
            <Time>2018-09-14T07:15:29.000Z</Time>
            <Position>
              <LatitudeDegrees>38.55861813761293888092041015625</LatitudeDegrees>
              <LongitudeDegrees>-8.1723547540605068206787109375</LongitudeDegrees>
            </Position>
            <AltitudeMeters>335.399993896484375</AltitudeMeters>
            <DistanceMeters>183610.8705667</DistanceMeters>
          </Trackpoint>
          <Trackpoint>
            <Time>2018-09-14T07:15:31.000Z</Time>
            <Position>
              <LatitudeDegrees>38.5583245195448398590087890625</LatitudeDegrees>
              <LongitudeDegrees>-8.17229884676635265350341796875</LongitudeDegrees>
            </Position>
            <AltitudeMeters>332.399993896484375</AltitudeMeters>
            <DistanceMeters>183643.91117901</DistanceMeters>
          </Trackpoint>
          <Trackpoint>
            <Time>2018-09-14T07:15:32.000Z</Time>
            <Position>
              <LatitudeDegrees>38.558182530105113983154296875</LatitudeDegrees>
              <LongitudeDegrees>-8.172254003584384918212890625</LongitudeDegrees>
            </Position>
            <AltitudeMeters>331.399993896484375</AltitudeMeters>
            <DistanceMeters>183660.18989589</DistanceMeters>
          </Trackpoint>
          <Trackpoint>
            <Time>2018-09-14T07:15:33.000Z</Time>
            <Position>
              <LatitudeDegrees>38.5580487549304962158203125</LatitudeDegrees>
              <LongitudeDegrees>-8.17218300886452198028564453125</LongitudeDegrees>
            </Position>
            <AltitudeMeters>330.399993896484375</AltitudeMeters>
            <DistanceMeters>183676.31086361</DistanceMeters>
          </Trackpoint>
          <Trackpoint>
            <Time>2018-09-14T07:15:34.000Z</Time>
            <Position>
              <LatitudeDegrees>38.55792780406773090362548828125</LatitudeDegrees>
              <LongitudeDegrees>-8.172087036073207855224609375</LongitudeDegrees>
            </Position>
            <AltitudeMeters>329</AltitudeMeters>
            <DistanceMeters>183692.15384328</DistanceMeters>
          </Trackpoint>
          <Trackpoint>
            <Time>2018-09-14T07:15:35.000Z</Time>
            <Position>
              <LatitudeDegrees>38.55781649239361286163330078125</LatitudeDegrees>
              <LongitudeDegrees>-8.17197396419942378997802734375</LongitudeDegrees>
            </Position>
            <AltitudeMeters>328</AltitudeMeters>
            <DistanceMeters>183707.9762906</DistanceMeters>
          </Trackpoint>
          <Trackpoint>
            <Time>2018-09-14T07:15:36.000Z</Time>
            <Position>
              <LatitudeDegrees>38.5577089525759220123291015625</LatitudeDegrees>
              <LongitudeDegrees>-8.17185477353632450103759765625</LongitudeDegrees>
            </Position>
            <AltitudeMeters>327</AltitudeMeters>
            <DistanceMeters>183723.81556501</DistanceMeters>
          </Trackpoint>
          <Trackpoint>
            <Time>2018-09-14T07:15:37.000Z</Time>
            <Position>
              <LatitudeDegrees>38.5576030053198337554931640625</LatitudeDegrees>
              <LongitudeDegrees>-8.1717371754348278045654296875</LongitudeDegrees>
            </Position>
            <AltitudeMeters>326.20001220703125</AltitudeMeters>
            <DistanceMeters>183739.43004752</DistanceMeters>
          </Trackpoint>
          <Trackpoint>
            <Time>2018-09-14T07:15:38.000Z</Time>
            <Position>
              <LatitudeDegrees>38.55749546550214290618896484375</LatitudeDegrees>
              <LongitudeDegrees>-8.1716181524097919464111328125</LongitudeDegrees>
            </Position>
            <AltitudeMeters>325.600006103515625</AltitudeMeters>
            <DistanceMeters>183755.25991237</DistanceMeters>
          </Trackpoint>
          <Trackpoint>
            <Time>2018-09-14T07:15:39.000Z</Time>
            <Position>
              <LatitudeDegrees>38.557392619550228118896484375</LatitudeDegrees>
              <LongitudeDegrees>-8.17150122486054897308349609375</LongitudeDegrees>
            </Position>
            <AltitudeMeters>325</AltitudeMeters>
            <DistanceMeters>183770.57661522</DistanceMeters>
          </Trackpoint>
          <Trackpoint>
            <Time>2018-09-14T07:15:40.000Z</Time>
            <Position>
              <LatitudeDegrees>38.55729295872151851654052734375</LatitudeDegrees>
              <LongitudeDegrees>-8.17138622514903545379638671875</LongitudeDegrees>
            </Position>
            <AltitudeMeters>324.399993896484375</AltitudeMeters>
            <DistanceMeters>183785.51697866</DistanceMeters>
          </Trackpoint>
          <Trackpoint>
            <Time>2018-09-14T07:15:41.000Z</Time>
            <Position>
              <LatitudeDegrees>38.55719874612987041473388671875</LatitudeDegrees>
              <LongitudeDegrees>-8.1712758354842662811279296875</LongitudeDegrees>
            </Position>
            <AltitudeMeters>323.399993896484375</AltitudeMeters>
            <DistanceMeters>183799.73864003</DistanceMeters>
          </Trackpoint>
          <Trackpoint>
            <Time>2018-09-14T07:15:43.000Z</Time>
            <Position>
              <LatitudeDegrees>38.55701182968914508819580078125</LatitudeDegrees>
              <LongitudeDegrees>-8.17105983383953571319580078125</LongitudeDegrees>
            </Position>
            <AltitudeMeters>321.20001220703125</AltitudeMeters>
            <DistanceMeters>183827.77892865</DistanceMeters>
          </Trackpoint>
          <Trackpoint>
            <Time>2018-09-14T07:15:44.000Z</Time>
            <Position>
              <LatitudeDegrees>38.55691560544073581695556640625</LatitudeDegrees>
              <LongitudeDegrees>-8.1709543056786060333251953125</LongitudeDegrees>
            </Position>
            <AltitudeMeters>320.20001220703125</AltitudeMeters>
            <DistanceMeters>183841.88807587</DistanceMeters>
          </Trackpoint>
          <Trackpoint>
            <Time>2018-09-14T07:15:47.000Z</Time>
            <Position>
              <LatitudeDegrees>38.5566062293946743011474609375</LatitudeDegrees>
              <LongitudeDegrees>-8.17067342810332775115966796875</LongitudeDegrees>
            </Position>
            <AltitudeMeters>317.79998779296875</AltitudeMeters>
            <DistanceMeters>183884.11790924</DistanceMeters>
          </Trackpoint>
          <Trackpoint>
            <Time>2018-09-14T07:15:51.000Z</Time>
            <Position>
              <LatitudeDegrees>38.55608428828418254852294921875</LatitudeDegrees>
              <LongitudeDegrees>-8.17062246613204479217529296875</LongitudeDegrees>
            </Position>
            <AltitudeMeters>311.600006103515625</AltitudeMeters>
            <DistanceMeters>183942.38005799</DistanceMeters>
          </Trackpoint>
          <Trackpoint>
            <Time>2018-09-14T07:15:52.000Z</Time>
            <Position>
              <LatitudeDegrees>38.5559440590441226959228515625</LatitudeDegrees>
              <LongitudeDegrees>-8.170655407011508941650390625</LongitudeDegrees>
            </Position>
            <AltitudeMeters>310.399993896484375</AltitudeMeters>
            <DistanceMeters>183958.24895025</DistanceMeters>
          </Trackpoint>
          <Trackpoint>
            <Time>2018-09-14T07:15:55.000Z</Time>
            <Position>
              <LatitudeDegrees>38.55550677515566349029541015625</LatitudeDegrees>
              <LongitudeDegrees>-8.1707846559584140777587890625</LongitudeDegrees>
            </Position>
            <AltitudeMeters>309.20001220703125</AltitudeMeters>
            <DistanceMeters>184008.20282282</DistanceMeters>
          </Trackpoint>
          <Trackpoint>
            <Time>2018-09-14T07:15:56.000Z</Time>
            <Position>
              <LatitudeDegrees>38.55535958893597126007080078125</LatitudeDegrees>
              <LongitudeDegrees>-8.17084592767059803009033203125</LongitudeDegrees>
            </Position>
            <AltitudeMeters>308.600006103515625</AltitudeMeters>
            <DistanceMeters>184025.43072323</DistanceMeters>
          </Trackpoint>
          <Trackpoint>
            <Time>2018-09-14T07:15:57.000Z</Time>
            <Position>
              <LatitudeDegrees>38.55521324090659618377685546875</LatitudeDegrees>
              <LongitudeDegrees>-8.17092136479914188385009765625</LongitudeDegrees>
            </Position>
            <AltitudeMeters>308.20001220703125</AltitudeMeters>
            <DistanceMeters>184042.99293525</DistanceMeters>
          </Trackpoint>
          <Trackpoint>
            <Time>2018-09-14T07:15:58.000Z</Time>
            <Position>
              <LatitudeDegrees>38.55506840161979198455810546875</LatitudeDegrees>
              <LongitudeDegrees>-8.1710024178028106689453125</LongitudeDegrees>
            </Position>
            <AltitudeMeters>307.20001220703125</AltitudeMeters>
            <DistanceMeters>184060.59007654</DistanceMeters>
          </Trackpoint>
          <Trackpoint>
            <Time>2018-09-14T07:15:59.000Z</Time>
            <Position>
              <LatitudeDegrees>38.55492523871362209320068359375</LatitudeDegrees>
              <LongitudeDegrees>-8.171081878244876861572265625</LongitudeDegrees>
            </Position>
            <AltitudeMeters>305.79998779296875</AltitudeMeters>
            <DistanceMeters>184077.96048167</DistanceMeters>
          </Trackpoint>
          <Trackpoint>
            <Time>2018-09-14T07:16:00.000Z</Time>
            <Position>
              <LatitudeDegrees>38.55478249490261077880859375</LatitudeDegrees>
              <LongitudeDegrees>-8.17115597426891326904296875</LongitudeDegrees>
            </Position>
            <AltitudeMeters>304.79998779296875</AltitudeMeters>
            <DistanceMeters>184095.10720902</DistanceMeters>
          </Trackpoint>
          <Trackpoint>
            <Time>2018-09-14T07:16:01.000Z</Time>
            <Position>
              <LatitudeDegrees>38.55463673360645771026611328125</LatitudeDegrees>
              <LongitudeDegrees>-8.1712210178375244140625</LongitudeDegrees>
            </Position>
            <AltitudeMeters>303.79998779296875</AltitudeMeters>
            <DistanceMeters>184112.28997304</DistanceMeters>
          </Trackpoint>
          <Trackpoint>
            <Time>2018-09-14T07:16:02.000Z</Time>
            <Position>
              <LatitudeDegrees>38.55448854155838489532470703125</LatitudeDegrees>
              <LongitudeDegrees>-8.17127340473234653472900390625</LongitudeDegrees>
            </Position>
            <AltitudeMeters>302.79998779296875</AltitudeMeters>
            <DistanceMeters>184129.40269869</DistanceMeters>
          </Trackpoint>
          <Trackpoint>
            <Time>2018-09-14T07:16:03.000Z</Time>
            <Position>
              <LatitudeDegrees>38.5543397627770900726318359375</LatitudeDegrees>
              <LongitudeDegrees>-8.1713108718395233154296875</LongitudeDegrees>
            </Position>
            <AltitudeMeters>302.20001220703125</AltitudeMeters>
            <DistanceMeters>184146.28030994</DistanceMeters>
          </Trackpoint>
          <Trackpoint>
            <Time>2018-09-14T07:16:04.000Z</Time>
            <Position>
              <LatitudeDegrees>38.55419048108160495758056640625</LatitudeDegrees>
              <LongitudeDegrees>-8.17133442498743534088134765625</LongitudeDegrees>
            </Position>
            <AltitudeMeters>300.79998779296875</AltitudeMeters>
            <DistanceMeters>184163.02174096</DistanceMeters>
          </Trackpoint>
          <Trackpoint>
            <Time>2018-09-14T07:16:05.000Z</Time>
            <Position>
              <LatitudeDegrees>38.55404195375740528106689453125</LatitudeDegrees>
              <LongitudeDegrees>-8.1713484227657318115234375</LongitudeDegrees>
            </Position>
            <AltitudeMeters>299.600006103515625</AltitudeMeters>
            <DistanceMeters>184179.59838797</DistanceMeters>
          </Trackpoint>
          <Trackpoint>
            <Time>2018-09-14T07:16:06.000Z</Time>
            <Position>
              <LatitudeDegrees>38.55389468371868133544921875</LatitudeDegrees>
              <LongitudeDegrees>-8.17135906778275966644287109375</LongitudeDegrees>
            </Position>
            <AltitudeMeters>298.20001220703125</AltitudeMeters>
            <DistanceMeters>184196.01629837</DistanceMeters>
          </Trackpoint>
          <Trackpoint>
            <Time>2018-09-14T07:16:07.000Z</Time>
            <Position>
              <LatitudeDegrees>38.55374858714640140533447265625</LatitudeDegrees>
              <LongitudeDegrees>-8.17136895842850208282470703125</LongitudeDegrees>
            </Position>
            <AltitudeMeters>296.20001220703125</AltitudeMeters>
            <DistanceMeters>184212.30000694</DistanceMeters>
          </Trackpoint>
          <Trackpoint>
            <Time>2018-09-14T07:16:09.000Z</Time>
            <Position>
              <LatitudeDegrees>38.5534633509814739227294921875</LatitudeDegrees>
              <LongitudeDegrees>-8.171380273997783660888671875</LongitudeDegrees>
            </Position>
            <AltitudeMeters>292.600006103515625</AltitudeMeters>
            <DistanceMeters>184244.06281948</DistanceMeters>
          </Trackpoint>
          <Trackpoint>
            <Time>2018-09-14T07:16:10.000Z</Time>
            <Position>
              <LatitudeDegrees>38.55332345701754093170166015625</LatitudeDegrees>
              <LongitudeDegrees>-8.17137683741748332977294921875</LongitudeDegrees>
            </Position>
            <AltitudeMeters>291.79998779296875</AltitudeMeters>
            <DistanceMeters>184259.63618755</DistanceMeters>
          </Trackpoint>
          <Trackpoint>
            <Time>2018-09-14T07:16:11.000Z</Time>
            <Position>
              <LatitudeDegrees>38.55318666435778141021728515625</LatitudeDegrees>
              <LongitudeDegrees>-8.17136107943952083587646484375</LongitudeDegrees>
            </Position>
            <AltitudeMeters>291</AltitudeMeters>
            <DistanceMeters>184274.9233841</DistanceMeters>
          </Trackpoint>
          <Trackpoint>
            <Time>2018-09-14T07:16:13.000Z</Time>
            <Position>
              <LatitudeDegrees>38.55293001048266887664794921875</LatitudeDegrees>
              <LongitudeDegrees>-8.1712835468351840972900390625</LongitudeDegrees>
            </Position>
            <AltitudeMeters>289.20001220703125</AltitudeMeters>
            <DistanceMeters>184304.27587333</DistanceMeters>
          </Trackpoint>
          <Trackpoint>
            <Time>2018-09-14T07:16:15.000Z</Time>
            <Position>
              <LatitudeDegrees>38.55268525891005992889404296875</LatitudeDegrees>
              <LongitudeDegrees>-8.171186149120330810546875</LongitudeDegrees>
            </Position>
            <AltitudeMeters>287.20001220703125</AltitudeMeters>
            <DistanceMeters>184332.80589366</DistanceMeters>
          </Trackpoint>
          <Trackpoint>
            <Time>2018-09-14T07:16:17.000Z</Time>
            <Position>
              <LatitudeDegrees>38.55244386009871959686279296875</LatitudeDegrees>
              <LongitudeDegrees>-8.1710880808532238006591796875</LongitudeDegrees>
            </Position>
            <AltitudeMeters>285.79998779296875</AltitudeMeters>
            <DistanceMeters>184360.99729462</DistanceMeters>
          </Trackpoint>
          <Trackpoint>
            <Time>2018-09-14T07:16:19.000Z</Time>
            <Position>
              <LatitudeDegrees>38.5521953366696834564208984375</LatitudeDegrees>
              <LongitudeDegrees>-8.17100442945957183837890625</LongitudeDegrees>
            </Position>
            <AltitudeMeters>283.399993896484375</AltitudeMeters>
            <DistanceMeters>184389.60065135</DistanceMeters>
          </Trackpoint>
          <Trackpoint>
            <Time>2018-09-14T07:16:22.000Z</Time>
            <Position>
              <LatitudeDegrees>38.55180867947638034820556640625</LatitudeDegrees>
              <LongitudeDegrees>-8.17092262208461761474609375</LongitudeDegrees>
            </Position>
            <AltitudeMeters>280</AltitudeMeters>
            <DistanceMeters>184433.22153612</DistanceMeters>
          </Trackpoint>
          <Trackpoint>
            <Time>2018-09-14T07:16:25.000Z</Time>
            <Position>
              <LatitudeDegrees>38.5514104552567005157470703125</LatitudeDegrees>
              <LongitudeDegrees>-8.17084961570799350738525390625</LongitudeDegrees>
            </Position>
            <AltitudeMeters>278</AltitudeMeters>
            <DistanceMeters>184477.99797873</DistanceMeters>
          </Trackpoint>
          <Trackpoint>
            <Time>2018-09-14T07:16:28.000Z</Time>
            <Position>
              <LatitudeDegrees>38.55100938118994235992431640625</LatitudeDegrees>
              <LongitudeDegrees>-8.170784153044223785400390625</LongitudeDegrees>
            </Position>
            <AltitudeMeters>275.79998779296875</AltitudeMeters>
            <DistanceMeters>184523.00052782</DistanceMeters>
          </Trackpoint>
          <Trackpoint>
            <Time>2018-09-14T07:16:31.000Z</Time>
            <Position>
              <LatitudeDegrees>38.55059933848679065704345703125</LatitudeDegrees>
              <LongitudeDegrees>-8.1707182712852954864501953125</LongitudeDegrees>
            </Position>
            <AltitudeMeters>273.20001220703125</AltitudeMeters>
            <DistanceMeters>184568.99797308</DistanceMeters>
          </Trackpoint>
          <Trackpoint>
            <Time>2018-09-14T07:16:32.000Z</Time>
            <Position>
              <LatitudeDegrees>38.55046547949314117431640625</LatitudeDegrees>
              <LongitudeDegrees>-8.17069999873638153076171875</LongitudeDegrees>
            </Position>
            <AltitudeMeters>272.20001220703125</AltitudeMeters>
            <DistanceMeters>184583.98118804</DistanceMeters>
          </Trackpoint>
          <Trackpoint>
            <Time>2018-09-14T07:16:33.000Z</Time>
            <Position>
              <LatitudeDegrees>38.55033396743237972259521484375</LatitudeDegrees>
              <LongitudeDegrees>-8.17068533040583133697509765625</LongitudeDegrees>
            </Position>
            <AltitudeMeters>271.600006103515625</AltitudeMeters>
            <DistanceMeters>184598.67411278</DistanceMeters>
          </Trackpoint>
          <Trackpoint>
            <Time>2018-09-14T07:16:34.000Z</Time>
            <Position>
              <LatitudeDegrees>38.55020304210484027862548828125</LatitudeDegrees>
              <LongitudeDegrees>-8.17067611031234264373779296875</LongitudeDegrees>
            </Position>
            <AltitudeMeters>270.79998779296875</AltitudeMeters>
            <DistanceMeters>184613.26868175</DistanceMeters>
          </Trackpoint>
          <Trackpoint>
            <Time>2018-09-14T07:16:36.000Z</Time>
            <Position>
              <LatitudeDegrees>38.54994504712522029876708984375</LatitudeDegrees>
              <LongitudeDegrees>-8.170676194131374359130859375</LongitudeDegrees>
            </Position>
            <AltitudeMeters>269.79998779296875</AltitudeMeters>
            <DistanceMeters>184641.98405046</DistanceMeters>
          </Trackpoint>
          <Trackpoint>
            <Time>2018-09-14T07:16:39.000Z</Time>
            <Position>
              <LatitudeDegrees>38.5495764948427677154541015625</LatitudeDegrees>
              <LongitudeDegrees>-8.17070729099214076995849609375</LongitudeDegrees>
            </Position>
            <AltitudeMeters>268.20001220703125</AltitudeMeters>
            <DistanceMeters>184683.09384159</DistanceMeters>
          </Trackpoint>
          <Trackpoint>
            <Time>2018-09-14T07:16:40.000Z</Time>
            <Position>
              <LatitudeDegrees>38.54946124367415904998779296875</LatitudeDegrees>
              <LongitudeDegrees>-8.1707199476659297943115234375</LongitudeDegrees>
            </Position>
            <AltitudeMeters>267.399993896484375</AltitudeMeters>
            <DistanceMeters>184695.96882172</DistanceMeters>
          </Trackpoint>
          <Trackpoint>
            <Time>2018-09-14T07:16:41.000Z</Time>
            <Position>
              <LatitudeDegrees>38.54934641160070896148681640625</LatitudeDegrees>
              <LongitudeDegrees>-8.1707326881587505340576171875</LongitudeDegrees>
            </Position>
            <AltitudeMeters>266.600006103515625</AltitudeMeters>
            <DistanceMeters>184708.7977801</DistanceMeters>
          </Trackpoint>
          <Trackpoint>
            <Time>2018-09-14T07:16:44.000Z</Time>
            <Position>
              <LatitudeDegrees>38.5490159131586551666259765625</LatitudeDegrees>
              <LongitudeDegrees>-8.170772083103656768798828125</LongitudeDegrees>
            </Position>
            <AltitudeMeters>264.399993896484375</AltitudeMeters>
            <DistanceMeters>184745.74252418</DistanceMeters>
          </Trackpoint>
          <Trackpoint>
            <Time>2018-09-14T07:16:49.000Z</Time>
            <Position>
              <LatitudeDegrees>38.54847569949924945831298828125</LatitudeDegrees>
              <LongitudeDegrees>-8.1708151660859584808349609375</LongitudeDegrees>
            </Position>
            <AltitudeMeters>261.20001220703125</AltitudeMeters>
            <DistanceMeters>184805.98616354</DistanceMeters>
          </Trackpoint>
          <Trackpoint>
            <Time>2018-09-14T07:16:54.000Z</Time>
            <Position>
              <LatitudeDegrees>38.5479017905890941619873046875</LatitudeDegrees>
              <LongitudeDegrees>-8.1707920320332050323486328125</LongitudeDegrees>
            </Position>
            <AltitudeMeters>258</AltitudeMeters>
            <DistanceMeters>184869.89514379</DistanceMeters>
          </Trackpoint>
          <Trackpoint>
            <Time>2018-09-14T07:16:55.000Z</Time>
            <Position>
              <LatitudeDegrees>38.547782935202121734619140625</LatitudeDegrees>
              <LongitudeDegrees>-8.1707849912345409393310546875</LongitudeDegrees>
            </Position>
            <AltitudeMeters>257.20001220703125</AltitudeMeters>
            <DistanceMeters>184883.13833618</DistanceMeters>
          </Trackpoint>
          <Trackpoint>
            <Time>2018-09-14T07:16:57.000Z</Time>
            <Position>
              <LatitudeDegrees>38.54754664935171604156494140625</LatitudeDegrees>
              <LongitudeDegrees>-8.17076613195240497589111328125</LongitudeDegrees>
            </Position>
            <AltitudeMeters>256.79998779296875</AltitudeMeters>
            <DistanceMeters>184909.488509</DistanceMeters>
          </Trackpoint>
          <Trackpoint>
            <Time>2018-09-14T07:16:59.000Z</Time>
            <Position>
              <LatitudeDegrees>38.5473123751580715179443359375</LatitudeDegrees>
              <LongitudeDegrees>-8.170746266841888427734375</LongitudeDegrees>
            </Position>
            <AltitudeMeters>256.600006103515625</AltitudeMeters>
            <DistanceMeters>184935.62102823</DistanceMeters>
          </Trackpoint>
          <Trackpoint>
            <Time>2018-09-14T07:17:01.000Z</Time>
            <Position>
              <LatitudeDegrees>38.54708530940115451812744140625</LatitudeDegrees>
              <LongitudeDegrees>-8.1707283295691013336181640625</LongitudeDegrees>
            </Position>
            <AltitudeMeters>256.399993896484375</AltitudeMeters>
            <DistanceMeters>184960.94239367</DistanceMeters>
          </Trackpoint>
          <Trackpoint>
            <Time>2018-09-14T07:17:02.000Z</Time>
            <Position>
              <LatitudeDegrees>38.5469747520983219146728515625</LatitudeDegrees>
              <LongitudeDegrees>-8.17071986384689807891845703125</LongitudeDegrees>
            </Position>
            <AltitudeMeters>256</AltitudeMeters>
            <DistanceMeters>184973.26988962</DistanceMeters>
          </Trackpoint>
          <Trackpoint>
            <Time>2018-09-14T07:17:04.000Z</Time>
            <Position>
              <LatitudeDegrees>38.546758331358432769775390625</LatitudeDegrees>
              <LongitudeDegrees>-8.17070058546960353851318359375</LongitudeDegrees>
            </Position>
            <AltitudeMeters>255</AltitudeMeters>
            <DistanceMeters>184997.41640026</DistanceMeters>
          </Trackpoint>
          <Trackpoint>
            <Time>2018-09-14T07:17:09.000Z</Time>
            <Position>
              <LatitudeDegrees>38.54625164531171321868896484375</LatitudeDegrees>
              <LongitudeDegrees>-8.1706552393734455108642578125</LongitudeDegrees>
            </Position>
            <AltitudeMeters>253.8000030517578125</AltitudeMeters>
            <DistanceMeters>185053.94962877</DistanceMeters>
          </Trackpoint>
          <Trackpoint>
            <Time>2018-09-14T07:17:12.000Z</Time>
            <Position>
              <LatitudeDegrees>38.545952998101711273193359375</LatitudeDegrees>
              <LongitudeDegrees>-8.1706069596111774444580078125</LongitudeDegrees>
            </Position>
            <AltitudeMeters>251.399993896484375</AltitudeMeters>
            <DistanceMeters>185087.45432878</DistanceMeters>
          </Trackpoint>
          <Trackpoint>
            <Time>2018-09-14T07:17:16.000Z</Time>
            <Position>
              <LatitudeDegrees>38.5455618984997272491455078125</LatitudeDegrees>
              <LongitudeDegrees>-8.17053646780550479888916015625</LongitudeDegrees>
            </Position>
            <AltitudeMeters>248.8000030517578125</AltitudeMeters>
            <DistanceMeters>185131.414944</DistanceMeters>
          </Trackpoint>
          <Trackpoint>
            <Time>2018-09-14T07:17:19.000Z</Time>
            <Position>
              <LatitudeDegrees>38.54524833150207996368408203125</LatitudeDegrees>
              <LongitudeDegrees>-8.17053638398647308349609375</LongitudeDegrees>
            </Position>
            <AltitudeMeters>247.399993896484375</AltitudeMeters>
            <DistanceMeters>185166.3156314</DistanceMeters>
          </Trackpoint>
          <Trackpoint>
            <Time>2018-09-14T07:17:23.000Z</Time>
            <Position>
              <LatitudeDegrees>38.54481498710811138153076171875</LatitudeDegrees>
              <LongitudeDegrees>-8.17057795822620391845703125</LongitudeDegrees>
            </Position>
            <AltitudeMeters>244.600006103515625</AltitudeMeters>
            <DistanceMeters>185214.68320219</DistanceMeters>
          </Trackpoint>
          <Trackpoint>
            <Time>2018-09-14T07:17:27.000Z</Time>
            <Position>
              <LatitudeDegrees>38.54436554946005344390869140625</LatitudeDegrees>
              <LongitudeDegrees>-8.1705000065267086029052734375</LongitudeDegrees>
            </Position>
            <AltitudeMeters>243.1999969482421875</AltitudeMeters>
            <DistanceMeters>185265.164484</DistanceMeters>
          </Trackpoint>
          <Trackpoint>
            <Time>2018-09-14T07:17:28.000Z</Time>
            <Position>
              <LatitudeDegrees>38.544259183108806610107421875</LatitudeDegrees>
              <LongitudeDegrees>-8.17046019248664379119873046875</LongitudeDegrees>
            </Position>
            <AltitudeMeters>243</AltitudeMeters>
            <DistanceMeters>185277.50003499</DistanceMeters>
          </Trackpoint>
          <Trackpoint>
            <Time>2018-09-14T07:17:29.000Z</Time>
            <Position>
              <LatitudeDegrees>38.54415700770914554595947265625</LatitudeDegrees>
              <LongitudeDegrees>-8.1704141758382320404052734375</LongitudeDegrees>
            </Position>
            <AltitudeMeters>242.8000030517578125</AltitudeMeters>
            <DistanceMeters>185289.55757333</DistanceMeters>
          </Trackpoint>
          <Trackpoint>
            <Time>2018-09-14T07:17:30.000Z</Time>
            <Position>
              <LatitudeDegrees>38.5440585203468799591064453125</LatitudeDegrees>
              <LongitudeDegrees>-8.1703652255237102508544921875</LongitudeDegrees>
            </Position>
            <AltitudeMeters>242.600006103515625</AltitudeMeters>
            <DistanceMeters>185301.31864092</DistanceMeters>
          </Trackpoint>
          <Trackpoint>
            <Time>2018-09-14T07:17:32.000Z</Time>
            <Position>
              <LatitudeDegrees>38.543874956667423248291015625</LatitudeDegrees>
              <LongitudeDegrees>-8.1702649779617786407470703125</LongitudeDegrees>
            </Position>
            <AltitudeMeters>242.1999969482421875</AltitudeMeters>
            <DistanceMeters>185323.53539087</DistanceMeters>
          </Trackpoint>
          <Trackpoint>
            <Time>2018-09-14T07:17:33.000Z</Time>
            <Position>
              <LatitudeDegrees>38.5437933169305324554443359375</LatitudeDegrees>
              <LongitudeDegrees>-8.1702049635350704193115234375</LongitudeDegrees>
            </Position>
            <AltitudeMeters>242</AltitudeMeters>
            <DistanceMeters>185334.01722946</DistanceMeters>
          </Trackpoint>
          <Trackpoint>
            <Time>2018-09-14T07:17:34.000Z</Time>
            <Position>
              <LatitudeDegrees>38.543720059096813201904296875</LatitudeDegrees>
              <LongitudeDegrees>-8.17013329826295375823974609375</LongitudeDegrees>
            </Position>
            <AltitudeMeters>241.8000030517578125</AltitudeMeters>
            <DistanceMeters>185344.28363351</DistanceMeters>
          </Trackpoint>
          <Trackpoint>
            <Time>2018-09-14T07:17:41.000Z</Time>
            <Position>
              <LatitudeDegrees>38.543327115476131439208984375</LatitudeDegrees>
              <LongitudeDegrees>-8.169561065733432769775390625</LongitudeDegrees>
            </Position>
            <AltitudeMeters>242.399993896484375</AltitudeMeters>
            <DistanceMeters>185410.57305982</DistanceMeters>
          </Trackpoint>
          <Trackpoint>
            <Time>2018-09-14T07:17:51.000Z</Time>
            <Position>
              <LatitudeDegrees>38.54298471473157405853271484375</LatitudeDegrees>
              <LongitudeDegrees>-8.16901448182761669158935546875</LongitudeDegrees>
            </Position>
            <AltitudeMeters>244</AltitudeMeters>
            <DistanceMeters>185471.53549302</DistanceMeters>
          </Trackpoint>
          <Trackpoint>
            <Time>2018-09-14T07:18:00.000Z</Time>
            <Position>
              <LatitudeDegrees>38.54290441609919071197509765625</LatitudeDegrees>
              <LongitudeDegrees>-8.16887383349239826202392578125</LongitudeDegrees>
            </Position>
            <AltitudeMeters>244.399993896484375</AltitudeMeters>
            <DistanceMeters>185486.69456243</DistanceMeters>
          </Trackpoint>
          <Trackpoint>
            <Time>2018-09-14T07:18:05.000Z</Time>
            <Position>
              <LatitudeDegrees>38.5428243689239025115966796875</LatitudeDegrees>
              <LongitudeDegrees>-8.1687547266483306884765625</LongitudeDegrees>
            </Position>
            <AltitudeMeters>244.8000030517578125</AltitudeMeters>
            <DistanceMeters>185500.36520477</DistanceMeters>
          </Trackpoint>
          <Trackpoint>
            <Time>2018-09-14T07:18:09.000Z</Time>
            <Position>
              <LatitudeDegrees>38.54274231009185314178466796875</LatitudeDegrees>
              <LongitudeDegrees>-8.168627656996250152587890625</LongitudeDegrees>
            </Position>
            <AltitudeMeters>245.399993896484375</AltitudeMeters>
            <DistanceMeters>185514.7101475</DistanceMeters>
          </Trackpoint>
          <Trackpoint>
            <Time>2018-09-14T07:18:24.000Z</Time>
            <Position>
              <LatitudeDegrees>38.542445003986358642578125</LatitudeDegrees>
              <LongitudeDegrees>-8.16825474612414836883544921875</LongitudeDegrees>
            </Position>
            <AltitudeMeters>247.8000030517578125</AltitudeMeters>
            <DistanceMeters>185561.06604498</DistanceMeters>
          </Trackpoint>
          <Trackpoint>
            <Time>2018-09-14T07:18:35.000Z</Time>
            <Position>
              <LatitudeDegrees>38.54227744974195957183837890625</LatitudeDegrees>
              <LongitudeDegrees>-8.16805777139961719512939453125</LongitudeDegrees>
            </Position>
            <AltitudeMeters>249.399993896484375</AltitudeMeters>
            <DistanceMeters>185586.40024545</DistanceMeters>
          </Trackpoint>
          <Trackpoint>
            <Time>2018-09-14T07:18:46.000Z</Time>
            <Position>
              <LatitudeDegrees>38.5421082191169261932373046875</LatitudeDegrees>
              <LongitudeDegrees>-8.167860545217990875244140625</LongitudeDegrees>
            </Position>
            <AltitudeMeters>250.399993896484375</AltitudeMeters>
            <DistanceMeters>185611.88707634</DistanceMeters>
          </Trackpoint>
          <Trackpoint>
            <Time>2018-09-14T07:18:54.000Z</Time>
            <Position>
              <LatitudeDegrees>38.54198567569255828857421875</LatitudeDegrees>
              <LongitudeDegrees>-8.16776138730347156524658203125</LongitudeDegrees>
            </Position>
            <AltitudeMeters>251.1999969482421875</AltitudeMeters>
            <DistanceMeters>185628.02875611</DistanceMeters>
          </Trackpoint>
          <Trackpoint>
            <Time>2018-09-14T07:18:55.000Z</Time>
            <Position>
              <LatitudeDegrees>38.5419704206287860870361328125</LatitudeDegrees>
              <LongitudeDegrees>-8.1677547655999660491943359375</LongitudeDegrees>
            </Position>
            <AltitudeMeters>251.1999969482421875</AltitudeMeters>
            <DistanceMeters>185629.82423301</DistanceMeters>
          </Trackpoint>
          <Trackpoint>
            <Time>2018-09-14T07:19:04.000Z</Time>
            <Position>
              <LatitudeDegrees>38.54188836179673671722412109375</LatitudeDegrees>
              <LongitudeDegrees>-8.16773054189980030059814453125</LongitudeDegrees>
            </Position>
            <AltitudeMeters>251.600006103515625</AltitudeMeters>
            <DistanceMeters>185639.19774056</DistanceMeters>
          </Trackpoint>
          <Trackpoint>
            <Time>2018-09-14T07:19:06.000Z</Time>
            <Position>
              <LatitudeDegrees>38.54186891578137874603271484375</LatitudeDegrees>
              <LongitudeDegrees>-8.1677336432039737701416015625</LongitudeDegrees>
            </Position>
            <AltitudeMeters>251.8000030517578125</AltitudeMeters>
            <DistanceMeters>185641.37921948</DistanceMeters>
          </Trackpoint>
          <Trackpoint>
            <Time>2018-09-14T07:19:14.000Z</Time>
            <Position>
              <LatitudeDegrees>38.5417112521827220916748046875</LatitudeDegrees>
              <LongitudeDegrees>-8.16780849359929561614990234375</LongitudeDegrees>
            </Position>
            <AltitudeMeters>252</AltitudeMeters>
            <DistanceMeters>185660.09803505</DistanceMeters>
          </Trackpoint>
          <Trackpoint>
            <Time>2018-09-14T07:19:22.000Z</Time>
            <Position>
              <LatitudeDegrees>38.5415952466428279876708984375</LatitudeDegrees>
              <LongitudeDegrees>-8.16787295043468475341796875</LongitudeDegrees>
            </Position>
            <AltitudeMeters>252.1999969482421875</AltitudeMeters>
            <DistanceMeters>185674.17610728</DistanceMeters>
          </Trackpoint>
          <Trackpoint>
            <Time>2018-09-14T07:19:24.000Z</Time>
            <Position>
              <LatitudeDegrees>38.54156733490526676177978515625</LatitudeDegrees>
              <LongitudeDegrees>-8.1678690947592258453369140625</LongitudeDegrees>
            </Position>
            <AltitudeMeters>252.399993896484375</AltitudeMeters>
            <DistanceMeters>185677.29900378</DistanceMeters>
          </Trackpoint>
          <Trackpoint>
            <Time>2018-09-14T07:19:27.000Z</Time>
            <Position>
              <LatitudeDegrees>38.5415117628872394561767578125</LatitudeDegrees>
              <LongitudeDegrees>-8.16789633594453334808349609375</LongitudeDegrees>
            </Position>
            <AltitudeMeters>252.399993896484375</AltitudeMeters>
            <DistanceMeters>185683.92366766</DistanceMeters>
          </Trackpoint>
          <Trackpoint>
            <Time>2018-09-14T07:19:28.000Z</Time>
            <Position>
              <LatitudeDegrees>38.541489131748676300048828125</LatitudeDegrees>
              <LongitudeDegrees>-8.16790916025638580322265625</LongitudeDegrees>
            </Position>
            <AltitudeMeters>252.600006103515625</AltitudeMeters>
            <DistanceMeters>185686.68108028</DistanceMeters>
          </Trackpoint>
          <Trackpoint>
            <Time>2018-09-14T07:19:45.000Z</Time>
            <Position>
              <LatitudeDegrees>38.5409484989941120147705078125</LatitudeDegrees>
              <LongitudeDegrees>-8.16808610223233699798583984375</LongitudeDegrees>
            </Position>
            <AltitudeMeters>253.8000030517578125</AltitudeMeters>
            <DistanceMeters>185748.79483255</DistanceMeters>
          </Trackpoint>
          <Trackpoint>
            <Time>2018-09-14T07:19:51.000Z</Time>
            <Position>
              <LatitudeDegrees>38.54074775241315364837646484375</LatitudeDegrees>
              <LongitudeDegrees>-8.16809498704969882965087890625</LongitudeDegrees>
            </Position>
            <AltitudeMeters>253.8000030517578125</AltitudeMeters>
            <DistanceMeters>185771.15157116</DistanceMeters>
          </Trackpoint>
          <Trackpoint>
            <Time>2018-09-14T07:20:04.000Z</Time>
            <Position>
              <LatitudeDegrees>38.54037106968462467193603515625</LatitudeDegrees>
              <LongitudeDegrees>-8.16801234148442745208740234375</LongitudeDegrees>
            </Position>
            <AltitudeMeters>254.399993896484375</AltitudeMeters>
            <DistanceMeters>185813.68990597</DistanceMeters>
          </Trackpoint>
          <Trackpoint>
            <Time>2018-09-14T07:20:05.000Z</Time>
            <Position>
              <LatitudeDegrees>38.5403574071824550628662109375</LatitudeDegrees>
              <LongitudeDegrees>-8.1680144369602203369140625</LongitudeDegrees>
            </Position>
            <AltitudeMeters>254.399993896484375</AltitudeMeters>
            <DistanceMeters>185815.2221657</DistanceMeters>
          </Trackpoint>
          <Trackpoint>
            <Time>2018-09-14T07:20:10.000Z</Time>
            <Position>
              <LatitudeDegrees>38.54030661284923553466796875</LatitudeDegrees>
              <LongitudeDegrees>-8.1680055521428585052490234375</LongitudeDegrees>
            </Position>
            <AltitudeMeters>254.399993896484375</AltitudeMeters>
            <DistanceMeters>185820.92693524</DistanceMeters>
          </Trackpoint>
          <Trackpoint>
            <Time>2018-09-14T07:20:19.000Z</Time>
            <Position>
              <LatitudeDegrees>38.54023260064423084259033203125</LatitudeDegrees>
              <LongitudeDegrees>-8.167969845235347747802734375</LongitudeDegrees>
            </Position>
            <AltitudeMeters>254.600006103515625</AltitudeMeters>
            <DistanceMeters>185829.73217438</DistanceMeters>
          </Trackpoint>
          <Trackpoint>
            <Time>2018-09-14T07:20:25.000Z</Time>
            <Position>
              <LatitudeDegrees>38.5400506295263767242431640625</LatitudeDegrees>
              <LongitudeDegrees>-8.1678530015051364898681640625</LongitudeDegrees>
            </Position>
            <AltitudeMeters>255.399993896484375</AltitudeMeters>
            <DistanceMeters>185852.39679281</DistanceMeters>
          </Trackpoint>
          <Trackpoint>
            <Time>2018-09-14T07:20:30.000Z</Time>
            <Position>
              <LatitudeDegrees>38.53999522514641284942626953125</LatitudeDegrees>
              <LongitudeDegrees>-8.1678295321762561798095703125</LongitudeDegrees>
            </Position>
            <AltitudeMeters>255.600006103515625</AltitudeMeters>
            <DistanceMeters>185858.89345175</DistanceMeters>
          </Trackpoint>
          <Trackpoint>
            <Time>2018-09-14T07:50:26.000Z</Time>
            <Position>
              <LatitudeDegrees>38.539952225983142852783203125</LatitudeDegrees>
              <LongitudeDegrees>-8.16789197735488414764404296875</LongitudeDegrees>
            </Position>
            <AltitudeMeters>255.600006103515625</AltitudeMeters>
            <DistanceMeters>185866.13546003</DistanceMeters>
          </Trackpoint>
          <Trackpoint>
            <Time>2018-09-14T07:50:27.000Z</Time>
            <Position>
              <LatitudeDegrees>38.5399386473000049591064453125</LatitudeDegrees>
              <LongitudeDegrees>-8.16788393072783946990966796875</LongitudeDegrees>
            </Position>
            <AltitudeMeters>255.600006103515625</AltitudeMeters>
            <DistanceMeters>185867.79774863</DistanceMeters>
          </Trackpoint>
          <Trackpoint>
            <Time>2018-09-14T07:50:30.000Z</Time>
            <Position>
              <LatitudeDegrees>38.539891205728054046630859375</LatitudeDegrees>
              <LongitudeDegrees>-8.16786347888410091400146484375</LongitudeDegrees>
            </Position>
            <AltitudeMeters>255.600006103515625</AltitudeMeters>
            <DistanceMeters>185873.36958879</DistanceMeters>
          </Trackpoint>
          <Trackpoint>
            <Time>2018-09-14T07:50:32.000Z</Time>
            <Position>
              <LatitudeDegrees>38.539858348667621612548828125</LatitudeDegrees>
              <LongitudeDegrees>-8.1678439490497112274169921875</LongitudeDegrees>
            </Position>
            <AltitudeMeters>255.600006103515625</AltitudeMeters>
            <DistanceMeters>185877.40235059</DistanceMeters>
          </Trackpoint>
          <Trackpoint>
            <Time>2018-09-14T07:50:35.000Z</Time>
            <Position>
              <LatitudeDegrees>38.53980059735476970672607421875</LatitudeDegrees>
              <LongitudeDegrees>-8.16781788133084774017333984375</LongitudeDegrees>
            </Position>
            <AltitudeMeters>255.399993896484375</AltitudeMeters>
            <DistanceMeters>185884.2191514</DistanceMeters>
          </Trackpoint>
          <Trackpoint>
            <Time>2018-09-14T07:50:41.000Z</Time>
            <Position>
              <LatitudeDegrees>38.53967118076980113983154296875</LatitudeDegrees>
              <LongitudeDegrees>-8.16776138730347156524658203125</LongitudeDegrees>
            </Position>
            <AltitudeMeters>255</AltitudeMeters>
            <DistanceMeters>185899.43945301</DistanceMeters>
          </Trackpoint>
          <Trackpoint>
            <Time>2018-09-14T07:50:45.000Z</Time>
            <Position>
              <LatitudeDegrees>38.539592139422893524169921875</LatitudeDegrees>
              <LongitudeDegrees>-8.16771780140697956085205078125</LongitudeDegrees>
            </Position>
            <AltitudeMeters>254.8000030517578125</AltitudeMeters>
            <DistanceMeters>185909.02020074</DistanceMeters>
          </Trackpoint>
          <Trackpoint>
            <Time>2018-09-14T07:51:02.000Z</Time>
            <Position>
              <LatitudeDegrees>38.5390753112733364105224609375</LatitudeDegrees>
              <LongitudeDegrees>-8.167389817535877227783203125</LongitudeDegrees>
            </Position>
            <AltitudeMeters>252.600006103515625</AltitudeMeters>
            <DistanceMeters>185973.24110758</DistanceMeters>
          </Trackpoint>
          <Trackpoint>
            <Time>2018-09-14T07:51:06.000Z</Time>
            <Position>
              <LatitudeDegrees>38.53888914920389652252197265625</LatitudeDegrees>
              <LongitudeDegrees>-8.167271129786968231201171875</LongitudeDegrees>
            </Position>
            <AltitudeMeters>251.600006103515625</AltitudeMeters>
            <DistanceMeters>185996.39488866</DistanceMeters>
          </Trackpoint>
          <Trackpoint>
            <Time>2018-09-14T07:51:12.000Z</Time>
            <Position>
              <LatitudeDegrees>38.53857533074915409088134765625</LatitudeDegrees>
              <LongitudeDegrees>-8.1670583970844745635986328125</LongitudeDegrees>
            </Position>
            <AltitudeMeters>251</AltitudeMeters>
            <DistanceMeters>186035.92965654</DistanceMeters>
          </Trackpoint>
          <Trackpoint>
            <Time>2018-09-14T07:51:15.000Z</Time>
            <Position>
              <LatitudeDegrees>38.5384017415344715118408203125</LatitudeDegrees>
              <LongitudeDegrees>-8.16694700159132480621337890625</LongitudeDegrees>
            </Position>
            <AltitudeMeters>250.600006103515625</AltitudeMeters>
            <DistanceMeters>186057.54776414</DistanceMeters>
          </Trackpoint>
          <Trackpoint>
            <Time>2018-09-14T07:51:20.000Z</Time>
            <Position>
              <LatitudeDegrees>38.53809605352580547332763671875</LatitudeDegrees>
              <LongitudeDegrees>-8.16673544235527515411376953125</LongitudeDegrees>
            </Position>
            <AltitudeMeters>249.8000030517578125</AltitudeMeters>
            <DistanceMeters>186096.23682631</DistanceMeters>
          </Trackpoint>
          <Trackpoint>
            <Time>2018-09-14T07:51:25.000Z</Time>
            <Position>
              <LatitudeDegrees>38.537771590054035186767578125</LatitudeDegrees>
              <LongitudeDegrees>-8.16652304492890834808349609375</LongitudeDegrees>
            </Position>
            <AltitudeMeters>248.600006103515625</AltitudeMeters>
            <DistanceMeters>186136.80900477</DistanceMeters>
          </Trackpoint>
          <Trackpoint>
            <Time>2018-09-14T07:51:29.000Z</Time>
            <Position>
              <LatitudeDegrees>38.53751501999795436859130859375</LatitudeDegrees>
              <LongitudeDegrees>-8.1663593463599681854248046875</LongitudeDegrees>
            </Position>
            <AltitudeMeters>247.399993896484375</AltitudeMeters>
            <DistanceMeters>186168.72440267</DistanceMeters>
          </Trackpoint>
          <Trackpoint>
            <Time>2018-09-14T07:51:34.000Z</Time>
            <Position>
              <LatitudeDegrees>38.5372051410377025604248046875</LatitudeDegrees>
              <LongitudeDegrees>-8.1661501340568065643310546875</LongitudeDegrees>
            </Position>
            <AltitudeMeters>245.8000030517578125</AltitudeMeters>
            <DistanceMeters>186207.72867293</DistanceMeters>
          </Trackpoint>
          <Trackpoint>
            <Time>2018-09-14T07:51:37.000Z</Time>
            <Position>
              <LatitudeDegrees>38.53701277635991573333740234375</LatitudeDegrees>
              <LongitudeDegrees>-8.16603035666048526763916015625</LongitudeDegrees>
            </Position>
            <AltitudeMeters>244.8000030517578125</AltitudeMeters>
            <DistanceMeters>186231.54381604</DistanceMeters>
          </Trackpoint>
          <Trackpoint>
            <Time>2018-09-14T07:51:40.000Z</Time>
            <Position>
              <LatitudeDegrees>38.53681026957929134368896484375</LatitudeDegrees>
              <LongitudeDegrees>-8.165901862084865570068359375</LongitudeDegrees>
            </Position>
            <AltitudeMeters>243.8000030517578125</AltitudeMeters>
            <DistanceMeters>186256.7067034</DistanceMeters>
          </Trackpoint>
          <Trackpoint>
            <Time>2018-09-14T07:51:45.000Z</Time>
            <Position>
              <LatitudeDegrees>38.53643744252622127532958984375</LatitudeDegrees>
              <LongitudeDegrees>-8.1656619720160961151123046875</LongitudeDegrees>
            </Position>
            <AltitudeMeters>242.600006103515625</AltitudeMeters>
            <DistanceMeters>186303.16261959</DistanceMeters>
          </Trackpoint>
          <Trackpoint>
            <Time>2018-09-14T07:51:48.000Z</Time>
            <Position>
              <LatitudeDegrees>38.536193780601024627685546875</LatitudeDegrees>
              <LongitudeDegrees>-8.1655094213783740997314453125</LongitudeDegrees>
            </Position>
            <AltitudeMeters>241.399993896484375</AltitudeMeters>
            <DistanceMeters>186333.36018969</DistanceMeters>
          </Trackpoint>
          <Trackpoint>
            <Time>2018-09-14T07:51:50.000Z</Time>
            <Position>
              <LatitudeDegrees>38.53602471761405467987060546875</LatitudeDegrees>
              <LongitudeDegrees>-8.1654091738164424896240234375</LongitudeDegrees>
            </Position>
            <AltitudeMeters>240.399993896484375</AltitudeMeters>
            <DistanceMeters>186354.10258642</DistanceMeters>
          </Trackpoint>
          <Trackpoint>
            <Time>2018-09-14T07:51:52.000Z</Time>
            <Position>
              <LatitudeDegrees>38.53585355915129184722900390625</LatitudeDegrees>
              <LongitudeDegrees>-8.16530599258840084075927734375</LongitudeDegrees>
            </Position>
            <AltitudeMeters>240</AltitudeMeters>
            <DistanceMeters>186375.16467405</DistanceMeters>
          </Trackpoint>
          <Trackpoint>
            <Time>2018-09-14T07:51:55.000Z</Time>
            <Position>
              <LatitudeDegrees>38.53558785282075405120849609375</LatitudeDegrees>
              <LongitudeDegrees>-8.16515243612229824066162109375</LongitudeDegrees>
            </Position>
            <AltitudeMeters>239.600006103515625</AltitudeMeters>
            <DistanceMeters>186407.61987945</DistanceMeters>
          </Trackpoint>
          <Trackpoint>
            <Time>2018-09-14T07:51:58.000Z</Time>
            <Position>
              <LatitudeDegrees>38.53530907072126865386962890625</LatitudeDegrees>
              <LongitudeDegrees>-8.16503022797405719757080078125</LongitudeDegrees>
            </Position>
            <AltitudeMeters>239.8000030517578125</AltitudeMeters>
            <DistanceMeters>186440.42254518</DistanceMeters>
          </Trackpoint>
          <Trackpoint>
            <Time>2018-09-14T07:52:05.000Z</Time>
            <Position>
              <LatitudeDegrees>38.5347821004688739776611328125</LatitudeDegrees>
              <LongitudeDegrees>-8.164730072021484375</LongitudeDegrees>
            </Position>
            <AltitudeMeters>240.399993896484375</AltitudeMeters>
            <DistanceMeters>186504.63374921</DistanceMeters>
          </Trackpoint>
          <Trackpoint>
            <Time>2018-09-14T07:52:06.000Z</Time>
            <Position>
              <LatitudeDegrees>38.53472451679408550262451171875</LatitudeDegrees>
              <LongitudeDegrees>-8.1646551378071308135986328125</LongitudeDegrees>
            </Position>
            <AltitudeMeters>240.399993896484375</AltitudeMeters>
            <DistanceMeters>186513.77905227</DistanceMeters>
          </Trackpoint>
          <Trackpoint>
            <Time>2018-09-14T07:52:13.000Z</Time>
            <Position>
              <LatitudeDegrees>38.53424356319010257720947265625</LatitudeDegrees>
              <LongitudeDegrees>-8.16424752585589885711669921875</LongitudeDegrees>
            </Position>
            <AltitudeMeters>239.1999969482421875</AltitudeMeters>
            <DistanceMeters>186578.00530205</DistanceMeters>
          </Trackpoint>
          <Trackpoint>
            <Time>2018-09-14T07:52:17.000Z</Time>
            <Position>
              <LatitudeDegrees>38.53395706973969936370849609375</LatitudeDegrees>
              <LongitudeDegrees>-8.16404719837009906768798828125</LongitudeDegrees>
            </Position>
            <AltitudeMeters>239.600006103515625</AltitudeMeters>
            <DistanceMeters>186614.3510017</DistanceMeters>
          </Trackpoint>
          <Trackpoint>
            <Time>2018-09-14T07:52:20.000Z</Time>
            <Position>
              <LatitudeDegrees>38.53374115191400051116943359375</LatitudeDegrees>
              <LongitudeDegrees>-8.1639041192829608917236328125</LongitudeDegrees>
            </Position>
            <AltitudeMeters>239.399993896484375</AltitudeMeters>
            <DistanceMeters>186641.41977453</DistanceMeters>
          </Trackpoint>
          <Trackpoint>
            <Time>2018-09-14T07:52:24.000Z</Time>
            <Position>
              <LatitudeDegrees>38.53345599956810474395751953125</LatitudeDegrees>
              <LongitudeDegrees>-8.16372181288897991180419921875</LongitudeDegrees>
            </Position>
            <AltitudeMeters>238.600006103515625</AltitudeMeters>
            <DistanceMeters>186676.90547771</DistanceMeters>
          </Trackpoint>
          <Trackpoint>
            <Time>2018-09-14T07:52:27.000Z</Time>
            <Position>
              <LatitudeDegrees>38.53324594907462596893310546875</LatitudeDegrees>
              <LongitudeDegrees>-8.163584768772125244140625</LongitudeDegrees>
            </Position>
            <AltitudeMeters>238</AltitudeMeters>
            <DistanceMeters>186703.1531567</DistanceMeters>
          </Trackpoint>
          <Trackpoint>
            <Time>2018-09-14T07:52:31.000Z</Time>
            <Position>
              <LatitudeDegrees>38.53297085501253604888916015625</LatitudeDegrees>
              <LongitudeDegrees>-8.16340413875877857208251953125</LongitudeDegrees>
            </Position>
            <AltitudeMeters>238.1999969482421875</AltitudeMeters>
            <DistanceMeters>186737.57434596</DistanceMeters>
          </Trackpoint>
          <Trackpoint>
            <Time>2018-09-14T07:52:39.000Z</Time>
            <Position>
              <LatitudeDegrees>38.53242988698184490203857421875</LatitudeDegrees>
              <LongitudeDegrees>-8.16305209882557392120361328125</LongitudeDegrees>
            </Position>
            <AltitudeMeters>235.1999969482421875</AltitudeMeters>
            <DistanceMeters>186805.13773844</DistanceMeters>
          </Trackpoint>
          <Trackpoint>
            <Time>2018-09-14T07:52:42.000Z</Time>
            <Position>
              <LatitudeDegrees>38.5322152264416217803955078125</LatitudeDegrees>
              <LongitudeDegrees>-8.16291832365095615386962890625</LongitudeDegrees>
            </Position>
            <AltitudeMeters>233.8000030517578125</AltitudeMeters>
            <DistanceMeters>186831.71771437</DistanceMeters>
          </Trackpoint>
          <Trackpoint>
            <Time>2018-09-14T07:52:45.000Z</Time>
            <Position>
              <LatitudeDegrees>38.53197558782994747161865234375</LatitudeDegrees>
              <LongitudeDegrees>-8.16277029924094676971435546875</LongitudeDegrees>
            </Position>
            <AltitudeMeters>233.399993896484375</AltitudeMeters>
            <DistanceMeters>186861.34045409</DistanceMeters>
          </Trackpoint>
          <Trackpoint>
            <Time>2018-09-14T07:52:48.000Z</Time>
            <Position>
              <LatitudeDegrees>38.5317344404757022857666015625</LatitudeDegrees>
              <LongitudeDegrees>-8.16262411884963512420654296875</LongitudeDegrees>
            </Position>
            <AltitudeMeters>232.8000030517578125</AltitudeMeters>
            <DistanceMeters>186891.0453855</DistanceMeters>
          </Trackpoint>
          <Trackpoint>
            <Time>2018-09-14T07:52:49.000Z</Time>
            <Position>
              <LatitudeDegrees>38.531656824052333831787109375</LatitudeDegrees>
              <LongitudeDegrees>-8.16257600672543048858642578125</LongitudeDegrees>
            </Position>
            <AltitudeMeters>232.8000030517578125</AltitudeMeters>
            <DistanceMeters>186900.64684635</DistanceMeters>
          </Trackpoint>
          <Trackpoint>
            <Time>2018-09-14T07:52:56.000Z</Time>
            <Position>
              <LatitudeDegrees>38.5311601124703884124755859375</LatitudeDegrees>
              <LongitudeDegrees>-8.16225774586200714111328125</LongitudeDegrees>
            </Position>
            <AltitudeMeters>233.600006103515625</AltitudeMeters>
            <DistanceMeters>186962.48770302</DistanceMeters>
          </Trackpoint>
          <Trackpoint>
            <Time>2018-09-14T07:52:57.000Z</Time>
            <Position>
              <LatitudeDegrees>38.5310940630733966827392578125</LatitudeDegrees>
              <LongitudeDegrees>-8.16221793182194232940673828125</LongitudeDegrees>
            </Position>
            <AltitudeMeters>234</AltitudeMeters>
            <DistanceMeters>186970.61568182</DistanceMeters>
          </Trackpoint>
          <Trackpoint>
            <Time>2018-09-14T07:53:05.000Z</Time>
            <Position>
              <LatitudeDegrees>38.5305589623749256134033203125</LatitudeDegrees>
              <LongitudeDegrees>-8.1620089709758758544921875</LongitudeDegrees>
            </Position>
            <AltitudeMeters>234</AltitudeMeters>
            <DistanceMeters>187032.89037893</DistanceMeters>
          </Trackpoint>
          <Trackpoint>
            <Time>2018-09-14T07:53:14.000Z</Time>
            <Position>
              <LatitudeDegrees>38.5299896635115146636962890625</LatitudeDegrees>
              <LongitudeDegrees>-8.16184795461595058441162109375</LongitudeDegrees>
            </Position>
            <AltitudeMeters>233.399993896484375</AltitudeMeters>
            <DistanceMeters>187097.78687662</DistanceMeters>
          </Trackpoint>
          <Trackpoint>
            <Time>2018-09-14T07:53:15.000Z</Time>
            <Position>
              <LatitudeDegrees>38.52992872707545757293701171875</LatitudeDegrees>
              <LongitudeDegrees>-8.16181878559291362762451171875</LongitudeDegrees>
            </Position>
            <AltitudeMeters>233.600006103515625</AltitudeMeters>
            <DistanceMeters>187105.02888491</DistanceMeters>
          </Trackpoint>
          <Trackpoint>
            <Time>2018-09-14T07:53:20.000Z</Time>
            <Position>
              <LatitudeDegrees>38.52963452227413654327392578125</LatitudeDegrees>
              <LongitudeDegrees>-8.16162918694317340850830078125</LongitudeDegrees>
            </Position>
            <AltitudeMeters>236</AltitudeMeters>
            <DistanceMeters>187141.70033299</DistanceMeters>
          </Trackpoint>
          <Trackpoint>
            <Time>2018-09-14T07:53:27.000Z</Time>
            <Position>
              <LatitudeDegrees>38.5292721726000308990478515625</LatitudeDegrees>
              <LongitudeDegrees>-8.16132240928709506988525390625</LongitudeDegrees>
            </Position>
            <AltitudeMeters>237.600006103515625</AltitudeMeters>
            <DistanceMeters>187190.07406438</DistanceMeters>
          </Trackpoint>
          <Trackpoint>
            <Time>2018-09-14T07:53:31.000Z</Time>
            <Position>
              <LatitudeDegrees>38.5290860943496227264404296875</LatitudeDegrees>
              <LongitudeDegrees>-8.16115577705204486846923828125</LongitudeDegrees>
            </Position>
            <AltitudeMeters>239.600006103515625</AltitudeMeters>
            <DistanceMeters>187215.36134979</DistanceMeters>
          </Trackpoint>
          <Trackpoint>
            <Time>2018-09-14T07:53:32.000Z</Time>
            <Position>
              <LatitudeDegrees>38.5290411673486232757568359375</LatitudeDegrees>
              <LongitudeDegrees>-8.16111638210713863372802734375</LongitudeDegrees>
            </Position>
            <AltitudeMeters>239.399993896484375</AltitudeMeters>
            <DistanceMeters>187221.42521583</DistanceMeters>
          </Trackpoint>
          <Trackpoint>
            <Time>2018-09-14T07:53:35.000Z</Time>
            <Position>
              <LatitudeDegrees>38.52891233749687671661376953125</LatitudeDegrees>
              <LongitudeDegrees>-8.161000125110149383544921875</LongitudeDegrees>
            </Position>
            <AltitudeMeters>239.1999969482421875</AltitudeMeters>
            <DistanceMeters>187238.9771413</DistanceMeters>
          </Trackpoint>
          <Trackpoint>
            <Time>2018-09-14T07:53:38.000Z</Time>
            <Position>
              <LatitudeDegrees>38.5287833400070667266845703125</LatitudeDegrees>
              <LongitudeDegrees>-8.1608869694173336029052734375</LongitudeDegrees>
            </Position>
            <AltitudeMeters>239.600006103515625</AltitudeMeters>
            <DistanceMeters>187256.39012229</DistanceMeters>
          </Trackpoint>
          <Trackpoint>
            <Time>2018-09-14T07:53:43.000Z</Time>
            <Position>
              <LatitudeDegrees>38.52857806719839572906494140625</LatitudeDegrees>
              <LongitudeDegrees>-8.16070499829947948455810546875</LongitudeDegrees>
            </Position>
            <AltitudeMeters>240</AltitudeMeters>
            <DistanceMeters>187284.19367879</DistanceMeters>
          </Trackpoint>
          <Trackpoint>
            <Time>2018-09-14T07:53:44.000Z</Time>
            <Position>
              <LatitudeDegrees>38.52853783406317234039306640625</LatitudeDegrees>
              <LongitudeDegrees>-8.16067012958228588104248046875</LongitudeDegrees>
            </Position>
            <AltitudeMeters>239.8000030517578125</AltitudeMeters>
            <DistanceMeters>187289.60352886</DistanceMeters>
          </Trackpoint>
          <Trackpoint>
            <Time>2018-09-14T07:53:51.000Z</Time>
            <Position>
              <LatitudeDegrees>38.52826349437236785888671875</LatitudeDegrees>
              <LongitudeDegrees>-8.160425126552581787109375</LongitudeDegrees>
            </Position>
            <AltitudeMeters>240.600006103515625</AltitudeMeters>
            <DistanceMeters>187326.85194031</DistanceMeters>
          </Trackpoint>
          <Trackpoint>
            <Time>2018-09-14T07:53:56.000Z</Time>
            <Position>
              <LatitudeDegrees>38.52806903421878814697265625</LatitudeDegrees>
              <LongitudeDegrees>-8.160253800451755523681640625</LongitudeDegrees>
            </Position>
            <AltitudeMeters>240.399993896484375</AltitudeMeters>
            <DistanceMeters>187353.13880984</DistanceMeters>
          </Trackpoint>
          <Trackpoint>
            <Time>2018-09-14T07:54:02.000Z</Time>
            <Position>
              <LatitudeDegrees>38.52782922796905040740966796875</LatitudeDegrees>
              <LongitudeDegrees>-8.16004232503473758697509765625</LongitudeDegrees>
            </Position>
            <AltitudeMeters>240.399993896484375</AltitudeMeters>
            <DistanceMeters>187385.56506619</DistanceMeters>
          </Trackpoint>
          <Trackpoint>
            <Time>2018-09-14T07:54:12.000Z</Time>
            <Position>
              <LatitudeDegrees>38.5273684747517108917236328125</LatitudeDegrees>
              <LongitudeDegrees>-8.15963446162641048431396484375</LongitudeDegrees>
            </Position>
            <AltitudeMeters>238.1999969482421875</AltitudeMeters>
            <DistanceMeters>187447.94415115</DistanceMeters>
          </Trackpoint>
          <Trackpoint>
            <Time>2018-09-14T07:54:16.000Z</Time>
            <Position>
              <LatitudeDegrees>38.5271230526268482208251953125</LatitudeDegrees>
              <LongitudeDegrees>-8.15945760346949100494384765625</LongitudeDegrees>
            </Position>
            <AltitudeMeters>235.8000030517578125</AltitudeMeters>
            <DistanceMeters>187479.30195902</DistanceMeters>
          </Trackpoint>
          <Trackpoint>
            <Time>2018-09-14T07:54:20.000Z</Time>
            <Position>
              <LatitudeDegrees>38.526833541691303253173828125</LatitudeDegrees>
              <LongitudeDegrees>-8.15931745804846286773681640625</LongitudeDegrees>
            </Position>
            <AltitudeMeters>233.1999969482421875</AltitudeMeters>
            <DistanceMeters>187513.75828399</DistanceMeters>
          </Trackpoint>
          <Trackpoint>
            <Time>2018-09-14T07:54:23.000Z</Time>
            <Position>
              <LatitudeDegrees>38.5265886224806308746337890625</LatitudeDegrees>
              <LongitudeDegrees>-8.1592545099556446075439453125</LongitudeDegrees>
            </Position>
            <AltitudeMeters>232.399993896484375</AltitudeMeters>
            <DistanceMeters>187541.56378911</DistanceMeters>
          </Trackpoint>
          <Trackpoint>
            <Time>2018-09-14T07:54:27.000Z</Time>
            <Position>
              <LatitudeDegrees>38.5262439586222171783447265625</LatitudeDegrees>
              <LongitudeDegrees>-8.15923154354095458984375</LongitudeDegrees>
            </Position>
            <AltitudeMeters>231.600006103515625</AltitudeMeters>
            <DistanceMeters>187579.97774337</DistanceMeters>
          </Trackpoint>
          <Trackpoint>
            <Time>2018-09-14T07:54:28.000Z</Time>
            <Position>
              <LatitudeDegrees>38.52615603245794773101806640625</LatitudeDegrees>
              <LongitudeDegrees>-8.15923623740673065185546875</LongitudeDegrees>
            </Position>
            <AltitudeMeters>231.399993896484375</AltitudeMeters>
            <DistanceMeters>187589.77241193</DistanceMeters>
          </Trackpoint>
          <Trackpoint>
            <Time>2018-09-14T07:54:30.000Z</Time>
            <Position>
              <LatitudeDegrees>38.5259802639484405517578125</LatitudeDegrees>
              <LongitudeDegrees>-8.15926331095397472381591796875</LongitudeDegrees>
            </Position>
            <AltitudeMeters>231</AltitudeMeters>
            <DistanceMeters>187609.47734169</DistanceMeters>
          </Trackpoint>
          <Trackpoint>
            <Time>2018-09-14T07:54:31.000Z</Time>
            <Position>
              <LatitudeDegrees>38.5258925892412662506103515625</LatitudeDegrees>
              <LongitudeDegrees>-8.1592813320457935333251953125</LongitudeDegrees>
            </Position>
            <AltitudeMeters>230.8000030517578125</AltitudeMeters>
            <DistanceMeters>187619.36103366</DistanceMeters>
          </Trackpoint>
          <Trackpoint>
            <Time>2018-09-14T07:54:33.000Z</Time>
            <Position>
              <LatitudeDegrees>38.52571698836982250213623046875</LatitudeDegrees>
              <LongitudeDegrees>-8.1593178771436214447021484375</LongitudeDegrees>
            </Position>
            <AltitudeMeters>230.8000030517578125</AltitudeMeters>
            <DistanceMeters>187639.16287725</DistanceMeters>
          </Trackpoint>
          <Trackpoint>
            <Time>2018-09-14T07:54:34.000Z</Time>
            <Position>
              <LatitudeDegrees>38.52562897838652133941650390625</LatitudeDegrees>
              <LongitudeDegrees>-8.1593369878828525543212890625</LongitudeDegrees>
            </Position>
            <AltitudeMeters>230.600006103515625</AltitudeMeters>
            <DistanceMeters>187649.09896429</DistanceMeters>
          </Trackpoint>
          <Trackpoint>
            <Time>2018-09-14T07:54:37.000Z</Time>
            <Position>
              <LatitudeDegrees>38.52536478079855442047119140625</LatitudeDegrees>
              <LongitudeDegrees>-8.159394152462482452392578125</LongitudeDegrees>
            </Position>
            <AltitudeMeters>230.600006103515625</AltitudeMeters>
            <DistanceMeters>187678.92312547</DistanceMeters>
          </Trackpoint>
          <Trackpoint>
            <Time>2018-09-14T07:54:39.000Z</Time>
            <Position>
              <LatitudeDegrees>38.5251871682703495025634765625</LatitudeDegrees>
              <LongitudeDegrees>-8.159432373940944671630859375</LongitudeDegrees>
            </Position>
            <AltitudeMeters>230.399993896484375</AltitudeMeters>
            <DistanceMeters>187698.96993375</DistanceMeters>
          </Trackpoint>
          <Trackpoint>
            <Time>2018-09-14T07:54:40.000Z</Time>
            <Position>
              <LatitudeDegrees>38.52509723044931888580322265625</LatitudeDegrees>
              <LongitudeDegrees>-8.15945056267082691192626953125</LongitudeDegrees>
            </Position>
            <AltitudeMeters>229.8000030517578125</AltitudeMeters>
            <DistanceMeters>187709.10532469</DistanceMeters>
          </Trackpoint>
          <Trackpoint>
            <Time>2018-09-14T07:54:43.000Z</Time>
            <Position>
              <LatitudeDegrees>38.52482180111110210418701171875</LatitudeDegrees>
              <LongitudeDegrees>-8.1595079787075519561767578125</LongitudeDegrees>
            </Position>
            <AltitudeMeters>228.8000030517578125</AltitudeMeters>
            <DistanceMeters>187740.16627119</DistanceMeters>
          </Trackpoint>
          <Trackpoint>
            <Time>2018-09-14T07:54:44.000Z</Time>
            <Position>
              <LatitudeDegrees>38.524728678166866302490234375</LatitudeDegrees>
              <LongitudeDegrees>-8.1595284305512905120849609375</LongitudeDegrees>
            </Position>
            <AltitudeMeters>228.8000030517578125</AltitudeMeters>
            <DistanceMeters>187750.68294254</DistanceMeters>
          </Trackpoint>
          <Trackpoint>
            <Time>2018-09-14T07:54:48.000Z</Time>
            <Position>
              <LatitudeDegrees>38.52434772066771984100341796875</LatitudeDegrees>
              <LongitudeDegrees>-8.15961308777332305908203125</LongitudeDegrees>
            </Position>
            <AltitudeMeters>228.399993896484375</AltitudeMeters>
            <DistanceMeters>187793.72028865</DistanceMeters>
          </Trackpoint>
          <Trackpoint>
            <Time>2018-09-14T07:54:52.000Z</Time>
            <Position>
              <LatitudeDegrees>38.5239530168473720550537109375</LatitudeDegrees>
              <LongitudeDegrees>-8.1596974097192287445068359375</LongitudeDegrees>
            </Position>
            <AltitudeMeters>225.600006103515625</AltitudeMeters>
            <DistanceMeters>187838.2610644</DistanceMeters>
          </Trackpoint>
          <Trackpoint>
            <Time>2018-09-14T07:54:56.000Z</Time>
            <Position>
              <LatitudeDegrees>38.52356334216892719268798828125</LatitudeDegrees>
              <LongitudeDegrees>-8.1597654707729816436767578125</LongitudeDegrees>
            </Position>
            <AltitudeMeters>223</AltitudeMeters>
            <DistanceMeters>187882.0357988</DistanceMeters>
          </Trackpoint>
          <Trackpoint>
            <Time>2018-09-14T07:54:58.000Z</Time>
            <Position>
              <LatitudeDegrees>38.52337441407144069671630859375</LatitudeDegrees>
              <LongitudeDegrees>-8.15978835336863994598388671875</LongitudeDegrees>
            </Position>
            <AltitudeMeters>222.8000030517578125</AltitudeMeters>
            <DistanceMeters>187903.15782419</DistanceMeters>
          </Trackpoint>
          <Trackpoint>
            <Time>2018-09-14T07:55:01.000Z</Time>
            <Position>
              <LatitudeDegrees>38.52310334332287311553955078125</LatitudeDegrees>
              <LongitudeDegrees>-8.15980620682239532470703125</LongitudeDegrees>
            </Position>
            <AltitudeMeters>223.399993896484375</AltitudeMeters>
            <DistanceMeters>187933.36824998</DistanceMeters>
          </Trackpoint>
          <Trackpoint>
            <Time>2018-09-14T07:55:08.000Z</Time>
            <Position>
              <LatitudeDegrees>38.52251945994794368743896484375</LatitudeDegrees>
              <LongitudeDegrees>-8.15977871417999267578125</LongitudeDegrees>
            </Position>
            <AltitudeMeters>223.600006103515625</AltitudeMeters>
            <DistanceMeters>187998.39971791</DistanceMeters>
          </Trackpoint>
          <Trackpoint>
            <Time>2018-09-14T07:55:10.000Z</Time>
            <Position>
              <LatitudeDegrees>38.52237210609018802642822265625</LatitudeDegrees>
              <LongitudeDegrees>-8.15975918434560298919677734375</LongitudeDegrees>
            </Position>
            <AltitudeMeters>223.399993896484375</AltitudeMeters>
            <DistanceMeters>188014.88842743</DistanceMeters>
          </Trackpoint>
          <Trackpoint>
            <Time>2018-09-14T07:55:12.000Z</Time>
            <Position>
              <LatitudeDegrees>38.52222986519336700439453125</LatitudeDegrees>
              <LongitudeDegrees>-8.15973605029284954071044921875</LongitudeDegrees>
            </Position>
            <AltitudeMeters>223.399993896484375</AltitudeMeters>
            <DistanceMeters>188030.84782391</DistanceMeters>
          </Trackpoint>
          <Trackpoint>
            <Time>2018-09-14T07:55:14.000Z</Time>
            <Position>
              <LatitudeDegrees>38.52209173142910003662109375</LatitudeDegrees>
              <LongitudeDegrees>-8.1597158499062061309814453125</LongitudeDegrees>
            </Position>
            <AltitudeMeters>223.1999969482421875</AltitudeMeters>
            <DistanceMeters>188046.32288861</DistanceMeters>
          </Trackpoint>
          <Trackpoint>
            <Time>2018-09-14T07:55:16.000Z</Time>
            <Position>
              <LatitudeDegrees>38.52194881998002529144287109375</LatitudeDegrees>
              <LongitudeDegrees>-8.15969615243375301361083984375</LongitudeDegrees>
            </Position>
            <AltitudeMeters>223.1999969482421875</AltitudeMeters>
            <DistanceMeters>188062.32156095</DistanceMeters>
          </Trackpoint>
          <Trackpoint>
            <Time>2018-09-14T07:55:19.000Z</Time>
            <Position>
              <LatitudeDegrees>38.5217244364321231842041015625</LatitudeDegrees>
              <LongitudeDegrees>-8.15965809859335422515869140625</LongitudeDegrees>
            </Position>
            <AltitudeMeters>222.600006103515625</AltitudeMeters>
            <DistanceMeters>188087.51457492</DistanceMeters>
          </Trackpoint>
          <Trackpoint>
            <Time>2018-09-14T07:55:27.000Z</Time>
            <Position>
              <LatitudeDegrees>38.5211118869483470916748046875</LatitudeDegrees>
              <LongitudeDegrees>-8.159558773040771484375</LongitudeDegrees>
            </Position>
            <AltitudeMeters>221.1999969482421875</AltitudeMeters>
            <DistanceMeters>188156.23893016</DistanceMeters>
          </Trackpoint>
          <Trackpoint>
            <Time>2018-09-14T07:55:31.000Z</Time>
            <Position>
              <LatitudeDegrees>38.5208087973296642303466796875</LatitudeDegrees>
              <LongitudeDegrees>-8.15951258875429630279541015625</LongitudeDegrees>
            </Position>
            <AltitudeMeters>221</AltitudeMeters>
            <DistanceMeters>188190.21227634</DistanceMeters>
          </Trackpoint>
          <Trackpoint>
            <Time>2018-09-14T07:55:33.000Z</Time>
            <Position>
              <LatitudeDegrees>38.52065633051097393035888671875</LatitudeDegrees>
              <LongitudeDegrees>-8.1594942323863506317138671875</LongitudeDegrees>
            </Position>
            <AltitudeMeters>220.399993896484375</AltitudeMeters>
            <DistanceMeters>188207.25732488</DistanceMeters>
          </Trackpoint>
          <Trackpoint>
            <Time>2018-09-14T07:55:40.000Z</Time>
            <Position>
              <LatitudeDegrees>38.520095832645893096923828125</LatitudeDegrees>
              <LongitudeDegrees>-8.15951510332524776458740234375</LongitudeDegrees>
            </Position>
            <AltitudeMeters>218.8000030517578125</AltitudeMeters>
            <DistanceMeters>188269.66832154</DistanceMeters>
          </Trackpoint>
          <Trackpoint>
            <Time>2018-09-14T07:55:44.000Z</Time>
            <Position>
              <LatitudeDegrees>38.51977430284023284912109375</LatitudeDegrees>
              <LongitudeDegrees>-8.15958266146481037139892578125</LongitudeDegrees>
            </Position>
            <AltitudeMeters>218.399993896484375</AltitudeMeters>
            <DistanceMeters>188305.93555061</DistanceMeters>
          </Trackpoint>
          <Trackpoint>
            <Time>2018-09-14T07:55:50.000Z</Time>
            <Position>
              <LatitudeDegrees>38.5193030722439289093017578125</LatitudeDegrees>
              <LongitudeDegrees>-8.15968215465545654296875</LongitudeDegrees>
            </Position>
            <AltitudeMeters>217.399993896484375</AltitudeMeters>
            <DistanceMeters>188359.09524769</DistanceMeters>
          </Trackpoint>
          <Trackpoint>
            <Time>2018-09-14T07:55:56.000Z</Time>
            <Position>
              <LatitudeDegrees>38.51879789493978023529052734375</LatitudeDegrees>
              <LongitudeDegrees>-8.1597875989973545074462890625</LongitudeDegrees>
            </Position>
            <AltitudeMeters>217</AltitudeMeters>
            <DistanceMeters>188416.0673095</DistanceMeters>
          </Trackpoint>
          <Trackpoint>
            <Time>2018-09-14T07:55:59.000Z</Time>
            <Position>
              <LatitudeDegrees>38.51853118278086185455322265625</LatitudeDegrees>
              <LongitudeDegrees>-8.15983830951154232025146484375</LongitudeDegrees>
            </Position>
            <AltitudeMeters>216.1999969482421875</AltitudeMeters>
            <DistanceMeters>188446.07950811</DistanceMeters>
          </Trackpoint>
          <Trackpoint>
            <Time>2018-09-14T07:56:02.000Z</Time>
            <Position>
              <LatitudeDegrees>38.518261872231960296630859375</LatitudeDegrees>
              <LongitudeDegrees>-8.15987133421003818511962890625</LongitudeDegrees>
            </Position>
            <AltitudeMeters>215.1999969482421875</AltitudeMeters>
            <DistanceMeters>188476.19203301</DistanceMeters>
          </Trackpoint>
          <Trackpoint>
            <Time>2018-09-14T07:56:04.000Z</Time>
            <Position>
              <LatitudeDegrees>38.51807990111410617828369140625</LatitudeDegrees>
              <LongitudeDegrees>-8.159871585667133331298828125</LongitudeDegrees>
            </Position>
            <AltitudeMeters>214.600006103515625</AltitudeMeters>
            <DistanceMeters>188496.44543403</DistanceMeters>
          </Trackpoint>
          <Trackpoint>
            <Time>2018-09-14T07:56:06.000Z</Time>
            <Position>
              <LatitudeDegrees>38.51789415813982486724853515625</LatitudeDegrees>
              <LongitudeDegrees>-8.159852139651775360107421875</LongitudeDegrees>
            </Position>
            <AltitudeMeters>213.8000030517578125</AltitudeMeters>
            <DistanceMeters>188517.1882661</DistanceMeters>
          </Trackpoint>
          <Trackpoint>
            <Time>2018-09-14T07:56:07.000Z</Time>
            <Position>
              <LatitudeDegrees>38.5177996940910816192626953125</LatitudeDegrees>
              <LongitudeDegrees>-8.159834034740924835205078125</LongitudeDegrees>
            </Position>
            <AltitudeMeters>213.399993896484375</AltitudeMeters>
            <DistanceMeters>188527.81979782</DistanceMeters>
          </Trackpoint>
          <Trackpoint>
            <Time>2018-09-14T07:56:08.000Z</Time>
            <Position>
              <LatitudeDegrees>38.517704643309116363525390625</LatitudeDegrees>
              <LongitudeDegrees>-8.1598134152591228485107421875</LongitudeDegrees>
            </Position>
            <AltitudeMeters>213</AltitudeMeters>
            <DistanceMeters>188538.55066614</DistanceMeters>
          </Trackpoint>
          <Trackpoint>
            <Time>2018-09-14T07:56:10.000Z</Time>
            <Position>
              <LatitudeDegrees>38.51751177571713924407958984375</LatitudeDegrees>
              <LongitudeDegrees>-8.1597684882581233978271484375</LongitudeDegrees>
            </Position>
            <AltitudeMeters>212.399993896484375</AltitudeMeters>
            <DistanceMeters>188560.37083595</DistanceMeters>
          </Trackpoint>
          <Trackpoint>
            <Time>2018-09-14T07:56:13.000Z</Time>
            <Position>
              <LatitudeDegrees>38.5172149725258350372314453125</LatitudeDegrees>
              <LongitudeDegrees>-8.159703947603702545166015625</LongitudeDegrees>
            </Position>
            <AltitudeMeters>211.399993896484375</AltitudeMeters>
            <DistanceMeters>188593.88038692</DistanceMeters>
          </Trackpoint>
          <Trackpoint>
            <Time>2018-09-14T07:56:19.000Z</Time>
            <Position>
              <LatitudeDegrees>38.51662136614322662353515625</LatitudeDegrees>
              <LongitudeDegrees>-8.1596648879349231719970703125</LongitudeDegrees>
            </Position>
            <AltitudeMeters>209.600006103515625</AltitudeMeters>
            <DistanceMeters>188660.03740946</DistanceMeters>
          </Trackpoint>
          <Trackpoint>
            <Time>2018-09-14T07:56:23.000Z</Time>
            <Position>
              <LatitudeDegrees>38.51623655296862125396728515625</LatitudeDegrees>
              <LongitudeDegrees>-8.15970269031822681427001953125</LongitudeDegrees>
            </Position>
            <AltitudeMeters>209</AltitudeMeters>
            <DistanceMeters>188702.99431951</DistanceMeters>
          </Trackpoint>
          <Trackpoint>
            <Time>2018-09-14T07:56:24.000Z</Time>
            <Position>
              <LatitudeDegrees>38.51614259183406829833984375</LatitudeDegrees>
              <LongitudeDegrees>-8.15971392206847667694091796875</LongitudeDegrees>
            </Position>
            <AltitudeMeters>209</AltitudeMeters>
            <DistanceMeters>188713.4981033</DistanceMeters>
          </Trackpoint>
          <Trackpoint>
            <Time>2018-09-14T07:56:26.000Z</Time>
            <Position>
              <LatitudeDegrees>38.5159568488597869873046875</LatitudeDegrees>
              <LongitudeDegrees>-8.15973705612123012542724609375</LongitudeDegrees>
            </Position>
            <AltitudeMeters>208.8000030517578125</AltitudeMeters>
            <DistanceMeters>188734.2696476</DistanceMeters>
          </Trackpoint>
          <Trackpoint>
            <Time>2018-09-14T07:56:32.000Z</Time>
            <Position>
              <LatitudeDegrees>38.5154168866574764251708984375</LatitudeDegrees>
              <LongitudeDegrees>-8.159805871546268463134765625</LongitudeDegrees>
            </Position>
            <AltitudeMeters>207</AltitudeMeters>
            <DistanceMeters>188794.66665672</DistanceMeters>
          </Trackpoint>
          <Trackpoint>
            <Time>2018-09-14T07:56:36.000Z</Time>
            <Position>
              <LatitudeDegrees>38.5150690376758575439453125</LatitudeDegrees>
              <LongitudeDegrees>-8.15984551794826984405517578125</LongitudeDegrees>
            </Position>
            <AltitudeMeters>206.8000030517578125</AltitudeMeters>
            <DistanceMeters>188833.53664862</DistanceMeters>
          </Trackpoint>
          <Trackpoint>
            <Time>2018-09-14T07:56:43.000Z</Time>
            <Position>
              <LatitudeDegrees>38.5144942067563533782958984375</LatitudeDegrees>
              <LongitudeDegrees>-8.1599143333733081817626953125</LongitudeDegrees>
            </Position>
            <AltitudeMeters>207.1999969482421875</AltitudeMeters>
            <DistanceMeters>188897.79663303</DistanceMeters>
          </Trackpoint>
          <Trackpoint>
            <Time>2018-09-14T07:56:49.000Z</Time>
            <Position>
              <LatitudeDegrees>38.514038734138011932373046875</LatitudeDegrees>
              <LongitudeDegrees>-8.15996755845844745635986328125</LongitudeDegrees>
            </Position>
            <AltitudeMeters>208</AltitudeMeters>
            <DistanceMeters>188948.70311001</DistanceMeters>
          </Trackpoint>
          <Trackpoint>
            <Time>2018-09-14T07:56:54.000Z</Time>
            <Position>
              <LatitudeDegrees>38.5136997699737548828125</LatitudeDegrees>
              <LongitudeDegrees>-8.16001147963106632232666015625</LongitudeDegrees>
            </Position>
            <AltitudeMeters>208.8000030517578125</AltitudeMeters>
            <DistanceMeters>188986.62388918</DistanceMeters>
          </Trackpoint>
          <Trackpoint>
            <Time>2018-09-14T07:56:57.000Z</Time>
            <Position>
              <LatitudeDegrees>38.51351511664688587188720703125</LatitudeDegrees>
              <LongitudeDegrees>-8.16004685126245021820068359375</LongitudeDegrees>
            </Position>
            <AltitudeMeters>209.1999969482421875</AltitudeMeters>
            <DistanceMeters>189007.40586445</DistanceMeters>
          </Trackpoint>
          <Trackpoint>
            <Time>2018-09-14T07:56:58.000Z</Time>
            <Position>
              <LatitudeDegrees>38.5134555213153362274169921875</LatitudeDegrees>
              <LongitudeDegrees>-8.16006143577396869659423828125</LongitudeDegrees>
            </Position>
            <AltitudeMeters>209.399993896484375</AltitudeMeters>
            <DistanceMeters>189014.16011839</DistanceMeters>
          </Trackpoint>
          <Trackpoint>
            <Time>2018-09-14T07:57:00.000Z</Time>
            <Position>
              <LatitudeDegrees>38.51333876140415668487548828125</LatitudeDegrees>
              <LongitudeDegrees>-8.160095550119876861572265625</LongitudeDegrees>
            </Position>
            <AltitudeMeters>209.600006103515625</AltitudeMeters>
            <DistanceMeters>189027.4916586</DistanceMeters>
          </Trackpoint>
          <Trackpoint>
            <Time>2018-09-14T07:57:04.000Z</Time>
            <Position>
              <LatitudeDegrees>38.51310909725725650787353515625</LatitudeDegrees>
              <LongitudeDegrees>-8.16017568111419677734375</LongitudeDegrees>
            </Position>
            <AltitudeMeters>210.399993896484375</AltitudeMeters>
            <DistanceMeters>189053.98912138</DistanceMeters>
          </Trackpoint>
          <Trackpoint>
            <Time>2018-09-14T07:57:07.000Z</Time>
            <Position>
              <LatitudeDegrees>38.5129371844232082366943359375</LatitudeDegrees>
              <LongitudeDegrees>-8.160237036645412445068359375</LongitudeDegrees>
            </Position>
            <AltitudeMeters>211</AltitudeMeters>
            <DistanceMeters>189073.85538729</DistanceMeters>
          </Trackpoint>
          <Trackpoint>
            <Time>2018-09-14T07:57:12.000Z</Time>
            <Position>
              <LatitudeDegrees>38.51265706121921539306640625</LatitudeDegrees>
              <LongitudeDegrees>-8.16033384762704372406005859375</LongitudeDegrees>
            </Position>
            <AltitudeMeters>212</AltitudeMeters>
            <DistanceMeters>189106.15342842</DistanceMeters>
          </Trackpoint>
          <Trackpoint>
            <Time>2018-09-14T07:57:17.000Z</Time>
            <Position>
              <LatitudeDegrees>38.51237718947231769561767578125</LatitudeDegrees>
              <LongitudeDegrees>-8.1604336760938167572021484375</LongitudeDegrees>
            </Position>
            <AltitudeMeters>211.600006103515625</AltitudeMeters>
            <DistanceMeters>189138.4942179</DistanceMeters>
          </Trackpoint>
          <Trackpoint>
            <Time>2018-09-14T07:57:27.000Z</Time>
            <Position>
              <LatitudeDegrees>38.5118314437568187713623046875</LatitudeDegrees>
              <LongitudeDegrees>-8.1606328301131725311279296875</LongitudeDegrees>
            </Position>
            <AltitudeMeters>211.8000030517578125</AltitudeMeters>
            <DistanceMeters>189201.66461557</DistanceMeters>
          </Trackpoint>
          <Trackpoint>
            <Time>2018-09-14T07:57:36.000Z</Time>
            <Position>
              <LatitudeDegrees>38.51132811047136783599853515625</LatitudeDegrees>
              <LongitudeDegrees>-8.1608065031468868255615234375</LongitudeDegrees>
            </Position>
            <AltitudeMeters>211.399993896484375</AltitudeMeters>
            <DistanceMeters>189259.69249021</DistanceMeters>
          </Trackpoint>
          <Trackpoint>
            <Time>2018-09-14T07:57:37.000Z</Time>
            <Position>
              <LatitudeDegrees>38.511268682777881622314453125</LatitudeDegrees>
              <LongitudeDegrees>-8.16082142293453216552734375</LongitudeDegrees>
            </Position>
            <AltitudeMeters>211.1999969482421875</AltitudeMeters>
            <DistanceMeters>189266.43336142</DistanceMeters>
          </Trackpoint>
          <Trackpoint>
            <Time>2018-09-14T07:57:45.000Z</Time>
            <Position>
              <LatitudeDegrees>38.51075026206672191619873046875</LatitudeDegrees>
              <LongitudeDegrees>-8.1608926691114902496337890625</LongitudeDegrees>
            </Position>
            <AltitudeMeters>211</AltitudeMeters>
            <DistanceMeters>189324.46722697</DistanceMeters>
          </Trackpoint>
          <Trackpoint>
            <Time>2018-09-14T07:57:49.000Z</Time>
            <Position>
              <LatitudeDegrees>38.5104715637862682342529296875</LatitudeDegrees>
              <LongitudeDegrees>-8.16091127693653106689453125</LongitudeDegrees>
            </Position>
            <AltitudeMeters>210.600006103515625</AltitudeMeters>
            <DistanceMeters>189355.52919098</DistanceMeters>
          </Trackpoint>
          <Trackpoint>
            <Time>2018-09-14T07:57:53.000Z</Time>
            <Position>
              <LatitudeDegrees>38.51019051857292652130126953125</LatitudeDegrees>
              <LongitudeDegrees>-8.16092963330447673797607421875</LongitudeDegrees>
            </Position>
            <AltitudeMeters>210</AltitudeMeters>
            <DistanceMeters>189386.85083789</DistanceMeters>
          </Trackpoint>
          <Trackpoint>
            <Time>2018-09-14T07:57:56.000Z</Time>
            <Position>
              <LatitudeDegrees>38.50997560657560825347900390625</LatitudeDegrees>
              <LongitudeDegrees>-8.16094120033085346221923828125</LongitudeDegrees>
            </Position>
            <AltitudeMeters>210</AltitudeMeters>
            <DistanceMeters>189410.79229007</DistanceMeters>
          </Trackpoint>
          <Trackpoint>
            <Time>2018-09-14T07:58:04.000Z</Time>
            <Position>
              <LatitudeDegrees>38.50939591415226459503173828125</LatitudeDegrees>
              <LongitudeDegrees>-8.16098243929445743560791015625</LongitudeDegrees>
            </Position>
            <AltitudeMeters>209.8000030517578125</AltitudeMeters>
            <DistanceMeters>189475.41311094</DistanceMeters>
          </Trackpoint>
          <Trackpoint>
            <Time>2018-09-14T07:58:07.000Z</Time>
            <Position>
              <LatitudeDegrees>38.50918217562139034271240234375</LatitudeDegrees>
              <LongitudeDegrees>-8.16099434159696102142333984375</LongitudeDegrees>
            </Position>
            <AltitudeMeters>209.8000030517578125</AltitudeMeters>
            <DistanceMeters>189499.22522047</DistanceMeters>
          </Trackpoint>
          <Trackpoint>
            <Time>2018-09-14T07:58:15.000Z</Time>
            <Position>
              <LatitudeDegrees>38.50860717706382274627685546875</LatitudeDegrees>
              <LongitudeDegrees>-8.16103440709412097930908203125</LongitudeDegrees>
            </Position>
            <AltitudeMeters>209.1999969482421875</AltitudeMeters>
            <DistanceMeters>189563.31874928</DistanceMeters>
          </Trackpoint>
          <Trackpoint>
            <Time>2018-09-14T07:58:23.000Z</Time>
            <Position>
              <LatitudeDegrees>38.508054055273532867431640625</LatitudeDegrees>
              <LongitudeDegrees>-8.16106156446039676666259765625</LongitudeDegrees>
            </Position>
            <AltitudeMeters>208.399993896484375</AltitudeMeters>
            <DistanceMeters>189624.92772762</DistanceMeters>
          </Trackpoint>
          <Trackpoint>
            <Time>2018-09-14T07:58:32.000Z</Time>
            <Position>
              <LatitudeDegrees>38.50745600648224353790283203125</LatitudeDegrees>
              <LongitudeDegrees>-8.1609764881432056427001953125</LongitudeDegrees>
            </Position>
            <AltitudeMeters>207.8000030517578125</AltitudeMeters>
            <DistanceMeters>189691.9029577</DistanceMeters>
          </Trackpoint>
          <Trackpoint>
            <Time>2018-09-14T07:58:40.000Z</Time>
            <Position>
              <LatitudeDegrees>38.5069178044795989990234375</LatitudeDegrees>
              <LongitudeDegrees>-8.1608702056109905242919921875</LongitudeDegrees>
            </Position>
            <AltitudeMeters>208.1999969482421875</AltitudeMeters>
            <DistanceMeters>189752.51689292</DistanceMeters>
          </Trackpoint>
          <Trackpoint>
            <Time>2018-09-14T07:58:46.000Z</Time>
            <Position>
              <LatitudeDegrees>38.5065384395420551300048828125</LatitudeDegrees>
              <LongitudeDegrees>-8.1607957743108272552490234375</LongitudeDegrees>
            </Position>
            <AltitudeMeters>208.8000030517578125</AltitudeMeters>
            <DistanceMeters>189795.23581388</DistanceMeters>
          </Trackpoint>
          <Trackpoint>
            <Time>2018-09-14T07:58:52.000Z</Time>
            <Position>
              <LatitudeDegrees>38.50616318173706531524658203125</LatitudeDegrees>
              <LongitudeDegrees>-8.160719163715839385986328125</LongitudeDegrees>
            </Position>
            <AltitudeMeters>209.399993896484375</AltitudeMeters>
            <DistanceMeters>189837.53241688</DistanceMeters>
          </Trackpoint>
          <Trackpoint>
            <Time>2018-09-14T07:59:00.000Z</Time>
            <Position>
              <LatitudeDegrees>38.50565875880420207977294921875</LatitudeDegrees>
              <LongitudeDegrees>-8.160615228116512298583984375</LongitudeDegrees>
            </Position>
            <AltitudeMeters>207.8000030517578125</AltitudeMeters>
            <DistanceMeters>189894.40080456</DistanceMeters>
          </Trackpoint>
          <Trackpoint>
            <Time>2018-09-14T07:59:04.000Z</Time>
            <Position>
              <LatitudeDegrees>38.50538986735045909881591796875</LatitudeDegrees>
              <LongitudeDegrees>-8.16055051982402801513671875</LongitudeDegrees>
            </Position>
            <AltitudeMeters>206.8000030517578125</AltitudeMeters>
            <DistanceMeters>189924.85505043</DistanceMeters>
          </Trackpoint>
          <Trackpoint>
            <Time>2018-09-14T07:59:12.000Z</Time>
            <Position>
              <LatitudeDegrees>38.504787124693393707275390625</LatitudeDegrees>
              <LongitudeDegrees>-8.16039025783538818359375</LongitudeDegrees>
            </Position>
            <AltitudeMeters>206.399993896484375</AltitudeMeters>
            <DistanceMeters>189993.37833909</DistanceMeters>
          </Trackpoint>
          <Trackpoint>
            <Time>2018-09-14T07:59:16.000Z</Time>
            <Position>
              <LatitudeDegrees>38.50449635647237300872802734375</LatitudeDegrees>
              <LongitudeDegrees>-8.16031440161168575286865234375</LongitudeDegrees>
            </Position>
            <AltitudeMeters>206.600006103515625</AltitudeMeters>
            <DistanceMeters>190026.40897436</DistanceMeters>
          </Trackpoint>
          <Trackpoint>
            <Time>2018-09-14T07:59:24.000Z</Time>
            <Position>
              <LatitudeDegrees>38.50394063629209995269775390625</LatitudeDegrees>
              <LongitudeDegrees>-8.16016403026878833770751953125</LongitudeDegrees>
            </Position>
            <AltitudeMeters>207.8000030517578125</AltitudeMeters>
            <DistanceMeters>190089.63324042</DistanceMeters>
          </Trackpoint>
          <Trackpoint>
            <Time>2018-09-14T07:59:32.000Z</Time>
            <Position>
              <LatitudeDegrees>38.50338726304471492767333984375</LatitudeDegrees>
              <LongitudeDegrees>-8.16001902334392070770263671875</LongitudeDegrees>
            </Position>
            <AltitudeMeters>209.399993896484375</AltitudeMeters>
            <DistanceMeters>190152.50646512</DistanceMeters>
          </Trackpoint>
          <Trackpoint>
            <Time>2018-09-14T07:59:40.000Z</Time>
            <Position>
              <LatitudeDegrees>38.50285316817462444305419921875</LatitudeDegrees>
              <LongitudeDegrees>-8.1598787941038608551025390625</LongitudeDegrees>
            </Position>
            <AltitudeMeters>210.1999969482421875</AltitudeMeters>
            <DistanceMeters>190213.1940991</DistanceMeters>
          </Trackpoint>
          <Trackpoint>
            <Time>2018-09-14T07:59:49.000Z</Time>
            <Position>
              <LatitudeDegrees>38.50227364338934421539306640625</LatitudeDegrees>
              <LongitudeDegrees>-8.15973504446446895599365234375</LongitudeDegrees>
            </Position>
            <AltitudeMeters>208.600006103515625</AltitudeMeters>
            <DistanceMeters>190278.90038243</DistanceMeters>
          </Trackpoint>
          <Trackpoint>
            <Time>2018-09-14T07:59:56.000Z</Time>
            <Position>
              <LatitudeDegrees>38.50183174945414066314697265625</LatitudeDegrees>
              <LongitudeDegrees>-8.1596244871616363525390625</LongitudeDegrees>
            </Position>
            <AltitudeMeters>208</AltitudeMeters>
            <DistanceMeters>190329.01794365</DistanceMeters>
          </Trackpoint>
          <Trackpoint>
            <Time>2018-09-14T08:00:04.000Z</Time>
            <Position>
              <LatitudeDegrees>38.50129161961376667022705078125</LatitudeDegrees>
              <LongitudeDegrees>-8.1594796478748321533203125</LongitudeDegrees>
            </Position>
            <AltitudeMeters>206</AltitudeMeters>
            <DistanceMeters>190390.44490534</DistanceMeters>
          </Trackpoint>
          <Trackpoint>
            <Time>2018-09-14T08:00:10.000Z</Time>
            <Position>
              <LatitudeDegrees>38.50087814033031463623046875</LatitudeDegrees>
              <LongitudeDegrees>-8.15938417799770832061767578125</LongitudeDegrees>
            </Position>
            <AltitudeMeters>204.8000030517578125</AltitudeMeters>
            <DistanceMeters>190437.21127729</DistanceMeters>
          </Trackpoint>
          <Trackpoint>
            <Time>2018-09-14T08:00:16.000Z</Time>
            <Position>
              <LatitudeDegrees>38.50047689862549304962158203125</LatitudeDegrees>
              <LongitudeDegrees>-8.15950311720371246337890625</LongitudeDegrees>
            </Position>
            <AltitudeMeters>204.399993896484375</AltitudeMeters>
            <DistanceMeters>190483.056226</DistanceMeters>
          </Trackpoint>
          <Trackpoint>
            <Time>2018-09-14T08:00:24.000Z</Time>
            <Position>
              <LatitudeDegrees>38.5000340826809406280517578125</LatitudeDegrees>
              <LongitudeDegrees>-8.15989631228148937225341796875</LongitudeDegrees>
            </Position>
            <AltitudeMeters>204.1999969482421875</AltitudeMeters>
            <DistanceMeters>190543.0743044</DistanceMeters>
          </Trackpoint>
          <Trackpoint>
            <Time>2018-09-14T08:00:30.000Z</Time>
            <Position>
              <LatitudeDegrees>38.49974079988896846771240234375</LatitudeDegrees>
              <LongitudeDegrees>-8.16007484681904315948486328125</LongitudeDegrees>
            </Position>
            <AltitudeMeters>204.600006103515625</AltitudeMeters>
            <DistanceMeters>190579.23243748</DistanceMeters>
          </Trackpoint>
          <Trackpoint>
            <Time>2018-09-14T08:00:36.000Z</Time>
            <Position>
              <LatitudeDegrees>38.4994362853467464447021484375</LatitudeDegrees>
              <LongitudeDegrees>-8.16016830503940582275390625</LongitudeDegrees>
            </Position>
            <AltitudeMeters>204.8000030517578125</AltitudeMeters>
            <DistanceMeters>190614.08950054</DistanceMeters>
          </Trackpoint>
          <Trackpoint>
            <Time>2018-09-14T08:00:39.000Z</Time>
            <Position>
              <LatitudeDegrees>38.49927996285259723663330078125</LatitudeDegrees>
              <LongitudeDegrees>-8.16020853817462921142578125</LongitudeDegrees>
            </Position>
            <AltitudeMeters>204.8000030517578125</AltitudeMeters>
            <DistanceMeters>190631.83788601</DistanceMeters>
          </Trackpoint>
          <Trackpoint>
            <Time>2018-09-14T08:00:50.000Z</Time>
            <Position>
              <LatitudeDegrees>38.4987053833901882171630859375</LatitudeDegrees>
              <LongitudeDegrees>-8.16041096113622188568115234375</LongitudeDegrees>
            </Position>
            <AltitudeMeters>202.8000030517578125</AltitudeMeters>
            <DistanceMeters>190698.17599379</DistanceMeters>
          </Trackpoint>
          <Trackpoint>
            <Time>2018-09-14T08:00:52.000Z</Time>
            <Position>
              <LatitudeDegrees>38.49859432317316532135009765625</LatitudeDegrees>
              <LongitudeDegrees>-8.1604492664337158203125</LongitudeDegrees>
            </Position>
            <AltitudeMeters>202.399993896484375</AltitudeMeters>
            <DistanceMeters>190710.97993998</DistanceMeters>
          </Trackpoint>
          <Trackpoint>
            <Time>2018-09-14T08:01:01.000Z</Time>
            <Position>
              <LatitudeDegrees>38.49805419333279132843017578125</LatitudeDegrees>
              <LongitudeDegrees>-8.1606546230614185333251953125</LongitudeDegrees>
            </Position>
            <AltitudeMeters>201.399993896484375</AltitudeMeters>
            <DistanceMeters>190773.70246659</DistanceMeters>
          </Trackpoint>
          <Trackpoint>
            <Time>2018-09-14T08:01:05.000Z</Time>
            <Position>
              <LatitudeDegrees>38.49778513424098491668701171875</LatitudeDegrees>
              <LongitudeDegrees>-8.16074137575924396514892578125</LongitudeDegrees>
            </Position>
            <AltitudeMeters>201</AltitudeMeters>
            <DistanceMeters>190804.58804923</DistanceMeters>
          </Trackpoint>
          <Trackpoint>
            <Time>2018-09-14T08:01:08.000Z</Time>
            <Position>
              <LatitudeDegrees>38.49756368435919284820556640625</LatitudeDegrees>
              <LongitudeDegrees>-8.16079736687242984771728515625</LongitudeDegrees>
            </Position>
            <AltitudeMeters>200.600006103515625</AltitudeMeters>
            <DistanceMeters>190829.71358692</DistanceMeters>
          </Trackpoint>
          <Trackpoint>
            <Time>2018-09-14T08:01:11.000Z</Time>
            <Position>
              <LatitudeDegrees>38.4973206929862499237060546875</LatitudeDegrees>
              <LongitudeDegrees>-8.160843215882778167724609375</LongitudeDegrees>
            </Position>
            <AltitudeMeters>200</AltitudeMeters>
            <DistanceMeters>190857.0525596</DistanceMeters>
          </Trackpoint>
          <Trackpoint>
            <Time>2018-09-14T08:01:14.000Z</Time>
            <Position>
              <LatitudeDegrees>38.49705456756055355072021484375</LatitudeDegrees>
              <LongitudeDegrees>-8.16087347455322742462158203125</LongitudeDegrees>
            </Position>
            <AltitudeMeters>199.399993896484375</AltitudeMeters>
            <DistanceMeters>190886.79000042</DistanceMeters>
          </Trackpoint>
          <Trackpoint>
            <Time>2018-09-14T08:01:17.000Z</Time>
            <Position>
              <LatitudeDegrees>38.49676421843469142913818359375</LatitudeDegrees>
              <LongitudeDegrees>-8.16087515093386173248291015625</LongitudeDegrees>
            </Position>
            <AltitudeMeters>198.600006103515625</AltitudeMeters>
            <DistanceMeters>190919.10662866</DistanceMeters>
          </Trackpoint>
          <Trackpoint>
            <Time>2018-09-14T08:01:19.000Z</Time>
            <Position>
              <LatitudeDegrees>38.4965606220066547393798828125</LatitudeDegrees>
              <LongitudeDegrees>-8.16086609847843647003173828125</LongitudeDegrees>
            </Position>
            <AltitudeMeters>198</AltitudeMeters>
            <DistanceMeters>190941.7808072</DistanceMeters>
          </Trackpoint>
          <Trackpoint>
            <Time>2018-09-14T08:01:20.000Z</Time>
            <Position>
              <LatitudeDegrees>38.49645677022635936737060546875</LatitudeDegrees>
              <LongitudeDegrees>-8.16085939295589923858642578125</LongitudeDegrees>
            </Position>
            <AltitudeMeters>197.600006103515625</AltitudeMeters>
            <DistanceMeters>190953.35418716</DistanceMeters>
          </Trackpoint>
          <Trackpoint>
            <Time>2018-09-14T08:01:22.000Z</Time>
            <Position>
              <LatitudeDegrees>38.4962404333055019378662109375</LatitudeDegrees>
              <LongitudeDegrees>-8.16084195859730243682861328125</LongitudeDegrees>
            </Position>
            <AltitudeMeters>196.8000030517578125</AltitudeMeters>
            <DistanceMeters>190977.48049495</DistanceMeters>
          </Trackpoint>
          <Trackpoint>
            <Time>2018-09-14T08:01:24.000Z</Time>
            <Position>
              <LatitudeDegrees>38.49601839669048786163330078125</LatitudeDegrees>
              <LongitudeDegrees>-8.1608236022293567657470703125</LongitudeDegrees>
            </Position>
            <AltitudeMeters>196</AltitudeMeters>
            <DistanceMeters>191002.24512037</DistanceMeters>
          </Trackpoint>
          <Trackpoint>
            <Time>2018-09-14T08:01:25.000Z</Time>
            <Position>
              <LatitudeDegrees>38.49590792320668697357177734375</LatitudeDegrees>
              <LongitudeDegrees>-8.1608100235462188720703125</LongitudeDegrees>
            </Position>
            <AltitudeMeters>195.8000030517578125</AltitudeMeters>
            <DistanceMeters>191014.59786224</DistanceMeters>
          </Trackpoint>
          <Trackpoint>
            <Time>2018-09-14T08:01:26.000Z</Time>
            <Position>
              <LatitudeDegrees>38.49579870700836181640625</LatitudeDegrees>
              <LongitudeDegrees>-8.1607947684824466705322265625</LongitudeDegrees>
            </Position>
            <AltitudeMeters>195.8000030517578125</AltitudeMeters>
            <DistanceMeters>191026.82643803</DistanceMeters>
          </Trackpoint>
          <Trackpoint>
            <Time>2018-09-14T08:01:27.000Z</Time>
            <Position>
              <LatitudeDegrees>38.495691083371639251708984375</LatitudeDegrees>
              <LongitudeDegrees>-8.1607805192470550537109375</LongitudeDegrees>
            </Position>
            <AltitudeMeters>195.600006103515625</AltitudeMeters>
            <DistanceMeters>191038.86936366</DistanceMeters>
          </Trackpoint>
          <Trackpoint>
            <Time>2018-09-14T08:01:28.000Z</Time>
            <Position>
              <LatitudeDegrees>38.495585136115550994873046875</LatitudeDegrees>
              <LongitudeDegrees>-8.1607682816684246063232421875</LongitudeDegrees>
            </Position>
            <AltitudeMeters>195.600006103515625</AltitudeMeters>
            <DistanceMeters>191050.70924992</DistanceMeters>
          </Trackpoint>
          <Trackpoint>
            <Time>2018-09-14T08:01:30.000Z</Time>
            <Position>
              <LatitudeDegrees>38.49537885747849941253662109375</LatitudeDegrees>
              <LongitudeDegrees>-8.16074724309146404266357421875</LongitudeDegrees>
            </Position>
            <AltitudeMeters>195.1999969482421875</AltitudeMeters>
            <DistanceMeters>191073.74142027</DistanceMeters>
          </Trackpoint>
          <Trackpoint>
            <Time>2018-09-14T08:01:32.000Z</Time>
            <Position>
              <LatitudeDegrees>38.49517970345914363861083984375</LatitudeDegrees>
              <LongitudeDegrees>-8.160726539790630340576171875</LongitudeDegrees>
            </Position>
            <AltitudeMeters>195</AltitudeMeters>
            <DistanceMeters>191095.98091997</DistanceMeters>
          </Trackpoint>
          <Trackpoint>
            <Time>2018-09-14T08:01:33.000Z</Time>
            <Position>
              <LatitudeDegrees>38.495082557201385498046875</LatitudeDegrees>
              <LongitudeDegrees>-8.16071639768779277801513671875</LongitudeDegrees>
            </Position>
            <AltitudeMeters>194.8000030517578125</AltitudeMeters>
            <DistanceMeters>191106.82937545</DistanceMeters>
          </Trackpoint>
          <Trackpoint>
            <Time>2018-09-14T08:01:39.000Z</Time>
            <Position>
              <LatitudeDegrees>38.49451870657503604888916015625</LatitudeDegrees>
              <LongitudeDegrees>-8.1606539525091648101806640625</LongitudeDegrees>
            </Position>
            <AltitudeMeters>194.1999969482421875</AltitudeMeters>
            <DistanceMeters>191169.82226832</DistanceMeters>
          </Trackpoint>
          <Trackpoint>
            <Time>2018-09-14T08:01:46.000Z</Time>
            <Position>
              <LatitudeDegrees>38.49389609880745410919189453125</LatitudeDegrees>
              <LongitudeDegrees>-8.1605939380824565887451171875</LongitudeDegrees>
            </Position>
            <AltitudeMeters>193</AltitudeMeters>
            <DistanceMeters>191239.31662409</DistanceMeters>
          </Trackpoint>
          <Trackpoint>
            <Time>2018-09-14T08:01:47.000Z</Time>
            <Position>
              <LatitudeDegrees>38.49380808882415294647216796875</LatitudeDegrees>
              <LongitudeDegrees>-8.160586394369602203369140625</LongitudeDegrees>
            </Position>
            <AltitudeMeters>193</AltitudeMeters>
            <DistanceMeters>191249.13385414</DistanceMeters>
          </Trackpoint>
          <Trackpoint>
            <Time>2018-09-14T08:01:54.000Z</Time>
            <Position>
              <LatitudeDegrees>38.49318916909396648406982421875</LatitudeDegrees>
              <LongitudeDegrees>-8.160527385771274566650390625</LongitudeDegrees>
            </Position>
            <AltitudeMeters>192.8000030517578125</AltitudeMeters>
            <DistanceMeters>191318.21232789</DistanceMeters>
          </Trackpoint>
          <Trackpoint>
            <Time>2018-09-14T08:02:01.000Z</Time>
            <Position>
              <LatitudeDegrees>38.49257997237145900726318359375</LatitudeDegrees>
              <LongitudeDegrees>-8.1604675389826297760009765625</LongitudeDegrees>
            </Position>
            <AltitudeMeters>193.1999969482421875</AltitudeMeters>
            <DistanceMeters>191386.21727168</DistanceMeters>
          </Trackpoint>
          <Trackpoint>
            <Time>2018-09-14T08:02:05.000Z</Time>
            <Position>
              <LatitudeDegrees>38.49223732016980648040771484375</LatitudeDegrees>
              <LongitudeDegrees>-8.1604330055415630340576171875</LongitudeDegrees>
            </Position>
            <AltitudeMeters>192.399993896484375</AltitudeMeters>
            <DistanceMeters>191424.47352097</DistanceMeters>
          </Trackpoint>
          <Trackpoint>
            <Time>2018-09-14T08:02:12.000Z</Time>
            <Position>
              <LatitudeDegrees>38.49164304323494434356689453125</LatitudeDegrees>
              <LongitudeDegrees>-8.16037827171385288238525390625</LongitudeDegrees>
            </Position>
            <AltitudeMeters>191.600006103515625</AltitudeMeters>
            <DistanceMeters>191490.78943716</DistanceMeters>
          </Trackpoint>
          <Trackpoint>
            <Time>2018-09-14T08:02:15.000Z</Time>
            <Position>
              <LatitudeDegrees>38.49139141850173473358154296875</LatitudeDegrees>
              <LongitudeDegrees>-8.1603542156517505645751953125</LongitudeDegrees>
            </Position>
            <AltitudeMeters>191.399993896484375</AltitudeMeters>
            <DistanceMeters>191518.87397128</DistanceMeters>
          </Trackpoint>
          <Trackpoint>
            <Time>2018-09-14T08:02:21.000Z</Time>
            <Position>
              <LatitudeDegrees>38.49089495837688446044921875</LatitudeDegrees>
              <LongitudeDegrees>-8.1603032536804676055908203125</LongitudeDegrees>
            </Position>
            <AltitudeMeters>191.1999969482421875</AltitudeMeters>
            <DistanceMeters>191574.30900871</DistanceMeters>
          </Trackpoint>
          <Trackpoint>
            <Time>2018-09-14T08:02:26.000Z</Time>
            <Position>
              <LatitudeDegrees>38.49049002863466739654541015625</LatitudeDegrees>
              <LongitudeDegrees>-8.16025950014591217041015625</LongitudeDegrees>
            </Position>
            <AltitudeMeters>191.1999969482421875</AltitudeMeters>
            <DistanceMeters>191619.53942888</DistanceMeters>
          </Trackpoint>
          <Trackpoint>
            <Time>2018-09-14T08:02:33.000Z</Time>
            <Position>
              <LatitudeDegrees>38.4899352304637432098388671875</LatitudeDegrees>
              <LongitudeDegrees>-8.16020845435559749603271484375</LongitudeDegrees>
            </Position>
            <AltitudeMeters>190.600006103515625</AltitudeMeters>
            <DistanceMeters>191681.44960678</DistanceMeters>
          </Trackpoint>
          <Trackpoint>
            <Time>2018-09-14T08:02:39.000Z</Time>
            <Position>
              <LatitudeDegrees>38.48943541757762432098388671875</LatitudeDegrees>
              <LongitudeDegrees>-8.1601614318788051605224609375</LongitudeDegrees>
            </Position>
            <AltitudeMeters>188.399993896484375</AltitudeMeters>
            <DistanceMeters>191737.23045</DistanceMeters>
          </Trackpoint>
          <Trackpoint>
            <Time>2018-09-14T08:02:43.000Z</Time>
            <Position>
              <LatitudeDegrees>38.48909310065209865570068359375</LatitudeDegrees>
              <LongitudeDegrees>-8.16012446768581867218017578125</LongitudeDegrees>
            </Position>
            <AltitudeMeters>188</AltitudeMeters>
            <DistanceMeters>191775.46686663</DistanceMeters>
          </Trackpoint>
          <Trackpoint>
            <Time>2018-09-14T08:02:46.000Z</Time>
            <Position>
              <LatitudeDegrees>38.48883979953825473785400390625</LatitudeDegrees>
              <LongitudeDegrees>-8.1601014174520969390869140625</LongitudeDegrees>
            </Position>
            <AltitudeMeters>188</AltitudeMeters>
            <DistanceMeters>191803.73136438</DistanceMeters>
          </Trackpoint>
          <Trackpoint>
            <Time>2018-09-14T08:02:49.000Z</Time>
            <Position>
              <LatitudeDegrees>38.48858482204377651214599609375</LatitudeDegrees>
              <LongitudeDegrees>-8.160076104104518890380859375</LongitudeDegrees>
            </Position>
            <AltitudeMeters>188</AltitudeMeters>
            <DistanceMeters>191832.19658455</DistanceMeters>
          </Trackpoint>
          <Trackpoint>
            <Time>2018-09-14T08:02:51.000Z</Time>
            <Position>
              <LatitudeDegrees>38.48841450177133083343505859375</LatitudeDegrees>
              <LongitudeDegrees>-8.16005758009850978851318359375</LongitudeDegrees>
            </Position>
            <AltitudeMeters>187.600006103515625</AltitudeMeters>
            <DistanceMeters>191851.22234719</DistanceMeters>
          </Trackpoint>
          <Trackpoint>
            <Time>2018-09-14T08:02:56.000Z</Time>
            <Position>
              <LatitudeDegrees>38.4879948198795318603515625</LatitudeDegrees>
              <LongitudeDegrees>-8.16001449711620807647705078125</LongitudeDegrees>
            </Position>
            <AltitudeMeters>186</AltitudeMeters>
            <DistanceMeters>191898.08429712</DistanceMeters>
          </Trackpoint>
          <Trackpoint>
            <Time>2018-09-14T08:02:57.000Z</Time>
            <Position>
              <LatitudeDegrees>38.487909995019435882568359375</LatitudeDegrees>
              <LongitudeDegrees>-8.16000661812722682952880859375</LongitudeDegrees>
            </Position>
            <AltitudeMeters>185.600006103515625</AltitudeMeters>
            <DistanceMeters>191907.55031257</DistanceMeters>
          </Trackpoint>
          <Trackpoint>
            <Time>2018-09-14T08:03:02.000Z</Time>
            <Position>
              <LatitudeDegrees>38.4874905645847320556640625</LatitudeDegrees>
              <LongitudeDegrees>-8.15996755845844745635986328125</LongitudeDegrees>
            </Position>
            <AltitudeMeters>184.8000030517578125</AltitudeMeters>
            <DistanceMeters>191954.35769796</DistanceMeters>
          </Trackpoint>
          <Trackpoint>
            <Time>2018-09-14T08:03:09.000Z</Time>
            <Position>
              <LatitudeDegrees>38.48693065345287322998046875</LatitudeDegrees>
              <LongitudeDegrees>-8.1599133275449275970458984375</LongitudeDegrees>
            </Position>
            <AltitudeMeters>184.1999969482421875</AltitudeMeters>
            <DistanceMeters>192016.85573566</DistanceMeters>
          </Trackpoint>
          <Trackpoint>
            <Time>2018-09-14T08:03:16.000Z</Time>
            <Position>
              <LatitudeDegrees>38.486389853060245513916015625</LatitudeDegrees>
              <LongitudeDegrees>-8.159859515726566314697265625</LongitudeDegrees>
            </Position>
            <AltitudeMeters>185.399993896484375</AltitudeMeters>
            <DistanceMeters>192077.23016425</DistanceMeters>
          </Trackpoint>
          <Trackpoint>
            <Time>2018-09-14T08:03:22.000Z</Time>
            <Position>
              <LatitudeDegrees>38.48596313036978244781494140625</LatitudeDegrees>
              <LongitudeDegrees>-8.15981601364910602569580078125</LongitudeDegrees>
            </Position>
            <AltitudeMeters>186.399993896484375</AltitudeMeters>
            <DistanceMeters>192124.87627834</DistanceMeters>
          </Trackpoint>
          <Trackpoint>
            <Time>2018-09-14T08:03:27.000Z</Time>
            <Position>
              <LatitudeDegrees>38.48561561666429042816162109375</LatitudeDegrees>
              <LongitudeDegrees>-8.15978298895061016082763671875</LongitudeDegrees>
            </Position>
            <AltitudeMeters>187.399993896484375</AltitudeMeters>
            <DistanceMeters>192163.66208109</DistanceMeters>
          </Trackpoint>
          <Trackpoint>
            <Time>2018-09-14T08:03:36.000Z</Time>
            <Position>
              <LatitudeDegrees>38.485016562044620513916015625</LatitudeDegrees>
              <LongitudeDegrees>-8.159724064171314239501953125</LongitudeDegrees>
            </Position>
            <AltitudeMeters>189.1999969482421875</AltitudeMeters>
            <DistanceMeters>192230.53537171</DistanceMeters>
          </Trackpoint>
          <Trackpoint>
            <Time>2018-09-14T08:03:42.000Z</Time>
            <Position>
              <LatitudeDegrees>38.48462487570941448211669921875</LatitudeDegrees>
              <LongitudeDegrees>-8.15968408249318599700927734375</LongitudeDegrees>
            </Position>
            <AltitudeMeters>189.600006103515625</AltitudeMeters>
            <DistanceMeters>192274.26975877</DistanceMeters>
          </Trackpoint>
          <Trackpoint>
            <Time>2018-09-14T08:03:46.000Z</Time>
            <Position>
              <LatitudeDegrees>38.48436268977820873260498046875</LatitudeDegrees>
              <LongitudeDegrees>-8.15966027788817882537841796875</LongitudeDegrees>
            </Position>
            <AltitudeMeters>190</AltitudeMeters>
            <DistanceMeters>192303.52518007</DistanceMeters>
          </Trackpoint>
          <Trackpoint>
            <Time>2018-09-14T08:03:53.000Z</Time>
            <Position>
              <LatitudeDegrees>38.48389766179025173187255859375</LatitudeDegrees>
              <LongitudeDegrees>-8.15961468033492565155029296875</LongitudeDegrees>
            </Position>
            <AltitudeMeters>189</AltitudeMeters>
            <DistanceMeters>192355.43603975</DistanceMeters>
          </Trackpoint>
          <Trackpoint>
            <Time>2018-09-14T08:04:02.000Z</Time>
            <Position>
              <LatitudeDegrees>38.48329232074320316314697265625</LatitudeDegrees>
              <LongitudeDegrees>-8.15955298952758312225341796875</LongitudeDegrees>
            </Position>
            <AltitudeMeters>190</AltitudeMeters>
            <DistanceMeters>192423.02575682</DistanceMeters>
          </Trackpoint>
          <Trackpoint>
            <Time>2018-09-14T08:04:09.000Z</Time>
            <Position>
              <LatitudeDegrees>38.48281689919531345367431640625</LatitudeDegrees>
              <LongitudeDegrees>-8.15950638614594936370849609375</LongitudeDegrees>
            </Position>
            <AltitudeMeters>190</AltitudeMeters>
            <DistanceMeters>192476.09679434</DistanceMeters>
          </Trackpoint>
          <Trackpoint>
            <Time>2018-09-14T08:04:18.000Z</Time>
            <Position>
              <LatitudeDegrees>38.48221222870051860809326171875</LatitudeDegrees>
              <LongitudeDegrees>-8.15944368951022624969482421875</LongitudeDegrees>
            </Position>
            <AltitudeMeters>190.8000030517578125</AltitudeMeters>
            <DistanceMeters>192543.61914276</DistanceMeters>
          </Trackpoint>
          <Trackpoint>
            <Time>2018-09-14T08:04:23.000Z</Time>
            <Position>
              <LatitudeDegrees>38.48188248462975025177001953125</LatitudeDegrees>
              <LongitudeDegrees>-8.15941032953560352325439453125</LongitudeDegrees>
            </Position>
            <AltitudeMeters>191.8000030517578125</AltitudeMeters>
            <DistanceMeters>192580.43534211</DistanceMeters>
          </Trackpoint>
          <Trackpoint>
            <Time>2018-09-14T08:04:25.000Z</Time>
            <Position>
              <LatitudeDegrees>38.48175105638802051544189453125</LatitudeDegrees>
              <LongitudeDegrees>-8.15939842723309993743896484375</LongitudeDegrees>
            </Position>
            <AltitudeMeters>191.8000030517578125</AltitudeMeters>
            <DistanceMeters>192595.10058437</DistanceMeters>
          </Trackpoint>
          <Trackpoint>
            <Time>2018-09-14T08:04:34.000Z</Time>
            <Position>
              <LatitudeDegrees>38.48116331733763217926025390625</LatitudeDegrees>
              <LongitudeDegrees>-8.15933950245380401611328125</LongitudeDegrees>
            </Position>
            <AltitudeMeters>192</AltitudeMeters>
            <DistanceMeters>192660.71830248</DistanceMeters>
          </Trackpoint>
          <Trackpoint>
            <Time>2018-09-14T08:04:36.000Z</Time>
            <Position>
              <LatitudeDegrees>38.481033146381378173828125</LatitudeDegrees>
              <LongitudeDegrees>-8.1593252532184123992919921875</LongitudeDegrees>
            </Position>
            <AltitudeMeters>192</AltitudeMeters>
            <DistanceMeters>192675.25956343</DistanceMeters>
          </Trackpoint>
          <Trackpoint>
            <Time>2018-09-14T08:04:45.000Z</Time>
            <Position>
              <LatitudeDegrees>38.48044549115002155303955078125</LatitudeDegrees>
              <LongitudeDegrees>-8.15926708281040191650390625</LongitudeDegrees>
            </Position>
            <AltitudeMeters>191.399993896484375</AltitudeMeters>
            <DistanceMeters>192740.86289904</DistanceMeters>
          </Trackpoint>
          <Trackpoint>
            <Time>2018-09-14T08:04:54.000Z</Time>
            <Position>
              <LatitudeDegrees>38.47984802909195423126220703125</LatitudeDegrees>
              <LongitudeDegrees>-8.15920866094529628753662109375</LongitudeDegrees>
            </Position>
            <AltitudeMeters>190.600006103515625</AltitudeMeters>
            <DistanceMeters>192807.55608366</DistanceMeters>
          </Trackpoint>
          <Trackpoint>
            <Time>2018-09-14T08:05:02.000Z</Time>
            <Position>
              <LatitudeDegrees>38.47930337302386760711669921875</LatitudeDegrees>
              <LongitudeDegrees>-8.15915568731725215911865234375</LongitudeDegrees>
            </Position>
            <AltitudeMeters>190</AltitudeMeters>
            <DistanceMeters>192868.3528358</DistanceMeters>
          </Trackpoint>
          <Trackpoint>
            <Time>2018-09-14T08:05:09.000Z</Time>
            <Position>
              <LatitudeDegrees>38.4788087569177150726318359375</LatitudeDegrees>
              <LongitudeDegrees>-8.15910774283111095428466796875</LongitudeDegrees>
            </Position>
            <AltitudeMeters>188.8000030517578125</AltitudeMeters>
            <DistanceMeters>192923.56286617</DistanceMeters>
          </Trackpoint>
          <Trackpoint>
            <Time>2018-09-14T08:05:15.000Z</Time>
            <Position>
              <LatitudeDegrees>38.4783621691167354583740234375</LatitudeDegrees>
              <LongitudeDegrees>-8.159062564373016357421875</LongitudeDegrees>
            </Position>
            <AltitudeMeters>187.600006103515625</AltitudeMeters>
            <DistanceMeters>192973.42464278</DistanceMeters>
          </Trackpoint>
          <Trackpoint>
            <Time>2018-09-14T08:05:21.000Z</Time>
            <Position>
              <LatitudeDegrees>38.47789454273879528045654296875</LatitudeDegrees>
              <LongitudeDegrees>-8.1590116024017333984375</LongitudeDegrees>
            </Position>
            <AltitudeMeters>186</AltitudeMeters>
            <DistanceMeters>193025.66151137</DistanceMeters>
          </Trackpoint>
          <Trackpoint>
            <Time>2018-09-14T08:05:24.000Z</Time>
            <Position>
              <LatitudeDegrees>38.4776547364890575408935546875</LatitudeDegrees>
              <LongitudeDegrees>-8.15898813307285308837890625</LongitudeDegrees>
            </Position>
            <AltitudeMeters>186</AltitudeMeters>
            <DistanceMeters>193052.43072403</DistanceMeters>
          </Trackpoint>
          <Trackpoint>
            <Time>2018-09-14T08:05:28.000Z</Time>
            <Position>
              <LatitudeDegrees>38.47733438014984130859375</LatitudeDegrees>
              <LongitudeDegrees>-8.1589577905833721160888671875</LongitudeDegrees>
            </Position>
            <AltitudeMeters>186.1999969482421875</AltitudeMeters>
            <DistanceMeters>193088.18502254</DistanceMeters>
          </Trackpoint>
          <Trackpoint>
            <Time>2018-09-14T08:05:31.000Z</Time>
            <Position>
              <LatitudeDegrees>38.47710027359426021575927734375</LatitudeDegrees>
              <LongitudeDegrees>-8.158935494720935821533203125</LongitudeDegrees>
            </Position>
            <AltitudeMeters>186.1999969482421875</AltitudeMeters>
            <DistanceMeters>193114.31391325</DistanceMeters>
          </Trackpoint>
          <Trackpoint>
            <Time>2018-09-14T08:05:37.000Z</Time>
            <Position>
              <LatitudeDegrees>38.47665921784937381744384765625</LatitudeDegrees>
              <LongitudeDegrees>-8.15889199264347553253173828125</LongitudeDegrees>
            </Position>
            <AltitudeMeters>187.1999969482421875</AltitudeMeters>
            <DistanceMeters>193163.55040766</DistanceMeters>
          </Trackpoint>
          <Trackpoint>
            <Time>2018-09-14T08:05:43.000Z</Time>
            <Position>
              <LatitudeDegrees>38.47625906579196453094482421875</LatitudeDegrees>
              <LongitudeDegrees>-8.15885226242244243621826171875</LongitudeDegrees>
            </Position>
            <AltitudeMeters>188.600006103515625</AltitudeMeters>
            <DistanceMeters>193208.22246508</DistanceMeters>
          </Trackpoint>
          <Trackpoint>
            <Time>2018-09-14T08:05:47.000Z</Time>
            <Position>
              <LatitudeDegrees>38.476018421351909637451171875</LatitudeDegrees>
              <LongitudeDegrees>-8.15882912836968898773193359375</LongitudeDegrees>
            </Position>
            <AltitudeMeters>189</AltitudeMeters>
            <DistanceMeters>193235.0822664</DistanceMeters>
          </Trackpoint>
          <Trackpoint>
            <Time>2018-09-14T08:05:50.000Z</Time>
            <Position>
              <LatitudeDegrees>38.4758444130420684814453125</LatitudeDegrees>
              <LongitudeDegrees>-8.15881286747753620147705078125</LongitudeDegrees>
            </Position>
            <AltitudeMeters>190</AltitudeMeters>
            <DistanceMeters>193254.50145852</DistanceMeters>
          </Trackpoint>
          <Trackpoint>
            <Time>2018-09-14T08:05:54.000Z</Time>
            <Position>
              <LatitudeDegrees>38.47562053240835666656494140625</LatitudeDegrees>
              <LongitudeDegrees>-8.15879342146217823028564453125</LongitudeDegrees>
            </Position>
            <AltitudeMeters>191.399993896484375</AltitudeMeters>
            <DistanceMeters>193279.47740056</DistanceMeters>
          </Trackpoint>
          <Trackpoint>
            <Time>2018-09-14T08:05:56.000Z</Time>
            <Position>
              <LatitudeDegrees>38.47551022656261920928955078125</LatitudeDegrees>
              <LongitudeDegrees>-8.15878428518772125244140625</LongitudeDegrees>
            </Position>
            <AltitudeMeters>192.399993896484375</AltitudeMeters>
            <DistanceMeters>193291.78033278</DistanceMeters>
          </Trackpoint>
          <Trackpoint>
            <Time>2018-09-14T08:06:01.000Z</Time>
            <Position>
              <LatitudeDegrees>38.47523882053792476654052734375</LatitudeDegrees>
              <LongitudeDegrees>-8.15875670872628688812255859375</LongitudeDegrees>
            </Position>
            <AltitudeMeters>195.1999969482421875</AltitudeMeters>
            <DistanceMeters>193322.08372474</DistanceMeters>
          </Trackpoint>
          <Trackpoint>
            <Time>2018-09-14T08:06:06.000Z</Time>
            <Position>
              <LatitudeDegrees>38.4749681688845157623291015625</LatitudeDegrees>
              <LongitudeDegrees>-8.1587321497499942779541015625</LongitudeDegrees>
            </Position>
            <AltitudeMeters>196.399993896484375</AltitudeMeters>
            <DistanceMeters>193352.283687</DistanceMeters>
          </Trackpoint>
          <Trackpoint>
            <Time>2018-09-14T08:06:12.000Z</Time>
            <Position>
              <LatitudeDegrees>38.47463431768119335174560546875</LatitudeDegrees>
              <LongitudeDegrees>-8.158700466156005859375</LongitudeDegrees>
            </Position>
            <AltitudeMeters>195.399993896484375</AltitudeMeters>
            <DistanceMeters>193389.54433908</DistanceMeters>
          </Trackpoint>
          <Trackpoint>
            <Time>2018-09-14T08:06:17.000Z</Time>
            <Position>
              <LatitudeDegrees>38.47433634102344512939453125</LatitudeDegrees>
              <LongitudeDegrees>-8.15867138095200061798095703125</LongitudeDegrees>
            </Position>
            <AltitudeMeters>193.8000030517578125</AltitudeMeters>
            <DistanceMeters>193422.80653979</DistanceMeters>
          </Trackpoint>
          <Trackpoint>
            <Time>2018-09-14T08:06:26.000Z</Time>
            <Position>
              <LatitudeDegrees>38.4737333469092845916748046875</LatitudeDegrees>
              <LongitudeDegrees>-8.1586079299449920654296875</LongitudeDegrees>
            </Position>
            <AltitudeMeters>192.399993896484375</AltitudeMeters>
            <DistanceMeters>193490.14837263</DistanceMeters>
          </Trackpoint>
          <Trackpoint>
            <Time>2018-09-14T08:06:31.000Z</Time>
            <Position>
              <LatitudeDegrees>38.4733588434755802154541015625</LatitudeDegrees>
              <LongitudeDegrees>-8.15857247449457645416259765625</LongitudeDegrees>
            </Position>
            <AltitudeMeters>191</AltitudeMeters>
            <DistanceMeters>193531.94565447</DistanceMeters>
          </Trackpoint>
          <Trackpoint>
            <Time>2018-09-14T08:06:33.000Z</Time>
            <Position>
              <LatitudeDegrees>38.47320101223886013031005859375</LatitudeDegrees>
              <LongitudeDegrees>-8.15855587832629680633544921875</LongitudeDegrees>
            </Position>
            <AltitudeMeters>191</AltitudeMeters>
            <DistanceMeters>193549.57202137</DistanceMeters>
          </Trackpoint>
          <Trackpoint>
            <Time>2018-09-14T08:06:36.000Z</Time>
            <Position>
              <LatitudeDegrees>38.472958691418170928955078125</LatitudeDegrees>
              <LongitudeDegrees>-8.15852947533130645751953125</LongitudeDegrees>
            </Position>
            <AltitudeMeters>191</AltitudeMeters>
            <DistanceMeters>193576.6407942</DistanceMeters>
          </Trackpoint>
          <Trackpoint>
            <Time>2018-09-14T08:06:37.000Z</Time>
            <Position>
              <LatitudeDegrees>38.472876213490962982177734375</LatitudeDegrees>
              <LongitudeDegrees>-8.1585219316184520721435546875</LongitudeDegrees>
            </Position>
            <AltitudeMeters>191</AltitudeMeters>
            <DistanceMeters>193585.84416951</DistanceMeters>
          </Trackpoint>
          <Trackpoint>
            <Time>2018-09-14T08:06:41.000Z</Time>
            <Position>
              <LatitudeDegrees>38.47253926098346710205078125</LatitudeDegrees>
              <LongitudeDegrees>-8.1584907509386539459228515625</LongitudeDegrees>
            </Position>
            <AltitudeMeters>190.399993896484375</AltitudeMeters>
            <DistanceMeters>193623.44606148</DistanceMeters>
          </Trackpoint>
          <Trackpoint>
            <Time>2018-09-14T08:06:42.000Z</Time>
            <Position>
              <LatitudeDegrees>38.472452424466609954833984375</LatitudeDegrees>
              <LongitudeDegrees>-8.15848161466419696807861328125</LongitudeDegrees>
            </Position>
            <AltitudeMeters>190.1999969482421875</AltitudeMeters>
            <DistanceMeters>193633.1434434</DistanceMeters>
          </Trackpoint>
          <Trackpoint>
            <Time>2018-09-14T08:06:45.000Z</Time>
            <Position>
              <LatitudeDegrees>38.472192585468292236328125</LatitudeDegrees>
              <LongitudeDegrees>-8.15845529548823833465576171875</LongitudeDegrees>
            </Position>
            <AltitudeMeters>189.1999969482421875</AltitudeMeters>
            <DistanceMeters>193662.15477403</DistanceMeters>
          </Trackpoint>
          <Trackpoint>
            <Time>2018-09-14T08:06:47.000Z</Time>
            <Position>
              <LatitudeDegrees>38.47201715223491191864013671875</LatitudeDegrees>
              <LongitudeDegrees>-8.15843693912029266357421875</LongitudeDegrees>
            </Position>
            <AltitudeMeters>188.600006103515625</AltitudeMeters>
            <DistanceMeters>193681.74618539</DistanceMeters>
          </Trackpoint>
          <Trackpoint>
            <Time>2018-09-14T08:06:50.000Z</Time>
            <Position>
              <LatitudeDegrees>38.47175546921789646148681640625</LatitudeDegrees>
              <LongitudeDegrees>-8.15840969793498516082763671875</LongitudeDegrees>
            </Position>
            <AltitudeMeters>187.600006103515625</AltitudeMeters>
            <DistanceMeters>193710.96871556</DistanceMeters>
          </Trackpoint>
          <Trackpoint>
            <Time>2018-09-14T08:06:51.000Z</Time>
            <Position>
              <LatitudeDegrees>38.47166896797716617584228515625</LatitudeDegrees>
              <LongitudeDegrees>-8.15840047784149646759033203125</LongitudeDegrees>
            </Position>
            <AltitudeMeters>187.1999969482421875</AltitudeMeters>
            <DistanceMeters>193720.62971292</DistanceMeters>
          </Trackpoint>
          <Trackpoint>
            <Time>2018-09-14T08:06:55.000Z</Time>
            <Position>
              <LatitudeDegrees>38.47132598049938678741455078125</LatitudeDegrees>
              <LongitudeDegrees>-8.15836510621011257171630859375</LongitudeDegrees>
            </Position>
            <AltitudeMeters>185.1999969482421875</AltitudeMeters>
            <DistanceMeters>193758.92913351</DistanceMeters>
          </Trackpoint>
          <Trackpoint>
            <Time>2018-09-14T08:06:56.000Z</Time>
            <Position>
              <LatitudeDegrees>38.4712405689060688018798828125</LatitudeDegrees>
              <LongitudeDegrees>-8.15835538320243358612060546875</LongitudeDegrees>
            </Position>
            <AltitudeMeters>184.8000030517578125</AltitudeMeters>
            <DistanceMeters>193768.47352512</DistanceMeters>
          </Trackpoint>
          <Trackpoint>
            <Time>2018-09-14T08:07:03.000Z</Time>
            <Position>
              <LatitudeDegrees>38.47063011489808559417724609375</LatitudeDegrees>
              <LongitudeDegrees>-8.15829738043248653411865234375</LongitudeDegrees>
            </Position>
            <AltitudeMeters>182.600006103515625</AltitudeMeters>
            <DistanceMeters>193836.60602263</DistanceMeters>
          </Trackpoint>
          <Trackpoint>
            <Time>2018-09-14T08:07:08.000Z</Time>
            <Position>
              <LatitudeDegrees>38.4701836109161376953125</LatitudeDegrees>
              <LongitudeDegrees>-8.158256895840167999267578125</LongitudeDegrees>
            </Position>
            <AltitudeMeters>182</AltitudeMeters>
            <DistanceMeters>193886.42794083</DistanceMeters>
          </Trackpoint>
          <Trackpoint>
            <Time>2018-09-14T08:07:11.000Z</Time>
            <Position>
              <LatitudeDegrees>38.4699135459959506988525390625</LatitudeDegrees>
              <LongitudeDegrees>-8.15822764299809932708740234375</LongitudeDegrees>
            </Position>
            <AltitudeMeters>180.8000030517578125</AltitudeMeters>
            <DistanceMeters>193916.59454511</DistanceMeters>
          </Trackpoint>
          <Trackpoint>
            <Time>2018-09-14T08:07:14.000Z</Time>
            <Position>
              <LatitudeDegrees>38.46964247524738311767578125</LatitudeDegrees>
              <LongitudeDegrees>-8.158199898898601531982421875</LongitudeDegrees>
            </Position>
            <AltitudeMeters>179.600006103515625</AltitudeMeters>
            <DistanceMeters>193946.86170975</DistanceMeters>
          </Trackpoint>
          <Trackpoint>
            <Time>2018-09-14T08:07:18.000Z</Time>
            <Position>
              <LatitudeDegrees>38.469278030097484588623046875</LatitudeDegrees>
              <LongitudeDegrees>-8.15816402435302734375</LongitudeDegrees>
            </Position>
            <AltitudeMeters>177.600006103515625</AltitudeMeters>
            <DistanceMeters>193987.545575</DistanceMeters>
          </Trackpoint>
          <Trackpoint>
            <Time>2018-09-14T08:07:21.000Z</Time>
            <Position>
              <LatitudeDegrees>38.46900276839733123779296875</LatitudeDegrees>
              <LongitudeDegrees>-8.1581358611583709716796875</LongitudeDegrees>
            </Position>
            <AltitudeMeters>177</AltitudeMeters>
            <DistanceMeters>194018.2808049</DistanceMeters>
          </Trackpoint>
          <Trackpoint>
            <Time>2018-09-14T08:07:24.000Z</Time>
            <Position>
              <LatitudeDegrees>38.46872708760201930999755859375</LatitudeDegrees>
              <LongitudeDegrees>-8.1581078656017780303955078125</LongitudeDegrees>
            </Position>
            <AltitudeMeters>176.1999969482421875</AltitudeMeters>
            <DistanceMeters>194049.06154045</DistanceMeters>
          </Trackpoint>
          <Trackpoint>
            <Time>2018-09-14T08:07:29.000Z</Time>
            <Position>
              <LatitudeDegrees>38.4682750515639781951904296875</LatitudeDegrees>
              <LongitudeDegrees>-8.158063106238842010498046875</LongitudeDegrees>
            </Position>
            <AltitudeMeters>176</AltitudeMeters>
            <DistanceMeters>194099.52511006</DistanceMeters>
          </Trackpoint>
          <Trackpoint>
            <Time>2018-09-14T08:07:36.000Z</Time>
            <Position>
              <LatitudeDegrees>38.4676752425730228424072265625</LatitudeDegrees>
              <LongitudeDegrees>-8.15800485201179981231689453125</LongitudeDegrees>
            </Position>
            <AltitudeMeters>176</AltitudeMeters>
            <DistanceMeters>194166.47782022</DistanceMeters>
          </Trackpoint>
          <Trackpoint>
            <Time>2018-09-14T08:07:37.000Z</Time>
            <Position>
              <LatitudeDegrees>38.46759201027452945709228515625</LatitudeDegrees>
              <LongitudeDegrees>-8.15799579955637454986572265625</LongitudeDegrees>
            </Position>
            <AltitudeMeters>175.600006103515625</AltitudeMeters>
            <DistanceMeters>194175.77491072</DistanceMeters>
          </Trackpoint>
          <Trackpoint>
            <Time>2018-09-14T08:07:44.000Z</Time>
            <Position>
              <LatitudeDegrees>38.46702237613499164581298828125</LatitudeDegrees>
              <LongitudeDegrees>-8.157939724624156951904296875</LongitudeDegrees>
            </Position>
            <AltitudeMeters>173.8000030517578125</AltitudeMeters>
            <DistanceMeters>194239.36432848</DistanceMeters>
          </Trackpoint>
          <Trackpoint>
            <Time>2018-09-14T08:07:47.000Z</Time>
            <Position>
              <LatitudeDegrees>38.46678256988525390625</LatitudeDegrees>
              <LongitudeDegrees>-8.15791399218142032623291015625</LongitudeDegrees>
            </Position>
            <AltitudeMeters>173.600006103515625</AltitudeMeters>
            <DistanceMeters>194266.14922242</DistanceMeters>
          </Trackpoint>
          <Trackpoint>
            <Time>2018-09-14T08:07:49.000Z</Time>
            <Position>
              <LatitudeDegrees>38.4666258282959461212158203125</LatitudeDegrees>
              <LongitudeDegrees>-8.1578971445560455322265625</LongitudeDegrees>
            </Position>
            <AltitudeMeters>173.600006103515625</AltitudeMeters>
            <DistanceMeters>194283.65633111</DistanceMeters>
          </Trackpoint>
          <Trackpoint>
            <Time>2018-09-14T08:07:56.000Z</Time>
            <Position>
              <LatitudeDegrees>38.466079495847225189208984375</LatitudeDegrees>
              <LongitudeDegrees>-8.1578440032899379730224609375</LongitudeDegrees>
            </Position>
            <AltitudeMeters>174.399993896484375</AltitudeMeters>
            <DistanceMeters>194344.64031272</DistanceMeters>
          </Trackpoint>
          <Trackpoint>
            <Time>2018-09-14T08:08:01.000Z</Time>
            <Position>
              <LatitudeDegrees>38.465690575540065765380859375</LatitudeDegrees>
              <LongitudeDegrees>-8.15780670382082462310791015625</LongitudeDegrees>
            </Position>
            <AltitudeMeters>174.1999969482421875</AltitudeMeters>
            <DistanceMeters>194388.04973903</DistanceMeters>
          </Trackpoint>
          <Trackpoint>
            <Time>2018-09-14T08:08:07.000Z</Time>
            <Position>
              <LatitudeDegrees>38.4652317501604557037353515625</LatitudeDegrees>
              <LongitudeDegrees>-8.1577571667730808258056640625</LongitudeDegrees>
            </Position>
            <AltitudeMeters>173.8000030517578125</AltitudeMeters>
            <DistanceMeters>194439.30006972</DistanceMeters>
          </Trackpoint>
          <Trackpoint>
            <Time>2018-09-14T08:08:14.000Z</Time>
            <Position>
              <LatitudeDegrees>38.46470042131841182708740234375</LatitudeDegrees>
              <LongitudeDegrees>-8.1577015109360218048095703125</LongitudeDegrees>
            </Position>
            <AltitudeMeters>174.8000030517578125</AltitudeMeters>
            <DistanceMeters>194498.63654901</DistanceMeters>
          </Trackpoint>
          <Trackpoint>
            <Time>2018-09-14T08:08:22.000Z</Time>
            <Position>
              <LatitudeDegrees>38.46410463564097881317138671875</LatitudeDegrees>
              <LongitudeDegrees>-8.1576435081660747528076171875</LongitudeDegrees>
            </Position>
            <AltitudeMeters>175.600006103515625</AltitudeMeters>
            <DistanceMeters>194565.14099354</DistanceMeters>
          </Trackpoint>
          <Trackpoint>
            <Time>2018-09-14T08:08:30.000Z</Time>
            <Position>
              <LatitudeDegrees>38.46352091990411281585693359375</LatitudeDegrees>
              <LongitudeDegrees>-8.1575875170528888702392578125</LongitudeDegrees>
            </Position>
            <AltitudeMeters>175</AltitudeMeters>
            <DistanceMeters>194630.29273928</DistanceMeters>
          </Trackpoint>
          <Trackpoint>
            <Time>2018-09-14T08:08:38.000Z</Time>
            <Position>
              <LatitudeDegrees>38.46294499933719635009765625</LatitudeDegrees>
              <LongitudeDegrees>-8.15753169357776641845703125</LongitudeDegrees>
            </Position>
            <AltitudeMeters>175.600006103515625</AltitudeMeters>
            <DistanceMeters>194694.57822376</DistanceMeters>
          </Trackpoint>
          <Trackpoint>
            <Time>2018-09-14T08:08:46.000Z</Time>
            <Position>
              <LatitudeDegrees>38.4623782150447368621826171875</LatitudeDegrees>
              <LongitudeDegrees>-8.1574778817594051361083984375</LongitudeDegrees>
            </Position>
            <AltitudeMeters>176.399993896484375</AltitudeMeters>
            <DistanceMeters>194757.83661606</DistanceMeters>
          </Trackpoint>
          <Trackpoint>
            <Time>2018-09-14T08:08:54.000Z</Time>
            <Position>
              <LatitudeDegrees>38.46181738190352916717529296875</LatitudeDegrees>
              <LongitudeDegrees>-8.15742163918912410736083984375</LongitudeDegrees>
            </Position>
            <AltitudeMeters>177.1999969482421875</AltitudeMeters>
            <DistanceMeters>194820.45071255</DistanceMeters>
          </Trackpoint>
          <Trackpoint>
            <Time>2018-09-14T08:09:01.000Z</Time>
            <Position>
              <LatitudeDegrees>38.46133274026215076446533203125</LatitudeDegrees>
              <LongitudeDegrees>-8.1573746167123317718505859375</LongitudeDegrees>
            </Position>
            <AltitudeMeters>177.1999969482421875</AltitudeMeters>
            <DistanceMeters>194874.54787785</DistanceMeters>
          </Trackpoint>
          <Trackpoint>
            <Time>2018-09-14T08:09:09.000Z</Time>
            <Position>
              <LatitudeDegrees>38.4607809595763683319091796875</LatitudeDegrees>
              <LongitudeDegrees>-8.15731820650398731231689453125</LongitudeDegrees>
            </Position>
            <AltitudeMeters>177.399993896484375</AltitudeMeters>
            <DistanceMeters>194936.15861502</DistanceMeters>
          </Trackpoint>
          <Trackpoint>
            <Time>2018-09-14T08:09:15.000Z</Time>
            <Position>
              <LatitudeDegrees>38.46036748029291629791259765625</LatitudeDegrees>
              <LongitudeDegrees>-8.15728099085390567779541015625</LongitudeDegrees>
            </Position>
            <AltitudeMeters>177.399993896484375</AltitudeMeters>
            <DistanceMeters>194982.29386465</DistanceMeters>
          </Trackpoint>
          <Trackpoint>
            <Time>2018-09-14T08:09:23.000Z</Time>
            <Position>
              <LatitudeDegrees>38.45982869155704975128173828125</LatitudeDegrees>
              <LongitudeDegrees>-8.15722466446459293365478515625</LongitudeDegrees>
            </Position>
            <AltitudeMeters>177.8000030517578125</AltitudeMeters>
            <DistanceMeters>195042.46266111</DistanceMeters>
          </Trackpoint>
          <Trackpoint>
            <Time>2018-09-14T08:09:31.000Z</Time>
            <Position>
              <LatitudeDegrees>38.45928822644054889678955078125</LatitudeDegrees>
              <LongitudeDegrees>-8.15716900862753391265869140625</LongitudeDegrees>
            </Position>
            <AltitudeMeters>178</AltitudeMeters>
            <DistanceMeters>195102.81270521</DistanceMeters>
          </Trackpoint>
          <Trackpoint>
            <Time>2018-09-14T08:09:39.000Z</Time>
            <Position>
              <LatitudeDegrees>38.4587372839450836181640625</LatitudeDegrees>
              <LongitudeDegrees>-8.15711804665625095367431640625</LongitudeDegrees>
            </Position>
            <AltitudeMeters>179</AltitudeMeters>
            <DistanceMeters>195164.29432847</DistanceMeters>
          </Trackpoint>
          <Trackpoint>
            <Time>2018-09-14T08:09:40.000Z</Time>
            <Position>
              <LatitudeDegrees>38.4586677141487598419189453125</LatitudeDegrees>
              <LongitudeDegrees>-8.15711067058145999908447265625</LongitudeDegrees>
            </Position>
            <AltitudeMeters>179.1999969482421875</AltitudeMeters>
            <DistanceMeters>195172.06446947</DistanceMeters>
          </Trackpoint>
          <Trackpoint>
            <Time>2018-09-14T08:09:48.000Z</Time>
            <Position>
              <LatitudeDegrees>38.45811392180621623992919921875</LatitudeDegrees>
              <LongitudeDegrees>-8.15705954097211360931396484375</LongitudeDegrees>
            </Position>
            <AltitudeMeters>180.600006103515625</AltitudeMeters>
            <DistanceMeters>195233.86354997</DistanceMeters>
          </Trackpoint>
          <Trackpoint>
            <Time>2018-09-14T08:09:56.000Z</Time>
            <Position>
              <LatitudeDegrees>38.4575663320720195770263671875</LatitudeDegrees>
              <LongitudeDegrees>-8.15700002945959568023681640625</LongitudeDegrees>
            </Position>
            <AltitudeMeters>181.8000030517578125</AltitudeMeters>
            <DistanceMeters>195295.03167839</DistanceMeters>
          </Trackpoint>
          <Trackpoint>
            <Time>2018-09-14T08:10:04.000Z</Time>
            <Position>
              <LatitudeDegrees>38.4570265375077724456787109375</LatitudeDegrees>
              <LongitudeDegrees>-8.15694957040250301361083984375</LongitudeDegrees>
            </Position>
            <AltitudeMeters>182</AltitudeMeters>
            <DistanceMeters>195355.27261962</DistanceMeters>
          </Trackpoint>
          <Trackpoint>
            <Time>2018-09-14T08:10:12.000Z</Time>
            <Position>
              <LatitudeDegrees>38.45647928304970264434814453125</LatitudeDegrees>
              <LongitudeDegrees>-8.15689944662153720855712890625</LongitudeDegrees>
            </Position>
            <AltitudeMeters>181.600006103515625</AltitudeMeters>
            <DistanceMeters>195416.33961365</DistanceMeters>
          </Trackpoint>
          <Trackpoint>
            <Time>2018-09-14T08:10:20.000Z</Time>
            <Position>
              <LatitudeDegrees>38.4559040330350399017333984375</LatitudeDegrees>
              <LongitudeDegrees>-8.15683959983289241790771484375</LongitudeDegrees>
            </Position>
            <AltitudeMeters>180.600006103515625</AltitudeMeters>
            <DistanceMeters>195480.57816456</DistanceMeters>
          </Trackpoint>
          <Trackpoint>
            <Time>2018-09-14T08:10:26.000Z</Time>
            <Position>
              <LatitudeDegrees>38.45543883740901947021484375</LatitudeDegrees>
              <LongitudeDegrees>-8.156793415546417236328125</LongitudeDegrees>
            </Position>
            <AltitudeMeters>179</AltitudeMeters>
            <DistanceMeters>195532.51145939</DistanceMeters>
          </Trackpoint>
          <Trackpoint>
            <Time>2018-09-14T08:10:28.000Z</Time>
            <Position>
              <LatitudeDegrees>38.45528016798198223114013671875</LatitudeDegrees>
              <LongitudeDegrees>-8.15677740611135959625244140625</LongitudeDegrees>
            </Position>
            <AltitudeMeters>178.399993896484375</AltitudeMeters>
            <DistanceMeters>195550.2267431</DistanceMeters>
          </Trackpoint>
          <Trackpoint>
            <Time>2018-09-14T08:10:31.000Z</Time>
            <Position>
              <LatitudeDegrees>38.4550386853516101837158203125</LatitudeDegrees>
              <LongitudeDegrees>-8.156754858791828155517578125</LongitudeDegrees>
            </Position>
            <AltitudeMeters>177.600006103515625</AltitudeMeters>
            <DistanceMeters>195577.17582338</DistanceMeters>
          </Trackpoint>
          <Trackpoint>
            <Time>2018-09-14T08:10:34.000Z</Time>
            <Position>
              <LatitudeDegrees>38.45479519106447696685791015625</LatitudeDegrees>
              <LongitudeDegrees>-8.15672778524458408355712890625</LongitudeDegrees>
            </Position>
            <AltitudeMeters>176.8000030517578125</AltitudeMeters>
            <DistanceMeters>195604.3800316</DistanceMeters>
          </Trackpoint>
          <Trackpoint>
            <Time>2018-09-14T08:10:37.000Z</Time>
            <Position>
              <LatitudeDegrees>38.45455429516732692718505859375</LatitudeDegrees>
              <LongitudeDegrees>-8.1567067466676235198974609375</LongitudeDegrees>
            </Position>
            <AltitudeMeters>176</AltitudeMeters>
            <DistanceMeters>195631.25478936</DistanceMeters>
          </Trackpoint>
          <Trackpoint>
            <Time>2018-09-14T08:10:41.000Z</Time>
            <Position>
              <LatitudeDegrees>38.45423695631325244903564453125</LatitudeDegrees>
              <LongitudeDegrees>-8.15667564980685710906982421875</LongitudeDegrees>
            </Position>
            <AltitudeMeters>175.1999969482421875</AltitudeMeters>
            <DistanceMeters>195666.67911198</DistanceMeters>
          </Trackpoint>
          <Trackpoint>
            <Time>2018-09-14T08:10:48.000Z</Time>
            <Position>
              <LatitudeDegrees>38.45366656780242919921875</LatitudeDegrees>
              <LongitudeDegrees>-8.1566225923597812652587890625</LongitudeDegrees>
            </Position>
            <AltitudeMeters>173.600006103515625</AltitudeMeters>
            <DistanceMeters>195730.33261314</DistanceMeters>
          </Trackpoint>
          <Trackpoint>
            <Time>2018-09-14T08:10:51.000Z</Time>
            <Position>
              <LatitudeDegrees>38.4534166194498538970947265625</LatitudeDegrees>
              <LongitudeDegrees>-8.156597279012203216552734375</LongitudeDegrees>
            </Position>
            <AltitudeMeters>173.600006103515625</AltitudeMeters>
            <DistanceMeters>195758.23974436</DistanceMeters>
          </Trackpoint>
          <Trackpoint>
            <Time>2018-09-14T08:10:53.000Z</Time>
            <Position>
              <LatitudeDegrees>38.4532509930431842803955078125</LatitudeDegrees>
              <LongitudeDegrees>-8.1565801799297332763671875</LongitudeDegrees>
            </Position>
            <AltitudeMeters>174</AltitudeMeters>
            <DistanceMeters>195776.73458947</DistanceMeters>
          </Trackpoint>
          <Trackpoint>
            <Time>2018-09-14T08:10:57.000Z</Time>
            <Position>
              <LatitudeDegrees>38.45292116515338420867919921875</LatitudeDegrees>
              <LongitudeDegrees>-8.1565427966415882110595703125</LongitudeDegrees>
            </Position>
            <AltitudeMeters>174.600006103515625</AltitudeMeters>
            <DistanceMeters>195813.58939931</DistanceMeters>
          </Trackpoint>
          <Trackpoint>
            <Time>2018-09-14T08:11:00.000Z</Time>
            <Position>
              <LatitudeDegrees>38.45267524011433124542236328125</LatitudeDegrees>
              <LongitudeDegrees>-8.15651723183691501617431640625</LongitudeDegrees>
            </Position>
            <AltitudeMeters>174</AltitudeMeters>
            <DistanceMeters>195841.05195536</DistanceMeters>
          </Trackpoint>
          <Trackpoint>
            <Time>2018-09-14T08:11:07.000Z</Time>
            <Position>
              <LatitudeDegrees>38.45210753381252288818359375</LatitudeDegrees>
              <LongitudeDegrees>-8.15646258182823657989501953125</LongitudeDegrees>
            </Position>
            <AltitudeMeters>173.399993896484375</AltitudeMeters>
            <DistanceMeters>195904.4181028</DistanceMeters>
          </Trackpoint>
          <Trackpoint>
            <Time>2018-09-14T08:11:14.000Z</Time>
            <Position>
              <LatitudeDegrees>38.45154887996613979339599609375</LatitudeDegrees>
              <LongitudeDegrees>-8.156412206590175628662109375</LongitudeDegrees>
            </Position>
            <AltitudeMeters>173</AltitudeMeters>
            <DistanceMeters>195966.75229561</DistanceMeters>
          </Trackpoint>
          <Trackpoint>
            <Time>2018-09-14T08:11:17.000Z</Time>
            <Position>
              <LatitudeDegrees>38.4513124264776706695556640625</LatitudeDegrees>
              <LongitudeDegrees>-8.15638982690870761871337890625</LongitudeDegrees>
            </Position>
            <AltitudeMeters>172.600006103515625</AltitudeMeters>
            <DistanceMeters>195993.14202004</DistanceMeters>
          </Trackpoint>
          <Trackpoint>
            <Time>2018-09-14T08:11:22.000Z</Time>
            <Position>
              <LatitudeDegrees>38.45091822557151317596435546875</LatitudeDegrees>
              <LongitudeDegrees>-8.1563510186970233917236328125</LongitudeDegrees>
            </Position>
            <AltitudeMeters>171.1999969482421875</AltitudeMeters>
            <DistanceMeters>196037.14749508</DistanceMeters>
          </Trackpoint>
          <Trackpoint>
            <Time>2018-09-14T08:11:25.000Z</Time>
            <Position>
              <LatitudeDegrees>38.45068101771175861358642578125</LatitudeDegrees>
              <LongitudeDegrees>-8.1563268788158893585205078125</LongitudeDegrees>
            </Position>
            <AltitudeMeters>170.399993896484375</AltitudeMeters>
            <DistanceMeters>196063.63285704</DistanceMeters>
          </Trackpoint>
          <Trackpoint>
            <Time>2018-09-14T08:11:32.000Z</Time>
            <Position>
              <LatitudeDegrees>38.4501084499061107635498046875</LatitudeDegrees>
              <LongitudeDegrees>-8.15627097152173519134521484375</LongitudeDegrees>
            </Position>
            <AltitudeMeters>169</AltitudeMeters>
            <DistanceMeters>196127.54692373</DistanceMeters>
          </Trackpoint>
          <Trackpoint>
            <Time>2018-09-14T08:11:34.000Z</Time>
            <Position>
              <LatitudeDegrees>38.44994089566171169281005859375</LatitudeDegrees>
              <LongitudeDegrees>-8.15625370480120182037353515625</LongitudeDegrees>
            </Position>
            <AltitudeMeters>168.399993896484375</AltitudeMeters>
            <DistanceMeters>196146.25681266</DistanceMeters>
          </Trackpoint>
          <Trackpoint>
            <Time>2018-09-14T08:11:38.000Z</Time>
            <Position>
              <LatitudeDegrees>38.44960226677358150482177734375</LatitudeDegrees>
              <LongitudeDegrees>-8.15622017718851566314697265625</LongitudeDegrees>
            </Position>
            <AltitudeMeters>167</AltitudeMeters>
            <DistanceMeters>196184.06013087</DistanceMeters>
          </Trackpoint>
          <Trackpoint>
            <Time>2018-09-14T08:11:43.000Z</Time>
            <Position>
              <LatitudeDegrees>38.44918417744338512420654296875</LatitudeDegrees>
              <LongitudeDegrees>-8.15618245862424373626708984375</LongitudeDegrees>
            </Position>
            <AltitudeMeters>165.600006103515625</AltitudeMeters>
            <DistanceMeters>196230.71040871</DistanceMeters>
          </Trackpoint>
          <Trackpoint>
            <Time>2018-09-14T08:11:45.000Z</Time>
            <Position>
              <LatitudeDegrees>38.4490188024938106536865234375</LatitudeDegrees>
              <LongitudeDegrees>-8.15616385079920291900634765625</LongitudeDegrees>
            </Position>
            <AltitudeMeters>165.600006103515625</AltitudeMeters>
            <DistanceMeters>196249.18815723</DistanceMeters>
          </Trackpoint>
          <Trackpoint>
            <Time>2018-09-14T08:11:51.000Z</Time>
            <Position>
              <LatitudeDegrees>38.4485314786434173583984375</LatitudeDegrees>
              <LongitudeDegrees>-8.1561196781694889068603515625</LongitudeDegrees>
            </Position>
            <AltitudeMeters>166.399993896484375</AltitudeMeters>
            <DistanceMeters>196303.56469841</DistanceMeters>
          </Trackpoint>
          <Trackpoint>
            <Time>2018-09-14T08:11:58.000Z</Time>
            <Position>
              <LatitudeDegrees>38.4479871578514575958251953125</LatitudeDegrees>
              <LongitudeDegrees>-8.15610232762992382049560546875</LongitudeDegrees>
            </Position>
            <AltitudeMeters>166.8000030517578125</AltitudeMeters>
            <DistanceMeters>196364.16753384</DistanceMeters>
          </Trackpoint>
          <Trackpoint>
            <Time>2018-09-14T08:12:02.000Z</Time>
            <Position>
              <LatitudeDegrees>38.44766889698803424835205078125</LatitudeDegrees>
              <LongitudeDegrees>-8.15612579695880413055419921875</LongitudeDegrees>
            </Position>
            <AltitudeMeters>167.1999969482421875</AltitudeMeters>
            <DistanceMeters>196399.64967424</DistanceMeters>
          </Trackpoint>
          <Trackpoint>
            <Time>2018-09-14T08:12:06.000Z</Time>
            <Position>
              <LatitudeDegrees>38.44736513681709766387939453125</LatitudeDegrees>
              <LongitudeDegrees>-8.15618061460554599761962890625</LongitudeDegrees>
            </Position>
            <AltitudeMeters>166.8000030517578125</AltitudeMeters>
            <DistanceMeters>196433.79482368</DistanceMeters>
          </Trackpoint>
          <Trackpoint>
            <Time>2018-09-14T08:12:14.000Z</Time>
            <Position>
              <LatitudeDegrees>38.44678075052797794342041015625</LatitudeDegrees>
              <LongitudeDegrees>-8.1563342548906803131103515625</LongitudeDegrees>
            </Position>
            <AltitudeMeters>167.399993896484375</AltitudeMeters>
            <DistanceMeters>196500.20279333</DistanceMeters>
          </Trackpoint>
          <Trackpoint>
            <Time>2018-09-14T08:12:22.000Z</Time>
            <Position>
              <LatitudeDegrees>38.44620726071298122406005859375</LatitudeDegrees>
              <LongitudeDegrees>-8.1564975343644618988037109375</LongitudeDegrees>
            </Position>
            <AltitudeMeters>167</AltitudeMeters>
            <DistanceMeters>196565.60099006</DistanceMeters>
          </Trackpoint>
          <Trackpoint>
            <Time>2018-09-14T08:12:28.000Z</Time>
            <Position>
              <LatitudeDegrees>38.44577425159513950347900390625</LatitudeDegrees>
              <LongitudeDegrees>-8.15661932341754436492919921875</LongitudeDegrees>
            </Position>
            <AltitudeMeters>165.8000030517578125</AltitudeMeters>
            <DistanceMeters>196614.95115427</DistanceMeters>
          </Trackpoint>
          <Trackpoint>
            <Time>2018-09-14T08:12:35.000Z</Time>
            <Position>
              <LatitudeDegrees>38.4452395699918270111083984375</LatitudeDegrees>
              <LongitudeDegrees>-8.1567674316465854644775390625</LongitudeDegrees>
            </Position>
            <AltitudeMeters>164.1999969482421875</AltitudeMeters>
            <DistanceMeters>196675.84674633</DistanceMeters>
          </Trackpoint>
          <Trackpoint>
            <Time>2018-09-14T08:12:39.000Z</Time>
            <Position>
              <LatitudeDegrees>38.44491996802389621734619140625</LatitudeDegrees>
              <LongitudeDegrees>-8.15686114132404327392578125</LongitudeDegrees>
            </Position>
            <AltitudeMeters>163.1999969482421875</AltitudeMeters>
            <DistanceMeters>196712.34492268</DistanceMeters>
          </Trackpoint>
          <Trackpoint>
            <Time>2018-09-14T08:12:42.000Z</Time>
            <Position>
              <LatitudeDegrees>38.44467437826097011566162109375</LatitudeDegrees>
              <LongitudeDegrees>-8.15692727454006671905517578125</LongitudeDegrees>
            </Position>
            <AltitudeMeters>162.8000030517578125</AltitudeMeters>
            <DistanceMeters>196740.28083732</DistanceMeters>
          </Trackpoint>
          <Trackpoint>
            <Time>2018-09-14T08:12:47.000Z</Time>
            <Position>
              <LatitudeDegrees>38.44425394199788570404052734375</LatitudeDegrees>
              <LongitudeDegrees>-8.157050907611846923828125</LongitudeDegrees>
            </Position>
            <AltitudeMeters>161.1999969482421875</AltitudeMeters>
            <DistanceMeters>196788.30130661</DistanceMeters>
          </Trackpoint>
          <Trackpoint>
            <Time>2018-09-14T08:12:49.000Z</Time>
            <Position>
              <LatitudeDegrees>38.44408144243061542510986328125</LatitudeDegrees>
              <LongitudeDegrees>-8.15710212104022502899169921875</LongitudeDegrees>
            </Position>
            <AltitudeMeters>159.8000030517578125</AltitudeMeters>
            <DistanceMeters>196808.0133382</DistanceMeters>
          </Trackpoint>
          <Trackpoint>
            <Time>2018-09-14T08:12:51.000Z</Time>
            <Position>
              <LatitudeDegrees>38.44390324316918849945068359375</LatitudeDegrees>
              <LongitudeDegrees>-8.157150484621524810791015625</LongitudeDegrees>
            </Position>
            <AltitudeMeters>158.1999969482421875</AltitudeMeters>
            <DistanceMeters>196828.29035575</DistanceMeters>
          </Trackpoint>
          <Trackpoint>
            <Time>2018-09-14T08:12:55.000Z</Time>
            <Position>
              <LatitudeDegrees>38.44353812746703624725341796875</LatitudeDegrees>
              <LongitudeDegrees>-8.15725651569664478302001953125</LongitudeDegrees>
            </Position>
            <AltitudeMeters>154.600006103515625</AltitudeMeters>
            <DistanceMeters>196869.96626034</DistanceMeters>
          </Trackpoint>
          <Trackpoint>
            <Time>2018-09-14T08:12:59.000Z</Time>
            <Position>
              <LatitudeDegrees>38.44316504895687103271484375</LatitudeDegrees>
              <LongitudeDegrees>-8.1573635526001453399658203125</LongitudeDegrees>
            </Position>
            <AltitudeMeters>152</AltitudeMeters>
            <DistanceMeters>196912.52603012</DistanceMeters>
          </Trackpoint>
          <Trackpoint>
            <Time>2018-09-14T08:13:01.000Z</Time>
            <Position>
              <LatitudeDegrees>38.44297687523066997528076171875</LatitudeDegrees>
              <LongitudeDegrees>-8.15740822814404964447021484375</LongitudeDegrees>
            </Position>
            <AltitudeMeters>150.8000030517578125</AltitudeMeters>
            <DistanceMeters>196933.82940032</DistanceMeters>
          </Trackpoint>
          <Trackpoint>
            <Time>2018-09-14T08:13:03.000Z</Time>
            <Position>
              <LatitudeDegrees>38.44278685748577117919921875</LatitudeDegrees>
              <LongitudeDegrees>-8.15743437968194484710693359375</LongitudeDegrees>
            </Position>
            <AltitudeMeters>149.600006103515625</AltitudeMeters>
            <DistanceMeters>196955.10095575</DistanceMeters>
          </Trackpoint>
          <Trackpoint>
            <Time>2018-09-14T08:13:06.000Z</Time>
            <Position>
              <LatitudeDegrees>38.44250313006341457366943359375</LatitudeDegrees>
              <LongitudeDegrees>-8.15744318068027496337890625</LongitudeDegrees>
            </Position>
            <AltitudeMeters>149</AltitudeMeters>
            <DistanceMeters>196986.68958515</DistanceMeters>
          </Trackpoint>
          <Trackpoint>
            <Time>2018-09-14T08:13:09.000Z</Time>
            <Position>
              <LatitudeDegrees>38.442228622734546661376953125</LatitudeDegrees>
              <LongitudeDegrees>-8.15742834471166133880615234375</LongitudeDegrees>
            </Position>
            <AltitudeMeters>149.600006103515625</AltitudeMeters>
            <DistanceMeters>197017.27003228</DistanceMeters>
          </Trackpoint>
          <Trackpoint>
            <Time>2018-09-14T08:13:12.000Z</Time>
            <Position>
              <LatitudeDegrees>38.44196735881268978118896484375</LatitudeDegrees>
              <LongitudeDegrees>-8.15741074271500110626220703125</LongitudeDegrees>
            </Position>
            <AltitudeMeters>150</AltitudeMeters>
            <DistanceMeters>197046.38979015</DistanceMeters>
          </Trackpoint>
          <Trackpoint>
            <Time>2018-09-14T08:13:15.000Z</Time>
            <Position>
              <LatitudeDegrees>38.441717661917209625244140625</LatitudeDegrees>
              <LongitudeDegrees>-8.1573902070522308349609375</LongitudeDegrees>
            </Position>
            <AltitudeMeters>149.8000030517578125</AltitudeMeters>
            <DistanceMeters>197074.23926529</DistanceMeters>
          </Trackpoint>
          <Trackpoint>
            <Time>2018-09-14T08:13:18.000Z</Time>
            <Position>
              <LatitudeDegrees>38.4414734132587909698486328125</LatitudeDegrees>
              <LongitudeDegrees>-8.15739733166992664337158203125</LongitudeDegrees>
            </Position>
            <AltitudeMeters>150.8000030517578125</AltitudeMeters>
            <DistanceMeters>197101.43185325</DistanceMeters>
          </Trackpoint>
          <Trackpoint>
            <Time>2018-09-14T08:13:22.000Z</Time>
            <Position>
              <LatitudeDegrees>38.44117820262908935546875</LatitudeDegrees>
              <LongitudeDegrees>-8.157475702464580535888671875</LongitudeDegrees>
            </Position>
            <AltitudeMeters>152</AltitudeMeters>
            <DistanceMeters>197134.99229685</DistanceMeters>
          </Trackpoint>
          <Trackpoint>
            <Time>2018-09-14T08:13:27.000Z</Time>
            <Position>
              <LatitudeDegrees>38.44088106416165828704833984375</LatitudeDegrees>
              <LongitudeDegrees>-8.15773897804319858551025390625</LongitudeDegrees>
            </Position>
            <AltitudeMeters>152.399993896484375</AltitudeMeters>
            <DistanceMeters>197175.24830943</DistanceMeters>
          </Trackpoint>
          <Trackpoint>
            <Time>2018-09-14T08:13:33.000Z</Time>
            <Position>
              <LatitudeDegrees>38.4405715204775333404541015625</LatitudeDegrees>
              <LongitudeDegrees>-8.15813141874969005584716796875</LongitudeDegrees>
            </Position>
            <AltitudeMeters>151.1999969482421875</AltitudeMeters>
            <DistanceMeters>197223.80193923</DistanceMeters>
          </Trackpoint>
          <Trackpoint>
            <Time>2018-09-14T08:13:39.000Z</Time>
            <Position>
              <LatitudeDegrees>38.44025057740509510040283203125</LatitudeDegrees>
              <LongitudeDegrees>-8.15854649059474468231201171875</LongitudeDegrees>
            </Position>
            <AltitudeMeters>149.8000030517578125</AltitudeMeters>
            <DistanceMeters>197274.64860212</DistanceMeters>
          </Trackpoint>
          <Trackpoint>
            <Time>2018-09-14T08:13:43.000Z</Time>
            <Position>
              <LatitudeDegrees>38.44000163488090038299560546875</LatitudeDegrees>
              <LongitudeDegrees>-8.158828876912593841552734375</LongitudeDegrees>
            </Position>
            <AltitudeMeters>148</AltitudeMeters>
            <DistanceMeters>197311.71291905</DistanceMeters>
          </Trackpoint>
          <Trackpoint>
            <Time>2018-09-14T08:13:44.000Z</Time>
            <Position>
              <LatitudeDegrees>38.4399247728288173675537109375</LatitudeDegrees>
              <LongitudeDegrees>-8.15888579003512859344482421875</LongitudeDegrees>
            </Position>
            <AltitudeMeters>147</AltitudeMeters>
            <DistanceMeters>197321.6020913</DistanceMeters>
          </Trackpoint>
          <Trackpoint>
            <Time>2018-09-14T08:13:49.000Z</Time>
            <Position>
              <LatitudeDegrees>38.43948011286556720733642578125</LatitudeDegrees>
              <LongitudeDegrees>-8.15900824964046478271484375</LongitudeDegrees>
            </Position>
            <AltitudeMeters>140.600006103515625</AltitudeMeters>
            <DistanceMeters>197372.23207146</DistanceMeters>
          </Trackpoint>
          <Trackpoint>
            <Time>2018-09-14T08:13:52.000Z</Time>
            <Position>
              <LatitudeDegrees>38.43917786143720149993896484375</LatitudeDegrees>
              <LongitudeDegrees>-8.15894429571926593780517578125</LongitudeDegrees>
            </Position>
            <AltitudeMeters>139.8000030517578125</AltitudeMeters>
            <DistanceMeters>197406.33196799</DistanceMeters>
          </Trackpoint>
          <Trackpoint>
            <Time>2018-09-14T08:13:53.000Z</Time>
            <Position>
              <LatitudeDegrees>38.439081050455570220947265625</LatitudeDegrees>
              <LongitudeDegrees>-8.1589121930301189422607421875</LongitudeDegrees>
            </Position>
            <AltitudeMeters>140.399993896484375</AltitudeMeters>
            <DistanceMeters>197417.46470347</DistanceMeters>
          </Trackpoint>
          <Trackpoint>
            <Time>2018-09-14T08:13:55.000Z</Time>
            <Position>
              <LatitudeDegrees>38.43889807350933551788330078125</LatitudeDegrees>
              <LongitudeDegrees>-8.158848993480205535888671875</LongitudeDegrees>
            </Position>
            <AltitudeMeters>141.600006103515625</AltitudeMeters>
            <DistanceMeters>197438.56277419</DistanceMeters>
          </Trackpoint>
          <Trackpoint>
            <Time>2018-09-14T08:13:56.000Z</Time>
            <Position>
              <LatitudeDegrees>38.43881316483020782470703125</LatitudeDegrees>
              <LongitudeDegrees>-8.15881823189556598663330078125</LongitudeDegrees>
            </Position>
            <AltitudeMeters>143</AltitudeMeters>
            <DistanceMeters>197448.38598125</DistanceMeters>
          </Trackpoint>
          <Trackpoint>
            <Time>2018-09-14T08:13:57.000Z</Time>
            <Position>
              <LatitudeDegrees>38.43873211182653903961181640625</LatitudeDegrees>
              <LongitudeDegrees>-8.15879040397703647613525390625</LongitudeDegrees>
            </Position>
            <AltitudeMeters>144.1999969482421875</AltitudeMeters>
            <DistanceMeters>197457.72764377</DistanceMeters>
          </Trackpoint>
          <Trackpoint>
            <Time>2018-09-14T08:14:00.000Z</Time>
            <Position>
              <LatitudeDegrees>38.43851870857179164886474609375</LatitudeDegrees>
              <LongitudeDegrees>-8.1587194092571735382080078125</LongitudeDegrees>
            </Position>
            <AltitudeMeters>147.600006103515625</AltitudeMeters>
            <DistanceMeters>197482.27288038</DistanceMeters>
          </Trackpoint>
          <Trackpoint>
            <Time>2018-09-14T08:14:03.000Z</Time>
            <Position>
              <LatitudeDegrees>38.43834537081420421600341796875</LatitudeDegrees>
              <LongitudeDegrees>-8.158657550811767578125</LongitudeDegrees>
            </Position>
            <AltitudeMeters>147.1999969482421875</AltitudeMeters>
            <DistanceMeters>197502.30526909</DistanceMeters>
          </Trackpoint>
          <Trackpoint>
            <Time>2018-09-14T08:14:05.000Z</Time>
            <Position>
              <LatitudeDegrees>38.438246548175811767578125</LatitudeDegrees>
              <LongitudeDegrees>-8.15862343646585941314697265625</LongitudeDegrees>
            </Position>
            <AltitudeMeters>146.8000030517578125</AltitudeMeters>
            <DistanceMeters>197513.6997607</DistanceMeters>
          </Trackpoint>
          <Trackpoint>
            <Time>2018-09-14T08:14:08.000Z</Time>
            <Position>
              <LatitudeDegrees>38.4381162934005260467529296875</LatitudeDegrees>
              <LongitudeDegrees>-8.1585658527910709381103515625</LongitudeDegrees>
            </Position>
            <AltitudeMeters>146.8000030517578125</AltitudeMeters>
            <DistanceMeters>197529.04179357</DistanceMeters>
          </Trackpoint>
          <Trackpoint>
            <Time>2018-09-14T08:14:10.000Z</Time>
            <Position>
              <LatitudeDegrees>38.43803607858717441558837890625</LatitudeDegrees>
              <LongitudeDegrees>-8.15852411091327667236328125</LongitudeDegrees>
            </Position>
            <AltitudeMeters>147</AltitudeMeters>
            <DistanceMeters>197538.68220574</DistanceMeters>
          </Trackpoint>
          <Trackpoint>
            <Time>2018-09-14T08:14:12.000Z</Time>
            <Position>
              <LatitudeDegrees>38.4379580430686473846435546875</LatitudeDegrees>
              <LongitudeDegrees>-8.158477842807769775390625</LongitudeDegrees>
            </Position>
            <AltitudeMeters>147</AltitudeMeters>
            <DistanceMeters>197548.25871117</DistanceMeters>
          </Trackpoint>
          <Trackpoint>
            <Time>2018-09-14T08:14:15.000Z</Time>
            <Position>
              <LatitudeDegrees>38.43785226345062255859375</LatitudeDegrees>
              <LongitudeDegrees>-8.1584040820598602294921875</LongitudeDegrees>
            </Position>
            <AltitudeMeters>147.1999969482421875</AltitudeMeters>
            <DistanceMeters>197561.67397947</DistanceMeters>
          </Trackpoint>
          <Trackpoint>
            <Time>2018-09-14T08:14:19.000Z</Time>
            <Position>
              <LatitudeDegrees>38.43773483298718929290771484375</LatitudeDegrees>
              <LongitudeDegrees>-8.15827391110360622406005859375</LongitudeDegrees>
            </Position>
            <AltitudeMeters>147.600006103515625</AltitudeMeters>
            <DistanceMeters>197578.98345481</DistanceMeters>
          </Trackpoint>
          <Trackpoint>
            <Time>2018-09-14T08:14:23.000Z</Time>
            <Position>
              <LatitudeDegrees>38.437636680901050567626953125</LatitudeDegrees>
              <LongitudeDegrees>-8.1581206060945987701416015625</LongitudeDegrees>
            </Position>
            <AltitudeMeters>148</AltitudeMeters>
            <DistanceMeters>197596.24539162</DistanceMeters>
          </Trackpoint>
          <Trackpoint>
            <Time>2018-09-14T08:14:28.000Z</Time>
            <Position>
              <LatitudeDegrees>38.437536768615245819091796875</LatitudeDegrees>
              <LongitudeDegrees>-8.15791315399110317230224609375</LongitudeDegrees>
            </Position>
            <AltitudeMeters>148.1999969482421875</AltitudeMeters>
            <DistanceMeters>197617.47679256</DistanceMeters>
          </Trackpoint>
          <Trackpoint>
            <Time>2018-09-14T08:14:30.000Z</Time>
            <Position>
              <LatitudeDegrees>38.4375003911554813385009765625</LatitudeDegrees>
              <LongitudeDegrees>-8.157830424606800079345703125</LongitudeDegrees>
            </Position>
            <AltitudeMeters>148.399993896484375</AltitudeMeters>
            <DistanceMeters>197625.7484846</DistanceMeters>
          </Trackpoint>
          <Trackpoint>
            <Time>2018-09-14T08:14:34.000Z</Time>
            <Position>
              <LatitudeDegrees>38.43742847442626953125</LatitudeDegrees>
              <LongitudeDegrees>-8.15766940824687480926513671875</LongitudeDegrees>
            </Position>
            <AltitudeMeters>149</AltitudeMeters>
            <DistanceMeters>197641.90777668</DistanceMeters>
          </Trackpoint>
          <Trackpoint>
            <Time>2018-09-14T08:14:36.000Z</Time>
            <Position>
              <LatitudeDegrees>38.43739234842360019683837890625</LatitudeDegrees>
              <LongitudeDegrees>-8.15759128890931606292724609375</LongitudeDegrees>
            </Position>
            <AltitudeMeters>149.1999969482421875</AltitudeMeters>
            <DistanceMeters>197649.81671716</DistanceMeters>
          </Trackpoint>
          <Trackpoint>
            <Time>2018-09-14T08:14:42.000Z</Time>
            <Position>
              <LatitudeDegrees>38.437285982072353363037109375</LatitudeDegrees>
              <LongitudeDegrees>-8.15735810436308383941650390625</LongitudeDegrees>
            </Position>
            <AltitudeMeters>149.600006103515625</AltitudeMeters>
            <DistanceMeters>197673.34230717</DistanceMeters>
          </Trackpoint>
          <Trackpoint>
            <Time>2018-09-14T08:14:50.000Z</Time>
            <Position>
              <LatitudeDegrees>38.43714558519423007965087890625</LatitudeDegrees>
              <LongitudeDegrees>-8.15704344771802425384521484375</LongitudeDegrees>
            </Position>
            <AltitudeMeters>151.600006103515625</AltitudeMeters>
            <DistanceMeters>197704.91320798</DistanceMeters>
          </Trackpoint>
          <Trackpoint>
            <Time>2018-09-14T08:14:55.000Z</Time>
            <Position>
              <LatitudeDegrees>38.4370588324964046478271484375</LatitudeDegrees>
              <LongitudeDegrees>-8.15685845911502838134765625</LongitudeDegrees>
            </Position>
            <AltitudeMeters>153.8000030517578125</AltitudeMeters>
            <DistanceMeters>197723.71025113</DistanceMeters>
          </Trackpoint>
          <Trackpoint>
            <Time>2018-09-14T08:15:03.000Z</Time>
            <Position>
              <LatitudeDegrees>38.436926566064357757568359375</LatitudeDegrees>
              <LongitudeDegrees>-8.15657188184559345245361328125</LongitudeDegrees>
            </Position>
            <AltitudeMeters>156.1999969482421875</AltitudeMeters>
            <DistanceMeters>197752.70897297</DistanceMeters>
          </Trackpoint>
          <Trackpoint>
            <Time>2018-09-14T08:15:08.000Z</Time>
            <Position>
              <LatitudeDegrees>38.43685003928840160369873046875</LatitudeDegrees>
              <LongitudeDegrees>-8.15639351494610309600830078125</LongitudeDegrees>
            </Position>
            <AltitudeMeters>157.399993896484375</AltitudeMeters>
            <DistanceMeters>197770.43954209</DistanceMeters>
          </Trackpoint>
          <Trackpoint>
            <Time>2018-09-14T08:15:14.000Z</Time>
            <Position>
              <LatitudeDegrees>38.43675029464066028594970703125</LatitudeDegrees>
              <LongitudeDegrees>-8.1561884097754955291748046875</LongitudeDegrees>
            </Position>
            <AltitudeMeters>158.600006103515625</AltitudeMeters>
            <DistanceMeters>197791.48726217</DistanceMeters>
          </Trackpoint>
          <Trackpoint>
            <Time>2018-09-14T08:15:19.000Z</Time>
            <Position>
              <LatitudeDegrees>38.43667142093181610107421875</LatitudeDegrees>
              <LongitudeDegrees>-8.15601213835179805755615234375</LongitudeDegrees>
            </Position>
            <AltitudeMeters>159.600006103515625</AltitudeMeters>
            <DistanceMeters>197809.18571667</DistanceMeters>
          </Trackpoint>
          <Trackpoint>
            <Time>2018-09-14T08:15:25.000Z</Time>
            <Position>
              <LatitudeDegrees>38.4365703351795673370361328125</LatitudeDegrees>
              <LongitudeDegrees>-8.1558105535805225372314453125</LongitudeDegrees>
            </Position>
            <AltitudeMeters>160.1999969482421875</AltitudeMeters>
            <DistanceMeters>197830.05311579</DistanceMeters>
          </Trackpoint>
          <Trackpoint>
            <Time>2018-09-14T08:15:30.000Z</Time>
            <Position>
              <LatitudeDegrees>38.43649229966104030609130859375</LatitudeDegrees>
              <LongitudeDegrees>-8.15563193522393703460693359375</LongitudeDegrees>
            </Position>
            <AltitudeMeters>160.600006103515625</AltitudeMeters>
            <DistanceMeters>197847.88398682</DistanceMeters>
          </Trackpoint>
          <Trackpoint>
            <Time>2018-09-14T08:15:36.000Z</Time>
            <Position>
              <LatitudeDegrees>38.43639138154685497283935546875</LatitudeDegrees>
              <LongitudeDegrees>-8.15541677176952362060546875</LongitudeDegrees>
            </Position>
            <AltitudeMeters>161.1999969482421875</AltitudeMeters>
            <DistanceMeters>197869.74839275</DistanceMeters>
          </Trackpoint>
          <Trackpoint>
            <Time>2018-09-14T08:15:43.000Z</Time>
            <Position>
              <LatitudeDegrees>38.4362759627401828765869140625</LatitudeDegrees>
              <LongitudeDegrees>-8.15516908653080463409423828125</LongitudeDegrees>
            </Position>
            <AltitudeMeters>162.600006103515625</AltitudeMeters>
            <DistanceMeters>197894.87482892</DistanceMeters>
          </Trackpoint>
          <Trackpoint>
            <Time>2018-09-14T08:15:49.000Z</Time>
            <Position>
              <LatitudeDegrees>38.4361787326633930206298828125</LatitudeDegrees>
              <LongitudeDegrees>-8.15495601855218410491943359375</LongitudeDegrees>
            </Position>
            <AltitudeMeters>163.399993896484375</AltitudeMeters>
            <DistanceMeters>197916.37313985</DistanceMeters>
          </Trackpoint>
          <Trackpoint>
            <Time>2018-09-14T08:15:53.000Z</Time>
            <Position>
              <LatitudeDegrees>38.43610824085772037506103515625</LatitudeDegrees>
              <LongitudeDegrees>-8.15481671132147312164306640625</LongitudeDegrees>
            </Position>
            <AltitudeMeters>164.8000030517578125</AltitudeMeters>
            <DistanceMeters>197930.83219686</DistanceMeters>
          </Trackpoint>
          <Trackpoint>
            <Time>2018-09-14T08:16:01.000Z</Time>
            <Position>
              <LatitudeDegrees>38.43597949482500553131103515625</LatitudeDegrees>
              <LongitudeDegrees>-8.154528625309467315673828125</LongitudeDegrees>
            </Position>
            <AltitudeMeters>168.1999969482421875</AltitudeMeters>
            <DistanceMeters>197959.7485934</DistanceMeters>
          </Trackpoint>
          <Trackpoint>
            <Time>2018-09-14T08:16:08.000Z</Time>
            <Position>
              <LatitudeDegrees>38.43586248345673084259033203125</LatitudeDegrees>
              <LongitudeDegrees>-8.15428613685071468353271484375</LongitudeDegrees>
            </Position>
            <AltitudeMeters>169.8000030517578125</AltitudeMeters>
            <DistanceMeters>197984.57876656</DistanceMeters>
          </Trackpoint>
          <Trackpoint>
            <Time>2018-09-14T08:16:13.000Z</Time>
            <Position>
              <LatitudeDegrees>38.43578034080564975738525390625</LatitudeDegrees>
              <LongitudeDegrees>-8.15411397255957126617431640625</LongitudeDegrees>
            </Position>
            <AltitudeMeters>170.600006103515625</AltitudeMeters>
            <DistanceMeters>198002.15382829</DistanceMeters>
          </Trackpoint>
          <Trackpoint>
            <Time>2018-09-14T08:16:18.000Z</Time>
            <Position>
              <LatitudeDegrees>38.4357016347348690032958984375</LatitudeDegrees>
              <LongitudeDegrees>-8.1539330072700977325439453125</LongitudeDegrees>
            </Position>
            <AltitudeMeters>171.399993896484375</AltitudeMeters>
            <DistanceMeters>198020.19989925</DistanceMeters>
          </Trackpoint>
          <Trackpoint>
            <Time>2018-09-14T08:16:25.000Z</Time>
            <Position>
              <LatitudeDegrees>38.43558906577527523040771484375</LatitudeDegrees>
              <LongitudeDegrees>-8.15369236283004283905029296875</LongitudeDegrees>
            </Position>
            <AltitudeMeters>172.1999969482421875</AltitudeMeters>
            <DistanceMeters>198044.63655051</DistanceMeters>
          </Trackpoint>
          <Trackpoint>
            <Time>2018-09-14T08:16:30.000Z</Time>
            <Position>
              <LatitudeDegrees>38.43550608493387699127197265625</LatitudeDegrees>
              <LongitudeDegrees>-8.15351508557796478271484375</LongitudeDegrees>
            </Position>
            <AltitudeMeters>172.399993896484375</AltitudeMeters>
            <DistanceMeters>198062.64204424</DistanceMeters>
          </Trackpoint>
          <Trackpoint>
            <Time>2018-09-14T08:16:34.000Z</Time>
            <Position>
              <LatitudeDegrees>38.43543802388012409210205078125</LatitudeDegrees>
              <LongitudeDegrees>-8.1533684022724628448486328125</LongitudeDegrees>
            </Position>
            <AltitudeMeters>172</AltitudeMeters>
            <DistanceMeters>198077.50636093</DistanceMeters>
          </Trackpoint>
          <Trackpoint>
            <Time>2018-09-14T08:16:39.000Z</Time>
            <Position>
              <LatitudeDegrees>38.43535034917294979095458984375</LatitudeDegrees>
              <LongitudeDegrees>-8.15317318774759769439697265625</LongitudeDegrees>
            </Position>
            <AltitudeMeters>171.399993896484375</AltitudeMeters>
            <DistanceMeters>198097.12517787</DistanceMeters>
          </Trackpoint>
          <Trackpoint>
            <Time>2018-09-14T08:16:50.000Z</Time>
            <Position>
              <LatitudeDegrees>38.43512638472020626068115234375</LatitudeDegrees>
              <LongitudeDegrees>-8.1526909768581390380859375</LongitudeDegrees>
            </Position>
            <AltitudeMeters>174</AltitudeMeters>
            <DistanceMeters>198146.00097467</DistanceMeters>
          </Trackpoint>
          <Trackpoint>
            <Time>2018-09-14T08:16:53.000Z</Time>
            <Position>
              <LatitudeDegrees>38.43506268225610256195068359375</LatitudeDegrees>
              <LongitudeDegrees>-8.15255192108452320098876953125</LongitudeDegrees>
            </Position>
            <AltitudeMeters>174.1999969482421875</AltitudeMeters>
            <DistanceMeters>198160.04565302</DistanceMeters>
          </Trackpoint>
          <Trackpoint>
            <Time>2018-09-14T08:17:02.000Z</Time>
            <Position>
              <LatitudeDegrees>38.4348537214100360870361328125</LatitudeDegrees>
              <LongitudeDegrees>-8.15209887921810150146484375</LongitudeDegrees>
            </Position>
            <AltitudeMeters>174.1999969482421875</AltitudeMeters>
            <DistanceMeters>198205.88262375</DistanceMeters>
          </Trackpoint>
          <Trackpoint>
            <Time>2018-09-14T08:17:06.000Z</Time>
            <Position>
              <LatitudeDegrees>38.43476076610386371612548828125</LatitudeDegrees>
              <LongitudeDegrees>-8.1518871523439884185791015625</LongitudeDegrees>
            </Position>
            <AltitudeMeters>174.600006103515625</AltitudeMeters>
            <DistanceMeters>198227.04351765</DistanceMeters>
          </Trackpoint>
          <Trackpoint>
            <Time>2018-09-14T08:17:10.000Z</Time>
            <Position>
              <LatitudeDegrees>38.4346619434654712677001953125</LatitudeDegrees>
              <LongitudeDegrees>-8.15166838467121124267578125</LongitudeDegrees>
            </Position>
            <AltitudeMeters>174.399993896484375</AltitudeMeters>
            <DistanceMeters>198249.06102486</DistanceMeters>
          </Trackpoint>
          <Trackpoint>
            <Time>2018-09-14T08:17:18.000Z</Time>
            <Position>
              <LatitudeDegrees>38.43442163430154323577880859375</LatitudeDegrees>
              <LongitudeDegrees>-8.15123244188725948333740234375</LongitudeDegrees>
            </Position>
            <AltitudeMeters>175.1999969482421875</AltitudeMeters>
            <DistanceMeters>198295.53656924</DistanceMeters>
          </Trackpoint>
          <Trackpoint>
            <Time>2018-09-14T08:17:27.000Z</Time>
            <Position>
              <LatitudeDegrees>38.43407210893929004669189453125</LatitudeDegrees>
              <LongitudeDegrees>-8.150805719196796417236328125</LongitudeDegrees>
            </Position>
            <AltitudeMeters>176.1999969482421875</AltitudeMeters>
            <DistanceMeters>198349.36565924</DistanceMeters>
          </Trackpoint>
          <Trackpoint>
            <Time>2018-09-14T08:17:38.000Z</Time>
            <Position>
              <LatitudeDegrees>38.433578498661518096923828125</LatitudeDegrees>
              <LongitudeDegrees>-8.15039508976042270660400390625</LongitudeDegrees>
            </Position>
            <AltitudeMeters>177.1999969482421875</AltitudeMeters>
            <DistanceMeters>198414.94084008</DistanceMeters>
          </Trackpoint>
          <Trackpoint>
            <Time>2018-09-14T08:17:47.000Z</Time>
            <Position>
              <LatitudeDegrees>38.43308337964117527008056640625</LatitudeDegrees>
              <LongitudeDegrees>-8.1501547805964946746826171875</LongitudeDegrees>
            </Position>
            <AltitudeMeters>178.399993896484375</AltitudeMeters>
            <DistanceMeters>198473.89716285</DistanceMeters>
          </Trackpoint>
          <Trackpoint>
            <Time>2018-09-14T08:17:57.000Z</Time>
            <Position>
              <LatitudeDegrees>38.432522378861904144287109375</LatitudeDegrees>
              <LongitudeDegrees>-8.1499452330172061920166015625</LongitudeDegrees>
            </Position>
            <AltitudeMeters>179.8000030517578125</AltitudeMeters>
            <DistanceMeters>198538.95563287</DistanceMeters>
          </Trackpoint>
          <Trackpoint>
            <Time>2018-09-14T08:18:01.000Z</Time>
            <Position>
              <LatitudeDegrees>38.4323215484619140625</LatitudeDegrees>
              <LongitudeDegrees>-8.14986770041286945343017578125</LongitudeDegrees>
            </Position>
            <AltitudeMeters>181.600006103515625</AltitudeMeters>
            <DistanceMeters>198562.3082425</DistanceMeters>
          </Trackpoint>
          <Trackpoint>
            <Time>2018-09-14T08:18:05.000Z</Time>
            <Position>
              <LatitudeDegrees>38.432124741375446319580078125</LatitudeDegrees>
              <LongitudeDegrees>-8.1497933529317378997802734375</LongitudeDegrees>
            </Position>
            <AltitudeMeters>183.399993896484375</AltitudeMeters>
            <DistanceMeters>198585.15223772</DistanceMeters>
          </Trackpoint>
          <Trackpoint>
            <Time>2018-09-14T08:18:07.000Z</Time>
            <Position>
              <LatitudeDegrees>38.43202793039381504058837890625</LatitudeDegrees>
              <LongitudeDegrees>-8.14975722692906856536865234375</LongitudeDegrees>
            </Position>
            <AltitudeMeters>183.399993896484375</AltitudeMeters>
            <DistanceMeters>198596.3782676</DistanceMeters>
          </Trackpoint>
          <Trackpoint>
            <Time>2018-09-14T08:18:12.000Z</Time>
            <Position>
              <LatitudeDegrees>38.4317835979163646697998046875</LatitudeDegrees>
              <LongitudeDegrees>-8.14966804347932338714599609375</LongitudeDegrees>
            </Position>
            <AltitudeMeters>183.1999969482421875</AltitudeMeters>
            <DistanceMeters>198624.6627261</DistanceMeters>
          </Trackpoint>
          <Trackpoint>
            <Time>2018-09-14T08:18:17.000Z</Time>
            <Position>
              <LatitudeDegrees>38.4315343201160430908203125</LatitudeDegrees>
              <LongitudeDegrees>-8.14957852475345134735107421875</LongitudeDegrees>
            </Position>
            <AltitudeMeters>184.600006103515625</AltitudeMeters>
            <DistanceMeters>198653.48481576</DistanceMeters>
          </Trackpoint>
          <Trackpoint>
            <Time>2018-09-14T08:18:21.000Z</Time>
            <Position>
              <LatitudeDegrees>38.4313363395631313323974609375</LatitudeDegrees>
              <LongitudeDegrees>-8.14950308762490749359130859375</LongitudeDegrees>
            </Position>
            <AltitudeMeters>186</AltitudeMeters>
            <DistanceMeters>198676.48128063</DistanceMeters>
          </Trackpoint>
          <Trackpoint>
            <Time>2018-09-14T08:18:29.000Z</Time>
            <Position>
              <LatitudeDegrees>38.43094532378017902374267578125</LatitudeDegrees>
              <LongitudeDegrees>-8.1493568234145641326904296875</LongitudeDegrees>
            </Position>
            <AltitudeMeters>188</AltitudeMeters>
            <DistanceMeters>198721.83202717</DistanceMeters>
          </Trackpoint>
          <Trackpoint>
            <Time>2018-09-14T08:18:35.000Z</Time>
            <Position>
              <LatitudeDegrees>38.4306543879210948944091796875</LatitudeDegrees>
              <LongitudeDegrees>-8.149256743490695953369140625</LongitudeDegrees>
            </Position>
            <AltitudeMeters>186.399993896484375</AltitudeMeters>
            <DistanceMeters>198755.36878433</DistanceMeters>
          </Trackpoint>
          <Trackpoint>
            <Time>2018-09-14T08:18:44.000Z</Time>
            <Position>
              <LatitudeDegrees>38.43013362027704715728759765625</LatitudeDegrees>
              <LongitudeDegrees>-8.149064294993877410888671875</LongitudeDegrees>
            </Position>
            <AltitudeMeters>184.8000030517578125</AltitudeMeters>
            <DistanceMeters>198815.71112208</DistanceMeters>
          </Trackpoint>
          <Trackpoint>
            <Time>2018-09-14T08:18:49.000Z</Time>
            <Position>
              <LatitudeDegrees>38.42975961975753307342529296875</LatitudeDegrees>
              <LongitudeDegrees>-8.14891518093645572662353515625</LongitudeDegrees>
            </Position>
            <AltitudeMeters>183.399993896484375</AltitudeMeters>
            <DistanceMeters>198859.32124086</DistanceMeters>
          </Trackpoint>
          <Trackpoint>
            <Time>2018-09-14T08:18:52.000Z</Time>
            <Position>
              <LatitudeDegrees>38.42951151542365550994873046875</LatitudeDegrees>
              <LongitudeDegrees>-8.14882080070674419403076171875</LongitudeDegrees>
            </Position>
            <AltitudeMeters>181.600006103515625</AltitudeMeters>
            <DistanceMeters>198888.13581024</DistanceMeters>
          </Trackpoint>
          <Trackpoint>
            <Time>2018-09-14T08:18:54.000Z</Time>
            <Position>
              <LatitudeDegrees>38.429339267313480377197265625</LatitudeDegrees>
              <LongitudeDegrees>-8.14875491894781589508056640625</LongitudeDegrees>
            </Position>
            <AltitudeMeters>180.399993896484375</AltitudeMeters>
            <DistanceMeters>198908.14970868</DistanceMeters>
          </Trackpoint>
          <Trackpoint>
            <Time>2018-09-14T08:18:56.000Z</Time>
            <Position>
              <LatitudeDegrees>38.42916031368076801300048828125</LatitudeDegrees>
              <LongitudeDegrees>-8.14868786372244358062744140625</LongitudeDegrees>
            </Position>
            <AltitudeMeters>179.1999969482421875</AltitudeMeters>
            <DistanceMeters>198928.90820689</DistanceMeters>
          </Trackpoint>
          <Trackpoint>
            <Time>2018-09-14T08:18:58.000Z</Time>
            <Position>
              <LatitudeDegrees>38.42897339724004268646240234375</LatitudeDegrees>
              <LongitudeDegrees>-8.14861678518354892730712890625</LongitudeDegrees>
            </Position>
            <AltitudeMeters>177.600006103515625</AltitudeMeters>
            <DistanceMeters>198950.61593614</DistanceMeters>
          </Trackpoint>
          <Trackpoint>
            <Time>2018-09-14T08:18:59.000Z</Time>
            <Position>
              <LatitudeDegrees>38.4288767538964748382568359375</LatitudeDegrees>
              <LongitudeDegrees>-8.1485791504383087158203125</LongitudeDegrees>
            </Position>
            <AltitudeMeters>176.8000030517578125</AltitudeMeters>
            <DistanceMeters>198961.86205773</DistanceMeters>
          </Trackpoint>
          <Trackpoint>
            <Time>2018-09-14T08:19:01.000Z</Time>
            <Position>
              <LatitudeDegrees>38.42867852188646793365478515625</LatitudeDegrees>
              <LongitudeDegrees>-8.1485025398433208465576171875</LongitudeDegrees>
            </Position>
            <AltitudeMeters>174.8000030517578125</AltitudeMeters>
            <DistanceMeters>198984.91460636</DistanceMeters>
          </Trackpoint>
          <Trackpoint>
            <Time>2018-09-14T08:19:03.000Z</Time>
            <Position>
              <LatitudeDegrees>38.42847685329616069793701171875</LatitudeDegrees>
              <LongitudeDegrees>-8.14842383377254009246826171875</LongitudeDegrees>
            </Position>
            <AltitudeMeters>173</AltitudeMeters>
            <DistanceMeters>199008.38639717</DistanceMeters>
          </Trackpoint>
          <Trackpoint>
            <Time>2018-09-14T08:19:06.000Z</Time>
            <Position>
              <LatitudeDegrees>38.42817208729684352874755859375</LatitudeDegrees>
              <LongitudeDegrees>-8.14830414019525051116943359375</LongitudeDegrees>
            </Position>
            <AltitudeMeters>173.399993896484375</AltitudeMeters>
            <DistanceMeters>199043.87680775</DistanceMeters>
          </Trackpoint>
          <Trackpoint>
            <Time>2018-09-14T08:19:09.000Z</Time>
            <Position>
              <LatitudeDegrees>38.42786975204944610595703125</LatitudeDegrees>
              <LongitudeDegrees>-8.1481944210827350616455078125</LongitudeDegrees>
            </Position>
            <AltitudeMeters>173.600006103515625</AltitudeMeters>
            <DistanceMeters>199078.86083812</DistanceMeters>
          </Trackpoint>
          <Trackpoint>
            <Time>2018-09-14T08:19:12.000Z</Time>
            <Position>
              <LatitudeDegrees>38.42756842263042926788330078125</LatitudeDegrees>
              <LongitudeDegrees>-8.14811185933649539947509765625</LongitudeDegrees>
            </Position>
            <AltitudeMeters>173.399993896484375</AltitudeMeters>
            <DistanceMeters>199113.16337609</DistanceMeters>
          </Trackpoint>
          <Trackpoint>
            <Time>2018-09-14T08:19:14.000Z</Time>
            <Position>
              <LatitudeDegrees>38.427365161478519439697265625</LatitudeDegrees>
              <LongitudeDegrees>-8.14808067865669727325439453125</LongitudeDegrees>
            </Position>
            <AltitudeMeters>173</AltitudeMeters>
            <DistanceMeters>199135.94958541</DistanceMeters>
          </Trackpoint>
          <Trackpoint>
            <Time>2018-09-14T08:19:18.000Z</Time>
            <Position>
              <LatitudeDegrees>38.42695386148989200592041015625</LatitudeDegrees>
              <LongitudeDegrees>-8.1480743922293186187744140625</LongitudeDegrees>
            </Position>
            <AltitudeMeters>172</AltitudeMeters>
            <DistanceMeters>199181.73136173</DistanceMeters>
          </Trackpoint>
          <Trackpoint>
            <Time>2018-09-14T08:19:21.000Z</Time>
            <Position>
              <LatitudeDegrees>38.4266500174999237060546875</LatitudeDegrees>
              <LongitudeDegrees>-8.148124180734157562255859375</LongitudeDegrees>
            </Position>
            <AltitudeMeters>171.399993896484375</AltitudeMeters>
            <DistanceMeters>199215.82741827</DistanceMeters>
          </Trackpoint>
          <Trackpoint>
            <Time>2018-09-14T08:19:23.000Z</Time>
            <Position>
              <LatitudeDegrees>38.42645161785185337066650390625</LatitudeDegrees>
              <LongitudeDegrees>-8.148181177675724029541015625</LongitudeDegrees>
            </Position>
            <AltitudeMeters>170.8000030517578125</AltitudeMeters>
            <DistanceMeters>199238.46213535</DistanceMeters>
          </Trackpoint>
          <Trackpoint>
            <Time>2018-09-14T08:19:25.000Z</Time>
            <Position>
              <LatitudeDegrees>38.42625816352665424346923828125</LatitudeDegrees>
              <LongitudeDegrees>-8.14825317822396755218505859375</LongitudeDegrees>
            </Position>
            <AltitudeMeters>170.1999969482421875</AltitudeMeters>
            <DistanceMeters>199260.89045313</DistanceMeters>
          </Trackpoint>
          <Trackpoint>
            <Time>2018-09-14T08:19:28.000Z</Time>
            <Position>
              <LatitudeDegrees>38.42598021961748600006103515625</LatitudeDegrees>
              <LongitudeDegrees>-8.1483828462660312652587890625</LongitudeDegrees>
            </Position>
            <AltitudeMeters>169.1999969482421875</AltitudeMeters>
            <DistanceMeters>199293.82732098</DistanceMeters>
          </Trackpoint>
          <Trackpoint>
            <Time>2018-09-14T08:19:34.000Z</Time>
            <Position>
              <LatitudeDegrees>38.42547412030398845672607421875</LatitudeDegrees>
              <LongitudeDegrees>-8.148633800446987152099609375</LongitudeDegrees>
            </Position>
            <AltitudeMeters>167.600006103515625</AltitudeMeters>
            <DistanceMeters>199354.25818507</DistanceMeters>
          </Trackpoint>
          <Trackpoint>
            <Time>2018-09-14T08:19:36.000Z</Time>
            <Position>
              <LatitudeDegrees>38.42531369067728519439697265625</LatitudeDegrees>
              <LongitudeDegrees>-8.14871703274548053741455078125</LongitudeDegrees>
            </Position>
            <AltitudeMeters>167</AltitudeMeters>
            <DistanceMeters>199373.53291996</DistanceMeters>
          </Trackpoint>
          <Trackpoint>
            <Time>2018-09-14T08:19:39.000Z</Time>
            <Position>
              <LatitudeDegrees>38.4250629879534244537353515625</LatitudeDegrees>
              <LongitudeDegrees>-8.14884158782660961151123046875</LongitudeDegrees>
            </Position>
            <AltitudeMeters>166</AltitudeMeters>
            <DistanceMeters>199403.47568536</DistanceMeters>
          </Trackpoint>
          <Trackpoint>
            <Time>2018-09-14T08:19:45.000Z</Time>
            <Position>
              <LatitudeDegrees>38.424543477594852447509765625</LatitudeDegrees>
              <LongitudeDegrees>-8.1491083838045597076416015625</LongitudeDegrees>
            </Position>
            <AltitudeMeters>163.1999969482421875</AltitudeMeters>
            <DistanceMeters>199465.80263447</DistanceMeters>
          </Trackpoint>
          <Trackpoint>
            <Time>2018-09-14T08:19:46.000Z</Time>
            <Position>
              <LatitudeDegrees>38.42445437796413898468017578125</LatitudeDegrees>
              <LongitudeDegrees>-8.1491506285965442657470703125</LongitudeDegrees>
            </Position>
            <AltitudeMeters>162.8000030517578125</AltitudeMeters>
            <DistanceMeters>199476.38137435</DistanceMeters>
          </Trackpoint>
          <Trackpoint>
            <Time>2018-09-14T08:19:50.000Z</Time>
            <Position>
              <LatitudeDegrees>38.42409244738519191741943359375</LatitudeDegrees>
              <LongitudeDegrees>-8.14932203851640224456787109375</LongitudeDegrees>
            </Position>
            <AltitudeMeters>161.1999969482421875</AltitudeMeters>
            <DistanceMeters>199519.34858358</DistanceMeters>
          </Trackpoint>
          <Trackpoint>
            <Time>2018-09-14T08:19:51.000Z</Time>
            <Position>
              <LatitudeDegrees>38.42400158755481243133544921875</LatitudeDegrees>
              <LongitudeDegrees>-8.14936679787933826446533203125</LongitudeDegrees>
            </Position>
            <AltitudeMeters>161</AltitudeMeters>
            <DistanceMeters>199530.1882955</DistanceMeters>
          </Trackpoint>
          <Trackpoint>
            <Time>2018-09-14T08:19:53.000Z</Time>
            <Position>
              <LatitudeDegrees>38.4238177724182605743408203125</LatitudeDegrees>
              <LongitudeDegrees>-8.1494587473571300506591796875</LongitudeDegrees>
            </Position>
            <AltitudeMeters>160.399993896484375</AltitudeMeters>
            <DistanceMeters>199552.16228576</DistanceMeters>
          </Trackpoint>
          <Trackpoint>
            <Time>2018-09-14T08:19:57.000Z</Time>
            <Position>
              <LatitudeDegrees>38.423449806869029998779296875</LatitudeDegrees>
              <LongitudeDegrees>-8.14964038319885730743408203125</LongitudeDegrees>
            </Position>
            <AltitudeMeters>159.600006103515625</AltitudeMeters>
            <DistanceMeters>199596.07336856</DistanceMeters>
          </Trackpoint>
          <Trackpoint>
            <Time>2018-09-14T08:19:59.000Z</Time>
            <Position>
              <LatitudeDegrees>38.42326381243765354156494140625</LatitudeDegrees>
              <LongitudeDegrees>-8.14973224885761737823486328125</LongitudeDegrees>
            </Position>
            <AltitudeMeters>158.8000030517578125</AltitudeMeters>
            <DistanceMeters>199618.27080357</DistanceMeters>
          </Trackpoint>
          <Trackpoint>
            <Time>2018-09-14T08:20:01.000Z</Time>
            <Position>
              <LatitudeDegrees>38.423080332577228546142578125</LatitudeDegrees>
              <LongitudeDegrees>-8.14982126466929912567138671875</LongitudeDegrees>
            </Position>
            <AltitudeMeters>158.1999969482421875</AltitudeMeters>
            <DistanceMeters>199640.11785648</DistanceMeters>
          </Trackpoint>
          <Trackpoint>
            <Time>2018-09-14T08:20:03.000Z</Time>
            <Position>
              <LatitudeDegrees>38.42290288768708705902099609375</LatitudeDegrees>
              <LongitudeDegrees>-8.14991011284291744232177734375</LongitudeDegrees>
            </Position>
            <AltitudeMeters>157.600006103515625</AltitudeMeters>
            <DistanceMeters>199661.33287639</DistanceMeters>
          </Trackpoint>
          <Trackpoint>
            <Time>2018-09-14T08:20:07.000Z</Time>
            <Position>
              <LatitudeDegrees>38.42255906201899051666259765625</LatitudeDegrees>
              <LongitudeDegrees>-8.1500813551247119903564453125</LongitudeDegrees>
            </Position>
            <AltitudeMeters>156.8000030517578125</AltitudeMeters>
            <DistanceMeters>199702.41146431</DistanceMeters>
          </Trackpoint>
          <Trackpoint>
            <Time>2018-09-14T08:20:13.000Z</Time>
            <Position>
              <LatitudeDegrees>38.42204541899263858795166015625</LatitudeDegrees>
              <LongitudeDegrees>-8.15033557824790477752685546875</LongitudeDegrees>
            </Position>
            <AltitudeMeters>154.600006103515625</AltitudeMeters>
            <DistanceMeters>199763.72851486</DistanceMeters>
          </Trackpoint>
          <Trackpoint>
            <Time>2018-09-14T08:20:19.000Z</Time>
            <Position>
              <LatitudeDegrees>38.42152792029082775115966796875</LatitudeDegrees>
              <LongitudeDegrees>-8.15059239976108074188232421875</LongitudeDegrees>
            </Position>
            <AltitudeMeters>152.399993896484375</AltitudeMeters>
            <DistanceMeters>199825.52774148</DistanceMeters>
          </Trackpoint>
          <Trackpoint>
            <Time>2018-09-14T08:20:21.000Z</Time>
            <Position>
              <LatitudeDegrees>38.4213553369045257568359375</LatitudeDegrees>
              <LongitudeDegrees>-8.150674290955066680908203125</LongitudeDegrees>
            </Position>
            <AltitudeMeters>151.600006103515625</AltitudeMeters>
            <DistanceMeters>199846.02093048</DistanceMeters>
          </Trackpoint>
          <Trackpoint>
            <Time>2018-09-14T08:20:23.000Z</Time>
            <Position>
              <LatitudeDegrees>38.42118510045111179351806640625</LatitudeDegrees>
              <LongitudeDegrees>-8.15075702033936977386474609375</LongitudeDegrees>
            </Position>
            <AltitudeMeters>151</AltitudeMeters>
            <DistanceMeters>199866.29527584</DistanceMeters>
          </Trackpoint>
          <Trackpoint>
            <Time>2018-09-14T08:20:30.000Z</Time>
            <Position>
              <LatitudeDegrees>38.4206638298928737640380859375</LatitudeDegrees>
              <LongitudeDegrees>-8.151012919843196868896484375</LongitudeDegrees>
            </Position>
            <AltitudeMeters>151.8000030517578125</AltitudeMeters>
            <DistanceMeters>199928.45713015</DistanceMeters>
          </Trackpoint>
          <Trackpoint>
            <Time>2018-09-14T08:20:31.000Z</Time>
            <Position>
              <LatitudeDegrees>38.420595936477184295654296875</LatitudeDegrees>
              <LongitudeDegrees>-8.15104544162750244140625</LongitudeDegrees>
            </Position>
            <AltitudeMeters>152.1999969482421875</AltitudeMeters>
            <DistanceMeters>199936.52824974</DistanceMeters>
          </Trackpoint>
          <Trackpoint>
            <Time>2018-09-14T08:20:32.000Z</Time>
            <Position>
              <LatitudeDegrees>38.420528881251811981201171875</LatitudeDegrees>
              <LongitudeDegrees>-8.151079304516315460205078125</LongitudeDegrees>
            </Position>
            <AltitudeMeters>152.600006103515625</AltitudeMeters>
            <DistanceMeters>199944.55449203</DistanceMeters>
          </Trackpoint>
          <Trackpoint>
            <Time>2018-09-14T08:20:34.000Z</Time>
            <Position>
              <LatitudeDegrees>38.4203976206481456756591796875</LatitudeDegrees>
              <LongitudeDegrees>-8.15114610828459262847900390625</LongitudeDegrees>
            </Position>
            <AltitudeMeters>153.1999969482421875</AltitudeMeters>
            <DistanceMeters>199960.28248981</DistanceMeters>
          </Trackpoint>
          <Trackpoint>
            <Time>2018-09-14T08:20:35.000Z</Time>
            <Position>
              <LatitudeDegrees>38.42033400200307369232177734375</LatitudeDegrees>
              <LongitudeDegrees>-8.15117980353534221649169921875</LongitudeDegrees>
            </Position>
            <AltitudeMeters>153.600006103515625</AltitudeMeters>
            <DistanceMeters>199967.9490906</DistanceMeters>
          </Trackpoint>
          <Trackpoint>
            <Time>2018-09-14T08:20:37.000Z</Time>
            <Position>
              <LatitudeDegrees>38.42020709998905658721923828125</LatitudeDegrees>
              <LongitudeDegrees>-8.15124191343784332275390625</LongitudeDegrees>
            </Position>
            <AltitudeMeters>154.399993896484375</AltitudeMeters>
            <DistanceMeters>199983.07655559</DistanceMeters>
          </Trackpoint>
          <Trackpoint>
            <Time>2018-09-14T08:20:40.000Z</Time>
            <Position>
              <LatitudeDegrees>38.42002470977604389190673828125</LatitudeDegrees>
              <LongitudeDegrees>-8.1513329409062862396240234375</LongitudeDegrees>
            </Position>
            <AltitudeMeters>154.600006103515625</AltitudeMeters>
            <DistanceMeters>200004.87374514</DistanceMeters>
          </Trackpoint>
          <Trackpoint>
            <Time>2018-09-14T08:20:42.000Z</Time>
            <Position>
              <LatitudeDegrees>38.41990417800843715667724609375</LatitudeDegrees>
              <LongitudeDegrees>-8.15139748156070709228515625</LongitudeDegrees>
            </Position>
            <AltitudeMeters>154.8000030517578125</AltitudeMeters>
            <DistanceMeters>200019.4221458</DistanceMeters>
          </Trackpoint>
          <Trackpoint>
            <Time>2018-09-14T08:20:45.000Z</Time>
            <Position>
              <LatitudeDegrees>38.41972044669091701507568359375</LatitudeDegrees>
              <LongitudeDegrees>-8.1514858268201351165771484375</LongitudeDegrees>
            </Position>
            <AltitudeMeters>154.8000030517578125</AltitudeMeters>
            <DistanceMeters>200041.27457135</DistanceMeters>
          </Trackpoint>
          <Trackpoint>
            <Time>2018-09-14T08:20:48.000Z</Time>
            <Position>
              <LatitudeDegrees>38.4195383079349994659423828125</LatitudeDegrees>
              <LongitudeDegrees>-8.15157576464116573333740234375</LongitudeDegrees>
            </Position>
            <AltitudeMeters>155</AltitudeMeters>
            <DistanceMeters>200063.0114</DistanceMeters>
          </Trackpoint>
          <Trackpoint>
            <Time>2018-09-14T08:20:50.000Z</Time>
            <Position>
              <LatitudeDegrees>38.41941836290061473846435546875</LatitudeDegrees>
              <LongitudeDegrees>-8.15163561142981052398681640625</LongitudeDegrees>
            </Position>
            <AltitudeMeters>155</AltitudeMeters>
            <DistanceMeters>200077.34532233</DistanceMeters>
          </Trackpoint>
          <Trackpoint>
            <Time>2018-09-14T08:20:53.000Z</Time>
            <Position>
              <LatitudeDegrees>38.4192419238388538360595703125</LatitudeDegrees>
              <LongitudeDegrees>-8.151726387441158294677734375</LongitudeDegrees>
            </Position>
            <AltitudeMeters>155.399993896484375</AltitudeMeters>
            <DistanceMeters>200098.51880115</DistanceMeters>
          </Trackpoint>
          <Trackpoint>
            <Time>2018-09-14T08:20:58.000Z</Time>
            <Position>
              <LatitudeDegrees>38.418949060142040252685546875</LatitudeDegrees>
              <LongitudeDegrees>-8.1518707238137722015380859375</LongitudeDegrees>
            </Position>
            <AltitudeMeters>155.8000030517578125</AltitudeMeters>
            <DistanceMeters>200133.46073263</DistanceMeters>
          </Trackpoint>
          <Trackpoint>
            <Time>2018-09-14T08:21:03.000Z</Time>
            <Position>
              <LatitudeDegrees>38.41865745373070240020751953125</LatitudeDegrees>
              <LongitudeDegrees>-8.15200894139707088470458984375</LongitudeDegrees>
            </Position>
            <AltitudeMeters>156.399993896484375</AltitudeMeters>
            <DistanceMeters>200168.08281327</DistanceMeters>
          </Trackpoint>
          <Trackpoint>
            <Time>2018-09-14T08:21:10.000Z</Time>
            <Position>
              <LatitudeDegrees>38.41828211210668087005615234375</LatitudeDegrees>
              <LongitudeDegrees>-8.152196109294891357421875</LongitudeDegrees>
            </Position>
            <AltitudeMeters>157.8000030517578125</AltitudeMeters>
            <DistanceMeters>200212.93431513</DistanceMeters>
          </Trackpoint>
          <Trackpoint>
            <Time>2018-09-14T08:21:16.000Z</Time>
            <Position>
              <LatitudeDegrees>38.41797298751771450042724609375</LatitudeDegrees>
              <LongitudeDegrees>-8.15233365632593631744384765625</LongitudeDegrees>
            </Position>
            <AltitudeMeters>159.399993896484375</AltitudeMeters>
            <DistanceMeters>200249.37132955</DistanceMeters>
          </Trackpoint>
          <Trackpoint>
            <Time>2018-09-14T08:21:21.000Z</Time>
            <Position>
              <LatitudeDegrees>38.4177167527377605438232421875</LatitudeDegrees>
              <LongitudeDegrees>-8.15242066048085689544677734375</LongitudeDegrees>
            </Position>
            <AltitudeMeters>160.600006103515625</AltitudeMeters>
            <DistanceMeters>200278.88290038</DistanceMeters>
          </Trackpoint>
          <Trackpoint>
            <Time>2018-09-14T08:21:26.000Z</Time>
            <Position>
              <LatitudeDegrees>38.41746638529002666473388671875</LatitudeDegrees>
              <LongitudeDegrees>-8.15248318947851657867431640625</LongitudeDegrees>
            </Position>
            <AltitudeMeters>161.399993896484375</AltitudeMeters>
            <DistanceMeters>200307.27792574</DistanceMeters>
          </Trackpoint>
          <Trackpoint>
            <Time>2018-09-14T08:21:30.000Z</Time>
            <Position>
              <LatitudeDegrees>38.4172684885561466217041015625</LatitudeDegrees>
              <LongitudeDegrees>-8.15251252613961696624755859375</LongitudeDegrees>
            </Position>
            <AltitudeMeters>162</AltitudeMeters>
            <DistanceMeters>200329.45256785</DistanceMeters>
          </Trackpoint>
          <Trackpoint>
            <Time>2018-09-14T08:21:36.000Z</Time>
            <Position>
              <LatitudeDegrees>38.41698124073445796966552734375</LatitudeDegrees>
              <LongitudeDegrees>-8.1525255180895328521728515625</LongitudeDegrees>
            </Position>
            <AltitudeMeters>162.600006103515625</AltitudeMeters>
            <DistanceMeters>200361.44384438</DistanceMeters>
          </Trackpoint>
          <Trackpoint>
            <Time>2018-09-14T08:21:44.000Z</Time>
            <Position>
              <LatitudeDegrees>38.4166016243398189544677734375</LatitudeDegrees>
              <LongitudeDegrees>-8.15253197215497493743896484375</LongitudeDegrees>
            </Position>
            <AltitudeMeters>162.399993896484375</AltitudeMeters>
            <DistanceMeters>200403.69965032</DistanceMeters>
          </Trackpoint>
          <Trackpoint>
            <Time>2018-09-14T08:21:54.000Z</Time>
            <Position>
              <LatitudeDegrees>38.41603592969477176666259765625</LatitudeDegrees>
              <LongitudeDegrees>-8.1525375880300998687744140625</LongitudeDegrees>
            </Position>
            <AltitudeMeters>160.1999969482421875</AltitudeMeters>
            <DistanceMeters>200466.66444018</DistanceMeters>
          </Trackpoint>
          <Trackpoint>
            <Time>2018-09-14T08:22:03.000Z</Time>
            <Position>
              <LatitudeDegrees>38.4154305048286914825439453125</LatitudeDegrees>
              <LongitudeDegrees>-8.15254555083811283111572265625</LongitudeDegrees>
            </Position>
            <AltitudeMeters>160.8000030517578125</AltitudeMeters>
            <DistanceMeters>200534.05292127</DistanceMeters>
          </Trackpoint>
          <Trackpoint>
            <Time>2018-09-14T08:22:07.000Z</Time>
            <Position>
              <LatitudeDegrees>38.41515499167144298553466796875</LatitudeDegrees>
              <LongitudeDegrees>-8.15254890359938144683837890625</LongitudeDegrees>
            </Position>
            <AltitudeMeters>161</AltitudeMeters>
            <DistanceMeters>200564.7193244</DistanceMeters>
          </Trackpoint>
          <Trackpoint>
            <Time>2018-09-14T08:22:14.000Z</Time>
            <Position>
              <LatitudeDegrees>38.4146771393716335296630859375</LatitudeDegrees>
              <LongitudeDegrees>-8.15255753695964813232421875</LongitudeDegrees>
            </Position>
            <AltitudeMeters>162.1999969482421875</AltitudeMeters>
            <DistanceMeters>200617.91060735</DistanceMeters>
          </Trackpoint>
          <Trackpoint>
            <Time>2018-09-14T08:22:22.000Z</Time>
            <Position>
              <LatitudeDegrees>38.41413139365613460540771484375</LatitudeDegrees>
              <LongitudeDegrees>-8.152565248310565948486328125</LongitudeDegrees>
            </Position>
            <AltitudeMeters>163.600006103515625</AltitudeMeters>
            <DistanceMeters>200678.65683866</DistanceMeters>
          </Trackpoint>
          <Trackpoint>
            <Time>2018-09-14T08:22:30.000Z</Time>
            <Position>
              <LatitudeDegrees>38.41357433237135410308837890625</LatitudeDegrees>
              <LongitudeDegrees>-8.152567930519580841064453125</LongitudeDegrees>
            </Position>
            <AltitudeMeters>164.8000030517578125</AltitudeMeters>
            <DistanceMeters>200740.65927574</DistanceMeters>
          </Trackpoint>
          <Trackpoint>
            <Time>2018-09-14T08:22:38.000Z</Time>
            <Position>
              <LatitudeDegrees>38.41300922445952892303466796875</LatitudeDegrees>
              <LongitudeDegrees>-8.1525754742324352264404296875</LongitudeDegrees>
            </Position>
            <AltitudeMeters>166.8000030517578125</AltitudeMeters>
            <DistanceMeters>200803.56035724</DistanceMeters>
          </Trackpoint>
          <Trackpoint>
            <Time>2018-09-14T08:22:47.000Z</Time>
            <Position>
              <LatitudeDegrees>38.41243841685354709625244140625</LatitudeDegrees>
              <LongitudeDegrees>-8.15257589332759380340576171875</LongitudeDegrees>
            </Position>
            <AltitudeMeters>169</AltitudeMeters>
            <DistanceMeters>200867.09237869</DistanceMeters>
          </Trackpoint>
          <Trackpoint>
            <Time>2018-09-14T08:22:48.000Z</Time>
            <Position>
              <LatitudeDegrees>38.412380330264568328857421875</LatitudeDegrees>
              <LongitudeDegrees>-8.15257337875664234161376953125</LongitudeDegrees>
            </Position>
            <AltitudeMeters>169.399993896484375</AltitudeMeters>
            <DistanceMeters>200873.56117875</DistanceMeters>
          </Trackpoint>
          <Trackpoint>
            <Time>2018-09-14T08:22:52.000Z</Time>
            <Position>
              <LatitudeDegrees>38.41215603053569793701171875</LatitudeDegrees>
              <LongitudeDegrees>-8.15258008427917957305908203125</LongitudeDegrees>
            </Position>
            <AltitudeMeters>170.399993896484375</AltitudeMeters>
            <DistanceMeters>200898.53314341</DistanceMeters>
          </Trackpoint>
          <Trackpoint>
            <Time>2018-09-14T08:22:57.000Z</Time>
            <Position>
              <LatitudeDegrees>38.41189895756542682647705078125</LatitudeDegrees>
              <LongitudeDegrees>-8.1526120193302631378173828125</LongitudeDegrees>
            </Position>
            <AltitudeMeters>171.600006103515625</AltitudeMeters>
            <DistanceMeters>200927.28104118</DistanceMeters>
          </Trackpoint>
          <Trackpoint>
            <Time>2018-09-14T08:23:01.000Z</Time>
            <Position>
              <LatitudeDegrees>38.41170944273471832275390625</LatitudeDegrees>
              <LongitudeDegrees>-8.15265283919870853424072265625</LongitudeDegrees>
            </Position>
            <AltitudeMeters>172.600006103515625</AltitudeMeters>
            <DistanceMeters>200948.6728189</DistanceMeters>
          </Trackpoint>
          <Trackpoint>
            <Time>2018-09-14T08:23:04.000Z</Time>
            <Position>
              <LatitudeDegrees>38.41157265007495880126953125</LatitudeDegrees>
              <LongitudeDegrees>-8.15268762409687042236328125</LongitudeDegrees>
            </Position>
            <AltitudeMeters>173.1999969482421875</AltitudeMeters>
            <DistanceMeters>200964.19711309</DistanceMeters>
          </Trackpoint>
          <Trackpoint>
            <Time>2018-09-14T08:23:10.000Z</Time>
            <Position>
              <LatitudeDegrees>38.41133804060518741607666015625</LatitudeDegrees>
              <LongitudeDegrees>-8.15278929658234119415283203125</LongitudeDegrees>
            </Position>
            <AltitudeMeters>174.399993896484375</AltitudeMeters>
            <DistanceMeters>200991.77402278</DistanceMeters>
          </Trackpoint>
          <Trackpoint>
            <Time>2018-09-14T08:23:14.000Z</Time>
            <Position>
              <LatitudeDegrees>38.41119714081287384033203125</LatitudeDegrees>
              <LongitudeDegrees>-8.15286188386380672454833984375</LongitudeDegrees>
            </Position>
            <AltitudeMeters>175.1999969482421875</AltitudeMeters>
            <DistanceMeters>201008.68557449</DistanceMeters>
          </Trackpoint>
          <Trackpoint>
            <Time>2018-09-14T08:23:18.000Z</Time>
            <Position>
              <LatitudeDegrees>38.41106780804693698883056640625</LatitudeDegrees>
              <LongitudeDegrees>-8.15293279476463794708251953125</LongitudeDegrees>
            </Position>
            <AltitudeMeters>175.8000030517578125</AltitudeMeters>
            <DistanceMeters>201024.3525952</DistanceMeters>
          </Trackpoint>
          <Trackpoint>
            <Time>2018-09-14T08:23:22.000Z</Time>
            <Position>
              <LatitudeDegrees>38.41095096431672573089599609375</LatitudeDegrees>
              <LongitudeDegrees>-8.15302046947181224822998046875</LongitudeDegrees>
            </Position>
            <AltitudeMeters>176.399993896484375</AltitudeMeters>
            <DistanceMeters>201039.4391149</DistanceMeters>
          </Trackpoint>
          <Trackpoint>
            <Time>2018-09-14T08:23:26.000Z</Time>
            <Position>
              <LatitudeDegrees>38.4108338691294193267822265625</LatitudeDegrees>
              <LongitudeDegrees>-8.1531065516173839569091796875</LongitudeDegrees>
            </Position>
            <AltitudeMeters>176.8000030517578125</AltitudeMeters>
            <DistanceMeters>201054.47977563</DistanceMeters>
          </Trackpoint>
          <Trackpoint>
            <Time>2018-09-14T08:23:30.000Z</Time>
            <Position>
              <LatitudeDegrees>38.41072649694979190826416015625</LatitudeDegrees>
              <LongitudeDegrees>-8.1532057933509349822998046875</LongitudeDegrees>
            </Position>
            <AltitudeMeters>177.1999969482421875</AltitudeMeters>
            <DistanceMeters>201069.23586702</DistanceMeters>
          </Trackpoint>
          <Trackpoint>
            <Time>2018-09-14T08:23:38.000Z</Time>
            <Position>
              <LatitudeDegrees>38.41050554998219013214111328125</LatitudeDegrees>
              <LongitudeDegrees>-8.15342514775693416595458984375</LongitudeDegrees>
            </Position>
            <AltitudeMeters>178</AltitudeMeters>
            <DistanceMeters>201100.39274873</DistanceMeters>
          </Trackpoint>
          <Trackpoint>
            <Time>2018-09-14T08:23:43.000Z</Time>
            <Position>
              <LatitudeDegrees>38.4103641472756862640380859375</LatitudeDegrees>
              <LongitudeDegrees>-8.15357836894690990447998046875</LongitudeDegrees>
            </Position>
            <AltitudeMeters>178</AltitudeMeters>
            <DistanceMeters>201121.03914766</DistanceMeters>
          </Trackpoint>
          <Trackpoint>
            <Time>2018-09-14T08:23:48.000Z</Time>
            <Position>
              <LatitudeDegrees>38.4102107584476470947265625</LatitudeDegrees>
              <LongitudeDegrees>-8.1537305004894733428955078125</LongitudeDegrees>
            </Position>
            <AltitudeMeters>178</AltitudeMeters>
            <DistanceMeters>201142.66101431</DistanceMeters>
          </Trackpoint>
          <Trackpoint>
            <Time>2018-09-14T08:23:54.000Z</Time>
            <Position>
              <LatitudeDegrees>38.4100111015141010284423828125</LatitudeDegrees>
              <LongitudeDegrees>-8.153946585953235626220703125</LongitudeDegrees>
            </Position>
            <AltitudeMeters>178.600006103515625</AltitudeMeters>
            <DistanceMeters>201171.7984426</DistanceMeters>
          </Trackpoint>
          <Trackpoint>
            <Time>2018-09-14T08:24:06.000Z</Time>
            <Position>
              <LatitudeDegrees>38.4095804393291473388671875</LatitudeDegrees>
              <LongitudeDegrees>-8.15439258702099323272705078125</LongitudeDegrees>
            </Position>
            <AltitudeMeters>180.8000030517578125</AltitudeMeters>
            <DistanceMeters>201233.5291011</DistanceMeters>
          </Trackpoint>
          <Trackpoint>
            <Time>2018-09-14T08:24:08.000Z</Time>
            <Position>
              <LatitudeDegrees>38.40950693003833293914794921875</LatitudeDegrees>
              <LongitudeDegrees>-8.15446567721664905548095703125</LongitudeDegrees>
            </Position>
            <AltitudeMeters>181.399993896484375</AltitudeMeters>
            <DistanceMeters>201243.90051714</DistanceMeters>
          </Trackpoint>
          <Trackpoint>
            <Time>2018-09-14T08:24:16.000Z</Time>
            <Position>
              <LatitudeDegrees>38.4092332608997821807861328125</LatitudeDegrees>
              <LongitudeDegrees>-8.15474965609610080718994140625</LongitudeDegrees>
            </Position>
            <AltitudeMeters>183.399993896484375</AltitudeMeters>
            <DistanceMeters>201283.158858</DistanceMeters>
          </Trackpoint>
          <Trackpoint>
            <Time>2018-09-14T08:24:25.000Z</Time>
            <Position>
              <LatitudeDegrees>38.40894408524036407470703125</LatitudeDegrees>
              <LongitudeDegrees>-8.1550457887351512908935546875</LongitudeDegrees>
            </Position>
            <AltitudeMeters>186.600006103515625</AltitudeMeters>
            <DistanceMeters>201324.42595248</DistanceMeters>
          </Trackpoint>
          <Trackpoint>
            <Time>2018-09-14T08:24:32.000Z</Time>
            <Position>
              <LatitudeDegrees>38.40873713605105876922607421875</LatitudeDegrees>
              <LongitudeDegrees>-8.155260868370532989501953125</LongitudeDegrees>
            </Position>
            <AltitudeMeters>188.600006103515625</AltitudeMeters>
            <DistanceMeters>201354.13179584</DistanceMeters>
          </Trackpoint>
          <Trackpoint>
            <Time>2018-09-14T08:24:38.000Z</Time>
            <Position>
              <LatitudeDegrees>38.40856044553220272064208984375</LatitudeDegrees>
              <LongitudeDegrees>-8.15544652752578258514404296875</LongitudeDegrees>
            </Position>
            <AltitudeMeters>190.1999969482421875</AltitudeMeters>
            <DistanceMeters>201379.60640033</DistanceMeters>
          </Trackpoint>
          <Trackpoint>
            <Time>2018-09-14T08:24:44.000Z</Time>
            <Position>
              <LatitudeDegrees>38.40838861651718616485595703125</LatitudeDegrees>
              <LongitudeDegrees>-8.15562573261559009552001953125</LongitudeDegrees>
            </Position>
            <AltitudeMeters>191.600006103515625</AltitudeMeters>
            <DistanceMeters>201404.30566964</DistanceMeters>
          </Trackpoint>
          <Trackpoint>
            <Time>2018-09-14T08:24:49.000Z</Time>
            <Position>
              <LatitudeDegrees>38.408252410590648651123046875</LatitudeDegrees>
              <LongitudeDegrees>-8.1557674705982208251953125</LongitudeDegrees>
            </Position>
            <AltitudeMeters>192.600006103515625</AltitudeMeters>
            <DistanceMeters>201423.86686744</DistanceMeters>
          </Trackpoint>
          <Trackpoint>
            <Time>2018-09-14T08:24:54.000Z</Time>
            <Position>
              <LatitudeDegrees>38.40812592767179012298583984375</LatitudeDegrees>
              <LongitudeDegrees>-8.15589445643126964569091796875</LongitudeDegrees>
            </Position>
            <AltitudeMeters>193.600006103515625</AltitudeMeters>
            <DistanceMeters>201441.77934008</DistanceMeters>
          </Trackpoint>
          <Trackpoint>
            <Time>2018-09-14T08:24:57.000Z</Time>
            <Position>
              <LatitudeDegrees>38.4080450423061847686767578125</LatitudeDegrees>
              <LongitudeDegrees>-8.15596201457083225250244140625</LongitudeDegrees>
            </Position>
            <AltitudeMeters>194.1999969482421875</AltitudeMeters>
            <DistanceMeters>201452.53878152</DistanceMeters>
          </Trackpoint>
          <Trackpoint>
            <Time>2018-09-14T08:25:03.000Z</Time>
            <Position>
              <LatitudeDegrees>38.4078857861459255218505859375</LatitudeDegrees>
              <LongitudeDegrees>-8.156105093657970428466796875</LongitudeDegrees>
            </Position>
            <AltitudeMeters>195.8000030517578125</AltitudeMeters>
            <DistanceMeters>201474.2165392</DistanceMeters>
          </Trackpoint>
          <Trackpoint>
            <Time>2018-09-14T08:25:07.000Z</Time>
            <Position>
              <LatitudeDegrees>38.407786376774311065673828125</LatitudeDegrees>
              <LongitudeDegrees>-8.15620265901088714599609375</LongitudeDegrees>
            </Position>
            <AltitudeMeters>197</AltitudeMeters>
            <DistanceMeters>201488.17479587</DistanceMeters>
          </Trackpoint>
          <Trackpoint>
            <Time>2018-09-14T08:25:13.000Z</Time>
            <Position>
              <LatitudeDegrees>38.40761597268283367156982421875</LatitudeDegrees>
              <LongitudeDegrees>-8.15631204284727573394775390625</LongitudeDegrees>
            </Position>
            <AltitudeMeters>198.1999969482421875</AltitudeMeters>
            <DistanceMeters>201509.4051335</DistanceMeters>
          </Trackpoint>
          <Trackpoint>
            <Time>2018-09-14T08:25:17.000Z</Time>
            <Position>
              <LatitudeDegrees>38.40751119889318943023681640625</LatitudeDegrees>
              <LongitudeDegrees>-8.15639670006930828094482421875</LongitudeDegrees>
            </Position>
            <AltitudeMeters>197.8000030517578125</AltitudeMeters>
            <DistanceMeters>201523.20790687</DistanceMeters>
          </Trackpoint>
          <Trackpoint>
            <Time>2018-09-14T08:25:21.000Z</Time>
            <Position>
              <LatitudeDegrees>38.4073875658214092254638671875</LatitudeDegrees>
              <LongitudeDegrees>-8.156453780829906463623046875</LongitudeDegrees>
            </Position>
            <AltitudeMeters>197.1999969482421875</AltitudeMeters>
            <DistanceMeters>201537.84171235</DistanceMeters>
          </Trackpoint>
          <Trackpoint>
            <Time>2018-09-14T08:25:26.000Z</Time>
            <Position>
              <LatitudeDegrees>38.40721833519637584686279296875</LatitudeDegrees>
              <LongitudeDegrees>-8.15650440752506256103515625</LongitudeDegrees>
            </Position>
            <AltitudeMeters>196.399993896484375</AltitudeMeters>
            <DistanceMeters>201557.18799387</DistanceMeters>
          </Trackpoint>
          <Trackpoint>
            <Time>2018-09-14T08:25:31.000Z</Time>
            <Position>
              <LatitudeDegrees>38.4070271439850330352783203125</LatitudeDegrees>
              <LongitudeDegrees>-8.1565474905073642730712890625</LongitudeDegrees>
            </Position>
            <AltitudeMeters>195.600006103515625</AltitudeMeters>
            <DistanceMeters>201578.7973278</DistanceMeters>
          </Trackpoint>
          <Trackpoint>
            <Time>2018-09-14T08:25:32.000Z</Time>
            <Position>
              <LatitudeDegrees>38.4069852344691753387451171875</LatitudeDegrees>
              <LongitudeDegrees>-8.15655478276312351226806640625</LongitudeDegrees>
            </Position>
            <AltitudeMeters>195.399993896484375</AltitudeMeters>
            <DistanceMeters>201583.50570732</DistanceMeters>
          </Trackpoint>
          <Trackpoint>
            <Time>2018-09-14T08:25:37.000Z</Time>
            <Position>
              <LatitudeDegrees>38.40674341656267642974853515625</LatitudeDegrees>
              <LongitudeDegrees>-8.15657682716846466064453125</LongitudeDegrees>
            </Position>
            <AltitudeMeters>195</AltitudeMeters>
            <DistanceMeters>201610.48927869</DistanceMeters>
          </Trackpoint>
          <Trackpoint>
            <Time>2018-09-14T08:25:40.000Z</Time>
            <Position>
              <LatitudeDegrees>38.40658198110759258270263671875</LatitudeDegrees>
              <LongitudeDegrees>-8.1565605662763118743896484375</LongitudeDegrees>
            </Position>
            <AltitudeMeters>194.399993896484375</AltitudeMeters>
            <DistanceMeters>201628.51306852</DistanceMeters>
          </Trackpoint>
          <Trackpoint>
            <Time>2018-09-14T08:25:43.000Z</Time>
            <Position>
              <LatitudeDegrees>38.40640713460743427276611328125</LatitudeDegrees>
              <LongitudeDegrees>-8.15652343444526195526123046875</LongitudeDegrees>
            </Position>
            <AltitudeMeters>193.8000030517578125</AltitudeMeters>
            <DistanceMeters>201648.24158481</DistanceMeters>
          </Trackpoint>
          <Trackpoint>
            <Time>2018-09-14T08:25:48.000Z</Time>
            <Position>
              <LatitudeDegrees>38.40609264560043811798095703125</LatitudeDegrees>
              <LongitudeDegrees>-8.15643559210002422332763671875</LongitudeDegrees>
            </Position>
            <AltitudeMeters>192.8000030517578125</AltitudeMeters>
            <DistanceMeters>201684.07358711</DistanceMeters>
          </Trackpoint>
          <Trackpoint>
            <Time>2018-09-14T08:25:49.000Z</Time>
            <Position>
              <LatitudeDegrees>38.40602450072765350341796875</LatitudeDegrees>
              <LongitudeDegrees>-8.15641455352306365966796875</LongitudeDegrees>
            </Position>
            <AltitudeMeters>192.600006103515625</AltitudeMeters>
            <DistanceMeters>201691.87735771</DistanceMeters>
          </Trackpoint>
          <Trackpoint>
            <Time>2018-09-14T08:25:51.000Z</Time>
            <Position>
              <LatitudeDegrees>38.4058816730976104736328125</LatitudeDegrees>
              <LongitudeDegrees>-8.15636920742690563201904296875</LongitudeDegrees>
            </Position>
            <AltitudeMeters>191.8000030517578125</AltitudeMeters>
            <DistanceMeters>201708.25892698</DistanceMeters>
          </Trackpoint>
          <Trackpoint>
            <Time>2018-09-14T08:25:53.000Z</Time>
            <Position>
              <LatitudeDegrees>38.40573272667825222015380859375</LatitudeDegrees>
              <LongitudeDegrees>-8.156326711177825927734375</LongitudeDegrees>
            </Position>
            <AltitudeMeters>191</AltitudeMeters>
            <DistanceMeters>201725.24666323</DistanceMeters>
          </Trackpoint>
          <Trackpoint>
            <Time>2018-09-14T08:25:55.000Z</Time>
            <Position>
              <LatitudeDegrees>38.405580930411815643310546875</LatitudeDegrees>
              <LongitudeDegrees>-8.15628589130938053131103515625</LongitudeDegrees>
            </Position>
            <AltitudeMeters>190.399993896484375</AltitudeMeters>
            <DistanceMeters>201742.5127845</DistanceMeters>
          </Trackpoint>
          <Trackpoint>
            <Time>2018-09-14T08:25:56.000Z</Time>
            <Position>
              <LatitudeDegrees>38.405503816902637481689453125</LatitudeDegrees>
              <LongitudeDegrees>-8.15626426599919795989990234375</LongitudeDegrees>
            </Position>
            <AltitudeMeters>190.399993896484375</AltitudeMeters>
            <DistanceMeters>201751.30057227</DistanceMeters>
          </Trackpoint>
          <Trackpoint>
            <Time>2018-09-14T08:25:59.000Z</Time>
            <Position>
              <LatitudeDegrees>38.40527289547026157379150390625</LatitudeDegrees>
              <LongitudeDegrees>-8.1561981327831745147705078125</LongitudeDegrees>
            </Position>
            <AltitudeMeters>190</AltitudeMeters>
            <DistanceMeters>201777.64200491</DistanceMeters>
          </Trackpoint>
          <Trackpoint>
            <Time>2018-09-14T08:26:03.000Z</Time>
            <Position>
              <LatitudeDegrees>38.4049745835363864898681640625</LatitudeDegrees>
              <LongitudeDegrees>-8.15610568039119243621826171875</LongitudeDegrees>
            </Position>
            <AltitudeMeters>189.399993896484375</AltitudeMeters>
            <DistanceMeters>201811.80989046</DistanceMeters>
          </Trackpoint>
          <Trackpoint>
            <Time>2018-09-14T08:26:09.000Z</Time>
            <Position>
              <LatitudeDegrees>38.40455138124525547027587890625</LatitudeDegrees>
              <LongitudeDegrees>-8.155973665416240692138671875</LongitudeDegrees>
            </Position>
            <AltitudeMeters>188.600006103515625</AltitudeMeters>
            <DistanceMeters>201860.29996599</DistanceMeters>
          </Trackpoint>
          <Trackpoint>
            <Time>2018-09-14T08:26:13.000Z</Time>
            <Position>
              <LatitudeDegrees>38.4042852558195590972900390625</LatitudeDegrees>
              <LongitudeDegrees>-8.15586260519921779632568359375</LongitudeDegrees>
            </Position>
            <AltitudeMeters>188.1999969482421875</AltitudeMeters>
            <DistanceMeters>201891.46380275</DistanceMeters>
          </Trackpoint>
          <Trackpoint>
            <Time>2018-09-14T08:26:22.000Z</Time>
            <Position>
              <LatitudeDegrees>38.4037283621728420257568359375</LatitudeDegrees>
              <LongitudeDegrees>-8.1555755250155925750732421875</LongitudeDegrees>
            </Position>
            <AltitudeMeters>188</AltitudeMeters>
            <DistanceMeters>201958.31386372</DistanceMeters>
          </Trackpoint>
          <Trackpoint>
            <Time>2018-09-14T08:26:31.000Z</Time>
            <Position>
              <LatitudeDegrees>38.40314514935016632080078125</LatitudeDegrees>
              <LongitudeDegrees>-8.15535969100892543792724609375</LongitudeDegrees>
            </Position>
            <AltitudeMeters>187.600006103515625</AltitudeMeters>
            <DistanceMeters>202025.90137633</DistanceMeters>
          </Trackpoint>
          <Trackpoint>
            <Time>2018-09-14T08:26:38.000Z</Time>
            <Position>
              <LatitudeDegrees>38.40256369672715663909912109375</LatitudeDegrees>
              <LongitudeDegrees>-8.1554052047431468963623046875</LongitudeDegrees>
            </Position>
            <AltitudeMeters>183.8000030517578125</AltitudeMeters>
            <DistanceMeters>202090.73982426</DistanceMeters>
          </Trackpoint>
          <Trackpoint>
            <Time>2018-09-14T08:26:39.000Z</Time>
            <Position>
              <LatitudeDegrees>38.40247065760195255279541015625</LatitudeDegrees>
              <LongitudeDegrees>-8.15541467629373073577880859375</LongitudeDegrees>
            </Position>
            <AltitudeMeters>183.600006103515625</AltitudeMeters>
            <DistanceMeters>202101.12863909</DistanceMeters>
          </Trackpoint>
          <Trackpoint>
            <Time>2018-09-14T08:26:41.000Z</Time>
            <Position>
              <LatitudeDegrees>38.40228022076189517974853515625</LatitudeDegrees>
              <LongitudeDegrees>-8.1554360501468181610107421875</LongitudeDegrees>
            </Position>
            <AltitudeMeters>183.1999969482421875</AltitudeMeters>
            <DistanceMeters>202122.40634909</DistanceMeters>
          </Trackpoint>
          <Trackpoint>
            <Time>2018-09-14T08:26:44.000Z</Time>
            <Position>
              <LatitudeDegrees>38.4019899554550647735595703125</LatitudeDegrees>
              <LongitudeDegrees>-8.15546681173145771026611328125</LongitudeDegrees>
            </Position>
            <AltitudeMeters>183.1999969482421875</AltitudeMeters>
            <DistanceMeters>202154.82466778</DistanceMeters>
          </Trackpoint>
          <Trackpoint>
            <Time>2018-09-14T08:26:47.000Z</Time>
            <Position>
              <LatitudeDegrees>38.40169851668179035186767578125</LatitudeDegrees>
              <LongitudeDegrees>-8.15549782477319240570068359375</LongitudeDegrees>
            </Position>
            <AltitudeMeters>183.600006103515625</AltitudeMeters>
            <DistanceMeters>202187.37488943</DistanceMeters>
          </Trackpoint>
          <Trackpoint>
            <Time>2018-09-14T08:26:50.000Z</Time>
            <Position>
              <LatitudeDegrees>38.40143817476928234100341796875</LatitudeDegrees>
              <LongitudeDegrees>-8.15555448643863201141357421875</LongitudeDegrees>
            </Position>
            <AltitudeMeters>184.8000030517578125</AltitudeMeters>
            <DistanceMeters>202216.76995627</DistanceMeters>
          </Trackpoint>
          <Trackpoint>
            <Time>2018-09-14T08:26:52.000Z</Time>
            <Position>
              <LatitudeDegrees>38.4012976102530956268310546875</LatitudeDegrees>
              <LongitudeDegrees>-8.15561517141759395599365234375</LongitudeDegrees>
            </Position>
            <AltitudeMeters>185.1999969482421875</AltitudeMeters>
            <DistanceMeters>202233.28629906</DistanceMeters>
          </Trackpoint>
          <Trackpoint>
            <Time>2018-09-14T08:26:56.000Z</Time>
            <Position>
              <LatitudeDegrees>38.40108680538833141326904296875</LatitudeDegrees>
              <LongitudeDegrees>-8.15577543340623378753662109375</LongitudeDegrees>
            </Position>
            <AltitudeMeters>185.8000030517578125</AltitudeMeters>
            <DistanceMeters>202260.59800836</DistanceMeters>
          </Trackpoint>
          <Trackpoint>
            <Time>2018-09-14T08:26:57.000Z</Time>
            <Position>
              <LatitudeDegrees>38.40104623697698116302490234375</LatitudeDegrees>
              <LongitudeDegrees>-8.15582069568336009979248046875</LongitudeDegrees>
            </Position>
            <AltitudeMeters>186</AltitudeMeters>
            <DistanceMeters>202266.5959934</DistanceMeters>
          </Trackpoint>
          <Trackpoint>
            <Time>2018-09-14T08:27:00.000Z</Time>
            <Position>
              <LatitudeDegrees>38.40094498358666896820068359375</LatitudeDegrees>
              <LongitudeDegrees>-8.15596000291407108306884765625</LongitudeDegrees>
            </Position>
            <AltitudeMeters>186.399993896484375</AltitudeMeters>
            <DistanceMeters>202283.16855431</DistanceMeters>
          </Trackpoint>
          <Trackpoint>
            <Time>2018-09-14T08:27:02.000Z</Time>
            <Position>
              <LatitudeDegrees>38.40088731609284877777099609375</LatitudeDegrees>
              <LongitudeDegrees>-8.1560485996305942535400390625</LongitudeDegrees>
            </Position>
            <AltitudeMeters>186.8000030517578125</AltitudeMeters>
            <DistanceMeters>202293.21355676</DistanceMeters>
          </Trackpoint>
          <Trackpoint>
            <Time>2018-09-14T08:27:05.000Z</Time>
            <Position>
              <LatitudeDegrees>38.4008074365556240081787109375</LatitudeDegrees>
              <LongitudeDegrees>-8.1561689637601375579833984375</LongitudeDegrees>
            </Position>
            <AltitudeMeters>187.399993896484375</AltitudeMeters>
            <DistanceMeters>202306.97111476</DistanceMeters>
          </Trackpoint>
          <Trackpoint>
            <Time>2018-09-14T08:27:08.000Z</Time>
            <Position>
              <LatitudeDegrees>38.40073191560804843902587890625</LatitudeDegrees>
              <LongitudeDegrees>-8.1562886573374271392822265625</LongitudeDegrees>
            </Position>
            <AltitudeMeters>188</AltitudeMeters>
            <DistanceMeters>202320.37493515</DistanceMeters>
          </Trackpoint>
          <Trackpoint>
            <Time>2018-09-14T08:27:11.000Z</Time>
            <Position>
              <LatitudeDegrees>38.40065949596464633941650390625</LatitudeDegrees>
              <LongitudeDegrees>-8.1564214266836643218994140625</LongitudeDegrees>
            </Position>
            <AltitudeMeters>188.600006103515625</AltitudeMeters>
            <DistanceMeters>202334.48440237</DistanceMeters>
          </Trackpoint>
          <Trackpoint>
            <Time>2018-09-14T08:27:13.000Z</Time>
            <Position>
              <LatitudeDegrees>38.40060702525079250335693359375</LatitudeDegrees>
              <LongitudeDegrees>-8.1565069220960140228271484375</LongitudeDegrees>
            </Position>
            <AltitudeMeters>189</AltitudeMeters>
            <DistanceMeters>202343.95661645</DistanceMeters>
          </Trackpoint>
          <Trackpoint>
            <Time>2018-09-14T08:27:14.000Z</Time>
            <Position>
              <LatitudeDegrees>38.40058053843677043914794921875</LatitudeDegrees>
              <LongitudeDegrees>-8.15654866397380828857421875</LongitudeDegrees>
            </Position>
            <AltitudeMeters>189.1999969482421875</AltitudeMeters>
            <DistanceMeters>202348.64192496</DistanceMeters>
          </Trackpoint>
          <Trackpoint>
            <Time>2018-09-14T08:27:19.000Z</Time>
            <Position>
              <LatitudeDegrees>38.40045648626983165740966796875</LatitudeDegrees>
              <LongitudeDegrees>-8.15674337558448314666748046875</LongitudeDegrees>
            </Position>
            <AltitudeMeters>190</AltitudeMeters>
            <DistanceMeters>202370.53027199</DistanceMeters>
          </Trackpoint>
          <Trackpoint>
            <Time>2018-09-14T08:27:25.000Z</Time>
            <Position>
              <LatitudeDegrees>38.400304019451141357421875</LatitudeDegrees>
              <LongitudeDegrees>-8.15697781741619110107421875</LongitudeDegrees>
            </Position>
            <AltitudeMeters>190.8000030517578125</AltitudeMeters>
            <DistanceMeters>202397.10413204</DistanceMeters>
          </Trackpoint>
          <Trackpoint>
            <Time>2018-09-14T08:27:29.000Z</Time>
            <Position>
              <LatitudeDegrees>38.40020544826984405517578125</LatitudeDegrees>
              <LongitudeDegrees>-8.157133720815181732177734375</LongitudeDegrees>
            </Position>
            <AltitudeMeters>191.1999969482421875</AltitudeMeters>
            <DistanceMeters>202414.57716511</DistanceMeters>
          </Trackpoint>
          <Trackpoint>
            <Time>2018-09-14T08:27:35.000Z</Time>
            <Position>
              <LatitudeDegrees>38.4000510536134243011474609375</LatitudeDegrees>
              <LongitudeDegrees>-8.15736045129597187042236328125</LongitudeDegrees>
            </Position>
            <AltitudeMeters>191.1999969482421875</AltitudeMeters>
            <DistanceMeters>202440.77697982</DistanceMeters>
          </Trackpoint>
          <Trackpoint>
            <Time>2018-09-14T08:27:42.000Z</Time>
            <Position>
              <LatitudeDegrees>38.399815522134304046630859375</LatitudeDegrees>
              <LongitudeDegrees>-8.1575603596866130828857421875</LongitudeDegrees>
            </Position>
            <AltitudeMeters>191.399993896484375</AltitudeMeters>
            <DistanceMeters>202472.26195611</DistanceMeters>
          </Trackpoint>
          <Trackpoint>
            <Time>2018-09-14T08:27:46.000Z</Time>
            <Position>
              <LatitudeDegrees>38.39965316466987133026123046875</LatitudeDegrees>
              <LongitudeDegrees>-8.1576257385313510894775390625</LongitudeDegrees>
            </Position>
            <AltitudeMeters>191.600006103515625</AltitudeMeters>
            <DistanceMeters>202491.21138855</DistanceMeters>
          </Trackpoint>
          <Trackpoint>
            <Time>2018-09-14T08:27:58.000Z</Time>
            <Position>
              <LatitudeDegrees>38.3990844525396823883056640625</LatitudeDegrees>
              <LongitudeDegrees>-8.15763940103352069854736328125</LongitudeDegrees>
            </Position>
            <AltitudeMeters>193.600006103515625</AltitudeMeters>
            <DistanceMeters>202554.52143492</DistanceMeters>
          </Trackpoint>
          <Trackpoint>
            <Time>2018-09-14T08:28:02.000Z</Time>
            <Position>
              <LatitudeDegrees>38.39889829047024250030517578125</LatitudeDegrees>
              <LongitudeDegrees>-8.157625906169414520263671875</LongitudeDegrees>
            </Position>
            <AltitudeMeters>194.399993896484375</AltitudeMeters>
            <DistanceMeters>202575.27514751</DistanceMeters>
          </Trackpoint>
          <Trackpoint>
            <Time>2018-09-14T08:28:10.000Z</Time>
            <Position>
              <LatitudeDegrees>38.39852579869329929351806640625</LatitudeDegrees>
              <LongitudeDegrees>-8.1576021015644073486328125</LongitudeDegrees>
            </Position>
            <AltitudeMeters>196</AltitudeMeters>
            <DistanceMeters>202616.78627093</DistanceMeters>
          </Trackpoint>
          <Trackpoint>
            <Time>2018-09-14T08:28:19.000Z</Time>
            <Position>
              <LatitudeDegrees>38.3980883471667766571044921875</LatitudeDegrees>
              <LongitudeDegrees>-8.1575704179704189300537109375</LongitudeDegrees>
            </Position>
            <AltitudeMeters>196.399993896484375</AltitudeMeters>
            <DistanceMeters>202665.55395852</DistanceMeters>
          </Trackpoint>
          <Trackpoint>
            <Time>2018-09-14T08:28:25.000Z</Time>
            <Position>
              <LatitudeDegrees>38.397730775177478790283203125</LatitudeDegrees>
              <LongitudeDegrees>-8.15755088813602924346923828125</LongitudeDegrees>
            </Position>
            <AltitudeMeters>196.600006103515625</AltitudeMeters>
            <DistanceMeters>202705.38885796</DistanceMeters>
          </Trackpoint>
          <Trackpoint>
            <Time>2018-09-14T08:28:31.000Z</Time>
            <Position>
              <LatitudeDegrees>38.39731461368501186370849609375</LatitudeDegrees>
              <LongitudeDegrees>-8.15754820592701435089111328125</LongitudeDegrees>
            </Position>
            <AltitudeMeters>196.399993896484375</AltitudeMeters>
            <DistanceMeters>202751.70909353</DistanceMeters>
          </Trackpoint>
          <Trackpoint>
            <Time>2018-09-14T08:28:33.000Z</Time>
            <Position>
              <LatitudeDegrees>38.39717379771173000335693359375</LatitudeDegrees>
              <LongitudeDegrees>-8.15754401497542858123779296875</LongitudeDegrees>
            </Position>
            <AltitudeMeters>196.399993896484375</AltitudeMeters>
            <DistanceMeters>202767.38706153</DistanceMeters>
          </Trackpoint>
          <Trackpoint>
            <Time>2018-09-14T08:28:42.000Z</Time>
            <Position>
              <LatitudeDegrees>38.39659108780324459075927734375</LatitudeDegrees>
              <LongitudeDegrees>-8.15748299472033977508544921875</LongitudeDegrees>
            </Position>
            <AltitudeMeters>197.600006103515625</AltitudeMeters>
            <DistanceMeters>202832.46190782</DistanceMeters>
          </Trackpoint>
          <Trackpoint>
            <Time>2018-09-14T08:28:47.000Z</Time>
            <Position>
              <LatitudeDegrees>38.3962979726493358612060546875</LatitudeDegrees>
              <LongitudeDegrees>-8.15747360698878765106201171875</LongitudeDegrees>
            </Position>
            <AltitudeMeters>199.1999969482421875</AltitudeMeters>
            <DistanceMeters>202865.09649447</DistanceMeters>
          </Trackpoint>
          <Trackpoint>
            <Time>2018-09-14T08:28:53.000Z</Time>
            <Position>
              <LatitudeDegrees>38.39595791883766651153564453125</LatitudeDegrees>
              <LongitudeDegrees>-8.15754099749028682708740234375</LongitudeDegrees>
            </Position>
            <AltitudeMeters>199.8000030517578125</AltitudeMeters>
            <DistanceMeters>202903.39898002</DistanceMeters>
          </Trackpoint>
          <Trackpoint>
            <Time>2018-09-14T08:28:58.000Z</Time>
            <Position>
              <LatitudeDegrees>38.3956874348223209381103515625</LatitudeDegrees>
              <LongitudeDegrees>-8.15759070217609405517578125</LongitudeDegrees>
            </Position>
            <AltitudeMeters>201</AltitudeMeters>
            <DistanceMeters>202933.81495168</DistanceMeters>
          </Trackpoint>
          <Trackpoint>
            <Time>2018-09-14T08:29:04.000Z</Time>
            <Position>
              <LatitudeDegrees>38.3954024501144886016845703125</LatitudeDegrees>
              <LongitudeDegrees>-8.15765549428761005401611328125</LongitudeDegrees>
            </Position>
            <AltitudeMeters>202.399993896484375</AltitudeMeters>
            <DistanceMeters>202966.03363271</DistanceMeters>
          </Trackpoint>
          <Trackpoint>
            <Time>2018-09-14T08:29:07.000Z</Time>
            <Position>
              <LatitudeDegrees>38.39527429081499576568603515625</LatitudeDegrees>
              <LongitudeDegrees>-8.1576830707490444183349609375</LongitudeDegrees>
            </Position>
            <AltitudeMeters>203.1999969482421875</AltitudeMeters>
            <DistanceMeters>202980.49924578</DistanceMeters>
          </Trackpoint>
          <Trackpoint>
            <Time>2018-09-14T08:29:11.000Z</Time>
            <Position>
              <LatitudeDegrees>38.39511536993086338043212890625</LatitudeDegrees>
              <LongitudeDegrees>-8.1577192805707454681396484375</LongitudeDegrees>
            </Position>
            <AltitudeMeters>204.1999969482421875</AltitudeMeters>
            <DistanceMeters>202998.4670863</DistanceMeters>
          </Trackpoint>
          <Trackpoint>
            <Time>2018-09-14T08:29:16.000Z</Time>
            <Position>
              <LatitudeDegrees>38.3949230052530765533447265625</LatitudeDegrees>
              <LongitudeDegrees>-8.1577608548104763031005859375</LongitudeDegrees>
            </Position>
            <AltitudeMeters>205.399993896484375</AltitudeMeters>
            <DistanceMeters>203020.18230198</DistanceMeters>
          </Trackpoint>
          <Trackpoint>
            <Time>2018-09-14T08:29:20.000Z</Time>
            <Position>
              <LatitudeDegrees>38.3947654254734516143798828125</LatitudeDegrees>
              <LongitudeDegrees>-8.15779413096606731414794921875</LongitudeDegrees>
            </Position>
            <AltitudeMeters>206.399993896484375</AltitudeMeters>
            <DistanceMeters>203037.95966442</DistanceMeters>
          </Trackpoint>
          <Trackpoint>
            <Time>2018-09-14T08:29:26.000Z</Time>
            <Position>
              <LatitudeDegrees>38.3945340849459171295166015625</LatitudeDegrees>
              <LongitudeDegrees>-8.15784039907157421112060546875</LongitudeDegrees>
            </Position>
            <AltitudeMeters>207.600006103515625</AltitudeMeters>
            <DistanceMeters>203064.02263567</DistanceMeters>
          </Trackpoint>
          <Trackpoint>
            <Time>2018-09-14T08:29:32.000Z</Time>
            <Position>
              <LatitudeDegrees>38.394310958683490753173828125</LatitudeDegrees>
              <LongitudeDegrees>-8.15779748372733592987060546875</LongitudeDegrees>
            </Position>
            <AltitudeMeters>209</AltitudeMeters>
            <DistanceMeters>203089.13756887</DistanceMeters>
          </Trackpoint>
          <Trackpoint>
            <Time>2018-09-14T08:29:40.000Z</Time>
            <Position>
              <LatitudeDegrees>38.394079618155956268310546875</LatitudeDegrees>
              <LongitudeDegrees>-8.1575372256338596343994140625</LongitudeDegrees>
            </Position>
            <AltitudeMeters>209.399993896484375</AltitudeMeters>
            <DistanceMeters>203123.46576393</DistanceMeters>
          </Trackpoint>
          <Trackpoint>
            <Time>2018-09-14T08:29:47.000Z</Time>
            <Position>
              <LatitudeDegrees>38.39388725347816944122314453125</LatitudeDegrees>
              <LongitudeDegrees>-8.15729892812669277191162109375</LongitudeDegrees>
            </Position>
            <AltitudeMeters>210.1999969482421875</AltitudeMeters>
            <DistanceMeters>203153.30763232</DistanceMeters>
          </Trackpoint>
          <Trackpoint>
            <Time>2018-09-14T08:29:52.000Z</Time>
            <Position>
              <LatitudeDegrees>38.3937554061412811279296875</LatitudeDegrees>
              <LongitudeDegrees>-8.1571238301694393157958984375</LongitudeDegrees>
            </Position>
            <AltitudeMeters>211</AltitudeMeters>
            <DistanceMeters>203174.48921272</DistanceMeters>
          </Trackpoint>
          <Trackpoint>
            <Time>2018-09-14T08:29:56.000Z</Time>
            <Position>
              <LatitudeDegrees>38.3936382271349430084228515625</LatitudeDegrees>
              <LongitudeDegrees>-8.1570024602115154266357421875</LongitudeDegrees>
            </Position>
            <AltitudeMeters>211.8000030517578125</AltitudeMeters>
            <DistanceMeters>203191.28799002</DistanceMeters>
          </Trackpoint>
          <Trackpoint>
            <Time>2018-09-14T08:30:01.000Z</Time>
            <Position>
              <LatitudeDegrees>38.39350185357034206390380859375</LatitudeDegrees>
              <LongitudeDegrees>-8.15684965811669826507568359375</LongitudeDegrees>
            </Position>
            <AltitudeMeters>212.600006103515625</AltitudeMeters>
            <DistanceMeters>203211.48871165</DistanceMeters>
          </Trackpoint>
          <Trackpoint>
            <Time>2018-09-14T08:30:07.000Z</Time>
            <Position>
              <LatitudeDegrees>38.39331812225282192230224609375</LatitudeDegrees>
              <LongitudeDegrees>-8.1568376719951629638671875</LongitudeDegrees>
            </Position>
            <AltitudeMeters>212.8000030517578125</AltitudeMeters>
            <DistanceMeters>203231.96492906</DistanceMeters>
          </Trackpoint>
          <Trackpoint>
            <Time>2018-09-14T08:30:13.000Z</Time>
            <Position>
              <LatitudeDegrees>38.3931572735309600830078125</LatitudeDegrees>
              <LongitudeDegrees>-8.1569628976285457611083984375</LongitudeDegrees>
            </Position>
            <AltitudeMeters>212.1999969482421875</AltitudeMeters>
            <DistanceMeters>203252.93721943</DistanceMeters>
          </Trackpoint>
          <Trackpoint>
            <Time>2018-09-14T08:30:15.000Z</Time>
            <Position>
              <LatitudeDegrees>38.39309197850525379180908203125</LatitudeDegrees>
              <LongitudeDegrees>-8.15702936612069606781005859375</LongitudeDegrees>
            </Position>
            <AltitudeMeters>211.8000030517578125</AltitudeMeters>
            <DistanceMeters>203262.23479556</DistanceMeters>
          </Trackpoint>
          <Trackpoint>
            <Time>2018-09-14T08:30:22.000Z</Time>
            <Position>
              <LatitudeDegrees>38.3929185569286346435546875</LatitudeDegrees>
              <LongitudeDegrees>-8.15735341049730777740478515625</LongitudeDegrees>
            </Position>
            <AltitudeMeters>210.1999969482421875</AltitudeMeters>
            <DistanceMeters>203296.46420424</DistanceMeters>
          </Trackpoint>
          <Trackpoint>
            <Time>2018-09-14T08:30:25.000Z</Time>
            <Position>
              <LatitudeDegrees>38.39285753667354583740234375</LatitudeDegrees>
              <LongitudeDegrees>-8.15747645683586597442626953125</LongitudeDegrees>
            </Position>
            <AltitudeMeters>209.8000030517578125</AltitudeMeters>
            <DistanceMeters>203309.16689828</DistanceMeters>
          </Trackpoint>
          <Trackpoint>
            <Time>2018-09-14T08:30:28.000Z</Time>
            <Position>
              <LatitudeDegrees>38.39283633045852184295654296875</LatitudeDegrees>
              <LongitudeDegrees>-8.15759195946156978607177734375</LongitudeDegrees>
            </Position>
            <AltitudeMeters>209.1999969482421875</AltitudeMeters>
            <DistanceMeters>203319.51565215</DistanceMeters>
          </Trackpoint>
          <Trackpoint>
            <Time>2018-09-14T08:30:30.000Z</Time>
            <Position>
              <LatitudeDegrees>38.3928305469453334808349609375</LatitudeDegrees>
              <LongitudeDegrees>-8.157637976109981536865234375</LongitudeDegrees>
            </Position>
            <AltitudeMeters>209.1999969482421875</AltitudeMeters>
            <DistanceMeters>203323.58186291</DistanceMeters>
          </Trackpoint>
          <Trackpoint>
            <Time>2018-09-14T08:30:34.000Z</Time>
            <Position>
              <LatitudeDegrees>38.392818309366703033447265625</LatitudeDegrees>
              <LongitudeDegrees>-8.15764660947024822235107421875</LongitudeDegrees>
            </Position>
            <AltitudeMeters>209.1999969482421875</AltitudeMeters>
            <DistanceMeters>203325.13751727</DistanceMeters>
          </Trackpoint>
          <Trackpoint>
            <Time>2018-09-14T08:30:37.000Z</Time>
            <Position>
              <LatitudeDegrees>38.39283515699207782745361328125</LatitudeDegrees>
              <LongitudeDegrees>-8.15760671161115169525146484375</LongitudeDegrees>
            </Position>
            <AltitudeMeters>209.1999969482421875</AltitudeMeters>
            <DistanceMeters>203329.09227294</DistanceMeters>
          </Trackpoint>
          <Trackpoint>
            <Time>2018-09-14T08:30:38.000Z</Time>
            <Position>
              <LatitudeDegrees>38.3928365819156169891357421875</LatitudeDegrees>
              <LongitudeDegrees>-8.15758709795773029327392578125</LongitudeDegrees>
            </Position>
            <AltitudeMeters>209.399993896484375</AltitudeMeters>
            <DistanceMeters>203330.80802494</DistanceMeters>
          </Trackpoint>
          <Trackpoint>
            <Time>2018-09-14T08:30:43.000Z</Time>
            <Position>
              <LatitudeDegrees>38.39272149838507175445556640625</LatitudeDegrees>
              <LongitudeDegrees>-8.15751668997108936309814453125</LongitudeDegrees>
            </Position>
            <AltitudeMeters>209.399993896484375</AltitudeMeters>
            <DistanceMeters>203345.01380364</DistanceMeters>
          </Trackpoint>
          <Trackpoint>
            <Time>2018-09-14T08:30:49.000Z</Time>
            <Position>
              <LatitudeDegrees>38.392493762075901031494140625</LatitudeDegrees>
              <LongitudeDegrees>-8.1574272550642490386962890625</LongitudeDegrees>
            </Position>
            <AltitudeMeters>209.600006103515625</AltitudeMeters>
            <DistanceMeters>203371.53494076</DistanceMeters>
          </Trackpoint>
          <Trackpoint>
            <Time>2018-09-14T08:30:53.000Z</Time>
            <Position>
              <LatitudeDegrees>38.39237314648926258087158203125</LatitudeDegrees>
              <LongitudeDegrees>-8.157339580357074737548828125</LongitudeDegrees>
            </Position>
            <AltitudeMeters>210</AltitudeMeters>
            <DistanceMeters>203386.985478</DistanceMeters>
          </Trackpoint>
          <Trackpoint>
            <Time>2018-09-14T08:31:00.000Z</Time>
            <Position>
              <LatitudeDegrees>38.3922233618795871734619140625</LatitudeDegrees>
              <LongitudeDegrees>-8.1572520732879638671875</LongitudeDegrees>
            </Position>
            <AltitudeMeters>210.1999969482421875</AltitudeMeters>
            <DistanceMeters>203405.32120204</DistanceMeters>
          </Trackpoint>
          <Trackpoint>
            <Time>2018-09-14T08:31:03.000Z</Time>
            <Position>
              <LatitudeDegrees>38.3921831287443637847900390625</LatitudeDegrees>
              <LongitudeDegrees>-8.15727646462619304656982421875</LongitudeDegrees>
            </Position>
            <AltitudeMeters>210</AltitudeMeters>
            <DistanceMeters>203410.27901084</DistanceMeters>
          </Trackpoint>
          <Trackpoint>
            <Time>2018-09-14T08:31:07.000Z</Time>
            <Position>
              <LatitudeDegrees>38.3921697176992893218994140625</LatitudeDegrees>
              <LongitudeDegrees>-8.157298006117343902587890625</LongitudeDegrees>
            </Position>
            <AltitudeMeters>210</AltitudeMeters>
            <DistanceMeters>203412.67925849</DistanceMeters>
          </Trackpoint>
          <Trackpoint>
            <Time>2018-09-14T08:31:17.000Z</Time>
            <Position>
              <LatitudeDegrees>38.39212822727859020233154296875</LatitudeDegrees>
              <LongitudeDegrees>-8.15731334500014781951904296875</LongitudeDegrees>
            </Position>
            <AltitudeMeters>209.8000030517578125</AltitudeMeters>
            <DistanceMeters>203417.48727218</DistanceMeters>
          </Trackpoint>
          <Trackpoint>
            <Time>2018-09-14T08:31:18.000Z</Time>
            <Position>
              <LatitudeDegrees>38.3921097032725811004638671875</LatitudeDegrees>
              <LongitudeDegrees>-8.15730915404856204986572265625</LongitudeDegrees>
            </Position>
            <AltitudeMeters>209.8000030517578125</AltitudeMeters>
            <DistanceMeters>203419.58217484</DistanceMeters>
          </Trackpoint>
          <Trackpoint>
            <Time>2018-09-14T08:31:23.000Z</Time>
            <Position>
              <LatitudeDegrees>38.3920862339437007904052734375</LatitudeDegrees>
              <LongitudeDegrees>-8.15715308301150798797607421875</LongitudeDegrees>
            </Position>
            <AltitudeMeters>209.8000030517578125</AltitudeMeters>
            <DistanceMeters>203433.44565734</DistanceMeters>
          </Trackpoint>
          <Trackpoint>
            <Time>2018-09-14T08:31:31.000Z</Time>
            <Position>
              <LatitudeDegrees>38.39210090227425098419189453125</LatitudeDegrees>
              <LongitudeDegrees>-8.156824596226215362548828125</LongitudeDegrees>
            </Position>
            <AltitudeMeters>210.399993896484375</AltitudeMeters>
            <DistanceMeters>203462.14797265</DistanceMeters>
          </Trackpoint>
          <Trackpoint>
            <Time>2018-09-14T08:31:44.000Z</Time>
            <Position>
              <LatitudeDegrees>38.39212386868894100189208984375</LatitudeDegrees>
              <LongitudeDegrees>-8.15652460791170597076416015625</LongitudeDegrees>
            </Position>
            <AltitudeMeters>211</AltitudeMeters>
            <DistanceMeters>203488.44239854</DistanceMeters>
          </Trackpoint>
          <Trackpoint>
            <Time>2018-09-14T08:39:53.000Z</Time>
            <Position>
              <LatitudeDegrees>38.39216209016740322113037109375</LatitudeDegrees>
              <LongitudeDegrees>-8.156604655086994171142578125</LongitudeDegrees>
            </Position>
            <AltitudeMeters>211</AltitudeMeters>
            <DistanceMeters>203496.61911463</DistanceMeters>
          </Trackpoint>
          <Trackpoint>
            <Time>2018-09-14T08:39:54.000Z</Time>
            <Position>
              <LatitudeDegrees>38.3921673707664012908935546875</LatitudeDegrees>
              <LongitudeDegrees>-8.15662770532071590423583984375</LongitudeDegrees>
            </Position>
            <AltitudeMeters>211</AltitudeMeters>
            <DistanceMeters>203498.71401729</DistanceMeters>
          </Trackpoint>
          <Trackpoint>
            <Time>2018-09-14T08:39:57.000Z</Time>
            <Position>
              <LatitudeDegrees>38.39219343848526477813720703125</LatitudeDegrees>
              <LongitudeDegrees>-8.1567184813320636749267578125</LongitudeDegrees>
            </Position>
            <AltitudeMeters>211</AltitudeMeters>
            <DistanceMeters>203507.14840774</DistanceMeters>
          </Trackpoint>
          <Trackpoint>
            <Time>2018-09-14T08:40:05.000Z</Time>
            <Position>
              <LatitudeDegrees>38.3923346735537052154541015625</LatitudeDegrees>
              <LongitudeDegrees>-8.1570279411971569061279296875</LongitudeDegrees>
            </Position>
            <AltitudeMeters>211.1999969482421875</AltitudeMeters>
            <DistanceMeters>203538.38763614</DistanceMeters>
          </Trackpoint>
          <Trackpoint>
            <Time>2018-09-14T08:40:09.000Z</Time>
            <Position>
              <LatitudeDegrees>38.39227407239377498626708984375</LatitudeDegrees>
              <LongitudeDegrees>-8.15720085985958576202392578125</LongitudeDegrees>
            </Position>
            <AltitudeMeters>210.600006103515625</AltitudeMeters>
            <DistanceMeters>203554.9119047</DistanceMeters>
          </Trackpoint>
          <Trackpoint>
            <Time>2018-09-14T08:40:11.000Z</Time>
            <Position>
              <LatitudeDegrees>38.3922049216926097869873046875</LatitudeDegrees>
              <LongitudeDegrees>-8.1572572700679302215576171875</LongitudeDegrees>
            </Position>
            <AltitudeMeters>210.1999969482421875</AltitudeMeters>
            <DistanceMeters>203564.0463399</DistanceMeters>
          </Trackpoint>
          <Trackpoint>
            <Time>2018-09-14T08:40:16.000Z</Time>
            <Position>
              <LatitudeDegrees>38.39207290671765804290771484375</LatitudeDegrees>
              <LongitudeDegrees>-8.15749757923185825347900390625</LongitudeDegrees>
            </Position>
            <AltitudeMeters>208.8000030517578125</AltitudeMeters>
            <DistanceMeters>203589.64664963</DistanceMeters>
          </Trackpoint>
          <Trackpoint>
            <Time>2018-09-14T08:40:19.000Z</Time>
            <Position>
              <LatitudeDegrees>38.3920292370021343231201171875</LatitudeDegrees>
              <LongitudeDegrees>-8.15768701024353504180908203125</LongitudeDegrees>
            </Position>
            <AltitudeMeters>208.1999969482421875</AltitudeMeters>
            <DistanceMeters>203606.87192907</DistanceMeters>
          </Trackpoint>
          <Trackpoint>
            <Time>2018-09-14T08:40:22.000Z</Time>
            <Position>
              <LatitudeDegrees>38.39199227280914783477783203125</LatitudeDegrees>
              <LongitudeDegrees>-8.15787275321781635284423828125</LongitudeDegrees>
            </Position>
            <AltitudeMeters>207.8000030517578125</AltitudeMeters>
            <DistanceMeters>203623.58934023</DistanceMeters>
          </Trackpoint>
          <Trackpoint>
            <Time>2018-09-14T08:40:26.000Z</Time>
            <Position>
              <LatitudeDegrees>38.3919393830001354217529296875</LatitudeDegrees>
              <LongitudeDegrees>-8.1581212766468524932861328125</LongitudeDegrees>
            </Position>
            <AltitudeMeters>207.600006103515625</AltitudeMeters>
            <DistanceMeters>203646.05466845</DistanceMeters>
          </Trackpoint>
          <Trackpoint>
            <Time>2018-09-14T08:40:34.000Z</Time>
            <Position>
              <LatitudeDegrees>38.391790352761745452880859375</LatitudeDegrees>
              <LongitudeDegrees>-8.1586079299449920654296875</LongitudeDegrees>
            </Position>
            <AltitudeMeters>207.1999969482421875</AltitudeMeters>
            <DistanceMeters>203691.63392269</DistanceMeters>
          </Trackpoint>
          <Trackpoint>
            <Time>2018-09-14T08:40:44.000Z</Time>
            <Position>
              <LatitudeDegrees>38.39151450432837009429931640625</LatitudeDegrees>
              <LongitudeDegrees>-8.1591814197599887847900390625</LongitudeDegrees>
            </Position>
            <AltitudeMeters>207.600006103515625</AltitudeMeters>
            <DistanceMeters>203750.33297872</DistanceMeters>
          </Trackpoint>
          <Trackpoint>
            <Time>2018-09-14T08:40:51.000Z</Time>
            <Position>
              <LatitudeDegrees>38.39127830229699611663818359375</LatitudeDegrees>
              <LongitudeDegrees>-8.1595522351562976837158203125</LongitudeDegrees>
            </Position>
            <AltitudeMeters>207.600006103515625</AltitudeMeters>
            <DistanceMeters>203792.01733273</DistanceMeters>
          </Trackpoint>
          <Trackpoint>
            <Time>2018-09-14T08:41:01.000Z</Time>
            <Position>
              <LatitudeDegrees>38.39091469533741474151611328125</LatitudeDegrees>
              <LongitudeDegrees>-8.160084150731563568115234375</LongitudeDegrees>
            </Position>
            <AltitudeMeters>207.600006103515625</AltitudeMeters>
            <DistanceMeters>203853.58892418</DistanceMeters>
          </Trackpoint>
          <Trackpoint>
            <Time>2018-09-14T08:41:05.000Z</Time>
            <Position>
              <LatitudeDegrees>38.3907709456980228424072265625</LatitudeDegrees>
              <LongitudeDegrees>-8.16029931418597698211669921875</LongitudeDegrees>
            </Position>
            <AltitudeMeters>207</AltitudeMeters>
            <DistanceMeters>203878.25307082</DistanceMeters>
          </Trackpoint>
          <Trackpoint>
            <Time>2018-09-14T08:41:09.000Z</Time>
            <Position>
              <LatitudeDegrees>38.39062099345028400421142578125</LatitudeDegrees>
              <LongitudeDegrees>-8.16052176989614963531494140625</LongitudeDegrees>
            </Position>
            <AltitudeMeters>206.399993896484375</AltitudeMeters>
            <DistanceMeters>203903.8493238</DistanceMeters>
          </Trackpoint>
          <Trackpoint>
            <Time>2018-09-14T08:41:16.000Z</Time>
            <Position>
              <LatitudeDegrees>38.3903555385768413543701171875</LatitudeDegrees>
              <LongitudeDegrees>-8.16090348176658153533935546875</LongitudeDegrees>
            </Position>
            <AltitudeMeters>205.1999969482421875</AltitudeMeters>
            <DistanceMeters>203948.36708292</DistanceMeters>
          </Trackpoint>
          <Trackpoint>
            <Time>2018-09-14T08:41:18.000Z</Time>
            <Position>
              <LatitudeDegrees>38.3902824483811855316162109375</LatitudeDegrees>
              <LongitudeDegrees>-8.16101060248911380767822265625</LongitudeDegrees>
            </Position>
            <AltitudeMeters>204.8000030517578125</AltitudeMeters>
            <DistanceMeters>203960.75705062</DistanceMeters>
          </Trackpoint>
          <Trackpoint>
            <Time>2018-09-14T08:41:22.000Z</Time>
            <Position>
              <LatitudeDegrees>38.39013903401792049407958984375</LatitudeDegrees>
              <LongitudeDegrees>-8.1612225808203220367431640625</LongitudeDegrees>
            </Position>
            <AltitudeMeters>204.399993896484375</AltitudeMeters>
            <DistanceMeters>203985.18612534</DistanceMeters>
          </Trackpoint>
          <Trackpoint>
            <Time>2018-09-14T08:41:30.000Z</Time>
            <Position>
              <LatitudeDegrees>38.38985304348170757293701171875</LatitudeDegrees>
              <LongitudeDegrees>-8.16160923801362514495849609375</LongitudeDegrees>
            </Position>
            <AltitudeMeters>204.399993896484375</AltitudeMeters>
            <DistanceMeters>204031.5653928</DistanceMeters>
          </Trackpoint>
          <Trackpoint>
            <Time>2018-09-14T08:41:41.000Z</Time>
            <Position>
              <LatitudeDegrees>38.389466889202594757080078125</LatitudeDegrees>
              <LongitudeDegrees>-8.16214785911142826080322265625</LongitudeDegrees>
            </Position>
            <AltitudeMeters>204.600006103515625</AltitudeMeters>
            <DistanceMeters>204095.24591313</DistanceMeters>
          </Trackpoint>
          <Trackpoint>
            <Time>2018-09-14T08:41:49.000Z</Time>
            <Position>
              <LatitudeDegrees>38.38918165303766727447509765625</LatitudeDegrees>
              <LongitudeDegrees>-8.1625569798052310943603515625</LongitudeDegrees>
            </Position>
            <AltitudeMeters>204.1999969482421875</AltitudeMeters>
            <DistanceMeters>204143.01383014</DistanceMeters>
          </Trackpoint>
          <Trackpoint>
            <Time>2018-09-14T08:41:52.000Z</Time>
            <Position>
              <LatitudeDegrees>38.389069251716136932373046875</LatitudeDegrees>
              <LongitudeDegrees>-8.16271665506064891815185546875</LongitudeDegrees>
            </Position>
            <AltitudeMeters>204</AltitudeMeters>
            <DistanceMeters>204161.73698687</DistanceMeters>
          </Trackpoint>
          <Trackpoint>
            <Time>2018-09-14T08:41:58.000Z</Time>
            <Position>
              <LatitudeDegrees>38.38884000666439533233642578125</LatitudeDegrees>
              <LongitudeDegrees>-8.1630481593310832977294921875</LongitudeDegrees>
            </Position>
            <AltitudeMeters>203.1999969482421875</AltitudeMeters>
            <DistanceMeters>204200.30425527</DistanceMeters>
          </Trackpoint>
          <Trackpoint>
            <Time>2018-09-14T08:42:00.000Z</Time>
            <Position>
              <LatitudeDegrees>38.38876314461231231689453125</LatitudeDegrees>
              <LongitudeDegrees>-8.1631554476916790008544921875</LongitudeDegrees>
            </Position>
            <AltitudeMeters>203</AltitudeMeters>
            <DistanceMeters>204212.98453686</DistanceMeters>
          </Trackpoint>
          <Trackpoint>
            <Time>2018-09-14T08:42:11.000Z</Time>
            <Position>
              <LatitudeDegrees>38.3883867971599102020263671875</LatitudeDegrees>
              <LongitudeDegrees>-8.16371259279549121856689453125</LongitudeDegrees>
            </Position>
            <AltitudeMeters>201.8000030517578125</AltitudeMeters>
            <DistanceMeters>204277.14931593</DistanceMeters>
          </Trackpoint>
          <Trackpoint>
            <Time>2018-09-14T08:42:15.000Z</Time>
            <Position>
              <LatitudeDegrees>38.38826551102101802825927734375</LatitudeDegrees>
              <LongitudeDegrees>-8.16390420310199260711669921875</LongitudeDegrees>
            </Position>
            <AltitudeMeters>201.1999969482421875</AltitudeMeters>
            <DistanceMeters>204298.63586261</DistanceMeters>
          </Trackpoint>
          <Trackpoint>
            <Time>2018-09-14T08:42:21.000Z</Time>
            <Position>
              <LatitudeDegrees>38.38805512525141239166259765625</LatitudeDegrees>
              <LongitudeDegrees>-8.16423453390598297119140625</LongitudeDegrees>
            </Position>
            <AltitudeMeters>200.399993896484375</AltitudeMeters>
            <DistanceMeters>204335.76833401</DistanceMeters>
          </Trackpoint>
          <Trackpoint>
            <Time>2018-09-14T08:42:30.000Z</Time>
            <Position>
              <LatitudeDegrees>38.38772756047546863555908203125</LatitudeDegrees>
              <LongitudeDegrees>-8.164751864969730377197265625</LongitudeDegrees>
            </Position>
            <AltitudeMeters>198</AltitudeMeters>
            <DistanceMeters>204393.78710439</DistanceMeters>
          </Trackpoint>
          <Trackpoint>
            <Time>2018-09-14T08:42:34.000Z</Time>
            <Position>
              <LatitudeDegrees>38.3875930309295654296875</LatitudeDegrees>
              <LongitudeDegrees>-8.16500625573098659515380859375</LongitudeDegrees>
            </Position>
            <AltitudeMeters>197.1999969482421875</AltitudeMeters>
            <DistanceMeters>204420.5591842</DistanceMeters>
          </Trackpoint>
          <Trackpoint>
            <Time>2018-09-14T08:42:36.000Z</Time>
            <Position>
              <LatitudeDegrees>38.38748641312122344970703125</LatitudeDegrees>
              <LongitudeDegrees>-8.16510222852230072021484375</LongitudeDegrees>
            </Position>
            <AltitudeMeters>197</AltitudeMeters>
            <DistanceMeters>204435.08211419</DistanceMeters>
          </Trackpoint>
          <Trackpoint>
            <Time>2018-09-14T08:42:37.000Z</Time>
            <Position>
              <LatitudeDegrees>38.38743167929351329803466796875</LatitudeDegrees>
              <LongitudeDegrees>-8.16515721380710601806640625</LongitudeDegrees>
            </Position>
            <AltitudeMeters>197</AltitudeMeters>
            <DistanceMeters>204442.83596801</DistanceMeters>
          </Trackpoint>
          <Trackpoint>
            <Time>2018-09-14T08:42:43.000Z</Time>
            <Position>
              <LatitudeDegrees>38.3871305175125598907470703125</LatitudeDegrees>
              <LongitudeDegrees>-8.16557697951793670654296875</LongitudeDegrees>
            </Position>
            <AltitudeMeters>196.399993896484375</AltitudeMeters>
            <DistanceMeters>204492.48167432</DistanceMeters>
          </Trackpoint>
          <Trackpoint>
            <Time>2018-09-14T08:42:46.000Z</Time>
            <Position>
              <LatitudeDegrees>38.38698240928351879119873046875</LatitudeDegrees>
              <LongitudeDegrees>-8.16579432226717472076416015625</LongitudeDegrees>
            </Position>
            <AltitudeMeters>196.1999969482421875</AltitudeMeters>
            <DistanceMeters>204517.60703231</DistanceMeters>
          </Trackpoint>
          <Trackpoint>
            <Time>2018-09-14T08:42:48.000Z</Time>
            <Position>
              <LatitudeDegrees>38.38688383810222148895263671875</LatitudeDegrees>
              <LongitudeDegrees>-8.16593497060239315032958984375</LongitudeDegrees>
            </Position>
            <AltitudeMeters>196</AltitudeMeters>
            <DistanceMeters>204534.06696498</DistanceMeters>
          </Trackpoint>
          <Trackpoint>
            <Time>2018-09-14T08:42:56.000Z</Time>
            <Position>
              <LatitudeDegrees>38.38650933466851711273193359375</LatitudeDegrees>
              <LongitudeDegrees>-8.1664780341088771820068359375</LongitudeDegrees>
            </Position>
            <AltitudeMeters>195</AltitudeMeters>
            <DistanceMeters>204597.17142925</DistanceMeters>
          </Trackpoint>
          <Trackpoint>
            <Time>2018-09-14T08:42:58.000Z</Time>
            <Position>
              <LatitudeDegrees>38.3864183910191059112548828125</LatitudeDegrees>
              <LongitudeDegrees>-8.16661122255027294158935546875</LongitudeDegrees>
            </Position>
            <AltitudeMeters>194.8000030517578125</AltitudeMeters>
            <DistanceMeters>204612.58158662</DistanceMeters>
          </Trackpoint>
          <Trackpoint>
            <Time>2018-09-14T08:43:01.000Z</Time>
            <Position>
              <LatitudeDegrees>38.38627933524549007415771484375</LatitudeDegrees>
              <LongitudeDegrees>-8.1668106280267238616943359375</LongitudeDegrees>
            </Position>
            <AltitudeMeters>194.399993896484375</AltitudeMeters>
            <DistanceMeters>204635.86642826</DistanceMeters>
          </Trackpoint>
          <Trackpoint>
            <Time>2018-09-14T08:43:02.000Z</Time>
            <Position>
              <LatitudeDegrees>38.38623306713998317718505859375</LatitudeDegrees>
              <LongitudeDegrees>-8.166877515614032745361328125</LongitudeDegrees>
            </Position>
            <AltitudeMeters>194.1999969482421875</AltitudeMeters>
            <DistanceMeters>204643.64934241</DistanceMeters>
          </Trackpoint>
          <Trackpoint>
            <Time>2018-09-14T08:43:04.000Z</Time>
            <Position>
              <LatitudeDegrees>38.3861401118338108062744140625</LatitudeDegrees>
              <LongitudeDegrees>-8.16701103933155536651611328125</LongitudeDegrees>
            </Position>
            <AltitudeMeters>194</AltitudeMeters>
            <DistanceMeters>204659.22966703</DistanceMeters>
          </Trackpoint>
          <Trackpoint>
            <Time>2018-09-14T08:43:13.000Z</Time>
            <Position>
              <LatitudeDegrees>38.38574741967022418975830078125</LatitudeDegrees>
              <LongitudeDegrees>-8.16757857799530029296875</LongitudeDegrees>
            </Position>
            <AltitudeMeters>192.399993896484375</AltitudeMeters>
            <DistanceMeters>204725.27501097</DistanceMeters>
          </Trackpoint>
          <Trackpoint>
            <Time>2018-09-14T08:43:16.000Z</Time>
            <Position>
              <LatitudeDegrees>38.3856200985610485076904296875</LatitudeDegrees>
              <LongitudeDegrees>-8.16775702871382236480712890625</LongitudeDegrees>
            </Position>
            <AltitudeMeters>192.399993896484375</AltitudeMeters>
            <DistanceMeters>204746.32744983</DistanceMeters>
          </Trackpoint>
          <Trackpoint>
            <Time>2018-09-14T08:43:24.000Z</Time>
            <Position>
              <LatitudeDegrees>38.3852915279567241668701171875</LatitudeDegrees>
              <LongitudeDegrees>-8.16823312081396579742431640625</LongitudeDegrees>
            </Position>
            <AltitudeMeters>192.8000030517578125</AltitudeMeters>
            <DistanceMeters>204801.66874351</DistanceMeters>
          </Trackpoint>
          <Trackpoint>
            <Time>2018-09-14T08:43:30.000Z</Time>
            <Position>
              <LatitudeDegrees>38.385045938193798065185546875</LatitudeDegrees>
              <LongitudeDegrees>-8.168590776622295379638671875</LongitudeDegrees>
            </Position>
            <AltitudeMeters>192.8000030517578125</AltitudeMeters>
            <DistanceMeters>204843.15179557</DistanceMeters>
          </Trackpoint>
          <Trackpoint>
            <Time>2018-09-14T08:43:35.000Z</Time>
            <Position>
              <LatitudeDegrees>38.38483949191868305206298828125</LatitudeDegrees>
              <LongitudeDegrees>-8.16889084875583648681640625</LongitudeDegrees>
            </Position>
            <AltitudeMeters>192.600006103515625</AltitudeMeters>
            <DistanceMeters>204877.98514657</DistanceMeters>
          </Trackpoint>
          <Trackpoint>
            <Time>2018-09-14T08:43:44.000Z</Time>
            <Position>
              <LatitudeDegrees>38.38446850888431072235107421875</LatitudeDegrees>
              <LongitudeDegrees>-8.16942519508302211761474609375</LongitudeDegrees>
            </Position>
            <AltitudeMeters>192.399993896484375</AltitudeMeters>
            <DistanceMeters>204940.2612212</DistanceMeters>
          </Trackpoint>
          <Trackpoint>
            <Time>2018-09-14T08:43:53.000Z</Time>
            <Position>
              <LatitudeDegrees>38.38409836404025554656982421875</LatitudeDegrees>
              <LongitudeDegrees>-8.16995912231504917144775390625</LongitudeDegrees>
            </Position>
            <AltitudeMeters>193</AltitudeMeters>
            <DistanceMeters>205002.44820165</DistanceMeters>
          </Trackpoint>
          <Trackpoint>
            <Time>2018-09-14T08:44:02.000Z</Time>
            <Position>
              <LatitudeDegrees>38.38373509235680103302001953125</LatitudeDegrees>
              <LongitudeDegrees>-8.17047846503555774688720703125</LongitudeDegrees>
            </Position>
            <AltitudeMeters>193.1999969482421875</AltitudeMeters>
            <DistanceMeters>205063.17599726</DistanceMeters>
          </Trackpoint>
          <Trackpoint>
            <Time>2018-09-14T08:44:09.000Z</Time>
            <Position>
              <LatitudeDegrees>38.3834744989871978759765625</LatitudeDegrees>
              <LongitudeDegrees>-8.17085900343954563140869140625</LongitudeDegrees>
            </Position>
            <AltitudeMeters>193.1999969482421875</AltitudeMeters>
            <DistanceMeters>205107.26153143</DistanceMeters>
          </Trackpoint>
          <Trackpoint>
            <Time>2018-09-14T08:44:18.000Z</Time>
            <Position>
              <LatitudeDegrees>38.38316042907536029815673828125</LatitudeDegrees>
              <LongitudeDegrees>-8.171287067234516143798828125</LongitudeDegrees>
            </Position>
            <AltitudeMeters>195.399993896484375</AltitudeMeters>
            <DistanceMeters>205158.41592198</DistanceMeters>
          </Trackpoint>
          <Trackpoint>
            <Time>2018-09-14T08:44:24.000Z</Time>
            <Position>
              <LatitudeDegrees>38.38297468610107898712158203125</LatitudeDegrees>
              <LongitudeDegrees>-8.17147507332265377044677734375</LongitudeDegrees>
            </Position>
            <AltitudeMeters>196.600006103515625</AltitudeMeters>
            <DistanceMeters>205184.80633076</DistanceMeters>
          </Trackpoint>
          <Trackpoint>
            <Time>2018-09-14T08:44:28.000Z</Time>
            <Position>
              <LatitudeDegrees>38.38285348378121852874755859375</LatitudeDegrees>
              <LongitudeDegrees>-8.171576745808124542236328125</LongitudeDegrees>
            </Position>
            <AltitudeMeters>197.600006103515625</AltitudeMeters>
            <DistanceMeters>205200.95164639</DistanceMeters>
          </Trackpoint>
          <Trackpoint>
            <Time>2018-09-14T08:44:33.000Z</Time>
            <Position>
              <LatitudeDegrees>38.3827068842947483062744140625</LatitudeDegrees>
              <LongitudeDegrees>-8.1716836988925933837890625</LongitudeDegrees>
            </Position>
            <AltitudeMeters>198.600006103515625</AltitudeMeters>
            <DistanceMeters>205219.74820913</DistanceMeters>
          </Trackpoint>
          <Trackpoint>
            <Time>2018-09-14T08:44:38.000Z</Time>
            <Position>
              <LatitudeDegrees>38.3825596980750560760498046875</LatitudeDegrees>
              <LongitudeDegrees>-8.1717666797339916229248046875</LongitudeDegrees>
            </Position>
            <AltitudeMeters>200</AltitudeMeters>
            <DistanceMeters>205237.65866517</DistanceMeters>
          </Trackpoint>
          <Trackpoint>
            <Time>2018-09-14T08:44:44.000Z</Time>
            <Position>
              <LatitudeDegrees>38.38236733339726924896240234375</LatitudeDegrees>
              <LongitudeDegrees>-8.17185737192630767822265625</LongitudeDegrees>
            </Position>
            <AltitudeMeters>201.399993896484375</AltitudeMeters>
            <DistanceMeters>205260.48446966</DistanceMeters>
          </Trackpoint>
          <Trackpoint>
            <Time>2018-09-14T08:44:50.000Z</Time>
            <Position>
              <LatitudeDegrees>38.38217270560562610626220703125</LatitudeDegrees>
              <LongitudeDegrees>-8.171926774084568023681640625</LongitudeDegrees>
            </Position>
            <AltitudeMeters>203</AltitudeMeters>
            <DistanceMeters>205282.9771143</DistanceMeters>
          </Trackpoint>
          <Trackpoint>
            <Time>2018-09-14T08:44:51.000Z</Time>
            <Position>
              <LatitudeDegrees>38.382139094173908233642578125</LatitudeDegrees>
              <LongitudeDegrees>-8.1719385087490081787109375</LongitudeDegrees>
            </Position>
            <AltitudeMeters>203.399993896484375</AltitudeMeters>
            <DistanceMeters>205286.85578771</DistanceMeters>
          </Trackpoint>
          <Trackpoint>
            <Time>2018-09-14T08:44:58.000Z</Time>
            <Position>
              <LatitudeDegrees>38.38191278278827667236328125</LatitudeDegrees>
              <LongitudeDegrees>-8.17201570607721805572509765625</LongitudeDegrees>
            </Position>
            <AltitudeMeters>205.1999969482421875</AltitudeMeters>
            <DistanceMeters>205312.92967052</DistanceMeters>
          </Trackpoint>
          <Trackpoint>
            <Time>2018-09-14T08:45:03.000Z</Time>
            <Position>
              <LatitudeDegrees>38.38175109587609767913818359375</LatitudeDegrees>
              <LongitudeDegrees>-8.17207471467554569244384765625</LongitudeDegrees>
            </Position>
            <AltitudeMeters>206.399993896484375</AltitudeMeters>
            <DistanceMeters>205331.64752125</DistanceMeters>
          </Trackpoint>
          <Trackpoint>
            <Time>2018-09-14T08:45:09.000Z</Time>
            <Position>
              <LatitudeDegrees>38.3815548755228519439697265625</LatitudeDegrees>
              <LongitudeDegrees>-8.1721445359289646148681640625</LongitudeDegrees>
            </Position>
            <AltitudeMeters>207.8000030517578125</AltitudeMeters>
            <DistanceMeters>205354.32090327</DistanceMeters>
          </Trackpoint>
          <Trackpoint>
            <Time>2018-09-14T08:45:16.000Z</Time>
            <Position>
              <LatitudeDegrees>38.38132361881434917449951171875</LatitudeDegrees>
              <LongitudeDegrees>-8.1722229905426502227783203125</LongitudeDegrees>
            </Position>
            <AltitudeMeters>209.600006103515625</AltitudeMeters>
            <DistanceMeters>205380.95484186</DistanceMeters>
          </Trackpoint>
          <Trackpoint>
            <Time>2018-09-14T08:45:19.000Z</Time>
            <Position>
              <LatitudeDegrees>38.3812219463288784027099609375</LatitudeDegrees>
              <LongitudeDegrees>-8.17225744016468524932861328125</LongitudeDegrees>
            </Position>
            <AltitudeMeters>210.399993896484375</AltitudeMeters>
            <DistanceMeters>205392.66358307</DistanceMeters>
          </Trackpoint>
          <Trackpoint>
            <Time>2018-09-14T08:45:24.000Z</Time>
            <Position>
              <LatitudeDegrees>38.3810499496757984161376953125</LatitudeDegrees>
              <LongitudeDegrees>-8.172319047152996063232421875</LongitudeDegrees>
            </Position>
            <AltitudeMeters>211.8000030517578125</AltitudeMeters>
            <DistanceMeters>205412.54756826</DistanceMeters>
          </Trackpoint>
          <Trackpoint>
            <Time>2018-09-14T08:45:31.000Z</Time>
            <Position>
              <LatitudeDegrees>38.3808182738721370697021484375</LatitudeDegrees>
              <LongitudeDegrees>-8.17240227945148944854736328125</LongitudeDegrees>
            </Position>
            <AltitudeMeters>212.8000030517578125</AltitudeMeters>
            <DistanceMeters>205439.33667603</DistanceMeters>
          </Trackpoint>
          <Trackpoint>
            <Time>2018-09-14T08:45:37.000Z</Time>
            <Position>
              <LatitudeDegrees>38.3806194551289081573486328125</LatitudeDegrees>
              <LongitudeDegrees>-8.1724717654287815093994140625</LongitudeDegrees>
            </Position>
            <AltitudeMeters>213.399993896484375</AltitudeMeters>
            <DistanceMeters>205462.28105283</DistanceMeters>
          </Trackpoint>
          <Trackpoint>
            <Time>2018-09-14T08:45:42.000Z</Time>
            <Position>
              <LatitudeDegrees>38.3804543316364288330078125</LatitudeDegrees>
              <LongitudeDegrees>-8.17253354005515575408935546875</LongitudeDegrees>
            </Position>
            <AltitudeMeters>213.8000030517578125</AltitudeMeters>
            <DistanceMeters>205481.43359222</DistanceMeters>
          </Trackpoint>
          <Trackpoint>
            <Time>2018-09-14T08:45:50.000Z</Time>
            <Position>
              <LatitudeDegrees>38.38018275797367095947265625</LatitudeDegrees>
              <LongitudeDegrees>-8.17262490279972553253173828125</LongitudeDegrees>
            </Position>
            <AltitudeMeters>214.8000030517578125</AltitudeMeters>
            <DistanceMeters>205512.69377061</DistanceMeters>
          </Trackpoint>
          <Trackpoint>
            <Time>2018-09-14T08:45:58.000Z</Time>
            <Position>
              <LatitudeDegrees>38.3798898942768573760986328125</LatitudeDegrees>
              <LongitudeDegrees>-8.172734789550304412841796875</LongitudeDegrees>
            </Position>
            <AltitudeMeters>216.399993896484375</AltitudeMeters>
            <DistanceMeters>205546.67083777</DistanceMeters>
          </Trackpoint>
          <Trackpoint>
            <Time>2018-09-14T08:46:05.000Z</Time>
            <Position>
              <LatitudeDegrees>38.37962142191827297210693359375</LatitudeDegrees>
              <LongitudeDegrees>-8.17282120697200298309326171875</LongitudeDegrees>
            </Position>
            <AltitudeMeters>218.1999969482421875</AltitudeMeters>
            <DistanceMeters>205577.48895501</DistanceMeters>
          </Trackpoint>
          <Trackpoint>
            <Time>2018-09-14T08:46:18.000Z</Time>
            <Position>
              <LatitudeDegrees>38.379130661487579345703125</LatitudeDegrees>
              <LongitudeDegrees>-8.17299655638635158538818359375</LongitudeDegrees>
            </Position>
            <AltitudeMeters>221</AltitudeMeters>
            <DistanceMeters>205634.21385456</DistanceMeters>
          </Trackpoint>
          <Trackpoint>
            <Time>2018-09-14T08:46:23.000Z</Time>
            <Position>
              <LatitudeDegrees>38.3789504505693912506103515625</LatitudeDegrees>
              <LongitudeDegrees>-8.17305841483175754547119140625</LongitudeDegrees>
            </Position>
            <AltitudeMeters>221.8000030517578125</AltitudeMeters>
            <DistanceMeters>205654.98539886</DistanceMeters>
          </Trackpoint>
          <Trackpoint>
            <Time>2018-09-14T08:46:31.000Z</Time>
            <Position>
              <LatitudeDegrees>38.37866873480379581451416015625</LatitudeDegrees>
              <LongitudeDegrees>-8.17316704429686069488525390625</LongitudeDegrees>
            </Position>
            <AltitudeMeters>222.8000030517578125</AltitudeMeters>
            <DistanceMeters>205687.7421976</DistanceMeters>
          </Trackpoint>
          <Trackpoint>
            <Time>2018-09-14T08:46:35.000Z</Time>
            <Position>
              <LatitudeDegrees>38.37852523662149906158447265625</LatitudeDegrees>
              <LongitudeDegrees>-8.1732147373259067535400390625</LongitudeDegrees>
            </Position>
            <AltitudeMeters>223.1999969482421875</AltitudeMeters>
            <DistanceMeters>205704.24678138</DistanceMeters>
          </Trackpoint>
          <Trackpoint>
            <Time>2018-09-14T08:46:39.000Z</Time>
            <Position>
              <LatitudeDegrees>38.37838232517242431640625</LatitudeDegrees>
              <LongitudeDegrees>-8.17326846532523632049560546875</LongitudeDegrees>
            </Position>
            <AltitudeMeters>223.1999969482421875</AltitudeMeters>
            <DistanceMeters>205720.82941953</DistanceMeters>
          </Trackpoint>
          <Trackpoint>
            <Time>2018-09-14T08:46:45.000Z</Time>
            <Position>
              <LatitudeDegrees>38.378164060413837432861328125</LatitudeDegrees>
              <LongitudeDegrees>-8.17334591411054134368896484375</LongitudeDegrees>
            </Position>
            <AltitudeMeters>223.399993896484375</AltitudeMeters>
            <DistanceMeters>205746.04500484</DistanceMeters>
          </Trackpoint>
          <Trackpoint>
            <Time>2018-09-14T08:46:50.000Z</Time>
            <Position>
              <LatitudeDegrees>38.37797421030700206756591796875</LatitudeDegrees>
              <LongitudeDegrees>-8.17340643145143985748291015625</LongitudeDegrees>
            </Position>
            <AltitudeMeters>223.399993896484375</AltitudeMeters>
            <DistanceMeters>205767.8252024</DistanceMeters>
          </Trackpoint>
          <Trackpoint>
            <Time>2018-09-14T08:46:57.000Z</Time>
            <Position>
              <LatitudeDegrees>38.37769408710300922393798828125</LatitudeDegrees>
              <LongitudeDegrees>-8.17350215278565883636474609375</LongitudeDegrees>
            </Position>
            <AltitudeMeters>224</AltitudeMeters>
            <DistanceMeters>205800.10282731</DistanceMeters>
          </Trackpoint>
          <Trackpoint>
            <Time>2018-09-14T08:47:05.000Z</Time>
            <Position>
              <LatitudeDegrees>38.37731874547898769378662109375</LatitudeDegrees>
              <LongitudeDegrees>-8.17364246584475040435791015625</LongitudeDegrees>
            </Position>
            <AltitudeMeters>223.600006103515625</AltitudeMeters>
            <DistanceMeters>205843.63605764</DistanceMeters>
          </Trackpoint>
          <Trackpoint>
            <Time>2018-09-14T08:47:10.000Z</Time>
            <Position>
              <LatitudeDegrees>38.3770256303250789642333984375</LatitudeDegrees>
              <LongitudeDegrees>-8.1737434677779674530029296875</LongitudeDegrees>
            </Position>
            <AltitudeMeters>223.1999969482421875</AltitudeMeters>
            <DistanceMeters>205877.42978055</DistanceMeters>
          </Trackpoint>
          <Trackpoint>
            <Time>2018-09-14T08:47:15.000Z</Time>
            <Position>
              <LatitudeDegrees>38.37669831700623035430908203125</LatitudeDegrees>
              <LongitudeDegrees>-8.17386634647846221923828125</LongitudeDegrees>
            </Position>
            <AltitudeMeters>222.399993896484375</AltitudeMeters>
            <DistanceMeters>205915.40529014</DistanceMeters>
          </Trackpoint>
          <Trackpoint>
            <Time>2018-09-14T08:47:17.000Z</Time>
            <Position>
              <LatitudeDegrees>38.3765595965087413787841796875</LatitudeDegrees>
              <LongitudeDegrees>-8.1739139556884765625</LongitudeDegrees>
            </Position>
            <AltitudeMeters>221.8000030517578125</AltitudeMeters>
            <DistanceMeters>205931.39408196</DistanceMeters>
          </Trackpoint>
          <Trackpoint>
            <Time>2018-09-14T08:47:18.000Z</Time>
            <Position>
              <LatitudeDegrees>38.3764885179698467254638671875</LatitudeDegrees>
              <LongitudeDegrees>-8.1739372573792934417724609375</LongitudeDegrees>
            </Position>
            <AltitudeMeters>221.399993896484375</AltitudeMeters>
            <DistanceMeters>205939.56306384</DistanceMeters>
          </Trackpoint>
          <Trackpoint>
            <Time>2018-09-14T08:47:22.000Z</Time>
            <Position>
              <LatitudeDegrees>38.37619431316852569580078125</LatitudeDegrees>
              <LongitudeDegrees>-8.174039684236049652099609375</LongitudeDegrees>
            </Position>
            <AltitudeMeters>220</AltitudeMeters>
            <DistanceMeters>205973.50636146</DistanceMeters>
          </Trackpoint>
          <Trackpoint>
            <Time>2018-09-14T08:47:24.000Z</Time>
            <Position>
              <LatitudeDegrees>38.37604436092078685760498046875</LatitudeDegrees>
              <LongitudeDegrees>-8.17409475333988666534423828125</LongitudeDegrees>
            </Position>
            <AltitudeMeters>219.600006103515625</AltitudeMeters>
            <DistanceMeters>205990.87442709</DistanceMeters>
          </Trackpoint>
          <Trackpoint>
            <Time>2018-09-14T08:47:26.000Z</Time>
            <Position>
              <LatitudeDegrees>38.3758920617401599884033203125</LatitudeDegrees>
              <LongitudeDegrees>-8.17414873279631137847900390625</LongitudeDegrees>
            </Position>
            <AltitudeMeters>219.1999969482421875</AltitudeMeters>
            <DistanceMeters>206008.46771929</DistanceMeters>
          </Trackpoint>
          <Trackpoint>
            <Time>2018-09-14T08:47:29.000Z</Time>
            <Position>
              <LatitudeDegrees>38.37565896101295948028564453125</LatitudeDegrees>
              <LongitudeDegrees>-8.17422869615256786346435546875</LongitudeDegrees>
            </Position>
            <AltitudeMeters>218.399993896484375</AltitudeMeters>
            <DistanceMeters>206035.33424363</DistanceMeters>
          </Trackpoint>
          <Trackpoint>
            <Time>2018-09-14T08:47:34.000Z</Time>
            <Position>
              <LatitudeDegrees>38.37525763548910617828369140625</LatitudeDegrees>
              <LongitudeDegrees>-8.17437236197292804718017578125</LongitudeDegrees>
            </Position>
            <AltitudeMeters>217</AltitudeMeters>
            <DistanceMeters>206081.72830598</DistanceMeters>
          </Trackpoint>
          <Trackpoint>
            <Time>2018-09-14T08:47:36.000Z</Time>
            <Position>
              <LatitudeDegrees>38.3750954456627368927001953125</LatitudeDegrees>
              <LongitudeDegrees>-8.17443606443703174591064453125</LongitudeDegrees>
            </Position>
            <AltitudeMeters>216.399993896484375</AltitudeMeters>
            <DistanceMeters>206100.61640435</DistanceMeters>
          </Trackpoint>
          <Trackpoint>
            <Time>2018-09-14T08:47:39.000Z</Time>
            <Position>
              <LatitudeDegrees>38.3748530410230159759521484375</LatitudeDegrees>
              <LongitudeDegrees>-8.1745504774153232574462890625</LongitudeDegrees>
            </Position>
            <AltitudeMeters>215.1999969482421875</AltitudeMeters>
            <DistanceMeters>206129.38424136</DistanceMeters>
          </Trackpoint>
          <Trackpoint>
            <Time>2018-09-14T08:47:41.000Z</Time>
            <Position>
              <LatitudeDegrees>38.37469437159597873687744140625</LatitudeDegrees>
              <LongitudeDegrees>-8.174646198749542236328125</LongitudeDegrees>
            </Position>
            <AltitudeMeters>214.399993896484375</AltitudeMeters>
            <DistanceMeters>206148.92003289</DistanceMeters>
          </Trackpoint>
          <Trackpoint>
            <Time>2018-09-14T08:47:44.000Z</Time>
            <Position>
              <LatitudeDegrees>38.374473340809345245361328125</LatitudeDegrees>
              <LongitudeDegrees>-8.1748270802199840545654296875</LongitudeDegrees>
            </Position>
            <AltitudeMeters>213.1999969482421875</AltitudeMeters>
            <DistanceMeters>206178.14905156</DistanceMeters>
          </Trackpoint>
          <Trackpoint>
            <Time>2018-09-14T08:47:48.000Z</Time>
            <Position>
              <LatitudeDegrees>38.3742287568747997283935546875</LatitudeDegrees>
              <LongitudeDegrees>-8.17511131055653095245361328125</LongitudeDegrees>
            </Position>
            <AltitudeMeters>211.8000030517578125</AltitudeMeters>
            <DistanceMeters>206214.9754284</DistanceMeters>
          </Trackpoint>
          <Trackpoint>
            <Time>2018-09-14T08:47:55.000Z</Time>
            <Position>
              <LatitudeDegrees>38.3738549239933490753173828125</LatitudeDegrees>
              <LongitudeDegrees>-8.17566703073680400848388671875</LongitudeDegrees>
            </Position>
            <AltitudeMeters>209</AltitudeMeters>
            <DistanceMeters>206278.87091346</DistanceMeters>
          </Trackpoint>
          <Trackpoint>
            <Time>2018-09-14T08:48:01.000Z</Time>
            <Position>
              <LatitudeDegrees>38.3735146187245845794677734375</LatitudeDegrees>
              <LongitudeDegrees>-8.176194168627262115478515625</LongitudeDegrees>
            </Position>
            <AltitudeMeters>206.600006103515625</AltitudeMeters>
            <DistanceMeters>206338.45607332</DistanceMeters>
          </Trackpoint>
          <Trackpoint>
            <Time>2018-09-14T08:48:03.000Z</Time>
            <Position>
              <LatitudeDegrees>38.3733947575092315673828125</LatitudeDegrees>
              <LongitudeDegrees>-8.17638016305863857269287109375</LongitudeDegrees>
            </Position>
            <AltitudeMeters>205.8000030517578125</AltitudeMeters>
            <DistanceMeters>206359.46493042</DistanceMeters>
          </Trackpoint>
          <Trackpoint>
            <Time>2018-09-14T08:48:05.000Z</Time>
            <Position>
              <LatitudeDegrees>38.3732715435326099395751953125</LatitudeDegrees>
              <LongitudeDegrees>-8.17657059989869594573974609375</LongitudeDegrees>
            </Position>
            <AltitudeMeters>205.1999969482421875</AltitudeMeters>
            <DistanceMeters>206381.01044363</DistanceMeters>
          </Trackpoint>
          <Trackpoint>
            <Time>2018-09-14T08:48:07.000Z</Time>
            <Position>
              <LatitudeDegrees>38.3731458149850368499755859375</LatitudeDegrees>
              <LongitudeDegrees>-8.176760114729404449462890625</LongitudeDegrees>
            </Position>
            <AltitudeMeters>204.600006103515625</AltitudeMeters>
            <DistanceMeters>206402.67361683</DistanceMeters>
          </Trackpoint>
          <Trackpoint>
            <Time>2018-09-14T08:48:11.000Z</Time>
            <Position>
              <LatitudeDegrees>38.37288740091025829315185546875</LatitudeDegrees>
              <LongitudeDegrees>-8.177154399454593658447265625</LongitudeDegrees>
            </Position>
            <AltitudeMeters>202.399993896484375</AltitudeMeters>
            <DistanceMeters>206447.51716534</DistanceMeters>
          </Trackpoint>
          <Trackpoint>
            <Time>2018-09-14T08:48:15.000Z</Time>
            <Position>
              <LatitudeDegrees>38.37262831628322601318359375</LatitudeDegrees>
              <LongitudeDegrees>-8.1775491870939731597900390625</LongitudeDegrees>
            </Position>
            <AltitudeMeters>200.399993896484375</AltitudeMeters>
            <DistanceMeters>206492.44249557</DistanceMeters>
          </Trackpoint>
          <Trackpoint>
            <Time>2018-09-14T08:48:16.000Z</Time>
            <Position>
              <LatitudeDegrees>38.37256268598139286041259765625</LatitudeDegrees>
              <LongitudeDegrees>-8.17764868028461933135986328125</LongitudeDegrees>
            </Position>
            <AltitudeMeters>200</AltitudeMeters>
            <DistanceMeters>206503.78854201</DistanceMeters>
          </Trackpoint>
          <Trackpoint>
            <Time>2018-09-14T08:48:19.000Z</Time>
            <Position>
              <LatitudeDegrees>38.3723701536655426025390625</LatitudeDegrees>
              <LongitudeDegrees>-8.17794305272400379180908203125</LongitudeDegrees>
            </Position>
            <AltitudeMeters>199.600006103515625</AltitudeMeters>
            <DistanceMeters>206537.24037504</DistanceMeters>
          </Trackpoint>
          <Trackpoint>
            <Time>2018-09-14T08:48:21.000Z</Time>
            <Position>
              <LatitudeDegrees>38.37224283255636692047119140625</LatitudeDegrees>
              <LongitudeDegrees>-8.178138434886932373046875</LongitudeDegrees>
            </Position>
            <AltitudeMeters>199.1999969482421875</AltitudeMeters>
            <DistanceMeters>206559.40992624</DistanceMeters>
          </Trackpoint>
          <Trackpoint>
            <Time>2018-09-14T08:48:23.000Z</Time>
            <Position>
              <LatitudeDegrees>38.37211676873266696929931640625</LatitudeDegrees>
              <LongitudeDegrees>-8.17833079956471920013427734375</LongitudeDegrees>
            </Position>
            <AltitudeMeters>199</AltitudeMeters>
            <DistanceMeters>206581.28775067</DistanceMeters>
          </Trackpoint>
          <Trackpoint>
            <Time>2018-09-14T08:48:25.000Z</Time>
            <Position>
              <LatitudeDegrees>38.3719924651086330413818359375</LatitudeDegrees>
              <LongitudeDegrees>-8.178519308567047119140625</LongitudeDegrees>
            </Position>
            <AltitudeMeters>198.600006103515625</AltitudeMeters>
            <DistanceMeters>206602.78165076</DistanceMeters>
          </Trackpoint>
          <Trackpoint>
            <Time>2018-09-14T08:48:29.000Z</Time>
            <Position>
              <LatitudeDegrees>38.37175014428794384002685546875</LatitudeDegrees>
              <LongitudeDegrees>-8.1788906268775463104248046875</LongitudeDegrees>
            </Position>
            <AltitudeMeters>198.600006103515625</AltitudeMeters>
            <DistanceMeters>206644.93946837</DistanceMeters>
          </Trackpoint>
          <Trackpoint>
            <Time>2018-09-14T08:48:35.000Z</Time>
            <Position>
              <LatitudeDegrees>38.371407575905323028564453125</LatitudeDegrees>
              <LongitudeDegrees>-8.1794220395386219024658203125</LongitudeDegrees>
            </Position>
            <AltitudeMeters>199</AltitudeMeters>
            <DistanceMeters>206704.9737186</DistanceMeters>
          </Trackpoint>
          <Trackpoint>
            <Time>2018-09-14T08:48:38.000Z</Time>
            <Position>
              <LatitudeDegrees>38.37124429643154144287109375</LatitudeDegrees>
              <LongitudeDegrees>-8.17967207171022891998291015625</LongitudeDegrees>
            </Position>
            <AltitudeMeters>199.399993896484375</AltitudeMeters>
            <DistanceMeters>206733.36922099</DistanceMeters>
          </Trackpoint>
          <Trackpoint>
            <Time>2018-09-14T08:48:43.000Z</Time>
            <Position>
              <LatitudeDegrees>38.3709832839667797088623046875</LatitudeDegrees>
              <LongitudeDegrees>-8.1800709664821624755859375</LongitudeDegrees>
            </Position>
            <AltitudeMeters>200</AltitudeMeters>
            <DistanceMeters>206778.70772021</DistanceMeters>
          </Trackpoint>
          <Trackpoint>
            <Time>2018-09-14T08:48:50.000Z</Time>
            <Position>
              <LatitudeDegrees>38.37064507417380809783935546875</LatitudeDegrees>
              <LongitudeDegrees>-8.18059827201068401336669921875</LongitudeDegrees>
            </Position>
            <AltitudeMeters>198.600006103515625</AltitudeMeters>
            <DistanceMeters>206838.15754459</DistanceMeters>
          </Trackpoint>
          <Trackpoint>
            <Time>2018-09-14T08:48:58.000Z</Time>
            <Position>
              <LatitudeDegrees>38.37028649635612964630126953125</LatitudeDegrees>
              <LongitudeDegrees>-8.18114661611616611480712890625</LongitudeDegrees>
            </Position>
            <AltitudeMeters>198.399993896484375</AltitudeMeters>
            <DistanceMeters>206900.46681554</DistanceMeters>
          </Trackpoint>
          <Trackpoint>
            <Time>2018-09-14T08:49:02.000Z</Time>
            <Position>
              <LatitudeDegrees>38.370117433369159698486328125</LatitudeDegrees>
              <LongitudeDegrees>-8.18141064606606960296630859375</LongitudeDegrees>
            </Position>
            <AltitudeMeters>199.1999969482421875</AltitudeMeters>
            <DistanceMeters>206930.21457901</DistanceMeters>
          </Trackpoint>
          <Trackpoint>
            <Time>2018-09-14T08:49:09.000Z</Time>
            <Position>
              <LatitudeDegrees>38.3698161877691745758056640625</LatitudeDegrees>
              <LongitudeDegrees>-8.18187332712113857269287109375</LongitudeDegrees>
            </Position>
            <AltitudeMeters>200.8000030517578125</AltitudeMeters>
            <DistanceMeters>206982.69634591</DistanceMeters>
          </Trackpoint>
          <Trackpoint>
            <Time>2018-09-14T08:49:14.000Z</Time>
            <Position>
              <LatitudeDegrees>38.36960412561893463134765625</LatitudeDegrees>
              <LongitudeDegrees>-8.18219586275517940521240234375</LongitudeDegrees>
            </Position>
            <AltitudeMeters>201.8000030517578125</AltitudeMeters>
            <DistanceMeters>207019.42881142</DistanceMeters>
          </Trackpoint>
          <Trackpoint>
            <Time>2018-09-14T08:49:19.000Z</Time>
            <Position>
              <LatitudeDegrees>38.36940974928438663482666015625</LatitudeDegrees>
              <LongitudeDegrees>-8.1824911572039127349853515625</LongitudeDegrees>
            </Position>
            <AltitudeMeters>202.600006103515625</AltitudeMeters>
            <DistanceMeters>207053.07484437</DistanceMeters>
          </Trackpoint>
          <Trackpoint>
            <Time>2018-09-14T08:49:23.000Z</Time>
            <Position>
              <LatitudeDegrees>38.36927178315818309783935546875</LatitudeDegrees>
              <LongitudeDegrees>-8.182703889906406402587890625</LongitudeDegrees>
            </Position>
            <AltitudeMeters>203.1999969482421875</AltitudeMeters>
            <DistanceMeters>207077.16669348</DistanceMeters>
          </Trackpoint>
          <Trackpoint>
            <Time>2018-09-14T08:49:26.000Z</Time>
            <Position>
              <LatitudeDegrees>38.36917522363364696502685546875</LatitudeDegrees>
              <LongitudeDegrees>-8.182857446372509002685546875</LongitudeDegrees>
            </Position>
            <AltitudeMeters>203.600006103515625</AltitudeMeters>
            <DistanceMeters>207094.34393854</DistanceMeters>
          </Trackpoint>
          <Trackpoint>
            <Time>2018-09-14T08:49:29.000Z</Time>
            <Position>
              <LatitudeDegrees>38.36907707154750823974609375</LatitudeDegrees>
              <LongitudeDegrees>-8.18300672806799411773681640625</LongitudeDegrees>
            </Position>
            <AltitudeMeters>204</AltitudeMeters>
            <DistanceMeters>207111.34548985</DistanceMeters>
          </Trackpoint>
          <Trackpoint>
            <Time>2018-09-14T08:49:30.000Z</Time>
            <Position>
              <LatitudeDegrees>38.3690447174012660980224609375</LatitudeDegrees>
              <LongitudeDegrees>-8.18305634893476963043212890625</LongitudeDegrees>
            </Position>
            <AltitudeMeters>204</AltitudeMeters>
            <DistanceMeters>207116.97697531</DistanceMeters>
          </Trackpoint>
          <Trackpoint>
            <Time>2018-09-14T08:49:35.000Z</Time>
            <Position>
              <LatitudeDegrees>38.368892334401607513427734375</LatitudeDegrees>
              <LongitudeDegrees>-8.18329028785228729248046875</LongitudeDegrees>
            </Position>
            <AltitudeMeters>204.8000030517578125</AltitudeMeters>
            <DistanceMeters>207143.51768316</DistanceMeters>
          </Trackpoint>
          <Trackpoint>
            <Time>2018-09-14T08:49:39.000Z</Time>
            <Position>
              <LatitudeDegrees>38.36877121590077877044677734375</LatitudeDegrees>
              <LongitudeDegrees>-8.183475024998188018798828125</LongitudeDegrees>
            </Position>
            <AltitudeMeters>205.1999969482421875</AltitudeMeters>
            <DistanceMeters>207164.5325569</DistanceMeters>
          </Trackpoint>
          <Trackpoint>
            <Time>2018-09-14T08:49:44.000Z</Time>
            <Position>
              <LatitudeDegrees>38.36862939409911632537841796875</LatitudeDegrees>
              <LongitudeDegrees>-8.18369890563189983367919921875</LongitudeDegrees>
            </Position>
            <AltitudeMeters>206.399993896484375</AltitudeMeters>
            <DistanceMeters>207189.64964731</DistanceMeters>
          </Trackpoint>
          <Trackpoint>
            <Time>2018-09-14T08:49:48.000Z</Time>
            <Position>
              <LatitudeDegrees>38.36852193810045719146728515625</LatitudeDegrees>
              <LongitudeDegrees>-8.18385749123990535736083984375</LongitudeDegrees>
            </Position>
            <AltitudeMeters>207.1999969482421875</AltitudeMeters>
            <DistanceMeters>207207.94074712</DistanceMeters>
          </Trackpoint>
          <Trackpoint>
            <Time>2018-09-14T08:49:54.000Z</Time>
            <Position>
              <LatitudeDegrees>38.368363939225673675537109375</LatitudeDegrees>
              <LongitudeDegrees>-8.1840964592993259429931640625</LongitudeDegrees>
            </Position>
            <AltitudeMeters>208.8000030517578125</AltitudeMeters>
            <DistanceMeters>207235.21953887</DistanceMeters>
          </Trackpoint>
          <Trackpoint>
            <Time>2018-09-14T08:49:55.000Z</Time>
            <Position>
              <LatitudeDegrees>38.36833636276423931121826171875</LatitudeDegrees>
              <LongitudeDegrees>-8.18413610570132732391357421875</LongitudeDegrees>
            </Position>
            <AltitudeMeters>209.1999969482421875</AltitudeMeters>
            <DistanceMeters>207239.84471467</DistanceMeters>
          </Trackpoint>
          <Trackpoint>
            <Time>2018-09-14T08:49:59.000Z</Time>
            <Position>
              <LatitudeDegrees>38.36823351681232452392578125</LatitudeDegrees>
              <LongitudeDegrees>-8.184293769299983978271484375</LongitudeDegrees>
            </Position>
            <AltitudeMeters>210.399993896484375</AltitudeMeters>
            <DistanceMeters>207257.74281406</DistanceMeters>
          </Trackpoint>
          <Trackpoint>
            <Time>2018-09-14T08:50:02.000Z</Time>
            <Position>
              <LatitudeDegrees>38.36815816350281238555908203125</LatitudeDegrees>
              <LongitudeDegrees>-8.1844092719256877899169921875</LongitudeDegrees>
            </Position>
            <AltitudeMeters>211</AltitudeMeters>
            <DistanceMeters>207270.85581202</DistanceMeters>
          </Trackpoint>
          <Trackpoint>
            <Time>2018-09-14T08:50:07.000Z</Time>
            <Position>
              <LatitudeDegrees>38.368032015860080718994140625</LatitudeDegrees>
              <LongitudeDegrees>-8.1845976971089839935302734375</LongitudeDegrees>
            </Position>
            <AltitudeMeters>212</AltitudeMeters>
            <DistanceMeters>207292.47767868</DistanceMeters>
          </Trackpoint>
          <Trackpoint>
            <Time>2018-09-14T08:50:14.000Z</Time>
            <Position>
              <LatitudeDegrees>38.36784400977194309234619140625</LatitudeDegrees>
              <LongitudeDegrees>-8.1848625652492046356201171875</LongitudeDegrees>
            </Position>
            <AltitudeMeters>213.399993896484375</AltitudeMeters>
            <DistanceMeters>207323.65628977</DistanceMeters>
          </Trackpoint>
          <Trackpoint>
            <Time>2018-09-14T08:50:19.000Z</Time>
            <Position>
              <LatitudeDegrees>38.36768726818263530731201171875</LatitudeDegrees>
              <LongitudeDegrees>-8.18504202179610729217529296875</LongitudeDegrees>
            </Position>
            <AltitudeMeters>214.600006103515625</AltitudeMeters>
            <DistanceMeters>207347.09997917</DistanceMeters>
          </Trackpoint>
          <Trackpoint>
            <Time>2018-09-14T08:50:24.000Z</Time>
            <Position>
              <LatitudeDegrees>38.367520384490489959716796875</LatitudeDegrees>
              <LongitudeDegrees>-8.18520882166922092437744140625</LongitudeDegrees>
            </Position>
            <AltitudeMeters>215</AltitudeMeters>
            <DistanceMeters>207370.69838619</DistanceMeters>
          </Trackpoint>
          <Trackpoint>
            <Time>2018-09-14T08:50:32.000Z</Time>
            <Position>
              <LatitudeDegrees>38.36722156964242458343505859375</LatitudeDegrees>
              <LongitudeDegrees>-8.18545617163181304931640625</LongitudeDegrees>
            </Position>
            <AltitudeMeters>214.8000030517578125</AltitudeMeters>
            <DistanceMeters>207410.34764934</DistanceMeters>
          </Trackpoint>
          <Trackpoint>
            <Time>2018-09-14T08:50:43.000Z</Time>
            <Position>
              <LatitudeDegrees>38.3667219243943691253662109375</LatitudeDegrees>
              <LongitudeDegrees>-8.18582690320909023284912109375</LongitudeDegrees>
            </Position>
            <AltitudeMeters>214.600006103515625</AltitudeMeters>
            <DistanceMeters>207474.6851563</DistanceMeters>
          </Trackpoint>
          <Trackpoint>
            <Time>2018-09-14T08:50:51.000Z</Time>
            <Position>
              <LatitudeDegrees>38.3663071878254413604736328125</LatitudeDegrees>
              <LongitudeDegrees>-8.1861389614641666412353515625</LongitudeDegrees>
            </Position>
            <AltitudeMeters>213.600006103515625</AltitudeMeters>
            <DistanceMeters>207528.28030745</DistanceMeters>
          </Trackpoint>
          <Trackpoint>
            <Time>2018-09-14T08:50:58.000Z</Time>
            <Position>
              <LatitudeDegrees>38.365937881171703338623046875</LatitudeDegrees>
              <LongitudeDegrees>-8.18647230975329875946044921875</LongitudeDegrees>
            </Position>
            <AltitudeMeters>213</AltitudeMeters>
            <DistanceMeters>207578.63747305</DistanceMeters>
          </Trackpoint>
          <Trackpoint>
            <Time>2018-09-14T08:51:01.000Z</Time>
            <Position>
              <LatitudeDegrees>38.36578524671494960784912109375</LatitudeDegrees>
              <LongitudeDegrees>-8.186624608933925628662109375</LongitudeDegrees>
            </Position>
            <AltitudeMeters>212.399993896484375</AltitudeMeters>
            <DistanceMeters>207600.20728131</DistanceMeters>
          </Trackpoint>
          <Trackpoint>
            <Time>2018-09-14T08:51:04.000Z</Time>
            <Position>
              <LatitudeDegrees>38.3656312711536884307861328125</LatitudeDegrees>
              <LongitudeDegrees>-8.1867890618741512298583984375</LongitudeDegrees>
            </Position>
            <AltitudeMeters>211.600006103515625</AltitudeMeters>
            <DistanceMeters>207622.56058644</DistanceMeters>
          </Trackpoint>
          <Trackpoint>
            <Time>2018-09-14T08:51:09.000Z</Time>
            <Position>
              <LatitudeDegrees>38.36536833085119724273681640625</LatitudeDegrees>
              <LongitudeDegrees>-8.1870710290968418121337890625</LongitudeDegrees>
            </Position>
            <AltitudeMeters>211.1999969482421875</AltitudeMeters>
            <DistanceMeters>207660.79653074</DistanceMeters>
          </Trackpoint>
          <Trackpoint>
            <Time>2018-09-14T08:51:10.000Z</Time>
            <Position>
              <LatitudeDegrees>38.36531535722315311431884765625</LatitudeDegrees>
              <LongitudeDegrees>-8.18712794221937656402587890625</LongitudeDegrees>
            </Position>
            <AltitudeMeters>211.1999969482421875</AltitudeMeters>
            <DistanceMeters>207668.50600304</DistanceMeters>
          </Trackpoint>
          <Trackpoint>
            <Time>2018-09-14T08:51:13.000Z</Time>
            <Position>
              <LatitudeDegrees>38.365154005587100982666015625</LatitudeDegrees>
              <LongitudeDegrees>-8.18730496801435947418212890625</LongitudeDegrees>
            </Position>
            <AltitudeMeters>211</AltitudeMeters>
            <DistanceMeters>207692.19530718</DistanceMeters>
          </Trackpoint>
          <Trackpoint>
            <Time>2018-09-14T08:51:15.000Z</Time>
            <Position>
              <LatitudeDegrees>38.36504277773201465606689453125</LatitudeDegrees>
              <LongitudeDegrees>-8.18742902018129825592041015625</LongitudeDegrees>
            </Position>
            <AltitudeMeters>210.399993896484375</AltitudeMeters>
            <DistanceMeters>207708.64096981</DistanceMeters>
          </Trackpoint>
          <Trackpoint>
            <Time>2018-09-14T08:51:20.000Z</Time>
            <Position>
              <LatitudeDegrees>38.36473952047526836395263671875</LatitudeDegrees>
              <LongitudeDegrees>-8.18776111118495464324951171875</LongitudeDegrees>
            </Position>
            <AltitudeMeters>208.399993896484375</AltitudeMeters>
            <DistanceMeters>207753.12890115</DistanceMeters>
          </Trackpoint>
          <Trackpoint>
            <Time>2018-09-14T08:51:21.000Z</Time>
            <Position>
              <LatitudeDegrees>38.3646747283637523651123046875</LatitudeDegrees>
              <LongitudeDegrees>-8.18783202208578586578369140625</LongitudeDegrees>
            </Position>
            <AltitudeMeters>208</AltitudeMeters>
            <DistanceMeters>207762.63157259</DistanceMeters>
          </Trackpoint>
          <Trackpoint>
            <Time>2018-09-14T08:51:24.000Z</Time>
            <Position>
              <LatitudeDegrees>38.36447238922119140625</LatitudeDegrees>
              <LongitudeDegrees>-8.188051544129848480224609375</LongitudeDegrees>
            </Position>
            <AltitudeMeters>206.399993896484375</AltitudeMeters>
            <DistanceMeters>207792.1984747</DistanceMeters>
          </Trackpoint>
          <Trackpoint>
            <Time>2018-09-14T08:51:26.000Z</Time>
            <Position>
              <LatitudeDegrees>38.364329896867275238037109375</LatitudeDegrees>
              <LongitudeDegrees>-8.18820384331047534942626953125</LongitudeDegrees>
            </Position>
            <AltitudeMeters>205.399993896484375</AltitudeMeters>
            <DistanceMeters>207812.89118271</DistanceMeters>
          </Trackpoint>
          <Trackpoint>
            <Time>2018-09-14T08:51:27.000Z</Time>
            <Position>
              <LatitudeDegrees>38.36425689049065113067626953125</LatitudeDegrees>
              <LongitudeDegrees>-8.188282884657382965087890625</LongitudeDegrees>
            </Position>
            <AltitudeMeters>205</AltitudeMeters>
            <DistanceMeters>207823.55028313</DistanceMeters>
          </Trackpoint>
          <Trackpoint>
            <Time>2018-09-14T08:51:29.000Z</Time>
            <Position>
              <LatitudeDegrees>38.364109285175800323486328125</LatitudeDegrees>
              <LongitudeDegrees>-8.18844574503600597381591796875</LongitudeDegrees>
            </Position>
            <AltitudeMeters>204.1999969482421875</AltitudeMeters>
            <DistanceMeters>207845.27381404</DistanceMeters>
          </Trackpoint>
          <Trackpoint>
            <Time>2018-09-14T08:51:31.000Z</Time>
            <Position>
              <LatitudeDegrees>38.36395665071904659271240234375</LatitudeDegrees>
              <LongitudeDegrees>-8.18860835395753383636474609375</LongitudeDegrees>
            </Position>
            <AltitudeMeters>202.8000030517578125</AltitudeMeters>
            <DistanceMeters>207867.40932799</DistanceMeters>
          </Trackpoint>
          <Trackpoint>
            <Time>2018-09-14T08:51:33.000Z</Time>
            <Position>
              <LatitudeDegrees>38.3638009987771511077880859375</LatitudeDegrees>
              <LongitudeDegrees>-8.18877314217388629913330078125</LongitudeDegrees>
            </Position>
            <AltitudeMeters>201.1999969482421875</AltitudeMeters>
            <DistanceMeters>207889.92484468</DistanceMeters>
          </Trackpoint>
          <Trackpoint>
            <Time>2018-09-14T08:51:35.000Z</Time>
            <Position>
              <LatitudeDegrees>38.36364559829235076904296875</LatitudeDegrees>
              <LongitudeDegrees>-8.18894161842763423919677734375</LongitudeDegrees>
            </Position>
            <AltitudeMeters>199.600006103515625</AltitudeMeters>
            <DistanceMeters>207912.62608831</DistanceMeters>
          </Trackpoint>
          <Trackpoint>
            <Time>2018-09-14T08:51:37.000Z</Time>
            <Position>
              <LatitudeDegrees>38.36348474957048892974853515625</LatitudeDegrees>
              <LongitudeDegrees>-8.18910992704331874847412109375</LongitudeDegrees>
            </Position>
            <AltitudeMeters>198</AltitudeMeters>
            <DistanceMeters>207935.78337917</DistanceMeters>
          </Trackpoint>
          <Trackpoint>
            <Time>2018-09-14T08:51:39.000Z</Time>
            <Position>
              <LatitudeDegrees>38.36332373321056365966796875</LatitudeDegrees>
              <LongitudeDegrees>-8.18928075022995471954345703125</LongitudeDegrees>
            </Position>
            <AltitudeMeters>197.399993896484375</AltitudeMeters>
            <DistanceMeters>207959.0947706</DistanceMeters>
          </Trackpoint>
          <Trackpoint>
            <Time>2018-09-14T08:51:40.000Z</Time>
            <Position>
              <LatitudeDegrees>38.363242261111736297607421875</LatitudeDegrees>
              <LongitudeDegrees>-8.1893673352897167205810546875</LongitudeDegrees>
            </Position>
            <AltitudeMeters>197.399993896484375</AltitudeMeters>
            <DistanceMeters>207970.89875634</DistanceMeters>
          </Trackpoint>
          <Trackpoint>
            <Time>2018-09-14T08:51:42.000Z</Time>
            <Position>
              <LatitudeDegrees>38.36307805962860584259033203125</LatitudeDegrees>
              <LongitudeDegrees>-8.18954092450439929962158203125</LongitudeDegrees>
            </Position>
            <AltitudeMeters>197.399993896484375</AltitudeMeters>
            <DistanceMeters>207994.63718279</DistanceMeters>
          </Trackpoint>
          <Trackpoint>
            <Time>2018-09-14T08:51:46.000Z</Time>
            <Position>
              <LatitudeDegrees>38.3627522550523281097412109375</LatitudeDegrees>
              <LongitudeDegrees>-8.18988810293376445770263671875</LongitudeDegrees>
            </Position>
            <AltitudeMeters>197.1999969482421875</AltitudeMeters>
            <DistanceMeters>208041.89174261</DistanceMeters>
          </Trackpoint>
          <Trackpoint>
            <Time>2018-09-14T08:51:48.000Z</Time>
            <Position>
              <LatitudeDegrees>38.36259475909173488616943359375</LatitudeDegrees>
              <LongitudeDegrees>-8.19005926139652729034423828125</LongitudeDegrees>
            </Position>
            <AltitudeMeters>197.399993896484375</AltitudeMeters>
            <DistanceMeters>208064.92234465</DistanceMeters>
          </Trackpoint>
          <Trackpoint>
            <Time>2018-09-14T08:51:50.000Z</Time>
            <Position>
              <LatitudeDegrees>38.36243919096887111663818359375</LatitudeDegrees>
              <LongitudeDegrees>-8.19022824056446552276611328125</LongitudeDegrees>
            </Position>
            <AltitudeMeters>197.1999969482421875</AltitudeMeters>
            <DistanceMeters>208087.6661108</DistanceMeters>
          </Trackpoint>
          <Trackpoint>
            <Time>2018-09-14T08:51:53.000Z</Time>
            <Position>
              <LatitudeDegrees>38.36220969446003437042236328125</LatitudeDegrees>
              <LongitudeDegrees>-8.190477602183818817138671875</LongitudeDegrees>
            </Position>
            <AltitudeMeters>196.399993896484375</AltitudeMeters>
            <DistanceMeters>208121.22305633</DistanceMeters>
          </Trackpoint>
          <Trackpoint>
            <Time>2018-09-14T08:51:57.000Z</Time>
            <Position>
              <LatitudeDegrees>38.36191180162131786346435546875</LatitudeDegrees>
              <LongitudeDegrees>-8.1908039934933185577392578125</LongitudeDegrees>
            </Position>
            <AltitudeMeters>195.600006103515625</AltitudeMeters>
            <DistanceMeters>208164.93493177</DistanceMeters>
          </Trackpoint>
          <Trackpoint>
            <Time>2018-09-14T08:52:00.000Z</Time>
            <Position>
              <LatitudeDegrees>38.36169370450079441070556640625</LatitudeDegrees>
              <LongitudeDegrees>-8.19104413501918315887451171875</LongitudeDegrees>
            </Position>
            <AltitudeMeters>195.1999969482421875</AltitudeMeters>
            <DistanceMeters>208197.00500484</DistanceMeters>
          </Trackpoint>
          <Trackpoint>
            <Time>2018-09-14T08:52:03.000Z</Time>
            <Position>
              <LatitudeDegrees>38.36148130707442760467529296875</LatitudeDegrees>
              <LongitudeDegrees>-8.19127799011766910552978515625</LongitudeDegrees>
            </Position>
            <AltitudeMeters>195</AltitudeMeters>
            <DistanceMeters>208228.23628303</DistanceMeters>
          </Trackpoint>
          <Trackpoint>
            <Time>2018-09-14T08:52:08.000Z</Time>
            <Position>
              <LatitudeDegrees>38.3611476235091686248779296875</LatitudeDegrees>
              <LongitudeDegrees>-8.19164411164820194244384765625</LongitudeDegrees>
            </Position>
            <AltitudeMeters>194.8000030517578125</AltitudeMeters>
            <DistanceMeters>208277.22935131</DistanceMeters>
          </Trackpoint>
          <Trackpoint>
            <Time>2018-09-14T08:52:15.000Z</Time>
            <Position>
              <LatitudeDegrees>38.36068435572087764739990234375</LatitudeDegrees>
              <LongitudeDegrees>-8.19214384071528911590576171875</LongitudeDegrees>
            </Position>
            <AltitudeMeters>192.399993896484375</AltitudeMeters>
            <DistanceMeters>208344.76313308</DistanceMeters>
          </Trackpoint>
          <Trackpoint>
            <Time>2018-09-14T08:52:21.000Z</Time>
            <Position>
              <LatitudeDegrees>38.3602651767432689666748046875</LatitudeDegrees>
              <LongitudeDegrees>-8.19259352982044219970703125</LongitudeDegrees>
            </Position>
            <AltitudeMeters>189.1999969482421875</AltitudeMeters>
            <DistanceMeters>208405.7303061</DistanceMeters>
          </Trackpoint>
          <Trackpoint>
            <Time>2018-09-14T08:52:22.000Z</Time>
            <Position>
              <LatitudeDegrees>38.36019351147115230560302734375</LatitudeDegrees>
              <LongitudeDegrees>-8.1926704756915569305419921875</LongitudeDegrees>
            </Position>
            <AltitudeMeters>189</AltitudeMeters>
            <DistanceMeters>208416.1572961</DistanceMeters>
          </Trackpoint>
          <Trackpoint>
            <Time>2018-09-14T08:52:27.000Z</Time>
            <Position>
              <LatitudeDegrees>38.3598343469202518463134765625</LatitudeDegrees>
              <LongitudeDegrees>-8.193049840629100799560546875</LongitudeDegrees>
            </Position>
            <AltitudeMeters>189.8000030517578125</AltitudeMeters>
            <DistanceMeters>208468.06363278</DistanceMeters>
          </Trackpoint>
          <Trackpoint>
            <Time>2018-09-14T08:52:34.000Z</Time>
            <Position>
              <LatitudeDegrees>38.3593552373349666595458984375</LatitudeDegrees>
              <LongitudeDegrees>-8.19356608204543590545654296875</LongitudeDegrees>
            </Position>
            <AltitudeMeters>191</AltitudeMeters>
            <DistanceMeters>208537.87496824</DistanceMeters>
          </Trackpoint>
          <Trackpoint>
            <Time>2018-09-14T08:52:40.000Z</Time>
            <Position>
              <LatitudeDegrees>38.35895902477204799652099609375</LatitudeDegrees>
              <LongitudeDegrees>-8.19400160573422908782958984375</LongitudeDegrees>
            </Position>
            <AltitudeMeters>190.8000030517578125</AltitudeMeters>
            <DistanceMeters>208596.09478921</DistanceMeters>
          </Trackpoint>
          <Trackpoint>
            <Time>2018-09-14T08:52:47.000Z</Time>
            <Position>
              <LatitudeDegrees>38.3585043065249919891357421875</LatitudeDegrees>
              <LongitudeDegrees>-8.19448876194655895233154296875</LongitudeDegrees>
            </Position>
            <AltitudeMeters>190.600006103515625</AltitudeMeters>
            <DistanceMeters>208662.19466408</DistanceMeters>
          </Trackpoint>
          <Trackpoint>
            <Time>2018-09-14T08:52:54.000Z</Time>
            <Position>
              <LatitudeDegrees>38.3580590598285198211669921875</LatitudeDegrees>
              <LongitudeDegrees>-8.194966278970241546630859375</LongitudeDegrees>
            </Position>
            <AltitudeMeters>188.399993896484375</AltitudeMeters>
            <DistanceMeters>208726.94642787</DistanceMeters>
          </Trackpoint>
          <Trackpoint>
            <Time>2018-09-14T08:53:01.000Z</Time>
            <Position>
              <LatitudeDegrees>38.35758003406226634979248046875</LatitudeDegrees>
              <LongitudeDegrees>-8.19547816179692745208740234375</LongitudeDegrees>
            </Position>
            <AltitudeMeters>186.1999969482421875</AltitudeMeters>
            <DistanceMeters>208796.50637224</DistanceMeters>
          </Trackpoint>
          <Trackpoint>
            <Time>2018-09-14T08:53:04.000Z</Time>
            <Position>
              <LatitudeDegrees>38.35737266577780246734619140625</LatitudeDegrees>
              <LongitudeDegrees>-8.1957043893635272979736328125</LongitudeDegrees>
            </Position>
            <AltitudeMeters>185.1999969482421875</AltitudeMeters>
            <DistanceMeters>208826.88030547</DistanceMeters>
          </Trackpoint>
          <Trackpoint>
            <Time>2018-09-14T08:53:06.000Z</Time>
            <Position>
              <LatitudeDegrees>38.35723436437547206878662109375</LatitudeDegrees>
              <LongitudeDegrees>-8.1958566047251224517822265625</LongitudeDegrees>
            </Position>
            <AltitudeMeters>184.399993896484375</AltitudeMeters>
            <DistanceMeters>208847.21380198</DistanceMeters>
          </Trackpoint>
          <Trackpoint>
            <Time>2018-09-14T08:53:08.000Z</Time>
            <Position>
              <LatitudeDegrees>38.35709203965961933135986328125</LatitudeDegrees>
              <LongitudeDegrees>-8.196008317172527313232421875</LongitudeDegrees>
            </Position>
            <AltitudeMeters>183.8000030517578125</AltitudeMeters>
            <DistanceMeters>208867.85998222</DistanceMeters>
          </Trackpoint>
          <Trackpoint>
            <Time>2018-09-14T08:53:11.000Z</Time>
            <Position>
              <LatitudeDegrees>38.3568785525858402252197265625</LatitudeDegrees>
              <LongitudeDegrees>-8.1962361373007297515869140625</LongitudeDegrees>
            </Position>
            <AltitudeMeters>183</AltitudeMeters>
            <DistanceMeters>208898.84350036</DistanceMeters>
          </Trackpoint>
          <Trackpoint>
            <Time>2018-09-14T08:53:14.000Z</Time>
            <Position>
              <LatitudeDegrees>38.3566643111407756805419921875</LatitudeDegrees>
              <LongitudeDegrees>-8.19646395742893218994140625</LongitudeDegrees>
            </Position>
            <AltitudeMeters>181.1999969482421875</AltitudeMeters>
            <DistanceMeters>208929.89136165</DistanceMeters>
          </Trackpoint>
          <Trackpoint>
            <Time>2018-09-14T08:53:15.000Z</Time>
            <Position>
              <LatitudeDegrees>38.35659272968769073486328125</LatitudeDegrees>
              <LongitudeDegrees>-8.1965410709381103515625</LongitudeDegrees>
            </Position>
            <AltitudeMeters>180.600006103515625</AltitudeMeters>
            <DistanceMeters>208940.32051649</DistanceMeters>
          </Trackpoint>
          <Trackpoint>
            <Time>2018-09-14T08:53:20.000Z</Time>
            <Position>
              <LatitudeDegrees>38.35623205639421939849853515625</LatitudeDegrees>
              <LongitudeDegrees>-8.19692932069301605224609375</LongitudeDegrees>
            </Position>
            <AltitudeMeters>177.399993896484375</AltitudeMeters>
            <DistanceMeters>208992.85404829</DistanceMeters>
          </Trackpoint>
          <Trackpoint>
            <Time>2018-09-14T08:53:22.000Z</Time>
            <Position>
              <LatitudeDegrees>38.35608453489840030670166015625</LatitudeDegrees>
              <LongitudeDegrees>-8.197085894644260406494140625</LongitudeDegrees>
            </Position>
            <AltitudeMeters>176.1999969482421875</AltitudeMeters>
            <DistanceMeters>209014.21646794</DistanceMeters>
          </Trackpoint>
          <Trackpoint>
            <Time>2018-09-14T08:53:24.000Z</Time>
            <Position>
              <LatitudeDegrees>38.3559404499828815460205078125</LatitudeDegrees>
              <LongitudeDegrees>-8.19724272005259990692138671875</LongitudeDegrees>
            </Position>
            <AltitudeMeters>175.600006103515625</AltitudeMeters>
            <DistanceMeters>209035.30040977</DistanceMeters>
          </Trackpoint>
          <Trackpoint>
            <Time>2018-09-14T08:53:28.000Z</Time>
            <Position>
              <LatitudeDegrees>38.35564582608640193939208984375</LatitudeDegrees>
              <LongitudeDegrees>-8.19755670614540576934814453125</LongitudeDegrees>
            </Position>
            <AltitudeMeters>176.1999969482421875</AltitudeMeters>
            <DistanceMeters>209078.03613242</DistanceMeters>
          </Trackpoint>
          <Trackpoint>
            <Time>2018-09-14T08:53:30.000Z</Time>
            <Position>
              <LatitudeDegrees>38.3554955385625362396240234375</LatitudeDegrees>
              <LongitudeDegrees>-8.19771713577210903167724609375</LongitudeDegrees>
            </Position>
            <AltitudeMeters>176.600006103515625</AltitudeMeters>
            <DistanceMeters>209099.85071467</DistanceMeters>
          </Trackpoint>
          <Trackpoint>
            <Time>2018-09-14T08:53:31.000Z</Time>
            <Position>
              <LatitudeDegrees>38.35542060434818267822265625</LatitudeDegrees>
              <LongitudeDegrees>-8.1977978534996509552001953125</LongitudeDegrees>
            </Position>
            <AltitudeMeters>176.8000030517578125</AltitudeMeters>
            <DistanceMeters>209110.76845294</DistanceMeters>
          </Trackpoint>
          <Trackpoint>
            <Time>2018-09-14T08:53:36.000Z</Time>
            <Position>
              <LatitudeDegrees>38.355060517787933349609375</LatitudeDegrees>
              <LongitudeDegrees>-8.19818937219679355621337890625</LongitudeDegrees>
            </Position>
            <AltitudeMeters>177.8000030517578125</AltitudeMeters>
            <DistanceMeters>209163.43717548</DistanceMeters>
          </Trackpoint>
          <Trackpoint>
            <Time>2018-09-14T08:53:39.000Z</Time>
            <Position>
              <LatitudeDegrees>38.35486002266407012939453125</LatitudeDegrees>
              <LongitudeDegrees>-8.19840160198509693145751953125</LongitudeDegrees>
            </Position>
            <AltitudeMeters>178.399993896484375</AltitudeMeters>
            <DistanceMeters>209192.43885543</DistanceMeters>
          </Trackpoint>
          <Trackpoint>
            <Time>2018-09-14T08:53:40.000Z</Time>
            <Position>
              <LatitudeDegrees>38.3547964878380298614501953125</LatitudeDegrees>
              <LongitudeDegrees>-8.19846916012465953826904296875</LongitudeDegrees>
            </Position>
            <AltitudeMeters>178.600006103515625</AltitudeMeters>
            <DistanceMeters>209201.64615458</DistanceMeters>
          </Trackpoint>
          <Trackpoint>
            <Time>2018-09-14T08:53:42.000Z</Time>
            <Position>
              <LatitudeDegrees>38.35467369295656681060791015625</LatitudeDegrees>
              <LongitudeDegrees>-8.1986005045473575592041015625</LongitudeDegrees>
            </Position>
            <AltitudeMeters>178.8000030517578125</AltitudeMeters>
            <DistanceMeters>209219.48487354</DistanceMeters>
          </Trackpoint>
          <Trackpoint>
            <Time>2018-09-14T08:53:44.000Z</Time>
            <Position>
              <LatitudeDegrees>38.35455550812184810638427734375</LatitudeDegrees>
              <LongitudeDegrees>-8.198727406561374664306640625</LongitudeDegrees>
            </Position>
            <AltitudeMeters>178.8000030517578125</AltitudeMeters>
            <DistanceMeters>209236.68129594</DistanceMeters>
          </Trackpoint>
          <Trackpoint>
            <Time>2018-09-14T08:53:46.000Z</Time>
            <Position>
              <LatitudeDegrees>38.35444235242903232574462890625</LatitudeDegrees>
              <LongitudeDegrees>-8.19885238073766231536865234375</LongitudeDegrees>
            </Position>
            <AltitudeMeters>179</AltitudeMeters>
            <DistanceMeters>209253.34270674</DistanceMeters>
          </Trackpoint>
          <Trackpoint>
            <Time>2018-09-14T08:53:50.000Z</Time>
            <Position>
              <LatitudeDegrees>38.35421805270016193389892578125</LatitudeDegrees>
              <LongitudeDegrees>-8.1990993954241275787353515625</LongitudeDegrees>
            </Position>
            <AltitudeMeters>179</AltitudeMeters>
            <DistanceMeters>209286.32875017</DistanceMeters>
          </Trackpoint>
          <Trackpoint>
            <Time>2018-09-14T08:53:51.000Z</Time>
            <Position>
              <LatitudeDegrees>38.35416038520634174346923828125</LatitudeDegrees>
              <LongitudeDegrees>-8.19916133768856525421142578125</LongitudeDegrees>
            </Position>
            <AltitudeMeters>179</AltitudeMeters>
            <DistanceMeters>209294.72074435</DistanceMeters>
          </Trackpoint>
          <Trackpoint>
            <Time>2018-09-14T08:53:53.000Z</Time>
            <Position>
              <LatitudeDegrees>38.35404354147613048553466796875</LatitudeDegrees>
              <LongitudeDegrees>-8.1992861442267894744873046875</LongitudeDegrees>
            </Position>
            <AltitudeMeters>179</AltitudeMeters>
            <DistanceMeters>209311.68507564</DistanceMeters>
          </Trackpoint>
          <Trackpoint>
            <Time>2018-09-14T08:53:57.000Z</Time>
            <Position>
              <LatitudeDegrees>38.3538087643682956695556640625</LatitudeDegrees>
              <LongitudeDegrees>-8.1995355896651744842529296875</LongitudeDegrees>
            </Position>
            <AltitudeMeters>179.1999969482421875</AltitudeMeters>
            <DistanceMeters>209345.6977373</DistanceMeters>
          </Trackpoint>
          <Trackpoint>
            <Time>2018-09-14T08:54:05.000Z</Time>
            <Position>
              <LatitudeDegrees>38.35334901697933673858642578125</LatitudeDegrees>
              <LongitudeDegrees>-8.2000307925045490264892578125</LongitudeDegrees>
            </Position>
            <AltitudeMeters>179.1999969482421875</AltitudeMeters>
            <DistanceMeters>209412.68018024</DistanceMeters>
          </Trackpoint>
          <Trackpoint>
            <Time>2018-09-14T08:54:13.000Z</Time>
            <Position>
              <LatitudeDegrees>38.352888934314250946044921875</LatitudeDegrees>
              <LongitudeDegrees>-8.2005256600677967071533203125</LongitudeDegrees>
            </Position>
            <AltitudeMeters>178.600006103515625</AltitudeMeters>
            <DistanceMeters>209479.67239637</DistanceMeters>
          </Trackpoint>
          <Trackpoint>
            <Time>2018-09-14T08:54:19.000Z</Time>
            <Position>
              <LatitudeDegrees>38.35251434706151485443115234375</LatitudeDegrees>
              <LongitudeDegrees>-8.20092857815325260162353515625</LongitudeDegrees>
            </Position>
            <AltitudeMeters>177.399993896484375</AltitudeMeters>
            <DistanceMeters>209534.21632322</DistanceMeters>
          </Trackpoint>
          <Trackpoint>
            <Time>2018-09-14T08:54:25.000Z</Time>
            <Position>
              <LatitudeDegrees>38.35208167321979999542236328125</LatitudeDegrees>
              <LongitudeDegrees>-8.201390169560909271240234375</LongitudeDegrees>
            </Position>
            <AltitudeMeters>174.1999969482421875</AltitudeMeters>
            <DistanceMeters>209597.00482474</DistanceMeters>
          </Trackpoint>
          <Trackpoint>
            <Time>2018-09-14T08:54:26.000Z</Time>
            <Position>
              <LatitudeDegrees>38.35200623609125614166259765625</LatitudeDegrees>
              <LongitudeDegrees>-8.20147298276424407958984375</LongitudeDegrees>
            </Position>
            <AltitudeMeters>173.600006103515625</AltitudeMeters>
            <DistanceMeters>209608.08430394</DistanceMeters>
          </Trackpoint>
          <Trackpoint>
            <Time>2018-09-14T08:54:28.000Z</Time>
            <Position>
              <LatitudeDegrees>38.3518487401306629180908203125</LatitudeDegrees>
              <LongitudeDegrees>-8.201641626656055450439453125</LongitudeDegrees>
            </Position>
            <AltitudeMeters>172.600006103515625</AltitudeMeters>
            <DistanceMeters>209630.97450174</DistanceMeters>
          </Trackpoint>
          <Trackpoint>
            <Time>2018-09-14T08:54:29.000Z</Time>
            <Position>
              <LatitudeDegrees>38.351767100393772125244140625</LatitudeDegrees>
              <LongitudeDegrees>-8.2017279602587223052978515625</LongitudeDegrees>
            </Position>
            <AltitudeMeters>172</AltitudeMeters>
            <DistanceMeters>209642.77925247</DistanceMeters>
          </Trackpoint>
          <Trackpoint>
            <Time>2018-09-14T08:54:31.000Z</Time>
            <Position>
              <LatitudeDegrees>38.3516003005206584930419921875</LatitudeDegrees>
              <LongitudeDegrees>-8.20190389640629291534423828125</LongitudeDegrees>
            </Position>
            <AltitudeMeters>170.8000030517578125</AltitudeMeters>
            <DistanceMeters>209666.87260081</DistanceMeters>
          </Trackpoint>
          <Trackpoint>
            <Time>2018-09-14T08:54:33.000Z</Time>
            <Position>
              <LatitudeDegrees>38.3514326624572277069091796875</LatitudeDegrees>
              <LongitudeDegrees>-8.2020823471248149871826171875</LongitudeDegrees>
            </Position>
            <AltitudeMeters>169.399993896484375</AltitudeMeters>
            <DistanceMeters>209691.17790066</DistanceMeters>
          </Trackpoint>
          <Trackpoint>
            <Time>2018-09-14T08:54:37.000Z</Time>
            <Position>
              <LatitudeDegrees>38.351101242005825042724609375</LatitudeDegrees>
              <LongitudeDegrees>-8.20244402624666690826416015625</LongitudeDegrees>
            </Position>
            <AltitudeMeters>166.399993896484375</AltitudeMeters>
            <DistanceMeters>209739.73032157</DistanceMeters>
          </Trackpoint>
          <Trackpoint>
            <Time>2018-09-14T08:54:39.000Z</Time>
            <Position>
              <LatitudeDegrees>38.3509371243417263031005859375</LatitudeDegrees>
              <LongitudeDegrees>-8.20262172259390354156494140625</LongitudeDegrees>
            </Position>
            <AltitudeMeters>165</AltitudeMeters>
            <DistanceMeters>209763.69363981</DistanceMeters>
          </Trackpoint>
          <Trackpoint>
            <Time>2018-09-14T08:54:40.000Z</Time>
            <Position>
              <LatitudeDegrees>38.35085473023355007171630859375</LatitudeDegrees>
              <LongitudeDegrees>-8.2027076371014118194580078125</LongitudeDegrees>
            </Position>
            <AltitudeMeters>165.399993896484375</AltitudeMeters>
            <DistanceMeters>209775.54038823</DistanceMeters>
          </Trackpoint>
          <Trackpoint>
            <Time>2018-09-14T08:54:44.000Z</Time>
            <Position>
              <LatitudeDegrees>38.350542001426219940185546875</LatitudeDegrees>
              <LongitudeDegrees>-8.20304534398019313812255859375</LongitudeDegrees>
            </Position>
            <AltitudeMeters>166.600006103515625</AltitudeMeters>
            <DistanceMeters>209821.15232024</DistanceMeters>
          </Trackpoint>
          <Trackpoint>
            <Time>2018-09-14T08:54:48.000Z</Time>
            <Position>
              <LatitudeDegrees>38.3502431027591228485107421875</LatitudeDegrees>
              <LongitudeDegrees>-8.20336653850972652435302734375</LongitudeDegrees>
            </Position>
            <AltitudeMeters>167.600006103515625</AltitudeMeters>
            <DistanceMeters>209864.65836883</DistanceMeters>
          </Trackpoint>
          <Trackpoint>
            <Time>2018-09-14T08:54:53.000Z</Time>
            <Position>
              <LatitudeDegrees>38.34989215247333049774169921875</LatitudeDegrees>
              <LongitudeDegrees>-8.20374355651438236236572265625</LongitudeDegrees>
            </Position>
            <AltitudeMeters>169.1999969482421875</AltitudeMeters>
            <DistanceMeters>209915.73467532</DistanceMeters>
          </Trackpoint>
          <Trackpoint>
            <Time>2018-09-14T08:54:56.000Z</Time>
            <Position>
              <LatitudeDegrees>38.3497046492993831634521484375</LatitudeDegrees>
              <LongitudeDegrees>-8.203951008617877960205078125</LongitudeDegrees>
            </Position>
            <AltitudeMeters>170.1999969482421875</AltitudeMeters>
            <DistanceMeters>209943.3649079</DistanceMeters>
          </Trackpoint>
          <Trackpoint>
            <Time>2018-09-14T08:54:58.000Z</Time>
            <Position>
              <LatitudeDegrees>38.3495849557220935821533203125</LatitudeDegrees>
              <LongitudeDegrees>-8.20407900027930736541748046875</LongitudeDegrees>
            </Position>
            <AltitudeMeters>170.8000030517578125</AltitudeMeters>
            <DistanceMeters>209960.75142104</DistanceMeters>
          </Trackpoint>
          <Trackpoint>
            <Time>2018-09-14T08:55:01.000Z</Time>
            <Position>
              <LatitudeDegrees>38.34941237233579158782958984375</LatitudeDegrees>
              <LongitudeDegrees>-8.20426122285425662994384765625</LongitudeDegrees>
            </Position>
            <AltitudeMeters>171.600006103515625</AltitudeMeters>
            <DistanceMeters>209985.69081969</DistanceMeters>
          </Trackpoint>
          <Trackpoint>
            <Time>2018-09-14T08:55:04.000Z</Time>
            <Position>
              <LatitudeDegrees>38.3492476679384708404541015625</LatitudeDegrees>
              <LongitudeDegrees>-8.20443791337311267852783203125</LongitudeDegrees>
            </Position>
            <AltitudeMeters>172.1999969482421875</AltitudeMeters>
            <DistanceMeters>210009.64735405</DistanceMeters>
          </Trackpoint>
          <Trackpoint>
            <Time>2018-09-14T08:55:05.000Z</Time>
            <Position>
              <LatitudeDegrees>38.34919444285333156585693359375</LatitudeDegrees>
              <LongitudeDegrees>-8.2044970057904720306396484375</LongitudeDegrees>
            </Position>
            <AltitudeMeters>172.1999969482421875</AltitudeMeters>
            <DistanceMeters>210017.50187391</DistanceMeters>
          </Trackpoint>
          <Trackpoint>
            <Time>2018-09-14T08:55:07.000Z</Time>
            <Position>
              <LatitudeDegrees>38.34908656775951385498046875</LatitudeDegrees>
              <LongitudeDegrees>-8.20461250841617584228515625</LongitudeDegrees>
            </Position>
            <AltitudeMeters>172.399993896484375</AltitudeMeters>
            <DistanceMeters>210033.17984192</DistanceMeters>
          </Trackpoint>
          <Trackpoint>
            <Time>2018-09-14T08:55:09.000Z</Time>
            <Position>
              <LatitudeDegrees>38.34897886030375957489013671875</LatitudeDegrees>
              <LongitudeDegrees>-8.204729519784450531005859375</LongitudeDegrees>
            </Position>
            <AltitudeMeters>172.600006103515625</AltitudeMeters>
            <DistanceMeters>210048.92878188</DistanceMeters>
          </Trackpoint>
          <Trackpoint>
            <Time>2018-09-14T08:55:12.000Z</Time>
            <Position>
              <LatitudeDegrees>38.34881189279258251190185546875</LatitudeDegrees>
              <LongitudeDegrees>-8.2049077190458774566650390625</LongitudeDegrees>
            </Position>
            <AltitudeMeters>172.8000030517578125</AltitudeMeters>
            <DistanceMeters>210073.16320248</DistanceMeters>
          </Trackpoint>
          <Trackpoint>
            <Time>2018-09-14T08:55:20.000Z</Time>
            <Position>
              <LatitudeDegrees>38.3483588509261608123779296875</LatitudeDegrees>
              <LongitudeDegrees>-8.2053948752582073211669921875</LongitudeDegrees>
            </Position>
            <AltitudeMeters>172.600006103515625</AltitudeMeters>
            <DistanceMeters>210139.12420135</DistanceMeters>
          </Trackpoint>
          <Trackpoint>
            <Time>2018-09-14T08:55:27.000Z</Time>
            <Position>
              <LatitudeDegrees>38.3479193039238452911376953125</LatitudeDegrees>
              <LongitudeDegrees>-8.20586618967354297637939453125</LongitudeDegrees>
            </Position>
            <AltitudeMeters>172.1999969482421875</AltitudeMeters>
            <DistanceMeters>210203.04575569</DistanceMeters>
          </Trackpoint>
          <Trackpoint>
            <Time>2018-09-14T08:55:34.000Z</Time>
            <Position>
              <LatitudeDegrees>38.34745469503104686737060546875</LatitudeDegrees>
              <LongitudeDegrees>-8.2063681818544864654541015625</LongitudeDegrees>
            </Position>
            <AltitudeMeters>169.8000030517578125</AltitudeMeters>
            <DistanceMeters>210270.82638664</DistanceMeters>
          </Trackpoint>
          <Trackpoint>
            <Time>2018-09-14T08:55:40.000Z</Time>
            <Position>
              <LatitudeDegrees>38.34703912027180194854736328125</LatitudeDegrees>
              <LongitudeDegrees>-8.20681636221706867218017578125</LongitudeDegrees>
            </Position>
            <AltitudeMeters>167.600006103515625</AltitudeMeters>
            <DistanceMeters>210331.40664372</DistanceMeters>
          </Trackpoint>
          <Trackpoint>
            <Time>2018-09-14T08:55:41.000Z</Time>
            <Position>
              <LatitudeDegrees>38.34696904756128787994384765625</LatitudeDegrees>
              <LongitudeDegrees>-8.20689112879335880279541015625</LongitudeDegrees>
            </Position>
            <AltitudeMeters>167.399993896484375</AltitudeMeters>
            <DistanceMeters>210341.57672217</DistanceMeters>
          </Trackpoint>
          <Trackpoint>
            <Time>2018-09-14T08:55:47.000Z</Time>
            <Position>
              <LatitudeDegrees>38.3465550653636455535888671875</LatitudeDegrees>
              <LongitudeDegrees>-8.20733788423240184783935546875</LongitudeDegrees>
            </Position>
            <AltitudeMeters>167</AltitudeMeters>
            <DistanceMeters>210401.94157765</DistanceMeters>
          </Trackpoint>
          <Trackpoint>
            <Time>2018-09-14T08:55:54.000Z</Time>
            <Position>
              <LatitudeDegrees>38.3461027778685092926025390625</LatitudeDegrees>
              <LongitudeDegrees>-8.2078319974243640899658203125</LongitudeDegrees>
            </Position>
            <AltitudeMeters>167.8000030517578125</AltitudeMeters>
            <DistanceMeters>210468.23277482</DistanceMeters>
          </Trackpoint>
          <Trackpoint>
            <Time>2018-09-14T08:56:02.000Z</Time>
            <Position>
              <LatitudeDegrees>38.34568141959607601165771484375</LatitudeDegrees>
              <LongitudeDegrees>-8.20829308591783046722412109375</LongitudeDegrees>
            </Position>
            <AltitudeMeters>171</AltitudeMeters>
            <DistanceMeters>210530.03426625</DistanceMeters>
          </Trackpoint>
          <Trackpoint>
            <Time>2018-09-14T08:56:06.000Z</Time>
            <Position>
              <LatitudeDegrees>38.3454908989369869232177734375</LatitudeDegrees>
              <LongitudeDegrees>-8.2085018791258335113525390625</LongitudeDegrees>
            </Position>
            <AltitudeMeters>172.399993896484375</AltitudeMeters>
            <DistanceMeters>210557.99586686</DistanceMeters>
          </Trackpoint>
          <Trackpoint>
            <Time>2018-09-14T08:56:09.000Z</Time>
            <Position>
              <LatitudeDegrees>38.3453544415533542633056640625</LatitudeDegrees>
              <LongitudeDegrees>-8.2086431980133056640625</LongitudeDegrees>
            </Position>
            <AltitudeMeters>173</AltitudeMeters>
            <DistanceMeters>210577.56237271</DistanceMeters>
          </Trackpoint>
          <Trackpoint>
            <Time>2018-09-14T08:56:13.000Z</Time>
            <Position>
              <LatitudeDegrees>38.345182947814464569091796875</LatitudeDegrees>
              <LongitudeDegrees>-8.20883170701563358306884765625</LongitudeDegrees>
            </Position>
            <AltitudeMeters>173.8000030517578125</AltitudeMeters>
            <DistanceMeters>210602.76362935</DistanceMeters>
          </Trackpoint>
          <Trackpoint>
            <Time>2018-09-14T08:56:18.000Z</Time>
            <Position>
              <LatitudeDegrees>38.34495973773300647735595703125</LatitudeDegrees>
              <LongitudeDegrees>-8.20906765758991241455078125</LongitudeDegrees>
            </Position>
            <AltitudeMeters>174.399993896484375</AltitudeMeters>
            <DistanceMeters>210635.03495899</DistanceMeters>
          </Trackpoint>
          <Trackpoint>
            <Time>2018-09-14T08:56:23.000Z</Time>
            <Position>
              <LatitudeDegrees>38.34472403861582279205322265625</LatitudeDegrees>
              <LongitudeDegrees>-8.20931701920926570892333984375</LongitudeDegrees>
            </Position>
            <AltitudeMeters>174.8000030517578125</AltitudeMeters>
            <DistanceMeters>210669.12346669</DistanceMeters>
          </Trackpoint>
          <Trackpoint>
            <Time>2018-09-14T08:56:32.000Z</Time>
            <Position>
              <LatitudeDegrees>38.34427644498646259307861328125</LatitudeDegrees>
              <LongitudeDegrees>-8.20979210548102855682373046875</LongitudeDegrees>
            </Position>
            <AltitudeMeters>174</AltitudeMeters>
            <DistanceMeters>210733.94443382</DistanceMeters>
          </Trackpoint>
          <Trackpoint>
            <Time>2018-09-14T08:56:40.000Z</Time>
            <Position>
              <LatitudeDegrees>38.34378006868064403533935546875</LatitudeDegrees>
              <LongitudeDegrees>-8.210196197032928466796875</LongitudeDegrees>
            </Position>
            <AltitudeMeters>173.399993896484375</AltitudeMeters>
            <DistanceMeters>210799.49289431</DistanceMeters>
          </Trackpoint>
          <Trackpoint>
            <Time>2018-09-14T08:56:41.000Z</Time>
            <Position>
              <LatitudeDegrees>38.34370530210435390472412109375</LatitudeDegrees>
              <LongitudeDegrees>-8.2102302275598049163818359375</LongitudeDegrees>
            </Position>
            <AltitudeMeters>173.399993896484375</AltitudeMeters>
            <DistanceMeters>210808.32884592</DistanceMeters>
          </Trackpoint>
          <Trackpoint>
            <Time>2018-09-14T08:56:43.000Z</Time>
            <Position>
              <LatitudeDegrees>38.343549482524394989013671875</LatitudeDegrees>
              <LongitudeDegrees>-8.21028311736881732940673828125</LongitudeDegrees>
            </Position>
            <AltitudeMeters>173.600006103515625</AltitudeMeters>
            <DistanceMeters>210826.2760693</DistanceMeters>
          </Trackpoint>
          <Trackpoint>
            <Time>2018-09-14T08:56:46.000Z</Time>
            <Position>
              <LatitudeDegrees>38.34330598823726177215576171875</LatitudeDegrees>
              <LongitudeDegrees>-8.2103492505848407745361328125</LongitudeDegrees>
            </Position>
            <AltitudeMeters>172.8000030517578125</AltitudeMeters>
            <DistanceMeters>210853.98576796</DistanceMeters>
          </Trackpoint>
          <Trackpoint>
            <Time>2018-09-14T08:56:51.000Z</Time>
            <Position>
              <LatitudeDegrees>38.34288806654512882232666015625</LatitudeDegrees>
              <LongitudeDegrees>-8.21046349592506885528564453125</LongitudeDegrees>
            </Position>
            <AltitudeMeters>170.399993896484375</AltitudeMeters>
            <DistanceMeters>210901.55847977</DistanceMeters>
          </Trackpoint>
          <Trackpoint>
            <Time>2018-09-14T08:56:55.000Z</Time>
            <Position>
              <LatitudeDegrees>38.3425438217818737030029296875</LatitudeDegrees>
              <LongitudeDegrees>-8.2105611450970172882080078125</LongitudeDegrees>
            </Position>
            <AltitudeMeters>169</AltitudeMeters>
            <DistanceMeters>210940.81049466</DistanceMeters>
          </Trackpoint>
          <Trackpoint>
            <Time>2018-09-14T08:56:58.000Z</Time>
            <Position>
              <LatitudeDegrees>38.34227736108005046844482421875</LatitudeDegrees>
              <LongitudeDegrees>-8.21063113398849964141845703125</LongitudeDegrees>
            </Position>
            <AltitudeMeters>168.8000030517578125</AltitudeMeters>
            <DistanceMeters>210971.09108187</DistanceMeters>
          </Trackpoint>
          <Trackpoint>
            <Time>2018-09-14T08:57:02.000Z</Time>
            <Position>
              <LatitudeDegrees>38.34191878326237201690673828125</LatitudeDegrees>
              <LongitudeDegrees>-8.210724256932735443115234375</LongitudeDegrees>
            </Position>
            <AltitudeMeters>168.600006103515625</AltitudeMeters>
            <DistanceMeters>211011.8209772</DistanceMeters>
          </Trackpoint>
          <Trackpoint>
            <Time>2018-09-14T08:57:05.000Z</Time>
            <Position>
              <LatitudeDegrees>38.34166967310011386871337890625</LatitudeDegrees>
              <LongitudeDegrees>-8.21078754030168056488037109375</LongitudeDegrees>
            </Position>
            <AltitudeMeters>168.600006103515625</AltitudeMeters>
            <DistanceMeters>211040.09234304</DistanceMeters>
          </Trackpoint>
          <Trackpoint>
            <Time>2018-09-14T08:57:08.000Z</Time>
            <Position>
              <LatitudeDegrees>38.34143263287842273712158203125</LatitudeDegrees>
              <LongitudeDegrees>-8.2108481414616107940673828125</LongitudeDegrees>
            </Position>
            <AltitudeMeters>168.600006103515625</AltitudeMeters>
            <DistanceMeters>211067.00051261</DistanceMeters>
          </Trackpoint>
          <Trackpoint>
            <Time>2018-09-14T08:57:12.000Z</Time>
            <Position>
              <LatitudeDegrees>38.3411259390413761138916015625</LatitudeDegrees>
              <LongitudeDegrees>-8.2109215669333934783935546875</LongitudeDegrees>
            </Position>
            <AltitudeMeters>168.8000030517578125</AltitudeMeters>
            <DistanceMeters>211101.73274421</DistanceMeters>
          </Trackpoint>
          <Trackpoint>
            <Time>2018-09-14T08:57:19.000Z</Time>
            <Position>
              <LatitudeDegrees>38.34058237262070178985595703125</LatitudeDegrees>
              <LongitudeDegrees>-8.21099884808063507080078125</LongitudeDegrees>
            </Position>
            <AltitudeMeters>167.8000030517578125</AltitudeMeters>
            <DistanceMeters>211162.60772077</DistanceMeters>
          </Trackpoint>
          <Trackpoint>
            <Time>2018-09-14T08:57:26.000Z</Time>
            <Position>
              <LatitudeDegrees>38.3400332741439342498779296875</LatitudeDegrees>
              <LongitudeDegrees>-8.21101251058280467987060546875</LongitudeDegrees>
            </Position>
            <AltitudeMeters>166.1999969482421875</AltitudeMeters>
            <DistanceMeters>211223.73509051</DistanceMeters>
          </Trackpoint>
          <Trackpoint>
            <Time>2018-09-14T08:57:29.000Z</Time>
            <Position>
              <LatitudeDegrees>38.3397947251796722412109375</LatitudeDegrees>
              <LongitudeDegrees>-8.2110127620398998260498046875</LongitudeDegrees>
            </Position>
            <AltitudeMeters>164.8000030517578125</AltitudeMeters>
            <DistanceMeters>211250.28600345</DistanceMeters>
          </Trackpoint>
          <Trackpoint>
            <Time>2018-09-14T08:57:35.000Z</Time>
            <Position>
              <LatitudeDegrees>38.3393087424337863922119140625</LatitudeDegrees>
              <LongitudeDegrees>-8.21101720444858074188232421875</LongitudeDegrees>
            </Position>
            <AltitudeMeters>161.8000030517578125</AltitudeMeters>
            <DistanceMeters>211304.37824429</DistanceMeters>
          </Trackpoint>
          <Trackpoint>
            <Time>2018-09-14T08:57:38.000Z</Time>
            <Position>
              <LatitudeDegrees>38.33906575106084346771240234375</LatitudeDegrees>
              <LongitudeDegrees>-8.2110204733908176422119140625</LongitudeDegrees>
            </Position>
            <AltitudeMeters>162.1999969482421875</AltitudeMeters>
            <DistanceMeters>211331.4253246</DistanceMeters>
          </Trackpoint>
          <Trackpoint>
            <Time>2018-09-14T08:57:44.000Z</Time>
            <Position>
              <LatitudeDegrees>38.3386056683957576751708984375</LatitudeDegrees>
              <LongitudeDegrees>-8.2110184617340564727783203125</LongitudeDegrees>
            </Position>
            <AltitudeMeters>163.399993896484375</AltitudeMeters>
            <DistanceMeters>211382.63387993</DistanceMeters>
          </Trackpoint>
          <Trackpoint>
            <Time>2018-09-14T08:57:52.000Z</Time>
            <Position>
              <LatitudeDegrees>38.33799152635037899017333984375</LatitudeDegrees>
              <LongitudeDegrees>-8.2110332138836383819580078125</LongitudeDegrees>
            </Position>
            <AltitudeMeters>162.399993896484375</AltitudeMeters>
            <DistanceMeters>211451.00129189</DistanceMeters>
          </Trackpoint>
          <Trackpoint>
            <Time>2018-09-14T08:57:57.000Z</Time>
            <Position>
              <LatitudeDegrees>38.337588943541049957275390625</LatitudeDegrees>
              <LongitudeDegrees>-8.21104268543422222137451171875</LongitudeDegrees>
            </Position>
            <AltitudeMeters>161.399993896484375</AltitudeMeters>
            <DistanceMeters>211495.81724444</DistanceMeters>
          </Trackpoint>
          <Trackpoint>
            <Time>2018-09-14T08:58:01.000Z</Time>
            <Position>
              <LatitudeDegrees>38.33725869655609130859375</LatitudeDegrees>
              <LongitudeDegrees>-8.21105123497545719146728515625</LongitudeDegrees>
            </Position>
            <AltitudeMeters>160.600006103515625</AltitudeMeters>
            <DistanceMeters>211532.58214567</DistanceMeters>
          </Trackpoint>
          <Trackpoint>
            <Time>2018-09-14T08:58:04.000Z</Time>
            <Position>
              <LatitudeDegrees>38.33700858056545257568359375</LatitudeDegrees>
              <LongitudeDegrees>-8.211064226925373077392578125</LongitudeDegrees>
            </Position>
            <AltitudeMeters>160</AltitudeMeters>
            <DistanceMeters>211560.44377738</DistanceMeters>
          </Trackpoint>
          <Trackpoint>
            <Time>2018-09-14T08:58:07.000Z</Time>
            <Position>
              <LatitudeDegrees>38.3367495797574520111083984375</LatitudeDegrees>
              <LongitudeDegrees>-8.21107420139014720916748046875</LongitudeDegrees>
            </Position>
            <AltitudeMeters>159.1999969482421875</AltitudeMeters>
            <DistanceMeters>211589.28434605</DistanceMeters>
          </Trackpoint>
          <Trackpoint>
            <Time>2018-09-14T08:58:11.000Z</Time>
            <Position>
              <LatitudeDegrees>38.33638924174010753631591796875</LatitudeDegrees>
              <LongitudeDegrees>-8.211078308522701263427734375</LongitudeDegrees>
            </Position>
            <AltitudeMeters>157.8000030517578125</AltitudeMeters>
            <DistanceMeters>211629.39226183</DistanceMeters>
          </Trackpoint>
          <Trackpoint>
            <Time>2018-09-14T08:58:17.000Z</Time>
            <Position>
              <LatitudeDegrees>38.33585196174681186676025390625</LatitudeDegrees>
              <LongitudeDegrees>-8.21108761243522167205810546875</LongitudeDegrees>
            </Position>
            <AltitudeMeters>156.399993896484375</AltitudeMeters>
            <DistanceMeters>211689.19804758</DistanceMeters>
          </Trackpoint>
          <Trackpoint>
            <Time>2018-09-14T08:58:22.000Z</Time>
            <Position>
              <LatitudeDegrees>38.33542498759925365447998046875</LatitudeDegrees>
              <LongitudeDegrees>-8.21110052056610584259033203125</LongitudeDegrees>
            </Position>
            <AltitudeMeters>156.8000030517578125</AltitudeMeters>
            <DistanceMeters>211736.73449064</DistanceMeters>
          </Trackpoint>
          <Trackpoint>
            <Time>2018-09-14T08:58:27.000Z</Time>
            <Position>
              <LatitudeDegrees>38.335008323192596435546875</LatitudeDegrees>
              <LongitudeDegrees>-8.2111049629747867584228515625</LongitudeDegrees>
            </Position>
            <AltitudeMeters>157.399993896484375</AltitudeMeters>
            <DistanceMeters>211783.11181105</DistanceMeters>
          </Trackpoint>
          <Trackpoint>
            <Time>2018-09-14T08:58:30.000Z</Time>
            <Position>
              <LatitudeDegrees>38.334765918552875518798828125</LatitudeDegrees>
              <LongitudeDegrees>-8.211107142269611358642578125</LongitudeDegrees>
            </Position>
            <AltitudeMeters>157.399993896484375</AltitudeMeters>
            <DistanceMeters>211810.09253774</DistanceMeters>
          </Trackpoint>
          <Trackpoint>
            <Time>2018-09-14T08:58:35.000Z</Time>
            <Position>
              <LatitudeDegrees>38.33436333574354648590087890625</LatitudeDegrees>
              <LongitudeDegrees>-8.2111143507063388824462890625</LongitudeDegrees>
            </Position>
            <AltitudeMeters>157.399993896484375</AltitudeMeters>
            <DistanceMeters>211854.90526629</DistanceMeters>
          </Trackpoint>
          <Trackpoint>
            <Time>2018-09-14T08:58:42.000Z</Time>
            <Position>
              <LatitudeDegrees>38.33380342461168766021728515625</LatitudeDegrees>
              <LongitudeDegrees>-8.2111254148185253143310546875</LongitudeDegrees>
            </Position>
            <AltitudeMeters>157</AltitudeMeters>
            <DistanceMeters>211917.23192563</DistanceMeters>
          </Trackpoint>
          <Trackpoint>
            <Time>2018-09-14T08:58:47.000Z</Time>
            <Position>
              <LatitudeDegrees>38.33341450430452823638916015625</LatitudeDegrees>
              <LongitudeDegrees>-8.2111374847590923309326171875</LongitudeDegrees>
            </Position>
            <AltitudeMeters>156.8000030517578125</AltitudeMeters>
            <DistanceMeters>211960.53231596</DistanceMeters>
          </Trackpoint>
          <Trackpoint>
            <Time>2018-09-14T08:58:54.000Z</Time>
            <Position>
              <LatitudeDegrees>38.33287051878869533538818359375</LatitudeDegrees>
              <LongitudeDegrees>-8.21114377118647098541259765625</LongitudeDegrees>
            </Position>
            <AltitudeMeters>157</AltitudeMeters>
            <DistanceMeters>212021.08141154</DistanceMeters>
          </Trackpoint>
          <Trackpoint>
            <Time>2018-09-14T08:58:59.000Z</Time>
            <Position>
              <LatitudeDegrees>38.33249509334564208984375</LatitudeDegrees>
              <LongitudeDegrees>-8.2111468724906444549560546875</LongitudeDegrees>
            </Position>
            <AltitudeMeters>156.8000030517578125</AltitudeMeters>
            <DistanceMeters>212062.86788976</DistanceMeters>
          </Trackpoint>
          <Trackpoint>
            <Time>2018-09-14T08:59:07.000Z</Time>
            <Position>
              <LatitudeDegrees>38.3318998105823993682861328125</LatitudeDegrees>
              <LongitudeDegrees>-8.21116237901151180267333984375</LongitudeDegrees>
            </Position>
            <AltitudeMeters>157.399993896484375</AltitudeMeters>
            <DistanceMeters>212129.13783346</DistanceMeters>
          </Trackpoint>
          <Trackpoint>
            <Time>2018-09-14T08:59:09.000Z</Time>
            <Position>
              <LatitudeDegrees>38.3317499421536922454833984375</LatitudeDegrees>
              <LongitudeDegrees>-8.2111673243343830108642578125</LongitudeDegrees>
            </Position>
            <AltitudeMeters>157.1999969482421875</AltitudeMeters>
            <DistanceMeters>212145.82415651</DistanceMeters>
          </Trackpoint>
          <Trackpoint>
            <Time>2018-09-14T08:59:16.000Z</Time>
            <Position>
              <LatitudeDegrees>38.33116329275071620941162109375</LatitudeDegrees>
              <LongitudeDegrees>-8.211186267435550689697265625</LongitudeDegrees>
            </Position>
            <AltitudeMeters>154.600006103515625</AltitudeMeters>
            <DistanceMeters>212211.14035232</DistanceMeters>
          </Trackpoint>
          <Trackpoint>
            <Time>2018-09-14T08:59:21.000Z</Time>
            <Position>
              <LatitudeDegrees>38.33069868385791778564453125</LatitudeDegrees>
              <LongitudeDegrees>-8.21119867265224456787109375</LongitudeDegrees>
            </Position>
            <AltitudeMeters>152.8000030517578125</AltitudeMeters>
            <DistanceMeters>212262.86352477</DistanceMeters>
          </Trackpoint>
          <Trackpoint>
            <Time>2018-09-14T08:59:23.000Z</Time>
            <Position>
              <LatitudeDegrees>38.330508582293987274169921875</LatitudeDegrees>
              <LongitudeDegrees>-8.21122105233371257781982421875</LongitudeDegrees>
            </Position>
            <AltitudeMeters>152.1999969482421875</AltitudeMeters>
            <DistanceMeters>212284.11214407</DistanceMeters>
          </Trackpoint>
          <Trackpoint>
            <Time>2018-09-14T08:59:25.000Z</Time>
            <Position>
              <LatitudeDegrees>38.3303206600248813629150390625</LatitudeDegrees>
              <LongitudeDegrees>-8.21126975119113922119140625</LongitudeDegrees>
            </Position>
            <AltitudeMeters>151.600006103515625</AltitudeMeters>
            <DistanceMeters>212305.45595644</DistanceMeters>
          </Trackpoint>
          <Trackpoint>
            <Time>2018-09-14T08:59:27.000Z</Time>
            <Position>
              <LatitudeDegrees>38.3301362581551074981689453125</LatitudeDegrees>
              <LongitudeDegrees>-8.211347199976444244384765625</LongitudeDegrees>
            </Position>
            <AltitudeMeters>151</AltitudeMeters>
            <DistanceMeters>212327.06570825</DistanceMeters>
          </Trackpoint>
          <Trackpoint>
            <Time>2018-09-14T08:59:29.000Z</Time>
            <Position>
              <LatitudeDegrees>38.32995763979852199554443359375</LatitudeDegrees>
              <LongitudeDegrees>-8.21145884692668914794921875</LongitudeDegrees>
            </Position>
            <AltitudeMeters>150.8000030517578125</AltitudeMeters>
            <DistanceMeters>212349.20754445</DistanceMeters>
          </Trackpoint>
          <Trackpoint>
            <Time>2018-09-14T08:59:31.000Z</Time>
            <Position>
              <LatitudeDegrees>38.32978807389736175537109375</LatitudeDegrees>
              <LongitudeDegrees>-8.2116035185754299163818359375</LongitudeDegrees>
            </Position>
            <AltitudeMeters>150.399993896484375</AltitudeMeters>
            <DistanceMeters>212371.91753753</DistanceMeters>
          </Trackpoint>
          <Trackpoint>
            <Time>2018-09-14T08:59:34.000Z</Time>
            <Position>
              <LatitudeDegrees>38.32954525016248226165771484375</LatitudeDegrees>
              <LongitudeDegrees>-8.211850784718990325927734375</LongitudeDegrees>
            </Position>
            <AltitudeMeters>150</AltitudeMeters>
            <DistanceMeters>212406.5083058</DistanceMeters>
          </Trackpoint>
          <Trackpoint>
            <Time>2018-09-14T08:59:37.000Z</Time>
            <Position>
              <LatitudeDegrees>38.32930938340723514556884765625</LatitudeDegrees>
              <LongitudeDegrees>-8.21209478192031383514404296875</LongitudeDegrees>
            </Position>
            <AltitudeMeters>149.600006103515625</AltitudeMeters>
            <DistanceMeters>212440.31712279</DistanceMeters>
          </Trackpoint>
          <Trackpoint>
            <Time>2018-09-14T08:59:40.000Z</Time>
            <Position>
              <LatitudeDegrees>38.32908659242093563079833984375</LatitudeDegrees>
              <LongitudeDegrees>-8.2123280502855777740478515625</LongitudeDegrees>
            </Position>
            <AltitudeMeters>149.600006103515625</AltitudeMeters>
            <DistanceMeters>212472.40605572</DistanceMeters>
          </Trackpoint>
          <Trackpoint>
            <Time>2018-09-14T08:59:42.000Z</Time>
            <Position>
              <LatitudeDegrees>38.32894317805767059326171875</LatitudeDegrees>
              <LongitudeDegrees>-8.21247749961912631988525390625</LongitudeDegrees>
            </Position>
            <AltitudeMeters>149.600006103515625</AltitudeMeters>
            <DistanceMeters>212493.02313016</DistanceMeters>
          </Trackpoint>
          <Trackpoint>
            <Time>2018-09-14T08:59:44.000Z</Time>
            <Position>
              <LatitudeDegrees>38.3288082294166088104248046875</LatitudeDegrees>
              <LongitudeDegrees>-8.21262585930526256561279296875</LongitudeDegrees>
            </Position>
            <AltitudeMeters>149.600006103515625</AltitudeMeters>
            <DistanceMeters>212512.85755252</DistanceMeters>
          </Trackpoint>
          <Trackpoint>
            <Time>2018-09-14T08:59:50.000Z</Time>
            <Position>
              <LatitudeDegrees>38.32839064300060272216796875</LatitudeDegrees>
              <LongitudeDegrees>-8.21307043544948101043701171875</LongitudeDegrees>
            </Position>
            <AltitudeMeters>148.600006103515625</AltitudeMeters>
            <DistanceMeters>212573.41320976</DistanceMeters>
          </Trackpoint>
          <Trackpoint>
            <Time>2018-09-14T08:59:55.000Z</Time>
            <Position>
              <LatitudeDegrees>38.3280451409518718719482421875</LatitudeDegrees>
              <LongitudeDegrees>-8.2134193740785121917724609375</LongitudeDegrees>
            </Position>
            <AltitudeMeters>149.8000030517578125</AltitudeMeters>
            <DistanceMeters>212622.47479469</DistanceMeters>
          </Trackpoint>
          <Trackpoint>
            <Time>2018-09-14T09:00:02.000Z</Time>
            <Position>
              <LatitudeDegrees>38.32756829448044300079345703125</LatitudeDegrees>
              <LongitudeDegrees>-8.21389739401638507843017578125</LongitudeDegrees>
            </Position>
            <AltitudeMeters>150.1999969482421875</AltitudeMeters>
            <DistanceMeters>212689.99433463</DistanceMeters>
          </Trackpoint>
          <Trackpoint>
            <Time>2018-09-14T09:00:09.000Z</Time>
            <Position>
              <LatitudeDegrees>38.32710326649248600006103515625</LatitudeDegrees>
              <LongitudeDegrees>-8.21434088051319122314453125</LongitudeDegrees>
            </Position>
            <AltitudeMeters>147.600006103515625</AltitudeMeters>
            <DistanceMeters>212754.63485576</DistanceMeters>
          </Trackpoint>
          <Trackpoint>
            <Time>2018-09-14T09:00:10.000Z</Time>
            <Position>
              <LatitudeDegrees>38.327033780515193939208984375</LatitudeDegrees>
              <LongitudeDegrees>-8.21438790298998355865478515625</LongitudeDegrees>
            </Position>
            <AltitudeMeters>147.600006103515625</AltitudeMeters>
            <DistanceMeters>212763.39176213</DistanceMeters>
          </Trackpoint>
          <Trackpoint>
            <Time>2018-09-14T09:00:17.000Z</Time>
            <Position>
              <LatitudeDegrees>38.32646104507148265838623046875</LatitudeDegrees>
              <LongitudeDegrees>-8.21456308476626873016357421875</LongitudeDegrees>
            </Position>
            <AltitudeMeters>146.399993896484375</AltitudeMeters>
            <DistanceMeters>212828.94793683</DistanceMeters>
          </Trackpoint>
          <Trackpoint>
            <Time>2018-09-14T09:00:21.000Z</Time>
            <Position>
              <LatitudeDegrees>38.32605670206248760223388671875</LatitudeDegrees>
              <LongitudeDegrees>-8.21461773477494716644287109375</LongitudeDegrees>
            </Position>
            <AltitudeMeters>144.600006103515625</AltitudeMeters>
            <DistanceMeters>212874.20440332</DistanceMeters>
          </Trackpoint>
          <Trackpoint>
            <Time>2018-09-14T09:00:25.000Z</Time>
            <Position>
              <LatitudeDegrees>38.3256318233907222747802734375</LatitudeDegrees>
              <LongitudeDegrees>-8.2146853767335414886474609375</LongitudeDegrees>
            </Position>
            <AltitudeMeters>142</AltitudeMeters>
            <DistanceMeters>212921.86160326</DistanceMeters>
          </Trackpoint>
          <Trackpoint>
            <Time>2018-09-14T09:00:27.000Z</Time>
            <Position>
              <LatitudeDegrees>38.325420431792736053466796875</LatitudeDegrees>
              <LongitudeDegrees>-8.21471530012786388397216796875</LongitudeDegrees>
            </Position>
            <AltitudeMeters>140.600006103515625</AltitudeMeters>
            <DistanceMeters>212945.53451065</DistanceMeters>
          </Trackpoint>
          <Trackpoint>
            <Time>2018-09-14T09:00:30.000Z</Time>
            <Position>
              <LatitudeDegrees>38.32509689033031463623046875</LatitudeDegrees>
              <LongitudeDegrees>-8.2147680222988128662109375</LongitudeDegrees>
            </Position>
            <AltitudeMeters>138.399993896484375</AltitudeMeters>
            <DistanceMeters>212981.8383224</DistanceMeters>
          </Trackpoint>
          <Trackpoint>
            <Time>2018-09-14T09:00:31.000Z</Time>
            <Position>
              <LatitudeDegrees>38.32498482428491115570068359375</LatitudeDegrees>
              <LongitudeDegrees>-8.2147873006761074066162109375</LongitudeDegrees>
            </Position>
            <AltitudeMeters>137.8000030517578125</AltitudeMeters>
            <DistanceMeters>212994.42460982</DistanceMeters>
          </Trackpoint>
          <Trackpoint>
            <Time>2018-09-14T09:00:33.000Z</Time>
            <Position>
              <LatitudeDegrees>38.32475247792899608612060546875</LatitudeDegrees>
              <LongitudeDegrees>-8.21482476778328418731689453125</LongitudeDegrees>
            </Position>
            <AltitudeMeters>136.1999969482421875</AltitudeMeters>
            <DistanceMeters>213020.49139198</DistanceMeters>
          </Trackpoint>
          <Trackpoint>
            <Time>2018-09-14T09:00:35.000Z</Time>
            <Position>
              <LatitudeDegrees>38.32451443187892436981201171875</LatitudeDegrees>
              <LongitudeDegrees>-8.21486164815723896026611328125</LongitudeDegrees>
            </Position>
            <AltitudeMeters>135</AltitudeMeters>
            <DistanceMeters>213047.18138337</DistanceMeters>
          </Trackpoint>
          <Trackpoint>
            <Time>2018-09-14T09:00:37.000Z</Time>
            <Position>
              <LatitudeDegrees>38.32427747547626495361328125</LatitudeDegrees>
              <LongitudeDegrees>-8.21489936672151088714599609375</LongitudeDegrees>
            </Position>
            <AltitudeMeters>135</AltitudeMeters>
            <DistanceMeters>213073.76000034</DistanceMeters>
          </Trackpoint>
          <Trackpoint>
            <Time>2018-09-14T09:00:39.000Z</Time>
            <Position>
              <LatitudeDegrees>38.3240501582622528076171875</LatitudeDegrees>
              <LongitudeDegrees>-8.21493842639029026031494140625</LongitudeDegrees>
            </Position>
            <AltitudeMeters>135.1999969482421875</AltitudeMeters>
            <DistanceMeters>213099.28966598</DistanceMeters>
          </Trackpoint>
          <Trackpoint>
            <Time>2018-09-14T09:00:40.000Z</Time>
            <Position>
              <LatitudeDegrees>38.32394245080649852752685546875</LatitudeDegrees>
              <LongitudeDegrees>-8.21495804004371166229248046875</LongitudeDegrees>
            </Position>
            <AltitudeMeters>135.1999969482421875</AltitudeMeters>
            <DistanceMeters>213111.39951492</DistanceMeters>
          </Trackpoint>
          <Trackpoint>
            <Time>2018-09-14T09:00:42.000Z</Time>
            <Position>
              <LatitudeDegrees>38.323732651770114898681640625</LatitudeDegrees>
              <LongitudeDegrees>-8.2149945013225078582763671875</LongitudeDegrees>
            </Position>
            <AltitudeMeters>135.1999969482421875</AltitudeMeters>
            <DistanceMeters>213134.96652325</DistanceMeters>
          </Trackpoint>
          <Trackpoint>
            <Time>2018-09-14T09:00:45.000Z</Time>
            <Position>
              <LatitudeDegrees>38.3234240300953388214111328125</LatitudeDegrees>
              <LongitudeDegrees>-8.21504889987409114837646484375</LongitudeDegrees>
            </Position>
            <AltitudeMeters>135.600006103515625</AltitudeMeters>
            <DistanceMeters>213169.64359291</DistanceMeters>
          </Trackpoint>
          <Trackpoint>
            <Time>2018-09-14T09:00:51.000Z</Time>
            <Position>
              <LatitudeDegrees>38.3228010870516300201416015625</LatitudeDegrees>
              <LongitudeDegrees>-8.2151470519602298736572265625</LongitudeDegrees>
            </Position>
            <AltitudeMeters>134.1999969482421875</AltitudeMeters>
            <DistanceMeters>213239.50606744</DistanceMeters>
          </Trackpoint>
          <Trackpoint>
            <Time>2018-09-14T09:00:53.000Z</Time>
            <Position>
              <LatitudeDegrees>38.3225938864052295684814453125</LatitudeDegrees>
              <LongitudeDegrees>-8.2151785679161548614501953125</LongitudeDegrees>
            </Position>
            <AltitudeMeters>134.1999969482421875</AltitudeMeters>
            <DistanceMeters>213262.73149847</DistanceMeters>
          </Trackpoint>
          <Trackpoint>
            <Time>2018-09-14T09:00:56.000Z</Time>
            <Position>
              <LatitudeDegrees>38.32228886894881725311279296875</LatitudeDegrees>
              <LongitudeDegrees>-8.21523346938192844390869140625</LongitudeDegrees>
            </Position>
            <AltitudeMeters>133.8000030517578125</AltitudeMeters>
            <DistanceMeters>213297.01731611</DistanceMeters>
          </Trackpoint>
          <Trackpoint>
            <Time>2018-09-14T09:00:59.000Z</Time>
            <Position>
              <LatitudeDegrees>38.32197773270308971405029296875</LatitudeDegrees>
              <LongitudeDegrees>-8.21527755819261074066162109375</LongitudeDegrees>
            </Position>
            <AltitudeMeters>133.1999969482421875</AltitudeMeters>
            <DistanceMeters>213331.86090545</DistanceMeters>
          </Trackpoint>
          <Trackpoint>
            <Time>2018-09-14T09:01:04.000Z</Time>
            <Position>
              <LatitudeDegrees>38.32146241329610347747802734375</LatitudeDegrees>
              <LongitudeDegrees>-8.21536405943334102630615234375</LongitudeDegrees>
            </Position>
            <AltitudeMeters>128.8000030517578125</AltitudeMeters>
            <DistanceMeters>213389.71227632</DistanceMeters>
          </Trackpoint>
          <Trackpoint>
            <Time>2018-09-14T09:01:10.000Z</Time>
            <Position>
              <LatitudeDegrees>38.320828489959239959716796875</LatitudeDegrees>
              <LongitudeDegrees>-8.215511329472064971923828125</LongitudeDegrees>
            </Position>
            <AltitudeMeters>125.1999969482421875</AltitudeMeters>
            <DistanceMeters>213461.43157612</DistanceMeters>
          </Trackpoint>
          <Trackpoint>
            <Time>2018-09-14T09:01:11.000Z</Time>
            <Position>
              <LatitudeDegrees>38.320724554359912872314453125</LatitudeDegrees>
              <LongitudeDegrees>-8.21556187234818935394287109375</LongitudeDegrees>
            </Position>
            <AltitudeMeters>124.40000152587890625</AltitudeMeters>
            <DistanceMeters>213473.81279487</DistanceMeters>
          </Trackpoint>
          <Trackpoint>
            <Time>2018-09-14T09:01:12.000Z</Time>
            <Position>
              <LatitudeDegrees>38.32062372006475925445556640625</LatitudeDegrees>
              <LongitudeDegrees>-8.21562356315553188323974609375</LongitudeDegrees>
            </Position>
            <AltitudeMeters>123.8000030517578125</AltitudeMeters>
            <DistanceMeters>213486.26165714</DistanceMeters>
          </Trackpoint>
          <Trackpoint>
            <Time>2018-09-14T09:01:13.000Z</Time>
            <Position>
              <LatitudeDegrees>38.3205252327024936676025390625</LatitudeDegrees>
              <LongitudeDegrees>-8.21569263003766536712646484375</LongitudeDegrees>
            </Position>
            <AltitudeMeters>123</AltitudeMeters>
            <DistanceMeters>213498.7731069</DistanceMeters>
          </Trackpoint>
          <Trackpoint>
            <Time>2018-09-14T09:01:15.000Z</Time>
            <Position>
              <LatitudeDegrees>38.3203371427953243255615234375</LatitudeDegrees>
              <LongitudeDegrees>-8.21584752760827541351318359375</LongitudeDegrees>
            </Position>
            <AltitudeMeters>121.40000152587890625</AltitudeMeters>
            <DistanceMeters>213523.69747468</DistanceMeters>
          </Trackpoint>
          <Trackpoint>
            <Time>2018-09-14T09:01:18.000Z</Time>
            <Position>
              <LatitudeDegrees>38.32006179727613925933837890625</LatitudeDegrees>
              <LongitudeDegrees>-8.21609714068472385406494140625</LongitudeDegrees>
            </Position>
            <AltitudeMeters>119.59999847412109375</AltitudeMeters>
            <DistanceMeters>213561.30500974</DistanceMeters>
          </Trackpoint>
          <Trackpoint>
            <Time>2018-09-14T09:01:21.000Z</Time>
            <Position>
              <LatitudeDegrees>38.31979558803141117095947265625</LatitudeDegrees>
              <LongitudeDegrees>-8.21635245345532894134521484375</LongitudeDegrees>
            </Position>
            <AltitudeMeters>119</AltitudeMeters>
            <DistanceMeters>213598.38564646</DistanceMeters>
          </Trackpoint>
          <Trackpoint>
            <Time>2018-09-14T09:01:24.000Z</Time>
            <Position>
              <LatitudeDegrees>38.31953256390988826751708984375</LatitudeDegrees>
              <LongitudeDegrees>-8.21660064160823822021484375</LongitudeDegrees>
            </Position>
            <AltitudeMeters>118.40000152587890625</AltitudeMeters>
            <DistanceMeters>213634.81026741</DistanceMeters>
          </Trackpoint>
          <Trackpoint>
            <Time>2018-09-14T09:01:26.000Z</Time>
            <Position>
              <LatitudeDegrees>38.31936056725680828094482421875</LatitudeDegrees>
              <LongitudeDegrees>-8.21676350198686122894287109375</LongitudeDegrees>
            </Position>
            <AltitudeMeters>118</AltitudeMeters>
            <DistanceMeters>213658.65837582</DistanceMeters>
          </Trackpoint>
          <Trackpoint>
            <Time>2018-09-14T09:01:31.000Z</Time>
            <Position>
              <LatitudeDegrees>38.31894080154597759246826171875</LatitudeDegrees>
              <LongitudeDegrees>-8.21715024299919605255126953125</LongitudeDegrees>
            </Position>
            <AltitudeMeters>117.59999847412109375</AltitudeMeters>
            <DistanceMeters>213716.30701955</DistanceMeters>
          </Trackpoint>
          <Trackpoint>
            <Time>2018-09-14T09:01:36.000Z</Time>
            <Position>
              <LatitudeDegrees>38.3185444213449954986572265625</LatitudeDegrees>
              <LongitudeDegrees>-8.21752332150936126708984375</LongitudeDegrees>
            </Position>
            <AltitudeMeters>117</AltitudeMeters>
            <DistanceMeters>213771.15027814</DistanceMeters>
          </Trackpoint>
          <Trackpoint>
            <Time>2018-09-14T09:01:39.000Z</Time>
            <Position>
              <LatitudeDegrees>38.318306542932987213134765625</LatitudeDegrees>
              <LongitudeDegrees>-8.2177425920963287353515625</LongitudeDegrees>
            </Position>
            <AltitudeMeters>116.40000152587890625</AltitudeMeters>
            <DistanceMeters>213803.82510022</DistanceMeters>
          </Trackpoint>
          <Trackpoint>
            <Time>2018-09-14T09:01:44.000Z</Time>
            <Position>
              <LatitudeDegrees>38.317916952073574066162109375</LatitudeDegrees>
              <LongitudeDegrees>-8.2181021757423877716064453125</LongitudeDegrees>
            </Position>
            <AltitudeMeters>115</AltitudeMeters>
            <DistanceMeters>213857.36301953</DistanceMeters>
          </Trackpoint>
          <Trackpoint>
            <Time>2018-09-14T09:01:47.000Z</Time>
            <Position>
              <LatitudeDegrees>38.31768586300313472747802734375</LatitudeDegrees>
              <LongitudeDegrees>-8.21832421235740184783935546875</LongitudeDegrees>
            </Position>
            <AltitudeMeters>114.1999969482421875</AltitudeMeters>
            <DistanceMeters>213889.57357158</DistanceMeters>
          </Trackpoint>
          <Trackpoint>
            <Time>2018-09-14T09:01:48.000Z</Time>
            <Position>
              <LatitudeDegrees>38.31760707311332225799560546875</LatitudeDegrees>
              <LongitudeDegrees>-8.21839772164821624755859375</LongitudeDegrees>
            </Position>
            <AltitudeMeters>114</AltitudeMeters>
            <DistanceMeters>213900.44157047</DistanceMeters>
          </Trackpoint>
          <Trackpoint>
            <Time>2018-09-14T09:01:54.000Z</Time>
            <Position>
              <LatitudeDegrees>38.3171245269477367401123046875</LatitudeDegrees>
              <LongitudeDegrees>-8.2188498415052890777587890625</LongitudeDegrees>
            </Position>
            <AltitudeMeters>113</AltitudeMeters>
            <DistanceMeters>213967.10049077</DistanceMeters>
          </Trackpoint>
          <Trackpoint>
            <Time>2018-09-14T09:02:00.000Z</Time>
            <Position>
              <LatitudeDegrees>38.31664952449500560760498046875</LatitudeDegrees>
              <LongitudeDegrees>-8.21929668076336383819580078125</LongitudeDegrees>
            </Position>
            <AltitudeMeters>111.8000030517578125</AltitudeMeters>
            <DistanceMeters>214032.81007236</DistanceMeters>
          </Trackpoint>
          <Trackpoint>
            <Time>2018-09-14T09:02:06.000Z</Time>
            <Position>
              <LatitudeDegrees>38.316182903945446014404296875</LatitudeDegrees>
              <LongitudeDegrees>-8.21974058635532855987548828125</LongitudeDegrees>
            </Position>
            <AltitudeMeters>111.1999969482421875</AltitudeMeters>
            <DistanceMeters>214097.61794322</DistanceMeters>
          </Trackpoint>
          <Trackpoint>
            <Time>2018-09-14T09:02:12.000Z</Time>
            <Position>
              <LatitudeDegrees>38.31571452319622039794921875</LatitudeDegrees>
              <LongitudeDegrees>-8.22017326019704341888427734375</LongitudeDegrees>
            </Position>
            <AltitudeMeters>110.59999847412109375</AltitudeMeters>
            <DistanceMeters>214162.00259211</DistanceMeters>
          </Trackpoint>
          <Trackpoint>
            <Time>2018-09-14T09:02:13.000Z</Time>
            <Position>
              <LatitudeDegrees>38.315638415515422821044921875</LatitudeDegrees>
              <LongitudeDegrees>-8.22024199180305004119873046875</LongitudeDegrees>
            </Position>
            <AltitudeMeters>110.59999847412109375</AltitudeMeters>
            <DistanceMeters>214172.38445092</DistanceMeters>
          </Trackpoint>
          <Trackpoint>
            <Time>2018-09-14T09:02:19.000Z</Time>
            <Position>
              <LatitudeDegrees>38.3151829428970813751220703125</LatitudeDegrees>
              <LongitudeDegrees>-8.22067449800670146942138671875</LongitudeDegrees>
            </Position>
            <AltitudeMeters>110</AltitudeMeters>
            <DistanceMeters>214235.60300368</DistanceMeters>
          </Trackpoint>
          <Trackpoint>
            <Time>2018-09-14T09:02:23.000Z</Time>
            <Position>
              <LatitudeDegrees>38.3148818649351596832275390625</LatitudeDegrees>
              <LongitudeDegrees>-8.22095931507647037506103515625</LongitudeDegrees>
            </Position>
            <AltitudeMeters>110.1999969482421875</AltitudeMeters>
            <DistanceMeters>214277.3356382</DistanceMeters>
          </Trackpoint>
          <Trackpoint>
            <Time>2018-09-14T09:02:29.000Z</Time>
            <Position>
              <LatitudeDegrees>38.31443670205771923065185546875</LatitudeDegrees>
              <LongitudeDegrees>-8.22137606330215930938720703125</LongitudeDegrees>
            </Position>
            <AltitudeMeters>109.8000030517578125</AltitudeMeters>
            <DistanceMeters>214338.81336917</DistanceMeters>
          </Trackpoint>
          <Trackpoint>
            <Time>2018-09-14T09:02:36.000Z</Time>
            <Position>
              <LatitudeDegrees>38.3139343746006488800048828125</LatitudeDegrees>
              <LongitudeDegrees>-8.2218498922884464263916015625</LongitudeDegrees>
            </Position>
            <AltitudeMeters>109.8000030517578125</AltitudeMeters>
            <DistanceMeters>214408.3704575</DistanceMeters>
          </Trackpoint>
          <Trackpoint>
            <Time>2018-09-14T09:02:43.000Z</Time>
            <Position>
              <LatitudeDegrees>38.31344713456928730010986328125</LatitudeDegrees>
              <LongitudeDegrees>-8.2223092205822467803955078125</LongitudeDegrees>
            </Position>
            <AltitudeMeters>111</AltitudeMeters>
            <DistanceMeters>214475.82456678</DistanceMeters>
          </Trackpoint>
          <Trackpoint>
            <Time>2018-09-14T09:02:47.000Z</Time>
            <Position>
              <LatitudeDegrees>38.31317958422005176544189453125</LatitudeDegrees>
              <LongitudeDegrees>-8.22255975566804409027099609375</LongitudeDegrees>
            </Position>
            <AltitudeMeters>111.59999847412109375</AltitudeMeters>
            <DistanceMeters>214512.7771315</DistanceMeters>
          </Trackpoint>
          <Trackpoint>
            <Time>2018-09-14T09:02:54.000Z</Time>
            <Position>
              <LatitudeDegrees>38.31274355761706829071044921875</LatitudeDegrees>
              <LongitudeDegrees>-8.22296108119189739227294921875</LongitudeDegrees>
            </Position>
            <AltitudeMeters>113.1999969482421875</AltitudeMeters>
            <DistanceMeters>214572.6404168</DistanceMeters>
          </Trackpoint>
          <Trackpoint>
            <Time>2018-09-14T09:02:57.000Z</Time>
            <Position>
              <LatitudeDegrees>38.31256586126983165740966796875</LatitudeDegrees>
              <LongitudeDegrees>-8.22312938980758190155029296875</LongitudeDegrees>
            </Position>
            <AltitudeMeters>113.59999847412109375</AltitudeMeters>
            <DistanceMeters>214597.28221991</DistanceMeters>
          </Trackpoint>
          <Trackpoint>
            <Time>2018-09-14T09:03:04.000Z</Time>
            <Position>
              <LatitudeDegrees>38.31217140890657901763916015625</LatitudeDegrees>
              <LongitudeDegrees>-8.22350196540355682373046875</LongitudeDegrees>
            </Position>
            <AltitudeMeters>114.59999847412109375</AltitudeMeters>
            <DistanceMeters>214651.92852985</DistanceMeters>
          </Trackpoint>
          <Trackpoint>
            <Time>2018-09-14T09:03:06.000Z</Time>
            <Position>
              <LatitudeDegrees>38.312059678137302398681640625</LatitudeDegrees>
              <LongitudeDegrees>-8.22360916994512081146240234375</LongitudeDegrees>
            </Position>
            <AltitudeMeters>114.8000030517578125</AltitudeMeters>
            <DistanceMeters>214667.49493828</DistanceMeters>
          </Trackpoint>
          <Trackpoint>
            <Time>2018-09-14T09:03:13.000Z</Time>
            <Position>
              <LatitudeDegrees>38.31166983582079410552978515625</LatitudeDegrees>
              <LongitudeDegrees>-8.22396506555378437042236328125</LongitudeDegrees>
            </Position>
            <AltitudeMeters>115.40000152587890625</AltitudeMeters>
            <DistanceMeters>214720.86866155</DistanceMeters>
          </Trackpoint>
          <Trackpoint>
            <Time>2018-09-14T09:03:21.000Z</Time>
            <Position>
              <LatitudeDegrees>38.3112050592899322509765625</LatitudeDegrees>
              <LongitudeDegrees>-8.22440511547029018402099609375</LongitudeDegrees>
            </Position>
            <AltitudeMeters>115</AltitudeMeters>
            <DistanceMeters>214785.31232949</DistanceMeters>
          </Trackpoint>
          <Trackpoint>
            <Time>2018-09-14T09:03:29.000Z</Time>
            <Position>
              <LatitudeDegrees>38.31072963774204254150390625</LatitudeDegrees>
              <LongitudeDegrees>-8.22485086508095264434814453125</LongitudeDegrees>
            </Position>
            <AltitudeMeters>114</AltitudeMeters>
            <DistanceMeters>214851.00479955</DistanceMeters>
          </Trackpoint>
          <Trackpoint>
            <Time>2018-09-14T09:03:37.000Z</Time>
            <Position>
              <LatitudeDegrees>38.310240469872951507568359375</LatitudeDegrees>
              <LongitudeDegrees>-8.2253069244325160980224609375</LongitudeDegrees>
            </Position>
            <AltitudeMeters>114.40000152587890625</AltitudeMeters>
            <DistanceMeters>214918.46359411</DistanceMeters>
          </Trackpoint>
          <Trackpoint>
            <Time>2018-09-14T09:03:44.000Z</Time>
            <Position>
              <LatitudeDegrees>38.309799246490001678466796875</LatitudeDegrees>
              <LongitudeDegrees>-8.225705064833164215087890625</LongitudeDegrees>
            </Position>
            <AltitudeMeters>115</AltitudeMeters>
            <DistanceMeters>214978.63636753</DistanceMeters>
          </Trackpoint>
          <Trackpoint>
            <Time>2018-09-14T09:03:52.000Z</Time>
            <Position>
              <LatitudeDegrees>38.3092156983911991119384765625</LatitudeDegrees>
              <LongitudeDegrees>-8.22593204677104949951171875</LongitudeDegrees>
            </Position>
            <AltitudeMeters>114.40000152587890625</AltitudeMeters>
            <DistanceMeters>215046.54430866</DistanceMeters>
          </Trackpoint>
          <Trackpoint>
            <Time>2018-09-14T09:03:59.000Z</Time>
            <Position>
              <LatitudeDegrees>38.30862385220825672149658203125</LatitudeDegrees>
              <LongitudeDegrees>-8.22590924799442291259765625</LongitudeDegrees>
            </Position>
            <AltitudeMeters>110.8000030517578125</AltitudeMeters>
            <DistanceMeters>215112.44805839</DistanceMeters>
          </Trackpoint>
          <Trackpoint>
            <Time>2018-09-14T09:04:05.000Z</Time>
            <Position>
              <LatitudeDegrees>38.30802001990377902984619140625</LatitudeDegrees>
              <LongitudeDegrees>-8.22586172260344028472900390625</LongitudeDegrees>
            </Position>
            <AltitudeMeters>109.1999969482421875</AltitudeMeters>
            <DistanceMeters>215179.78385677</DistanceMeters>
          </Trackpoint>
          <Trackpoint>
            <Time>2018-09-14T09:04:06.000Z</Time>
            <Position>
              <LatitudeDegrees>38.3079171739518642425537109375</LatitudeDegrees>
              <LongitudeDegrees>-8.2258530892431735992431640625</LongitudeDegrees>
            </Position>
            <AltitudeMeters>109</AltitudeMeters>
            <DistanceMeters>215191.25574999</DistanceMeters>
          </Trackpoint>
          <Trackpoint>
            <Time>2018-09-14T09:04:08.000Z</Time>
            <Position>
              <LatitudeDegrees>38.3077096380293369293212890625</LatitudeDegrees>
              <LongitudeDegrees>-8.2258333079516887664794921875</LongitudeDegrees>
            </Position>
            <AltitudeMeters>108.59999847412109375</AltitudeMeters>
            <DistanceMeters>215214.41927913</DistanceMeters>
          </Trackpoint>
          <Trackpoint>
            <Time>2018-09-14T09:04:10.000Z</Time>
            <Position>
              <LatitudeDegrees>38.30749698914587497711181640625</LatitudeDegrees>
              <LongitudeDegrees>-8.2258108444511890411376953125</LongitudeDegrees>
            </Position>
            <AltitudeMeters>108.1999969482421875</AltitudeMeters>
            <DistanceMeters>215238.16854448</DistanceMeters>
          </Trackpoint>
          <Trackpoint>
            <Time>2018-09-14T09:04:11.000Z</Time>
            <Position>
              <LatitudeDegrees>38.30739003606140613555908203125</LatitudeDegrees>
              <LongitudeDegrees>-8.2257940806448459625244140625</LongitudeDegrees>
            </Position>
            <AltitudeMeters>108</AltitudeMeters>
            <DistanceMeters>215250.16225608</DistanceMeters>
          </Trackpoint>
          <Trackpoint>
            <Time>2018-09-14T09:04:13.000Z</Time>
            <Position>
              <LatitudeDegrees>38.30717864446341991424560546875</LatitudeDegrees>
              <LongitudeDegrees>-8.22573314420878887176513671875</LongitudeDegrees>
            </Position>
            <AltitudeMeters>107.40000152587890625</AltitudeMeters>
            <DistanceMeters>215274.28500791</DistanceMeters>
          </Trackpoint>
          <Trackpoint>
            <Time>2018-09-14T09:04:15.000Z</Time>
            <Position>
              <LatitudeDegrees>38.30697546713054180145263671875</LatitudeDegrees>
              <LongitudeDegrees>-8.2256344892084598541259765625</LongitudeDegrees>
            </Position>
            <AltitudeMeters>106.59999847412109375</AltitudeMeters>
            <DistanceMeters>215298.4849372</DistanceMeters>
          </Trackpoint>
          <Trackpoint>
            <Time>2018-09-14T09:04:18.000Z</Time>
            <Position>
              <LatitudeDegrees>38.3066853694617748260498046875</LatitudeDegrees>
              <LongitudeDegrees>-8.2254780828952789306640625</LongitudeDegrees>
            </Position>
            <AltitudeMeters>105.8000030517578125</AltitudeMeters>
            <DistanceMeters>215333.54425758</DistanceMeters>
          </Trackpoint>
          <Trackpoint>
            <Time>2018-09-14T09:04:22.000Z</Time>
            <Position>
              <LatitudeDegrees>38.30632184632122516632080078125</LatitudeDegrees>
              <LongitudeDegrees>-8.22528253309428691864013671875</LongitudeDegrees>
            </Position>
            <AltitudeMeters>105</AltitudeMeters>
            <DistanceMeters>215377.46202333</DistanceMeters>
          </Trackpoint>
          <Trackpoint>
            <Time>2018-09-14T09:04:23.000Z</Time>
            <Position>
              <LatitudeDegrees>38.30623132176697254180908203125</LatitudeDegrees>
              <LongitudeDegrees>-8.2252505980432033538818359375</LongitudeDegrees>
            </Position>
            <AltitudeMeters>104.8000030517578125</AltitudeMeters>
            <DistanceMeters>215387.91625764</DistanceMeters>
          </Trackpoint>
          <Trackpoint>
            <Time>2018-09-14T09:04:27.000Z</Time>
            <Position>
              <LatitudeDegrees>38.30586033873260021209716796875</LatitudeDegrees>
              <LongitudeDegrees>-8.22522201575338840484619140625</LongitudeDegrees>
            </Position>
            <AltitudeMeters>104.40000152587890625</AltitudeMeters>
            <DistanceMeters>215429.28268638</DistanceMeters>
          </Trackpoint>
          <Trackpoint>
            <Time>2018-09-14T09:04:33.000Z</Time>
            <Position>
              <LatitudeDegrees>38.3052907884120941162109375</LatitudeDegrees>
              <LongitudeDegrees>-8.22521799243986606597900390625</LongitudeDegrees>
            </Position>
            <AltitudeMeters>102.40000152587890625</AltitudeMeters>
            <DistanceMeters>215492.67569056</DistanceMeters>
          </Trackpoint>
          <Trackpoint>
            <Time>2018-09-14T09:04:38.000Z</Time>
            <Position>
              <LatitudeDegrees>38.30480773933231830596923828125</LatitudeDegrees>
              <LongitudeDegrees>-8.2252514362335205078125</LongitudeDegrees>
            </Position>
            <AltitudeMeters>98.40000152587890625</AltitudeMeters>
            <DistanceMeters>215546.51937323</DistanceMeters>
          </Trackpoint>
          <Trackpoint>
            <Time>2018-09-14T09:04:40.000Z</Time>
            <Position>
              <LatitudeDegrees>38.3046175539493560791015625</LatitudeDegrees>
              <LongitudeDegrees>-8.2253200002014636993408203125</LongitudeDegrees>
            </Position>
            <AltitudeMeters>97</AltitudeMeters>
            <DistanceMeters>215568.51841677</DistanceMeters>
          </Trackpoint>
          <Trackpoint>
            <Time>2018-09-14T09:04:44.000Z</Time>
            <Position>
              <LatitudeDegrees>38.30427498556673526763916015625</LatitudeDegrees>
              <LongitudeDegrees>-8.2255778275430202484130859375</LongitudeDegrees>
            </Position>
            <AltitudeMeters>95.8000030517578125</AltitudeMeters>
            <DistanceMeters>215612.80045783</DistanceMeters>
          </Trackpoint>
          <Trackpoint>
            <Time>2018-09-14T09:04:45.000Z</Time>
            <Position>
              <LatitudeDegrees>38.30419267527759075164794921875</LatitudeDegrees>
              <LongitudeDegrees>-8.22565066628158092498779296875</LongitudeDegrees>
            </Position>
            <AltitudeMeters>96.40000152587890625</AltitudeMeters>
            <DistanceMeters>215623.9542627</DistanceMeters>
          </Trackpoint>
          <Trackpoint>
            <Time>2018-09-14T09:04:48.000Z</Time>
            <Position>
              <LatitudeDegrees>38.3039267174899578094482421875</LatitudeDegrees>
              <LongitudeDegrees>-8.2258416898548603057861328125</LongitudeDegrees>
            </Position>
            <AltitudeMeters>97.8000030517578125</AltitudeMeters>
            <DistanceMeters>215657.93412033</DistanceMeters>
          </Trackpoint>
          <Trackpoint>
            <Time>2018-09-14T09:04:50.000Z</Time>
            <Position>
              <LatitudeDegrees>38.30372999422252178192138671875</LatitudeDegrees>
              <LongitudeDegrees>-8.2259000279009342193603515625</LongitudeDegrees>
            </Position>
            <AltitudeMeters>98</AltitudeMeters>
            <DistanceMeters>215680.4147177</DistanceMeters>
          </Trackpoint>
          <Trackpoint>
            <Time>2018-09-14T09:04:52.000Z</Time>
            <Position>
              <LatitudeDegrees>38.3035341091454029083251953125</LatitudeDegrees>
              <LongitudeDegrees>-8.22587345726788043975830078125</LongitudeDegrees>
            </Position>
            <AltitudeMeters>97.1999969482421875</AltitudeMeters>
            <DistanceMeters>215702.34057481</DistanceMeters>
          </Trackpoint>
          <Trackpoint>
            <Time>2018-09-14T09:04:54.000Z</Time>
            <Position>
              <LatitudeDegrees>38.303354568779468536376953125</LatitudeDegrees>
              <LongitudeDegrees>-8.22578511200845241546630859375</LongitudeDegrees>
            </Position>
            <AltitudeMeters>95.59999847412109375</AltitudeMeters>
            <DistanceMeters>215723.76188113</DistanceMeters>
          </Trackpoint>
          <Trackpoint>
            <Time>2018-09-14T09:04:56.000Z</Time>
            <Position>
              <LatitudeDegrees>38.303189612925052642822265625</LatitudeDegrees>
              <LongitudeDegrees>-8.22566826827824115753173828125</LongitudeDegrees>
            </Position>
            <AltitudeMeters>94.1999969482421875</AltitudeMeters>
            <DistanceMeters>215744.76729937</DistanceMeters>
          </Trackpoint>
          <Trackpoint>
            <Time>2018-09-14T09:04:58.000Z</Time>
            <Position>
              <LatitudeDegrees>38.30301962792873382568359375</LatitudeDegrees>
              <LongitudeDegrees>-8.22554354555904865264892578125</LongitudeDegrees>
            </Position>
            <AltitudeMeters>92.8000030517578125</AltitudeMeters>
            <DistanceMeters>215766.59905364</DistanceMeters>
          </Trackpoint>
          <Trackpoint>
            <Time>2018-09-14T09:05:00.000Z</Time>
            <Position>
              <LatitudeDegrees>38.30283723771572113037109375</LatitudeDegrees>
              <LongitudeDegrees>-8.22543391026556491851806640625</LongitudeDegrees>
            </Position>
            <AltitudeMeters>91.59999847412109375</AltitudeMeters>
            <DistanceMeters>215789.04467738</DistanceMeters>
          </Trackpoint>
          <Trackpoint>
            <Time>2018-09-14T09:05:03.000Z</Time>
            <Position>
              <LatitudeDegrees>38.302553258836269378662109375</LatitudeDegrees>
              <LongitudeDegrees>-8.225313462316989898681640625</LongitudeDegrees>
            </Position>
            <AltitudeMeters>88.59999847412109375</AltitudeMeters>
            <DistanceMeters>215822.35719987</DistanceMeters>
          </Trackpoint>
          <Trackpoint>
            <Time>2018-09-14T09:05:05.000Z</Time>
            <Position>
              <LatitudeDegrees>38.3023670129477977752685546875</LatitudeDegrees>
              <LongitudeDegrees>-8.22528052143752574920654296875</LongitudeDegrees>
            </Position>
            <AltitudeMeters>85.1999969482421875</AltitudeMeters>
            <DistanceMeters>215843.28552583</DistanceMeters>
          </Trackpoint>
          <Trackpoint>
            <Time>2018-09-14T09:05:09.000Z</Time>
            <Position>
              <LatitudeDegrees>38.30202477984130382537841796875</LatitudeDegrees>
              <LongitudeDegrees>-8.2254145480692386627197265625</LongitudeDegrees>
            </Position>
            <AltitudeMeters>82.59999847412109375</AltitudeMeters>
            <DistanceMeters>215883.13504394</DistanceMeters>
          </Trackpoint>
          <Trackpoint>
            <Time>2018-09-14T09:05:12.000Z</Time>
            <Position>
              <LatitudeDegrees>38.30186217091977596282958984375</LatitudeDegrees>
              <LongitudeDegrees>-8.225710429251194000244140625</LongitudeDegrees>
            </Position>
            <AltitudeMeters>82.40000152587890625</AltitudeMeters>
            <DistanceMeters>215914.68620283</DistanceMeters>
          </Trackpoint>
          <Trackpoint>
            <Time>2018-09-14T09:05:15.000Z</Time>
            <Position>
              <LatitudeDegrees>38.3018459938466548919677734375</LatitudeDegrees>
              <LongitudeDegrees>-8.22609205730259418487548828125</LongitudeDegrees>
            </Position>
            <AltitudeMeters>84</AltitudeMeters>
            <DistanceMeters>215948.0680475</DistanceMeters>
          </Trackpoint>
          <Trackpoint>
            <Time>2018-09-14T09:05:17.000Z</Time>
            <Position>
              <LatitudeDegrees>38.301837444305419921875</LatitudeDegrees>
              <LongitudeDegrees>-8.2263469509780406951904296875</LongitudeDegrees>
            </Position>
            <AltitudeMeters>83.8000030517578125</AltitudeMeters>
            <DistanceMeters>215970.35196398</DistanceMeters>
          </Trackpoint>
          <Trackpoint>
            <Time>2018-09-14T09:05:18.000Z</Time>
            <Position>
              <LatitudeDegrees>38.301814980804920196533203125</LatitudeDegrees>
              <LongitudeDegrees>-8.22647117078304290771484375</LongitudeDegrees>
            </Position>
            <AltitudeMeters>83.40000152587890625</AltitudeMeters>
            <DistanceMeters>215981.48672709</DistanceMeters>
          </Trackpoint>
          <Trackpoint>
            <Time>2018-09-14T09:05:20.000Z</Time>
            <Position>
              <LatitudeDegrees>38.301729820668697357177734375</LatitudeDegrees>
              <LongitudeDegrees>-8.226707875728607177734375</LongitudeDegrees>
            </Position>
            <AltitudeMeters>81.8000030517578125</AltitudeMeters>
            <DistanceMeters>216004.23089028</DistanceMeters>
          </Trackpoint>
          <Trackpoint>
            <Time>2018-09-14T09:05:21.000Z</Time>
            <Position>
              <LatitudeDegrees>38.30168900080025196075439453125</LatitudeDegrees>
              <LongitudeDegrees>-8.22682983241975307464599609375</LongitudeDegrees>
            </Position>
            <AltitudeMeters>81.1999969482421875</AltitudeMeters>
            <DistanceMeters>216015.81168021</DistanceMeters>
          </Trackpoint>
          <Trackpoint>
            <Time>2018-09-14T09:05:22.000Z</Time>
            <Position>
              <LatitudeDegrees>38.301671482622623443603515625</LatitudeDegrees>
              <LongitudeDegrees>-8.22696075774729251861572265625</LongitudeDegrees>
            </Position>
            <AltitudeMeters>81.1999969482421875</AltitudeMeters>
            <DistanceMeters>216027.41194741</DistanceMeters>
          </Trackpoint>
          <Trackpoint>
            <Time>2018-09-14T09:05:25.000Z</Time>
            <Position>
              <LatitudeDegrees>38.30165798775851726531982421875</LatitudeDegrees>
              <LongitudeDegrees>-8.22736174799501895904541015625</LongitudeDegrees>
            </Position>
            <AltitudeMeters>81.40000152587890625</AltitudeMeters>
            <DistanceMeters>216062.46869204</DistanceMeters>
          </Trackpoint>
          <Trackpoint>
            <Time>2018-09-14T09:05:29.000Z</Time>
            <Position>
              <LatitudeDegrees>38.30139420926570892333984375</LatitudeDegrees>
              <LongitudeDegrees>-8.227793164551258087158203125</LongitudeDegrees>
            </Position>
            <AltitudeMeters>78.1999969482421875</AltitudeMeters>
            <DistanceMeters>216110.23793232</DistanceMeters>
          </Trackpoint>
          <Trackpoint>
            <Time>2018-09-14T09:05:31.000Z</Time>
            <Position>
              <LatitudeDegrees>38.3012889325618743896484375</LatitudeDegrees>
              <LongitudeDegrees>-8.22801704518496990203857421875</LongitudeDegrees>
            </Position>
            <AltitudeMeters>77.40000152587890625</AltitudeMeters>
            <DistanceMeters>216133.03464106</DistanceMeters>
          </Trackpoint>
          <Trackpoint>
            <Time>2018-09-14T09:05:32.000Z</Time>
            <Position>
              <LatitudeDegrees>38.30126621760427951812744140625</LatitudeDegrees>
              <LongitudeDegrees>-8.228145204484462738037109375</LongitudeDegrees>
            </Position>
            <AltitudeMeters>77.59999847412109375</AltitudeMeters>
            <DistanceMeters>216144.51086278</DistanceMeters>
          </Trackpoint>
          <Trackpoint>
            <Time>2018-09-14T09:05:35.000Z</Time>
            <Position>
              <LatitudeDegrees>38.3012830652296543121337890625</LatitudeDegrees>
              <LongitudeDegrees>-8.2285285927355289459228515625</LongitudeDegrees>
            </Position>
            <AltitudeMeters>77.8000030517578125</AltitudeMeters>
            <DistanceMeters>216178.05058167</DistanceMeters>
          </Trackpoint>
          <Trackpoint>
            <Time>2018-09-14T09:05:36.000Z</Time>
            <Position>
              <LatitudeDegrees>38.3013050258159637451171875</LatitudeDegrees>
              <LongitudeDegrees>-8.22863663546741008758544921875</LongitudeDegrees>
            </Position>
            <AltitudeMeters>78.59999847412109375</AltitudeMeters>
            <DistanceMeters>216187.79904434</DistanceMeters>
          </Trackpoint>
          <Trackpoint>
            <Time>2018-09-14T09:05:38.000Z</Time>
            <Position>
              <LatitudeDegrees>38.30134215764701366424560546875</LatitudeDegrees>
              <LongitudeDegrees>-8.2287931255996227264404296875</LongitudeDegrees>
            </Position>
            <AltitudeMeters>79.59999847412109375</AltitudeMeters>
            <DistanceMeters>216202.07900184</DistanceMeters>
          </Trackpoint>
          <Trackpoint>
            <Time>2018-09-14T09:05:45.000Z</Time>
            <Position>
              <LatitudeDegrees>38.30136411823332309722900390625</LatitudeDegrees>
              <LongitudeDegrees>-8.2289461791515350341796875</LongitudeDegrees>
            </Position>
            <AltitudeMeters>80.40000152587890625</AltitudeMeters>
            <DistanceMeters>216215.6694832</DistanceMeters>
          </Trackpoint>
          <Trackpoint>
            <Time>2018-09-14T09:05:46.000Z</Time>
            <Position>
              <LatitudeDegrees>38.30134584568440914154052734375</LatitudeDegrees>
              <LongitudeDegrees>-8.2289798744022846221923828125</LongitudeDegrees>
            </Position>
            <AltitudeMeters>80.1999969482421875</AltitudeMeters>
            <DistanceMeters>216219.24784154</DistanceMeters>
          </Trackpoint>
          <Trackpoint>
            <Time>2018-09-14T09:05:47.000Z</Time>
            <Position>
              <LatitudeDegrees>38.30131466500461101531982421875</LatitudeDegrees>
              <LongitudeDegrees>-8.22901633568108081817626953125</LongitudeDegrees>
            </Position>
            <AltitudeMeters>80</AltitudeMeters>
            <DistanceMeters>216223.95909699</DistanceMeters>
          </Trackpoint>
          <Trackpoint>
            <Time>2018-09-14T09:05:50.000Z</Time>
            <Position>
              <LatitudeDegrees>38.3011784590780735015869140625</LatitudeDegrees>
              <LongitudeDegrees>-8.2291371189057826995849609375</LongitudeDegrees>
            </Position>
            <AltitudeMeters>79.1999969482421875</AltitudeMeters>
            <DistanceMeters>216242.4287802</DistanceMeters>
          </Trackpoint>
          <Trackpoint>
            <Time>2018-09-14T09:05:51.000Z</Time>
            <Position>
              <LatitudeDegrees>38.3011211268603801727294921875</LatitudeDegrees>
              <LongitudeDegrees>-8.22916955687105655670166015625</LongitudeDegrees>
            </Position>
            <AltitudeMeters>78.8000030517578125</AltitudeMeters>
            <DistanceMeters>216249.41049579</DistanceMeters>
          </Trackpoint>
          <Trackpoint>
            <Time>2018-09-14T09:05:55.000Z</Time>
            <Position>
              <LatitudeDegrees>38.300858102738857269287109375</LatitudeDegrees>
              <LongitudeDegrees>-8.2291258871555328369140625</LongitudeDegrees>
            </Position>
            <AltitudeMeters>76.40000152587890625</AltitudeMeters>
            <DistanceMeters>216278.93277413</DistanceMeters>
          </Trackpoint>
          <Trackpoint>
            <Time>2018-09-14T09:05:57.000Z</Time>
            <Position>
              <LatitudeDegrees>38.3007285185158252716064453125</LatitudeDegrees>
              <LongitudeDegrees>-8.2290244661271572113037109375</LongitudeDegrees>
            </Position>
            <AltitudeMeters>74.8000030517578125</AltitudeMeters>
            <DistanceMeters>216295.85873659</DistanceMeters>
          </Trackpoint>
          <Trackpoint>
            <Time>2018-09-14T09:05:58.000Z</Time>
            <Position>
              <LatitudeDegrees>38.30066221766173839569091796875</LatitudeDegrees>
              <LongitudeDegrees>-8.2289681397378444671630859375</LongitudeDegrees>
            </Position>
            <AltitudeMeters>74</AltitudeMeters>
            <DistanceMeters>216304.72733094</DistanceMeters>
          </Trackpoint>
          <Trackpoint>
            <Time>2018-09-14T09:06:01.000Z</Time>
            <Position>
              <LatitudeDegrees>38.3004532568156719207763671875</LatitudeDegrees>
              <LongitudeDegrees>-8.22879262268543243408203125</LongitudeDegrees>
            </Position>
            <AltitudeMeters>70.40000152587890625</AltitudeMeters>
            <DistanceMeters>216332.58329025</DistanceMeters>
          </Trackpoint>
          <Trackpoint>
            <Time>2018-09-14T09:06:03.000Z</Time>
            <Position>
              <LatitudeDegrees>38.300292827188968658447265625</LatitudeDegrees>
              <LongitudeDegrees>-8.22870142757892608642578125</LongitudeDegrees>
            </Position>
            <AltitudeMeters>67.40000152587890625</AltitudeMeters>
            <DistanceMeters>216352.13525322</DistanceMeters>
          </Trackpoint>
          <Trackpoint>
            <Time>2018-09-14T09:06:04.000Z</Time>
            <Position>
              <LatitudeDegrees>38.30020439811050891876220703125</LatitudeDegrees>
              <LongitudeDegrees>-8.2286727614700794219970703125</LongitudeDegrees>
            </Position>
            <AltitudeMeters>66</AltitudeMeters>
            <DistanceMeters>216362.29111523</DistanceMeters>
          </Trackpoint>
          <Trackpoint>
            <Time>2018-09-14T09:06:05.000Z</Time>
            <Position>
              <LatitudeDegrees>38.3001126162707805633544921875</LatitudeDegrees>
              <LongitudeDegrees>-8.228654153645038604736328125</LongitudeDegrees>
            </Position>
            <AltitudeMeters>64.59999847412109375</AltitudeMeters>
            <DistanceMeters>216372.6355053</DistanceMeters>
          </Trackpoint>
          <Trackpoint>
            <Time>2018-09-14T09:06:07.000Z</Time>
            <Position>
              <LatitudeDegrees>38.29992880113422870635986328125</LatitudeDegrees>
              <LongitudeDegrees>-8.22869413532316684722900390625</LongitudeDegrees>
            </Position>
            <AltitudeMeters>61.799999237060546875</AltitudeMeters>
            <DistanceMeters>216393.39052317</DistanceMeters>
          </Trackpoint>
          <Trackpoint>
            <Time>2018-09-14T09:06:09.000Z</Time>
            <Position>
              <LatitudeDegrees>38.29977792687714099884033203125</LatitudeDegrees>
              <LongitudeDegrees>-8.2288454286754131317138671875</LongitudeDegrees>
            </Position>
            <AltitudeMeters>60.799999237060546875</AltitudeMeters>
            <DistanceMeters>216414.75949379</DistanceMeters>
          </Trackpoint>
          <Trackpoint>
            <Time>2018-09-14T09:06:11.000Z</Time>
            <Position>
              <LatitudeDegrees>38.29968404956161975860595703125</LatitudeDegrees>
              <LongitudeDegrees>-8.22906092740595340728759765625</LongitudeDegrees>
            </Position>
            <AltitudeMeters>61.200000762939453125</AltitudeMeters>
            <DistanceMeters>216436.28802611</DistanceMeters>
          </Trackpoint>
          <Trackpoint>
            <Time>2018-09-14T09:06:12.000Z</Time>
            <Position>
              <LatitudeDegrees>38.29963794909417629241943359375</LatitudeDegrees>
              <LongitudeDegrees>-8.2291716523468494415283203125</LongitudeDegrees>
            </Position>
            <AltitudeMeters>61.59999847412109375</AltitudeMeters>
            <DistanceMeters>216447.23591196</DistanceMeters>
          </Trackpoint>
          <Trackpoint>
            <Time>2018-09-14T09:06:14.000Z</Time>
            <Position>
              <LatitudeDegrees>38.29950995743274688720703125</LatitudeDegrees>
              <LongitudeDegrees>-8.22935664094984531402587890625</LongitudeDegrees>
            </Position>
            <AltitudeMeters>60.799999237060546875</AltitudeMeters>
            <DistanceMeters>216468.7774432</DistanceMeters>
          </Trackpoint>
          <Trackpoint>
            <Time>2018-09-14T09:06:18.000Z</Time>
            <Position>
              <LatitudeDegrees>38.29918649978935718536376953125</LatitudeDegrees>
              <LongitudeDegrees>-8.22954003699123859405517578125</LongitudeDegrees>
            </Position>
            <AltitudeMeters>60.59999847412109375</AltitudeMeters>
            <DistanceMeters>216508.18203233</DistanceMeters>
          </Trackpoint>
          <Trackpoint>
            <Time>2018-09-14T09:06:19.000Z</Time>
            <Position>
              <LatitudeDegrees>38.29911055974662303924560546875</LatitudeDegrees>
              <LongitudeDegrees>-8.22957155294716358184814453125</LongitudeDegrees>
            </Position>
            <AltitudeMeters>62.200000762939453125</AltitudeMeters>
            <DistanceMeters>216517.07096753</DistanceMeters>
          </Trackpoint>
          <Trackpoint>
            <Time>2018-09-14T09:06:20.000Z</Time>
            <Position>
              <LatitudeDegrees>38.2990372180938720703125</LatitudeDegrees>
              <LongitudeDegrees>-8.2295925915241241455078125</LongitudeDegrees>
            </Position>
            <AltitudeMeters>63.799999237060546875</AltitudeMeters>
            <DistanceMeters>216525.4381763</DistanceMeters>
          </Trackpoint>
          <Trackpoint>
            <Time>2018-09-14T09:06:24.000Z</Time>
            <Position>
              <LatitudeDegrees>38.29879355616867542266845703125</LatitudeDegrees>
              <LongitudeDegrees>-8.2294718921184539794921875</LongitudeDegrees>
            </Position>
            <AltitudeMeters>68.1999969482421875</AltitudeMeters>
            <DistanceMeters>216554.53544314</DistanceMeters>
          </Trackpoint>
          <Trackpoint>
            <Time>2018-09-14T09:06:25.000Z</Time>
            <Position>
              <LatitudeDegrees>38.29875382594764232635498046875</LatitudeDegrees>
              <LongitudeDegrees>-8.22940274141728878021240234375</LongitudeDegrees>
            </Position>
            <AltitudeMeters>68.59999847412109375</AltitudeMeters>
            <DistanceMeters>216562.0208706</DistanceMeters>
          </Trackpoint>
          <Trackpoint>
            <Time>2018-09-14T09:06:27.000Z</Time>
            <Position>
              <LatitudeDegrees>38.29869297333061695098876953125</LatitudeDegrees>
              <LongitudeDegrees>-8.2292460836470127105712890625</LongitudeDegrees>
            </Position>
            <AltitudeMeters>69.40000152587890625</AltitudeMeters>
            <DistanceMeters>216577.2891532</DistanceMeters>
          </Trackpoint>
          <Trackpoint>
            <Time>2018-09-14T09:06:29.000Z</Time>
            <Position>
              <LatitudeDegrees>38.29862625338137149810791015625</LatitudeDegrees>
              <LongitudeDegrees>-8.22909126989543437957763671875</LongitudeDegrees>
            </Position>
            <AltitudeMeters>70.40000152587890625</AltitudeMeters>
            <DistanceMeters>216592.71688002</DistanceMeters>
          </Trackpoint>
          <Trackpoint>
            <Time>2018-09-14T09:06:33.000Z</Time>
            <Position>
              <LatitudeDegrees>38.29848191700875759124755859375</LatitudeDegrees>
              <LongitudeDegrees>-8.22880762629210948944091796875</LongitudeDegrees>
            </Position>
            <AltitudeMeters>68.1999969482421875</AltitudeMeters>
            <DistanceMeters>216622.24527519</DistanceMeters>
          </Trackpoint>
          <Trackpoint>
            <Time>2018-09-14T09:06:38.000Z</Time>
            <Position>
              <LatitudeDegrees>38.2983520813286304473876953125</LatitudeDegrees>
              <LongitudeDegrees>-8.22846815921366214752197265625</LongitudeDegrees>
            </Position>
            <AltitudeMeters>67.1999969482421875</AltitudeMeters>
            <DistanceMeters>216655.23131862</DistanceMeters>
          </Trackpoint>
          <Trackpoint>
            <Time>2018-09-14T09:06:44.000Z</Time>
            <Position>
              <LatitudeDegrees>38.29827471636235713958740234375</LatitudeDegrees>
              <LongitudeDegrees>-8.22806029580533504486083984375</LongitudeDegrees>
            </Position>
            <AltitudeMeters>69.59999847412109375</AltitudeMeters>
            <DistanceMeters>216691.88380111</DistanceMeters>
          </Trackpoint>
          <Trackpoint>
            <Time>2018-09-14T09:06:52.000Z</Time>
            <Position>
              <LatitudeDegrees>38.29822258092463016510009765625</LatitudeDegrees>
              <LongitudeDegrees>-8.22752636857330799102783203125</LongitudeDegrees>
            </Position>
            <AltitudeMeters>70.8000030517578125</AltitudeMeters>
            <DistanceMeters>216738.881597</DistanceMeters>
          </Trackpoint>
          <Trackpoint>
            <Time>2018-09-14T09:06:53.000Z</Time>
            <Position>
              <LatitudeDegrees>38.29821889288723468780517578125</LatitudeDegrees>
              <LongitudeDegrees>-8.22745830751955509185791015625</LongitudeDegrees>
            </Position>
            <AltitudeMeters>71.1999969482421875</AltitudeMeters>
            <DistanceMeters>216744.84031</DistanceMeters>
          </Trackpoint>
          <Trackpoint>
            <Time>2018-09-14T09:07:00.000Z</Time>
            <Position>
              <LatitudeDegrees>38.2982293702661991119384765625</LatitudeDegrees>
              <LongitudeDegrees>-8.22699897922575473785400390625</LongitudeDegrees>
            </Position>
            <AltitudeMeters>73</AltitudeMeters>
            <DistanceMeters>216784.97928369</DistanceMeters>
          </Trackpoint>
          <Trackpoint>
            <Time>2018-09-14T09:07:03.000Z</Time>
            <Position>
              <LatitudeDegrees>38.29829013906419277191162109375</LatitudeDegrees>
              <LongitudeDegrees>-8.22682396508753299713134765625</LongitudeDegrees>
            </Position>
            <AltitudeMeters>71.59999847412109375</AltitudeMeters>
            <DistanceMeters>216801.69588459</DistanceMeters>
          </Trackpoint>
          <Trackpoint>
            <Time>2018-09-14T09:07:06.000Z</Time>
            <Position>
              <LatitudeDegrees>38.298401869833469390869140625</LatitudeDegrees>
              <LongitudeDegrees>-8.22669387795031070709228515625</LongitudeDegrees>
            </Position>
            <AltitudeMeters>70</AltitudeMeters>
            <DistanceMeters>216818.54109525</DistanceMeters>
          </Trackpoint>
          <Trackpoint>
            <Time>2018-09-14T09:07:10.000Z</Time>
            <Position>
              <LatitudeDegrees>38.2985606230795383453369140625</LatitudeDegrees>
              <LongitudeDegrees>-8.22655457071959972381591796875</LongitudeDegrees>
            </Position>
            <AltitudeMeters>70.40000152587890625</AltitudeMeters>
            <DistanceMeters>216839.99504655</DistanceMeters>
          </Trackpoint>
          <Trackpoint>
            <Time>2018-09-14T09:07:15.000Z</Time>
            <Position>
              <LatitudeDegrees>38.29873655922710895538330078125</LatitudeDegrees>
              <LongitudeDegrees>-8.22639062069356441497802734375</LongitudeDegrees>
            </Position>
            <AltitudeMeters>72.8000030517578125</AltitudeMeters>
            <DistanceMeters>216864.25460553</DistanceMeters>
          </Trackpoint>
          <Trackpoint>
            <Time>2018-09-14T09:07:16.000Z</Time>
            <Position>
              <LatitudeDegrees>38.2987678237259387969970703125</LatitudeDegrees>
              <LongitudeDegrees>-8.2263539917767047882080078125</LongitudeDegrees>
            </Position>
            <AltitudeMeters>73.1999969482421875</AltitudeMeters>
            <DistanceMeters>216868.98116973</DistanceMeters>
          </Trackpoint>
          <Trackpoint>
            <Time>2018-09-14T09:07:21.000Z</Time>
            <Position>
              <LatitudeDegrees>38.2988492958247661590576171875</LatitudeDegrees>
              <LongitudeDegrees>-8.22616598568856716156005859375</LongitudeDegrees>
            </Position>
            <AltitudeMeters>74.40000152587890625</AltitudeMeters>
            <DistanceMeters>216887.74070435</DistanceMeters>
          </Trackpoint>
          <Trackpoint>
            <Time>2018-09-14T09:07:24.000Z</Time>
            <Position>
              <LatitudeDegrees>38.29885927028954029083251953125</LatitudeDegrees>
              <LongitudeDegrees>-8.2260601222515106201171875</LongitudeDegrees>
            </Position>
            <AltitudeMeters>74.59999847412109375</AltitudeMeters>
            <DistanceMeters>216897.05429197</DistanceMeters>
          </Trackpoint>
          <Trackpoint>
            <Time>2018-09-14T09:07:26.000Z</Time>
            <Position>
              <LatitudeDegrees>38.2988523133099079132080078125</LatitudeDegrees>
              <LongitudeDegrees>-8.22599248029291629791259765625</LongitudeDegrees>
            </Position>
            <AltitudeMeters>74.59999847412109375</AltitudeMeters>
            <DistanceMeters>216903.01376264</DistanceMeters>
          </Trackpoint>
          <Trackpoint>
            <Time>2018-09-14T09:07:30.000Z</Time>
            <Position>
              <LatitudeDegrees>38.298812918365001678466796875</LatitudeDegrees>
              <LongitudeDegrees>-8.22585350833833217620849609375</LongitudeDegrees>
            </Position>
            <AltitudeMeters>75.1999969482421875</AltitudeMeters>
            <DistanceMeters>216915.92061548</DistanceMeters>
          </Trackpoint>
          <Trackpoint>
            <Time>2018-09-14T09:07:35.000Z</Time>
            <Position>
              <LatitudeDegrees>38.29872314818203449249267578125</LatitudeDegrees>
              <LongitudeDegrees>-8.22570011951029300689697265625</LongitudeDegrees>
            </Position>
            <AltitudeMeters>75.59999847412109375</AltitudeMeters>
            <DistanceMeters>216932.63451523</DistanceMeters>
          </Trackpoint>
          <Trackpoint>
            <Time>2018-09-14T09:07:42.000Z</Time>
            <Position>
              <LatitudeDegrees>38.298564143478870391845703125</LatitudeDegrees>
              <LongitudeDegrees>-8.22552661411464214324951171875</LongitudeDegrees>
            </Position>
            <AltitudeMeters>74.8000030517578125</AltitudeMeters>
            <DistanceMeters>216955.93447651</DistanceMeters>
          </Trackpoint>
          <Trackpoint>
            <Time>2018-09-14T09:07:47.000Z</Time>
            <Position>
              <LatitudeDegrees>38.29845316708087921142578125</LatitudeDegrees>
              <LongitudeDegrees>-8.22540189139544963836669921875</LongitudeDegrees>
            </Position>
            <AltitudeMeters>74.8000030517578125</AltitudeMeters>
            <DistanceMeters>216972.40455534</DistanceMeters>
          </Trackpoint>
          <Trackpoint>
            <Time>2018-09-14T09:07:51.000Z</Time>
            <Position>
              <LatitudeDegrees>38.2983721978962421417236328125</LatitudeDegrees>
              <LongitudeDegrees>-8.22529929690062999725341796875</LongitudeDegrees>
            </Position>
            <AltitudeMeters>76.59999847412109375</AltitudeMeters>
            <DistanceMeters>216985.11400093</DistanceMeters>
          </Trackpoint>
          <Trackpoint>
            <Time>2018-09-14T09:07:57.000Z</Time>
            <Position>
              <LatitudeDegrees>38.29830103553831577301025390625</LatitudeDegrees>
              <LongitudeDegrees>-8.2251000590622425079345703125</LongitudeDegrees>
            </Position>
            <AltitudeMeters>78.1999969482421875</AltitudeMeters>
            <DistanceMeters>217004.23492495</DistanceMeters>
          </Trackpoint>
          <Trackpoint>
            <Time>2018-09-14T09:08:05.000Z</Time>
            <Position>
              <LatitudeDegrees>38.29830673523247241973876953125</LatitudeDegrees>
              <LongitudeDegrees>-8.22479923255741596221923828125</LongitudeDegrees>
            </Position>
            <AltitudeMeters>81</AltitudeMeters>
            <DistanceMeters>217030.51938972</DistanceMeters>
          </Trackpoint>
          <Trackpoint>
            <Time>2018-09-14T09:08:10.000Z</Time>
            <Position>
              <LatitudeDegrees>38.2983212359249591827392578125</LatitudeDegrees>
              <LongitudeDegrees>-8.2246063649654388427734375</LongitudeDegrees>
            </Position>
            <AltitudeMeters>82.8000030517578125</AltitudeMeters>
            <DistanceMeters>217047.44321803</DistanceMeters>
          </Trackpoint>
          <Trackpoint>
            <Time>2018-09-14T09:08:19.000Z</Time>
            <Position>
              <LatitudeDegrees>38.29826415516436100006103515625</LatitudeDegrees>
              <LongitudeDegrees>-8.2242705859243869781494140625</LongitudeDegrees>
            </Position>
            <AltitudeMeters>85.8000030517578125</AltitudeMeters>
            <DistanceMeters>217077.4533104</DistanceMeters>
          </Trackpoint>
          <Trackpoint>
            <Time>2018-09-14T09:08:25.000Z</Time>
            <Position>
              <LatitudeDegrees>38.2981358282268047332763671875</LatitudeDegrees>
              <LongitudeDegrees>-8.2240942306816577911376953125</LongitudeDegrees>
            </Position>
            <AltitudeMeters>88</AltitudeMeters>
            <DistanceMeters>217098.46044814</DistanceMeters>
          </Trackpoint>
          <Trackpoint>
            <Time>2018-09-14T09:08:30.000Z</Time>
            <Position>
              <LatitudeDegrees>38.29797975718975067138671875</LatitudeDegrees>
              <LongitudeDegrees>-8.22407939471304416656494140625</LongitudeDegrees>
            </Position>
            <AltitudeMeters>88.8000030517578125</AltitudeMeters>
            <DistanceMeters>217115.87965101</DistanceMeters>
          </Trackpoint>
          <Trackpoint>
            <Time>2018-09-14T09:08:36.000Z</Time>
            <Position>
              <LatitudeDegrees>38.2978315651416778564453125</LatitudeDegrees>
              <LongitudeDegrees>-8.224229179322719573974609375</LongitudeDegrees>
            </Position>
            <AltitudeMeters>87.8000030517578125</AltitudeMeters>
            <DistanceMeters>217136.93273326</DistanceMeters>
          </Trackpoint>
          <Trackpoint>
            <Time>2018-09-14T09:08:43.000Z</Time>
            <Position>
              <LatitudeDegrees>38.29768161289393901824951171875</LatitudeDegrees>
              <LongitudeDegrees>-8.22443193756043910980224609375</LongitudeDegrees>
            </Position>
            <AltitudeMeters>86.8000030517578125</AltitudeMeters>
            <DistanceMeters>217161.26885032</DistanceMeters>
          </Trackpoint>
          <Trackpoint>
            <Time>2018-09-14T09:08:49.000Z</Time>
            <Position>
              <LatitudeDegrees>38.297510705888271331787109375</LatitudeDegrees>
              <LongitudeDegrees>-8.22451827116310596466064453125</LongitudeDegrees>
            </Position>
            <AltitudeMeters>87.8000030517578125</AltitudeMeters>
            <DistanceMeters>217181.73161271</DistanceMeters>
          </Trackpoint>
          <Trackpoint>
            <Time>2018-09-14T09:08:53.000Z</Time>
            <Position>
              <LatitudeDegrees>38.29738757573068141937255859375</LatitudeDegrees>
              <LongitudeDegrees>-8.22455313988029956817626953125</LongitudeDegrees>
            </Position>
            <AltitudeMeters>89</AltitudeMeters>
            <DistanceMeters>217195.77050328</DistanceMeters>
          </Trackpoint>
          <Trackpoint>
            <Time>2018-09-14T09:08:57.000Z</Time>
            <Position>
              <LatitudeDegrees>38.29725916497409343719482421875</LatitudeDegrees>
              <LongitudeDegrees>-8.2245795428752899169921875</LongitudeDegrees>
            </Position>
            <AltitudeMeters>90.40000152587890625</AltitudeMeters>
            <DistanceMeters>217210.24766026</DistanceMeters>
          </Trackpoint>
          <Trackpoint>
            <Time>2018-09-14T09:09:02.000Z</Time>
            <Position>
              <LatitudeDegrees>38.29709705896675586700439453125</LatitudeDegrees>
              <LongitudeDegrees>-8.22462371550500392913818359375</LongitudeDegrees>
            </Position>
            <AltitudeMeters>92</AltitudeMeters>
            <DistanceMeters>217228.6985107</DistanceMeters>
          </Trackpoint>
          <Trackpoint>
            <Time>2018-09-14T09:09:11.000Z</Time>
            <Position>
              <LatitudeDegrees>38.29682640731334686279296875</LatitudeDegrees>
              <LongitudeDegrees>-8.22477869689464569091796875</LongitudeDegrees>
            </Position>
            <AltitudeMeters>94.1999969482421875</AltitudeMeters>
            <DistanceMeters>217261.7244981</DistanceMeters>
          </Trackpoint>
          <Trackpoint>
            <Time>2018-09-14T09:09:17.000Z</Time>
            <Position>
              <LatitudeDegrees>38.29668316058814525604248046875</LatitudeDegrees>
              <LongitudeDegrees>-8.22492915205657482147216796875</LongitudeDegrees>
            </Position>
            <AltitudeMeters>95</AltitudeMeters>
            <DistanceMeters>217282.38663628</DistanceMeters>
          </Trackpoint>
          <Trackpoint>
            <Time>2018-09-14T09:09:24.000Z</Time>
            <Position>
              <LatitudeDegrees>38.29652130603790283203125</LatitudeDegrees>
              <LongitudeDegrees>-8.22510592639446258544921875</LongitudeDegrees>
            </Position>
            <AltitudeMeters>95.8000030517578125</AltitudeMeters>
            <DistanceMeters>217306.1138383</DistanceMeters>
          </Trackpoint>
          <Trackpoint>
            <Time>2018-09-14T09:09:29.000Z</Time>
            <Position>
              <LatitudeDegrees>38.296409659087657928466796875</LatitudeDegrees>
              <LongitudeDegrees>-8.22523869574069976806640625</LongitudeDegrees>
            </Position>
            <AltitudeMeters>97</AltitudeMeters>
            <DistanceMeters>217323.11167128</DistanceMeters>
          </Trackpoint>
          <Trackpoint>
            <Time>2018-09-14T09:09:35.000Z</Time>
            <Position>
              <LatitudeDegrees>38.2962844334542751312255859375</LatitudeDegrees>
              <LongitudeDegrees>-8.2254008017480373382568359375</LongitudeDegrees>
            </Position>
            <AltitudeMeters>98.40000152587890625</AltitudeMeters>
            <DistanceMeters>217342.98066426</DistanceMeters>
          </Trackpoint>
          <Trackpoint>
            <Time>2018-09-14T09:09:42.000Z</Time>
            <Position>
              <LatitudeDegrees>38.29613431356847286224365234375</LatitudeDegrees>
              <LongitudeDegrees>-8.225581012666225433349609375</LongitudeDegrees>
            </Position>
            <AltitudeMeters>100.1999969482421875</AltitudeMeters>
            <DistanceMeters>217365.93664825</DistanceMeters>
          </Trackpoint>
          <Trackpoint>
            <Time>2018-09-14T09:09:48.000Z</Time>
            <Position>
              <LatitudeDegrees>38.29601109959185123443603515625</LatitudeDegrees>
              <LongitudeDegrees>-8.22574571706354618072509765625</LongitudeDegrees>
            </Position>
            <AltitudeMeters>101.59999847412109375</AltitudeMeters>
            <DistanceMeters>217385.81313875</DistanceMeters>
          </Trackpoint>
          <Trackpoint>
            <Time>2018-09-14T09:09:55.000Z</Time>
            <Position>
              <LatitudeDegrees>38.295962400734424591064453125</LatitudeDegrees>
              <LongitudeDegrees>-8.22598493658006191253662109375</LongitudeDegrees>
            </Position>
            <AltitudeMeters>102</AltitudeMeters>
            <DistanceMeters>217407.40115036</DistanceMeters>
          </Trackpoint>
          <Trackpoint>
            <Time>2018-09-14T09:10:01.000Z</Time>
            <Position>
              <LatitudeDegrees>38.2960098423063755035400390625</LatitudeDegrees>
              <LongitudeDegrees>-8.22618928737938404083251953125</LongitudeDegrees>
            </Position>
            <AltitudeMeters>101.8000030517578125</AltitudeMeters>
            <DistanceMeters>217426.01620216</DistanceMeters>
          </Trackpoint>
          <Trackpoint>
            <Time>2018-09-14T09:10:09.000Z</Time>
            <Position>
              <LatitudeDegrees>38.29597287811338901519775390625</LatitudeDegrees>
              <LongitudeDegrees>-8.2264435105025768280029296875</LongitudeDegrees>
            </Position>
            <AltitudeMeters>102.59999847412109375</AltitudeMeters>
            <DistanceMeters>217448.60099567</DistanceMeters>
          </Trackpoint>
          <Trackpoint>
            <Time>2018-09-14T09:10:17.000Z</Time>
            <Position>
              <LatitudeDegrees>38.29581446014344692230224609375</LatitudeDegrees>
              <LongitudeDegrees>-8.226646520197391510009765625</LongitudeDegrees>
            </Position>
            <AltitudeMeters>103.8000030517578125</AltitudeMeters>
            <DistanceMeters>217473.60837286</DistanceMeters>
          </Trackpoint>
          <Trackpoint>
            <Time>2018-09-14T09:10:23.000Z</Time>
            <Position>
              <LatitudeDegrees>38.29571303911507129669189453125</LatitudeDegrees>
              <LongitudeDegrees>-8.2268143258988857269287109375</LongitudeDegrees>
            </Position>
            <AltitudeMeters>104.40000152587890625</AltitudeMeters>
            <DistanceMeters>217492.10956411</DistanceMeters>
          </Trackpoint>
          <Trackpoint>
            <Time>2018-09-14T09:10:24.000Z</Time>
            <Position>
              <LatitudeDegrees>38.29569929279386997222900390625</LatitudeDegrees>
              <LongitudeDegrees>-8.22684206999838352203369140625</LongitudeDegrees>
            </Position>
            <AltitudeMeters>104.40000152587890625</AltitudeMeters>
            <DistanceMeters>217494.97615958</DistanceMeters>
          </Trackpoint>
          <Trackpoint>
            <Time>2018-09-14T09:10:32.000Z</Time>
            <Position>
              <LatitudeDegrees>38.2955387793481349945068359375</LatitudeDegrees>
              <LongitudeDegrees>-8.2269935309886932373046875</LongitudeDegrees>
            </Position>
            <AltitudeMeters>105</AltitudeMeters>
            <DistanceMeters>217517.20713085</DistanceMeters>
          </Trackpoint>
          <Trackpoint>
            <Time>2018-09-14T09:10:40.000Z</Time>
            <Position>
              <LatitudeDegrees>38.2953049242496490478515625</LatitudeDegrees>
              <LongitudeDegrees>-8.22703284211456775665283203125</LongitudeDegrees>
            </Position>
            <AltitudeMeters>106.40000152587890625</AltitudeMeters>
            <DistanceMeters>217543.46100171</DistanceMeters>
          </Trackpoint>
          <Trackpoint>
            <Time>2018-09-14T09:10:44.000Z</Time>
            <Position>
              <LatitudeDegrees>38.2951840572059154510498046875</LatitudeDegrees>
              <LongitudeDegrees>-8.2270010747015476226806640625</LongitudeDegrees>
            </Position>
            <AltitudeMeters>107.1999969482421875</AltitudeMeters>
            <DistanceMeters>217557.19655365</DistanceMeters>
          </Trackpoint>
          <Trackpoint>
            <Time>2018-09-14T09:10:48.000Z</Time>
            <Position>
              <LatitudeDegrees>38.295049779117107391357421875</LatitudeDegrees>
              <LongitudeDegrees>-8.22694189846515655517578125</LongitudeDegrees>
            </Position>
            <AltitudeMeters>107</AltitudeMeters>
            <DistanceMeters>217573.01072347</DistanceMeters>
          </Trackpoint>
          <Trackpoint>
            <Time>2018-09-14T09:10:52.000Z</Time>
            <Position>
              <LatitudeDegrees>38.29489513300359249114990234375</LatitudeDegrees>
              <LongitudeDegrees>-8.22689688764512538909912109375</LongitudeDegrees>
            </Position>
            <AltitudeMeters>106.40000152587890625</AltitudeMeters>
            <DistanceMeters>217590.66677906</DistanceMeters>
          </Trackpoint>
          <Trackpoint>
            <Time>2018-09-14T09:10:57.000Z</Time>
            <Position>
              <LatitudeDegrees>38.29464711248874664306640625</LatitudeDegrees>
              <LongitudeDegrees>-8.22677786462008953094482421875</LongitudeDegrees>
            </Position>
            <AltitudeMeters>106.1999969482421875</AltitudeMeters>
            <DistanceMeters>217620.16488351</DistanceMeters>
          </Trackpoint>
          <Trackpoint>
            <Time>2018-09-14T09:11:00.000Z</Time>
            <Position>
              <LatitudeDegrees>38.29446882940828800201416015625</LatitudeDegrees>
              <LongitudeDegrees>-8.2266966439783573150634765625</LongitudeDegrees>
            </Position>
            <AltitudeMeters>105.8000030517578125</AltitudeMeters>
            <DistanceMeters>217641.23811533</DistanceMeters>
          </Trackpoint>
          <Trackpoint>
            <Time>2018-09-14T09:11:03.000Z</Time>
            <Position>
              <LatitudeDegrees>38.29428375698626041412353515625</LatitudeDegrees>
              <LongitudeDegrees>-8.22663352824747562408447265625</LongitudeDegrees>
            </Position>
            <AltitudeMeters>105.1999969482421875</AltitudeMeters>
            <DistanceMeters>217662.56182207</DistanceMeters>
          </Trackpoint>
          <Trackpoint>
            <Time>2018-09-14T09:11:05.000Z</Time>
            <Position>
              <LatitudeDegrees>38.29417680390179157257080078125</LatitudeDegrees>
              <LongitudeDegrees>-8.22661056183278560638427734375</LongitudeDegrees>
            </Position>
            <AltitudeMeters>105</AltitudeMeters>
            <DistanceMeters>217674.63358142</DistanceMeters>
          </Trackpoint>
          <Trackpoint>
            <Time>2018-09-14T09:11:07.000Z</Time>
            <Position>
              <LatitudeDegrees>38.294086195528507232666015625</LatitudeDegrees>
              <LongitudeDegrees>-8.2265816442668437957763671875</LongitudeDegrees>
            </Position>
            <AltitudeMeters>104.8000030517578125</AltitudeMeters>
            <DistanceMeters>217685.03021621</DistanceMeters>
          </Trackpoint>
          <Trackpoint>
            <Time>2018-09-14T09:11:11.000Z</Time>
            <Position>
              <LatitudeDegrees>38.29393959604203701019287109375</LatitudeDegrees>
              <LongitudeDegrees>-8.22654233314096927642822265625</LongitudeDegrees>
            </Position>
            <AltitudeMeters>104.40000152587890625</AltitudeMeters>
            <DistanceMeters>217701.70462936</DistanceMeters>
          </Trackpoint>
          <Trackpoint>
            <Time>2018-09-14T09:11:13.000Z</Time>
            <Position>
              <LatitudeDegrees>38.29387052915990352630615234375</LatitudeDegrees>
              <LongitudeDegrees>-8.22653294540941715240478515625</LongitudeDegrees>
            </Position>
            <AltitudeMeters>104.1999969482421875</AltitudeMeters>
            <DistanceMeters>217709.43632426</DistanceMeters>
          </Trackpoint>
          <Trackpoint>
            <Time>2018-09-14T09:11:16.000Z</Time>
            <Position>
              <LatitudeDegrees>38.2937604747712612152099609375</LatitudeDegrees>
              <LongitudeDegrees>-8.226541243493556976318359375</LongitudeDegrees>
            </Position>
            <AltitudeMeters>104</AltitudeMeters>
            <DistanceMeters>217721.70691897</DistanceMeters>
          </Trackpoint>
          <Trackpoint>
            <Time>2018-09-14T09:11:26.000Z</Time>
            <Position>
              <LatitudeDegrees>38.2933782599866390228271484375</LatitudeDegrees>
              <LongitudeDegrees>-8.226539231836795806884765625</LongitudeDegrees>
            </Position>
            <AltitudeMeters>103</AltitudeMeters>
            <DistanceMeters>217764.24865014</DistanceMeters>
          </Trackpoint>
          <Trackpoint>
            <Time>2018-09-14T09:11:30.000Z</Time>
            <Position>
              <LatitudeDegrees>38.293197713792324066162109375</LatitudeDegrees>
              <LongitudeDegrees>-8.22650645859539508819580078125</LongitudeDegrees>
            </Position>
            <AltitudeMeters>102.40000152587890625</AltitudeMeters>
            <DistanceMeters>217784.54703254</DistanceMeters>
          </Trackpoint>
          <Trackpoint>
            <Time>2018-09-14T09:11:37.000Z</Time>
            <Position>
              <LatitudeDegrees>38.2927811332046985626220703125</LatitudeDegrees>
              <LongitudeDegrees>-8.2263110764324665069580078125</LongitudeDegrees>
            </Position>
            <AltitudeMeters>99.59999847412109375</AltitudeMeters>
            <DistanceMeters>217833.9548931</DistanceMeters>
          </Trackpoint>
          <Trackpoint>
            <Time>2018-09-14T09:11:40.000Z</Time>
            <Position>
              <LatitudeDegrees>38.2925722561776638031005859375</LatitudeDegrees>
              <LongitudeDegrees>-8.2262235693633556365966796875</LongitudeDegrees>
            </Position>
            <AltitudeMeters>97.59999847412109375</AltitudeMeters>
            <DistanceMeters>217858.42773152</DistanceMeters>
          </Trackpoint>
          <Trackpoint>
            <Time>2018-09-14T09:11:42.000Z</Time>
            <Position>
              <LatitudeDegrees>38.29242733307182788848876953125</LatitudeDegrees>
              <LongitudeDegrees>-8.22615274228155612945556640625</LongitudeDegrees>
            </Position>
            <AltitudeMeters>96.1999969482421875</AltitudeMeters>
            <DistanceMeters>217875.70378681</DistanceMeters>
          </Trackpoint>
          <Trackpoint>
            <Time>2018-09-14T09:11:44.000Z</Time>
            <Position>
              <LatitudeDegrees>38.29227679409086704254150390625</LatitudeDegrees>
              <LongitudeDegrees>-8.22608719579875469207763671875</LongitudeDegrees>
            </Position>
            <AltitudeMeters>94.59999847412109375</AltitudeMeters>
            <DistanceMeters>217893.4109129</DistanceMeters>
          </Trackpoint>
          <Trackpoint>
            <Time>2018-09-14T09:11:46.000Z</Time>
            <Position>
              <LatitudeDegrees>38.2921211421489715576171875</LatitudeDegrees>
              <LongitudeDegrees>-8.22601276449859142303466796875</LongitudeDegrees>
            </Position>
            <AltitudeMeters>93</AltitudeMeters>
            <DistanceMeters>217911.9155204</DistanceMeters>
          </Trackpoint>
          <Trackpoint>
            <Time>2018-09-14T09:11:48.000Z</Time>
            <Position>
              <LatitudeDegrees>38.2919640652835369110107421875</LatitudeDegrees>
              <LongitudeDegrees>-8.225937075912952423095703125</LongitudeDegrees>
            </Position>
            <AltitudeMeters>91.40000152587890625</AltitudeMeters>
            <DistanceMeters>217930.60706014</DistanceMeters>
          </Trackpoint>
          <Trackpoint>
            <Time>2018-09-14T09:11:51.000Z</Time>
            <Position>
              <LatitudeDegrees>38.29172828234732151031494140625</LatitudeDegrees>
              <LongitudeDegrees>-8.22578846476972103118896484375</LongitudeDegrees>
            </Position>
            <AltitudeMeters>90</AltitudeMeters>
            <DistanceMeters>217959.88577625</DistanceMeters>
          </Trackpoint>
          <Trackpoint>
            <Time>2018-09-14T09:11:52.000Z</Time>
            <Position>
              <LatitudeDegrees>38.2916542701423168182373046875</LatitudeDegrees>
              <LongitudeDegrees>-8.225725851953029632568359375</LongitudeDegrees>
            </Position>
            <AltitudeMeters>89.59999847412109375</AltitudeMeters>
            <DistanceMeters>217969.77449193</DistanceMeters>
          </Trackpoint>
          <Trackpoint>
            <Time>2018-09-14T09:11:54.000Z</Time>
            <Position>
              <LatitudeDegrees>38.29151068814098834991455078125</LatitudeDegrees>
              <LongitudeDegrees>-8.2255878858268260955810546875</LongitudeDegrees>
            </Position>
            <AltitudeMeters>88.8000030517578125</AltitudeMeters>
            <DistanceMeters>217989.79109733</DistanceMeters>
          </Trackpoint>
          <Trackpoint>
            <Time>2018-09-14T09:11:56.000Z</Time>
            <Position>
              <LatitudeDegrees>38.29137154854834079742431640625</LatitudeDegrees>
              <LongitudeDegrees>-8.2254339940845966339111328125</LongitudeDegrees>
            </Position>
            <AltitudeMeters>88.1999969482421875</AltitudeMeters>
            <DistanceMeters>218010.29882222</DistanceMeters>
          </Trackpoint>
          <Trackpoint>
            <Time>2018-09-14T09:11:58.000Z</Time>
            <Position>
              <LatitudeDegrees>38.291230313479900360107421875</LatitudeDegrees>
              <LongitudeDegrees>-8.2252784259617328643798828125</LongitudeDegrees>
            </Position>
            <AltitudeMeters>87.59999847412109375</AltitudeMeters>
            <DistanceMeters>218031.0786248</DistanceMeters>
          </Trackpoint>
          <Trackpoint>
            <Time>2018-09-14T09:12:01.000Z</Time>
            <Position>
              <LatitudeDegrees>38.29101598821580410003662109375</LatitudeDegrees>
              <LongitudeDegrees>-8.22504683397710323333740234375</LongitudeDegrees>
            </Position>
            <AltitudeMeters>86.40000152587890625</AltitudeMeters>
            <DistanceMeters>218062.3572853</DistanceMeters>
          </Trackpoint>
          <Trackpoint>
            <Time>2018-09-14T09:12:03.000Z</Time>
            <Position>
              <LatitudeDegrees>38.29087165184319019317626953125</LatitudeDegrees>
              <LongitudeDegrees>-8.22489143349230289459228515625</LongitudeDegrees>
            </Position>
            <AltitudeMeters>85.1999969482421875</AltitudeMeters>
            <DistanceMeters>218083.38976934</DistanceMeters>
          </Trackpoint>
          <Trackpoint>
            <Time>2018-09-14T09:12:05.000Z</Time>
            <Position>
              <LatitudeDegrees>38.29072681255638599395751953125</LatitudeDegrees>
              <LongitudeDegrees>-8.22473385371267795562744140625</LongitudeDegrees>
            </Position>
            <AltitudeMeters>83.8000030517578125</AltitudeMeters>
            <DistanceMeters>218104.58860856</DistanceMeters>
          </Trackpoint>
          <Trackpoint>
            <Time>2018-09-14T09:12:08.000Z</Time>
            <Position>
              <LatitudeDegrees>38.29051173292100429534912109375</LatitudeDegrees>
              <LongitudeDegrees>-8.224500082433223724365234375</LongitudeDegrees>
            </Position>
            <AltitudeMeters>82</AltitudeMeters>
            <DistanceMeters>218136.05464996</DistanceMeters>
          </Trackpoint>
          <Trackpoint>
            <Time>2018-09-14T09:12:12.000Z</Time>
            <Position>
              <LatitudeDegrees>38.29021031968295574188232421875</LatitudeDegrees>
              <LongitudeDegrees>-8.2242201268672943115234375</LongitudeDegrees>
            </Position>
            <AltitudeMeters>80</AltitudeMeters>
            <DistanceMeters>218177.57066761</DistanceMeters>
          </Trackpoint>
          <Trackpoint>
            <Time>2018-09-14T09:12:14.000Z</Time>
            <Position>
              <LatitudeDegrees>38.29007050953805446624755859375</LatitudeDegrees>
              <LongitudeDegrees>-8.22407118044793605804443359375</LongitudeDegrees>
            </Position>
            <AltitudeMeters>80</AltitudeMeters>
            <DistanceMeters>218197.85480927</DistanceMeters>
          </Trackpoint>
          <Trackpoint>
            <Time>2018-09-14T09:12:16.000Z</Time>
            <Position>
              <LatitudeDegrees>38.28994025476276874542236328125</LatitudeDegrees>
              <LongitudeDegrees>-8.22392432950437068939208984375</LongitudeDegrees>
            </Position>
            <AltitudeMeters>80.1999969482421875</AltitudeMeters>
            <DistanceMeters>218217.21345598</DistanceMeters>
          </Trackpoint>
          <Trackpoint>
            <Time>2018-09-14T09:12:19.000Z</Time>
            <Position>
              <LatitudeDegrees>38.2897549308836460113525390625</LatitudeDegrees>
              <LongitudeDegrees>-8.2237250916659832000732421875</LongitudeDegrees>
            </Position>
            <AltitudeMeters>80.1999969482421875</AltitudeMeters>
            <DistanceMeters>218244.20271582</DistanceMeters>
          </Trackpoint>
          <Trackpoint>
            <Time>2018-09-14T09:12:25.000Z</Time>
            <Position>
              <LatitudeDegrees>38.2894132845103740692138671875</LatitudeDegrees>
              <LongitudeDegrees>-8.2233579643070697784423828125</LongitudeDegrees>
            </Position>
            <AltitudeMeters>78.59999847412109375</AltitudeMeters>
            <DistanceMeters>218293.94808896</DistanceMeters>
          </Trackpoint>
          <Trackpoint>
            <Time>2018-09-14T09:12:32.000Z</Time>
            <Position>
              <LatitudeDegrees>38.28899628482758998870849609375</LatitudeDegrees>
              <LongitudeDegrees>-8.22291011922061443328857421875</LongitudeDegrees>
            </Position>
            <AltitudeMeters>77.8000030517578125</AltitudeMeters>
            <DistanceMeters>218354.65089823</DistanceMeters>
          </Trackpoint>
          <Trackpoint>
            <Time>2018-09-14T09:12:35.000Z</Time>
            <Position>
              <LatitudeDegrees>38.2888144813477993011474609375</LatitudeDegrees>
              <LongitudeDegrees>-8.22270878590643405914306640625</LongitudeDegrees>
            </Position>
            <AltitudeMeters>76.8000030517578125</AltitudeMeters>
            <DistanceMeters>218381.46190726</DistanceMeters>
          </Trackpoint>
          <Trackpoint>
            <Time>2018-09-14T09:12:39.000Z</Time>
            <Position>
              <LatitudeDegrees>38.28855983912944793701171875</LatitudeDegrees>
              <LongitudeDegrees>-8.22243511676788330078125</LongitudeDegrees>
            </Position>
            <AltitudeMeters>75</AltitudeMeters>
            <DistanceMeters>218418.5410828</DistanceMeters>
          </Trackpoint>
          <Trackpoint>
            <Time>2018-09-14T09:12:43.000Z</Time>
            <Position>
              <LatitudeDegrees>38.28830310143530368804931640625</LatitudeDegrees>
              <LongitudeDegrees>-8.22216329164803028106689453125</LongitudeDegrees>
            </Position>
            <AltitudeMeters>74.40000152587890625</AltitudeMeters>
            <DistanceMeters>218455.69592053</DistanceMeters>
          </Trackpoint>
          <Trackpoint>
            <Time>2018-09-14T09:12:48.000Z</Time>
            <Position>
              <LatitudeDegrees>38.288000933825969696044921875</LatitudeDegrees>
              <LongitudeDegrees>-8.221834637224674224853515625</LongitudeDegrees>
            </Position>
            <AltitudeMeters>74.8000030517578125</AltitudeMeters>
            <DistanceMeters>218499.9165385</DistanceMeters>
          </Trackpoint>
          <Trackpoint>
            <Time>2018-09-14T09:12:55.000Z</Time>
            <Position>
              <LatitudeDegrees>38.2875635661184787750244140625</LatitudeDegrees>
              <LongitudeDegrees>-8.22138813324272632598876953125</LongitudeDegrees>
            </Position>
            <AltitudeMeters>75.59999847412109375</AltitudeMeters>
            <DistanceMeters>218562.2969263</DistanceMeters>
          </Trackpoint>
          <Trackpoint>
            <Time>2018-09-14T09:12:56.000Z</Time>
            <Position>
              <LatitudeDegrees>38.2874877937138080596923828125</LatitudeDegrees>
              <LongitudeDegrees>-8.2213345728814601898193359375</LongitudeDegrees>
            </Position>
            <AltitudeMeters>75.40000152587890625</AltitudeMeters>
            <DistanceMeters>218571.94202078</DistanceMeters>
          </Trackpoint>
          <Trackpoint>
            <Time>2018-09-14T09:13:00.000Z</Time>
            <Position>
              <LatitudeDegrees>38.28712360002100467681884765625</LatitudeDegrees>
              <LongitudeDegrees>-8.22127816267311573028564453125</LongitudeDegrees>
            </Position>
            <AltitudeMeters>73.59999847412109375</AltitudeMeters>
            <DistanceMeters>218612.77587457</DistanceMeters>
          </Trackpoint>
          <Trackpoint>
            <Time>2018-09-14T09:13:01.000Z</Time>
            <Position>
              <LatitudeDegrees>38.28702687285840511322021484375</LatitudeDegrees>
              <LongitudeDegrees>-8.22128738276660442352294921875</LongitudeDegrees>
            </Position>
            <AltitudeMeters>73</AltitudeMeters>
            <DistanceMeters>218623.57218073</DistanceMeters>
          </Trackpoint>
          <Trackpoint>
            <Time>2018-09-14T09:13:03.000Z</Time>
            <Position>
              <LatitudeDegrees>38.2868299819529056549072265625</LatitudeDegrees>
              <LongitudeDegrees>-8.22131504304707050323486328125</LongitudeDegrees>
            </Position>
            <AltitudeMeters>71.8000030517578125</AltitudeMeters>
            <DistanceMeters>218645.61919765</DistanceMeters>
          </Trackpoint>
          <Trackpoint>
            <Time>2018-09-14T09:13:05.000Z</Time>
            <Position>
              <LatitudeDegrees>38.28662605024874210357666015625</LatitudeDegrees>
              <LongitudeDegrees>-8.2213442958891391754150390625</LongitudeDegrees>
            </Position>
            <AltitudeMeters>70</AltitudeMeters>
            <DistanceMeters>218668.46042565</DistanceMeters>
          </Trackpoint>
          <Trackpoint>
            <Time>2018-09-14T09:13:07.000Z</Time>
            <Position>
              <LatitudeDegrees>38.2864160835742950439453125</LatitudeDegrees>
              <LongitudeDegrees>-8.2213677652180194854736328125</LongitudeDegrees>
            </Position>
            <AltitudeMeters>68.1999969482421875</AltitudeMeters>
            <DistanceMeters>218691.92009464</DistanceMeters>
          </Trackpoint>
          <Trackpoint>
            <Time>2018-09-14T09:13:09.000Z</Time>
            <Position>
              <LatitudeDegrees>38.28620209358632564544677734375</LatitudeDegrees>
              <LongitudeDegrees>-8.22139509022235870361328125</LongitudeDegrees>
            </Position>
            <AltitudeMeters>66.40000152587890625</AltitudeMeters>
            <DistanceMeters>218715.85683169</DistanceMeters>
          </Trackpoint>
          <Trackpoint>
            <Time>2018-09-14T09:13:11.000Z</Time>
            <Position>
              <LatitudeDegrees>38.285987265408039093017578125</LatitudeDegrees>
              <LongitudeDegrees>-8.22142182849347591400146484375</LongitudeDegrees>
            </Position>
            <AltitudeMeters>64.59999847412109375</AltitudeMeters>
            <DistanceMeters>218739.88130662</DistanceMeters>
          </Trackpoint>
          <Trackpoint>
            <Time>2018-09-14T09:13:13.000Z</Time>
            <Position>
              <LatitudeDegrees>38.285776712000370025634765625</LatitudeDegrees>
              <LongitudeDegrees>-8.22144462727010250091552734375</LongitudeDegrees>
            </Position>
            <AltitudeMeters>64.59999847412109375</AltitudeMeters>
            <DistanceMeters>218763.40075438</DistanceMeters>
          </Trackpoint>
          <Trackpoint>
            <Time>2018-09-14T09:13:15.000Z</Time>
            <Position>
              <LatitudeDegrees>38.285578899085521697998046875</LatitudeDegrees>
              <LongitudeDegrees>-8.22146792896091938018798828125</LongitudeDegrees>
            </Position>
            <AltitudeMeters>64.8000030517578125</AltitudeMeters>
            <DistanceMeters>218785.51177807</DistanceMeters>
          </Trackpoint>
          <Trackpoint>
            <Time>2018-09-14T09:13:19.000Z</Time>
            <Position>
              <LatitudeDegrees>38.28523901291191577911376953125</LatitudeDegrees>
              <LongitudeDegrees>-8.2215152867138385772705078125</LongitudeDegrees>
            </Position>
            <AltitudeMeters>65.40000152587890625</AltitudeMeters>
            <DistanceMeters>218823.56733746</DistanceMeters>
          </Trackpoint>
          <Trackpoint>
            <Time>2018-09-14T09:13:20.000Z</Time>
            <Position>
              <LatitudeDegrees>38.28516374342143535614013671875</LatitudeDegrees>
              <LongitudeDegrees>-8.22152308188378810882568359375</LongitudeDegrees>
            </Position>
            <AltitudeMeters>65.59999847412109375</AltitudeMeters>
            <DistanceMeters>218831.9727713</DistanceMeters>
          </Trackpoint>
          <Trackpoint>
            <Time>2018-09-14T09:13:22.000Z</Time>
            <Position>
              <LatitudeDegrees>38.2850204966962337493896484375</LatitudeDegrees>
              <LongitudeDegrees>-8.22153733111917972564697265625</LongitudeDegrees>
            </Position>
            <AltitudeMeters>65.40000152587890625</AltitudeMeters>
            <DistanceMeters>218847.96523375</DistanceMeters>
          </Trackpoint>
          <Trackpoint>
            <Time>2018-09-14T09:13:26.000Z</Time>
            <Position>
              <LatitudeDegrees>38.2847397029399871826171875</LatitudeDegrees>
              <LongitudeDegrees>-8.22153867222368717193603515625</LongitudeDegrees>
            </Position>
            <AltitudeMeters>65.1999969482421875</AltitudeMeters>
            <DistanceMeters>218879.21847852</DistanceMeters>
          </Trackpoint>
          <Trackpoint>
            <Time>2018-09-14T09:13:28.000Z</Time>
            <Position>
              <LatitudeDegrees>38.28459192998707294464111328125</LatitudeDegrees>
              <LongitudeDegrees>-8.2215229980647563934326171875</LongitudeDegrees>
            </Position>
            <AltitudeMeters>65</AltitudeMeters>
            <DistanceMeters>218895.72306231</DistanceMeters>
          </Trackpoint>
          <Trackpoint>
            <Time>2018-09-14T09:13:36.000Z</Time>
            <Position>
              <LatitudeDegrees>38.28398910351097583770751953125</LatitudeDegrees>
              <LongitudeDegrees>-8.2214613072574138641357421875</LongitudeDegrees>
            </Position>
            <AltitudeMeters>65.59999847412109375</AltitudeMeters>
            <DistanceMeters>218963.03505282</DistanceMeters>
          </Trackpoint>
          <Trackpoint>
            <Time>2018-09-14T09:13:43.000Z</Time>
            <Position>
              <LatitudeDegrees>38.283546455204486846923828125</LatitudeDegrees>
              <LongitudeDegrees>-8.2214096747338771820068359375</LongitudeDegrees>
            </Position>
            <AltitudeMeters>68.8000030517578125</AltitudeMeters>
            <DistanceMeters>219012.50875665</DistanceMeters>
          </Trackpoint>
          <Trackpoint>
            <Time>2018-09-14T09:13:47.000Z</Time>
            <Position>
              <LatitudeDegrees>38.28335040248930454254150390625</LatitudeDegrees>
              <LongitudeDegrees>-8.2213640771806240081787109375</LongitudeDegrees>
            </Position>
            <AltitudeMeters>70.59999847412109375</AltitudeMeters>
            <DistanceMeters>219034.6903205</DistanceMeters>
          </Trackpoint>
          <Trackpoint>
            <Time>2018-09-14T09:13:48.000Z</Time>
            <Position>
              <LatitudeDegrees>38.28330446965992450714111328125</LatitudeDegrees>
              <LongitudeDegrees>-8.22134840302169322967529296875</LongitudeDegrees>
            </Position>
            <AltitudeMeters>71</AltitudeMeters>
            <DistanceMeters>219039.9828905</DistanceMeters>
          </Trackpoint>
          <Trackpoint>
            <Time>2018-09-14T09:13:51.000Z</Time>
            <Position>
              <LatitudeDegrees>38.2831717841327190399169921875</LatitudeDegrees>
              <LongitudeDegrees>-8.221298865973949432373046875</LongitudeDegrees>
            </Position>
            <AltitudeMeters>72</AltitudeMeters>
            <DistanceMeters>219055.37193806</DistanceMeters>
          </Trackpoint>
          <Trackpoint>
            <Time>2018-09-14T09:13:53.000Z</Time>
            <Position>
              <LatitudeDegrees>38.2830876298248767852783203125</LatitudeDegrees>
              <LongitudeDegrees>-8.22126542218029499053955078125</LongitudeDegrees>
            </Position>
            <AltitudeMeters>72.59999847412109375</AltitudeMeters>
            <DistanceMeters>219065.18318746</DistanceMeters>
          </Trackpoint>
          <Trackpoint>
            <Time>2018-09-14T09:13:56.000Z</Time>
            <Position>
              <LatitudeDegrees>38.282963074743747711181640625</LatitudeDegrees>
              <LongitudeDegrees>-8.22121999226510524749755859375</LongitudeDegrees>
            </Position>
            <AltitudeMeters>73.1999969482421875</AltitudeMeters>
            <DistanceMeters>219079.60284558</DistanceMeters>
          </Trackpoint>
          <Trackpoint>
            <Time>2018-09-14T09:14:00.000Z</Time>
            <Position>
              <LatitudeDegrees>38.28280113637447357177734375</LatitudeDegrees>
              <LongitudeDegrees>-8.22115729562938213348388671875</LongitudeDegrees>
            </Position>
            <AltitudeMeters>74.1999969482421875</AltitudeMeters>
            <DistanceMeters>219098.44067837</DistanceMeters>
          </Trackpoint>
          <Trackpoint>
            <Time>2018-09-14T09:14:05.000Z</Time>
            <Position>
              <LatitudeDegrees>38.2826051674783229827880859375</LatitudeDegrees>
              <LongitudeDegrees>-8.221084289252758026123046875</LongitudeDegrees>
            </Position>
            <AltitudeMeters>75.1999969482421875</AltitudeMeters>
            <DistanceMeters>219121.16577621</DistanceMeters>
          </Trackpoint>
          <Trackpoint>
            <Time>2018-09-14T09:14:10.000Z</Time>
            <Position>
              <LatitudeDegrees>38.28241347335278987884521484375</LatitudeDegrees>
              <LongitudeDegrees>-8.22101932950317859649658203125</LongitudeDegrees>
            </Position>
            <AltitudeMeters>76</AltitudeMeters>
            <DistanceMeters>219143.24349045</DistanceMeters>
          </Trackpoint>
          <Trackpoint>
            <Time>2018-09-14T09:14:15.000Z</Time>
            <Position>
              <LatitudeDegrees>38.28222236596047878265380859375</LatitudeDegrees>
              <LongitudeDegrees>-8.2209402881562709808349609375</LongitudeDegrees>
            </Position>
            <AltitudeMeters>75.59999847412109375</AltitudeMeters>
            <DistanceMeters>219165.60709445</DistanceMeters>
          </Trackpoint>
          <Trackpoint>
            <Time>2018-09-14T09:14:21.000Z</Time>
            <Position>
              <LatitudeDegrees>38.28197325579822063446044921875</LatitudeDegrees>
              <LongitudeDegrees>-8.2208541221916675567626953125</LongitudeDegrees>
            </Position>
            <AltitudeMeters>75.59999847412109375</AltitudeMeters>
            <DistanceMeters>219194.33723938</DistanceMeters>
          </Trackpoint>
          <Trackpoint>
            <Time>2018-09-14T09:14:27.000Z</Time>
            <Position>
              <LatitudeDegrees>38.28170889057219028472900390625</LatitudeDegrees>
              <LongitudeDegrees>-8.2207548804581165313720703125</LongitudeDegrees>
            </Position>
            <AltitudeMeters>76.59999847412109375</AltitudeMeters>
            <DistanceMeters>219225.01247509</DistanceMeters>
          </Trackpoint>
          <Trackpoint>
            <Time>2018-09-14T09:14:38.000Z</Time>
            <Position>
              <LatitudeDegrees>38.28119088895618915557861328125</LatitudeDegrees>
              <LongitudeDegrees>-8.22055916301906108856201171875</LongitudeDegrees>
            </Position>
            <AltitudeMeters>77.40000152587890625</AltitudeMeters>
            <DistanceMeters>219285.14944637</DistanceMeters>
          </Trackpoint>
          <Trackpoint>
            <Time>2018-09-14T09:14:49.000Z</Time>
            <Position>
              <LatitudeDegrees>38.28066081739962100982666015625</LatitudeDegrees>
              <LongitudeDegrees>-8.22035598568618297576904296875</LongitudeDegrees>
            </Position>
            <AltitudeMeters>78.59999847412109375</AltitudeMeters>
            <DistanceMeters>219346.76025682</DistanceMeters>
          </Trackpoint>
          <Trackpoint>
            <Time>2018-09-14T09:14:52.000Z</Time>
            <Position>
              <LatitudeDegrees>38.28051497228443622589111328125</LatitudeDegrees>
              <LongitudeDegrees>-8.220303095877170562744140625</LongitudeDegrees>
            </Position>
            <AltitudeMeters>78.8000030517578125</AltitudeMeters>
            <DistanceMeters>219363.63813558</DistanceMeters>
          </Trackpoint>
          <Trackpoint>
            <Time>2018-09-14T09:15:04.000Z</Time>
            <Position>
              <LatitudeDegrees>38.2799672149121761322021484375</LatitudeDegrees>
              <LongitudeDegrees>-8.2201879285275936126708984375</LongitudeDegrees>
            </Position>
            <AltitudeMeters>80.59999847412109375</AltitudeMeters>
            <DistanceMeters>219425.42947124</DistanceMeters>
          </Trackpoint>
          <Trackpoint>
            <Time>2018-09-14T09:15:05.000Z</Time>
            <Position>
              <LatitudeDegrees>38.2799278199672698974609375</LatitudeDegrees>
              <LongitudeDegrees>-8.22019279003143310546875</LongitudeDegrees>
            </Position>
            <AltitudeMeters>81</AltitudeMeters>
            <DistanceMeters>219429.8346539</DistanceMeters>
          </Trackpoint>
          <Trackpoint>
            <Time>2018-09-14T09:15:10.000Z</Time>
            <Position>
              <LatitudeDegrees>38.2797347009181976318359375</LatitudeDegrees>
              <LongitudeDegrees>-8.22023025713860988616943359375</LongitudeDegrees>
            </Position>
            <AltitudeMeters>83</AltitudeMeters>
            <DistanceMeters>219451.57729776</DistanceMeters>
          </Trackpoint>
          <Trackpoint>
            <Time>2018-09-14T09:15:14.000Z</Time>
            <Position>
              <LatitudeDegrees>38.27958391048014163970947265625</LatitudeDegrees>
              <LongitudeDegrees>-8.22027526795864105224609375</LongitudeDegrees>
            </Position>
            <AltitudeMeters>84.40000152587890625</AltitudeMeters>
            <DistanceMeters>219468.81515422</DistanceMeters>
          </Trackpoint>
          <Trackpoint>
            <Time>2018-09-14T09:15:17.000Z</Time>
            <Position>
              <LatitudeDegrees>38.27947360463440418243408203125</LatitudeDegrees>
              <LongitudeDegrees>-8.2203056104481220245361328125</LongitudeDegrees>
            </Position>
            <AltitudeMeters>85.59999847412109375</AltitudeMeters>
            <DistanceMeters>219481.37522729</DistanceMeters>
          </Trackpoint>
          <Trackpoint>
            <Time>2018-09-14T09:15:20.000Z</Time>
            <Position>
              <LatitudeDegrees>38.27936656773090362548828125</LatitudeDegrees>
              <LongitudeDegrees>-8.22033888660371303558349609375</LongitudeDegrees>
            </Position>
            <AltitudeMeters>86.59999847412109375</AltitudeMeters>
            <DistanceMeters>219493.63846068</DistanceMeters>
          </Trackpoint>
          <Trackpoint>
            <Time>2018-09-14T09:15:25.000Z</Time>
            <Position>
              <LatitudeDegrees>38.27918820083141326904296875</LatitudeDegrees>
              <LongitudeDegrees>-8.22038926184177398681640625</LongitudeDegrees>
            </Position>
            <AltitudeMeters>87.8000030517578125</AltitudeMeters>
            <DistanceMeters>219513.9730674</DistanceMeters>
          </Trackpoint>
          <Trackpoint>
            <Time>2018-09-14T09:15:33.000Z</Time>
            <Position>
              <LatitudeDegrees>38.278902210295200347900390625</LatitudeDegrees>
              <LongitudeDegrees>-8.22047433815896511077880859375</LongitudeDegrees>
            </Position>
            <AltitudeMeters>88.8000030517578125</AltitudeMeters>
            <DistanceMeters>219546.66101404</DistanceMeters>
          </Trackpoint>
          <Trackpoint>
            <Time>2018-09-14T09:15:38.000Z</Time>
            <Position>
              <LatitudeDegrees>38.27872107736766338348388671875</LatitudeDegrees>
              <LongitudeDegrees>-8.220524378120899200439453125</LongitudeDegrees>
            </Position>
            <AltitudeMeters>89.8000030517578125</AltitudeMeters>
            <DistanceMeters>219567.29034855</DistanceMeters>
          </Trackpoint>
          <Trackpoint>
            <Time>2018-09-14T09:15:43.000Z</Time>
            <Position>
              <LatitudeDegrees>38.2785409502685070037841796875</LatitudeDegrees>
              <LongitudeDegrees>-8.22057022713124752044677734375</LongitudeDegrees>
            </Position>
            <AltitudeMeters>90.59999847412109375</AltitudeMeters>
            <DistanceMeters>219587.73523076</DistanceMeters>
          </Trackpoint>
          <Trackpoint>
            <Time>2018-09-14T09:15:49.000Z</Time>
            <Position>
              <LatitudeDegrees>38.2783189974725246429443359375</LatitudeDegrees>
              <LongitudeDegrees>-8.2206366956233978271484375</LongitudeDegrees>
            </Position>
            <AltitudeMeters>91.59999847412109375</AltitudeMeters>
            <DistanceMeters>219613.1125236</DistanceMeters>
          </Trackpoint>
          <Trackpoint>
            <Time>2018-09-14T09:15:54.000Z</Time>
            <Position>
              <LatitudeDegrees>38.27813065610826015472412109375</LatitudeDegrees>
              <LongitudeDegrees>-8.220691680908203125</LongitudeDegrees>
            </Position>
            <AltitudeMeters>92.1999969482421875</AltitudeMeters>
            <DistanceMeters>219634.6186038</DistanceMeters>
          </Trackpoint>
          <Trackpoint>
            <Time>2018-09-14T09:16:02.000Z</Time>
            <Position>
              <LatitudeDegrees>38.277829997241497039794921875</LatitudeDegrees>
              <LongitudeDegrees>-8.22077684104442596435546875</LongitudeDegrees>
            </Position>
            <AltitudeMeters>93.1999969482421875</AltitudeMeters>
            <DistanceMeters>219668.89968034</DistanceMeters>
          </Trackpoint>
          <Trackpoint>
            <Time>2018-09-14T09:16:07.000Z</Time>
            <Position>
              <LatitudeDegrees>38.2776393927633762359619140625</LatitudeDegrees>
              <LongitudeDegrees>-8.22083291597664356231689453125</LongitudeDegrees>
            </Position>
            <AltitudeMeters>94</AltitudeMeters>
            <DistanceMeters>219690.67303592</DistanceMeters>
          </Trackpoint>
          <Trackpoint>
            <Time>2018-09-14T09:16:12.000Z</Time>
            <Position>
              <LatitudeDegrees>38.27744401060044765472412109375</LatitudeDegrees>
              <LongitudeDegrees>-8.22087951935827732086181640625</LongitudeDegrees>
            </Position>
            <AltitudeMeters>94.40000152587890625</AltitudeMeters>
            <DistanceMeters>219712.79753261</DistanceMeters>
          </Trackpoint>
          <Trackpoint>
            <Time>2018-09-14T09:16:18.000Z</Time>
            <Position>
              <LatitudeDegrees>38.277185596525669097900390625</LatitudeDegrees>
              <LongitudeDegrees>-8.2209402881562709808349609375</LongitudeDegrees>
            </Position>
            <AltitudeMeters>94.59999847412109375</AltitudeMeters>
            <DistanceMeters>219742.04569942</DistanceMeters>
          </Trackpoint>
          <Trackpoint>
            <Time>2018-09-14T09:16:25.000Z</Time>
            <Position>
              <LatitudeDegrees>38.27680463902652263641357421875</LatitudeDegrees>
              <LongitudeDegrees>-8.22095646522939205169677734375</LongitudeDegrees>
            </Position>
            <AltitudeMeters>95</AltitudeMeters>
            <DistanceMeters>219784.47052478</DistanceMeters>
          </Trackpoint>
          <Trackpoint>
            <Time>2018-09-14T09:16:30.000Z</Time>
            <Position>
              <LatitudeDegrees>38.276493251323699951171875</LatitudeDegrees>
              <LongitudeDegrees>-8.22091170586645603179931640625</LongitudeDegrees>
            </Position>
            <AltitudeMeters>94.8000030517578125</AltitudeMeters>
            <DistanceMeters>219819.34856541</DistanceMeters>
          </Trackpoint>
          <Trackpoint>
            <Time>2018-09-14T09:16:37.000Z</Time>
            <Position>
              <LatitudeDegrees>38.27603300102055072784423828125</LatitudeDegrees>
              <LongitudeDegrees>-8.22082118131220340728759765625</LongitudeDegrees>
            </Position>
            <AltitudeMeters>94.40000152587890625</AltitudeMeters>
            <DistanceMeters>219871.1823935</DistanceMeters>
          </Trackpoint>
          <Trackpoint>
            <Time>2018-09-14T09:16:42.000Z</Time>
            <Position>
              <LatitudeDegrees>38.2756911031901836395263671875</LatitudeDegrees>
              <LongitudeDegrees>-8.220747672021389007568359375</LongitudeDegrees>
            </Position>
            <AltitudeMeters>93.8000030517578125</AltitudeMeters>
            <DistanceMeters>219909.77470657</DistanceMeters>
          </Trackpoint>
          <Trackpoint>
            <Time>2018-09-14T09:16:47.000Z</Time>
            <Position>
              <LatitudeDegrees>38.2753546535968780517578125</LatitudeDegrees>
              <LongitudeDegrees>-8.2206801138818264007568359375</LongitudeDegrees>
            </Position>
            <AltitudeMeters>93.1999969482421875</AltitudeMeters>
            <DistanceMeters>219947.68464928</DistanceMeters>
          </Trackpoint>
          <Trackpoint>
            <Time>2018-09-14T09:16:53.000Z</Time>
            <Position>
              <LatitudeDegrees>38.274943940341472625732421875</LatitudeDegrees>
              <LongitudeDegrees>-8.2205966301262378692626953125</LongitudeDegrees>
            </Position>
            <AltitudeMeters>91</AltitudeMeters>
            <DistanceMeters>219993.9762185</DistanceMeters>
          </Trackpoint>
          <Trackpoint>
            <Time>2018-09-14T09:16:55.000Z</Time>
            <Position>
              <LatitudeDegrees>38.27480253763496875762939453125</LatitudeDegrees>
              <LongitudeDegrees>-8.220568634569644927978515625</LongitudeDegrees>
            </Position>
            <AltitudeMeters>90.1999969482421875</AltitudeMeters>
            <DistanceMeters>220009.90361432</DistanceMeters>
          </Trackpoint>
          <Trackpoint>
            <Time>2018-09-14T09:16:59.000Z</Time>
            <Position>
              <LatitudeDegrees>38.27451034449040889739990234375</LatitudeDegrees>
              <LongitudeDegrees>-8.2205106317996978759765625</LongitudeDegrees>
            </Position>
            <AltitudeMeters>89.40000152587890625</AltitudeMeters>
            <DistanceMeters>220042.81771876</DistanceMeters>
          </Trackpoint>
          <Trackpoint>
            <Time>2018-09-14T09:17:06.000Z</Time>
            <Position>
              <LatitudeDegrees>38.2739771716296672821044921875</LatitudeDegrees>
              <LongitudeDegrees>-8.2204028405249118804931640625</LongitudeDegrees>
            </Position>
            <AltitudeMeters>90.59999847412109375</AltitudeMeters>
            <DistanceMeters>220102.90368961</DistanceMeters>
          </Trackpoint>
          <Trackpoint>
            <Time>2018-09-14T09:17:09.000Z</Time>
            <Position>
              <LatitudeDegrees>38.27374398708343505859375</LatitudeDegrees>
              <LongitudeDegrees>-8.2203545607626438140869140625</LongitudeDegrees>
            </Position>
            <AltitudeMeters>89.8000030517578125</AltitudeMeters>
            <DistanceMeters>220129.1981155</DistanceMeters>
          </Trackpoint>
          <Trackpoint>
            <Time>2018-09-14T09:17:16.000Z</Time>
            <Position>
              <LatitudeDegrees>38.27320955693721771240234375</LatitudeDegrees>
              <LongitudeDegrees>-8.22024199180305004119873046875</LongitudeDegrees>
            </Position>
            <AltitudeMeters>90.8000030517578125</AltitudeMeters>
            <DistanceMeters>220189.48895255</DistanceMeters>
          </Trackpoint>
          <Trackpoint>
            <Time>2018-09-14T09:17:24.000Z</Time>
            <Position>
              <LatitudeDegrees>38.27265492640435695648193359375</LatitudeDegrees>
              <LongitudeDegrees>-8.2201282493770122528076171875</LongitudeDegrees>
            </Position>
            <AltitudeMeters>93.8000030517578125</AltitudeMeters>
            <DistanceMeters>220252.01537525</DistanceMeters>
          </Trackpoint>
          <Trackpoint>
            <Time>2018-09-14T09:17:28.000Z</Time>
            <Position>
              <LatitudeDegrees>38.27239860780537128448486328125</LatitudeDegrees>
              <LongitudeDegrees>-8.22007586248219013214111328125</LongitudeDegrees>
            </Position>
            <AltitudeMeters>94</AltitudeMeters>
            <DistanceMeters>220280.90912245</DistanceMeters>
          </Trackpoint>
          <Trackpoint>
            <Time>2018-09-14T09:17:33.000Z</Time>
            <Position>
              <LatitudeDegrees>38.27209518291056156158447265625</LatitudeDegrees>
              <LongitudeDegrees>-8.2200171053409576416015625</LongitudeDegrees>
            </Position>
            <AltitudeMeters>94.1999969482421875</AltitudeMeters>
            <DistanceMeters>220315.06894635</DistanceMeters>
          </Trackpoint>
          <Trackpoint>
            <Time>2018-09-14T09:17:36.000Z</Time>
            <Position>
              <LatitudeDegrees>38.27191530726850032806396484375</LatitudeDegrees>
              <LongitudeDegrees>-8.2199951447546482086181640625</LongitudeDegrees>
            </Position>
            <AltitudeMeters>94.1999969482421875</AltitudeMeters>
            <DistanceMeters>220335.18141274</DistanceMeters>
          </Trackpoint>
          <Trackpoint>
            <Time>2018-09-14T09:17:45.000Z</Time>
            <Position>
              <LatitudeDegrees>38.27137433923780918121337890625</LatitudeDegrees>
              <LongitudeDegrees>-8.21989179588854312896728515625</LongitudeDegrees>
            </Position>
            <AltitudeMeters>92.8000030517578125</AltitudeMeters>
            <DistanceMeters>220396.06565972</DistanceMeters>
          </Trackpoint>
          <Trackpoint>
            <Time>2018-09-14T09:17:55.000Z</Time>
            <Position>
              <LatitudeDegrees>38.270819373428821563720703125</LatitudeDegrees>
              <LongitudeDegrees>-8.219776041805744171142578125</LongitudeDegrees>
            </Position>
            <AltitudeMeters>93.59999847412109375</AltitudeMeters>
            <DistanceMeters>220458.6571099</DistanceMeters>
          </Trackpoint>
          <Trackpoint>
            <Time>2018-09-14T09:17:57.000Z</Time>
            <Position>
              <LatitudeDegrees>38.2707159407436847686767578125</LatitudeDegrees>
              <LongitudeDegrees>-8.21975818835198879241943359375</LongitudeDegrees>
            </Position>
            <AltitudeMeters>93.8000030517578125</AltitudeMeters>
            <DistanceMeters>220470.27371277</DistanceMeters>
          </Trackpoint>
          <Trackpoint>
            <Time>2018-09-14T09:18:03.000Z</Time>
            <Position>
              <LatitudeDegrees>38.27040907926857471466064453125</LatitudeDegrees>
              <LongitudeDegrees>-8.2197074778378009796142578125</LongitudeDegrees>
            </Position>
            <AltitudeMeters>95</AltitudeMeters>
            <DistanceMeters>220504.71417867</DistanceMeters>
          </Trackpoint>
          <Trackpoint>
            <Time>2018-09-14T09:18:10.000Z</Time>
            <Position>
              <LatitudeDegrees>38.27005863189697265625</LatitudeDegrees>
              <LongitudeDegrees>-8.21963279508054256439208984375</LongitudeDegrees>
            </Position>
            <AltitudeMeters>96.1999969482421875</AltitudeMeters>
            <DistanceMeters>220544.26184953</DistanceMeters>
          </Trackpoint>
          <Trackpoint>
            <Time>2018-09-14T09:18:17.000Z</Time>
            <Position>
              <LatitudeDegrees>38.269687481224536895751953125</LatitudeDegrees>
              <LongitudeDegrees>-8.21954729966819286346435546875</LongitudeDegrees>
            </Position>
            <AltitudeMeters>97.8000030517578125</AltitudeMeters>
            <DistanceMeters>220586.24172231</DistanceMeters>
          </Trackpoint>
          <Trackpoint>
            <Time>2018-09-14T09:18:23.000Z</Time>
            <Position>
              <LatitudeDegrees>38.26938212849199771881103515625</LatitudeDegrees>
              <LongitudeDegrees>-8.219476304948329925537109375</LongitudeDegrees>
            </Position>
            <AltitudeMeters>99.40000152587890625</AltitudeMeters>
            <DistanceMeters>220620.78965111</DistanceMeters>
          </Trackpoint>
          <Trackpoint>
            <Time>2018-09-14T09:18:29.000Z</Time>
            <Position>
              <LatitudeDegrees>38.26907937414944171905517578125</LatitudeDegrees>
              <LongitudeDegrees>-8.21940623223781585693359375</LongitudeDegrees>
            </Position>
            <AltitudeMeters>100.59999847412109375</AltitudeMeters>
            <DistanceMeters>220655.0385762</DistanceMeters>
          </Trackpoint>
          <Trackpoint>
            <Time>2018-09-14T09:18:34.000Z</Time>
            <Position>
              <LatitudeDegrees>38.268807046115398406982421875</LatitudeDegrees>
              <LongitudeDegrees>-8.2193601317703723907470703125</LongitudeDegrees>
            </Position>
            <AltitudeMeters>100.40000152587890625</AltitudeMeters>
            <DistanceMeters>220685.61592263</DistanceMeters>
          </Trackpoint>
          <Trackpoint>
            <Time>2018-09-14T09:18:44.000Z</Time>
            <Position>
              <LatitudeDegrees>38.26823917217552661895751953125</LatitudeDegrees>
              <LongitudeDegrees>-8.2192528434097766876220703125</LongitudeDegrees>
            </Position>
            <AltitudeMeters>101</AltitudeMeters>
            <DistanceMeters>220749.51303292</DistanceMeters>
          </Trackpoint>
          <Trackpoint>
            <Time>2018-09-14T09:18:54.000Z</Time>
            <Position>
              <LatitudeDegrees>38.26764933764934539794921875</LatitudeDegrees>
              <LongitudeDegrees>-8.2191318087279796600341796875</LongitudeDegrees>
            </Position>
            <AltitudeMeters>103.1999969482421875</AltitudeMeters>
            <DistanceMeters>220816.00933005</DistanceMeters>
          </Trackpoint>
          <Trackpoint>
            <Time>2018-09-14T09:19:03.000Z</Time>
            <Position>
              <LatitudeDegrees>38.26713007874786853790283203125</LatitudeDegrees>
              <LongitudeDegrees>-8.21885596029460430145263671875</LongitudeDegrees>
            </Position>
            <AltitudeMeters>103.40000152587890625</AltitudeMeters>
            <DistanceMeters>220878.6294113</DistanceMeters>
          </Trackpoint>
          <Trackpoint>
            <Time>2018-09-14T09:19:12.000Z</Time>
            <Position>
              <LatitudeDegrees>38.26662397943437099456787109375</LatitudeDegrees>
              <LongitudeDegrees>-8.2184743322432041168212890625</LongitudeDegrees>
            </Position>
            <AltitudeMeters>104.40000152587890625</AltitudeMeters>
            <DistanceMeters>220944.0910243</DistanceMeters>
          </Trackpoint>
          <Trackpoint>
            <Time>2018-09-14T09:19:18.000Z</Time>
            <Position>
              <LatitudeDegrees>38.26626992784440517425537109375</LatitudeDegrees>
              <LongitudeDegrees>-8.21820904500782489776611328125</LongitudeDegrees>
            </Position>
            <AltitudeMeters>104.59999847412109375</AltitudeMeters>
            <DistanceMeters>220989.81112104</DistanceMeters>
          </Trackpoint>
          <Trackpoint>
            <Time>2018-09-14T09:19:26.000Z</Time>
            <Position>
              <LatitudeDegrees>38.265748322010040283203125</LatitudeDegrees>
              <LongitudeDegrees>-8.21780034340918064117431640625</LongitudeDegrees>
            </Position>
            <AltitudeMeters>104.59999847412109375</AltitudeMeters>
            <DistanceMeters>221057.97323413</DistanceMeters>
          </Trackpoint>
          <Trackpoint>
            <Time>2018-09-14T09:19:29.000Z</Time>
            <Position>
              <LatitudeDegrees>38.26554740779101848602294921875</LatitudeDegrees>
              <LongitudeDegrees>-8.21764360181987285614013671875</LongitudeDegrees>
            </Position>
            <AltitudeMeters>105</AltitudeMeters>
            <DistanceMeters>221084.1969919</DistanceMeters>
          </Trackpoint>
          <Trackpoint>
            <Time>2018-09-14T09:19:32.000Z</Time>
            <Position>
              <LatitudeDegrees>38.26534439809620380401611328125</LatitudeDegrees>
              <LongitudeDegrees>-8.2174839265644550323486328125</LongitudeDegrees>
            </Position>
            <AltitudeMeters>104.8000030517578125</AltitudeMeters>
            <DistanceMeters>221110.75385599</DistanceMeters>
          </Trackpoint>
          <Trackpoint>
            <Time>2018-09-14T09:19:35.000Z</Time>
            <Position>
              <LatitudeDegrees>38.26513786800205707550048828125</LatitudeDegrees>
              <LongitudeDegrees>-8.217317126691341400146484375</LongitudeDegrees>
            </Position>
            <AltitudeMeters>104</AltitudeMeters>
            <DistanceMeters>221137.97299727</DistanceMeters>
          </Trackpoint>
          <Trackpoint>
            <Time>2018-09-14T09:19:39.000Z</Time>
            <Position>
              <LatitudeDegrees>38.2648469321429729461669921875</LatitudeDegrees>
              <LongitudeDegrees>-8.217084109783172607421875</LongitudeDegrees>
            </Position>
            <AltitudeMeters>101.8000030517578125</AltitudeMeters>
            <DistanceMeters>221176.22523364</DistanceMeters>
          </Trackpoint>
          <Trackpoint>
            <Time>2018-09-14T09:19:42.000Z</Time>
            <Position>
              <LatitudeDegrees>38.26462305150926113128662109375</LatitudeDegrees>
              <LongitudeDegrees>-8.2169106043875217437744140625</LongitudeDegrees>
            </Position>
            <AltitudeMeters>101.40000152587890625</AltitudeMeters>
            <DistanceMeters>221205.39425595</DistanceMeters>
          </Trackpoint>
          <Trackpoint>
            <Time>2018-09-14T09:19:44.000Z</Time>
            <Position>
              <LatitudeDegrees>38.26447217725217342376708984375</LatitudeDegrees>
              <LongitudeDegrees>-8.2167888991534709930419921875</LongitudeDegrees>
            </Position>
            <AltitudeMeters>101.1999969482421875</AltitudeMeters>
            <DistanceMeters>221225.2714279</DistanceMeters>
          </Trackpoint>
          <Trackpoint>
            <Time>2018-09-14T09:19:50.000Z</Time>
            <Position>
              <LatitudeDegrees>38.264026679098606109619140625</LatitudeDegrees>
              <LongitudeDegrees>-8.21642470546066761016845703125</LongitudeDegrees>
            </Position>
            <AltitudeMeters>101</AltitudeMeters>
            <DistanceMeters>221284.19166915</DistanceMeters>
          </Trackpoint>
          <Trackpoint>
            <Time>2018-09-14T09:19:53.000Z</Time>
            <Position>
              <LatitudeDegrees>38.2637975178658962249755859375</LatitudeDegrees>
              <LongitudeDegrees>-8.21623795665800571441650390625</LongitudeDegrees>
            </Position>
            <AltitudeMeters>100.40000152587890625</AltitudeMeters>
            <DistanceMeters>221314.47210726</DistanceMeters>
          </Trackpoint>
          <Trackpoint>
            <Time>2018-09-14T09:19:55.000Z</Time>
            <Position>
              <LatitudeDegrees>38.26364203356206417083740234375</LatitudeDegrees>
              <LongitudeDegrees>-8.21611692197620868682861328125</LongitudeDegrees>
            </Position>
            <AltitudeMeters>99.8000030517578125</AltitudeMeters>
            <DistanceMeters>221334.75424552</DistanceMeters>
          </Trackpoint>
          <Trackpoint>
            <Time>2018-09-14T09:19:58.000Z</Time>
            <Position>
              <LatitudeDegrees>38.2634166441857814788818359375</LatitudeDegrees>
              <LongitudeDegrees>-8.21593989618122577667236328125</LongitudeDegrees>
            </Position>
            <AltitudeMeters>98.8000030517578125</AltitudeMeters>
            <DistanceMeters>221364.22723711</DistanceMeters>
          </Trackpoint>
          <Trackpoint>
            <Time>2018-09-14T09:20:03.000Z</Time>
            <Position>
              <LatitudeDegrees>38.2630272209644317626953125</LatitudeDegrees>
              <LongitudeDegrees>-8.21564569137990474700927734375</LongitudeDegrees>
            </Position>
            <AltitudeMeters>97</AltitudeMeters>
            <DistanceMeters>221414.62294189</DistanceMeters>
          </Trackpoint>
          <Trackpoint>
            <Time>2018-09-14T09:20:09.000Z</Time>
            <Position>
              <LatitudeDegrees>38.2625539787113666534423828125</LatitudeDegrees>
              <LongitudeDegrees>-8.21529163978993892669677734375</LongitudeDegrees>
            </Position>
            <AltitudeMeters>94.59999847412109375</AltitudeMeters>
            <DistanceMeters>221475.71129963</DistanceMeters>
          </Trackpoint>
          <Trackpoint>
            <Time>2018-09-14T09:20:10.000Z</Time>
            <Position>
              <LatitudeDegrees>38.26247141696512699127197265625</LatitudeDegrees>
              <LongitudeDegrees>-8.215237744152545928955078125</LongitudeDegrees>
            </Position>
            <AltitudeMeters>94.40000152587890625</AltitudeMeters>
            <DistanceMeters>221486.0373416</DistanceMeters>
          </Trackpoint>
          <Trackpoint>
            <Time>2018-09-14T09:20:15.000Z</Time>
            <Position>
              <LatitudeDegrees>38.2620343007147312164306640625</LatitudeDegrees>
              <LongitudeDegrees>-8.2150759734213352203369140625</LongitudeDegrees>
            </Position>
            <AltitudeMeters>94.59999847412109375</AltitudeMeters>
            <DistanceMeters>221536.70173244</DistanceMeters>
          </Trackpoint>
          <Trackpoint>
            <Time>2018-09-14T09:20:17.000Z</Time>
            <Position>
              <LatitudeDegrees>38.2618586160242557525634765625</LatitudeDegrees>
              <LongitudeDegrees>-8.21503146551549434661865234375</LongitudeDegrees>
            </Position>
            <AltitudeMeters>94.59999847412109375</AltitudeMeters>
            <DistanceMeters>221556.63900746</DistanceMeters>
          </Trackpoint>
          <Trackpoint>
            <Time>2018-09-14T09:20:22.000Z</Time>
            <Position>
              <LatitudeDegrees>38.26143340207636356353759765625</LatitudeDegrees>
              <LongitudeDegrees>-8.2149302959442138671875</LongitudeDegrees>
            </Position>
            <AltitudeMeters>94.40000152587890625</AltitudeMeters>
            <DistanceMeters>221604.78502166</DistanceMeters>
          </Trackpoint>
          <Trackpoint>
            <Time>2018-09-14T09:20:25.000Z</Time>
            <Position>
              <LatitudeDegrees>38.261173479259014129638671875</LatitudeDegrees>
              <LongitudeDegrees>-8.21487866342067718505859375</LongitudeDegrees>
            </Position>
            <AltitudeMeters>94</AltitudeMeters>
            <DistanceMeters>221634.064663</DistanceMeters>
          </Trackpoint>
          <Trackpoint>
            <Time>2018-09-14T09:20:28.000Z</Time>
            <Position>
              <LatitudeDegrees>38.26090500690042972564697265625</LatitudeDegrees>
              <LongitudeDegrees>-8.21482778526842594146728515625</LongitudeDegrees>
            </Position>
            <AltitudeMeters>93</AltitudeMeters>
            <DistanceMeters>221664.27508879</DistanceMeters>
          </Trackpoint>
          <Trackpoint>
            <Time>2018-09-14T09:20:35.000Z</Time>
            <Position>
              <LatitudeDegrees>38.2602967321872711181640625</LatitudeDegrees>
              <LongitudeDegrees>-8.21470943279564380645751953125</LongitudeDegrees>
            </Position>
            <AltitudeMeters>90.1999969482421875</AltitudeMeters>
            <DistanceMeters>221732.76278731</DistanceMeters>
          </Trackpoint>
          <Trackpoint>
            <Time>2018-09-14T09:20:39.000Z</Time>
            <Position>
              <LatitudeDegrees>38.25995131395757198333740234375</LatitudeDegrees>
              <LongitudeDegrees>-8.21464003063738346099853515625</LongitudeDegrees>
            </Position>
            <AltitudeMeters>90.1999969482421875</AltitudeMeters>
            <DistanceMeters>221771.68408693</DistanceMeters>
          </Trackpoint>
          <Trackpoint>
            <Time>2018-09-14T09:20:45.000Z</Time>
            <Position>
              <LatitudeDegrees>38.25945225544273853302001953125</LatitudeDegrees>
              <LongitudeDegrees>-8.21452863514423370361328125</LongitudeDegrees>
            </Position>
            <AltitudeMeters>89.8000030517578125</AltitudeMeters>
            <DistanceMeters>221828.0769778</DistanceMeters>
          </Trackpoint>
          <Trackpoint>
            <Time>2018-09-14T09:20:52.000Z</Time>
            <Position>
              <LatitudeDegrees>38.2588612474501132965087890625</LatitudeDegrees>
              <LongitudeDegrees>-8.2144059240818023681640625</LongitudeDegrees>
            </Position>
            <AltitudeMeters>89.40000152587890625</AltitudeMeters>
            <DistanceMeters>221894.7258728</DistanceMeters>
          </Trackpoint>
          <Trackpoint>
            <Time>2018-09-14T09:20:59.000Z</Time>
            <Position>
              <LatitudeDegrees>38.25825900770723819732666015625</LatitudeDegrees>
              <LongitudeDegrees>-8.21428664959967136383056640625</LongitudeDegrees>
            </Position>
            <AltitudeMeters>89</AltitudeMeters>
            <DistanceMeters>221962.56203584</DistanceMeters>
          </Trackpoint>
          <Trackpoint>
            <Time>2018-09-14T09:21:06.000Z</Time>
            <Position>
              <LatitudeDegrees>38.25766137801110744476318359375</LatitudeDegrees>
              <LongitudeDegrees>-8.2141646929085254669189453125</LongitudeDegrees>
            </Position>
            <AltitudeMeters>89.1999969482421875</AltitudeMeters>
            <DistanceMeters>222029.9279341</DistanceMeters>
          </Trackpoint>
          <Trackpoint>
            <Time>2018-09-14T09:21:12.000Z</Time>
            <Position>
              <LatitudeDegrees>38.2571650855243206024169921875</LatitudeDegrees>
              <LongitudeDegrees>-8.21406385861337184906005859375</LongitudeDegrees>
            </Position>
            <AltitudeMeters>90</AltitudeMeters>
            <DistanceMeters>222085.86485883</DistanceMeters>
          </Trackpoint>
          <Trackpoint>
            <Time>2018-09-14T09:21:17.000Z</Time>
            <Position>
              <LatitudeDegrees>38.256757557392120361328125</LatitudeDegrees>
              <LongitudeDegrees>-8.21398104541003704071044921875</LongitudeDegrees>
            </Position>
            <AltitudeMeters>90.40000152587890625</AltitudeMeters>
            <DistanceMeters>222131.79727723</DistanceMeters>
          </Trackpoint>
          <Trackpoint>
            <Time>2018-09-14T09:21:21.000Z</Time>
            <Position>
              <LatitudeDegrees>38.2564308308064937591552734375</LatitudeDegrees>
              <LongitudeDegrees>-8.21391575038433074951171875</LongitudeDegrees>
            </Position>
            <AltitudeMeters>90.40000152587890625</AltitudeMeters>
            <DistanceMeters>222168.60758952</DistanceMeters>
          </Trackpoint>
          <Trackpoint>
            <Time>2018-09-14T09:21:28.000Z</Time>
            <Position>
              <LatitudeDegrees>38.25586496852338314056396484375</LatitudeDegrees>
              <LongitudeDegrees>-8.21379060856997966766357421875</LongitudeDegrees>
            </Position>
            <AltitudeMeters>91.59999847412109375</AltitudeMeters>
            <DistanceMeters>222232.5318279</DistanceMeters>
          </Trackpoint>
          <Trackpoint>
            <Time>2018-09-14T09:21:35.000Z</Time>
            <Position>
              <LatitudeDegrees>38.25528435409069061279296875</LatitudeDegrees>
              <LongitudeDegrees>-8.21364610455930233001708984375</LongitudeDegrees>
            </Position>
            <AltitudeMeters>91</AltitudeMeters>
            <DistanceMeters>222298.37800443</DistanceMeters>
          </Trackpoint>
          <Trackpoint>
            <Time>2018-09-14T09:21:42.000Z</Time>
            <Position>
              <LatitudeDegrees>38.25468295253813266754150390625</LatitudeDegrees>
              <LongitudeDegrees>-8.213491626083850860595703125</LongitudeDegrees>
            </Position>
            <AltitudeMeters>90</AltitudeMeters>
            <DistanceMeters>222366.66341059</DistanceMeters>
          </Trackpoint>
          <Trackpoint>
            <Time>2018-09-14T09:21:45.000Z</Time>
            <Position>
              <LatitudeDegrees>38.254427723586559295654296875</LatitudeDegrees>
              <LongitudeDegrees>-8.2134277559816837310791015625</LongitudeDegrees>
            </Position>
            <AltitudeMeters>89.1999969482421875</AltitudeMeters>
            <DistanceMeters>222395.61429374</DistanceMeters>
          </Trackpoint>
          <Trackpoint>
            <Time>2018-09-14T09:21:52.000Z</Time>
            <Position>
              <LatitudeDegrees>38.25384275056421756744384765625</LatitudeDegrees>
              <LongitudeDegrees>-8.21328585036098957061767578125</LongitudeDegrees>
            </Position>
            <AltitudeMeters>89.1999969482421875</AltitudeMeters>
            <DistanceMeters>222461.89377509</DistanceMeters>
          </Trackpoint>
          <Trackpoint>
            <Time>2018-09-14T09:21:59.000Z</Time>
            <Position>
              <LatitudeDegrees>38.25326708145439624786376953125</LatitudeDegrees>
              <LongitudeDegrees>-8.2131397537887096405029296875</LongitudeDegrees>
            </Position>
            <AltitudeMeters>89.8000030517578125</AltitudeMeters>
            <DistanceMeters>222527.22697366</DistanceMeters>
          </Trackpoint>
          <Trackpoint>
            <Time>2018-09-14T09:22:06.000Z</Time>
            <Position>
              <LatitudeDegrees>38.25270541012287139892578125</LatitudeDegrees>
              <LongitudeDegrees>-8.2129982672631740570068359375</LongitudeDegrees>
            </Position>
            <AltitudeMeters>89.59999847412109375</AltitudeMeters>
            <DistanceMeters>222590.95356323</DistanceMeters>
          </Trackpoint>
          <Trackpoint>
            <Time>2018-09-14T09:22:13.000Z</Time>
            <Position>
              <LatitudeDegrees>38.25211666524410247802734375</LatitudeDegrees>
              <LongitudeDegrees>-8.212854601442813873291015625</LongitudeDegrees>
            </Position>
            <AltitudeMeters>89.1999969482421875</AltitudeMeters>
            <DistanceMeters>222657.67422784</DistanceMeters>
          </Trackpoint>
          <Trackpoint>
            <Time>2018-09-14T09:22:14.000Z</Time>
            <Position>
              <LatitudeDegrees>38.252028487622737884521484375</LatitudeDegrees>
              <LongitudeDegrees>-8.21283205412328243255615234375</LongitudeDegrees>
            </Position>
            <AltitudeMeters>89</AltitudeMeters>
            <DistanceMeters>222667.68410937</DistanceMeters>
          </Trackpoint>
          <Trackpoint>
            <Time>2018-09-14T09:22:20.000Z</Time>
            <Position>
              <LatitudeDegrees>38.25149665586650371551513671875</LatitudeDegrees>
              <LongitudeDegrees>-8.2127015478909015655517578125</LongitudeDegrees>
            </Position>
            <AltitudeMeters>87.8000030517578125</AltitudeMeters>
            <DistanceMeters>222727.9671576</DistanceMeters>
          </Trackpoint>
          <Trackpoint>
            <Time>2018-09-14T09:22:27.000Z</Time>
            <Position>
              <LatitudeDegrees>38.25088209472596645355224609375</LatitudeDegrees>
              <LongitudeDegrees>-8.212538771331310272216796875</LongitudeDegrees>
            </Position>
            <AltitudeMeters>86</AltitudeMeters>
            <DistanceMeters>222797.83305731</DistanceMeters>
          </Trackpoint>
          <Trackpoint>
            <Time>2018-09-14T09:22:28.000Z</Time>
            <Position>
              <LatitudeDegrees>38.25079307891428470611572265625</LatitudeDegrees>
              <LongitudeDegrees>-8.21251429617404937744140625</LongitudeDegrees>
            </Position>
            <AltitudeMeters>86</AltitudeMeters>
            <DistanceMeters>222807.96933916</DistanceMeters>
          </Trackpoint>
          <Trackpoint>
            <Time>2018-09-14T09:22:33.000Z</Time>
            <Position>
              <LatitudeDegrees>38.25034850277006626129150390625</LatitudeDegrees>
              <LongitudeDegrees>-8.21240088902413845062255859375</LongitudeDegrees>
            </Position>
            <AltitudeMeters>85.59999847412109375</AltitudeMeters>
            <DistanceMeters>222858.43460869</DistanceMeters>
          </Trackpoint>
          <Trackpoint>
            <Time>2018-09-14T09:22:36.000Z</Time>
            <Position>
              <LatitudeDegrees>38.25007525272667407989501953125</LatitudeDegrees>
              <LongitudeDegrees>-8.212330900132656097412109375</LongitudeDegrees>
            </Position>
            <AltitudeMeters>85.1999969482421875</AltitudeMeters>
            <DistanceMeters>222889.45701071</DistanceMeters>
          </Trackpoint>
          <Trackpoint>
            <Time>2018-09-14T09:22:42.000Z</Time>
            <Position>
              <LatitudeDegrees>38.24954132549464702606201171875</LatitudeDegrees>
              <LongitudeDegrees>-8.21219352073967456817626953125</LongitudeDegrees>
            </Position>
            <AltitudeMeters>84.59999847412109375</AltitudeMeters>
            <DistanceMeters>222950.08524603</DistanceMeters>
          </Trackpoint>
          <Trackpoint>
            <Time>2018-09-14T09:22:44.000Z</Time>
            <Position>
              <LatitudeDegrees>38.24936597608029842376708984375</LatitudeDegrees>
              <LongitudeDegrees>-8.2121513597667217254638671875</LongitudeDegrees>
            </Position>
            <AltitudeMeters>84.59999847412109375</AltitudeMeters>
            <DistanceMeters>222969.94651133</DistanceMeters>
          </Trackpoint>
          <Trackpoint>
            <Time>2018-09-14T09:22:47.000Z</Time>
            <Position>
              <LatitudeDegrees>38.24910328723490238189697265625</LatitudeDegrees>
              <LongitudeDegrees>-8.21208707056939601898193359375</LongitudeDegrees>
            </Position>
            <AltitudeMeters>84.59999847412109375</AltitudeMeters>
            <DistanceMeters>222999.71945919</DistanceMeters>
          </Trackpoint>
          <Trackpoint>
            <Time>2018-09-14T09:22:54.000Z</Time>
            <Position>
              <LatitudeDegrees>38.24849836528301239013671875</LatitudeDegrees>
              <LongitudeDegrees>-8.2119344361126422882080078125</LongitudeDegrees>
            </Position>
            <AltitudeMeters>83.8000030517578125</AltitudeMeters>
            <DistanceMeters>223068.35763058</DistanceMeters>
          </Trackpoint>
          <Trackpoint>
            <Time>2018-09-14T09:23:01.000Z</Time>
            <Position>
              <LatitudeDegrees>38.24787969700992107391357421875</LatitudeDegrees>
              <LongitudeDegrees>-8.21178532205522060394287109375</LongitudeDegrees>
            </Position>
            <AltitudeMeters>82.59999847412109375</AltitudeMeters>
            <DistanceMeters>223138.43930092</DistanceMeters>
          </Trackpoint>
          <Trackpoint>
            <Time>2018-09-14T09:23:03.000Z</Time>
            <Position>
              <LatitudeDegrees>38.24770040810108184814453125</LatitudeDegrees>
              <LongitudeDegrees>-8.2117399759590625762939453125</LongitudeDegrees>
            </Position>
            <AltitudeMeters>82.1999969482421875</AltitudeMeters>
            <DistanceMeters>223158.78456263</DistanceMeters>
          </Trackpoint>
          <Trackpoint>
            <Time>2018-09-14T09:23:09.000Z</Time>
            <Position>
              <LatitudeDegrees>38.24715013615787029266357421875</LatitudeDegrees>
              <LongitudeDegrees>-8.21160041727125644683837890625</LongitudeDegrees>
            </Position>
            <AltitudeMeters>80.8000030517578125</AltitudeMeters>
            <DistanceMeters>223221.23388965</DistanceMeters>
          </Trackpoint>
          <Trackpoint>
            <Time>2018-09-14T09:23:13.000Z</Time>
            <Position>
              <LatitudeDegrees>38.24676834046840667724609375</LatitudeDegrees>
              <LongitudeDegrees>-8.211508132517337799072265625</LongitudeDegrees>
            </Position>
            <AltitudeMeters>81.40000152587890625</AltitudeMeters>
            <DistanceMeters>223264.48733191</DistanceMeters>
          </Trackpoint>
          <Trackpoint>
            <Time>2018-09-14T09:23:16.000Z</Time>
            <Position>
              <LatitudeDegrees>38.2464774884283542633056640625</LatitudeDegrees>
              <LongitudeDegrees>-8.211433030664920806884765625</LongitudeDegrees>
            </Position>
            <AltitudeMeters>81.59999847412109375</AltitudeMeters>
            <DistanceMeters>223297.51878732</DistanceMeters>
          </Trackpoint>
          <Trackpoint>
            <Time>2018-09-14T09:23:19.000Z</Time>
            <Position>
              <LatitudeDegrees>38.2461856305599212646484375</LatitudeDegrees>
              <LongitudeDegrees>-8.21135767735540866851806640625</LongitudeDegrees>
            </Position>
            <AltitudeMeters>81.59999847412109375</AltitudeMeters>
            <DistanceMeters>223330.6643178</DistanceMeters>
          </Trackpoint>
          <Trackpoint>
            <Time>2018-09-14T09:23:23.000Z</Time>
            <Position>
              <LatitudeDegrees>38.245797716081142425537109375</LatitudeDegrees>
              <LongitudeDegrees>-8.2112612016499042510986328125</LongitudeDegrees>
            </Position>
            <AltitudeMeters>81</AltitudeMeters>
            <DistanceMeters>223374.65593942</DistanceMeters>
          </Trackpoint>
          <Trackpoint>
            <Time>2018-09-14T09:23:25.000Z</Time>
            <Position>
              <LatitudeDegrees>38.24561038054525852203369140625</LatitudeDegrees>
              <LongitudeDegrees>-8.21121384389698505401611328125</LongitudeDegrees>
            </Position>
            <AltitudeMeters>80.8000030517578125</AltitudeMeters>
            <DistanceMeters>223395.91369366</DistanceMeters>
          </Trackpoint>
          <Trackpoint>
            <Time>2018-09-14T09:23:26.000Z</Time>
            <Position>
              <LatitudeDegrees>38.24551834724843502044677734375</LatitudeDegrees>
              <LongitudeDegrees>-8.21118987165391445159912109375</LongitudeDegrees>
            </Position>
            <AltitudeMeters>80.59999847412109375</AltitudeMeters>
            <DistanceMeters>223406.36922356</DistanceMeters>
          </Trackpoint>
          <Trackpoint>
            <Time>2018-09-14T09:23:30.000Z</Time>
            <Position>
              <LatitudeDegrees>38.2451367191970348358154296875</LatitudeDegrees>
              <LongitudeDegrees>-8.21108694188296794891357421875</LongitudeDegrees>
            </Position>
            <AltitudeMeters>79.8000030517578125</AltitudeMeters>
            <DistanceMeters>223449.78759385</DistanceMeters>
          </Trackpoint>
          <Trackpoint>
            <Time>2018-09-14T09:23:34.000Z</Time>
            <Position>
              <LatitudeDegrees>38.24475022964179515838623046875</LatitudeDegrees>
              <LongitudeDegrees>-8.2109820842742919921875</LongitudeDegrees>
            </Position>
            <AltitudeMeters>80</AltitudeMeters>
            <DistanceMeters>223493.77028541</DistanceMeters>
          </Trackpoint>
          <Trackpoint>
            <Time>2018-09-14T09:23:40.000Z</Time>
            <Position>
              <LatitudeDegrees>38.24417841620743274688720703125</LatitudeDegrees>
              <LongitudeDegrees>-8.210841603577136993408203125</LongitudeDegrees>
            </Position>
            <AltitudeMeters>79.40000152587890625</AltitudeMeters>
            <DistanceMeters>223558.58818769</DistanceMeters>
          </Trackpoint>
          <Trackpoint>
            <Time>2018-09-14T09:23:44.000Z</Time>
            <Position>
              <LatitudeDegrees>38.24381547980010509490966796875</LatitudeDegrees>
              <LongitudeDegrees>-8.21075250394642353057861328125</LongitudeDegrees>
            </Position>
            <AltitudeMeters>77.8000030517578125</AltitudeMeters>
            <DistanceMeters>223599.72773165</DistanceMeters>
          </Trackpoint>
          <Trackpoint>
            <Time>2018-09-14T09:23:50.000Z</Time>
            <Position>
              <LatitudeDegrees>38.24328037910163402557373046875</LatitudeDegrees>
              <LongitudeDegrees>-8.2106318883597850799560546875</LongitudeDegrees>
            </Position>
            <AltitudeMeters>76.59999847412109375</AltitudeMeters>
            <DistanceMeters>223660.21154485</DistanceMeters>
          </Trackpoint>
          <Trackpoint>
            <Time>2018-09-14T09:23:54.000Z</Time>
            <Position>
              <LatitudeDegrees>38.24293755926191806793212890625</LatitudeDegrees>
              <LongitudeDegrees>-8.21056298911571502685546875</LongitudeDegrees>
            </Position>
            <AltitudeMeters>76.59999847412109375</AltitudeMeters>
            <DistanceMeters>223698.84057632</DistanceMeters>
          </Trackpoint>
          <Trackpoint>
            <Time>2018-09-14T09:23:58.000Z</Time>
            <Position>
              <LatitudeDegrees>38.24259926564991474151611328125</LatitudeDegrees>
              <LongitudeDegrees>-8.210432566702365875244140625</LongitudeDegrees>
            </Position>
            <AltitudeMeters>76.1999969482421875</AltitudeMeters>
            <DistanceMeters>223738.18163607</DistanceMeters>
          </Trackpoint>
          <Trackpoint>
            <Time>2018-09-14T09:24:04.000Z</Time>
            <Position>
              <LatitudeDegrees>38.24208361096680164337158203125</LatitudeDegrees>
              <LongitudeDegrees>-8.21007457561790943145751953125</LongitudeDegrees>
            </Position>
            <AltitudeMeters>73.8000030517578125</AltitudeMeters>
            <DistanceMeters>223803.55241851</DistanceMeters>
          </Trackpoint>
          <Trackpoint>
            <Time>2018-09-14T09:24:10.000Z</Time>
            <Position>
              <LatitudeDegrees>38.24159930460155010223388671875</LatitudeDegrees>
              <LongitudeDegrees>-8.2097434066236019134521484375</LongitudeDegrees>
            </Position>
            <AltitudeMeters>73.1999969482421875</AltitudeMeters>
            <DistanceMeters>223864.73870237</DistanceMeters>
          </Trackpoint>
          <Trackpoint>
            <Time>2018-09-14T09:24:14.000Z</Time>
            <Position>
              <LatitudeDegrees>38.24129856191575527191162109375</LatitudeDegrees>
              <LongitudeDegrees>-8.20952304638922214508056640625</LongitudeDegrees>
            </Position>
            <AltitudeMeters>74</AltitudeMeters>
            <DistanceMeters>223903.3590836</DistanceMeters>
          </Trackpoint>
          <Trackpoint>
            <Time>2018-09-14T09:24:17.000Z</Time>
            <Position>
              <LatitudeDegrees>38.24106998741626739501953125</LatitudeDegrees>
              <LongitudeDegrees>-8.20937351323664188385009765625</LongitudeDegrees>
            </Position>
            <AltitudeMeters>75.40000152587890625</AltitudeMeters>
            <DistanceMeters>223931.96165107</DistanceMeters>
          </Trackpoint>
          <Trackpoint>
            <Time>2018-09-14T09:24:24.000Z</Time>
            <Position>
              <LatitudeDegrees>38.2405427657067775726318359375</LatitudeDegrees>
              <LongitudeDegrees>-8.20900286547839641571044921875</LongitudeDegrees>
            </Position>
            <AltitudeMeters>76.1999969482421875</AltitudeMeters>
            <DistanceMeters>223998.99368668</DistanceMeters>
          </Trackpoint>
          <Trackpoint>
            <Time>2018-09-14T09:24:29.000Z</Time>
            <Position>
              <LatitudeDegrees>38.2402078248560428619384765625</LatitudeDegrees>
              <LongitudeDegrees>-8.20876867510378360748291015625</LongitudeDegrees>
            </Position>
            <AltitudeMeters>76.8000030517578125</AltitudeMeters>
            <DistanceMeters>224041.52490948</DistanceMeters>
          </Trackpoint>
          <Trackpoint>
            <Time>2018-09-14T09:24:33.000Z</Time>
            <Position>
              <LatitudeDegrees>38.23996223509311676025390625</LatitudeDegrees>
              <LongitudeDegrees>-8.20862417109310626983642578125</LongitudeDegrees>
            </Position>
            <AltitudeMeters>77.8000030517578125</AltitudeMeters>
            <DistanceMeters>224071.63728445</DistanceMeters>
          </Trackpoint>
          <Trackpoint>
            <Time>2018-09-14T09:24:36.000Z</Time>
            <Position>
              <LatitudeDegrees>38.23976618237793445587158203125</LatitudeDegrees>
              <LongitudeDegrees>-8.20854806341230869293212890625</LongitudeDegrees>
            </Position>
            <AltitudeMeters>78.8000030517578125</AltitudeMeters>
            <DistanceMeters>224094.45003013</DistanceMeters>
          </Trackpoint>
          <Trackpoint>
            <Time>2018-09-14T09:24:37.000Z</Time>
            <Position>
              <LatitudeDegrees>38.2396968640387058258056640625</LatitudeDegrees>
              <LongitudeDegrees>-8.2085270248353481292724609375</LongitudeDegrees>
            </Position>
            <AltitudeMeters>79.1999969482421875</AltitudeMeters>
            <DistanceMeters>224102.38120359</DistanceMeters>
          </Trackpoint>
          <Trackpoint>
            <Time>2018-09-14T09:24:39.000Z</Time>
            <Position>
              <LatitudeDegrees>38.23955697007477283477783203125</LatitudeDegrees>
              <LongitudeDegrees>-8.2084851153194904327392578125</LongitudeDegrees>
            </Position>
            <AltitudeMeters>79.8000030517578125</AltitudeMeters>
            <DistanceMeters>224118.37705356</DistanceMeters>
          </Trackpoint>
          <Trackpoint>
            <Time>2018-09-14T09:24:42.000Z</Time>
            <Position>
              <LatitudeDegrees>38.2393602468073368072509765625</LatitudeDegrees>
              <LongitudeDegrees>-8.20841713808476924896240234375</LongitudeDegrees>
            </Position>
            <AltitudeMeters>80.8000030517578125</AltitudeMeters>
            <DistanceMeters>224141.06496769</DistanceMeters>
          </Trackpoint>
          <Trackpoint>
            <Time>2018-09-14T09:24:49.000Z</Time>
            <Position>
              <LatitudeDegrees>38.238950036466121673583984375</LatitudeDegrees>
              <LongitudeDegrees>-8.20830113254487514495849609375</LongitudeDegrees>
            </Position>
            <AltitudeMeters>81</AltitudeMeters>
            <DistanceMeters>224187.8348151</DistanceMeters>
          </Trackpoint>
          <Trackpoint>
            <Time>2018-09-14T09:24:50.000Z</Time>
            <Position>
              <LatitudeDegrees>38.23889211751520633697509765625</LatitudeDegrees>
              <LongitudeDegrees>-8.2082824409008026123046875</LongitudeDegrees>
            </Position>
            <AltitudeMeters>81</AltitudeMeters>
            <DistanceMeters>224194.48532745</DistanceMeters>
          </Trackpoint>
          <Trackpoint>
            <Time>2018-09-14T09:24:53.000Z</Time>
            <Position>
              <LatitudeDegrees>38.23872129432857036590576171875</LatitudeDegrees>
              <LongitudeDegrees>-8.2082225941121578216552734375</LongitudeDegrees>
            </Position>
            <AltitudeMeters>80.8000030517578125</AltitudeMeters>
            <DistanceMeters>224214.20514519</DistanceMeters>
          </Trackpoint>
          <Trackpoint>
            <Time>2018-09-14T09:24:55.000Z</Time>
            <Position>
              <LatitudeDegrees>38.23860713280737400054931640625</LatitudeDegrees>
              <LongitudeDegrees>-8.20819166488945484161376953125</LongitudeDegrees>
            </Position>
            <AltitudeMeters>81</AltitudeMeters>
            <DistanceMeters>224227.19568285</DistanceMeters>
          </Trackpoint>
          <Trackpoint>
            <Time>2018-09-14T09:24:58.000Z</Time>
            <Position>
              <LatitudeDegrees>38.2384348846971988677978515625</LatitudeDegrees>
              <LongitudeDegrees>-8.208147324621677398681640625</LongitudeDegrees>
            </Position>
            <AltitudeMeters>81.1999969482421875</AltitudeMeters>
            <DistanceMeters>224246.75526487</DistanceMeters>
          </Trackpoint>
          <Trackpoint>
            <Time>2018-09-14T09:25:05.000Z</Time>
            <Position>
              <LatitudeDegrees>38.23799349367618560791015625</LatitudeDegrees>
              <LongitudeDegrees>-8.2080034911632537841796875</LongitudeDegrees>
            </Position>
            <AltitudeMeters>83.8000030517578125</AltitudeMeters>
            <DistanceMeters>224297.46659842</DistanceMeters>
          </Trackpoint>
          <Trackpoint>
            <Time>2018-09-14T09:25:14.000Z</Time>
            <Position>
              <LatitudeDegrees>38.23745361529290676116943359375</LatitudeDegrees>
              <LongitudeDegrees>-8.2078400440514087677001953125</LongitudeDegrees>
            </Position>
            <AltitudeMeters>86.1999969482421875</AltitudeMeters>
            <DistanceMeters>224359.23176979</DistanceMeters>
          </Trackpoint>
          <Trackpoint>
            <Time>2018-09-14T09:25:16.000Z</Time>
            <Position>
              <LatitudeDegrees>38.2373504340648651123046875</LatitudeDegrees>
              <LongitudeDegrees>-8.20780836045742034912109375</LongitudeDegrees>
            </Position>
            <AltitudeMeters>86.59999847412109375</AltitudeMeters>
            <DistanceMeters>224371.04569639</DistanceMeters>
          </Trackpoint>
          <Trackpoint>
            <Time>2018-09-14T09:25:20.000Z</Time>
            <Position>
              <LatitudeDegrees>38.2371554709970951080322265625</LatitudeDegrees>
              <LongitudeDegrees>-8.20774977095425128936767578125</LongitudeDegrees>
            </Position>
            <AltitudeMeters>87.1999969482421875</AltitudeMeters>
            <DistanceMeters>224393.3415639</DistanceMeters>
          </Trackpoint>
          <Trackpoint>
            <Time>2018-09-14T09:25:28.000Z</Time>
            <Position>
              <LatitudeDegrees>38.23677803389728069305419921875</LatitudeDegrees>
              <LongitudeDegrees>-8.20763544179499149322509765625</LongitudeDegrees>
            </Position>
            <AltitudeMeters>88</AltitudeMeters>
            <DistanceMeters>224436.52365192</DistanceMeters>
          </Trackpoint>
          <Trackpoint>
            <Time>2018-09-14T09:25:38.000Z</Time>
            <Position>
              <LatitudeDegrees>38.2362666539847850799560546875</LatitudeDegrees>
              <LongitudeDegrees>-8.207523711025714874267578125</LongitudeDegrees>
            </Position>
            <AltitudeMeters>87.1999969482421875</AltitudeMeters>
            <DistanceMeters>224494.27339636</DistanceMeters>
          </Trackpoint>
          <Trackpoint>
            <Time>2018-09-14T09:25:41.000Z</Time>
            <Position>
              <LatitudeDegrees>38.236103542149066925048828125</LatitudeDegrees>
              <LongitudeDegrees>-8.2075037620961666107177734375</LongitudeDegrees>
            </Position>
            <AltitudeMeters>87</AltitudeMeters>
            <DistanceMeters>224512.51184272</DistanceMeters>
          </Trackpoint>
          <Trackpoint>
            <Time>2018-09-14T09:25:46.000Z</Time>
            <Position>
              <LatitudeDegrees>38.23581109754741191864013671875</LatitudeDegrees>
              <LongitudeDegrees>-8.20746663026511669158935546875</LongitudeDegrees>
            </Position>
            <AltitudeMeters>85.59999847412109375</AltitudeMeters>
            <DistanceMeters>224545.22284818</DistanceMeters>
          </Trackpoint>
          <Trackpoint>
            <Time>2018-09-14T09:25:51.000Z</Time>
            <Position>
              <LatitudeDegrees>38.23551622219383716583251953125</LatitudeDegrees>
              <LongitudeDegrees>-8.20743327029049396514892578125</LongitudeDegrees>
            </Position>
            <AltitudeMeters>83.40000152587890625</AltitudeMeters>
            <DistanceMeters>224578.17246215</DistanceMeters>
          </Trackpoint>
          <Trackpoint>
            <Time>2018-09-14T09:25:54.000Z</Time>
            <Position>
              <LatitudeDegrees>38.235326707363128662109375</LatitudeDegrees>
              <LongitudeDegrees>-8.20741181261837482452392578125</LongitudeDegrees>
            </Position>
            <AltitudeMeters>82</AltitudeMeters>
            <DistanceMeters>224599.34913933</DistanceMeters>
          </Trackpoint>
          <Trackpoint>
            <Time>2018-09-14T09:25:58.000Z</Time>
            <Position>
              <LatitudeDegrees>38.23505220003426074981689453125</LatitudeDegrees>
              <LongitudeDegrees>-8.20738029666244983673095703125</LongitudeDegrees>
            </Position>
            <AltitudeMeters>81</AltitudeMeters>
            <DistanceMeters>224630.02643561</DistanceMeters>
          </Trackpoint>
          <Trackpoint>
            <Time>2018-09-14T09:25:59.000Z</Time>
            <Position>
              <LatitudeDegrees>38.23497877456247806549072265625</LatitudeDegrees>
              <LongitudeDegrees>-8.20736772380769252777099609375</LongitudeDegrees>
            </Position>
            <AltitudeMeters>80.8000030517578125</AltitudeMeters>
            <DistanceMeters>224638.27243316</DistanceMeters>
          </Trackpoint>
          <Trackpoint>
            <Time>2018-09-14T09:26:03.000Z</Time>
            <Position>
              <LatitudeDegrees>38.234667889773845672607421875</LatitudeDegrees>
              <LongitudeDegrees>-8.20732916705310344696044921875</LongitudeDegrees>
            </Position>
            <AltitudeMeters>79.8000030517578125</AltitudeMeters>
            <DistanceMeters>224673.03831733</DistanceMeters>
          </Trackpoint>
          <Trackpoint>
            <Time>2018-09-14T09:26:04.000Z</Time>
            <Position>
              <LatitudeDegrees>38.2345872558653354644775390625</LatitudeDegrees>
              <LongitudeDegrees>-8.2073230482637882232666015625</LongitudeDegrees>
            </Position>
            <AltitudeMeters>79.40000152587890625</AltitudeMeters>
            <DistanceMeters>224682.0292708</DistanceMeters>
          </Trackpoint>
          <Trackpoint>
            <Time>2018-09-14T09:26:07.000Z</Time>
            <Position>
              <LatitudeDegrees>38.23434174992144107818603515625</LatitudeDegrees>
              <LongitudeDegrees>-8.20729446597397327423095703125</LongitudeDegrees>
            </Position>
            <AltitudeMeters>79.1999969482421875</AltitudeMeters>
            <DistanceMeters>224709.4688002</DistanceMeters>
          </Trackpoint>
          <Trackpoint>
            <Time>2018-09-14T09:26:08.000Z</Time>
            <Position>
              <LatitudeDegrees>38.2342580147087574005126953125</LatitudeDegrees>
              <LongitudeDegrees>-8.20728675462305545806884765625</LongitudeDegrees>
            </Position>
            <AltitudeMeters>79.1999969482421875</AltitudeMeters>
            <DistanceMeters>224718.81287903</DistanceMeters>
          </Trackpoint>
          <Trackpoint>
            <Time>2018-09-14T09:26:10.000Z</Time>
            <Position>
              <LatitudeDegrees>38.23408777825534343719482421875</LatitudeDegrees>
              <LongitudeDegrees>-8.20726923644542694091796875</LongitudeDegrees>
            </Position>
            <AltitudeMeters>79.40000152587890625</AltitudeMeters>
            <DistanceMeters>224737.82249763</DistanceMeters>
          </Trackpoint>
          <Trackpoint>
            <Time>2018-09-14T09:26:13.000Z</Time>
            <Position>
              <LatitudeDegrees>38.23383699171245098114013671875</LatitudeDegrees>
              <LongitudeDegrees>-8.20724702440202236175537109375</LongitudeDegrees>
            </Position>
            <AltitudeMeters>79.8000030517578125</AltitudeMeters>
            <DistanceMeters>224765.80298418</DistanceMeters>
          </Trackpoint>
          <Trackpoint>
            <Time>2018-09-14T09:26:15.000Z</Time>
            <Position>
              <LatitudeDegrees>38.23368008248507976531982421875</LatitudeDegrees>
              <LongitudeDegrees>-8.20723704993724822998046875</LongitudeDegrees>
            </Position>
            <AltitudeMeters>80</AltitudeMeters>
            <DistanceMeters>224783.28867428</DistanceMeters>
          </Trackpoint>
          <Trackpoint>
            <Time>2018-09-14T09:26:19.000Z</Time>
            <Position>
              <LatitudeDegrees>38.23338034562766551971435546875</LatitudeDegrees>
              <LongitudeDegrees>-8.20720360614359378814697265625</LongitudeDegrees>
            </Position>
            <AltitudeMeters>80</AltitudeMeters>
            <DistanceMeters>224816.77773868</DistanceMeters>
          </Trackpoint>
          <Trackpoint>
            <Time>2018-09-14T09:26:27.000Z</Time>
            <Position>
              <LatitudeDegrees>38.23282445780932903289794921875</LatitudeDegrees>
              <LongitudeDegrees>-8.207134790718555450439453125</LongitudeDegrees>
            </Position>
            <AltitudeMeters>76.59999847412109375</AltitudeMeters>
            <DistanceMeters>224878.94097301</DistanceMeters>
          </Trackpoint>
          <Trackpoint>
            <Time>2018-09-14T09:26:34.000Z</Time>
            <Position>
              <LatitudeDegrees>38.23227636516094207763671875</LatitudeDegrees>
              <LongitudeDegrees>-8.2070528157055377960205078125</LongitudeDegrees>
            </Position>
            <AltitudeMeters>74.40000152587890625</AltitudeMeters>
            <DistanceMeters>224940.36425947</DistanceMeters>
          </Trackpoint>
          <Trackpoint>
            <Time>2018-09-14T09:26:35.000Z</Time>
            <Position>
              <LatitudeDegrees>38.23220126330852508544921875</LatitudeDegrees>
              <LongitudeDegrees>-8.20703395642340183258056640625</LongitudeDegrees>
            </Position>
            <AltitudeMeters>74.1999969482421875</AltitudeMeters>
            <DistanceMeters>224948.8843994</DistanceMeters>
          </Trackpoint>
          <Trackpoint>
            <Time>2018-09-14T09:26:36.000Z</Time>
            <Position>
              <LatitudeDegrees>38.23212859220802783966064453125</LatitudeDegrees>
              <LongitudeDegrees>-8.20700612850487232208251953125</LongitudeDegrees>
            </Position>
            <AltitudeMeters>74</AltitudeMeters>
            <DistanceMeters>224957.33055852</DistanceMeters>
          </Trackpoint>
          <Trackpoint>
            <Time>2018-09-14T09:26:40.000Z</Time>
            <Position>
              <LatitudeDegrees>38.23185802437365055084228515625</LatitudeDegrees>
              <LongitudeDegrees>-8.20681267417967319488525390625</LongitudeDegrees>
            </Position>
            <AltitudeMeters>73.1999969482421875</AltitudeMeters>
            <DistanceMeters>224991.86973004</DistanceMeters>
          </Trackpoint>
          <Trackpoint>
            <Time>2018-09-14T09:26:42.000Z</Time>
            <Position>
              <LatitudeDegrees>38.23173983953893184661865234375</LatitudeDegrees>
              <LongitudeDegrees>-8.20668040774762630462646484375</LongitudeDegrees>
            </Position>
            <AltitudeMeters>72.8000030517578125</AltitudeMeters>
            <DistanceMeters>225009.38405837</DistanceMeters>
          </Trackpoint>
          <Trackpoint>
            <Time>2018-09-14T09:26:47.000Z</Time>
            <Position>
              <LatitudeDegrees>38.23147237300872802734375</LatitudeDegrees>
              <LongitudeDegrees>-8.20634144358336925506591796875</LongitudeDegrees>
            </Position>
            <AltitudeMeters>72.1999969482421875</AltitudeMeters>
            <DistanceMeters>225051.38984329</DistanceMeters>
          </Trackpoint>
          <Trackpoint>
            <Time>2018-09-14T09:26:55.000Z</Time>
            <Position>
              <LatitudeDegrees>38.23108722455799579620361328125</LatitudeDegrees>
              <LongitudeDegrees>-8.20584892295300960540771484375</LongitudeDegrees>
            </Position>
            <AltitudeMeters>72.8000030517578125</AltitudeMeters>
            <DistanceMeters>225112.15086372</DistanceMeters>
          </Trackpoint>
          <Trackpoint>
            <Time>2018-09-14T09:26:59.000Z</Time>
            <Position>
              <LatitudeDegrees>38.23090114630758762359619140625</LatitudeDegrees>
              <LongitudeDegrees>-8.20560090243816375732421875</LongitudeDegrees>
            </Position>
            <AltitudeMeters>72.8000030517578125</AltitudeMeters>
            <DistanceMeters>225142.13687433</DistanceMeters>
          </Trackpoint>
          <Trackpoint>
            <Time>2018-09-14T09:27:05.000Z</Time>
            <Position>
              <LatitudeDegrees>38.230598308145999908447265625</LatitudeDegrees>
              <LongitudeDegrees>-8.205228745937347412109375</LongitudeDegrees>
            </Position>
            <AltitudeMeters>73.8000030517578125</AltitudeMeters>
            <DistanceMeters>225188.98591189</DistanceMeters>
          </Trackpoint>
          <Trackpoint>
            <Time>2018-09-14T09:27:13.000Z</Time>
            <Position>
              <LatitudeDegrees>38.23021215386688709259033203125</LatitudeDegrees>
              <LongitudeDegrees>-8.20474703796207904815673828125</LongitudeDegrees>
            </Position>
            <AltitudeMeters>76</AltitudeMeters>
            <DistanceMeters>225249.16086127</DistanceMeters>
          </Trackpoint>
          <Trackpoint>
            <Time>2018-09-14T09:27:19.000Z</Time>
            <Position>
              <LatitudeDegrees>38.229957930743694305419921875</LatitudeDegrees>
              <LongitudeDegrees>-8.204413689672946929931640625</LongitudeDegrees>
            </Position>
            <AltitudeMeters>77.8000030517578125</AltitudeMeters>
            <DistanceMeters>225289.78197523</DistanceMeters>
          </Trackpoint>
          <Trackpoint>
            <Time>2018-09-14T09:27:23.000Z</Time>
            <Position>
              <LatitudeDegrees>38.22981418110430240631103515625</LatitudeDegrees>
              <LongitudeDegrees>-8.2042261026799678802490234375</LongitudeDegrees>
            </Position>
            <AltitudeMeters>79.1999969482421875</AltitudeMeters>
            <DistanceMeters>225312.69464823</DistanceMeters>
          </Trackpoint>
          <Trackpoint>
            <Time>2018-09-14T09:27:26.000Z</Time>
            <Position>
              <LatitudeDegrees>38.22970974259078502655029296875</LatitudeDegrees>
              <LongitudeDegrees>-8.20409660227596759796142578125</LongitudeDegrees>
            </Position>
            <AltitudeMeters>80.1999969482421875</AltitudeMeters>
            <DistanceMeters>225328.92169445</DistanceMeters>
          </Trackpoint>
          <Trackpoint>
            <Time>2018-09-14T09:27:29.000Z</Time>
            <Position>
              <LatitudeDegrees>38.2296067290008068084716796875</LatitudeDegrees>
              <LongitudeDegrees>-8.20396735332906246185302734375</LongitudeDegrees>
            </Position>
            <AltitudeMeters>81</AltitudeMeters>
            <DistanceMeters>225345.02052124</DistanceMeters>
          </Trackpoint>
          <Trackpoint>
            <Time>2018-09-14T09:27:32.000Z</Time>
            <Position>
              <LatitudeDegrees>38.22950673289597034454345703125</LatitudeDegrees>
              <LongitudeDegrees>-8.2038412056863307952880859375</LongitudeDegrees>
            </Position>
            <AltitudeMeters>82.1999969482421875</AltitudeMeters>
            <DistanceMeters>225360.68955914</DistanceMeters>
          </Trackpoint>
          <Trackpoint>
            <Time>2018-09-14T09:27:36.000Z</Time>
            <Position>
              <LatitudeDegrees>38.2293747179210186004638671875</LatitudeDegrees>
              <LongitudeDegrees>-8.203678093850612640380859375</LongitudeDegrees>
            </Position>
            <AltitudeMeters>83.8000030517578125</AltitudeMeters>
            <DistanceMeters>225381.16599704</DistanceMeters>
          </Trackpoint>
          <Trackpoint>
            <Time>2018-09-14T09:27:40.000Z</Time>
            <Position>
              <LatitudeDegrees>38.2292499952018260955810546875</LatitudeDegrees>
              <LongitudeDegrees>-8.20351573638617992401123046875</LongitudeDegrees>
            </Position>
            <AltitudeMeters>85.1999969482421875</AltitudeMeters>
            <DistanceMeters>225401.02089612</DistanceMeters>
          </Trackpoint>
          <Trackpoint>
            <Time>2018-09-14T09:27:44.000Z</Time>
            <Position>
              <LatitudeDegrees>38.2291336543858051300048828125</LatitudeDegrees>
              <LongitudeDegrees>-8.2033664546906948089599609375</LongitudeDegrees>
            </Position>
            <AltitudeMeters>85.59999847412109375</AltitudeMeters>
            <DistanceMeters>225419.40653947</DistanceMeters>
          </Trackpoint>
          <Trackpoint>
            <Time>2018-09-14T09:27:48.000Z</Time>
            <Position>
              <LatitudeDegrees>38.22902024723589420318603515625</LatitudeDegrees>
              <LongitudeDegrees>-8.2032209448516368865966796875</LongitudeDegrees>
            </Position>
            <AltitudeMeters>86</AltitudeMeters>
            <DistanceMeters>225437.32808402</DistanceMeters>
          </Trackpoint>
          <Trackpoint>
            <Time>2018-09-14T09:27:52.000Z</Time>
            <Position>
              <LatitudeDegrees>38.2289056666195392608642578125</LatitudeDegrees>
              <LongitudeDegrees>-8.20307786576449871063232421875</LongitudeDegrees>
            </Position>
            <AltitudeMeters>86.40000152587890625</AltitudeMeters>
            <DistanceMeters>225455.19260085</DistanceMeters>
          </Trackpoint>
          <Trackpoint>
            <Time>2018-09-14T09:27:57.000Z</Time>
            <Position>
              <LatitudeDegrees>38.22876694612205028533935546875</LatitudeDegrees>
              <LongitudeDegrees>-8.202893547713756561279296875</LongitudeDegrees>
            </Position>
            <AltitudeMeters>87.1999969482421875</AltitudeMeters>
            <DistanceMeters>225477.51073287</DistanceMeters>
          </Trackpoint>
          <Trackpoint>
            <Time>2018-09-14T09:28:01.000Z</Time>
            <Position>
              <LatitudeDegrees>38.22865228168666362762451171875</LatitudeDegrees>
              <LongitudeDegrees>-8.20275063626468181610107421875</LongitudeDegrees>
            </Position>
            <AltitudeMeters>87.8000030517578125</AltitudeMeters>
            <DistanceMeters>225495.37145823</DistanceMeters>
          </Trackpoint>
          <Trackpoint>
            <Time>2018-09-14T09:28:04.000Z</Time>
            <Position>
              <LatitudeDegrees>38.2285623438656330108642578125</LatitudeDegrees>
              <LongitudeDegrees>-8.20264418609440326690673828125</LongitudeDegrees>
            </Position>
            <AltitudeMeters>88.40000152587890625</AltitudeMeters>
            <DistanceMeters>225509.03978847</DistanceMeters>
          </Trackpoint>
          <Trackpoint>
            <Time>2018-09-14T09:28:11.000Z</Time>
            <Position>
              <LatitudeDegrees>38.228341229259967803955078125</LatitudeDegrees>
              <LongitudeDegrees>-8.20236842148005962371826171875</LongitudeDegrees>
            </Position>
            <AltitudeMeters>89.40000152587890625</AltitudeMeters>
            <DistanceMeters>225543.49283738</DistanceMeters>
          </Trackpoint>
          <Trackpoint>
            <Time>2018-09-14T09:28:20.000Z</Time>
            <Position>
              <LatitudeDegrees>38.2280047796666622161865234375</LatitudeDegrees>
              <LongitudeDegrees>-8.20195955224335193634033203125</LongitudeDegrees>
            </Position>
            <AltitudeMeters>90.59999847412109375</AltitudeMeters>
            <DistanceMeters>225595.26452163</DistanceMeters>
          </Trackpoint>
          <Trackpoint>
            <Time>2018-09-14T09:28:27.000Z</Time>
            <Position>
              <LatitudeDegrees>38.22770998813211917877197265625</LatitudeDegrees>
              <LongitudeDegrees>-8.2016018964350223541259765625</LongitudeDegrees>
            </Position>
            <AltitudeMeters>91.59999847412109375</AltitudeMeters>
            <DistanceMeters>225640.590571</DistanceMeters>
          </Trackpoint>
          <Trackpoint>
            <Time>2018-09-14T09:28:36.000Z</Time>
            <Position>
              <LatitudeDegrees>38.22731872089207172393798828125</LatitudeDegrees>
              <LongitudeDegrees>-8.2011155784130096435546875</LongitudeDegrees>
            </Position>
            <AltitudeMeters>93.1999969482421875</AltitudeMeters>
            <DistanceMeters>225701.45545974</DistanceMeters>
          </Trackpoint>
          <Trackpoint>
            <Time>2018-09-14T09:28:45.000Z</Time>
            <Position>
              <LatitudeDegrees>38.22694958187639713287353515625</LatitudeDegrees>
              <LongitudeDegrees>-8.2006580941379070281982421875</LongitudeDegrees>
            </Position>
            <AltitudeMeters>94</AltitudeMeters>
            <DistanceMeters>225758.79713354</DistanceMeters>
          </Trackpoint>
          <Trackpoint>
            <Time>2018-09-14T09:28:50.000Z</Time>
            <Position>
              <LatitudeDegrees>38.22675998322665691375732421875</LatitudeDegrees>
              <LongitudeDegrees>-8.20043002255260944366455078125</LongitudeDegrees>
            </Position>
            <AltitudeMeters>93.8000030517578125</AltitudeMeters>
            <DistanceMeters>225787.8313328</DistanceMeters>
          </Trackpoint>
          <Trackpoint>
            <Time>2018-09-14T09:28:57.000Z</Time>
            <Position>
              <LatitudeDegrees>38.22645203210413455963134765625</LatitudeDegrees>
              <LongitudeDegrees>-8.20003397762775421142578125</LongitudeDegrees>
            </Position>
            <AltitudeMeters>93.1999969482421875</AltitudeMeters>
            <DistanceMeters>225836.55437515</DistanceMeters>
          </Trackpoint>
          <Trackpoint>
            <Time>2018-09-14T09:29:02.000Z</Time>
            <Position>
              <LatitudeDegrees>38.2261843979358673095703125</LatitudeDegrees>
              <LongitudeDegrees>-8.1996779143810272216796875</LongitudeDegrees>
            </Position>
            <AltitudeMeters>93</AltitudeMeters>
            <DistanceMeters>225879.64246767</DistanceMeters>
          </Trackpoint>
          <Trackpoint>
            <Time>2018-09-14T09:29:08.000Z</Time>
            <Position>
              <LatitudeDegrees>38.22585222311317920684814453125</LatitudeDegrees>
              <LongitudeDegrees>-8.19927097298204898834228515625</LongitudeDegrees>
            </Position>
            <AltitudeMeters>93</AltitudeMeters>
            <DistanceMeters>225930.9546057</DistanceMeters>
          </Trackpoint>
          <Trackpoint>
            <Time>2018-09-14T09:29:11.000Z</Time>
            <Position>
              <LatitudeDegrees>38.2256917096674442291259765625</LatitudeDegrees>
              <LongitudeDegrees>-8.1990878283977508544921875</LongitudeDegrees>
            </Position>
            <AltitudeMeters>92.1999969482421875</AltitudeMeters>
            <DistanceMeters>225954.94616948</DistanceMeters>
          </Trackpoint>
          <Trackpoint>
            <Time>2018-09-14T09:29:15.000Z</Time>
            <Position>
              <LatitudeDegrees>38.2254761271178722381591796875</LatitudeDegrees>
              <LongitudeDegrees>-8.19880544207990169525146484375</LongitudeDegrees>
            </Position>
            <AltitudeMeters>91.8000030517578125</AltitudeMeters>
            <DistanceMeters>225989.37549034</DistanceMeters>
          </Trackpoint>
          <Trackpoint>
            <Time>2018-09-14T09:29:23.000Z</Time>
            <Position>
              <LatitudeDegrees>38.2250593788921833038330078125</LatitudeDegrees>
              <LongitudeDegrees>-8.19825835525989532470703125</LongitudeDegrees>
            </Position>
            <AltitudeMeters>92.8000030517578125</AltitudeMeters>
            <DistanceMeters>226056.00744728</DistanceMeters>
          </Trackpoint>
          <Trackpoint>
            <Time>2018-09-14T09:29:27.000Z</Time>
            <Position>
              <LatitudeDegrees>38.2248733006417751312255859375</LatitudeDegrees>
              <LongitudeDegrees>-8.1980047188699245452880859375</LongitudeDegrees>
            </Position>
            <AltitudeMeters>92.8000030517578125</AltitudeMeters>
            <DistanceMeters>226086.35163626</DistanceMeters>
          </Trackpoint>
          <Trackpoint>
            <Time>2018-09-14T09:29:30.000Z</Time>
            <Position>
              <LatitudeDegrees>38.2247365079820156097412109375</LatitudeDegrees>
              <LongitudeDegrees>-8.19783397950232028961181640625</LongitudeDegrees>
            </Position>
            <AltitudeMeters>92.8000030517578125</AltitudeMeters>
            <DistanceMeters>226107.67513126</DistanceMeters>
          </Trackpoint>
          <Trackpoint>
            <Time>2018-09-14T09:29:32.000Z</Time>
            <Position>
              <LatitudeDegrees>38.2246466539800167083740234375</LatitudeDegrees>
              <LongitudeDegrees>-8.197718895971775054931640625</LongitudeDegrees>
            </Position>
            <AltitudeMeters>92.59999847412109375</AltitudeMeters>
            <DistanceMeters>226121.86182727</DistanceMeters>
          </Trackpoint>
          <Trackpoint>
            <Time>2018-09-14T09:29:35.000Z</Time>
            <Position>
              <LatitudeDegrees>38.22450005449354648590087890625</LatitudeDegrees>
              <LongitudeDegrees>-8.197535835206508636474609375</LongitudeDegrees>
            </Position>
            <AltitudeMeters>93</AltitudeMeters>
            <DistanceMeters>226144.71866592</DistanceMeters>
          </Trackpoint>
          <Trackpoint>
            <Time>2018-09-14T09:29:37.000Z</Time>
            <Position>
              <LatitudeDegrees>38.22439645417034626007080078125</LatitudeDegrees>
              <LongitudeDegrees>-8.197417147457599639892578125</LongitudeDegrees>
            </Position>
            <AltitudeMeters>93</AltitudeMeters>
            <DistanceMeters>226160.23190437</DistanceMeters>
          </Trackpoint>
          <Trackpoint>
            <Time>2018-09-14T09:29:42.000Z</Time>
            <Position>
              <LatitudeDegrees>38.22412823326885700225830078125</LatitudeDegrees>
              <LongitudeDegrees>-8.19709922187030315399169921875</LongitudeDegrees>
            </Position>
            <AltitudeMeters>92.8000030517578125</AltitudeMeters>
            <DistanceMeters>226201.02405161</DistanceMeters>
          </Trackpoint>
          <Trackpoint>
            <Time>2018-09-14T09:29:45.000Z</Time>
            <Position>
              <LatitudeDegrees>38.22396713308990001678466796875</LatitudeDegrees>
              <LongitudeDegrees>-8.1969152390956878662109375</LongitudeDegrees>
            </Position>
            <AltitudeMeters>92.8000030517578125</AltitudeMeters>
            <DistanceMeters>226225.1136517</DistanceMeters>
          </Trackpoint>
          <Trackpoint>
            <Time>2018-09-14T09:29:52.000Z</Time>
            <Position>
              <LatitudeDegrees>38.2235573418438434600830078125</LatitudeDegrees>
              <LongitudeDegrees>-8.1964533962309360504150390625</LongitudeDegrees>
            </Position>
            <AltitudeMeters>92</AltitudeMeters>
            <DistanceMeters>226286.03252051</DistanceMeters>
          </Trackpoint>
          <Trackpoint>
            <Time>2018-09-14T09:29:54.000Z</Time>
            <Position>
              <LatitudeDegrees>38.22343572042882442474365234375</LatitudeDegrees>
              <LongitudeDegrees>-8.1963115744292736053466796875</LongitudeDegrees>
            </Position>
            <AltitudeMeters>91.40000152587890625</AltitudeMeters>
            <DistanceMeters>226304.39063896</DistanceMeters>
          </Trackpoint>
          <Trackpoint>
            <Time>2018-09-14T09:29:57.000Z</Time>
            <Position>
              <LatitudeDegrees>38.2232589460909366607666015625</LatitudeDegrees>
              <LongitudeDegrees>-8.1960986740887165069580078125</LongitudeDegrees>
            </Position>
            <AltitudeMeters>91</AltitudeMeters>
            <DistanceMeters>226331.47675331</DistanceMeters>
          </Trackpoint>
          <Trackpoint>
            <Time>2018-09-14T09:29:59.000Z</Time>
            <Position>
              <LatitudeDegrees>38.22314084507524967193603515625</LatitudeDegrees>
              <LongitudeDegrees>-8.19596464745700359344482421875</LongitudeDegrees>
            </Position>
            <AltitudeMeters>91.59999847412109375</AltitudeMeters>
            <DistanceMeters>226349.08723159</DistanceMeters>
          </Trackpoint>
          <Trackpoint>
            <Time>2018-09-14T09:30:06.000Z</Time>
            <Position>
              <LatitudeDegrees>38.22273306548595428466796875</LatitudeDegrees>
              <LongitudeDegrees>-8.19550632499158382415771484375</LongitudeDegrees>
            </Position>
            <AltitudeMeters>92.8000030517578125</AltitudeMeters>
            <DistanceMeters>226409.6348358</DistanceMeters>
          </Trackpoint>
          <Trackpoint>
            <Time>2018-09-14T09:30:14.000Z</Time>
            <Position>
              <LatitudeDegrees>38.22228237055242061614990234375</LatitudeDegrees>
              <LongitudeDegrees>-8.1950150616466999053955078125</LongitudeDegrees>
            </Position>
            <AltitudeMeters>93</AltitudeMeters>
            <DistanceMeters>226475.67724008</DistanceMeters>
          </Trackpoint>
          <Trackpoint>
            <Time>2018-09-14T09:30:22.000Z</Time>
            <Position>
              <LatitudeDegrees>38.22186000645160675048828125</LatitudeDegrees>
              <LongitudeDegrees>-8.19452212192118167877197265625</LongitudeDegrees>
            </Position>
            <AltitudeMeters>94</AltitudeMeters>
            <DistanceMeters>226539.45659117</DistanceMeters>
          </Trackpoint>
          <Trackpoint>
            <Time>2018-09-14T09:30:30.000Z</Time>
            <Position>
              <LatitudeDegrees>38.22140914388000965118408203125</LatitudeDegrees>
              <LongitudeDegrees>-8.19400562904775142669677734375</LongitudeDegrees>
            </Position>
            <AltitudeMeters>93.40000152587890625</AltitudeMeters>
            <DistanceMeters>226606.96884187</DistanceMeters>
          </Trackpoint>
          <Trackpoint>
            <Time>2018-09-14T09:30:38.000Z</Time>
            <Position>
              <LatitudeDegrees>38.22098501957952976226806640625</LatitudeDegrees>
              <LongitudeDegrees>-8.19354646839201450347900390625</LongitudeDegrees>
            </Position>
            <AltitudeMeters>95.59999847412109375</AltitudeMeters>
            <DistanceMeters>226668.9399583</DistanceMeters>
          </Trackpoint>
          <Trackpoint>
            <Time>2018-09-14T09:30:47.000Z</Time>
            <Position>
              <LatitudeDegrees>38.22052133269608020782470703125</LatitudeDegrees>
              <LongitudeDegrees>-8.1930582225322723388671875</LongitudeDegrees>
            </Position>
            <AltitudeMeters>95.59999847412109375</AltitudeMeters>
            <DistanceMeters>226735.91943529</DistanceMeters>
          </Trackpoint>
          <Trackpoint>
            <Time>2018-09-14T09:30:54.000Z</Time>
            <Position>
              <LatitudeDegrees>38.2201754115521907806396484375</LatitudeDegrees>
              <LongitudeDegrees>-8.19264256395399570465087890625</LongitudeDegrees>
            </Position>
            <AltitudeMeters>97.59999847412109375</AltitudeMeters>
            <DistanceMeters>226788.86705509</DistanceMeters>
          </Trackpoint>
          <Trackpoint>
            <Time>2018-09-14T09:30:59.000Z</Time>
            <Position>
              <LatitudeDegrees>38.21992873214185237884521484375</LatitudeDegrees>
              <LongitudeDegrees>-8.19234735332429409027099609375</LongitudeDegrees>
            </Position>
            <AltitudeMeters>98.40000152587890625</AltitudeMeters>
            <DistanceMeters>226826.55278585</DistanceMeters>
          </Trackpoint>
          <Trackpoint>
            <Time>2018-09-14T09:31:04.000Z</Time>
            <Position>
              <LatitudeDegrees>38.21968071162700653076171875</LatitudeDegrees>
              <LongitudeDegrees>-8.1920522265136241912841796875</LongitudeDegrees>
            </Position>
            <AltitudeMeters>99.40000152587890625</AltitudeMeters>
            <DistanceMeters>226864.34212759</DistanceMeters>
          </Trackpoint>
          <Trackpoint>
            <Time>2018-09-14T09:31:08.000Z</Time>
            <Position>
              <LatitudeDegrees>38.219483233988285064697265625</LatitudeDegrees>
              <LongitudeDegrees>-8.1918185390532016754150390625</LongitudeDegrees>
            </Position>
            <AltitudeMeters>100.8000030517578125</AltitudeMeters>
            <DistanceMeters>226894.35342354</DistanceMeters>
          </Trackpoint>
          <Trackpoint>
            <Time>2018-09-14T09:31:10.000Z</Time>
            <Position>
              <LatitudeDegrees>38.2193848304450511932373046875</LatitudeDegrees>
              <LongitudeDegrees>-8.19170303642749786376953125</LongitudeDegrees>
            </Position>
            <AltitudeMeters>101.59999847412109375</AltitudeMeters>
            <DistanceMeters>226909.2523275</DistanceMeters>
          </Trackpoint>
          <Trackpoint>
            <Time>2018-09-14T09:31:13.000Z</Time>
            <Position>
              <LatitudeDegrees>38.2192383147776126861572265625</LatitudeDegrees>
              <LongitudeDegrees>-8.1915345601737499237060546875</LongitudeDegrees>
            </Position>
            <AltitudeMeters>101</AltitudeMeters>
            <DistanceMeters>226931.22919417</DistanceMeters>
          </Trackpoint>
          <Trackpoint>
            <Time>2018-09-14T09:31:18.000Z</Time>
            <Position>
              <LatitudeDegrees>38.21897990070283412933349609375</LatitudeDegrees>
              <LongitudeDegrees>-8.19127161987125873565673828125</LongitudeDegrees>
            </Position>
            <AltitudeMeters>99.8000030517578125</AltitudeMeters>
            <DistanceMeters>226968.05201533</DistanceMeters>
          </Trackpoint>
          <Trackpoint>
            <Time>2018-09-14T09:31:26.000Z</Time>
            <Position>
              <LatitudeDegrees>38.21850632317364215850830078125</LatitudeDegrees>
              <LongitudeDegrees>-8.1908928416669368743896484375</LongitudeDegrees>
            </Position>
            <AltitudeMeters>99</AltitudeMeters>
            <DistanceMeters>227030.30503058</DistanceMeters>
          </Trackpoint>
          <Trackpoint>
            <Time>2018-09-14T09:31:33.000Z</Time>
            <Position>
              <LatitudeDegrees>38.21805722080171108245849609375</LatitudeDegrees>
              <LongitudeDegrees>-8.1905361078679561614990234375</LongitudeDegrees>
            </Position>
            <AltitudeMeters>99</AltitudeMeters>
            <DistanceMeters>227089.22619138</DistanceMeters>
          </Trackpoint>
          <Trackpoint>
            <Time>2018-09-14T09:31:39.000Z</Time>
            <Position>
              <LatitudeDegrees>38.21763041429221630096435546875</LatitudeDegrees>
              <LongitudeDegrees>-8.1902325153350830078125</LongitudeDegrees>
            </Position>
            <AltitudeMeters>97.40000152587890625</AltitudeMeters>
            <DistanceMeters>227143.64547767</DistanceMeters>
          </Trackpoint>
          <Trackpoint>
            <Time>2018-09-14T09:31:43.000Z</Time>
            <Position>
              <LatitudeDegrees>38.21735163219273090362548828125</LatitudeDegrees>
              <LongitudeDegrees>-8.19001995027065277099609375</LongitudeDegrees>
            </Position>
            <AltitudeMeters>97.1999969482421875</AltitudeMeters>
            <DistanceMeters>227179.81609552</DistanceMeters>
          </Trackpoint>
          <Trackpoint>
            <Time>2018-09-14T09:31:46.000Z</Time>
            <Position>
              <LatitudeDegrees>38.2171332836151123046875</LatitudeDegrees>
              <LongitudeDegrees>-8.18985424004495143890380859375</LongitudeDegrees>
            </Position>
            <AltitudeMeters>97.40000152587890625</AltitudeMeters>
            <DistanceMeters>227208.11108761</DistanceMeters>
          </Trackpoint>
          <Trackpoint>
            <Time>2018-09-14T09:31:50.000Z</Time>
            <Position>
              <LatitudeDegrees>38.21684218011796474456787109375</LatitudeDegrees>
              <LongitudeDegrees>-8.1896419264376163482666015625</LongitudeDegrees>
            </Position>
            <AltitudeMeters>97</AltitudeMeters>
            <DistanceMeters>227245.45404739</DistanceMeters>
          </Trackpoint>
          <Trackpoint>
            <Time>2018-09-14T09:31:53.000Z</Time>
            <Position>
              <LatitudeDegrees>38.21661754511296749114990234375</LatitudeDegrees>
              <LongitudeDegrees>-8.1894747912883758544921875</LongitudeDegrees>
            </Position>
            <AltitudeMeters>96.8000030517578125</AltitudeMeters>
            <DistanceMeters>227274.41490995</DistanceMeters>
          </Trackpoint>
          <Trackpoint>
            <Time>2018-09-14T09:31:56.000Z</Time>
            <Position>
              <LatitudeDegrees>38.21639492176473140716552734375</LatitudeDegrees>
              <LongitudeDegrees>-8.1893016211688518524169921875</LongitudeDegrees>
            </Position>
            <AltitudeMeters>96</AltitudeMeters>
            <DistanceMeters>227303.45455146</DistanceMeters>
          </Trackpoint>
          <Trackpoint>
            <Time>2018-09-14T09:32:01.000Z</Time>
            <Position>
              <LatitudeDegrees>38.21600784547626972198486328125</LatitudeDegrees>
              <LongitudeDegrees>-8.189021162688732147216796875</LongitudeDegrees>
            </Position>
            <AltitudeMeters>95.1999969482421875</AltitudeMeters>
            <DistanceMeters>227353.02863223</DistanceMeters>
          </Trackpoint>
          <Trackpoint>
            <Time>2018-09-14T09:32:08.000Z</Time>
            <Position>
              <LatitudeDegrees>38.21548447944223880767822265625</LatitudeDegrees>
              <LongitudeDegrees>-8.18863064981997013092041015625</LongitudeDegrees>
            </Position>
            <AltitudeMeters>94</AltitudeMeters>
            <DistanceMeters>227420.55245172</DistanceMeters>
          </Trackpoint>
          <Trackpoint>
            <Time>2018-09-14T09:32:11.000Z</Time>
            <Position>
              <LatitudeDegrees>38.21527459658682346343994140625</LatitudeDegrees>
              <LongitudeDegrees>-8.1884687952697277069091796875</LongitudeDegrees>
            </Position>
            <AltitudeMeters>93.40000152587890625</AltitudeMeters>
            <DistanceMeters>227447.86631003</DistanceMeters>
          </Trackpoint>
          <Trackpoint>
            <Time>2018-09-14T09:32:18.000Z</Time>
            <Position>
              <LatitudeDegrees>38.21479012258350849151611328125</LatitudeDegrees>
              <LongitudeDegrees>-8.1881095468997955322265625</LongitudeDegrees>
            </Position>
            <AltitudeMeters>91.40000152587890625</AltitudeMeters>
            <DistanceMeters>227510.27347236</DistanceMeters>
          </Trackpoint>
          <Trackpoint>
            <Time>2018-09-14T09:32:25.000Z</Time>
            <Position>
              <LatitudeDegrees>38.2142973504960536956787109375</LatitudeDegrees>
              <LongitudeDegrees>-8.18775122053921222686767578125</LongitudeDegrees>
            </Position>
            <AltitudeMeters>90.59999847412109375</AltitudeMeters>
            <DistanceMeters>227573.44043918</DistanceMeters>
          </Trackpoint>
          <Trackpoint>
            <Time>2018-09-14T09:32:29.000Z</Time>
            <Position>
              <LatitudeDegrees>38.21400976739823818206787109375</LatitudeDegrees>
              <LongitudeDegrees>-8.187538571655750274658203125</LongitudeDegrees>
            </Position>
            <AltitudeMeters>90.1999969482421875</AltitudeMeters>
            <DistanceMeters>227610.45892485</DistanceMeters>
          </Trackpoint>
          <Trackpoint>
            <Time>2018-09-14T09:32:32.000Z</Time>
            <Position>
              <LatitudeDegrees>38.2137910835444927215576171875</LatitudeDegrees>
              <LongitudeDegrees>-8.187370933592319488525390625</LongitudeDegrees>
            </Position>
            <AltitudeMeters>89.8000030517578125</AltitudeMeters>
            <DistanceMeters>227638.87270697</DistanceMeters>
          </Trackpoint>
          <Trackpoint>
            <Time>2018-09-14T09:32:35.000Z</Time>
            <Position>
              <LatitudeDegrees>38.21357759647071361541748046875</LatitudeDegrees>
              <LongitudeDegrees>-8.18720455281436443328857421875</LongitudeDegrees>
            </Position>
            <AltitudeMeters>90.40000152587890625</AltitudeMeters>
            <DistanceMeters>227666.73531098</DistanceMeters>
          </Trackpoint>
          <Trackpoint>
            <Time>2018-09-14T09:32:37.000Z</Time>
            <Position>
              <LatitudeDegrees>38.21343979798257350921630859375</LatitudeDegrees>
              <LongitudeDegrees>-8.1871022097766399383544921875</LongitudeDegrees>
            </Position>
            <AltitudeMeters>91</AltitudeMeters>
            <DistanceMeters>227684.49310643</DistanceMeters>
          </Trackpoint>
          <Trackpoint>
            <Time>2018-09-14T09:32:41.000Z</Time>
            <Position>
              <LatitudeDegrees>38.21317275054752826690673828125</LatitudeDegrees>
              <LongitudeDegrees>-8.18690330721437931060791015625</LongitudeDegrees>
            </Position>
            <AltitudeMeters>92.59999847412109375</AltitudeMeters>
            <DistanceMeters>227718.93160582</DistanceMeters>
          </Trackpoint>
          <Trackpoint>
            <Time>2018-09-14T09:32:44.000Z</Time>
            <Position>
              <LatitudeDegrees>38.2129783742129802703857421875</LatitudeDegrees>
              <LongitudeDegrees>-8.18675578571856021881103515625</LongitudeDegrees>
            </Position>
            <AltitudeMeters>93.59999847412109375</AltitudeMeters>
            <DistanceMeters>227744.12103518</DistanceMeters>
          </Trackpoint>
          <Trackpoint>
            <Time>2018-09-14T09:32:47.000Z</Time>
            <Position>
              <LatitudeDegrees>38.2127812318503856658935546875</LatitudeDegrees>
              <LongitudeDegrees>-8.18660591728985309600830078125</LongitudeDegrees>
            </Position>
            <AltitudeMeters>93.8000030517578125</AltitudeMeters>
            <DistanceMeters>227769.67968851</DistanceMeters>
          </Trackpoint>
          <Trackpoint>
            <Time>2018-09-14T09:32:50.000Z</Time>
            <Position>
              <LatitudeDegrees>38.21257017552852630615234375</LatitudeDegrees>
              <LongitudeDegrees>-8.18645219318568706512451171875</LongitudeDegrees>
            </Position>
            <AltitudeMeters>93</AltitudeMeters>
            <DistanceMeters>227796.7454588</DistanceMeters>
          </Trackpoint>
          <Trackpoint>
            <Time>2018-09-14T09:32:52.000Z</Time>
            <Position>
              <LatitudeDegrees>38.21243044920265674591064453125</LatitudeDegrees>
              <LongitudeDegrees>-8.18634892813861370086669921875</LongitudeDegrees>
            </Position>
            <AltitudeMeters>92.1999969482421875</AltitudeMeters>
            <DistanceMeters>227814.72912327</DistanceMeters>
          </Trackpoint>
          <Trackpoint>
            <Time>2018-09-14T09:32:59.000Z</Time>
            <Position>
              <LatitudeDegrees>38.2119219191372394561767578125</LatitudeDegrees>
              <LongitudeDegrees>-8.185956738889217376708984375</LongitudeDegrees>
            </Position>
            <AltitudeMeters>90.40000152587890625</AltitudeMeters>
            <DistanceMeters>227880.91043739</DistanceMeters>
          </Trackpoint>
          <Trackpoint>
            <Time>2018-09-14T09:33:05.000Z</Time>
            <Position>
              <LatitudeDegrees>38.21142445318400859832763671875</LatitudeDegrees>
              <LongitudeDegrees>-8.18558248691260814666748046875</LongitudeDegrees>
            </Position>
            <AltitudeMeters>87.40000152587890625</AltitudeMeters>
            <DistanceMeters>227945.22955524</DistanceMeters>
          </Trackpoint>
          <Trackpoint>
            <Time>2018-09-14T09:33:06.000Z</Time>
            <Position>
              <LatitudeDegrees>38.2113425619900226593017578125</LatitudeDegrees>
              <LongitudeDegrees>-8.185517527163028717041015625</LongitudeDegrees>
            </Position>
            <AltitudeMeters>87</AltitudeMeters>
            <DistanceMeters>227955.96967612</DistanceMeters>
          </Trackpoint>
          <Trackpoint>
            <Time>2018-09-14T09:33:08.000Z</Time>
            <Position>
              <LatitudeDegrees>38.211175091564655303955078125</LatitudeDegrees>
              <LongitudeDegrees>-8.18538635037839412689208984375</LongitudeDegrees>
            </Position>
            <AltitudeMeters>86.1999969482421875</AltitudeMeters>
            <DistanceMeters>227977.85678547</DistanceMeters>
          </Trackpoint>
          <Trackpoint>
            <Time>2018-09-14T09:33:11.000Z</Time>
            <Position>
              <LatitudeDegrees>38.21092170663177967071533203125</LatitudeDegrees>
              <LongitudeDegrees>-8.18518971092998981475830078125</LongitudeDegrees>
            </Position>
            <AltitudeMeters>85.1999969482421875</AltitudeMeters>
            <DistanceMeters>228010.88865094</DistanceMeters>
          </Trackpoint>
          <Trackpoint>
            <Time>2018-09-14T09:33:12.000Z</Time>
            <Position>
              <LatitudeDegrees>38.21083554066717624664306640625</LatitudeDegrees>
              <LongitudeDegrees>-8.18512634374201297760009765625</LongitudeDegrees>
            </Position>
            <AltitudeMeters>85</AltitudeMeters>
            <DistanceMeters>228021.96486954</DistanceMeters>
          </Trackpoint>
          <Trackpoint>
            <Time>2018-09-14T09:33:14.000Z</Time>
            <Position>
              <LatitudeDegrees>38.21066387929022312164306640625</LatitudeDegrees>
              <LongitudeDegrees>-8.1849990226328372955322265625</LongitudeDegrees>
            </Position>
            <AltitudeMeters>84.8000030517578125</AltitudeMeters>
            <DistanceMeters>228044.078956</DistanceMeters>
          </Trackpoint>
          <Trackpoint>
            <Time>2018-09-14T09:33:15.000Z</Time>
            <Position>
              <LatitudeDegrees>38.21057871915400028228759765625</LatitudeDegrees>
              <LongitudeDegrees>-8.18493523634970188140869140625</LongitudeDegrees>
            </Position>
            <AltitudeMeters>84.59999847412109375</AltitudeMeters>
            <DistanceMeters>228055.07745154</DistanceMeters>
          </Trackpoint>
          <Trackpoint>
            <Time>2018-09-14T09:33:17.000Z</Time>
            <Position>
              <LatitudeDegrees>38.2104076445102691650390625</LatitudeDegrees>
              <LongitudeDegrees>-8.18481151945888996124267578125</LongitudeDegrees>
            </Position>
            <AltitudeMeters>84.1999969482421875</AltitudeMeters>
            <DistanceMeters>228076.9777593</DistanceMeters>
          </Trackpoint>
          <Trackpoint>
            <Time>2018-09-14T09:33:19.000Z</Time>
            <Position>
              <LatitudeDegrees>38.210236988961696624755859375</LatitudeDegrees>
              <LongitudeDegrees>-8.1846855394542217254638671875</LongitudeDegrees>
            </Position>
            <AltitudeMeters>83.59999847412109375</AltitudeMeters>
            <DistanceMeters>228098.93612814</DistanceMeters>
          </Trackpoint>
          <Trackpoint>
            <Time>2018-09-14T09:33:22.000Z</Time>
            <Position>
              <LatitudeDegrees>38.2099665887653827667236328125</LatitudeDegrees>
              <LongitudeDegrees>-8.18447113037109375</LongitudeDegrees>
            </Position>
            <AltitudeMeters>82.40000152587890625</AltitudeMeters>
            <DistanceMeters>228134.39573846</DistanceMeters>
          </Trackpoint>
          <Trackpoint>
            <Time>2018-09-14T09:33:23.000Z</Time>
            <Position>
              <LatitudeDegrees>38.20987782441079616546630859375</LatitudeDegrees>
              <LongitudeDegrees>-8.18440281786024570465087890625</LongitudeDegrees>
            </Position>
            <AltitudeMeters>82.1999969482421875</AltitudeMeters>
            <DistanceMeters>228145.94138649</DistanceMeters>
          </Trackpoint>
          <Trackpoint>
            <Time>2018-09-14T09:33:25.000Z</Time>
            <Position>
              <LatitudeDegrees>38.209697194397449493408203125</LatitudeDegrees>
              <LongitudeDegrees>-8.18427155725657939910888671875</LongitudeDegrees>
            </Position>
            <AltitudeMeters>82</AltitudeMeters>
            <DistanceMeters>228169.09243738</DistanceMeters>
          </Trackpoint>
          <Trackpoint>
            <Time>2018-09-14T09:33:27.000Z</Time>
            <Position>
              <LatitudeDegrees>38.2095189951360225677490234375</LatitudeDegrees>
              <LongitudeDegrees>-8.1841423921287059783935546875</LongitudeDegrees>
            </Position>
            <AltitudeMeters>81.8000030517578125</AltitudeMeters>
            <DistanceMeters>228191.91745064</DistanceMeters>
          </Trackpoint>
          <Trackpoint>
            <Time>2018-09-14T09:33:30.000Z</Time>
            <Position>
              <LatitudeDegrees>38.20926561020314693450927734375</LatitudeDegrees>
              <LongitudeDegrees>-8.1839522905647754669189453125</LongitudeDegrees>
            </Position>
            <AltitudeMeters>82.8000030517578125</AltitudeMeters>
            <DistanceMeters>228224.65549843</DistanceMeters>
          </Trackpoint>
          <Trackpoint>
            <Time>2018-09-14T09:33:31.000Z</Time>
            <Position>
              <LatitudeDegrees>38.20918313227593898773193359375</LatitudeDegrees>
              <LongitudeDegrees>-8.18389185704290866851806640625</LongitudeDegrees>
            </Position>
            <AltitudeMeters>83</AltitudeMeters>
            <DistanceMeters>228235.2478872</DistanceMeters>
          </Trackpoint>
          <Trackpoint>
            <Time>2018-09-14T09:33:35.000Z</Time>
            <Position>
              <LatitudeDegrees>38.20886780507862567901611328125</LatitudeDegrees>
              <LongitudeDegrees>-8.18366319872438907623291015625</LongitudeDegrees>
            </Position>
            <AltitudeMeters>84</AltitudeMeters>
            <DistanceMeters>228275.64173046</DistanceMeters>
          </Trackpoint>
          <Trackpoint>
            <Time>2018-09-14T09:33:39.000Z</Time>
            <Position>
              <LatitudeDegrees>38.2085829041898250579833984375</LatitudeDegrees>
              <LongitudeDegrees>-8.18346605636179447174072265625</LongitudeDegrees>
            </Position>
            <AltitudeMeters>84.8000030517578125</AltitudeMeters>
            <DistanceMeters>228311.73587387</DistanceMeters>
          </Trackpoint>
          <Trackpoint>
            <Time>2018-09-14T09:33:42.000Z</Time>
            <Position>
              <LatitudeDegrees>38.2083924673497676849365234375</LatitudeDegrees>
              <LongitudeDegrees>-8.18332171998918056488037109375</LongitudeDegrees>
            </Position>
            <AltitudeMeters>85.59999847412109375</AltitudeMeters>
            <DistanceMeters>228336.40606078</DistanceMeters>
          </Trackpoint>
          <Trackpoint>
            <Time>2018-09-14T09:33:44.000Z</Time>
            <Position>
              <LatitudeDegrees>38.208266906440258026123046875</LatitudeDegrees>
              <LongitudeDegrees>-8.1832358054816722869873046875</LongitudeDegrees>
            </Position>
            <AltitudeMeters>86</AltitudeMeters>
            <DistanceMeters>228352.27296127</DistanceMeters>
          </Trackpoint>
          <Trackpoint>
            <Time>2018-09-14T09:33:45.000Z</Time>
            <Position>
              <LatitudeDegrees>38.20820580236613750457763671875</LatitudeDegrees>
              <LongitudeDegrees>-8.1831952370703220367431640625</LongitudeDegrees>
            </Position>
            <AltitudeMeters>86.1999969482421875</AltitudeMeters>
            <DistanceMeters>228359.94368341</DistanceMeters>
          </Trackpoint>
          <Trackpoint>
            <Time>2018-09-14T09:33:48.000Z</Time>
            <Position>
              <LatitudeDegrees>38.20802978239953517913818359375</LatitudeDegrees>
              <LongitudeDegrees>-8.18307680077850818634033203125</LongitudeDegrees>
            </Position>
            <AltitudeMeters>86.8000030517578125</AltitudeMeters>
            <DistanceMeters>228382.10467927</DistanceMeters>
          </Trackpoint>
          <Trackpoint>
            <Time>2018-09-14T09:33:50.000Z</Time>
            <Position>
              <LatitudeDegrees>38.20791645906865596771240234375</LatitudeDegrees>
              <LongitudeDegrees>-8.182998597621917724609375</LongitudeDegrees>
            </Position>
            <AltitudeMeters>87.1999969482421875</AltitudeMeters>
            <DistanceMeters>228396.45276913</DistanceMeters>
          </Trackpoint>
          <Trackpoint>
            <Time>2018-09-14T09:33:54.000Z</Time>
            <Position>
              <LatitudeDegrees>38.20769500918686389923095703125</LatitudeDegrees>
              <LongitudeDegrees>-8.18282735534012317657470703125</LongitudeDegrees>
            </Position>
            <AltitudeMeters>88</AltitudeMeters>
            <DistanceMeters>228425.29396401</DistanceMeters>
          </Trackpoint>
          <Trackpoint>
            <Time>2018-09-14T09:33:57.000Z</Time>
            <Position>
              <LatitudeDegrees>38.20752234198153018951416015625</LatitudeDegrees>
              <LongitudeDegrees>-8.18268720991909503936767578125</LongitudeDegrees>
            </Position>
            <AltitudeMeters>88.40000152587890625</AltitudeMeters>
            <DistanceMeters>228448.08809787</DistanceMeters>
          </Trackpoint>
          <Trackpoint>
            <Time>2018-09-14T09:34:05.000Z</Time>
            <Position>
              <LatitudeDegrees>38.20705714635550975799560546875</LatitudeDegrees>
              <LongitudeDegrees>-8.18232712335884571075439453125</LongitudeDegrees>
            </Position>
            <AltitudeMeters>86.59999847412109375</AltitudeMeters>
            <DistanceMeters>228508.69070978</DistanceMeters>
          </Trackpoint>
          <Trackpoint>
            <Time>2018-09-14T09:34:14.000Z</Time>
            <Position>
              <LatitudeDegrees>38.2065782882273197174072265625</LatitudeDegrees>
              <LongitudeDegrees>-8.181960582733154296875</LongitudeDegrees>
            </Position>
            <AltitudeMeters>86.40000152587890625</AltitudeMeters>
            <DistanceMeters>228570.88669251</DistanceMeters>
          </Trackpoint>
          <Trackpoint>
            <Time>2018-09-14T09:34:18.000Z</Time>
            <Position>
              <LatitudeDegrees>38.206364214420318603515625</LatitudeDegrees>
              <LongitudeDegrees>-8.181795291602611541748046875</LongitudeDegrees>
            </Position>
            <AltitudeMeters>87.40000152587890625</AltitudeMeters>
            <DistanceMeters>228598.75593963</DistanceMeters>
          </Trackpoint>
          <Trackpoint>
            <Time>2018-09-14T09:34:23.000Z</Time>
            <Position>
              <LatitudeDegrees>38.20610529743134975433349609375</LatitudeDegrees>
              <LongitudeDegrees>-8.18160745315253734588623046875</LongitudeDegrees>
            </Position>
            <AltitudeMeters>87.40000152587890625</AltitudeMeters>
            <DistanceMeters>228631.92774988</DistanceMeters>
          </Trackpoint>
          <Trackpoint>
            <Time>2018-09-14T09:34:30.000Z</Time>
            <Position>
              <LatitudeDegrees>38.205758035182952880859375</LatitudeDegrees>
              <LongitudeDegrees>-8.181344009935855865478515625</LongitudeDegrees>
            </Position>
            <AltitudeMeters>89.59999847412109375</AltitudeMeters>
            <DistanceMeters>228676.92518193</DistanceMeters>
          </Trackpoint>
          <Trackpoint>
            <Time>2018-09-14T09:34:35.000Z</Time>
            <Position>
              <LatitudeDegrees>38.20551638491451740264892578125</LatitudeDegrees>
              <LongitudeDegrees>-8.18115483038127422332763671875</LongitudeDegrees>
            </Position>
            <AltitudeMeters>90.8000030517578125</AltitudeMeters>
            <DistanceMeters>228708.50308957</DistanceMeters>
          </Trackpoint>
          <Trackpoint>
            <Time>2018-09-14T09:34:42.000Z</Time>
            <Position>
              <LatitudeDegrees>38.2051875628530979156494140625</LatitudeDegrees>
              <LongitudeDegrees>-8.18090924061834812164306640625</LongitudeDegrees>
            </Position>
            <AltitudeMeters>92.8000030517578125</AltitudeMeters>
            <DistanceMeters>228750.93930082</DistanceMeters>
          </Trackpoint>
          <Trackpoint>
            <Time>2018-09-14T09:34:46.000Z</Time>
            <Position>
              <LatitudeDegrees>38.204999975860118865966796875</LatitudeDegrees>
              <LongitudeDegrees>-8.1807571090757846832275390625</LongitudeDegrees>
            </Position>
            <AltitudeMeters>93</AltitudeMeters>
            <DistanceMeters>228775.69754428</DistanceMeters>
          </Trackpoint>
          <Trackpoint>
            <Time>2018-09-14T09:34:55.000Z</Time>
            <Position>
              <LatitudeDegrees>38.2045314274728298187255859375</LatitudeDegrees>
              <LongitudeDegrees>-8.18034966476261615753173828125</LongitudeDegrees>
            </Position>
            <AltitudeMeters>93</AltitudeMeters>
            <DistanceMeters>228838.86065118</DistanceMeters>
          </Trackpoint>
          <Trackpoint>
            <Time>2018-09-14T09:35:03.000Z</Time>
            <Position>
              <LatitudeDegrees>38.2041098177433013916015625</LatitudeDegrees>
              <LongitudeDegrees>-8.17985697649419307708740234375</LongitudeDegrees>
            </Position>
            <AltitudeMeters>91.40000152587890625</AltitudeMeters>
            <DistanceMeters>228902.57051793</DistanceMeters>
          </Trackpoint>
          <Trackpoint>
            <Time>2018-09-14T09:35:08.000Z</Time>
            <Position>
              <LatitudeDegrees>38.20385190658271312713623046875</LatitudeDegrees>
              <LongitudeDegrees>-8.17951549775898456573486328125</LongitudeDegrees>
            </Position>
            <AltitudeMeters>89.8000030517578125</AltitudeMeters>
            <DistanceMeters>228943.99584433</DistanceMeters>
          </Trackpoint>
          <Trackpoint>
            <Time>2018-09-14T09:35:13.000Z</Time>
            <Position>
              <LatitudeDegrees>38.20358703844249248504638671875</LatitudeDegrees>
              <LongitudeDegrees>-8.179174773395061492919921875</LongitudeDegrees>
            </Position>
            <AltitudeMeters>90</AltitudeMeters>
            <DistanceMeters>228985.91447509</DistanceMeters>
          </Trackpoint>
          <Trackpoint>
            <Time>2018-09-14T09:35:15.000Z</Time>
            <Position>
              <LatitudeDegrees>38.20347388274967670440673828125</LatitudeDegrees>
              <LongitudeDegrees>-8.179020546376705169677734375</LongitudeDegrees>
            </Position>
            <AltitudeMeters>89.8000030517578125</AltitudeMeters>
            <DistanceMeters>229004.36924042</DistanceMeters>
          </Trackpoint>
          <Trackpoint>
            <Time>2018-09-14T09:35:20.000Z</Time>
            <Position>
              <LatitudeDegrees>38.20319878868758678436279296875</LatitudeDegrees>
              <LongitudeDegrees>-8.17864872515201568603515625</LongitudeDegrees>
            </Position>
            <AltitudeMeters>88</AltitudeMeters>
            <DistanceMeters>229049.03583968</DistanceMeters>
          </Trackpoint>
          <Trackpoint>
            <Time>2018-09-14T09:35:27.000Z</Time>
            <Position>
              <LatitudeDegrees>38.20281255058944225311279296875</LatitudeDegrees>
              <LongitudeDegrees>-8.1781248562037944793701171875</LongitudeDegrees>
            </Position>
            <AltitudeMeters>87.40000152587890625</AltitudeMeters>
            <DistanceMeters>229111.86495648</DistanceMeters>
          </Trackpoint>
          <Trackpoint>
            <Time>2018-09-14T09:35:33.000Z</Time>
            <Position>
              <LatitudeDegrees>38.20248641073703765869140625</LatitudeDegrees>
              <LongitudeDegrees>-8.17768489010632038116455078125</LongitudeDegrees>
            </Position>
            <AltitudeMeters>86.1999969482421875</AltitudeMeters>
            <DistanceMeters>229164.76591101</DistanceMeters>
          </Trackpoint>
          <Trackpoint>
            <Time>2018-09-14T09:35:40.000Z</Time>
            <Position>
              <LatitudeDegrees>38.202108554542064666748046875</LatitudeDegrees>
              <LongitudeDegrees>-8.1771904416382312774658203125</LongitudeDegrees>
            </Position>
            <AltitudeMeters>85.40000152587890625</AltitudeMeters>
            <DistanceMeters>229225.08998901</DistanceMeters>
          </Trackpoint>
          <Trackpoint>
            <Time>2018-09-14T09:35:41.000Z</Time>
            <Position>
              <LatitudeDegrees>38.20205298252403736114501953125</LatitudeDegrees>
              <LongitudeDegrees>-8.17711374722421169281005859375</LongitudeDegrees>
            </Position>
            <AltitudeMeters>85.8000030517578125</AltitudeMeters>
            <DistanceMeters>229234.21453309</DistanceMeters>
          </Trackpoint>
          <Trackpoint>
            <Time>2018-09-14T09:35:47.000Z</Time>
            <Position>
              <LatitudeDegrees>38.2017120905220508575439453125</LatitudeDegrees>
              <LongitudeDegrees>-8.1766583584249019622802734375</LongitudeDegrees>
            </Position>
            <AltitudeMeters>86.59999847412109375</AltitudeMeters>
            <DistanceMeters>229289.22441382</DistanceMeters>
          </Trackpoint>
          <Trackpoint>
            <Time>2018-09-14T09:35:50.000Z</Time>
            <Position>
              <LatitudeDegrees>38.2015387527644634246826171875</LatitudeDegrees>
              <LongitudeDegrees>-8.176436908543109893798828125</LongitudeDegrees>
            </Position>
            <AltitudeMeters>86</AltitudeMeters>
            <DistanceMeters>229316.56272589</DistanceMeters>
          </Trackpoint>
          <Trackpoint>
            <Time>2018-09-14T09:35:56.000Z</Time>
            <Position>
              <LatitudeDegrees>38.20115611888468265533447265625</LatitudeDegrees>
              <LongitudeDegrees>-8.17600272595882415771484375</LongitudeDegrees>
            </Position>
            <AltitudeMeters>84.1999969482421875</AltitudeMeters>
            <DistanceMeters>229373.62339959</DistanceMeters>
          </Trackpoint>
          <Trackpoint>
            <Time>2018-09-14T09:35:57.000Z</Time>
            <Position>
              <LatitudeDegrees>38.201089985668659210205078125</LatitudeDegrees>
              <LongitudeDegrees>-8.175933659076690673828125</LongitudeDegrees>
            </Position>
            <AltitudeMeters>84</AltitudeMeters>
            <DistanceMeters>229383.14553158</DistanceMeters>
          </Trackpoint>
          <Trackpoint>
            <Time>2018-09-14T09:36:01.000Z</Time>
            <Position>
              <LatitudeDegrees>38.200818412005901336669921875</LatitudeDegrees>
              <LongitudeDegrees>-8.1756485067307949066162109375</LongitudeDegrees>
            </Position>
            <AltitudeMeters>82</AltitudeMeters>
            <DistanceMeters>229422.33365453</DistanceMeters>
          </Trackpoint>
          <Trackpoint>
            <Time>2018-09-14T09:36:05.000Z</Time>
            <Position>
              <LatitudeDegrees>38.20054323412477970123291015625</LatitudeDegrees>
              <LongitudeDegrees>-8.17536511458456516265869140625</LongitudeDegrees>
            </Position>
            <AltitudeMeters>79.8000030517578125</AltitudeMeters>
            <DistanceMeters>229461.73514984</DistanceMeters>
          </Trackpoint>
          <Trackpoint>
            <Time>2018-09-14T09:36:08.000Z</Time>
            <Position>
              <LatitudeDegrees>38.20032161660492420196533203125</LatitudeDegrees>
              <LongitudeDegrees>-8.17513528279960155487060546875</LongitudeDegrees>
            </Position>
            <AltitudeMeters>79.1999969482421875</AltitudeMeters>
            <DistanceMeters>229493.55590614</DistanceMeters>
          </Trackpoint>
          <Trackpoint>
            <Time>2018-09-14T09:36:10.000Z</Time>
            <Position>
              <LatitudeDegrees>38.20017325691878795623779296875</LatitudeDegrees>
              <LongitudeDegrees>-8.1749725900590419769287109375</LongitudeDegrees>
            </Position>
            <AltitudeMeters>78.40000152587890625</AltitudeMeters>
            <DistanceMeters>229515.35433848</DistanceMeters>
          </Trackpoint>
          <Trackpoint>
            <Time>2018-09-14T09:36:15.000Z</Time>
            <Position>
              <LatitudeDegrees>38.19978282786905765533447265625</LatitudeDegrees>
              <LongitudeDegrees>-8.174568079411983489990234375</LongitudeDegrees>
            </Position>
            <AltitudeMeters>75.59999847412109375</AltitudeMeters>
            <DistanceMeters>229571.3921487</DistanceMeters>
          </Trackpoint>
          <Trackpoint>
            <Time>2018-09-14T09:36:18.000Z</Time>
            <Position>
              <LatitudeDegrees>38.19954310543835163116455078125</LatitudeDegrees>
              <LongitudeDegrees>-8.17432994954288005828857421875</LongitudeDegrees>
            </Position>
            <AltitudeMeters>74.59999847412109375</AltitudeMeters>
            <DistanceMeters>229605.24087244</DistanceMeters>
          </Trackpoint>
          <Trackpoint>
            <Time>2018-09-14T09:36:19.000Z</Time>
            <Position>
              <LatitudeDegrees>38.19946079514920711517333984375</LatitudeDegrees>
              <LongitudeDegrees>-8.17424587905406951904296875</LongitudeDegrees>
            </Position>
            <AltitudeMeters>74.1999969482421875</AltitudeMeters>
            <DistanceMeters>229616.98811162</DistanceMeters>
          </Trackpoint>
          <Trackpoint>
            <Time>2018-09-14T09:36:20.000Z</Time>
            <Position>
              <LatitudeDegrees>38.19937865249812602996826171875</LatitudeDegrees>
              <LongitudeDegrees>-8.17416147328913211822509765625</LongitudeDegrees>
            </Position>
            <AltitudeMeters>73.1999969482421875</AltitudeMeters>
            <DistanceMeters>229628.73919365</DistanceMeters>
          </Trackpoint>
          <Trackpoint>
            <Time>2018-09-14T09:36:22.000Z</Time>
            <Position>
              <LatitudeDegrees>38.19921503774821758270263671875</LatitudeDegrees>
              <LongitudeDegrees>-8.173991739749908447265625</LongitudeDegrees>
            </Position>
            <AltitudeMeters>71.1999969482421875</AltitudeMeters>
            <DistanceMeters>229652.23482502</DistanceMeters>
          </Trackpoint>
          <Trackpoint>
            <Time>2018-09-14T09:36:24.000Z</Time>
            <Position>
              <LatitudeDegrees>38.19904991425573825836181640625</LatitudeDegrees>
              <LongitudeDegrees>-8.17382368259131908416748046875</LongitudeDegrees>
            </Position>
            <AltitudeMeters>68.8000030517578125</AltitudeMeters>
            <DistanceMeters>229675.768858</DistanceMeters>
          </Trackpoint>
          <Trackpoint>
            <Time>2018-09-14T09:36:26.000Z</Time>
            <Position>
              <LatitudeDegrees>38.198885209858417510986328125</LatitudeDegrees>
              <LongitudeDegrees>-8.17364908754825592041015625</LongitudeDegrees>
            </Position>
            <AltitudeMeters>67.8000030517578125</AltitudeMeters>
            <DistanceMeters>229699.62851243</DistanceMeters>
          </Trackpoint>
          <Trackpoint>
            <Time>2018-09-14T09:36:29.000Z</Time>
            <Position>
              <LatitudeDegrees>38.1986367702484130859375</LatitudeDegrees>
              <LongitudeDegrees>-8.17339033819735050201416015625</LongitudeDegrees>
            </Position>
            <AltitudeMeters>68</AltitudeMeters>
            <DistanceMeters>229735.36171603</DistanceMeters>
          </Trackpoint>
          <Trackpoint>
            <Time>2018-09-14T09:36:31.000Z</Time>
            <Position>
              <LatitudeDegrees>38.1984760053455829620361328125</LatitudeDegrees>
              <LongitudeDegrees>-8.17322286777198314666748046875</LongitudeDegrees>
            </Position>
            <AltitudeMeters>69</AltitudeMeters>
            <DistanceMeters>229758.48661877</DistanceMeters>
          </Trackpoint>
          <Trackpoint>
            <Time>2018-09-14T09:36:33.000Z</Time>
            <Position>
              <LatitudeDegrees>38.1983204372227191925048828125</LatitudeDegrees>
              <LongitudeDegrees>-8.17306847311556339263916015625</LongitudeDegrees>
            </Position>
            <AltitudeMeters>68.8000030517578125</AltitudeMeters>
            <DistanceMeters>229780.44539884</DistanceMeters>
          </Trackpoint>
          <Trackpoint>
            <Time>2018-09-14T09:36:37.000Z</Time>
            <Position>
              <LatitudeDegrees>38.1980290822684764862060546875</LatitudeDegrees>
              <LongitudeDegrees>-8.17276974208652973175048828125</LongitudeDegrees>
            </Position>
            <AltitudeMeters>69</AltitudeMeters>
            <DistanceMeters>229822.09117488</DistanceMeters>
          </Trackpoint>
          <Trackpoint>
            <Time>2018-09-14T09:36:40.000Z</Time>
            <Position>
              <LatitudeDegrees>38.19782339036464691162109375</LatitudeDegrees>
              <LongitudeDegrees>-8.172561116516590118408203125</LongitudeDegrees>
            </Position>
            <AltitudeMeters>70.40000152587890625</AltitudeMeters>
            <DistanceMeters>229851.36804042</DistanceMeters>
          </Trackpoint>
          <Trackpoint>
            <Time>2018-09-14T09:36:44.000Z</Time>
            <Position>
              <LatitudeDegrees>38.19758442230522632598876953125</LatitudeDegrees>
              <LongitudeDegrees>-8.17231276072561740875244140625</LongitudeDegrees>
            </Position>
            <AltitudeMeters>72.59999847412109375</AltitudeMeters>
            <DistanceMeters>229885.70964848</DistanceMeters>
          </Trackpoint>
          <Trackpoint>
            <Time>2018-09-14T09:36:47.000Z</Time>
            <Position>
              <LatitudeDegrees>38.19742399267852306365966796875</LatitudeDegrees>
              <LongitudeDegrees>-8.1721485592424869537353515625</LongitudeDegrees>
            </Position>
            <AltitudeMeters>74.59999847412109375</AltitudeMeters>
            <DistanceMeters>229908.62547413</DistanceMeters>
          </Trackpoint>
          <Trackpoint>
            <Time>2018-09-14T09:36:49.000Z</Time>
            <Position>
              <LatitudeDegrees>38.19731871597468852996826171875</LatitudeDegrees>
              <LongitudeDegrees>-8.17203867249190807342529296875</LongitudeDegrees>
            </Position>
            <AltitudeMeters>75.59999847412109375</AltitudeMeters>
            <DistanceMeters>229923.78067108</DistanceMeters>
          </Trackpoint>
          <Trackpoint>
            <Time>2018-09-14T09:36:52.000Z</Time>
            <Position>
              <LatitudeDegrees>38.197167925536632537841796875</LatitudeDegrees>
              <LongitudeDegrees>-8.1718873791396617889404296875</LongitudeDegrees>
            </Position>
            <AltitudeMeters>76</AltitudeMeters>
            <DistanceMeters>229945.15365583</DistanceMeters>
          </Trackpoint>
          <Trackpoint>
            <Time>2018-09-14T09:36:55.000Z</Time>
            <Position>
              <LatitudeDegrees>38.19702149368822574615478515625</LatitudeDegrees>
              <LongitudeDegrees>-8.171730972826480865478515625</LongitudeDegrees>
            </Position>
            <AltitudeMeters>76.40000152587890625</AltitudeMeters>
            <DistanceMeters>229966.43263896</DistanceMeters>
          </Trackpoint>
          <Trackpoint>
            <Time>2018-09-14T09:36:58.000Z</Time>
            <Position>
              <LatitudeDegrees>38.1968740560114383697509765625</LatitudeDegrees>
              <LongitudeDegrees>-8.1715812720358371734619140625</LongitudeDegrees>
            </Position>
            <AltitudeMeters>76</AltitudeMeters>
            <DistanceMeters>229987.42687701</DistanceMeters>
          </Trackpoint>
          <Trackpoint>
            <Time>2018-09-14T09:37:00.000Z</Time>
            <Position>
              <LatitudeDegrees>38.19677690975368022918701171875</LatitudeDegrees>
              <LongitudeDegrees>-8.1714785099029541015625</LongitudeDegrees>
            </Position>
            <AltitudeMeters>75.40000152587890625</AltitudeMeters>
            <DistanceMeters>230001.48762</DistanceMeters>
          </Trackpoint>
          <Trackpoint>
            <Time>2018-09-14T09:37:03.000Z</Time>
            <Position>
              <LatitudeDegrees>38.19663609378039836883544921875</LatitudeDegrees>
              <LongitudeDegrees>-8.17130458541214466094970703125</LongitudeDegrees>
            </Position>
            <AltitudeMeters>74.8000030517578125</AltitudeMeters>
            <DistanceMeters>230023.33012579</DistanceMeters>
          </Trackpoint>
          <Trackpoint>
            <Time>2018-09-14T09:37:11.000Z</Time>
            <Position>
              <LatitudeDegrees>38.19625454954802989959716796875</LatitudeDegrees>
              <LongitudeDegrees>-8.17076437175273895263671875</LongitudeDegrees>
            </Position>
            <AltitudeMeters>72.8000030517578125</AltitudeMeters>
            <DistanceMeters>230086.8620051</DistanceMeters>
          </Trackpoint>
          <Trackpoint>
            <Time>2018-09-14T09:37:15.000Z</Time>
            <Position>
              <LatitudeDegrees>38.19606025703251361846923828125</LatitudeDegrees>
              <LongitudeDegrees>-8.17046798765659332275390625</LongitudeDegrees>
            </Position>
            <AltitudeMeters>71.59999847412109375</AltitudeMeters>
            <DistanceMeters>230120.62244376</DistanceMeters>
          </Trackpoint>
          <Trackpoint>
            <Time>2018-09-14T09:37:22.000Z</Time>
            <Position>
              <LatitudeDegrees>38.19570670835673809051513671875</LatitudeDegrees>
              <LongitudeDegrees>-8.16991201601922512054443359375</LongitudeDegrees>
            </Position>
            <AltitudeMeters>67.8000030517578125</AltitudeMeters>
            <DistanceMeters>230183.18091953</DistanceMeters>
          </Trackpoint>
          <Trackpoint>
            <Time>2018-09-14T09:37:25.000Z</Time>
            <Position>
              <LatitudeDegrees>38.1955550797283649444580078125</LatitudeDegrees>
              <LongitudeDegrees>-8.1696624867618083953857421875</LongitudeDegrees>
            </Position>
            <AltitudeMeters>65</AltitudeMeters>
            <DistanceMeters>230210.77141507</DistanceMeters>
          </Trackpoint>
          <Trackpoint>
            <Time>2018-09-14T09:37:27.000Z</Time>
            <Position>
              <LatitudeDegrees>38.19546162150800228118896484375</LatitudeDegrees>
              <LongitudeDegrees>-8.1694868020713329315185546875</LongitudeDegrees>
            </Position>
            <AltitudeMeters>63.799999237060546875</AltitudeMeters>
            <DistanceMeters>230229.32840742</DistanceMeters>
          </Trackpoint>
          <Trackpoint>
            <Time>2018-09-14T09:37:28.000Z</Time>
            <Position>
              <LatitudeDegrees>38.1954194605350494384765625</LatitudeDegrees>
              <LongitudeDegrees>-8.1693922542035579681396484375</LongitudeDegrees>
            </Position>
            <AltitudeMeters>63.200000762939453125</AltitudeMeters>
            <DistanceMeters>230238.8377284</DistanceMeters>
          </Trackpoint>
          <Trackpoint>
            <Time>2018-09-14T09:37:31.000Z</Time>
            <Position>
              <LatitudeDegrees>38.19531275890767574310302734375</LatitudeDegrees>
              <LongitudeDegrees>-8.169079609215259552001953125</LongitudeDegrees>
            </Position>
            <AltitudeMeters>61.799999237060546875</AltitudeMeters>
            <DistanceMeters>230268.65295632</DistanceMeters>
          </Trackpoint>
          <Trackpoint>
            <Time>2018-09-14T09:37:33.000Z</Time>
            <Position>
              <LatitudeDegrees>38.19526632316410541534423828125</LatitudeDegrees>
              <LongitudeDegrees>-8.1688539683818817138671875</LongitudeDegrees>
            </Position>
            <AltitudeMeters>60.799999237060546875</AltitudeMeters>
            <DistanceMeters>230289.05605716</DistanceMeters>
          </Trackpoint>
          <Trackpoint>
            <Time>2018-09-14T09:37:35.000Z</Time>
            <Position>
              <LatitudeDegrees>38.1952358968555927276611328125</LatitudeDegrees>
              <LongitudeDegrees>-8.1686130724847316741943359375</LongitudeDegrees>
            </Position>
            <AltitudeMeters>60.200000762939453125</AltitudeMeters>
            <DistanceMeters>230310.39860026</DistanceMeters>
          </Trackpoint>
          <Trackpoint>
            <Time>2018-09-14T09:37:36.000Z</Time>
            <Position>
              <LatitudeDegrees>38.19522256962954998016357421875</LatitudeDegrees>
              <LongitudeDegrees>-8.16848994232714176177978515625</LongitudeDegrees>
            </Position>
            <AltitudeMeters>59.799999237060546875</AltitudeMeters>
            <DistanceMeters>230321.27116807</DistanceMeters>
          </Trackpoint>
          <Trackpoint>
            <Time>2018-09-14T09:37:38.000Z</Time>
            <Position>
              <LatitudeDegrees>38.19519557990133762359619140625</LatitudeDegrees>
              <LongitudeDegrees>-8.16824175417423248291015625</LongitudeDegrees>
            </Position>
            <AltitudeMeters>59.799999237060546875</AltitudeMeters>
            <DistanceMeters>230343.18796269</DistanceMeters>
          </Trackpoint>
          <Trackpoint>
            <Time>2018-09-14T09:37:41.000Z</Time>
            <Position>
              <LatitudeDegrees>38.1951500661671161651611328125</LatitudeDegrees>
              <LongitudeDegrees>-8.1678707711398601531982421875</LongitudeDegrees>
            </Position>
            <AltitudeMeters>60</AltitudeMeters>
            <DistanceMeters>230376.03203266</DistanceMeters>
          </Trackpoint>
          <Trackpoint>
            <Time>2018-09-14T09:37:43.000Z</Time>
            <Position>
              <LatitudeDegrees>38.19512282498180866241455078125</LatitudeDegrees>
              <LongitudeDegrees>-8.16762752830982208251953125</LongitudeDegrees>
            </Position>
            <AltitudeMeters>60</AltitudeMeters>
            <DistanceMeters>230397.52404211</DistanceMeters>
          </Trackpoint>
          <Trackpoint>
            <Time>2018-09-14T09:37:44.000Z</Time>
            <Position>
              <LatitudeDegrees>38.1951101683080196380615234375</LatitudeDegrees>
              <LongitudeDegrees>-8.167507164180278778076171875</LongitudeDegrees>
            </Position>
            <AltitudeMeters>60.40000152587890625</AltitudeMeters>
            <DistanceMeters>230408.14580162</DistanceMeters>
          </Trackpoint>
          <Trackpoint>
            <Time>2018-09-14T09:37:48.000Z</Time>
            <Position>
              <LatitudeDegrees>38.19505493156611919403076171875</LatitudeDegrees>
              <LongitudeDegrees>-8.16704909317195415496826171875</LongitudeDegrees>
            </Position>
            <AltitudeMeters>62</AltitudeMeters>
            <DistanceMeters>230448.68357871</DistanceMeters>
          </Trackpoint>
          <Trackpoint>
            <Time>2018-09-14T09:37:55.000Z</Time>
            <Position>
              <LatitudeDegrees>38.1949760578572750091552734375</LatitudeDegrees>
              <LongitudeDegrees>-8.166347444057464599609375</LongitudeDegrees>
            </Position>
            <AltitudeMeters>64</AltitudeMeters>
            <DistanceMeters>230510.68383114</DistanceMeters>
          </Trackpoint>
          <Trackpoint>
            <Time>2018-09-14T09:37:57.000Z</Time>
            <Position>
              <LatitudeDegrees>38.1949572823941707611083984375</LatitudeDegrees>
              <LongitudeDegrees>-8.1661699153482913970947265625</LongitudeDegrees>
            </Position>
            <AltitudeMeters>64.59999847412109375</AltitudeMeters>
            <DistanceMeters>230526.35315718</DistanceMeters>
          </Trackpoint>
          <Trackpoint>
            <Time>2018-09-14T09:38:00.000Z</Time>
            <Position>
              <LatitudeDegrees>38.194924928247928619384765625</LatitudeDegrees>
              <LongitudeDegrees>-8.165915943682193756103515625</LongitudeDegrees>
            </Position>
            <AltitudeMeters>64.59999847412109375</AltitudeMeters>
            <DistanceMeters>230548.85884574</DistanceMeters>
          </Trackpoint>
          <Trackpoint>
            <Time>2018-09-14T09:38:04.000Z</Time>
            <Position>
              <LatitudeDegrees>38.19487757049500942230224609375</LatitudeDegrees>
              <LongitudeDegrees>-8.16557421348989009857177734375</LongitudeDegrees>
            </Position>
            <AltitudeMeters>64.1999969482421875</AltitudeMeters>
            <DistanceMeters>230579.21240731</DistanceMeters>
          </Trackpoint>
          <Trackpoint>
            <Time>2018-09-14T09:38:05.000Z</Time>
            <Position>
              <LatitudeDegrees>38.19486625492572784423828125</LatitudeDegrees>
              <LongitudeDegrees>-8.16548503004014492034912109375</LongitudeDegrees>
            </Position>
            <AltitudeMeters>64.1999969482421875</AltitudeMeters>
            <DistanceMeters>230587.11449429</DistanceMeters>
          </Trackpoint>
          <Trackpoint>
            <Time>2018-09-14T09:38:09.000Z</Time>
            <Position>
              <LatitudeDegrees>38.19482442922890186309814453125</LatitudeDegrees>
              <LongitudeDegrees>-8.16511253826320171356201171875</LongitudeDegrees>
            </Position>
            <AltitudeMeters>64.1999969482421875</AltitudeMeters>
            <DistanceMeters>230620.02859872</DistanceMeters>
          </Trackpoint>
          <Trackpoint>
            <Time>2018-09-14T09:38:17.000Z</Time>
            <Position>
              <LatitudeDegrees>38.19473675452172756195068359375</LatitudeDegrees>
              <LongitudeDegrees>-8.1643398106098175048828125</LongitudeDegrees>
            </Position>
            <AltitudeMeters>63.59999847412109375</AltitudeMeters>
            <DistanceMeters>230688.32259995</DistanceMeters>
          </Trackpoint>
          <Trackpoint>
            <Time>2018-09-14T09:38:25.000Z</Time>
            <Position>
              <LatitudeDegrees>38.19464304484426975250244140625</LatitudeDegrees>
              <LongitudeDegrees>-8.16359273158013820648193359375</LongitudeDegrees>
            </Position>
            <AltitudeMeters>63.200000762939453125</AltitudeMeters>
            <DistanceMeters>230754.49941125</DistanceMeters>
          </Trackpoint>
          <Trackpoint>
            <Time>2018-09-14T09:38:32.000Z</Time>
            <Position>
              <LatitudeDegrees>38.19455553777515888214111328125</LatitudeDegrees>
              <LongitudeDegrees>-8.16286333836615085601806640625</LongitudeDegrees>
            </Position>
            <AltitudeMeters>60.59999847412109375</AltitudeMeters>
            <DistanceMeters>230819.04137097</DistanceMeters>
          </Trackpoint>
          <Trackpoint>
            <Time>2018-09-14T09:38:34.000Z</Time>
            <Position>
              <LatitudeDegrees>38.19453055970370769500732421875</LatitudeDegrees>
              <LongitudeDegrees>-8.16262881271541118621826171875</LongitudeDegrees>
            </Position>
            <AltitudeMeters>60</AltitudeMeters>
            <DistanceMeters>230839.74367732</DistanceMeters>
          </Trackpoint>
          <Trackpoint>
            <Time>2018-09-14T09:38:40.000Z</Time>
            <Position>
              <LatitudeDegrees>38.194440789520740509033203125</LatitudeDegrees>
              <LongitudeDegrees>-8.16191484220325946807861328125</LongitudeDegrees>
            </Position>
            <AltitudeMeters>62</AltitudeMeters>
            <DistanceMeters>230902.99164807</DistanceMeters>
          </Trackpoint>
          <Trackpoint>
            <Time>2018-09-14T09:38:47.000Z</Time>
            <Position>
              <LatitudeDegrees>38.19435655139386653900146484375</LatitudeDegrees>
              <LongitudeDegrees>-8.16121193580329418182373046875</LongitudeDegrees>
            </Position>
            <AltitudeMeters>63.200000762939453125</AltitudeMeters>
            <DistanceMeters>230965.18850192</DistanceMeters>
          </Trackpoint>
          <Trackpoint>
            <Time>2018-09-14T09:38:55.000Z</Time>
            <Position>
              <LatitudeDegrees>38.19425261579453945159912109375</LatitudeDegrees>
              <LongitudeDegrees>-8.16048488952219486236572265625</LongitudeDegrees>
            </Position>
            <AltitudeMeters>62.799999237060546875</AltitudeMeters>
            <DistanceMeters>231029.83000092</DistanceMeters>
          </Trackpoint>
          <Trackpoint>
            <Time>2018-09-14T09:38:56.000Z</Time>
            <Position>
              <LatitudeDegrees>38.1942267157137393951416015625</LatitudeDegrees>
              <LongitudeDegrees>-8.16039226949214935302734375</LongitudeDegrees>
            </Position>
            <AltitudeMeters>62.59999847412109375</AltitudeMeters>
            <DistanceMeters>231038.42978732</DistanceMeters>
          </Trackpoint>
          <Trackpoint>
            <Time>2018-09-14T09:38:59.000Z</Time>
            <Position>
              <LatitudeDegrees>38.1940976344048976898193359375</LatitudeDegrees>
              <LongitudeDegrees>-8.16013553179800510406494140625</LongitudeDegrees>
            </Position>
            <AltitudeMeters>61.59999847412109375</AltitudeMeters>
            <DistanceMeters>231065.09015823</DistanceMeters>
          </Trackpoint>
          <Trackpoint>
            <Time>2018-09-14T09:39:04.000Z</Time>
            <Position>
              <LatitudeDegrees>38.1937385536730289459228515625</LatitudeDegrees>
              <LongitudeDegrees>-8.1598486192524433135986328125</LongitudeDegrees>
            </Position>
            <AltitudeMeters>58.40000152587890625</AltitudeMeters>
            <DistanceMeters>231112.28352825</DistanceMeters>
          </Trackpoint>
          <Trackpoint>
            <Time>2018-09-14T09:39:11.000Z</Time>
            <Position>
              <LatitudeDegrees>38.1931950710713863372802734375</LatitudeDegrees>
              <LongitudeDegrees>-8.15957687795162200927734375</LongitudeDegrees>
            </Position>
            <AltitudeMeters>58.59999847412109375</AltitudeMeters>
            <DistanceMeters>231177.2772161</DistanceMeters>
          </Trackpoint>
          <Trackpoint>
            <Time>2018-09-14T09:39:13.000Z</Time>
            <Position>
              <LatitudeDegrees>38.19304981268942356109619140625</LatitudeDegrees>
              <LongitudeDegrees>-8.15950303338468074798583984375</LongitudeDegrees>
            </Position>
            <AltitudeMeters>60</AltitudeMeters>
            <DistanceMeters>231194.68760398</DistanceMeters>
          </Trackpoint>
          <Trackpoint>
            <Time>2018-09-14T09:39:21.000Z</Time>
            <Position>
              <LatitudeDegrees>38.192552514374256134033203125</LatitudeDegrees>
              <LongitudeDegrees>-8.15922056324779987335205078125</LongitudeDegrees>
            </Position>
            <AltitudeMeters>65.1999969482421875</AltitudeMeters>
            <DistanceMeters>231255.30280549</DistanceMeters>
          </Trackpoint>
          <Trackpoint>
            <Time>2018-09-14T09:39:25.000Z</Time>
            <Position>
              <LatitudeDegrees>38.1923370994627475738525390625</LatitudeDegrees>
              <LongitudeDegrees>-8.1591146998107433319091796875</LongitudeDegrees>
            </Position>
            <AltitudeMeters>66</AltitudeMeters>
            <DistanceMeters>231281.00502859</DistanceMeters>
          </Trackpoint>
          <Trackpoint>
            <Time>2018-09-14T09:39:26.000Z</Time>
            <Position>
              <LatitudeDegrees>38.19228571839630603790283203125</LatitudeDegrees>
              <LongitudeDegrees>-8.15908871591091156005859375</LongitudeDegrees>
            </Position>
            <AltitudeMeters>66.1999969482421875</AltitudeMeters>
            <DistanceMeters>231287.15906308</DistanceMeters>
          </Trackpoint>
          <Trackpoint>
            <Time>2018-09-14T09:39:29.000Z</Time>
            <Position>
              <LatitudeDegrees>38.1921446509659290313720703125</LatitudeDegrees>
              <LongitudeDegrees>-8.1590131111443042755126953125</LongitudeDegrees>
            </Position>
            <AltitudeMeters>66.59999847412109375</AltitudeMeters>
            <DistanceMeters>231304.19616311</DistanceMeters>
          </Trackpoint>
          <Trackpoint>
            <Time>2018-09-14T09:39:32.000Z</Time>
            <Position>
              <LatitudeDegrees>38.192016743123531341552734375</LatitudeDegrees>
              <LongitudeDegrees>-8.1589507497847080230712890625</LongitudeDegrees>
            </Position>
            <AltitudeMeters>67.40000152587890625</AltitudeMeters>
            <DistanceMeters>231319.44165876</DistanceMeters>
          </Trackpoint>
          <Trackpoint>
            <Time>2018-09-14T09:39:36.000Z</Time>
            <Position>
              <LatitudeDegrees>38.1918521225452423095703125</LatitudeDegrees>
              <LongitudeDegrees>-8.15885896794497966766357421875</LongitudeDegrees>
            </Position>
            <AltitudeMeters>69</AltitudeMeters>
            <DistanceMeters>231339.44607996</DistanceMeters>
          </Trackpoint>
          <Trackpoint>
            <Time>2018-09-14T09:39:40.000Z</Time>
            <Position>
              <LatitudeDegrees>38.191688843071460723876953125</LatitudeDegrees>
              <LongitudeDegrees>-8.1587683595716953277587890625</LongitudeDegrees>
            </Position>
            <AltitudeMeters>70</AltitudeMeters>
            <DistanceMeters>231359.27253344</DistanceMeters>
          </Trackpoint>
          <Trackpoint>
            <Time>2018-09-14T09:39:44.000Z</Time>
            <Position>
              <LatitudeDegrees>38.19152648560702800750732421875</LatitudeDegrees>
              <LongitudeDegrees>-8.1586830317974090576171875</LongitudeDegrees>
            </Position>
            <AltitudeMeters>70.59999847412109375</AltitudeMeters>
            <DistanceMeters>231378.82403456</DistanceMeters>
          </Trackpoint>
          <Trackpoint>
            <Time>2018-09-14T09:39:49.000Z</Time>
            <Position>
              <LatitudeDegrees>38.19132582284510135650634765625</LatitudeDegrees>
              <LongitudeDegrees>-8.15857582725584506988525390625</LongitudeDegrees>
            </Position>
            <AltitudeMeters>71.40000152587890625</AltitudeMeters>
            <DistanceMeters>231403.04746057</DistanceMeters>
          </Trackpoint>
          <Trackpoint>
            <Time>2018-09-14T09:39:54.000Z</Time>
            <Position>
              <LatitudeDegrees>38.19113261997699737548828125</LatitudeDegrees>
              <LongitudeDegrees>-8.1584709696471691131591796875</LongitudeDegrees>
            </Position>
            <AltitudeMeters>72.40000152587890625</AltitudeMeters>
            <DistanceMeters>231426.42596366</DistanceMeters>
          </Trackpoint>
          <Trackpoint>
            <Time>2018-09-14T09:39:59.000Z</Time>
            <Position>
              <LatitudeDegrees>38.19094478152692317962646484375</LatitudeDegrees>
              <LongitudeDegrees>-8.15836762078106403350830078125</LongitudeDegrees>
            </Position>
            <AltitudeMeters>73.1999969482421875</AltitudeMeters>
            <DistanceMeters>231449.20365103</DistanceMeters>
          </Trackpoint>
          <Trackpoint>
            <Time>2018-09-14T09:40:03.000Z</Time>
            <Position>
              <LatitudeDegrees>38.19078988395631313323974609375</LatitudeDegrees>
              <LongitudeDegrees>-8.15828497521579265594482421875</LongitudeDegrees>
            </Position>
            <AltitudeMeters>73.59999847412109375</AltitudeMeters>
            <DistanceMeters>231467.89857223</DistanceMeters>
          </Trackpoint>
          <Trackpoint>
            <Time>2018-09-14T09:40:07.000Z</Time>
            <Position>
              <LatitudeDegrees>38.19063507020473480224609375</LatitudeDegrees>
              <LongitudeDegrees>-8.1582002341747283935546875</LongitudeDegrees>
            </Position>
            <AltitudeMeters>74</AltitudeMeters>
            <DistanceMeters>231486.65666272</DistanceMeters>
          </Trackpoint>
          <Trackpoint>
            <Time>2018-09-14T09:40:11.000Z</Time>
            <Position>
              <LatitudeDegrees>38.19047086872160434722900390625</LatitudeDegrees>
              <LongitudeDegrees>-8.15812219865620136260986328125</LongitudeDegrees>
            </Position>
            <AltitudeMeters>74.40000152587890625</AltitudeMeters>
            <DistanceMeters>231506.16608921</DistanceMeters>
          </Trackpoint>
          <Trackpoint>
            <Time>2018-09-14T09:40:18.000Z</Time>
            <Position>
              <LatitudeDegrees>38.19013492204248905181884765625</LatitudeDegrees>
              <LongitudeDegrees>-8.1579348631203174591064453125</LongitudeDegrees>
            </Position>
            <AltitudeMeters>75.8000030517578125</AltitudeMeters>
            <DistanceMeters>231546.99109637</DistanceMeters>
          </Trackpoint>
          <Trackpoint>
            <Time>2018-09-14T09:40:28.000Z</Time>
            <Position>
              <LatitudeDegrees>38.1895848177373409271240234375</LatitudeDegrees>
              <LongitudeDegrees>-8.15762682817876338958740234375</LongitudeDegrees>
            </Position>
            <AltitudeMeters>75.59999847412109375</AltitudeMeters>
            <DistanceMeters>231613.8862587</DistanceMeters>
          </Trackpoint>
          <Trackpoint>
            <Time>2018-09-14T09:40:37.000Z</Time>
            <Position>
              <LatitudeDegrees>38.18906622938811779022216796875</LatitudeDegrees>
              <LongitudeDegrees>-8.15733865834772586822509765625</LongitudeDegrees>
            </Position>
            <AltitudeMeters>76.1999969482421875</AltitudeMeters>
            <DistanceMeters>231676.87112341</DistanceMeters>
          </Trackpoint>
          <Trackpoint>
            <Time>2018-09-14T09:40:41.000Z</Time>
            <Position>
              <LatitudeDegrees>38.18882969208061695098876953125</LatitudeDegrees>
              <LongitudeDegrees>-8.1572116725146770477294921875</LongitudeDegrees>
            </Position>
            <AltitudeMeters>76.8000030517578125</AltitudeMeters>
            <DistanceMeters>231705.44589502</DistanceMeters>
          </Trackpoint>
          <Trackpoint>
            <Time>2018-09-14T09:40:47.000Z</Time>
            <Position>
              <LatitudeDegrees>38.18849056027829647064208984375</LatitudeDegrees>
              <LongitudeDegrees>-8.15701561979949474334716796875</LongitudeDegrees>
            </Position>
            <AltitudeMeters>75.40000152587890625</AltitudeMeters>
            <DistanceMeters>231746.90575755</DistanceMeters>
          </Trackpoint>
          <Trackpoint>
            <Time>2018-09-14T09:40:55.000Z</Time>
            <Position>
              <LatitudeDegrees>38.1880787573754787445068359375</LatitudeDegrees>
              <LongitudeDegrees>-8.1567962653934955596923828125</LongitudeDegrees>
            </Position>
            <AltitudeMeters>76.8000030517578125</AltitudeMeters>
            <DistanceMeters>231796.59518924</DistanceMeters>
          </Trackpoint>
          <Trackpoint>
            <Time>2018-09-14T09:41:02.000Z</Time>
            <Position>
              <LatitudeDegrees>38.18774792365729808807373046875</LatitudeDegrees>
              <LongitudeDegrees>-8.1566095165908336639404296875</LongitudeDegrees>
            </Position>
            <AltitudeMeters>79</AltitudeMeters>
            <DistanceMeters>231836.87911951</DistanceMeters>
          </Trackpoint>
          <Trackpoint>
            <Time>2018-09-14T09:41:06.000Z</Time>
            <Position>
              <LatitudeDegrees>38.18757123313844203948974609375</LatitudeDegrees>
              <LongitudeDegrees>-8.15651069395244121551513671875</LongitudeDegrees>
            </Position>
            <AltitudeMeters>79.59999847412109375</AltitudeMeters>
            <DistanceMeters>231858.36146311</DistanceMeters>
          </Trackpoint>
          <Trackpoint>
            <Time>2018-09-14T09:41:17.000Z</Time>
            <Position>
              <LatitudeDegrees>38.18704686127603054046630859375</LatitudeDegrees>
              <LongitudeDegrees>-8.15622570924460887908935546875</LongitudeDegrees>
            </Position>
            <AltitudeMeters>79.1999969482421875</AltitudeMeters>
            <DistanceMeters>231921.82700201</DistanceMeters>
          </Trackpoint>
          <Trackpoint>
            <Time>2018-09-14T09:41:22.000Z</Time>
            <Position>
              <LatitudeDegrees>38.18677671253681182861328125</LatitudeDegrees>
              <LongitudeDegrees>-8.15608154051005840301513671875</LongitudeDegrees>
            </Position>
            <AltitudeMeters>78.1999969482421875</AltitudeMeters>
            <DistanceMeters>231954.43321431</DistanceMeters>
          </Trackpoint>
          <Trackpoint>
            <Time>2018-09-14T09:41:31.000Z</Time>
            <Position>
              <LatitudeDegrees>38.186259381473064422607421875</LatitudeDegrees>
              <LongitudeDegrees>-8.15581063739955425262451171875</LongitudeDegrees>
            </Position>
            <AltitudeMeters>77.40000152587890625</AltitudeMeters>
            <DistanceMeters>232016.69986318</DistanceMeters>
          </Trackpoint>
          <Trackpoint>
            <Time>2018-09-14T09:41:39.000Z</Time>
            <Position>
              <LatitudeDegrees>38.18581522442400455474853515625</LatitudeDegrees>
              <LongitudeDegrees>-8.1555691547691822052001953125</LongitudeDegrees>
            </Position>
            <AltitudeMeters>76.59999847412109375</AltitudeMeters>
            <DistanceMeters>232070.46029777</DistanceMeters>
          </Trackpoint>
          <Trackpoint>
            <Time>2018-09-14T09:41:48.000Z</Time>
            <Position>
              <LatitudeDegrees>38.18529638461768627166748046875</LatitudeDegrees>
              <LongitudeDegrees>-8.15529028885066509246826171875</LongitudeDegrees>
            </Position>
            <AltitudeMeters>76</AltitudeMeters>
            <DistanceMeters>232133.15013498</DistanceMeters>
          </Trackpoint>
          <Trackpoint>
            <Time>2018-09-14T09:41:53.000Z</Time>
            <Position>
              <LatitudeDegrees>38.18498097360134124755859375</LatitudeDegrees>
              <LongitudeDegrees>-8.1551215611398220062255859375</LongitudeDegrees>
            </Position>
            <AltitudeMeters>76</AltitudeMeters>
            <DistanceMeters>232171.23320967</DistanceMeters>
          </Trackpoint>
          <Trackpoint>
            <Time>2018-09-14T09:41:55.000Z</Time>
            <Position>
              <LatitudeDegrees>38.1848503835499286651611328125</LatitudeDegrees>
              <LongitudeDegrees>-8.15505006350576877593994140625</LongitudeDegrees>
            </Position>
            <AltitudeMeters>76</AltitudeMeters>
            <DistanceMeters>232187.05708371</DistanceMeters>
          </Trackpoint>
          <Trackpoint>
            <Time>2018-09-14T09:41:58.000Z</Time>
            <Position>
              <LatitudeDegrees>38.18464930169284343719482421875</LatitudeDegrees>
              <LongitudeDegrees>-8.154939673840999603271484375</LongitudeDegrees>
            </Position>
            <AltitudeMeters>75.8000030517578125</AltitudeMeters>
            <DistanceMeters>232211.43287149</DistanceMeters>
          </Trackpoint>
          <Trackpoint>
            <Time>2018-09-14T09:42:05.000Z</Time>
            <Position>
              <LatitudeDegrees>38.18416952155530452728271484375</LatitudeDegrees>
              <LongitudeDegrees>-8.15468193031847476959228515625</LongitudeDegrees>
            </Position>
            <AltitudeMeters>74.8000030517578125</AltitudeMeters>
            <DistanceMeters>232269.39901147</DistanceMeters>
          </Trackpoint>
          <Trackpoint>
            <Time>2018-09-14T09:42:13.000Z</Time>
            <Position>
              <LatitudeDegrees>38.1836058385670185089111328125</LatitudeDegrees>
              <LongitudeDegrees>-8.154379762709140777587890625</LongitudeDegrees>
            </Position>
            <AltitudeMeters>74.59999847412109375</AltitudeMeters>
            <DistanceMeters>232337.48006521</DistanceMeters>
          </Trackpoint>
          <Trackpoint>
            <Time>2018-09-14T09:42:18.000Z</Time>
            <Position>
              <LatitudeDegrees>38.18325052969157695770263671875</LatitudeDegrees>
              <LongitudeDegrees>-8.15419075079262256622314453125</LongitudeDegrees>
            </Position>
            <AltitudeMeters>75.1999969482421875</AltitudeMeters>
            <DistanceMeters>232380.34480333</DistanceMeters>
          </Trackpoint>
          <Trackpoint>
            <Time>2018-09-14T09:42:26.000Z</Time>
            <Position>
              <LatitudeDegrees>38.18274225108325481414794921875</LatitudeDegrees>
              <LongitudeDegrees>-8.15390777774155139923095703125</LongitudeDegrees>
            </Position>
            <AltitudeMeters>75.8000030517578125</AltitudeMeters>
            <DistanceMeters>232442.09696153</DistanceMeters>
          </Trackpoint>
          <Trackpoint>
            <Time>2018-09-14T09:42:35.000Z</Time>
            <Position>
              <LatitudeDegrees>38.1822171248495578765869140625</LatitudeDegrees>
              <LongitudeDegrees>-8.1536218710243701934814453125</LongitudeDegrees>
            </Position>
            <AltitudeMeters>76.8000030517578125</AltitudeMeters>
            <DistanceMeters>232505.67203507</DistanceMeters>
          </Trackpoint>
          <Trackpoint>
            <Time>2018-09-14T09:42:40.000Z</Time>
            <Position>
              <LatitudeDegrees>38.1819318048655986785888671875</LatitudeDegrees>
              <LongitudeDegrees>-8.15346605144441127777099609375</LongitudeDegrees>
            </Position>
            <AltitudeMeters>77</AltitudeMeters>
            <DistanceMeters>232540.23107065</DistanceMeters>
          </Trackpoint>
          <Trackpoint>
            <Time>2018-09-14T09:42:47.000Z</Time>
            <Position>
              <LatitudeDegrees>38.1815375201404094696044921875</LatitudeDegrees>
              <LongitudeDegrees>-8.15325533039867877960205078125</LongitudeDegrees>
            </Position>
            <AltitudeMeters>77.59999847412109375</AltitudeMeters>
            <DistanceMeters>232587.83091845</DistanceMeters>
          </Trackpoint>
          <Trackpoint>
            <Time>2018-09-14T09:42:55.000Z</Time>
            <Position>
              <LatitudeDegrees>38.18109042942523956298828125</LatitudeDegrees>
              <LongitudeDegrees>-8.15302164293825626373291015625</LongitudeDegrees>
            </Position>
            <AltitudeMeters>78.1999969482421875</AltitudeMeters>
            <DistanceMeters>232641.62946845</DistanceMeters>
          </Trackpoint>
          <Trackpoint>
            <Time>2018-09-14T09:43:04.000Z</Time>
            <Position>
              <LatitudeDegrees>38.18055239506065845489501953125</LatitudeDegrees>
              <LongitudeDegrees>-8.1527243368327617645263671875</LongitudeDegrees>
            </Position>
            <AltitudeMeters>77.40000152587890625</AltitudeMeters>
            <DistanceMeters>232706.91904538</DistanceMeters>
          </Trackpoint>
          <Trackpoint>
            <Time>2018-09-14T09:43:12.000Z</Time>
            <Position>
              <LatitudeDegrees>38.1800369918346405029296875</LatitudeDegrees>
              <LongitudeDegrees>-8.152451254427433013916015625</LongitudeDegrees>
            </Position>
            <AltitudeMeters>76</AltitudeMeters>
            <DistanceMeters>232769.06106756</DistanceMeters>
          </Trackpoint>
          <Trackpoint>
            <Time>2018-09-14T09:43:20.000Z</Time>
            <Position>
              <LatitudeDegrees>38.1794970296323299407958984375</LatitudeDegrees>
              <LongitudeDegrees>-8.1521587260067462921142578125</LongitudeDegrees>
            </Position>
            <AltitudeMeters>75.8000030517578125</AltitudeMeters>
            <DistanceMeters>232834.38265497</DistanceMeters>
          </Trackpoint>
          <Trackpoint>
            <Time>2018-09-14T09:43:22.000Z</Time>
            <Position>
              <LatitudeDegrees>38.1793605722486972808837890625</LatitudeDegrees>
              <LongitudeDegrees>-8.15208454616367816925048828125</LongitudeDegrees>
            </Position>
            <AltitudeMeters>75.8000030517578125</AltitudeMeters>
            <DistanceMeters>232850.89927113</DistanceMeters>
          </Trackpoint>
          <Trackpoint>
            <Time>2018-09-14T09:43:28.000Z</Time>
            <Position>
              <LatitudeDegrees>38.17893929779529571533203125</LatitudeDegrees>
              <LongitudeDegrees>-8.1518509425222873687744140625</LongitudeDegrees>
            </Position>
            <AltitudeMeters>75</AltitudeMeters>
            <DistanceMeters>232902.04880698</DistanceMeters>
          </Trackpoint>
          <Trackpoint>
            <Time>2018-09-14T09:43:30.000Z</Time>
            <Position>
              <LatitudeDegrees>38.1787951290607452392578125</LatitudeDegrees>
              <LongitudeDegrees>-8.15177240408957004547119140625</LongitudeDegrees>
            </Position>
            <AltitudeMeters>74.1999969482421875</AltitudeMeters>
            <DistanceMeters>232919.50425998</DistanceMeters>
          </Trackpoint>
          <Trackpoint>
            <Time>2018-09-14T09:43:33.000Z</Time>
            <Position>
              <LatitudeDegrees>38.17858097143471240997314453125</LatitudeDegrees>
              <LongitudeDegrees>-8.1516541354358196258544921875</LongitudeDegrees>
            </Position>
            <AltitudeMeters>73.40000152587890625</AltitudeMeters>
            <DistanceMeters>232945.48950572</DistanceMeters>
          </Trackpoint>
          <Trackpoint>
            <Time>2018-09-14T09:43:35.000Z</Time>
            <Position>
              <LatitudeDegrees>38.17843579687178134918212890625</LatitudeDegrees>
              <LongitudeDegrees>-8.15157425589859485626220703125</LongitudeDegrees>
            </Position>
            <AltitudeMeters>73.40000152587890625</AltitudeMeters>
            <DistanceMeters>232963.09434266</DistanceMeters>
          </Trackpoint>
          <Trackpoint>
            <Time>2018-09-14T09:43:36.000Z</Time>
            <Position>
              <LatitudeDegrees>38.1783631257712841033935546875</LatitudeDegrees>
              <LongitudeDegrees>-8.15153419040143489837646484375</LongitudeDegrees>
            </Position>
            <AltitudeMeters>73.40000152587890625</AltitudeMeters>
            <DistanceMeters>232971.90983118</DistanceMeters>
          </Trackpoint>
          <Trackpoint>
            <Time>2018-09-14T09:43:41.000Z</Time>
            <Position>
              <LatitudeDegrees>38.1780063919723033905029296875</LatitudeDegrees>
              <LongitudeDegrees>-8.15134249627590179443359375</LongitudeDegrees>
            </Position>
            <AltitudeMeters>73</AltitudeMeters>
            <DistanceMeters>233015.01206752</DistanceMeters>
          </Trackpoint>
          <Trackpoint>
            <Time>2018-09-14T09:43:43.000Z</Time>
            <Position>
              <LatitudeDegrees>38.17786884494125843048095703125</LatitudeDegrees>
              <LongitudeDegrees>-8.15127099864184856414794921875</LongitudeDegrees>
            </Position>
            <AltitudeMeters>73.40000152587890625</AltitudeMeters>
            <DistanceMeters>233031.54999228</DistanceMeters>
          </Trackpoint>
          <Trackpoint>
            <Time>2018-09-14T09:43:44.000Z</Time>
            <Position>
              <LatitudeDegrees>38.177800364792346954345703125</LatitudeDegrees>
              <LongitudeDegrees>-8.15123478882014751434326171875</LongitudeDegrees>
            </Position>
            <AltitudeMeters>73.59999847412109375</AltitudeMeters>
            <DistanceMeters>233039.80474587</DistanceMeters>
          </Trackpoint>
          <Trackpoint>
            <Time>2018-09-14T09:43:52.000Z</Time>
            <Position>
              <LatitudeDegrees>38.17726568318903446197509765625</LatitudeDegrees>
              <LongitudeDegrees>-8.1509483791887760162353515625</LongitudeDegrees>
            </Position>
            <AltitudeMeters>73.8000030517578125</AltitudeMeters>
            <DistanceMeters>233104.37677927</DistanceMeters>
          </Trackpoint>
          <Trackpoint>
            <Time>2018-09-14T09:43:54.000Z</Time>
            <Position>
              <LatitudeDegrees>38.17713685333728790283203125</LatitudeDegrees>
              <LongitudeDegrees>-8.1508769653737545013427734375</LongitudeDegrees>
            </Position>
            <AltitudeMeters>73.59999847412109375</AltitudeMeters>
            <DistanceMeters>233120.01784161</DistanceMeters>
          </Trackpoint>
          <Trackpoint>
            <Time>2018-09-14T09:43:57.000Z</Time>
            <Position>
              <LatitudeDegrees>38.17693828605115413665771484375</LatitudeDegrees>
              <LongitudeDegrees>-8.1507696770131587982177734375</LongitudeDegrees>
            </Position>
            <AltitudeMeters>73.1999969482421875</AltitudeMeters>
            <DistanceMeters>233144.0297216</DistanceMeters>
          </Trackpoint>
          <Trackpoint>
            <Time>2018-09-14T09:44:03.000Z</Time>
            <Position>
              <LatitudeDegrees>38.17649823613464832305908203125</LatitudeDegrees>
              <LongitudeDegrees>-8.1505210697650909423828125</LongitudeDegrees>
            </Position>
            <AltitudeMeters>73.59999847412109375</AltitudeMeters>
            <DistanceMeters>233197.62108166</DistanceMeters>
          </Trackpoint>
          <Trackpoint>
            <Time>2018-09-14T09:44:06.000Z</Time>
            <Position>
              <LatitudeDegrees>38.17624946124851703643798828125</LatitudeDegrees>
              <LongitudeDegrees>-8.15038897097110748291015625</LongitudeDegrees>
            </Position>
            <AltitudeMeters>73.1999969482421875</AltitudeMeters>
            <DistanceMeters>233227.62575732</DistanceMeters>
          </Trackpoint>
          <Trackpoint>
            <Time>2018-09-14T09:44:10.000Z</Time>
            <Position>
              <LatitudeDegrees>38.17591653205454349517822265625</LatitudeDegrees>
              <LongitudeDegrees>-8.15020783804357051849365234375</LongitudeDegrees>
            </Position>
            <AltitudeMeters>71.40000152587890625</AltitudeMeters>
            <DistanceMeters>233267.92828864</DistanceMeters>
          </Trackpoint>
          <Trackpoint>
            <Time>2018-09-14T09:44:13.000Z</Time>
            <Position>
              <LatitudeDegrees>38.17568250931799411773681640625</LatitudeDegrees>
              <LongitudeDegrees>-8.1500806845724582672119140625</LongitudeDegrees>
            </Position>
            <AltitudeMeters>72.1999969482421875</AltitudeMeters>
            <DistanceMeters>233296.25214821</DistanceMeters>
          </Trackpoint>
          <Trackpoint>
            <Time>2018-09-14T09:44:15.000Z</Time>
            <Position>
              <LatitudeDegrees>38.17553297616541385650634765625</LatitudeDegrees>
              <LongitudeDegrees>-8.14999711699783802032470703125</LongitudeDegrees>
            </Position>
            <AltitudeMeters>73</AltitudeMeters>
            <DistanceMeters>233314.43108404</DistanceMeters>
          </Trackpoint>
          <Trackpoint>
            <Time>2018-09-14T09:44:18.000Z</Time>
            <Position>
              <LatitudeDegrees>38.1753181479871273040771484375</LatitudeDegrees>
              <LongitudeDegrees>-8.149881027638912200927734375</LongitudeDegrees>
            </Position>
            <AltitudeMeters>73.8000030517578125</AltitudeMeters>
            <DistanceMeters>233340.40990009</DistanceMeters>
          </Trackpoint>
          <Trackpoint>
            <Time>2018-09-14T09:44:26.000Z</Time>
            <Position>
              <LatitudeDegrees>38.17478187382221221923828125</LatitudeDegrees>
              <LongitudeDegrees>-8.1495888344943523406982421875</LongitudeDegrees>
            </Position>
            <AltitudeMeters>70.59999847412109375</AltitudeMeters>
            <DistanceMeters>233405.34312188</DistanceMeters>
          </Trackpoint>
          <Trackpoint>
            <Time>2018-09-14T09:44:29.000Z</Time>
            <Position>
              <LatitudeDegrees>38.174582384526729583740234375</LatitudeDegrees>
              <LongitudeDegrees>-8.14947626553475856781005859375</LongitudeDegrees>
            </Position>
            <AltitudeMeters>69</AltitudeMeters>
            <DistanceMeters>233429.63318435</DistanceMeters>
          </Trackpoint>
          <Trackpoint>
            <Time>2018-09-14T09:44:34.000Z</Time>
            <Position>
              <LatitudeDegrees>38.17421534098684787750244140625</LatitudeDegrees>
              <LongitudeDegrees>-8.149320445954799652099609375</LongitudeDegrees>
            </Position>
            <AltitudeMeters>66</AltitudeMeters>
            <DistanceMeters>233472.70073388</DistanceMeters>
          </Trackpoint>
          <Trackpoint>
            <Time>2018-09-14T09:44:35.000Z</Time>
            <Position>
              <LatitudeDegrees>38.1741321086883544921875</LatitudeDegrees>
              <LongitudeDegrees>-8.1493072025477886199951171875</LongitudeDegrees>
            </Position>
            <AltitudeMeters>65.40000152587890625</AltitudeMeters>
            <DistanceMeters>233482.03659473</DistanceMeters>
          </Trackpoint>
          <Trackpoint>
            <Time>2018-09-14T09:44:38.000Z</Time>
            <Position>
              <LatitudeDegrees>38.17387285642325878143310546875</LatitudeDegrees>
              <LongitudeDegrees>-8.1493306718766689300537109375</LongitudeDegrees>
            </Position>
            <AltitudeMeters>64</AltitudeMeters>
            <DistanceMeters>233510.96501163</DistanceMeters>
          </Trackpoint>
          <Trackpoint>
            <Time>2018-09-14T09:44:39.000Z</Time>
            <Position>
              <LatitudeDegrees>38.1737874448299407958984375</LatitudeDegrees>
              <LongitudeDegrees>-8.1493544764816761016845703125</LongitudeDegrees>
            </Position>
            <AltitudeMeters>63.799999237060546875</AltitudeMeters>
            <DistanceMeters>233520.69725042</DistanceMeters>
          </Trackpoint>
          <Trackpoint>
            <Time>2018-09-14T09:44:43.000Z</Time>
            <Position>
              <LatitudeDegrees>38.17345082759857177734375</LatitudeDegrees>
              <LongitudeDegrees>-8.14947760663926601409912109375</LongitudeDegrees>
            </Position>
            <AltitudeMeters>62.799999237060546875</AltitudeMeters>
            <DistanceMeters>233559.6816053</DistanceMeters>
          </Trackpoint>
          <Trackpoint>
            <Time>2018-09-14T09:44:45.000Z</Time>
            <Position>
              <LatitudeDegrees>38.173282854259014129638671875</LatitudeDegrees>
              <LongitudeDegrees>-8.14954382367432117462158203125</LongitudeDegrees>
            </Position>
            <AltitudeMeters>61.799999237060546875</AltitudeMeters>
            <DistanceMeters>233579.25434049</DistanceMeters>
          </Trackpoint>
          <Trackpoint>
            <Time>2018-09-14T09:44:47.000Z</Time>
            <Position>
              <LatitudeDegrees>38.17311580292880535125732421875</LatitudeDegrees>
              <LongitudeDegrees>-8.14960970543324947357177734375</LongitudeDegrees>
            </Position>
            <AltitudeMeters>61</AltitudeMeters>
            <DistanceMeters>233598.72067369</DistanceMeters>
          </Trackpoint>
          <Trackpoint>
            <Time>2018-09-14T09:44:49.000Z</Time>
            <Position>
              <LatitudeDegrees>38.172951601445674896240234375</LatitudeDegrees>
              <LongitudeDegrees>-8.14967357553541660308837890625</LongitudeDegrees>
            </Position>
            <AltitudeMeters>60.59999847412109375</AltitudeMeters>
            <DistanceMeters>233617.83191388</DistanceMeters>
          </Trackpoint>
          <Trackpoint>
            <Time>2018-09-14T09:44:51.000Z</Time>
            <Position>
              <LatitudeDegrees>38.1727908365428447723388671875</LatitudeDegrees>
              <LongitudeDegrees>-8.14973987638950347900390625</LongitudeDegrees>
            </Position>
            <AltitudeMeters>60</AltitudeMeters>
            <DistanceMeters>233636.64216336</DistanceMeters>
          </Trackpoint>
          <Trackpoint>
            <Time>2018-09-14T09:44:53.000Z</Time>
            <Position>
              <LatitudeDegrees>38.17263208329677581787109375</LatitudeDegrees>
              <LongitudeDegrees>-8.14980517141520977020263671875</LongitudeDegrees>
            </Position>
            <AltitudeMeters>59.59999847412109375</AltitudeMeters>
            <DistanceMeters>233655.21228962</DistanceMeters>
          </Trackpoint>
          <Trackpoint>
            <Time>2018-09-14T09:44:56.000Z</Time>
            <Position>
              <LatitudeDegrees>38.1723851524293422698974609375</LatitudeDegrees>
              <LongitudeDegrees>-8.1498687900602817535400390625</LongitudeDegrees>
            </Position>
            <AltitudeMeters>57.59999847412109375</AltitudeMeters>
            <DistanceMeters>233683.25402738</DistanceMeters>
          </Trackpoint>
          <Trackpoint>
            <Time>2018-09-14T09:44:58.000Z</Time>
            <Position>
              <LatitudeDegrees>38.17220971919596195220947265625</LatitudeDegrees>
              <LongitudeDegrees>-8.14987105317413806915283203125</LongitudeDegrees>
            </Position>
            <AltitudeMeters>56</AltitudeMeters>
            <DistanceMeters>233702.78126574</DistanceMeters>
          </Trackpoint>
          <Trackpoint>
            <Time>2018-09-14T09:45:00.000Z</Time>
            <Position>
              <LatitudeDegrees>38.17202447913587093353271484375</LatitudeDegrees>
              <LongitudeDegrees>-8.14984791912138462066650390625</LongitudeDegrees>
            </Position>
            <AltitudeMeters>54.200000762939453125</AltitudeMeters>
            <DistanceMeters>233723.4981792</DistanceMeters>
          </Trackpoint>
          <Trackpoint>
            <Time>2018-09-14T09:45:04.000Z</Time>
            <Position>
              <LatitudeDegrees>38.1716358102858066558837890625</LatitudeDegrees>
              <LongitudeDegrees>-8.14977700822055339813232421875</LongitudeDegrees>
            </Position>
            <AltitudeMeters>52.59999847412109375</AltitudeMeters>
            <DistanceMeters>233767.20044754</DistanceMeters>
          </Trackpoint>
          <Trackpoint>
            <Time>2018-09-14T09:45:07.000Z</Time>
            <Position>
              <LatitudeDegrees>38.17134537734091281890869140625</LatitudeDegrees>
              <LongitudeDegrees>-8.14971565268933773040771484375</LongitudeDegrees>
            </Position>
            <AltitudeMeters>52.59999847412109375</AltitudeMeters>
            <DistanceMeters>233799.96882239</DistanceMeters>
          </Trackpoint>
          <Trackpoint>
            <Time>2018-09-14T09:45:10.000Z</Time>
            <Position>
              <LatitudeDegrees>38.171087466180324554443359375</LatitudeDegrees>
              <LongitudeDegrees>-8.1496622599661350250244140625</LongitudeDegrees>
            </Position>
            <AltitudeMeters>53.200000762939453125</AltitudeMeters>
            <DistanceMeters>233829.05258625</DistanceMeters>
          </Trackpoint>
          <Trackpoint>
            <Time>2018-09-14T09:45:14.000Z</Time>
            <Position>
              <LatitudeDegrees>38.17079837433993816375732421875</LatitudeDegrees>
              <LongitudeDegrees>-8.14961456693708896636962890625</LongitudeDegrees>
            </Position>
            <AltitudeMeters>54.799999237060546875</AltitudeMeters>
            <DistanceMeters>233861.49874785</DistanceMeters>
          </Trackpoint>
          <Trackpoint>
            <Time>2018-09-14T09:45:16.000Z</Time>
            <Position>
              <LatitudeDegrees>38.17065521143376827239990234375</LatitudeDegrees>
              <LongitudeDegrees>-8.14961892552673816680908203125</LongitudeDegrees>
            </Position>
            <AltitudeMeters>56</AltitudeMeters>
            <DistanceMeters>233877.43776195</DistanceMeters>
          </Trackpoint>
          <Trackpoint>
            <Time>2018-09-14T09:45:19.000Z</Time>
            <Position>
              <LatitudeDegrees>38.17045421339571475982666015625</LatitudeDegrees>
              <LongitudeDegrees>-8.14968095161020755767822265625</LongitudeDegrees>
            </Position>
            <AltitudeMeters>58.200000762939453125</AltitudeMeters>
            <DistanceMeters>233900.45816738</DistanceMeters>
          </Trackpoint>
          <Trackpoint>
            <Time>2018-09-14T09:45:20.000Z</Time>
            <Position>
              <LatitudeDegrees>38.1703922711312770843505859375</LatitudeDegrees>
              <LongitudeDegrees>-8.14969000406563282012939453125</LongitudeDegrees>
            </Position>
            <AltitudeMeters>59.200000762939453125</AltitudeMeters>
            <DistanceMeters>233907.39706986</DistanceMeters>
          </Trackpoint>
          <Trackpoint>
            <Time>2018-09-14T09:45:24.000Z</Time>
            <Position>
              <LatitudeDegrees>38.17025455646216869354248046875</LatitudeDegrees>
              <LongitudeDegrees>-8.1494962982833385467529296875</LongitudeDegrees>
            </Position>
            <AltitudeMeters>63</AltitudeMeters>
            <DistanceMeters>233930.24956231</DistanceMeters>
          </Trackpoint>
          <Trackpoint>
            <Time>2018-09-14T09:45:31.000Z</Time>
            <Position>
              <LatitudeDegrees>38.17050777375698089599609375</LatitudeDegrees>
              <LongitudeDegrees>-8.14896211959421634674072265625</LongitudeDegrees>
            </Position>
            <AltitudeMeters>60.40000152587890625</AltitudeMeters>
            <DistanceMeters>233984.83114015</DistanceMeters>
          </Trackpoint>
          <Trackpoint>
            <Time>2018-09-14T09:45:32.000Z</Time>
            <Position>
              <LatitudeDegrees>38.1705314107239246368408203125</LatitudeDegrees>
              <LongitudeDegrees>-8.148879893124103546142578125</LongitudeDegrees>
            </Position>
            <AltitudeMeters>60</AltitudeMeters>
            <DistanceMeters>233992.49243879</DistanceMeters>
          </Trackpoint>
          <Trackpoint>
            <Time>2018-09-14T09:45:35.000Z</Time>
            <Position>
              <LatitudeDegrees>38.1705870665609836578369140625</LatitudeDegrees>
              <LongitudeDegrees>-8.14863572828471660614013671875</LongitudeDegrees>
            </Position>
            <AltitudeMeters>59.59999847412109375</AltitudeMeters>
            <DistanceMeters>234014.73741933</DistanceMeters>
          </Trackpoint>
          <Trackpoint>
            <Time>2018-09-14T09:45:36.000Z</Time>
            <Position>
              <LatitudeDegrees>38.17060299217700958251953125</LatitudeDegrees>
              <LongitudeDegrees>-8.14855635166168212890625</LongitudeDegrees>
            </Position>
            <AltitudeMeters>59.59999847412109375</AltitudeMeters>
            <DistanceMeters>234021.90611273</DistanceMeters>
          </Trackpoint>
          <Trackpoint>
            <Time>2018-09-14T09:45:46.000Z</Time>
            <Position>
              <LatitudeDegrees>38.17064012400805950164794921875</LatitudeDegrees>
              <LongitudeDegrees>-8.147834837436676025390625</LongitudeDegrees>
            </Position>
            <AltitudeMeters>59.59999847412109375</AltitudeMeters>
            <DistanceMeters>234085.17563847</DistanceMeters>
          </Trackpoint>
          <Trackpoint>
            <Time>2018-09-14T09:45:50.000Z</Time>
            <Position>
              <LatitudeDegrees>38.1706289760768413543701171875</LatitudeDegrees>
              <LongitudeDegrees>-8.14759134314954280853271484375</LongitudeDegrees>
            </Position>
            <AltitudeMeters>59.40000152587890625</AltitudeMeters>
            <DistanceMeters>234106.51839312</DistanceMeters>
          </Trackpoint>
          <Trackpoint>
            <Time>2018-09-14T09:45:54.000Z</Time>
            <Position>
              <LatitudeDegrees>38.17061414010822772979736328125</LatitudeDegrees>
              <LongitudeDegrees>-8.14738431014120578765869140625</LongitudeDegrees>
            </Position>
            <AltitudeMeters>59.799999237060546875</AltitudeMeters>
            <DistanceMeters>234124.70949483</DistanceMeters>
          </Trackpoint>
          <Trackpoint>
            <Time>2018-09-14T09:45:58.000Z</Time>
            <Position>
              <LatitudeDegrees>38.17060693167150020599365234375</LatitudeDegrees>
              <LongitudeDegrees>-8.14726528711616992950439453125</LongitudeDegrees>
            </Position>
            <AltitudeMeters>60</AltitudeMeters>
            <DistanceMeters>234135.15552009</DistanceMeters>
          </Trackpoint>
          <Trackpoint>
            <Time>2018-09-14T09:46:00.000Z</Time>
            <Position>
              <LatitudeDegrees>38.1706014834344387054443359375</LatitudeDegrees>
              <LongitudeDegrees>-8.14724751748144626617431640625</LongitudeDegrees>
            </Position>
            <AltitudeMeters>60.200000762939453125</AltitudeMeters>
            <DistanceMeters>234136.82593729</DistanceMeters>
          </Trackpoint>
          <Trackpoint>
            <Time>2018-09-14T10:05:35.000Z</Time>
            <Position>
              <LatitudeDegrees>38.17060056142508983612060546875</LatitudeDegrees>
              <LongitudeDegrees>-8.14722270704805850982666015625</LongitudeDegrees>
            </Position>
            <AltitudeMeters>60.200000762939453125</AltitudeMeters>
            <DistanceMeters>234139.00119821</DistanceMeters>
          </Trackpoint>
          <Trackpoint>
            <Time>2018-09-14T10:05:36.000Z</Time>
            <Position>
              <LatitudeDegrees>38.17060165107250213623046875</LatitudeDegrees>
              <LongitudeDegrees>-8.1471989862620830535888671875</LongitudeDegrees>
            </Position>
            <AltitudeMeters>60.200000762939453125</AltitudeMeters>
            <DistanceMeters>234141.07878733</DistanceMeters>
          </Trackpoint>
          <Trackpoint>
            <Time>2018-09-14T10:05:38.000Z</Time>
            <Position>
              <LatitudeDegrees>38.17060223780572414398193359375</LatitudeDegrees>
              <LongitudeDegrees>-8.14714240841567516326904296875</LongitudeDegrees>
            </Position>
            <AltitudeMeters>60.40000152587890625</AltitudeMeters>
            <DistanceMeters>234146.02930522</DistanceMeters>
          </Trackpoint>
          <Trackpoint>
            <Time>2018-09-14T10:05:40.000Z</Time>
            <Position>
              <LatitudeDegrees>38.17060475237667560577392578125</LatitudeDegrees>
              <LongitudeDegrees>-8.14707233570516109466552734375</LongitudeDegrees>
            </Position>
            <AltitudeMeters>60.200000762939453125</AltitudeMeters>
            <DistanceMeters>234152.16717773</DistanceMeters>
          </Trackpoint>
          <Trackpoint>
            <Time>2018-09-14T10:05:52.000Z</Time>
            <Position>
              <LatitudeDegrees>38.17054926417768001556396484375</LatitudeDegrees>
              <LongitudeDegrees>-8.146537654101848602294921875</LongitudeDegrees>
            </Position>
            <AltitudeMeters>59.59999847412109375</AltitudeMeters>
            <DistanceMeters>234199.35920835</DistanceMeters>
          </Trackpoint>
          <Trackpoint>
            <Time>2018-09-14T10:05:57.000Z</Time>
            <Position>
              <LatitudeDegrees>38.1704707257449626922607421875</LatitudeDegrees>
              <LongitudeDegrees>-8.14629935659468173980712890625</LongitudeDegrees>
            </Position>
            <AltitudeMeters>60</AltitudeMeters>
            <DistanceMeters>234221.96897742</DistanceMeters>
          </Trackpoint>
          <Trackpoint>
            <Time>2018-09-14T10:06:01.000Z</Time>
            <Position>
              <LatitudeDegrees>38.17038497887551784515380859375</LatitudeDegrees>
              <LongitudeDegrees>-8.14612367190420627593994140625</LongitudeDegrees>
            </Position>
            <AltitudeMeters>60.40000152587890625</AltitudeMeters>
            <DistanceMeters>234240.06302206</DistanceMeters>
          </Trackpoint>
          <Trackpoint>
            <Time>2018-09-14T10:06:06.000Z</Time>
            <Position>
              <LatitudeDegrees>38.170273415744304656982421875</LatitudeDegrees>
              <LongitudeDegrees>-8.1459125317633152008056640625</LongitudeDegrees>
            </Position>
            <AltitudeMeters>61.200000762939453125</AltitudeMeters>
            <DistanceMeters>234262.32322006</DistanceMeters>
          </Trackpoint>
          <Trackpoint>
            <Time>2018-09-14T10:06:11.000Z</Time>
            <Position>
              <LatitudeDegrees>38.1701542250812053680419921875</LatitudeDegrees>
              <LongitudeDegrees>-8.145698793232440948486328125</LongitudeDegrees>
            </Position>
            <AltitudeMeters>61.200000762939453125</AltitudeMeters>
            <DistanceMeters>234285.25322728</DistanceMeters>
          </Trackpoint>
          <Trackpoint>
            <Time>2018-09-14T10:06:15.000Z</Time>
            <Position>
              <LatitudeDegrees>38.1700623594224452972412109375</LatitudeDegrees>
              <LongitudeDegrees>-8.14552855677902698516845703125</LongitudeDegrees>
            </Position>
            <AltitudeMeters>61</AltitudeMeters>
            <DistanceMeters>234303.32130198</DistanceMeters>
          </Trackpoint>
          <Trackpoint>
            <Time>2018-09-14T10:06:29.000Z</Time>
            <Position>
              <LatitudeDegrees>38.16974862478673458099365234375</LatitudeDegrees>
              <LongitudeDegrees>-8.14493763260543346405029296875</LongitudeDegrees>
            </Position>
            <AltitudeMeters>63</AltitudeMeters>
            <DistanceMeters>234365.71572975</DistanceMeters>
          </Trackpoint>
          <Trackpoint>
            <Time>2018-09-14T10:06:34.000Z</Time>
            <Position>
              <LatitudeDegrees>38.16963228397071361541748046875</LatitudeDegrees>
              <LongitudeDegrees>-8.1447382271289825439453125</LongitudeDegrees>
            </Position>
            <AltitudeMeters>64.8000030517578125</AltitudeMeters>
            <DistanceMeters>234387.44424827</DistanceMeters>
          </Trackpoint>
          <Trackpoint>
            <Time>2018-09-14T10:06:37.000Z</Time>
            <Position>
              <LatitudeDegrees>38.16955232061445713043212890625</LatitudeDegrees>
              <LongitudeDegrees>-8.14462347887456417083740234375</LongitudeDegrees>
            </Position>
            <AltitudeMeters>63.40000152587890625</AltitudeMeters>
            <DistanceMeters>234400.86187228</DistanceMeters>
          </Trackpoint>
          <Trackpoint>
            <Time>2018-09-14T10:06:51.000Z</Time>
            <Position>
              <LatitudeDegrees>38.16905275918543338775634765625</LatitudeDegrees>
              <LongitudeDegrees>-8.14426758326590061187744140625</LongitudeDegrees>
            </Position>
            <AltitudeMeters>59.799999237060546875</AltitudeMeters>
            <DistanceMeters>234464.59136664</DistanceMeters>
          </Trackpoint>
          <Trackpoint>
            <Time>2018-09-14T10:06:52.000Z</Time>
            <Position>
              <LatitudeDegrees>38.16901101730763912200927734375</LatitudeDegrees>
              <LongitudeDegrees>-8.14424998126924037933349609375</LongitudeDegrees>
            </Position>
            <AltitudeMeters>60</AltitudeMeters>
            <DistanceMeters>234469.4868567</DistanceMeters>
          </Trackpoint>
          <Trackpoint>
            <Time>2018-09-14T10:07:04.000Z</Time>
            <Position>
              <LatitudeDegrees>38.1685100309550762176513671875</LatitudeDegrees>
              <LongitudeDegrees>-8.144037835299968719482421875</LongitudeDegrees>
            </Position>
            <AltitudeMeters>61.40000152587890625</AltitudeMeters>
            <DistanceMeters>234528.25671189</DistanceMeters>
          </Trackpoint>
          <Trackpoint>
            <Time>2018-09-14T10:07:12.000Z</Time>
            <Position>
              <LatitudeDegrees>38.168182633817195892333984375</LatitudeDegrees>
              <LongitudeDegrees>-8.143899030983448028564453125</LongitudeDegrees>
            </Position>
            <AltitudeMeters>62.40000152587890625</AltitudeMeters>
            <DistanceMeters>234566.66772762</DistanceMeters>
          </Trackpoint>
          <Trackpoint>
            <Time>2018-09-14T10:07:25.000Z</Time>
            <Position>
              <LatitudeDegrees>38.16762632690370082855224609375</LatitudeDegrees>
              <LongitudeDegrees>-8.14366492442786693572998046875</LongitudeDegrees>
            </Position>
            <AltitudeMeters>62.40000152587890625</AltitudeMeters>
            <DistanceMeters>234631.88666006</DistanceMeters>
          </Trackpoint>
          <Trackpoint>
            <Time>2018-09-14T10:07:28.000Z</Time>
            <Position>
              <LatitudeDegrees>38.1674941442906856536865234375</LatitudeDegrees>
              <LongitudeDegrees>-8.1436101906001567840576171875</LongitudeDegrees>
            </Position>
            <AltitudeMeters>62.40000152587890625</AltitudeMeters>
            <DistanceMeters>234647.35880686</DistanceMeters>
          </Trackpoint>
          <Trackpoint>
            <Time>2018-09-14T10:07:38.000Z</Time>
            <Position>
              <LatitudeDegrees>38.1670336425304412841796875</LatitudeDegrees>
              <LongitudeDegrees>-8.143410198390483856201171875</LongitudeDegrees>
            </Position>
            <AltitudeMeters>64.40000152587890625</AltitudeMeters>
            <DistanceMeters>234701.51894905</DistanceMeters>
          </Trackpoint>
          <Trackpoint>
            <Time>2018-09-14T10:07:44.000Z</Time>
            <Position>
              <LatitudeDegrees>38.16676064394414424896240234375</LatitudeDegrees>
              <LongitudeDegrees>-8.1433040834963321685791015625</LongitudeDegrees>
            </Position>
            <AltitudeMeters>65.59999847412109375</AltitudeMeters>
            <DistanceMeters>234733.29142622</DistanceMeters>
          </Trackpoint>
          <Trackpoint>
            <Time>2018-09-14T10:07:52.000Z</Time>
            <Position>
              <LatitudeDegrees>38.16640323959290981292724609375</LatitudeDegrees>
              <LongitudeDegrees>-8.143172152340412139892578125</LongitudeDegrees>
            </Position>
            <AltitudeMeters>66.8000030517578125</AltitudeMeters>
            <DistanceMeters>234774.71271971</DistanceMeters>
          </Trackpoint>
          <Trackpoint>
            <Time>2018-09-14T10:07:57.000Z</Time>
            <Position>
              <LatitudeDegrees>38.16617793403565883636474609375</LatitudeDegrees>
              <LongitudeDegrees>-8.14310618676245212554931640625</LongitudeDegrees>
            </Position>
            <AltitudeMeters>67.59999847412109375</AltitudeMeters>
            <DistanceMeters>234800.44549076</DistanceMeters>
          </Trackpoint>
          <Trackpoint>
            <Time>2018-09-14T10:08:03.000Z</Time>
            <Position>
              <LatitudeDegrees>38.16590367816388607025146484375</LatitudeDegrees>
              <LongitudeDegrees>-8.14304198138415813446044921875</LongitudeDegrees>
            </Position>
            <AltitudeMeters>68.1999969482421875</AltitudeMeters>
            <DistanceMeters>234831.48360725</DistanceMeters>
          </Trackpoint>
          <Trackpoint>
            <Time>2018-09-14T10:08:08.000Z</Time>
            <Position>
              <LatitudeDegrees>38.16568071953952312469482421875</LatitudeDegrees>
              <LongitudeDegrees>-8.14298330806195735931396484375</LongitudeDegrees>
            </Position>
            <AltitudeMeters>68.1999969482421875</AltitudeMeters>
            <DistanceMeters>234856.82493548</DistanceMeters>
          </Trackpoint>
          <Trackpoint>
            <Time>2018-09-14T10:08:09.000Z</Time>
            <Position>
              <LatitudeDegrees>38.1656360439956188201904296875</LatitudeDegrees>
              <LongitudeDegrees>-8.1429751776158809661865234375</LongitudeDegrees>
            </Position>
            <AltitudeMeters>68.1999969482421875</AltitudeMeters>
            <DistanceMeters>234861.84788616</DistanceMeters>
          </Trackpoint>
          <Trackpoint>
            <Time>2018-09-14T10:08:21.000Z</Time>
            <Position>
              <LatitudeDegrees>38.16507822833955287933349609375</LatitudeDegrees>
              <LongitudeDegrees>-8.1428447552025318145751953125</LongitudeDegrees>
            </Position>
            <AltitudeMeters>68.1999969482421875</AltitudeMeters>
            <DistanceMeters>234924.97424052</DistanceMeters>
          </Trackpoint>
          <Trackpoint>
            <Time>2018-09-14T10:08:29.000Z</Time>
            <Position>
              <LatitudeDegrees>38.1647103466093540191650390625</LatitudeDegrees>
              <LongitudeDegrees>-8.14276210963726043701171875</LongitudeDegrees>
            </Position>
            <AltitudeMeters>68.59999847412109375</AltitudeMeters>
            <DistanceMeters>234966.55404783</DistanceMeters>
          </Trackpoint>
          <Trackpoint>
            <Time>2018-09-14T10:08:41.000Z</Time>
            <Position>
              <LatitudeDegrees>38.1641397066414356231689453125</LatitudeDegrees>
              <LongitudeDegrees>-8.14262925647199153900146484375</LongitudeDegrees>
            </Position>
            <AltitudeMeters>69.8000030517578125</AltitudeMeters>
            <DistanceMeters>235031.12258501</DistanceMeters>
          </Trackpoint>
          <Trackpoint>
            <Time>2018-09-14T10:08:50.000Z</Time>
            <Position>
              <LatitudeDegrees>38.16369940526783466339111328125</LatitudeDegrees>
              <LongitudeDegrees>-8.14253068529069423675537109375</LongitudeDegrees>
            </Position>
            <AltitudeMeters>71.59999847412109375</AltitudeMeters>
            <DistanceMeters>235080.88229663</DistanceMeters>
          </Trackpoint>
          <Trackpoint>
            <Time>2018-09-14T10:09:01.000Z</Time>
            <Position>
              <LatitudeDegrees>38.1631546653807163238525390625</LatitudeDegrees>
              <LongitudeDegrees>-8.14240009523928165435791015625</LongitudeDegrees>
            </Position>
            <AltitudeMeters>72.8000030517578125</AltitudeMeters>
            <DistanceMeters>235142.58061837</DistanceMeters>
          </Trackpoint>
          <Trackpoint>
            <Time>2018-09-14T10:09:08.000Z</Time>
            <Position>
              <LatitudeDegrees>38.1628046371042728424072265625</LatitudeDegrees>
              <LongitudeDegrees>-8.14231912605464458465576171875</LongitudeDegrees>
            </Position>
            <AltitudeMeters>73.40000152587890625</AltitudeMeters>
            <DistanceMeters>235182.17860486</DistanceMeters>
          </Trackpoint>
          <Trackpoint>
            <Time>2018-09-14T10:09:17.000Z</Time>
            <Position>
              <LatitudeDegrees>38.1623369269073009490966796875</LatitudeDegrees>
              <LongitudeDegrees>-8.1422141008079051971435546875</LongitudeDegrees>
            </Position>
            <AltitudeMeters>75</AltitudeMeters>
            <DistanceMeters>235235.04079679</DistanceMeters>
          </Trackpoint>
          <Trackpoint>
            <Time>2018-09-14T10:09:24.000Z</Time>
            <Position>
              <LatitudeDegrees>38.16196083091199398040771484375</LatitudeDegrees>
              <LongitudeDegrees>-8.14212734811007976531982421875</LongitudeDegrees>
            </Position>
            <AltitudeMeters>75.59999847412109375</AltitudeMeters>
            <DistanceMeters>235277.58390765</DistanceMeters>
          </Trackpoint>
          <Trackpoint>
            <Time>2018-09-14T10:09:34.000Z</Time>
            <Position>
              <LatitudeDegrees>38.161412738263607025146484375</LatitudeDegrees>
              <LongitudeDegrees>-8.1420062296092510223388671875</LongitudeDegrees>
            </Position>
            <AltitudeMeters>76.1999969482421875</AltitudeMeters>
            <DistanceMeters>235339.50181552</DistanceMeters>
          </Trackpoint>
          <Trackpoint>
            <Time>2018-09-14T10:09:44.000Z</Time>
            <Position>
              <LatitudeDegrees>38.16084804944694042205810546875</LatitudeDegrees>
              <LongitudeDegrees>-8.14187563955783843994140625</LongitudeDegrees>
            </Position>
            <AltitudeMeters>76.59999847412109375</AltitudeMeters>
            <DistanceMeters>235403.38337849</DistanceMeters>
          </Trackpoint>
          <Trackpoint>
            <Time>2018-09-14T10:09:50.000Z</Time>
            <Position>
              <LatitudeDegrees>38.1605090014636516571044921875</LatitudeDegrees>
              <LongitudeDegrees>-8.1417963467538356781005859375</LongitudeDegrees>
            </Position>
            <AltitudeMeters>77.59999847412109375</AltitudeMeters>
            <DistanceMeters>235441.75264292</DistanceMeters>
          </Trackpoint>
          <Trackpoint>
            <Time>2018-09-14T10:10:00.000Z</Time>
            <Position>
              <LatitudeDegrees>38.15995437093079090118408203125</LatitudeDegrees>
              <LongitudeDegrees>-8.141671456396579742431640625</LongitudeDegrees>
            </Position>
            <AltitudeMeters>79.1999969482421875</AltitudeMeters>
            <DistanceMeters>235504.44428065</DistanceMeters>
          </Trackpoint>
          <Trackpoint>
            <Time>2018-09-14T10:10:10.000Z</Time>
            <Position>
              <LatitudeDegrees>38.1593868322670459747314453125</LatitudeDegrees>
              <LongitudeDegrees>-8.141536675393581390380859375</LongitudeDegrees>
            </Position>
            <AltitudeMeters>81</AltitudeMeters>
            <DistanceMeters>235568.70440559</DistanceMeters>
          </Trackpoint>
          <Trackpoint>
            <Time>2018-09-14T10:10:12.000Z</Time>
            <Position>
              <LatitudeDegrees>38.15927141346037387847900390625</LatitudeDegrees>
              <LongitudeDegrees>-8.14150951802730560302734375</LongitudeDegrees>
            </Position>
            <AltitudeMeters>81.59999847412109375</AltitudeMeters>
            <DistanceMeters>235581.76911013</DistanceMeters>
          </Trackpoint>
          <Trackpoint>
            <Time>2018-09-14T10:10:20.000Z</Time>
            <Position>
              <LatitudeDegrees>38.15880856476724147796630859375</LatitudeDegrees>
              <LongitudeDegrees>-8.1413983739912509918212890625</LongitudeDegrees>
            </Position>
            <AltitudeMeters>81.8000030517578125</AltitudeMeters>
            <DistanceMeters>235634.19544405</DistanceMeters>
          </Trackpoint>
          <Trackpoint>
            <Time>2018-09-14T10:10:21.000Z</Time>
            <Position>
              <LatitudeDegrees>38.158751316368579864501953125</LatitudeDegrees>
              <LongitudeDegrees>-8.141385130584239959716796875</LongitudeDegrees>
            </Position>
            <AltitudeMeters>82</AltitudeMeters>
            <DistanceMeters>235640.67261435</DistanceMeters>
          </Trackpoint>
          <Trackpoint>
            <Time>2018-09-14T10:10:30.000Z</Time>
            <Position>
              <LatitudeDegrees>38.158229291439056396484375</LatitudeDegrees>
              <LongitudeDegrees>-8.14126065932214260101318359375</LongitudeDegrees>
            </Position>
            <AltitudeMeters>83.1999969482421875</AltitudeMeters>
            <DistanceMeters>235699.78748002</DistanceMeters>
          </Trackpoint>
          <Trackpoint>
            <Time>2018-09-14T10:10:40.000Z</Time>
            <Position>
              <LatitudeDegrees>38.15765303559601306915283203125</LatitudeDegrees>
              <LongitudeDegrees>-8.1411311589181423187255859375</LongitudeDegrees>
            </Position>
            <AltitudeMeters>83.40000152587890625</AltitudeMeters>
            <DistanceMeters>235764.9195415</DistanceMeters>
          </Trackpoint>
          <Trackpoint>
            <Time>2018-09-14T10:10:41.000Z</Time>
            <Position>
              <LatitudeDegrees>38.15759587101638317108154296875</LatitudeDegrees>
              <LongitudeDegrees>-8.14111967571079730987548828125</LongitudeDegrees>
            </Position>
            <AltitudeMeters>83.40000152587890625</AltitudeMeters>
            <DistanceMeters>235771.36036219</DistanceMeters>
          </Trackpoint>
          <Trackpoint>
            <Time>2018-09-14T10:10:48.000Z</Time>
            <Position>
              <LatitudeDegrees>38.15719194710254669189453125</LatitudeDegrees>
              <LongitudeDegrees>-8.141029067337512969970703125</LongitudeDegrees>
            </Position>
            <AltitudeMeters>84.1999969482421875</AltitudeMeters>
            <DistanceMeters>235817.01187227</DistanceMeters>
          </Trackpoint>
          <Trackpoint>
            <Time>2018-09-14T10:10:55.000Z</Time>
            <Position>
              <LatitudeDegrees>38.1567917950451374053955078125</LatitudeDegrees>
              <LongitudeDegrees>-8.14093929715454578399658203125</LongitudeDegrees>
            </Position>
            <AltitudeMeters>85</AltitudeMeters>
            <DistanceMeters>235862.23730101</DistanceMeters>
          </Trackpoint>
          <Trackpoint>
            <Time>2018-09-14T10:11:05.000Z</Time>
            <Position>
              <LatitudeDegrees>38.156224675476551055908203125</LatitudeDegrees>
              <LongitudeDegrees>-8.14081340096890926361083984375</LongitudeDegrees>
            </Position>
            <AltitudeMeters>85</AltitudeMeters>
            <DistanceMeters>235926.3133572</DistanceMeters>
          </Trackpoint>
          <Trackpoint>
            <Time>2018-09-14T10:11:09.000Z</Time>
            <Position>
              <LatitudeDegrees>38.15599299967288970947265625</LatitudeDegrees>
              <LongitudeDegrees>-8.14075120724737644195556640625</LongitudeDegrees>
            </Position>
            <AltitudeMeters>85.1999969482421875</AltitudeMeters>
            <DistanceMeters>235952.66764205</DistanceMeters>
          </Trackpoint>
          <Trackpoint>
            <Time>2018-09-14T10:11:19.000Z</Time>
            <Position>
              <LatitudeDegrees>38.1554188393056392669677734375</LatitudeDegrees>
              <LongitudeDegrees>-8.14062128774821758270263671875</LongitudeDegrees>
            </Position>
            <AltitudeMeters>86.59999847412109375</AltitudeMeters>
            <DistanceMeters>236017.57652254</DistanceMeters>
          </Trackpoint>
          <Trackpoint>
            <Time>2018-09-14T10:11:20.000Z</Time>
            <Position>
              <LatitudeDegrees>38.155361674726009368896484375</LatitudeDegrees>
              <LongitudeDegrees>-8.1406081281602382659912109375</LongitudeDegrees>
            </Position>
            <AltitudeMeters>86.8000030517578125</AltitudeMeters>
            <DistanceMeters>236024.0418318</DistanceMeters>
          </Trackpoint>
          <Trackpoint>
            <Time>2018-09-14T10:11:30.000Z</Time>
            <Position>
              <LatitudeDegrees>38.15481953322887420654296875</LatitudeDegrees>
              <LongitudeDegrees>-8.14046672545373439788818359375</LongitudeDegrees>
            </Position>
            <AltitudeMeters>89.59999847412109375</AltitudeMeters>
            <DistanceMeters>236085.63922996</DistanceMeters>
          </Trackpoint>
          <Trackpoint>
            <Time>2018-09-14T10:11:33.000Z</Time>
            <Position>
              <LatitudeDegrees>38.154662288725376129150390625</LatitudeDegrees>
              <LongitudeDegrees>-8.14043127000331878662109375</LongitudeDegrees>
            </Position>
            <AltitudeMeters>90</AltitudeMeters>
            <DistanceMeters>236103.41379844</DistanceMeters>
          </Trackpoint>
          <Trackpoint>
            <Time>2018-09-14T10:11:44.000Z</Time>
            <Position>
              <LatitudeDegrees>38.1540985219180583953857421875</LatitudeDegrees>
              <LongitudeDegrees>-8.1403043679893016815185546875</LongitudeDegrees>
            </Position>
            <AltitudeMeters>91.59999847412109375</AltitudeMeters>
            <DistanceMeters>236167.13755395</DistanceMeters>
          </Trackpoint>
          <Trackpoint>
            <Time>2018-09-14T10:11:47.000Z</Time>
            <Position>
              <LatitudeDegrees>38.15394655801355838775634765625</LatitudeDegrees>
              <LongitudeDegrees>-8.14026891253888607025146484375</LongitudeDegrees>
            </Position>
            <AltitudeMeters>92.1999969482421875</AltitudeMeters>
            <DistanceMeters>236184.33397635</DistanceMeters>
          </Trackpoint>
          <Trackpoint>
            <Time>2018-09-14T10:11:51.000Z</Time>
            <Position>
              <LatitudeDegrees>38.15374472178518772125244140625</LatitudeDegrees>
              <LongitudeDegrees>-8.14023052342236042022705078125</LongitudeDegrees>
            </Position>
            <AltitudeMeters>93</AltitudeMeters>
            <DistanceMeters>236207.04854167</DistanceMeters>
          </Trackpoint>
          <Trackpoint>
            <Time>2018-09-14T10:11:55.000Z</Time>
            <Position>
              <LatitudeDegrees>38.1535496748983860015869140625</LatitudeDegrees>
              <LongitudeDegrees>-8.140194900333881378173828125</LongitudeDegrees>
            </Position>
            <AltitudeMeters>93.59999847412109375</AltitudeMeters>
            <DistanceMeters>236228.98057559</DistanceMeters>
          </Trackpoint>
          <Trackpoint>
            <Time>2018-09-14T10:12:02.000Z</Time>
            <Position>
              <LatitudeDegrees>38.153215236961841583251953125</LatitudeDegrees>
              <LongitudeDegrees>-8.14012323506176471710205078125</LongitudeDegrees>
            </Position>
            <AltitudeMeters>94.59999847412109375</AltitudeMeters>
            <DistanceMeters>236266.72903335</DistanceMeters>
          </Trackpoint>
          <Trackpoint>
            <Time>2018-09-14T10:12:09.000Z</Time>
            <Position>
              <LatitudeDegrees>38.15287635661661624908447265625</LatitudeDegrees>
              <LongitudeDegrees>-8.1400378234684467315673828125</LongitudeDegrees>
            </Position>
            <AltitudeMeters>95.1999969482421875</AltitudeMeters>
            <DistanceMeters>236305.18069828</DistanceMeters>
          </Trackpoint>
          <Trackpoint>
            <Time>2018-09-14T10:12:19.000Z</Time>
            <Position>
              <LatitudeDegrees>38.1523889489471912384033203125</LatitudeDegrees>
              <LongitudeDegrees>-8.13991628587245941162109375</LongitudeDegrees>
            </Position>
            <AltitudeMeters>96.1999969482421875</AltitudeMeters>
            <DistanceMeters>236360.46321932</DistanceMeters>
          </Trackpoint>
          <Trackpoint>
            <Time>2018-09-14T10:12:26.000Z</Time>
            <Position>
              <LatitudeDegrees>38.15203682519495487213134765625</LatitudeDegrees>
              <LongitudeDegrees>-8.13983992673456668853759765625</LongitudeDegrees>
            </Position>
            <AltitudeMeters>96.8000030517578125</AltitudeMeters>
            <DistanceMeters>236400.22097028</DistanceMeters>
          </Trackpoint>
          <Trackpoint>
            <Time>2018-09-14T10:12:28.000Z</Time>
            <Position>
              <LatitudeDegrees>38.15193640999495983123779296875</LatitudeDegrees>
              <LongitudeDegrees>-8.13982240855693817138671875</LongitudeDegrees>
            </Position>
            <AltitudeMeters>97.1999969482421875</AltitudeMeters>
            <DistanceMeters>236411.50156588</DistanceMeters>
          </Trackpoint>
          <Trackpoint>
            <Time>2018-09-14T10:12:34.000Z</Time>
            <Position>
              <LatitudeDegrees>38.1516557000577449798583984375</LatitudeDegrees>
              <LongitudeDegrees>-8.1397632323205471038818359375</LongitudeDegrees>
            </Position>
            <AltitudeMeters>99</AltitudeMeters>
            <DistanceMeters>236443.17156195</DistanceMeters>
          </Trackpoint>
          <Trackpoint>
            <Time>2018-09-14T10:12:40.000Z</Time>
            <Position>
              <LatitudeDegrees>38.1514062546193599700927734375</LatitudeDegrees>
              <LongitudeDegrees>-8.13970766030251979827880859375</LongitudeDegrees>
            </Position>
            <AltitudeMeters>100.59999847412109375</AltitudeMeters>
            <DistanceMeters>236471.3581578</DistanceMeters>
          </Trackpoint>
          <Trackpoint>
            <Time>2018-09-14T10:12:48.000Z</Time>
            <Position>
              <LatitudeDegrees>38.151116073131561279296875</LatitudeDegrees>
              <LongitudeDegrees>-8.13963976688683032989501953125</LongitudeDegrees>
            </Position>
            <AltitudeMeters>102</AltitudeMeters>
            <DistanceMeters>236504.19810344</DistanceMeters>
          </Trackpoint>
          <Trackpoint>
            <Time>2018-09-14T10:12:52.000Z</Time>
            <Position>
              <LatitudeDegrees>38.1509710662066936492919921875</LatitudeDegrees>
              <LongitudeDegrees>-8.1396017968654632568359375</LongitudeDegrees>
            </Position>
            <AltitudeMeters>102.59999847412109375</AltitudeMeters>
            <DistanceMeters>236520.67640428</DistanceMeters>
          </Trackpoint>
          <Trackpoint>
            <Time>2018-09-14T10:12:57.000Z</Time>
            <Position>
              <LatitudeDegrees>38.15079010091722011566162109375</LatitudeDegrees>
              <LongitudeDegrees>-8.13955963589251041412353515625</LongitudeDegrees>
            </Position>
            <AltitudeMeters>102.8000030517578125</AltitudeMeters>
            <DistanceMeters>236541.15350368</DistanceMeters>
          </Trackpoint>
          <Trackpoint>
            <Time>2018-09-14T10:13:02.000Z</Time>
            <Position>
              <LatitudeDegrees>38.15061827190220355987548828125</LatitudeDegrees>
              <LongitudeDegrees>-8.13951739110052585601806640625</LongitudeDegrees>
            </Position>
            <AltitudeMeters>103.1999969482421875</AltitudeMeters>
            <DistanceMeters>236560.63282123</DistanceMeters>
          </Trackpoint>
          <Trackpoint>
            <Time>2018-09-14T10:13:09.000Z</Time>
            <Position>
              <LatitudeDegrees>38.150364048779010772705078125</LatitudeDegrees>
              <LongitudeDegrees>-8.1394542753696441650390625</LongitudeDegrees>
            </Position>
            <AltitudeMeters>104</AltitudeMeters>
            <DistanceMeters>236589.46274243</DistanceMeters>
          </Trackpoint>
          <Trackpoint>
            <Time>2018-09-14T10:13:16.000Z</Time>
            <Position>
              <LatitudeDegrees>38.15008484758436679840087890625</LatitudeDegrees>
              <LongitudeDegrees>-8.13939333893358707427978515625</LongitudeDegrees>
            </Position>
            <AltitudeMeters>104.59999847412109375</AltitudeMeters>
            <DistanceMeters>236620.99271508</DistanceMeters>
          </Trackpoint>
          <Trackpoint>
            <Time>2018-09-14T10:13:27.000Z</Time>
            <Position>
              <LatitudeDegrees>38.149547986686229705810546875</LatitudeDegrees>
              <LongitudeDegrees>-8.13926853239536285400390625</LongitudeDegrees>
            </Position>
            <AltitudeMeters>105</AltitudeMeters>
            <DistanceMeters>236681.73671657</DistanceMeters>
          </Trackpoint>
          <Trackpoint>
            <Time>2018-09-14T10:13:33.000Z</Time>
            <Position>
              <LatitudeDegrees>38.149230815470218658447265625</LatitudeDegrees>
              <LongitudeDegrees>-8.1391919218003749847412109375</LongitudeDegrees>
            </Position>
            <AltitudeMeters>105</AltitudeMeters>
            <DistanceMeters>236717.66963338</DistanceMeters>
          </Trackpoint>
          <Trackpoint>
            <Time>2018-09-14T10:13:37.000Z</Time>
            <Position>
              <LatitudeDegrees>38.14901397563517093658447265625</LatitudeDegrees>
              <LongitudeDegrees>-8.13914355821907520294189453125</LongitudeDegrees>
            </Position>
            <AltitudeMeters>104.8000030517578125</AltitudeMeters>
            <DistanceMeters>236742.17289403</DistanceMeters>
          </Trackpoint>
          <Trackpoint>
            <Time>2018-09-14T10:13:43.000Z</Time>
            <Position>
              <LatitudeDegrees>38.148671574890613555908203125</LatitudeDegrees>
              <LongitudeDegrees>-8.1390514411032199859619140625</LongitudeDegrees>
            </Position>
            <AltitudeMeters>104.59999847412109375</AltitudeMeters>
            <DistanceMeters>236781.1264295</DistanceMeters>
          </Trackpoint>
          <Trackpoint>
            <Time>2018-09-14T10:13:47.000Z</Time>
            <Position>
              <LatitudeDegrees>38.1484343670308589935302734375</LatitudeDegrees>
              <LongitudeDegrees>-8.13898866064846515655517578125</LongitudeDegrees>
            </Position>
            <AltitudeMeters>104.40000152587890625</AltitudeMeters>
            <DistanceMeters>236808.09393284</DistanceMeters>
          </Trackpoint>
          <Trackpoint>
            <Time>2018-09-14T10:13:53.000Z</Time>
            <Position>
              <LatitudeDegrees>38.14807218499481678009033203125</LatitudeDegrees>
              <LongitudeDegrees>-8.13891406171023845672607421875</LongitudeDegrees>
            </Position>
            <AltitudeMeters>104.40000152587890625</AltitudeMeters>
            <DistanceMeters>236848.9308825</DistanceMeters>
          </Trackpoint>
          <Trackpoint>
            <Time>2018-09-14T10:13:56.000Z</Time>
            <Position>
              <LatitudeDegrees>38.14789985306560993194580078125</LatitudeDegrees>
              <LongitudeDegrees>-8.138878606259822845458984375</LongitudeDegrees>
            </Position>
            <AltitudeMeters>104.59999847412109375</AltitudeMeters>
            <DistanceMeters>236868.3612316</DistanceMeters>
          </Trackpoint>
          <Trackpoint>
            <Time>2018-09-14T10:13:59.000Z</Time>
            <Position>
              <LatitudeDegrees>38.147731460630893707275390625</LatitudeDegrees>
              <LongitudeDegrees>-8.13883560709655284881591796875</LongitudeDegrees>
            </Position>
            <AltitudeMeters>105</AltitudeMeters>
            <DistanceMeters>236887.4776686</DistanceMeters>
          </Trackpoint>
          <Trackpoint>
            <Time>2018-09-14T10:14:04.000Z</Time>
            <Position>
              <LatitudeDegrees>38.14745879732072353363037109375</LatitudeDegrees>
              <LongitudeDegrees>-8.13876939006149768829345703125</LongitudeDegrees>
            </Position>
            <AltitudeMeters>105.40000152587890625</AltitudeMeters>
            <DistanceMeters>236918.37406711</DistanceMeters>
          </Trackpoint>
          <Trackpoint>
            <Time>2018-09-14T10:14:14.000Z</Time>
            <Position>
              <LatitudeDegrees>38.14691372215747833251953125</LatitudeDegrees>
              <LongitudeDegrees>-8.13864131458103656768798828125</LongitudeDegrees>
            </Position>
            <AltitudeMeters>105.8000030517578125</AltitudeMeters>
            <DistanceMeters>236980.06902251</DistanceMeters>
          </Trackpoint>
          <Trackpoint>
            <Time>2018-09-14T10:14:23.000Z</Time>
            <Position>
              <LatitudeDegrees>38.1463740952312946319580078125</LatitudeDegrees>
              <LongitudeDegrees>-8.138507120311260223388671875</LongitudeDegrees>
            </Position>
            <AltitudeMeters>105.40000152587890625</AltitudeMeters>
            <DistanceMeters>237041.26843988</DistanceMeters>
          </Trackpoint>
          <Trackpoint>
            <Time>2018-09-14T10:14:27.000Z</Time>
            <Position>
              <LatitudeDegrees>38.14612188376486301422119140625</LatitudeDegrees>
              <LongitudeDegrees>-8.1384435854852199554443359375</LongitudeDegrees>
            </Position>
            <AltitudeMeters>105.1999969482421875</AltitudeMeters>
            <DistanceMeters>237069.88552626</DistanceMeters>
          </Trackpoint>
          <Trackpoint>
            <Time>2018-09-14T10:14:31.000Z</Time>
            <Position>
              <LatitudeDegrees>38.14586807973682880401611328125</LatitudeDegrees>
              <LongitudeDegrees>-8.138383738696575164794921875</LongitudeDegrees>
            </Position>
            <AltitudeMeters>104.8000030517578125</AltitudeMeters>
            <DistanceMeters>237098.61598549</DistanceMeters>
          </Trackpoint>
          <Trackpoint>
            <Time>2018-09-14T10:14:33.000Z</Time>
            <Position>
              <LatitudeDegrees>38.1457434408366680145263671875</LatitudeDegrees>
              <LongitudeDegrees>-8.13835348002612590789794921875</LongitudeDegrees>
            </Position>
            <AltitudeMeters>104.8000030517578125</AltitudeMeters>
            <DistanceMeters>237112.73888635</DistanceMeters>
          </Trackpoint>
          <Trackpoint>
            <Time>2018-09-14T10:14:41.000Z</Time>
            <Position>
              <LatitudeDegrees>38.1452351622283458709716796875</LatitudeDegrees>
              <LongitudeDegrees>-8.13824258744716644287109375</LongitudeDegrees>
            </Position>
            <AltitudeMeters>104.8000030517578125</AltitudeMeters>
            <DistanceMeters>237170.13808966</DistanceMeters>
          </Trackpoint>
          <Trackpoint>
            <Time>2018-09-14T10:14:47.000Z</Time>
            <Position>
              <LatitudeDegrees>38.144832663238048553466796875</LatitudeDegrees>
              <LongitudeDegrees>-8.138143680989742279052734375</LongitudeDegrees>
            </Position>
            <AltitudeMeters>104.8000030517578125</AltitudeMeters>
            <DistanceMeters>237215.76585702</DistanceMeters>
          </Trackpoint>
          <Trackpoint>
            <Time>2018-09-14T10:14:55.000Z</Time>
            <Position>
              <LatitudeDegrees>38.14428054727613925933837890625</LatitudeDegrees>
              <LongitudeDegrees>-8.13801149837672710418701171875</LongitudeDegrees>
            </Position>
            <AltitudeMeters>103.59999847412109375</AltitudeMeters>
            <DistanceMeters>237278.29726202</DistanceMeters>
          </Trackpoint>
          <Trackpoint>
            <Time>2018-09-14T10:14:58.000Z</Time>
            <Position>
              <LatitudeDegrees>38.144067563116550445556640625</LatitudeDegrees>
              <LongitudeDegrees>-8.1379614584147930145263671875</LongitudeDegrees>
            </Position>
            <AltitudeMeters>104.1999969482421875</AltitudeMeters>
            <DistanceMeters>237302.40409922</DistanceMeters>
          </Trackpoint>
          <Trackpoint>
            <Time>2018-09-14T10:15:03.000Z</Time>
            <Position>
              <LatitudeDegrees>38.14370269887149333953857421875</LatitudeDegrees>
              <LongitudeDegrees>-8.13786498270928859710693359375</LongitudeDegrees>
            </Position>
            <AltitudeMeters>104.40000152587890625</AltitudeMeters>
            <DistanceMeters>237343.88301513</DistanceMeters>
          </Trackpoint>
          <Trackpoint>
            <Time>2018-09-14T10:15:11.000Z</Time>
            <Position>
              <LatitudeDegrees>38.1431137025356292724609375</LatitudeDegrees>
              <LongitudeDegrees>-8.13771863467991352081298828125</LongitudeDegrees>
            </Position>
            <AltitudeMeters>103.8000030517578125</AltitudeMeters>
            <DistanceMeters>237410.67942799</DistanceMeters>
          </Trackpoint>
          <Trackpoint>
            <Time>2018-09-14T10:15:19.000Z</Time>
            <Position>
              <LatitudeDegrees>38.14253509975969791412353515625</LatitudeDegrees>
              <LongitudeDegrees>-8.13758653588593006134033203125</LongitudeDegrees>
            </Position>
            <AltitudeMeters>103.8000030517578125</AltitudeMeters>
            <DistanceMeters>237476.108961</DistanceMeters>
          </Trackpoint>
          <Trackpoint>
            <Time>2018-09-14T10:15:24.000Z</Time>
            <Position>
              <LatitudeDegrees>38.14216554164886474609375</LatitudeDegrees>
              <LongitudeDegrees>-8.13750087283551692962646484375</LongitudeDegrees>
            </Position>
            <AltitudeMeters>102.40000152587890625</AltitudeMeters>
            <DistanceMeters>237517.91941949</DistanceMeters>
          </Trackpoint>
          <Trackpoint>
            <Time>2018-09-14T10:15:27.000Z</Time>
            <Position>
              <LatitudeDegrees>38.14194099046289920806884765625</LatitudeDegrees>
              <LongitudeDegrees>-8.137443624436855316162109375</LongitudeDegrees>
            </Position>
            <AltitudeMeters>101.59999847412109375</AltitudeMeters>
            <DistanceMeters>237543.4099703</DistanceMeters>
          </Trackpoint>
          <Trackpoint>
            <Time>2018-09-14T10:15:31.000Z</Time>
            <Position>
              <LatitudeDegrees>38.14161744900047779083251953125</LatitudeDegrees>
              <LongitudeDegrees>-8.13736508600413799285888671875</LongitudeDegrees>
            </Position>
            <AltitudeMeters>100.1999969482421875</AltitudeMeters>
            <DistanceMeters>237580.07107473</DistanceMeters>
          </Trackpoint>
          <Trackpoint>
            <Time>2018-09-14T10:15:34.000Z</Time>
            <Position>
              <LatitudeDegrees>38.14135107211768627166748046875</LatitudeDegrees>
              <LongitudeDegrees>-8.13730716705322265625</LongitudeDegrees>
            </Position>
            <AltitudeMeters>98.40000152587890625</AltitudeMeters>
            <DistanceMeters>237610.14969436</DistanceMeters>
          </Trackpoint>
          <Trackpoint>
            <Time>2018-09-14T10:15:36.000Z</Time>
            <Position>
              <LatitudeDegrees>38.14116440713405609130859375</LatitudeDegrees>
              <LongitudeDegrees>-8.1372788362205028533935546875</LongitudeDegrees>
            </Position>
            <AltitudeMeters>97.40000152587890625</AltitudeMeters>
            <DistanceMeters>237631.07327355</DistanceMeters>
          </Trackpoint>
          <Trackpoint>
            <Time>2018-09-14T10:15:38.000Z</Time>
            <Position>
              <LatitudeDegrees>38.14097137190401554107666015625</LatitudeDegrees>
              <LongitudeDegrees>-8.1372523494064807891845703125</LongitudeDegrees>
            </Position>
            <AltitudeMeters>96.8000030517578125</AltitudeMeters>
            <DistanceMeters>237652.68323429</DistanceMeters>
          </Trackpoint>
          <Trackpoint>
            <Time>2018-09-14T10:15:40.000Z</Time>
            <Position>
              <LatitudeDegrees>38.1407709605991840362548828125</LatitudeDegrees>
              <LongitudeDegrees>-8.137229718267917633056640625</LongitudeDegrees>
            </Position>
            <AltitudeMeters>96.1999969482421875</AltitudeMeters>
            <DistanceMeters>237675.07730327</DistanceMeters>
          </Trackpoint>
          <Trackpoint>
            <Time>2018-09-14T10:15:41.000Z</Time>
            <Position>
              <LatitudeDegrees>38.1406690366566181182861328125</LatitudeDegrees>
              <LongitudeDegrees>-8.13722007907927036285400390625</LongitudeDegrees>
            </Position>
            <AltitudeMeters>95.8000030517578125</AltitudeMeters>
            <DistanceMeters>237686.4527591</DistanceMeters>
          </Trackpoint>
          <Trackpoint>
            <Time>2018-09-14T10:15:43.000Z</Time>
            <Position>
              <LatitudeDegrees>38.1404621712863445281982421875</LatitudeDegrees>
              <LongitudeDegrees>-8.1371985375881195068359375</LongitudeDegrees>
            </Position>
            <AltitudeMeters>95</AltitudeMeters>
            <DistanceMeters>237709.55461137</DistanceMeters>
          </Trackpoint>
          <Trackpoint>
            <Time>2018-09-14T10:15:46.000Z</Time>
            <Position>
              <LatitudeDegrees>38.140138797461986541748046875</LatitudeDegrees>
              <LongitudeDegrees>-8.13716978766024112701416015625</LongitudeDegrees>
            </Position>
            <AltitudeMeters>92.1999969482421875</AltitudeMeters>
            <DistanceMeters>237745.63449163</DistanceMeters>
          </Trackpoint>
          <Trackpoint>
            <Time>2018-09-14T10:15:49.000Z</Time>
            <Position>
              <LatitudeDegrees>38.13980964012444019317626953125</LatitudeDegrees>
              <LongitudeDegrees>-8.13713408075273036956787109375</LongitudeDegrees>
            </Position>
            <AltitudeMeters>91.59999847412109375</AltitudeMeters>
            <DistanceMeters>237782.40332252</DistanceMeters>
          </Trackpoint>
          <Trackpoint>
            <Time>2018-09-14T10:15:52.000Z</Time>
            <Position>
              <LatitudeDegrees>38.139487691223621368408203125</LatitudeDegrees>
              <LongitudeDegrees>-8.13710541464388370513916015625</LongitudeDegrees>
            </Position>
            <AltitudeMeters>90.1999969482421875</AltitudeMeters>
            <DistanceMeters>237818.32455181</DistanceMeters>
          </Trackpoint>
          <Trackpoint>
            <Time>2018-09-14T10:15:54.000Z</Time>
            <Position>
              <LatitudeDegrees>38.139282166957855224609375</LatitudeDegrees>
              <LongitudeDegrees>-8.13709460198879241943359375</LongitudeDegrees>
            </Position>
            <AltitudeMeters>89.1999969482421875</AltitudeMeters>
            <DistanceMeters>237841.21928586</DistanceMeters>
          </Trackpoint>
          <Trackpoint>
            <Time>2018-09-14T10:15:56.000Z</Time>
            <Position>
              <LatitudeDegrees>38.1390838511288166046142578125</LatitudeDegrees>
              <LongitudeDegrees>-8.13707808963954448699951171875</LongitudeDegrees>
            </Position>
            <AltitudeMeters>88.59999847412109375</AltitudeMeters>
            <DistanceMeters>237863.33949658</DistanceMeters>
          </Trackpoint>
          <Trackpoint>
            <Time>2018-09-14T10:15:59.000Z</Time>
            <Position>
              <LatitudeDegrees>38.1387928314507007598876953125</LatitudeDegrees>
              <LongitudeDegrees>-8.13705177046358585357666015625</LongitudeDegrees>
            </Position>
            <AltitudeMeters>88.59999847412109375</AltitudeMeters>
            <DistanceMeters>237895.81236489</DistanceMeters>
          </Trackpoint>
          <Trackpoint>
            <Time>2018-09-14T10:16:01.000Z</Time>
            <Position>
              <LatitudeDegrees>38.1385970301926136016845703125</LatitudeDegrees>
              <LongitudeDegrees>-8.1370334140956401824951171875</LongitudeDegrees>
            </Position>
            <AltitudeMeters>88.8000030517578125</AltitudeMeters>
            <DistanceMeters>237917.66479045</DistanceMeters>
          </Trackpoint>
          <Trackpoint>
            <Time>2018-09-14T10:16:03.000Z</Time>
            <Position>
              <LatitudeDegrees>38.13839946873486042022705078125</LatitudeDegrees>
              <LongitudeDegrees>-8.1370156444609165191650390625</LongitudeDegrees>
            </Position>
            <AltitudeMeters>89</AltitudeMeters>
            <DistanceMeters>237939.70873528</DistanceMeters>
          </Trackpoint>
          <Trackpoint>
            <Time>2018-09-14T10:16:09.000Z</Time>
            <Position>
              <LatitudeDegrees>38.13780820928514003753662109375</LatitudeDegrees>
              <LongitudeDegrees>-8.13696107827126979827880859375</LongitudeDegrees>
            </Position>
            <AltitudeMeters>87.8000030517578125</AltitudeMeters>
            <DistanceMeters>238005.69026599</DistanceMeters>
          </Trackpoint>
          <Trackpoint>
            <Time>2018-09-14T10:16:10.000Z</Time>
            <Position>
              <LatitudeDegrees>38.13771215267479419708251953125</LatitudeDegrees>
              <LongitudeDegrees>-8.1369495950639247894287109375</LongitudeDegrees>
            </Position>
            <AltitudeMeters>87.40000152587890625</AltitudeMeters>
            <DistanceMeters>238016.42912562</DistanceMeters>
          </Trackpoint>
          <Trackpoint>
            <Time>2018-09-14T10:16:16.000Z</Time>
            <Position>
              <LatitudeDegrees>38.13716481439769268035888671875</LatitudeDegrees>
              <LongitudeDegrees>-8.136899471282958984375</LongitudeDegrees>
            </Position>
            <AltitudeMeters>87</AltitudeMeters>
            <DistanceMeters>238077.50676548</DistanceMeters>
          </Trackpoint>
          <Trackpoint>
            <Time>2018-09-14T10:16:18.000Z</Time>
            <Position>
              <LatitudeDegrees>38.1369826756417751312255859375</LatitudeDegrees>
              <LongitudeDegrees>-8.13688396476209163665771484375</LongitudeDegrees>
            </Position>
            <AltitudeMeters>87</AltitudeMeters>
            <DistanceMeters>238097.82471259</DistanceMeters>
          </Trackpoint>
          <Trackpoint>
            <Time>2018-09-14T10:16:20.000Z</Time>
            <Position>
              <LatitudeDegrees>38.13679911196231842041015625</LatitudeDegrees>
              <LongitudeDegrees>-8.13686837442219257354736328125</LongitudeDegrees>
            </Position>
            <AltitudeMeters>87</AltitudeMeters>
            <DistanceMeters>238118.3011505</DistanceMeters>
          </Trackpoint>
          <Trackpoint>
            <Time>2018-09-14T10:16:23.000Z</Time>
            <Position>
              <LatitudeDegrees>38.13652812503278255462646484375</LatitudeDegrees>
              <LongitudeDegrees>-8.13684088177978992462158203125</LongitudeDegrees>
            </Position>
            <AltitudeMeters>87</AltitudeMeters>
            <DistanceMeters>238148.55846813</DistanceMeters>
          </Trackpoint>
          <Trackpoint>
            <Time>2018-09-14T10:16:27.000Z</Time>
            <Position>
              <LatitudeDegrees>38.136174492537975311279296875</LatitudeDegrees>
              <LongitudeDegrees>-8.13677047379314899444580078125</LongitudeDegrees>
            </Position>
            <AltitudeMeters>87</AltitudeMeters>
            <DistanceMeters>238188.39812772</DistanceMeters>
          </Trackpoint>
          <Trackpoint>
            <Time>2018-09-14T10:16:30.000Z</Time>
            <Position>
              <LatitudeDegrees>38.1359201855957508087158203125</LatitudeDegrees>
              <LongitudeDegrees>-8.1366781890392303466796875</LongitudeDegrees>
            </Position>
            <AltitudeMeters>86.59999847412109375</AltitudeMeters>
            <DistanceMeters>238217.83340986</DistanceMeters>
          </Trackpoint>
          <Trackpoint>
            <Time>2018-09-14T10:16:36.000Z</Time>
            <Position>
              <LatitudeDegrees>38.13543386757373809814453125</LatitudeDegrees>
              <LongitudeDegrees>-8.1364051066339015960693359375</LongitudeDegrees>
            </Position>
            <AltitudeMeters>85.40000152587890625</AltitudeMeters>
            <DistanceMeters>238277.00606496</DistanceMeters>
          </Trackpoint>
          <Trackpoint>
            <Time>2018-09-14T10:16:43.000Z</Time>
            <Position>
              <LatitudeDegrees>38.1349247507750988006591796875</LatitudeDegrees>
              <LongitudeDegrees>-8.1359363906085491180419921875</LongitudeDegrees>
            </Position>
            <AltitudeMeters>84.59999847412109375</AltitudeMeters>
            <DistanceMeters>238346.96883403</DistanceMeters>
          </Trackpoint>
          <Trackpoint>
            <Time>2018-09-14T10:16:49.000Z</Time>
            <Position>
              <LatitudeDegrees>38.134511522948741912841796875</LatitudeDegrees>
              <LongitudeDegrees>-8.135484270751476287841796875</LongitudeDegrees>
            </Position>
            <AltitudeMeters>82.8000030517578125</AltitudeMeters>
            <DistanceMeters>238407.64873013</DistanceMeters>
          </Trackpoint>
          <Trackpoint>
            <Time>2018-09-14T10:16:55.000Z</Time>
            <Position>
              <LatitudeDegrees>38.1340986303985118865966796875</LatitudeDegrees>
              <LongitudeDegrees>-8.1350365094840526580810546875</LongitudeDegrees>
            </Position>
            <AltitudeMeters>83.8000030517578125</AltitudeMeters>
            <DistanceMeters>238468.05201842</DistanceMeters>
          </Trackpoint>
          <Trackpoint>
            <Time>2018-09-14T10:17:02.000Z</Time>
            <Position>
              <LatitudeDegrees>38.13362899236381053924560546875</LatitudeDegrees>
              <LongitudeDegrees>-8.13454457558691501617431640625</LongitudeDegrees>
            </Position>
            <AltitudeMeters>86.40000152587890625</AltitudeMeters>
            <DistanceMeters>238535.78020504</DistanceMeters>
          </Trackpoint>
          <Trackpoint>
            <Time>2018-09-14T10:17:08.000Z</Time>
            <Position>
              <LatitudeDegrees>38.1332031078636646270751953125</LatitudeDegrees>
              <LongitudeDegrees>-8.1342539750039577484130859375</LongitudeDegrees>
            </Position>
            <AltitudeMeters>88.8000030517578125</AltitudeMeters>
            <DistanceMeters>238589.57791578</DistanceMeters>
          </Trackpoint>
          <Trackpoint>
            <Time>2018-09-14T10:17:13.000Z</Time>
            <Position>
              <LatitudeDegrees>38.13285165466368198394775390625</LatitudeDegrees>
              <LongitudeDegrees>-8.13415397889912128448486328125</LongitudeDegrees>
            </Position>
            <AltitudeMeters>89.59999847412109375</AltitudeMeters>
            <DistanceMeters>238629.66297287</DistanceMeters>
          </Trackpoint>
          <Trackpoint>
            <Time>2018-09-14T10:17:19.000Z</Time>
            <Position>
              <LatitudeDegrees>38.13246776349842548370361328125</LatitudeDegrees>
              <LongitudeDegrees>-8.1341292522847652435302734375</LongitudeDegrees>
            </Position>
            <AltitudeMeters>91.1999969482421875</AltitudeMeters>
            <DistanceMeters>238672.44557851</DistanceMeters>
          </Trackpoint>
          <Trackpoint>
            <Time>2018-09-14T10:17:24.000Z</Time>
            <Position>
              <LatitudeDegrees>38.1321671046316623687744140625</LatitudeDegrees>
              <LongitudeDegrees>-8.13411533832550048828125</LongitudeDegrees>
            </Position>
            <AltitudeMeters>91.59999847412109375</AltitudeMeters>
            <DistanceMeters>238705.93194637</DistanceMeters>
          </Trackpoint>
          <Trackpoint>
            <Time>2018-09-14T10:17:30.000Z</Time>
            <Position>
              <LatitudeDegrees>38.13182101584970951080322265625</LatitudeDegrees>
              <LongitudeDegrees>-8.1340950541198253631591796875</LongitudeDegrees>
            </Position>
            <AltitudeMeters>92</AltitudeMeters>
            <DistanceMeters>238744.49324378</DistanceMeters>
          </Trackpoint>
          <Trackpoint>
            <Time>2018-09-14T10:17:36.000Z</Time>
            <Position>
              <LatitudeDegrees>38.131488002836704254150390625</LatitudeDegrees>
              <LongitudeDegrees>-8.13407803885638713836669921875</LongitudeDegrees>
            </Position>
            <AltitudeMeters>92.40000152587890625</AltitudeMeters>
            <DistanceMeters>238781.588124</DistanceMeters>
          </Trackpoint>
          <Trackpoint>
            <Time>2018-09-14T10:17:39.000Z</Time>
            <Position>
              <LatitudeDegrees>38.1313312612473964691162109375</LatitudeDegrees>
              <LongitudeDegrees>-8.1340675614774227142333984375</LongitudeDegrees>
            </Position>
            <AltitudeMeters>92.59999847412109375</AltitudeMeters>
            <DistanceMeters>238799.05753909</DistanceMeters>
          </Trackpoint>
          <Trackpoint>
            <Time>2018-09-14T10:17:45.000Z</Time>
            <Position>
              <LatitudeDegrees>38.13102699816226959228515625</LatitudeDegrees>
              <LongitudeDegrees>-8.13405121676623821258544921875</LongitudeDegrees>
            </Position>
            <AltitudeMeters>93.1999969482421875</AltitudeMeters>
            <DistanceMeters>238832.95265033</DistanceMeters>
          </Trackpoint>
          <Trackpoint>
            <Time>2018-09-14T10:17:54.000Z</Time>
            <Position>
              <LatitudeDegrees>38.130564987659454345703125</LatitudeDegrees>
              <LongitudeDegrees>-8.13402892090380191802978515625</LongitudeDegrees>
            </Position>
            <AltitudeMeters>94.40000152587890625</AltitudeMeters>
            <DistanceMeters>238884.41240196</DistanceMeters>
          </Trackpoint>
          <Trackpoint>
            <Time>2018-09-14T10:18:00.000Z</Time>
            <Position>
              <LatitudeDegrees>38.1302654184401035308837890625</LatitudeDegrees>
              <LongitudeDegrees>-8.13400729559361934661865234375</LongitudeDegrees>
            </Position>
            <AltitudeMeters>95.59999847412109375</AltitudeMeters>
            <DistanceMeters>238917.8088509</DistanceMeters>
          </Trackpoint>
          <Trackpoint>
            <Time>2018-09-14T10:18:07.000Z</Time>
            <Position>
              <LatitudeDegrees>38.129923604428768157958984375</LatitudeDegrees>
              <LongitudeDegrees>-8.13398600555956363677978515625</LongitudeDegrees>
            </Position>
            <AltitudeMeters>96.8000030517578125</AltitudeMeters>
            <DistanceMeters>238955.89903838</DistanceMeters>
          </Trackpoint>
          <Trackpoint>
            <Time>2018-09-14T10:18:12.000Z</Time>
            <Position>
              <LatitudeDegrees>38.129682205617427825927734375</LatitudeDegrees>
              <LongitudeDegrees>-8.13396622426807880401611328125</LongitudeDegrees>
            </Position>
            <AltitudeMeters>97.40000152587890625</AltitudeMeters>
            <DistanceMeters>238982.82297599</DistanceMeters>
          </Trackpoint>
          <Trackpoint>
            <Time>2018-09-14T10:18:20.000Z</Time>
            <Position>
              <LatitudeDegrees>38.12929403968155384063720703125</LatitudeDegrees>
              <LongitudeDegrees>-8.133935965597629547119140625</LongitudeDegrees>
            </Position>
            <AltitudeMeters>97</AltitudeMeters>
            <DistanceMeters>239026.10782693</DistanceMeters>
          </Trackpoint>
          <Trackpoint>
            <Time>2018-09-14T10:18:30.000Z</Time>
            <Position>
              <LatitudeDegrees>38.12875877134501934051513671875</LatitudeDegrees>
              <LongitudeDegrees>-8.13390436582267284393310546875</LongitudeDegrees>
            </Position>
            <AltitudeMeters>96.59999847412109375</AltitudeMeters>
            <DistanceMeters>239085.74850367</DistanceMeters>
          </Trackpoint>
          <Trackpoint>
            <Time>2018-09-14T10:18:40.000Z</Time>
            <Position>
              <LatitudeDegrees>38.128215037286281585693359375</LatitudeDegrees>
              <LongitudeDegrees>-8.13387595117092132568359375</LongitudeDegrees>
            </Position>
            <AltitudeMeters>98.1999969482421875</AltitudeMeters>
            <DistanceMeters>239146.31832567</DistanceMeters>
          </Trackpoint>
          <Trackpoint>
            <Time>2018-09-14T10:18:43.000Z</Time>
            <Position>
              <LatitudeDegrees>38.128052093088626861572265625</LatitudeDegrees>
              <LongitudeDegrees>-8.13386463560163974761962890625</LongitudeDegrees>
            </Position>
            <AltitudeMeters>98.40000152587890625</AltitudeMeters>
            <DistanceMeters>239164.48135908</DistanceMeters>
          </Trackpoint>
          <Trackpoint>
            <Time>2018-09-14T10:18:52.000Z</Time>
            <Position>
              <LatitudeDegrees>38.127543143928050994873046875</LatitudeDegrees>
              <LongitudeDegrees>-8.13384636305272579193115234375</LongitudeDegrees>
            </Position>
            <AltitudeMeters>100</AltitudeMeters>
            <DistanceMeters>239221.15091287</DistanceMeters>
          </Trackpoint>
          <Trackpoint>
            <Time>2018-09-14T10:19:02.000Z</Time>
            <Position>
              <LatitudeDegrees>38.12696772627532482147216796875</LatitudeDegrees>
              <LongitudeDegrees>-8.1338070519268512725830078125</LongitudeDegrees>
            </Position>
            <AltitudeMeters>103.1999969482421875</AltitudeMeters>
            <DistanceMeters>239285.2885248</DistanceMeters>
          </Trackpoint>
          <Trackpoint>
            <Time>2018-09-14T10:19:04.000Z</Time>
            <Position>
              <LatitudeDegrees>38.1268573366105556488037109375</LatitudeDegrees>
              <LongitudeDegrees>-8.13379825092852115631103515625</LongitudeDegrees>
            </Position>
            <AltitudeMeters>103.40000152587890625</AltitudeMeters>
            <DistanceMeters>239297.59952813</DistanceMeters>
          </Trackpoint>
          <Trackpoint>
            <Time>2018-09-14T10:19:14.000Z</Time>
            <Position>
              <LatitudeDegrees>38.12630094587802886962890625</LatitudeDegrees>
              <LongitudeDegrees>-8.1337638013064861297607421875</LongitudeDegrees>
            </Position>
            <AltitudeMeters>104.1999969482421875</AltitudeMeters>
            <DistanceMeters>239359.6002175</DistanceMeters>
          </Trackpoint>
          <Trackpoint>
            <Time>2018-09-14T10:19:16.000Z</Time>
            <Position>
              <LatitudeDegrees>38.12619139440357685089111328125</LatitudeDegrees>
              <LongitudeDegrees>-8.13375399447977542877197265625</LongitudeDegrees>
            </Position>
            <AltitudeMeters>104.1999969482421875</AltitudeMeters>
            <DistanceMeters>239371.82362311</DistanceMeters>
          </Trackpoint>
          <Trackpoint>
            <Time>2018-09-14T10:19:25.000Z</Time>
            <Position>
              <LatitudeDegrees>38.12570222653448581695556640625</LatitudeDegrees>
              <LongitudeDegrees>-8.1337386555969715118408203125</LongitudeDegrees>
            </Position>
            <AltitudeMeters>103.1999969482421875</AltitudeMeters>
            <DistanceMeters>239426.28562096</DistanceMeters>
          </Trackpoint>
          <Trackpoint>
            <Time>2018-09-14T10:19:27.000Z</Time>
            <Position>
              <LatitudeDegrees>38.12558747828006744384765625</LatitudeDegrees>
              <LongitudeDegrees>-8.133733458817005157470703125</LongitudeDegrees>
            </Position>
            <AltitudeMeters>103</AltitudeMeters>
            <DistanceMeters>239439.0652126</DistanceMeters>
          </Trackpoint>
          <Trackpoint>
            <Time>2018-09-14T10:19:36.000Z</Time>
            <Position>
              <LatitudeDegrees>38.12505816109478473663330078125</LatitudeDegrees>
              <LongitudeDegrees>-8.13369062729179859161376953125</LongitudeDegrees>
            </Position>
            <AltitudeMeters>102.8000030517578125</AltitudeMeters>
            <DistanceMeters>239498.09845088</DistanceMeters>
          </Trackpoint>
          <Trackpoint>
            <Time>2018-09-14T10:19:39.000Z</Time>
            <Position>
              <LatitudeDegrees>38.12488264404237270355224609375</LatitudeDegrees>
              <LongitudeDegrees>-8.13367922790348529815673828125</LongitudeDegrees>
            </Position>
            <AltitudeMeters>102.40000152587890625</AltitudeMeters>
            <DistanceMeters>239517.65941786</DistanceMeters>
          </Trackpoint>
          <Trackpoint>
            <Time>2018-09-14T10:19:48.000Z</Time>
            <Position>
              <LatitudeDegrees>38.12429239042103290557861328125</LatitudeDegrees>
              <LongitudeDegrees>-8.13364486210048198699951171875</LongitudeDegrees>
            </Position>
            <AltitudeMeters>101</AltitudeMeters>
            <DistanceMeters>239583.42470128</DistanceMeters>
          </Trackpoint>
          <Trackpoint>
            <Time>2018-09-14T10:19:49.000Z</Time>
            <Position>
              <LatitudeDegrees>38.12421846203505992889404296875</LatitudeDegrees>
              <LongitudeDegrees>-8.133637905120849609375</LongitudeDegrees>
            </Position>
            <AltitudeMeters>100.8000030517578125</AltitudeMeters>
            <DistanceMeters>239591.67562525</DistanceMeters>
          </Trackpoint>
          <Trackpoint>
            <Time>2018-09-14T10:19:53.000Z</Time>
            <Position>
              <LatitudeDegrees>38.1239048950374126434326171875</LatitudeDegrees>
              <LongitudeDegrees>-8.13362005166709423065185546875</LongitudeDegrees>
            </Position>
            <AltitudeMeters>99.1999969482421875</AltitudeMeters>
            <DistanceMeters>239626.61109536</DistanceMeters>
          </Trackpoint>
          <Trackpoint>
            <Time>2018-09-14T10:19:54.000Z</Time>
            <Position>
              <LatitudeDegrees>38.1238230876624584197998046875</LatitudeDegrees>
              <LongitudeDegrees>-8.13361351378262042999267578125</LongitudeDegrees>
            </Position>
            <AltitudeMeters>98.8000030517578125</AltitudeMeters>
            <DistanceMeters>239635.73464975</DistanceMeters>
          </Trackpoint>
          <Trackpoint>
            <Time>2018-09-14T10:19:56.000Z</Time>
            <Position>
              <LatitudeDegrees>38.12365905381739139556884765625</LatitudeDegrees>
              <LongitudeDegrees>-8.13359641470015048980712890625</LongitudeDegrees>
            </Position>
            <AltitudeMeters>98</AltitudeMeters>
            <DistanceMeters>239654.05337517</DistanceMeters>
          </Trackpoint>
          <Trackpoint>
            <Time>2018-09-14T10:19:58.000Z</Time>
            <Position>
              <LatitudeDegrees>38.12348923645913600921630859375</LatitudeDegrees>
              <LongitudeDegrees>-8.133579902350902557373046875</LongitudeDegrees>
            </Position>
            <AltitudeMeters>97.1999969482421875</AltitudeMeters>
            <DistanceMeters>239673.00971611</DistanceMeters>
          </Trackpoint>
          <Trackpoint>
            <Time>2018-09-14T10:20:02.000Z</Time>
            <Position>
              <LatitudeDegrees>38.12313459813594818115234375</LatitudeDegrees>
              <LongitudeDegrees>-8.13354277051985263824462890625</LongitudeDegrees>
            </Position>
            <AltitudeMeters>95.8000030517578125</AltitudeMeters>
            <DistanceMeters>239712.61545533</DistanceMeters>
          </Trackpoint>
          <Trackpoint>
            <Time>2018-09-14T10:20:03.000Z</Time>
            <Position>
              <LatitudeDegrees>38.12304340302944183349609375</LatitudeDegrees>
              <LongitudeDegrees>-8.13353531062602996826171875</LongitudeDegrees>
            </Position>
            <AltitudeMeters>95.40000152587890625</AltitudeMeters>
            <DistanceMeters>239722.78642164</DistanceMeters>
          </Trackpoint>
          <Trackpoint>
            <Time>2018-09-14T10:20:05.000Z</Time>
            <Position>
              <LatitudeDegrees>38.1228574924170970916748046875</LatitudeDegrees>
              <LongitudeDegrees>-8.133517205715179443359375</LongitudeDegrees>
            </Position>
            <AltitudeMeters>94.8000030517578125</AltitudeMeters>
            <DistanceMeters>239743.539264</DistanceMeters>
          </Trackpoint>
          <Trackpoint>
            <Time>2018-09-14T10:20:07.000Z</Time>
            <Position>
              <LatitudeDegrees>38.12266428954899311065673828125</LatitudeDegrees>
              <LongitudeDegrees>-8.13349884934723377227783203125</LongitudeDegrees>
            </Position>
            <AltitudeMeters>94.1999969482421875</AltitudeMeters>
            <DistanceMeters>239765.10300107</DistanceMeters>
          </Trackpoint>
          <Trackpoint>
            <Time>2018-09-14T10:20:10.000Z</Time>
            <Position>
              <LatitudeDegrees>38.1223629601299762725830078125</LatitudeDegrees>
              <LongitudeDegrees>-8.133471272885799407958984375</LongitudeDegrees>
            </Position>
            <AltitudeMeters>93.40000152587890625</AltitudeMeters>
            <DistanceMeters>239798.72836206</DistanceMeters>
          </Trackpoint>
          <Trackpoint>
            <Time>2018-09-14T10:20:15.000Z</Time>
            <Position>
              <LatitudeDegrees>38.12186616472899913787841796875</LatitudeDegrees>
              <LongitudeDegrees>-8.13342659734189510345458984375</LongitudeDegrees>
            </Position>
            <AltitudeMeters>92.1999969482421875</AltitudeMeters>
            <DistanceMeters>239854.16087456</DistanceMeters>
          </Trackpoint>
          <Trackpoint>
            <Time>2018-09-14T10:20:16.000Z</Time>
            <Position>
              <LatitudeDegrees>38.1217715330421924591064453125</LatitudeDegrees>
              <LongitudeDegrees>-8.13341720961034297943115234375</LongitudeDegrees>
            </Position>
            <AltitudeMeters>92</AltitudeMeters>
            <DistanceMeters>239864.72594791</DistanceMeters>
          </Trackpoint>
          <Trackpoint>
            <Time>2018-09-14T10:20:17.000Z</Time>
            <Position>
              <LatitudeDegrees>38.12167891301214694976806640625</LatitudeDegrees>
              <LongitudeDegrees>-8.133408240973949432373046875</LongitudeDegrees>
            </Position>
            <AltitudeMeters>91.8000030517578125</AltitudeMeters>
            <DistanceMeters>239875.06466229</DistanceMeters>
          </Trackpoint>
          <Trackpoint>
            <Time>2018-09-14T10:20:19.000Z</Time>
            <Position>
              <LatitudeDegrees>38.12149635516107082366943359375</LatitudeDegrees>
              <LongitudeDegrees>-8.13338971696794033050537109375</LongitudeDegrees>
            </Position>
            <AltitudeMeters>91.59999847412109375</AltitudeMeters>
            <DistanceMeters>239895.44872315</DistanceMeters>
          </Trackpoint>
          <Trackpoint>
            <Time>2018-09-14T10:20:21.000Z</Time>
            <Position>
              <LatitudeDegrees>38.12131832353770732879638671875</LatitudeDegrees>
              <LongitudeDegrees>-8.13337245024740695953369140625</LongitudeDegrees>
            </Position>
            <AltitudeMeters>91.40000152587890625</AltitudeMeters>
            <DistanceMeters>239915.32180604</DistanceMeters>
          </Trackpoint>
          <Trackpoint>
            <Time>2018-09-14T10:20:27.000Z</Time>
            <Position>
              <LatitudeDegrees>38.12078942544758319854736328125</LatitudeDegrees>
              <LongitudeDegrees>-8.133324421942234039306640625</LongitudeDegrees>
            </Position>
            <AltitudeMeters>90.1999969482421875</AltitudeMeters>
            <DistanceMeters>239974.33928672</DistanceMeters>
          </Trackpoint>
          <Trackpoint>
            <Time>2018-09-14T10:20:33.000Z</Time>
            <Position>
              <LatitudeDegrees>38.1202639639377593994140625</LatitudeDegrees>
              <LongitudeDegrees>-8.13327915966510772705078125</LongitudeDegrees>
            </Position>
            <AltitudeMeters>87.8000030517578125</AltitudeMeters>
            <DistanceMeters>240032.95837004</DistanceMeters>
          </Trackpoint>
          <Trackpoint>
            <Time>2018-09-14T10:20:35.000Z</Time>
            <Position>
              <LatitudeDegrees>38.12008366920053958892822265625</LatitudeDegrees>
              <LongitudeDegrees>-8.133262731134891510009765625</LongitudeDegrees>
            </Position>
            <AltitudeMeters>87.40000152587890625</AltitudeMeters>
            <DistanceMeters>240053.07712115</DistanceMeters>
          </Trackpoint>
          <Trackpoint>
            <Time>2018-09-14T10:20:41.000Z</Time>
            <Position>
              <LatitudeDegrees>38.11952258460223674774169921875</LatitudeDegrees>
              <LongitudeDegrees>-8.13320808112621307373046875</LongitudeDegrees>
            </Position>
            <AltitudeMeters>86.1999969482421875</AltitudeMeters>
            <DistanceMeters>240115.71003526</DistanceMeters>
          </Trackpoint>
          <Trackpoint>
            <Time>2018-09-14T10:20:43.000Z</Time>
            <Position>
              <LatitudeDegrees>38.11932745389640331268310546875</LatitudeDegrees>
              <LongitudeDegrees>-8.133196346461772918701171875</LongitudeDegrees>
            </Position>
            <AltitudeMeters>85.1999969482421875</AltitudeMeters>
            <DistanceMeters>240137.45267912</DistanceMeters>
          </Trackpoint>
          <Trackpoint>
            <Time>2018-09-14T10:20:46.000Z</Time>
            <Position>
              <LatitudeDegrees>38.1190272979438304901123046875</LatitudeDegrees>
              <LongitudeDegrees>-8.1331737153232097625732421875</LongitudeDegrees>
            </Position>
            <AltitudeMeters>83.8000030517578125</AltitudeMeters>
            <DistanceMeters>240170.9193557</DistanceMeters>
          </Trackpoint>
          <Trackpoint>
            <Time>2018-09-14T10:20:49.000Z</Time>
            <Position>
              <LatitudeDegrees>38.11871926300227642059326171875</LatitudeDegrees>
              <LongitudeDegrees>-8.13315133564174175262451171875</LongitudeDegrees>
            </Position>
            <AltitudeMeters>82.40000152587890625</AltitudeMeters>
            <DistanceMeters>240205.2601749</DistanceMeters>
          </Trackpoint>
          <Trackpoint>
            <Time>2018-09-14T10:20:51.000Z</Time>
            <Position>
              <LatitudeDegrees>38.1185119785368442535400390625</LatitudeDegrees>
              <LongitudeDegrees>-8.13313624821603298187255859375</LongitudeDegrees>
            </Position>
            <AltitudeMeters>81.59999847412109375</AltitudeMeters>
            <DistanceMeters>240228.36906195</DistanceMeters>
          </Trackpoint>
          <Trackpoint>
            <Time>2018-09-14T10:20:54.000Z</Time>
            <Position>
              <LatitudeDegrees>38.11821199022233486175537109375</LatitudeDegrees>
              <LongitudeDegrees>-8.13311378471553325653076171875</LongitudeDegrees>
            </Position>
            <AltitudeMeters>81.1999969482421875</AltitudeMeters>
            <DistanceMeters>240261.81617065</DistanceMeters>
          </Trackpoint>
          <Trackpoint>
            <Time>2018-09-14T10:20:59.000Z</Time>
            <Position>
              <LatitudeDegrees>38.11774495057761669158935546875</LatitudeDegrees>
              <LongitudeDegrees>-8.13308143056929111480712890625</LongitudeDegrees>
            </Position>
            <AltitudeMeters>80.8000030517578125</AltitudeMeters>
            <DistanceMeters>240313.87572158</DistanceMeters>
          </Trackpoint>
          <Trackpoint>
            <Time>2018-09-14T10:21:02.000Z</Time>
            <Position>
              <LatitudeDegrees>38.11747488565742969512939453125</LatitudeDegrees>
              <LongitudeDegrees>-8.1330664269626140594482421875</LongitudeDegrees>
            </Position>
            <AltitudeMeters>81.40000152587890625</AltitudeMeters>
            <DistanceMeters>240343.96304621</DistanceMeters>
          </Trackpoint>
          <Trackpoint>
            <Time>2018-09-14T10:21:04.000Z</Time>
            <Position>
              <LatitudeDegrees>38.1172945909202098846435546875</LatitudeDegrees>
              <LongitudeDegrees>-8.13305259682238101959228515625</LongitudeDegrees>
            </Position>
            <AltitudeMeters>82</AltitudeMeters>
            <DistanceMeters>240364.06653102</DistanceMeters>
          </Trackpoint>
          <Trackpoint>
            <Time>2018-09-14T10:21:07.000Z</Time>
            <Position>
              <LatitudeDegrees>38.11702310107648372650146484375</LatitudeDegrees>
              <LongitudeDegrees>-8.13303164206445217132568359375</LongitudeDegrees>
            </Position>
            <AltitudeMeters>83.1999969482421875</AltitudeMeters>
            <DistanceMeters>240394.33966198</DistanceMeters>
          </Trackpoint>
          <Trackpoint>
            <Time>2018-09-14T10:21:14.000Z</Time>
            <Position>
              <LatitudeDegrees>38.11643720604479312896728515625</LatitudeDegrees>
              <LongitudeDegrees>-8.13299006782472133636474609375</LongitudeDegrees>
            </Position>
            <AltitudeMeters>84.59999847412109375</AltitudeMeters>
            <DistanceMeters>240459.65253967</DistanceMeters>
          </Trackpoint>
          <Trackpoint>
            <Time>2018-09-14T10:21:15.000Z</Time>
            <Position>
              <LatitudeDegrees>38.11635573394596576690673828125</LatitudeDegrees>
              <LongitudeDegrees>-8.13298604451119899749755859375</LongitudeDegrees>
            </Position>
            <AltitudeMeters>84.59999847412109375</AltitudeMeters>
            <DistanceMeters>240468.72746651</DistanceMeters>
          </Trackpoint>
          <Trackpoint>
            <Time>2018-09-14T10:21:17.000Z</Time>
            <Position>
              <LatitudeDegrees>38.1161950528621673583984375</LatitudeDegrees>
              <LongitudeDegrees>-8.13297866843640804290771484375</LongitudeDegrees>
            </Position>
            <AltitudeMeters>84.59999847412109375</AltitudeMeters>
            <DistanceMeters>240486.62329538</DistanceMeters>
          </Trackpoint>
          <Trackpoint>
            <Time>2018-09-14T10:21:19.000Z</Time>
            <Position>
              <LatitudeDegrees>38.1160359643399715423583984375</LatitudeDegrees>
              <LongitudeDegrees>-8.13296559266746044158935546875</LongitudeDegrees>
            </Position>
            <AltitudeMeters>84.8000030517578125</AltitudeMeters>
            <DistanceMeters>240504.36710121</DistanceMeters>
          </Trackpoint>
          <Trackpoint>
            <Time>2018-09-14T10:21:21.000Z</Time>
            <Position>
              <LatitudeDegrees>38.11588048003613948822021484375</LatitudeDegrees>
              <LongitudeDegrees>-8.13295352272689342498779296875</LongitudeDegrees>
            </Position>
            <AltitudeMeters>84.59999847412109375</AltitudeMeters>
            <DistanceMeters>240521.70524543</DistanceMeters>
          </Trackpoint>
          <Trackpoint>
            <Time>2018-09-14T10:21:29.000Z</Time>
            <Position>
              <LatitudeDegrees>38.11528603546321392059326171875</LatitudeDegrees>
              <LongitudeDegrees>-8.13291303813457489013671875</LongitudeDegrees>
            </Position>
            <AltitudeMeters>83</AltitudeMeters>
            <DistanceMeters>240587.9630607</DistanceMeters>
          </Trackpoint>
          <Trackpoint>
            <Time>2018-09-14T10:21:36.000Z</Time>
            <Position>
              <LatitudeDegrees>38.11481983400881290435791015625</LatitudeDegrees>
              <LongitudeDegrees>-8.13287707976996898651123046875</LongitudeDegrees>
            </Position>
            <AltitudeMeters>83.59999847412109375</AltitudeMeters>
            <DistanceMeters>240639.94762434</DistanceMeters>
          </Trackpoint>
          <Trackpoint>
            <Time>2018-09-14T10:21:39.000Z</Time>
            <Position>
              <LatitudeDegrees>38.11463761143386363983154296875</LatitudeDegrees>
              <LongitudeDegrees>-8.1328619085252285003662109375</LongitudeDegrees>
            </Position>
            <AltitudeMeters>84.40000152587890625</AltitudeMeters>
            <DistanceMeters>240660.27290336</DistanceMeters>
          </Trackpoint>
          <Trackpoint>
            <Time>2018-09-14T10:21:40.000Z</Time>
            <Position>
              <LatitudeDegrees>38.11457776464521884918212890625</LatitudeDegrees>
              <LongitudeDegrees>-8.1328555382788181304931640625</LongitudeDegrees>
            </Position>
            <AltitudeMeters>84.59999847412109375</AltitudeMeters>
            <DistanceMeters>240666.95727455</DistanceMeters>
          </Trackpoint>
          <Trackpoint>
            <Time>2018-09-14T10:21:43.000Z</Time>
            <Position>
              <LatitudeDegrees>38.114398308098316192626953125</LatitudeDegrees>
              <LongitudeDegrees>-8.13284053467214107513427734375</LongitudeDegrees>
            </Position>
            <AltitudeMeters>85.1999969482421875</AltitudeMeters>
            <DistanceMeters>240686.97410552</DistanceMeters>
          </Trackpoint>
          <Trackpoint>
            <Time>2018-09-14T10:21:46.000Z</Time>
            <Position>
              <LatitudeDegrees>38.1142191030085086822509765625</LatitudeDegrees>
              <LongitudeDegrees>-8.1328293867409229278564453125</LongitudeDegrees>
            </Position>
            <AltitudeMeters>86</AltitudeMeters>
            <DistanceMeters>240706.94373836</DistanceMeters>
          </Trackpoint>
          <Trackpoint>
            <Time>2018-09-14T10:21:52.000Z</Time>
            <Position>
              <LatitudeDegrees>38.11386890709400177001953125</LatitudeDegrees>
              <LongitudeDegrees>-8.1328059174120426177978515625</LongitudeDegrees>
            </Position>
            <AltitudeMeters>88.40000152587890625</AltitudeMeters>
            <DistanceMeters>240745.97543352</DistanceMeters>
          </Trackpoint>
          <Trackpoint>
            <Time>2018-09-14T10:21:58.000Z</Time>
            <Position>
              <LatitudeDegrees>38.1135307811200618743896484375</LatitudeDegrees>
              <LongitudeDegrees>-8.13277817331254482269287109375</LongitudeDegrees>
            </Position>
            <AltitudeMeters>90.40000152587890625</AltitudeMeters>
            <DistanceMeters>240783.68787192</DistanceMeters>
          </Trackpoint>
          <Trackpoint>
            <Time>2018-09-14T10:22:03.000Z</Time>
            <Position>
              <LatitudeDegrees>38.11325878836214542388916015625</LatitudeDegrees>
              <LongitudeDegrees>-8.1327586434781551361083984375</LongitudeDegrees>
            </Position>
            <AltitudeMeters>91.59999847412109375</AltitudeMeters>
            <DistanceMeters>240814.00943575</DistanceMeters>
          </Trackpoint>
          <Trackpoint>
            <Time>2018-09-14T10:22:10.000Z</Time>
            <Position>
              <LatitudeDegrees>38.1128830276429653167724609375</LatitudeDegrees>
              <LongitudeDegrees>-8.132737018167972564697265625</LongitudeDegrees>
            </Position>
            <AltitudeMeters>92.40000152587890625</AltitudeMeters>
            <DistanceMeters>240855.87514771</DistanceMeters>
          </Trackpoint>
          <Trackpoint>
            <Time>2018-09-14T10:22:17.000Z</Time>
            <Position>
              <LatitudeDegrees>38.11249150894582271575927734375</LatitudeDegrees>
              <LongitudeDegrees>-8.1327070109546184539794921875</LongitudeDegrees>
            </Position>
            <AltitudeMeters>93.1999969482421875</AltitudeMeters>
            <DistanceMeters>240899.53121045</DistanceMeters>
          </Trackpoint>
          <Trackpoint>
            <Time>2018-09-14T10:22:23.000Z</Time>
            <Position>
              <LatitudeDegrees>38.11213661916553974151611328125</LatitudeDegrees>
              <LongitudeDegrees>-8.13268396072089672088623046875</LongitudeDegrees>
            </Position>
            <AltitudeMeters>93.59999847412109375</AltitudeMeters>
            <DistanceMeters>240939.08264864</DistanceMeters>
          </Trackpoint>
          <Trackpoint>
            <Time>2018-09-14T10:22:33.000Z</Time>
            <Position>
              <LatitudeDegrees>38.1115526519715785980224609375</LatitudeDegrees>
              <LongitudeDegrees>-8.13265043310821056365966796875</LongitudeDegrees>
            </Position>
            <AltitudeMeters>94.40000152587890625</AltitudeMeters>
            <DistanceMeters>241004.14562948</DistanceMeters>
          </Trackpoint>
          <Trackpoint>
            <Time>2018-09-14T10:22:38.000Z</Time>
            <Position>
              <LatitudeDegrees>38.111268170177936553955078125</LatitudeDegrees>
              <LongitudeDegrees>-8.1326349265873432159423828125</LongitudeDegrees>
            </Position>
            <AltitudeMeters>95.1999969482421875</AltitudeMeters>
            <DistanceMeters>241035.83814283</DistanceMeters>
          </Trackpoint>
          <Trackpoint>
            <Time>2018-09-14T10:22:44.000Z</Time>
            <Position>
              <LatitudeDegrees>38.110929541289806365966796875</LatitudeDegrees>
              <LongitudeDegrees>-8.1326084397733211517333984375</LongitudeDegrees>
            </Position>
            <AltitudeMeters>96</AltitudeMeters>
            <DistanceMeters>241073.5995161</DistanceMeters>
          </Trackpoint>
          <Trackpoint>
            <Time>2018-09-14T10:22:53.000Z</Time>
            <Position>
              <LatitudeDegrees>38.1104288063943386077880859375</LatitudeDegrees>
              <LongitudeDegrees>-8.13256510533392429351806640625</LongitudeDegrees>
            </Position>
            <AltitudeMeters>98.40000152587890625</AltitudeMeters>
            <DistanceMeters>241129.46132396</DistanceMeters>
          </Trackpoint>
          <Trackpoint>
            <Time>2018-09-14T10:22:57.000Z</Time>
            <Position>
              <LatitudeDegrees>38.11021163128316402435302734375</LatitudeDegrees>
              <LongitudeDegrees>-8.13255554996430873870849609375</LongitudeDegrees>
            </Position>
            <AltitudeMeters>99.40000152587890625</AltitudeMeters>
            <DistanceMeters>241153.64762963</DistanceMeters>
          </Trackpoint>
          <Trackpoint>
            <Time>2018-09-14T10:23:02.000Z</Time>
            <Position>
              <LatitudeDegrees>38.10992916114628314971923828125</LatitudeDegrees>
              <LongitudeDegrees>-8.132528476417064666748046875</LongitudeDegrees>
            </Position>
            <AltitudeMeters>99.8000030517578125</AltitudeMeters>
            <DistanceMeters>241185.17645668</DistanceMeters>
          </Trackpoint>
          <Trackpoint>
            <Time>2018-09-14T10:23:08.000Z</Time>
            <Position>
              <LatitudeDegrees>38.1096080504357814788818359375</LatitudeDegrees>
              <LongitudeDegrees>-8.1325148977339267730712890625</LongitudeDegrees>
            </Position>
            <AltitudeMeters>99.59999847412109375</AltitudeMeters>
            <DistanceMeters>241220.93656358</DistanceMeters>
          </Trackpoint>
          <Trackpoint>
            <Time>2018-09-14T10:23:15.000Z</Time>
            <Position>
              <LatitudeDegrees>38.10922072269022464752197265625</LatitudeDegrees>
              <LongitudeDegrees>-8.1324890814721584320068359375</LongitudeDegrees>
            </Position>
            <AltitudeMeters>99.40000152587890625</AltitudeMeters>
            <DistanceMeters>241264.10620739</DistanceMeters>
          </Trackpoint>
          <Trackpoint>
            <Time>2018-09-14T10:23:18.000Z</Time>
            <Position>
              <LatitudeDegrees>38.1090494804084300994873046875</LatitudeDegrees>
              <LongitudeDegrees>-8.1324729882180690765380859375</LongitudeDegrees>
            </Position>
            <AltitudeMeters>99.40000152587890625</AltitudeMeters>
            <DistanceMeters>241283.21768384</DistanceMeters>
          </Trackpoint>
          <Trackpoint>
            <Time>2018-09-14T10:23:25.000Z</Time>
            <Position>
              <LatitudeDegrees>38.10862929560244083404541015625</LatitudeDegrees>
              <LongitudeDegrees>-8.132436610758304595947265625</LongitudeDegrees>
            </Position>
            <AltitudeMeters>99.59999847412109375</AltitudeMeters>
            <DistanceMeters>241330.09350577</DistanceMeters>
          </Trackpoint>
          <Trackpoint>
            <Time>2018-09-14T10:23:30.000Z</Time>
            <Position>
              <LatitudeDegrees>38.10831044800579547882080078125</LatitudeDegrees>
              <LongitudeDegrees>-8.1324081122875213623046875</LongitudeDegrees>
            </Position>
            <AltitudeMeters>100</AltitudeMeters>
            <DistanceMeters>241365.66955831</DistanceMeters>
          </Trackpoint>
          <Trackpoint>
            <Time>2018-09-14T10:23:36.000Z</Time>
            <Position>
              <LatitudeDegrees>38.1079150736331939697265625</LatitudeDegrees>
              <LongitudeDegrees>-8.132395707070827484130859375</LongitudeDegrees>
            </Position>
            <AltitudeMeters>102</AltitudeMeters>
            <DistanceMeters>241409.68898497</DistanceMeters>
          </Trackpoint>
          <Trackpoint>
            <Time>2018-09-14T10:23:40.000Z</Time>
            <Position>
              <LatitudeDegrees>38.10765649192035198211669921875</LatitudeDegrees>
              <LongitudeDegrees>-8.13237483613193035125732421875</LongitudeDegrees>
            </Position>
            <AltitudeMeters>102.1999969482421875</AltitudeMeters>
            <DistanceMeters>241438.5275184</DistanceMeters>
          </Trackpoint>
          <Trackpoint>
            <Time>2018-09-14T10:23:49.000Z</Time>
            <Position>
              <LatitudeDegrees>38.10707931406795978546142578125</LatitudeDegrees>
              <LongitudeDegrees>-8.13233326189219951629638671875</LongitudeDegrees>
            </Position>
            <AltitudeMeters>101.40000152587890625</AltitudeMeters>
            <DistanceMeters>241502.87162169</DistanceMeters>
          </Trackpoint>
          <Trackpoint>
            <Time>2018-09-14T10:23:58.000Z</Time>
            <Position>
              <LatitudeDegrees>38.1064963527023792266845703125</LatitudeDegrees>
              <LongitudeDegrees>-8.13229403458535671234130859375</LongitudeDegrees>
            </Position>
            <AltitudeMeters>100.59999847412109375</AltitudeMeters>
            <DistanceMeters>241567.84724512</DistanceMeters>
          </Trackpoint>
          <Trackpoint>
            <Time>2018-09-14T10:24:06.000Z</Time>
            <Position>
              <LatitudeDegrees>38.10596452094614505767822265625</LatitudeDegrees>
              <LongitudeDegrees>-8.13224994577467441558837890625</LongitudeDegrees>
            </Position>
            <AltitudeMeters>99.8000030517578125</AltitudeMeters>
            <DistanceMeters>241627.16690568</DistanceMeters>
          </Trackpoint>
          <Trackpoint>
            <Time>2018-09-14T10:24:15.000Z</Time>
            <Position>
              <LatitudeDegrees>38.1053570844233036041259765625</LatitudeDegrees>
              <LongitudeDegrees>-8.13219814561307430267333984375</LongitudeDegrees>
            </Position>
            <AltitudeMeters>101.59999847412109375</AltitudeMeters>
            <DistanceMeters>241694.92781646</DistanceMeters>
          </Trackpoint>
          <Trackpoint>
            <Time>2018-09-14T10:24:23.000Z</Time>
            <Position>
              <LatitudeDegrees>38.10481502674520015716552734375</LatitudeDegrees>
              <LongitudeDegrees>-8.1321551464498043060302734375</LongitudeDegrees>
            </Position>
            <AltitudeMeters>102.59999847412109375</AltitudeMeters>
            <DistanceMeters>241755.37720681</DistanceMeters>
          </Trackpoint>
          <Trackpoint>
            <Time>2018-09-14T10:24:24.000Z</Time>
            <Position>
              <LatitudeDegrees>38.10474730096757411956787109375</LatitudeDegrees>
              <LongitudeDegrees>-8.1321494467556476593017578125</LongitudeDegrees>
            </Position>
            <AltitudeMeters>102.8000030517578125</AltitudeMeters>
            <DistanceMeters>241762.93168119</DistanceMeters>
          </Trackpoint>
          <Trackpoint>
            <Time>2018-09-14T10:24:33.000Z</Time>
            <Position>
              <LatitudeDegrees>38.10414363630115985870361328125</LatitudeDegrees>
              <LongitudeDegrees>-8.13210435211658477783203125</LongitudeDegrees>
            </Position>
            <AltitudeMeters>101.8000030517578125</AltitudeMeters>
            <DistanceMeters>241830.2366954</DistanceMeters>
          </Trackpoint>
          <Trackpoint>
            <Time>2018-09-14T10:24:39.000Z</Time>
            <Position>
              <LatitudeDegrees>38.103756643831729888916015625</LatitudeDegrees>
              <LongitudeDegrees>-8.13207887113094329833984375</LongitudeDegrees>
            </Position>
            <AltitudeMeters>102.59999847412109375</AltitudeMeters>
            <DistanceMeters>241873.36751951</DistanceMeters>
          </Trackpoint>
          <Trackpoint>
            <Time>2018-09-14T10:24:48.000Z</Time>
            <Position>
              <LatitudeDegrees>38.10318407602608203887939453125</LatitudeDegrees>
              <LongitudeDegrees>-8.13203687779605388641357421875</LongitudeDegrees>
            </Position>
            <AltitudeMeters>103.59999847412109375</AltitudeMeters>
            <DistanceMeters>241937.20149827</DistanceMeters>
          </Trackpoint>
          <Trackpoint>
            <Time>2018-09-14T10:24:51.000Z</Time>
            <Position>
              <LatitudeDegrees>38.10299783013761043548583984375</LatitudeDegrees>
              <LongitudeDegrees>-8.13202212564647197723388671875</LongitudeDegrees>
            </Position>
            <AltitudeMeters>104.1999969482421875</AltitudeMeters>
            <DistanceMeters>241957.97130357</DistanceMeters>
          </Trackpoint>
          <Trackpoint>
            <Time>2018-09-14T10:24:59.000Z</Time>
            <Position>
              <LatitudeDegrees>38.1024916470050811767578125</LatitudeDegrees>
              <LongitudeDegrees>-8.1319844909012317657470703125</LongitudeDegrees>
            </Position>
            <AltitudeMeters>105.8000030517578125</AltitudeMeters>
            <DistanceMeters>242014.4067724</DistanceMeters>
          </Trackpoint>
          <Trackpoint>
            <Time>2018-09-14T10:25:08.000Z</Time>
            <Position>
              <LatitudeDegrees>38.101930730044841766357421875</LatitudeDegrees>
              <LongitudeDegrees>-8.13193931244313716888427734375</LongitudeDegrees>
            </Position>
            <AltitudeMeters>104.59999847412109375</AltitudeMeters>
            <DistanceMeters>242076.96322729</DistanceMeters>
          </Trackpoint>
          <Trackpoint>
            <Time>2018-09-14T10:25:17.000Z</Time>
            <Position>
              <LatitudeDegrees>38.1013679690659046173095703125</LatitudeDegrees>
              <LongitudeDegrees>-8.1318989954888820648193359375</LongitudeDegrees>
            </Position>
            <AltitudeMeters>105</AltitudeMeters>
            <DistanceMeters>242139.69906958</DistanceMeters>
          </Trackpoint>
          <Trackpoint>
            <Time>2018-09-14T10:25:26.000Z</Time>
            <Position>
              <LatitudeDegrees>38.100784085690975189208984375</LatitudeDegrees>
              <LongitudeDegrees>-8.13185490667819976806640625</LongitudeDegrees>
            </Position>
            <AltitudeMeters>105.8000030517578125</AltitudeMeters>
            <DistanceMeters>242204.80110802</DistanceMeters>
          </Trackpoint>
          <Trackpoint>
            <Time>2018-09-14T10:25:29.000Z</Time>
            <Position>
              <LatitudeDegrees>38.10058350674808025360107421875</LatitudeDegrees>
              <LongitudeDegrees>-8.13184124417603015899658203125</LongitudeDegrees>
            </Position>
            <AltitudeMeters>105.59999847412109375</AltitudeMeters>
            <DistanceMeters>242227.15825053</DistanceMeters>
          </Trackpoint>
          <Trackpoint>
            <Time>2018-09-14T10:25:37.000Z</Time>
            <Position>
              <LatitudeDegrees>38.10002845712006092071533203125</LatitudeDegrees>
              <LongitudeDegrees>-8.1318017654120922088623046875</LongitudeDegrees>
            </Position>
            <AltitudeMeters>105</AltitudeMeters>
            <DistanceMeters>242289.0331208</DistanceMeters>
          </Trackpoint>
          <Trackpoint>
            <Time>2018-09-14T10:25:42.000Z</Time>
            <Position>
              <LatitudeDegrees>38.0996808595955371856689453125</LatitudeDegrees>
              <LongitudeDegrees>-8.13176815398037433624267578125</LongitudeDegrees>
            </Position>
            <AltitudeMeters>105</AltitudeMeters>
            <DistanceMeters>242327.83335565</DistanceMeters>
          </Trackpoint>
          <Trackpoint>
            <Time>2018-09-14T10:25:50.000Z</Time>
            <Position>
              <LatitudeDegrees>38.099111728370189666748046875</LatitudeDegrees>
              <LongitudeDegrees>-8.13173445872962474822998046875</LongitudeDegrees>
            </Position>
            <AltitudeMeters>104.59999847412109375</AltitudeMeters>
            <DistanceMeters>242391.24758073</DistanceMeters>
          </Trackpoint>
          <Trackpoint>
            <Time>2018-09-14T10:25:54.000Z</Time>
            <Position>
              <LatitudeDegrees>38.09881190769374370574951171875</LatitudeDegrees>
              <LongitudeDegrees>-8.1317172758281230926513671875</LongitudeDegrees>
            </Position>
            <AltitudeMeters>104.1999969482421875</AltitudeMeters>
            <DistanceMeters>242424.65214039</DistanceMeters>
          </Trackpoint>
          <Trackpoint>
            <Time>2018-09-14T10:26:01.000Z</Time>
            <Position>
              <LatitudeDegrees>38.0982659943401813507080078125</LatitudeDegrees>
              <LongitudeDegrees>-8.13170026056468486785888671875</LongitudeDegrees>
            </Position>
            <AltitudeMeters>104.8000030517578125</AltitudeMeters>
            <DistanceMeters>242485.43166073</DistanceMeters>
          </Trackpoint>
          <Trackpoint>
            <Time>2018-09-14T10:26:09.000Z</Time>
            <Position>
              <LatitudeDegrees>38.0976641736924648284912109375</LatitudeDegrees>
              <LongitudeDegrees>-8.1316964887082576751708984375</LongitudeDegrees>
            </Position>
            <AltitudeMeters>107.59999847412109375</AltitudeMeters>
            <DistanceMeters>242552.41632804</DistanceMeters>
          </Trackpoint>
          <Trackpoint>
            <Time>2018-09-14T10:26:16.000Z</Time>
            <Position>
              <LatitudeDegrees>38.0971183441579341888427734375</LatitudeDegrees>
              <LongitudeDegrees>-8.131690956652164459228515625</LongitudeDegrees>
            </Position>
            <AltitudeMeters>107.40000152587890625</AltitudeMeters>
            <DistanceMeters>242613.17014015</DistanceMeters>
          </Trackpoint>
          <Trackpoint>
            <Time>2018-09-14T10:26:24.000Z</Time>
            <Position>
              <LatitudeDegrees>38.09650604613125324249267578125</LatitudeDegrees>
              <LongitudeDegrees>-8.13169020228087902069091796875</LongitudeDegrees>
            </Position>
            <AltitudeMeters>106.40000152587890625</AltitudeMeters>
            <DistanceMeters>242681.32019656</DistanceMeters>
          </Trackpoint>
          <Trackpoint>
            <Time>2018-09-14T10:26:26.000Z</Time>
            <Position>
              <LatitudeDegrees>38.0963547527790069580078125</LatitudeDegrees>
              <LongitudeDegrees>-8.1316901184618473052978515625</LongitudeDegrees>
            </Position>
            <AltitudeMeters>106.40000152587890625</AltitudeMeters>
            <DistanceMeters>242698.1595095</DistanceMeters>
          </Trackpoint>
          <Trackpoint>
            <Time>2018-09-14T10:26:34.000Z</Time>
            <Position>
              <LatitudeDegrees>38.095738179981708526611328125</LatitudeDegrees>
              <LongitudeDegrees>-8.13169154338538646697998046875</LongitudeDegrees>
            </Position>
            <AltitudeMeters>105.1999969482421875</AltitudeMeters>
            <DistanceMeters>242766.78537888</DistanceMeters>
          </Trackpoint>
          <Trackpoint>
            <Time>2018-09-14T10:26:41.000Z</Time>
            <Position>
              <LatitudeDegrees>38.09518656693398952484130859375</LatitudeDegrees>
              <LongitudeDegrees>-8.13169305212795734405517578125</LongitudeDegrees>
            </Position>
            <AltitudeMeters>103.1999969482421875</AltitudeMeters>
            <DistanceMeters>242828.18116758</DistanceMeters>
          </Trackpoint>
          <Trackpoint>
            <Time>2018-09-14T10:26:48.000Z</Time>
            <Position>
              <LatitudeDegrees>38.0946352891623973846435546875</LatitudeDegrees>
              <LongitudeDegrees>-8.13169472850859165191650390625</LongitudeDegrees>
            </Position>
            <AltitudeMeters>103</AltitudeMeters>
            <DistanceMeters>242889.53966024</DistanceMeters>
          </Trackpoint>
          <Trackpoint>
            <Time>2018-09-14T10:26:56.000Z</Time>
            <Position>
              <LatitudeDegrees>38.094020225107669830322265625</LatitudeDegrees>
              <LongitudeDegrees>-8.1316914595663547515869140625</LongitudeDegrees>
            </Position>
            <AltitudeMeters>103.1999969482421875</AltitudeMeters>
            <DistanceMeters>242957.99808189</DistanceMeters>
          </Trackpoint>
          <Trackpoint>
            <Time>2018-09-14T10:27:03.000Z</Time>
            <Position>
              <LatitudeDegrees>38.0934621579945087432861328125</LatitudeDegrees>
              <LongitudeDegrees>-8.13168567605316638946533203125</LongitudeDegrees>
            </Position>
            <AltitudeMeters>103</AltitudeMeters>
            <DistanceMeters>243020.1140875</DistanceMeters>
          </Trackpoint>
          <Trackpoint>
            <Time>2018-09-14T10:27:10.000Z</Time>
            <Position>
              <LatitudeDegrees>38.0928988941013813018798828125</LatitudeDegrees>
              <LongitudeDegrees>-8.13168064691126346588134765625</LongitudeDegrees>
            </Position>
            <AltitudeMeters>101.59999847412109375</AltitudeMeters>
            <DistanceMeters>243082.80810184</DistanceMeters>
          </Trackpoint>
          <Trackpoint>
            <Time>2018-09-14T10:27:17.000Z</Time>
            <Position>
              <LatitudeDegrees>38.09234409593045711517333984375</LatitudeDegrees>
              <LongitudeDegrees>-8.13168098218739032745361328125</LongitudeDegrees>
            </Position>
            <AltitudeMeters>101.59999847412109375</AltitudeMeters>
            <DistanceMeters>243144.55821277</DistanceMeters>
          </Trackpoint>
          <Trackpoint>
            <Time>2018-09-14T10:27:24.000Z</Time>
            <Position>
              <LatitudeDegrees>38.09179508127272129058837890625</LatitudeDegrees>
              <LongitudeDegrees>-8.1316757015883922576904296875</LongitudeDegrees>
            </Position>
            <AltitudeMeters>102.8000030517578125</AltitudeMeters>
            <DistanceMeters>243205.66637517</DistanceMeters>
          </Trackpoint>
          <Trackpoint>
            <Time>2018-09-14T10:27:29.000Z</Time>
            <Position>
              <LatitudeDegrees>38.09140079654753208160400390625</LatitudeDegrees>
              <LongitudeDegrees>-8.1316710077226161956787109375</LongitudeDegrees>
            </Position>
            <AltitudeMeters>103.40000152587890625</AltitudeMeters>
            <DistanceMeters>243249.55297944</DistanceMeters>
          </Trackpoint>
          <Trackpoint>
            <Time>2018-09-14T10:27:33.000Z</Time>
            <Position>
              <LatitudeDegrees>38.09107960201799869537353515625</LatitudeDegrees>
              <LongitudeDegrees>-8.13166958279907703399658203125</LongitudeDegrees>
            </Position>
            <AltitudeMeters>103.8000030517578125</AltitudeMeters>
            <DistanceMeters>243285.30285789</DistanceMeters>
          </Trackpoint>
          <Trackpoint>
            <Time>2018-09-14T10:27:40.000Z</Time>
            <Position>
              <LatitudeDegrees>38.09051851741969585418701171875</LatitudeDegrees>
              <LongitudeDegrees>-8.1316705048084259033203125</LongitudeDegrees>
            </Position>
            <AltitudeMeters>104.1999969482421875</AltitudeMeters>
            <DistanceMeters>243347.752691</DistanceMeters>
          </Trackpoint>
          <Trackpoint>
            <Time>2018-09-14T10:27:47.000Z</Time>
            <Position>
              <LatitudeDegrees>38.0899665690958499908447265625</LatitudeDegrees>
              <LongitudeDegrees>-8.1316793896257877349853515625</LongitudeDegrees>
            </Position>
            <AltitudeMeters>104</AltitudeMeters>
            <DistanceMeters>243409.19053011</DistanceMeters>
          </Trackpoint>
          <Trackpoint>
            <Time>2018-09-14T10:27:54.000Z</Time>
            <Position>
              <LatitudeDegrees>38.08940372429788112640380859375</LatitudeDegrees>
              <LongitudeDegrees>-8.1316753663122653961181640625</LongitudeDegrees>
            </Position>
            <AltitudeMeters>103.40000152587890625</AltitudeMeters>
            <DistanceMeters>243471.83728344</DistanceMeters>
          </Trackpoint>
          <Trackpoint>
            <Time>2018-09-14T10:28:01.000Z</Time>
            <Position>
              <LatitudeDegrees>38.08885395526885986328125</LatitudeDegrees>
              <LongitudeDegrees>-8.131670169532299041748046875</LongitudeDegrees>
            </Position>
            <AltitudeMeters>104.59999847412109375</AltitudeMeters>
            <DistanceMeters>243533.02932279</DistanceMeters>
          </Trackpoint>
          <Trackpoint>
            <Time>2018-09-14T10:28:09.000Z</Time>
            <Position>
              <LatitudeDegrees>38.08823729865252971649169921875</LatitudeDegrees>
              <LongitudeDegrees>-8.1316746957600116729736328125</LongitudeDegrees>
            </Position>
            <AltitudeMeters>106.1999969482421875</AltitudeMeters>
            <DistanceMeters>243601.66558653</DistanceMeters>
          </Trackpoint>
          <Trackpoint>
            <Time>2018-09-14T10:28:14.000Z</Time>
            <Position>
              <LatitudeDegrees>38.08784536086022853851318359375</LatitudeDegrees>
              <LongitudeDegrees>-8.13167142681777477264404296875</LongitudeDegrees>
            </Position>
            <AltitudeMeters>107</AltitudeMeters>
            <DistanceMeters>243645.28999037</DistanceMeters>
          </Trackpoint>
          <Trackpoint>
            <Time>2018-09-14T10:28:21.000Z</Time>
            <Position>
              <LatitudeDegrees>38.0872810073196887969970703125</LatitudeDegrees>
              <LongitudeDegrees>-8.1315885297954082489013671875</LongitudeDegrees>
            </Position>
            <AltitudeMeters>107.1999969482421875</AltitudeMeters>
            <DistanceMeters>243708.52196857</DistanceMeters>
          </Trackpoint>
          <Trackpoint>
            <Time>2018-09-14T10:28:28.000Z</Time>
            <Position>
              <LatitudeDegrees>38.08673392049968242645263671875</LatitudeDegrees>
              <LongitudeDegrees>-8.13134721480309963226318359375</LongitudeDegrees>
            </Position>
            <AltitudeMeters>107</AltitudeMeters>
            <DistanceMeters>243772.97901692</DistanceMeters>
          </Trackpoint>
          <Trackpoint>
            <Time>2018-09-14T10:28:35.000Z</Time>
            <Position>
              <LatitudeDegrees>38.086194209754467010498046875</LatitudeDegrees>
              <LongitudeDegrees>-8.1310991942882537841796875</LongitudeDegrees>
            </Position>
            <AltitudeMeters>107.40000152587890625</AltitudeMeters>
            <DistanceMeters>243836.85860086</DistanceMeters>
          </Trackpoint>
          <Trackpoint>
            <Time>2018-09-14T10:28:40.000Z</Time>
            <Position>
              <LatitudeDegrees>38.08581107296049594879150390625</LatitudeDegrees>
              <LongitudeDegrees>-8.13092241995036602020263671875</LongitudeDegrees>
            </Position>
            <AltitudeMeters>107.8000030517578125</AltitudeMeters>
            <DistanceMeters>243882.22726432</DistanceMeters>
          </Trackpoint>
          <Trackpoint>
            <Time>2018-09-14T10:28:47.000Z</Time>
            <Position>
              <LatitudeDegrees>38.08528569526970386505126953125</LatitudeDegrees>
              <LongitudeDegrees>-8.1306792609393596649169921875</LongitudeDegrees>
            </Position>
            <AltitudeMeters>107.40000152587890625</AltitudeMeters>
            <DistanceMeters>243944.46200003</DistanceMeters>
          </Trackpoint>
          <Trackpoint>
            <Time>2018-09-14T10:28:54.000Z</Time>
            <Position>
              <LatitudeDegrees>38.08477574028074741363525390625</LatitudeDegrees>
              <LongitudeDegrees>-8.13044163398444652557373046875</LongitudeDegrees>
            </Position>
            <AltitudeMeters>108</AltitudeMeters>
            <DistanceMeters>244004.91811222</DistanceMeters>
          </Trackpoint>
          <Trackpoint>
            <Time>2018-09-14T10:29:02.000Z</Time>
            <Position>
              <LatitudeDegrees>38.08419889770448207855224609375</LatitudeDegrees>
              <LongitudeDegrees>-8.13017450273036956787109375</LongitudeDegrees>
            </Position>
            <AltitudeMeters>108</AltitudeMeters>
            <DistanceMeters>244073.25401546</DistanceMeters>
          </Trackpoint>
          <Trackpoint>
            <Time>2018-09-14T10:29:03.000Z</Time>
            <Position>
              <LatitudeDegrees>38.0841257236897945404052734375</LatitudeDegrees>
              <LongitudeDegrees>-8.13014156185090541839599609375</LongitudeDegrees>
            </Position>
            <AltitudeMeters>108.1999969482421875</AltitudeMeters>
            <DistanceMeters>244081.89465618</DistanceMeters>
          </Trackpoint>
          <Trackpoint>
            <Time>2018-09-14T10:29:10.000Z</Time>
            <Position>
              <LatitudeDegrees>38.083611913025379180908203125</LatitudeDegrees>
              <LongitudeDegrees>-8.12990653328597545623779296875</LongitudeDegrees>
            </Position>
            <AltitudeMeters>108.59999847412109375</AltitudeMeters>
            <DistanceMeters>244142.67655361</DistanceMeters>
          </Trackpoint>
          <Trackpoint>
            <Time>2018-09-14T10:29:17.000Z</Time>
            <Position>
              <LatitudeDegrees>38.08309282176196575164794921875</LatitudeDegrees>
              <LongitudeDegrees>-8.12966496683657169342041015625</LongitudeDegrees>
            </Position>
            <AltitudeMeters>108.59999847412109375</AltitudeMeters>
            <DistanceMeters>244204.20633282</DistanceMeters>
          </Trackpoint>
          <Trackpoint>
            <Time>2018-09-14T10:29:24.000Z</Time>
            <Position>
              <LatitudeDegrees>38.08257423341274261474609375</LatitudeDegrees>
              <LongitudeDegrees>-8.1294263340532779693603515625</LongitudeDegrees>
            </Position>
            <AltitudeMeters>108.8000030517578125</AltitudeMeters>
            <DistanceMeters>244265.59564967</DistanceMeters>
          </Trackpoint>
          <Trackpoint>
            <Time>2018-09-14T10:29:31.000Z</Time>
            <Position>
              <LatitudeDegrees>38.0820537172257900238037109375</LatitudeDegrees>
              <LongitudeDegrees>-8.129189796745777130126953125</LongitudeDegrees>
            </Position>
            <AltitudeMeters>108.1999969482421875</AltitudeMeters>
            <DistanceMeters>244327.12469508</DistanceMeters>
          </Trackpoint>
          <Trackpoint>
            <Time>2018-09-14T10:29:38.000Z</Time>
            <Position>
              <LatitudeDegrees>38.08154434897005558013916015625</LatitudeDegrees>
              <LongitudeDegrees>-8.1289561092853546142578125</LongitudeDegrees>
            </Position>
            <AltitudeMeters>109</AltitudeMeters>
            <DistanceMeters>244387.40175123</DistanceMeters>
          </Trackpoint>
          <Trackpoint>
            <Time>2018-09-14T10:29:45.000Z</Time>
            <Position>
              <LatitudeDegrees>38.081026934087276458740234375</LatitudeDegrees>
              <LongitudeDegrees>-8.12871538102626800537109375</LongitudeDegrees>
            </Position>
            <AltitudeMeters>109.8000030517578125</AltitudeMeters>
            <DistanceMeters>244448.73131833</DistanceMeters>
          </Trackpoint>
          <Trackpoint>
            <Time>2018-09-14T10:29:52.000Z</Time>
            <Position>
              <LatitudeDegrees>38.08051161468029022216796875</LatitudeDegrees>
              <LongitudeDegrees>-8.1284768320620059967041015625</LongitudeDegrees>
            </Position>
            <AltitudeMeters>110</AltitudeMeters>
            <DistanceMeters>244509.77642343</DistanceMeters>
          </Trackpoint>
          <Trackpoint>
            <Time>2018-09-14T10:29:55.000Z</Time>
            <Position>
              <LatitudeDegrees>38.080290667712688446044921875</LatitudeDegrees>
              <LongitudeDegrees>-8.12837432138621807098388671875</LongitudeDegrees>
            </Position>
            <AltitudeMeters>110</AltitudeMeters>
            <DistanceMeters>244535.95692997</DistanceMeters>
          </Trackpoint>
          <Trackpoint>
            <Time>2018-09-14T10:30:03.000Z</Time>
            <Position>
              <LatitudeDegrees>38.0797143280506134033203125</LatitudeDegrees>
              <LongitudeDegrees>-8.128104507923126220703125</LongitudeDegrees>
            </Position>
            <AltitudeMeters>110</AltitudeMeters>
            <DistanceMeters>244604.3216342</DistanceMeters>
          </Trackpoint>
          <Trackpoint>
            <Time>2018-09-14T10:30:04.000Z</Time>
            <Position>
              <LatitudeDegrees>38.07964324951171875</LatitudeDegrees>
              <LongitudeDegrees>-8.12806670553982257843017578125</LongitudeDegrees>
            </Position>
            <AltitudeMeters>110</AltitudeMeters>
            <DistanceMeters>244612.89828872</DistanceMeters>
          </Trackpoint>
          <Trackpoint>
            <Time>2018-09-14T10:30:11.000Z</Time>
            <Position>
              <LatitudeDegrees>38.0791512317955493927001953125</LatitudeDegrees>
              <LongitudeDegrees>-8.12775003723800182342529296875</LongitudeDegrees>
            </Position>
            <AltitudeMeters>110.8000030517578125</AltitudeMeters>
            <DistanceMeters>244674.28775267</DistanceMeters>
          </Trackpoint>
          <Trackpoint>
            <Time>2018-09-14T10:30:18.000Z</Time>
            <Position>
              <LatitudeDegrees>38.07866482995450496673583984375</LatitudeDegrees>
              <LongitudeDegrees>-8.12739581800997257232666015625</LongitudeDegrees>
            </Position>
            <AltitudeMeters>109.59999847412109375</AltitudeMeters>
            <DistanceMeters>244736.68956101</DistanceMeters>
          </Trackpoint>
          <Trackpoint>
            <Time>2018-09-14T10:30:25.000Z</Time>
            <Position>
              <LatitudeDegrees>38.0781863071024417877197265625</LatitudeDegrees>
              <LongitudeDegrees>-8.12704847194254398345947265625</LongitudeDegrees>
            </Position>
            <AltitudeMeters>111</AltitudeMeters>
            <DistanceMeters>244798.0313477</DistanceMeters>
          </Trackpoint>
          <Trackpoint>
            <Time>2018-09-14T10:30:32.000Z</Time>
            <Position>
              <LatitudeDegrees>38.07769319973886013031005859375</LatitudeDegrees>
              <LongitudeDegrees>-8.1266988627612590789794921875</LongitudeDegrees>
            </Position>
            <AltitudeMeters>109.1999969482421875</AltitudeMeters>
            <DistanceMeters>244860.88403088</DistanceMeters>
          </Trackpoint>
          <Trackpoint>
            <Time>2018-09-14T10:30:39.000Z</Time>
            <Position>
              <LatitudeDegrees>38.0772052891552448272705078125</LatitudeDegrees>
              <LongitudeDegrees>-8.12634372152388095855712890625</LongitudeDegrees>
            </Position>
            <AltitudeMeters>110</AltitudeMeters>
            <DistanceMeters>244923.47194634</DistanceMeters>
          </Trackpoint>
          <Trackpoint>
            <Time>2018-09-14T10:30:46.000Z</Time>
            <Position>
              <LatitudeDegrees>38.0767090804874897003173828125</LatitudeDegrees>
              <LongitudeDegrees>-8.12598480843007564544677734375</LongitudeDegrees>
            </Position>
            <AltitudeMeters>109.8000030517578125</AltitudeMeters>
            <DistanceMeters>244987.02599478</DistanceMeters>
          </Trackpoint>
          <Trackpoint>
            <Time>2018-09-14T10:30:51.000Z</Time>
            <Position>
              <LatitudeDegrees>38.076357543468475341796875</LatitudeDegrees>
              <LongitudeDegrees>-8.12572874128818511962890625</LongitudeDegrees>
            </Position>
            <AltitudeMeters>108.8000030517578125</AltitudeMeters>
            <DistanceMeters>245032.12876078</DistanceMeters>
          </Trackpoint>
          <Trackpoint>
            <Time>2018-09-14T10:30:58.000Z</Time>
            <Position>
              <LatitudeDegrees>38.07584566064178943634033203125</LatitudeDegrees>
              <LongitudeDegrees>-8.125350885093212127685546875</LongitudeDegrees>
            </Position>
            <AltitudeMeters>109.59999847412109375</AltitudeMeters>
            <DistanceMeters>245098.02271291</DistanceMeters>
          </Trackpoint>
          <Trackpoint>
            <Time>2018-09-14T10:31:04.000Z</Time>
            <Position>
              <LatitudeDegrees>38.07540108449757099151611328125</LatitudeDegrees>
              <LongitudeDegrees>-8.1250268407166004180908203125</LongitudeDegrees>
            </Position>
            <AltitudeMeters>108.59999847412109375</AltitudeMeters>
            <DistanceMeters>245155.07151633</DistanceMeters>
          </Trackpoint>
          <Trackpoint>
            <Time>2018-09-14T10:31:11.000Z</Time>
            <Position>
              <LatitudeDegrees>38.07498224079608917236328125</LatitudeDegrees>
              <LongitudeDegrees>-8.12454580329358577728271484375</LongitudeDegrees>
            </Position>
            <AltitudeMeters>109.40000152587890625</AltitudeMeters>
            <DistanceMeters>245217.91759031</DistanceMeters>
          </Trackpoint>
          <Trackpoint>
            <Time>2018-09-14T10:31:16.000Z</Time>
            <Position>
              <LatitudeDegrees>38.0747021175920963287353515625</LatitudeDegrees>
              <LongitudeDegrees>-8.1242161430418491363525390625</LongitudeDegrees>
            </Position>
            <AltitudeMeters>109.1999969482421875</AltitudeMeters>
            <DistanceMeters>245260.41907843</DistanceMeters>
          </Trackpoint>
          <Trackpoint>
            <Time>2018-09-14T10:31:23.000Z</Time>
            <Position>
              <LatitudeDegrees>38.0742833577096462249755859375</LatitudeDegrees>
              <LongitudeDegrees>-8.12369436956942081451416015625</LongitudeDegrees>
            </Position>
            <AltitudeMeters>108</AltitudeMeters>
            <DistanceMeters>245325.70609661</DistanceMeters>
          </Trackpoint>
          <Trackpoint>
            <Time>2018-09-14T10:31:30.000Z</Time>
            <Position>
              <LatitudeDegrees>38.073872812092304229736328125</LatitudeDegrees>
              <LongitudeDegrees>-8.123158514499664306640625</LongitudeDegrees>
            </Position>
            <AltitudeMeters>108.40000152587890625</AltitudeMeters>
            <DistanceMeters>245391.22217507</DistanceMeters>
          </Trackpoint>
          <Trackpoint>
            <Time>2018-09-14T10:31:37.000Z</Time>
            <Position>
              <LatitudeDegrees>38.07345212437212467193603515625</LatitudeDegrees>
              <LongitudeDegrees>-8.1226121820509433746337890625</LongitudeDegrees>
            </Position>
            <AltitudeMeters>109</AltitudeMeters>
            <DistanceMeters>245458.18385365</DistanceMeters>
          </Trackpoint>
          <Trackpoint>
            <Time>2018-09-14T10:31:44.000Z</Time>
            <Position>
              <LatitudeDegrees>38.07304778136312961578369140625</LatitudeDegrees>
              <LongitudeDegrees>-8.12209141440689563751220703125</LongitudeDegrees>
            </Position>
            <AltitudeMeters>110.40000152587890625</AltitudeMeters>
            <DistanceMeters>245522.27301476</DistanceMeters>
          </Trackpoint>
          <Trackpoint>
            <Time>2018-09-14T10:31:51.000Z</Time>
            <Position>
              <LatitudeDegrees>38.07266053743660449981689453125</LatitudeDegrees>
              <LongitudeDegrees>-8.121595792472362518310546875</LongitudeDegrees>
            </Position>
            <AltitudeMeters>111.59999847412109375</AltitudeMeters>
            <DistanceMeters>245583.45752759</DistanceMeters>
          </Trackpoint>
          <Trackpoint>
            <Time>2018-09-14T10:31:59.000Z</Time>
            <Position>
              <LatitudeDegrees>38.07214354164898395538330078125</LatitudeDegrees>
              <LongitudeDegrees>-8.12119890935719013214111328125</LongitudeDegrees>
            </Position>
            <AltitudeMeters>112.8000030517578125</AltitudeMeters>
            <DistanceMeters>245650.69186605</DistanceMeters>
          </Trackpoint>
          <Trackpoint>
            <Time>2018-09-14T10:32:02.000Z</Time>
            <Position>
              <LatitudeDegrees>38.07194656692445278167724609375</LatitudeDegrees>
              <LongitudeDegrees>-8.1210665591061115264892578125</LongitudeDegrees>
            </Position>
            <AltitudeMeters>113.40000152587890625</AltitudeMeters>
            <DistanceMeters>245675.49365646</DistanceMeters>
          </Trackpoint>
          <Trackpoint>
            <Time>2018-09-14T10:32:10.000Z</Time>
            <Position>
              <LatitudeDegrees>38.07142923586070537567138671875</LatitudeDegrees>
              <LongitudeDegrees>-8.1207446940243244171142578125</LongitudeDegrees>
            </Position>
            <AltitudeMeters>114.8000030517578125</AltitudeMeters>
            <DistanceMeters>245739.60937146</DistanceMeters>
          </Trackpoint>
          <Trackpoint>
            <Time>2018-09-14T10:32:11.000Z</Time>
            <Position>
              <LatitudeDegrees>38.0713641084730625152587890625</LatitudeDegrees>
              <LongitudeDegrees>-8.1207034550607204437255859375</LongitudeDegrees>
            </Position>
            <AltitudeMeters>115</AltitudeMeters>
            <DistanceMeters>245747.70841308</DistanceMeters>
          </Trackpoint>
          <Trackpoint>
            <Time>2018-09-14T10:32:16.000Z</Time>
            <Position>
              <LatitudeDegrees>38.071036376059055328369140625</LatitudeDegrees>
              <LongitudeDegrees>-8.12049935571849346160888671875</LongitudeDegrees>
            </Position>
            <AltitudeMeters>115.1999969482421875</AltitudeMeters>
            <DistanceMeters>245788.33363938</DistanceMeters>
          </Trackpoint>
          <Trackpoint>
            <Time>2018-09-14T10:32:24.000Z</Time>
            <Position>
              <LatitudeDegrees>38.070519380271434783935546875</LatitudeDegrees>
              <LongitudeDegrees>-8.120169527828693389892578125</LongitudeDegrees>
            </Position>
            <AltitudeMeters>114.59999847412109375</AltitudeMeters>
            <DistanceMeters>245852.7261419</DistanceMeters>
          </Trackpoint>
          <Trackpoint>
            <Time>2018-09-14T10:32:32.000Z</Time>
            <Position>
              <LatitudeDegrees>38.07001554407179355621337890625</LatitudeDegrees>
              <LongitudeDegrees>-8.11984355561435222625732421875</LongitudeDegrees>
            </Position>
            <AltitudeMeters>114.8000030517578125</AltitudeMeters>
            <DistanceMeters>245915.65908565</DistanceMeters>
          </Trackpoint>
          <Trackpoint>
            <Time>2018-09-14T10:32:34.000Z</Time>
            <Position>
              <LatitudeDegrees>38.06988663040101528167724609375</LatitudeDegrees>
              <LongitudeDegrees>-8.11976040713489055633544921875</LongitudeDegrees>
            </Position>
            <AltitudeMeters>115</AltitudeMeters>
            <DistanceMeters>245931.75146062</DistanceMeters>
          </Trackpoint>
          <Trackpoint>
            <Time>2018-09-14T10:32:41.000Z</Time>
            <Position>
              <LatitudeDegrees>38.0694366060197353363037109375</LatitudeDegrees>
              <LongitudeDegrees>-8.11947609297931194305419921875</LongitudeDegrees>
            </Position>
            <AltitudeMeters>115.1999969482421875</AltitudeMeters>
            <DistanceMeters>245987.69355097</DistanceMeters>
          </Trackpoint>
          <Trackpoint>
            <Time>2018-09-14T10:32:47.000Z</Time>
            <Position>
              <LatitudeDegrees>38.0690242163836956024169921875</LatitudeDegrees>
              <LongitudeDegrees>-8.1193304993212223052978515625</LongitudeDegrees>
            </Position>
            <AltitudeMeters>115.40000152587890625</AltitudeMeters>
            <DistanceMeters>246035.33322081</DistanceMeters>
          </Trackpoint>
          <Trackpoint>
            <Time>2018-09-14T10:32:55.000Z</Time>
            <Position>
              <LatitudeDegrees>38.0684669874608516693115234375</LatitudeDegrees>
              <LongitudeDegrees>-8.1191571615636348724365234375</LongitudeDegrees>
            </Position>
            <AltitudeMeters>116.8000030517578125</AltitudeMeters>
            <DistanceMeters>246099.18664763</DistanceMeters>
          </Trackpoint>
          <Trackpoint>
            <Time>2018-09-14T10:32:58.000Z</Time>
            <Position>
              <LatitudeDegrees>38.06826020590960979461669921875</LatitudeDegrees>
              <LongitudeDegrees>-8.11909203417599201202392578125</LongitudeDegrees>
            </Position>
            <AltitudeMeters>117.1999969482421875</AltitudeMeters>
            <DistanceMeters>246122.89881201</DistanceMeters>
          </Trackpoint>
          <Trackpoint>
            <Time>2018-09-14T10:33:06.000Z</Time>
            <Position>
              <LatitudeDegrees>38.06772694922983646392822265625</LatitudeDegrees>
              <LongitudeDegrees>-8.11891735531389713287353515625</LongitudeDegrees>
            </Position>
            <AltitudeMeters>118.1999969482421875</AltitudeMeters>
            <DistanceMeters>246184.19332633</DistanceMeters>
          </Trackpoint>
          <Trackpoint>
            <Time>2018-09-14T10:33:15.000Z</Time>
            <Position>
              <LatitudeDegrees>38.067158572375774383544921875</LatitudeDegrees>
              <LongitudeDegrees>-8.11874024569988250732421875</LongitudeDegrees>
            </Position>
            <AltitudeMeters>117.8000030517578125</AltitudeMeters>
            <DistanceMeters>246249.33072532</DistanceMeters>
          </Trackpoint>
          <Trackpoint>
            <Time>2018-09-14T10:33:17.000Z</Time>
            <Position>
              <LatitudeDegrees>38.06705388240516185760498046875</LatitudeDegrees>
              <LongitudeDegrees>-8.11871971003711223602294921875</LongitudeDegrees>
            </Position>
            <AltitudeMeters>118</AltitudeMeters>
            <DistanceMeters>246261.12131593</DistanceMeters>
          </Trackpoint>
          <Trackpoint>
            <Time>2018-09-14T10:33:18.000Z</Time>
            <Position>
              <LatitudeDegrees>38.06700040586292743682861328125</LatitudeDegrees>
              <LongitudeDegrees>-8.1187179498374462127685546875</LongitudeDegrees>
            </Position>
            <AltitudeMeters>118</AltitudeMeters>
            <DistanceMeters>246267.07548087</DistanceMeters>
          </Trackpoint>
          <Trackpoint>
            <Time>2018-09-14T10:33:23.000Z</Time>
            <Position>
              <LatitudeDegrees>38.06675850413739681243896484375</LatitudeDegrees>
              <LongitudeDegrees>-8.118843846023082733154296875</LongitudeDegrees>
            </Position>
            <AltitudeMeters>118</AltitudeMeters>
            <DistanceMeters>246296.17228219</DistanceMeters>
          </Trackpoint>
          <Trackpoint>
            <Time>2018-09-14T10:33:24.000Z</Time>
            <Position>
              <LatitudeDegrees>38.06671357713639736175537109375</LatitudeDegrees>
              <LongitudeDegrees>-8.11887963674962520599365234375</LongitudeDegrees>
            </Position>
            <AltitudeMeters>118</AltitudeMeters>
            <DistanceMeters>246302.07389255</DistanceMeters>
          </Trackpoint>
          <Trackpoint>
            <Time>2018-09-14T10:33:28.000Z</Time>
            <Position>
              <LatitudeDegrees>38.0664958991110324859619140625</LatitudeDegrees>
              <LongitudeDegrees>-8.11892439611256122589111328125</LongitudeDegrees>
            </Position>
            <AltitudeMeters>118.40000152587890625</AltitudeMeters>
            <DistanceMeters>246326.61692169</DistanceMeters>
          </Trackpoint>
          <Trackpoint>
            <Time>2018-09-14T10:33:31.000Z</Time>
            <Position>
              <LatitudeDegrees>38.066319040954113006591796875</LatitudeDegrees>
              <LongitudeDegrees>-8.11892556957900524139404296875</LongitudeDegrees>
            </Position>
            <AltitudeMeters>118.8000030517578125</AltitudeMeters>
            <DistanceMeters>246346.30190684</DistanceMeters>
          </Trackpoint>
          <Trackpoint>
            <Time>2018-09-14T10:33:39.000Z</Time>
            <Position>
              <LatitudeDegrees>38.0658853612840175628662109375</LatitudeDegrees>
              <LongitudeDegrees>-8.11911684460937976837158203125</LongitudeDegrees>
            </Position>
            <AltitudeMeters>119.59999847412109375</AltitudeMeters>
            <DistanceMeters>246397.3985408</DistanceMeters>
          </Trackpoint>
          <Trackpoint>
            <Time>2018-09-14T10:33:49.000Z</Time>
            <Position>
              <LatitudeDegrees>38.06534313596785068511962890625</LatitudeDegrees>
              <LongitudeDegrees>-8.11936251819133758544921875</LongitudeDegrees>
            </Position>
            <AltitudeMeters>121</AltitudeMeters>
            <DistanceMeters>246461.47403328</DistanceMeters>
          </Trackpoint>
          <Trackpoint>
            <Time>2018-09-14T10:33:54.000Z</Time>
            <Position>
              <LatitudeDegrees>38.06508664973080158233642578125</LatitudeDegrees>
              <LongitudeDegrees>-8.1194850616157054901123046875</LongitudeDegrees>
            </Position>
            <AltitudeMeters>121.8000030517578125</AltitudeMeters>
            <DistanceMeters>246491.97435205</DistanceMeters>
          </Trackpoint>
          <Trackpoint>
            <Time>2018-09-14T10:34:03.000Z</Time>
            <Position>
              <LatitudeDegrees>38.06462279520928859710693359375</LatitudeDegrees>
              <LongitudeDegrees>-8.11970106326043605804443359375</LongitudeDegrees>
            </Position>
            <AltitudeMeters>123.1999969482421875</AltitudeMeters>
            <DistanceMeters>246546.96272443</DistanceMeters>
          </Trackpoint>
          <Trackpoint>
            <Time>2018-09-14T10:34:05.000Z</Time>
            <Position>
              <LatitudeDegrees>38.06451894342899322509765625</LatitudeDegrees>
              <LongitudeDegrees>-8.11975143849849700927734375</LongitudeDegrees>
            </Position>
            <AltitudeMeters>123.59999847412109375</AltitudeMeters>
            <DistanceMeters>246559.33591788</DistanceMeters>
          </Trackpoint>
          <Trackpoint>
            <Time>2018-09-14T10:34:10.000Z</Time>
            <Position>
              <LatitudeDegrees>38.06425080634653568267822265625</LatitudeDegrees>
              <LongitudeDegrees>-8.11988010071218013763427734375</LongitudeDegrees>
            </Position>
            <AltitudeMeters>124.59999847412109375</AltitudeMeters>
            <DistanceMeters>246591.23872255</DistanceMeters>
          </Trackpoint>
          <Trackpoint>
            <Time>2018-09-14T10:34:20.000Z</Time>
            <Position>
              <LatitudeDegrees>38.0637229979038238525390625</LatitudeDegrees>
              <LongitudeDegrees>-8.12014429830014705657958984375</LongitudeDegrees>
            </Position>
            <AltitudeMeters>125.1999969482421875</AltitudeMeters>
            <DistanceMeters>246654.3823833</DistanceMeters>
          </Trackpoint>
          <Trackpoint>
            <Time>2018-09-14T10:34:21.000Z</Time>
            <Position>
              <LatitudeDegrees>38.06367061100900173187255859375</LatitudeDegrees>
              <LongitudeDegrees>-8.1201700307428836822509765625</LongitudeDegrees>
            </Position>
            <AltitudeMeters>125.1999969482421875</AltitudeMeters>
            <DistanceMeters>246660.63395677</DistanceMeters>
          </Trackpoint>
          <Trackpoint>
            <Time>2018-09-14T10:34:24.000Z</Time>
            <Position>
              <LatitudeDegrees>38.0635199882090091705322265625</LatitudeDegrees>
              <LongitudeDegrees>-8.1202605552971363067626953125</LongitudeDegrees>
            </Position>
            <AltitudeMeters>125.40000152587890625</AltitudeMeters>
            <DistanceMeters>246679.18072744</DistanceMeters>
          </Trackpoint>
          <Trackpoint>
            <Time>2018-09-14T10:34:28.000Z</Time>
            <Position>
              <LatitudeDegrees>38.0633339099586009979248046875</LatitudeDegrees>
              <LongitudeDegrees>-8.1204318813979625701904296875</LongitudeDegrees>
            </Position>
            <AltitudeMeters>125</AltitudeMeters>
            <DistanceMeters>246704.76074697</DistanceMeters>
          </Trackpoint>
          <Trackpoint>
            <Time>2018-09-14T10:34:31.000Z</Time>
            <Position>
              <LatitudeDegrees>38.063155375421047210693359375</LatitudeDegrees>
              <LongitudeDegrees>-8.1204587034881114959716796875</LongitudeDegrees>
            </Position>
            <AltitudeMeters>124.8000030517578125</AltitudeMeters>
            <DistanceMeters>246724.77058429</DistanceMeters>
          </Trackpoint>
          <Trackpoint>
            <Time>2018-09-14T10:34:33.000Z</Time>
            <Position>
              <LatitudeDegrees>38.06303375400602817535400390625</LatitudeDegrees>
              <LongitudeDegrees>-8.12047705985605716705322265625</LongitudeDegrees>
            </Position>
            <AltitudeMeters>124.59999847412109375</AltitudeMeters>
            <DistanceMeters>246738.40252997</DistanceMeters>
          </Trackpoint>
          <Trackpoint>
            <Time>2018-09-14T10:34:42.000Z</Time>
            <Position>
              <LatitudeDegrees>38.06248440407216548919677734375</LatitudeDegrees>
              <LongitudeDegrees>-8.1207460351288318634033203125</LongitudeDegrees>
            </Position>
            <AltitudeMeters>123.8000030517578125</AltitudeMeters>
            <DistanceMeters>246803.93225217</DistanceMeters>
          </Trackpoint>
          <Trackpoint>
            <Time>2018-09-14T10:34:50.000Z</Time>
            <Position>
              <LatitudeDegrees>38.06196858175098896026611328125</LatitudeDegrees>
              <LongitudeDegrees>-8.121001012623310089111328125</LongitudeDegrees>
            </Position>
            <AltitudeMeters>123.59999847412109375</AltitudeMeters>
            <DistanceMeters>246865.53917849</DistanceMeters>
          </Trackpoint>
          <Trackpoint>
            <Time>2018-09-14T10:34:58.000Z</Time>
            <Position>
              <LatitudeDegrees>38.06145049631595611572265625</LatitudeDegrees>
              <LongitudeDegrees>-8.12125624157488346099853515625</LongitudeDegrees>
            </Position>
            <AltitudeMeters>123.59999847412109375</AltitudeMeters>
            <DistanceMeters>246927.38894182</DistanceMeters>
          </Trackpoint>
          <Trackpoint>
            <Time>2018-09-14T10:35:06.000Z</Time>
            <Position>
              <LatitudeDegrees>38.060945570468902587890625</LatitudeDegrees>
              <LongitudeDegrees>-8.12145271338522434234619140625</LongitudeDegrees>
            </Position>
            <AltitudeMeters>123.8000030517578125</AltitudeMeters>
            <DistanceMeters>246986.16663271</DistanceMeters>
          </Trackpoint>
          <Trackpoint>
            <Time>2018-09-14T10:35:15.000Z</Time>
            <Position>
              <LatitudeDegrees>38.06040032766759395599365234375</LatitudeDegrees>
              <LongitudeDegrees>-8.12154474668204784393310546875</LongitudeDegrees>
            </Position>
            <AltitudeMeters>124.8000030517578125</AltitudeMeters>
            <DistanceMeters>247047.38692508</DistanceMeters>
          </Trackpoint>
          <Trackpoint>
            <Time>2018-09-14T10:35:22.000Z</Time>
            <Position>
              <LatitudeDegrees>38.05995876900851726531982421875</LatitudeDegrees>
              <LongitudeDegrees>-8.121570982038974761962890625</LongitudeDegrees>
            </Position>
            <AltitudeMeters>125.40000152587890625</AltitudeMeters>
            <DistanceMeters>247096.58709248</DistanceMeters>
          </Trackpoint>
          <Trackpoint>
            <Time>2018-09-14T10:35:28.000Z</Time>
            <Position>
              <LatitudeDegrees>38.05958761833608150482177734375</LatitudeDegrees>
              <LongitudeDegrees>-8.12155899591743946075439453125</LongitudeDegrees>
            </Position>
            <AltitudeMeters>124.8000030517578125</AltitudeMeters>
            <DistanceMeters>247137.91027624</DistanceMeters>
          </Trackpoint>
          <Trackpoint>
            <Time>2018-09-14T10:35:37.000Z</Time>
            <Position>
              <LatitudeDegrees>38.0590210855007171630859375</LatitudeDegrees>
              <LongitudeDegrees>-8.1214836426079273223876953125</LongitudeDegrees>
            </Position>
            <AltitudeMeters>125.59999847412109375</AltitudeMeters>
            <DistanceMeters>247201.31139932</DistanceMeters>
          </Trackpoint>
          <Trackpoint>
            <Time>2018-09-14T10:35:46.000Z</Time>
            <Position>
              <LatitudeDegrees>38.05846360512077808380126953125</LatitudeDegrees>
              <LongitudeDegrees>-8.12129907310009002685546875</LongitudeDegrees>
            </Position>
            <AltitudeMeters>126.59999847412109375</AltitudeMeters>
            <DistanceMeters>247265.43366307</DistanceMeters>
          </Trackpoint>
          <Trackpoint>
            <Time>2018-09-14T10:35:55.000Z</Time>
            <Position>
              <LatitudeDegrees>38.05793973617255687713623046875</LatitudeDegrees>
              <LongitudeDegrees>-8.1209891103208065032958984375</LongitudeDegrees>
            </Position>
            <AltitudeMeters>125.8000030517578125</AltitudeMeters>
            <DistanceMeters>247329.75853685</DistanceMeters>
          </Trackpoint>
          <Trackpoint>
            <Time>2018-09-14T10:36:04.000Z</Time>
            <Position>
              <LatitudeDegrees>38.05743212811648845672607421875</LatitudeDegrees>
              <LongitudeDegrees>-8.12063924968242645263671875</LongitudeDegrees>
            </Position>
            <AltitudeMeters>125.8000030517578125</AltitudeMeters>
            <DistanceMeters>247394.04001786</DistanceMeters>
          </Trackpoint>
          <Trackpoint>
            <Time>2018-09-14T10:36:05.000Z</Time>
            <Position>
              <LatitudeDegrees>38.0573777295649051666259765625</LatitudeDegrees>
              <LongitudeDegrees>-8.120599351823329925537109375</LongitudeDegrees>
            </Position>
            <AltitudeMeters>126</AltitudeMeters>
            <DistanceMeters>247401.03207291</DistanceMeters>
          </Trackpoint>
          <Trackpoint>
            <Time>2018-09-14T10:36:07.000Z</Time>
            <Position>
              <LatitudeDegrees>38.05726801045238971710205078125</LatitudeDegrees>
              <LongitudeDegrees>-8.12053103931248188018798828125</LongitudeDegrees>
            </Position>
            <AltitudeMeters>126</AltitudeMeters>
            <DistanceMeters>247414.63251724</DistanceMeters>
          </Trackpoint>
          <Trackpoint>
            <Time>2018-09-14T10:36:11.000Z</Time>
            <Position>
              <LatitudeDegrees>38.057017810642719268798828125</LatitudeDegrees>
              <LongitudeDegrees>-8.12046767212450504302978515625</LongitudeDegrees>
            </Position>
            <AltitudeMeters>125.8000030517578125</AltitudeMeters>
            <DistanceMeters>247443.02881464</DistanceMeters>
          </Trackpoint>
          <Trackpoint>
            <Time>2018-09-14T10:36:15.000Z</Time>
            <Position>
              <LatitudeDegrees>38.0568265356123447418212890625</LatitudeDegrees>
              <LongitudeDegrees>-8.120261393487453460693359375</LongitudeDegrees>
            </Position>
            <AltitudeMeters>125.8000030517578125</AltitudeMeters>
            <DistanceMeters>247470.95826368</DistanceMeters>
          </Trackpoint>
          <Trackpoint>
            <Time>2018-09-14T10:36:17.000Z</Time>
            <Position>
              <LatitudeDegrees>38.05673257447779178619384765625</LatitudeDegrees>
              <LongitudeDegrees>-8.12014949508011341094970703125</LongitudeDegrees>
            </Position>
            <AltitudeMeters>125.8000030517578125</AltitudeMeters>
            <DistanceMeters>247485.29502063</DistanceMeters>
          </Trackpoint>
          <Trackpoint>
            <Time>2018-09-14T10:36:21.000Z</Time>
            <Position>
              <LatitudeDegrees>38.05651447735726833343505859375</LatitudeDegrees>
              <LongitudeDegrees>-8.11997934244573116302490234375</LongitudeDegrees>
            </Position>
            <AltitudeMeters>126.40000152587890625</AltitudeMeters>
            <DistanceMeters>247513.78402326</DistanceMeters>
          </Trackpoint>
          <Trackpoint>
            <Time>2018-09-14T10:36:30.000Z</Time>
            <Position>
              <LatitudeDegrees>38.05600033141672611236572265625</LatitudeDegrees>
              <LongitudeDegrees>-8.11961523257195949554443359375</LongitudeDegrees>
            </Position>
            <AltitudeMeters>127.59999847412109375</AltitudeMeters>
            <DistanceMeters>247579.30533905</DistanceMeters>
          </Trackpoint>
          <Trackpoint>
            <Time>2018-09-14T10:36:35.000Z</Time>
            <Position>
              <LatitudeDegrees>38.05572087876498699188232421875</LatitudeDegrees>
              <LongitudeDegrees>-8.119426555931568145751953125</LongitudeDegrees>
            </Position>
            <AltitudeMeters>128.399993896484375</AltitudeMeters>
            <DistanceMeters>247614.53142292</DistanceMeters>
          </Trackpoint>
          <Trackpoint>
            <Time>2018-09-14T10:36:44.000Z</Time>
            <Position>
              <LatitudeDegrees>38.0552373267710208892822265625</LatitudeDegrees>
              <LongitudeDegrees>-8.11907962895929813385009765625</LongitudeDegrees>
            </Position>
            <AltitudeMeters>128.399993896484375</AltitudeMeters>
            <DistanceMeters>247676.34628236</DistanceMeters>
          </Trackpoint>
          <Trackpoint>
            <Time>2018-09-14T10:36:53.000Z</Time>
            <Position>
              <LatitudeDegrees>38.0547498352825641632080078125</LatitudeDegrees>
              <LongitudeDegrees>-8.11873915605247020721435546875</LongitudeDegrees>
            </Position>
            <AltitudeMeters>129.399993896484375</AltitudeMeters>
            <DistanceMeters>247738.26885692</DistanceMeters>
          </Trackpoint>
          <Trackpoint>
            <Time>2018-09-14T10:37:02.000Z</Time>
            <Position>
              <LatitudeDegrees>38.0542593263089656829833984375</LatitudeDegrees>
              <LongitudeDegrees>-8.118395246565341949462890625</LongitudeDegrees>
            </Position>
            <AltitudeMeters>129.1999969482421875</AltitudeMeters>
            <DistanceMeters>247800.63100251</DistanceMeters>
          </Trackpoint>
          <Trackpoint>
            <Time>2018-09-14T10:37:05.000Z</Time>
            <Position>
              <LatitudeDegrees>38.0540953762829303741455078125</LatitudeDegrees>
              <LongitudeDegrees>-8.11827630735933780670166015625</LongitudeDegrees>
            </Position>
            <AltitudeMeters>129.600006103515625</AltitudeMeters>
            <DistanceMeters>247821.64630595</DistanceMeters>
          </Trackpoint>
          <Trackpoint>
            <Time>2018-09-14T10:37:14.000Z</Time>
            <Position>
              <LatitudeDegrees>38.053610064089298248291015625</LatitudeDegrees>
              <LongitudeDegrees>-8.1179357506334781646728515625</LongitudeDegrees>
            </Position>
            <AltitudeMeters>130.600006103515625</AltitudeMeters>
            <DistanceMeters>247883.36028606</DistanceMeters>
          </Trackpoint>
          <Trackpoint>
            <Time>2018-09-14T10:37:16.000Z</Time>
            <Position>
              <LatitudeDegrees>38.05350503884255886077880859375</LatitudeDegrees>
              <LongitudeDegrees>-8.11786173842847347259521484375</LongitudeDegrees>
            </Position>
            <AltitudeMeters>130.8000030517578125</AltitudeMeters>
            <DistanceMeters>247896.72902845</DistanceMeters>
          </Trackpoint>
          <Trackpoint>
            <Time>2018-09-14T10:37:26.000Z</Time>
            <Position>
              <LatitudeDegrees>38.05298485793173313140869140625</LatitudeDegrees>
              <LongitudeDegrees>-8.1174998916685581207275390625</LongitudeDegrees>
            </Position>
            <AltitudeMeters>133.399993896484375</AltitudeMeters>
            <DistanceMeters>247962.74291806</DistanceMeters>
          </Trackpoint>
          <Trackpoint>
            <Time>2018-09-14T10:37:34.000Z</Time>
            <Position>
              <LatitudeDegrees>38.05255335755646228790283203125</LatitudeDegrees>
              <LongitudeDegrees>-8.11727165244519710540771484375</LongitudeDegrees>
            </Position>
            <AltitudeMeters>135.1999969482421875</AltitudeMeters>
            <DistanceMeters>248014.76915465</DistanceMeters>
          </Trackpoint>
          <Trackpoint>
            <Time>2018-09-14T10:37:42.000Z</Time>
            <Position>
              <LatitudeDegrees>38.05210878141224384307861328125</LatitudeDegrees>
              <LongitudeDegrees>-8.117076940834522247314453125</LongitudeDegrees>
            </Position>
            <AltitudeMeters>135.600006103515625</AltitudeMeters>
            <DistanceMeters>248067.11153894</DistanceMeters>
          </Trackpoint>
          <Trackpoint>
            <Time>2018-09-14T10:37:46.000Z</Time>
            <Position>
              <LatitudeDegrees>38.0518862418830394744873046875</LatitudeDegrees>
              <LongitudeDegrees>-8.11698951758444309234619140625</LongitudeDegrees>
            </Position>
            <AltitudeMeters>135.600006103515625</AltitudeMeters>
            <DistanceMeters>248093.03868592</DistanceMeters>
          </Trackpoint>
          <Trackpoint>
            <Time>2018-09-14T10:37:55.000Z</Time>
            <Position>
              <LatitudeDegrees>38.05133412592113018035888671875</LatitudeDegrees>
              <LongitudeDegrees>-8.1168041937053203582763671875</LongitudeDegrees>
            </Position>
            <AltitudeMeters>134</AltitudeMeters>
            <DistanceMeters>248156.60069062</DistanceMeters>
          </Trackpoint>
          <Trackpoint>
            <Time>2018-09-14T10:37:56.000Z</Time>
            <Position>
              <LatitudeDegrees>38.051265813410282135009765625</LatitudeDegrees>
              <LongitudeDegrees>-8.116782568395137786865234375</LongitudeDegrees>
            </Position>
            <AltitudeMeters>133.600006103515625</AltitudeMeters>
            <DistanceMeters>248164.43679423</DistanceMeters>
          </Trackpoint>
          <Trackpoint>
            <Time>2018-09-14T10:38:04.000Z</Time>
            <Position>
              <LatitudeDegrees>38.0507030524313449859619140625</LatitudeDegrees>
              <LongitudeDegrees>-8.11659590341150760650634765625</LongitudeDegrees>
            </Position>
            <AltitudeMeters>132</AltitudeMeters>
            <DistanceMeters>248229.17461084</DistanceMeters>
          </Trackpoint>
          <Trackpoint>
            <Time>2018-09-14T10:38:09.000Z</Time>
            <Position>
              <LatitudeDegrees>38.05034288205206394195556640625</LatitudeDegrees>
              <LongitudeDegrees>-8.11647101305425167083740234375</LongitudeDegrees>
            </Position>
            <AltitudeMeters>131.600006103515625</AltitudeMeters>
            <DistanceMeters>248270.72987017</DistanceMeters>
          </Trackpoint>
          <Trackpoint>
            <Time>2018-09-14T10:38:15.000Z</Time>
            <Position>
              <LatitudeDegrees>38.0498923547565937042236328125</LatitudeDegrees>
              <LongitudeDegrees>-8.11631913296878337860107421875</LongitudeDegrees>
            </Position>
            <AltitudeMeters>130.600006103515625</AltitudeMeters>
            <DistanceMeters>248322.61132338</DistanceMeters>
          </Trackpoint>
          <Trackpoint>
            <Time>2018-09-14T10:38:20.000Z</Time>
            <Position>
              <LatitudeDegrees>38.04950796067714691162109375</LatitudeDegrees>
              <LongitudeDegrees>-8.1161896325647830963134765625</LongitudeDegrees>
            </Position>
            <AltitudeMeters>130</AltitudeMeters>
            <DistanceMeters>248366.87521166</DistanceMeters>
          </Trackpoint>
          <Trackpoint>
            <Time>2018-09-14T10:38:23.000Z</Time>
            <Position>
              <LatitudeDegrees>38.04926547221839427947998046875</LatitudeDegrees>
              <LongitudeDegrees>-8.116109333932399749755859375</LongitudeDegrees>
            </Position>
            <AltitudeMeters>129.8000030517578125</AltitudeMeters>
            <DistanceMeters>248394.76745442</DistanceMeters>
          </Trackpoint>
          <Trackpoint>
            <Time>2018-09-14T10:38:27.000Z</Time>
            <Position>
              <LatitudeDegrees>38.04893606342375278472900390625</LatitudeDegrees>
              <LongitudeDegrees>-8.1159914843738079071044921875</LongitudeDegrees>
            </Position>
            <AltitudeMeters>129.399993896484375</AltitudeMeters>
            <DistanceMeters>248432.85847164</DistanceMeters>
          </Trackpoint>
          <Trackpoint>
            <Time>2018-09-14T10:38:30.000Z</Time>
            <Position>
              <LatitudeDegrees>38.04868645034730434417724609375</LatitudeDegrees>
              <LongitudeDegrees>-8.1159080006182193756103515625</LongitudeDegrees>
            </Position>
            <AltitudeMeters>129.399993896484375</AltitudeMeters>
            <DistanceMeters>248461.58830226</DistanceMeters>
          </Trackpoint>
          <Trackpoint>
            <Time>2018-09-14T10:38:37.000Z</Time>
            <Position>
              <LatitudeDegrees>38.0481334961950778961181640625</LatitudeDegrees>
              <LongitudeDegrees>-8.11572812497615814208984375</LongitudeDegrees>
            </Position>
            <AltitudeMeters>130</AltitudeMeters>
            <DistanceMeters>248525.12046584</DistanceMeters>
          </Trackpoint>
          <Trackpoint>
            <Time>2018-09-14T10:38:44.000Z</Time>
            <Position>
              <LatitudeDegrees>38.047611303627490997314453125</LatitudeDegrees>
              <LongitudeDegrees>-8.11555302701890468597412109375</LongitudeDegrees>
            </Position>
            <AltitudeMeters>131</AltitudeMeters>
            <DistanceMeters>248585.2337074</DistanceMeters>
          </Trackpoint>
          <Trackpoint>
            <Time>2018-09-14T10:38:52.000Z</Time>
            <Position>
              <LatitudeDegrees>38.04701342247426509857177734375</LatitudeDegrees>
              <LongitudeDegrees>-8.11535655520856380462646484375</LongitudeDegrees>
            </Position>
            <AltitudeMeters>129.399993896484375</AltitudeMeters>
            <DistanceMeters>248653.97120094</DistanceMeters>
          </Trackpoint>
          <Trackpoint>
            <Time>2018-09-14T10:38:59.000Z</Time>
            <Position>
              <LatitudeDegrees>38.04648502729833126068115234375</LatitudeDegrees>
              <LongitudeDegrees>-8.1151801161468029022216796875</LongitudeDegrees>
            </Position>
            <AltitudeMeters>128.8000030517578125</AltitudeMeters>
            <DistanceMeters>248714.78206169</DistanceMeters>
          </Trackpoint>
          <Trackpoint>
            <Time>2018-09-14T10:39:06.000Z</Time>
            <Position>
              <LatitudeDegrees>38.045953698456287384033203125</LatitudeDegrees>
              <LongitudeDegrees>-8.115003593266010284423828125</LongitudeDegrees>
            </Position>
            <AltitudeMeters>129</AltitudeMeters>
            <DistanceMeters>248775.91046551</DistanceMeters>
          </Trackpoint>
          <Trackpoint>
            <Time>2018-09-14T10:39:12.000Z</Time>
            <Position>
              <LatitudeDegrees>38.04550501517951488494873046875</LatitudeDegrees>
              <LongitudeDegrees>-8.1148505397140979766845703125</LongitudeDegrees>
            </Position>
            <AltitudeMeters>127.40000152587890625</AltitudeMeters>
            <DistanceMeters>248827.62036781</DistanceMeters>
          </Trackpoint>
          <Trackpoint>
            <Time>2018-09-14T10:39:19.000Z</Time>
            <Position>
              <LatitudeDegrees>38.044974021613597869873046875</LatitudeDegrees>
              <LongitudeDegrees>-8.11466999351978302001953125</LongitudeDegrees>
            </Position>
            <AltitudeMeters>126.59999847412109375</AltitudeMeters>
            <DistanceMeters>248888.80310957</DistanceMeters>
          </Trackpoint>
          <Trackpoint>
            <Time>2018-09-14T10:39:26.000Z</Time>
            <Position>
              <LatitudeDegrees>38.04443011991679668426513671875</LatitudeDegrees>
              <LongitudeDegrees>-8.11449103988707065582275390625</LongitudeDegrees>
            </Position>
            <AltitudeMeters>126.1999969482421875</AltitudeMeters>
            <DistanceMeters>248951.33956867</DistanceMeters>
          </Trackpoint>
          <Trackpoint>
            <Time>2018-09-14T10:39:33.000Z</Time>
            <Position>
              <LatitudeDegrees>38.043874315917491912841796875</LatitudeDegrees>
              <LongitudeDegrees>-8.114304877817630767822265625</LongitudeDegrees>
            </Position>
            <AltitudeMeters>126</AltitudeMeters>
            <DistanceMeters>249015.3176053</DistanceMeters>
          </Trackpoint>
          <Trackpoint>
            <Time>2018-09-14T10:39:40.000Z</Time>
            <Position>
              <LatitudeDegrees>38.043329156935214996337890625</LatitudeDegrees>
              <LongitudeDegrees>-8.11412743292748928070068359375</LongitudeDegrees>
            </Position>
            <AltitudeMeters>126.40000152587890625</AltitudeMeters>
            <DistanceMeters>249077.9567186</DistanceMeters>
          </Trackpoint>
          <Trackpoint>
            <Time>2018-09-14T10:39:47.000Z</Time>
            <Position>
              <LatitudeDegrees>38.04277653805911540985107421875</LatitudeDegrees>
              <LongitudeDegrees>-8.1139375828206539154052734375</LongitudeDegrees>
            </Position>
            <AltitudeMeters>126.40000152587890625</AltitudeMeters>
            <DistanceMeters>249141.67586848</DistanceMeters>
          </Trackpoint>
          <Trackpoint>
            <Time>2018-09-14T10:39:51.000Z</Time>
            <Position>
              <LatitudeDegrees>38.04246640764176845550537109375</LatitudeDegrees>
              <LongitudeDegrees>-8.11383205465972423553466796875</LongitudeDegrees>
            </Position>
            <AltitudeMeters>125.8000030517578125</AltitudeMeters>
            <DistanceMeters>249177.4119781</DistanceMeters>
          </Trackpoint>
          <Trackpoint>
            <Time>2018-09-14T10:39:58.000Z</Time>
            <Position>
              <LatitudeDegrees>38.04193197749555110931396484375</LatitudeDegrees>
              <LongitudeDegrees>-8.11365435831248760223388671875</LongitudeDegrees>
            </Position>
            <AltitudeMeters>125</AltitudeMeters>
            <DistanceMeters>249238.90065093</DistanceMeters>
          </Trackpoint>
          <Trackpoint>
            <Time>2018-09-14T10:40:05.000Z</Time>
            <Position>
              <LatitudeDegrees>38.0413954518735408782958984375</LatitudeDegrees>
              <LongitudeDegrees>-8.1134799309074878692626953125</LongitudeDegrees>
            </Position>
            <AltitudeMeters>124.8000030517578125</AltitudeMeters>
            <DistanceMeters>249300.54333134</DistanceMeters>
          </Trackpoint>
          <Trackpoint>
            <Time>2018-09-14T10:40:12.000Z</Time>
            <Position>
              <LatitudeDegrees>38.0408449284732341766357421875</LatitudeDegrees>
              <LongitudeDegrees>-8.1133008934557437896728515625</LongitudeDegrees>
            </Position>
            <AltitudeMeters>124.40000152587890625</AltitudeMeters>
            <DistanceMeters>249363.79558513</DistanceMeters>
          </Trackpoint>
          <Trackpoint>
            <Time>2018-09-14T10:40:19.000Z</Time>
            <Position>
              <LatitudeDegrees>38.04027470760047435760498046875</LatitudeDegrees>
              <LongitudeDegrees>-8.11311163008213043212890625</LongitudeDegrees>
            </Position>
            <AltitudeMeters>122.1999969482421875</AltitudeMeters>
            <DistanceMeters>249429.39492887</DistanceMeters>
          </Trackpoint>
          <Trackpoint>
            <Time>2018-09-14T10:40:26.000Z</Time>
            <Position>
              <LatitudeDegrees>38.03970121778547763824462890625</LatitudeDegrees>
              <LongitudeDegrees>-8.1129129789769649505615234375</LongitudeDegrees>
            </Position>
            <AltitudeMeters>122.8000030517578125</AltitudeMeters>
            <DistanceMeters>249495.55816162</DistanceMeters>
          </Trackpoint>
          <Trackpoint>
            <Time>2018-09-14T10:40:33.000Z</Time>
            <Position>
              <LatitudeDegrees>38.03914792835712432861328125</LatitudeDegrees>
              <LongitudeDegrees>-8.11273419298231601715087890625</LongitudeDegrees>
            </Position>
            <AltitudeMeters>123</AltitudeMeters>
            <DistanceMeters>249559.10332913</DistanceMeters>
          </Trackpoint>
          <Trackpoint>
            <Time>2018-09-14T10:40:40.000Z</Time>
            <Position>
              <LatitudeDegrees>38.03859262727200984954833984375</LatitudeDegrees>
              <LongitudeDegrees>-8.11254694126546382904052734375</LongitudeDegrees>
            </Position>
            <AltitudeMeters>123.8000030517578125</AltitudeMeters>
            <DistanceMeters>249623.05200119</DistanceMeters>
          </Trackpoint>
          <Trackpoint>
            <Time>2018-09-14T10:40:47.000Z</Time>
            <Position>
              <LatitudeDegrees>38.03806724958121776580810546875</LatitudeDegrees>
              <LongitudeDegrees>-8.11236958019435405731201171875</LongitudeDegrees>
            </Position>
            <AltitudeMeters>124.1999969482421875</AltitudeMeters>
            <DistanceMeters>249683.55917493</DistanceMeters>
          </Trackpoint>
          <Trackpoint>
            <Time>2018-09-14T10:40:52.000Z</Time>
            <Position>
              <LatitudeDegrees>38.037691824138164520263671875</LatitudeDegrees>
              <LongitudeDegrees>-8.11224619857966899871826171875</LongitudeDegrees>
            </Position>
            <AltitudeMeters>124.40000152587890625</AltitudeMeters>
            <DistanceMeters>249726.72191536</DistanceMeters>
          </Trackpoint>
          <Trackpoint>
            <Time>2018-09-14T10:41:00.000Z</Time>
            <Position>
              <LatitudeDegrees>38.03710802458226680755615234375</LatitudeDegrees>
              <LongitudeDegrees>-8.1120546720921993255615234375</LongitudeDegrees>
            </Position>
            <AltitudeMeters>124.59999847412109375</AltitudeMeters>
            <DistanceMeters>249793.83405724</DistanceMeters>
          </Trackpoint>
          <Trackpoint>
            <Time>2018-09-14T10:41:08.000Z</Time>
            <Position>
              <LatitudeDegrees>38.0365361273288726806640625</LatitudeDegrees>
              <LongitudeDegrees>-8.11186415143311023712158203125</LongitudeDegrees>
            </Position>
            <AltitudeMeters>125.1999969482421875</AltitudeMeters>
            <DistanceMeters>249859.64196088</DistanceMeters>
          </Trackpoint>
          <Trackpoint>
            <Time>2018-09-14T10:41:16.000Z</Time>
            <Position>
              <LatitudeDegrees>38.03596682846546173095703125</LatitudeDegrees>
              <LongitudeDegrees>-8.11167404986917972564697265625</LongitudeDegrees>
            </Position>
            <AltitudeMeters>126</AltitudeMeters>
            <DistanceMeters>249925.16093371</DistanceMeters>
          </Trackpoint>
          <Trackpoint>
            <Time>2018-09-14T10:41:24.000Z</Time>
            <Position>
              <LatitudeDegrees>38.0353961884975433349609375</LatitudeDegrees>
              <LongitudeDegrees>-8.11148428358137607574462890625</LongitudeDegrees>
            </Position>
            <AltitudeMeters>126.59999847412109375</AltitudeMeters>
            <DistanceMeters>249990.8167605</DistanceMeters>
          </Trackpoint>
          <Trackpoint>
            <Time>2018-09-14T10:41:25.000Z</Time>
            <Position>
              <LatitudeDegrees>38.035324104130268096923828125</LatitudeDegrees>
              <LongitudeDegrees>-8.11146064661443233489990234375</LongitudeDegrees>
            </Position>
            <AltitudeMeters>126.8000030517578125</AltitudeMeters>
            <DistanceMeters>249999.10317718</DistanceMeters>
          </Trackpoint>
          <Trackpoint>
            <Time>2018-09-14T10:41:33.000Z</Time>
            <Position>
              <LatitudeDegrees>38.03474617190659046173095703125</LatitudeDegrees>
              <LongitudeDegrees>-8.11126383952796459197998046875</LongitudeDegrees>
            </Position>
            <AltitudeMeters>126.1999969482421875</AltitudeMeters>
            <DistanceMeters>250065.70178743</DistanceMeters>
          </Trackpoint>
          <Trackpoint>
            <Time>2018-09-14T10:41:41.000Z</Time>
            <Position>
              <LatitudeDegrees>38.0341752804815769195556640625</LatitudeDegrees>
              <LongitudeDegrees>-8.11107306741178035736083984375</LongitudeDegrees>
            </Position>
            <AltitudeMeters>124.8000030517578125</AltitudeMeters>
            <DistanceMeters>250131.40724616</DistanceMeters>
          </Trackpoint>
          <Trackpoint>
            <Time>2018-09-14T10:41:48.000Z</Time>
            <Position>
              <LatitudeDegrees>38.03364881314337253570556640625</LatitudeDegrees>
              <LongitudeDegrees>-8.1108969636261463165283203125</LongitudeDegrees>
            </Position>
            <AltitudeMeters>125</AltitudeMeters>
            <DistanceMeters>250192.00374858</DistanceMeters>
          </Trackpoint>
          <Trackpoint>
            <Time>2018-09-14T10:41:50.000Z</Time>
            <Position>
              <LatitudeDegrees>38.0335020460188388824462890625</LatitudeDegrees>
              <LongitudeDegrees>-8.1108473427593708038330078125</LongitudeDegrees>
            </Position>
            <AltitudeMeters>125.1999969482421875</AltitudeMeters>
            <DistanceMeters>250208.90835739</DistanceMeters>
          </Trackpoint>
          <Trackpoint>
            <Time>2018-09-14T10:41:54.000Z</Time>
            <Position>
              <LatitudeDegrees>38.03321731276810169219970703125</LatitudeDegrees>
              <LongitudeDegrees>-8.1107544712722301483154296875</LongitudeDegrees>
            </Position>
            <AltitudeMeters>125.40000152587890625</AltitudeMeters>
            <DistanceMeters>250241.62874741</DistanceMeters>
          </Trackpoint>
          <Trackpoint>
            <Time>2018-09-14T10:42:02.000Z</Time>
            <Position>
              <LatitudeDegrees>38.03263862617313861846923828125</LatitudeDegrees>
              <LongitudeDegrees>-8.1105593405663967132568359375</LongitudeDegrees>
            </Position>
            <AltitudeMeters>126</AltitudeMeters>
            <DistanceMeters>250308.2707322</DistanceMeters>
          </Trackpoint>
          <Trackpoint>
            <Time>2018-09-14T10:42:05.000Z</Time>
            <Position>
              <LatitudeDegrees>38.032419271767139434814453125</LatitudeDegrees>
              <LongitudeDegrees>-8.1104864180088043212890625</LongitudeDegrees>
            </Position>
            <AltitudeMeters>125.8000030517578125</AltitudeMeters>
            <DistanceMeters>250333.50833197</DistanceMeters>
          </Trackpoint>
          <Trackpoint>
            <Time>2018-09-14T10:42:12.000Z</Time>
            <Position>
              <LatitudeDegrees>38.031890206038951873779296875</LatitudeDegrees>
              <LongitudeDegrees>-8.1103169359266757965087890625</LongitudeDegrees>
            </Position>
            <AltitudeMeters>125.8000030517578125</AltitudeMeters>
            <DistanceMeters>250394.23999359</DistanceMeters>
          </Trackpoint>
          <Trackpoint>
            <Time>2018-09-14T10:42:13.000Z</Time>
            <Position>
              <LatitudeDegrees>38.03181133233010768890380859375</LatitudeDegrees>
              <LongitudeDegrees>-8.11028860509395599365234375</LongitudeDegrees>
            </Position>
            <AltitudeMeters>125.8000030517578125</AltitudeMeters>
            <DistanceMeters>250403.36354798</DistanceMeters>
          </Trackpoint>
          <Trackpoint>
            <Time>2018-09-14T10:42:19.000Z</Time>
            <Position>
              <LatitudeDegrees>38.0313157103955745697021484375</LatitudeDegrees>
              <LongitudeDegrees>-8.11013035476207733154296875</LongitudeDegrees>
            </Position>
            <AltitudeMeters>124.40000152587890625</AltitudeMeters>
            <DistanceMeters>250460.24511363</DistanceMeters>
          </Trackpoint>
          <Trackpoint>
            <Time>2018-09-14T10:42:23.000Z</Time>
            <Position>
              <LatitudeDegrees>38.0309693701565265655517578125</LatitudeDegrees>
              <LongitudeDegrees>-8.11001342721283435821533203125</LongitudeDegrees>
            </Position>
            <AltitudeMeters>123</AltitudeMeters>
            <DistanceMeters>250500.13313588</DistanceMeters>
          </Trackpoint>
          <Trackpoint>
            <Time>2018-09-14T10:42:26.000Z</Time>
            <Position>
              <LatitudeDegrees>38.030709363520145416259765625</LatitudeDegrees>
              <LongitudeDegrees>-8.10992357321083545684814453125</LongitudeDegrees>
            </Position>
            <AltitudeMeters>121.1999969482421875</AltitudeMeters>
            <DistanceMeters>250530.12531927</DistanceMeters>
          </Trackpoint>
          <Trackpoint>
            <Time>2018-09-14T10:42:28.000Z</Time>
            <Position>
              <LatitudeDegrees>38.03053401410579681396484375</LatitudeDegrees>
              <LongitudeDegrees>-8.10986557044088840484619140625</LongitudeDegrees>
            </Position>
            <AltitudeMeters>120.1999969482421875</AltitudeMeters>
            <DistanceMeters>250550.2936061</DistanceMeters>
          </Trackpoint>
          <Trackpoint>
            <Time>2018-09-14T10:42:30.000Z</Time>
            <Position>
              <LatitudeDegrees>38.03035573102533817291259765625</LatitudeDegrees>
              <LongitudeDegrees>-8.10980455018579959869384765625</LongitudeDegrees>
            </Position>
            <AltitudeMeters>119</AltitudeMeters>
            <DistanceMeters>250570.84531638</DistanceMeters>
          </Trackpoint>
          <Trackpoint>
            <Time>2018-09-14T10:42:36.000Z</Time>
            <Position>
              <LatitudeDegrees>38.02980269305408000946044921875</LatitudeDegrees>
              <LongitudeDegrees>-8.10961545445024967193603515625</LongitudeDegrees>
            </Position>
            <AltitudeMeters>117</AltitudeMeters>
            <DistanceMeters>250634.59294498</DistanceMeters>
          </Trackpoint>
          <Trackpoint>
            <Time>2018-09-14T10:42:37.000Z</Time>
            <Position>
              <LatitudeDegrees>38.0297100730240345001220703125</LatitudeDegrees>
              <LongitudeDegrees>-8.10958444140851497650146484375</LongitudeDegrees>
            </Position>
            <AltitudeMeters>116.59999847412109375</AltitudeMeters>
            <DistanceMeters>250645.25373961</DistanceMeters>
          </Trackpoint>
          <Trackpoint>
            <Time>2018-09-14T10:42:44.000Z</Time>
            <Position>
              <LatitudeDegrees>38.0291085876524448394775390625</LatitudeDegrees>
              <LongitudeDegrees>-8.109388053417205810546875</LongitudeDegrees>
            </Position>
            <AltitudeMeters>115.1999969482421875</AltitudeMeters>
            <DistanceMeters>250714.37886536</DistanceMeters>
          </Trackpoint>
          <Trackpoint>
            <Time>2018-09-14T10:42:46.000Z</Time>
            <Position>
              <LatitudeDegrees>38.0289453081786632537841796875</LatitudeDegrees>
              <LongitudeDegrees>-8.10933399014174938201904296875</LongitudeDegrees>
            </Position>
            <AltitudeMeters>114.8000030517578125</AltitudeMeters>
            <DistanceMeters>250733.16004866</DistanceMeters>
          </Trackpoint>
          <Trackpoint>
            <Time>2018-09-14T10:42:49.000Z</Time>
            <Position>
              <LatitudeDegrees>38.028703071177005767822265625</LatitudeDegrees>
              <LongitudeDegrees>-8.1092759035527706146240234375</LongitudeDegrees>
            </Position>
            <AltitudeMeters>114.40000152587890625</AltitudeMeters>
            <DistanceMeters>250760.59826167</DistanceMeters>
          </Trackpoint>
          <Trackpoint>
            <Time>2018-09-14T10:42:55.000Z</Time>
            <Position>
              <LatitudeDegrees>38.02824743092060089111328125</LatitudeDegrees>
              <LongitudeDegrees>-8.10932275839149951934814453125</LongitudeDegrees>
            </Position>
            <AltitudeMeters>114.8000030517578125</AltitudeMeters>
            <DistanceMeters>250811.47794637</DistanceMeters>
          </Trackpoint>
          <Trackpoint>
            <Time>2018-09-14T10:42:59.000Z</Time>
            <Position>
              <LatitudeDegrees>38.0279535613954067230224609375</LatitudeDegrees>
              <LongitudeDegrees>-8.10940138064324855804443359375</LongitudeDegrees>
            </Position>
            <AltitudeMeters>116.1999969482421875</AltitudeMeters>
            <DistanceMeters>250844.90466531</DistanceMeters>
          </Trackpoint>
          <Trackpoint>
            <Time>2018-09-14T10:43:05.000Z</Time>
            <Position>
              <LatitudeDegrees>38.02751577459275722503662109375</LatitudeDegrees>
              <LongitudeDegrees>-8.10943289659917354583740234375</LongitudeDegrees>
            </Position>
            <AltitudeMeters>118.1999969482421875</AltitudeMeters>
            <DistanceMeters>250893.70946439</DistanceMeters>
          </Trackpoint>
          <Trackpoint>
            <Time>2018-09-14T10:43:07.000Z</Time>
            <Position>
              <LatitudeDegrees>38.027374707162380218505859375</LatitudeDegrees>
              <LongitudeDegrees>-8.10940892435610294342041015625</LongitudeDegrees>
            </Position>
            <AltitudeMeters>118.8000030517578125</AltitudeMeters>
            <DistanceMeters>250909.55073405</DistanceMeters>
          </Trackpoint>
          <Trackpoint>
            <Time>2018-09-14T10:43:13.000Z</Time>
            <Position>
              <LatitudeDegrees>38.02699794061481952667236328125</LatitudeDegrees>
              <LongitudeDegrees>-8.1092976965010166168212890625</LongitudeDegrees>
            </Position>
            <AltitudeMeters>120.1999969482421875</AltitudeMeters>
            <DistanceMeters>250952.60444297</DistanceMeters>
          </Trackpoint>
          <Trackpoint>
            <Time>2018-09-14T10:43:16.000Z</Time>
            <Position>
              <LatitudeDegrees>38.0268370918929576873779296875</LatitudeDegrees>
              <LongitudeDegrees>-8.10924598015844821929931640625</LongitudeDegrees>
            </Position>
            <AltitudeMeters>120.8000030517578125</AltitudeMeters>
            <DistanceMeters>250971.0724149</DistanceMeters>
          </Trackpoint>
          <Trackpoint>
            <Time>2018-09-14T10:43:21.000Z</Time>
            <Position>
              <LatitudeDegrees>38.02657901309430599212646484375</LatitudeDegrees>
              <LongitudeDegrees>-8.10916601680219173431396484375</LongitudeDegrees>
            </Position>
            <AltitudeMeters>121.40000152587890625</AltitudeMeters>
            <DistanceMeters>251000.64023324</DistanceMeters>
          </Trackpoint>
          <Trackpoint>
            <Time>2018-09-14T10:43:26.000Z</Time>
            <Position>
              <LatitudeDegrees>38.026344738900661468505859375</LatitudeDegrees>
              <LongitudeDegrees>-8.1090836226940155029296875</LongitudeDegrees>
            </Position>
            <AltitudeMeters>122</AltitudeMeters>
            <DistanceMeters>251027.69766138</DistanceMeters>
          </Trackpoint>
          <Trackpoint>
            <Time>2018-09-14T10:43:31.000Z</Time>
            <Position>
              <LatitudeDegrees>38.02612873725593090057373046875</LatitudeDegrees>
              <LongitudeDegrees>-8.10902059078216552734375</LongitudeDegrees>
            </Position>
            <AltitudeMeters>122.59999847412109375</AltitudeMeters>
            <DistanceMeters>251052.36601806</DistanceMeters>
          </Trackpoint>
          <Trackpoint>
            <Time>2018-09-14T10:43:37.000Z</Time>
            <Position>
              <LatitudeDegrees>38.02588633261620998382568359375</LatitudeDegrees>
              <LongitudeDegrees>-8.10894540511071681976318359375</LongitudeDegrees>
            </Position>
            <AltitudeMeters>123.40000152587890625</AltitudeMeters>
            <DistanceMeters>251080.13984117</DistanceMeters>
          </Trackpoint>
          <Trackpoint>
            <Time>2018-09-14T10:43:43.000Z</Time>
            <Position>
              <LatitudeDegrees>38.025654740631580352783203125</LatitudeDegrees>
              <LongitudeDegrees>-8.10887851752340793609619140625</LongitudeDegrees>
            </Position>
            <AltitudeMeters>123.8000030517578125</AltitudeMeters>
            <DistanceMeters>251106.57537816</DistanceMeters>
          </Trackpoint>
          <Trackpoint>
            <Time>2018-09-14T10:43:49.000Z</Time>
            <Position>
              <LatitudeDegrees>38.02542063407599925994873046875</LatitudeDegrees>
              <LongitudeDegrees>-8.1088098697364330291748046875</LongitudeDegrees>
            </Position>
            <AltitudeMeters>124.8000030517578125</AltitudeMeters>
            <DistanceMeters>251133.31809725</DistanceMeters>
          </Trackpoint>
          <Trackpoint>
            <Time>2018-09-14T10:43:56.000Z</Time>
            <Position>
              <LatitudeDegrees>38.02513531409204006195068359375</LatitudeDegrees>
              <LongitudeDegrees>-8.10872227884829044342041015625</LongitudeDegrees>
            </Position>
            <AltitudeMeters>127.59999847412109375</AltitudeMeters>
            <DistanceMeters>251165.9901556</DistanceMeters>
          </Trackpoint>
          <Trackpoint>
            <Time>2018-09-14T10:44:04.000Z</Time>
            <Position>
              <LatitudeDegrees>38.0248036421835422515869140625</LatitudeDegrees>
              <LongitudeDegrees>-8.1086113862693309783935546875</LongitudeDegrees>
            </Position>
            <AltitudeMeters>130.1999969482421875</AltitudeMeters>
            <DistanceMeters>251204.16488359</DistanceMeters>
          </Trackpoint>
          <Trackpoint>
            <Time>2018-09-14T10:44:08.000Z</Time>
            <Position>
              <LatitudeDegrees>38.02463675849139690399169921875</LatitudeDegrees>
              <LongitudeDegrees>-8.1085560657083988189697265625</LongitudeDegrees>
            </Position>
            <AltitudeMeters>131</AltitudeMeters>
            <DistanceMeters>251223.36216151</DistanceMeters>
          </Trackpoint>
          <Trackpoint>
            <Time>2018-09-14T10:44:14.000Z</Time>
            <Position>
              <LatitudeDegrees>38.02438194863498210906982421875</LatitudeDegrees>
              <LongitudeDegrees>-8.10847484506666660308837890625</LongitudeDegrees>
            </Position>
            <AltitudeMeters>132.399993896484375</AltitudeMeters>
            <DistanceMeters>251252.60353526</DistanceMeters>
          </Trackpoint>
          <Trackpoint>
            <Time>2018-09-14T10:44:22.000Z</Time>
            <Position>
              <LatitudeDegrees>38.024034686386585235595703125</LatitudeDegrees>
              <LongitudeDegrees>-8.10837359167635440826416015625</LongitudeDegrees>
            </Position>
            <AltitudeMeters>133.600006103515625</AltitudeMeters>
            <DistanceMeters>251292.26099652</DistanceMeters>
          </Trackpoint>
          <Trackpoint>
            <Time>2018-09-14T10:44:28.000Z</Time>
            <Position>
              <LatitudeDegrees>38.02378230728209018707275390625</LatitudeDegrees>
              <LongitudeDegrees>-8.10829010792076587677001953125</LongitudeDegrees>
            </Position>
            <AltitudeMeters>134.399993896484375</AltitudeMeters>
            <DistanceMeters>251321.28928588</DistanceMeters>
          </Trackpoint>
          <Trackpoint>
            <Time>2018-09-14T10:44:33.000Z</Time>
            <Position>
              <LatitudeDegrees>38.0235929600894451141357421875</LatitudeDegrees>
              <LongitudeDegrees>-8.108229003846645355224609375</LongitudeDegrees>
            </Position>
            <AltitudeMeters>135</AltitudeMeters>
            <DistanceMeters>251343.0344215</DistanceMeters>
          </Trackpoint>
          <Trackpoint>
            <Time>2018-09-14T10:44:38.000Z</Time>
            <Position>
              <LatitudeDegrees>38.02342155016958713531494140625</LatitudeDegrees>
              <LongitudeDegrees>-8.108169324696063995361328125</LongitudeDegrees>
            </Position>
            <AltitudeMeters>135.8000030517578125</AltitudeMeters>
            <DistanceMeters>251362.81733112</DistanceMeters>
          </Trackpoint>
          <Trackpoint>
            <Time>2018-09-14T10:44:44.000Z</Time>
            <Position>
              <LatitudeDegrees>38.02325441502034664154052734375</LatitudeDegrees>
              <LongitudeDegrees>-8.1081135012209415435791015625</LongitudeDegrees>
            </Position>
            <AltitudeMeters>136.399993896484375</AltitudeMeters>
            <DistanceMeters>251382.0531418</DistanceMeters>
          </Trackpoint>
          <Trackpoint>
            <Time>2018-09-14T10:44:48.000Z</Time>
            <Position>
              <LatitudeDegrees>38.02313916385173797607421875</LatitudeDegrees>
              <LongitudeDegrees>-8.10809724032878875732421875</LongitudeDegrees>
            </Position>
            <AltitudeMeters>137</AltitudeMeters>
            <DistanceMeters>251394.95999464</DistanceMeters>
          </Trackpoint>
          <Trackpoint>
            <Time>2018-09-14T10:44:55.000Z</Time>
            <Position>
              <LatitudeDegrees>38.02294210530817508697509765625</LatitudeDegrees>
              <LongitudeDegrees>-8.108029849827289581298828125</LongitudeDegrees>
            </Position>
            <AltitudeMeters>138</AltitudeMeters>
            <DistanceMeters>251417.67515627</DistanceMeters>
          </Trackpoint>
          <Trackpoint>
            <Time>2018-09-14T10:45:02.000Z</Time>
            <Position>
              <LatitudeDegrees>38.02272048778831958770751953125</LatitudeDegrees>
              <LongitudeDegrees>-8.107970170676708221435546875</LongitudeDegrees>
            </Position>
            <AltitudeMeters>139</AltitudeMeters>
            <DistanceMeters>251442.89056252</DistanceMeters>
          </Trackpoint>
          <Trackpoint>
            <Time>2018-09-14T10:45:08.000Z</Time>
            <Position>
              <LatitudeDegrees>38.022520579397678375244140625</LatitudeDegrees>
              <LongitudeDegrees>-8.10790185816586017608642578125</LongitudeDegrees>
            </Position>
            <AltitudeMeters>139.600006103515625</AltitudeMeters>
            <DistanceMeters>251465.93292427</DistanceMeters>
          </Trackpoint>
          <Trackpoint>
            <Time>2018-09-14T10:45:15.000Z</Time>
            <Position>
              <LatitudeDegrees>38.02225998602807521820068359375</LatitudeDegrees>
              <LongitudeDegrees>-8.107828684151172637939453125</LongitudeDegrees>
            </Position>
            <AltitudeMeters>140.1999969482421875</AltitudeMeters>
            <DistanceMeters>251495.63861564</DistanceMeters>
          </Trackpoint>
          <Trackpoint>
            <Time>2018-09-14T10:45:26.000Z</Time>
            <Position>
              <LatitudeDegrees>38.02171088755130767822265625</LatitudeDegrees>
              <LongitudeDegrees>-8.1076414324343204498291015625</LongitudeDegrees>
            </Position>
            <AltitudeMeters>141.399993896484375</AltitudeMeters>
            <DistanceMeters>251558.92127063</DistanceMeters>
          </Trackpoint>
          <Trackpoint>
            <Time>2018-09-14T10:45:33.000Z</Time>
            <Position>
              <LatitudeDegrees>38.02133361808955669403076171875</LatitudeDegrees>
              <LongitudeDegrees>-8.1075240857899188995361328125</LongitudeDegrees>
            </Position>
            <AltitudeMeters>142.399993896484375</AltitudeMeters>
            <DistanceMeters>251602.1543529</DistanceMeters>
          </Trackpoint>
          <Trackpoint>
            <Time>2018-09-14T10:45:40.000Z</Time>
            <Position>
              <LatitudeDegrees>38.02099180407822132110595703125</LatitudeDegrees>
              <LongitudeDegrees>-8.10742140747606754302978515625</LongitudeDegrees>
            </Position>
            <AltitudeMeters>143.600006103515625</AltitudeMeters>
            <DistanceMeters>251641.24973369</DistanceMeters>
          </Trackpoint>
          <Trackpoint>
            <Time>2018-09-14T10:45:45.000Z</Time>
            <Position>
              <LatitudeDegrees>38.0207568593323230743408203125</LatitudeDegrees>
              <LongitudeDegrees>-8.10734949074685573577880859375</LongitudeDegrees>
            </Position>
            <AltitudeMeters>144.8000030517578125</AltitudeMeters>
            <DistanceMeters>251668.14917654</DistanceMeters>
          </Trackpoint>
          <Trackpoint>
            <Time>2018-09-14T10:45:50.000Z</Time>
            <Position>
              <LatitudeDegrees>38.0205315537750720977783203125</LatitudeDegrees>
              <LongitudeDegrees>-8.10728008858859539031982421875</LongitudeDegrees>
            </Position>
            <AltitudeMeters>145.8000030517578125</AltitudeMeters>
            <DistanceMeters>251693.95396034</DistanceMeters>
          </Trackpoint>
          <Trackpoint>
            <Time>2018-09-14T10:45:55.000Z</Time>
            <Position>
              <LatitudeDegrees>38.02031789906322956085205078125</LatitudeDegrees>
              <LongitudeDegrees>-8.1072293780744075775146484375</LongitudeDegrees>
            </Position>
            <AltitudeMeters>146.600006103515625</AltitudeMeters>
            <DistanceMeters>251718.14642558</DistanceMeters>
          </Trackpoint>
          <Trackpoint>
            <Time>2018-09-14T10:46:03.000Z</Time>
            <Position>
              <LatitudeDegrees>38.01998849026858806610107421875</LatitudeDegrees>
              <LongitudeDegrees>-8.10712418518960475921630859375</LongitudeDegrees>
            </Position>
            <AltitudeMeters>147</AltitudeMeters>
            <DistanceMeters>251755.95272955</DistanceMeters>
          </Trackpoint>
          <Trackpoint>
            <Time>2018-09-14T10:46:10.000Z</Time>
            <Position>
              <LatitudeDegrees>38.01970057189464569091796875</LatitudeDegrees>
              <LongitudeDegrees>-8.10703148134052753448486328125</LongitudeDegrees>
            </Position>
            <AltitudeMeters>147</AltitudeMeters>
            <DistanceMeters>251789.01356005</DistanceMeters>
          </Trackpoint>
          <Trackpoint>
            <Time>2018-09-14T10:46:17.000Z</Time>
            <Position>
              <LatitudeDegrees>38.019368983805179595947265625</LatitudeDegrees>
              <LongitudeDegrees>-8.10694296844303607940673828125</LongitudeDegrees>
            </Position>
            <AltitudeMeters>147.1999969482421875</AltitudeMeters>
            <DistanceMeters>251826.72719565</DistanceMeters>
          </Trackpoint>
          <Trackpoint>
            <Time>2018-09-14T10:46:27.000Z</Time>
            <Position>
              <LatitudeDegrees>38.01884419284760951995849609375</LatitudeDegrees>
              <LongitudeDegrees>-8.106774576008319854736328125</LongitudeDegrees>
            </Position>
            <AltitudeMeters>148</AltitudeMeters>
            <DistanceMeters>251886.97480704</DistanceMeters>
          </Trackpoint>
          <Trackpoint>
            <Time>2018-09-14T10:46:37.000Z</Time>
            <Position>
              <LatitudeDegrees>38.018294759094715118408203125</LatitudeDegrees>
              <LongitudeDegrees>-8.1065997295081615447998046875</LongitudeDegrees>
            </Position>
            <AltitudeMeters>149</AltitudeMeters>
            <DistanceMeters>251950.0204309</DistanceMeters>
          </Trackpoint>
          <Trackpoint>
            <Time>2018-09-14T10:46:48.000Z</Time>
            <Position>
              <LatitudeDegrees>38.01773375831544399261474609375</LatitudeDegrees>
              <LongitudeDegrees>-8.10642681084573268890380859375</LongitudeDegrees>
            </Position>
            <AltitudeMeters>151.1999969482421875</AltitudeMeters>
            <DistanceMeters>252014.27549678</DistanceMeters>
          </Trackpoint>
          <Trackpoint>
            <Time>2018-09-14T10:46:53.000Z</Time>
            <Position>
              <LatitudeDegrees>38.017502166330814361572265625</LatitudeDegrees>
              <LongitudeDegrees>-8.1063613481819629669189453125</LongitudeDegrees>
            </Position>
            <AltitudeMeters>152.8000030517578125</AltitudeMeters>
            <DistanceMeters>252040.68369255</DistanceMeters>
          </Trackpoint>
          <Trackpoint>
            <Time>2018-09-14T10:46:59.000Z</Time>
            <Position>
              <LatitudeDegrees>38.0172367952764034271240234375</LatitudeDegrees>
              <LongitudeDegrees>-8.10628247447311878204345703125</LongitudeDegrees>
            </Position>
            <AltitudeMeters>155</AltitudeMeters>
            <DistanceMeters>252071.01895257</DistanceMeters>
          </Trackpoint>
          <Trackpoint>
            <Time>2018-09-14T10:47:03.000Z</Time>
            <Position>
              <LatitudeDegrees>38.0170647986233234405517578125</LatitudeDegrees>
              <LongitudeDegrees>-8.10623570345342159271240234375</LongitudeDegrees>
            </Position>
            <AltitudeMeters>155.399993896484375</AltitudeMeters>
            <DistanceMeters>252090.59699268</DistanceMeters>
          </Trackpoint>
          <Trackpoint>
            <Time>2018-09-14T10:47:09.000Z</Time>
            <Position>
              <LatitudeDegrees>38.01680906675755977630615234375</LatitudeDegrees>
              <LongitudeDegrees>-8.1061625294387340545654296875</LongitudeDegrees>
            </Position>
            <AltitudeMeters>155.8000030517578125</AltitudeMeters>
            <DistanceMeters>252119.77468188</DistanceMeters>
          </Trackpoint>
          <Trackpoint>
            <Time>2018-09-14T10:47:15.000Z</Time>
            <Position>
              <LatitudeDegrees>38.01656196825206279754638671875</LatitudeDegrees>
              <LongitudeDegrees>-8.1060874275863170623779296875</LongitudeDegrees>
            </Position>
            <AltitudeMeters>155.8000030517578125</AltitudeMeters>
            <DistanceMeters>252148.0546704</DistanceMeters>
          </Trackpoint>
          <Trackpoint>
            <Time>2018-09-14T10:47:18.000Z</Time>
            <Position>
              <LatitudeDegrees>38.01644830964505672454833984375</LatitudeDegrees>
              <LongitudeDegrees>-8.10605029575526714324951171875</LongitudeDegrees>
            </Position>
            <AltitudeMeters>155.600006103515625</AltitudeMeters>
            <DistanceMeters>252161.11730124</DistanceMeters>
          </Trackpoint>
          <Trackpoint>
            <Time>2018-09-14T10:47:21.000Z</Time>
            <Position>
              <LatitudeDegrees>38.01633968017995357513427734375</LatitudeDegrees>
              <LongitudeDegrees>-8.10601810924708843231201171875</LongitudeDegrees>
            </Position>
            <AltitudeMeters>155.399993896484375</AltitudeMeters>
            <DistanceMeters>252173.53311514</DistanceMeters>
          </Trackpoint>
          <Trackpoint>
            <Time>2018-09-14T10:47:23.000Z</Time>
            <Position>
              <LatitudeDegrees>38.016281425952911376953125</LatitudeDegrees>
              <LongitudeDegrees>-8.10599849559366703033447265625</LongitudeDegrees>
            </Position>
            <AltitudeMeters>155.399993896484375</AltitudeMeters>
            <DistanceMeters>252180.2417589</DistanceMeters>
          </Trackpoint>
          <Trackpoint>
            <Time>2018-09-14T10:47:26.000Z</Time>
            <Position>
              <LatitudeDegrees>38.01622350700199604034423828125</LatitudeDegrees>
              <LongitudeDegrees>-8.1059901975095272064208984375</LongitudeDegrees>
            </Position>
            <AltitudeMeters>155.1999969482421875</AltitudeMeters>
            <DistanceMeters>252186.72868084</DistanceMeters>
          </Trackpoint>
          <Trackpoint>
            <Time>2018-09-14T10:47:29.000Z</Time>
            <Position>
              <LatitudeDegrees>38.016195595264434814453125</LatitudeDegrees>
              <LongitudeDegrees>-8.1059798039495944976806640625</LongitudeDegrees>
            </Position>
            <AltitudeMeters>155.1999969482421875</AltitudeMeters>
            <DistanceMeters>252189.96656884</DistanceMeters>
          </Trackpoint>
          <Trackpoint>
            <Time>2018-09-14T10:51:36.000Z</Time>
            <Position>
              <LatitudeDegrees>38.01615695469081401824951171875</LatitudeDegrees>
              <LongitudeDegrees>-8.105967901647090911865234375</LongitudeDegrees>
            </Position>
            <AltitudeMeters>155.1999969482421875</AltitudeMeters>
            <DistanceMeters>252194.39220279</DistanceMeters>
          </Trackpoint>
          <Trackpoint>
            <Time>2018-09-14T10:51:37.000Z</Time>
            <Position>
              <LatitudeDegrees>38.01614186726510524749755859375</LatitudeDegrees>
              <LongitudeDegrees>-8.10596178285777568817138671875</LongitudeDegrees>
            </Position>
            <AltitudeMeters>155.1999969482421875</AltitudeMeters>
            <DistanceMeters>252196.15468578</DistanceMeters>
          </Trackpoint>
          <Trackpoint>
            <Time>2018-09-14T10:51:40.000Z</Time>
            <Position>
              <LatitudeDegrees>38.01606877706944942474365234375</LatitudeDegrees>
              <LongitudeDegrees>-8.10593848116695880889892578125</LongitudeDegrees>
            </Position>
            <AltitudeMeters>155</AltitudeMeters>
            <DistanceMeters>252204.54237471</DistanceMeters>
          </Trackpoint>
          <Trackpoint>
            <Time>2018-09-14T10:51:45.000Z</Time>
            <Position>
              <LatitudeDegrees>38.01589787006378173828125</LatitudeDegrees>
              <LongitudeDegrees>-8.1058792211115360260009765625</LongitudeDegrees>
            </Position>
            <AltitudeMeters>154.8000030517578125</AltitudeMeters>
            <DistanceMeters>252224.26150557</DistanceMeters>
          </Trackpoint>
          <Trackpoint>
            <Time>2018-09-14T10:51:57.000Z</Time>
            <Position>
              <LatitudeDegrees>38.0153734982013702392578125</LatitudeDegrees>
              <LongitudeDegrees>-8.10569691471755504608154296875</LongitudeDegrees>
            </Position>
            <AltitudeMeters>153.8000030517578125</AltitudeMeters>
            <DistanceMeters>252284.77494704</DistanceMeters>
          </Trackpoint>
          <Trackpoint>
            <Time>2018-09-14T10:52:09.000Z</Time>
            <Position>
              <LatitudeDegrees>38.01482322625815868377685546875</LatitudeDegrees>
              <LongitudeDegrees>-8.10551821254193782806396484375</LongitudeDegrees>
            </Position>
            <AltitudeMeters>154.399993896484375</AltitudeMeters>
            <DistanceMeters>252347.99421399</DistanceMeters>
          </Trackpoint>
          <Trackpoint>
            <Time>2018-09-14T10:52:16.000Z</Time>
            <Position>
              <LatitudeDegrees>38.01447604782879352569580078125</LatitudeDegrees>
              <LongitudeDegrees>-8.10541109181940555572509765625</LongitudeDegrees>
            </Position>
            <AltitudeMeters>155.399993896484375</AltitudeMeters>
            <DistanceMeters>252387.76116255</DistanceMeters>
          </Trackpoint>
          <Trackpoint>
            <Time>2018-09-14T10:52:20.000Z</Time>
            <Position>
              <LatitudeDegrees>38.01426180638372898101806640625</LatitudeDegrees>
              <LongitudeDegrees>-8.1053468026220798492431640625</LongitudeDegrees>
            </Position>
            <AltitudeMeters>155.8000030517578125</AltitudeMeters>
            <DistanceMeters>252412.26405468</DistanceMeters>
          </Trackpoint>
          <Trackpoint>
            <Time>2018-09-14T10:52:26.000Z</Time>
            <Position>
              <LatitudeDegrees>38.01393591798841953277587890625</LatitudeDegrees>
              <LongitudeDegrees>-8.10524395667016506195068359375</LongitudeDegrees>
            </Position>
            <AltitudeMeters>155.600006103515625</AltitudeMeters>
            <DistanceMeters>252449.64049079</DistanceMeters>
          </Trackpoint>
          <Trackpoint>
            <Time>2018-09-14T10:52:36.000Z</Time>
            <Position>
              <LatitudeDegrees>38.01337835378944873809814453125</LatitudeDegrees>
              <LongitudeDegrees>-8.10507078655064105987548828125</LongitudeDegrees>
            </Position>
            <AltitudeMeters>155.1999969482421875</AltitudeMeters>
            <DistanceMeters>252513.52940387</DistanceMeters>
          </Trackpoint>
          <Trackpoint>
            <Time>2018-09-14T10:52:46.000Z</Time>
            <Position>
              <LatitudeDegrees>38.01284861750900745391845703125</LatitudeDegrees>
              <LongitudeDegrees>-8.10489443130791187286376953125</LongitudeDegrees>
            </Position>
            <AltitudeMeters>157.1999969482421875</AltitudeMeters>
            <DistanceMeters>252574.48443035</DistanceMeters>
          </Trackpoint>
          <Trackpoint>
            <Time>2018-09-14T10:52:53.000Z</Time>
            <Position>
              <LatitudeDegrees>38.01252457313239574432373046875</LatitudeDegrees>
              <LongitudeDegrees>-8.1047947704792022705078125</LongitudeDegrees>
            </Position>
            <AltitudeMeters>159.1999969482421875</AltitudeMeters>
            <DistanceMeters>252611.59500861</DistanceMeters>
          </Trackpoint>
          <Trackpoint>
            <Time>2018-09-14T10:52:57.000Z</Time>
            <Position>
              <LatitudeDegrees>38.0123471282422542572021484375</LatitudeDegrees>
              <LongitudeDegrees>-8.1047419644892215728759765625</LongitudeDegrees>
            </Position>
            <AltitudeMeters>160.1999969482421875</AltitudeMeters>
            <DistanceMeters>252631.88048577</DistanceMeters>
          </Trackpoint>
          <Trackpoint>
            <Time>2018-09-14T10:52:58.000Z</Time>
            <Position>
              <LatitudeDegrees>38.0123022012412548065185546875</LatitudeDegrees>
              <LongitudeDegrees>-8.10473106801509857177734375</LongitudeDegrees>
            </Position>
            <AltitudeMeters>160.399993896484375</AltitudeMeters>
            <DistanceMeters>252636.97129311</DistanceMeters>
          </Trackpoint>
          <Trackpoint>
            <Time>2018-09-14T10:53:02.000Z</Time>
            <Position>
              <LatitudeDegrees>38.01211922429502010345458984375</LatitudeDegrees>
              <LongitudeDegrees>-8.10467616654932498931884765625</LongitudeDegrees>
            </Position>
            <AltitudeMeters>161.1999969482421875</AltitudeMeters>
            <DistanceMeters>252657.89832461</DistanceMeters>
          </Trackpoint>
          <Trackpoint>
            <Time>2018-09-14T10:53:06.000Z</Time>
            <Position>
              <LatitudeDegrees>38.011942617595195770263671875</LatitudeDegrees>
              <LongitudeDegrees>-8.10462000779807567596435546875</LongitudeDegrees>
            </Position>
            <AltitudeMeters>161.399993896484375</AltitudeMeters>
            <DistanceMeters>252678.16242331</DistanceMeters>
          </Trackpoint>
          <Trackpoint>
            <Time>2018-09-14T10:53:07.000Z</Time>
            <Position>
              <LatitudeDegrees>38.0118971876800060272216796875</LatitudeDegrees>
              <LongitudeDegrees>-8.1046065129339694976806640625</LongitudeDegrees>
            </Position>
            <AltitudeMeters>161.399993896484375</AltitudeMeters>
            <DistanceMeters>252683.35509201</DistanceMeters>
          </Trackpoint>
          <Trackpoint>
            <Time>2018-09-14T10:53:11.000Z</Time>
            <Position>
              <LatitudeDegrees>38.0117096006870269775390625</LatitudeDegrees>
              <LongitudeDegrees>-8.104556389153003692626953125</LongitudeDegrees>
            </Position>
            <AltitudeMeters>161.600006103515625</AltitudeMeters>
            <DistanceMeters>252704.69192247</DistanceMeters>
          </Trackpoint>
          <Trackpoint>
            <Time>2018-09-14T10:53:21.000Z</Time>
            <Position>
              <LatitudeDegrees>38.01116645336151123046875</LatitudeDegrees>
              <LongitudeDegrees>-8.10437844134867191314697265625</LongitudeDegrees>
            </Position>
            <AltitudeMeters>161.1999969482421875</AltitudeMeters>
            <DistanceMeters>252767.1269326</DistanceMeters>
          </Trackpoint>
          <Trackpoint>
            <Time>2018-09-14T10:53:31.000Z</Time>
            <Position>
              <LatitudeDegrees>38.01059983670711517333984375</LatitudeDegrees>
              <LongitudeDegrees>-8.10419018380343914031982421875</LongitudeDegrees>
            </Position>
            <AltitudeMeters>162</AltitudeMeters>
            <DistanceMeters>252832.3176135</DistanceMeters>
          </Trackpoint>
          <Trackpoint>
            <Time>2018-09-14T10:53:40.000Z</Time>
            <Position>
              <LatitudeDegrees>38.01010790280997753143310546875</LatitudeDegrees>
              <LongitudeDegrees>-8.10403545387089252471923828125</LongitudeDegrees>
            </Position>
            <AltitudeMeters>163.8000030517578125</AltitudeMeters>
            <DistanceMeters>252888.72723527</DistanceMeters>
          </Trackpoint>
          <Trackpoint>
            <Time>2018-09-14T10:53:46.000Z</Time>
            <Position>
              <LatitudeDegrees>38.0097722075879573822021484375</LatitudeDegrees>
              <LongitudeDegrees>-8.1039403192698955535888671875</LongitudeDegrees>
            </Position>
            <AltitudeMeters>164.1999969482421875</AltitudeMeters>
            <DistanceMeters>252927.01097356</DistanceMeters>
          </Trackpoint>
          <Trackpoint>
            <Time>2018-09-14T10:53:55.000Z</Time>
            <Position>
              <LatitudeDegrees>38.009231574833393096923828125</LatitudeDegrees>
              <LongitudeDegrees>-8.10378164984285831451416015625</LongitudeDegrees>
            </Position>
            <AltitudeMeters>165.8000030517578125</AltitudeMeters>
            <DistanceMeters>252988.77234361</DistanceMeters>
          </Trackpoint>
          <Trackpoint>
            <Time>2018-09-14T10:54:04.000Z</Time>
            <Position>
              <LatitudeDegrees>38.00867225043475627899169921875</LatitudeDegrees>
              <LongitudeDegrees>-8.1035864353179931640625</LongitudeDegrees>
            </Position>
            <AltitudeMeters>163.600006103515625</AltitudeMeters>
            <DistanceMeters>253053.33724452</DistanceMeters>
          </Trackpoint>
          <Trackpoint>
            <Time>2018-09-14T10:54:10.000Z</Time>
            <Position>
              <LatitudeDegrees>38.00827695988118648529052734375</LatitudeDegrees>
              <LongitudeDegrees>-8.10344251804053783416748046875</LongitudeDegrees>
            </Position>
            <AltitudeMeters>162.399993896484375</AltitudeMeters>
            <DistanceMeters>253099.10836856</DistanceMeters>
          </Trackpoint>
          <Trackpoint>
            <Time>2018-09-14T10:54:18.000Z</Time>
            <Position>
              <LatitudeDegrees>38.00773330964148044586181640625</LatitudeDegrees>
              <LongitudeDegrees>-8.10327504761517047882080078125</LongitudeDegrees>
            </Position>
            <AltitudeMeters>162.8000030517578125</AltitudeMeters>
            <DistanceMeters>253161.37458236</DistanceMeters>
          </Trackpoint>
          <Trackpoint>
            <Time>2018-09-14T10:54:26.000Z</Time>
            <Position>
              <LatitudeDegrees>38.00719921477138996124267578125</LatitudeDegrees>
              <LongitudeDegrees>-8.10310690663754940032958984375</LongitudeDegrees>
            </Position>
            <AltitudeMeters>165.600006103515625</AltitudeMeters>
            <DistanceMeters>253222.62193525</DistanceMeters>
          </Trackpoint>
          <Trackpoint>
            <Time>2018-09-14T10:54:31.000Z</Time>
            <Position>
              <LatitudeDegrees>38.006883971393108367919921875</LatitudeDegrees>
              <LongitudeDegrees>-8.1030070781707763671875</LongitudeDegrees>
            </Position>
            <AltitudeMeters>168.1999969482421875</AltitudeMeters>
            <DistanceMeters>253258.78506275</DistanceMeters>
          </Trackpoint>
          <Trackpoint>
            <Time>2018-09-14T10:54:36.000Z</Time>
            <Position>
              <LatitudeDegrees>38.00656520761549472808837890625</LatitudeDegrees>
              <LongitudeDegrees>-8.10290825553238391876220703125</LongitudeDegrees>
            </Position>
            <AltitudeMeters>169.399993896484375</AltitudeMeters>
            <DistanceMeters>253295.30723016</DistanceMeters>
          </Trackpoint>
          <Trackpoint>
            <Time>2018-09-14T10:54:41.000Z</Time>
            <Position>
              <LatitudeDegrees>38.006237559020519256591796875</LatitudeDegrees>
              <LongitudeDegrees>-8.102816641330718994140625</LongitudeDegrees>
            </Position>
            <AltitudeMeters>169</AltitudeMeters>
            <DistanceMeters>253332.6497063</DistanceMeters>
          </Trackpoint>
          <Trackpoint>
            <Time>2018-09-14T10:54:49.000Z</Time>
            <Position>
              <LatitudeDegrees>38.0057106725871562957763671875</LatitudeDegrees>
              <LongitudeDegrees>-8.1026491709053516387939453125</LongitudeDegrees>
            </Position>
            <AltitudeMeters>167.8000030517578125</AltitudeMeters>
            <DistanceMeters>253393.1043995</DistanceMeters>
          </Trackpoint>
          <Trackpoint>
            <Time>2018-09-14T10:54:53.000Z</Time>
            <Position>
              <LatitudeDegrees>38.00543230958282947540283203125</LatitudeDegrees>
              <LongitudeDegrees>-8.1025599874556064605712890625</LongitudeDegrees>
            </Position>
            <AltitudeMeters>167.1999969482421875</AltitudeMeters>
            <DistanceMeters>253425.05867768</DistanceMeters>
          </Trackpoint>
          <Trackpoint>
            <Time>2018-09-14T10:55:01.000Z</Time>
            <Position>
              <LatitudeDegrees>38.0048912577331066131591796875</LatitudeDegrees>
              <LongitudeDegrees>-8.10238170437514781951904296875</LongitudeDegrees>
            </Position>
            <AltitudeMeters>166.8000030517578125</AltitudeMeters>
            <DistanceMeters>253487.27556389</DistanceMeters>
          </Trackpoint>
          <Trackpoint>
            <Time>2018-09-14T10:55:09.000Z</Time>
            <Position>
              <LatitudeDegrees>38.00434534437954425811767578125</LatitudeDegrees>
              <LongitudeDegrees>-8.1022149883210659027099609375</LongitudeDegrees>
            </Position>
            <AltitudeMeters>169</AltitudeMeters>
            <DistanceMeters>253549.77121753</DistanceMeters>
          </Trackpoint>
          <Trackpoint>
            <Time>2018-09-14T10:55:13.000Z</Time>
            <Position>
              <LatitudeDegrees>38.0040762014687061309814453125</LatitudeDegrees>
              <LongitudeDegrees>-8.1021341867744922637939453125</LongitudeDegrees>
            </Position>
            <AltitudeMeters>170</AltitudeMeters>
            <DistanceMeters>253580.55429992</DistanceMeters>
          </Trackpoint>
          <Trackpoint>
            <Time>2018-09-14T10:55:21.000Z</Time>
            <Position>
              <LatitudeDegrees>38.00353548489511013031005859375</LatitudeDegrees>
              <LongitudeDegrees>-8.1019665487110614776611328125</LongitudeDegrees>
            </Position>
            <AltitudeMeters>171.1999969482421875</AltitudeMeters>
            <DistanceMeters>253642.50698075</DistanceMeters>
          </Trackpoint>
          <Trackpoint>
            <Time>2018-09-14T10:55:29.000Z</Time>
            <Position>
              <LatitudeDegrees>38.002983033657073974609375</LatitudeDegrees>
              <LongitudeDegrees>-8.1017938815057277679443359375</LongitudeDegrees>
            </Position>
            <AltitudeMeters>172.600006103515625</AltitudeMeters>
            <DistanceMeters>253705.83328515</DistanceMeters>
          </Trackpoint>
          <Trackpoint>
            <Time>2018-09-14T10:55:33.000Z</Time>
            <Position>
              <LatitudeDegrees>38.0027230270206928253173828125</LatitudeDegrees>
              <LongitudeDegrees>-8.10170059092342853546142578125</LongitudeDegrees>
            </Position>
            <AltitudeMeters>173.399993896484375</AltitudeMeters>
            <DistanceMeters>253735.90695081</DistanceMeters>
          </Trackpoint>
          <Trackpoint>
            <Time>2018-09-14T10:55:42.000Z</Time>
            <Position>
              <LatitudeDegrees>38.002180047333240509033203125</LatitudeDegrees>
              <LongitudeDegrees>-8.1015353836119174957275390625</LongitudeDegrees>
            </Position>
            <AltitudeMeters>175</AltitudeMeters>
            <DistanceMeters>253798.05442201</DistanceMeters>
          </Trackpoint>
          <Trackpoint>
            <Time>2018-09-14T10:55:48.000Z</Time>
            <Position>
              <LatitudeDegrees>38.001841418445110321044921875</LatitudeDegrees>
              <LongitudeDegrees>-8.101428262889385223388671875</LongitudeDegrees>
            </Position>
            <AltitudeMeters>176.399993896484375</AltitudeMeters>
            <DistanceMeters>253836.89792099</DistanceMeters>
          </Trackpoint>
          <Trackpoint>
            <Time>2018-09-14T10:55:55.000Z</Time>
            <Position>
              <LatitudeDegrees>38.001492060720920562744140625</LatitudeDegrees>
              <LongitudeDegrees>-8.101316951215267181396484375</LongitudeDegrees>
            </Position>
            <AltitudeMeters>177.399993896484375</AltitudeMeters>
            <DistanceMeters>253876.98905999</DistanceMeters>
          </Trackpoint>
          <Trackpoint>
            <Time>2018-09-14T10:56:01.000Z</Time>
            <Position>
              <LatitudeDegrees>38.00121755339205265045166015625</LatitudeDegrees>
              <LongitudeDegrees>-8.10124025680124759674072265625</LongitudeDegrees>
            </Position>
            <AltitudeMeters>178</AltitudeMeters>
            <DistanceMeters>253908.27378255</DistanceMeters>
          </Trackpoint>
          <Trackpoint>
            <Time>2018-09-14T10:56:07.000Z</Time>
            <Position>
              <LatitudeDegrees>38.00093692727386951446533203125</LatitudeDegrees>
              <LongitudeDegrees>-8.1011662445962429046630859375</LongitudeDegrees>
            </Position>
            <AltitudeMeters>178.399993896484375</AltitudeMeters>
            <DistanceMeters>253940.175455</DistanceMeters>
          </Trackpoint>
          <Trackpoint>
            <Time>2018-09-14T10:56:18.000Z</Time>
            <Position>
              <LatitudeDegrees>38.00037500448524951934814453125</LatitudeDegrees>
              <LongitudeDegrees>-8.1009925715625286102294921875</LongitudeDegrees>
            </Position>
            <AltitudeMeters>177.600006103515625</AltitudeMeters>
            <DistanceMeters>254004.54677857</DistanceMeters>
          </Trackpoint>
          <Trackpoint>
            <Time>2018-09-14T10:56:22.000Z</Time>
            <Position>
              <LatitudeDegrees>38.0001561529934406280517578125</LatitudeDegrees>
              <LongitudeDegrees>-8.10092241503298282623291015625</LongitudeDegrees>
            </Position>
            <AltitudeMeters>177.1999969482421875</AltitudeMeters>
            <DistanceMeters>254029.67087863</DistanceMeters>
          </Trackpoint>
          <Trackpoint>
            <Time>2018-09-14T10:56:31.000Z</Time>
            <Position>
              <LatitudeDegrees>37.999596409499645233154296875</LatitudeDegrees>
              <LongitudeDegrees>-8.10073482804000377655029296875</LongitudeDegrees>
            </Position>
            <AltitudeMeters>175.1999969482421875</AltitudeMeters>
            <DistanceMeters>254094.10739986</DistanceMeters>
          </Trackpoint>
          <Trackpoint>
            <Time>2018-09-14T10:56:33.000Z</Time>
            <Position>
              <LatitudeDegrees>37.999461628496646881103515625</LatitudeDegrees>
              <LongitudeDegrees>-8.1006898172199726104736328125</LongitudeDegrees>
            </Position>
            <AltitudeMeters>174.8000030517578125</AltitudeMeters>
            <DistanceMeters>254109.61976516</DistanceMeters>
          </Trackpoint>
          <Trackpoint>
            <Time>2018-09-14T10:56:35.000Z</Time>
            <Position>
              <LatitudeDegrees>37.9993219859898090362548828125</LatitudeDegrees>
              <LongitudeDegrees>-8.1006472371518611907958984375</LongitudeDegrees>
            </Position>
            <AltitudeMeters>174.1999969482421875</AltitudeMeters>
            <DistanceMeters>254125.60460307</DistanceMeters>
          </Trackpoint>
          <Trackpoint>
            <Time>2018-09-14T10:56:38.000Z</Time>
            <Position>
              <LatitudeDegrees>37.99910749308764934539794921875</LatitudeDegrees>
              <LongitudeDegrees>-8.10057825408875942230224609375</LongitudeDegrees>
            </Position>
            <AltitudeMeters>173.399993896484375</AltitudeMeters>
            <DistanceMeters>254150.23284367</DistanceMeters>
          </Trackpoint>
          <Trackpoint>
            <Time>2018-09-14T10:56:42.000Z</Time>
            <Position>
              <LatitudeDegrees>37.99882820807397365570068359375</LatitudeDegrees>
              <LongitudeDegrees>-8.100496195256710052490234375</LongitudeDegrees>
            </Position>
            <AltitudeMeters>172.600006103515625</AltitudeMeters>
            <DistanceMeters>254182.14031832</DistanceMeters>
          </Trackpoint>
          <Trackpoint>
            <Time>2018-09-14T10:56:46.000Z</Time>
            <Position>
              <LatitudeDegrees>37.99855395220220088958740234375</LatitudeDegrees>
              <LongitudeDegrees>-8.1004135496914386749267578125</LongitudeDegrees>
            </Position>
            <AltitudeMeters>172.8000030517578125</AltitudeMeters>
            <DistanceMeters>254213.51439221</DistanceMeters>
          </Trackpoint>
          <Trackpoint>
            <Time>2018-09-14T10:56:54.000Z</Time>
            <Position>
              <LatitudeDegrees>37.99802639521658420562744140625</LatitudeDegrees>
              <LongitudeDegrees>-8.1002457439899444580078125</LongitudeDegrees>
            </Position>
            <AltitudeMeters>174.8000030517578125</AltitudeMeters>
            <DistanceMeters>254274.04894525</DistanceMeters>
          </Trackpoint>
          <Trackpoint>
            <Time>2018-09-14T10:57:02.000Z</Time>
            <Position>
              <LatitudeDegrees>37.99759036861360073089599609375</LatitudeDegrees>
              <LongitudeDegrees>-8.10011657886207103729248046875</LongitudeDegrees>
            </Position>
            <AltitudeMeters>177.8000030517578125</AltitudeMeters>
            <DistanceMeters>254323.88436453</DistanceMeters>
          </Trackpoint>
          <Trackpoint>
            <Time>2018-09-14T10:57:07.000Z</Time>
            <Position>
              <LatitudeDegrees>37.99734427593648433685302734375</LatitudeDegrees>
              <LongitudeDegrees>-8.1000491045415401458740234375</LongitudeDegrees>
            </Position>
            <AltitudeMeters>178</AltitudeMeters>
            <DistanceMeters>254351.90725763</DistanceMeters>
          </Trackpoint>
          <Trackpoint>
            <Time>2018-09-14T10:57:17.000Z</Time>
            <Position>
              <LatitudeDegrees>37.99684991128742694854736328125</LatitudeDegrees>
              <LongitudeDegrees>-8.099908120930194854736328125</LongitudeDegrees>
            </Position>
            <AltitudeMeters>178.1999969482421875</AltitudeMeters>
            <DistanceMeters>254408.30351109</DistanceMeters>
          </Trackpoint>
          <Trackpoint>
            <Time>2018-09-14T10:57:24.000Z</Time>
            <Position>
              <LatitudeDegrees>37.99648345448076725006103515625</LatitudeDegrees>
              <LongitudeDegrees>-8.09979538433253765106201171875</LongitudeDegrees>
            </Position>
            <AltitudeMeters>178.600006103515625</AltitudeMeters>
            <DistanceMeters>254450.27241209</DistanceMeters>
          </Trackpoint>
          <Trackpoint>
            <Time>2018-09-14T10:57:28.000Z</Time>
            <Position>
              <LatitudeDegrees>37.9962743259966373443603515625</LatitudeDegrees>
              <LongitudeDegrees>-8.09972397051751613616943359375</LongitudeDegrees>
            </Position>
            <AltitudeMeters>179</AltitudeMeters>
            <DistanceMeters>254474.37681436</DistanceMeters>
          </Trackpoint>
          <Trackpoint>
            <Time>2018-09-14T10:57:37.000Z</Time>
            <Position>
              <LatitudeDegrees>37.995808124542236328125</LatitudeDegrees>
              <LongitudeDegrees>-8.0995827354490756988525390625</LongitudeDegrees>
            </Position>
            <AltitudeMeters>180.399993896484375</AltitudeMeters>
            <DistanceMeters>254527.72413812</DistanceMeters>
          </Trackpoint>
          <Trackpoint>
            <Time>2018-09-14T10:57:44.000Z</Time>
            <Position>
              <LatitudeDegrees>37.99544594250619411468505859375</LatitudeDegrees>
              <LongitudeDegrees>-8.099459521472454071044921875</LongitudeDegrees>
            </Position>
            <AltitudeMeters>181</AltitudeMeters>
            <DistanceMeters>254569.45915274</DistanceMeters>
          </Trackpoint>
          <Trackpoint>
            <Time>2018-09-14T10:57:51.000Z</Time>
            <Position>
              <LatitudeDegrees>37.99509524367749691009521484375</LatitudeDegrees>
              <LongitudeDegrees>-8.09936120174825191497802734375</LongitudeDegrees>
            </Position>
            <AltitudeMeters>181.8000030517578125</AltitudeMeters>
            <DistanceMeters>254609.43389961</DistanceMeters>
          </Trackpoint>
          <Trackpoint>
            <Time>2018-09-14T10:58:02.000Z</Time>
            <Position>
              <LatitudeDegrees>37.99452829174697399139404296875</LatitudeDegrees>
              <LongitudeDegrees>-8.09917244128882884979248046875</LongitudeDegrees>
            </Position>
            <AltitudeMeters>180.8000030517578125</AltitudeMeters>
            <DistanceMeters>254674.67262852</DistanceMeters>
          </Trackpoint>
          <Trackpoint>
            <Time>2018-09-14T10:58:12.000Z</Time>
            <Position>
              <LatitudeDegrees>37.99396184273064136505126953125</LatitudeDegrees>
              <LongitudeDegrees>-8.09900094754993915557861328125</LongitudeDegrees>
            </Position>
            <AltitudeMeters>181</AltitudeMeters>
            <DistanceMeters>254739.4892073</DistanceMeters>
          </Trackpoint>
          <Trackpoint>
            <Time>2018-09-14T10:58:20.000Z</Time>
            <Position>
              <LatitudeDegrees>37.99350050278007984161376953125</LatitudeDegrees>
              <LongitudeDegrees>-8.0988498218357563018798828125</LongitudeDegrees>
            </Position>
            <AltitudeMeters>181.399993896484375</AltitudeMeters>
            <DistanceMeters>254792.52075516</DistanceMeters>
          </Trackpoint>
          <Trackpoint>
            <Time>2018-09-14T10:58:28.000Z</Time>
            <Position>
              <LatitudeDegrees>37.9930399172008037567138671875</LatitudeDegrees>
              <LongitudeDegrees>-8.098688386380672454833984375</LongitudeDegrees>
            </Position>
            <AltitudeMeters>182.1999969482421875</AltitudeMeters>
            <DistanceMeters>254845.70465277</DistanceMeters>
          </Trackpoint>
          <Trackpoint>
            <Time>2018-09-14T10:58:37.000Z</Time>
            <Position>
              <LatitudeDegrees>37.9925115220248699188232421875</LatitudeDegrees>
              <LongitudeDegrees>-8.09851110912859439849853515625</LongitudeDegrees>
            </Position>
            <AltitudeMeters>183.399993896484375</AltitudeMeters>
            <DistanceMeters>254906.53711563</DistanceMeters>
          </Trackpoint>
          <Trackpoint>
            <Time>2018-09-14T10:58:46.000Z</Time>
            <Position>
              <LatitudeDegrees>37.9919492639601230621337890625</LatitudeDegrees>
              <LongitudeDegrees>-8.0983361788094043731689453125</LongitudeDegrees>
            </Position>
            <AltitudeMeters>181.399993896484375</AltitudeMeters>
            <DistanceMeters>254970.97125446</DistanceMeters>
          </Trackpoint>
          <Trackpoint>
            <Time>2018-09-14T10:58:55.000Z</Time>
            <Position>
              <LatitudeDegrees>37.99138423986732959747314453125</LatitudeDegrees>
              <LongitudeDegrees>-8.0981537885963916778564453125</LongitudeDegrees>
            </Position>
            <AltitudeMeters>180.8000030517578125</AltitudeMeters>
            <DistanceMeters>255035.86274271</DistanceMeters>
          </Trackpoint>
          <Trackpoint>
            <Time>2018-09-14T10:59:03.000Z</Time>
            <Position>
              <LatitudeDegrees>37.99085131846368312835693359375</LatitudeDegrees>
              <LongitudeDegrees>-8.09798724018037319183349609375</LongitudeDegrees>
            </Position>
            <AltitudeMeters>179.399993896484375</AltitudeMeters>
            <DistanceMeters>255096.95065698</DistanceMeters>
          </Trackpoint>
          <Trackpoint>
            <Time>2018-09-14T10:59:08.000Z</Time>
            <Position>
              <LatitudeDegrees>37.99051168374717235565185546875</LatitudeDegrees>
              <LongitudeDegrees>-8.09787894599139690399169921875</LongitudeDegrees>
            </Position>
            <AltitudeMeters>179.1999969482421875</AltitudeMeters>
            <DistanceMeters>255135.92806225</DistanceMeters>
          </Trackpoint>
          <Trackpoint>
            <Time>2018-09-14T10:59:14.000Z</Time>
            <Position>
              <LatitudeDegrees>37.99012745730578899383544921875</LatitudeDegrees>
              <LongitudeDegrees>-8.09774684719741344451904296875</LongitudeDegrees>
            </Position>
            <AltitudeMeters>178.399993896484375</AltitudeMeters>
            <DistanceMeters>255180.2352805</DistanceMeters>
          </Trackpoint>
          <Trackpoint>
            <Time>2018-09-14T10:59:23.000Z</Time>
            <Position>
              <LatitudeDegrees>37.98954407684504985809326171875</LatitudeDegrees>
              <LongitudeDegrees>-8.09756680391728878021240234375</LongitudeDegrees>
            </Position>
            <AltitudeMeters>178.600006103515625</AltitudeMeters>
            <DistanceMeters>255247.05973899</DistanceMeters>
          </Trackpoint>
          <Trackpoint>
            <Time>2018-09-14T10:59:32.000Z</Time>
            <Position>
              <LatitudeDegrees>37.98895985819399356842041015625</LatitudeDegrees>
              <LongitudeDegrees>-8.09738449752330780029296875</LongitudeDegrees>
            </Position>
            <AltitudeMeters>178.8000030517578125</AltitudeMeters>
            <DistanceMeters>255314.02202441</DistanceMeters>
          </Trackpoint>
          <Trackpoint>
            <Time>2018-09-14T10:59:41.000Z</Time>
            <Position>
              <LatitudeDegrees>37.98837396316230297088623046875</LatitudeDegrees>
              <LongitudeDegrees>-8.09719766490161418914794921875</LongitudeDegrees>
            </Position>
            <AltitudeMeters>179.399993896484375</AltitudeMeters>
            <DistanceMeters>255381.26133206</DistanceMeters>
          </Trackpoint>
          <Trackpoint>
            <Time>2018-09-14T10:59:48.000Z</Time>
            <Position>
              <LatitudeDegrees>37.9879162274301052093505859375</LatitudeDegrees>
              <LongitudeDegrees>-8.0970681644976139068603515625</LongitudeDegrees>
            </Position>
            <AltitudeMeters>177.8000030517578125</AltitudeMeters>
            <DistanceMeters>255433.45946388</DistanceMeters>
          </Trackpoint>
          <Trackpoint>
            <Time>2018-09-14T10:59:51.000Z</Time>
            <Position>
              <LatitudeDegrees>37.9877033270895481109619140625</LatitudeDegrees>
              <LongitudeDegrees>-8.09700136072933673858642578125</LongitudeDegrees>
            </Position>
            <AltitudeMeters>177.1999969482421875</AltitudeMeters>
            <DistanceMeters>255457.86949449</DistanceMeters>
          </Trackpoint>
          <Trackpoint>
            <Time>2018-09-14T10:59:57.000Z</Time>
            <Position>
              <LatitudeDegrees>37.98725699074566364288330078125</LatitudeDegrees>
              <LongitudeDegrees>-8.0968532525002956390380859375</LongitudeDegrees>
            </Position>
            <AltitudeMeters>176.600006103515625</AltitudeMeters>
            <DistanceMeters>255509.21848777</DistanceMeters>
          </Trackpoint>
          <Trackpoint>
            <Time>2018-09-14T11:00:00.000Z</Time>
            <Position>
              <LatitudeDegrees>37.987021543085575103759765625</LatitudeDegrees>
              <LongitudeDegrees>-8.096776306629180908203125</LongitudeDegrees>
            </Position>
            <AltitudeMeters>176.399993896484375</AltitudeMeters>
            <DistanceMeters>255536.27941993</DistanceMeters>
          </Trackpoint>
          <Trackpoint>
            <Time>2018-09-14T11:00:03.000Z</Time>
            <Position>
              <LatitudeDegrees>37.9867836646735668182373046875</LatitudeDegrees>
              <LongitudeDegrees>-8.09669625945389270782470703125</LongitudeDegrees>
            </Position>
            <AltitudeMeters>176.1999969482421875</AltitudeMeters>
            <DistanceMeters>255563.67102487</DistanceMeters>
          </Trackpoint>
          <Trackpoint>
            <Time>2018-09-14T11:00:05.000Z</Time>
            <Position>
              <LatitudeDegrees>37.986627258360385894775390625</LatitudeDegrees>
              <LongitudeDegrees>-8.09663658030331134796142578125</LongitudeDegrees>
            </Position>
            <AltitudeMeters>175.8000030517578125</AltitudeMeters>
            <DistanceMeters>255581.84921558</DistanceMeters>
          </Trackpoint>
          <Trackpoint>
            <Time>2018-09-14T11:00:09.000Z</Time>
            <Position>
              <LatitudeDegrees>37.98630304634571075439453125</LatitudeDegrees>
              <LongitudeDegrees>-8.09652149677276611328125</LongitudeDegrees>
            </Position>
            <AltitudeMeters>174.600006103515625</AltitudeMeters>
            <DistanceMeters>255619.32011797</DistanceMeters>
          </Trackpoint>
          <Trackpoint>
            <Time>2018-09-14T11:00:13.000Z</Time>
            <Position>
              <LatitudeDegrees>37.98595570027828216552734375</LatitudeDegrees>
              <LongitudeDegrees>-8.09640607796609401702880859375</LongitudeDegrees>
            </Position>
            <AltitudeMeters>173.1999969482421875</AltitudeMeters>
            <DistanceMeters>255659.2842464</DistanceMeters>
          </Trackpoint>
          <Trackpoint>
            <Time>2018-09-14T11:00:19.000Z</Time>
            <Position>
              <LatitudeDegrees>37.98542194068431854248046875</LatitudeDegrees>
              <LongitudeDegrees>-8.09624313376843929290771484375</LongitudeDegrees>
            </Position>
            <AltitudeMeters>171.399993896484375</AltitudeMeters>
            <DistanceMeters>255720.38819715</DistanceMeters>
          </Trackpoint>
          <Trackpoint>
            <Time>2018-09-14T11:00:20.000Z</Time>
            <Position>
              <LatitudeDegrees>37.98533770255744457244873046875</LatitudeDegrees>
              <LongitudeDegrees>-8.09622100554406642913818359375</LongitudeDegrees>
            </Position>
            <AltitudeMeters>171</AltitudeMeters>
            <DistanceMeters>255729.96328807</DistanceMeters>
          </Trackpoint>
          <Trackpoint>
            <Time>2018-09-14T11:00:27.000Z</Time>
            <Position>
              <LatitudeDegrees>37.9848016798496246337890625</LatitudeDegrees>
              <LongitudeDegrees>-8.0960516072809696197509765625</LongitudeDegrees>
            </Position>
            <AltitudeMeters>170.399993896484375</AltitudeMeters>
            <DistanceMeters>255791.44660037</DistanceMeters>
          </Trackpoint>
          <Trackpoint>
            <Time>2018-09-14T11:00:34.000Z</Time>
            <Position>
              <LatitudeDegrees>37.98428040929138660430908203125</LatitudeDegrees>
              <LongitudeDegrees>-8.0958829633891582489013671875</LongitudeDegrees>
            </Position>
            <AltitudeMeters>171.8000030517578125</AltitudeMeters>
            <DistanceMeters>255851.32157501</DistanceMeters>
          </Trackpoint>
          <Trackpoint>
            <Time>2018-09-14T11:00:42.000Z</Time>
            <Position>
              <LatitudeDegrees>37.983723767101764678955078125</LatitudeDegrees>
              <LongitudeDegrees>-8.09571222402155399322509765625</LongitudeDegrees>
            </Position>
            <AltitudeMeters>170.600006103515625</AltitudeMeters>
            <DistanceMeters>255915.06176637</DistanceMeters>
          </Trackpoint>
          <Trackpoint>
            <Time>2018-09-14T11:00:50.000Z</Time>
            <Position>
              <LatitudeDegrees>37.98317533917725086212158203125</LatitudeDegrees>
              <LongitudeDegrees>-8.09554274193942546844482421875</LongitudeDegrees>
            </Position>
            <AltitudeMeters>170.8000030517578125</AltitudeMeters>
            <DistanceMeters>255977.88757742</DistanceMeters>
          </Trackpoint>
          <Trackpoint>
            <Time>2018-09-14T11:00:58.000Z</Time>
            <Position>
              <LatitudeDegrees>37.98264778219163417816162109375</LatitudeDegrees>
              <LongitudeDegrees>-8.0953827314078807830810546875</LongitudeDegrees>
            </Position>
            <AltitudeMeters>172</AltitudeMeters>
            <DistanceMeters>256038.26028595</DistanceMeters>
          </Trackpoint>
          <Trackpoint>
            <Time>2018-09-14T11:00:59.000Z</Time>
            <Position>
              <LatitudeDegrees>37.982587851583957672119140625</LatitudeDegrees>
              <LongitudeDegrees>-8.0953649617731571197509765625</LongitudeDegrees>
            </Position>
            <AltitudeMeters>172.399993896484375</AltitudeMeters>
            <DistanceMeters>256045.11144186</DistanceMeters>
          </Trackpoint>
          <Trackpoint>
            <Time>2018-09-14T11:01:05.000Z</Time>
            <Position>
              <LatitudeDegrees>37.982255928218364715576171875</LatitudeDegrees>
              <LongitudeDegrees>-8.0952559970319271087646484375</LongitudeDegrees>
            </Position>
            <AltitudeMeters>174</AltitudeMeters>
            <DistanceMeters>256083.27197445</DistanceMeters>
          </Trackpoint>
          <Trackpoint>
            <Time>2018-09-14T11:01:09.000Z</Time>
            <Position>
              <LatitudeDegrees>37.9820415191352367401123046875</LatitudeDegrees>
              <LongitudeDegrees>-8.0951829068362712860107421875</LongitudeDegrees>
            </Position>
            <AltitudeMeters>174.399993896484375</AltitudeMeters>
            <DistanceMeters>256107.98257479</DistanceMeters>
          </Trackpoint>
          <Trackpoint>
            <Time>2018-09-14T11:01:12.000Z</Time>
            <Position>
              <LatitudeDegrees>37.98188142478466033935546875</LatitudeDegrees>
              <LongitudeDegrees>-8.095123060047626495361328125</LongitudeDegrees>
            </Position>
            <AltitudeMeters>174.8000030517578125</AltitudeMeters>
            <DistanceMeters>256126.55877842</DistanceMeters>
          </Trackpoint>
          <Trackpoint>
            <Time>2018-09-14T11:01:15.000Z</Time>
            <Position>
              <LatitudeDegrees>37.9817277006804943084716796875</LatitudeDegrees>
              <LongitudeDegrees>-8.0950558371841907501220703125</LongitudeDegrees>
            </Position>
            <AltitudeMeters>174.8000030517578125</AltitudeMeters>
            <DistanceMeters>256144.65631617</DistanceMeters>
          </Trackpoint>
          <Trackpoint>
            <Time>2018-09-14T11:01:16.000Z</Time>
            <Position>
              <LatitudeDegrees>37.98167732544243335723876953125</LatitudeDegrees>
              <LongitudeDegrees>-8.09503211639821529388427734375</LongitudeDegrees>
            </Position>
            <AltitudeMeters>175</AltitudeMeters>
            <DistanceMeters>256150.63771758</DistanceMeters>
          </Trackpoint>
          <Trackpoint>
            <Time>2018-09-14T11:01:18.000Z</Time>
            <Position>
              <LatitudeDegrees>37.98157632350921630859375</LatitudeDegrees>
              <LongitudeDegrees>-8.0949859321117401123046875</LongitudeDegrees>
            </Position>
            <AltitudeMeters>175</AltitudeMeters>
            <DistanceMeters>256162.58768114</DistanceMeters>
          </Trackpoint>
          <Trackpoint>
            <Time>2018-09-14T11:01:22.000Z</Time>
            <Position>
              <LatitudeDegrees>37.9813778400421142578125</LatitudeDegrees>
              <LongitudeDegrees>-8.0948664061725139617919921875</LongitudeDegrees>
            </Position>
            <AltitudeMeters>175</AltitudeMeters>
            <DistanceMeters>256187.04150951</DistanceMeters>
          </Trackpoint>
          <Trackpoint>
            <Time>2018-09-14T11:01:31.000Z</Time>
            <Position>
              <LatitudeDegrees>37.98092580400407314300537109375</LatitudeDegrees>
              <LongitudeDegrees>-8.0944892205297946929931640625</LongitudeDegrees>
            </Position>
            <AltitudeMeters>176.1999969482421875</AltitudeMeters>
            <DistanceMeters>256247.26041152</DistanceMeters>
          </Trackpoint>
          <Trackpoint>
            <Time>2018-09-14T11:01:40.000Z</Time>
            <Position>
              <LatitudeDegrees>37.9805237241089344024658203125</LatitudeDegrees>
              <LongitudeDegrees>-8.09399418532848358154296875</LongitudeDegrees>
            </Position>
            <AltitudeMeters>175.399993896484375</AltitudeMeters>
            <DistanceMeters>256309.62139869</DistanceMeters>
          </Trackpoint>
          <Trackpoint>
            <Time>2018-09-14T11:01:42.000Z</Time>
            <Position>
              <LatitudeDegrees>37.98044107854366302490234375</LatitudeDegrees>
              <LongitudeDegrees>-8.09387776069343090057373046875</LongitudeDegrees>
            </Position>
            <AltitudeMeters>175.1999969482421875</AltitudeMeters>
            <DistanceMeters>256323.36713692</DistanceMeters>
          </Trackpoint>
          <Trackpoint>
            <Time>2018-09-14T11:01:51.000Z</Time>
            <Position>
              <LatitudeDegrees>37.98006900586187839508056640625</LatitudeDegrees>
              <LongitudeDegrees>-8.0933336913585662841796875</LongitudeDegrees>
            </Position>
            <AltitudeMeters>173.8000030517578125</AltitudeMeters>
            <DistanceMeters>256386.55961618</DistanceMeters>
          </Trackpoint>
          <Trackpoint>
            <Time>2018-09-14T11:01:57.000Z</Time>
            <Position>
              <LatitudeDegrees>37.97979961149394512176513671875</LatitudeDegrees>
              <LongitudeDegrees>-8.09293680824339389801025390625</LongitudeDegrees>
            </Position>
            <AltitudeMeters>172.399993896484375</AltitudeMeters>
            <DistanceMeters>256432.50972472</DistanceMeters>
          </Trackpoint>
          <Trackpoint>
            <Time>2018-09-14T11:02:05.000Z</Time>
            <Position>
              <LatitudeDegrees>37.97940650023519992828369140625</LatitudeDegrees>
              <LongitudeDegrees>-8.09236180968582630157470703125</LongitudeDegrees>
            </Position>
            <AltitudeMeters>169.8000030517578125</AltitudeMeters>
            <DistanceMeters>256499.28666766</DistanceMeters>
          </Trackpoint>
          <Trackpoint>
            <Time>2018-09-14T11:02:07.000Z</Time>
            <Position>
              <LatitudeDegrees>37.979296781122684478759765625</LatitudeDegrees>
              <LongitudeDegrees>-8.0922049842774868011474609375</LongitudeDegrees>
            </Position>
            <AltitudeMeters>170</AltitudeMeters>
            <DistanceMeters>256517.6831131</DistanceMeters>
          </Trackpoint>
          <Trackpoint>
            <Time>2018-09-14T11:02:12.000Z</Time>
            <Position>
              <LatitudeDegrees>37.9790253750979900360107421875</LatitudeDegrees>
              <LongitudeDegrees>-8.0918021500110626220703125</LongitudeDegrees>
            </Position>
            <AltitudeMeters>170</AltitudeMeters>
            <DistanceMeters>256564.17555828</DistanceMeters>
          </Trackpoint>
          <Trackpoint>
            <Time>2018-09-14T11:02:14.000Z</Time>
            <Position>
              <LatitudeDegrees>37.97891951166093349456787109375</LatitudeDegrees>
              <LongitudeDegrees>-8.091640882194042205810546875</LongitudeDegrees>
            </Position>
            <AltitudeMeters>170</AltitudeMeters>
            <DistanceMeters>256582.58794976</DistanceMeters>
          </Trackpoint>
          <Trackpoint>
            <Time>2018-09-14T11:02:15.000Z</Time>
            <Position>
              <LatitudeDegrees>37.9788672924041748046875</LatitudeDegrees>
              <LongitudeDegrees>-8.09156083501875400543212890625</LongitudeDegrees>
            </Position>
            <AltitudeMeters>170</AltitudeMeters>
            <DistanceMeters>256591.70358267</DistanceMeters>
          </Trackpoint>
          <Trackpoint>
            <Time>2018-09-14T11:02:18.000Z</Time>
            <Position>
              <LatitudeDegrees>37.9787122271955013275146484375</LatitudeDegrees>
              <LongitudeDegrees>-8.09132865630090236663818359375</LongitudeDegrees>
            </Position>
            <AltitudeMeters>170</AltitudeMeters>
            <DistanceMeters>256618.40186191</DistanceMeters>
          </Trackpoint>
          <Trackpoint>
            <Time>2018-09-14T11:02:22.000Z</Time>
            <Position>
              <LatitudeDegrees>37.97850980423390865325927734375</LatitudeDegrees>
              <LongitudeDegrees>-8.0910248123109340667724609375</LongitudeDegrees>
            </Position>
            <AltitudeMeters>170</AltitudeMeters>
            <DistanceMeters>256653.30448979</DistanceMeters>
          </Trackpoint>
          <Trackpoint>
            <Time>2018-09-14T11:02:27.000Z</Time>
            <Position>
              <LatitudeDegrees>37.97824292443692684173583984375</LatitudeDegrees>
              <LongitudeDegrees>-8.0906325392425060272216796875</LongitudeDegrees>
            </Position>
            <AltitudeMeters>169.399993896484375</AltitudeMeters>
            <DistanceMeters>256698.76590954</DistanceMeters>
          </Trackpoint>
          <Trackpoint>
            <Time>2018-09-14T11:02:30.000Z</Time>
            <Position>
              <LatitudeDegrees>37.9780805669724941253662109375</LatitudeDegrees>
              <LongitudeDegrees>-8.0903948284685611724853515625</LongitudeDegrees>
            </Position>
            <AltitudeMeters>168.8000030517578125</AltitudeMeters>
            <DistanceMeters>256726.36098675</DistanceMeters>
          </Trackpoint>
          <Trackpoint>
            <Time>2018-09-14T11:02:33.000Z</Time>
            <Position>
              <LatitudeDegrees>37.97791871242225170135498046875</LatitudeDegrees>
              <LongitudeDegrees>-8.0901564471423625946044921875</LongitudeDegrees>
            </Position>
            <AltitudeMeters>168.8000030517578125</AltitudeMeters>
            <DistanceMeters>256753.96391649</DistanceMeters>
          </Trackpoint>
          <Trackpoint>
            <Time>2018-09-14T11:02:34.000Z</Time>
            <Position>
              <LatitudeDegrees>37.97786414623260498046875</LatitudeDegrees>
              <LongitudeDegrees>-8.09007723815739154815673828125</LongitudeDegrees>
            </Position>
            <AltitudeMeters>168.600006103515625</AltitudeMeters>
            <DistanceMeters>256763.19276696</DistanceMeters>
          </Trackpoint>
          <Trackpoint>
            <Time>2018-09-14T11:02:40.000Z</Time>
            <Position>
              <LatitudeDegrees>37.97752325423061847686767578125</LatitudeDegrees>
              <LongitudeDegrees>-8.0895767547190189361572265625</LongitudeDegrees>
            </Position>
            <AltitudeMeters>167.1999969482421875</AltitudeMeters>
            <DistanceMeters>256821.22398725</DistanceMeters>
          </Trackpoint>
          <Trackpoint>
            <Time>2018-09-14T11:02:43.000Z</Time>
            <Position>
              <LatitudeDegrees>37.97735880129039287567138671875</LatitudeDegrees>
              <LongitudeDegrees>-8.089314065873622894287109375</LongitudeDegrees>
            </Position>
            <AltitudeMeters>166</AltitudeMeters>
            <DistanceMeters>256850.65512761</DistanceMeters>
          </Trackpoint>
          <Trackpoint>
            <Time>2018-09-14T11:02:44.000Z</Time>
            <Position>
              <LatitudeDegrees>37.977305911481380462646484375</LatitudeDegrees>
              <LongitudeDegrees>-8.08922496624290943145751953125</LongitudeDegrees>
            </Position>
            <AltitudeMeters>165.600006103515625</AltitudeMeters>
            <DistanceMeters>256860.44103383</DistanceMeters>
          </Trackpoint>
          <Trackpoint>
            <Time>2018-09-14T11:02:51.000Z</Time>
            <Position>
              <LatitudeDegrees>37.97693316824734210968017578125</LatitudeDegrees>
              <LongitudeDegrees>-8.088589198887348175048828125</LongitudeDegrees>
            </Position>
            <AltitudeMeters>163.8000030517578125</AltitudeMeters>
            <DistanceMeters>256929.95682635</DistanceMeters>
          </Trackpoint>
          <Trackpoint>
            <Time>2018-09-14T11:02:56.000Z</Time>
            <Position>
              <LatitudeDegrees>37.97665103338658809661865234375</LatitudeDegrees>
              <LongitudeDegrees>-8.08810137212276458740234375</LongitudeDegrees>
            </Position>
            <AltitudeMeters>163.399993896484375</AltitudeMeters>
            <DistanceMeters>256983.04062364</DistanceMeters>
          </Trackpoint>
          <Trackpoint>
            <Time>2018-09-14T11:03:02.000Z</Time>
            <Position>
              <LatitudeDegrees>37.97632279805839061737060546875</LatitudeDegrees>
              <LongitudeDegrees>-8.08749661780893802642822265625</LongitudeDegrees>
            </Position>
            <AltitudeMeters>163.600006103515625</AltitudeMeters>
            <DistanceMeters>257047.46004564</DistanceMeters>
          </Trackpoint>
          <Trackpoint>
            <Time>2018-09-14T11:03:03.000Z</Time>
            <Position>
              <LatitudeDegrees>37.9762660525739192962646484375</LatitudeDegrees>
              <LongitudeDegrees>-8.0873991362750530242919921875</LongitudeDegrees>
            </Position>
            <AltitudeMeters>163.600006103515625</AltitudeMeters>
            <DistanceMeters>257058.09200204</DistanceMeters>
          </Trackpoint>
          <Trackpoint>
            <Time>2018-09-14T11:03:07.000Z</Time>
            <Position>
              <LatitudeDegrees>37.9760333709418773651123046875</LatitudeDegrees>
              <LongitudeDegrees>-8.087006695568561553955078125</LongitudeDegrees>
            </Position>
            <AltitudeMeters>162.1999969482421875</AltitudeMeters>
            <DistanceMeters>257101.17569331</DistanceMeters>
          </Trackpoint>
          <Trackpoint>
            <Time>2018-09-14T11:03:08.000Z</Time>
            <Position>
              <LatitudeDegrees>37.9759770445525646209716796875</LatitudeDegrees>
              <LongitudeDegrees>-8.08690644800662994384765625</LongitudeDegrees>
            </Position>
            <AltitudeMeters>161.600006103515625</AltitudeMeters>
            <DistanceMeters>257111.97701674</DistanceMeters>
          </Trackpoint>
          <Trackpoint>
            <Time>2018-09-14T11:03:13.000Z</Time>
            <Position>
              <LatitudeDegrees>37.975699938833713531494140625</LatitudeDegrees>
              <LongitudeDegrees>-8.0864167772233486175537109375</LongitudeDegrees>
            </Position>
            <AltitudeMeters>161.600006103515625</AltitudeMeters>
            <DistanceMeters>257164.86345997</DistanceMeters>
          </Trackpoint>
          <Trackpoint>
            <Time>2018-09-14T11:03:15.000Z</Time>
            <Position>
              <LatitudeDegrees>37.9755894653499126434326171875</LatitudeDegrees>
              <LongitudeDegrees>-8.0862338840961456298828125</LongitudeDegrees>
            </Position>
            <AltitudeMeters>161.8000030517578125</AltitudeMeters>
            <DistanceMeters>257185.07915114</DistanceMeters>
          </Trackpoint>
          <Trackpoint>
            <Time>2018-09-14T11:03:21.000Z</Time>
            <Position>
              <LatitudeDegrees>37.97527304850518703460693359375</LatitudeDegrees>
              <LongitudeDegrees>-8.08569484390318393707275390625</LongitudeDegrees>
            </Position>
            <AltitudeMeters>162.399993896484375</AltitudeMeters>
            <DistanceMeters>257244.04504598</DistanceMeters>
          </Trackpoint>
          <Trackpoint>
            <Time>2018-09-14T11:03:24.000Z</Time>
            <Position>
              <LatitudeDegrees>37.97510775737464427947998046875</LatitudeDegrees>
              <LongitudeDegrees>-8.08541270904242992401123046875</LongitudeDegrees>
            </Position>
            <AltitudeMeters>161.1999969482421875</AltitudeMeters>
            <DistanceMeters>257274.88644887</DistanceMeters>
          </Trackpoint>
          <Trackpoint>
            <Time>2018-09-14T11:03:27.000Z</Time>
            <Position>
              <LatitudeDegrees>37.9749433882534503936767578125</LatitudeDegrees>
              <LongitudeDegrees>-8.08512504212558269500732421875</LongitudeDegrees>
            </Position>
            <AltitudeMeters>160.600006103515625</AltitudeMeters>
            <DistanceMeters>257306.05839789</DistanceMeters>
          </Trackpoint>
          <Trackpoint>
            <Time>2018-09-14T11:03:32.000Z</Time>
            <Position>
              <LatitudeDegrees>37.9746736586093902587890625</LatitudeDegrees>
              <LongitudeDegrees>-8.08466219343245029449462890625</LongitudeDegrees>
            </Position>
            <AltitudeMeters>160.399993896484375</AltitudeMeters>
            <DistanceMeters>257356.55971026</DistanceMeters>
          </Trackpoint>
          <Trackpoint>
            <Time>2018-09-14T11:03:35.000Z</Time>
            <Position>
              <LatitudeDegrees>37.97451398335397243499755859375</LatitudeDegrees>
              <LongitudeDegrees>-8.0843890272080898284912109375</LongitudeDegrees>
            </Position>
            <AltitudeMeters>159.399993896484375</AltitudeMeters>
            <DistanceMeters>257386.39703933</DistanceMeters>
          </Trackpoint>
          <Trackpoint>
            <Time>2018-09-14T11:03:42.000Z</Time>
            <Position>
              <LatitudeDegrees>37.97415641136467456817626953125</LatitudeDegrees>
              <LongitudeDegrees>-8.0837556906044483184814453125</LongitudeDegrees>
            </Position>
            <AltitudeMeters>159</AltitudeMeters>
            <DistanceMeters>257454.74668402</DistanceMeters>
          </Trackpoint>
          <Trackpoint>
            <Time>2018-09-14T11:03:45.000Z</Time>
            <Position>
              <LatitudeDegrees>37.97400319017469882965087890625</LatitudeDegrees>
              <LongitudeDegrees>-8.08349073864519596099853515625</LongitudeDegrees>
            </Position>
            <AltitudeMeters>159.600006103515625</AltitudeMeters>
            <DistanceMeters>257483.57770146</DistanceMeters>
          </Trackpoint>
          <Trackpoint>
            <Time>2018-09-14T11:03:48.000Z</Time>
            <Position>
              <LatitudeDegrees>37.9738554172217845916748046875</LatitudeDegrees>
              <LongitudeDegrees>-8.0832293070852756500244140625</LongitudeDegrees>
            </Position>
            <AltitudeMeters>160.1999969482421875</AltitudeMeters>
            <DistanceMeters>257511.80271526</DistanceMeters>
          </Trackpoint>
          <Trackpoint>
            <Time>2018-09-14T11:03:53.000Z</Time>
            <Position>
              <LatitudeDegrees>37.97360639087855815887451171875</LatitudeDegrees>
              <LongitudeDegrees>-8.08280761353671550750732421875</LongitudeDegrees>
            </Position>
            <AltitudeMeters>159.600006103515625</AltitudeMeters>
            <DistanceMeters>257558.03182007</DistanceMeters>
          </Trackpoint>
          <Trackpoint>
            <Time>2018-09-14T11:04:00.000Z</Time>
            <Position>
              <LatitudeDegrees>37.973269857466220855712890625</LatitudeDegrees>
              <LongitudeDegrees>-8.0822352133691310882568359375</LongitudeDegrees>
            </Position>
            <AltitudeMeters>159.1999969482421875</AltitudeMeters>
            <DistanceMeters>257620.68347407</DistanceMeters>
          </Trackpoint>
          <Trackpoint>
            <Time>2018-09-14T11:04:04.000Z</Time>
            <Position>
              <LatitudeDegrees>37.973084785044193267822265625</LatitudeDegrees>
              <LongitudeDegrees>-8.0819096602499485015869140625</LongitudeDegrees>
            </Position>
            <AltitudeMeters>159.8000030517578125</AltitudeMeters>
            <DistanceMeters>257655.90007185</DistanceMeters>
          </Trackpoint>
          <Trackpoint>
            <Time>2018-09-14T11:04:11.000Z</Time>
            <Position>
              <LatitudeDegrees>37.97276191413402557373046875</LatitudeDegrees>
              <LongitudeDegrees>-8.08134916238486766815185546875</LongitudeDegrees>
            </Position>
            <AltitudeMeters>158.600006103515625</AltitudeMeters>
            <DistanceMeters>257716.80871184</DistanceMeters>
          </Trackpoint>
          <Trackpoint>
            <Time>2018-09-14T11:04:19.000Z</Time>
            <Position>
              <LatitudeDegrees>37.97238598577678203582763671875</LatitudeDegrees>
              <LongitudeDegrees>-8.08073225431144237518310546875</LongitudeDegrees>
            </Position>
            <AltitudeMeters>155</AltitudeMeters>
            <DistanceMeters>257785.22293071</DistanceMeters>
          </Trackpoint>
          <Trackpoint>
            <Time>2018-09-14T11:04:20.000Z</Time>
            <Position>
              <LatitudeDegrees>37.97233007848262786865234375</LatitudeDegrees>
              <LongitudeDegrees>-8.0806651152670383453369140625</LongitudeDegrees>
            </Position>
            <AltitudeMeters>155.1999969482421875</AltitudeMeters>
            <DistanceMeters>257793.79168508</DistanceMeters>
          </Trackpoint>
          <Trackpoint>
            <Time>2018-09-14T11:04:27.000Z</Time>
            <Position>
              <LatitudeDegrees>37.97182221896946430206298828125</LatitudeDegrees>
              <LongitudeDegrees>-8.08045171201229095458984375</LongitudeDegrees>
            </Position>
            <AltitudeMeters>156.1999969482421875</AltitudeMeters>
            <DistanceMeters>257853.33795992</DistanceMeters>
          </Trackpoint>
          <Trackpoint>
            <Time>2018-09-14T11:04:29.000Z</Time>
            <Position>
              <LatitudeDegrees>37.9716669023036956787109375</LatitudeDegrees>
              <LongitudeDegrees>-8.0804709903895854949951171875</LongitudeDegrees>
            </Position>
            <AltitudeMeters>156.600006103515625</AltitudeMeters>
            <DistanceMeters>257870.7073253</DistanceMeters>
          </Trackpoint>
          <Trackpoint>
            <Time>2018-09-14T11:04:33.000Z</Time>
            <Position>
              <LatitudeDegrees>37.97136473469436168670654296875</LatitudeDegrees>
              <LongitudeDegrees>-8.08053628541529178619384765625</LongitudeDegrees>
            </Position>
            <AltitudeMeters>156.8000030517578125</AltitudeMeters>
            <DistanceMeters>257904.82363626</DistanceMeters>
          </Trackpoint>
          <Trackpoint>
            <Time>2018-09-14T11:04:41.000Z</Time>
            <Position>
              <LatitudeDegrees>37.970770038664340972900390625</LatitudeDegrees>
              <LongitudeDegrees>-8.08065178804099559783935546875</LongitudeDegrees>
            </Position>
            <AltitudeMeters>157.399993896484375</AltitudeMeters>
            <DistanceMeters>257971.78585425</DistanceMeters>
          </Trackpoint>
          <Trackpoint>
            <Time>2018-09-14T11:04:45.000Z</Time>
            <Position>
              <LatitudeDegrees>37.9704788513481616973876953125</LatitudeDegrees>
              <LongitudeDegrees>-8.0807093717157840728759765625</LongitudeDegrees>
            </Position>
            <AltitudeMeters>157.600006103515625</AltitudeMeters>
            <DistanceMeters>258004.58700588</DistanceMeters>
          </Trackpoint>
          <Trackpoint>
            <Time>2018-09-14T11:04:53.000Z</Time>
            <Position>
              <LatitudeDegrees>37.969910390675067901611328125</LatitudeDegrees>
              <LongitudeDegrees>-8.0808211863040924072265625</LongitudeDegrees>
            </Position>
            <AltitudeMeters>157.1999969482421875</AltitudeMeters>
            <DistanceMeters>258068.61393001</DistanceMeters>
          </Trackpoint>
          <Trackpoint>
            <Time>2018-09-14T11:05:01.000Z</Time>
            <Position>
              <LatitudeDegrees>37.969327010214328765869140625</LatitudeDegrees>
              <LongitudeDegrees>-8.08093593455851078033447265625</LongitudeDegrees>
            </Position>
            <AltitudeMeters>155.399993896484375</AltitudeMeters>
            <DistanceMeters>258134.32131278</DistanceMeters>
          </Trackpoint>
          <Trackpoint>
            <Time>2018-09-14T11:05:09.000Z</Time>
            <Position>
              <LatitudeDegrees>37.968718148767948150634765625</LatitudeDegrees>
              <LongitudeDegrees>-8.08105411939322948455810546875</LongitudeDegrees>
            </Position>
            <AltitudeMeters>156</AltitudeMeters>
            <DistanceMeters>258202.87767052</DistanceMeters>
          </Trackpoint>
          <Trackpoint>
            <Time>2018-09-14T11:05:17.000Z</Time>
            <Position>
              <LatitudeDegrees>37.96812948770821094512939453125</LatitudeDegrees>
              <LongitudeDegrees>-8.0811618268489837646484375</LongitudeDegrees>
            </Position>
            <AltitudeMeters>156.1999969482421875</AltitudeMeters>
            <DistanceMeters>258269.07487852</DistanceMeters>
          </Trackpoint>
          <Trackpoint>
            <Time>2018-09-14T11:05:25.000Z</Time>
            <Position>
              <LatitudeDegrees>37.96753269620239734649658203125</LatitudeDegrees>
              <LongitudeDegrees>-8.08126651681959629058837890625</LongitudeDegrees>
            </Position>
            <AltitudeMeters>156.399993896484375</AltitudeMeters>
            <DistanceMeters>258336.13115806</DistanceMeters>
          </Trackpoint>
          <Trackpoint>
            <Time>2018-09-14T11:05:26.000Z</Time>
            <Position>
              <LatitudeDegrees>37.9674586839973926544189453125</LatitudeDegrees>
              <LongitudeDegrees>-8.0812783353030681610107421875</LongitudeDegrees>
            </Position>
            <AltitudeMeters>156.1999969482421875</AltitudeMeters>
            <DistanceMeters>258344.43390481</DistanceMeters>
          </Trackpoint>
          <Trackpoint>
            <Time>2018-09-14T11:05:34.000Z</Time>
            <Position>
              <LatitudeDegrees>37.9668843559920787811279296875</LatitudeDegrees>
              <LongitudeDegrees>-8.0813829414546489715576171875</LongitudeDegrees>
            </Position>
            <AltitudeMeters>156</AltitudeMeters>
            <DistanceMeters>258409.01334956</DistanceMeters>
          </Trackpoint>
          <Trackpoint>
            <Time>2018-09-14T11:05:38.000Z</Time>
            <Position>
              <LatitudeDegrees>37.9666050709784030914306640625</LatitudeDegrees>
              <LongitudeDegrees>-8.0814359150826930999755859375</LongitudeDegrees>
            </Position>
            <AltitudeMeters>155.8000030517578125</AltitudeMeters>
            <DistanceMeters>258440.4440728</DistanceMeters>
          </Trackpoint>
          <Trackpoint>
            <Time>2018-09-14T11:05:46.000Z</Time>
            <Position>
              <LatitudeDegrees>37.96604306437075138092041015625</LatitudeDegrees>
              <LongitudeDegrees>-8.08152987621724605560302734375</LongitudeDegrees>
            </Position>
            <AltitudeMeters>155</AltitudeMeters>
            <DistanceMeters>258503.53758918</DistanceMeters>
          </Trackpoint>
          <Trackpoint>
            <Time>2018-09-14T11:05:54.000Z</Time>
            <Position>
              <LatitudeDegrees>37.96547678299248218536376953125</LatitudeDegrees>
              <LongitudeDegrees>-8.081630878150463104248046875</LongitudeDegrees>
            </Position>
            <AltitudeMeters>155.1999969482421875</AltitudeMeters>
            <DistanceMeters>258567.18591213</DistanceMeters>
          </Trackpoint>
          <Trackpoint>
            <Time>2018-09-14T11:06:02.000Z</Time>
            <Position>
              <LatitudeDegrees>37.96493916772305965423583984375</LatitudeDegrees>
              <LongitudeDegrees>-8.08172450400888919830322265625</LongitudeDegrees>
            </Position>
            <AltitudeMeters>156.1999969482421875</AltitudeMeters>
            <DistanceMeters>258627.58493963</DistanceMeters>
          </Trackpoint>
          <Trackpoint>
            <Time>2018-09-14T11:06:11.000Z</Time>
            <Position>
              <LatitudeDegrees>37.9643573798239231109619140625</LatitudeDegrees>
              <LongitudeDegrees>-8.0818238295614719390869140625</LongitudeDegrees>
            </Position>
            <AltitudeMeters>157.1999969482421875</AltitudeMeters>
            <DistanceMeters>258692.92304466</DistanceMeters>
          </Trackpoint>
          <Trackpoint>
            <Time>2018-09-14T11:06:20.000Z</Time>
            <Position>
              <LatitudeDegrees>37.9637723229825496673583984375</LatitudeDegrees>
              <LongitudeDegrees>-8.0819371528923511505126953125</LongitudeDegrees>
            </Position>
            <AltitudeMeters>158.8000030517578125</AltitudeMeters>
            <DistanceMeters>258758.79595787</DistanceMeters>
          </Trackpoint>
          <Trackpoint>
            <Time>2018-09-14T11:06:27.000Z</Time>
            <Position>
              <LatitudeDegrees>37.963356412947177886962890625</LatitudeDegrees>
              <LongitudeDegrees>-8.08209448121488094329833984375</LongitudeDegrees>
            </Position>
            <AltitudeMeters>160.1999969482421875</AltitudeMeters>
            <DistanceMeters>258807.10244019</DistanceMeters>
          </Trackpoint>
          <Trackpoint>
            <Time>2018-09-14T11:06:29.000Z</Time>
            <Position>
              <LatitudeDegrees>37.9632499627768993377685546875</LatitudeDegrees>
              <LongitudeDegrees>-8.082154579460620880126953125</LongitudeDegrees>
            </Position>
            <AltitudeMeters>160.1999969482421875</AltitudeMeters>
            <DistanceMeters>258820.0707147</DistanceMeters>
          </Trackpoint>
          <Trackpoint>
            <Time>2018-09-14T11:06:34.000Z</Time>
            <Position>
              <LatitudeDegrees>37.9630149342119693756103515625</LatitudeDegrees>
              <LongitudeDegrees>-8.0823565833270549774169921875</LongitudeDegrees>
            </Position>
            <AltitudeMeters>160.8000030517578125</AltitudeMeters>
            <DistanceMeters>258851.66977644</DistanceMeters>
          </Trackpoint>
          <Trackpoint>
            <Time>2018-09-14T11:06:40.000Z</Time>
            <Position>
              <LatitudeDegrees>37.962775044143199920654296875</LatitudeDegrees>
              <LongitudeDegrees>-8.082652799785137176513671875</LongitudeDegrees>
            </Position>
            <AltitudeMeters>162</AltitudeMeters>
            <DistanceMeters>258888.93309425</DistanceMeters>
          </Trackpoint>
          <Trackpoint>
            <Time>2018-09-14T11:06:41.000Z</Time>
            <Position>
              <LatitudeDegrees>37.96274109743535518646240234375</LatitudeDegrees>
              <LongitudeDegrees>-8.08270485140383243560791015625</LongitudeDegrees>
            </Position>
            <AltitudeMeters>162</AltitudeMeters>
            <DistanceMeters>258894.86142096</DistanceMeters>
          </Trackpoint>
          <Trackpoint>
            <Time>2018-09-14T11:06:51.000Z</Time>
            <Position>
              <LatitudeDegrees>37.9624469764530658721923828125</LatitudeDegrees>
              <LongitudeDegrees>-8.08330692350864410400390625</LongitudeDegrees>
            </Position>
            <AltitudeMeters>162.8000030517578125</AltitudeMeters>
            <DistanceMeters>258957.01441334</DistanceMeters>
          </Trackpoint>
          <Trackpoint>
            <Time>2018-09-14T11:06:52.000Z</Time>
            <Position>
              <LatitudeDegrees>37.96241856180131435394287109375</LatitudeDegrees>
              <LongitudeDegrees>-8.0833724699914455413818359375</LongitudeDegrees>
            </Position>
            <AltitudeMeters>162.8000030517578125</AltitudeMeters>
            <DistanceMeters>258963.57882686</DistanceMeters>
          </Trackpoint>
          <Trackpoint>
            <Time>2018-09-14T11:06:55.000Z</Time>
            <Position>
              <LatitudeDegrees>37.96233289875090122222900390625</LatitudeDegrees>
              <LongitudeDegrees>-8.0835706181824207305908203125</LongitudeDegrees>
            </Position>
            <AltitudeMeters>162.600006103515625</AltitudeMeters>
            <DistanceMeters>258983.4096067</DistanceMeters>
          </Trackpoint>
          <Trackpoint>
            <Time>2018-09-14T11:07:04.000Z</Time>
            <Position>
              <LatitudeDegrees>37.96207909472286701202392578125</LatitudeDegrees>
              <LongitudeDegrees>-8.08417470194399356842041015625</LongitudeDegrees>
            </Position>
            <AltitudeMeters>161.399993896484375</AltitudeMeters>
            <DistanceMeters>259043.47656337</DistanceMeters>
          </Trackpoint>
          <Trackpoint>
            <Time>2018-09-14T11:07:13.000Z</Time>
            <Position>
              <LatitudeDegrees>37.961811125278472900390625</LatitudeDegrees>
              <LongitudeDegrees>-8.0847916938364505767822265625</LongitudeDegrees>
            </Position>
            <AltitudeMeters>160.8000030517578125</AltitudeMeters>
            <DistanceMeters>259105.29076543</DistanceMeters>
          </Trackpoint>
          <Trackpoint>
            <Time>2018-09-14T11:07:22.000Z</Time>
            <Position>
              <LatitudeDegrees>37.961524464190006256103515625</LatitudeDegrees>
              <LongitudeDegrees>-8.0853968672454357147216796875</LongitudeDegrees>
            </Position>
            <AltitudeMeters>161.399993896484375</AltitudeMeters>
            <DistanceMeters>259167.24410216</DistanceMeters>
          </Trackpoint>
          <Trackpoint>
            <Time>2018-09-14T11:07:26.000Z</Time>
            <Position>
              <LatitudeDegrees>37.961375601589679718017578125</LatitudeDegrees>
              <LongitudeDegrees>-8.08565209619700908660888671875</LongitudeDegrees>
            </Position>
            <AltitudeMeters>161.8000030517578125</AltitudeMeters>
            <DistanceMeters>259195.10362712</DistanceMeters>
          </Trackpoint>
          <Trackpoint>
            <Time>2018-09-14T11:07:35.000Z</Time>
            <Position>
              <LatitudeDegrees>37.9609407484531402587890625</LatitudeDegrees>
              <LongitudeDegrees>-8.08613556437194347381591796875</LongitudeDegrees>
            </Position>
            <AltitudeMeters>161.600006103515625</AltitudeMeters>
            <DistanceMeters>259259.46618252</DistanceMeters>
          </Trackpoint>
          <Trackpoint>
            <Time>2018-09-14T11:07:39.000Z</Time>
            <Position>
              <LatitudeDegrees>37.9607072286307811737060546875</LatitudeDegrees>
              <LongitudeDegrees>-8.08630890212953090667724609375</LongitudeDegrees>
            </Position>
            <AltitudeMeters>160.399993896484375</AltitudeMeters>
            <DistanceMeters>259289.58140621</DistanceMeters>
          </Trackpoint>
          <Trackpoint>
            <Time>2018-09-14T11:07:41.000Z</Time>
            <Position>
              <LatitudeDegrees>37.96058342792093753814697265625</LatitudeDegrees>
              <LongitudeDegrees>-8.0863974988460540771484375</LongitudeDegrees>
            </Position>
            <AltitudeMeters>159.8000030517578125</AltitudeMeters>
            <DistanceMeters>259305.40271207</DistanceMeters>
          </Trackpoint>
          <Trackpoint>
            <Time>2018-09-14T11:07:43.000Z</Time>
            <Position>
              <LatitudeDegrees>37.96046054922044277191162109375</LatitudeDegrees>
              <LongitudeDegrees>-8.08649296872317790985107421875</LongitudeDegrees>
            </Position>
            <AltitudeMeters>159.1999969482421875</AltitudeMeters>
            <DistanceMeters>259321.44112712</DistanceMeters>
          </Trackpoint>
          <Trackpoint>
            <Time>2018-09-14T11:07:48.000Z</Time>
            <Position>
              <LatitudeDegrees>37.9601268656551837921142578125</LatitudeDegrees>
              <LongitudeDegrees>-8.08674576692283153533935546875</LongitudeDegrees>
            </Position>
            <AltitudeMeters>157.399993896484375</AltitudeMeters>
            <DistanceMeters>259364.70198013</DistanceMeters>
          </Trackpoint>
          <Trackpoint>
            <Time>2018-09-14T11:07:51.000Z</Time>
            <Position>
              <LatitudeDegrees>37.95991438440978527069091796875</LatitudeDegrees>
              <LongitudeDegrees>-8.0869099684059619903564453125</LongitudeDegrees>
            </Position>
            <AltitudeMeters>156.399993896484375</AltitudeMeters>
            <DistanceMeters>259392.395706</DistanceMeters>
          </Trackpoint>
          <Trackpoint>
            <Time>2018-09-14T11:07:55.000Z</Time>
            <Position>
              <LatitudeDegrees>37.9596306569874286651611328125</LatitudeDegrees>
              <LongitudeDegrees>-8.0871282331645488739013671875</LongitudeDegrees>
            </Position>
            <AltitudeMeters>155.1999969482421875</AltitudeMeters>
            <DistanceMeters>259429.32981623</DistanceMeters>
          </Trackpoint>
          <Trackpoint>
            <Time>2018-09-14T11:07:57.000Z</Time>
            <Position>
              <LatitudeDegrees>37.95948472805321216583251953125</LatitudeDegrees>
              <LongitudeDegrees>-8.08723543770611286163330078125</LongitudeDegrees>
            </Position>
            <AltitudeMeters>154.8000030517578125</AltitudeMeters>
            <DistanceMeters>259448.09993776</DistanceMeters>
          </Trackpoint>
          <Trackpoint>
            <Time>2018-09-14T11:07:58.000Z</Time>
            <Position>
              <LatitudeDegrees>37.95941046439111232757568359375</LatitudeDegrees>
              <LongitudeDegrees>-8.0872898362576961517333984375</LongitudeDegrees>
            </Position>
            <AltitudeMeters>154.399993896484375</AltitudeMeters>
            <DistanceMeters>259457.64527544</DistanceMeters>
          </Trackpoint>
          <Trackpoint>
            <Time>2018-09-14T11:08:00.000Z</Time>
            <Position>
              <LatitudeDegrees>37.959260679781436920166015625</LatitudeDegrees>
              <LongitudeDegrees>-8.087403662502765655517578125</LongitudeDegrees>
            </Position>
            <AltitudeMeters>153.8000030517578125</AltitudeMeters>
            <DistanceMeters>259477.08003907</DistanceMeters>
          </Trackpoint>
          <Trackpoint>
            <Time>2018-09-14T11:08:03.000Z</Time>
            <Position>
              <LatitudeDegrees>37.95902187936007976531982421875</LatitudeDegrees>
              <LongitudeDegrees>-8.087576664984226226806640625</LongitudeDegrees>
            </Position>
            <AltitudeMeters>153</AltitudeMeters>
            <DistanceMeters>259507.68941087</DistanceMeters>
          </Trackpoint>
          <Trackpoint>
            <Time>2018-09-14T11:08:06.000Z</Time>
            <Position>
              <LatitudeDegrees>37.9587770439684391021728515625</LatitudeDegrees>
              <LongitudeDegrees>-8.0877598933875560760498046875</LongitudeDegrees>
            </Position>
            <AltitudeMeters>151.600006103515625</AltitudeMeters>
            <DistanceMeters>259539.33031027</DistanceMeters>
          </Trackpoint>
          <Trackpoint>
            <Time>2018-09-14T11:08:09.000Z</Time>
            <Position>
              <LatitudeDegrees>37.95852877199649810791015625</LatitudeDegrees>
              <LongitudeDegrees>-8.0879499949514865875244140625</LongitudeDegrees>
            </Position>
            <AltitudeMeters>150.1999969482421875</AltitudeMeters>
            <DistanceMeters>259571.60891433</DistanceMeters>
          </Trackpoint>
          <Trackpoint>
            <Time>2018-09-14T11:08:10.000Z</Time>
            <Position>
              <LatitudeDegrees>37.95844428241252899169921875</LatitudeDegrees>
              <LongitudeDegrees>-8.08801285922527313232421875</LongitudeDegrees>
            </Position>
            <AltitudeMeters>149.600006103515625</AltitudeMeters>
            <DistanceMeters>259582.51175462</DistanceMeters>
          </Trackpoint>
          <Trackpoint>
            <Time>2018-09-14T11:08:12.000Z</Time>
            <Position>
              <LatitudeDegrees>37.9582744650542736053466796875</LatitudeDegrees>
              <LongitudeDegrees>-8.08813892304897308349609375</LongitudeDegrees>
            </Position>
            <AltitudeMeters>148.8000030517578125</AltitudeMeters>
            <DistanceMeters>259604.41247471</DistanceMeters>
          </Trackpoint>
          <Trackpoint>
            <Time>2018-09-14T11:08:13.000Z</Time>
            <Position>
              <LatitudeDegrees>37.9581893049180507659912109375</LatitudeDegrees>
              <LongitudeDegrees>-8.08820405043661594390869140625</LongitudeDegrees>
            </Position>
            <AltitudeMeters>148.1999969482421875</AltitudeMeters>
            <DistanceMeters>259615.48053764</DistanceMeters>
          </Trackpoint>
          <Trackpoint>
            <Time>2018-09-14T11:08:14.000Z</Time>
            <Position>
              <LatitudeDegrees>37.95810364186763763427734375</LatitudeDegrees>
              <LongitudeDegrees>-8.0882698483765125274658203125</LongitudeDegrees>
            </Position>
            <AltitudeMeters>147.8000030517578125</AltitudeMeters>
            <DistanceMeters>259626.62745882</DistanceMeters>
          </Trackpoint>
          <Trackpoint>
            <Time>2018-09-14T11:08:16.000Z</Time>
            <Position>
              <LatitudeDegrees>37.957930304110050201416015625</LatitudeDegrees>
              <LongitudeDegrees>-8.088400103151798248291015625</LongitudeDegrees>
            </Position>
            <AltitudeMeters>146.8000030517578125</AltitudeMeters>
            <DistanceMeters>259649.05235408</DistanceMeters>
          </Trackpoint>
          <Trackpoint>
            <Time>2018-09-14T11:08:18.000Z</Time>
            <Position>
              <LatitudeDegrees>37.957756631076335906982421875</LatitudeDegrees>
              <LongitudeDegrees>-8.088535554707050323486328125</LongitudeDegrees>
            </Position>
            <AltitudeMeters>145.8000030517578125</AltitudeMeters>
            <DistanceMeters>259671.74484489</DistanceMeters>
          </Trackpoint>
          <Trackpoint>
            <Time>2018-09-14T11:08:21.000Z</Time>
            <Position>
              <LatitudeDegrees>37.957490421831607818603515625</LatitudeDegrees>
              <LongitudeDegrees>-8.08874065987765789031982421875</LongitudeDegrees>
            </Position>
            <AltitudeMeters>144.600006103515625</AltitudeMeters>
            <DistanceMeters>259706.41305965</DistanceMeters>
          </Trackpoint>
          <Trackpoint>
            <Time>2018-09-14T11:08:22.000Z</Time>
            <Position>
              <LatitudeDegrees>37.95740081928670406341552734375</LatitudeDegrees>
              <LongitudeDegrees>-8.08881006203591823577880859375</LongitudeDegrees>
            </Position>
            <AltitudeMeters>144.399993896484375</AltitudeMeters>
            <DistanceMeters>259718.09864119</DistanceMeters>
          </Trackpoint>
          <Trackpoint>
            <Time>2018-09-14T11:08:25.000Z</Time>
            <Position>
              <LatitudeDegrees>37.95713209547102451324462890625</LatitudeDegrees>
              <LongitudeDegrees>-8.08901600539684295654296875</LongitudeDegrees>
            </Position>
            <AltitudeMeters>143.8000030517578125</AltitudeMeters>
            <DistanceMeters>259753.04470732</DistanceMeters>
          </Trackpoint>
          <Trackpoint>
            <Time>2018-09-14T11:08:31.000Z</Time>
            <Position>
              <LatitudeDegrees>37.95663647353649139404296875</LatitudeDegrees>
              <LongitudeDegrees>-8.0893908441066741943359375</LongitudeDegrees>
            </Position>
            <AltitudeMeters>142.8000030517578125</AltitudeMeters>
            <DistanceMeters>259817.27194128</DistanceMeters>
          </Trackpoint>
          <Trackpoint>
            <Time>2018-09-14T11:08:32.000Z</Time>
            <Position>
              <LatitudeDegrees>37.95655927620828151702880859375</LatitudeDegrees>
              <LongitudeDegrees>-8.089450187981128692626953125</LongitudeDegrees>
            </Position>
            <AltitudeMeters>142.8000030517578125</AltitudeMeters>
            <DistanceMeters>259827.31919088</DistanceMeters>
          </Trackpoint>
          <Trackpoint>
            <Time>2018-09-14T11:08:38.000Z</Time>
            <Position>
              <LatitudeDegrees>37.956093661487102508544921875</LatitudeDegrees>
              <LongitudeDegrees>-8.0898030661046504974365234375</LongitudeDegrees>
            </Position>
            <AltitudeMeters>142.1999969482421875</AltitudeMeters>
            <DistanceMeters>259887.6908524</DistanceMeters>
          </Trackpoint>
          <Trackpoint>
            <Time>2018-09-14T11:08:44.000Z</Time>
            <Position>
              <LatitudeDegrees>37.95562217943370342254638671875</LatitudeDegrees>
              <LongitudeDegrees>-8.09015988372266292572021484375</LongitudeDegrees>
            </Position>
            <AltitudeMeters>141.600006103515625</AltitudeMeters>
            <DistanceMeters>259948.80064027</DistanceMeters>
          </Trackpoint>
          <Trackpoint>
            <Time>2018-09-14T11:08:50.000Z</Time>
            <Position>
              <LatitudeDegrees>37.9551543854176998138427734375</LatitudeDegrees>
              <LongitudeDegrees>-8.0905118398368358612060546875</LongitudeDegrees>
            </Position>
            <AltitudeMeters>140.600006103515625</AltitudeMeters>
            <DistanceMeters>260009.33959373</DistanceMeters>
          </Trackpoint>
          <Trackpoint>
            <Time>2018-09-14T11:08:57.000Z</Time>
            <Position>
              <LatitudeDegrees>37.9546233080327510833740234375</LatitudeDegrees>
              <LongitudeDegrees>-8.09091903269290924072265625</LongitudeDegrees>
            </Position>
            <AltitudeMeters>140</AltitudeMeters>
            <DistanceMeters>260078.4122501</DistanceMeters>
          </Trackpoint>
          <Trackpoint>
            <Time>2018-09-14T11:09:02.000Z</Time>
            <Position>
              <LatitudeDegrees>37.95424100942909717559814453125</LatitudeDegrees>
              <LongitudeDegrees>-8.0912162549793720245361328125</LongitudeDegrees>
            </Position>
            <AltitudeMeters>139.399993896484375</AltitudeMeters>
            <DistanceMeters>260128.32181479</DistanceMeters>
          </Trackpoint>
          <Trackpoint>
            <Time>2018-09-14T11:09:06.000Z</Time>
            <Position>
              <LatitudeDegrees>37.9539339803159236907958984375</LatitudeDegrees>
              <LongitudeDegrees>-8.09145119972527027130126953125</LongitudeDegrees>
            </Position>
            <AltitudeMeters>138.399993896484375</AltitudeMeters>
            <DistanceMeters>260168.23348733</DistanceMeters>
          </Trackpoint>
          <Trackpoint>
            <Time>2018-09-14T11:09:13.000Z</Time>
            <Position>
              <LatitudeDegrees>37.95340566895902156829833984375</LatitudeDegrees>
              <LongitudeDegrees>-8.09184464626014232635498046875</LongitudeDegrees>
            </Position>
            <AltitudeMeters>137</AltitudeMeters>
            <DistanceMeters>260236.42440861</DistanceMeters>
          </Trackpoint>
          <Trackpoint>
            <Time>2018-09-14T11:09:16.000Z</Time>
            <Position>
              <LatitudeDegrees>37.9531856440007686614990234375</LatitudeDegrees>
              <LongitudeDegrees>-8.09200691990554332733154296875</LongitudeDegrees>
            </Position>
            <AltitudeMeters>136.399993896484375</AltitudeMeters>
            <DistanceMeters>260264.75352815</DistanceMeters>
          </Trackpoint>
          <Trackpoint>
            <Time>2018-09-14T11:09:23.000Z</Time>
            <Position>
              <LatitudeDegrees>37.9526830650866031646728515625</LatitudeDegrees>
              <LongitudeDegrees>-8.092393577098846435546875</LongitudeDegrees>
            </Position>
            <AltitudeMeters>135.1999969482421875</AltitudeMeters>
            <DistanceMeters>260330.1798178</DistanceMeters>
          </Trackpoint>
          <Trackpoint>
            <Time>2018-09-14T11:09:26.000Z</Time>
            <Position>
              <LatitudeDegrees>37.95246354304254055023193359375</LatitudeDegrees>
              <LongitudeDegrees>-8.09255626983940601348876953125</LongitudeDegrees>
            </Position>
            <AltitudeMeters>135</AltitudeMeters>
            <DistanceMeters>260358.47911796</DistanceMeters>
          </Trackpoint>
          <Trackpoint>
            <Time>2018-09-14T11:09:33.000Z</Time>
            <Position>
              <LatitudeDegrees>37.95194872654974460601806640625</LatitudeDegrees>
              <LongitudeDegrees>-8.092935383319854736328125</LongitudeDegrees>
            </Position>
            <AltitudeMeters>135</AltitudeMeters>
            <DistanceMeters>260424.7389775</DistanceMeters>
          </Trackpoint>
          <Trackpoint>
            <Time>2018-09-14T11:09:40.000Z</Time>
            <Position>
              <LatitudeDegrees>37.95143776573240756988525390625</LatitudeDegrees>
              <LongitudeDegrees>-8.09333276934921741485595703125</LongitudeDegrees>
            </Position>
            <AltitudeMeters>134.600006103515625</AltitudeMeters>
            <DistanceMeters>260491.45233327</DistanceMeters>
          </Trackpoint>
          <Trackpoint>
            <Time>2018-09-14T11:09:42.000Z</Time>
            <Position>
              <LatitudeDegrees>37.951290495693683624267578125</LatitudeDegrees>
              <LongitudeDegrees>-8.093449361622333526611328125</LongitudeDegrees>
            </Position>
            <AltitudeMeters>134.399993896484375</AltitudeMeters>
            <DistanceMeters>260510.77526267</DistanceMeters>
          </Trackpoint>
          <Trackpoint>
            <Time>2018-09-14T11:09:47.000Z</Time>
            <Position>
              <LatitudeDegrees>37.950910627841949462890625</LatitudeDegrees>
              <LongitudeDegrees>-8.0937395431101322174072265625</LongitudeDegrees>
            </Position>
            <AltitudeMeters>132.8000030517578125</AltitudeMeters>
            <DistanceMeters>260560.1332029</DistanceMeters>
          </Trackpoint>
          <Trackpoint>
            <Time>2018-09-14T11:09:50.000Z</Time>
            <Position>
              <LatitudeDegrees>37.9506818018853664398193359375</LatitudeDegrees>
              <LongitudeDegrees>-8.09391397051513195037841796875</LongitudeDegrees>
            </Position>
            <AltitudeMeters>132.8000030517578125</AltitudeMeters>
            <DistanceMeters>260589.84877214</DistanceMeters>
          </Trackpoint>
          <Trackpoint>
            <Time>2018-09-14T11:09:56.000Z</Time>
            <Position>
              <LatitudeDegrees>37.95022373087704181671142578125</LatitudeDegrees>
              <LongitudeDegrees>-8.09425226412713527679443359375</LongitudeDegrees>
            </Position>
            <AltitudeMeters>132.600006103515625</AltitudeMeters>
            <DistanceMeters>260648.84819525</DistanceMeters>
          </Trackpoint>
          <Trackpoint>
            <Time>2018-09-14T11:10:02.000Z</Time>
            <Position>
              <LatitudeDegrees>37.9498015344142913818359375</LatitudeDegrees>
              <LongitudeDegrees>-8.094579242169857025146484375</LongitudeDegrees>
            </Position>
            <AltitudeMeters>132.600006103515625</AltitudeMeters>
            <DistanceMeters>260703.90951412</DistanceMeters>
          </Trackpoint>
          <Trackpoint>
            <Time>2018-09-14T11:10:09.000Z</Time>
            <Position>
              <LatitudeDegrees>37.94934689998626708984375</LatitudeDegrees>
              <LongitudeDegrees>-8.09492030180990695953369140625</LongitudeDegrees>
            </Position>
            <AltitudeMeters>132.1999969482421875</AltitudeMeters>
            <DistanceMeters>260762.70218213</DistanceMeters>
          </Trackpoint>
          <Trackpoint>
            <Time>2018-09-14T11:10:15.000Z</Time>
            <Position>
              <LatitudeDegrees>37.948987819254398345947265625</LatitudeDegrees>
              <LongitudeDegrees>-8.09520109556615352630615234375</LongitudeDegrees>
            </Position>
            <AltitudeMeters>132.1999969482421875</AltitudeMeters>
            <DistanceMeters>260809.65615005</DistanceMeters>
          </Trackpoint>
          <Trackpoint>
            <Time>2018-09-14T11:10:23.000Z</Time>
            <Position>
              <LatitudeDegrees>37.9485219530761241912841796875</LatitudeDegrees>
              <LongitudeDegrees>-8.0955580808222293853759765625</LongitudeDegrees>
            </Position>
            <AltitudeMeters>132.600006103515625</AltitudeMeters>
            <DistanceMeters>260870.23916467</DistanceMeters>
          </Trackpoint>
          <Trackpoint>
            <Time>2018-09-14T11:10:31.000Z</Time>
            <Position>
              <LatitudeDegrees>37.94804208911955356597900390625</LatitudeDegrees>
              <LongitudeDegrees>-8.09593333862721920013427734375</LongitudeDegrees>
            </Position>
            <AltitudeMeters>132.1999969482421875</AltitudeMeters>
            <DistanceMeters>260932.98774419</DistanceMeters>
          </Trackpoint>
          <Trackpoint>
            <Time>2018-09-14T11:10:35.000Z</Time>
            <Position>
              <LatitudeDegrees>37.947780825197696685791015625</LatitudeDegrees>
              <LongitudeDegrees>-8.096129558980464935302734375</LongitudeDegrees>
            </Position>
            <AltitudeMeters>131.399993896484375</AltitudeMeters>
            <DistanceMeters>260966.7842727</DistanceMeters>
          </Trackpoint>
          <Trackpoint>
            <Time>2018-09-14T11:10:43.000Z</Time>
            <Position>
              <LatitudeDegrees>37.947268187999725341796875</LatitudeDegrees>
              <LongitudeDegrees>-8.09651051647961139678955078125</LongitudeDegrees>
            </Position>
            <AltitudeMeters>131</AltitudeMeters>
            <DistanceMeters>261032.91726783</DistanceMeters>
          </Trackpoint>
          <Trackpoint>
            <Time>2018-09-14T11:10:51.000Z</Time>
            <Position>
              <LatitudeDegrees>37.94678748585283756256103515625</LatitudeDegrees>
              <LongitudeDegrees>-8.09688267298042774200439453125</LongitudeDegrees>
            </Position>
            <AltitudeMeters>131.1999969482421875</AltitudeMeters>
            <DistanceMeters>261095.60335979</DistanceMeters>
          </Trackpoint>
          <Trackpoint>
            <Time>2018-09-14T11:10:59.000Z</Time>
            <Position>
              <LatitudeDegrees>37.94635288417339324951171875</LatitudeDegrees>
              <LongitudeDegrees>-8.0972123332321643829345703125</LongitudeDegrees>
            </Position>
            <AltitudeMeters>132.600006103515625</AltitudeMeters>
            <DistanceMeters>261151.96886215</DistanceMeters>
          </Trackpoint>
          <Trackpoint>
            <Time>2018-09-14T11:11:05.000Z</Time>
            <Position>
              <LatitudeDegrees>37.94605239294469356536865234375</LatitudeDegrees>
              <LongitudeDegrees>-8.09743084944784641265869140625</LongitudeDegrees>
            </Position>
            <AltitudeMeters>133.399993896484375</AltitudeMeters>
            <DistanceMeters>261190.52313368</DistanceMeters>
          </Trackpoint>
          <Trackpoint>
            <Time>2018-09-14T11:11:09.000Z</Time>
            <Position>
              <LatitudeDegrees>37.9458528198301792144775390625</LatitudeDegrees>
              <LongitudeDegrees>-8.097578622400760650634765625</LongitudeDegrees>
            </Position>
            <AltitudeMeters>134.1999969482421875</AltitudeMeters>
            <DistanceMeters>261216.24572611</DistanceMeters>
          </Trackpoint>
          <Trackpoint>
            <Time>2018-09-14T11:11:12.000Z</Time>
            <Position>
              <LatitudeDegrees>37.94570102356374263763427734375</LatitudeDegrees>
              <LongitudeDegrees>-8.097693957388401031494140625</LongitudeDegrees>
            </Position>
            <AltitudeMeters>134.1999969482421875</AltitudeMeters>
            <DistanceMeters>261235.94171768</DistanceMeters>
          </Trackpoint>
          <Trackpoint>
            <Time>2018-09-14T11:11:21.000Z</Time>
            <Position>
              <LatitudeDegrees>37.945203222334384918212890625</LatitudeDegrees>
              <LongitudeDegrees>-8.09806535951793193817138671875</LongitudeDegrees>
            </Position>
            <AltitudeMeters>134.600006103515625</AltitudeMeters>
            <DistanceMeters>261300.22657005</DistanceMeters>
          </Trackpoint>
          <Trackpoint>
            <Time>2018-09-14T11:11:30.000Z</Time>
            <Position>
              <LatitudeDegrees>37.94472168199717998504638671875</LatitudeDegrees>
              <LongitudeDegrees>-8.0984360910952091217041015625</LongitudeDegrees>
            </Position>
            <AltitudeMeters>134.399993896484375</AltitudeMeters>
            <DistanceMeters>261362.92778568</DistanceMeters>
          </Trackpoint>
          <Trackpoint>
            <Time>2018-09-14T11:11:39.000Z</Time>
            <Position>
              <LatitudeDegrees>37.94423452578485012054443359375</LatitudeDegrees>
              <LongitudeDegrees>-8.09880883432924747467041015625</LongitudeDegrees>
            </Position>
            <AltitudeMeters>136.399993896484375</AltitudeMeters>
            <DistanceMeters>261426.25523083</DistanceMeters>
          </Trackpoint>
          <Trackpoint>
            <Time>2018-09-14T11:11:47.000Z</Time>
            <Position>
              <LatitudeDegrees>37.94378709979355335235595703125</LatitudeDegrees>
              <LongitudeDegrees>-8.09914402663707733154296875</LongitudeDegrees>
            </Position>
            <AltitudeMeters>136</AltitudeMeters>
            <DistanceMeters>261484.09629878</DistanceMeters>
          </Trackpoint>
          <Trackpoint>
            <Time>2018-09-14T11:11:50.000Z</Time>
            <Position>
              <LatitudeDegrees>37.94362029992043972015380859375</LatitudeDegrees>
              <LongitudeDegrees>-8.09926715679466724395751953125</LongitudeDegrees>
            </Position>
            <AltitudeMeters>135.8000030517578125</AltitudeMeters>
            <DistanceMeters>261505.57801186</DistanceMeters>
          </Trackpoint>
          <Trackpoint>
            <Time>2018-09-14T11:11:56.000Z</Time>
            <Position>
              <LatitudeDegrees>37.94328267686069011688232421875</LatitudeDegrees>
              <LongitudeDegrees>-8.099532611668109893798828125</LongitudeDegrees>
            </Position>
            <AltitudeMeters>134.8000030517578125</AltitudeMeters>
            <DistanceMeters>261549.79352441</DistanceMeters>
          </Trackpoint>
          <Trackpoint>
            <Time>2018-09-14T11:12:05.000Z</Time>
            <Position>
              <LatitudeDegrees>37.9428668506443500518798828125</LatitudeDegrees>
              <LongitudeDegrees>-8.100071735680103302001953125</LongitudeDegrees>
            </Position>
            <AltitudeMeters>134.399993896484375</AltitudeMeters>
            <DistanceMeters>261615.98568498</DistanceMeters>
          </Trackpoint>
          <Trackpoint>
            <Time>2018-09-14T11:12:10.000Z</Time>
            <Position>
              <LatitudeDegrees>37.94271069578826427459716796875</LatitudeDegrees>
              <LongitudeDegrees>-8.10050281696021556854248046875</LongitudeDegrees>
            </Position>
            <AltitudeMeters>132.1999969482421875</AltitudeMeters>
            <DistanceMeters>261657.62484716</DistanceMeters>
          </Trackpoint>
          <Trackpoint>
            <Time>2018-09-14T11:12:14.000Z</Time>
            <Position>
              <LatitudeDegrees>37.94257633388042449951171875</LatitudeDegrees>
              <LongitudeDegrees>-8.1008779071271419525146484375</LongitudeDegrees>
            </Position>
            <AltitudeMeters>130.1999969482421875</AltitudeMeters>
            <DistanceMeters>261693.78597698</DistanceMeters>
          </Trackpoint>
          <Trackpoint>
            <Time>2018-09-14T11:12:15.000Z</Time>
            <Position>
              <LatitudeDegrees>37.9425434768199920654296875</LatitudeDegrees>
              <LongitudeDegrees>-8.1009774841368198394775390625</LongitudeDegrees>
            </Position>
            <AltitudeMeters>129.8000030517578125</AltitudeMeters>
            <DistanceMeters>261703.2610506</DistanceMeters>
          </Trackpoint>
          <Trackpoint>
            <Time>2018-09-14T11:12:18.000Z</Time>
            <Position>
              <LatitudeDegrees>37.942438535392284393310546875</LatitudeDegrees>
              <LongitudeDegrees>-8.10128820128738880157470703125</LongitudeDegrees>
            </Position>
            <AltitudeMeters>129</AltitudeMeters>
            <DistanceMeters>261732.93054574</DistanceMeters>
          </Trackpoint>
          <Trackpoint>
            <Time>2018-09-14T11:12:20.000Z</Time>
            <Position>
              <LatitudeDegrees>37.94235815294086933135986328125</LatitudeDegrees>
              <LongitudeDegrees>-8.10150445438921451568603515625</LongitudeDegrees>
            </Position>
            <AltitudeMeters>128.1999969482421875</AltitudeMeters>
            <DistanceMeters>261753.91510382</DistanceMeters>
          </Trackpoint>
          <Trackpoint>
            <Time>2018-09-14T11:12:22.000Z</Time>
            <Position>
              <LatitudeDegrees>37.9422618448734283447265625</LatitudeDegrees>
              <LongitudeDegrees>-8.10172338970005512237548828125</LongitudeDegrees>
            </Position>
            <AltitudeMeters>127.59999847412109375</AltitudeMeters>
            <DistanceMeters>261775.91989328</DistanceMeters>
          </Trackpoint>
          <Trackpoint>
            <Time>2018-09-14T11:12:23.000Z</Time>
            <Position>
              <LatitudeDegrees>37.94220241717994213104248046875</LatitudeDegrees>
              <LongitudeDegrees>-8.10182757675647735595703125</LongitudeDegrees>
            </Position>
            <AltitudeMeters>127.59999847412109375</AltitudeMeters>
            <DistanceMeters>261787.20609097</DistanceMeters>
          </Trackpoint>
          <Trackpoint>
            <Time>2018-09-14T11:12:24.000Z</Time>
            <Position>
              <LatitudeDegrees>37.94213502667844295501708984375</LatitudeDegrees>
              <LongitudeDegrees>-8.10192572884261608123779296875</LongitudeDegrees>
            </Position>
            <AltitudeMeters>127.59999847412109375</AltitudeMeters>
            <DistanceMeters>261798.62947202</DistanceMeters>
          </Trackpoint>
          <Trackpoint>
            <Time>2018-09-14T11:12:26.000Z</Time>
            <Position>
              <LatitudeDegrees>37.9419823922216892242431640625</LatitudeDegrees>
              <LongitudeDegrees>-8.102094791829586029052734375</LongitudeDegrees>
            </Position>
            <AltitudeMeters>127.8000030517578125</AltitudeMeters>
            <DistanceMeters>261821.1866604</DistanceMeters>
          </Trackpoint>
          <Trackpoint>
            <Time>2018-09-14T11:12:28.000Z</Time>
            <Position>
              <LatitudeDegrees>37.94181014411151409149169921875</LatitudeDegrees>
              <LongitudeDegrees>-8.10220752842724323272705078125</LongitudeDegrees>
            </Position>
            <AltitudeMeters>127.40000152587890625</AltitudeMeters>
            <DistanceMeters>261842.76149181</DistanceMeters>
          </Trackpoint>
          <Trackpoint>
            <Time>2018-09-14T11:12:29.000Z</Time>
            <Position>
              <LatitudeDegrees>37.94172607362270355224609375</LatitudeDegrees>
              <LongitudeDegrees>-8.10225731693208217620849609375</LongitudeDegrees>
            </Position>
            <AltitudeMeters>127.40000152587890625</AltitudeMeters>
            <DistanceMeters>261853.08884543</DistanceMeters>
          </Trackpoint>
          <Trackpoint>
            <Time>2018-09-14T11:12:31.000Z</Time>
            <Position>
              <LatitudeDegrees>37.941555418074131011962890625</LatitudeDegrees>
              <LongitudeDegrees>-8.1023457460105419158935546875</LongitudeDegrees>
            </Position>
            <AltitudeMeters>128.399993896484375</AltitudeMeters>
            <DistanceMeters>261873.60757551</DistanceMeters>
          </Trackpoint>
          <Trackpoint>
            <Time>2018-09-14T11:12:34.000Z</Time>
            <Position>
              <LatitudeDegrees>37.94132952578365802764892578125</LatitudeDegrees>
              <LongitudeDegrees>-8.10249268077313899993896484375</LongitudeDegrees>
            </Position>
            <AltitudeMeters>130</AltitudeMeters>
            <DistanceMeters>261901.86488394</DistanceMeters>
          </Trackpoint>
          <Trackpoint>
            <Time>2018-09-14T11:12:36.000Z</Time>
            <Position>
              <LatitudeDegrees>37.94120170176029205322265625</LatitudeDegrees>
              <LongitudeDegrees>-8.102617822587490081787109375</LongitudeDegrees>
            </Position>
            <AltitudeMeters>130.8000030517578125</AltitudeMeters>
            <DistanceMeters>261919.83875428</DistanceMeters>
          </Trackpoint>
          <Trackpoint>
            <Time>2018-09-14T11:12:38.000Z</Time>
            <Position>
              <LatitudeDegrees>37.94110304675996303558349609375</LatitudeDegrees>
              <LongitudeDegrees>-8.1027748994529247283935546875</LongitudeDegrees>
            </Position>
            <AltitudeMeters>130.8000030517578125</AltitudeMeters>
            <DistanceMeters>261937.46460886</DistanceMeters>
          </Trackpoint>
          <Trackpoint>
            <Time>2018-09-14T11:12:41.000Z</Time>
            <Position>
              <LatitudeDegrees>37.94101822189986705780029296875</LatitudeDegrees>
              <LongitudeDegrees>-8.1030541844666004180908203125</LongitudeDegrees>
            </Position>
            <AltitudeMeters>130.600006103515625</AltitudeMeters>
            <DistanceMeters>261963.7346405</DistanceMeters>
          </Trackpoint>
          <Trackpoint>
            <Time>2018-09-14T11:12:44.000Z</Time>
            <Position>
              <LatitudeDegrees>37.9409851133823394775390625</LatitudeDegrees>
              <LongitudeDegrees>-8.10336188413202762603759765625</LongitudeDegrees>
            </Position>
            <AltitudeMeters>130</AltitudeMeters>
            <DistanceMeters>261990.99389453</DistanceMeters>
          </Trackpoint>
          <Trackpoint>
            <Time>2018-09-14T11:12:49.000Z</Time>
            <Position>
              <LatitudeDegrees>37.94094085693359375</LatitudeDegrees>
              <LongitudeDegrees>-8.103926070034503936767578125</LongitudeDegrees>
            </Position>
            <AltitudeMeters>127.8000030517578125</AltitudeMeters>
            <DistanceMeters>262040.76122747</DistanceMeters>
          </Trackpoint>
          <Trackpoint>
            <Time>2018-09-14T11:12:52.000Z</Time>
            <Position>
              <LatitudeDegrees>37.9408967681229114532470703125</LatitudeDegrees>
              <LongitudeDegrees>-8.10427299700677394866943359375</LongitudeDegrees>
            </Position>
            <AltitudeMeters>126</AltitudeMeters>
            <DistanceMeters>262071.60658278</DistanceMeters>
          </Trackpoint>
          <Trackpoint>
            <Time>2018-09-14T11:12:55.000Z</Time>
            <Position>
              <LatitudeDegrees>37.9407700337469577789306640625</LatitudeDegrees>
              <LongitudeDegrees>-8.104584552347660064697265625</LongitudeDegrees>
            </Position>
            <AltitudeMeters>126.1999969482421875</AltitudeMeters>
            <DistanceMeters>262102.37778239</DistanceMeters>
          </Trackpoint>
          <Trackpoint>
            <Time>2018-09-14T11:12:57.000Z</Time>
            <Position>
              <LatitudeDegrees>37.94063801877200603485107421875</LatitudeDegrees>
              <LongitudeDegrees>-8.10474959202110767364501953125</LongitudeDegrees>
            </Position>
            <AltitudeMeters>126.40000152587890625</AltitudeMeters>
            <DistanceMeters>262123.01193138</DistanceMeters>
          </Trackpoint>
          <Trackpoint>
            <Time>2018-09-14T11:13:01.000Z</Time>
            <Position>
              <LatitudeDegrees>37.94030307792127132415771484375</LatitudeDegrees>
              <LongitudeDegrees>-8.104930557310581207275390625</LongitudeDegrees>
            </Position>
            <AltitudeMeters>127.40000152587890625</AltitudeMeters>
            <DistanceMeters>262163.53455816</DistanceMeters>
          </Trackpoint>
          <Trackpoint>
            <Time>2018-09-14T11:13:06.000Z</Time>
            <Position>
              <LatitudeDegrees>37.939900495111942291259765625</LatitudeDegrees>
              <LongitudeDegrees>-8.10489074327051639556884765625</LongitudeDegrees>
            </Position>
            <AltitudeMeters>128.1999969482421875</AltitudeMeters>
            <DistanceMeters>262208.47887904</DistanceMeters>
          </Trackpoint>
          <Trackpoint>
            <Time>2018-09-14T11:13:09.000Z</Time>
            <Position>
              <LatitudeDegrees>37.93970779515802860260009765625</LatitudeDegrees>
              <LongitudeDegrees>-8.10477993451058864593505859375</LongitudeDegrees>
            </Position>
            <AltitudeMeters>129</AltitudeMeters>
            <DistanceMeters>262232.02921376</DistanceMeters>
          </Trackpoint>
          <Trackpoint>
            <Time>2018-09-14T11:13:14.000Z</Time>
            <Position>
              <LatitudeDegrees>37.93942431919276714324951171875</LatitudeDegrees>
              <LongitudeDegrees>-8.10456820763647556304931640625</LongitudeDegrees>
            </Position>
            <AltitudeMeters>128.8000030517578125</AltitudeMeters>
            <DistanceMeters>262268.64755809</DistanceMeters>
          </Trackpoint>
          <Trackpoint>
            <Time>2018-09-14T11:13:16.000Z</Time>
            <Position>
              <LatitudeDegrees>37.9393114149570465087890625</LatitudeDegrees>
              <LongitudeDegrees>-8.1044915132224559783935546875</LongitudeDegrees>
            </Position>
            <AltitudeMeters>128.600006103515625</AltitudeMeters>
            <DistanceMeters>262282.90409906</DistanceMeters>
          </Trackpoint>
          <Trackpoint>
            <Time>2018-09-14T11:13:18.000Z</Time>
            <Position>
              <LatitudeDegrees>37.9391918890178203582763671875</LatitudeDegrees>
              <LongitudeDegrees>-8.10442806221544742584228515625</LongitudeDegrees>
            </Position>
            <AltitudeMeters>128</AltitudeMeters>
            <DistanceMeters>262297.32688801</DistanceMeters>
          </Trackpoint>
          <Trackpoint>
            <Time>2018-09-14T11:13:22.000Z</Time>
            <Position>
              <LatitudeDegrees>37.93893364258110523223876953125</LatitudeDegrees>
              <LongitudeDegrees>-8.10434692539274692535400390625</LongitudeDegrees>
            </Position>
            <AltitudeMeters>127</AltitudeMeters>
            <DistanceMeters>262326.93956643</DistanceMeters>
          </Trackpoint>
          <Trackpoint>
            <Time>2018-09-14T11:13:23.000Z</Time>
            <Position>
              <LatitudeDegrees>37.9388663358986377716064453125</LatitudeDegrees>
              <LongitudeDegrees>-8.1043419800698757171630859375</LongitudeDegrees>
            </Position>
            <AltitudeMeters>126.8000030517578125</AltitudeMeters>
            <DistanceMeters>262334.44366909</DistanceMeters>
          </Trackpoint>
          <Trackpoint>
            <Time>2018-09-14T11:13:27.000Z</Time>
            <Position>
              <LatitudeDegrees>37.9385964386165142059326171875</LatitudeDegrees>
              <LongitudeDegrees>-8.104377351701259613037109375</LongitudeDegrees>
            </Position>
            <AltitudeMeters>126.59999847412109375</AltitudeMeters>
            <DistanceMeters>262364.64393036</DistanceMeters>
          </Trackpoint>
          <Trackpoint>
            <Time>2018-09-14T11:13:29.000Z</Time>
            <Position>
              <LatitudeDegrees>37.93846475891768932342529296875</LatitudeDegrees>
              <LongitudeDegrees>-8.1044184230268001556396484375</LongitudeDegrees>
            </Position>
            <AltitudeMeters>126.59999847412109375</AltitudeMeters>
            <DistanceMeters>262379.73673356</DistanceMeters>
          </Trackpoint>
          <Trackpoint>
            <Time>2018-09-14T11:13:37.000Z</Time>
            <Position>
              <LatitudeDegrees>37.9379245452582836151123046875</LatitudeDegrees>
              <LongitudeDegrees>-8.10462939552962779998779296875</LongitudeDegrees>
            </Position>
            <AltitudeMeters>126.40000152587890625</AltitudeMeters>
            <DistanceMeters>262442.65087766</DistanceMeters>
          </Trackpoint>
          <Trackpoint>
            <Time>2018-09-14T11:13:44.000Z</Time>
            <Position>
              <LatitudeDegrees>37.93740293942391872406005859375</LatitudeDegrees>
              <LongitudeDegrees>-8.10483844019472599029541015625</LongitudeDegrees>
            </Position>
            <AltitudeMeters>126.8000030517578125</AltitudeMeters>
            <DistanceMeters>262503.53764596</DistanceMeters>
          </Trackpoint>
          <Trackpoint>
            <Time>2018-09-14T11:13:45.000Z</Time>
            <Position>
              <LatitudeDegrees>37.937326245009899139404296875</LatitudeDegrees>
              <LongitudeDegrees>-8.10486844740808010101318359375</LongitudeDegrees>
            </Position>
            <AltitudeMeters>126.59999847412109375</AltitudeMeters>
            <DistanceMeters>262512.47066256</DistanceMeters>
          </Trackpoint>
          <Trackpoint>
            <Time>2018-09-14T11:13:50.000Z</Time>
            <Position>
              <LatitudeDegrees>37.9369418509304523468017578125</LatitudeDegrees>
              <LongitudeDegrees>-8.10502753593027591705322265625</LongitudeDegrees>
            </Position>
            <AltitudeMeters>125.59999847412109375</AltitudeMeters>
            <DistanceMeters>262557.47602076</DistanceMeters>
          </Trackpoint>
          <Trackpoint>
            <Time>2018-09-14T11:13:54.000Z</Time>
            <Position>
              <LatitudeDegrees>37.93663130141794681549072265625</LatitudeDegrees>
              <LongitudeDegrees>-8.1051503308117389678955078125</LongitudeDegrees>
            </Position>
            <AltitudeMeters>124.59999847412109375</AltitudeMeters>
            <DistanceMeters>262593.68257068</DistanceMeters>
          </Trackpoint>
          <Trackpoint>
            <Time>2018-09-14T11:13:57.000Z</Time>
            <Position>
              <LatitudeDegrees>37.93639250099658966064453125</LatitudeDegrees>
              <LongitudeDegrees>-8.1052472256124019622802734375</LongitudeDegrees>
            </Position>
            <AltitudeMeters>123.59999847412109375</AltitudeMeters>
            <DistanceMeters>262621.58937832</DistanceMeters>
          </Trackpoint>
          <Trackpoint>
            <Time>2018-09-14T11:14:00.000Z</Time>
            <Position>
              <LatitudeDegrees>37.93614548631012439727783203125</LatitudeDegrees>
              <LongitudeDegrees>-8.10534973628818988800048828125</LongitudeDegrees>
            </Position>
            <AltitudeMeters>122.40000152587890625</AltitudeMeters>
            <DistanceMeters>262650.51779522</DistanceMeters>
          </Trackpoint>
          <Trackpoint>
            <Time>2018-09-14T11:14:03.000Z</Time>
            <Position>
              <LatitudeDegrees>37.93589520268142223358154296875</LatitudeDegrees>
              <LongitudeDegrees>-8.10544864274561405181884765625</LongitudeDegrees>
            </Position>
            <AltitudeMeters>121.40000152587890625</AltitudeMeters>
            <DistanceMeters>262679.69641287</DistanceMeters>
          </Trackpoint>
          <Trackpoint>
            <Time>2018-09-14T11:14:05.000Z</Time>
            <Position>
              <LatitudeDegrees>37.93572605587542057037353515625</LatitudeDegrees>
              <LongitudeDegrees>-8.10551703907549381256103515625</LongitudeDegrees>
            </Position>
            <AltitudeMeters>120.59999847412109375</AltitudeMeters>
            <DistanceMeters>262699.45694336</DistanceMeters>
          </Trackpoint>
          <Trackpoint>
            <Time>2018-09-14T11:14:07.000Z</Time>
            <Position>
              <LatitudeDegrees>37.93555808253586292266845703125</LatitudeDegrees>
              <LongitudeDegrees>-8.105590045452117919921875</LongitudeDegrees>
            </Position>
            <AltitudeMeters>119.59999847412109375</AltitudeMeters>
            <DistanceMeters>262719.22044398</DistanceMeters>
          </Trackpoint>
          <Trackpoint>
            <Time>2018-09-14T11:14:09.000Z</Time>
            <Position>
              <LatitudeDegrees>37.93538792990148067474365234375</LatitudeDegrees>
              <LongitudeDegrees>-8.1056611239910125732421875</LongitudeDegrees>
            </Position>
            <AltitudeMeters>118.8000030517578125</AltitudeMeters>
            <DistanceMeters>262739.15975705</DistanceMeters>
          </Trackpoint>
          <Trackpoint>
            <Time>2018-09-14T11:14:11.000Z</Time>
            <Position>
              <LatitudeDegrees>37.93521190993487834930419921875</LatitudeDegrees>
              <LongitudeDegrees>-8.10573345981538295745849609375</LongitudeDegrees>
            </Position>
            <AltitudeMeters>117.59999847412109375</AltitudeMeters>
            <DistanceMeters>262759.75448187</DistanceMeters>
          </Trackpoint>
          <Trackpoint>
            <Time>2018-09-14T11:14:14.000Z</Time>
            <Position>
              <LatitudeDegrees>37.93493245728313922882080078125</LatitudeDegrees>
              <LongitudeDegrees>-8.1058456934988498687744140625</LongitudeDegrees>
            </Position>
            <AltitudeMeters>116.40000152587890625</AltitudeMeters>
            <DistanceMeters>262792.38118155</DistanceMeters>
          </Trackpoint>
          <Trackpoint>
            <Time>2018-09-14T11:14:17.000Z</Time>
            <Position>
              <LatitudeDegrees>37.93465099297463893890380859375</LatitudeDegrees>
              <LongitudeDegrees>-8.10599782504141330718994140625</LongitudeDegrees>
            </Position>
            <AltitudeMeters>115.59999847412109375</AltitudeMeters>
            <DistanceMeters>262826.43642795</DistanceMeters>
          </Trackpoint>
          <Trackpoint>
            <Time>2018-09-14T11:14:18.000Z</Time>
            <Position>
              <LatitudeDegrees>37.93456231243908405303955078125</LatitudeDegrees>
              <LongitudeDegrees>-8.1060683168470859527587890625</LongitudeDegrees>
            </Position>
            <AltitudeMeters>115.40000152587890625</AltitudeMeters>
            <DistanceMeters>262838.08602103</DistanceMeters>
          </Trackpoint>
          <Trackpoint>
            <Time>2018-09-14T11:14:19.000Z</Time>
            <Position>
              <LatitudeDegrees>37.93447849340736865997314453125</LatitudeDegrees>
              <LongitudeDegrees>-8.10614995658397674560546875</LongitudeDegrees>
            </Position>
            <AltitudeMeters>115</AltitudeMeters>
            <DistanceMeters>262849.8501594</DistanceMeters>
          </Trackpoint>
          <Trackpoint>
            <Time>2018-09-14T11:14:21.000Z</Time>
            <Position>
              <LatitudeDegrees>37.93432577513158321380615234375</LatitudeDegrees>
              <LongitudeDegrees>-8.10634165070950984954833984375</LongitudeDegrees>
            </Position>
            <AltitudeMeters>114</AltitudeMeters>
            <DistanceMeters>262873.76897048</DistanceMeters>
          </Trackpoint>
          <Trackpoint>
            <Time>2018-09-14T11:14:22.000Z</Time>
            <Position>
              <LatitudeDegrees>37.9342554509639739990234375</LatitudeDegrees>
              <LongitudeDegrees>-8.1064468435943126678466796875</LongitudeDegrees>
            </Position>
            <AltitudeMeters>113.59999847412109375</AltitudeMeters>
            <DistanceMeters>262885.87434451</DistanceMeters>
          </Trackpoint>
          <Trackpoint>
            <Time>2018-09-14T11:14:23.000Z</Time>
            <Position>
              <LatitudeDegrees>37.9341878928244113922119140625</LatitudeDegrees>
              <LongitudeDegrees>-8.10655371285974979400634765625</LongitudeDegrees>
            </Position>
            <AltitudeMeters>113</AltitudeMeters>
            <DistanceMeters>262897.89738338</DistanceMeters>
          </Trackpoint>
          <Trackpoint>
            <Time>2018-09-14T11:14:24.000Z</Time>
            <Position>
              <LatitudeDegrees>37.93412125669419765472412109375</LatitudeDegrees>
              <LongitudeDegrees>-8.1066590733826160430908203125</LongitudeDegrees>
            </Position>
            <AltitudeMeters>112.40000152587890625</AltitudeMeters>
            <DistanceMeters>262909.75327516</DistanceMeters>
          </Trackpoint>
          <Trackpoint>
            <Time>2018-09-14T11:14:27.000Z</Time>
            <Position>
              <LatitudeDegrees>37.933927886188030242919921875</LatitudeDegrees>
              <LongitudeDegrees>-8.10696124099195003509521484375</LongitudeDegrees>
            </Position>
            <AltitudeMeters>111.8000030517578125</AltitudeMeters>
            <DistanceMeters>262943.91243818</DistanceMeters>
          </Trackpoint>
          <Trackpoint>
            <Time>2018-09-14T11:14:30.000Z</Time>
            <Position>
              <LatitudeDegrees>37.9337496869266033172607421875</LatitudeDegrees>
              <LongitudeDegrees>-8.1072434596717357635498046875</LongitudeDegrees>
            </Position>
            <AltitudeMeters>112</AltitudeMeters>
            <DistanceMeters>262975.64865781</DistanceMeters>
          </Trackpoint>
          <Trackpoint>
            <Time>2018-09-14T11:14:35.000Z</Time>
            <Position>
              <LatitudeDegrees>37.93348607607185840606689453125</LatitudeDegrees>
              <LongitudeDegrees>-8.107675127685070037841796875</LongitudeDegrees>
            </Position>
            <AltitudeMeters>112.59999847412109375</AltitudeMeters>
            <DistanceMeters>263023.57416379</DistanceMeters>
          </Trackpoint>
          <Trackpoint>
            <Time>2018-09-14T11:14:40.000Z</Time>
            <Position>
              <LatitudeDegrees>37.93322187848389148712158203125</LatitudeDegrees>
              <LongitudeDegrees>-8.10810101218521595001220703125</LongitudeDegrees>
            </Position>
            <AltitudeMeters>111.40000152587890625</AltitudeMeters>
            <DistanceMeters>263071.13975696</DistanceMeters>
          </Trackpoint>
          <Trackpoint>
            <Time>2018-09-14T11:14:45.000Z</Time>
            <Position>
              <LatitudeDegrees>37.93295902200043201446533203125</LatitudeDegrees>
              <LongitudeDegrees>-8.108539469540119171142578125</LongitudeDegrees>
            </Position>
            <AltitudeMeters>110.40000152587890625</AltitudeMeters>
            <DistanceMeters>263119.48753383</DistanceMeters>
          </Trackpoint>
          <Trackpoint>
            <Time>2018-09-14T11:14:48.000Z</Time>
            <Position>
              <LatitudeDegrees>37.93279825709760189056396484375</LatitudeDegrees>
              <LongitudeDegrees>-8.1087984703481197357177734375</LongitudeDegrees>
            </Position>
            <AltitudeMeters>109.40000152587890625</AltitudeMeters>
            <DistanceMeters>263148.42094474</DistanceMeters>
          </Trackpoint>
          <Trackpoint>
            <Time>2018-09-14T11:14:54.000Z</Time>
            <Position>
              <LatitudeDegrees>37.93247781693935394287109375</LatitudeDegrees>
              <LongitudeDegrees>-8.1093208305537700653076171875</LongitudeDegrees>
            </Position>
            <AltitudeMeters>107.59999847412109375</AltitudeMeters>
            <DistanceMeters>263206.51460773</DistanceMeters>
          </Trackpoint>
          <Trackpoint>
            <Time>2018-09-14T11:14:58.000Z</Time>
            <Position>
              <LatitudeDegrees>37.93224505148828029632568359375</LatitudeDegrees>
              <LongitudeDegrees>-8.1097003631293773651123046875</LongitudeDegrees>
            </Position>
            <AltitudeMeters>107</AltitudeMeters>
            <DistanceMeters>263248.72016423</DistanceMeters>
          </Trackpoint>
          <Trackpoint>
            <Time>2018-09-14T11:15:00.000Z</Time>
            <Position>
              <LatitudeDegrees>37.93212242424488067626953125</LatitudeDegrees>
              <LongitudeDegrees>-8.1098961643874645233154296875</LongitudeDegrees>
            </Position>
            <AltitudeMeters>106.8000030517578125</AltitudeMeters>
            <DistanceMeters>263270.66907259</DistanceMeters>
          </Trackpoint>
          <Trackpoint>
            <Time>2018-09-14T11:15:03.000Z</Time>
            <Position>
              <LatitudeDegrees>37.93193374760448932647705078125</LatitudeDegrees>
              <LongitudeDegrees>-8.11019363813102245330810546875</LongitudeDegrees>
            </Position>
            <AltitudeMeters>106.1999969482421875</AltitudeMeters>
            <DistanceMeters>263304.17997092</DistanceMeters>
          </Trackpoint>
          <Trackpoint>
            <Time>2018-09-14T11:15:07.000Z</Time>
            <Position>
              <LatitudeDegrees>37.931660078465938568115234375</LatitudeDegrees>
              <LongitudeDegrees>-8.11058021150529384613037109375</LongitudeDegrees>
            </Position>
            <AltitudeMeters>104</AltitudeMeters>
            <DistanceMeters>263349.78170602</DistanceMeters>
          </Trackpoint>
          <Trackpoint>
            <Time>2018-09-14T11:15:09.000Z</Time>
            <Position>
              <LatitudeDegrees>37.931493110954761505126953125</LatitudeDegrees>
              <LongitudeDegrees>-8.1107356958091259002685546875</LongitudeDegrees>
            </Position>
            <AltitudeMeters>102</AltitudeMeters>
            <DistanceMeters>263372.83993385</DistanceMeters>
          </Trackpoint>
          <Trackpoint>
            <Time>2018-09-14T11:15:11.000Z</Time>
            <Position>
              <LatitudeDegrees>37.931306026875972747802734375</LatitudeDegrees>
              <LongitudeDegrees>-8.11085597611963748931884765625</LongitudeDegrees>
            </Position>
            <AltitudeMeters>99.8000030517578125</AltitudeMeters>
            <DistanceMeters>263396.18712928</DistanceMeters>
          </Trackpoint>
          <Trackpoint>
            <Time>2018-09-14T11:15:12.000Z</Time>
            <Position>
              <LatitudeDegrees>37.9312082938849925994873046875</LatitudeDegrees>
              <LongitudeDegrees>-8.11090609990060329437255859375</LongitudeDegrees>
            </Position>
            <AltitudeMeters>98.59999847412109375</AltitudeMeters>
            <DistanceMeters>263407.92129332</DistanceMeters>
          </Trackpoint>
          <Trackpoint>
            <Time>2018-09-14T11:15:14.000Z</Time>
            <Position>
              <LatitudeDegrees>37.9310081340372562408447265625</LatitudeDegrees>
              <LongitudeDegrees>-8.11099930666387081146240234375</LongitudeDegrees>
            </Position>
            <AltitudeMeters>96.1999969482421875</AltitudeMeters>
            <DistanceMeters>263431.65458383</DistanceMeters>
          </Trackpoint>
          <Trackpoint>
            <Time>2018-09-14T11:15:16.000Z</Time>
            <Position>
              <LatitudeDegrees>37.930816523730754852294921875</LatitudeDegrees>
              <LongitudeDegrees>-8.1110920943319797515869140625</LongitudeDegrees>
            </Position>
            <AltitudeMeters>95.59999847412109375</AltitudeMeters>
            <DistanceMeters>263454.48375074</DistanceMeters>
          </Trackpoint>
          <Trackpoint>
            <Time>2018-09-14T11:15:19.000Z</Time>
            <Position>
              <LatitudeDegrees>37.930546291172504425048828125</LatitudeDegrees>
              <LongitudeDegrees>-8.1112225167453289031982421875</LongitudeDegrees>
            </Position>
            <AltitudeMeters>98</AltitudeMeters>
            <DistanceMeters>263486.66681722</DistanceMeters>
          </Trackpoint>
          <Trackpoint>
            <Time>2018-09-14T11:15:21.000Z</Time>
            <Position>
              <LatitudeDegrees>37.93037270195782184600830078125</LatitudeDegrees>
              <LongitudeDegrees>-8.11130709014832973480224609375</LongitudeDegrees>
            </Position>
            <AltitudeMeters>99.8000030517578125</AltitudeMeters>
            <DistanceMeters>263507.36519752</DistanceMeters>
          </Trackpoint>
          <Trackpoint>
            <Time>2018-09-14T11:15:23.000Z</Time>
            <Position>
              <LatitudeDegrees>37.93020288459956645965576171875</LatitudeDegrees>
              <LongitudeDegrees>-8.11139342375099658966064453125</LongitudeDegrees>
            </Position>
            <AltitudeMeters>101.59999847412109375</AltitudeMeters>
            <DistanceMeters>263527.72931377</DistanceMeters>
          </Trackpoint>
          <Trackpoint>
            <Time>2018-09-14T11:15:28.000Z</Time>
            <Position>
              <LatitudeDegrees>37.9297887347638607025146484375</LatitudeDegrees>
              <LongitudeDegrees>-8.11153625138103961944580078125</LongitudeDegrees>
            </Position>
            <AltitudeMeters>104.40000152587890625</AltitudeMeters>
            <DistanceMeters>263575.4999718</DistanceMeters>
          </Trackpoint>
          <Trackpoint>
            <Time>2018-09-14T11:15:35.000Z</Time>
            <Position>
              <LatitudeDegrees>37.929292023181915283203125</LatitudeDegrees>
              <LongitudeDegrees>-8.1116432882845401763916015625</LongitudeDegrees>
            </Position>
            <AltitudeMeters>107.1999969482421875</AltitudeMeters>
            <DistanceMeters>263631.57781164</DistanceMeters>
          </Trackpoint>
          <Trackpoint>
            <Time>2018-09-14T11:15:37.000Z</Time>
            <Position>
              <LatitudeDegrees>37.92917962186038494110107421875</LatitudeDegrees>
              <LongitudeDegrees>-8.11169818975031375885009765625</LongitudeDegrees>
            </Position>
            <AltitudeMeters>107.8000030517578125</AltitudeMeters>
            <DistanceMeters>263644.98432653</DistanceMeters>
          </Trackpoint>
          <Trackpoint>
            <Time>2018-09-14T11:15:40.000Z</Time>
            <Position>
              <LatitudeDegrees>37.92903763242065906524658203125</LatitudeDegrees>
              <LongitudeDegrees>-8.11179734766483306884765625</LongitudeDegrees>
            </Position>
            <AltitudeMeters>108.59999847412109375</AltitudeMeters>
            <DistanceMeters>263663.02689441</DistanceMeters>
          </Trackpoint>
          <Trackpoint>
            <Time>2018-09-14T11:15:43.000Z</Time>
            <Position>
              <LatitudeDegrees>37.9289139993488788604736328125</LatitudeDegrees>
              <LongitudeDegrees>-8.11190606094896793365478515625</LongitudeDegrees>
            </Position>
            <AltitudeMeters>108.8000030517578125</AltitudeMeters>
            <DistanceMeters>263679.77371842</DistanceMeters>
          </Trackpoint>
          <Trackpoint>
            <Time>2018-09-14T11:15:44.000Z</Time>
            <Position>
              <LatitudeDegrees>37.92887569405138492584228515625</LatitudeDegrees>
              <LongitudeDegrees>-8.11194327659904956817626953125</LongitudeDegrees>
            </Position>
            <AltitudeMeters>108.8000030517578125</AltitudeMeters>
            <DistanceMeters>263685.1458804</DistanceMeters>
          </Trackpoint>
          <Trackpoint>
            <Time>2018-09-14T11:15:47.000Z</Time>
            <Position>
              <LatitudeDegrees>37.92876555584371089935302734375</LatitudeDegrees>
              <LongitudeDegrees>-8.11205257661640644073486328125</LongitudeDegrees>
            </Position>
            <AltitudeMeters>108.8000030517578125</AltitudeMeters>
            <DistanceMeters>263700.713739</DistanceMeters>
          </Trackpoint>
          <Trackpoint>
            <Time>2018-09-14T11:15:48.000Z</Time>
            <Position>
              <LatitudeDegrees>37.92873051948845386505126953125</LatitudeDegrees>
              <LongitudeDegrees>-8.11209029518067836761474609375</LongitudeDegrees>
            </Position>
            <AltitudeMeters>108.8000030517578125</AltitudeMeters>
            <DistanceMeters>263705.82931928</DistanceMeters>
          </Trackpoint>
          <Trackpoint>
            <Time>2018-09-14T11:15:51.000Z</Time>
            <Position>
              <LatitudeDegrees>37.92862306348979473114013671875</LatitudeDegrees>
              <LongitudeDegrees>-8.112193308770656585693359375</LongitudeDegrees>
            </Position>
            <AltitudeMeters>108.8000030517578125</AltitudeMeters>
            <DistanceMeters>263720.82367966</DistanceMeters>
          </Trackpoint>
          <Trackpoint>
            <Time>2018-09-14T11:15:54.000Z</Time>
            <Position>
              <LatitudeDegrees>37.92851510457694530487060546875</LatitudeDegrees>
              <LongitudeDegrees>-8.11227922327816486358642578125</LongitudeDegrees>
            </Position>
            <AltitudeMeters>109</AltitudeMeters>
            <DistanceMeters>263735.01069393</DistanceMeters>
          </Trackpoint>
          <Trackpoint>
            <Time>2018-09-14T11:15:58.000Z</Time>
            <Position>
              <LatitudeDegrees>37.92836087755858898162841796875</LatitudeDegrees>
              <LongitudeDegrees>-8.112350217998027801513671875</LongitudeDegrees>
            </Position>
            <AltitudeMeters>109.59999847412109375</AltitudeMeters>
            <DistanceMeters>263753.27264298</DistanceMeters>
          </Trackpoint>
          <Trackpoint>
            <Time>2018-09-14T11:16:00.000Z</Time>
            <Position>
              <LatitudeDegrees>37.92828275822103023529052734375</LatitudeDegrees>
              <LongitudeDegrees>-8.112370334565639495849609375</LongitudeDegrees>
            </Position>
            <AltitudeMeters>110</AltitudeMeters>
            <DistanceMeters>263762.14429144</DistanceMeters>
          </Trackpoint>
          <Trackpoint>
            <Time>2018-09-14T11:16:03.000Z</Time>
            <Position>
              <LatitudeDegrees>37.92816080152988433837890625</LatitudeDegrees>
              <LongitudeDegrees>-8.112379722297191619873046875</LongitudeDegrees>
            </Position>
            <AltitudeMeters>110.59999847412109375</AltitudeMeters>
            <DistanceMeters>263775.74340779</DistanceMeters>
          </Trackpoint>
          <Trackpoint>
            <Time>2018-09-14T11:16:10.000Z</Time>
            <Position>
              <LatitudeDegrees>37.92787087149918079376220703125</LatitudeDegrees>
              <LongitudeDegrees>-8.11234510503709316253662109375</LongitudeDegrees>
            </Position>
            <AltitudeMeters>112.59999847412109375</AltitudeMeters>
            <DistanceMeters>263808.15601573</DistanceMeters>
          </Trackpoint>
          <Trackpoint>
            <Time>2018-09-14T11:16:15.000Z</Time>
            <Position>
              <LatitudeDegrees>37.9276778362691402435302734375</LatitudeDegrees>
              <LongitudeDegrees>-8.11226665042340755462646484375</LongitudeDegrees>
            </Position>
            <AltitudeMeters>114</AltitudeMeters>
            <DistanceMeters>263830.71820754</DistanceMeters>
          </Trackpoint>
          <Trackpoint>
            <Time>2018-09-14T11:16:20.000Z</Time>
            <Position>
              <LatitudeDegrees>37.92751036584377288818359375</LatitudeDegrees>
              <LongitudeDegrees>-8.1121405027806758880615234375</LongitudeDegrees>
            </Position>
            <AltitudeMeters>115.8000030517578125</AltitudeMeters>
            <DistanceMeters>263852.39992218</DistanceMeters>
          </Trackpoint>
          <Trackpoint>
            <Time>2018-09-14T11:16:25.000Z</Time>
            <Position>
              <LatitudeDegrees>37.92735345661640167236328125</LatitudeDegrees>
              <LongitudeDegrees>-8.11200655996799468994140625</LongitudeDegrees>
            </Position>
            <AltitudeMeters>117.8000030517578125</AltitudeMeters>
            <DistanceMeters>263873.45386225</DistanceMeters>
          </Trackpoint>
          <Trackpoint>
            <Time>2018-09-14T11:16:30.000Z</Time>
            <Position>
              <LatitudeDegrees>37.92719780467450618743896484375</LatitudeDegrees>
              <LongitudeDegrees>-8.1118672527372837066650390625</LongitudeDegrees>
            </Position>
            <AltitudeMeters>118</AltitudeMeters>
            <DistanceMeters>263894.66036755</DistanceMeters>
          </Trackpoint>
          <Trackpoint>
            <Time>2018-09-14T11:16:35.000Z</Time>
            <Position>
              <LatitudeDegrees>37.92704056017100811004638671875</LatitudeDegrees>
              <LongitudeDegrees>-8.11173305846750736236572265625</LongitudeDegrees>
            </Position>
            <AltitudeMeters>118</AltitudeMeters>
            <DistanceMeters>263915.75801027</DistanceMeters>
          </Trackpoint>
          <Trackpoint>
            <Time>2018-09-14T11:16:40.000Z</Time>
            <Position>
              <LatitudeDegrees>37.92687426321208477020263671875</LatitudeDegrees>
              <LongitudeDegrees>-8.1116194836795330047607421875</LongitudeDegrees>
            </Position>
            <AltitudeMeters>118.1999969482421875</AltitudeMeters>
            <DistanceMeters>263936.78190576</DistanceMeters>
          </Trackpoint>
          <Trackpoint>
            <Time>2018-09-14T11:16:47.000Z</Time>
            <Position>
              <LatitudeDegrees>37.92666010558605194091796875</LatitudeDegrees>
              <LongitudeDegrees>-8.11149082146584987640380859375</LongitudeDegrees>
            </Position>
            <AltitudeMeters>119.59999847412109375</AltitudeMeters>
            <DistanceMeters>263963.15930878</DistanceMeters>
          </Trackpoint>
          <Trackpoint>
            <Time>2018-09-14T11:16:53.000Z</Time>
            <Position>
              <LatitudeDegrees>37.92646053247153759002685546875</LatitudeDegrees>
              <LongitudeDegrees>-8.11142041347920894622802734375</LongitudeDegrees>
            </Position>
            <AltitudeMeters>120.59999847412109375</AltitudeMeters>
            <DistanceMeters>263986.21636172</DistanceMeters>
          </Trackpoint>
          <Trackpoint>
            <Time>2018-09-14T11:16:58.000Z</Time>
            <Position>
              <LatitudeDegrees>37.92628568597137928009033203125</LatitudeDegrees>
              <LongitudeDegrees>-8.11139862053096294403076171875</LongitudeDegrees>
            </Position>
            <AltitudeMeters>121.40000152587890625</AltitudeMeters>
            <DistanceMeters>264005.7710956</DistanceMeters>
          </Trackpoint>
          <Trackpoint>
            <Time>2018-09-14T11:17:04.000Z</Time>
            <Position>
              <LatitudeDegrees>37.9260732047259807586669921875</LatitudeDegrees>
              <LongitudeDegrees>-8.1114300526678562164306640625</LongitudeDegrees>
            </Position>
            <AltitudeMeters>121.1999969482421875</AltitudeMeters>
            <DistanceMeters>264029.58111932</DistanceMeters>
          </Trackpoint>
          <Trackpoint>
            <Time>2018-09-14T11:17:13.000Z</Time>
            <Position>
              <LatitudeDegrees>37.92576751671731472015380859375</LatitudeDegrees>
              <LongitudeDegrees>-8.11156860552728176116943359375</LongitudeDegrees>
            </Position>
            <AltitudeMeters>121.1999969482421875</AltitudeMeters>
            <DistanceMeters>264065.71402001</DistanceMeters>
          </Trackpoint>
          <Trackpoint>
            <Time>2018-09-14T11:17:20.000Z</Time>
            <Position>
              <LatitudeDegrees>37.92554439045488834381103515625</LatitudeDegrees>
              <LongitudeDegrees>-8.1117224134504795074462890625</LongitudeDegrees>
            </Position>
            <AltitudeMeters>121.40000152587890625</AltitudeMeters>
            <DistanceMeters>264093.98235131</DistanceMeters>
          </Trackpoint>
          <Trackpoint>
            <Time>2018-09-14T11:17:27.000Z</Time>
            <Position>
              <LatitudeDegrees>37.9253798536956310272216796875</LatitudeDegrees>
              <LongitudeDegrees>-8.11195266433060169219970703125</LongitudeDegrees>
            </Position>
            <AltitudeMeters>122.1999969482421875</AltitudeMeters>
            <DistanceMeters>264121.25915682</DistanceMeters>
          </Trackpoint>
          <Trackpoint>
            <Time>2018-09-14T11:17:33.000Z</Time>
            <Position>
              <LatitudeDegrees>37.92527600191533565521240234375</LatitudeDegrees>
              <LongitudeDegrees>-8.11217579059302806854248046875</LongitudeDegrees>
            </Position>
            <AltitudeMeters>123.1999969482421875</AltitudeMeters>
            <DistanceMeters>264144.00451106</DistanceMeters>
          </Trackpoint>
          <Trackpoint>
            <Time>2018-09-14T11:17:40.000Z</Time>
            <Position>
              <LatitudeDegrees>37.92516368441283702850341796875</LatitudeDegrees>
              <LongitudeDegrees>-8.11244778335094451904296875</LongitudeDegrees>
            </Position>
            <AltitudeMeters>124.40000152587890625</AltitudeMeters>
            <DistanceMeters>264170.95878457</DistanceMeters>
          </Trackpoint>
          <Trackpoint>
            <Time>2018-09-14T11:17:46.000Z</Time>
            <Position>
              <LatitudeDegrees>37.9250673763453960418701171875</LatitudeDegrees>
              <LongitudeDegrees>-8.11267619021236896514892578125</LongitudeDegrees>
            </Position>
            <AltitudeMeters>125.1999969482421875</AltitudeMeters>
            <DistanceMeters>264193.69738868</DistanceMeters>
          </Trackpoint>
          <Trackpoint>
            <Time>2018-09-14T11:17:56.000Z</Time>
            <Position>
              <LatitudeDegrees>37.924909628927707672119140625</LatitudeDegrees>
              <LongitudeDegrees>-8.11308254487812519073486328125</LongitudeDegrees>
            </Position>
            <AltitudeMeters>126.8000030517578125</AltitudeMeters>
            <DistanceMeters>264233.46036323</DistanceMeters>
          </Trackpoint>
          <Trackpoint>
            <Time>2018-09-14T11:18:02.000Z</Time>
            <Position>
              <LatitudeDegrees>37.9248194396495819091796875</LatitudeDegrees>
              <LongitudeDegrees>-8.11332277022302150726318359375</LongitudeDegrees>
            </Position>
            <AltitudeMeters>127.59999847412109375</AltitudeMeters>
            <DistanceMeters>264256.81838581</DistanceMeters>
          </Trackpoint>
          <Trackpoint>
            <Time>2018-09-14T11:18:10.000Z</Time>
            <Position>
              <LatitudeDegrees>37.9247036017477512359619140625</LatitudeDegrees>
              <LongitudeDegrees>-8.113658130168914794921875</LongitudeDegrees>
            </Position>
            <AltitudeMeters>129.399993896484375</AltitudeMeters>
            <DistanceMeters>264288.96130363</DistanceMeters>
          </Trackpoint>
          <Trackpoint>
            <Time>2018-09-14T11:18:17.000Z</Time>
            <Position>
              <LatitudeDegrees>37.9246281646192073822021484375</LatitudeDegrees>
              <LongitudeDegrees>-8.11397152952849864959716796875</LongitudeDegrees>
            </Position>
            <AltitudeMeters>130.600006103515625</AltitudeMeters>
            <DistanceMeters>264317.72945453</DistanceMeters>
          </Trackpoint>
          <Trackpoint>
            <Time>2018-09-14T11:18:23.000Z</Time>
            <Position>
              <LatitudeDegrees>37.92455364950001239776611328125</LatitudeDegrees>
              <LongitudeDegrees>-8.11423975042998790740966796875</LongitudeDegrees>
            </Position>
            <AltitudeMeters>131.1999969482421875</AltitudeMeters>
            <DistanceMeters>264342.69635616</DistanceMeters>
          </Trackpoint>
          <Trackpoint>
            <Time>2018-09-14T11:18:27.000Z</Time>
            <Position>
              <LatitudeDegrees>37.924502603709697723388671875</LatitudeDegrees>
              <LongitudeDegrees>-8.1144180335104465484619140625</LongitudeDegrees>
            </Position>
            <AltitudeMeters>132.1999969482421875</AltitudeMeters>
            <DistanceMeters>264359.34827969</DistanceMeters>
          </Trackpoint>
          <Trackpoint>
            <Time>2018-09-14T11:18:33.000Z</Time>
            <Position>
              <LatitudeDegrees>37.9244326986372470855712890625</LatitudeDegrees>
              <LongitudeDegrees>-8.11467795632779598236083984375</LongitudeDegrees>
            </Position>
            <AltitudeMeters>133.8000030517578125</AltitudeMeters>
            <DistanceMeters>264383.45904972</DistanceMeters>
          </Trackpoint>
          <Trackpoint>
            <Time>2018-09-14T11:18:39.000Z</Time>
            <Position>
              <LatitudeDegrees>37.9243596084415912628173828125</LatitudeDegrees>
              <LongitudeDegrees>-8.1149367056787014007568359375</LongitudeDegrees>
            </Position>
            <AltitudeMeters>135.399993896484375</AltitudeMeters>
            <DistanceMeters>264407.58928716</DistanceMeters>
          </Trackpoint>
          <Trackpoint>
            <Time>2018-09-14T11:18:46.000Z</Time>
            <Position>
              <LatitudeDegrees>37.924267239868640899658203125</LatitudeDegrees>
              <LongitudeDegrees>-8.11525111086666584014892578125</LongitudeDegrees>
            </Position>
            <AltitudeMeters>136.8000030517578125</AltitudeMeters>
            <DistanceMeters>264437.04572933</DistanceMeters>
          </Trackpoint>
          <Trackpoint>
            <Time>2018-09-14T11:18:50.000Z</Time>
            <Position>
              <LatitudeDegrees>37.92421200312674045562744140625</LatitudeDegrees>
              <LongitudeDegrees>-8.11542813666164875030517578125</LongitudeDegrees>
            </Position>
            <AltitudeMeters>137.1999969482421875</AltitudeMeters>
            <DistanceMeters>264453.76016935</DistanceMeters>
          </Trackpoint>
          <Trackpoint>
            <Time>2018-09-14T11:18:54.000Z</Time>
            <Position>
              <LatitudeDegrees>37.9241574369370937347412109375</LatitudeDegrees>
              <LongitudeDegrees>-8.1156082637608051300048828125</LongitudeDegrees>
            </Position>
            <AltitudeMeters>137</AltitudeMeters>
            <DistanceMeters>264470.70106335</DistanceMeters>
          </Trackpoint>
          <Trackpoint>
            <Time>2018-09-14T11:18:55.000Z</Time>
            <Position>
              <LatitudeDegrees>37.9241410084068775177001953125</LatitudeDegrees>
              <LongitudeDegrees>-8.1156585551798343658447265625</LongitudeDegrees>
            </Position>
            <AltitudeMeters>137</AltitudeMeters>
            <DistanceMeters>264475.47987736</DistanceMeters>
          </Trackpoint>
          <Trackpoint>
            <Time>2018-09-14T11:19:06.000Z</Time>
            <Position>
              <LatitudeDegrees>37.9239136911928653717041015625</LatitudeDegrees>
              <LongitudeDegrees>-8.1162965856492519378662109375</LongitudeDegrees>
            </Position>
            <AltitudeMeters>137.399993896484375</AltitudeMeters>
            <DistanceMeters>264536.9463707</DistanceMeters>
          </Trackpoint>
          <Trackpoint>
            <Time>2018-09-14T11:19:12.000Z</Time>
            <Position>
              <LatitudeDegrees>37.9237634874880313873291015625</LatitudeDegrees>
              <LongitudeDegrees>-8.1166918762028217315673828125</LongitudeDegrees>
            </Position>
            <AltitudeMeters>137.8000030517578125</AltitudeMeters>
            <DistanceMeters>264575.46889272</DistanceMeters>
          </Trackpoint>
          <Trackpoint>
            <Time>2018-09-14T11:19:18.000Z</Time>
            <Position>
              <LatitudeDegrees>37.92360431514680385589599609375</LatitudeDegrees>
              <LongitudeDegrees>-8.1171139888465404510498046875</LongitudeDegrees>
            </Position>
            <AltitudeMeters>136.8000030517578125</AltitudeMeters>
            <DistanceMeters>264616.54649141</DistanceMeters>
          </Trackpoint>
          <Trackpoint>
            <Time>2018-09-14T11:19:23.000Z</Time>
            <Position>
              <LatitudeDegrees>37.92346316389739513397216796875</LatitudeDegrees>
              <LongitudeDegrees>-8.11746996827423572540283203125</LongitudeDegrees>
            </Position>
            <AltitudeMeters>135.600006103515625</AltitudeMeters>
            <DistanceMeters>264651.52729513</DistanceMeters>
          </Trackpoint>
          <Trackpoint>
            <Time>2018-09-14T11:19:25.000Z</Time>
            <Position>
              <LatitudeDegrees>37.92340164072811603546142578125</LatitudeDegrees>
              <LongitudeDegrees>-8.11761145479977130889892578125</LongitudeDegrees>
            </Position>
            <AltitudeMeters>135</AltitudeMeters>
            <DistanceMeters>264665.71176316</DistanceMeters>
          </Trackpoint>
          <Trackpoint>
            <Time>2018-09-14T11:19:27.000Z</Time>
            <Position>
              <LatitudeDegrees>37.92333140037953853607177734375</LatitudeDegrees>
              <LongitudeDegrees>-8.11775059439241886138916015625</LongitudeDegrees>
            </Position>
            <AltitudeMeters>135</AltitudeMeters>
            <DistanceMeters>264680.21540514</DistanceMeters>
          </Trackpoint>
          <Trackpoint>
            <Time>2018-09-14T11:19:31.000Z</Time>
            <Position>
              <LatitudeDegrees>37.923158146440982818603515625</LatitudeDegrees>
              <LongitudeDegrees>-8.1180252693593502044677734375</LongitudeDegrees>
            </Position>
            <AltitudeMeters>134.600006103515625</AltitudeMeters>
            <DistanceMeters>264711.09323896</DistanceMeters>
          </Trackpoint>
          <Trackpoint>
            <Time>2018-09-14T11:19:36.000Z</Time>
            <Position>
              <LatitudeDegrees>37.9228914342820644378662109375</LatitudeDegrees>
              <LongitudeDegrees>-8.1183561868965625762939453125</LongitudeDegrees>
            </Position>
            <AltitudeMeters>134</AltitudeMeters>
            <DistanceMeters>264752.63089304</DistanceMeters>
          </Trackpoint>
          <Trackpoint>
            <Time>2018-09-14T11:19:40.000Z</Time>
            <Position>
              <LatitudeDegrees>37.92267107404768466949462890625</LatitudeDegrees>
              <LongitudeDegrees>-8.11862289905548095703125</LongitudeDegrees>
            </Position>
            <AltitudeMeters>134</AltitudeMeters>
            <DistanceMeters>264786.54145267</DistanceMeters>
          </Trackpoint>
          <Trackpoint>
            <Time>2018-09-14T11:19:45.000Z</Time>
            <Position>
              <LatitudeDegrees>37.92235524393618106842041015625</LatitudeDegrees>
              <LongitudeDegrees>-8.1189395673573017120361328125</LongitudeDegrees>
            </Position>
            <AltitudeMeters>134.1999969482421875</AltitudeMeters>
            <DistanceMeters>264831.3604275</DistanceMeters>
          </Trackpoint>
          <Trackpoint>
            <Time>2018-09-14T11:19:47.000Z</Time>
            <Position>
              <LatitudeDegrees>37.92220361530780792236328125</LatitudeDegrees>
              <LongitudeDegrees>-8.1190217100083827972412109375</LongitudeDegrees>
            </Position>
            <AltitudeMeters>134.1999969482421875</AltitudeMeters>
            <DistanceMeters>264849.71362645</DistanceMeters>
          </Trackpoint>
          <Trackpoint>
            <Time>2018-09-14T11:19:49.000Z</Time>
            <Position>
              <LatitudeDegrees>37.92204109020531177520751953125</LatitudeDegrees>
              <LongitudeDegrees>-8.1190693192183971405029296875</LongitudeDegrees>
            </Position>
            <AltitudeMeters>134</AltitudeMeters>
            <DistanceMeters>264868.27961896</DistanceMeters>
          </Trackpoint>
          <Trackpoint>
            <Time>2018-09-14T11:19:52.000Z</Time>
            <Position>
              <LatitudeDegrees>37.92178795672953128814697265625</LatitudeDegrees>
              <LongitudeDegrees>-8.11909203417599201202392578125</LongitudeDegrees>
            </Position>
            <AltitudeMeters>133.399993896484375</AltitudeMeters>
            <DistanceMeters>264896.52446156</DistanceMeters>
          </Trackpoint>
          <Trackpoint>
            <Time>2018-09-14T11:19:53.000Z</Time>
            <Position>
              <LatitudeDegrees>37.9217028804123401641845703125</LatitudeDegrees>
              <LongitudeDegrees>-8.11907577328383922576904296875</LongitudeDegrees>
            </Position>
            <AltitudeMeters>133.399993896484375</AltitudeMeters>
            <DistanceMeters>264906.10049552</DistanceMeters>
          </Trackpoint>
          <Trackpoint>
            <Time>2018-09-14T11:19:56.000Z</Time>
            <Position>
              <LatitudeDegrees>37.92146391235291957855224609375</LatitudeDegrees>
              <LongitudeDegrees>-8.11894484795629978179931640625</LongitudeDegrees>
            </Position>
            <AltitudeMeters>133.1999969482421875</AltitudeMeters>
            <DistanceMeters>264935.0760091</DistanceMeters>
          </Trackpoint>
          <Trackpoint>
            <Time>2018-09-14T11:19:59.000Z</Time>
            <Position>
              <LatitudeDegrees>37.921261489391326904296875</LatitudeDegrees>
              <LongitudeDegrees>-8.1187223084270954132080078125</LongitudeDegrees>
            </Position>
            <AltitudeMeters>132.399993896484375</AltitudeMeters>
            <DistanceMeters>264964.89865635</DistanceMeters>
          </Trackpoint>
          <Trackpoint>
            <Time>2018-09-14T11:20:01.000Z</Time>
            <Position>
              <LatitudeDegrees>37.92115227319300174713134765625</LatitudeDegrees>
              <LongitudeDegrees>-8.11853698454797267913818359375</LongitudeDegrees>
            </Position>
            <AltitudeMeters>131.399993896484375</AltitudeMeters>
            <DistanceMeters>264985.2097135</DistanceMeters>
          </Trackpoint>
          <Trackpoint>
            <Time>2018-09-14T11:20:04.000Z</Time>
            <Position>
              <LatitudeDegrees>37.92098664678633213043212890625</LatitudeDegrees>
              <LongitudeDegrees>-8.11824479140341281890869140625</LongitudeDegrees>
            </Position>
            <AltitudeMeters>130.600006103515625</AltitudeMeters>
            <DistanceMeters>265016.80091557</DistanceMeters>
          </Trackpoint>
          <Trackpoint>
            <Time>2018-09-14T11:20:05.000Z</Time>
            <Position>
              <LatitudeDegrees>37.92092294432222843170166015625</LatitudeDegrees>
              <LongitudeDegrees>-8.1181536801159381866455078125</LongitudeDegrees>
            </Position>
            <AltitudeMeters>130.399993896484375</AltitudeMeters>
            <DistanceMeters>265027.49047063</DistanceMeters>
          </Trackpoint>
          <Trackpoint>
            <Time>2018-09-14T11:20:09.000Z</Time>
            <Position>
              <LatitudeDegrees>37.9205679707229137420654296875</LatitudeDegrees>
              <LongitudeDegrees>-8.11798461712896823883056640625</LongitudeDegrees>
            </Position>
            <AltitudeMeters>128.399993896484375</AltitudeMeters>
            <DistanceMeters>265069.69613411</DistanceMeters>
          </Trackpoint>
          <Trackpoint>
            <Time>2018-09-14T11:20:11.000Z</Time>
            <Position>
              <LatitudeDegrees>37.920372672379016876220703125</LatitudeDegrees>
              <LongitudeDegrees>-8.1180111877620220184326171875</LongitudeDegrees>
            </Position>
            <AltitudeMeters>127.1999969482421875</AltitudeMeters>
            <DistanceMeters>265091.55806188</DistanceMeters>
          </Trackpoint>
          <Trackpoint>
            <Time>2018-09-14T11:20:15.000Z</Time>
            <Position>
              <LatitudeDegrees>37.91998283006250858306884765625</LatitudeDegrees>
              <LongitudeDegrees>-8.1180970184504985809326171875</LongitudeDegrees>
            </Position>
            <AltitudeMeters>125.8000030517578125</AltitudeMeters>
            <DistanceMeters>265135.59779257</DistanceMeters>
          </Trackpoint>
          <Trackpoint>
            <Time>2018-09-14T11:20:17.000Z</Time>
            <Position>
              <LatitudeDegrees>37.9197985120117664337158203125</LatitudeDegrees>
              <LongitudeDegrees>-8.11814772896468639373779296875</LongitudeDegrees>
            </Position>
            <AltitudeMeters>126</AltitudeMeters>
            <DistanceMeters>265156.59052514</DistanceMeters>
          </Trackpoint>
          <Trackpoint>
            <Time>2018-09-14T11:20:24.000Z</Time>
            <Position>
              <LatitudeDegrees>37.9192473180592060089111328125</LatitudeDegrees>
              <LongitudeDegrees>-8.11840354464948177337646484375</LongitudeDegrees>
            </Position>
            <AltitudeMeters>127</AltitudeMeters>
            <DistanceMeters>265221.92206509</DistanceMeters>
          </Trackpoint>
          <Trackpoint>
            <Time>2018-09-14T11:20:29.000Z</Time>
            <Position>
              <LatitudeDegrees>37.9189140535891056060791015625</LatitudeDegrees>
              <LongitudeDegrees>-8.11859649606049060821533203125</LongitudeDegrees>
            </Position>
            <AltitudeMeters>128.8000030517578125</AltitudeMeters>
            <DistanceMeters>265262.70103881</DistanceMeters>
          </Trackpoint>
          <Trackpoint>
            <Time>2018-09-14T11:20:34.000Z</Time>
            <Position>
              <LatitudeDegrees>37.91863569058477878570556640625</LatitudeDegrees>
              <LongitudeDegrees>-8.118833117187023162841796875</LongitudeDegrees>
            </Position>
            <AltitudeMeters>130.600006103515625</AltitudeMeters>
            <DistanceMeters>265300.00480404</DistanceMeters>
          </Trackpoint>
          <Trackpoint>
            <Time>2018-09-14T11:20:39.000Z</Time>
            <Position>
              <LatitudeDegrees>37.9183913581073284149169921875</LatitudeDegrees>
              <LongitudeDegrees>-8.11909161508083343505859375</LongitudeDegrees>
            </Position>
            <AltitudeMeters>132.399993896484375</AltitudeMeters>
            <DistanceMeters>265335.42683238</DistanceMeters>
          </Trackpoint>
          <Trackpoint>
            <Time>2018-09-14T11:20:40.000Z</Time>
            <Position>
              <LatitudeDegrees>37.91834416799247264862060546875</LatitudeDegrees>
              <LongitudeDegrees>-8.11914551071822643280029296875</LongitudeDegrees>
            </Position>
            <AltitudeMeters>132.8000030517578125</AltitudeMeters>
            <DistanceMeters>265342.49659002</DistanceMeters>
          </Trackpoint>
          <Trackpoint>
            <Time>2018-09-14T11:20:46.000Z</Time>
            <Position>
              <LatitudeDegrees>37.91807225905358791351318359375</LatitudeDegrees>
              <LongitudeDegrees>-8.11947114765644073486328125</LongitudeDegrees>
            </Position>
            <AltitudeMeters>133.8000030517578125</AltitudeMeters>
            <DistanceMeters>265384.13108935</DistanceMeters>
          </Trackpoint>
          <Trackpoint>
            <Time>2018-09-14T11:20:49.000Z</Time>
            <Position>
              <LatitudeDegrees>37.91794560849666595458984375</LatitudeDegrees>
              <LongitudeDegrees>-8.11962747015058994293212890625</LongitudeDegrees>
            </Position>
            <AltitudeMeters>133.8000030517578125</AltitudeMeters>
            <DistanceMeters>265403.80620935</DistanceMeters>
          </Trackpoint>
          <Trackpoint>
            <Time>2018-09-14T11:20:54.000Z</Time>
            <Position>
              <LatitudeDegrees>37.91774083860218524932861328125</LatitudeDegrees>
              <LongitudeDegrees>-8.11988747678697109222412109375</LongitudeDegrees>
            </Position>
            <AltitudeMeters>134</AltitudeMeters>
            <DistanceMeters>265436.06536463</DistanceMeters>
          </Trackpoint>
          <Trackpoint>
            <Time>2018-09-14T11:21:03.000Z</Time>
            <Position>
              <LatitudeDegrees>37.91738360188901424407958984375</LatitudeDegrees>
              <LongitudeDegrees>-8.12033842317759990692138671875</LongitudeDegrees>
            </Position>
            <AltitudeMeters>135.399993896484375</AltitudeMeters>
            <DistanceMeters>265492.17918259</DistanceMeters>
          </Trackpoint>
          <Trackpoint>
            <Time>2018-09-14T11:21:06.000Z</Time>
            <Position>
              <LatitudeDegrees>37.91725334711372852325439453125</LatitudeDegrees>
              <LongitudeDegrees>-8.12046264298260211944580078125</LongitudeDegrees>
            </Position>
            <AltitudeMeters>135.8000030517578125</AltitudeMeters>
            <DistanceMeters>265510.32157181</DistanceMeters>
          </Trackpoint>
          <Trackpoint>
            <Time>2018-09-14T11:21:13.000Z</Time>
            <Position>
              <LatitudeDegrees>37.91692477650940418243408203125</LatitudeDegrees>
              <LongitudeDegrees>-8.12062508426606655120849609375</LongitudeDegrees>
            </Position>
            <AltitudeMeters>137.600006103515625</AltitudeMeters>
            <DistanceMeters>265549.57531206</DistanceMeters>
          </Trackpoint>
          <Trackpoint>
            <Time>2018-09-14T11:21:20.000Z</Time>
            <Position>
              <LatitudeDegrees>37.9165721498429775238037109375</LatitudeDegrees>
              <LongitudeDegrees>-8.1207121722400188446044921875</LongitudeDegrees>
            </Position>
            <AltitudeMeters>139.399993896484375</AltitudeMeters>
            <DistanceMeters>265589.56146498</DistanceMeters>
          </Trackpoint>
          <Trackpoint>
            <Time>2018-09-14T11:21:29.000Z</Time>
            <Position>
              <LatitudeDegrees>37.91614048182964324951171875</LatitudeDegrees>
              <LongitudeDegrees>-8.12082004733383655548095703125</LongitudeDegrees>
            </Position>
            <AltitudeMeters>140.600006103515625</AltitudeMeters>
            <DistanceMeters>265638.53185748</DistanceMeters>
          </Trackpoint>
          <Trackpoint>
            <Time>2018-09-14T11:21:35.000Z</Time>
            <Position>
              <LatitudeDegrees>37.9158995859324932098388671875</LatitudeDegrees>
              <LongitudeDegrees>-8.120888359844684600830078125</LongitudeDegrees>
            </Position>
            <AltitudeMeters>141.1999969482421875</AltitudeMeters>
            <DistanceMeters>265666.00657695</DistanceMeters>
          </Trackpoint>
          <Trackpoint>
            <Time>2018-09-14T11:21:39.000Z</Time>
            <Position>
              <LatitudeDegrees>37.9157426767051219940185546875</LatitudeDegrees>
              <LongitudeDegrees>-8.120929934084415435791015625</LongitudeDegrees>
            </Position>
            <AltitudeMeters>141.399993896484375</AltitudeMeters>
            <DistanceMeters>265683.84833289</DistanceMeters>
          </Trackpoint>
          <Trackpoint>
            <Time>2018-09-14T11:21:45.000Z</Time>
            <Position>
              <LatitudeDegrees>37.9155009426176548004150390625</LatitudeDegrees>
              <LongitudeDegrees>-8.120996654033660888671875</LongitudeDegrees>
            </Position>
            <AltitudeMeters>142.1999969482421875</AltitudeMeters>
            <DistanceMeters>265711.38444479</DistanceMeters>
          </Trackpoint>
          <Trackpoint>
            <Time>2018-09-14T11:21:50.000Z</Time>
            <Position>
              <LatitudeDegrees>37.91529349051415920257568359375</LatitudeDegrees>
              <LongitudeDegrees>-8.12107066623866558074951171875</LongitudeDegrees>
            </Position>
            <AltitudeMeters>143.1999969482421875</AltitudeMeters>
            <DistanceMeters>265735.37149152</DistanceMeters>
          </Trackpoint>
          <Trackpoint>
            <Time>2018-09-14T11:22:01.000Z</Time>
            <Position>
              <LatitudeDegrees>37.91487322188913822174072265625</LatitudeDegrees>
              <LongitudeDegrees>-8.121366798877716064453125</LongitudeDegrees>
            </Position>
            <AltitudeMeters>144.8000030517578125</AltitudeMeters>
            <DistanceMeters>265788.88992626</DistanceMeters>
          </Trackpoint>
          <Trackpoint>
            <Time>2018-09-14T11:22:08.000Z</Time>
            <Position>
              <LatitudeDegrees>37.91462637484073638916015625</LatitudeDegrees>
              <LongitudeDegrees>-8.12156821601092815399169921875</LongitudeDegrees>
            </Position>
            <AltitudeMeters>145.600006103515625</AltitudeMeters>
            <DistanceMeters>265821.56488653</DistanceMeters>
          </Trackpoint>
          <Trackpoint>
            <Time>2018-09-14T11:22:20.000Z</Time>
            <Position>
              <LatitudeDegrees>37.91415070183575153350830078125</LatitudeDegrees>
              <LongitudeDegrees>-8.12191003002226352691650390625</LongitudeDegrees>
            </Position>
            <AltitudeMeters>146.399993896484375</AltitudeMeters>
            <DistanceMeters>265882.42428559</DistanceMeters>
          </Trackpoint>
          <Trackpoint>
            <Time>2018-09-14T11:22:27.000Z</Time>
            <Position>
              <LatitudeDegrees>37.9138765297830104827880859375</LatitudeDegrees>
              <LongitudeDegrees>-8.1221337430179119110107421875</LongitudeDegrees>
            </Position>
            <AltitudeMeters>147.1999969482421875</AltitudeMeters>
            <DistanceMeters>265918.71652926</DistanceMeters>
          </Trackpoint>
          <Trackpoint>
            <Time>2018-09-14T11:22:31.000Z</Time>
            <Position>
              <LatitudeDegrees>37.9137135855853557586669921875</LatitudeDegrees>
              <LongitudeDegrees>-8.12225553207099437713623046875</LongitudeDegrees>
            </Position>
            <AltitudeMeters>147.8000030517578125</AltitudeMeters>
            <DistanceMeters>265939.77089823</DistanceMeters>
          </Trackpoint>
          <Trackpoint>
            <Time>2018-09-14T11:22:37.000Z</Time>
            <Position>
              <LatitudeDegrees>37.91348970495164394378662109375</LatitudeDegrees>
              <LongitudeDegrees>-8.12245284207165241241455078125</LongitudeDegrees>
            </Position>
            <AltitudeMeters>148.600006103515625</AltitudeMeters>
            <DistanceMeters>265970.12088962</DistanceMeters>
          </Trackpoint>
          <Trackpoint>
            <Time>2018-09-14T11:22:39.000Z</Time>
            <Position>
              <LatitudeDegrees>37.91341426782310009002685546875</LatitudeDegrees>
              <LongitudeDegrees>-8.1225048936903476715087890625</LongitudeDegrees>
            </Position>
            <AltitudeMeters>149</AltitudeMeters>
            <DistanceMeters>265979.68087935</DistanceMeters>
          </Trackpoint>
          <Trackpoint>
            <Time>2018-09-14T11:22:43.000Z</Time>
            <Position>
              <LatitudeDegrees>37.9132656566798686981201171875</LatitudeDegrees>
              <LongitudeDegrees>-8.12260975129902362823486328125</LongitudeDegrees>
            </Position>
            <AltitudeMeters>149.1999969482421875</AltitudeMeters>
            <DistanceMeters>265998.61195629</DistanceMeters>
          </Trackpoint>
          <Trackpoint>
            <Time>2018-09-14T11:22:48.000Z</Time>
            <Position>
              <LatitudeDegrees>37.91305116377770900726318359375</LatitudeDegrees>
              <LongitudeDegrees>-8.12264378182590007781982421875</LongitudeDegrees>
            </Position>
            <AltitudeMeters>149.600006103515625</AltitudeMeters>
            <DistanceMeters>266022.67173705</DistanceMeters>
          </Trackpoint>
          <Trackpoint>
            <Time>2018-09-14T11:22:50.000Z</Time>
            <Position>
              <LatitudeDegrees>37.9129625670611858367919921875</LatitudeDegrees>
              <LongitudeDegrees>-8.12262835912406444549560546875</LongitudeDegrees>
            </Position>
            <AltitudeMeters>149.600006103515625</AltitudeMeters>
            <DistanceMeters>266032.62553024</DistanceMeters>
          </Trackpoint>
          <Trackpoint>
            <Time>2018-09-14T11:22:54.000Z</Time>
            <Position>
              <LatitudeDegrees>37.91278445161879062652587890625</LatitudeDegrees>
              <LongitudeDegrees>-8.12258209101855754852294921875</LongitudeDegrees>
            </Position>
            <AltitudeMeters>149.8000030517578125</AltitudeMeters>
            <DistanceMeters>266052.8624279</DistanceMeters>
          </Trackpoint>
          <Trackpoint>
            <Time>2018-09-14T11:23:00.000Z</Time>
            <Position>
              <LatitudeDegrees>37.91253366507589817047119140625</LatitudeDegrees>
              <LongitudeDegrees>-8.1225027143955230712890625</LongitudeDegrees>
            </Position>
            <AltitudeMeters>150</AltitudeMeters>
            <DistanceMeters>266081.63261902</DistanceMeters>
          </Trackpoint>
          <Trackpoint>
            <Time>2018-09-14T11:23:06.000Z</Time>
            <Position>
              <LatitudeDegrees>37.9122782684862613677978515625</LatitudeDegrees>
              <LongitudeDegrees>-8.1224624812602996826171875</LongitudeDegrees>
            </Position>
            <AltitudeMeters>150.399993896484375</AltitudeMeters>
            <DistanceMeters>266110.2774602</DistanceMeters>
          </Trackpoint>
          <Trackpoint>
            <Time>2018-09-14T11:23:08.000Z</Time>
            <Position>
              <LatitudeDegrees>37.91219134815037250518798828125</LatitudeDegrees>
              <LongitudeDegrees>-8.1224740482866764068603515625</LongitudeDegrees>
            </Position>
            <AltitudeMeters>150.399993896484375</AltitudeMeters>
            <DistanceMeters>266120.00552275</DistanceMeters>
          </Trackpoint>
          <Trackpoint>
            <Time>2018-09-14T11:23:13.000Z</Time>
            <Position>
              <LatitudeDegrees>37.91198247112333774566650390625</LatitudeDegrees>
              <LongitudeDegrees>-8.122621737420558929443359375</LongitudeDegrees>
            </Position>
            <AltitudeMeters>150.600006103515625</AltitudeMeters>
            <DistanceMeters>266146.62657456</DistanceMeters>
          </Trackpoint>
          <Trackpoint>
            <Time>2018-09-14T11:23:19.000Z</Time>
            <Position>
              <LatitudeDegrees>37.9116980731487274169921875</LatitudeDegrees>
              <LongitudeDegrees>-8.122927509248256683349609375</LongitudeDegrees>
            </Position>
            <AltitudeMeters>150.600006103515625</AltitudeMeters>
            <DistanceMeters>266188.13465239</DistanceMeters>
          </Trackpoint>
          <Trackpoint>
            <Time>2018-09-14T11:23:22.000Z</Time>
            <Position>
              <LatitudeDegrees>37.91153269819915294647216796875</LatitudeDegrees>
              <LongitudeDegrees>-8.123107217252254486083984375</LongitudeDegrees>
            </Position>
            <AltitudeMeters>150</AltitudeMeters>
            <DistanceMeters>266212.37987638</DistanceMeters>
          </Trackpoint>
          <Trackpoint>
            <Time>2018-09-14T11:23:24.000Z</Time>
            <Position>
              <LatitudeDegrees>37.91142457164824008941650390625</LatitudeDegrees>
              <LongitudeDegrees>-8.123242668807506561279296875</LongitudeDegrees>
            </Position>
            <AltitudeMeters>149.399993896484375</AltitudeMeters>
            <DistanceMeters>266229.30050296</DistanceMeters>
          </Trackpoint>
          <Trackpoint>
            <Time>2018-09-14T11:23:27.000Z</Time>
            <Position>
              <LatitudeDegrees>37.91129398159682750701904296875</LatitudeDegrees>
              <LongitudeDegrees>-8.12348616309463977813720703125</LongitudeDegrees>
            </Position>
            <AltitudeMeters>149</AltitudeMeters>
            <DistanceMeters>266255.15493022</DistanceMeters>
          </Trackpoint>
          <Trackpoint>
            <Time>2018-09-14T11:23:28.000Z</Time>
            <Position>
              <LatitudeDegrees>37.91125617921352386474609375</LatitudeDegrees>
              <LongitudeDegrees>-8.123571239411830902099609375</LongitudeDegrees>
            </Position>
            <AltitudeMeters>148.8000030517578125</AltitudeMeters>
            <DistanceMeters>266263.72947874</DistanceMeters>
          </Trackpoint>
          <Trackpoint>
            <Time>2018-09-14T11:23:31.000Z</Time>
            <Position>
              <LatitudeDegrees>37.911154925823211669921875</LatitudeDegrees>
              <LongitudeDegrees>-8.1238384544849395751953125</LongitudeDegrees>
            </Position>
            <AltitudeMeters>148.600006103515625</AltitudeMeters>
            <DistanceMeters>266289.7605551</DistanceMeters>
          </Trackpoint>
          <Trackpoint>
            <Time>2018-09-14T11:23:32.000Z</Time>
            <Position>
              <LatitudeDegrees>37.9111259244382381439208984375</LatitudeDegrees>
              <LongitudeDegrees>-8.12393291853368282318115234375</LongitudeDegrees>
            </Position>
            <AltitudeMeters>148.600006103515625</AltitudeMeters>
            <DistanceMeters>266298.66167248</DistanceMeters>
          </Trackpoint>
          <Trackpoint>
            <Time>2018-09-14T11:23:36.000Z</Time>
            <Position>
              <LatitudeDegrees>37.91102341376245021820068359375</LatitudeDegrees>
              <LongitudeDegrees>-8.12433022074401378631591796875</LongitudeDegrees>
            </Position>
            <AltitudeMeters>147.8000030517578125</AltitudeMeters>
            <DistanceMeters>266335.36831638</DistanceMeters>
          </Trackpoint>
          <Trackpoint>
            <Time>2018-09-14T11:23:39.000Z</Time>
            <Position>
              <LatitudeDegrees>37.91094847954809665679931640625</LatitudeDegrees>
              <LongitudeDegrees>-8.12464135698974132537841796875</LongitudeDegrees>
            </Position>
            <AltitudeMeters>147.399993896484375</AltitudeMeters>
            <DistanceMeters>266363.9348704</DistanceMeters>
          </Trackpoint>
          <Trackpoint>
            <Time>2018-09-14T11:23:41.000Z</Time>
            <Position>
              <LatitudeDegrees>37.91090036742389202117919921875</LatitudeDegrees>
              <LongitudeDegrees>-8.1248558498919010162353515625</LongitudeDegrees>
            </Position>
            <AltitudeMeters>147.1999969482421875</AltitudeMeters>
            <DistanceMeters>266383.51683062</DistanceMeters>
          </Trackpoint>
          <Trackpoint>
            <Time>2018-09-14T11:23:45.000Z</Time>
            <Position>
              <LatitudeDegrees>37.91080246679484844207763671875</LatitudeDegrees>
              <LongitudeDegrees>-8.125292547047138214111328125</LongitudeDegrees>
            </Position>
            <AltitudeMeters>145.8000030517578125</AltitudeMeters>
            <DistanceMeters>266423.38300067</DistanceMeters>
          </Trackpoint>
          <Trackpoint>
            <Time>2018-09-14T11:23:49.000Z</Time>
            <Position>
              <LatitudeDegrees>37.910701967775821685791015625</LatitudeDegrees>
              <LongitudeDegrees>-8.125714994966983795166015625</LongitudeDegrees>
            </Position>
            <AltitudeMeters>143.399993896484375</AltitudeMeters>
            <DistanceMeters>266462.12967006</DistanceMeters>
          </Trackpoint>
          <Trackpoint>
            <Time>2018-09-14T11:23:52.000Z</Time>
            <Position>
              <LatitudeDegrees>37.9105884768068790435791015625</LatitudeDegrees>
              <LongitudeDegrees>-8.126006685197353363037109375</LongitudeDegrees>
            </Position>
            <AltitudeMeters>142.1999969482421875</AltitudeMeters>
            <DistanceMeters>266490.68926888</DistanceMeters>
          </Trackpoint>
          <Trackpoint>
            <Time>2018-09-14T11:23:55.000Z</Time>
            <Position>
              <LatitudeDegrees>37.9103936813771724700927734375</LatitudeDegrees>
              <LongitudeDegrees>-8.1262194178998470306396484375</LongitudeDegrees>
            </Position>
            <AltitudeMeters>143</AltitudeMeters>
            <DistanceMeters>266519.30824849</DistanceMeters>
          </Trackpoint>
          <Trackpoint>
            <Time>2018-09-14T11:24:02.000Z</Time>
            <Position>
              <LatitudeDegrees>37.9098478518426418304443359375</LatitudeDegrees>
              <LongitudeDegrees>-8.126274235546588897705078125</LongitudeDegrees>
            </Position>
            <AltitudeMeters>145</AltitudeMeters>
            <DistanceMeters>266580.25060741</DistanceMeters>
          </Trackpoint>
          <Trackpoint>
            <Time>2018-09-14T11:24:03.000Z</Time>
            <Position>
              <LatitudeDegrees>37.90978205390274524688720703125</LatitudeDegrees>
              <LongitudeDegrees>-8.1262363493442535400390625</LongitudeDegrees>
            </Position>
            <AltitudeMeters>145.399993896484375</AltitudeMeters>
            <DistanceMeters>266588.29483066</DistanceMeters>
          </Trackpoint>
          <Trackpoint>
            <Time>2018-09-14T11:24:07.000Z</Time>
            <Position>
              <LatitudeDegrees>37.90954099036753177642822265625</LatitudeDegrees>
              <LongitudeDegrees>-8.126083798706531524658203125</LongitudeDegrees>
            </Position>
            <AltitudeMeters>144.600006103515625</AltitudeMeters>
            <DistanceMeters>266618.28430421</DistanceMeters>
          </Trackpoint>
          <Trackpoint>
            <Time>2018-09-14T11:24:09.000Z</Time>
            <Position>
              <LatitudeDegrees>37.90943386964499950408935546875</LatitudeDegrees>
              <LongitudeDegrees>-8.12600324861705303192138671875</LongitudeDegrees>
            </Position>
            <AltitudeMeters>144.1999969482421875</AltitudeMeters>
            <DistanceMeters>266632.14778671</DistanceMeters>
          </Trackpoint>
          <Trackpoint>
            <Time>2018-09-14T11:24:11.000Z</Time>
            <Position>
              <LatitudeDegrees>37.9093248210847377777099609375</LatitudeDegrees>
              <LongitudeDegrees>-8.1259330920875072479248046875</LongitudeDegrees>
            </Position>
            <AltitudeMeters>143.8000030517578125</AltitudeMeters>
            <DistanceMeters>266645.75885016</DistanceMeters>
          </Trackpoint>
          <Trackpoint>
            <Time>2018-09-14T11:24:13.000Z</Time>
            <Position>
              <LatitudeDegrees>37.90921661071479320526123046875</LatitudeDegrees>
              <LongitudeDegrees>-8.1258688867092132568359375</LongitudeDegrees>
            </Position>
            <AltitudeMeters>144</AltitudeMeters>
            <DistanceMeters>266659.05715897</DistanceMeters>
          </Trackpoint>
          <Trackpoint>
            <Time>2018-09-14T11:24:17.000Z</Time>
            <Position>
              <LatitudeDegrees>37.909009158611297607421875</LatitudeDegrees>
              <LongitudeDegrees>-8.12574022449553012847900390625</LongitudeDegrees>
            </Position>
            <AltitudeMeters>145.600006103515625</AltitudeMeters>
            <DistanceMeters>266684.76307082</DistanceMeters>
          </Trackpoint>
          <Trackpoint>
            <Time>2018-09-14T11:24:21.000Z</Time>
            <Position>
              <LatitudeDegrees>37.90880262851715087890625</LatitudeDegrees>
              <LongitudeDegrees>-8.1256125681102275848388671875</LongitudeDegrees>
            </Position>
            <AltitudeMeters>147.399993896484375</AltitudeMeters>
            <DistanceMeters>266710.33814769</DistanceMeters>
          </Trackpoint>
          <Trackpoint>
            <Time>2018-09-14T11:24:26.000Z</Time>
            <Position>
              <LatitudeDegrees>37.90855117142200469970703125</LatitudeDegrees>
              <LongitudeDegrees>-8.1254559941589832305908203125</LongitudeDegrees>
            </Position>
            <AltitudeMeters>149.399993896484375</AltitudeMeters>
            <DistanceMeters>266741.52095804</DistanceMeters>
          </Trackpoint>
          <Trackpoint>
            <Time>2018-09-14T11:24:33.000Z</Time>
            <Position>
              <LatitudeDegrees>37.90821053087711334228515625</LatitudeDegrees>
              <LongitudeDegrees>-8.12524460256099700927734375</LongitudeDegrees>
            </Position>
            <AltitudeMeters>151.399993896484375</AltitudeMeters>
            <DistanceMeters>266783.73549969</DistanceMeters>
          </Trackpoint>
          <Trackpoint>
            <Time>2018-09-14T11:24:39.000Z</Time>
            <Position>
              <LatitudeDegrees>37.90792495943605899810791015625</LatitudeDegrees>
              <LongitudeDegrees>-8.1250687502324581146240234375</LongitudeDegrees>
            </Position>
            <AltitudeMeters>152.8000030517578125</AltitudeMeters>
            <DistanceMeters>266819.07317379</DistanceMeters>
          </Trackpoint>
          <Trackpoint>
            <Time>2018-09-14T11:24:45.000Z</Time>
            <Position>
              <LatitudeDegrees>37.90763963945209980010986328125</LatitudeDegrees>
              <LongitudeDegrees>-8.12489097006618976593017578125</LongitudeDegrees>
            </Position>
            <AltitudeMeters>154.1999969482421875</AltitudeMeters>
            <DistanceMeters>266854.46000455</DistanceMeters>
          </Trackpoint>
          <Trackpoint>
            <Time>2018-09-14T11:24:51.000Z</Time>
            <Position>
              <LatitudeDegrees>37.9073436744511127471923828125</LatitudeDegrees>
              <LongitudeDegrees>-8.12470941804349422454833984375</LongitudeDegrees>
            </Position>
            <AltitudeMeters>154.8000030517578125</AltitudeMeters>
            <DistanceMeters>266891.05701178</DistanceMeters>
          </Trackpoint>
          <Trackpoint>
            <Time>2018-09-14T11:24:59.000Z</Time>
            <Position>
              <LatitudeDegrees>37.90697026066482067108154296875</LatitudeDegrees>
              <LongitudeDegrees>-8.1244702823460102081298828125</LongitudeDegrees>
            </Position>
            <AltitudeMeters>155.1999969482421875</AltitudeMeters>
            <DistanceMeters>266937.62301071</DistanceMeters>
          </Trackpoint>
          <Trackpoint>
            <Time>2018-09-14T11:25:10.000Z</Time>
            <Position>
              <LatitudeDegrees>37.90645477361977100372314453125</LatitudeDegrees>
              <LongitudeDegrees>-8.12416040338575839996337890625</LongitudeDegrees>
            </Position>
            <AltitudeMeters>155</AltitudeMeters>
            <DistanceMeters>267001.12425263</DistanceMeters>
          </Trackpoint>
          <Trackpoint>
            <Time>2018-09-14T11:25:15.000Z</Time>
            <Position>
              <LatitudeDegrees>37.90619677864015102386474609375</LatitudeDegrees>
              <LongitudeDegrees>-8.124064095318317413330078125</LongitudeDegrees>
            </Position>
            <AltitudeMeters>154.8000030517578125</AltitudeMeters>
            <DistanceMeters>267031.05902516</DistanceMeters>
          </Trackpoint>
          <Trackpoint>
            <Time>2018-09-14T11:25:20.000Z</Time>
            <Position>
              <LatitudeDegrees>37.905894778668880462646484375</LatitudeDegrees>
              <LongitudeDegrees>-8.124068789184093475341796875</LongitudeDegrees>
            </Position>
            <AltitudeMeters>154</AltitudeMeters>
            <DistanceMeters>267064.67458266</DistanceMeters>
          </Trackpoint>
          <Trackpoint>
            <Time>2018-09-14T11:25:26.000Z</Time>
            <Position>
              <LatitudeDegrees>37.90550007484853267669677734375</LatitudeDegrees>
              <LongitudeDegrees>-8.124147914350032806396484375</LongitudeDegrees>
            </Position>
            <AltitudeMeters>153.600006103515625</AltitudeMeters>
            <DistanceMeters>267109.15205939</DistanceMeters>
          </Trackpoint>
          <Trackpoint>
            <Time>2018-09-14T11:25:31.000Z</Time>
            <Position>
              <LatitudeDegrees>37.90514074265956878662109375</LatitudeDegrees>
              <LongitudeDegrees>-8.12420667149126529693603515625</LongitudeDegrees>
            </Position>
            <AltitudeMeters>153</AltitudeMeters>
            <DistanceMeters>267149.47788593</DistanceMeters>
          </Trackpoint>
          <Trackpoint>
            <Time>2018-09-14T11:25:35.000Z</Time>
            <Position>
              <LatitudeDegrees>37.90483019314706325531005859375</LatitudeDegrees>
              <LongitudeDegrees>-8.1242647580802440643310546875</LongitudeDegrees>
            </Position>
            <AltitudeMeters>152.1999969482421875</AltitudeMeters>
            <DistanceMeters>267184.41723301</DistanceMeters>
          </Trackpoint>
          <Trackpoint>
            <Time>2018-09-14T11:25:39.000Z</Time>
            <Position>
              <LatitudeDegrees>37.9044995270669460296630859375</LatitudeDegrees>
              <LongitudeDegrees>-8.12432418577373027801513671875</LongitudeDegrees>
            </Position>
            <AltitudeMeters>151.1999969482421875</AltitudeMeters>
            <DistanceMeters>267221.58920104</DistanceMeters>
          </Trackpoint>
          <Trackpoint>
            <Time>2018-09-14T11:25:43.000Z</Time>
            <Position>
              <LatitudeDegrees>37.9041649214923381805419921875</LatitudeDegrees>
              <LongitudeDegrees>-8.12438235618174076080322265625</LongitudeDegrees>
            </Position>
            <AltitudeMeters>150</AltitudeMeters>
            <DistanceMeters>267259.18016462</DistanceMeters>
          </Trackpoint>
          <Trackpoint>
            <Time>2018-09-14T11:25:46.000Z</Time>
            <Position>
              <LatitudeDegrees>37.90391631424427032470703125</LatitudeDegrees>
              <LongitudeDegrees>-8.12442627735435962677001953125</LongitudeDegrees>
            </Position>
            <AltitudeMeters>148.8000030517578125</AltitudeMeters>
            <DistanceMeters>267287.11801864</DistanceMeters>
          </Trackpoint>
          <Trackpoint>
            <Time>2018-09-14T11:25:47.000Z</Time>
            <Position>
              <LatitudeDegrees>37.9038338363170623779296875</LatitudeDegrees>
              <LongitudeDegrees>-8.12443993985652923583984375</LongitudeDegrees>
            </Position>
            <AltitudeMeters>148.399993896484375</AltitudeMeters>
            <DistanceMeters>267296.37617643</DistanceMeters>
          </Trackpoint>
          <Trackpoint>
            <Time>2018-09-14T11:25:49.000Z</Time>
            <Position>
              <LatitudeDegrees>37.9036673717200756072998046875</LatitudeDegrees>
              <LongitudeDegrees>-8.12447573058307170867919921875</LongitudeDegrees>
            </Position>
            <AltitudeMeters>147.8000030517578125</AltitudeMeters>
            <DistanceMeters>267315.16889549</DistanceMeters>
          </Trackpoint>
          <Trackpoint>
            <Time>2018-09-14T11:25:53.000Z</Time>
            <Position>
              <LatitudeDegrees>37.90332916192710399627685546875</LatitudeDegrees>
              <LongitudeDegrees>-8.124579750001430511474609375</LongitudeDegrees>
            </Position>
            <AltitudeMeters>146.399993896484375</AltitudeMeters>
            <DistanceMeters>267353.90495947</DistanceMeters>
          </Trackpoint>
          <Trackpoint>
            <Time>2018-09-14T11:25:55.000Z</Time>
            <Position>
              <LatitudeDegrees>37.9031637869775295257568359375</LatitudeDegrees>
              <LongitudeDegrees>-8.12465845607221126556396484375</LongitudeDegrees>
            </Position>
            <AltitudeMeters>145.8000030517578125</AltitudeMeters>
            <DistanceMeters>267373.56653551</DistanceMeters>
          </Trackpoint>
          <Trackpoint>
            <Time>2018-09-14T11:25:58.000Z</Time>
            <Position>
              <LatitudeDegrees>37.90292800404131412506103515625</LatitudeDegrees>
              <LongitudeDegrees>-8.12479726038873195648193359375</LongitudeDegrees>
            </Position>
            <AltitudeMeters>145</AltitudeMeters>
            <DistanceMeters>267402.50275517</DistanceMeters>
          </Trackpoint>
          <Trackpoint>
            <Time>2018-09-14T11:26:00.000Z</Time>
            <Position>
              <LatitudeDegrees>37.902773357927799224853515625</LatitudeDegrees>
              <LongitudeDegrees>-8.1248952448368072509765625</LongitudeDegrees>
            </Position>
            <AltitudeMeters>144.600006103515625</AltitudeMeters>
            <DistanceMeters>267421.74607543</DistanceMeters>
          </Trackpoint>
          <Trackpoint>
            <Time>2018-09-14T11:26:03.000Z</Time>
            <Position>
              <LatitudeDegrees>37.902540676295757293701171875</LatitudeDegrees>
              <LongitudeDegrees>-8.12503279186785221099853515625</LongitudeDegrees>
            </Position>
            <AltitudeMeters>144.1999969482421875</AltitudeMeters>
            <DistanceMeters>267450.32274307</DistanceMeters>
          </Trackpoint>
          <Trackpoint>
            <Time>2018-09-14T11:26:06.000Z</Time>
            <Position>
              <LatitudeDegrees>37.90231243707239627838134765625</LatitudeDegrees>
              <LongitudeDegrees>-8.12518022954463958740234375</LongitudeDegrees>
            </Position>
            <AltitudeMeters>144</AltitudeMeters>
            <DistanceMeters>267478.83598337</DistanceMeters>
          </Trackpoint>
          <Trackpoint>
            <Time>2018-09-14T11:26:10.000Z</Time>
            <Position>
              <LatitudeDegrees>37.90200255811214447021484375</LatitudeDegrees>
              <LongitudeDegrees>-8.12537980265915393829345703125</LongitudeDegrees>
            </Position>
            <AltitudeMeters>144</AltitudeMeters>
            <DistanceMeters>267517.52411192</DistanceMeters>
          </Trackpoint>
          <Trackpoint>
            <Time>2018-09-14T11:26:17.000Z</Time>
            <Position>
              <LatitudeDegrees>37.90146603249013423919677734375</LatitudeDegrees>
              <LongitudeDegrees>-8.12570535577833652496337890625</LongitudeDegrees>
            </Position>
            <AltitudeMeters>143.600006103515625</AltitudeMeters>
            <DistanceMeters>267583.73230015</DistanceMeters>
          </Trackpoint>
          <Trackpoint>
            <Time>2018-09-14T11:26:23.000Z</Time>
            <Position>
              <LatitudeDegrees>37.90103218518197536468505859375</LatitudeDegrees>
              <LongitudeDegrees>-8.12598363496363162994384765625</LongitudeDegrees>
            </Position>
            <AltitudeMeters>143.399993896484375</AltitudeMeters>
            <DistanceMeters>267637.85316338</DistanceMeters>
          </Trackpoint>
          <Trackpoint>
            <Time>2018-09-14T11:26:29.000Z</Time>
            <Position>
              <LatitudeDegrees>37.90061778388917446136474609375</LatitudeDegrees>
              <LongitudeDegrees>-8.1262529455125331878662109375</LongitudeDegrees>
            </Position>
            <AltitudeMeters>142.8000030517578125</AltitudeMeters>
            <DistanceMeters>267689.68786252</DistanceMeters>
          </Trackpoint>
          <Trackpoint>
            <Time>2018-09-14T11:26:32.000Z</Time>
            <Position>
              <LatitudeDegrees>37.90042877197265625</LatitudeDegrees>
              <LongitudeDegrees>-8.12641002237796783447265625</LongitudeDegrees>
            </Position>
            <AltitudeMeters>142.399993896484375</AltitudeMeters>
            <DistanceMeters>267714.84500738</DistanceMeters>
          </Trackpoint>
          <Trackpoint>
            <Time>2018-09-14T11:26:40.000Z</Time>
            <Position>
              <LatitudeDegrees>37.89999148808419704437255859375</LatitudeDegrees>
              <LongitudeDegrees>-8.1269416026771068572998046875</LongitudeDegrees>
            </Position>
            <AltitudeMeters>142.1999969482421875</AltitudeMeters>
            <DistanceMeters>267782.28746897</DistanceMeters>
          </Trackpoint>
          <Trackpoint>
            <Time>2018-09-14T11:26:48.000Z</Time>
            <Position>
              <LatitudeDegrees>37.89956350810825824737548828125</LatitudeDegrees>
              <LongitudeDegrees>-8.1274733506143093109130859375</LongitudeDegrees>
            </Position>
            <AltitudeMeters>141.600006103515625</AltitudeMeters>
            <DistanceMeters>267848.99689929</DistanceMeters>
          </Trackpoint>
          <Trackpoint>
            <Time>2018-09-14T11:26:56.000Z</Time>
            <Position>
              <LatitudeDegrees>37.89913955144584178924560546875</LatitudeDegrees>
              <LongitudeDegrees>-8.12799680046737194061279296875</LongitudeDegrees>
            </Position>
            <AltitudeMeters>140.8000030517578125</AltitudeMeters>
            <DistanceMeters>267914.87680337</DistanceMeters>
          </Trackpoint>
          <Trackpoint>
            <Time>2018-09-14T11:27:04.000Z</Time>
            <Position>
              <LatitudeDegrees>37.89872623980045318603515625</LatitudeDegrees>
              <LongitudeDegrees>-8.12851555645465850830078125</LongitudeDegrees>
            </Position>
            <AltitudeMeters>140.399993896484375</AltitudeMeters>
            <DistanceMeters>267979.62277944</DistanceMeters>
          </Trackpoint>
          <Trackpoint>
            <Time>2018-09-14T11:27:12.000Z</Time>
            <Position>
              <LatitudeDegrees>37.89826028980314731597900390625</LatitudeDegrees>
              <LongitudeDegrees>-8.12892870046198368072509765625</LongitudeDegrees>
            </Position>
            <AltitudeMeters>139.600006103515625</AltitudeMeters>
            <DistanceMeters>268042.91756228</DistanceMeters>
          </Trackpoint>
          <Trackpoint>
            <Time>2018-09-14T11:27:19.000Z</Time>
            <Position>
              <LatitudeDegrees>37.8977846167981624603271484375</LatitudeDegrees>
              <LongitudeDegrees>-8.129260540008544921875</LongitudeDegrees>
            </Position>
            <AltitudeMeters>139</AltitudeMeters>
            <DistanceMeters>268103.35283434</DistanceMeters>
          </Trackpoint>
          <Trackpoint>
            <Time>2018-09-14T11:27:24.000Z</Time>
            <Position>
              <LatitudeDegrees>37.8974345885217189788818359375</LatitudeDegrees>
              <LongitudeDegrees>-8.1295081414282321929931640625</LongitudeDegrees>
            </Position>
            <AltitudeMeters>138</AltitudeMeters>
            <DistanceMeters>268147.97028017</DistanceMeters>
          </Trackpoint>
          <Trackpoint>
            <Time>2018-09-14T11:27:26.000Z</Time>
            <Position>
              <LatitudeDegrees>37.8972967900335788726806640625</LatitudeDegrees>
              <LongitudeDegrees>-8.12960185110569000244140625</LongitudeDegrees>
            </Position>
            <AltitudeMeters>137.399993896484375</AltitudeMeters>
            <DistanceMeters>268165.37651827</DistanceMeters>
          </Trackpoint>
          <Trackpoint>
            <Time>2018-09-14T11:27:28.000Z</Time>
            <Position>
              <LatitudeDegrees>37.8971616737544536590576171875</LatitudeDegrees>
              <LongitudeDegrees>-8.1297012604773044586181640625</LongitudeDegrees>
            </Position>
            <AltitudeMeters>136.600006103515625</AltitudeMeters>
            <DistanceMeters>268182.76588772</DistanceMeters>
          </Trackpoint>
          <Trackpoint>
            <Time>2018-09-14T11:27:35.000Z</Time>
            <Position>
              <LatitudeDegrees>37.8966601006686687469482421875</LatitudeDegrees>
              <LongitudeDegrees>-8.1300804577767848968505859375</LongitudeDegrees>
            </Position>
            <AltitudeMeters>134.399993896484375</AltitudeMeters>
            <DistanceMeters>268247.7718704</DistanceMeters>
          </Trackpoint>
          <Trackpoint>
            <Time>2018-09-14T11:27:37.000Z</Time>
            <Position>
              <LatitudeDegrees>37.89653177373111248016357421875</LatitudeDegrees>
              <LongitudeDegrees>-8.13022236339747905731201171875</LongitudeDegrees>
            </Position>
            <AltitudeMeters>133.600006103515625</AltitudeMeters>
            <DistanceMeters>268266.72844952</DistanceMeters>
          </Trackpoint>
          <Trackpoint>
            <Time>2018-09-14T11:27:38.000Z</Time>
            <Position>
              <LatitudeDegrees>37.89647745899856090545654296875</LatitudeDegrees>
              <LongitudeDegrees>-8.13030718825757503509521484375</LongitudeDegrees>
            </Position>
            <AltitudeMeters>133.1999969482421875</AltitudeMeters>
            <DistanceMeters>268276.32332468</DistanceMeters>
          </Trackpoint>
          <Trackpoint>
            <Time>2018-09-14T11:27:44.000Z</Time>
            <Position>
              <LatitudeDegrees>37.89619021117687225341796875</LatitudeDegrees>
              <LongitudeDegrees>-8.13086156733334064483642578125</LongitudeDegrees>
            </Position>
            <AltitudeMeters>131.8000030517578125</AltitudeMeters>
            <DistanceMeters>268334.57315038</DistanceMeters>
          </Trackpoint>
          <Trackpoint>
            <Time>2018-09-14T11:27:49.000Z</Time>
            <Position>
              <LatitudeDegrees>37.895972616970539093017578125</LatitudeDegrees>
              <LongitudeDegrees>-8.13131385482847690582275390625</LongitudeDegrees>
            </Position>
            <AltitudeMeters>132</AltitudeMeters>
            <DistanceMeters>268381.09860239</DistanceMeters>
          </Trackpoint>
          <Trackpoint>
            <Time>2018-09-14T11:27:53.000Z</Time>
            <Position>
              <LatitudeDegrees>37.89582115598022937774658203125</LatitudeDegrees>
              <LongitudeDegrees>-8.13169531524181365966796875</LongitudeDegrees>
            </Position>
            <AltitudeMeters>133.600006103515625</AltitudeMeters>
            <DistanceMeters>268418.60491344</DistanceMeters>
          </Trackpoint>
          <Trackpoint>
            <Time>2018-09-14T11:27:56.000Z</Time>
            <Position>
              <LatitudeDegrees>37.89573297835886478424072265625</LatitudeDegrees>
              <LongitudeDegrees>-8.13200519420206546783447265625</LongitudeDegrees>
            </Position>
            <AltitudeMeters>133</AltitudeMeters>
            <DistanceMeters>268447.53770014</DistanceMeters>
          </Trackpoint>
          <Trackpoint>
            <Time>2018-09-14T11:28:01.000Z</Time>
            <Position>
              <LatitudeDegrees>37.8955979458987712860107421875</LatitudeDegrees>
              <LongitudeDegrees>-8.1325588189065456390380859375</LongitudeDegrees>
            </Position>
            <AltitudeMeters>132.8000030517578125</AltitudeMeters>
            <DistanceMeters>268498.43317802</DistanceMeters>
          </Trackpoint>
          <Trackpoint>
            <Time>2018-09-14T11:28:04.000Z</Time>
            <Position>
              <LatitudeDegrees>37.895515300333499908447265625</LatitudeDegrees>
              <LongitudeDegrees>-8.13288914971053600311279296875</LongitudeDegrees>
            </Position>
            <AltitudeMeters>131.600006103515625</AltitudeMeters>
            <DistanceMeters>268528.87022128</DistanceMeters>
          </Trackpoint>
          <Trackpoint>
            <Time>2018-09-14T11:28:08.000Z</Time>
            <Position>
              <LatitudeDegrees>37.8953830339014530181884765625</LatitudeDegrees>
              <LongitudeDegrees>-8.1333034671843051910400390625</LongitudeDegrees>
            </Position>
            <AltitudeMeters>130.399993896484375</AltitudeMeters>
            <DistanceMeters>268568.12557181</DistanceMeters>
          </Trackpoint>
          <Trackpoint>
            <Time>2018-09-14T11:28:09.000Z</Time>
            <Position>
              <LatitudeDegrees>37.89533433504402637481689453125</LatitudeDegrees>
              <LongitudeDegrees>-8.1333980150520801544189453125</LongitudeDegrees>
            </Position>
            <AltitudeMeters>130.1999969482421875</AltitudeMeters>
            <DistanceMeters>268578.04210006</DistanceMeters>
          </Trackpoint>
          <Trackpoint>
            <Time>2018-09-14T11:28:14.000Z</Time>
            <Position>
              <LatitudeDegrees>37.89499796926975250244140625</LatitudeDegrees>
              <LongitudeDegrees>-8.13375315628945827484130859375</LongitudeDegrees>
            </Position>
            <AltitudeMeters>128</AltitudeMeters>
            <DistanceMeters>268626.77199932</DistanceMeters>
          </Trackpoint>
          <Trackpoint>
            <Time>2018-09-14T11:28:16.000Z</Time>
            <Position>
              <LatitudeDegrees>37.89483879692852497100830078125</LatitudeDegrees>
              <LongitudeDegrees>-8.13383705914020538330078125</LongitudeDegrees>
            </Position>
            <AltitudeMeters>127.8000030517578125</AltitudeMeters>
            <DistanceMeters>268645.95986728</DistanceMeters>
          </Trackpoint>
          <Trackpoint>
            <Time>2018-09-14T11:28:18.000Z</Time>
            <Position>
              <LatitudeDegrees>37.8946843184530735015869140625</LatitudeDegrees>
              <LongitudeDegrees>-8.133916519582271575927734375</LongitudeDegrees>
            </Position>
            <AltitudeMeters>127.8000030517578125</AltitudeMeters>
            <DistanceMeters>268664.5161297</DistanceMeters>
          </Trackpoint>
          <Trackpoint>
            <Time>2018-09-14T11:28:22.000Z</Time>
            <Position>
              <LatitudeDegrees>37.89439447224140167236328125</LatitudeDegrees>
              <LongitudeDegrees>-8.13409480266273021697998046875</LongitudeDegrees>
            </Position>
            <AltitudeMeters>127.8000030517578125</AltitudeMeters>
            <DistanceMeters>268700.37634618</DistanceMeters>
          </Trackpoint>
          <Trackpoint>
            <Time>2018-09-14T11:28:23.000Z</Time>
            <Position>
              <LatitudeDegrees>37.8943379782140254974365234375</LatitudeDegrees>
              <LongitudeDegrees>-8.1341676414012908935546875</LongitudeDegrees>
            </Position>
            <AltitudeMeters>127.8000030517578125</AltitudeMeters>
            <DistanceMeters>268709.34668682</DistanceMeters>
          </Trackpoint>
          <Trackpoint>
            <Time>2018-09-14T11:28:26.000Z</Time>
            <Position>
              <LatitudeDegrees>37.894262038171291351318359375</LatitudeDegrees>
              <LongitudeDegrees>-8.1344655342400074005126953125</LongitudeDegrees>
            </Position>
            <AltitudeMeters>126.59999847412109375</AltitudeMeters>
            <DistanceMeters>268736.84308987</DistanceMeters>
          </Trackpoint>
          <Trackpoint>
            <Time>2018-09-14T11:28:28.000Z</Time>
            <Position>
              <LatitudeDegrees>37.894303612411022186279296875</LatitudeDegrees>
              <LongitudeDegrees>-8.1346718966960906982421875</LongitudeDegrees>
            </Position>
            <AltitudeMeters>125.1999969482421875</AltitudeMeters>
            <DistanceMeters>268755.55008274</DistanceMeters>
          </Trackpoint>
          <Trackpoint>
            <Time>2018-09-14T11:28:30.000Z</Time>
            <Position>
              <LatitudeDegrees>37.89438650943338871002197265625</LatitudeDegrees>
              <LongitudeDegrees>-8.13485956750810146331787109375</LongitudeDegrees>
            </Position>
            <AltitudeMeters>124.1999969482421875</AltitudeMeters>
            <DistanceMeters>268774.44057138</DistanceMeters>
          </Trackpoint>
          <Trackpoint>
            <Time>2018-09-14T11:28:31.000Z</Time>
            <Position>
              <LatitudeDegrees>37.89443244226276874542236328125</LatitudeDegrees>
              <LongitudeDegrees>-8.134949505329132080078125</LongitudeDegrees>
            </Position>
            <AltitudeMeters>123.8000030517578125</AltitudeMeters>
            <DistanceMeters>268783.85061546</DistanceMeters>
          </Trackpoint>
          <Trackpoint>
            <Time>2018-09-14T11:28:38.000Z</Time>
            <Position>
              <LatitudeDegrees>37.8946806304156780242919921875</LatitudeDegrees>
              <LongitudeDegrees>-8.13558510504662990570068359375</LongitudeDegrees>
            </Position>
            <AltitudeMeters>123.59999847412109375</AltitudeMeters>
            <DistanceMeters>268846.13785415</DistanceMeters>
          </Trackpoint>
          <Trackpoint>
            <Time>2018-09-14T11:28:42.000Z</Time>
            <Position>
              <LatitudeDegrees>37.8947507031261920928955078125</LatitudeDegrees>
              <LongitudeDegrees>-8.135975115001201629638671875</LongitudeDegrees>
            </Position>
            <AltitudeMeters>123</AltitudeMeters>
            <DistanceMeters>268881.27024702</DistanceMeters>
          </Trackpoint>
          <Trackpoint>
            <Time>2018-09-14T11:28:44.000Z</Time>
            <Position>
              <LatitudeDegrees>37.89479143917560577392578125</LatitudeDegrees>
              <LongitudeDegrees>-8.13616312108933925628662109375</LongitudeDegrees>
            </Position>
            <AltitudeMeters>123.59999847412109375</AltitudeMeters>
            <DistanceMeters>268898.39457774</DistanceMeters>
          </Trackpoint>
          <Trackpoint>
            <Time>2018-09-14T11:28:46.000Z</Time>
            <Position>
              <LatitudeDegrees>37.8948583267629146575927734375</LatitudeDegrees>
              <LongitudeDegrees>-8.13633981160819530487060546875</LongitudeDegrees>
            </Position>
            <AltitudeMeters>122.8000030517578125</AltitudeMeters>
            <DistanceMeters>268915.60727096</DistanceMeters>
          </Trackpoint>
          <Trackpoint>
            <Time>2018-09-14T11:28:53.000Z</Time>
            <Position>
              <LatitudeDegrees>37.89536300115287303924560546875</LatitudeDegrees>
              <LongitudeDegrees>-8.13661641441285610198974609375</LongitudeDegrees>
            </Position>
            <AltitudeMeters>121.59999847412109375</AltitudeMeters>
            <DistanceMeters>268976.80727854</DistanceMeters>
          </Trackpoint>
          <Trackpoint>
            <Time>2018-09-14T11:28:55.000Z</Time>
            <Position>
              <LatitudeDegrees>37.8955322317779064178466796875</LatitudeDegrees>
              <LongitudeDegrees>-8.13665061257779598236083984375</LongitudeDegrees>
            </Position>
            <AltitudeMeters>121.59999847412109375</AltitudeMeters>
            <DistanceMeters>268995.88091793</DistanceMeters>
          </Trackpoint>
          <Trackpoint>
            <Time>2018-09-14T11:29:01.000Z</Time>
            <Position>
              <LatitudeDegrees>37.8958359919488430023193359375</LatitudeDegrees>
              <LongitudeDegrees>-8.13712603412568569183349609375</LongitudeDegrees>
            </Position>
            <AltitudeMeters>120</AltitudeMeters>
            <DistanceMeters>269049.60909283</DistanceMeters>
          </Trackpoint>
          <Trackpoint>
            <Time>2018-09-14T11:29:02.000Z</Time>
            <Position>
              <LatitudeDegrees>37.8958473913371562957763671875</LatitudeDegrees>
              <LongitudeDegrees>-8.13723332248628139495849609375</LongitudeDegrees>
            </Position>
            <AltitudeMeters>119.8000030517578125</AltitudeMeters>
            <DistanceMeters>269059.1169893</DistanceMeters>
          </Trackpoint>
          <Trackpoint>
            <Time>2018-09-14T11:29:04.000Z</Time>
            <Position>
              <LatitudeDegrees>37.89585635997354984283447265625</LatitudeDegrees>
              <LongitudeDegrees>-8.137440942227840423583984375</LongitudeDegrees>
            </Position>
            <AltitudeMeters>119.40000152587890625</AltitudeMeters>
            <DistanceMeters>269077.37943282</DistanceMeters>
          </Trackpoint>
          <Trackpoint>
            <Time>2018-09-14T11:29:06.000Z</Time>
            <Position>
              <LatitudeDegrees>37.89581981487572193145751953125</LatitudeDegrees>
              <LongitudeDegrees>-8.1376248411834239959716796875</LongitudeDegrees>
            </Position>
            <AltitudeMeters>119</AltitudeMeters>
            <DistanceMeters>269094.03542299</DistanceMeters>
          </Trackpoint>
          <Trackpoint>
            <Time>2018-09-14T11:29:12.000Z</Time>
            <Position>
              <LatitudeDegrees>37.89552980102598667144775390625</LatitudeDegrees>
              <LongitudeDegrees>-8.13790940679609775543212890625</LongitudeDegrees>
            </Position>
            <AltitudeMeters>120.8000030517578125</AltitudeMeters>
            <DistanceMeters>269134.85976657</DistanceMeters>
          </Trackpoint>
          <Trackpoint>
            <Time>2018-09-14T11:29:15.000Z</Time>
            <Position>
              <LatitudeDegrees>37.89537440054118633270263671875</LatitudeDegrees>
              <LongitudeDegrees>-8.13797704875469207763671875</LongitudeDegrees>
            </Position>
            <AltitudeMeters>121</AltitudeMeters>
            <DistanceMeters>269153.14790402</DistanceMeters>
          </Trackpoint>
          <Trackpoint>
            <Time>2018-09-14T11:29:18.000Z</Time>
            <Position>
              <LatitudeDegrees>37.89522721432149410247802734375</LatitudeDegrees>
              <LongitudeDegrees>-8.1380328722298145294189453125</LongitudeDegrees>
            </Position>
            <AltitudeMeters>121.1999969482421875</AltitudeMeters>
            <DistanceMeters>269170.24769657</DistanceMeters>
          </Trackpoint>
          <Trackpoint>
            <Time>2018-09-14T11:29:20.000Z</Time>
            <Position>
              <LatitudeDegrees>37.89513501338660717010498046875</LatitudeDegrees>
              <LongitudeDegrees>-8.13806832768023014068603515625</LongitudeDegrees>
            </Position>
            <AltitudeMeters>121.40000152587890625</AltitudeMeters>
            <DistanceMeters>269180.97183073</DistanceMeters>
          </Trackpoint>
          <Trackpoint>
            <Time>2018-09-14T11:29:25.000Z</Time>
            <Position>
              <LatitudeDegrees>37.8949042595922946929931640625</LatitudeDegrees>
              <LongitudeDegrees>-8.13813219778239727020263671875</LongitudeDegrees>
            </Position>
            <AltitudeMeters>122</AltitudeMeters>
            <DistanceMeters>269207.2607613</DistanceMeters>
          </Trackpoint>
          <Trackpoint>
            <Time>2018-09-14T11:29:26.000Z</Time>
            <Position>
              <LatitudeDegrees>37.89486025460064411163330078125</LatitudeDegrees>
              <LongitudeDegrees>-8.13814527355134487152099609375</LongitudeDegrees>
            </Position>
            <AltitudeMeters>122.1999969482421875</AltitudeMeters>
            <DistanceMeters>269212.2908979</DistanceMeters>
          </Trackpoint>
          <Trackpoint>
            <Time>2018-09-14T11:29:27.000Z</Time>
            <Position>
              <LatitudeDegrees>37.89481717161834239959716796875</LatitudeDegrees>
              <LongitudeDegrees>-8.13815969042479991912841796875</LongitudeDegrees>
            </Position>
            <AltitudeMeters>122.1999969482421875</AltitudeMeters>
            <DistanceMeters>269217.25052775</DistanceMeters>
          </Trackpoint>
          <Trackpoint>
            <Time>2018-09-14T11:29:29.000Z</Time>
            <Position>
              <LatitudeDegrees>37.8947342745959758758544921875</LatitudeDegrees>
              <LongitudeDegrees>-8.13819623552262783050537109375</LongitudeDegrees>
            </Position>
            <AltitudeMeters>122.59999847412109375</AltitudeMeters>
            <DistanceMeters>269227.01981012</DistanceMeters>
          </Trackpoint>
          <Trackpoint>
            <Time>2018-09-14T11:29:30.000Z</Time>
            <Position>
              <LatitudeDegrees>37.89469613693654537200927734375</LatitudeDegrees>
              <LongitudeDegrees>-8.138224147260189056396484375</LongitudeDegrees>
            </Position>
            <AltitudeMeters>122.8000030517578125</AltitudeMeters>
            <DistanceMeters>269231.92175192</DistanceMeters>
          </Trackpoint>
          <Trackpoint>
            <Time>2018-09-14T11:29:36.000Z</Time>
            <Position>
              <LatitudeDegrees>37.89462983608245849609375</LatitudeDegrees>
              <LongitudeDegrees>-8.13849848695099353790283203125</LongitudeDegrees>
            </Position>
            <AltitudeMeters>125.1999969482421875</AltitudeMeters>
            <DistanceMeters>269257.12229192</DistanceMeters>
          </Trackpoint>
          <Trackpoint>
            <Time>2018-09-14T11:29:40.000Z</Time>
            <Position>
              <LatitudeDegrees>37.89475522935390472412109375</LatitudeDegrees>
              <LongitudeDegrees>-8.13862522132694721221923828125</LongitudeDegrees>
            </Position>
            <AltitudeMeters>126.40000152587890625</AltitudeMeters>
            <DistanceMeters>269274.9744203</DistanceMeters>
          </Trackpoint>
          <Trackpoint>
            <Time>2018-09-14T11:29:41.000Z</Time>
            <Position>
              <LatitudeDegrees>37.89479470811784267425537109375</LatitudeDegrees>
              <LongitudeDegrees>-8.1386330164968967437744140625</LongitudeDegrees>
            </Position>
            <AltitudeMeters>126.40000152587890625</AltitudeMeters>
            <DistanceMeters>269279.42142687</DistanceMeters>
          </Trackpoint>
          <Trackpoint>
            <Time>2018-09-14T11:29:46.000Z</Time>
            <Position>
              <LatitudeDegrees>37.8949917666614055633544921875</LatitudeDegrees>
              <LongitudeDegrees>-8.138570152223110198974609375</LongitudeDegrees>
            </Position>
            <AltitudeMeters>125.40000152587890625</AltitudeMeters>
            <DistanceMeters>269302.03858342</DistanceMeters>
          </Trackpoint>
          <Trackpoint>
            <Time>2018-09-14T11:29:47.000Z</Time>
            <Position>
              <LatitudeDegrees>37.8950306586921215057373046875</LatitudeDegrees>
              <LongitudeDegrees>-8.13854995183646678924560546875</LongitudeDegrees>
            </Position>
            <AltitudeMeters>125</AltitudeMeters>
            <DistanceMeters>269306.71714146</DistanceMeters>
          </Trackpoint>
          <Trackpoint>
            <Time>2018-09-14T11:29:48.000Z</Time>
            <Position>
              <LatitudeDegrees>37.895071394741535186767578125</LatitudeDegrees>
              <LongitudeDegrees>-8.1385342776775360107421875</LongitudeDegrees>
            </Position>
            <AltitudeMeters>124.8000030517578125</AltitudeMeters>
            <DistanceMeters>269311.45515476</DistanceMeters>
          </Trackpoint>
          <Trackpoint>
            <Time>2018-09-14T11:29:51.000Z</Time>
            <Position>
              <LatitudeDegrees>37.89519854821264743804931640625</LatitudeDegrees>
              <LongitudeDegrees>-8.1385193578898906707763671875</LongitudeDegrees>
            </Position>
            <AltitudeMeters>124.8000030517578125</AltitudeMeters>
            <DistanceMeters>269325.66792402</DistanceMeters>
          </Trackpoint>
          <Trackpoint>
            <Time>2018-09-14T11:29:59.000Z</Time>
            <Position>
              <LatitudeDegrees>37.8954956866800785064697265625</LatitudeDegrees>
              <LongitudeDegrees>-8.13870937563478946685791015625</LongitudeDegrees>
            </Position>
            <AltitudeMeters>126.8000030517578125</AltitudeMeters>
            <DistanceMeters>269362.71250145</DistanceMeters>
          </Trackpoint>
          <Trackpoint>
            <Time>2018-09-14T11:30:07.000Z</Time>
            <Position>
              <LatitudeDegrees>37.89563356898725032806396484375</LatitudeDegrees>
              <LongitudeDegrees>-8.13900492154061794281005859375</LongitudeDegrees>
            </Position>
            <AltitudeMeters>128</AltitudeMeters>
            <DistanceMeters>269392.86817783</DistanceMeters>
          </Trackpoint>
          <Trackpoint>
            <Time>2018-09-14T11:30:11.000Z</Time>
            <Position>
              <LatitudeDegrees>37.89565737359225749969482421875</LatitudeDegrees>
              <LongitudeDegrees>-8.1391523592174053192138671875</LongitudeDegrees>
            </Position>
            <AltitudeMeters>128.399993896484375</AltitudeMeters>
            <DistanceMeters>269406.08611712</DistanceMeters>
          </Trackpoint>
          <Trackpoint>
            <Time>2018-09-14T11:30:14.000Z</Time>
            <Position>
              <LatitudeDegrees>37.89565184153616428375244140625</LatitudeDegrees>
              <LongitudeDegrees>-8.13926576636731624603271484375</LongitudeDegrees>
            </Position>
            <AltitudeMeters>128.8000030517578125</AltitudeMeters>
            <DistanceMeters>269416.065732</DistanceMeters>
          </Trackpoint>
          <Trackpoint>
            <Time>2018-09-14T11:30:17.000Z</Time>
            <Position>
              <LatitudeDegrees>37.8956354968249797821044921875</LatitudeDegrees>
              <LongitudeDegrees>-8.13937179744243621826171875</LongitudeDegrees>
            </Position>
            <AltitudeMeters>129.600006103515625</AltitudeMeters>
            <DistanceMeters>269425.55461456</DistanceMeters>
          </Trackpoint>
          <Trackpoint>
            <Time>2018-09-14T11:30:24.000Z</Time>
            <Position>
              <LatitudeDegrees>37.89552343077957630157470703125</LatitudeDegrees>
              <LongitudeDegrees>-8.13957028090953826904296875</LongitudeDegrees>
            </Position>
            <AltitudeMeters>131.399993896484375</AltitudeMeters>
            <DistanceMeters>269446.9904593</DistanceMeters>
          </Trackpoint>
          <Trackpoint>
            <Time>2018-09-14T11:30:29.000Z</Time>
            <Position>
              <LatitudeDegrees>37.895397953689098358154296875</LatitudeDegrees>
              <LongitudeDegrees>-8.1396552734076976776123046875</LongitudeDegrees>
            </Position>
            <AltitudeMeters>132.600006103515625</AltitudeMeters>
            <DistanceMeters>269462.82602759</DistanceMeters>
          </Trackpoint>
          <Trackpoint>
            <Time>2018-09-14T11:30:34.000Z</Time>
            <Position>
              <LatitudeDegrees>37.89525353349745273590087890625</LatitudeDegrees>
              <LongitudeDegrees>-8.1396876275539398193359375</LongitudeDegrees>
            </Position>
            <AltitudeMeters>133.399993896484375</AltitudeMeters>
            <DistanceMeters>269479.14961468</DistanceMeters>
          </Trackpoint>
          <Trackpoint>
            <Time>2018-09-14T11:30:39.000Z</Time>
            <Position>
              <LatitudeDegrees>37.89510793983936309814453125</LatitudeDegrees>
              <LongitudeDegrees>-8.1396958418190479278564453125</LongitudeDegrees>
            </Position>
            <AltitudeMeters>133.8000030517578125</AltitudeMeters>
            <DistanceMeters>269495.37081678</DistanceMeters>
          </Trackpoint>
          <Trackpoint>
            <Time>2018-09-14T11:30:44.000Z</Time>
            <Position>
              <LatitudeDegrees>37.89496184326708316802978515625</LatitudeDegrees>
              <LongitudeDegrees>-8.13972023315727710723876953125</LongitudeDegrees>
            </Position>
            <AltitudeMeters>134.399993896484375</AltitudeMeters>
            <DistanceMeters>269511.77221847</DistanceMeters>
          </Trackpoint>
          <Trackpoint>
            <Time>2018-09-14T11:30:51.000Z</Time>
            <Position>
              <LatitudeDegrees>37.894762270152568817138671875</LatitudeDegrees>
              <LongitudeDegrees>-8.139803968369960784912109375</LongitudeDegrees>
            </Position>
            <AltitudeMeters>135.600006103515625</AltitudeMeters>
            <DistanceMeters>269535.17079823</DistanceMeters>
          </Trackpoint>
          <Trackpoint>
            <Time>2018-09-14T11:30:59.000Z</Time>
            <Position>
              <LatitudeDegrees>37.8946175985038280487060546875</LatitudeDegrees>
              <LongitudeDegrees>-8.140052072703838348388671875</LongitudeDegrees>
            </Position>
            <AltitudeMeters>137.600006103515625</AltitudeMeters>
            <DistanceMeters>269562.26624572</DistanceMeters>
          </Trackpoint>
          <Trackpoint>
            <Time>2018-09-14T11:31:07.000Z</Time>
            <Position>
              <LatitudeDegrees>37.89448700845241546630859375</LatitudeDegrees>
              <LongitudeDegrees>-8.14032088033854961395263671875</LongitudeDegrees>
            </Position>
            <AltitudeMeters>139.399993896484375</AltitudeMeters>
            <DistanceMeters>269589.99190798</DistanceMeters>
          </Trackpoint>
          <Trackpoint>
            <Time>2018-09-14T11:31:15.000Z</Time>
            <Position>
              <LatitudeDegrees>37.8943453542888164520263671875</LatitudeDegrees>
              <LongitudeDegrees>-8.14059664495289325714111328125</LongitudeDegrees>
            </Position>
            <AltitudeMeters>141</AltitudeMeters>
            <DistanceMeters>269618.89268618</DistanceMeters>
          </Trackpoint>
          <Trackpoint>
            <Time>2018-09-14T11:31:21.000Z</Time>
            <Position>
              <LatitudeDegrees>37.8941941447556018829345703125</LatitudeDegrees>
              <LongitudeDegrees>-8.14077685587108135223388671875</LongitudeDegrees>
            </Position>
            <AltitudeMeters>142.1999969482421875</AltitudeMeters>
            <DistanceMeters>269641.99668819</DistanceMeters>
          </Trackpoint>
          <Trackpoint>
            <Time>2018-09-14T11:31:27.000Z</Time>
            <Position>
              <LatitudeDegrees>37.8940008580684661865234375</LatitudeDegrees>
              <LongitudeDegrees>-8.1409402191638946533203125</LongitudeDegrees>
            </Position>
            <AltitudeMeters>142.8000030517578125</AltitudeMeters>
            <DistanceMeters>269667.85600471</DistanceMeters>
          </Trackpoint>
          <Trackpoint>
            <Time>2018-09-14T11:31:37.000Z</Time>
            <Position>
              <LatitudeDegrees>37.89360263384878635406494140625</LatitudeDegrees>
              <LongitudeDegrees>-8.1412525288760662078857421875</LongitudeDegrees>
            </Position>
            <AltitudeMeters>143.8000030517578125</AltitudeMeters>
            <DistanceMeters>269719.98108103</DistanceMeters>
          </Trackpoint>
          <Trackpoint>
            <Time>2018-09-14T11:31:45.000Z</Time>
            <Position>
              <LatitudeDegrees>37.8932536952197551727294921875</LatitudeDegrees>
              <LongitudeDegrees>-8.14151278696954250335693359375</LongitudeDegrees>
            </Position>
            <AltitudeMeters>143.8000030517578125</AltitudeMeters>
            <DistanceMeters>269765.04679275</DistanceMeters>
          </Trackpoint>
          <Trackpoint>
            <Time>2018-09-14T11:31:52.000Z</Time>
            <Position>
              <LatitudeDegrees>37.89292864501476287841796875</LatitudeDegrees>
              <LongitudeDegrees>-8.14175636507570743560791015625</LongitudeDegrees>
            </Position>
            <AltitudeMeters>142.600006103515625</AltitudeMeters>
            <DistanceMeters>269807.07815158</DistanceMeters>
          </Trackpoint>
          <Trackpoint>
            <Time>2018-09-14T11:31:56.000Z</Time>
            <Position>
              <LatitudeDegrees>37.8926874138414859771728515625</LatitudeDegrees>
              <LongitudeDegrees>-8.14194059930741786956787109375</LongitudeDegrees>
            </Position>
            <AltitudeMeters>140.600006103515625</AltitudeMeters>
            <DistanceMeters>269838.42717516</DistanceMeters>
          </Trackpoint>
          <Trackpoint>
            <Time>2018-09-14T11:31:58.000Z</Time>
            <Position>
              <LatitudeDegrees>37.89255640469491481781005859375</LatitudeDegrees>
              <LongitudeDegrees>-8.14204461872577667236328125</LongitudeDegrees>
            </Position>
            <AltitudeMeters>139.600006103515625</AltitudeMeters>
            <DistanceMeters>269855.63514619</DistanceMeters>
          </Trackpoint>
          <Trackpoint>
            <Time>2018-09-14T11:32:01.000Z</Time>
            <Position>
              <LatitudeDegrees>37.89234660565853118896484375</LatitudeDegrees>
              <LongitudeDegrees>-8.1422033719718456268310546875</LongitudeDegrees>
            </Position>
            <AltitudeMeters>138.600006103515625</AltitudeMeters>
            <DistanceMeters>269882.83304688</DistanceMeters>
          </Trackpoint>
          <Trackpoint>
            <Time>2018-09-14T11:32:02.000Z</Time>
            <Position>
              <LatitudeDegrees>37.89227443747222423553466796875</LatitudeDegrees>
              <LongitudeDegrees>-8.1422580219805240631103515625</LongitudeDegrees>
            </Position>
            <AltitudeMeters>138.399993896484375</AltitudeMeters>
            <DistanceMeters>269892.19112795</DistanceMeters>
          </Trackpoint>
          <Trackpoint>
            <Time>2018-09-14T11:32:04.000Z</Time>
            <Position>
              <LatitudeDegrees>37.89212456904351711273193359375</LatitudeDegrees>
              <LongitudeDegrees>-8.14236916601657867431640625</LongitudeDegrees>
            </Position>
            <AltitudeMeters>137.600006103515625</AltitudeMeters>
            <DistanceMeters>269911.51826282</DistanceMeters>
          </Trackpoint>
          <Trackpoint>
            <Time>2018-09-14T11:32:07.000Z</Time>
            <Position>
              <LatitudeDegrees>37.89189993403851985931396484375</LatitudeDegrees>
              <LongitudeDegrees>-8.14253973774611949920654296875</LongitudeDegrees>
            </Position>
            <AltitudeMeters>136.600006103515625</AltitudeMeters>
            <DistanceMeters>269940.66576155</DistanceMeters>
          </Trackpoint>
          <Trackpoint>
            <Time>2018-09-14T11:32:10.000Z</Time>
            <Position>
              <LatitudeDegrees>37.89169206283986568450927734375</LatitudeDegrees>
              <LongitudeDegrees>-8.1427113153040409088134765625</LongitudeDegrees>
            </Position>
            <AltitudeMeters>136.1999969482421875</AltitudeMeters>
            <DistanceMeters>269968.27752271</DistanceMeters>
          </Trackpoint>
          <Trackpoint>
            <Time>2018-09-14T11:32:14.000Z</Time>
            <Position>
              <LatitudeDegrees>37.89147262461483478546142578125</LatitudeDegrees>
              <LongitudeDegrees>-8.1429728306829929351806640625</LongitudeDegrees>
            </Position>
            <AltitudeMeters>136.1999969482421875</AltitudeMeters>
            <DistanceMeters>270001.80647045</DistanceMeters>
          </Trackpoint>
          <Trackpoint>
            <Time>2018-09-14T11:32:15.000Z</Time>
            <Position>
              <LatitudeDegrees>37.89142970927059650421142578125</LatitudeDegrees>
              <LongitudeDegrees>-8.1430465914309024810791015625</LongitudeDegrees>
            </Position>
            <AltitudeMeters>136.399993896484375</AltitudeMeters>
            <DistanceMeters>270009.85630452</DistanceMeters>
          </Trackpoint>
          <Trackpoint>
            <Time>2018-09-14T11:32:24.000Z</Time>
            <Position>
              <LatitudeDegrees>37.89116651751101016998291015625</LatitudeDegrees>
              <LongitudeDegrees>-8.14368789084255695343017578125</LongitudeDegrees>
            </Position>
            <AltitudeMeters>137.600006103515625</AltitudeMeters>
            <DistanceMeters>270073.34780478</DistanceMeters>
          </Trackpoint>
          <Trackpoint>
            <Time>2018-09-14T11:32:27.000Z</Time>
            <Position>
              <LatitudeDegrees>37.89109678007662296295166015625</LatitudeDegrees>
              <LongitudeDegrees>-8.14389844425022602081298828125</LongitudeDegrees>
            </Position>
            <AltitudeMeters>138.1999969482421875</AltitudeMeters>
            <DistanceMeters>270093.40497072</DistanceMeters>
          </Trackpoint>
          <Trackpoint>
            <Time>2018-09-14T11:32:30.000Z</Time>
            <Position>
              <LatitudeDegrees>37.89102301932871341705322265625</LatitudeDegrees>
              <LongitudeDegrees>-8.14410530962049961090087890625</LongitudeDegrees>
            </Position>
            <AltitudeMeters>138.600006103515625</AltitudeMeters>
            <DistanceMeters>270113.34405735</DistanceMeters>
          </Trackpoint>
          <Trackpoint>
            <Time>2018-09-14T11:32:33.000Z</Time>
            <Position>
              <LatitudeDegrees>37.89095143787562847137451171875</LatitudeDegrees>
              <LongitudeDegrees>-8.14431242644786834716796875</LongitudeDegrees>
            </Position>
            <AltitudeMeters>139.1999969482421875</AltitudeMeters>
            <DistanceMeters>270133.20464066</DistanceMeters>
          </Trackpoint>
          <Trackpoint>
            <Time>2018-09-14T11:32:40.000Z</Time>
            <Position>
              <LatitudeDegrees>37.890780866146087646484375</LatitudeDegrees>
              <LongitudeDegrees>-8.144777119159698486328125</LongitudeDegrees>
            </Position>
            <AltitudeMeters>140.600006103515625</AltitudeMeters>
            <DistanceMeters>270178.22123355</DistanceMeters>
          </Trackpoint>
          <Trackpoint>
            <Time>2018-09-14T11:32:46.000Z</Time>
            <Position>
              <LatitudeDegrees>37.89061683230102062225341796875</LatitudeDegrees>
              <LongitudeDegrees>-8.14512153156101703643798828125</LongitudeDegrees>
            </Position>
            <AltitudeMeters>141.8000030517578125</AltitudeMeters>
            <DistanceMeters>270213.55596886</DistanceMeters>
          </Trackpoint>
          <Trackpoint>
            <Time>2018-09-14T11:32:47.000Z</Time>
            <Position>
              <LatitudeDegrees>37.89058481343090534210205078125</LatitudeDegrees>
              <LongitudeDegrees>-8.145170398056507110595703125</LongitudeDegrees>
            </Position>
            <AltitudeMeters>142</AltitudeMeters>
            <DistanceMeters>270219.13428791</DistanceMeters>
          </Trackpoint>
          <Trackpoint>
            <Time>2018-09-14T11:32:52.000Z</Time>
            <Position>
              <LatitudeDegrees>37.8904139064252376556396484375</LatitudeDegrees>
              <LongitudeDegrees>-8.14538271166384220123291015625</LongitudeDegrees>
            </Position>
            <AltitudeMeters>143</AltitudeMeters>
            <DistanceMeters>270245.77331168</DistanceMeters>
          </Trackpoint>
          <Trackpoint>
            <Time>2018-09-14T11:32:59.000Z</Time>
            <Position>
              <LatitudeDegrees>37.89018717594444751739501953125</LatitudeDegrees>
              <LongitudeDegrees>-8.14564623869955539703369140625</LongitudeDegrees>
            </Position>
            <AltitudeMeters>144.399993896484375</AltitudeMeters>
            <DistanceMeters>270280.01722686</DistanceMeters>
          </Trackpoint>
          <Trackpoint>
            <Time>2018-09-14T11:33:03.000Z</Time>
            <Position>
              <LatitudeDegrees>37.890059687197208404541015625</LatitudeDegrees>
              <LongitudeDegrees>-8.14577884040772914886474609375</LongitudeDegrees>
            </Position>
            <AltitudeMeters>145</AltitudeMeters>
            <DistanceMeters>270298.37485342</DistanceMeters>
          </Trackpoint>
          <Trackpoint>
            <Time>2018-09-14T11:33:06.000Z</Time>
            <Position>
              <LatitudeDegrees>37.889974527060985565185546875</LatitudeDegrees>
              <LongitudeDegrees>-8.14587841741740703582763671875</LongitudeDegrees>
            </Position>
            <AltitudeMeters>145.600006103515625</AltitudeMeters>
            <DistanceMeters>270311.27190766</DistanceMeters>
          </Trackpoint>
          <Trackpoint>
            <Time>2018-09-14T11:33:10.000Z</Time>
            <Position>
              <LatitudeDegrees>37.88986044935882091522216796875</LatitudeDegrees>
              <LongitudeDegrees>-8.14600355923175811767578125</LongitudeDegrees>
            </Position>
            <AltitudeMeters>146</AltitudeMeters>
            <DistanceMeters>270328.06611522</DistanceMeters>
          </Trackpoint>
          <Trackpoint>
            <Time>2018-09-14T11:33:17.000Z</Time>
            <Position>
              <LatitudeDegrees>37.8896558471024036407470703125</LatitudeDegrees>
              <LongitudeDegrees>-8.146212436258792877197265625</LongitudeDegrees>
            </Position>
            <AltitudeMeters>146.399993896484375</AltitudeMeters>
            <DistanceMeters>270357.31057692</DistanceMeters>
          </Trackpoint>
          <Trackpoint>
            <Time>2018-09-14T11:33:23.000Z</Time>
            <Position>
              <LatitudeDegrees>37.8894945792853832244873046875</LatitudeDegrees>
              <LongitudeDegrees>-8.14639122225344181060791015625</LongitudeDegrees>
            </Position>
            <AltitudeMeters>147</AltitudeMeters>
            <DistanceMeters>270381.1605785</DistanceMeters>
          </Trackpoint>
          <Trackpoint>
            <Time>2018-09-14T11:33:27.000Z</Time>
            <Position>
              <LatitudeDegrees>37.8893768973648548126220703125</LatitudeDegrees>
              <LongitudeDegrees>-8.146511502563953399658203125</LongitudeDegrees>
            </Position>
            <AltitudeMeters>147.1999969482421875</AltitudeMeters>
            <DistanceMeters>270397.98889474</DistanceMeters>
          </Trackpoint>
          <Trackpoint>
            <Time>2018-09-14T11:33:38.000Z</Time>
            <Position>
              <LatitudeDegrees>37.88898202590644359588623046875</LatitudeDegrees>
              <LongitudeDegrees>-8.1469357945024967193603515625</LongitudeDegrees>
            </Position>
            <AltitudeMeters>148.1999969482421875</AltitudeMeters>
            <DistanceMeters>270455.61380264</DistanceMeters>
          </Trackpoint>
          <Trackpoint>
            <Time>2018-09-14T11:33:42.000Z</Time>
            <Position>
              <LatitudeDegrees>37.8888263739645481109619140625</LatitudeDegrees>
              <LongitudeDegrees>-8.14710234291851520538330078125</LongitudeDegrees>
            </Position>
            <AltitudeMeters>148.8000030517578125</AltitudeMeters>
            <DistanceMeters>270478.2891759</DistanceMeters>
          </Trackpoint>
          <Trackpoint>
            <Time>2018-09-14T11:33:51.000Z</Time>
            <Position>
              <LatitudeDegrees>37.88853250443935394287109375</LatitudeDegrees>
              <LongitudeDegrees>-8.14743158407509326934814453125</LongitudeDegrees>
            </Position>
            <AltitudeMeters>150.1999969482421875</AltitudeMeters>
            <DistanceMeters>270521.9496856</DistanceMeters>
          </Trackpoint>
          <Trackpoint>
            <Time>2018-09-14T11:33:56.000Z</Time>
            <Position>
              <LatitudeDegrees>37.88838976062834262847900390625</LatitudeDegrees>
              <LongitudeDegrees>-8.1475902535021305084228515625</LongitudeDegrees>
            </Position>
            <AltitudeMeters>150.8000030517578125</AltitudeMeters>
            <DistanceMeters>270543.08453269</DistanceMeters>
          </Trackpoint>
          <Trackpoint>
            <Time>2018-09-14T11:34:01.000Z</Time>
            <Position>
              <LatitudeDegrees>37.8882446698844432830810546875</LatitudeDegrees>
              <LongitudeDegrees>-8.14774707891047000885009765625</LongitudeDegrees>
            </Position>
            <AltitudeMeters>151</AltitudeMeters>
            <DistanceMeters>270564.31061651</DistanceMeters>
          </Trackpoint>
          <Trackpoint>
            <Time>2018-09-14T11:34:05.000Z</Time>
            <Position>
              <LatitudeDegrees>37.88813025690615177154541015625</LatitudeDegrees>
              <LongitudeDegrees>-8.14787230454385280609130859375</LongitudeDegrees>
            </Position>
            <AltitudeMeters>151.1999969482421875</AltitudeMeters>
            <DistanceMeters>270581.13759119</DistanceMeters>
          </Trackpoint>
          <Trackpoint>
            <Time>2018-09-14T11:34:18.000Z</Time>
            <Position>
              <LatitudeDegrees>37.8876867704093456268310546875</LatitudeDegrees>
              <LongitudeDegrees>-8.14835258759558200836181640625</LongitudeDegrees>
            </Position>
            <AltitudeMeters>152</AltitudeMeters>
            <DistanceMeters>270646.07123019</DistanceMeters>
          </Trackpoint>
          <Trackpoint>
            <Time>2018-09-14T11:34:19.000Z</Time>
            <Position>
              <LatitudeDegrees>37.88764645345509052276611328125</LatitudeDegrees>
              <LongitudeDegrees>-8.14839743077754974365234375</LongitudeDegrees>
            </Position>
            <AltitudeMeters>152</AltitudeMeters>
            <DistanceMeters>270652.0420544</DistanceMeters>
          </Trackpoint>
          <Trackpoint>
            <Time>2018-09-14T11:34:28.000Z</Time>
            <Position>
              <LatitudeDegrees>37.88724915124475955963134765625</LatitudeDegrees>
              <LongitudeDegrees>-8.148829936981201171875</LongitudeDegrees>
            </Position>
            <AltitudeMeters>151.8000030517578125</AltitudeMeters>
            <DistanceMeters>270710.34162132</DistanceMeters>
          </Trackpoint>
          <Trackpoint>
            <Time>2018-09-14T11:34:35.000Z</Time>
            <Position>
              <LatitudeDegrees>37.88693080656230449676513671875</LatitudeDegrees>
              <LongitudeDegrees>-8.14916144125163555145263671875</LongitudeDegrees>
            </Position>
            <AltitudeMeters>151.600006103515625</AltitudeMeters>
            <DistanceMeters>270756.20468769</DistanceMeters>
          </Trackpoint>
          <Trackpoint>
            <Time>2018-09-14T11:34:43.000Z</Time>
            <Position>
              <LatitudeDegrees>37.8865783475339412689208984375</LatitudeDegrees>
              <LongitudeDegrees>-8.14955706708133220672607421875</LongitudeDegrees>
            </Position>
            <AltitudeMeters>151.600006103515625</AltitudeMeters>
            <DistanceMeters>270808.6137083</DistanceMeters>
          </Trackpoint>
          <Trackpoint>
            <Time>2018-09-14T11:34:46.000Z</Time>
            <Position>
              <LatitudeDegrees>37.8864506073296070098876953125</LatitudeDegrees>
              <LongitudeDegrees>-8.1496910937130451202392578125</LongitudeDegrees>
            </Position>
            <AltitudeMeters>151.600006103515625</AltitudeMeters>
            <DistanceMeters>270827.07336607</DistanceMeters>
          </Trackpoint>
          <Trackpoint>
            <Time>2018-09-14T11:34:51.000Z</Time>
            <Position>
              <LatitudeDegrees>37.8862635232508182525634765625</LatitudeDegrees>
              <LongitudeDegrees>-8.149897791445255279541015625</LongitudeDegrees>
            </Position>
            <AltitudeMeters>151.399993896484375</AltitudeMeters>
            <DistanceMeters>270854.70082055</DistanceMeters>
          </Trackpoint>
          <Trackpoint>
            <Time>2018-09-14T11:34:56.000Z</Time>
            <Position>
              <LatitudeDegrees>37.8860942088067531585693359375</LatitudeDegrees>
              <LongitudeDegrees>-8.1500907428562641143798828125</LongitudeDegrees>
            </Position>
            <AltitudeMeters>151.399993896484375</AltitudeMeters>
            <DistanceMeters>270880.04695889</DistanceMeters>
          </Trackpoint>
          <Trackpoint>
            <Time>2018-09-14T11:35:08.000Z</Time>
            <Position>
              <LatitudeDegrees>37.88568357937037944793701171875</LatitudeDegrees>
              <LongitudeDegrees>-8.15060664899647235870361328125</LongitudeDegrees>
            </Position>
            <AltitudeMeters>151.399993896484375</AltitudeMeters>
            <DistanceMeters>270944.41042624</DistanceMeters>
          </Trackpoint>
          <Trackpoint>
            <Time>2018-09-14T11:35:17.000Z</Time>
            <Position>
              <LatitudeDegrees>37.88538836874067783355712890625</LatitudeDegrees>
              <LongitudeDegrees>-8.15106446854770183563232421875</LongitudeDegrees>
            </Position>
            <AltitudeMeters>151.1999969482421875</AltitudeMeters>
            <DistanceMeters>270996.34302555</DistanceMeters>
          </Trackpoint>
          <Trackpoint>
            <Time>2018-09-14T11:35:27.000Z</Time>
            <Position>
              <LatitudeDegrees>37.88501922972500324249267578125</LatitudeDegrees>
              <LongitudeDegrees>-8.15159588120877742767333984375</LongitudeDegrees>
            </Position>
            <AltitudeMeters>151.8000030517578125</AltitudeMeters>
            <DistanceMeters>271058.53000601</DistanceMeters>
          </Trackpoint>
          <Trackpoint>
            <Time>2018-09-14T11:35:37.000Z</Time>
            <Position>
              <LatitudeDegrees>37.884635590016841888427734375</LatitudeDegrees>
              <LongitudeDegrees>-8.15216057002544403076171875</LongitudeDegrees>
            </Position>
            <AltitudeMeters>151.600006103515625</AltitudeMeters>
            <DistanceMeters>271123.98182421</DistanceMeters>
          </Trackpoint>
          <Trackpoint>
            <Time>2018-09-14T11:35:47.000Z</Time>
            <Position>
              <LatitudeDegrees>37.88423887453973293304443359375</LatitudeDegrees>
              <LongitudeDegrees>-8.152717463672161102294921875</LongitudeDegrees>
            </Position>
            <AltitudeMeters>151.1999969482421875</AltitudeMeters>
            <DistanceMeters>271189.88242242</DistanceMeters>
          </Trackpoint>
          <Trackpoint>
            <Time>2018-09-14T11:35:57.000Z</Time>
            <Position>
              <LatitudeDegrees>37.88386336527764797210693359375</LatitudeDegrees>
              <LongitudeDegrees>-8.15327544696629047393798828125</LongitudeDegrees>
            </Position>
            <AltitudeMeters>152.1999969482421875</AltitudeMeters>
            <DistanceMeters>271254.2984801</DistanceMeters>
          </Trackpoint>
          <Trackpoint>
            <Time>2018-09-14T11:36:07.000Z</Time>
            <Position>
              <LatitudeDegrees>37.88348081521689891815185546875</LatitudeDegrees>
              <LongitudeDegrees>-8.15382077358663082122802734375</LongitudeDegrees>
            </Position>
            <AltitudeMeters>154.399993896484375</AltitudeMeters>
            <DistanceMeters>271318.3907409</DistanceMeters>
          </Trackpoint>
          <Trackpoint>
            <Time>2018-09-14T11:36:17.000Z</Time>
            <Position>
              <LatitudeDegrees>37.88310480304062366485595703125</LatitudeDegrees>
              <LongitudeDegrees>-8.1543752364814281463623046875</LongitudeDegrees>
            </Position>
            <AltitudeMeters>155.399993896484375</AltitudeMeters>
            <DistanceMeters>271382.60855425</DistanceMeters>
          </Trackpoint>
          <Trackpoint>
            <Time>2018-09-14T11:36:24.000Z</Time>
            <Position>
              <LatitudeDegrees>37.88284127600491046905517578125</LatitudeDegrees>
              <LongitudeDegrees>-8.15477840602397918701171875</LongitudeDegrees>
            </Position>
            <AltitudeMeters>154.1999969482421875</AltitudeMeters>
            <DistanceMeters>271428.59421899</DistanceMeters>
          </Trackpoint>
          <Trackpoint>
            <Time>2018-09-14T11:36:34.000Z</Time>
            <Position>
              <LatitudeDegrees>37.88256132043898105621337890625</LatitudeDegrees>
              <LongitudeDegrees>-8.15540595911443233489990234375</LongitudeDegrees>
            </Position>
            <AltitudeMeters>153.399993896484375</AltitudeMeters>
            <DistanceMeters>271491.9196678</DistanceMeters>
          </Trackpoint>
          <Trackpoint>
            <Time>2018-09-14T11:36:38.000Z</Time>
            <Position>
              <LatitudeDegrees>37.88246895186603069305419921875</LatitudeDegrees>
              <LongitudeDegrees>-8.1556563265621662139892578125</LongitudeDegrees>
            </Position>
            <AltitudeMeters>153.399993896484375</AltitudeMeters>
            <DistanceMeters>271516.19783103</DistanceMeters>
          </Trackpoint>
          <Trackpoint>
            <Time>2018-09-14T11:36:48.000Z</Time>
            <Position>
              <LatitudeDegrees>37.88223073817789554595947265625</LatitudeDegrees>
              <LongitudeDegrees>-8.1563151441514492034912109375</LongitudeDegrees>
            </Position>
            <AltitudeMeters>154</AltitudeMeters>
            <DistanceMeters>271579.85743201</DistanceMeters>
          </Trackpoint>
          <Trackpoint>
            <Time>2018-09-14T11:36:58.000Z</Time>
            <Position>
              <LatitudeDegrees>37.88199998438358306884765625</LatitudeDegrees>
              <LongitudeDegrees>-8.1569736264646053314208984375</LongitudeDegrees>
            </Position>
            <AltitudeMeters>154.600006103515625</AltitudeMeters>
            <DistanceMeters>271643.1490761</DistanceMeters>
          </Trackpoint>
          <Trackpoint>
            <Time>2018-09-14T11:37:04.000Z</Time>
            <Position>
              <LatitudeDegrees>37.88189495913684368133544921875</LatitudeDegrees>
              <LongitudeDegrees>-8.157269172370433807373046875</LongitudeDegrees>
            </Position>
            <AltitudeMeters>156.1999969482421875</AltitudeMeters>
            <DistanceMeters>271671.62238454</DistanceMeters>
          </Trackpoint>
          <Trackpoint>
            <Time>2018-09-14T11:37:10.000Z</Time>
            <Position>
              <LatitudeDegrees>37.88179940544068813323974609375</LatitudeDegrees>
              <LongitudeDegrees>-8.1575378961861133575439453125</LongitudeDegrees>
            </Position>
            <AltitudeMeters>157.600006103515625</AltitudeMeters>
            <DistanceMeters>271697.51433068</DistanceMeters>
          </Trackpoint>
          <Trackpoint>
            <Time>2018-09-14T11:37:15.000Z</Time>
            <Position>
              <LatitudeDegrees>37.88173318840563297271728515625</LatitudeDegrees>
              <LongitudeDegrees>-8.15776982344686985015869140625</LongitudeDegrees>
            </Position>
            <AltitudeMeters>158.600006103515625</AltitudeMeters>
            <DistanceMeters>271719.18083834</DistanceMeters>
          </Trackpoint>
          <Trackpoint>
            <Time>2018-09-14T11:37:24.000Z</Time>
            <Position>
              <LatitudeDegrees>37.8816222958266735076904296875</LatitudeDegrees>
              <LongitudeDegrees>-8.15821607597172260284423828125</LongitudeDegrees>
            </Position>
            <AltitudeMeters>160.1999969482421875</AltitudeMeters>
            <DistanceMeters>271760.28041412</DistanceMeters>
          </Trackpoint>
          <Trackpoint>
            <Time>2018-09-14T11:37:32.000Z</Time>
            <Position>
              <LatitudeDegrees>37.8815290890634059906005859375</LatitudeDegrees>
              <LongitudeDegrees>-8.15858840011060237884521484375</LongitudeDegrees>
            </Position>
            <AltitudeMeters>161.600006103515625</AltitudeMeters>
            <DistanceMeters>271794.59440147</DistanceMeters>
          </Trackpoint>
          <Trackpoint>
            <Time>2018-09-14T11:37:41.000Z</Time>
            <Position>
              <LatitudeDegrees>37.88149078376591205596923828125</LatitudeDegrees>
              <LongitudeDegrees>-8.15880180336534976959228515625</LongitudeDegrees>
            </Position>
            <AltitudeMeters>162.399993896484375</AltitudeMeters>
            <DistanceMeters>271813.82035136</DistanceMeters>
          </Trackpoint>
          <Trackpoint>
            <Time>2018-09-14T11:37:43.000Z</Time>
            <Position>
              <LatitudeDegrees>37.88148843683302402496337890625</LatitudeDegrees>
              <LongitudeDegrees>-8.1588065810501575469970703125</LongitudeDegrees>
            </Position>
            <AltitudeMeters>162.399993896484375</AltitudeMeters>
            <DistanceMeters>271814.30489443</DistanceMeters>
          </Trackpoint>
          <Trackpoint>
            <Time>2018-09-14T11:38:54.000Z</Time>
            <Position>
              <LatitudeDegrees>37.881467901170253753662109375</LatitudeDegrees>
              <LongitudeDegrees>-8.1588766537606716156005859375</LongitudeDegrees>
            </Position>
            <AltitudeMeters>162.8000030517578125</AltitudeMeters>
            <DistanceMeters>271820.87137104</DistanceMeters>
          </Trackpoint>
          <Trackpoint>
            <Time>2018-09-14T11:38:55.000Z</Time>
            <Position>
              <LatitudeDegrees>37.881459854543209075927734375</LatitudeDegrees>
              <LongitudeDegrees>-8.1589162163436412811279296875</LongitudeDegrees>
            </Position>
            <AltitudeMeters>163</AltitudeMeters>
            <DistanceMeters>271824.46232483</DistanceMeters>
          </Trackpoint>
          <Trackpoint>
            <Time>2018-09-14T11:38:57.000Z</Time>
            <Position>
              <LatitudeDegrees>37.8814382292330265045166015625</LatitudeDegrees>
              <LongitudeDegrees>-8.15900732763111591339111328125</LongitudeDegrees>
            </Position>
            <AltitudeMeters>163.399993896484375</AltitudeMeters>
            <DistanceMeters>271832.82035518</DistanceMeters>
          </Trackpoint>
          <Trackpoint>
            <Time>2018-09-14T11:39:00.000Z</Time>
            <Position>
              <LatitudeDegrees>37.88140042684972286224365234375</LatitudeDegrees>
              <LongitudeDegrees>-8.159158788621425628662109375</LongitudeDegrees>
            </Position>
            <AltitudeMeters>164</AltitudeMeters>
            <DistanceMeters>271846.77537681</DistanceMeters>
          </Trackpoint>
          <Trackpoint>
            <Time>2018-09-14T11:39:05.000Z</Time>
            <Position>
              <LatitudeDegrees>37.8813383169472217559814453125</LatitudeDegrees>
              <LongitudeDegrees>-8.1594221480190753936767578125</LongitudeDegrees>
            </Position>
            <AltitudeMeters>164.8000030517578125</AltitudeMeters>
            <DistanceMeters>271870.92207443</DistanceMeters>
          </Trackpoint>
          <Trackpoint>
            <Time>2018-09-14T11:39:11.000Z</Time>
            <Position>
              <LatitudeDegrees>37.881259359419345855712890625</LatitudeDegrees>
              <LongitudeDegrees>-8.15972917713224887847900390625</LongitudeDegrees>
            </Position>
            <AltitudeMeters>165.600006103515625</AltitudeMeters>
            <DistanceMeters>271899.29005554</DistanceMeters>
          </Trackpoint>
          <Trackpoint>
            <Time>2018-09-14T11:39:12.000Z</Time>
            <Position>
              <LatitudeDegrees>37.881251312792301177978515625</LatitudeDegrees>
              <LongitudeDegrees>-8.15978164784610271453857421875</LongitudeDegrees>
            </Position>
            <AltitudeMeters>165.8000030517578125</AltitudeMeters>
            <DistanceMeters>271903.98595234</DistanceMeters>
          </Trackpoint>
          <Trackpoint>
            <Time>2018-09-14T11:39:16.000Z</Time>
            <Position>
              <LatitudeDegrees>37.881209738552570343017578125</LatitudeDegrees>
              <LongitudeDegrees>-8.15998591482639312744140625</LongitudeDegrees>
            </Position>
            <AltitudeMeters>166.600006103515625</AltitudeMeters>
            <DistanceMeters>271922.51786717</DistanceMeters>
          </Trackpoint>
          <Trackpoint>
            <Time>2018-09-14T11:39:20.000Z</Time>
            <Position>
              <LatitudeDegrees>37.8811669908463954925537109375</LatitudeDegrees>
              <LongitudeDegrees>-8.16017190925776958465576171875</LongitudeDegrees>
            </Position>
            <AltitudeMeters>167.1999969482421875</AltitudeMeters>
            <DistanceMeters>271939.53614093</DistanceMeters>
          </Trackpoint>
          <Trackpoint>
            <Time>2018-09-14T11:39:26.000Z</Time>
            <Position>
              <LatitudeDegrees>37.881100438535213470458984375</LatitudeDegrees>
              <LongitudeDegrees>-8.16043250262737274169921875</LongitudeDegrees>
            </Position>
            <AltitudeMeters>168.1999969482421875</AltitudeMeters>
            <DistanceMeters>271963.59761057</DistanceMeters>
          </Trackpoint>
          <Trackpoint>
            <Time>2018-09-14T11:39:32.000Z</Time>
            <Position>
              <LatitudeDegrees>37.88104721345007419586181640625</LatitudeDegrees>
              <LongitudeDegrees>-8.160678930580615997314453125</LongitudeDegrees>
            </Position>
            <AltitudeMeters>169.1999969482421875</AltitudeMeters>
            <DistanceMeters>271986.04202734</DistanceMeters>
          </Trackpoint>
          <Trackpoint>
            <Time>2018-09-14T11:39:39.000Z</Time>
            <Position>
              <LatitudeDegrees>37.8809835948050022125244140625</LatitudeDegrees>
              <LongitudeDegrees>-8.16094639711081981658935546875</LongitudeDegrees>
            </Position>
            <AltitudeMeters>170.1999969482421875</AltitudeMeters>
            <DistanceMeters>272010.58248085</DistanceMeters>
          </Trackpoint>
          <Trackpoint>
            <Time>2018-09-14T11:39:44.000Z</Time>
            <Position>
              <LatitudeDegrees>37.88094327785074710845947265625</LatitudeDegrees>
              <LongitudeDegrees>-8.16112861968576908111572265625</LongitudeDegrees>
            </Position>
            <AltitudeMeters>171.399993896484375</AltitudeMeters>
            <DistanceMeters>272027.20753964</DistanceMeters>
          </Trackpoint>
          <Trackpoint>
            <Time>2018-09-14T11:39:52.000Z</Time>
            <Position>
              <LatitudeDegrees>37.88086666725575923919677734375</LatitudeDegrees>
              <LongitudeDegrees>-8.16140874288976192474365234375</LongitudeDegrees>
            </Position>
            <AltitudeMeters>173.399993896484375</AltitudeMeters>
            <DistanceMeters>272053.25144799</DistanceMeters>
          </Trackpoint>
          <Trackpoint>
            <Time>2018-09-14T11:39:58.000Z</Time>
            <Position>
              <LatitudeDegrees>37.88081369362771511077880859375</LatitudeDegrees>
              <LongitudeDegrees>-8.1616104952991008758544921875</LongitudeDegrees>
            </Position>
            <AltitudeMeters>175</AltitudeMeters>
            <DistanceMeters>272071.93042263</DistanceMeters>
          </Trackpoint>
          <Trackpoint>
            <Time>2018-09-14T11:40:02.000Z</Time>
            <Position>
              <LatitudeDegrees>37.88076541386544704437255859375</LatitudeDegrees>
              <LongitudeDegrees>-8.16173848696053028106689453125</LongitudeDegrees>
            </Position>
            <AltitudeMeters>175.8000030517578125</AltitudeMeters>
            <DistanceMeters>272084.39233479</DistanceMeters>
          </Trackpoint>
          <Trackpoint>
            <Time>2018-09-14T11:40:07.000Z</Time>
            <Position>
              <LatitudeDegrees>37.88069400005042552947998046875</LatitudeDegrees>
              <LongitudeDegrees>-8.1618649698793888092041015625</LongitudeDegrees>
            </Position>
            <AltitudeMeters>176.600006103515625</AltitudeMeters>
            <DistanceMeters>272098.05438735</DistanceMeters>
          </Trackpoint>
          <Trackpoint>
            <Time>2018-09-14T11:40:11.000Z</Time>
            <Position>
              <LatitudeDegrees>37.8806379251182079315185546875</LatitudeDegrees>
              <LongitudeDegrees>-8.1619420833885669708251953125</LongitudeDegrees>
            </Position>
            <AltitudeMeters>177.1999969482421875</AltitudeMeters>
            <DistanceMeters>272107.26560867</DistanceMeters>
          </Trackpoint>
          <Trackpoint>
            <Time>2018-09-14T11:40:16.000Z</Time>
            <Position>
              <LatitudeDegrees>37.88053139112889766693115234375</LatitudeDegrees>
              <LongitudeDegrees>-8.16206856630742549896240234375</LongitudeDegrees>
            </Position>
            <AltitudeMeters>177.8000030517578125</AltitudeMeters>
            <DistanceMeters>272123.51573253</DistanceMeters>
          </Trackpoint>
          <Trackpoint>
            <Time>2018-09-14T11:40:23.000Z</Time>
            <Position>
              <LatitudeDegrees>37.8803931735455989837646484375</LatitudeDegrees>
              <LongitudeDegrees>-8.1622260622680187225341796875</LongitudeDegrees>
            </Position>
            <AltitudeMeters>178.8000030517578125</AltitudeMeters>
            <DistanceMeters>272144.20625848</DistanceMeters>
          </Trackpoint>
          <Trackpoint>
            <Time>2018-09-14T11:40:29.000Z</Time>
            <Position>
              <LatitudeDegrees>37.88025864399969577789306640625</LatitudeDegrees>
              <LongitudeDegrees>-8.16237081773579120635986328125</LongitudeDegrees>
            </Position>
            <AltitudeMeters>179.600006103515625</AltitudeMeters>
            <DistanceMeters>272163.85083399</DistanceMeters>
          </Trackpoint>
          <Trackpoint>
            <Time>2018-09-14T11:40:40.000Z</Time>
            <Position>
              <LatitudeDegrees>37.87997801788151264190673828125</LatitudeDegrees>
              <LongitudeDegrees>-8.162687234580516815185546875</LongitudeDegrees>
            </Position>
            <AltitudeMeters>181</AltitudeMeters>
            <DistanceMeters>272205.66312823</DistanceMeters>
          </Trackpoint>
          <Trackpoint>
            <Time>2018-09-14T11:40:41.000Z</Time>
            <Position>
              <LatitudeDegrees>37.87997131235897541046142578125</LatitudeDegrees>
              <LongitudeDegrees>-8.16272269003093242645263671875</LongitudeDegrees>
            </Position>
            <AltitudeMeters>181</AltitudeMeters>
            <DistanceMeters>272208.86596554</DistanceMeters>
          </Trackpoint>
          <Trackpoint>
            <Time>2018-09-14T11:40:49.000Z</Time>
            <Position>
              <LatitudeDegrees>37.88005831651389598846435546875</LatitudeDegrees>
              <LongitudeDegrees>-8.1629673577845096588134765625</LongitudeDegrees>
            </Position>
            <AltitudeMeters>182.600006103515625</AltitudeMeters>
            <DistanceMeters>272232.44101899</DistanceMeters>
          </Trackpoint>
          <Trackpoint>
            <Time>2018-09-14T11:40:52.000Z</Time>
            <Position>
              <LatitudeDegrees>37.880121767520904541015625</LatitudeDegrees>
              <LongitudeDegrees>-8.163011781871318817138671875</LongitudeDegrees>
            </Position>
            <AltitudeMeters>183</AltitudeMeters>
            <DistanceMeters>272240.50878144</DistanceMeters>
          </Trackpoint>
          <Trackpoint>
            <Time>2018-09-14T11:40:53.000Z</Time>
            <Position>
              <LatitudeDegrees>37.8801464103162288665771484375</LatitudeDegrees>
              <LongitudeDegrees>-8.163003735244274139404296875</LongitudeDegrees>
            </Position>
            <AltitudeMeters>183</AltitudeMeters>
            <DistanceMeters>272243.34051375</DistanceMeters>
          </Trackpoint>
          <Trackpoint>
            <Time>2018-09-14T11:40:57.000Z</Time>
            <Position>
              <LatitudeDegrees>37.8802196681499481201171875</LatitudeDegrees>
              <LongitudeDegrees>-8.16290407441556453704833984375</LongitudeDegrees>
            </Position>
            <AltitudeMeters>182.600006103515625</AltitudeMeters>
            <DistanceMeters>272255.30482618</DistanceMeters>
          </Trackpoint>
          <Trackpoint>
            <Time>2018-09-14T11:40:58.000Z</Time>
            <Position>
              <LatitudeDegrees>37.88023777306079864501953125</LatitudeDegrees>
              <LongitudeDegrees>-8.16287406720221042633056640625</LongitudeDegrees>
            </Position>
            <AltitudeMeters>182.399993896484375</AltitudeMeters>
            <DistanceMeters>272258.62260603</DistanceMeters>
          </Trackpoint>
          <Trackpoint>
            <Time>2018-09-14T11:41:05.000Z</Time>
            <Position>
              <LatitudeDegrees>37.880384288728237152099609375</LatitudeDegrees>
              <LongitudeDegrees>-8.16267642192542552947998046875</LongitudeDegrees>
            </Position>
            <AltitudeMeters>181.8000030517578125</AltitudeMeters>
            <DistanceMeters>272282.44305698</DistanceMeters>
          </Trackpoint>
          <Trackpoint>
            <Time>2018-09-14T11:41:06.000Z</Time>
            <Position>
              <LatitudeDegrees>37.88041052408516407012939453125</LatitudeDegrees>
              <LongitudeDegrees>-8.162652365863323211669921875</LongitudeDegrees>
            </Position>
            <AltitudeMeters>181.600006103515625</AltitudeMeters>
            <DistanceMeters>272286.04656221</DistanceMeters>
          </Trackpoint>
          <Trackpoint>
            <Time>2018-09-14T11:41:14.000Z</Time>
            <Position>
              <LatitudeDegrees>37.8806979395449161529541015625</LatitudeDegrees>
              <LongitudeDegrees>-8.162618838250637054443359375</LongitudeDegrees>
            </Position>
            <AltitudeMeters>181.8000030517578125</AltitudeMeters>
            <DistanceMeters>272318.17177624</DistanceMeters>
          </Trackpoint>
          <Trackpoint>
            <Time>2018-09-14T11:41:17.000Z</Time>
            <Position>
              <LatitudeDegrees>37.88081084378063678741455078125</LatitudeDegrees>
              <LongitudeDegrees>-8.162659741938114166259765625</LongitudeDegrees>
            </Position>
            <AltitudeMeters>182.1999969482421875</AltitudeMeters>
            <DistanceMeters>272331.24200907</DistanceMeters>
          </Trackpoint>
          <Trackpoint>
            <Time>2018-09-14T11:41:20.000Z</Time>
            <Position>
              <LatitudeDegrees>37.88094746880233287811279296875</LatitudeDegrees>
              <LongitudeDegrees>-8.162690587341785430908203125</LongitudeDegrees>
            </Position>
            <AltitudeMeters>182.399993896484375</AltitudeMeters>
            <DistanceMeters>272346.68845461</DistanceMeters>
          </Trackpoint>
          <Trackpoint>
            <Time>2018-09-14T11:41:22.000Z</Time>
            <Position>
              <LatitudeDegrees>37.881055511534214019775390625</LatitudeDegrees>
              <LongitudeDegrees>-8.16271967254579067230224609375</LongitudeDegrees>
            </Position>
            <AltitudeMeters>182</AltitudeMeters>
            <DistanceMeters>272358.98257595</DistanceMeters>
          </Trackpoint>
          <Trackpoint>
            <Time>2018-09-14T11:41:25.000Z</Time>
            <Position>
              <LatitudeDegrees>37.88123480044305324554443359375</LatitudeDegrees>
              <LongitudeDegrees>-8.16277013160288333892822265625</LongitudeDegrees>
            </Position>
            <AltitudeMeters>181.600006103515625</AltitudeMeters>
            <DistanceMeters>272379.4241453</DistanceMeters>
          </Trackpoint>
          <Trackpoint>
            <Time>2018-09-14T11:41:28.000Z</Time>
            <Position>
              <LatitudeDegrees>37.881436049938201904296875</LatitudeDegrees>
              <LongitudeDegrees>-8.16282360814511775970458984375</LongitudeDegrees>
            </Position>
            <AltitudeMeters>181</AltitudeMeters>
            <DistanceMeters>272402.31118692</DistanceMeters>
          </Trackpoint>
          <Trackpoint>
            <Time>2018-09-14T11:41:30.000Z</Time>
            <Position>
              <LatitudeDegrees>37.881579212844371795654296875</LatitudeDegrees>
              <LongitudeDegrees>-8.162858895957469940185546875</LongitudeDegrees>
            </Position>
            <AltitudeMeters>180.1999969482421875</AltitudeMeters>
            <DistanceMeters>272418.54407517</DistanceMeters>
          </Trackpoint>
          <Trackpoint>
            <Time>2018-09-14T11:41:31.000Z</Time>
            <Position>
              <LatitudeDegrees>37.8816521354019641876220703125</LatitudeDegrees>
              <LongitudeDegrees>-8.1628781743347644805908203125</LongitudeDegrees>
            </Position>
            <AltitudeMeters>179.600006103515625</AltitudeMeters>
            <DistanceMeters>272426.83539424</DistanceMeters>
          </Trackpoint>
          <Trackpoint>
            <Time>2018-09-14T11:41:33.000Z</Time>
            <Position>
              <LatitudeDegrees>37.88179722614586353302001953125</LatitudeDegrees>
              <LongitudeDegrees>-8.162916563451290130615234375</LongitudeDegrees>
            </Position>
            <AltitudeMeters>179</AltitudeMeters>
            <DistanceMeters>272443.33286386</DistanceMeters>
          </Trackpoint>
          <Trackpoint>
            <Time>2018-09-14T11:41:35.000Z</Time>
            <Position>
              <LatitudeDegrees>37.88193829357624053955078125</LatitudeDegrees>
              <LongitudeDegrees>-8.16295285709202289581298828125</LongitudeDegrees>
            </Position>
            <AltitudeMeters>179</AltitudeMeters>
            <DistanceMeters>272459.35437918</DistanceMeters>
          </Trackpoint>
          <Trackpoint>
            <Time>2018-09-14T11:41:39.000Z</Time>
            <Position>
              <LatitudeDegrees>37.88220425136387348175048828125</LatitudeDegrees>
              <LongitudeDegrees>-8.16302326507866382598876953125</LongitudeDegrees>
            </Position>
            <AltitudeMeters>179</AltitudeMeters>
            <DistanceMeters>272489.595278</DistanceMeters>
          </Trackpoint>
          <Trackpoint>
            <Time>2018-09-14T11:41:45.000Z</Time>
            <Position>
              <LatitudeDegrees>37.88253642618656158447265625</LatitudeDegrees>
              <LongitudeDegrees>-8.1631140410900115966796875</LongitudeDegrees>
            </Position>
            <AltitudeMeters>178.8000030517578125</AltitudeMeters>
            <DistanceMeters>272527.41710411</DistanceMeters>
          </Trackpoint>
          <Trackpoint>
            <Time>2018-09-14T11:41:51.000Z</Time>
            <Position>
              <LatitudeDegrees>37.882825098931789398193359375</LatitudeDegrees>
              <LongitudeDegrees>-8.16317900083959102630615234375</LongitudeDegrees>
            </Position>
            <AltitudeMeters>179.399993896484375</AltitudeMeters>
            <DistanceMeters>272560.04961542</DistanceMeters>
          </Trackpoint>
          <Trackpoint>
            <Time>2018-09-14T11:41:56.000Z</Time>
            <Position>
              <LatitudeDegrees>37.88303858600556850433349609375</LatitudeDegrees>
              <LongitudeDegrees>-8.1632385961711406707763671875</LongitudeDegrees>
            </Position>
            <AltitudeMeters>179.600006103515625</AltitudeMeters>
            <DistanceMeters>272584.38090827</DistanceMeters>
          </Trackpoint>
          <Trackpoint>
            <Time>2018-09-14T11:41:58.000Z</Time>
            <Position>
              <LatitudeDegrees>37.88311268202960491180419921875</LatitudeDegrees>
              <LongitudeDegrees>-8.16326089203357696533203125</LongitudeDegrees>
            </Position>
            <AltitudeMeters>179.600006103515625</AltitudeMeters>
            <DistanceMeters>272592.85695028</DistanceMeters>
          </Trackpoint>
          <Trackpoint>
            <Time>2018-09-14T11:42:02.000Z</Time>
            <Position>
              <LatitudeDegrees>37.88319717161357402801513671875</LatitudeDegrees>
              <LongitudeDegrees>-8.16331545822322368621826171875</LongitudeDegrees>
            </Position>
            <AltitudeMeters>179.600006103515625</AltitudeMeters>
            <DistanceMeters>272603.41218989</DistanceMeters>
          </Trackpoint>
          <Trackpoint>
            <Time>2018-09-14T11:42:07.000Z</Time>
            <Position>
              <LatitudeDegrees>37.88308032788336277008056640625</LatitudeDegrees>
              <LongitudeDegrees>-8.16329785622656345367431640625</LongitudeDegrees>
            </Position>
            <AltitudeMeters>179.600006103515625</AltitudeMeters>
            <DistanceMeters>272616.50899492</DistanceMeters>
          </Trackpoint>
          <Trackpoint>
            <Time>2018-09-14T11:42:12.000Z</Time>
            <Position>
              <LatitudeDegrees>37.88287631236016750335693359375</LatitudeDegrees>
              <LongitudeDegrees>-8.16323650069534778594970703125</LongitudeDegrees>
            </Position>
            <AltitudeMeters>179.600006103515625</AltitudeMeters>
            <DistanceMeters>272639.84729287</DistanceMeters>
          </Trackpoint>
          <Trackpoint>
            <Time>2018-09-14T11:42:15.000Z</Time>
            <Position>
              <LatitudeDegrees>37.88274304009974002838134765625</LatitudeDegrees>
              <LongitudeDegrees>-8.1631997041404247283935546875</LongitudeDegrees>
            </Position>
            <AltitudeMeters>179.399993896484375</AltitudeMeters>
            <DistanceMeters>272655.02898155</DistanceMeters>
          </Trackpoint>
          <Trackpoint>
            <Time>2018-09-14T11:42:19.000Z</Time>
            <Position>
              <LatitudeDegrees>37.88255310617387294769287109375</LatitudeDegrees>
              <LongitudeDegrees>-8.16316626034677028656005859375</LongitudeDegrees>
            </Position>
            <AltitudeMeters>179</AltitudeMeters>
            <DistanceMeters>272676.37215929</DistanceMeters>
          </Trackpoint>
          <Trackpoint>
            <Time>2018-09-14T11:42:26.000Z</Time>
            <Position>
              <LatitudeDegrees>37.88235864602029323577880859375</LatitudeDegrees>
              <LongitudeDegrees>-8.16335736773908138275146484375</LongitudeDegrees>
            </Position>
            <AltitudeMeters>180</AltitudeMeters>
            <DistanceMeters>272703.76376424</DistanceMeters>
          </Trackpoint>
          <Trackpoint>
            <Time>2018-09-14T11:42:27.000Z</Time>
            <Position>
              <LatitudeDegrees>37.88235730491578578948974609375</LatitudeDegrees>
              <LongitudeDegrees>-8.16337480209767818450927734375</LongitudeDegrees>
            </Position>
            <AltitudeMeters>180</AltitudeMeters>
            <DistanceMeters>272705.30190599</DistanceMeters>
          </Trackpoint>
          <Trackpoint>
            <Time>2018-09-14T11:42:29.000Z</Time>
            <Position>
              <LatitudeDegrees>37.88236049003899097442626953125</LatitudeDegrees>
              <LongitudeDegrees>-8.1633834354579448699951171875</LongitudeDegrees>
            </Position>
            <AltitudeMeters>180</AltitudeMeters>
            <DistanceMeters>272706.1411592</DistanceMeters>
          </Trackpoint>
          <Trackpoint>
            <Time>2018-09-14T11:42:40.000Z</Time>
            <Position>
              <LatitudeDegrees>37.8823086060583591461181640625</LatitudeDegrees>
              <LongitudeDegrees>-8.16341587342321872711181640625</LongitudeDegrees>
            </Position>
            <AltitudeMeters>180.1999969482421875</AltitudeMeters>
            <DistanceMeters>272712.58127885</DistanceMeters>
          </Trackpoint>
          <Trackpoint>
            <Time>2018-09-14T11:42:48.000Z</Time>
            <Position>
              <LatitudeDegrees>37.88215823471546173095703125</LatitudeDegrees>
              <LongitudeDegrees>-8.1635949946939945220947265625</LongitudeDegrees>
            </Position>
            <AltitudeMeters>181.600006103515625</AltitudeMeters>
            <DistanceMeters>272735.55338514</DistanceMeters>
          </Trackpoint>
          <Trackpoint>
            <Time>2018-09-14T11:42:53.000Z</Time>
            <Position>
              <LatitudeDegrees>37.882152535021305084228515625</LatitudeDegrees>
              <LongitudeDegrees>-8.16375718452036380767822265625</LongitudeDegrees>
            </Position>
            <AltitudeMeters>182.8000030517578125</AltitudeMeters>
            <DistanceMeters>272749.81530899</DistanceMeters>
          </Trackpoint>
          <Trackpoint>
            <Time>2018-09-14T11:42:58.000Z</Time>
            <Position>
              <LatitudeDegrees>37.88215957581996917724609375</LatitudeDegrees>
              <LongitudeDegrees>-8.1639101542532444000244140625</LongitudeDegrees>
            </Position>
            <AltitudeMeters>184</AltitudeMeters>
            <DistanceMeters>272763.27627158</DistanceMeters>
          </Trackpoint>
          <Trackpoint>
            <Time>2018-09-14T11:42:59.000Z</Time>
            <Position>
              <LatitudeDegrees>37.88216401822865009307861328125</LatitudeDegrees>
              <LongitudeDegrees>-8.1639396585524082183837890625</LongitudeDegrees>
            </Position>
            <AltitudeMeters>184.1999969482421875</AltitudeMeters>
            <DistanceMeters>272765.9165782</DistanceMeters>
          </Trackpoint>
          <Trackpoint>
            <Time>2018-09-14T11:43:03.000Z</Time>
            <Position>
              <LatitudeDegrees>37.88216368295252323150634765625</LatitudeDegrees>
              <LongitudeDegrees>-8.16404568962752819061279296875</LongitudeDegrees>
            </Position>
            <AltitudeMeters>185</AltitudeMeters>
            <DistanceMeters>272775.23162004</DistanceMeters>
          </Trackpoint>
          <Trackpoint>
            <Time>2018-09-14T11:43:04.000Z</Time>
            <Position>
              <LatitudeDegrees>37.88215077482163906097412109375</LatitudeDegrees>
              <LongitudeDegrees>-8.16405725665390491485595703125</LongitudeDegrees>
            </Position>
            <AltitudeMeters>185.1999969482421875</AltitudeMeters>
            <DistanceMeters>272776.99410303</DistanceMeters>
          </Trackpoint>
          <Trackpoint>
            <Time>2018-09-14T11:43:07.000Z</Time>
            <Position>
              <LatitudeDegrees>37.8821146488189697265625</LatitudeDegrees>
              <LongitudeDegrees>-8.16406748257577419281005859375</LongitudeDegrees>
            </Position>
            <AltitudeMeters>185.1999969482421875</AltitudeMeters>
            <DistanceMeters>272781.11326723</DistanceMeters>
          </Trackpoint>
          <Trackpoint>
            <Time>2018-09-14T11:43:08.000Z</Time>
            <Position>
              <LatitudeDegrees>37.88211037404835224151611328125</LatitudeDegrees>
              <LongitudeDegrees>-8.1640684045851230621337890625</LongitudeDegrees>
            </Position>
            <AltitudeMeters>185.1999969482421875</AltitudeMeters>
            <DistanceMeters>272781.5978103</DistanceMeters>
          </Trackpoint>
          <Trackpoint>
            <Time>2018-09-14T11:59:23.000Z</Time>
            <Position>
              <LatitudeDegrees>37.88202856667339801788330078125</LatitudeDegrees>
              <LongitudeDegrees>-8.1640026904642581939697265625</LongitudeDegrees>
            </Position>
            <AltitudeMeters>184.600006103515625</AltitudeMeters>
            <DistanceMeters>272792.37821306</DistanceMeters>
          </Trackpoint>
          <Trackpoint>
            <Time>2018-09-14T11:59:24.000Z</Time>
            <Position>
              <LatitudeDegrees>37.88202739320695400238037109375</LatitudeDegrees>
              <LongitudeDegrees>-8.164001516997814178466796875</LongitudeDegrees>
            </Position>
            <AltitudeMeters>184.600006103515625</AltitudeMeters>
            <DistanceMeters>272792.51260113</DistanceMeters>
          </Trackpoint>
          <Trackpoint>
            <Time>2018-09-14T11:59:47.000Z</Time>
            <Position>
              <LatitudeDegrees>37.8818784467875957489013671875</LatitudeDegrees>
              <LongitudeDegrees>-8.1639212183654308319091796875</LongitudeDegrees>
            </Position>
            <AltitudeMeters>184.1999969482421875</AltitudeMeters>
            <DistanceMeters>272810.52912488</DistanceMeters>
          </Trackpoint>
          <Trackpoint>
            <Time>2018-09-14T11:59:52.000Z</Time>
            <Position>
              <LatitudeDegrees>37.88181130774319171905517578125</LatitudeDegrees>
              <LongitudeDegrees>-8.16386975347995758056640625</LongitudeDegrees>
            </Position>
            <AltitudeMeters>184</AltitudeMeters>
            <DistanceMeters>272819.2633155</DistanceMeters>
          </Trackpoint>
          <Trackpoint>
            <Time>2018-09-14T11:59:54.000Z</Time>
            <Position>
              <LatitudeDegrees>37.881791107356548309326171875</LatitudeDegrees>
              <LongitudeDegrees>-8.16385340876877307891845703125</LongitudeDegrees>
            </Position>
            <AltitudeMeters>183.8000030517578125</AltitudeMeters>
            <DistanceMeters>272821.93084249</DistanceMeters>
          </Trackpoint>
          <Trackpoint>
            <Time>2018-09-14T12:00:12.000Z</Time>
            <Position>
              <LatitudeDegrees>37.8817815519869327545166015625</LatitudeDegrees>
              <LongitudeDegrees>-8.1637529097497463226318359375</LongitudeDegrees>
            </Position>
            <AltitudeMeters>183.1999969482421875</AltitudeMeters>
            <DistanceMeters>272830.82384027</DistanceMeters>
          </Trackpoint>
          <Trackpoint>
            <Time>2018-09-14T12:02:05.000Z</Time>
            <Position>
              <LatitudeDegrees>37.88137511350214481353759765625</LatitudeDegrees>
              <LongitudeDegrees>-8.1640543229877948760986328125</LongitudeDegrees>
            </Position>
            <AltitudeMeters>186.600006103515625</AltitudeMeters>
            <DistanceMeters>272883.24087222</DistanceMeters>
          </Trackpoint>
          <Trackpoint>
            <Time>2018-09-14T12:02:13.000Z</Time>
            <Position>
              <LatitudeDegrees>37.88136689923703670501708984375</LatitudeDegrees>
              <LongitudeDegrees>-8.164177872240543365478515625</LongitudeDegrees>
            </Position>
            <AltitudeMeters>187.600006103515625</AltitudeMeters>
            <DistanceMeters>272894.1333547</DistanceMeters>
          </Trackpoint>
          <Trackpoint>
            <Time>2018-09-14T12:02:20.000Z</Time>
            <Position>
              <LatitudeDegrees>37.88139154203236103057861328125</LatitudeDegrees>
              <LongitudeDegrees>-8.1642222963273525238037109375</LongitudeDegrees>
            </Position>
            <AltitudeMeters>187.8000030517578125</AltitudeMeters>
            <DistanceMeters>272898.90176455</DistanceMeters>
          </Trackpoint>
          <Trackpoint>
            <Time>2018-09-14T12:02:25.000Z</Time>
            <Position>
              <LatitudeDegrees>37.88143127225339412689208984375</LatitudeDegrees>
              <LongitudeDegrees>-8.16426814533770084381103515625</LongitudeDegrees>
            </Position>
            <AltitudeMeters>188</AltitudeMeters>
            <DistanceMeters>272904.88316596</DistanceMeters>
          </Trackpoint>
          <Trackpoint>
            <Time>2018-09-14T12:02:29.000Z</Time>
            <Position>
              <LatitudeDegrees>37.88146865554153919219970703125</LatitudeDegrees>
              <LongitudeDegrees>-8.16432975232601165771484375</LongitudeDegrees>
            </Position>
            <AltitudeMeters>188.8000030517578125</AltitudeMeters>
            <DistanceMeters>272911.70989464</DistanceMeters>
          </Trackpoint>
          <Trackpoint>
            <Time>2018-09-14T12:02:31.000Z</Time>
            <Position>
              <LatitudeDegrees>37.88149145431816577911376953125</LatitudeDegrees>
              <LongitudeDegrees>-8.1643446721136569976806640625</LongitudeDegrees>
            </Position>
            <AltitudeMeters>188.8000030517578125</AltitudeMeters>
            <DistanceMeters>272914.56386187</DistanceMeters>
          </Trackpoint>
          <Trackpoint>
            <Time>2018-09-14T12:02:45.000Z</Time>
            <Position>
              <LatitudeDegrees>37.88177945651113986968994140625</LatitudeDegrees>
              <LongitudeDegrees>-8.1641535647213459014892578125</LongitudeDegrees>
            </Position>
            <AltitudeMeters>186</AltitudeMeters>
            <DistanceMeters>272950.74945576</DistanceMeters>
          </Trackpoint>
          <Trackpoint>
            <Time>2018-09-14T12:02:53.000Z</Time>
            <Position>
              <LatitudeDegrees>37.881978191435337066650390625</LatitudeDegrees>
              <LongitudeDegrees>-8.163967989385128021240234375</LongitudeDegrees>
            </Position>
            <AltitudeMeters>184.399993896484375</AltitudeMeters>
            <DistanceMeters>272978.22779035</DistanceMeters>
          </Trackpoint>
          <Trackpoint>
            <Time>2018-09-14T12:03:23.000Z</Time>
            <Position>
              <LatitudeDegrees>37.88226761855185031890869140625</LatitudeDegrees>
              <LongitudeDegrees>-8.16392742097377777099609375</LongitudeDegrees>
            </Position>
            <AltitudeMeters>184</AltitudeMeters>
            <DistanceMeters>273010.63816943</DistanceMeters>
          </Trackpoint>
          <Trackpoint>
            <Time>2018-09-14T12:03:51.000Z</Time>
            <Position>
              <LatitudeDegrees>37.8822878189384937286376953125</LatitudeDegrees>
              <LongitudeDegrees>-8.16396438516676425933837890625</LongitudeDegrees>
            </Position>
            <AltitudeMeters>184.399993896484375</AltitudeMeters>
            <DistanceMeters>273014.58606912</DistanceMeters>
          </Trackpoint>
          <Trackpoint>
            <Time>2018-09-14T12:03:54.000Z</Time>
            <Position>
              <LatitudeDegrees>37.88224004209041595458984375</LatitudeDegrees>
              <LongitudeDegrees>-8.1639859266579151153564453125</LongitudeDegrees>
            </Position>
            <AltitudeMeters>184.600006103515625</AltitudeMeters>
            <DistanceMeters>273020.23036799</DistanceMeters>
          </Trackpoint>
          <Trackpoint>
            <Time>2018-09-14T12:13:49.000Z</Time>
            <Position>
              <LatitudeDegrees>37.8816412389278411865234375</LatitudeDegrees>
              <LongitudeDegrees>-8.16405273042619228363037109375</LongitudeDegrees>
            </Position>
            <AltitudeMeters>185.8000030517578125</AltitudeMeters>
            <DistanceMeters>273087.13619355</DistanceMeters>
          </Trackpoint>
          <Trackpoint>
            <Time>2018-09-14T12:13:50.000Z</Time>
            <Position>
              <LatitudeDegrees>37.88165121339261531829833984375</LatitudeDegrees>
              <LongitudeDegrees>-8.16404468379914760589599609375</LongitudeDegrees>
            </Position>
            <AltitudeMeters>185.600006103515625</AltitudeMeters>
            <DistanceMeters>273088.45292233</DistanceMeters>
          </Trackpoint>
          <Trackpoint>
            <Time>2018-09-14T12:13:58.000Z</Time>
            <Position>
              <LatitudeDegrees>37.88168809376657009124755859375</LatitudeDegrees>
              <LongitudeDegrees>-8.16412129439413547515869140625</LongitudeDegrees>
            </Position>
            <AltitudeMeters>186</AltitudeMeters>
            <DistanceMeters>273096.33613146</DistanceMeters>
          </Trackpoint>
          <Trackpoint>
            <Time>2018-09-14T12:14:02.000Z</Time>
            <Position>
              <LatitudeDegrees>37.88168105296790599822998046875</LatitudeDegrees>
              <LongitudeDegrees>-8.16410352475941181182861328125</LongitudeDegrees>
            </Position>
            <AltitudeMeters>186</AltitudeMeters>
            <DistanceMeters>273098.08317634</DistanceMeters>
          </Trackpoint>
          <Trackpoint>
            <Time>2018-09-14T12:14:13.000Z</Time>
            <Position>
              <LatitudeDegrees>37.8816095553338527679443359375</LatitudeDegrees>
              <LongitudeDegrees>-8.16403429023921489715576171875</LongitudeDegrees>
            </Position>
            <AltitudeMeters>185.600006103515625</AltitudeMeters>
            <DistanceMeters>273108.0993707</DistanceMeters>
          </Trackpoint>
          <Trackpoint>
            <Time>2018-09-14T12:14:17.000Z</Time>
            <Position>
              <LatitudeDegrees>37.88157217204570770263671875</LatitudeDegrees>
              <LongitudeDegrees>-8.1640610285103321075439453125</LongitudeDegrees>
            </Position>
            <AltitudeMeters>186</AltitudeMeters>
            <DistanceMeters>273112.87912941</DistanceMeters>
          </Trackpoint>
          <Trackpoint>
            <Time>2018-09-14T12:27:04.000Z</Time>
            <Position>
              <LatitudeDegrees>37.882215566933155059814453125</LatitudeDegrees>
              <LongitudeDegrees>-8.1642870046198368072509765625</LongitudeDegrees>
            </Position>
            <AltitudeMeters>187.1999969482421875</AltitudeMeters>
            <DistanceMeters>273187.19093143</DistanceMeters>
          </Trackpoint>
          <Trackpoint>
            <Time>2018-09-14T12:27:15.000Z</Time>
            <Position>
              <LatitudeDegrees>37.8825878910720348358154296875</LatitudeDegrees>
              <LongitudeDegrees>-8.16422590054571628570556640625</LongitudeDegrees>
            </Position>
            <AltitudeMeters>186.600006103515625</AltitudeMeters>
            <DistanceMeters>273228.97762574</DistanceMeters>
          </Trackpoint>
          <Trackpoint>
            <Time>2018-09-14T12:27:38.000Z</Time>
            <Position>
              <LatitudeDegrees>37.8826006315648555755615234375</LatitudeDegrees>
              <LongitudeDegrees>-8.163886182010173797607421875</LongitudeDegrees>
            </Position>
            <AltitudeMeters>183.8000030517578125</AltitudeMeters>
            <DistanceMeters>273258.85472595</DistanceMeters>
          </Trackpoint>
          <Trackpoint>
            <Time>2018-09-14T12:27:56.000Z</Time>
            <Position>
              <LatitudeDegrees>37.8823756612837314605712890625</LatitudeDegrees>
              <LongitudeDegrees>-8.1637861020863056182861328125</LongitudeDegrees>
            </Position>
            <AltitudeMeters>182.8000030517578125</AltitudeMeters>
            <DistanceMeters>273285.39288191</DistanceMeters>
          </Trackpoint>
          <Trackpoint>
            <Time>2018-09-14T12:28:06.000Z</Time>
            <Position>
              <LatitudeDegrees>37.8822774253785610198974609375</LatitudeDegrees>
              <LongitudeDegrees>-8.16374192945659160614013671875</LongitudeDegrees>
            </Position>
            <AltitudeMeters>182.600006103515625</AltitudeMeters>
            <DistanceMeters>273296.99470589</DistanceMeters>
          </Trackpoint>
          <Trackpoint>
            <Time>2018-09-14T13:18:58.000Z</Time>
            <Position>
              <LatitudeDegrees>37.88212965242564678192138671875</LatitudeDegrees>
              <LongitudeDegrees>-8.1639500521123409271240234375</LongitudeDegrees>
            </Position>
            <AltitudeMeters>184.1999969482421875</AltitudeMeters>
            <DistanceMeters>273321.5871716</DistanceMeters>
          </Trackpoint>
          <Trackpoint>
            <Time>2018-09-14T13:18:59.000Z</Time>
            <Position>
              <LatitudeDegrees>37.88213535211980342864990234375</LatitudeDegrees>
              <LongitudeDegrees>-8.1639208830893039703369140625</LongitudeDegrees>
            </Position>
            <AltitudeMeters>184</AltitudeMeters>
            <DistanceMeters>273324.22747821</DistanceMeters>
          </Trackpoint>
          <Trackpoint>
            <Time>2018-09-14T13:19:00.000Z</Time>
            <Position>
              <LatitudeDegrees>37.88213887251913547515869140625</LatitudeDegrees>
              <LongitudeDegrees>-8.1638870202004909515380859375</LongitudeDegrees>
            </Position>
            <AltitudeMeters>183.8000030517578125</AltitudeMeters>
            <DistanceMeters>273327.22647073</DistanceMeters>
          </Trackpoint>
          <Trackpoint>
            <Time>2018-09-14T13:19:01.000Z</Time>
            <Position>
              <LatitudeDegrees>37.88214758969843387603759765625</LatitudeDegrees>
              <LongitudeDegrees>-8.163847960531711578369140625</LongitudeDegrees>
            </Position>
            <AltitudeMeters>183.399993896484375</AltitudeMeters>
            <DistanceMeters>273330.79218912</DistanceMeters>
          </Trackpoint>
          <Trackpoint>
            <Time>2018-09-14T13:19:02.000Z</Time>
            <Position>
              <LatitudeDegrees>37.8821590729057788848876953125</LatitudeDegrees>
              <LongitudeDegrees>-8.16380043514072895050048828125</LongitudeDegrees>
            </Position>
            <AltitudeMeters>183</AltitudeMeters>
            <DistanceMeters>273335.15928443</DistanceMeters>
          </Trackpoint>
          <Trackpoint>
            <Time>2018-09-14T13:19:03.000Z</Time>
            <Position>
              <LatitudeDegrees>37.88216535933315753936767578125</LatitudeDegrees>
              <LongitudeDegrees>-8.16374494694173336029052734375</LongitudeDegrees>
            </Position>
            <AltitudeMeters>182.600006103515625</AltitudeMeters>
            <DistanceMeters>273340.08419919</DistanceMeters>
          </Trackpoint>
          <Trackpoint>
            <Time>2018-09-14T13:19:04.000Z</Time>
            <Position>
              <LatitudeDegrees>37.882167957723140716552734375</LatitudeDegrees>
              <LongitudeDegrees>-8.1636831723153591156005859375</LongitudeDegrees>
            </Position>
            <AltitudeMeters>182.1999969482421875</AltitudeMeters>
            <DistanceMeters>273345.51819863</DistanceMeters>
          </Trackpoint>
          <Trackpoint>
            <Time>2018-09-14T13:19:05.000Z</Time>
            <Position>
              <LatitudeDegrees>37.88216703571379184722900390625</LatitudeDegrees>
              <LongitudeDegrees>-8.1636214815080165863037109375</LongitudeDegrees>
            </Position>
            <AltitudeMeters>181.8000030517578125</AltitudeMeters>
            <DistanceMeters>273350.93805459</DistanceMeters>
          </Trackpoint>
          <Trackpoint>
            <Time>2018-09-14T13:19:06.000Z</Time>
            <Position>
              <LatitudeDegrees>37.88216368295252323150634765625</LatitudeDegrees>
              <LongitudeDegrees>-8.1635688431560993194580078125</LongitudeDegrees>
            </Position>
            <AltitudeMeters>181.399993896484375</AltitudeMeters>
            <DistanceMeters>273355.57687688</DistanceMeters>
          </Trackpoint>
          <Trackpoint>
            <Time>2018-09-14T13:19:07.000Z</Time>
            <Position>
              <LatitudeDegrees>37.88216468878090381622314453125</LatitudeDegrees>
              <LongitudeDegrees>-8.16352651454508304595947265625</LongitudeDegrees>
            </Position>
            <AltitudeMeters>181</AltitudeMeters>
            <DistanceMeters>273359.2962958</DistanceMeters>
          </Trackpoint>
          <Trackpoint>
            <Time>2018-09-14T13:19:08.000Z</Time>
            <Position>
              <LatitudeDegrees>37.8821785189211368560791015625</LatitudeDegrees>
              <LongitudeDegrees>-8.1634890474379062652587890625</LongitudeDegrees>
            </Position>
            <AltitudeMeters>180.8000030517578125</AltitudeMeters>
            <DistanceMeters>273362.92974757</DistanceMeters>
          </Trackpoint>
          <Trackpoint>
            <Time>2018-09-14T13:19:09.000Z</Time>
            <Position>
              <LatitudeDegrees>37.88220307789742946624755859375</LatitudeDegrees>
              <LongitudeDegrees>-8.16345535218715667724609375</LongitudeDegrees>
            </Position>
            <AltitudeMeters>180.600006103515625</AltitudeMeters>
            <DistanceMeters>273366.95914919</DistanceMeters>
          </Trackpoint>
          <Trackpoint>
            <Time>2018-09-14T13:19:10.000Z</Time>
            <Position>
              <LatitudeDegrees>37.8822368569672107696533203125</LatitudeDegrees>
              <LongitudeDegrees>-8.1634203158318996429443359375</LongitudeDegrees>
            </Position>
            <AltitudeMeters>180.399993896484375</AltitudeMeters>
            <DistanceMeters>273371.81760778</DistanceMeters>
          </Trackpoint>
          <Trackpoint>
            <Time>2018-09-14T13:19:11.000Z</Time>
            <Position>
              <LatitudeDegrees>37.88227180950343608856201171875</LatitudeDegrees>
              <LongitudeDegrees>-8.1633968465030193328857421875</LongitudeDegrees>
            </Position>
            <AltitudeMeters>180.1999969482421875</AltitudeMeters>
            <DistanceMeters>273376.21971455</DistanceMeters>
          </Trackpoint>
          <Trackpoint>
            <Time>2018-09-14T13:19:12.000Z</Time>
            <Position>
              <LatitudeDegrees>37.88230902515351772308349609375</LatitudeDegrees>
              <LongitudeDegrees>-8.16337765194475650787353515625</LongitudeDegrees>
            </Position>
            <AltitudeMeters>180</AltitudeMeters>
            <DistanceMeters>273380.69102188</DistanceMeters>
          </Trackpoint>
          <Trackpoint>
            <Time>2018-09-14T13:19:13.000Z</Time>
            <Position>
              <LatitudeDegrees>37.88234255276620388031005859375</LatitudeDegrees>
              <LongitudeDegrees>-8.163353092968463897705078125</LongitudeDegrees>
            </Position>
            <AltitudeMeters>180</AltitudeMeters>
            <DistanceMeters>273384.99983113</DistanceMeters>
          </Trackpoint>
          <Trackpoint>
            <Time>2018-09-14T13:19:14.000Z</Time>
            <Position>
              <LatitudeDegrees>37.88237356580793857574462890625</LatitudeDegrees>
              <LongitudeDegrees>-8.16332182846963405609130859375</LongitudeDegrees>
            </Position>
            <AltitudeMeters>179.8000030517578125</AltitudeMeters>
            <DistanceMeters>273389.41013551</DistanceMeters>
          </Trackpoint>
          <Trackpoint>
            <Time>2018-09-14T13:19:15.000Z</Time>
            <Position>
              <LatitudeDegrees>37.882401980459690093994140625</LatitudeDegrees>
              <LongitudeDegrees>-8.16328092478215694427490234375</LongitudeDegrees>
            </Position>
            <AltitudeMeters>179.600006103515625</AltitudeMeters>
            <DistanceMeters>273394.19744519</DistanceMeters>
          </Trackpoint>
          <Trackpoint>
            <Time>2018-09-14T13:19:16.000Z</Time>
            <Position>
              <LatitudeDegrees>37.88242645561695098876953125</LatitudeDegrees>
              <LongitudeDegrees>-8.16323935054242610931396484375</LongitudeDegrees>
            </Position>
            <AltitudeMeters>179.399993896484375</AltitudeMeters>
            <DistanceMeters>273398.75476631</DistanceMeters>
          </Trackpoint>
          <Trackpoint>
            <Time>2018-09-14T13:19:17.000Z</Time>
            <Position>
              <LatitudeDegrees>37.882447578012943267822265625</LatitudeDegrees>
              <LongitudeDegrees>-8.16319794394075870513916015625</LongitudeDegrees>
            </Position>
            <AltitudeMeters>179.1999969482421875</AltitudeMeters>
            <DistanceMeters>273403.08656719</DistanceMeters>
          </Trackpoint>
          <Trackpoint>
            <Time>2018-09-14T13:19:18.000Z</Time>
            <Position>
              <LatitudeDegrees>37.88246107287704944610595703125</LatitudeDegrees>
              <LongitudeDegrees>-8.16315896809101104736328125</LongitudeDegrees>
            </Position>
            <AltitudeMeters>179</AltitudeMeters>
            <DistanceMeters>273406.82535822</DistanceMeters>
          </Trackpoint>
          <Trackpoint>
            <Time>2018-09-14T13:19:19.000Z</Time>
            <Position>
              <LatitudeDegrees>37.8824544511735439300537109375</LatitudeDegrees>
              <LongitudeDegrees>-8.16312418319284915924072265625</LongitudeDegrees>
            </Position>
            <AltitudeMeters>179</AltitudeMeters>
            <DistanceMeters>273409.96843054</DistanceMeters>
          </Trackpoint>
          <Trackpoint>
            <Time>2018-09-14T13:19:20.000Z</Time>
            <Position>
              <LatitudeDegrees>37.88242955692112445831298828125</LatitudeDegrees>
              <LongitudeDegrees>-8.1631007976830005645751953125</LongitudeDegrees>
            </Position>
            <AltitudeMeters>179</AltitudeMeters>
            <DistanceMeters>273413.41830601</DistanceMeters>
          </Trackpoint>
          <Trackpoint>
            <Time>2018-09-14T13:19:21.000Z</Time>
            <Position>
              <LatitudeDegrees>37.88239703513681888580322265625</LatitudeDegrees>
              <LongitudeDegrees>-8.16308646462857723236083984375</LongitudeDegrees>
            </Position>
            <AltitudeMeters>179</AltitudeMeters>
            <DistanceMeters>273417.25013381</DistanceMeters>
          </Trackpoint>
          <Trackpoint>
            <Time>2018-09-14T13:19:22.000Z</Time>
            <Position>
              <LatitudeDegrees>37.88236082531511783599853515625</LatitudeDegrees>
              <LongitudeDegrees>-8.16307707689702510833740234375</LongitudeDegrees>
            </Position>
            <AltitudeMeters>179</AltitudeMeters>
            <DistanceMeters>273421.36161811</DistanceMeters>
          </Trackpoint>
          <Trackpoint>
            <Time>2018-09-14T13:19:23.000Z</Time>
            <Position>
              <LatitudeDegrees>37.882321178913116455078125</LatitudeDegrees>
              <LongitudeDegrees>-8.1630709581077098846435546875</LongitudeDegrees>
            </Position>
            <AltitudeMeters>179</AltitudeMeters>
            <DistanceMeters>273425.80659361</DistanceMeters>
          </Trackpoint>
          <Trackpoint>
            <Time>2018-09-14T13:19:24.000Z</Time>
            <Position>
              <LatitudeDegrees>37.8822794370353221893310546875</LatitudeDegrees>
              <LongitudeDegrees>-8.1630649231374263763427734375</LongitudeDegrees>
            </Position>
            <AltitudeMeters>179</AltitudeMeters>
            <DistanceMeters>273430.48322115</DistanceMeters>
          </Trackpoint>
          <Trackpoint>
            <Time>2018-09-14T13:19:25.000Z</Time>
            <Position>
              <LatitudeDegrees>37.8822366893291473388671875</LatitudeDegrees>
              <LongitudeDegrees>-8.16305637359619140625</LongitudeDegrees>
            </Position>
            <AltitudeMeters>179</AltitudeMeters>
            <DistanceMeters>273435.29967902</DistanceMeters>
          </Trackpoint>
          <Trackpoint>
            <Time>2018-09-14T13:19:26.000Z</Time>
            <Position>
              <LatitudeDegrees>37.88219285197556018829345703125</LatitudeDegrees>
              <LongitudeDegrees>-8.16304388456046581268310546875</LongitudeDegrees>
            </Position>
            <AltitudeMeters>179</AltitudeMeters>
            <DistanceMeters>273440.30101002</DistanceMeters>
          </Trackpoint>
          <Trackpoint>
            <Time>2018-09-14T13:19:27.000Z</Time>
            <Position>
              <LatitudeDegrees>37.88214876316487789154052734375</LatitudeDegrees>
              <LongitudeDegrees>-8.16302728839218616485595703125</LongitudeDegrees>
            </Position>
            <AltitudeMeters>179</AltitudeMeters>
            <DistanceMeters>273445.4201195</DistanceMeters>
          </Trackpoint>
          <Trackpoint>
            <Time>2018-09-14T13:19:28.000Z</Time>
            <Position>
              <LatitudeDegrees>37.88210350088775157928466796875</LatitudeDegrees>
              <LongitudeDegrees>-8.163013122975826263427734375</LongitudeDegrees>
            </Position>
            <AltitudeMeters>179</AltitudeMeters>
            <DistanceMeters>273450.60930902</DistanceMeters>
          </Trackpoint>
          <Trackpoint>
            <Time>2018-09-14T13:19:29.000Z</Time>
            <Position>
              <LatitudeDegrees>37.882057987153530120849609375</LatitudeDegrees>
              <LongitudeDegrees>-8.1630028970539569854736328125</LongitudeDegrees>
            </Position>
            <AltitudeMeters>179</AltitudeMeters>
            <DistanceMeters>273455.75393283</DistanceMeters>
          </Trackpoint>
          <Trackpoint>
            <Time>2018-09-14T13:19:30.000Z</Time>
            <Position>
              <LatitudeDegrees>37.88201163522899150848388671875</LatitudeDegrees>
              <LongitudeDegrees>-8.16299225203692913055419921875</LongitudeDegrees>
            </Position>
            <AltitudeMeters>179</AltitudeMeters>
            <DistanceMeters>273460.99679013</DistanceMeters>
          </Trackpoint>
          <Trackpoint>
            <Time>2018-09-14T13:19:31.000Z</Time>
            <Position>
              <LatitudeDegrees>37.88196452893316745758056640625</LatitudeDegrees>
              <LongitudeDegrees>-8.16298060119152069091796875</LongitudeDegrees>
            </Position>
            <AltitudeMeters>179</AltitudeMeters>
            <DistanceMeters>273466.33861019</DistanceMeters>
          </Trackpoint>
          <Trackpoint>
            <Time>2018-09-14T13:19:32.000Z</Time>
            <Position>
              <LatitudeDegrees>37.88191708736121654510498046875</LatitudeDegrees>
              <LongitudeDegrees>-8.16296987235546112060546875</LongitudeDegrees>
            </Position>
            <AltitudeMeters>179</AltitudeMeters>
            <DistanceMeters>273471.70236107</DistanceMeters>
          </Trackpoint>
          <Trackpoint>
            <Time>2018-09-14T13:19:33.000Z</Time>
            <Position>
              <LatitudeDegrees>37.88186947815120220184326171875</LatitudeDegrees>
              <LongitudeDegrees>-8.16296107135713100433349609375</LongitudeDegrees>
            </Position>
            <AltitudeMeters>179</AltitudeMeters>
            <DistanceMeters>273477.05684449</DistanceMeters>
          </Trackpoint>
          <Trackpoint>
            <Time>2018-09-14T13:19:34.000Z</Time>
            <Position>
              <LatitudeDegrees>37.8818217851221561431884765625</LatitudeDegrees>
              <LongitudeDegrees>-8.16295017488300800323486328125</LongitudeDegrees>
            </Position>
            <AltitudeMeters>179.1999969482421875</AltitudeMeters>
            <DistanceMeters>273482.45081393</DistanceMeters>
          </Trackpoint>
          <Trackpoint>
            <Time>2018-09-14T13:19:35.000Z</Time>
            <Position>
              <LatitudeDegrees>37.88177526555955410003662109375</LatitudeDegrees>
              <LongitudeDegrees>-8.1629361771047115325927734375</LongitudeDegrees>
            </Position>
            <AltitudeMeters>179.1999969482421875</AltitudeMeters>
            <DistanceMeters>273487.77315832</DistanceMeters>
          </Trackpoint>
          <Trackpoint>
            <Time>2018-09-14T13:19:36.000Z</Time>
            <Position>
              <LatitudeDegrees>37.8817299194633960723876953125</LatitudeDegrees>
              <LongitudeDegrees>-8.1629227660596370697021484375</LongitudeDegrees>
            </Position>
            <AltitudeMeters>179.1999969482421875</AltitudeMeters>
            <DistanceMeters>273492.95625367</DistanceMeters>
          </Trackpoint>
          <Trackpoint>
            <Time>2018-09-14T13:19:37.000Z</Time>
            <Position>
              <LatitudeDegrees>37.88168541155755519866943359375</LatitudeDegrees>
              <LongitudeDegrees>-8.16291161812841892242431640625</LongitudeDegrees>
            </Position>
            <AltitudeMeters>179.399993896484375</AltitudeMeters>
            <DistanceMeters>273498.00520463</DistanceMeters>
          </Trackpoint>
          <Trackpoint>
            <Time>2018-09-14T13:19:38.000Z</Time>
            <Position>
              <LatitudeDegrees>37.8816417418420314788818359375</LatitudeDegrees>
              <LongitudeDegrees>-8.16290088929235935211181640625</LongitudeDegrees>
            </Position>
            <AltitudeMeters>179.8000030517578125</AltitudeMeters>
            <DistanceMeters>273502.95572253</DistanceMeters>
          </Trackpoint>
          <Trackpoint>
            <Time>2018-09-14T13:19:39.000Z</Time>
            <Position>
              <LatitudeDegrees>37.8816001676023006439208984375</LatitudeDegrees>
              <LongitudeDegrees>-8.162890411913394927978515625</LongitudeDegrees>
            </Position>
            <AltitudeMeters>180.1999969482421875</AltitudeMeters>
            <DistanceMeters>273507.67272459</DistanceMeters>
          </Trackpoint>
          <Trackpoint>
            <Time>2018-09-14T13:19:40.000Z</Time>
            <Position>
              <LatitudeDegrees>37.88156219758093357086181640625</LatitudeDegrees>
              <LongitudeDegrees>-8.1628805212676525115966796875</LongitudeDegrees>
            </Position>
            <AltitudeMeters>180.399993896484375</AltitudeMeters>
            <DistanceMeters>273511.98572325</DistanceMeters>
          </Trackpoint>
          <Trackpoint>
            <Time>2018-09-14T13:19:41.000Z</Time>
            <Position>
              <LatitudeDegrees>37.88152783177793025970458984375</LatitudeDegrees>
              <LongitudeDegrees>-8.1628697924315929412841796875</LongitudeDegrees>
            </Position>
            <AltitudeMeters>180.600006103515625</AltitudeMeters>
            <DistanceMeters>273515.92446306</DistanceMeters>
          </Trackpoint>
          <Trackpoint>
            <Time>2018-09-14T13:19:42.000Z</Time>
            <Position>
              <LatitudeDegrees>37.88149572908878326416015625</LatitudeDegrees>
              <LongitudeDegrees>-8.1628620810806751251220703125</LongitudeDegrees>
            </Position>
            <AltitudeMeters>180.8000030517578125</AltitudeMeters>
            <DistanceMeters>273519.56039925</DistanceMeters>
          </Trackpoint>
          <Trackpoint>
            <Time>2018-09-14T13:19:43.000Z</Time>
            <Position>
              <LatitudeDegrees>37.8814667277038097381591796875</LatitudeDegrees>
              <LongitudeDegrees>-8.16285478882491588592529296875</LongitudeDegrees>
            </Position>
            <AltitudeMeters>181</AltitudeMeters>
            <DistanceMeters>273522.85084931</DistanceMeters>
          </Trackpoint>
          <Trackpoint>
            <Time>2018-09-14T13:19:44.000Z</Time>
            <Position>
              <LatitudeDegrees>37.8814419172704219818115234375</LatitudeDegrees>
              <LongitudeDegrees>-8.16284380853176116943359375</LongitudeDegrees>
            </Position>
            <AltitudeMeters>181</AltitudeMeters>
            <DistanceMeters>273525.77668466</DistanceMeters>
          </Trackpoint>
          <Trackpoint>
            <Time>2018-09-14T13:19:45.000Z</Time>
            <Position>
              <LatitudeDegrees>37.8814224712550640106201171875</LatitudeDegrees>
              <LongitudeDegrees>-8.16283131949603557586669921875</LongitudeDegrees>
            </Position>
            <AltitudeMeters>181</AltitudeMeters>
            <DistanceMeters>273528.20312441</DistanceMeters>
          </Trackpoint>
          <Trackpoint>
            <Time>2018-09-14T13:19:46.000Z</Time>
            <Position>
              <LatitudeDegrees>37.88140847347676753997802734375</LatitudeDegrees>
              <LongitudeDegrees>-8.16281975246965885162353515625</LongitudeDegrees>
            </Position>
            <AltitudeMeters>181</AltitudeMeters>
            <DistanceMeters>273530.06283387</DistanceMeters>
          </Trackpoint>
          <Trackpoint>
            <Time>2018-09-14T13:19:47.000Z</Time>
            <Position>
              <LatitudeDegrees>37.8813983313739299774169921875</LatitudeDegrees>
              <LongitudeDegrees>-8.16281086765229701995849609375</LongitudeDegrees>
            </Position>
            <AltitudeMeters>181</AltitudeMeters>
            <DistanceMeters>273531.43332863</DistanceMeters>
          </Trackpoint>
          <Trackpoint>
            <Time>2018-09-14T13:19:48.000Z</Time>
            <Position>
              <LatitudeDegrees>37.8813936375081539154052734375</LatitudeDegrees>
              <LongitudeDegrees>-8.1628003902733325958251953125</LongitudeDegrees>
            </Position>
            <AltitudeMeters>181</AltitudeMeters>
            <DistanceMeters>273532.4957596</DistanceMeters>
          </Trackpoint>
          <Trackpoint>
            <Time>2018-09-14T13:19:49.000Z</Time>
            <Position>
              <LatitudeDegrees>37.88139573298394680023193359375</LatitudeDegrees>
              <LongitudeDegrees>-8.1627893261611461639404296875</LongitudeDegrees>
            </Position>
            <AltitudeMeters>180.8000030517578125</AltitudeMeters>
            <DistanceMeters>273533.49692816</DistanceMeters>
          </Trackpoint>
          <Trackpoint>
            <Time>2018-09-14T13:19:50.000Z</Time>
            <Position>
              <LatitudeDegrees>37.88139355368912220001220703125</LatitudeDegrees>
              <LongitudeDegrees>-8.16278337500989437103271484375</LongitudeDegrees>
            </Position>
            <AltitudeMeters>180.8000030517578125</AltitudeMeters>
            <DistanceMeters>273534.07495309</DistanceMeters>
          </Trackpoint>
          <Trackpoint>
            <Time>2018-09-14T13:19:51.000Z</Time>
            <Position>
              <LatitudeDegrees>37.88138450123369693756103515625</LatitudeDegrees>
              <LongitudeDegrees>-8.162775076925754547119140625</LongitudeDegrees>
            </Position>
            <AltitudeMeters>180.8000030517578125</AltitudeMeters>
            <DistanceMeters>273535.31758863</DistanceMeters>
          </Trackpoint>
          <Trackpoint>
            <Time>2018-09-14T13:19:52.000Z</Time>
            <Position>
              <LatitudeDegrees>37.88137226365506649017333984375</LatitudeDegrees>
              <LongitudeDegrees>-8.16277138888835906982421875</LongitudeDegrees>
            </Position>
            <AltitudeMeters>180.8000030517578125</AltitudeMeters>
            <DistanceMeters>273536.72064125</DistanceMeters>
          </Trackpoint>
          <Trackpoint>
            <Time>2018-09-14T13:19:53.000Z</Time>
            <Position>
              <LatitudeDegrees>37.881361953914165496826171875</LatitudeDegrees>
              <LongitudeDegrees>-8.1627728976309299468994140625</LongitudeDegrees>
            </Position>
            <AltitudeMeters>181</AltitudeMeters>
            <DistanceMeters>273537.87669113</DistanceMeters>
          </Trackpoint>
          <Trackpoint>
            <Time>2018-09-14T13:19:54.000Z</Time>
            <Position>
              <LatitudeDegrees>37.881359271705150604248046875</LatitudeDegrees>
              <LongitudeDegrees>-8.16278488375246524810791015625</LongitudeDegrees>
            </Position>
            <AltitudeMeters>181</AltitudeMeters>
            <DistanceMeters>273538.97670487</DistanceMeters>
          </Trackpoint>
          <Trackpoint>
            <Time>2018-09-14T13:19:55.000Z</Time>
            <Position>
              <LatitudeDegrees>37.881369329988956451416015625</LatitudeDegrees>
              <LongitudeDegrees>-8.16279494203627109527587890625</LongitudeDegrees>
            </Position>
            <AltitudeMeters>181</AltitudeMeters>
            <DistanceMeters>273540.40526964</DistanceMeters>
          </Trackpoint>
          <Trackpoint>
            <Time>2018-09-14T13:19:56.000Z</Time>
            <Position>
              <LatitudeDegrees>37.88138818927109241485595703125</LatitudeDegrees>
              <LongitudeDegrees>-8.16279896534979343414306640625</LongitudeDegrees>
            </Position>
            <AltitudeMeters>181</AltitudeMeters>
            <DistanceMeters>273542.53437705</DistanceMeters>
          </Trackpoint>
          <Trackpoint>
            <Time>2018-09-14T13:19:57.000Z</Time>
            <Position>
              <LatitudeDegrees>37.88141216151416301727294921875</LatitudeDegrees>
              <LongitudeDegrees>-8.16280382685363292694091796875</LongitudeDegrees>
            </Position>
            <AltitudeMeters>181</AltitudeMeters>
            <DistanceMeters>273545.23554379</DistanceMeters>
          </Trackpoint>
          <Trackpoint>
            <Time>2018-09-14T13:19:58.000Z</Time>
            <Position>
              <LatitudeDegrees>37.8814409114420413970947265625</LatitudeDegrees>
              <LongitudeDegrees>-8.16280935890972614288330078125</LongitudeDegrees>
            </Position>
            <AltitudeMeters>180.8000030517578125</AltitudeMeters>
            <DistanceMeters>273548.47064172</DistanceMeters>
          </Trackpoint>
          <Trackpoint>
            <Time>2018-09-14T13:19:59.000Z</Time>
            <Position>
              <LatitudeDegrees>37.8814717568457126617431640625</LatitudeDegrees>
              <LongitudeDegrees>-8.1628124602138996124267578125</LongitudeDegrees>
            </Position>
            <AltitudeMeters>180.600006103515625</AltitudeMeters>
            <DistanceMeters>273551.9139672</DistanceMeters>
          </Trackpoint>
          <Trackpoint>
            <Time>2018-09-14T13:20:00.000Z</Time>
            <Position>
              <LatitudeDegrees>37.881500422954559326171875</LatitudeDegrees>
              <LongitudeDegrees>-8.1628077663481235504150390625</LongitudeDegrees>
            </Position>
            <AltitudeMeters>180.600006103515625</AltitudeMeters>
            <DistanceMeters>273555.13087062</DistanceMeters>
          </Trackpoint>
          <Trackpoint>
            <Time>2018-09-14T13:20:01.000Z</Time>
            <Position>
              <LatitudeDegrees>37.88152095861732959747314453125</LatitudeDegrees>
              <LongitudeDegrees>-8.16278890706598758697509765625</LongitudeDegrees>
            </Position>
            <AltitudeMeters>180.1999969482421875</AltitudeMeters>
            <DistanceMeters>273557.95302005</DistanceMeters>
          </Trackpoint>
          <Trackpoint>
            <Time>2018-09-14T13:20:02.000Z</Time>
            <Position>
              <LatitudeDegrees>37.881526239216327667236328125</LatitudeDegrees>
              <LongitudeDegrees>-8.16275822930037975311279296875</LongitudeDegrees>
            </Position>
            <AltitudeMeters>180</AltitudeMeters>
            <DistanceMeters>273560.71043267</DistanceMeters>
          </Trackpoint>
          <Trackpoint>
            <Time>2018-09-14T13:20:03.000Z</Time>
            <Position>
              <LatitudeDegrees>37.88151777349412441253662109375</LatitudeDegrees>
              <LongitudeDegrees>-8.1627266295254230499267578125</LongitudeDegrees>
            </Position>
            <AltitudeMeters>179.8000030517578125</AltitudeMeters>
            <DistanceMeters>273563.64243417</DistanceMeters>
          </Trackpoint>
          <Trackpoint>
            <Time>2018-09-14T13:20:04.000Z</Time>
            <Position>
              <LatitudeDegrees>37.88150184787809848785400390625</LatitudeDegrees>
              <LongitudeDegrees>-8.1626974605023860931396484375</LongitudeDegrees>
            </Position>
            <AltitudeMeters>179.8000030517578125</AltitudeMeters>
            <DistanceMeters>273566.75954216</DistanceMeters>
          </Trackpoint>
          <Trackpoint>
            <Time>2018-09-14T13:20:05.000Z</Time>
            <Position>
              <LatitudeDegrees>37.881481647491455078125</LatitudeDegrees>
              <LongitudeDegrees>-8.162668459117412567138671875</LongitudeDegrees>
            </Position>
            <AltitudeMeters>179.600006103515625</AltitudeMeters>
            <DistanceMeters>273570.15666414</DistanceMeters>
          </Trackpoint>
          <Trackpoint>
            <Time>2018-09-14T13:20:06.000Z</Time>
            <Position>
              <LatitudeDegrees>37.8814583458006381988525390625</LatitudeDegrees>
              <LongitudeDegrees>-8.16264021210372447967529296875</LongitudeDegrees>
            </Position>
            <AltitudeMeters>179.600006103515625</AltitudeMeters>
            <DistanceMeters>273573.74636037</DistanceMeters>
          </Trackpoint>
          <Trackpoint>
            <Time>2018-09-14T13:20:07.000Z</Time>
            <Position>
              <LatitudeDegrees>37.88143244571983814239501953125</LatitudeDegrees>
              <LongitudeDegrees>-8.16261054016649723052978515625</LongitudeDegrees>
            </Position>
            <AltitudeMeters>179.399993896484375</AltitudeMeters>
            <DistanceMeters>273577.63317371</DistanceMeters>
          </Trackpoint>
          <Trackpoint>
            <Time>2018-09-14T13:20:08.000Z</Time>
            <Position>
              <LatitudeDegrees>37.8814053721725940704345703125</LatitudeDegrees>
              <LongitudeDegrees>-8.162577934563159942626953125</LongitudeDegrees>
            </Position>
            <AltitudeMeters>179.399993896484375</AltitudeMeters>
            <DistanceMeters>273581.78943841</DistanceMeters>
          </Trackpoint>
          <Trackpoint>
            <Time>2018-09-14T13:20:09.000Z</Time>
            <Position>
              <LatitudeDegrees>37.88137729279696941375732421875</LatitudeDegrees>
              <LongitudeDegrees>-8.16254281438887119293212890625</LongitudeDegrees>
            </Position>
            <AltitudeMeters>179.399993896484375</AltitudeMeters>
            <DistanceMeters>273586.18024849</DistanceMeters>
          </Trackpoint>
          <Trackpoint>
            <Time>2018-09-14T13:20:10.000Z</Time>
            <Position>
              <LatitudeDegrees>37.8813483752310276031494140625</LatitudeDegrees>
              <LongitudeDegrees>-8.162504844367504119873046875</LongitudeDegrees>
            </Position>
            <AltitudeMeters>179.399993896484375</AltitudeMeters>
            <DistanceMeters>273590.81517588</DistanceMeters>
          </Trackpoint>
          <Trackpoint>
            <Time>2018-09-14T13:20:11.000Z</Time>
            <Position>
              <LatitudeDegrees>37.88131895475089550018310546875</LatitudeDegrees>
              <LongitudeDegrees>-8.16246486268937587738037109375</LongitudeDegrees>
            </Position>
            <AltitudeMeters>179.1999969482421875</AltitudeMeters>
            <DistanceMeters>273595.61661162</DistanceMeters>
          </Trackpoint>
          <Trackpoint>
            <Time>2018-09-14T13:20:12.000Z</Time>
            <Position>
              <LatitudeDegrees>37.881288863718509674072265625</LatitudeDegrees>
              <LongitudeDegrees>-8.1624238751828670501708984375</LongitudeDegrees>
            </Position>
            <AltitudeMeters>179.1999969482421875</AltitudeMeters>
            <DistanceMeters>273600.5341867</DistanceMeters>
          </Trackpoint>
          <Trackpoint>
            <Time>2018-09-14T13:20:13.000Z</Time>
            <Position>
              <LatitudeDegrees>37.881259024143218994140625</LatitudeDegrees>
              <LongitudeDegrees>-8.16238188184797763824462890625</LongitudeDegrees>
            </Position>
            <AltitudeMeters>179.1999969482421875</AltitudeMeters>
            <DistanceMeters>273605.49745664</DistanceMeters>
          </Trackpoint>
          <Trackpoint>
            <Time>2018-09-14T13:20:14.000Z</Time>
            <Position>
              <LatitudeDegrees>37.88122884929180145263671875</LatitudeDegrees>
              <LongitudeDegrees>-8.162338547408580780029296875</LongitudeDegrees>
            </Position>
            <AltitudeMeters>179.1999969482421875</AltitudeMeters>
            <DistanceMeters>273610.57405375</DistanceMeters>
          </Trackpoint>
          <Trackpoint>
            <Time>2018-09-14T13:20:15.000Z</Time>
            <Position>
              <LatitudeDegrees>37.88119825534522533416748046875</LatitudeDegrees>
              <LongitudeDegrees>-8.16229437477886676788330078125</LongitudeDegrees>
            </Position>
            <AltitudeMeters>179</AltitudeMeters>
            <DistanceMeters>273615.73707473</DistanceMeters>
          </Trackpoint>
          <Trackpoint>
            <Time>2018-09-14T13:20:16.000Z</Time>
            <Position>
              <LatitudeDegrees>37.8811683319509029388427734375</LatitudeDegrees>
              <LongitudeDegrees>-8.1622478552162647247314453125</LongitudeDegrees>
            </Position>
            <AltitudeMeters>178.8000030517578125</AltitudeMeters>
            <DistanceMeters>273621.00913081</DistanceMeters>
          </Trackpoint>
          <Trackpoint>
            <Time>2018-09-14T13:20:17.000Z</Time>
            <Position>
              <LatitudeDegrees>37.8811396658420562744140625</LatitudeDegrees>
              <LongitudeDegrees>-8.1621992401778697967529296875</LongitudeDegrees>
            </Position>
            <AltitudeMeters>178.399993896484375</AltitudeMeters>
            <DistanceMeters>273626.34079853</DistanceMeters>
          </Trackpoint>
          <Trackpoint>
            <Time>2018-09-14T13:20:18.000Z</Time>
            <Position>
              <LatitudeDegrees>37.88111007772386074066162109375</LatitudeDegrees>
              <LongitudeDegrees>-8.16215003840625286102294921875</LongitudeDegrees>
            </Position>
            <AltitudeMeters>178.1999969482421875</AltitudeMeters>
            <DistanceMeters>273631.77396702</DistanceMeters>
          </Trackpoint>
          <Trackpoint>
            <Time>2018-09-14T13:20:19.000Z</Time>
            <Position>
              <LatitudeDegrees>37.88107822649180889129638671875</LatitudeDegrees>
              <LongitudeDegrees>-8.1621013395488262176513671875</LongitudeDegrees>
            </Position>
            <AltitudeMeters>178</AltitudeMeters>
            <DistanceMeters>273637.32957692</DistanceMeters>
          </Trackpoint>
          <Trackpoint>
            <Time>2018-09-14T13:20:20.000Z</Time>
            <Position>
              <LatitudeDegrees>37.8810469619929790496826171875</LatitudeDegrees>
              <LongitudeDegrees>-8.16205129958689212799072265625</LongitudeDegrees>
            </Position>
            <AltitudeMeters>177.600006103515625</AltitudeMeters>
            <DistanceMeters>273642.9353477</DistanceMeters>
          </Trackpoint>
          <Trackpoint>
            <Time>2018-09-14T13:20:21.000Z</Time>
            <Position>
              <LatitudeDegrees>37.881016619503498077392578125</LatitudeDegrees>
              <LongitudeDegrees>-8.16199715249240398406982421875</LongitudeDegrees>
            </Position>
            <AltitudeMeters>177.399993896484375</AltitudeMeters>
            <DistanceMeters>273648.76847105</DistanceMeters>
          </Trackpoint>
          <Trackpoint>
            <Time>2018-09-14T13:20:22.000Z</Time>
            <Position>
              <LatitudeDegrees>37.88098619319498538970947265625</LatitudeDegrees>
              <LongitudeDegrees>-8.1619390659034252166748046875</LongitudeDegrees>
            </Position>
            <AltitudeMeters>177</AltitudeMeters>
            <DistanceMeters>273654.89308839</DistanceMeters>
          </Trackpoint>
          <Trackpoint>
            <Time>2018-09-14T13:20:23.000Z</Time>
            <Position>
              <LatitudeDegrees>37.88095518015325069427490234375</LatitudeDegrees>
              <LongitudeDegrees>-8.1618790514767169952392578125</LongitudeDegrees>
            </Position>
            <AltitudeMeters>176.600006103515625</AltitudeMeters>
            <DistanceMeters>273661.19501477</DistanceMeters>
          </Trackpoint>
          <Trackpoint>
            <Time>2018-09-14T13:20:24.000Z</Time>
            <Position>
              <LatitudeDegrees>37.8809272684156894683837890625</LatitudeDegrees>
              <LongitudeDegrees>-8.161822892725467681884765625</LongitudeDegrees>
            </Position>
            <AltitudeMeters>176.1999969482421875</AltitudeMeters>
            <DistanceMeters>273667.02581556</DistanceMeters>
          </Trackpoint>
          <Trackpoint>
            <Time>2018-09-14T13:20:25.000Z</Time>
            <Position>
              <LatitudeDegrees>37.88090254180133342742919921875</LatitudeDegrees>
              <LongitudeDegrees>-8.16177788190543651580810546875</LongitudeDegrees>
            </Position>
            <AltitudeMeters>176</AltitudeMeters>
            <DistanceMeters>273671.84321076</DistanceMeters>
          </Trackpoint>
          <Trackpoint>
            <Time>2018-09-14T13:20:26.000Z</Time>
            <Position>
              <LatitudeDegrees>37.88087924011051654815673828125</LatitudeDegrees>
              <LongitudeDegrees>-8.16174569539725780487060546875</LongitudeDegrees>
            </Position>
            <AltitudeMeters>175.8000030517578125</AltitudeMeters>
            <DistanceMeters>273675.67974886</DistanceMeters>
          </Trackpoint>
          <Trackpoint>
            <Time>2018-09-14T13:20:27.000Z</Time>
            <Position>
              <LatitudeDegrees>37.88085945881903171539306640625</LatitudeDegrees>
              <LongitudeDegrees>-8.16172373481094837188720703125</LongitudeDegrees>
            </Position>
            <AltitudeMeters>175.600006103515625</AltitudeMeters>
            <DistanceMeters>273678.6055842</DistanceMeters>
          </Trackpoint>
          <Trackpoint>
            <Time>2018-09-14T13:20:28.000Z</Time>
            <Position>
              <LatitudeDegrees>37.88084655068814754486083984375</LatitudeDegrees>
              <LongitudeDegrees>-8.1617110781371593475341796875</LongitudeDegrees>
            </Position>
            <AltitudeMeters>175.600006103515625</AltitudeMeters>
            <DistanceMeters>273680.42355229</DistanceMeters>
          </Trackpoint>
          <Trackpoint>
            <Time>2018-09-14T13:20:29.000Z</Time>
            <Position>
              <LatitudeDegrees>37.8808394260704517364501953125</LatitudeDegrees>
              <LongitudeDegrees>-8.161702193319797515869140625</LongitudeDegrees>
            </Position>
            <AltitudeMeters>175.600006103515625</AltitudeMeters>
            <DistanceMeters>273681.53581147</DistanceMeters>
          </Trackpoint>
          <Trackpoint>
            <Time>2018-09-14T13:20:30.000Z</Time>
            <Position>
              <LatitudeDegrees>37.88083515129983425140380859375</LatitudeDegrees>
              <LongitudeDegrees>-8.16169674508273601531982421875</LongitudeDegrees>
            </Position>
            <AltitudeMeters>175.600006103515625</AltitudeMeters>
            <DistanceMeters>273682.22105885</DistanceMeters>
          </Trackpoint>
          <Trackpoint>
            <Time>2018-09-14T13:20:31.000Z</Time>
            <Position>
              <LatitudeDegrees>37.8808340616524219512939453125</LatitudeDegrees>
              <LongitudeDegrees>-8.16169288940727710723876953125</LongitudeDegrees>
            </Position>
            <AltitudeMeters>175.399993896484375</AltitudeMeters>
            <DistanceMeters>273682.56368254</DistanceMeters>
          </Trackpoint>
          <Trackpoint>
            <Time>2018-09-14T13:20:32.000Z</Time>
            <Position>
              <LatitudeDegrees>37.88083397783339023590087890625</LatitudeDegrees>
              <LongitudeDegrees>-8.161692135035991668701171875</LongitudeDegrees>
            </Position>
            <AltitudeMeters>175.399993896484375</AltitudeMeters>
            <DistanceMeters>273682.69807061</DistanceMeters>
          </Trackpoint>
          <Trackpoint>
            <Time>2018-09-14T13:20:37.000Z</Time>
            <Position>
              <LatitudeDegrees>37.8808193095028400421142578125</LatitudeDegrees>
              <LongitudeDegrees>-8.1616294384002685546875</LongitudeDegrees>
            </Position>
            <AltitudeMeters>175</AltitudeMeters>
            <DistanceMeters>273688.44306229</DistanceMeters>
          </Trackpoint>
          <Trackpoint>
            <Time>2018-09-14T13:20:38.000Z</Time>
            <Position>
              <LatitudeDegrees>37.88081444799900054931640625</LatitudeDegrees>
              <LongitudeDegrees>-8.1615866906940937042236328125</LongitudeDegrees>
            </Position>
            <AltitudeMeters>174.8000030517578125</AltitudeMeters>
            <DistanceMeters>273692.23937656</DistanceMeters>
          </Trackpoint>
          <Trackpoint>
            <Time>2018-09-14T13:20:39.000Z</Time>
            <Position>
              <LatitudeDegrees>37.88082023151218891143798828125</LatitudeDegrees>
              <LongitudeDegrees>-8.16153396852314472198486328125</LongitudeDegrees>
            </Position>
            <AltitudeMeters>174.399993896484375</AltitudeMeters>
            <DistanceMeters>273696.9160041</DistanceMeters>
          </Trackpoint>
          <Trackpoint>
            <Time>2018-09-14T13:20:40.000Z</Time>
            <Position>
              <LatitudeDegrees>37.8808333911001682281494140625</LatitudeDegrees>
              <LongitudeDegrees>-8.16147412173449993133544921875</LongitudeDegrees>
            </Position>
            <AltitudeMeters>173.8000030517578125</AltitudeMeters>
            <DistanceMeters>273702.37487323</DistanceMeters>
          </Trackpoint>
          <Trackpoint>
            <Time>2018-09-14T13:20:41.000Z</Time>
            <Position>
              <LatitudeDegrees>37.88085057400166988372802734375</LatitudeDegrees>
              <LongitudeDegrees>-8.1614081561565399169921875</LongitudeDegrees>
            </Position>
            <AltitudeMeters>173.399993896484375</AltitudeMeters>
            <DistanceMeters>273708.47807447</DistanceMeters>
          </Trackpoint>
          <Trackpoint>
            <Time>2018-09-14T13:20:42.000Z</Time>
            <Position>
              <LatitudeDegrees>37.88087052293121814727783203125</LatitudeDegrees>
              <LongitudeDegrees>-8.16133766435086727142333984375</LongitudeDegrees>
            </Position>
            <AltitudeMeters>172.8000030517578125</AltitudeMeters>
            <DistanceMeters>273715.05691604</DistanceMeters>
          </Trackpoint>
          <Trackpoint>
            <Time>2018-09-14T13:20:43.000Z</Time>
            <Position>
              <LatitudeDegrees>37.88089030422270298004150390625</LatitudeDegrees>
              <LongitudeDegrees>-8.1612618081271648406982421875</LongitudeDegrees>
            </Position>
            <AltitudeMeters>172.399993896484375</AltitudeMeters>
            <DistanceMeters>273722.07603971</DistanceMeters>
          </Trackpoint>
          <Trackpoint>
            <Time>2018-09-14T13:20:44.000Z</Time>
            <Position>
              <LatitudeDegrees>37.8809091635048389434814453125</LatitudeDegrees>
              <LongitudeDegrees>-8.1611796654760837554931640625</LongitudeDegrees>
            </Position>
            <AltitudeMeters>171.8000030517578125</AltitudeMeters>
            <DistanceMeters>273729.59216625</DistanceMeters>
          </Trackpoint>
          <Trackpoint>
            <Time>2018-09-14T13:20:45.000Z</Time>
            <Position>
              <LatitudeDegrees>37.88092953152954578399658203125</LatitudeDegrees>
              <LongitudeDegrees>-8.16109232604503631591796875</LongitudeDegrees>
            </Position>
            <AltitudeMeters>171.1999969482421875</AltitudeMeters>
            <DistanceMeters>273737.59249011</DistanceMeters>
          </Trackpoint>
          <Trackpoint>
            <Time>2018-09-14T13:20:46.000Z</Time>
            <Position>
              <LatitudeDegrees>37.88095333613455295562744140625</LatitudeDegrees>
              <LongitudeDegrees>-8.16100171767175197601318359375</LongitudeDegrees>
            </Position>
            <AltitudeMeters>170.399993896484375</AltitudeMeters>
            <DistanceMeters>273745.98179377</DistanceMeters>
          </Trackpoint>
          <Trackpoint>
            <Time>2018-09-14T13:20:47.000Z</Time>
            <Position>
              <LatitudeDegrees>37.88097781129181385040283203125</LatitudeDegrees>
              <LongitudeDegrees>-8.1609064154326915740966796875</LongitudeDegrees>
            </Position>
            <AltitudeMeters>170</AltitudeMeters>
            <DistanceMeters>273754.78600731</DistanceMeters>
          </Trackpoint>
          <Trackpoint>
            <Time>2018-09-14T13:20:48.000Z</Time>
            <Position>
              <LatitudeDegrees>37.88100061006844043731689453125</LatitudeDegrees>
              <LongitudeDegrees>-8.16080625168979167938232421875</LongitudeDegrees>
            </Position>
            <AltitudeMeters>169.8000030517578125</AltitudeMeters>
            <DistanceMeters>273763.94463058</DistanceMeters>
          </Trackpoint>
          <Trackpoint>
            <Time>2018-09-14T13:20:49.000Z</Time>
            <Position>
              <LatitudeDegrees>37.881023995578289031982421875</LatitudeDegrees>
              <LongitudeDegrees>-8.16070206463336944580078125</LongitudeDegrees>
            </Position>
            <AltitudeMeters>169.399993896484375</AltitudeMeters>
            <DistanceMeters>273773.46059645</DistanceMeters>
          </Trackpoint>
          <Trackpoint>
            <Time>2018-09-14T13:20:50.000Z</Time>
            <Position>
              <LatitudeDegrees>37.881049476563930511474609375</LatitudeDegrees>
              <LongitudeDegrees>-8.16059611737728118896484375</LongitudeDegrees>
            </Position>
            <AltitudeMeters>168.8000030517578125</AltitudeMeters>
            <DistanceMeters>273783.19005129</DistanceMeters>
          </Trackpoint>
          <Trackpoint>
            <Time>2018-09-14T13:20:51.000Z</Time>
            <Position>
              <LatitudeDegrees>37.881076633930206298828125</LatitudeDegrees>
              <LongitudeDegrees>-8.16048773936927318572998046875</LongitudeDegrees>
            </Position>
            <AltitudeMeters>168.399993896484375</AltitudeMeters>
            <DistanceMeters>273793.17916259</DistanceMeters>
          </Trackpoint>
          <Trackpoint>
            <Time>2018-09-14T13:20:52.000Z</Time>
            <Position>
              <LatitudeDegrees>37.88110353983938694000244140625</LatitudeDegrees>
              <LongitudeDegrees>-8.160377182066440582275390625</LongitudeDegrees>
            </Position>
            <AltitudeMeters>168</AltitudeMeters>
            <DistanceMeters>273803.3430238</DistanceMeters>
          </Trackpoint>
          <Trackpoint>
            <Time>2018-09-14T13:20:53.000Z</Time>
            <Position>
              <LatitudeDegrees>37.8811289370059967041015625</LatitudeDegrees>
              <LongitudeDegrees>-8.16026545129716396331787109375</LongitudeDegrees>
            </Position>
            <AltitudeMeters>167.600006103515625</AltitudeMeters>
            <DistanceMeters>273813.55740108</DistanceMeters>
          </Trackpoint>
          <Trackpoint>
            <Time>2018-09-14T13:20:54.000Z</Time>
            <Position>
              <LatitudeDegrees>37.88115584291517734527587890625</LatitudeDegrees>
              <LongitudeDegrees>-8.1601528823375701904296875</LongitudeDegrees>
            </Position>
            <AltitudeMeters>167.1999969482421875</AltitudeMeters>
            <DistanceMeters>273823.8895627</DistanceMeters>
          </Trackpoint>
          <Trackpoint>
            <Time>2018-09-14T13:20:55.000Z</Time>
            <Position>
              <LatitudeDegrees>37.8811844252049922943115234375</LatitudeDegrees>
              <LongitudeDegrees>-8.16003964282572269439697265625</LongitudeDegrees>
            </Position>
            <AltitudeMeters>166.600006103515625</AltitudeMeters>
            <DistanceMeters>273834.33385891</DistanceMeters>
          </Trackpoint>
          <Trackpoint>
            <Time>2018-09-14T13:20:56.000Z</Time>
            <Position>
              <LatitudeDegrees>37.88121367804706096649169921875</LatitudeDegrees>
              <LongitudeDegrees>-8.15992564894258975982666015625</LongitudeDegrees>
            </Position>
            <AltitudeMeters>166.1999969482421875</AltitudeMeters>
            <DistanceMeters>273844.8642596</DistanceMeters>
          </Trackpoint>
          <Trackpoint>
            <Time>2018-09-14T13:20:57.000Z</Time>
            <Position>
              <LatitudeDegrees>37.88124133832752704620361328125</LatitudeDegrees>
              <LongitudeDegrees>-8.15981064923107624053955078125</LongitudeDegrees>
            </Position>
            <AltitudeMeters>165.8000030517578125</AltitudeMeters>
            <DistanceMeters>273855.42548606</DistanceMeters>
          </Trackpoint>
          <Trackpoint>
            <Time>2018-09-14T13:20:58.000Z</Time>
            <Position>
              <LatitudeDegrees>37.88126782514154911041259765625</LatitudeDegrees>
              <LongitudeDegrees>-8.1596950627863407135009765625</LongitudeDegrees>
            </Position>
            <AltitudeMeters>165.399993896484375</AltitudeMeters>
            <DistanceMeters>273865.99867604</DistanceMeters>
          </Trackpoint>
          <Trackpoint>
            <Time>2018-09-14T13:20:59.000Z</Time>
            <Position>
              <LatitudeDegrees>37.88129498250782489776611328125</LatitudeDegrees>
              <LongitudeDegrees>-8.15957897342741489410400390625</LongitudeDegrees>
            </Position>
            <AltitudeMeters>165.1999969482421875</AltitudeMeters>
            <DistanceMeters>273876.63487826</DistanceMeters>
          </Trackpoint>
          <Trackpoint>
            <Time>2018-09-14T13:21:00.000Z</Time>
            <Position>
              <LatitudeDegrees>37.88132348097860813140869140625</LatitudeDegrees>
              <LongitudeDegrees>-8.15946288406848907470703125</LongitudeDegrees>
            </Position>
            <AltitudeMeters>165</AltitudeMeters>
            <DistanceMeters>273887.31471419</DistanceMeters>
          </Trackpoint>
          <Trackpoint>
            <Time>2018-09-14T13:21:01.000Z</Time>
            <Position>
              <LatitudeDegrees>37.88135357201099395751953125</LatitudeDegrees>
              <LongitudeDegrees>-8.15934595651924610137939453125</LongitudeDegrees>
            </Position>
            <AltitudeMeters>164.8000030517578125</AltitudeMeters>
            <DistanceMeters>273898.11854537</DistanceMeters>
          </Trackpoint>
          <Trackpoint>
            <Time>2018-09-14T13:21:02.000Z</Time>
            <Position>
              <LatitudeDegrees>37.881382741034030914306640625</LatitudeDegrees>
              <LongitudeDegrees>-8.1592276878654956817626953125</LongitudeDegrees>
            </Position>
            <AltitudeMeters>164.399993896484375</AltitudeMeters>
            <DistanceMeters>273909.00356411</DistanceMeters>
          </Trackpoint>
          <Trackpoint>
            <Time>2018-09-14T13:21:03.000Z</Time>
            <Position>
              <LatitudeDegrees>37.881410904228687286376953125</LatitudeDegrees>
              <LongitudeDegrees>-8.15910774283111095428466796875</LongitudeDegrees>
            </Position>
            <AltitudeMeters>163.8000030517578125</AltitudeMeters>
            <DistanceMeters>273919.99754307</DistanceMeters>
          </Trackpoint>
          <Trackpoint>
            <Time>2018-09-14T13:21:04.000Z</Time>
            <Position>
              <LatitudeDegrees>37.8814395703375339508056640625</LatitudeDegrees>
              <LongitudeDegrees>-8.1589869596064090728759765625</LongitudeDegrees>
            </Position>
            <AltitudeMeters>163.1999969482421875</AltitudeMeters>
            <DistanceMeters>273931.07783726</DistanceMeters>
          </Trackpoint>
          <Trackpoint>
            <Time>2018-09-14T13:21:05.000Z</Time>
            <Position>
              <LatitudeDegrees>37.88146815262734889984130859375</LatitudeDegrees>
              <LongitudeDegrees>-8.1588654220104217529296875</LongitudeDegrees>
            </Position>
            <AltitudeMeters>162.8000030517578125</AltitudeMeters>
            <DistanceMeters>273942.21868106</DistanceMeters>
          </Trackpoint>
          <Trackpoint>
            <Time>2018-09-14T13:21:06.000Z</Time>
            <Position>
              <LatitudeDegrees>37.88149614818394184112548828125</LatitudeDegrees>
              <LongitudeDegrees>-8.15874279476702213287353515625</LongitudeDegrees>
            </Position>
            <AltitudeMeters>162.1999969482421875</AltitudeMeters>
            <DistanceMeters>273953.43263864</DistanceMeters>
          </Trackpoint>
          <Trackpoint>
            <Time>2018-09-14T13:21:07.000Z</Time>
            <Position>
              <LatitudeDegrees>37.8815233893692493438720703125</LatitudeDegrees>
              <LongitudeDegrees>-8.15861932933330535888671875</LongitudeDegrees>
            </Position>
            <AltitudeMeters>161.600006103515625</AltitudeMeters>
            <DistanceMeters>273964.69400595</DistanceMeters>
          </Trackpoint>
          <Trackpoint>
            <Time>2018-09-14T13:21:08.000Z</Time>
            <Position>
              <LatitudeDegrees>37.8815527260303497314453125</LatitudeDegrees>
              <LongitudeDegrees>-8.1584966182708740234375</LongitudeDegrees>
            </Position>
            <AltitudeMeters>161.1999969482421875</AltitudeMeters>
            <DistanceMeters>273975.95777858</DistanceMeters>
          </Trackpoint>
          <Trackpoint>
            <Time>2018-09-14T13:21:09.000Z</Time>
            <Position>
              <LatitudeDegrees>37.88158415816724300384521484375</LatitudeDegrees>
              <LongitudeDegrees>-8.15837549977004528045654296875</LongitudeDegrees>
            </Position>
            <AltitudeMeters>160.8000030517578125</AltitudeMeters>
            <DistanceMeters>273987.15803849</DistanceMeters>
          </Trackpoint>
          <Trackpoint>
            <Time>2018-09-14T13:21:10.000Z</Time>
            <Position>
              <LatitudeDegrees>37.881614752113819122314453125</LatitudeDegrees>
              <LongitudeDegrees>-8.1582553870975971221923828125</LongitudeDegrees>
            </Position>
            <AltitudeMeters>160.399993896484375</AltitudeMeters>
            <DistanceMeters>273998.24566496</DistanceMeters>
          </Trackpoint>
          <Trackpoint>
            <Time>2018-09-14T13:21:11.000Z</Time>
            <Position>
              <LatitudeDegrees>37.881642244756221771240234375</LatitudeDegrees>
              <LongitudeDegrees>-8.15813577733933925628662109375</LongitudeDegrees>
            </Position>
            <AltitudeMeters>159.8000030517578125</AltitudeMeters>
            <DistanceMeters>274009.18983847</DistanceMeters>
          </Trackpoint>
          <Trackpoint>
            <Time>2018-09-14T13:21:12.000Z</Time>
            <Position>
              <LatitudeDegrees>37.8816678933799266815185546875</LatitudeDegrees>
              <LongitudeDegrees>-8.15801851451396942138671875</LongitudeDegrees>
            </Position>
            <AltitudeMeters>159.399993896484375</AltitudeMeters>
            <DistanceMeters>274019.87939353</DistanceMeters>
          </Trackpoint>
          <Trackpoint>
            <Time>2018-09-14T13:21:13.000Z</Time>
            <Position>
              <LatitudeDegrees>37.88169463165104389190673828125</LatitudeDegrees>
              <LongitudeDegrees>-8.157904185354709625244140625</LongitudeDegrees>
            </Position>
            <AltitudeMeters>159</AltitudeMeters>
            <DistanceMeters>274030.35433787</DistanceMeters>
          </Trackpoint>
          <Trackpoint>
            <Time>2018-09-14T13:21:14.000Z</Time>
            <Position>
              <LatitudeDegrees>37.88172237575054168701171875</LatitudeDegrees>
              <LongitudeDegrees>-8.1577925384044647216796875</LongitudeDegrees>
            </Position>
            <AltitudeMeters>158.600006103515625</AltitudeMeters>
            <DistanceMeters>274040.63744028</DistanceMeters>
          </Trackpoint>
          <Trackpoint>
            <Time>2018-09-14T13:21:15.000Z</Time>
            <Position>
              <LatitudeDegrees>37.88175053894519805908203125</LatitudeDegrees>
              <LongitudeDegrees>-8.15768181346356868743896484375</LongitudeDegrees>
            </Position>
            <AltitudeMeters>158.1999969482421875</AltitudeMeters>
            <DistanceMeters>274050.85712052</DistanceMeters>
          </Trackpoint>
          <Trackpoint>
            <Time>2018-09-14T13:21:16.000Z</Time>
            <Position>
              <LatitudeDegrees>37.88178046233952045440673828125</LatitudeDegrees>
              <LongitudeDegrees>-8.15757192671298980712890625</LongitudeDegrees>
            </Position>
            <AltitudeMeters>157.8000030517578125</AltitudeMeters>
            <DistanceMeters>274061.06928742</DistanceMeters>
          </Trackpoint>
          <Trackpoint>
            <Time>2018-09-14T13:21:17.000Z</Time>
            <Position>
              <LatitudeDegrees>37.88181231357157230377197265625</LatitudeDegrees>
              <LongitudeDegrees>-8.15746187232434749603271484375</LongitudeDegrees>
            </Position>
            <AltitudeMeters>157.1999969482421875</AltitudeMeters>
            <DistanceMeters>274071.36686906</DistanceMeters>
          </Trackpoint>
          <Trackpoint>
            <Time>2018-09-14T13:21:18.000Z</Time>
            <Position>
              <LatitudeDegrees>37.8818459250032901763916015625</LatitudeDegrees>
              <LongitudeDegrees>-8.1573528237640857696533203125</LongitudeDegrees>
            </Position>
            <AltitudeMeters>156.600006103515625</AltitudeMeters>
            <DistanceMeters>274081.65172761</DistanceMeters>
          </Trackpoint>
          <Trackpoint>
            <Time>2018-09-14T13:21:19.000Z</Time>
            <Position>
              <LatitudeDegrees>37.88188221864402294158935546875</LatitudeDegrees>
              <LongitudeDegrees>-8.15724411047995090484619140625</LongitudeDegrees>
            </Position>
            <AltitudeMeters>156</AltitudeMeters>
            <DistanceMeters>274092.02140217</DistanceMeters>
          </Trackpoint>
          <Trackpoint>
            <Time>2018-09-14T13:21:20.000Z</Time>
            <Position>
              <LatitudeDegrees>37.88192010484635829925537109375</LatitudeDegrees>
              <LongitudeDegrees>-8.15713413991034030914306640625</LongitudeDegrees>
            </Position>
            <AltitudeMeters>155.399993896484375</AltitudeMeters>
            <DistanceMeters>274102.56208813</DistanceMeters>
          </Trackpoint>
          <Trackpoint>
            <Time>2018-09-14T13:21:21.000Z</Time>
            <Position>
              <LatitudeDegrees>37.88195841014385223388671875</LatitudeDegrees>
              <LongitudeDegrees>-8.15702165476977825164794921875</LongitudeDegrees>
            </Position>
            <AltitudeMeters>155</AltitudeMeters>
            <DistanceMeters>274113.32404708</DistanceMeters>
          </Trackpoint>
          <Trackpoint>
            <Time>2018-09-14T13:21:22.000Z</Time>
            <Position>
              <LatitudeDegrees>37.8819974698126316070556640625</LatitudeDegrees>
              <LongitudeDegrees>-8.1569059006869792938232421875</LongitudeDegrees>
            </Position>
            <AltitudeMeters>154.399993896484375</AltitudeMeters>
            <DistanceMeters>274124.38313182</DistanceMeters>
          </Trackpoint>
          <Trackpoint>
            <Time>2018-09-14T13:21:23.000Z</Time>
            <Position>
              <LatitudeDegrees>37.88203753530979156494140625</LatitudeDegrees>
              <LongitudeDegrees>-8.1567868776619434356689453125</LongitudeDegrees>
            </Position>
            <AltitudeMeters>153.600006103515625</AltitudeMeters>
            <DistanceMeters>274135.75064667</DistanceMeters>
          </Trackpoint>
          <Trackpoint>
            <Time>2018-09-14T13:21:24.000Z</Time>
            <Position>
              <LatitudeDegrees>37.882079780101776123046875</LatitudeDegrees>
              <LongitudeDegrees>-8.1566665135324001312255859375</LongitudeDegrees>
            </Position>
            <AltitudeMeters>153.8000030517578125</AltitudeMeters>
            <DistanceMeters>274147.32285622</DistanceMeters>
          </Trackpoint>
          <Trackpoint>
            <Time>2018-09-14T13:21:25.000Z</Time>
            <Position>
              <LatitudeDegrees>37.88212344981729984283447265625</LatitudeDegrees>
              <LongitudeDegrees>-8.15654556266963481903076171875</LongitudeDegrees>
            </Position>
            <AltitudeMeters>153.8000030517578125</AltitudeMeters>
            <DistanceMeters>274159.00689215</DistanceMeters>
          </Trackpoint>
          <Trackpoint>
            <Time>2018-09-14T13:21:26.000Z</Time>
            <Position>
              <LatitudeDegrees>37.88216619752347469329833984375</LatitudeDegrees>
              <LongitudeDegrees>-8.15642536617815494537353515625</LongitudeDegrees>
            </Position>
            <AltitudeMeters>153.8000030517578125</AltitudeMeters>
            <DistanceMeters>274170.5884618</DistanceMeters>
          </Trackpoint>
          <Trackpoint>
            <Time>2018-09-14T13:21:27.000Z</Time>
            <Position>
              <LatitudeDegrees>37.88220785558223724365234375</LatitudeDegrees>
              <LongitudeDegrees>-8.15630734898149967193603515625</LongitudeDegrees>
            </Position>
            <AltitudeMeters>154</AltitudeMeters>
            <DistanceMeters>274181.94564507</DistanceMeters>
          </Trackpoint>
          <Trackpoint>
            <Time>2018-09-14T13:21:28.000Z</Time>
            <Position>
              <LatitudeDegrees>37.88224850781261920928955078125</LatitudeDegrees>
              <LongitudeDegrees>-8.15619268454611301422119140625</LongitudeDegrees>
            </Position>
            <AltitudeMeters>153.8000030517578125</AltitudeMeters>
            <DistanceMeters>274192.98838713</DistanceMeters>
          </Trackpoint>
          <Trackpoint>
            <Time>2018-09-14T13:21:29.000Z</Time>
            <Position>
              <LatitudeDegrees>37.882289998233318328857421875</LatitudeDegrees>
              <LongitudeDegrees>-8.15608120523393154144287109375</LongitudeDegrees>
            </Position>
            <AltitudeMeters>153.600006103515625</AltitudeMeters>
            <DistanceMeters>274203.81559603</DistanceMeters>
          </Trackpoint>
          <Trackpoint>
            <Time>2018-09-14T13:21:30.000Z</Time>
            <Position>
              <LatitudeDegrees>37.8823300637304782867431640625</LatitudeDegrees>
              <LongitudeDegrees>-8.1559721566736698150634765625</LongitudeDegrees>
            </Position>
            <AltitudeMeters>153.1999969482421875</AltitudeMeters>
            <DistanceMeters>274214.38195137</DistanceMeters>
          </Trackpoint>
          <Trackpoint>
            <Time>2018-09-14T13:21:31.000Z</Time>
            <Position>
              <LatitudeDegrees>37.8823682852089405059814453125</LatitudeDegrees>
              <LongitudeDegrees>-8.15586629323661327362060546875</LongitudeDegrees>
            </Position>
            <AltitudeMeters>153.1999969482421875</AltitudeMeters>
            <DistanceMeters>274224.60869793</DistanceMeters>
          </Trackpoint>
          <Trackpoint>
            <Time>2018-09-14T13:21:32.000Z</Time>
            <Position>
              <LatitudeDegrees>37.882404662668704986572265625</LatitudeDegrees>
              <LongitudeDegrees>-8.155763112008571624755859375</LongitudeDegrees>
            </Position>
            <AltitudeMeters>153.1999969482421875</AltitudeMeters>
            <DistanceMeters>274234.53614747</DistanceMeters>
          </Trackpoint>
          <Trackpoint>
            <Time>2018-09-14T13:21:33.000Z</Time>
            <Position>
              <LatitudeDegrees>37.88244045339524745941162109375</LatitudeDegrees>
              <LongitudeDegrees>-8.1556628644466400146484375</LongitudeDegrees>
            </Position>
            <AltitudeMeters>153.1999969482421875</AltitudeMeters>
            <DistanceMeters>274244.20228429</DistanceMeters>
          </Trackpoint>
          <Trackpoint>
            <Time>2018-09-14T13:21:34.000Z</Time>
            <Position>
              <LatitudeDegrees>37.8824759088456630706787109375</LatitudeDegrees>
              <LongitudeDegrees>-8.15556563436985015869140625</LongitudeDegrees>
            </Position>
            <AltitudeMeters>153.1999969482421875</AltitudeMeters>
            <DistanceMeters>274253.6113687</DistanceMeters>
          </Trackpoint>
          <Trackpoint>
            <Time>2018-09-14T13:21:35.000Z</Time>
            <Position>
              <LatitudeDegrees>37.88251052610576152801513671875</LatitudeDegrees>
              <LongitudeDegrees>-8.15547117032110691070556640625</LongitudeDegrees>
            </Position>
            <AltitudeMeters>153.1999969482421875</AltitudeMeters>
            <DistanceMeters>274262.76062051</DistanceMeters>
          </Trackpoint>
          <Trackpoint>
            <Time>2018-09-14T13:21:36.000Z</Time>
            <Position>
              <LatitudeDegrees>37.88254422135651111602783203125</LatitudeDegrees>
              <LongitudeDegrees>-8.15537880174815654754638671875</LongitudeDegrees>
            </Position>
            <AltitudeMeters>153.1999969482421875</AltitudeMeters>
            <DistanceMeters>274271.70020531</DistanceMeters>
          </Trackpoint>
          <Trackpoint>
            <Time>2018-09-14T13:21:37.000Z</Time>
            <Position>
              <LatitudeDegrees>37.88257934153079986572265625</LatitudeDegrees>
              <LongitudeDegrees>-8.15528911538422107696533203125</LongitudeDegrees>
            </Position>
            <AltitudeMeters>153.399993896484375</AltitudeMeters>
            <DistanceMeters>274280.49518313</DistanceMeters>
          </Trackpoint>
          <Trackpoint>
            <Time>2018-09-14T13:21:38.000Z</Time>
            <Position>
              <LatitudeDegrees>37.882614545524120330810546875</LatitudeDegrees>
              <LongitudeDegrees>-8.15520160831511020660400390625</LongitudeDegrees>
            </Position>
            <AltitudeMeters>153.399993896484375</AltitudeMeters>
            <DistanceMeters>274289.12327389</DistanceMeters>
          </Trackpoint>
          <Trackpoint>
            <Time>2018-09-14T13:21:39.000Z</Time>
            <Position>
              <LatitudeDegrees>37.88265033625066280364990234375</LatitudeDegrees>
              <LongitudeDegrees>-8.15511611290276050567626953125</LongitudeDegrees>
            </Position>
            <AltitudeMeters>153.600006103515625</AltitudeMeters>
            <DistanceMeters>274297.62484621</DistanceMeters>
          </Trackpoint>
          <Trackpoint>
            <Time>2018-09-14T13:21:40.000Z</Time>
            <Position>
              <LatitudeDegrees>37.88268721662461757659912109375</LatitudeDegrees>
              <LongitudeDegrees>-8.1550340540707111358642578125</LongitudeDegrees>
            </Position>
            <AltitudeMeters>153.8000030517578125</AltitudeMeters>
            <DistanceMeters>274305.92106479</DistanceMeters>
          </Trackpoint>
          <Trackpoint>
            <Time>2018-09-14T13:21:41.000Z</Time>
            <Position>
              <LatitudeDegrees>37.88272426463663578033447265625</LatitudeDegrees>
              <LongitudeDegrees>-8.15495434217154979705810546875</LongitudeDegrees>
            </Position>
            <AltitudeMeters>153.8000030517578125</AltitudeMeters>
            <DistanceMeters>274314.04793252</DistanceMeters>
          </Trackpoint>
          <Trackpoint>
            <Time>2018-09-14T13:21:42.000Z</Time>
            <Position>
              <LatitudeDegrees>37.88276013918220996856689453125</LatitudeDegrees>
              <LongitudeDegrees>-8.1548758037388324737548828125</LongitudeDegrees>
            </Position>
            <AltitudeMeters>153.8000030517578125</AltitudeMeters>
            <DistanceMeters>274322.01885579</DistanceMeters>
          </Trackpoint>
          <Trackpoint>
            <Time>2018-09-14T13:21:43.000Z</Time>
            <Position>
              <LatitudeDegrees>37.88279634900391101837158203125</LatitudeDegrees>
              <LongitudeDegrees>-8.154798857867717742919921875</LongitudeDegrees>
            </Position>
            <AltitudeMeters>154</AltitudeMeters>
            <DistanceMeters>274329.88830712</DistanceMeters>
          </Trackpoint>
          <Trackpoint>
            <Time>2018-09-14T13:21:44.000Z</Time>
            <Position>
              <LatitudeDegrees>37.8828339837491512298583984375</LatitudeDegrees>
              <LongitudeDegrees>-8.1547232531011104583740234375</LongitudeDegrees>
            </Position>
            <AltitudeMeters>154.1999969482421875</AltitudeMeters>
            <DistanceMeters>274337.74052732</DistanceMeters>
          </Trackpoint>
          <Trackpoint>
            <Time>2018-09-14T13:21:45.000Z</Time>
            <Position>
              <LatitudeDegrees>37.88287430070340633392333984375</LatitudeDegrees>
              <LongitudeDegrees>-8.1546494923532009124755859375</LongitudeDegrees>
            </Position>
            <AltitudeMeters>154.399993896484375</AltitudeMeters>
            <DistanceMeters>274345.62316368</DistanceMeters>
          </Trackpoint>
          <Trackpoint>
            <Time>2018-09-14T13:21:46.000Z</Time>
            <Position>
              <LatitudeDegrees>37.8829171322286128997802734375</LatitudeDegrees>
              <LongitudeDegrees>-8.154577575623989105224609375</LongitudeDegrees>
            </Position>
            <AltitudeMeters>154.399993896484375</AltitudeMeters>
            <DistanceMeters>274353.53781088</DistanceMeters>
          </Trackpoint>
          <Trackpoint>
            <Time>2018-09-14T13:21:47.000Z</Time>
            <Position>
              <LatitudeDegrees>37.88296180777251720428466796875</LatitudeDegrees>
              <LongitudeDegrees>-8.15450725145637989044189453125</LongitudeDegrees>
            </Position>
            <AltitudeMeters>154.600006103515625</AltitudeMeters>
            <DistanceMeters>274361.46898434</DistanceMeters>
          </Trackpoint>
          <Trackpoint>
            <Time>2018-09-14T13:21:48.000Z</Time>
            <Position>
              <LatitudeDegrees>37.88300673477351665496826171875</LatitudeDegrees>
              <LongitudeDegrees>-8.15443768166005611419677734375</LongitudeDegrees>
            </Position>
            <AltitudeMeters>154.8000030517578125</AltitudeMeters>
            <DistanceMeters>274369.36592729</DistanceMeters>
          </Trackpoint>
          <Trackpoint>
            <Time>2018-09-14T13:21:49.000Z</Time>
            <Position>
              <LatitudeDegrees>37.88305266760289669036865234375</LatitudeDegrees>
              <LongitudeDegrees>-8.15436945296823978424072265625</LongitudeDegrees>
            </Position>
            <AltitudeMeters>155</AltitudeMeters>
            <DistanceMeters>274377.24455315</DistanceMeters>
          </Trackpoint>
          <Trackpoint>
            <Time>2018-09-14T13:21:50.000Z</Time>
            <Position>
              <LatitudeDegrees>37.88310027681291103363037109375</LatitudeDegrees>
              <LongitudeDegrees>-8.15430223010480403900146484375</LongitudeDegrees>
            </Position>
            <AltitudeMeters>155.1999969482421875</AltitudeMeters>
            <DistanceMeters>274385.17914154</DistanceMeters>
          </Trackpoint>
          <Trackpoint>
            <Time>2018-09-14T13:21:51.000Z</Time>
            <Position>
              <LatitudeDegrees>37.8831481374800205230712890625</LatitudeDegrees>
              <LongitudeDegrees>-8.15423391759395599365234375</LongitudeDegrees>
            </Position>
            <AltitudeMeters>155.1999969482421875</AltitudeMeters>
            <DistanceMeters>274393.20369606</DistanceMeters>
          </Trackpoint>
          <Trackpoint>
            <Time>2018-09-14T13:21:52.000Z</Time>
            <Position>
              <LatitudeDegrees>37.883194573223590850830078125</LatitudeDegrees>
              <LongitudeDegrees>-8.15416610799729824066162109375</LongitudeDegrees>
            </Position>
            <AltitudeMeters>155.1999969482421875</AltitudeMeters>
            <DistanceMeters>274401.08976837</DistanceMeters>
          </Trackpoint>
          <Trackpoint>
            <Time>2018-09-14T13:21:53.000Z</Time>
            <Position>
              <LatitudeDegrees>37.883240841329097747802734375</LatitudeDegrees>
              <LongitudeDegrees>-8.15409972332417964935302734375</LongitudeDegrees>
            </Position>
            <AltitudeMeters>155</AltitudeMeters>
            <DistanceMeters>274408.86978137</DistanceMeters>
          </Trackpoint>
          <Trackpoint>
            <Time>2018-09-14T13:21:54.000Z</Time>
            <Position>
              <LatitudeDegrees>37.88328601978719234466552734375</LatitudeDegrees>
              <LongitudeDegrees>-8.15403434447944164276123046875</LongitudeDegrees>
            </Position>
            <AltitudeMeters>154.8000030517578125</AltitudeMeters>
            <DistanceMeters>274416.50333122</DistanceMeters>
          </Trackpoint>
          <Trackpoint>
            <Time>2018-09-14T13:21:55.000Z</Time>
            <Position>
              <LatitudeDegrees>37.88333036005496978759765625</LatitudeDegrees>
              <LongitudeDegrees>-8.15397030673921108245849609375</LongitudeDegrees>
            </Position>
            <AltitudeMeters>154.8000030517578125</AltitudeMeters>
            <DistanceMeters>274423.98755224</DistanceMeters>
          </Trackpoint>
          <Trackpoint>
            <Time>2018-09-14T13:21:56.000Z</Time>
            <Position>
              <LatitudeDegrees>37.88337369449436664581298828125</LatitudeDegrees>
              <LongitudeDegrees>-8.15390693955123424530029296875</LongitudeDegrees>
            </Position>
            <AltitudeMeters>154.600006103515625</AltitudeMeters>
            <DistanceMeters>274431.35380837</DistanceMeters>
          </Trackpoint>
          <Trackpoint>
            <Time>2018-09-14T13:21:57.000Z</Time>
            <Position>
              <LatitudeDegrees>37.8834160231053829193115234375</LatitudeDegrees>
              <LongitudeDegrees>-8.1538434885442256927490234375</LongitudeDegrees>
            </Position>
            <AltitudeMeters>154.399993896484375</AltitudeMeters>
            <DistanceMeters>274438.65171155</DistanceMeters>
          </Trackpoint>
          <Trackpoint>
            <Time>2018-09-14T13:21:58.000Z</Time>
            <Position>
              <LatitudeDegrees>37.88345851935446262359619140625</LatitudeDegrees>
              <LongitudeDegrees>-8.15378171391785144805908203125</LongitudeDegrees>
            </Position>
            <AltitudeMeters>154.1999969482421875</AltitudeMeters>
            <DistanceMeters>274445.85057317</DistanceMeters>
          </Trackpoint>
          <Trackpoint>
            <Time>2018-09-14T13:21:59.000Z</Time>
            <Position>
              <LatitudeDegrees>37.8835011832416057586669921875</LatitudeDegrees>
              <LongitudeDegrees>-8.15372119657695293426513671875</LongitudeDegrees>
            </Position>
            <AltitudeMeters>153.8000030517578125</AltitudeMeters>
            <DistanceMeters>274452.97947703</DistanceMeters>
          </Trackpoint>
          <Trackpoint>
            <Time>2018-09-14T13:22:00.000Z</Time>
            <Position>
              <LatitudeDegrees>37.883543930947780609130859375</LatitudeDegrees>
              <LongitudeDegrees>-8.15366084687411785125732421875</LongitudeDegrees>
            </Position>
            <AltitudeMeters>153.399993896484375</AltitudeMeters>
            <DistanceMeters>274460.10267853</DistanceMeters>
          </Trackpoint>
          <Trackpoint>
            <Time>2018-09-14T13:22:01.000Z</Time>
            <Position>
              <LatitudeDegrees>37.8835858404636383056640625</LatitudeDegrees>
              <LongitudeDegrees>-8.15360016189515590667724609375</LongitudeDegrees>
            </Position>
            <AltitudeMeters>153.1999969482421875</AltitudeMeters>
            <DistanceMeters>274467.18583494</DistanceMeters>
          </Trackpoint>
          <Trackpoint>
            <Time>2018-09-14T13:22:02.000Z</Time>
            <Position>
              <LatitudeDegrees>37.88362833671271800994873046875</LatitudeDegrees>
              <LongitudeDegrees>-8.15354081802070140838623046875</LongitudeDegrees>
            </Position>
            <AltitudeMeters>152.8000030517578125</AltitudeMeters>
            <DistanceMeters>274474.2242296</DistanceMeters>
          </Trackpoint>
          <Trackpoint>
            <Time>2018-09-14T13:22:03.000Z</Time>
            <Position>
              <LatitudeDegrees>37.883669324219226837158203125</LatitudeDegrees>
              <LongitudeDegrees>-8.1534817256033420562744140625</LongitudeDegrees>
            </Position>
            <AltitudeMeters>152.600006103515625</AltitudeMeters>
            <DistanceMeters>274481.13444263</DistanceMeters>
          </Trackpoint>
          <Trackpoint>
            <Time>2018-09-14T13:22:04.000Z</Time>
            <Position>
              <LatitudeDegrees>37.8837093897163867950439453125</LatitudeDegrees>
              <LongitudeDegrees>-8.153422214090824127197265625</LongitudeDegrees>
            </Position>
            <AltitudeMeters>152.399993896484375</AltitudeMeters>
            <DistanceMeters>274488.00599775</DistanceMeters>
          </Trackpoint>
          <Trackpoint>
            <Time>2018-09-14T13:22:05.000Z</Time>
            <Position>
              <LatitudeDegrees>37.883749790489673614501953125</LatitudeDegrees>
              <LongitudeDegrees>-8.15336412750184535980224609375</LongitudeDegrees>
            </Position>
            <AltitudeMeters>152.1999969482421875</AltitudeMeters>
            <DistanceMeters>274494.80821149</DistanceMeters>
          </Trackpoint>
          <Trackpoint>
            <Time>2018-09-14T13:22:06.000Z</Time>
            <Position>
              <LatitudeDegrees>37.883790694177150726318359375</LatitudeDegrees>
              <LongitudeDegrees>-8.15330587327480316162109375</LongitudeDegrees>
            </Position>
            <AltitudeMeters>152.1999969482421875</AltitudeMeters>
            <DistanceMeters>274501.65804924</DistanceMeters>
          </Trackpoint>
          <Trackpoint>
            <Time>2018-09-14T13:22:07.000Z</Time>
            <Position>
              <LatitudeDegrees>37.8838304243981838226318359375</LatitudeDegrees>
              <LongitudeDegrees>-8.1532466970384120941162109375</LongitudeDegrees>
            </Position>
            <AltitudeMeters>152</AltitudeMeters>
            <DistanceMeters>274508.4827935</DistanceMeters>
          </Trackpoint>
          <Trackpoint>
            <Time>2018-09-14T13:22:08.000Z</Time>
            <Position>
              <LatitudeDegrees>37.8838703222572803497314453125</LatitudeDegrees>
              <LongitudeDegrees>-8.15318827517330646514892578125</LongitudeDegrees>
            </Position>
            <AltitudeMeters>152</AltitudeMeters>
            <DistanceMeters>274515.2690583</DistanceMeters>
          </Trackpoint>
          <Trackpoint>
            <Time>2018-09-14T13:22:09.000Z</Time>
            <Position>
              <LatitudeDegrees>37.8839103877544403076171875</LatitudeDegrees>
              <LongitudeDegrees>-8.1531322002410888671875</LongitudeDegrees>
            </Position>
            <AltitudeMeters>151.8000030517578125</AltitudeMeters>
            <DistanceMeters>274521.91277816</DistanceMeters>
          </Trackpoint>
          <Trackpoint>
            <Time>2018-09-14T13:22:10.000Z</Time>
            <Position>
              <LatitudeDegrees>37.88394819013774394989013671875</LatitudeDegrees>
              <LongitudeDegrees>-8.1530763767659664154052734375</LongitudeDegrees>
            </Position>
            <AltitudeMeters>151.8000030517578125</AltitudeMeters>
            <DistanceMeters>274528.37389598</DistanceMeters>
          </Trackpoint>
          <Trackpoint>
            <Time>2018-09-14T13:22:11.000Z</Time>
            <Position>
              <LatitudeDegrees>37.88398540578782558441162109375</LatitudeDegrees>
              <LongitudeDegrees>-8.15302046947181224822998046875</LongitudeDegrees>
            </Position>
            <AltitudeMeters>151.600006103515625</AltitudeMeters>
            <DistanceMeters>274534.79927608</DistanceMeters>
          </Trackpoint>
          <Trackpoint>
            <Time>2018-09-14T13:22:13.000Z</Time>
            <Position>
              <LatitudeDegrees>37.88406193256378173828125</LatitudeDegrees>
              <LongitudeDegrees>-8.15290899015963077545166015625</LongitudeDegrees>
            </Position>
            <AltitudeMeters>151.600006103515625</AltitudeMeters>
            <DistanceMeters>274547.7779912</DistanceMeters>
          </Trackpoint>
          <Trackpoint>
            <Time>2018-09-14T13:22:14.000Z</Time>
            <Position>
              <LatitudeDegrees>37.8841006569564342498779296875</LatitudeDegrees>
              <LongitudeDegrees>-8.15285316668450832366943359375</LongitudeDegrees>
            </Position>
            <AltitudeMeters>151.399993896484375</AltitudeMeters>
            <DistanceMeters>274554.30654087</DistanceMeters>
          </Trackpoint>
          <Trackpoint>
            <Time>2018-09-14T13:22:15.000Z</Time>
            <Position>
              <LatitudeDegrees>37.88414038717746734619140625</LatitudeDegrees>
              <LongitudeDegrees>-8.15279818139970302581787109375</LongitudeDegrees>
            </Position>
            <AltitudeMeters>151.399993896484375</AltitudeMeters>
            <DistanceMeters>274560.85580519</DistanceMeters>
          </Trackpoint>
          <Trackpoint>
            <Time>2018-09-14T13:22:16.000Z</Time>
            <Position>
              <LatitudeDegrees>37.8841801173985004425048828125</LatitudeDegrees>
              <LongitudeDegrees>-8.15274403430521488189697265625</LongitudeDegrees>
            </Position>
            <AltitudeMeters>151.1999969482421875</AltitudeMeters>
            <DistanceMeters>274567.34968361</DistanceMeters>
          </Trackpoint>
          <Trackpoint>
            <Time>2018-09-14T13:22:17.000Z</Time>
            <Position>
              <LatitudeDegrees>37.88421976380050182342529296875</LatitudeDegrees>
              <LongitudeDegrees>-8.152689635753631591796875</LongitudeDegrees>
            </Position>
            <AltitudeMeters>151.1999969482421875</AltitudeMeters>
            <DistanceMeters>274573.85398282</DistanceMeters>
          </Trackpoint>
          <Trackpoint>
            <Time>2018-09-14T13:22:18.000Z</Time>
            <Position>
              <LatitudeDegrees>37.88425899110734462738037109375</LatitudeDegrees>
              <LongitudeDegrees>-8.1526346504688262939453125</LongitudeDegrees>
            </Position>
            <AltitudeMeters>151</AltitudeMeters>
            <DistanceMeters>274580.36521994</DistanceMeters>
          </Trackpoint>
          <Trackpoint>
            <Time>2018-09-14T13:22:19.000Z</Time>
            <Position>
              <LatitudeDegrees>37.8842977993190288543701171875</LatitudeDegrees>
              <LongitudeDegrees>-8.15257907845079898834228515625</LongitudeDegrees>
            </Position>
            <AltitudeMeters>151</AltitudeMeters>
            <DistanceMeters>274586.88408025</DistanceMeters>
          </Trackpoint>
          <Trackpoint>
            <Time>2018-09-14T13:22:20.000Z</Time>
            <Position>
              <LatitudeDegrees>37.88433618843555450439453125</LatitudeDegrees>
              <LongitudeDegrees>-8.15252258442342281341552734375</LongitudeDegrees>
            </Position>
            <AltitudeMeters>151.1999969482421875</AltitudeMeters>
            <DistanceMeters>274593.43265514</DistanceMeters>
          </Trackpoint>
          <Trackpoint>
            <Time>2018-09-14T13:22:21.000Z</Time>
            <Position>
              <LatitudeDegrees>37.8843749128282070159912109375</LatitudeDegrees>
              <LongitudeDegrees>-8.15246634185314178466796875</LongitudeDegrees>
            </Position>
            <AltitudeMeters>151.1999969482421875</AltitudeMeters>
            <DistanceMeters>274599.98880979</DistanceMeters>
          </Trackpoint>
          <Trackpoint>
            <Time>2018-09-14T13:22:22.000Z</Time>
            <Position>
              <LatitudeDegrees>37.88441397249698638916015625</LatitudeDegrees>
              <LongitudeDegrees>-8.1524111889302730560302734375</LongitudeDegrees>
            </Position>
            <AltitudeMeters>151.1999969482421875</AltitudeMeters>
            <DistanceMeters>274606.49796632</DistanceMeters>
          </Trackpoint>
          <Trackpoint>
            <Time>2018-09-14T13:22:23.000Z</Time>
            <Position>
              <LatitudeDegrees>37.88445278070867061614990234375</LatitudeDegrees>
              <LongitudeDegrees>-8.15235637128353118896484375</LongitudeDegrees>
            </Position>
            <AltitudeMeters>151.399993896484375</AltitudeMeters>
            <DistanceMeters>274612.96746431</DistanceMeters>
          </Trackpoint>
          <Trackpoint>
            <Time>2018-09-14T13:22:24.000Z</Time>
            <Position>
              <LatitudeDegrees>37.8844912536442279815673828125</LatitudeDegrees>
              <LongitudeDegrees>-8.152301050722599029541015625</LongitudeDegrees>
            </Position>
            <AltitudeMeters>151.399993896484375</AltitudeMeters>
            <DistanceMeters>274619.44463462</DistanceMeters>
          </Trackpoint>
          <Trackpoint>
            <Time>2018-09-14T13:22:25.000Z</Time>
            <Position>
              <LatitudeDegrees>37.88453056477010250091552734375</LatitudeDegrees>
              <LongitudeDegrees>-8.1522462330758571624755859375</LongitudeDegrees>
            </Position>
            <AltitudeMeters>151.399993896484375</AltitudeMeters>
            <DistanceMeters>274625.95101598</DistanceMeters>
          </Trackpoint>
          <Trackpoint>
            <Time>2018-09-14T13:22:26.000Z</Time>
            <Position>
              <LatitudeDegrees>37.8845703788101673126220703125</LatitudeDegrees>
              <LongitudeDegrees>-8.152192421257495880126953125</LongitudeDegrees>
            </Position>
            <AltitudeMeters>151.399993896484375</AltitudeMeters>
            <DistanceMeters>274632.43097396</DistanceMeters>
          </Trackpoint>
          <Trackpoint>
            <Time>2018-09-14T13:22:27.000Z</Time>
            <Position>
              <LatitudeDegrees>37.88461119867861270904541015625</LatitudeDegrees>
              <LongitudeDegrees>-8.15213986672461032867431640625</LongitudeDegrees>
            </Position>
            <AltitudeMeters>151.600006103515625</AltitudeMeters>
            <DistanceMeters>274638.90814426</DistanceMeters>
          </Trackpoint>
          <Trackpoint>
            <Time>2018-09-14T13:22:28.000Z</Time>
            <Position>
              <LatitudeDegrees>37.8846515156328678131103515625</LatitudeDegrees>
              <LongitudeDegrees>-8.152085803449153900146484375</LongitudeDegrees>
            </Position>
            <AltitudeMeters>151.600006103515625</AltitudeMeters>
            <DistanceMeters>274645.44222426</DistanceMeters>
          </Trackpoint>
          <Trackpoint>
            <Time>2018-09-14T13:22:29.000Z</Time>
            <Position>
              <LatitudeDegrees>37.88469082675874233245849609375</LatitudeDegrees>
              <LongitudeDegrees>-8.152028135955333709716796875</LongitudeDegrees>
            </Position>
            <AltitudeMeters>151.600006103515625</AltitudeMeters>
            <DistanceMeters>274652.13604524</DistanceMeters>
          </Trackpoint>
          <Trackpoint>
            <Time>2018-09-14T13:22:30.000Z</Time>
            <Position>
              <LatitudeDegrees>37.8847299702465534210205078125</LatitudeDegrees>
              <LongitudeDegrees>-8.15196954645216464996337890625</LongitudeDegrees>
            </Position>
            <AltitudeMeters>151.8000030517578125</AltitudeMeters>
            <DistanceMeters>274658.87825592</DistanceMeters>
          </Trackpoint>
          <Trackpoint>
            <Time>2018-09-14T13:22:31.000Z</Time>
            <Position>
              <LatitudeDegrees>37.88476978428661823272705078125</LatitudeDegrees>
              <LongitudeDegrees>-8.1519119627773761749267578125</LongitudeDegrees>
            </Position>
            <AltitudeMeters>151.8000030517578125</AltitudeMeters>
            <DistanceMeters>274665.60303271</DistanceMeters>
          </Trackpoint>
          <Trackpoint>
            <Time>2018-09-14T13:22:32.000Z</Time>
            <Position>
              <LatitudeDegrees>37.88481018505990505218505859375</LatitudeDegrees>
              <LongitudeDegrees>-8.15185437910258769989013671875</LongitudeDegrees>
            </Position>
            <AltitudeMeters>152</AltitudeMeters>
            <DistanceMeters>274672.37131002</DistanceMeters>
          </Trackpoint>
          <Trackpoint>
            <Time>2018-09-14T13:22:33.000Z</Time>
            <Position>
              <LatitudeDegrees>37.88485075347125530242919921875</LatitudeDegrees>
              <LongitudeDegrees>-8.15179570578038692474365234375</LongitudeDegrees>
            </Position>
            <AltitudeMeters>152</AltitudeMeters>
            <DistanceMeters>274679.22378385</DistanceMeters>
          </Trackpoint>
          <Trackpoint>
            <Time>2018-09-14T13:22:34.000Z</Time>
            <Position>
              <LatitudeDegrees>37.8848902322351932525634765625</LatitudeDegrees>
              <LongitudeDegrees>-8.15173652954399585723876953125</LongitudeDegrees>
            </Position>
            <AltitudeMeters>152</AltitudeMeters>
            <DistanceMeters>274686.02997898</DistanceMeters>
          </Trackpoint>
          <Trackpoint>
            <Time>2018-09-14T13:22:35.000Z</Time>
            <Position>
              <LatitudeDegrees>37.88492904044687747955322265625</LatitudeDegrees>
              <LongitudeDegrees>-8.15167634747922420501708984375</LongitudeDegrees>
            </Position>
            <AltitudeMeters>151.8000030517578125</AltitudeMeters>
            <DistanceMeters>274692.85604625</DistanceMeters>
          </Trackpoint>
          <Trackpoint>
            <Time>2018-09-14T13:22:36.000Z</Time>
            <Position>
              <LatitudeDegrees>37.8849686868488788604736328125</LatitudeDegrees>
              <LongitudeDegrees>-8.15161650069057941436767578125</LongitudeDegrees>
            </Position>
            <AltitudeMeters>151.8000030517578125</AltitudeMeters>
            <DistanceMeters>274699.71971209</DistanceMeters>
          </Trackpoint>
          <Trackpoint>
            <Time>2018-09-14T13:22:37.000Z</Time>
            <Position>
              <LatitudeDegrees>37.885008752346038818359375</LatitudeDegrees>
              <LongitudeDegrees>-8.151558078825473785400390625</LongitudeDegrees>
            </Position>
            <AltitudeMeters>151.8000030517578125</AltitudeMeters>
            <DistanceMeters>274706.5179421</DistanceMeters>
          </Trackpoint>
          <Trackpoint>
            <Time>2018-09-14T13:22:38.000Z</Time>
            <Position>
              <LatitudeDegrees>37.88504973985254764556884765625</LatitudeDegrees>
              <LongitudeDegrees>-8.1515012495219707489013671875</LongitudeDegrees>
            </Position>
            <AltitudeMeters>151.600006103515625</AltitudeMeters>
            <DistanceMeters>274713.28021296</DistanceMeters>
          </Trackpoint>
          <Trackpoint>
            <Time>2018-09-14T13:22:39.000Z</Time>
            <Position>
              <LatitudeDegrees>37.885090224444866180419921875</LatitudeDegrees>
              <LongitudeDegrees>-8.15144567750394344329833984375</LongitudeDegrees>
            </Position>
            <AltitudeMeters>151.600006103515625</AltitudeMeters>
            <DistanceMeters>274719.92325319</DistanceMeters>
          </Trackpoint>
          <Trackpoint>
            <Time>2018-09-14T13:22:40.000Z</Time>
            <Position>
              <LatitudeDegrees>37.8851292841136455535888671875</LatitudeDegrees>
              <LongitudeDegrees>-8.15139002166688442230224609375</LongitudeDegrees>
            </Position>
            <AltitudeMeters>151.600006103515625</AltitudeMeters>
            <DistanceMeters>274726.46561992</DistanceMeters>
          </Trackpoint>
          <Trackpoint>
            <Time>2018-09-14T13:22:41.000Z</Time>
            <Position>
              <LatitudeDegrees>37.88516708649694919586181640625</LatitudeDegrees>
              <LongitudeDegrees>-8.1513339467346668243408203125</LongitudeDegrees>
            </Position>
            <AltitudeMeters>151.399993896484375</AltitudeMeters>
            <DistanceMeters>274732.94418421</DistanceMeters>
          </Trackpoint>
          <Trackpoint>
            <Time>2018-09-14T13:22:42.000Z</Time>
            <Position>
              <LatitudeDegrees>37.88520413450896739959716796875</LatitudeDegrees>
              <LongitudeDegrees>-8.1512766145169734954833984375</LongitudeDegrees>
            </Position>
            <AltitudeMeters>151.399993896484375</AltitudeMeters>
            <DistanceMeters>274739.45403434</DistanceMeters>
          </Trackpoint>
          <Trackpoint>
            <Time>2018-09-14T13:22:43.000Z</Time>
            <Position>
              <LatitudeDegrees>37.8852416016161441802978515625</LatitudeDegrees>
              <LongitudeDegrees>-8.15121953375637531280517578125</LongitudeDegrees>
            </Position>
            <AltitudeMeters>151.399993896484375</AltitudeMeters>
            <DistanceMeters>274745.97635679</DistanceMeters>
          </Trackpoint>
          <Trackpoint>
            <Time>2018-09-14T13:22:44.000Z</Time>
            <Position>
              <LatitudeDegrees>37.8852791525423526763916015625</LatitudeDegrees>
              <LongitudeDegrees>-8.15116421319544315338134765625</LongitudeDegrees>
            </Position>
            <AltitudeMeters>151.1999969482421875</AltitudeMeters>
            <DistanceMeters>274752.38625912</DistanceMeters>
          </Trackpoint>
          <Trackpoint>
            <Time>2018-09-14T13:22:45.000Z</Time>
            <Position>
              <LatitudeDegrees>37.885316200554370880126953125</LatitudeDegrees>
              <LongitudeDegrees>-8.15111048519611358642578125</LongitudeDegrees>
            </Position>
            <AltitudeMeters>151.1999969482421875</AltitudeMeters>
            <DistanceMeters>274758.65370138</DistanceMeters>
          </Trackpoint>
          <Trackpoint>
            <Time>2018-09-14T13:22:46.000Z</Time>
            <Position>
              <LatitudeDegrees>37.88535014726221561431884765625</LatitudeDegrees>
              <LongitudeDegrees>-8.15105524845421314239501953125</LongitudeDegrees>
            </Position>
            <AltitudeMeters>151.1999969482421875</AltitudeMeters>
            <DistanceMeters>274764.80333228</DistanceMeters>
          </Trackpoint>
          <Trackpoint>
            <Time>2018-09-14T13:22:47.000Z</Time>
            <Position>
              <LatitudeDegrees>37.88537981919944286346435546875</LatitudeDegrees>
              <LongitudeDegrees>-8.150997161865234375</LongitudeDegrees>
            </Position>
            <AltitudeMeters>151</AltitudeMeters>
            <DistanceMeters>274770.88132888</DistanceMeters>
          </Trackpoint>
          <Trackpoint>
            <Time>2018-09-14T13:22:48.000Z</Time>
            <Position>
              <LatitudeDegrees>37.885394655168056488037109375</LatitudeDegrees>
              <LongitudeDegrees>-8.1509322859346866607666015625</LongitudeDegrees>
            </Position>
            <AltitudeMeters>151</AltitudeMeters>
            <DistanceMeters>274776.81574529</DistanceMeters>
          </Trackpoint>
          <Trackpoint>
            <Time>2018-09-14T13:22:49.000Z</Time>
            <Position>
              <LatitudeDegrees>37.88538417778909206390380859375</LatitudeDegrees>
              <LongitudeDegrees>-8.15086363814771175384521484375</LongitudeDegrees>
            </Position>
            <AltitudeMeters>151</AltitudeMeters>
            <DistanceMeters>274782.95802983</DistanceMeters>
          </Trackpoint>
          <Trackpoint>
            <Time>2018-09-14T13:22:50.000Z</Time>
            <Position>
              <LatitudeDegrees>37.88535048253834247589111328125</LatitudeDegrees>
              <LongitudeDegrees>-8.15080312080681324005126953125</LongitudeDegrees>
            </Position>
            <AltitudeMeters>151.1999969482421875</AltitudeMeters>
            <DistanceMeters>274789.46371721</DistanceMeters>
          </Trackpoint>
          <Trackpoint>
            <Time>2018-09-14T13:22:51.000Z</Time>
            <Position>
              <LatitudeDegrees>37.885300107300281524658203125</LatitudeDegrees>
              <LongitudeDegrees>-8.150758780539035797119140625</LongitudeDegrees>
            </Position>
            <AltitudeMeters>151.1999969482421875</AltitudeMeters>
            <DistanceMeters>274796.29110724</DistanceMeters>
          </Trackpoint>
          <Trackpoint>
            <Time>2018-09-14T13:22:52.000Z</Time>
            <Position>
              <LatitudeDegrees>37.8852392546832561492919921875</LatitudeDegrees>
              <LongitudeDegrees>-8.150736987590789794921875</LongitudeDegrees>
            </Position>
            <AltitudeMeters>151.1999969482421875</AltitudeMeters>
            <DistanceMeters>274803.3295019</DistanceMeters>
          </Trackpoint>
          <Trackpoint>
            <Time>2018-09-14T13:22:53.000Z</Time>
            <Position>
              <LatitudeDegrees>37.88517479784786701202392578125</LatitudeDegrees>
              <LongitudeDegrees>-8.150737322866916656494140625</LongitudeDegrees>
            </Position>
            <AltitudeMeters>150.8000030517578125</AltitudeMeters>
            <DistanceMeters>274810.50323215</DistanceMeters>
          </Trackpoint>
          <Trackpoint>
            <Time>2018-09-14T13:22:54.000Z</Time>
            <Position>
              <LatitudeDegrees>37.8851108439266681671142578125</LatitudeDegrees>
              <LongitudeDegrees>-8.1507503986358642578125</LongitudeDegrees>
            </Position>
            <AltitudeMeters>150.600006103515625</AltitudeMeters>
            <DistanceMeters>274817.71337432</DistanceMeters>
          </Trackpoint>
          <Trackpoint>
            <Time>2018-09-14T13:22:55.000Z</Time>
            <Position>
              <LatitudeDegrees>37.8850468061864376068115234375</LatitudeDegrees>
              <LongitudeDegrees>-8.15076875500380992889404296875</LongitudeDegrees>
            </Position>
            <AltitudeMeters>150.399993896484375</AltitudeMeters>
            <DistanceMeters>274825.02116961</DistanceMeters>
          </Trackpoint>
          <Trackpoint>
            <Time>2018-09-14T13:22:56.000Z</Time>
            <Position>
              <LatitudeDegrees>37.88498201407492160797119140625</LatitudeDegrees>
              <LongitudeDegrees>-8.15078702755272388458251953125</LongitudeDegrees>
            </Position>
            <AltitudeMeters>150.600006103515625</AltitudeMeters>
            <DistanceMeters>274832.40884733</DistanceMeters>
          </Trackpoint>
          <Trackpoint>
            <Time>2018-09-14T13:22:57.000Z</Time>
            <Position>
              <LatitudeDegrees>37.884917221963405609130859375</LatitudeDegrees>
              <LongitudeDegrees>-8.1508038751780986785888671875</LongitudeDegrees>
            </Position>
            <AltitudeMeters>150.600006103515625</AltitudeMeters>
            <DistanceMeters>274839.77019834</DistanceMeters>
          </Trackpoint>
          <Trackpoint>
            <Time>2018-09-14T13:22:58.000Z</Time>
            <Position>
              <LatitudeDegrees>37.8848520107567310333251953125</LatitudeDegrees>
              <LongitudeDegrees>-8.15081946551799774169921875</LongitudeDegrees>
            </Position>
            <AltitudeMeters>150.8000030517578125</AltitudeMeters>
            <DistanceMeters>274847.15543102</DistanceMeters>
          </Trackpoint>
          <Trackpoint>
            <Time>2018-09-14T13:22:59.000Z</Time>
            <Position>
              <LatitudeDegrees>37.8847879730165004730224609375</LatitudeDegrees>
              <LongitudeDegrees>-8.150835894048213958740234375</LongitudeDegrees>
            </Position>
            <AltitudeMeters>151</AltitudeMeters>
            <DistanceMeters>274854.42730338</DistanceMeters>
          </Trackpoint>
          <Trackpoint>
            <Time>2018-09-14T13:23:00.000Z</Time>
            <Position>
              <LatitudeDegrees>37.88472519256174564361572265625</LatitudeDegrees>
              <LongitudeDegrees>-8.15085408277809619903564453125</LongitudeDegrees>
            </Position>
            <AltitudeMeters>151</AltitudeMeters>
            <DistanceMeters>274861.59536693</DistanceMeters>
          </Trackpoint>
          <Trackpoint>
            <Time>2018-09-14T13:23:01.000Z</Time>
            <Position>
              <LatitudeDegrees>37.88466299884021282196044921875</LatitudeDegrees>
              <LongitudeDegrees>-8.15087067894637584686279296875</LongitudeDegrees>
            </Position>
            <AltitudeMeters>151.1999969482421875</AltitudeMeters>
            <DistanceMeters>274868.66895538</DistanceMeters>
          </Trackpoint>
          <Trackpoint>
            <Time>2018-09-14T13:23:02.000Z</Time>
            <Position>
              <LatitudeDegrees>37.88460172712802886962890625</LatitudeDegrees>
              <LongitudeDegrees>-8.150886185467243194580078125</LongitudeDegrees>
            </Position>
            <AltitudeMeters>151.399993896484375</AltitudeMeters>
            <DistanceMeters>274875.62410595</DistanceMeters>
          </Trackpoint>
          <Trackpoint>
            <Time>2018-09-14T13:23:03.000Z</Time>
            <Position>
              <LatitudeDegrees>37.88454112596809864044189453125</LatitudeDegrees>
              <LongitudeDegrees>-8.1509007699787616729736328125</LongitudeDegrees>
            </Position>
            <AltitudeMeters>151.399993896484375</AltitudeMeters>
            <DistanceMeters>274882.48974496</DistanceMeters>
          </Trackpoint>
          <Trackpoint>
            <Time>2018-09-14T13:23:04.000Z</Time>
            <Position>
              <LatitudeDegrees>37.88448228500783443450927734375</LatitudeDegrees>
              <LongitudeDegrees>-8.1509165279567241668701171875</LongitudeDegrees>
            </Position>
            <AltitudeMeters>151.600006103515625</AltitudeMeters>
            <DistanceMeters>274889.18356594</DistanceMeters>
          </Trackpoint>
          <Trackpoint>
            <Time>2018-09-14T13:23:05.000Z</Time>
            <Position>
              <LatitudeDegrees>37.88442394696176052093505859375</LatitudeDegrees>
              <LongitudeDegrees>-8.15093236975371837615966796875</LongitudeDegrees>
            </Position>
            <AltitudeMeters>151.8000030517578125</AltitudeMeters>
            <DistanceMeters>274895.82456687</DistanceMeters>
          </Trackpoint>
          <Trackpoint>
            <Time>2018-09-14T13:23:06.000Z</Time>
            <Position>
              <LatitudeDegrees>37.8843648545444011688232421875</LatitudeDegrees>
              <LongitudeDegrees>-8.150948546826839447021484375</LongitudeDegrees>
            </Position>
            <AltitudeMeters>151.8000030517578125</AltitudeMeters>
            <DistanceMeters>274902.55337088</DistanceMeters>
          </Trackpoint>
          <Trackpoint>
            <Time>2018-09-14T13:23:07.000Z</Time>
            <Position>
              <LatitudeDegrees>37.88430576212704181671142578125</LatitudeDegrees>
              <LongitudeDegrees>-8.15096430480480194091796875</LongitudeDegrees>
            </Position>
            <AltitudeMeters>152</AltitudeMeters>
            <DistanceMeters>274909.27546151</DistanceMeters>
          </Trackpoint>
          <Trackpoint>
            <Time>2018-09-14T13:23:08.000Z</Time>
            <Position>
              <LatitudeDegrees>37.88424641825258731842041015625</LatitudeDegrees>
              <LongitudeDegrees>-8.15098106861114501953125</LongitudeDegrees>
            </Position>
            <AltitudeMeters>152</AltitudeMeters>
            <DistanceMeters>274916.0430717</DistanceMeters>
          </Trackpoint>
          <Trackpoint>
            <Time>2018-09-14T13:23:09.000Z</Time>
            <Position>
              <LatitudeDegrees>37.8841874934732913970947265625</LatitudeDegrees>
              <LongitudeDegrees>-8.1509983353316783905029296875</LongitudeDegrees>
            </Position>
            <AltitudeMeters>151.8000030517578125</AltitudeMeters>
            <DistanceMeters>274922.77455918</DistanceMeters>
          </Trackpoint>
          <Trackpoint>
            <Time>2018-09-14T13:23:10.000Z</Time>
            <Position>
              <LatitudeDegrees>37.8841288201510906219482421875</LatitudeDegrees>
              <LongitudeDegrees>-8.15101568587124347686767578125</LongitudeDegrees>
            </Position>
            <AltitudeMeters>151.600006103515625</AltitudeMeters>
            <DistanceMeters>274929.48051032</DistanceMeters>
          </Trackpoint>
          <Trackpoint>
            <Time>2018-09-14T13:23:11.000Z</Time>
            <Position>
              <LatitudeDegrees>37.884069979190826416015625</LatitudeDegrees>
              <LongitudeDegrees>-8.15103228203952312469482421875</LongitudeDegrees>
            </Position>
            <AltitudeMeters>151.399993896484375</AltitudeMeters>
            <DistanceMeters>274936.19049997</DistanceMeters>
          </Trackpoint>
          <Trackpoint>
            <Time>2018-09-14T13:23:12.000Z</Time>
            <Position>
              <LatitudeDegrees>37.884010970592498779296875</LatitudeDegrees>
              <LongitudeDegrees>-8.1510482914745807647705078125</LongitudeDegrees>
            </Position>
            <AltitudeMeters>151.399993896484375</AltitudeMeters>
            <DistanceMeters>274942.90721508</DistanceMeters>
          </Trackpoint>
          <Trackpoint>
            <Time>2018-09-14T13:23:13.000Z</Time>
            <Position>
              <LatitudeDegrees>37.88395204581320285797119140625</LatitudeDegrees>
              <LongitudeDegrees>-8.15106396563351154327392578125</LongitudeDegrees>
            </Position>
            <AltitudeMeters>151.1999969482421875</AltitudeMeters>
            <DistanceMeters>274949.60777775</DistanceMeters>
          </Trackpoint>
          <Trackpoint>
            <Time>2018-09-14T13:23:14.000Z</Time>
            <Position>
              <LatitudeDegrees>37.88389320485293865203857421875</LatitudeDegrees>
              <LongitudeDegrees>-8.1510791368782520294189453125</LongitudeDegrees>
            </Position>
            <AltitudeMeters>151</AltitudeMeters>
            <DistanceMeters>274956.29079789</DistanceMeters>
          </Trackpoint>
          <Trackpoint>
            <Time>2018-09-14T13:23:15.000Z</Time>
            <Position>
              <LatitudeDegrees>37.88383503444492816925048828125</LatitudeDegrees>
              <LongitudeDegrees>-8.1510945595800876617431640625</LongitudeDegrees>
            </Position>
            <AltitudeMeters>151</AltitudeMeters>
            <DistanceMeters>274962.90591319</DistanceMeters>
          </Trackpoint>
          <Trackpoint>
            <Time>2018-09-14T13:23:16.000Z</Time>
            <Position>
              <LatitudeDegrees>37.88377770222723484039306640625</LatitudeDegrees>
              <LongitudeDegrees>-8.1511106528341770172119140625</LongitudeDegrees>
            </Position>
            <AltitudeMeters>150.8000030517578125</AltitudeMeters>
            <DistanceMeters>274969.44137504</DistanceMeters>
          </Trackpoint>
          <Trackpoint>
            <Time>2018-09-14T13:23:17.000Z</Time>
            <Position>
              <LatitudeDegrees>37.88372137583792209625244140625</LatitudeDegrees>
              <LongitudeDegrees>-8.1511274166405200958251953125</LongitudeDegrees>
            </Position>
            <AltitudeMeters>150.8000030517578125</AltitudeMeters>
            <DistanceMeters>274975.88079357</DistanceMeters>
          </Trackpoint>
          <Trackpoint>
            <Time>2018-09-14T13:23:18.000Z</Time>
            <Position>
              <LatitudeDegrees>37.88366404362022876739501953125</LatitudeDegrees>
              <LongitudeDegrees>-8.1511441804468631744384765625</LongitudeDegrees>
            </Position>
            <AltitudeMeters>150.600006103515625</AltitudeMeters>
            <DistanceMeters>274982.42936845</DistanceMeters>
          </Trackpoint>
          <Trackpoint>
            <Time>2018-09-14T13:23:19.000Z</Time>
            <Position>
              <LatitudeDegrees>37.88360436446964740753173828125</LatitudeDegrees>
              <LongitudeDegrees>-8.1511599384248256683349609375</LongitudeDegrees>
            </Position>
            <AltitudeMeters>150.399993896484375</AltitudeMeters>
            <DistanceMeters>274989.21430248</DistanceMeters>
          </Trackpoint>
          <Trackpoint>
            <Time>2018-09-14T13:23:20.000Z</Time>
            <Position>
              <LatitudeDegrees>37.88354351185262203216552734375</LatitudeDegrees>
              <LongitudeDegrees>-8.151175193488597869873046875</LongitudeDegrees>
            </Position>
            <AltitudeMeters>150.399993896484375</AltitudeMeters>
            <DistanceMeters>274996.11863254</DistanceMeters>
          </Trackpoint>
          <Trackpoint>
            <Time>2018-09-14T13:23:21.000Z</Time>
            <Position>
              <LatitudeDegrees>37.8834803961217403411865234375</LatitudeDegrees>
              <LongitudeDegrees>-8.151190616190433502197265625</LongitudeDegrees>
            </Position>
            <AltitudeMeters>150.1999969482421875</AltitudeMeters>
            <DistanceMeters>275003.27282524</DistanceMeters>
          </Trackpoint>
          <Trackpoint>
            <Time>2018-09-14T13:23:22.000Z</Time>
            <Position>
              <LatitudeDegrees>37.8834146820008754730224609375</LatitudeDegrees>
              <LongitudeDegrees>-8.15120645798742771148681640625</LongitudeDegrees>
            </Position>
            <AltitudeMeters>150</AltitudeMeters>
            <DistanceMeters>275010.71833659</DistanceMeters>
          </Trackpoint>
          <Trackpoint>
            <Time>2018-09-14T13:23:23.000Z</Time>
            <Position>
              <LatitudeDegrees>37.88334687240421772003173828125</LatitudeDegrees>
              <LongitudeDegrees>-8.1512229703366756439208984375</LongitudeDegrees>
            </Position>
            <AltitudeMeters>149.8000030517578125</AltitudeMeters>
            <DistanceMeters>275018.40375981</DistanceMeters>
          </Trackpoint>
          <Trackpoint>
            <Time>2018-09-14T13:23:24.000Z</Time>
            <Position>
              <LatitudeDegrees>37.88327671587467193603515625</LatitudeDegrees>
              <LongitudeDegrees>-8.15124032087624073028564453125</LongitudeDegrees>
            </Position>
            <AltitudeMeters>149.600006103515625</AltitudeMeters>
            <DistanceMeters>275026.35994205</DistanceMeters>
          </Trackpoint>
          <Trackpoint>
            <Time>2018-09-14T13:23:25.000Z</Time>
            <Position>
              <LatitudeDegrees>37.88320471532642841339111328125</LatitudeDegrees>
              <LongitudeDegrees>-8.151258341968059539794921875</LongitudeDegrees>
            </Position>
            <AltitudeMeters>149.399993896484375</AltitudeMeters>
            <DistanceMeters>275034.52892393</DistanceMeters>
          </Trackpoint>
          <Trackpoint>
            <Time>2018-09-14T13:23:26.000Z</Time>
            <Position>
              <LatitudeDegrees>37.88313045166432857513427734375</LatitudeDegrees>
              <LongitudeDegrees>-8.15127636305987834930419921875</LongitudeDegrees>
            </Position>
            <AltitudeMeters>149.1999969482421875</AltitudeMeters>
            <DistanceMeters>275042.94563051</DistanceMeters>
          </Trackpoint>
          <Trackpoint>
            <Time>2018-09-14T13:23:27.000Z</Time>
            <Position>
              <LatitudeDegrees>37.883053757250308990478515625</LatitudeDegrees>
              <LongitudeDegrees>-8.15129513852298259735107421875</LongitudeDegrees>
            </Position>
            <AltitudeMeters>149</AltitudeMeters>
            <DistanceMeters>275051.64044506</DistanceMeters>
          </Trackpoint>
          <Trackpoint>
            <Time>2018-09-14T13:23:28.000Z</Time>
            <Position>
              <LatitudeDegrees>37.882975302636623382568359375</LatitudeDegrees>
              <LongitudeDegrees>-8.15131458453834056854248046875</LongitudeDegrees>
            </Position>
            <AltitudeMeters>148.399993896484375</AltitudeMeters>
            <DistanceMeters>275060.53851846</DistanceMeters>
          </Trackpoint>
          <Trackpoint>
            <Time>2018-09-14T13:23:29.000Z</Time>
            <Position>
              <LatitudeDegrees>37.88289559073746204376220703125</LatitudeDegrees>
              <LongitudeDegrees>-8.15133512020111083984375</LongitudeDegrees>
            </Position>
            <AltitudeMeters>147.8000030517578125</AltitudeMeters>
            <DistanceMeters>275069.59202628</DistanceMeters>
          </Trackpoint>
          <Trackpoint>
            <Time>2018-09-14T13:23:30.000Z</Time>
            <Position>
              <LatitudeDegrees>37.88281445391476154327392578125</LatitudeDegrees>
              <LongitudeDegrees>-8.15135599114000797271728515625</LongitudeDegrees>
            </Position>
            <AltitudeMeters>147.399993896484375</AltitudeMeters>
            <DistanceMeters>275078.80716811</DistanceMeters>
          </Trackpoint>
          <Trackpoint>
            <Time>2018-09-14T13:23:31.000Z</Time>
            <Position>
              <LatitudeDegrees>37.88273365236818790435791015625</LatitudeDegrees>
              <LongitudeDegrees>-8.15137795172631740570068359375</LongitudeDegrees>
            </Position>
            <AltitudeMeters>146.8000030517578125</AltitudeMeters>
            <DistanceMeters>275088.0051454</DistanceMeters>
          </Trackpoint>
          <Trackpoint>
            <Time>2018-09-14T13:23:32.000Z</Time>
            <Position>
              <LatitudeDegrees>37.88265285082161426544189453125</LatitudeDegrees>
              <LongitudeDegrees>-8.15140007995069026947021484375</LongitudeDegrees>
            </Position>
            <AltitudeMeters>146.1999969482421875</AltitudeMeters>
            <DistanceMeters>275097.20655816</DistanceMeters>
          </Trackpoint>
          <Trackpoint>
            <Time>2018-09-14T13:23:33.000Z</Time>
            <Position>
              <LatitudeDegrees>37.88257137872278690338134765625</LatitudeDegrees>
              <LongitudeDegrees>-8.15142237581312656402587890625</LongitudeDegrees>
            </Position>
            <AltitudeMeters>145.600006103515625</AltitudeMeters>
            <DistanceMeters>275106.48371605</DistanceMeters>
          </Trackpoint>
          <Trackpoint>
            <Time>2018-09-14T13:23:34.000Z</Time>
            <Position>
              <LatitudeDegrees>37.8824893198907375335693359375</LatitudeDegrees>
              <LongitudeDegrees>-8.151445090770721435546875</LongitudeDegrees>
            </Position>
            <AltitudeMeters>145.600006103515625</AltitudeMeters>
            <DistanceMeters>275115.83214265</DistanceMeters>
          </Trackpoint>
          <Trackpoint>
            <Time>2018-09-14T13:23:35.000Z</Time>
            <Position>
              <LatitudeDegrees>37.88240508176386356353759765625</LatitudeDegrees>
              <LongitudeDegrees>-8.151466883718967437744140625</LongitudeDegrees>
            </Position>
            <AltitudeMeters>145.8000030517578125</AltitudeMeters>
            <DistanceMeters>275125.40110158</DistanceMeters>
          </Trackpoint>
          <Trackpoint>
            <Time>2018-09-14T13:23:36.000Z</Time>
            <Position>
              <LatitudeDegrees>37.882320173084735870361328125</LatitudeDegrees>
              <LongitudeDegrees>-8.15148758701980113983154296875</LongitudeDegrees>
            </Position>
            <AltitudeMeters>146</AltitudeMeters>
            <DistanceMeters>275135.02463856</DistanceMeters>
          </Trackpoint>
          <Trackpoint>
            <Time>2018-09-14T13:23:37.000Z</Time>
            <Position>
              <LatitudeDegrees>37.88223601877689361572265625</LatitudeDegrees>
              <LongitudeDegrees>-8.15150879323482513427734375</LongitudeDegrees>
            </Position>
            <AltitudeMeters>146</AltitudeMeters>
            <DistanceMeters>275144.57470516</DistanceMeters>
          </Trackpoint>
          <Trackpoint>
            <Time>2018-09-14T13:23:38.000Z</Time>
            <Position>
              <LatitudeDegrees>37.88215379230678081512451171875</LatitudeDegrees>
              <LongitudeDegrees>-8.1515310890972614288330078125</LongitudeDegrees>
            </Position>
            <AltitudeMeters>146.1999969482421875</AltitudeMeters>
            <DistanceMeters>275153.93375114</DistanceMeters>
          </Trackpoint>
          <Trackpoint>
            <Time>2018-09-14T13:23:39.000Z</Time>
            <Position>
              <LatitudeDegrees>37.88207282312214374542236328125</LatitudeDegrees>
              <LongitudeDegrees>-8.1515535525977611541748046875</LongitudeDegrees>
            </Position>
            <AltitudeMeters>146.399993896484375</AltitudeMeters>
            <DistanceMeters>275163.15917636</DistanceMeters>
          </Trackpoint>
          <Trackpoint>
            <Time>2018-09-14T13:23:40.000Z</Time>
            <Position>
              <LatitudeDegrees>37.881993614137172698974609375</LatitudeDegrees>
              <LongitudeDegrees>-8.15157609991729259490966796875</LongitudeDegrees>
            </Position>
            <AltitudeMeters>146.399993896484375</AltitudeMeters>
            <DistanceMeters>275172.19521261</DistanceMeters>
          </Trackpoint>
          <Trackpoint>
            <Time>2018-09-14T13:23:41.000Z</Time>
            <Position>
              <LatitudeDegrees>37.8819153271615505218505859375</LatitudeDegrees>
              <LongitudeDegrees>-8.1515988148748874664306640625</LongitudeDegrees>
            </Position>
            <AltitudeMeters>146.600006103515625</AltitudeMeters>
            <DistanceMeters>275181.13479742</DistanceMeters>
          </Trackpoint>
          <Trackpoint>
            <Time>2018-09-14T13:23:42.000Z</Time>
            <Position>
              <LatitudeDegrees>37.88183762691915035247802734375</LatitudeDegrees>
              <LongitudeDegrees>-8.1516212783753871917724609375</LongitudeDegrees>
            </Position>
            <AltitudeMeters>146.600006103515625</AltitudeMeters>
            <DistanceMeters>275190.00542796</DistanceMeters>
          </Trackpoint>
          <Trackpoint>
            <Time>2018-09-14T13:23:43.000Z</Time>
            <Position>
              <LatitudeDegrees>37.88176084868609905242919921875</LatitudeDegrees>
              <LongitudeDegrees>-8.1516427360475063323974609375</LongitudeDegrees>
            </Position>
            <AltitudeMeters>146.8000030517578125</AltitudeMeters>
            <DistanceMeters>275198.75717683</DistanceMeters>
          </Trackpoint>
          <Trackpoint>
            <Time>2018-09-14T13:23:44.000Z</Time>
            <Position>
              <LatitudeDegrees>37.8816846571862697601318359375</LatitudeDegrees>
              <LongitudeDegrees>-8.151662349700927734375</LongitudeDegrees>
            </Position>
            <AltitudeMeters>147</AltitudeMeters>
            <DistanceMeters>275207.4113928</DistanceMeters>
          </Trackpoint>
          <Trackpoint>
            <Time>2018-09-14T13:23:45.000Z</Time>
            <Position>
              <LatitudeDegrees>37.88160880096256732940673828125</LatitudeDegrees>
              <LongitudeDegrees>-8.15168020315468311309814453125</LongitudeDegrees>
            </Position>
            <AltitudeMeters>147.399993896484375</AltitudeMeters>
            <DistanceMeters>275215.99856953</DistanceMeters>
          </Trackpoint>
          <Trackpoint>
            <Time>2018-09-14T13:23:46.000Z</Time>
            <Position>
              <LatitudeDegrees>37.88153386674821376800537109375</LatitudeDegrees>
              <LongitudeDegrees>-8.15169788897037506103515625</LongitudeDegrees>
            </Position>
            <AltitudeMeters>147.8000030517578125</AltitudeMeters>
            <DistanceMeters>275224.48259802</DistanceMeters>
          </Trackpoint>
          <Trackpoint>
            <Time>2018-09-14T13:23:47.000Z</Time>
            <Position>
              <LatitudeDegrees>37.8814600221812725067138671875</LatitudeDegrees>
              <LongitudeDegrees>-8.1517159938812255859375</LongitudeDegrees>
            </Position>
            <AltitudeMeters>148.1999969482421875</AltitudeMeters>
            <DistanceMeters>275232.85412257</DistanceMeters>
          </Trackpoint>
          <Trackpoint>
            <Time>2018-09-14T13:23:48.000Z</Time>
            <Position>
              <LatitudeDegrees>37.88138768635690212249755859375</LatitudeDegrees>
              <LongitudeDegrees>-8.1517332606017589569091796875</LongitudeDegrees>
            </Position>
            <AltitudeMeters>148.600006103515625</AltitudeMeters>
            <DistanceMeters>275241.0468363</DistanceMeters>
          </Trackpoint>
          <Trackpoint>
            <Time>2018-09-14T13:23:49.000Z</Time>
            <Position>
              <LatitudeDegrees>37.88131736218929290771484375</LatitudeDegrees>
              <LongitudeDegrees>-8.1517500244081020355224609375</LongitudeDegrees>
            </Position>
            <AltitudeMeters>149</AltitudeMeters>
            <DistanceMeters>275249.01152631</DistanceMeters>
          </Trackpoint>
          <Trackpoint>
            <Time>2018-09-14T13:23:50.000Z</Time>
            <Position>
              <LatitudeDegrees>37.88124921731650829315185546875</LatitudeDegrees>
              <LongitudeDegrees>-8.15176762640476226806640625</LongitudeDegrees>
            </Position>
            <AltitudeMeters>149.399993896484375</AltitudeMeters>
            <DistanceMeters>275256.75255901</DistanceMeters>
          </Trackpoint>
          <Trackpoint>
            <Time>2018-09-14T13:23:51.000Z</Time>
            <Position>
              <LatitudeDegrees>37.88118400610983371734619140625</LatitudeDegrees>
              <LongitudeDegrees>-8.15178514458239078521728515625</LongitudeDegrees>
            </Position>
            <AltitudeMeters>149.600006103515625</AltitudeMeters>
            <DistanceMeters>275264.1725574</DistanceMeters>
          </Trackpoint>
          <Trackpoint>
            <Time>2018-09-14T13:23:52.000Z</Time>
            <Position>
              <LatitudeDegrees>37.8811210580170154571533203125</LatitudeDegrees>
              <LongitudeDegrees>-8.15180207602679729461669921875</LongitudeDegrees>
            </Position>
            <AltitudeMeters>149.8000030517578125</AltitudeMeters>
            <DistanceMeters>275271.33494976</DistanceMeters>
          </Trackpoint>
          <Trackpoint>
            <Time>2018-09-14T13:23:53.000Z</Time>
            <Position>
              <LatitudeDegrees>37.881060540676116943359375</LatitudeDegrees>
              <LongitudeDegrees>-8.15181699581444263458251953125</LongitudeDegrees>
            </Position>
            <AltitudeMeters>150.1999969482421875</AltitudeMeters>
            <DistanceMeters>275278.19664186</DistanceMeters>
          </Trackpoint>
          <Trackpoint>
            <Time>2018-09-14T13:23:54.000Z</Time>
            <Position>
              <LatitudeDegrees>37.88100220263004302978515625</LatitudeDegrees>
              <LongitudeDegrees>-8.15183292143046855926513671875</LongitudeDegrees>
            </Position>
            <AltitudeMeters>150.399993896484375</AltitudeMeters>
            <DistanceMeters>275284.8390024</DistanceMeters>
          </Trackpoint>
          <Trackpoint>
            <Time>2018-09-14T13:23:55.000Z</Time>
            <Position>
              <LatitudeDegrees>37.8809463791549205780029296875</LatitudeDegrees>
              <LongitudeDegrees>-8.1518496014177799224853515625</LongitudeDegrees>
            </Position>
            <AltitudeMeters>150.600006103515625</AltitudeMeters>
            <DistanceMeters>275291.22278929</DistanceMeters>
          </Trackpoint>
          <Trackpoint>
            <Time>2018-09-14T13:23:56.000Z</Time>
            <Position>
              <LatitudeDegrees>37.88089181296527385711669921875</LatitudeDegrees>
              <LongitudeDegrees>-8.15186309628188610076904296875</LongitudeDegrees>
            </Position>
            <AltitudeMeters>151</AltitudeMeters>
            <DistanceMeters>275297.41048063</DistanceMeters>
          </Trackpoint>
          <Trackpoint>
            <Time>2018-09-14T13:23:57.000Z</Time>
            <Position>
              <LatitudeDegrees>37.88083800114691257476806640625</LatitudeDegrees>
              <LongitudeDegrees>-8.151875250041484832763671875</LongitudeDegrees>
            </Position>
            <AltitudeMeters>151</AltitudeMeters>
            <DistanceMeters>275303.49367496</DistanceMeters>
          </Trackpoint>
          <Trackpoint>
            <Time>2018-09-14T13:23:58.000Z</Time>
            <Position>
              <LatitudeDegrees>37.8807857818901538848876953125</LatitudeDegrees>
              <LongitudeDegrees>-8.15188874490559101104736328125</LongitudeDegrees>
            </Position>
            <AltitudeMeters>151</AltitudeMeters>
            <DistanceMeters>275309.4250473</DistanceMeters>
          </Trackpoint>
          <Trackpoint>
            <Time>2018-09-14T13:23:59.000Z</Time>
            <Position>
              <LatitudeDegrees>37.88073507137596607208251953125</LatitudeDegrees>
              <LongitudeDegrees>-8.15190316177904605865478515625</LongitudeDegrees>
            </Position>
            <AltitudeMeters>151.1999969482421875</AltitudeMeters>
            <DistanceMeters>275315.20998146</DistanceMeters>
          </Trackpoint>
          <Trackpoint>
            <Time>2018-09-14T13:24:00.000Z</Time>
            <Position>
              <LatitudeDegrees>37.88068612106144428253173828125</LatitudeDegrees>
              <LongitudeDegrees>-8.151917159557342529296875</LongitudeDegrees>
            </Position>
            <AltitudeMeters>151.399993896484375</AltitudeMeters>
            <DistanceMeters>275320.79558028</DistanceMeters>
          </Trackpoint>
          <Trackpoint>
            <Time>2018-09-14T13:24:01.000Z</Time>
            <Position>
              <LatitudeDegrees>37.88063800893723964691162109375</LatitudeDegrees>
              <LongitudeDegrees>-8.1519297324120998382568359375</LongitudeDegrees>
            </Position>
            <AltitudeMeters>151.399993896484375</AltitudeMeters>
            <DistanceMeters>275326.26271417</DistanceMeters>
          </Trackpoint>
          <Trackpoint>
            <Time>2018-09-14T13:24:02.000Z</Time>
            <Position>
              <LatitudeDegrees>37.8805906511843204498291015625</LatitudeDegrees>
              <LongitudeDegrees>-8.1519428081810474395751953125</LongitudeDegrees>
            </Position>
            <AltitudeMeters>151.600006103515625</AltitudeMeters>
            <DistanceMeters>275331.65668361</DistanceMeters>
          </Trackpoint>
          <Trackpoint>
            <Time>2018-09-14T13:24:03.000Z</Time>
            <Position>
              <LatitudeDegrees>37.88054480217397212982177734375</LatitudeDegrees>
              <LongitudeDegrees>-8.15195613540709018707275390625</LongitudeDegrees>
            </Position>
            <AltitudeMeters>151.8000030517578125</AltitudeMeters>
            <DistanceMeters>275336.89264695</DistanceMeters>
          </Trackpoint>
          <Trackpoint>
            <Time>2018-09-14T13:24:04.000Z</Time>
            <Position>
              <LatitudeDegrees>37.8805001266300678253173828125</LatitudeDegrees>
              <LongitudeDegrees>-8.1519689597189426422119140625</LongitudeDegrees>
            </Position>
            <AltitudeMeters>152</AltitudeMeters>
            <DistanceMeters>275341.99231558</DistanceMeters>
          </Trackpoint>
          <Trackpoint>
            <Time>2018-09-14T13:24:05.000Z</Time>
            <Position>
              <LatitudeDegrees>37.88045595400035381317138671875</LatitudeDegrees>
              <LongitudeDegrees>-8.151979856193065643310546875</LongitudeDegrees>
            </Position>
            <AltitudeMeters>152.1999969482421875</AltitudeMeters>
            <DistanceMeters>275347.00266612</DistanceMeters>
          </Trackpoint>
          <Trackpoint>
            <Time>2018-09-14T13:24:06.000Z</Time>
            <Position>
              <LatitudeDegrees>37.88041220046579837799072265625</LatitudeDegrees>
              <LongitudeDegrees>-8.15198949538171291351318359375</LongitudeDegrees>
            </Position>
            <AltitudeMeters>152.1999969482421875</AltitudeMeters>
            <DistanceMeters>275351.94588236</DistanceMeters>
          </Trackpoint>
          <Trackpoint>
            <Time>2018-09-14T13:24:07.000Z</Time>
            <Position>
              <LatitudeDegrees>37.88036920130252838134765625</LatitudeDegrees>
              <LongitudeDegrees>-8.15199905075132846832275390625</LongitudeDegrees>
            </Position>
            <AltitudeMeters>152.399993896484375</AltitudeMeters>
            <DistanceMeters>275356.80619922</DistanceMeters>
          </Trackpoint>
          <Trackpoint>
            <Time>2018-09-14T13:24:08.000Z</Time>
            <Position>
              <LatitudeDegrees>37.880326621234416961669921875</LatitudeDegrees>
              <LongitudeDegrees>-8.152007348835468292236328125</LongitudeDegrees>
            </Position>
            <AltitudeMeters>152.600006103515625</AltitudeMeters>
            <DistanceMeters>275361.60104798</DistanceMeters>
          </Trackpoint>
          <Trackpoint>
            <Time>2018-09-14T13:24:09.000Z</Time>
            <Position>
              <LatitudeDegrees>37.8802842088043689727783203125</LatitudeDegrees>
              <LongitudeDegrees>-8.1520177423954010009765625</LongitudeDegrees>
            </Position>
            <AltitudeMeters>152.8000030517578125</AltitudeMeters>
            <DistanceMeters>275366.40906168</DistanceMeters>
          </Trackpoint>
          <Trackpoint>
            <Time>2018-09-14T13:24:10.000Z</Time>
            <Position>
              <LatitudeDegrees>37.88024204783141613006591796875</LatitudeDegrees>
              <LongitudeDegrees>-8.1520309858024120330810546875</LongitudeDegrees>
            </Position>
            <AltitudeMeters>153</AltitudeMeters>
            <DistanceMeters>275371.24423157</DistanceMeters>
          </Trackpoint>
          <Trackpoint>
            <Time>2018-09-14T13:24:11.000Z</Time>
            <Position>
              <LatitudeDegrees>37.88020030595362186431884765625</LatitudeDegrees>
              <LongitudeDegrees>-8.1520440615713596343994140625</LongitudeDegrees>
            </Position>
            <AltitudeMeters>153</AltitudeMeters>
            <DistanceMeters>275376.03059804</DistanceMeters>
          </Trackpoint>
          <Trackpoint>
            <Time>2018-09-14T13:24:12.000Z</Time>
            <Position>
              <LatitudeDegrees>37.88015806116163730621337890625</LatitudeDegrees>
              <LongitudeDegrees>-8.15205596387386322021484375</LongitudeDegrees>
            </Position>
            <AltitudeMeters>153.1999969482421875</AltitudeMeters>
            <DistanceMeters>275380.84799323</DistanceMeters>
          </Trackpoint>
          <Trackpoint>
            <Time>2018-09-14T13:24:13.000Z</Time>
            <Position>
              <LatitudeDegrees>37.88011564873158931732177734375</LatitudeDegrees>
              <LongitudeDegrees>-8.1520675309002399444580078125</LongitudeDegrees>
            </Position>
            <AltitudeMeters>153.399993896484375</AltitudeMeters>
            <DistanceMeters>275385.67662217</DistanceMeters>
          </Trackpoint>
          <Trackpoint>
            <Time>2018-09-14T13:24:14.000Z</Time>
            <Position>
              <LatitudeDegrees>37.880073152482509613037109375</LatitudeDegrees>
              <LongitudeDegrees>-8.15207934938371181488037109375</LongitudeDegrees>
            </Position>
            <AltitudeMeters>153.399993896484375</AltitudeMeters>
            <DistanceMeters>275390.51925663</DistanceMeters>
          </Trackpoint>
          <Trackpoint>
            <Time>2018-09-14T13:24:15.000Z</Time>
            <Position>
              <LatitudeDegrees>37.880030237138271331787109375</LatitudeDegrees>
              <LongitudeDegrees>-8.1520906649529933929443359375</LongitudeDegrees>
            </Position>
            <AltitudeMeters>153.600006103515625</AltitudeMeters>
            <DistanceMeters>275395.39996781</DistanceMeters>
          </Trackpoint>
          <Trackpoint>
            <Time>2018-09-14T13:24:16.000Z</Time>
            <Position>
              <LatitudeDegrees>37.879986651241779327392578125</LatitudeDegrees>
              <LongitudeDegrees>-8.15210214816033840179443359375</LongitudeDegrees>
            </Position>
            <AltitudeMeters>153.600006103515625</AltitudeMeters>
            <DistanceMeters>275400.35595489</DistanceMeters>
          </Trackpoint>
          <Trackpoint>
            <Time>2018-09-14T13:24:17.000Z</Time>
            <Position>
              <LatitudeDegrees>37.87994197569787502288818359375</LatitudeDegrees>
              <LongitudeDegrees>-8.15211371518671512603759765625</LongitudeDegrees>
            </Position>
            <AltitudeMeters>153.600006103515625</AltitudeMeters>
            <DistanceMeters>275405.432552</DistanceMeters>
          </Trackpoint>
          <Trackpoint>
            <Time>2018-09-14T13:24:18.000Z</Time>
            <Position>
              <LatitudeDegrees>37.87989604286849498748779296875</LatitudeDegrees>
              <LongitudeDegrees>-8.15212544985115528106689453125</LongitudeDegrees>
            </Position>
            <AltitudeMeters>153.600006103515625</AltitudeMeters>
            <DistanceMeters>275410.64777877</DistanceMeters>
          </Trackpoint>
          <Trackpoint>
            <Time>2018-09-14T13:24:19.000Z</Time>
            <Position>
              <LatitudeDegrees>37.87984885275363922119140625</LatitudeDegrees>
              <LongitudeDegrees>-8.152137435972690582275390625</LongitudeDegrees>
            </Position>
            <AltitudeMeters>153.600006103515625</AltitudeMeters>
            <DistanceMeters>275416.00394837</DistanceMeters>
          </Trackpoint>
          <Trackpoint>
            <Time>2018-09-14T13:24:20.000Z</Time>
            <Position>
              <LatitudeDegrees>37.87980032153427600860595703125</LatitudeDegrees>
              <LongitudeDegrees>-8.152148835361003875732421875</LongitudeDegrees>
            </Position>
            <AltitudeMeters>153.600006103515625</AltitudeMeters>
            <DistanceMeters>275421.49744594</DistanceMeters>
          </Trackpoint>
          <Trackpoint>
            <Time>2018-09-14T13:24:21.000Z</Time>
            <Position>
              <LatitudeDegrees>37.879751622676849365234375</LatitudeDegrees>
              <LongitudeDegrees>-8.15216124057769775390625</LongitudeDegrees>
            </Position>
            <AltitudeMeters>153.600006103515625</AltitudeMeters>
            <DistanceMeters>275427.02535501</DistanceMeters>
          </Trackpoint>
          <Trackpoint>
            <Time>2018-09-14T13:24:22.000Z</Time>
            <Position>
              <LatitudeDegrees>37.8797031752765178680419921875</LatitudeDegrees>
              <LongitudeDegrees>-8.15217406488955020904541015625</LongitudeDegrees>
            </Position>
            <AltitudeMeters>153.600006103515625</AltitudeMeters>
            <DistanceMeters>275432.5352658</DistanceMeters>
          </Trackpoint>
          <Trackpoint>
            <Time>2018-09-14T13:24:23.000Z</Time>
            <Position>
              <LatitudeDegrees>37.879654727876186370849609375</LatitudeDegrees>
              <LongitudeDegrees>-8.1521855480968952178955078125</LongitudeDegrees>
            </Position>
            <AltitudeMeters>153.600006103515625</AltitudeMeters>
            <DistanceMeters>275438.02218433</DistanceMeters>
          </Trackpoint>
          <Trackpoint>
            <Time>2018-09-14T13:24:24.000Z</Time>
            <Position>
              <LatitudeDegrees>37.879605777561664581298828125</LatitudeDegrees>
              <LongitudeDegrees>-8.152196444571018218994140625</LongitudeDegrees>
            </Position>
            <AltitudeMeters>153.399993896484375</AltitudeMeters>
            <DistanceMeters>275443.55417575</DistanceMeters>
          </Trackpoint>
          <Trackpoint>
            <Time>2018-09-14T13:24:25.000Z</Time>
            <Position>
              <LatitudeDegrees>37.87955674342811107635498046875</LatitudeDegrees>
              <LongitudeDegrees>-8.15220843069255352020263671875</LongitudeDegrees>
            </Position>
            <AltitudeMeters>153.399993896484375</AltitudeMeters>
            <DistanceMeters>275449.1122232</DistanceMeters>
          </Trackpoint>
          <Trackpoint>
            <Time>2018-09-14T13:24:26.000Z</Time>
            <Position>
              <LatitudeDegrees>37.8795073740184307098388671875</LatitudeDegrees>
              <LongitudeDegrees>-8.15222217701375484466552734375</LongitudeDegrees>
            </Position>
            <AltitudeMeters>153.1999969482421875</AltitudeMeters>
            <DistanceMeters>275454.73729101</DistanceMeters>
          </Trackpoint>
          <Trackpoint>
            <Time>2018-09-14T13:24:27.000Z</Time>
            <Position>
              <LatitudeDegrees>37.87945833988487720489501953125</LatitudeDegrees>
              <LongitudeDegrees>-8.1522358395159244537353515625</LongitudeDegrees>
            </Position>
            <AltitudeMeters>153.1999969482421875</AltitudeMeters>
            <DistanceMeters>275460.32450626</DistanceMeters>
          </Trackpoint>
          <Trackpoint>
            <Time>2018-09-14T13:24:28.000Z</Time>
            <Position>
              <LatitudeDegrees>37.8794094733893871307373046875</LatitudeDegrees>
              <LongitudeDegrees>-8.15224916674196720123291015625</LongitudeDegrees>
            </Position>
            <AltitudeMeters>153</AltitudeMeters>
            <DistanceMeters>275465.88742564</DistanceMeters>
          </Trackpoint>
          <Trackpoint>
            <Time>2018-09-14T13:24:29.000Z</Time>
            <Position>
              <LatitudeDegrees>37.87935976870357990264892578125</LatitudeDegrees>
              <LongitudeDegrees>-8.15226090140640735626220703125</LongitudeDegrees>
            </Position>
            <AltitudeMeters>153</AltitudeMeters>
            <DistanceMeters>275471.51490092</DistanceMeters>
          </Trackpoint>
          <Trackpoint>
            <Time>2018-09-14T13:24:30.000Z</Time>
            <Position>
              <LatitudeDegrees>37.87931014783680438995361328125</LatitudeDegrees>
              <LongitudeDegrees>-8.1522730551660060882568359375</LongitudeDegrees>
            </Position>
            <AltitudeMeters>153</AltitudeMeters>
            <DistanceMeters>275477.13996873</DistanceMeters>
          </Trackpoint>
          <Trackpoint>
            <Time>2018-09-14T13:24:31.000Z</Time>
            <Position>
              <LatitudeDegrees>37.87926010787487030029296875</LatitudeDegrees>
              <LongitudeDegrees>-8.1522871367633342742919921875</LongitudeDegrees>
            </Position>
            <AltitudeMeters>152.8000030517578125</AltitudeMeters>
            <DistanceMeters>275482.84473827</DistanceMeters>
          </Trackpoint>
          <Trackpoint>
            <Time>2018-09-14T13:24:32.000Z</Time>
            <Position>
              <LatitudeDegrees>37.87921073846518993377685546875</LatitudeDegrees>
              <LongitudeDegrees>-8.15230130217969417572021484375</LongitudeDegrees>
            </Position>
            <AltitudeMeters>152.8000030517578125</AltitudeMeters>
            <DistanceMeters>275488.477827</DistanceMeters>
          </Trackpoint>
          <Trackpoint>
            <Time>2018-09-14T13:24:33.000Z</Time>
            <Position>
              <LatitudeDegrees>37.879161201417446136474609375</LatitudeDegrees>
              <LongitudeDegrees>-8.15231479704380035400390625</LongitudeDegrees>
            </Position>
            <AltitudeMeters>152.8000030517578125</AltitudeMeters>
            <DistanceMeters>275494.1181248</DistanceMeters>
          </Trackpoint>
          <Trackpoint>
            <Time>2018-09-14T13:24:34.000Z</Time>
            <Position>
              <LatitudeDegrees>37.8791120834648609161376953125</LatitudeDegrees>
              <LongitudeDegrees>-8.1523283757269382476806640625</LongitudeDegrees>
            </Position>
            <AltitudeMeters>153</AltitudeMeters>
            <DistanceMeters>275499.71422211</DistanceMeters>
          </Trackpoint>
          <Trackpoint>
            <Time>2018-09-14T13:24:35.000Z</Time>
            <Position>
              <LatitudeDegrees>37.87906371988356113433837890625</LatitudeDegrees>
              <LongitudeDegrees>-8.1523411162197589874267578125</LongitudeDegrees>
            </Position>
            <AltitudeMeters>153</AltitudeMeters>
            <DistanceMeters>275505.21264879</DistanceMeters>
          </Trackpoint>
          <Trackpoint>
            <Time>2018-09-14T13:24:36.000Z</Time>
            <Position>
              <LatitudeDegrees>37.87901627831161022186279296875</LatitudeDegrees>
              <LongitudeDegrees>-8.1523511745035648345947265625</LongitudeDegrees>
            </Position>
            <AltitudeMeters>153.1999969482421875</AltitudeMeters>
            <DistanceMeters>275510.56628892</DistanceMeters>
          </Trackpoint>
          <Trackpoint>
            <Time>2018-09-14T13:24:37.000Z</Time>
            <Position>
              <LatitudeDegrees>37.878971099853515625</LatitudeDegrees>
              <LongitudeDegrees>-8.15236332826316356658935546875</LongitudeDegrees>
            </Position>
            <AltitudeMeters>153.1999969482421875</AltitudeMeters>
            <DistanceMeters>275515.70564429</DistanceMeters>
          </Trackpoint>
          <Trackpoint>
            <Time>2018-09-14T13:24:38.000Z</Time>
            <Position>
              <LatitudeDegrees>37.87892810069024562835693359375</LatitudeDegrees>
              <LongitudeDegrees>-8.15237456001341342926025390625</LongitudeDegrees>
            </Position>
            <AltitudeMeters>153.1999969482421875</AltitudeMeters>
            <DistanceMeters>275520.59190279</DistanceMeters>
          </Trackpoint>
          <Trackpoint>
            <Time>2018-09-14T13:24:39.000Z</Time>
            <Position>
              <LatitudeDegrees>37.87888602353632450103759765625</LatitudeDegrees>
              <LongitudeDegrees>-8.1523857079446315765380859375</LongitudeDegrees>
            </Position>
            <AltitudeMeters>153.399993896484375</AltitudeMeters>
            <DistanceMeters>275525.37638226</DistanceMeters>
          </Trackpoint>
          <Trackpoint>
            <Time>2018-09-14T13:24:40.000Z</Time>
            <Position>
              <LatitudeDegrees>37.87884579040110111236572265625</LatitudeDegrees>
              <LongitudeDegrees>-8.15239635296165943145751953125</LongitudeDegrees>
            </Position>
            <AltitudeMeters>153.399993896484375</AltitudeMeters>
            <DistanceMeters>275529.95150162</DistanceMeters>
          </Trackpoint>
          <Trackpoint>
            <Time>2018-09-14T13:24:41.000Z</Time>
            <Position>
              <LatitudeDegrees>37.878806479275226593017578125</LatitudeDegrees>
              <LongitudeDegrees>-8.15240523777902126312255859375</LongitudeDegrees>
            </Position>
            <AltitudeMeters>153.600006103515625</AltitudeMeters>
            <DistanceMeters>275534.39546125</DistanceMeters>
          </Trackpoint>
          <Trackpoint>
            <Time>2018-09-14T13:24:42.000Z</Time>
            <Position>
              <LatitudeDegrees>37.87876951508224010467529296875</LatitudeDegrees>
              <LongitudeDegrees>-8.15241412259638309478759765625</LongitudeDegrees>
            </Position>
            <AltitudeMeters>153.600006103515625</AltitudeMeters>
            <DistanceMeters>275538.58311076</DistanceMeters>
          </Trackpoint>
          <Trackpoint>
            <Time>2018-09-14T13:24:43.000Z</Time>
            <Position>
              <LatitudeDegrees>37.8787337243556976318359375</LatitudeDegrees>
              <LongitudeDegrees>-8.152423761785030364990234375</LongitudeDegrees>
            </Position>
            <AltitudeMeters>153.600006103515625</AltitudeMeters>
            <DistanceMeters>275542.65486964</DistanceMeters>
          </Trackpoint>
          <Trackpoint>
            <Time>2018-09-14T13:24:44.000Z</Time>
            <Position>
              <LatitudeDegrees>37.8786976821720600128173828125</LatitudeDegrees>
              <LongitudeDegrees>-8.1524333171546459197998046875</LongitudeDegrees>
            </Position>
            <AltitudeMeters>153.600006103515625</AltitudeMeters>
            <DistanceMeters>275546.75315491</DistanceMeters>
          </Trackpoint>
          <Trackpoint>
            <Time>2018-09-14T13:24:45.000Z</Time>
            <Position>
              <LatitudeDegrees>37.87866205908358097076416015625</LatitudeDegrees>
              <LongitudeDegrees>-8.152443207800388336181640625</LongitudeDegrees>
            </Position>
            <AltitudeMeters>153.8000030517578125</AltitudeMeters>
            <DistanceMeters>275550.81158558</DistanceMeters>
          </Trackpoint>
          <Trackpoint>
            <Time>2018-09-14T13:24:46.000Z</Time>
            <Position>
              <LatitudeDegrees>37.878627441823482513427734375</LatitudeDegrees>
              <LongitudeDegrees>-8.1524537689983844757080078125</LongitudeDegrees>
            </Position>
            <AltitudeMeters>153.8000030517578125</AltitudeMeters>
            <DistanceMeters>275554.77318536</DistanceMeters>
          </Trackpoint>
          <Trackpoint>
            <Time>2018-09-14T13:24:47.000Z</Time>
            <Position>
              <LatitudeDegrees>37.87859223783016204833984375</LatitudeDegrees>
              <LongitudeDegrees>-8.15246340818703174591064453125</LongitudeDegrees>
            </Position>
            <AltitudeMeters>153.8000030517578125</AltitudeMeters>
            <DistanceMeters>275558.7812405</DistanceMeters>
          </Trackpoint>
          <Trackpoint>
            <Time>2018-09-14T13:24:48.000Z</Time>
            <Position>
              <LatitudeDegrees>37.87855711765587329864501953125</LatitudeDegrees>
              <LongitudeDegrees>-8.15247304737567901611328125</LongitudeDegrees>
            </Position>
            <AltitudeMeters>154</AltitudeMeters>
            <DistanceMeters>275562.78027356</DistanceMeters>
          </Trackpoint>
          <Trackpoint>
            <Time>2018-09-14T13:24:49.000Z</Time>
            <Position>
              <LatitudeDegrees>37.8785223327577114105224609375</LatitudeDegrees>
              <LongitudeDegrees>-8.152482099831104278564453125</LongitudeDegrees>
            </Position>
            <AltitudeMeters>154</AltitudeMeters>
            <DistanceMeters>275566.73274522</DistanceMeters>
          </Trackpoint>
          <Trackpoint>
            <Time>2018-09-14T13:24:50.000Z</Time>
            <Position>
              <LatitudeDegrees>37.8784881345927715301513671875</LatitudeDegrees>
              <LongitudeDegrees>-8.15249140374362468719482421875</LongitudeDegrees>
            </Position>
            <AltitudeMeters>154</AltitudeMeters>
            <DistanceMeters>275570.62536237</DistanceMeters>
          </Trackpoint>
          <Trackpoint>
            <Time>2018-09-14T13:24:51.000Z</Time>
            <Position>
              <LatitudeDegrees>37.8784546069800853729248046875</LatitudeDegrees>
              <LongitudeDegrees>-8.152500204741954803466796875</LongitudeDegrees>
            </Position>
            <AltitudeMeters>154</AltitudeMeters>
            <DistanceMeters>275574.43710646</DistanceMeters>
          </Trackpoint>
          <Trackpoint>
            <Time>2018-09-14T13:24:52.000Z</Time>
            <Position>
              <LatitudeDegrees>37.8784210793673992156982421875</LatitudeDegrees>
              <LongitudeDegrees>-8.15250900574028491973876953125</LongitudeDegrees>
            </Position>
            <AltitudeMeters>154</AltitudeMeters>
            <DistanceMeters>275578.24885055</DistanceMeters>
          </Trackpoint>
          <Trackpoint>
            <Time>2018-09-14T13:24:53.000Z</Time>
            <Position>
              <LatitudeDegrees>37.878388054668903350830078125</LatitudeDegrees>
              <LongitudeDegrees>-8.15251738764345645904541015625</LongitudeDegrees>
            </Position>
            <AltitudeMeters>154</AltitudeMeters>
            <DistanceMeters>275581.99729008</DistanceMeters>
          </Trackpoint>
          <Trackpoint>
            <Time>2018-09-14T13:24:54.000Z</Time>
            <Position>
              <LatitudeDegrees>37.87835578434169292449951171875</LatitudeDegrees>
              <LongitudeDegrees>-8.15252576954662799835205078125</LongitudeDegrees>
            </Position>
            <AltitudeMeters>154.399993896484375</AltitudeMeters>
            <DistanceMeters>275585.66413939</DistanceMeters>
          </Trackpoint>
          <Trackpoint>
            <Time>2018-09-14T13:24:55.000Z</Time>
            <Position>
              <LatitudeDegrees>37.8783241845667362213134765625</LatitudeDegrees>
              <LongitudeDegrees>-8.1525335647165775299072265625</LongitudeDegrees>
            </Position>
            <AltitudeMeters>154.600006103515625</AltitudeMeters>
            <DistanceMeters>275589.24754122</DistanceMeters>
          </Trackpoint>
          <Trackpoint>
            <Time>2018-09-14T13:24:56.000Z</Time>
            <Position>
              <LatitudeDegrees>37.87829342298209667205810546875</LatitudeDegrees>
              <LongitudeDegrees>-8.15254203043878078460693359375</LongitudeDegrees>
            </Position>
            <AltitudeMeters>154.8000030517578125</AltitudeMeters>
            <DistanceMeters>275592.75195329</DistanceMeters>
          </Trackpoint>
          <Trackpoint>
            <Time>2018-09-14T13:24:57.000Z</Time>
            <Position>
              <LatitudeDegrees>37.8782628290355205535888671875</LatitudeDegrees>
              <LongitudeDegrees>-8.1525506637990474700927734375</LongitudeDegrees>
            </Position>
            <AltitudeMeters>155.1999969482421875</AltitudeMeters>
            <DistanceMeters>275596.24087047</DistanceMeters>
          </Trackpoint>
          <Trackpoint>
            <Time>2018-09-14T13:24:58.000Z</Time>
            <Position>
              <LatitudeDegrees>37.87823173217475414276123046875</LatitudeDegrees>
              <LongitudeDegrees>-8.15256030298769474029541015625</LongitudeDegrees>
            </Position>
            <AltitudeMeters>155.399993896484375</AltitudeMeters>
            <DistanceMeters>275599.80405548</DistanceMeters>
          </Trackpoint>
          <Trackpoint>
            <Time>2018-09-14T13:24:59.000Z</Time>
            <Position>
              <LatitudeDegrees>37.87820063531398773193359375</LatitudeDegrees>
              <LongitudeDegrees>-8.15256918780505657196044921875</LongitudeDegrees>
            </Position>
            <AltitudeMeters>155.600006103515625</AltitudeMeters>
            <DistanceMeters>275603.35200229</DistanceMeters>
          </Trackpoint>
          <Trackpoint>
            <Time>2018-09-14T13:25:00.000Z</Time>
            <Position>
              <LatitudeDegrees>37.8781692869961261749267578125</LatitudeDegrees>
              <LongitudeDegrees>-8.15257773734629154205322265625</LongitudeDegrees>
            </Position>
            <AltitudeMeters>156</AltitudeMeters>
            <DistanceMeters>275606.92025225</DistanceMeters>
          </Trackpoint>
          <Trackpoint>
            <Time>2018-09-14T13:25:01.000Z</Time>
            <Position>
              <LatitudeDegrees>37.87813852541148662567138671875</LatitudeDegrees>
              <LongitudeDegrees>-8.15258494578301906585693359375</LongitudeDegrees>
            </Position>
            <AltitudeMeters>156.1999969482421875</AltitudeMeters>
            <DistanceMeters>275610.40009888</DistanceMeters>
          </Trackpoint>
          <Trackpoint>
            <Time>2018-09-14T13:25:02.000Z</Time>
            <Position>
              <LatitudeDegrees>37.8781087696552276611328125</LatitudeDegrees>
              <LongitudeDegrees>-8.1525922380387783050537109375</LongitudeDegrees>
            </Position>
            <AltitudeMeters>156.399993896484375</AltitudeMeters>
            <DistanceMeters>275613.77321262</DistanceMeters>
          </Trackpoint>
          <Trackpoint>
            <Time>2018-09-14T13:25:03.000Z</Time>
            <Position>
              <LatitudeDegrees>37.8780790977180004119873046875</LatitudeDegrees>
              <LongitudeDegrees>-8.15259986557066440582275390625</LongitudeDegrees>
            </Position>
            <AltitudeMeters>156.600006103515625</AltitudeMeters>
            <DistanceMeters>275617.14364822</DistanceMeters>
          </Trackpoint>
          <Trackpoint>
            <Time>2018-09-14T13:25:04.000Z</Time>
            <Position>
              <LatitudeDegrees>37.8780492581427097320556640625</LatitudeDegrees>
              <LongitudeDegrees>-8.1526069901883602142333984375</LongitudeDegrees>
            </Position>
            <AltitudeMeters>157</AltitudeMeters>
            <DistanceMeters>275620.52478365</DistanceMeters>
          </Trackpoint>
          <Trackpoint>
            <Time>2018-09-14T13:25:05.000Z</Time>
            <Position>
              <LatitudeDegrees>37.87801883183419704437255859375</LatitudeDegrees>
              <LongitudeDegrees>-8.15261411480605602264404296875</LongitudeDegrees>
            </Position>
            <AltitudeMeters>157.1999969482421875</AltitudeMeters>
            <DistanceMeters>275623.96942013</DistanceMeters>
          </Trackpoint>
          <Trackpoint>
            <Time>2018-09-14T13:25:06.000Z</Time>
            <Position>
              <LatitudeDegrees>37.877987734973430633544921875</LatitudeDegrees>
              <LongitudeDegrees>-8.15262232907116413116455078125</LongitudeDegrees>
            </Position>
            <AltitudeMeters>157.600006103515625</AltitudeMeters>
            <DistanceMeters>275627.50461825</DistanceMeters>
          </Trackpoint>
          <Trackpoint>
            <Time>2018-09-14T13:25:07.000Z</Time>
            <Position>
              <LatitudeDegrees>37.87795663811266422271728515625</LatitudeDegrees>
              <LongitudeDegrees>-8.1526318006217479705810546875</LongitudeDegrees>
            </Position>
            <AltitudeMeters>157.8000030517578125</AltitudeMeters>
            <DistanceMeters>275631.0652681</DistanceMeters>
          </Trackpoint>
          <Trackpoint>
            <Time>2018-09-14T13:25:08.000Z</Time>
            <Position>
              <LatitudeDegrees>37.8779248706996440887451171875</LatitudeDegrees>
              <LongitudeDegrees>-8.152641355991363525390625</LongitudeDegrees>
            </Position>
            <AltitudeMeters>158.1999969482421875</AltitudeMeters>
            <DistanceMeters>275634.69871987</DistanceMeters>
          </Trackpoint>
          <Trackpoint>
            <Time>2018-09-14T13:25:09.000Z</Time>
            <Position>
              <LatitudeDegrees>37.87789343856275081634521484375</LatitudeDegrees>
              <LongitudeDegrees>-8.152649067342281341552734375</LongitudeDegrees>
            </Position>
            <AltitudeMeters>158.399993896484375</AltitudeMeters>
            <DistanceMeters>275638.26190489</DistanceMeters>
          </Trackpoint>
          <Trackpoint>
            <Time>2018-09-14T13:25:10.000Z</Time>
            <Position>
              <LatitudeDegrees>37.87786259315907955169677734375</LatitudeDegrees>
              <LongitudeDegrees>-8.15265677869319915771484375</LongitudeDegrees>
            </Position>
            <AltitudeMeters>158.8000030517578125</AltitudeMeters>
            <DistanceMeters>275641.76115962</DistanceMeters>
          </Trackpoint>
          <Trackpoint>
            <Time>2018-09-14T13:25:11.000Z</Time>
            <Position>
              <LatitudeDegrees>37.87783225066959857940673828125</LatitudeDegrees>
              <LongitudeDegrees>-8.1526639871299266815185546875</LongitudeDegrees>
            </Position>
            <AltitudeMeters>159</AltitudeMeters>
            <DistanceMeters>275645.19529413</DistanceMeters>
          </Trackpoint>
          <Trackpoint>
            <Time>2018-09-14T13:25:12.000Z</Time>
            <Position>
              <LatitudeDegrees>37.87780224345624446868896484375</LatitudeDegrees>
              <LongitudeDegrees>-8.15267153084278106689453125</LongitudeDegrees>
            </Position>
            <AltitudeMeters>159.1999969482421875</AltitudeMeters>
            <DistanceMeters>275648.60038123</DistanceMeters>
          </Trackpoint>
          <Trackpoint>
            <Time>2018-09-14T13:25:13.000Z</Time>
            <Position>
              <LatitudeDegrees>37.87777240388095378875732421875</LatitudeDegrees>
              <LongitudeDegrees>-8.15267899073660373687744140625</LongitudeDegrees>
            </Position>
            <AltitudeMeters>159.600006103515625</AltitudeMeters>
            <DistanceMeters>275651.98552037</DistanceMeters>
          </Trackpoint>
          <Trackpoint>
            <Time>2018-09-14T13:25:14.000Z</Time>
            <Position>
              <LatitudeDegrees>37.8777424804866313934326171875</LatitudeDegrees>
              <LongitudeDegrees>-8.15268754027783870697021484375</LongitudeDegrees>
            </Position>
            <AltitudeMeters>159.8000030517578125</AltitudeMeters>
            <DistanceMeters>275655.39855401</DistanceMeters>
          </Trackpoint>
          <Trackpoint>
            <Time>2018-09-14T13:25:15.000Z</Time>
            <Position>
              <LatitudeDegrees>37.87771247327327728271484375</LatitudeDegrees>
              <LongitudeDegrees>-8.1526961736381053924560546875</LongitudeDegrees>
            </Position>
            <AltitudeMeters>160.1999969482421875</AltitudeMeters>
            <DistanceMeters>275658.82479092</DistanceMeters>
          </Trackpoint>
          <Trackpoint>
            <Time>2018-09-14T13:25:16.000Z</Time>
            <Position>
              <LatitudeDegrees>37.87768338806927204132080078125</LatitudeDegrees>
              <LongitudeDegrees>-8.15270505845546722412109375</LongitudeDegrees>
            </Position>
            <AltitudeMeters>160.399993896484375</AltitudeMeters>
            <DistanceMeters>275662.154796</DistanceMeters>
          </Trackpoint>
          <Trackpoint>
            <Time>2018-09-14T13:25:17.000Z</Time>
            <Position>
              <LatitudeDegrees>37.87765455432236194610595703125</LatitudeDegrees>
              <LongitudeDegrees>-8.1527136079967021942138671875</LongitudeDegrees>
            </Position>
            <AltitudeMeters>160.8000030517578125</AltitudeMeters>
            <DistanceMeters>275665.44935999</DistanceMeters>
          </Trackpoint>
          <Trackpoint>
            <Time>2018-09-14T13:25:18.000Z</Time>
            <Position>
              <LatitudeDegrees>37.8776254691183567047119140625</LatitudeDegrees>
              <LongitudeDegrees>-8.15272140316665172576904296875</LongitudeDegrees>
            </Position>
            <AltitudeMeters>161</AltitudeMeters>
            <DistanceMeters>275668.75760011</DistanceMeters>
          </Trackpoint>
          <Trackpoint>
            <Time>2018-09-14T13:25:19.000Z</Time>
            <Position>
              <LatitudeDegrees>37.87759738974273204803466796875</LatitudeDegrees>
              <LongitudeDegrees>-8.1527286954224109649658203125</LongitudeDegrees>
            </Position>
            <AltitudeMeters>161.1999969482421875</AltitudeMeters>
            <DistanceMeters>275671.94772489</DistanceMeters>
          </Trackpoint>
          <Trackpoint>
            <Time>2018-09-14T13:25:20.000Z</Time>
            <Position>
              <LatitudeDegrees>37.8775698132812976837158203125</LatitudeDegrees>
              <LongitudeDegrees>-8.15273632295429706573486328125</LongitudeDegrees>
            </Position>
            <AltitudeMeters>161.600006103515625</AltitudeMeters>
            <DistanceMeters>275675.08936039</DistanceMeters>
          </Trackpoint>
          <Trackpoint>
            <Time>2018-09-14T13:25:21.000Z</Time>
            <Position>
              <LatitudeDegrees>37.87754206918179988861083984375</LatitudeDegrees>
              <LongitudeDegrees>-8.15274319611489772796630859375</LongitudeDegrees>
            </Position>
            <AltitudeMeters>161.600006103515625</AltitudeMeters>
            <DistanceMeters>275678.23386889</DistanceMeters>
          </Trackpoint>
          <Trackpoint>
            <Time>2018-09-14T13:25:22.000Z</Time>
            <Position>
              <LatitudeDegrees>37.8775138221681118011474609375</LatitudeDegrees>
              <LongitudeDegrees>-8.15274923108518123626708984375</LongitudeDegrees>
            </Position>
            <AltitudeMeters>161.8000030517578125</AltitudeMeters>
            <DistanceMeters>275681.41974489</DistanceMeters>
          </Trackpoint>
          <Trackpoint>
            <Time>2018-09-14T13:25:23.000Z</Time>
            <Position>
              <LatitudeDegrees>37.877485491335391998291015625</LatitudeDegrees>
              <LongitudeDegrees>-8.15275643952190876007080078125</LongitudeDegrees>
            </Position>
            <AltitudeMeters>161.8000030517578125</AltitudeMeters>
            <DistanceMeters>275684.63524447</DistanceMeters>
          </Trackpoint>
          <Trackpoint>
            <Time>2018-09-14T13:25:24.000Z</Time>
            <Position>
              <LatitudeDegrees>37.87745690904557704925537109375</LatitudeDegrees>
              <LongitudeDegrees>-8.15276415087282657623291015625</LongitudeDegrees>
            </Position>
            <AltitudeMeters>162</AltitudeMeters>
            <DistanceMeters>275687.88704697</DistanceMeters>
          </Trackpoint>
          <Trackpoint>
            <Time>2018-09-14T13:25:25.000Z</Time>
            <Position>
              <LatitudeDegrees>37.87742790766060352325439453125</LatitudeDegrees>
              <LongitudeDegrees>-8.152771107852458953857421875</LongitudeDegrees>
            </Position>
            <AltitudeMeters>162.1999969482421875</AltitudeMeters>
            <DistanceMeters>275691.17062905</DistanceMeters>
          </Trackpoint>
          <Trackpoint>
            <Time>2018-09-14T13:25:26.000Z</Time>
            <Position>
              <LatitudeDegrees>37.8773991577327251434326171875</LatitudeDegrees>
              <LongitudeDegrees>-8.15277789719402790069580078125</LongitudeDegrees>
            </Position>
            <AltitudeMeters>162.1999969482421875</AltitudeMeters>
            <DistanceMeters>275694.42659431</DistanceMeters>
          </Trackpoint>
          <Trackpoint>
            <Time>2018-09-14T13:25:27.000Z</Time>
            <Position>
              <LatitudeDegrees>37.87737158127129077911376953125</LatitudeDegrees>
              <LongitudeDegrees>-8.152783848345279693603515625</LongitudeDegrees>
            </Position>
            <AltitudeMeters>162.399993896484375</AltitudeMeters>
            <DistanceMeters>275697.54080401</DistanceMeters>
          </Trackpoint>
          <Trackpoint>
            <Time>2018-09-14T13:25:28.000Z</Time>
            <Position>
              <LatitudeDegrees>37.87734408862888813018798828125</LatitudeDegrees>
              <LongitudeDegrees>-8.15279013477265834808349609375</LongitudeDegrees>
            </Position>
            <AltitudeMeters>162.399993896484375</AltitudeMeters>
            <DistanceMeters>275700.65211273</DistanceMeters>
          </Trackpoint>
          <Trackpoint>
            <Time>2018-09-14T13:25:29.000Z</Time>
            <Position>
              <LatitudeDegrees>37.87731609307229518890380859375</LatitudeDegrees>
              <LongitudeDegrees>-8.1527967564761638641357421875</LongitudeDegrees>
            </Position>
            <AltitudeMeters>162.600006103515625</AltitudeMeters>
            <DistanceMeters>275703.82093665</DistanceMeters>
          </Trackpoint>
          <Trackpoint>
            <Time>2018-09-14T13:25:30.000Z</Time>
            <Position>
              <LatitudeDegrees>37.87728843279182910919189453125</LatitudeDegrees>
              <LongitudeDegrees>-8.152801953256130218505859375</LongitudeDegrees>
            </Position>
            <AltitudeMeters>162.600006103515625</AltitudeMeters>
            <DistanceMeters>275706.93514635</DistanceMeters>
          </Trackpoint>
          <Trackpoint>
            <Time>2018-09-14T13:25:31.000Z</Time>
            <Position>
              <LatitudeDegrees>37.8772610239684581756591796875</LatitudeDegrees>
              <LongitudeDegrees>-8.1528061442077159881591796875</LongitudeDegrees>
            </Position>
            <AltitudeMeters>162.8000030517578125</AltitudeMeters>
            <DistanceMeters>275710.00849306</DistanceMeters>
          </Trackpoint>
          <Trackpoint>
            <Time>2018-09-14T13:25:32.000Z</Time>
            <Position>
              <LatitudeDegrees>37.8772338666021823883056640625</LatitudeDegrees>
              <LongitudeDegrees>-8.15281025134027004241943359375</LongitudeDegrees>
            </Position>
            <AltitudeMeters>163</AltitudeMeters>
            <DistanceMeters>275713.05231605</DistanceMeters>
          </Trackpoint>
          <Trackpoint>
            <Time>2018-09-14T13:25:33.000Z</Time>
            <Position>
              <LatitudeDegrees>37.87720679305493831634521484375</LatitudeDegrees>
              <LongitudeDegrees>-8.152813352644443511962890625</LongitudeDegrees>
            </Position>
            <AltitudeMeters>163</AltitudeMeters>
            <DistanceMeters>275716.07828656</DistanceMeters>
          </Trackpoint>
          <Trackpoint>
            <Time>2018-09-14T13:25:34.000Z</Time>
            <Position>
              <LatitudeDegrees>37.87718047387897968292236328125</LatitudeDegrees>
              <LongitudeDegrees>-8.152814023196697235107421875</LongitudeDegrees>
            </Position>
            <AltitudeMeters>163.1999969482421875</AltitudeMeters>
            <DistanceMeters>275719.00874774</DistanceMeters>
          </Trackpoint>
          <Trackpoint>
            <Time>2018-09-14T13:25:35.000Z</Time>
            <Position>
              <LatitudeDegrees>37.8771540708839893341064453125</LatitudeDegrees>
              <LongitudeDegrees>-8.15281310118734836578369140625</LongitudeDegrees>
            </Position>
            <AltitudeMeters>163.1999969482421875</AltitudeMeters>
            <DistanceMeters>275721.94843873</DistanceMeters>
          </Trackpoint>
          <Trackpoint>
            <Time>2018-09-14T13:25:36.000Z</Time>
            <Position>
              <LatitudeDegrees>37.87712766788899898529052734375</LatitudeDegrees>
              <LongitudeDegrees>-8.152813352644443511962890625</LongitudeDegrees>
            </Position>
            <AltitudeMeters>163.399993896484375</AltitudeMeters>
            <DistanceMeters>275724.88659344</DistanceMeters>
          </Trackpoint>
          <Trackpoint>
            <Time>2018-09-14T13:25:37.000Z</Time>
            <Position>
              <LatitudeDegrees>37.877101264894008636474609375</LatitudeDegrees>
              <LongitudeDegrees>-8.1528151966631412506103515625</LongitudeDegrees>
            </Position>
            <AltitudeMeters>163.399993896484375</AltitudeMeters>
            <DistanceMeters>275727.8308885</DistanceMeters>
          </Trackpoint>
          <Trackpoint>
            <Time>2018-09-14T13:25:38.000Z</Time>
            <Position>
              <LatitudeDegrees>37.87707519717514514923095703125</LatitudeDegrees>
              <LongitudeDegrees>-8.15282148309051990509033203125</LongitudeDegrees>
            </Position>
            <AltitudeMeters>163.600006103515625</AltitudeMeters>
            <DistanceMeters>275730.78589847</DistanceMeters>
          </Trackpoint>
          <Trackpoint>
            <Time>2018-09-14T13:25:39.000Z</Time>
            <Position>
              <LatitudeDegrees>37.877050302922725677490234375</LatitudeDegrees>
              <LongitudeDegrees>-8.15283120609819889068603515625</LongitudeDegrees>
            </Position>
            <AltitudeMeters>163.600006103515625</AltitudeMeters>
            <DistanceMeters>275733.68538138</DistanceMeters>
          </Trackpoint>
          <Trackpoint>
            <Time>2018-09-14T13:25:40.000Z</Time>
            <Position>
              <LatitudeDegrees>37.87702641449868679046630859375</LatitudeDegrees>
              <LongitudeDegrees>-8.15284243784844875335693359375</LongitudeDegrees>
            </Position>
            <AltitudeMeters>163.8000030517578125</AltitudeMeters>
            <DistanceMeters>275736.52030079</DistanceMeters>
          </Trackpoint>
          <Trackpoint>
            <Time>2018-09-14T13:25:41.000Z</Time>
            <Position>
              <LatitudeDegrees>37.87700445391237735748291015625</LatitudeDegrees>
              <LongitudeDegrees>-8.15285752527415752410888671875</LongitudeDegrees>
            </Position>
            <AltitudeMeters>164</AltitudeMeters>
            <DistanceMeters>275739.30054276</DistanceMeters>
          </Trackpoint>
          <Trackpoint>
            <Time>2018-09-14T13:25:42.000Z</Time>
            <Position>
              <LatitudeDegrees>37.87698634900152683258056640625</LatitudeDegrees>
              <LongitudeDegrees>-8.15287680365145206451416015625</LongitudeDegrees>
            </Position>
            <AltitudeMeters>164</AltitudeMeters>
            <DistanceMeters>275741.93571425</DistanceMeters>
          </Trackpoint>
          <Trackpoint>
            <Time>2018-09-14T13:25:43.000Z</Time>
            <Position>
              <LatitudeDegrees>37.87696790881454944610595703125</LatitudeDegrees>
              <LongitudeDegrees>-8.15289775840938091278076171875</LongitudeDegrees>
            </Position>
            <AltitudeMeters>164.1999969482421875</AltitudeMeters>
            <DistanceMeters>275744.69312687</DistanceMeters>
          </Trackpoint>
          <Trackpoint>
            <Time>2018-09-14T13:25:44.000Z</Time>
            <Position>
              <LatitudeDegrees>37.87694460712373256683349609375</LatitudeDegrees>
              <LongitudeDegrees>-8.152915276587009429931640625</LongitudeDegrees>
            </Position>
            <AltitudeMeters>164.399993896484375</AltitudeMeters>
            <DistanceMeters>275747.70713698</DistanceMeters>
          </Trackpoint>
          <Trackpoint>
            <Time>2018-09-14T13:25:45.000Z</Time>
            <Position>
              <LatitudeDegrees>37.876918874680995941162109375</LatitudeDegrees>
              <LongitudeDegrees>-8.15293095074594020843505859375</LongitudeDegrees>
            </Position>
            <AltitudeMeters>164.399993896484375</AltitudeMeters>
            <DistanceMeters>275750.88449838</DistanceMeters>
          </Trackpoint>
          <Trackpoint>
            <Time>2018-09-14T13:25:46.000Z</Time>
            <Position>
              <LatitudeDegrees>37.87689163349568843841552734375</LatitudeDegrees>
              <LongitudeDegrees>-8.15294645726680755615234375</LongitudeDegrees>
            </Position>
            <AltitudeMeters>164.600006103515625</AltitudeMeters>
            <DistanceMeters>275754.20907558</DistanceMeters>
          </Trackpoint>
          <Trackpoint>
            <Time>2018-09-14T13:25:47.000Z</Time>
            <Position>
              <LatitudeDegrees>37.87686087191104888916015625</LatitudeDegrees>
              <LongitudeDegrees>-8.15295676700770854949951171875</LongitudeDegrees>
            </Position>
            <AltitudeMeters>164.8000030517578125</AltitudeMeters>
            <DistanceMeters>275757.74937869</DistanceMeters>
          </Trackpoint>
          <Trackpoint>
            <Time>2018-09-14T13:25:48.000Z</Time>
            <Position>
              <LatitudeDegrees>37.8768271766602993011474609375</LatitudeDegrees>
              <LongitudeDegrees>-8.1529600359499454498291015625</LongitudeDegrees>
            </Position>
            <AltitudeMeters>165</AltitudeMeters>
            <DistanceMeters>275761.50984405</DistanceMeters>
          </Trackpoint>
          <Trackpoint>
            <Time>2018-09-14T13:25:49.000Z</Time>
            <Position>
              <LatitudeDegrees>37.87679339759051799774169921875</LatitudeDegrees>
              <LongitudeDegrees>-8.1529526598751544952392578125</LongitudeDegrees>
            </Position>
            <AltitudeMeters>165</AltitudeMeters>
            <DistanceMeters>275765.32514</DistanceMeters>
          </Trackpoint>
          <Trackpoint>
            <Time>2018-09-14T13:25:50.000Z</Time>
            <Position>
              <LatitudeDegrees>37.8767604567110538482666015625</LatitudeDegrees>
              <LongitudeDegrees>-8.152931369841098785400390625</LongitudeDegrees>
            </Position>
            <AltitudeMeters>165</AltitudeMeters>
            <DistanceMeters>275769.44101456</DistanceMeters>
          </Trackpoint>
          <Trackpoint>
            <Time>2018-09-14T13:25:51.000Z</Time>
            <Position>
              <LatitudeDegrees>37.87672969512641429901123046875</LatitudeDegrees>
              <LongitudeDegrees>-8.15290111117064952850341796875</LongitudeDegrees>
            </Position>
            <AltitudeMeters>165</AltitudeMeters>
            <DistanceMeters>275773.77489954</DistanceMeters>
          </Trackpoint>
          <Trackpoint>
            <Time>2018-09-14T13:25:52.000Z</Time>
            <Position>
              <LatitudeDegrees>37.87670136429369449615478515625</LatitudeDegrees>
              <LongitudeDegrees>-8.15286473371088504791259765625</LongitudeDegrees>
            </Position>
            <AltitudeMeters>164.8000030517578125</AltitudeMeters>
            <DistanceMeters>275778.26434612</DistanceMeters>
          </Trackpoint>
          <Trackpoint>
            <Time>2018-09-14T13:25:53.000Z</Time>
            <Position>
              <LatitudeDegrees>37.87667269818484783172607421875</LatitudeDegrees>
              <LongitudeDegrees>-8.15282399766147136688232421875</LongitudeDegrees>
            </Position>
            <AltitudeMeters>164.600006103515625</AltitudeMeters>
            <DistanceMeters>275783.05919488</DistanceMeters>
          </Trackpoint>
          <Trackpoint>
            <Time>2018-09-14T13:25:54.000Z</Time>
            <Position>
              <LatitudeDegrees>37.87664017640054225921630859375</LatitudeDegrees>
              <LongitudeDegrees>-8.1527840159833431243896484375</LongitudeDegrees>
            </Position>
            <AltitudeMeters>164.399993896484375</AltitudeMeters>
            <DistanceMeters>275788.10188219</DistanceMeters>
          </Trackpoint>
          <Trackpoint>
            <Time>2018-09-14T13:25:55.000Z</Time>
            <Position>
              <LatitudeDegrees>37.8766042180359363555908203125</LatitudeDegrees>
              <LongitudeDegrees>-8.15274705179035663604736328125</LongitudeDegrees>
            </Position>
            <AltitudeMeters>164</AltitudeMeters>
            <DistanceMeters>275793.25527474</DistanceMeters>
          </Trackpoint>
          <Trackpoint>
            <Time>2018-09-14T13:25:56.000Z</Time>
            <Position>
              <LatitudeDegrees>37.8765673376619815826416015625</LatitudeDegrees>
              <LongitudeDegrees>-8.152710758149623870849609375</LongitudeDegrees>
            </Position>
            <AltitudeMeters>163.8000030517578125</AltitudeMeters>
            <DistanceMeters>275798.45315784</DistanceMeters>
          </Trackpoint>
          <Trackpoint>
            <Time>2018-09-14T13:25:57.000Z</Time>
            <Position>
              <LatitudeDegrees>37.87652970291674137115478515625</LatitudeDegrees>
              <LongitudeDegrees>-8.1526747159659862518310546875</LongitudeDegrees>
            </Position>
            <AltitudeMeters>163.600006103515625</AltitudeMeters>
            <DistanceMeters>275803.70461987</DistanceMeters>
          </Trackpoint>
          <Trackpoint>
            <Time>2018-09-14T13:25:58.000Z</Time>
            <Position>
              <LatitudeDegrees>37.87649072706699371337890625</LatitudeDegrees>
              <LongitudeDegrees>-8.15263808704912662506103515625</LongitudeDegrees>
            </Position>
            <AltitudeMeters>163.1999969482421875</AltitudeMeters>
            <DistanceMeters>275809.10611754</DistanceMeters>
          </Trackpoint>
          <Trackpoint>
            <Time>2018-09-14T13:25:59.000Z</Time>
            <Position>
              <LatitudeDegrees>37.8764503262937068939208984375</LatitudeDegrees>
              <LongitudeDegrees>-8.15260179340839385986328125</LongitudeDegrees>
            </Position>
            <AltitudeMeters>163</AltitudeMeters>
            <DistanceMeters>275814.61930512</DistanceMeters>
          </Trackpoint>
          <Trackpoint>
            <Time>2018-09-14T13:26:00.000Z</Time>
            <Position>
              <LatitudeDegrees>37.8764082491397857666015625</LatitudeDegrees>
              <LongitudeDegrees>-8.1525657512247562408447265625</LongitudeDegrees>
            </Position>
            <AltitudeMeters>162.8000030517578125</AltitudeMeters>
            <DistanceMeters>275820.27159761</DistanceMeters>
          </Trackpoint>
          <Trackpoint>
            <Time>2018-09-14T13:26:01.000Z</Time>
            <Position>
              <LatitudeDegrees>37.87636508233845233917236328125</LatitudeDegrees>
              <LongitudeDegrees>-8.15253079868853092193603515625</LongitudeDegrees>
            </Position>
            <AltitudeMeters>162.600006103515625</AltitudeMeters>
            <DistanceMeters>275825.97320048</DistanceMeters>
          </Trackpoint>
          <Trackpoint>
            <Time>2018-09-14T13:26:02.000Z</Time>
            <Position>
              <LatitudeDegrees>37.8763210773468017578125</LatitudeDegrees>
              <LongitudeDegrees>-8.15249626524746417999267578125</LongitudeDegrees>
            </Position>
            <AltitudeMeters>162.1999969482421875</AltitudeMeters>
            <DistanceMeters>275831.7346726</DistanceMeters>
          </Trackpoint>
          <Trackpoint>
            <Time>2018-09-14T13:26:03.000Z</Time>
            <Position>
              <LatitudeDegrees>37.87627606652677059173583984375</LatitudeDegrees>
              <LongitudeDegrees>-8.15246156416833400726318359375</LongitudeDegrees>
            </Position>
            <AltitudeMeters>162</AltitudeMeters>
            <DistanceMeters>275837.5994455</DistanceMeters>
          </Trackpoint>
          <Trackpoint>
            <Time>2018-09-14T13:26:04.000Z</Time>
            <Position>
              <LatitudeDegrees>37.87622963078320026397705078125</LatitudeDegrees>
              <LongitudeDegrees>-8.1524259410798549652099609375</LongitudeDegrees>
            </Position>
            <AltitudeMeters>161.8000030517578125</AltitudeMeters>
            <DistanceMeters>275843.64093281</DistanceMeters>
          </Trackpoint>
          <Trackpoint>
            <Time>2018-09-14T13:26:05.000Z</Time>
            <Position>
              <LatitudeDegrees>37.87618151865899562835693359375</LatitudeDegrees>
              <LongitudeDegrees>-8.1523893959820270538330078125</LongitudeDegrees>
            </Position>
            <AltitudeMeters>161.600006103515625</AltitudeMeters>
            <DistanceMeters>275849.88455676</DistanceMeters>
          </Trackpoint>
          <Trackpoint>
            <Time>2018-09-14T13:26:06.000Z</Time>
            <Position>
              <LatitudeDegrees>37.87613189779222011566162109375</LatitudeDegrees>
              <LongitudeDegrees>-8.15235075540840625762939453125</LongitudeDegrees>
            </Position>
            <AltitudeMeters>161.1999969482421875</AltitudeMeters>
            <DistanceMeters>275856.36730123</DistanceMeters>
          </Trackpoint>
          <Trackpoint>
            <Time>2018-09-14T13:26:07.000Z</Time>
            <Position>
              <LatitudeDegrees>37.87608160637319087982177734375</LatitudeDegrees>
              <LongitudeDegrees>-8.1523102708160877227783203125</LongitudeDegrees>
            </Position>
            <AltitudeMeters>161.1999969482421875</AltitudeMeters>
            <DistanceMeters>275862.9987771</DistanceMeters>
          </Trackpoint>
          <Trackpoint>
            <Time>2018-09-14T13:26:08.000Z</Time>
            <Position>
              <LatitudeDegrees>37.87602930329740047454833984375</LatitudeDegrees>
              <LongitudeDegrees>-8.15226852893829345703125</LongitudeDegrees>
            </Position>
            <AltitudeMeters>161.1999969482421875</AltitudeMeters>
            <DistanceMeters>275869.87886872</DistanceMeters>
          </Trackpoint>
          <Trackpoint>
            <Time>2018-09-14T13:26:09.000Z</Time>
            <Position>
              <LatitudeDegrees>37.8759745694696903228759765625</LatitudeDegrees>
              <LongitudeDegrees>-8.15222586505115032196044921875</LongitudeDegrees>
            </Position>
            <AltitudeMeters>161</AltitudeMeters>
            <DistanceMeters>275877.03179911</DistanceMeters>
          </Trackpoint>
          <Trackpoint>
            <Time>2018-09-14T13:26:10.000Z</Time>
            <Position>
              <LatitudeDegrees>37.87591782398521900177001953125</LatitudeDegrees>
              <LongitudeDegrees>-8.15218177624046802520751953125</LongitudeDegrees>
            </Position>
            <AltitudeMeters>161</AltitudeMeters>
            <DistanceMeters>275884.44144585</DistanceMeters>
          </Trackpoint>
          <Trackpoint>
            <Time>2018-09-14T13:26:11.000Z</Time>
            <Position>
              <LatitudeDegrees>37.8758588992059230804443359375</LatitudeDegrees>
              <LongitudeDegrees>-8.1521365977823734283447265625</LongitudeDegrees>
            </Position>
            <AltitudeMeters>161</AltitudeMeters>
            <DistanceMeters>275892.10745769</DistanceMeters>
          </Trackpoint>
          <Trackpoint>
            <Time>2018-09-14T13:26:12.000Z</Time>
            <Position>
              <LatitudeDegrees>37.87579796276986598968505859375</LatitudeDegrees>
              <LongitudeDegrees>-8.15208974294364452362060546875</LongitudeDegrees>
            </Position>
            <AltitudeMeters>160.8000030517578125</AltitudeMeters>
            <DistanceMeters>275900.04147703</DistanceMeters>
          </Trackpoint>
          <Trackpoint>
            <Time>2018-09-14T13:26:13.000Z</Time>
            <Position>
              <LatitudeDegrees>37.8757348470389842987060546875</LatitudeDegrees>
              <LongitudeDegrees>-8.1520407088100910186767578125</LongitudeDegrees>
            </Position>
            <AltitudeMeters>160.8000030517578125</AltitudeMeters>
            <DistanceMeters>275908.28199733</DistanceMeters>
          </Trackpoint>
          <Trackpoint>
            <Time>2018-09-14T13:26:14.000Z</Time>
            <Position>
              <LatitudeDegrees>37.8756691329181194305419921875</LatitudeDegrees>
              <LongitudeDegrees>-8.15198966301977634429931640625</LongitudeDegrees>
            </Position>
            <AltitudeMeters>160.600006103515625</AltitudeMeters>
            <DistanceMeters>275916.86128361</DistanceMeters>
          </Trackpoint>
          <Trackpoint>
            <Time>2018-09-14T13:26:15.000Z</Time>
            <Position>
              <LatitudeDegrees>37.87560157477855682373046875</LatitudeDegrees>
              <LongitudeDegrees>-8.15193702466785907745361328125</LongitudeDegrees>
            </Position>
            <AltitudeMeters>160</AltitudeMeters>
            <DistanceMeters>275925.6880327</DistanceMeters>
          </Trackpoint>
          <Trackpoint>
            <Time>2018-09-14T13:26:16.000Z</Time>
            <Position>
              <LatitudeDegrees>37.8755320049822330474853515625</LatitudeDegrees>
              <LongitudeDegrees>-8.151881285011768341064453125</LongitudeDegrees>
            </Position>
            <AltitudeMeters>159.399993896484375</AltitudeMeters>
            <DistanceMeters>275934.85010619</DistanceMeters>
          </Trackpoint>
          <Trackpoint>
            <Time>2018-09-14T13:26:17.000Z</Time>
            <Position>
              <LatitudeDegrees>37.875461094081401824951171875</LatitudeDegrees>
              <LongitudeDegrees>-8.151824958622455596923828125</LongitudeDegrees>
            </Position>
            <AltitudeMeters>158.600006103515625</AltitudeMeters>
            <DistanceMeters>275944.16611739</DistanceMeters>
          </Trackpoint>
          <Trackpoint>
            <Time>2018-09-14T13:26:18.000Z</Time>
            <Position>
              <LatitudeDegrees>37.875388003885746002197265625</LatitudeDegrees>
              <LongitudeDegrees>-8.15176988951861858367919921875</LongitudeDegrees>
            </Position>
            <AltitudeMeters>158</AltitudeMeters>
            <DistanceMeters>275953.63117885</DistanceMeters>
          </Trackpoint>
          <Trackpoint>
            <Time>2018-09-14T13:26:19.000Z</Time>
            <Position>
              <LatitudeDegrees>37.87531298585236072540283203125</LatitudeDegrees>
              <LongitudeDegrees>-8.1517141498625278472900390625</LongitudeDegrees>
            </Position>
            <AltitudeMeters>157.399993896484375</AltitudeMeters>
            <DistanceMeters>275963.31178489</DistanceMeters>
          </Trackpoint>
          <Trackpoint>
            <Time>2018-09-14T13:26:20.000Z</Time>
            <Position>
              <LatitudeDegrees>37.8752369619905948638916015625</LatitudeDegrees>
              <LongitudeDegrees>-8.15165539272129535675048828125</LongitudeDegrees>
            </Position>
            <AltitudeMeters>157</AltitudeMeters>
            <DistanceMeters>275973.22421455</DistanceMeters>
          </Trackpoint>
          <Trackpoint>
            <Time>2018-09-14T13:26:21.000Z</Time>
            <Position>
              <LatitudeDegrees>37.87515909411013126373291015625</LatitudeDegrees>
              <LongitudeDegrees>-8.1515947915613651275634765625</LongitudeDegrees>
            </Position>
            <AltitudeMeters>156.600006103515625</AltitudeMeters>
            <DistanceMeters>275983.39606866</DistanceMeters>
          </Trackpoint>
          <Trackpoint>
            <Time>2018-09-14T13:26:22.000Z</Time>
            <Position>
              <LatitudeDegrees>37.8750787116587162017822265625</LatitudeDegrees>
              <LongitudeDegrees>-8.15153435803949832916259765625</LongitudeDegrees>
            </Position>
            <AltitudeMeters>156.399993896484375</AltitudeMeters>
            <DistanceMeters>275993.79964959</DistanceMeters>
          </Trackpoint>
          <Trackpoint>
            <Time>2018-09-14T13:26:23.000Z</Time>
            <Position>
              <LatitudeDegrees>37.87499765865504741668701171875</LatitudeDegrees>
              <LongitudeDegrees>-8.1514734216034412384033203125</LongitudeDegrees>
            </Position>
            <AltitudeMeters>156.1999969482421875</AltitudeMeters>
            <DistanceMeters>276004.28966921</DistanceMeters>
          </Trackpoint>
          <Trackpoint>
            <Time>2018-09-14T13:26:24.000Z</Time>
            <Position>
              <LatitudeDegrees>37.87491668947041034698486328125</LatitudeDegrees>
              <LongitudeDegrees>-8.1514107249677181243896484375</LongitudeDegrees>
            </Position>
            <AltitudeMeters>156.1999969482421875</AltitudeMeters>
            <DistanceMeters>276014.85175065</DistanceMeters>
          </Trackpoint>
          <Trackpoint>
            <Time>2018-09-14T13:26:25.000Z</Time>
            <Position>
              <LatitudeDegrees>37.87483605556190013885498046875</LatitudeDegrees>
              <LongitudeDegrees>-8.15134878270328044891357421875</LongitudeDegrees>
            </Position>
            <AltitudeMeters>156.1999969482421875</AltitudeMeters>
            <DistanceMeters>276025.34693395</DistanceMeters>
          </Trackpoint>
          <Trackpoint>
            <Time>2018-09-14T13:26:26.000Z</Time>
            <Position>
              <LatitudeDegrees>37.87475558929145336151123046875</LatitudeDegrees>
              <LongitudeDegrees>-8.1512880139052867889404296875</LongitudeDegrees>
            </Position>
            <AltitudeMeters>156.1999969482421875</AltitudeMeters>
            <DistanceMeters>276035.77392394</DistanceMeters>
          </Trackpoint>
          <Trackpoint>
            <Time>2018-09-14T13:26:27.000Z</Time>
            <Position>
              <LatitudeDegrees>37.8746755421161651611328125</LatitudeDegrees>
              <LongitudeDegrees>-8.151226826012134552001953125</LongitudeDegrees>
            </Position>
            <AltitudeMeters>156.1999969482421875</AltitudeMeters>
            <DistanceMeters>276046.17924069</DistanceMeters>
          </Trackpoint>
          <Trackpoint>
            <Time>2018-09-14T13:26:28.000Z</Time>
            <Position>
              <LatitudeDegrees>37.874595411121845245361328125</LatitudeDegrees>
              <LongitudeDegrees>-8.15116538666188716888427734375</LongitudeDegrees>
            </Position>
            <AltitudeMeters>156.1999969482421875</AltitudeMeters>
            <DistanceMeters>276056.60449848</DistanceMeters>
          </Trackpoint>
          <Trackpoint>
            <Time>2018-09-14T13:26:29.000Z</Time>
            <Position>
              <LatitudeDegrees>37.87451653741300106048583984375</LatitudeDegrees>
              <LongitudeDegrees>-8.1511049531400203704833984375</LongitudeDegrees>
            </Position>
            <AltitudeMeters>156.1999969482421875</AltitudeMeters>
            <DistanceMeters>276066.86386352</DistanceMeters>
          </Trackpoint>
          <Trackpoint>
            <Time>2018-09-14T13:26:30.000Z</Time>
            <Position>
              <LatitudeDegrees>37.87443992681801319122314453125</LatitudeDegrees>
              <LongitudeDegrees>-8.15104502253234386444091796875</LongitudeDegrees>
            </Position>
            <AltitudeMeters>156.1999969482421875</AltitudeMeters>
            <DistanceMeters>276076.8854657</DistanceMeters>
          </Trackpoint>
          <Trackpoint>
            <Time>2018-09-14T13:26:31.000Z</Time>
            <Position>
              <LatitudeDegrees>37.8743642382323741912841796875</LatitudeDegrees>
              <LongitudeDegrees>-8.1509869359433650970458984375</LongitudeDegrees>
            </Position>
            <AltitudeMeters>156.1999969482421875</AltitudeMeters>
            <DistanceMeters>276086.73529521</DistanceMeters>
          </Trackpoint>
          <Trackpoint>
            <Time>2018-09-14T13:26:32.000Z</Time>
            <Position>
              <LatitudeDegrees>37.8742904774844646453857421875</LatitudeDegrees>
              <LongitudeDegrees>-8.15093035809695720672607421875</LongitudeDegrees>
            </Position>
            <AltitudeMeters>156</AltitudeMeters>
            <DistanceMeters>276096.33252292</DistanceMeters>
          </Trackpoint>
          <Trackpoint>
            <Time>2018-09-14T13:26:33.000Z</Time>
            <Position>
              <LatitudeDegrees>37.87421864457428455352783203125</LatitudeDegrees>
              <LongitudeDegrees>-8.15087436698377132415771484375</LongitudeDegrees>
            </Position>
            <AltitudeMeters>155.8000030517578125</AltitudeMeters>
            <DistanceMeters>276105.71998882</DistanceMeters>
          </Trackpoint>
          <Trackpoint>
            <Time>2018-09-14T13:26:34.000Z</Time>
            <Position>
              <LatitudeDegrees>37.87414723075926303863525390625</LatitudeDegrees>
              <LongitudeDegrees>-8.15081871114671230316162109375</LongitudeDegrees>
            </Position>
            <AltitudeMeters>155.1999969482421875</AltitudeMeters>
            <DistanceMeters>276115.05246369</DistanceMeters>
          </Trackpoint>
          <Trackpoint>
            <Time>2018-09-14T13:26:35.000Z</Time>
            <Position>
              <LatitudeDegrees>37.8740762360394001007080078125</LatitudeDegrees>
              <LongitudeDegrees>-8.15076456405222415924072265625</LongitudeDegrees>
            </Position>
            <AltitudeMeters>154.600006103515625</AltitudeMeters>
            <DistanceMeters>276124.27593106</DistanceMeters>
          </Trackpoint>
          <Trackpoint>
            <Time>2018-09-14T13:26:36.000Z</Time>
            <Position>
              <LatitudeDegrees>37.8740061633288860321044921875</LatitudeDegrees>
              <LongitudeDegrees>-8.150712512433528900146484375</LongitudeDegrees>
            </Position>
            <AltitudeMeters>154.1999969482421875</AltitudeMeters>
            <DistanceMeters>276133.31696263</DistanceMeters>
          </Trackpoint>
          <Trackpoint>
            <Time>2018-09-14T13:26:37.000Z</Time>
            <Position>
              <LatitudeDegrees>37.87393650971353054046630859375</LatitudeDegrees>
              <LongitudeDegrees>-8.15066062845289707183837890625</LongitudeDegrees>
            </Position>
            <AltitudeMeters>153.600006103515625</AltitudeMeters>
            <DistanceMeters>276142.30992458</DistanceMeters>
          </Trackpoint>
          <Trackpoint>
            <Time>2018-09-14T13:26:38.000Z</Time>
            <Position>
              <LatitudeDegrees>37.873867861926555633544921875</LatitudeDegrees>
              <LongitudeDegrees>-8.15060715191066265106201171875</LongitudeDegrees>
            </Position>
            <AltitudeMeters>153</AltitudeMeters>
            <DistanceMeters>276151.27875511</DistanceMeters>
          </Trackpoint>
          <Trackpoint>
            <Time>2018-09-14T13:26:39.000Z</Time>
            <Position>
              <LatitudeDegrees>37.8737959451973438262939453125</LatitudeDegrees>
              <LongitudeDegrees>-8.15055065788328647613525390625</LongitudeDegrees>
            </Position>
            <AltitudeMeters>152.399993896484375</AltitudeMeters>
            <DistanceMeters>276160.69743182</DistanceMeters>
          </Trackpoint>
          <Trackpoint>
            <Time>2018-09-14T13:26:40.000Z</Time>
            <Position>
              <LatitudeDegrees>37.8737208433449268341064453125</LatitudeDegrees>
              <LongitudeDegrees>-8.15049215219914913177490234375</LongitudeDegrees>
            </Position>
            <AltitudeMeters>151.8000030517578125</AltitudeMeters>
            <DistanceMeters>276170.51052181</DistanceMeters>
          </Trackpoint>
          <Trackpoint>
            <Time>2018-09-14T13:26:41.000Z</Time>
            <Position>
              <LatitudeDegrees>37.873643226921558380126953125</LatitudeDegrees>
              <LongitudeDegrees>-8.15043188631534576416015625</LongitudeDegrees>
            </Position>
            <AltitudeMeters>151.1999969482421875</AltitudeMeters>
            <DistanceMeters>276180.64323957</DistanceMeters>
          </Trackpoint>
          <Trackpoint>
            <Time>2018-09-14T13:26:42.000Z</Time>
            <Position>
              <LatitudeDegrees>37.8735619224607944488525390625</LatitudeDegrees>
              <LongitudeDegrees>-8.15036877058446407318115234375</LongitudeDegrees>
            </Position>
            <AltitudeMeters>150.600006103515625</AltitudeMeters>
            <DistanceMeters>276191.25606876</DistanceMeters>
          </Trackpoint>
          <Trackpoint>
            <Time>2018-09-14T13:26:43.000Z</Time>
            <Position>
              <LatitudeDegrees>37.87347818724811077117919921875</LatitudeDegrees>
              <LongitudeDegrees>-8.15030515193939208984375</LongitudeDegrees>
            </Position>
            <AltitudeMeters>150</AltitudeMeters>
            <DistanceMeters>276202.12323673</DistanceMeters>
          </Trackpoint>
          <Trackpoint>
            <Time>2018-09-14T13:26:44.000Z</Time>
            <Position>
              <LatitudeDegrees>37.8733932785689830780029296875</LatitudeDegrees>
              <LongitudeDegrees>-8.15024203620851039886474609375</LongitudeDegrees>
            </Position>
            <AltitudeMeters>149.399993896484375</AltitudeMeters>
            <DistanceMeters>276213.08060395</DistanceMeters>
          </Trackpoint>
          <Trackpoint>
            <Time>2018-09-14T13:26:45.000Z</Time>
            <Position>
              <LatitudeDegrees>37.87330904044210910797119140625</LatitudeDegrees>
              <LongitudeDegrees>-8.15017883665859699249267578125</LongitudeDegrees>
            </Position>
            <AltitudeMeters>149.1999969482421875</AltitudeMeters>
            <DistanceMeters>276223.97764508</DistanceMeters>
          </Trackpoint>
          <Trackpoint>
            <Time>2018-09-14T13:26:46.000Z</Time>
            <Position>
              <LatitudeDegrees>37.873225472867488861083984375</LatitudeDegrees>
              <LongitudeDegrees>-8.15011580474674701690673828125</LongitudeDegrees>
            </Position>
            <AltitudeMeters>149.1999969482421875</AltitudeMeters>
            <DistanceMeters>276234.80235163</DistanceMeters>
          </Trackpoint>
          <Trackpoint>
            <Time>2018-09-14T13:26:47.000Z</Time>
            <Position>
              <LatitudeDegrees>37.873144336044788360595703125</LatitudeDegrees>
              <LongitudeDegrees>-8.15005235373973846435546875</LongitudeDegrees>
            </Position>
            <AltitudeMeters>149.1999969482421875</AltitudeMeters>
            <DistanceMeters>276245.41475538</DistanceMeters>
          </Trackpoint>
          <Trackpoint>
            <Time>2018-09-14T13:26:48.000Z</Time>
            <Position>
              <LatitudeDegrees>37.8730650432407855987548828125</LatitudeDegrees>
              <LongitudeDegrees>-8.14998890273272991180419921875</LongitudeDegrees>
            </Position>
            <AltitudeMeters>149.1999969482421875</AltitudeMeters>
            <DistanceMeters>276255.85299768</DistanceMeters>
          </Trackpoint>
          <Trackpoint>
            <Time>2018-09-14T13:26:49.000Z</Time>
            <Position>
              <LatitudeDegrees>37.87298650480806827545166015625</LatitudeDegrees>
              <LongitudeDegrees>-8.149925954639911651611328125</LongitudeDegrees>
            </Position>
            <AltitudeMeters>149</AltitudeMeters>
            <DistanceMeters>276266.19651477</DistanceMeters>
          </Trackpoint>
          <Trackpoint>
            <Time>2018-09-14T13:26:50.000Z</Time>
            <Position>
              <LatitudeDegrees>37.8729084692895412445068359375</LatitudeDegrees>
              <LongitudeDegrees>-8.14986459910869598388671875</LongitudeDegrees>
            </Position>
            <AltitudeMeters>149</AltitudeMeters>
            <DistanceMeters>276276.41884545</DistanceMeters>
          </Trackpoint>
          <Trackpoint>
            <Time>2018-09-14T13:26:51.000Z</Time>
            <Position>
              <LatitudeDegrees>37.87283177487552165985107421875</LatitudeDegrees>
              <LongitudeDegrees>-8.1498037464916706085205078125</LongitudeDegrees>
            </Position>
            <AltitudeMeters>149</AltitudeMeters>
            <DistanceMeters>276286.49122893</DistanceMeters>
          </Trackpoint>
          <Trackpoint>
            <Time>2018-09-14T13:26:52.000Z</Time>
            <Position>
              <LatitudeDegrees>37.87275575101375579833984375</LatitudeDegrees>
              <LongitudeDegrees>-8.14974482171237468719482421875</LongitudeDegrees>
            </Position>
            <AltitudeMeters>149</AltitudeMeters>
            <DistanceMeters>276296.41139894</DistanceMeters>
          </Trackpoint>
          <Trackpoint>
            <Time>2018-09-14T13:26:53.000Z</Time>
            <Position>
              <LatitudeDegrees>37.87267989479005336761474609375</LatitudeDegrees>
              <LongitudeDegrees>-8.14968665130436420440673828125</LongitudeDegrees>
            </Position>
            <AltitudeMeters>149.1999969482421875</AltitudeMeters>
            <DistanceMeters>276306.28137689</DistanceMeters>
          </Trackpoint>
          <Trackpoint>
            <Time>2018-09-14T13:26:54.000Z</Time>
            <Position>
              <LatitudeDegrees>37.87260663695633411407470703125</LatitudeDegrees>
              <LongitudeDegrees>-8.14962990581989288330078125</LongitudeDegrees>
            </Position>
            <AltitudeMeters>149.399993896484375</AltitudeMeters>
            <DistanceMeters>276315.83900491</DistanceMeters>
          </Trackpoint>
          <Trackpoint>
            <Time>2018-09-14T13:26:55.000Z</Time>
            <Position>
              <LatitudeDegrees>37.87253622896969318389892578125</LatitudeDegrees>
              <LongitudeDegrees>-8.1495740823447704315185546875</LongitudeDegrees>
            </Position>
            <AltitudeMeters>149.600006103515625</AltitudeMeters>
            <DistanceMeters>276325.08349751</DistanceMeters>
          </Trackpoint>
          <Trackpoint>
            <Time>2018-09-14T13:26:56.000Z</Time>
            <Position>
              <LatitudeDegrees>37.87246833555400371551513671875</LatitudeDegrees>
              <LongitudeDegrees>-8.14951968379318714141845703125</LongitudeDegrees>
            </Position>
            <AltitudeMeters>149.8000030517578125</AltitudeMeters>
            <DistanceMeters>276334.02510233</DistanceMeters>
          </Trackpoint>
          <Trackpoint>
            <Time>2018-09-14T13:26:57.000Z</Time>
            <Position>
              <LatitudeDegrees>37.87240211851894855499267578125</LatitudeDegrees>
              <LongitudeDegrees>-8.14946897327899932861328125</LongitudeDegrees>
            </Position>
            <AltitudeMeters>150.1999969482421875</AltitudeMeters>
            <DistanceMeters>276342.63747993</DistanceMeters>
          </Trackpoint>
          <Trackpoint>
            <Time>2018-09-14T13:26:58.000Z</Time>
            <Position>
              <LatitudeDegrees>37.872336991131305694580078125</LatitudeDegrees>
              <LongitudeDegrees>-8.149419687688350677490234375</LongitudeDegrees>
            </Position>
            <AltitudeMeters>150.600006103515625</AltitudeMeters>
            <DistanceMeters>276351.08096579</DistanceMeters>
          </Trackpoint>
          <Trackpoint>
            <Time>2018-09-14T13:26:59.000Z</Time>
            <Position>
              <LatitudeDegrees>37.8722734563052654266357421875</LatitudeDegrees>
              <LongitudeDegrees>-8.1493712402880191802978515625</LongitudeDegrees>
            </Position>
            <AltitudeMeters>150.8000030517578125</AltitudeMeters>
            <DistanceMeters>276359.33462539</DistanceMeters>
          </Trackpoint>
          <Trackpoint>
            <Time>2018-09-14T13:27:00.000Z</Time>
            <Position>
              <LatitudeDegrees>37.872210927307605743408203125</LatitudeDegrees>
              <LongitudeDegrees>-8.14932388253509998321533203125</LongitudeDegrees>
            </Position>
            <AltitudeMeters>151.1999969482421875</AltitudeMeters>
            <DistanceMeters>276367.4431386</DistanceMeters>
          </Trackpoint>
          <Trackpoint>
            <Time>2018-09-14T13:27:01.000Z</Time>
            <Position>
              <LatitudeDegrees>37.8721497394144535064697265625</LatitudeDegrees>
              <LongitudeDegrees>-8.14927794970571994781494140625</LongitudeDegrees>
            </Position>
            <AltitudeMeters>151.399993896484375</AltitudeMeters>
            <DistanceMeters>276375.35835625</DistanceMeters>
          </Trackpoint>
          <Trackpoint>
            <Time>2018-09-14T13:27:02.000Z</Time>
            <Position>
              <LatitudeDegrees>37.87209014408290386199951171875</LatitudeDegrees>
              <LongitudeDegrees>-8.1492337770760059356689453125</LongitudeDegrees>
            </Position>
            <AltitudeMeters>151.8000030517578125</AltitudeMeters>
            <DistanceMeters>276383.04319196</DistanceMeters>
          </Trackpoint>
          <Trackpoint>
            <Time>2018-09-14T13:27:03.000Z</Time>
            <Position>
              <LatitudeDegrees>37.872032225131988525390625</LatitudeDegrees>
              <LongitudeDegrees>-8.14919077791273593902587890625</LongitudeDegrees>
            </Position>
            <AltitudeMeters>152</AltitudeMeters>
            <DistanceMeters>276390.51473348</DistanceMeters>
          </Trackpoint>
          <Trackpoint>
            <Time>2018-09-14T13:27:04.000Z</Time>
            <Position>
              <LatitudeDegrees>37.87197581492364406585693359375</LatitudeDegrees>
              <LongitudeDegrees>-8.14914786256849765777587890625</LongitudeDegrees>
            </Position>
            <AltitudeMeters>152.399993896484375</AltitudeMeters>
            <DistanceMeters>276397.83919142</DistanceMeters>
          </Trackpoint>
          <Trackpoint>
            <Time>2018-09-14T13:27:05.000Z</Time>
            <Position>
              <LatitudeDegrees>37.87192066200077533721923828125</LatitudeDegrees>
              <LongitudeDegrees>-8.14910511486232280731201171875</LongitudeDegrees>
            </Position>
            <AltitudeMeters>152.600006103515625</AltitudeMeters>
            <DistanceMeters>276405.03617124</DistanceMeters>
          </Trackpoint>
          <Trackpoint>
            <Time>2018-09-14T13:27:06.000Z</Time>
            <Position>
              <LatitudeDegrees>37.8718664310872554779052734375</LatitudeDegrees>
              <LongitudeDegrees>-8.14906203188002109527587890625</LongitudeDegrees>
            </Position>
            <AltitudeMeters>152.399993896484375</AltitudeMeters>
            <DistanceMeters>276412.16000655</DistanceMeters>
          </Trackpoint>
          <Trackpoint>
            <Time>2018-09-14T13:27:07.000Z</Time>
            <Position>
              <LatitudeDegrees>37.87181270308792591094970703125</LatitudeDegrees>
              <LongitudeDegrees>-8.149020709097385406494140625</LongitudeDegrees>
            </Position>
            <AltitudeMeters>152</AltitudeMeters>
            <DistanceMeters>276419.15658031</DistanceMeters>
          </Trackpoint>
          <Trackpoint>
            <Time>2018-09-14T13:27:08.000Z</Time>
            <Position>
              <LatitudeDegrees>37.87175905890762805938720703125</LatitudeDegrees>
              <LongitudeDegrees>-8.14897938631474971771240234375</LongitudeDegrees>
            </Position>
            <AltitudeMeters>151.600006103515625</AltitudeMeters>
            <DistanceMeters>276426.14411374</DistanceMeters>
          </Trackpoint>
          <Trackpoint>
            <Time>2018-09-14T13:27:09.000Z</Time>
            <Position>
              <LatitudeDegrees>37.87170658819377422332763671875</LatitudeDegrees>
              <LongitudeDegrees>-8.14893747679889202117919921875</LongitudeDegrees>
            </Position>
            <AltitudeMeters>151.1999969482421875</AltitudeMeters>
            <DistanceMeters>276433.04844379</DistanceMeters>
          </Trackpoint>
          <Trackpoint>
            <Time>2018-09-14T13:27:10.000Z</Time>
            <Position>
              <LatitudeDegrees>37.8716548718512058258056640625</LatitudeDegrees>
              <LongitudeDegrees>-8.1488971598446369171142578125</LongitudeDegrees>
            </Position>
            <AltitudeMeters>151.1999969482421875</AltitudeMeters>
            <DistanceMeters>276439.80737542</DistanceMeters>
          </Trackpoint>
          <Trackpoint>
            <Time>2018-09-14T13:27:11.000Z</Time>
            <Position>
              <LatitudeDegrees>37.87160365842282772064208984375</LatitudeDegrees>
              <LongitudeDegrees>-8.1488586030900478363037109375</LongitudeDegrees>
            </Position>
            <AltitudeMeters>151.1999969482421875</AltitudeMeters>
            <DistanceMeters>276446.4388513</DistanceMeters>
          </Trackpoint>
          <Trackpoint>
            <Time>2018-09-14T13:27:12.000Z</Time>
            <Position>
              <LatitudeDegrees>37.87155403755605220794677734375</LatitudeDegrees>
              <LongitudeDegrees>-8.148819543421268463134765625</LongitudeDegrees>
            </Position>
            <AltitudeMeters>151</AltitudeMeters>
            <DistanceMeters>276452.94106768</DistanceMeters>
          </Trackpoint>
          <Trackpoint>
            <Time>2018-09-14T13:27:13.000Z</Time>
            <Position>
              <LatitudeDegrees>37.871505506336688995361328125</LatitudeDegrees>
              <LongitudeDegrees>-8.1487808190286159515380859375</LongitudeDegrees>
            </Position>
            <AltitudeMeters>151</AltitudeMeters>
            <DistanceMeters>276459.32485456</DistanceMeters>
          </Trackpoint>
          <Trackpoint>
            <Time>2018-09-14T13:27:14.000Z</Time>
            <Position>
              <LatitudeDegrees>37.87145747803151607513427734375</LatitudeDegrees>
              <LongitudeDegrees>-8.148744106292724609375</LongitudeDegrees>
            </Position>
            <AltitudeMeters>150.8000030517578125</AltitudeMeters>
            <DistanceMeters>276465.56775533</DistanceMeters>
          </Trackpoint>
          <Trackpoint>
            <Time>2018-09-14T13:27:15.000Z</Time>
            <Position>
              <LatitudeDegrees>37.8714101202785968780517578125</LatitudeDegrees>
              <LongitudeDegrees>-8.1487083993852138519287109375</LongitudeDegrees>
            </Position>
            <AltitudeMeters>151</AltitudeMeters>
            <DistanceMeters>276471.70121263</DistanceMeters>
          </Trackpoint>
          <Trackpoint>
            <Time>2018-09-14T13:27:16.000Z</Time>
            <Position>
              <LatitudeDegrees>37.8713635168969631195068359375</LatitudeDegrees>
              <LongitudeDegrees>-8.14867277629673480987548828125</LongitudeDegrees>
            </Position>
            <AltitudeMeters>151.1999969482421875</AltitudeMeters>
            <DistanceMeters>276477.76060953</DistanceMeters>
          </Trackpoint>
          <Trackpoint>
            <Time>2018-09-14T13:27:17.000Z</Time>
            <Position>
              <LatitudeDegrees>37.87131699733436107635498046875</LatitudeDegrees>
              <LongitudeDegrees>-8.14863757230341434478759765625</LongitudeDegrees>
            </Position>
            <AltitudeMeters>151.399993896484375</AltitudeMeters>
            <DistanceMeters>276483.79162503</DistanceMeters>
          </Trackpoint>
          <Trackpoint>
            <Time>2018-09-14T13:27:18.000Z</Time>
            <Position>
              <LatitudeDegrees>37.87127190269529819488525390625</LatitudeDegrees>
              <LongitudeDegrees>-8.1486014463007450103759765625</LongitudeDegrees>
            </Position>
            <AltitudeMeters>151.600006103515625</AltitudeMeters>
            <DistanceMeters>276489.72984433</DistanceMeters>
          </Trackpoint>
          <Trackpoint>
            <Time>2018-09-14T13:27:19.000Z</Time>
            <Position>
              <LatitudeDegrees>37.8712280653417110443115234375</LatitudeDegrees>
              <LongitudeDegrees>-8.14856481738388538360595703125</LongitudeDegrees>
            </Position>
            <AltitudeMeters>151.8000030517578125</AltitudeMeters>
            <DistanceMeters>276495.57533912</DistanceMeters>
          </Trackpoint>
          <Trackpoint>
            <Time>2018-09-14T13:27:20.000Z</Time>
            <Position>
              <LatitudeDegrees>37.87118389271199703216552734375</LatitudeDegrees>
              <LongitudeDegrees>-8.148529864847660064697265625</LongitudeDegrees>
            </Position>
            <AltitudeMeters>152</AltitudeMeters>
            <DistanceMeters>276501.37196869</DistanceMeters>
          </Trackpoint>
          <Trackpoint>
            <Time>2018-09-14T13:27:21.000Z</Time>
            <Position>
              <LatitudeDegrees>37.8711395524442195892333984375</LatitudeDegrees>
              <LongitudeDegrees>-8.1484965048730373382568359375</LongitudeDegrees>
            </Position>
            <AltitudeMeters>152.1999969482421875</AltitudeMeters>
            <DistanceMeters>276507.11302948</DistanceMeters>
          </Trackpoint>
          <Trackpoint>
            <Time>2018-09-14T13:27:22.000Z</Time>
            <Position>
              <LatitudeDegrees>37.8710947930812835693359375</LatitudeDegrees>
              <LongitudeDegrees>-8.148462809622287750244140625</LongitudeDegrees>
            </Position>
            <AltitudeMeters>152.399993896484375</AltitudeMeters>
            <DistanceMeters>276512.9088801</DistanceMeters>
          </Trackpoint>
          <Trackpoint>
            <Time>2018-09-14T13:27:23.000Z</Time>
            <Position>
              <LatitudeDegrees>37.8710500337183475494384765625</LatitudeDegrees>
              <LongitudeDegrees>-8.1484294496476650238037109375</LongitudeDegrees>
            </Position>
            <AltitudeMeters>152.8000030517578125</AltitudeMeters>
            <DistanceMeters>276518.68912948</DistanceMeters>
          </Trackpoint>
          <Trackpoint>
            <Time>2018-09-14T13:27:24.000Z</Time>
            <Position>
              <LatitudeDegrees>37.87100636400282382965087890625</LatitudeDegrees>
              <LongitudeDegrees>-8.14839600585401058197021484375</LongitudeDegrees>
            </Position>
            <AltitudeMeters>153.1999969482421875</AltitudeMeters>
            <DistanceMeters>276524.36851616</DistanceMeters>
          </Trackpoint>
          <Trackpoint>
            <Time>2018-09-14T13:27:25.000Z</Time>
            <Position>
              <LatitudeDegrees>37.870962359011173248291015625</LatitudeDegrees>
              <LongitudeDegrees>-8.14836256206035614013671875</LongitudeDegrees>
            </Position>
            <AltitudeMeters>153.399993896484375</AltitudeMeters>
            <DistanceMeters>276530.0804043</DistanceMeters>
          </Trackpoint>
          <Trackpoint>
            <Time>2018-09-14T13:27:26.000Z</Time>
            <Position>
              <LatitudeDegrees>37.87091852165758609771728515625</LatitudeDegrees>
              <LongitudeDegrees>-8.14832878299057483673095703125</LongitudeDegrees>
            </Position>
            <AltitudeMeters>153.600006103515625</AltitudeMeters>
            <DistanceMeters>276535.79150193</DistanceMeters>
          </Trackpoint>
          <Trackpoint>
            <Time>2018-09-14T13:27:27.000Z</Time>
            <Position>
              <LatitudeDegrees>37.8708750195801258087158203125</LatitudeDegrees>
              <LongitudeDegrees>-8.14829508773982524871826171875</LongitudeDegrees>
            </Position>
            <AltitudeMeters>153.8000030517578125</AltitudeMeters>
            <DistanceMeters>276541.46770777</DistanceMeters>
          </Trackpoint>
          <Trackpoint>
            <Time>2018-09-14T13:27:28.000Z</Time>
            <Position>
              <LatitudeDegrees>37.8708319365978240966796875</LatitudeDegrees>
              <LongitudeDegrees>-8.14826105721294879913330078125</LongitudeDegrees>
            </Position>
            <AltitudeMeters>154.1999969482421875</AltitudeMeters>
            <DistanceMeters>276547.11840245</DistanceMeters>
          </Trackpoint>
          <Trackpoint>
            <Time>2018-09-14T13:27:29.000Z</Time>
            <Position>
              <LatitudeDegrees>37.87078977562487125396728515625</LatitudeDegrees>
              <LongitudeDegrees>-8.148227445781230926513671875</LongitudeDegrees>
            </Position>
            <AltitudeMeters>154.399993896484375</AltitudeMeters>
            <DistanceMeters>276552.66262288</DistanceMeters>
          </Trackpoint>
          <Trackpoint>
            <Time>2018-09-14T13:27:30.000Z</Time>
            <Position>
              <LatitudeDegrees>37.8707479499280452728271484375</LatitudeDegrees>
              <LongitudeDegrees>-8.14819492399692535400390625</LongitudeDegrees>
            </Position>
            <AltitudeMeters>154.600006103515625</AltitudeMeters>
            <DistanceMeters>276558.12479942</DistanceMeters>
          </Trackpoint>
          <Trackpoint>
            <Time>2018-09-14T13:27:31.000Z</Time>
            <Position>
              <LatitudeDegrees>37.87070654332637786865234375</LatitudeDegrees>
              <LongitudeDegrees>-8.14816382713615894317626953125</LongitudeDegrees>
            </Position>
            <AltitudeMeters>155</AltitudeMeters>
            <DistanceMeters>276563.48349731</DistanceMeters>
          </Trackpoint>
          <Trackpoint>
            <Time>2018-09-14T13:27:32.000Z</Time>
            <Position>
              <LatitudeDegrees>37.87066522054374217987060546875</LatitudeDegrees>
              <LongitudeDegrees>-8.14813298173248767852783203125</LongitudeDegrees>
            </Position>
            <AltitudeMeters>155.1999969482421875</AltitudeMeters>
            <DistanceMeters>276568.8219354</DistanceMeters>
          </Trackpoint>
          <Trackpoint>
            <Time>2018-09-14T13:27:33.000Z</Time>
            <Position>
              <LatitudeDegrees>37.87062481977045536041259765625</LatitudeDegrees>
              <LongitudeDegrees>-8.14810330979526042938232421875</LongitudeDegrees>
            </Position>
            <AltitudeMeters>155.399993896484375</AltitudeMeters>
            <DistanceMeters>276574.0198185</DistanceMeters>
          </Trackpoint>
          <Trackpoint>
            <Time>2018-09-14T13:27:34.000Z</Time>
            <Position>
              <LatitudeDegrees>37.87058559246361255645751953125</LatitudeDegrees>
              <LongitudeDegrees>-8.148074559867382049560546875</LongitudeDegrees>
            </Position>
            <AltitudeMeters>155.8000030517578125</AltitudeMeters>
            <DistanceMeters>276579.06519119</DistanceMeters>
          </Trackpoint>
          <Trackpoint>
            <Time>2018-09-14T13:27:35.000Z</Time>
            <Position>
              <LatitudeDegrees>37.8705471195280551910400390625</LatitudeDegrees>
              <LongitudeDegrees>-8.1480462290346622467041015625</LongitudeDegrees>
            </Position>
            <AltitudeMeters>156</AltitudeMeters>
            <DistanceMeters>276584.01844443</DistanceMeters>
          </Trackpoint>
          <Trackpoint>
            <Time>2018-09-14T13:27:36.000Z</Time>
            <Position>
              <LatitudeDegrees>37.87051015533506870269775390625</LatitudeDegrees>
              <LongitudeDegrees>-8.14801655709743499755859375</LongitudeDegrees>
            </Position>
            <AltitudeMeters>156.1999969482421875</AltitudeMeters>
            <DistanceMeters>276588.88989605</DistanceMeters>
          </Trackpoint>
          <Trackpoint>
            <Time>2018-09-14T13:27:37.000Z</Time>
            <Position>
              <LatitudeDegrees>37.870473526418209075927734375</LatitudeDegrees>
              <LongitudeDegrees>-8.147986046969890594482421875</LongitudeDegrees>
            </Position>
            <AltitudeMeters>156.399993896484375</AltitudeMeters>
            <DistanceMeters>276593.76875673</DistanceMeters>
          </Trackpoint>
          <Trackpoint>
            <Time>2018-09-14T13:27:38.000Z</Time>
            <Position>
              <LatitudeDegrees>37.87043622694909572601318359375</LatitudeDegrees>
              <LongitudeDegrees>-8.14795553684234619140625</LongitudeDegrees>
            </Position>
            <AltitudeMeters>156.600006103515625</AltitudeMeters>
            <DistanceMeters>276598.71014587</DistanceMeters>
          </Trackpoint>
          <Trackpoint>
            <Time>2018-09-14T13:27:39.000Z</Time>
            <Position>
              <LatitudeDegrees>37.87039884366095066070556640625</LatitudeDegrees>
              <LongitudeDegrees>-8.1479262001812458038330078125</LongitudeDegrees>
            </Position>
            <AltitudeMeters>156.8000030517578125</AltitudeMeters>
            <DistanceMeters>276603.60563593</DistanceMeters>
          </Trackpoint>
          <Trackpoint>
            <Time>2018-09-14T13:27:40.000Z</Time>
            <Position>
              <LatitudeDegrees>37.8703607060015201568603515625</LatitudeDegrees>
              <LongitudeDegrees>-8.14789728261530399322509765625</LongitudeDegrees>
            </Position>
            <AltitudeMeters>156.8000030517578125</AltitudeMeters>
            <DistanceMeters>276608.55432943</DistanceMeters>
          </Trackpoint>
          <Trackpoint>
            <Time>2018-09-14T13:27:41.000Z</Time>
            <Position>
              <LatitudeDegrees>37.87032273598015308380126953125</LatitudeDegrees>
              <LongitudeDegrees>-8.14786710776388645172119140625</LongitudeDegrees>
            </Position>
            <AltitudeMeters>157</AltitudeMeters>
            <DistanceMeters>276613.54300567</DistanceMeters>
          </Trackpoint>
          <Trackpoint>
            <Time>2018-09-14T13:27:42.000Z</Time>
            <Position>
              <LatitudeDegrees>37.87028434686362743377685546875</LatitudeDegrees>
              <LongitudeDegrees>-8.14783743582665920257568359375</LongitudeDegrees>
            </Position>
            <AltitudeMeters>157.1999969482421875</AltitudeMeters>
            <DistanceMeters>276618.54794644</DistanceMeters>
          </Trackpoint>
          <Trackpoint>
            <Time>2018-09-14T13:27:43.000Z</Time>
            <Position>
              <LatitudeDegrees>37.87024579010903835296630859375</LatitudeDegrees>
              <LongitudeDegrees>-8.147808350622653961181640625</LongitudeDegrees>
            </Position>
            <AltitudeMeters>157.399993896484375</AltitudeMeters>
            <DistanceMeters>276623.54205007</DistanceMeters>
          </Trackpoint>
          <Trackpoint>
            <Time>2018-09-14T13:27:44.000Z</Time>
            <Position>
              <LatitudeDegrees>37.87020807154476642608642578125</LatitudeDegrees>
              <LongitudeDegrees>-8.14777859486639499664306640625</LongitudeDegrees>
            </Position>
            <AltitudeMeters>157.600006103515625</AltitudeMeters>
            <DistanceMeters>276628.4880057</DistanceMeters>
          </Trackpoint>
          <Trackpoint>
            <Time>2018-09-14T13:27:45.000Z</Time>
            <Position>
              <LatitudeDegrees>37.8701706044375896453857421875</LatitudeDegrees>
              <LongitudeDegrees>-8.14774925820529460906982421875</LongitudeDegrees>
            </Position>
            <AltitudeMeters>157.8000030517578125</AltitudeMeters>
            <DistanceMeters>276633.39086849</DistanceMeters>
          </Trackpoint>
          <Trackpoint>
            <Time>2018-09-14T13:27:46.000Z</Time>
            <Position>
              <LatitudeDegrees>37.8701333887875080108642578125</LatitudeDegrees>
              <LongitudeDegrees>-8.14772059209644794464111328125</LongitudeDegrees>
            </Position>
            <AltitudeMeters>157.8000030517578125</AltitudeMeters>
            <DistanceMeters>276638.23723092</DistanceMeters>
          </Trackpoint>
          <Trackpoint>
            <Time>2018-09-14T13:27:47.000Z</Time>
            <Position>
              <LatitudeDegrees>37.87009642459452152252197265625</LatitudeDegrees>
              <LongitudeDegrees>-8.1476925127208232879638671875</LongitudeDegrees>
            </Position>
            <AltitudeMeters>158</AltitudeMeters>
            <DistanceMeters>276643.0339626</DistanceMeters>
          </Trackpoint>
          <Trackpoint>
            <Time>2018-09-14T13:27:48.000Z</Time>
            <Position>
              <LatitudeDegrees>37.87006055004894733428955078125</LatitudeDegrees>
              <LongitudeDegrees>-8.1476640142500400543212890625</LongitudeDegrees>
            </Position>
            <AltitudeMeters>158.1999969482421875</AltitudeMeters>
            <DistanceMeters>276647.74713436</DistanceMeters>
          </Trackpoint>
          <Trackpoint>
            <Time>2018-09-14T13:27:49.000Z</Time>
            <Position>
              <LatitudeDegrees>37.8700245916843414306640625</LatitudeDegrees>
              <LongitudeDegrees>-8.14763559959828853607177734375</LongitudeDegrees>
            </Position>
            <AltitudeMeters>158.1999969482421875</AltitudeMeters>
            <DistanceMeters>276652.46413641</DistanceMeters>
          </Trackpoint>
          <Trackpoint>
            <Time>2018-09-14T13:27:50.000Z</Time>
            <Position>
              <LatitudeDegrees>37.869988046586513519287109375</LatitudeDegrees>
              <LongitudeDegrees>-8.14760810695588588714599609375</LongitudeDegrees>
            </Position>
            <AltitudeMeters>158.399993896484375</AltitudeMeters>
            <DistanceMeters>276657.19547444</DistanceMeters>
          </Trackpoint>
          <Trackpoint>
            <Time>2018-09-14T13:27:51.000Z</Time>
            <Position>
              <LatitudeDegrees>37.8699513338506221771240234375</LatitudeDegrees>
              <LongitudeDegrees>-8.1475801952183246612548828125</LongitudeDegrees>
            </Position>
            <AltitudeMeters>158.399993896484375</AltitudeMeters>
            <DistanceMeters>276661.96104284</DistanceMeters>
          </Trackpoint>
          <Trackpoint>
            <Time>2018-09-14T13:27:52.000Z</Time>
            <Position>
              <LatitudeDegrees>37.86991420201957225799560546875</LatitudeDegrees>
              <LongitudeDegrees>-8.14755245111882686614990234375</LongitudeDegrees>
            </Position>
            <AltitudeMeters>158.600006103515625</AltitudeMeters>
            <DistanceMeters>276666.7596567</DistanceMeters>
          </Trackpoint>
          <Trackpoint>
            <Time>2018-09-14T13:27:53.000Z</Time>
            <Position>
              <LatitudeDegrees>37.86987681873142719268798828125</LatitudeDegrees>
              <LongitudeDegrees>-8.1475252099335193634033203125</LongitudeDegrees>
            </Position>
            <AltitudeMeters>158.600006103515625</AltitudeMeters>
            <DistanceMeters>276671.56015199</DistanceMeters>
          </Trackpoint>
          <Trackpoint>
            <Time>2018-09-14T13:27:54.000Z</Time>
            <Position>
              <LatitudeDegrees>37.86983960308134555816650390625</LatitudeDegrees>
              <LongitudeDegrees>-8.14749662764370441436767578125</LongitudeDegrees>
            </Position>
            <AltitudeMeters>158.8000030517578125</AltitudeMeters>
            <DistanceMeters>276676.4046508</DistanceMeters>
          </Trackpoint>
          <Trackpoint>
            <Time>2018-09-14T13:27:55.000Z</Time>
            <Position>
              <LatitudeDegrees>37.8698024712502956390380859375</LatitudeDegrees>
              <LongitudeDegrees>-8.14746779389679431915283203125</LongitudeDegrees>
            </Position>
            <AltitudeMeters>159</AltitudeMeters>
            <DistanceMeters>276681.25287614</DistanceMeters>
          </Trackpoint>
          <Trackpoint>
            <Time>2018-09-14T13:27:56.000Z</Time>
            <Position>
              <LatitudeDegrees>37.86976508796215057373046875</LatitudeDegrees>
              <LongitudeDegrees>-8.147438876330852508544921875</LongitudeDegrees>
            </Position>
            <AltitudeMeters>159</AltitudeMeters>
            <DistanceMeters>276686.1280337</DistanceMeters>
          </Trackpoint>
          <Trackpoint>
            <Time>2018-09-14T13:27:57.000Z</Time>
            <Position>
              <LatitudeDegrees>37.86972762085497379302978515625</LatitudeDegrees>
              <LongitudeDegrees>-8.147410042583942413330078125</LongitudeDegrees>
            </Position>
            <AltitudeMeters>159.1999969482421875</AltitudeMeters>
            <DistanceMeters>276691.00781972</DistanceMeters>
          </Trackpoint>
          <Trackpoint>
            <Time>2018-09-14T13:27:58.000Z</Time>
            <Position>
              <LatitudeDegrees>37.869690321385860443115234375</LatitudeDegrees>
              <LongitudeDegrees>-8.14738095737993717193603515625</LongitudeDegrees>
            </Position>
            <AltitudeMeters>159.1999969482421875</AltitudeMeters>
            <DistanceMeters>276695.88297728</DistanceMeters>
          </Trackpoint>
          <Trackpoint>
            <Time>2018-09-14T13:27:59.000Z</Time>
            <Position>
              <LatitudeDegrees>37.8696532733738422393798828125</LatitudeDegrees>
              <LongitudeDegrees>-8.147352039813995361328125</LongitudeDegrees>
            </Position>
            <AltitudeMeters>159.399993896484375</AltitudeMeters>
            <DistanceMeters>276700.726544</DistanceMeters>
          </Trackpoint>
          <Trackpoint>
            <Time>2018-09-14T13:28:00.000Z</Time>
            <Position>
              <LatitudeDegrees>37.8696167282760143280029296875</LatitudeDegrees>
              <LongitudeDegrees>-8.14732396043837070465087890625</LongitudeDegrees>
            </Position>
            <AltitudeMeters>159.399993896484375</AltitudeMeters>
            <DistanceMeters>276705.4835779</DistanceMeters>
          </Trackpoint>
          <Trackpoint>
            <Time>2018-09-14T13:28:01.000Z</Time>
            <Position>
              <LatitudeDegrees>37.86958093754947185516357421875</LatitudeDegrees>
              <LongitudeDegrees>-8.14729613251984119415283203125</LongitudeDegrees>
            </Position>
            <AltitudeMeters>159.600006103515625</AltitudeMeters>
            <DistanceMeters>276710.1573082</DistanceMeters>
          </Trackpoint>
          <Trackpoint>
            <Time>2018-09-14T13:28:02.000Z</Time>
            <Position>
              <LatitudeDegrees>37.8695449791848659515380859375</LatitudeDegrees>
              <LongitudeDegrees>-8.14726830460131168365478515625</LongitudeDegrees>
            </Position>
            <AltitudeMeters>159.600006103515625</AltitudeMeters>
            <DistanceMeters>276714.84743253</DistanceMeters>
          </Trackpoint>
          <Trackpoint>
            <Time>2018-09-14T13:28:03.000Z</Time>
            <Position>
              <LatitudeDegrees>37.86950893700122833251953125</LatitudeDegrees>
              <LongitudeDegrees>-8.14723997376859188079833984375</LongitudeDegrees>
            </Position>
            <AltitudeMeters>159.8000030517578125</AltitudeMeters>
            <DistanceMeters>276719.56826177</DistanceMeters>
          </Trackpoint>
          <Trackpoint>
            <Time>2018-09-14T13:28:04.000Z</Time>
            <Position>
              <LatitudeDegrees>37.86947281099855899810791015625</LatitudeDegrees>
              <LongitudeDegrees>-8.14721231348812580108642578125</LongitudeDegrees>
            </Position>
            <AltitudeMeters>159.8000030517578125</AltitudeMeters>
            <DistanceMeters>276724.26704213</DistanceMeters>
          </Trackpoint>
          <Trackpoint>
            <Time>2018-09-14T13:28:05.000Z</Time>
            <Position>
              <LatitudeDegrees>37.869436852633953094482421875</LatitudeDegrees>
              <LongitudeDegrees>-8.14718515612185001373291015625</LongitudeDegrees>
            </Position>
            <AltitudeMeters>160</AltitudeMeters>
            <DistanceMeters>276728.92722816</DistanceMeters>
          </Trackpoint>
          <Trackpoint>
            <Time>2018-09-14T13:28:06.000Z</Time>
            <Position>
              <LatitudeDegrees>37.86940190009772777557373046875</LatitudeDegrees>
              <LongitudeDegrees>-8.14715799875557422637939453125</LongitudeDegrees>
            </Position>
            <AltitudeMeters>160</AltitudeMeters>
            <DistanceMeters>276733.49147907</DistanceMeters>
          </Trackpoint>
          <Trackpoint>
            <Time>2018-09-14T13:28:07.000Z</Time>
            <Position>
              <LatitudeDegrees>37.86936686374247074127197265625</LatitudeDegrees>
              <LongitudeDegrees>-8.1471312604844570159912109375</LongitudeDegrees>
            </Position>
            <AltitudeMeters>160.1999969482421875</AltitudeMeters>
            <DistanceMeters>276738.04285198</DistanceMeters>
          </Trackpoint>
          <Trackpoint>
            <Time>2018-09-14T13:28:08.000Z</Time>
            <Position>
              <LatitudeDegrees>37.8693320788443088531494140625</LatitudeDegrees>
              <LongitudeDegrees>-8.14710460603237152099609375</LongitudeDegrees>
            </Position>
            <AltitudeMeters>160.1999969482421875</AltitudeMeters>
            <DistanceMeters>276742.56835895</DistanceMeters>
          </Trackpoint>
          <Trackpoint>
            <Time>2018-09-14T13:28:09.000Z</Time>
            <Position>
              <LatitudeDegrees>37.86929704248905181884765625</LatitudeDegrees>
              <LongitudeDegrees>-8.1470776163041591644287109375</LongitudeDegrees>
            </Position>
            <AltitudeMeters>160.399993896484375</AltitudeMeters>
            <DistanceMeters>276747.13359897</DistanceMeters>
          </Trackpoint>
          <Trackpoint>
            <Time>2018-09-14T13:28:10.000Z</Time>
            <Position>
              <LatitudeDegrees>37.86926125176250934600830078125</LatitudeDegrees>
              <LongitudeDegrees>-8.147049956023693084716796875</LongitudeDegrees>
            </Position>
            <AltitudeMeters>160.600006103515625</AltitudeMeters>
            <DistanceMeters>276751.80056205</DistanceMeters>
          </Trackpoint>
          <Trackpoint>
            <Time>2018-09-14T13:28:11.000Z</Time>
            <Position>
              <LatitudeDegrees>37.86922487430274486541748046875</LatitudeDegrees>
              <LongitudeDegrees>-8.1470209546387195587158203125</LongitudeDegrees>
            </Position>
            <AltitudeMeters>160.600006103515625</AltitudeMeters>
            <DistanceMeters>276756.58504152</DistanceMeters>
          </Trackpoint>
          <Trackpoint>
            <Time>2018-09-14T13:28:12.000Z</Time>
            <Position>
              <LatitudeDegrees>37.86918799392879009246826171875</LatitudeDegrees>
              <LongitudeDegrees>-8.14699270762503147125244140625</LongitudeDegrees>
            </Position>
            <AltitudeMeters>160.8000030517578125</AltitudeMeters>
            <DistanceMeters>276761.3817732</DistanceMeters>
          </Trackpoint>
          <Trackpoint>
            <Time>2018-09-14T13:28:13.000Z</Time>
            <Position>
              <LatitudeDegrees>37.8691513650119304656982421875</LatitudeDegrees>
              <LongitudeDegrees>-8.14696404151618480682373046875</LongitudeDegrees>
            </Position>
            <AltitudeMeters>161</AltitudeMeters>
            <DistanceMeters>276766.17379619</DistanceMeters>
          </Trackpoint>
          <Trackpoint>
            <Time>2018-09-14T13:28:14.000Z</Time>
            <Position>
              <LatitudeDegrees>37.8691144846379756927490234375</LatitudeDegrees>
              <LongitudeDegrees>-8.14693554304540157318115234375</LongitudeDegrees>
            </Position>
            <AltitudeMeters>161.1999969482421875</AltitudeMeters>
            <DistanceMeters>276770.98180989</DistanceMeters>
          </Trackpoint>
          <Trackpoint>
            <Time>2018-09-14T13:28:15.000Z</Time>
            <Position>
              <LatitudeDegrees>37.8690776042640209197998046875</LatitudeDegrees>
              <LongitudeDegrees>-8.14690771512687206268310546875</LongitudeDegrees>
            </Position>
            <AltitudeMeters>161.399993896484375</AltitudeMeters>
            <DistanceMeters>276775.759679</DistanceMeters>
          </Trackpoint>
          <Trackpoint>
            <Time>2018-09-14T13:28:16.000Z</Time>
            <Position>
              <LatitudeDegrees>37.86904080770909786224365234375</LatitudeDegrees>
              <LongitudeDegrees>-8.14688039012253284454345703125</LongitudeDegrees>
            </Position>
            <AltitudeMeters>161.600006103515625</AltitudeMeters>
            <DistanceMeters>276780.50530969</DistanceMeters>
          </Trackpoint>
          <Trackpoint>
            <Time>2018-09-14T13:28:17.000Z</Time>
            <Position>
              <LatitudeDegrees>37.869004346430301666259765625</LatitudeDegrees>
              <LongitudeDegrees>-8.14685272984206676483154296875</LongitudeDegrees>
            </Position>
            <AltitudeMeters>161.600006103515625</AltitudeMeters>
            <DistanceMeters>276785.23473876</DistanceMeters>
          </Trackpoint>
          <Trackpoint>
            <Time>2018-09-14T13:28:18.000Z</Time>
            <Position>
              <LatitudeDegrees>37.86896872334182262420654296875</LatitudeDegrees>
              <LongitudeDegrees>-8.1468258239328861236572265625</LongitudeDegrees>
            </Position>
            <AltitudeMeters>161.8000030517578125</AltitudeMeters>
            <DistanceMeters>276789.85112051</DistanceMeters>
          </Trackpoint>
          <Trackpoint>
            <Time>2018-09-14T13:28:19.000Z</Time>
            <Position>
              <LatitudeDegrees>37.86893385462462902069091796875</LatitudeDegrees>
              <LongitudeDegrees>-8.14679740928113460540771484375</LongitudeDegrees>
            </Position>
            <AltitudeMeters>161.8000030517578125</AltitudeMeters>
            <DistanceMeters>276794.46554574</DistanceMeters>
          </Trackpoint>
          <Trackpoint>
            <Time>2018-09-14T13:28:20.000Z</Time>
            <Position>
              <LatitudeDegrees>37.868898399174213409423828125</LatitudeDegrees>
              <LongitudeDegrees>-8.1467688269913196563720703125</LongitudeDegrees>
            </Position>
            <AltitudeMeters>162</AltitudeMeters>
            <DistanceMeters>276799.14313863</DistanceMeters>
          </Trackpoint>
          <Trackpoint>
            <Time>2018-09-14T13:28:21.000Z</Time>
            <Position>
              <LatitudeDegrees>37.868862189352512359619140625</LatitudeDegrees>
              <LongitudeDegrees>-8.14674125052988529205322265625</LongitudeDegrees>
            </Position>
            <AltitudeMeters>162.1999969482421875</AltitudeMeters>
            <DistanceMeters>276803.8448008</DistanceMeters>
          </Trackpoint>
          <Trackpoint>
            <Time>2018-09-14T13:28:22.000Z</Time>
            <Position>
              <LatitudeDegrees>37.8688256442546844482421875</LatitudeDegrees>
              <LongitudeDegrees>-8.1467135064303874969482421875</LongitudeDegrees>
            </Position>
            <AltitudeMeters>162.399993896484375</AltitudeMeters>
            <DistanceMeters>276808.58662432</DistanceMeters>
          </Trackpoint>
          <Trackpoint>
            <Time>2018-09-14T13:28:23.000Z</Time>
            <Position>
              <LatitudeDegrees>37.8687899373471736907958984375</LatitudeDegrees>
              <LongitudeDegrees>-8.1466853432357311248779296875</LongitudeDegrees>
            </Position>
            <AltitudeMeters>162.600006103515625</AltitudeMeters>
            <DistanceMeters>276813.26807661</DistanceMeters>
          </Trackpoint>
          <Trackpoint>
            <Time>2018-09-14T13:28:24.000Z</Time>
            <Position>
              <LatitudeDegrees>37.86875397898256778717041015625</LatitudeDegrees>
              <LongitudeDegrees>-8.14665743149816989898681640625</LongitudeDegrees>
            </Position>
            <AltitudeMeters>162.8000030517578125</AltitudeMeters>
            <DistanceMeters>276817.96205004</DistanceMeters>
          </Trackpoint>
          <Trackpoint>
            <Time>2018-09-14T13:28:25.000Z</Time>
            <Position>
              <LatitudeDegrees>37.86871768534183502197265625</LatitudeDegrees>
              <LongitudeDegrees>-8.14662977121770381927490234375</LongitudeDegrees>
            </Position>
            <AltitudeMeters>162.8000030517578125</AltitudeMeters>
            <DistanceMeters>276822.67617966</DistanceMeters>
          </Trackpoint>
          <Trackpoint>
            <Time>2018-09-14T13:28:26.000Z</Time>
            <Position>
              <LatitudeDegrees>37.86868139170110225677490234375</LatitudeDegrees>
              <LongitudeDegrees>-8.14660244621336460113525390625</LongitudeDegrees>
            </Position>
            <AltitudeMeters>163</AltitudeMeters>
            <DistanceMeters>276827.37399903</DistanceMeters>
          </Trackpoint>
          <Trackpoint>
            <Time>2018-09-14T13:28:27.000Z</Time>
            <Position>
              <LatitudeDegrees>37.86864526569843292236328125</LatitudeDegrees>
              <LongitudeDegrees>-8.14657478593289852142333984375</LongitudeDegrees>
            </Position>
            <AltitudeMeters>163.1999969482421875</AltitudeMeters>
            <DistanceMeters>276832.0718184</DistanceMeters>
          </Trackpoint>
          <Trackpoint>
            <Time>2018-09-14T13:28:28.000Z</Time>
            <Position>
              <LatitudeDegrees>37.8686095587909221649169921875</LatitudeDegrees>
              <LongitudeDegrees>-8.1465468741953372955322265625</LongitudeDegrees>
            </Position>
            <AltitudeMeters>163.399993896484375</AltitudeMeters>
            <DistanceMeters>276836.74071598</DistanceMeters>
          </Trackpoint>
          <Trackpoint>
            <Time>2018-09-14T13:28:29.000Z</Time>
            <Position>
              <LatitudeDegrees>37.86857393570244312286376953125</LatitudeDegrees>
              <LongitudeDegrees>-8.1465187110006809234619140625</LongitudeDegrees>
            </Position>
            <AltitudeMeters>163.600006103515625</AltitudeMeters>
            <DistanceMeters>276841.41444628</DistanceMeters>
          </Trackpoint>
          <Trackpoint>
            <Time>2018-09-14T13:28:30.000Z</Time>
            <Position>
              <LatitudeDegrees>37.8685374744236469268798828125</LatitudeDegrees>
              <LongitudeDegrees>-8.1464918889105319976806640625</LongitudeDegrees>
            </Position>
            <AltitudeMeters>163.600006103515625</AltitudeMeters>
            <DistanceMeters>276846.10745772</DistanceMeters>
          </Trackpoint>
          <Trackpoint>
            <Time>2018-09-14T13:28:31.000Z</Time>
            <Position>
              <LatitudeDegrees>37.8685009293258190155029296875</LatitudeDegrees>
              <LongitudeDegrees>-8.1464660726487636566162109375</LongitudeDegrees>
            </Position>
            <AltitudeMeters>163.8000030517578125</AltitudeMeters>
            <DistanceMeters>276850.76570564</DistanceMeters>
          </Trackpoint>
          <Trackpoint>
            <Time>2018-09-14T13:28:32.000Z</Time>
            <Position>
              <LatitudeDegrees>37.86846480332314968109130859375</LatitudeDegrees>
              <LongitudeDegrees>-8.14643866382539272308349609375</LongitudeDegrees>
            </Position>
            <AltitudeMeters>163.8000030517578125</AltitudeMeters>
            <DistanceMeters>276855.45390424</DistanceMeters>
          </Trackpoint>
          <Trackpoint>
            <Time>2018-09-14T13:28:33.000Z</Time>
            <Position>
              <LatitudeDegrees>37.8684291802346706390380859375</LatitudeDegrees>
              <LongitudeDegrees>-8.14641050063073635101318359375</LongitudeDegrees>
            </Position>
            <AltitudeMeters>164</AltitudeMeters>
            <DistanceMeters>276860.12860049</DistanceMeters>
          </Trackpoint>
          <Trackpoint>
            <Time>2018-09-14T13:28:34.000Z</Time>
            <Position>
              <LatitudeDegrees>37.8683936409652233123779296875</LatitudeDegrees>
              <LongitudeDegrees>-8.1463822536170482635498046875</LongitudeDegrees>
            </Position>
            <AltitudeMeters>164</AltitudeMeters>
            <DistanceMeters>276864.798465</DistanceMeters>
          </Trackpoint>
          <Trackpoint>
            <Time>2018-09-14T13:28:35.000Z</Time>
            <Position>
              <LatitudeDegrees>37.8683574311435222625732421875</LatitudeDegrees>
              <LongitudeDegrees>-8.14635383896529674530029296875</LongitudeDegrees>
            </Position>
            <AltitudeMeters>164.399993896484375</AltitudeMeters>
            <DistanceMeters>276869.53933626</DistanceMeters>
          </Trackpoint>
          <Trackpoint>
            <Time>2018-09-14T13:28:36.000Z</Time>
            <Position>
              <LatitudeDegrees>37.8683213889598846435546875</LatitudeDegrees>
              <LongitudeDegrees>-8.146326430141925811767578125</LongitudeDegrees>
            </Position>
            <AltitudeMeters>164.600006103515625</AltitudeMeters>
            <DistanceMeters>276874.21885925</DistanceMeters>
          </Trackpoint>
          <Trackpoint>
            <Time>2018-09-14T13:28:37.000Z</Time>
            <Position>
              <LatitudeDegrees>37.8682846762239933013916015625</LatitudeDegrees>
              <LongitudeDegrees>-8.14629952423274517059326171875</LongitudeDegrees>
            </Position>
            <AltitudeMeters>164.8000030517578125</AltitudeMeters>
            <DistanceMeters>276878.93777528</DistanceMeters>
          </Trackpoint>
          <Trackpoint>
            <Time>2018-09-14T13:28:38.000Z</Time>
            <Position>
              <LatitudeDegrees>37.86824855022132396697998046875</LatitudeDegrees>
              <LongitudeDegrees>-8.146272785961627960205078125</LongitudeDegrees>
            </Position>
            <AltitudeMeters>165</AltitudeMeters>
            <DistanceMeters>276883.59505384</DistanceMeters>
          </Trackpoint>
          <Trackpoint>
            <Time>2018-09-14T13:28:39.000Z</Time>
            <Position>
              <LatitudeDegrees>37.86821267567574977874755859375</LatitudeDegrees>
              <LongitudeDegrees>-8.1462442874908447265625</LongitudeDegrees>
            </Position>
            <AltitudeMeters>165.1999969482421875</AltitudeMeters>
            <DistanceMeters>276888.3082256</DistanceMeters>
          </Trackpoint>
          <Trackpoint>
            <Time>2018-09-14T13:28:40.000Z</Time>
            <Position>
              <LatitudeDegrees>37.86817696876823902130126953125</LatitudeDegrees>
              <LongitudeDegrees>-8.14621486701071262359619140625</LongitudeDegrees>
            </Position>
            <AltitudeMeters>165.399993896484375</AltitudeMeters>
            <DistanceMeters>276893.04909686</DistanceMeters>
          </Trackpoint>
          <Trackpoint>
            <Time>2018-09-14T13:28:41.000Z</Time>
            <Position>
              <LatitudeDegrees>37.86814142949879169464111328125</LatitudeDegrees>
              <LongitudeDegrees>-8.14618502743542194366455078125</LongitudeDegrees>
            </Position>
            <AltitudeMeters>165.600006103515625</AltitudeMeters>
            <DistanceMeters>276897.79662999</DistanceMeters>
          </Trackpoint>
          <Trackpoint>
            <Time>2018-09-14T13:28:42.000Z</Time>
            <Position>
              <LatitudeDegrees>37.8681053034961223602294921875</LatitudeDegrees>
              <LongitudeDegrees>-8.14615636132657527923583984375</LongitudeDegrees>
            </Position>
            <AltitudeMeters>165.600006103515625</AltitudeMeters>
            <DistanceMeters>276902.54130917</DistanceMeters>
          </Trackpoint>
          <Trackpoint>
            <Time>2018-09-14T13:28:43.000Z</Time>
            <Position>
              <LatitudeDegrees>37.86806833930313587188720703125</LatitudeDegrees>
              <LongitudeDegrees>-8.1461281143128871917724609375</LongitudeDegrees>
            </Position>
            <AltitudeMeters>165.600006103515625</AltitudeMeters>
            <DistanceMeters>276907.34556514</DistanceMeters>
          </Trackpoint>
          <Trackpoint>
            <Time>2018-09-14T13:28:44.000Z</Time>
            <Position>
              <LatitudeDegrees>37.86803103983402252197265625</LatitudeDegrees>
              <LongitudeDegrees>-8.1461006216704845428466796875</LongitudeDegrees>
            </Position>
            <AltitudeMeters>165.8000030517578125</AltitudeMeters>
            <DistanceMeters>276912.1498211</DistanceMeters>
          </Trackpoint>
          <Trackpoint>
            <Time>2018-09-14T13:28:45.000Z</Time>
            <Position>
              <LatitudeDegrees>37.867993153631687164306640625</LatitudeDegrees>
              <LongitudeDegrees>-8.14607338048517704010009765625</LongitudeDegrees>
            </Position>
            <AltitudeMeters>165.8000030517578125</AltitudeMeters>
            <DistanceMeters>276916.99897764</DistanceMeters>
          </Trackpoint>
          <Trackpoint>
            <Time>2018-09-14T13:28:46.000Z</Time>
            <Position>
              <LatitudeDegrees>37.86795618943870067596435546875</LatitudeDegrees>
              <LongitudeDegrees>-8.14604555256664752960205078125</LongitudeDegrees>
            </Position>
            <AltitudeMeters>165.8000030517578125</AltitudeMeters>
            <DistanceMeters>276921.7844007</DistanceMeters>
          </Trackpoint>
          <Trackpoint>
            <Time>2018-09-14T13:28:47.000Z</Time>
            <Position>
              <LatitudeDegrees>37.8679198957979679107666015625</LatitudeDegrees>
              <LongitudeDegrees>-8.1460176408290863037109375</LongitudeDegrees>
            </Position>
            <AltitudeMeters>165.8000030517578125</AltitudeMeters>
            <DistanceMeters>276926.51000955</DistanceMeters>
          </Trackpoint>
          <Trackpoint>
            <Time>2018-09-14T13:28:48.000Z</Time>
            <Position>
              <LatitudeDegrees>37.86788326688110828399658203125</LatitudeDegrees>
              <LongitudeDegrees>-8.14599039964377880096435546875</LongitudeDegrees>
            </Position>
            <AltitudeMeters>165.8000030517578125</AltitudeMeters>
            <DistanceMeters>276931.23657375</DistanceMeters>
          </Trackpoint>
          <Trackpoint>
            <Time>2018-09-14T13:28:49.000Z</Time>
            <Position>
              <LatitudeDegrees>37.86784739233553409576416015625</LatitudeDegrees>
              <LongitudeDegrees>-8.1459631584584712982177734375</LongitudeDegrees>
            </Position>
            <AltitudeMeters>165.8000030517578125</AltitudeMeters>
            <DistanceMeters>276935.89191299</DistanceMeters>
          </Trackpoint>
          <Trackpoint>
            <Time>2018-09-14T13:28:50.000Z</Time>
            <Position>
              <LatitudeDegrees>37.86781243979930877685546875</LatitudeDegrees>
              <LongitudeDegrees>-8.145936168730258941650390625</LongitudeDegrees>
            </Position>
            <AltitudeMeters>165.8000030517578125</AltitudeMeters>
            <DistanceMeters>276940.44923411</DistanceMeters>
          </Trackpoint>
          <Trackpoint>
            <Time>2018-09-14T13:28:51.000Z</Time>
            <Position>
              <LatitudeDegrees>37.8677780739963054656982421875</LatitudeDegrees>
              <LongitudeDegrees>-8.14590825699269771575927734375</LongitudeDegrees>
            </Position>
            <AltitudeMeters>165.8000030517578125</AltitudeMeters>
            <DistanceMeters>276944.99266396</DistanceMeters>
          </Trackpoint>
          <Trackpoint>
            <Time>2018-09-14T13:28:52.000Z</Time>
            <Position>
              <LatitudeDegrees>37.86774337291717529296875</LatitudeDegrees>
              <LongitudeDegrees>-8.1458796747028827667236328125</LongitudeDegrees>
            </Position>
            <AltitudeMeters>165.600006103515625</AltitudeMeters>
            <DistanceMeters>276949.60023487</DistanceMeters>
          </Trackpoint>
          <Trackpoint>
            <Time>2018-09-14T13:28:53.000Z</Time>
            <Position>
              <LatitudeDegrees>37.86770791746675968170166015625</LatitudeDegrees>
              <LongitudeDegrees>-8.145851679146289825439453125</LongitudeDegrees>
            </Position>
            <AltitudeMeters>165.600006103515625</AltitudeMeters>
            <DistanceMeters>276954.2497513</DistanceMeters>
          </Trackpoint>
          <Trackpoint>
            <Time>2018-09-14T13:28:54.000Z</Time>
            <Position>
              <LatitudeDegrees>37.86767187528312206268310546875</LatitudeDegrees>
              <LongitudeDegrees>-8.14582510851323604583740234375</LongitudeDegrees>
            </Position>
            <AltitudeMeters>165.600006103515625</AltitudeMeters>
            <DistanceMeters>276958.89149261</DistanceMeters>
          </Trackpoint>
          <Trackpoint>
            <Time>2018-09-14T13:28:55.000Z</Time>
            <Position>
              <LatitudeDegrees>37.8676369227468967437744140625</LatitudeDegrees>
              <LongitudeDegrees>-8.145800046622753143310546875</LongitudeDegrees>
            </Position>
            <AltitudeMeters>165.600006103515625</AltitudeMeters>
            <DistanceMeters>276963.36279994</DistanceMeters>
          </Trackpoint>
          <Trackpoint>
            <Time>2018-09-14T13:28:56.000Z</Time>
            <Position>
              <LatitudeDegrees>37.8676020540297031402587890625</LatitudeDegrees>
              <LongitudeDegrees>-8.14577464945614337921142578125</LongitudeDegrees>
            </Position>
            <AltitudeMeters>165.399993896484375</AltitudeMeters>
            <DistanceMeters>276967.84016185</DistanceMeters>
          </Trackpoint>
          <Trackpoint>
            <Time>2018-09-14T13:28:57.000Z</Time>
            <Position>
              <LatitudeDegrees>37.867566682398319244384765625</LatitudeDegrees>
              <LongitudeDegrees>-8.14574799500405788421630859375</LongitudeDegrees>
            </Position>
            <AltitudeMeters>165.399993896484375</AltitudeMeters>
            <DistanceMeters>276972.42316936</DistanceMeters>
          </Trackpoint>
          <Trackpoint>
            <Time>2018-09-14T13:28:58.000Z</Time>
            <Position>
              <LatitudeDegrees>37.8675303049385547637939453125</LatitudeDegrees>
              <LongitudeDegrees>-8.14572083763778209686279296875</LongitudeDegrees>
            </Position>
            <AltitudeMeters>165.1999969482421875</AltitudeMeters>
            <DistanceMeters>276977.12483153</DistanceMeters>
          </Trackpoint>
          <Trackpoint>
            <Time>2018-09-14T13:28:59.000Z</Time>
            <Position>
              <LatitudeDegrees>37.86749300546944141387939453125</LatitudeDegrees>
              <LongitudeDegrees>-8.1456925906240940093994140625</LongitudeDegrees>
            </Position>
            <AltitudeMeters>165.1999969482421875</AltitudeMeters>
            <DistanceMeters>276981.96093512</DistanceMeters>
          </Trackpoint>
          <Trackpoint>
            <Time>2018-09-14T13:29:00.000Z</Time>
            <Position>
              <LatitudeDegrees>37.86745428107678890228271484375</LatitudeDegrees>
              <LongitudeDegrees>-8.14566266722977161407470703125</LongitudeDegrees>
            </Position>
            <AltitudeMeters>165</AltitudeMeters>
            <DistanceMeters>276987.00809726</DistanceMeters>
          </Trackpoint>
          <Trackpoint>
            <Time>2018-09-14T13:29:01.000Z</Time>
            <Position>
              <LatitudeDegrees>37.8674142993986606597900390625</LatitudeDegrees>
              <LongitudeDegrees>-8.1456314027309417724609375</LongitudeDegrees>
            </Position>
            <AltitudeMeters>165</AltitudeMeters>
            <DistanceMeters>276992.23715755</DistanceMeters>
          </Trackpoint>
          <Trackpoint>
            <Time>2018-09-14T13:29:02.000Z</Time>
            <Position>
              <LatitudeDegrees>37.8673718869686126708984375</LatitudeDegrees>
              <LongitudeDegrees>-8.14559988677501678466796875</LongitudeDegrees>
            </Position>
            <AltitudeMeters>164.8000030517578125</AltitudeMeters>
            <DistanceMeters>276997.70924431</DistanceMeters>
          </Trackpoint>
          <Trackpoint>
            <Time>2018-09-14T13:29:03.000Z</Time>
            <Position>
              <LatitudeDegrees>37.867327630519866943359375</LatitudeDegrees>
              <LongitudeDegrees>-8.1455675326287746429443359375</LongitudeDegrees>
            </Position>
            <AltitudeMeters>164.8000030517578125</AltitudeMeters>
            <DistanceMeters>277003.39578137</DistanceMeters>
          </Trackpoint>
          <Trackpoint>
            <Time>2018-09-14T13:29:04.000Z</Time>
            <Position>
              <LatitudeDegrees>37.86728194914758205413818359375</LatitudeDegrees>
              <LongitudeDegrees>-8.1455326639115810394287109375</LongitudeDegrees>
            </Position>
            <AltitudeMeters>164.600006103515625</AltitudeMeters>
            <DistanceMeters>277009.33247981</DistanceMeters>
          </Trackpoint>
          <Trackpoint>
            <Time>2018-09-14T13:29:05.000Z</Time>
            <Position>
              <LatitudeDegrees>37.86723433993756771087646484375</LatitudeDegrees>
              <LongitudeDegrees>-8.14549553208053112030029296875</LongitudeDegrees>
            </Position>
            <AltitudeMeters>164.399993896484375</AltitudeMeters>
            <DistanceMeters>277015.55509725</DistanceMeters>
          </Trackpoint>
          <Trackpoint>
            <Time>2018-09-14T13:29:06.000Z</Time>
            <Position>
              <LatitudeDegrees>37.8671846352517604827880859375</LatitudeDegrees>
              <LongitudeDegrees>-8.14545731060206890106201171875</LongitudeDegrees>
            </Position>
            <AltitudeMeters>164.399993896484375</AltitudeMeters>
            <DistanceMeters>277022.02668859</DistanceMeters>
          </Trackpoint>
          <Trackpoint>
            <Time>2018-09-14T13:29:07.000Z</Time>
            <Position>
              <LatitudeDegrees>37.867133505642414093017578125</LatitudeDegrees>
              <LongitudeDegrees>-8.14541758038103580474853515625</LongitudeDegrees>
            </Position>
            <AltitudeMeters>164.600006103515625</AltitudeMeters>
            <DistanceMeters>277028.70294932</DistanceMeters>
          </Trackpoint>
          <Trackpoint>
            <Time>2018-09-14T13:29:08.000Z</Time>
            <Position>
              <LatitudeDegrees>37.8670800291001796722412109375</LatitudeDegrees>
              <LongitudeDegrees>-8.14537684433162212371826171875</LongitudeDegrees>
            </Position>
            <AltitudeMeters>164.8000030517578125</AltitudeMeters>
            <DistanceMeters>277035.6483556</DistanceMeters>
          </Trackpoint>
          <Trackpoint>
            <Time>2018-09-14T13:29:09.000Z</Time>
            <Position>
              <LatitudeDegrees>37.86702495999634265899658203125</LatitudeDegrees>
              <LongitudeDegrees>-8.14533409662544727325439453125</LongitudeDegrees>
            </Position>
            <AltitudeMeters>165</AltitudeMeters>
            <DistanceMeters>277042.83654712</DistanceMeters>
          </Trackpoint>
          <Trackpoint>
            <Time>2018-09-14T13:29:10.000Z</Time>
            <Position>
              <LatitudeDegrees>37.86696896888315677642822265625</LatitudeDegrees>
              <LongitudeDegrees>-8.14528916962444782257080078125</LongitudeDegrees>
            </Position>
            <AltitudeMeters>165.1999969482421875</AltitudeMeters>
            <DistanceMeters>277050.21382784</DistanceMeters>
          </Trackpoint>
          <Trackpoint>
            <Time>2018-09-14T13:29:11.000Z</Time>
            <Position>
              <LatitudeDegrees>37.8669117204844951629638671875</LatitudeDegrees>
              <LongitudeDegrees>-8.1452446617186069488525390625</LongitudeDegrees>
            </Position>
            <AltitudeMeters>165.399993896484375</AltitudeMeters>
            <DistanceMeters>277057.69080606</DistanceMeters>
          </Trackpoint>
          <Trackpoint>
            <Time>2018-09-14T13:29:12.000Z</Time>
            <Position>
              <LatitudeDegrees>37.86685380153357982635498046875</LatitudeDegrees>
              <LongitudeDegrees>-8.14520023763179779052734375</LongitudeDegrees>
            </Position>
            <AltitudeMeters>165.600006103515625</AltitudeMeters>
            <DistanceMeters>277065.22732918</DistanceMeters>
          </Trackpoint>
          <Trackpoint>
            <Time>2018-09-14T13:29:13.000Z</Time>
            <Position>
              <LatitudeDegrees>37.8667957149446010589599609375</LatitudeDegrees>
              <LongitudeDegrees>-8.14515589736402034759521484375</LongitudeDegrees>
            </Position>
            <AltitudeMeters>165.8000030517578125</AltitudeMeters>
            <DistanceMeters>277072.77582455</DistanceMeters>
          </Trackpoint>
          <Trackpoint>
            <Time>2018-09-14T13:29:14.000Z</Time>
            <Position>
              <LatitudeDegrees>37.86673662252724170684814453125</LatitudeDegrees>
              <LongitudeDegrees>-8.1451118923723697662353515625</LongitudeDegrees>
            </Position>
            <AltitudeMeters>166</AltitudeMeters>
            <DistanceMeters>277080.40523297</DistanceMeters>
          </Trackpoint>
          <Trackpoint>
            <Time>2018-09-14T13:29:15.000Z</Time>
            <Position>
              <LatitudeDegrees>37.86667845211923122406005859375</LatitudeDegrees>
              <LongitudeDegrees>-8.145067133009433746337890625</LongitudeDegrees>
            </Position>
            <AltitudeMeters>166.399993896484375</AltitudeMeters>
            <DistanceMeters>277087.98000067</DistanceMeters>
          </Trackpoint>
          <Trackpoint>
            <Time>2018-09-14T13:29:16.000Z</Time>
            <Position>
              <LatitudeDegrees>37.86662288010120391845703125</LatitudeDegrees>
              <LongitudeDegrees>-8.1450237147510051727294921875</LongitudeDegrees>
            </Position>
            <AltitudeMeters>166.8000030517578125</AltitudeMeters>
            <DistanceMeters>277095.24690421</DistanceMeters>
          </Trackpoint>
          <Trackpoint>
            <Time>2018-09-14T13:29:17.000Z</Time>
            <Position>
              <LatitudeDegrees>37.86656856536865234375</LatitudeDegrees>
              <LongitudeDegrees>-8.144980631768703460693359375</LongitudeDegrees>
            </Position>
            <AltitudeMeters>167.399993896484375</AltitudeMeters>
            <DistanceMeters>277102.37960711</DistanceMeters>
          </Trackpoint>
          <Trackpoint>
            <Time>2018-09-14T13:29:18.000Z</Time>
            <Position>
              <LatitudeDegrees>37.8665154241025447845458984375</LatitudeDegrees>
              <LongitudeDegrees>-8.144939728081226348876953125</LongitudeDegrees>
            </Position>
            <AltitudeMeters>167.8000030517578125</AltitudeMeters>
            <DistanceMeters>277109.30026643</DistanceMeters>
          </Trackpoint>
          <Trackpoint>
            <Time>2018-09-14T13:29:19.000Z</Time>
            <Position>
              <LatitudeDegrees>37.8664647974073886871337890625</LatitudeDegrees>
              <LongitudeDegrees>-8.1449006684124469757080078125</LongitudeDegrees>
            </Position>
            <AltitudeMeters>168.1999969482421875</AltitudeMeters>
            <DistanceMeters>277115.89829633</DistanceMeters>
          </Trackpoint>
          <Trackpoint>
            <Time>2018-09-14T13:29:20.000Z</Time>
            <Position>
              <LatitudeDegrees>37.866416685283184051513671875</LatitudeDegrees>
              <LongitudeDegrees>-8.1448617763817310333251953125</LongitudeDegrees>
            </Position>
            <AltitudeMeters>168.600006103515625</AltitudeMeters>
            <DistanceMeters>277122.25017649</DistanceMeters>
          </Trackpoint>
          <Trackpoint>
            <Time>2018-09-14T13:29:21.000Z</Time>
            <Position>
              <LatitudeDegrees>37.866369746625423431396484375</LatitudeDegrees>
              <LongitudeDegrees>-8.14482565037906169891357421875</LongitudeDegrees>
            </Position>
            <AltitudeMeters>169</AltitudeMeters>
            <DistanceMeters>277128.36298733</DistanceMeters>
          </Trackpoint>
          <Trackpoint>
            <Time>2018-09-14T13:29:22.000Z</Time>
            <Position>
              <LatitudeDegrees>37.86632406525313854217529296875</LatitudeDegrees>
              <LongitudeDegrees>-8.14479229040443897247314453125</LongitudeDegrees>
            </Position>
            <AltitudeMeters>169.399993896484375</AltitudeMeters>
            <DistanceMeters>277134.23160825</DistanceMeters>
          </Trackpoint>
          <Trackpoint>
            <Time>2018-09-14T13:29:23.000Z</Time>
            <Position>
              <LatitudeDegrees>37.86628047935664653778076171875</LatitudeDegrees>
              <LongitudeDegrees>-8.1447595171630382537841796875</LongitudeDegrees>
            </Position>
            <AltitudeMeters>169.8000030517578125</AltitudeMeters>
            <DistanceMeters>277139.87270649</DistanceMeters>
          </Trackpoint>
          <Trackpoint>
            <Time>2018-09-14T13:29:24.000Z</Time>
            <Position>
              <LatitudeDegrees>37.86623823456466197967529296875</LatitudeDegrees>
              <LongitudeDegrees>-8.14472682774066925048828125</LongitudeDegrees>
            </Position>
            <AltitudeMeters>170</AltitudeMeters>
            <DistanceMeters>277145.38261729</DistanceMeters>
          </Trackpoint>
          <Trackpoint>
            <Time>2018-09-14T13:29:25.000Z</Time>
            <Position>
              <LatitudeDegrees>37.8661975823342800140380859375</LatitudeDegrees>
              <LongitudeDegrees>-8.14469556324183940887451171875</LongitudeDegrees>
            </Position>
            <AltitudeMeters>170.1999969482421875</AltitudeMeters>
            <DistanceMeters>277150.67604031</DistanceMeters>
          </Trackpoint>
          <Trackpoint>
            <Time>2018-09-14T13:29:26.000Z</Time>
            <Position>
              <LatitudeDegrees>37.86615751683712005615234375</LatitudeDegrees>
              <LongitudeDegrees>-8.14466505311429500579833984375</LongitudeDegrees>
            </Position>
            <AltitudeMeters>170.399993896484375</AltitudeMeters>
            <DistanceMeters>277155.87913258</DistanceMeters>
          </Trackpoint>
          <Trackpoint>
            <Time>2018-09-14T13:29:27.000Z</Time>
            <Position>
              <LatitudeDegrees>37.8661181218922138214111328125</LatitudeDegrees>
              <LongitudeDegrees>-8.14463454298675060272216796875</LongitudeDegrees>
            </Position>
            <AltitudeMeters>170.600006103515625</AltitudeMeters>
            <DistanceMeters>277161.01936639</DistanceMeters>
          </Trackpoint>
          <Trackpoint>
            <Time>2018-09-14T13:29:28.000Z</Time>
            <Position>
              <LatitudeDegrees>37.8660790622234344482421875</LatitudeDegrees>
              <LongitudeDegrees>-8.14460319466888904571533203125</LongitudeDegrees>
            </Position>
            <AltitudeMeters>170.600006103515625</AltitudeMeters>
            <DistanceMeters>277166.16574514</DistanceMeters>
          </Trackpoint>
          <Trackpoint>
            <Time>2018-09-14T13:29:29.000Z</Time>
            <Position>
              <LatitudeDegrees>37.8660396672785282135009765625</LatitudeDegrees>
              <LongitudeDegrees>-8.14457268454134464263916015625</LongitudeDegrees>
            </Position>
            <AltitudeMeters>170.8000030517578125</AltitudeMeters>
            <DistanceMeters>277171.30422191</DistanceMeters>
          </Trackpoint>
          <Trackpoint>
            <Time>2018-09-14T13:29:30.000Z</Time>
            <Position>
              <LatitudeDegrees>37.86600052379071712493896484375</LatitudeDegrees>
              <LongitudeDegrees>-8.14454301260411739349365234375</LongitudeDegrees>
            </Position>
            <AltitudeMeters>171</AltitudeMeters>
            <DistanceMeters>277176.38170832</DistanceMeters>
          </Trackpoint>
          <Trackpoint>
            <Time>2018-09-14T13:29:31.000Z</Time>
            <Position>
              <LatitudeDegrees>37.8659622184932231903076171875</LatitudeDegrees>
              <LongitudeDegrees>-8.144512586295604705810546875</LongitudeDegrees>
            </Position>
            <AltitudeMeters>171.1999969482421875</AltitudeMeters>
            <DistanceMeters>277181.41543403</DistanceMeters>
          </Trackpoint>
          <Trackpoint>
            <Time>2018-09-14T13:29:32.000Z</Time>
            <Position>
              <LatitudeDegrees>37.865924499928951263427734375</LatitudeDegrees>
              <LongitudeDegrees>-8.1444829143583774566650390625</LongitudeDegrees>
            </Position>
            <AltitudeMeters>171.399993896484375</AltitudeMeters>
            <DistanceMeters>277186.35682317</DistanceMeters>
          </Trackpoint>
          <Trackpoint>
            <Time>2018-09-14T13:29:33.000Z</Time>
            <Position>
              <LatitudeDegrees>37.8658864460885524749755859375</LatitudeDegrees>
              <LongitudeDegrees>-8.1444534100592136383056640625</LongitudeDegrees>
            </Position>
            <AltitudeMeters>171.600006103515625</AltitudeMeters>
            <DistanceMeters>277191.32191217</DistanceMeters>
          </Trackpoint>
          <Trackpoint>
            <Time>2018-09-14T13:29:34.000Z</Time>
            <Position>
              <LatitudeDegrees>37.86584780551493167877197265625</LatitudeDegrees>
              <LongitudeDegrees>-8.14442432485520839691162109375</LongitudeDegrees>
            </Position>
            <AltitudeMeters>172</AltitudeMeters>
            <DistanceMeters>277196.32504837</DistanceMeters>
          </Trackpoint>
          <Trackpoint>
            <Time>2018-09-14T13:29:35.000Z</Time>
            <Position>
              <LatitudeDegrees>37.86580841057002544403076171875</LatitudeDegrees>
              <LongitudeDegrees>-8.14439431764185428619384765625</LongitudeDegrees>
            </Position>
            <AltitudeMeters>172.600006103515625</AltitudeMeters>
            <DistanceMeters>277201.44239355</DistanceMeters>
          </Trackpoint>
          <Trackpoint>
            <Time>2018-09-14T13:29:36.000Z</Time>
            <Position>
              <LatitudeDegrees>37.865768261253833770751953125</LatitudeDegrees>
              <LongitudeDegrees>-8.1443632207810878753662109375</LongitudeDegrees>
            </Position>
            <AltitudeMeters>172.8000030517578125</AltitudeMeters>
            <DistanceMeters>277206.68094319</DistanceMeters>
          </Trackpoint>
          <Trackpoint>
            <Time>2018-09-14T13:29:37.000Z</Time>
            <Position>
              <LatitudeDegrees>37.86572760902345180511474609375</LatitudeDegrees>
              <LongitudeDegrees>-8.1443317048251628875732421875</LongitudeDegrees>
            </Position>
            <AltitudeMeters>172.600006103515625</AltitudeMeters>
            <DistanceMeters>277211.985443</DistanceMeters>
          </Trackpoint>
          <Trackpoint>
            <Time>2018-09-14T13:29:38.000Z</Time>
            <Position>
              <LatitudeDegrees>37.8656869567930698394775390625</LatitudeDegrees>
              <LongitudeDegrees>-8.14429876394569873809814453125</LongitudeDegrees>
            </Position>
            <AltitudeMeters>172.399993896484375</AltitudeMeters>
            <DistanceMeters>277217.35760498</DistanceMeters>
          </Trackpoint>
          <Trackpoint>
            <Time>2018-09-14T13:29:39.000Z</Time>
            <Position>
              <LatitudeDegrees>37.865645550191402435302734375</LatitudeDegrees>
              <LongitudeDegrees>-8.144265823066234588623046875</LongitudeDegrees>
            </Position>
            <AltitudeMeters>172.1999969482421875</AltitudeMeters>
            <DistanceMeters>277222.8007365</DistanceMeters>
          </Trackpoint>
          <Trackpoint>
            <Time>2018-09-14T13:29:40.000Z</Time>
            <Position>
              <LatitudeDegrees>37.86560322158038616180419921875</LatitudeDegrees>
              <LongitudeDegrees>-8.14423263072967529296875</LongitudeDegrees>
            </Position>
            <AltitudeMeters>172</AltitudeMeters>
            <DistanceMeters>277228.3416985</DistanceMeters>
          </Trackpoint>
          <Trackpoint>
            <Time>2018-09-14T13:29:41.000Z</Time>
            <Position>
              <LatitudeDegrees>37.86556080915033817291259765625</LatitudeDegrees>
              <LongitudeDegrees>-8.14419901929795742034912109375</LongitudeDegrees>
            </Position>
            <AltitudeMeters>172</AltitudeMeters>
            <DistanceMeters>277233.90948554</DistanceMeters>
          </Trackpoint>
          <Trackpoint>
            <Time>2018-09-14T13:29:42.000Z</Time>
            <Position>
              <LatitudeDegrees>37.86551822908222675323486328125</LatitudeDegrees>
              <LongitudeDegrees>-8.1441667489707469940185546875</LongitudeDegrees>
            </Position>
            <AltitudeMeters>172</AltitudeMeters>
            <DistanceMeters>277239.4324918</DistanceMeters>
          </Trackpoint>
          <Trackpoint>
            <Time>2018-09-14T13:29:43.000Z</Time>
            <Position>
              <LatitudeDegrees>37.865475900471210479736328125</LatitudeDegrees>
              <LongitudeDegrees>-8.1441345624625682830810546875</LongitudeDegrees>
            </Position>
            <AltitudeMeters>171.8000030517578125</AltitudeMeters>
            <DistanceMeters>277244.9276329</DistanceMeters>
          </Trackpoint>
          <Trackpoint>
            <Time>2018-09-14T13:29:44.000Z</Time>
            <Position>
              <LatitudeDegrees>37.86543256603181362152099609375</LatitudeDegrees>
              <LongitudeDegrees>-8.1441020406782627105712890625</LongitudeDegrees>
            </Position>
            <AltitudeMeters>171.8000030517578125</AltitudeMeters>
            <DistanceMeters>277250.53420904</DistanceMeters>
          </Trackpoint>
          <Trackpoint>
            <Time>2018-09-14T13:29:45.000Z</Time>
            <Position>
              <LatitudeDegrees>37.86538898013532161712646484375</LatitudeDegrees>
              <LongitudeDegrees>-8.14406943507492542266845703125</LongitudeDegrees>
            </Position>
            <AltitudeMeters>171.8000030517578125</AltitudeMeters>
            <DistanceMeters>277256.16890059</DistanceMeters>
          </Trackpoint>
          <Trackpoint>
            <Time>2018-09-14T13:29:46.000Z</Time>
            <Position>
              <LatitudeDegrees>37.86534614861011505126953125</LatitudeDegrees>
              <LongitudeDegrees>-8.144037164747714996337890625</LongitudeDegrees>
            </Position>
            <AltitudeMeters>171.600006103515625</AltitudeMeters>
            <DistanceMeters>277261.71637754</DistanceMeters>
          </Trackpoint>
          <Trackpoint>
            <Time>2018-09-14T13:29:47.000Z</Time>
            <Position>
              <LatitudeDegrees>37.86530331708490848541259765625</LatitudeDegrees>
              <LongitudeDegrees>-8.14400397241115570068359375</LongitudeDegrees>
            </Position>
            <AltitudeMeters>171.600006103515625</AltitudeMeters>
            <DistanceMeters>277267.30440083</DistanceMeters>
          </Trackpoint>
          <Trackpoint>
            <Time>2018-09-14T13:29:48.000Z</Time>
            <Position>
              <LatitudeDegrees>37.8652609884738922119140625</LatitudeDegrees>
              <LongitudeDegrees>-8.1439706124365329742431640625</LongitudeDegrees>
            </Position>
            <AltitudeMeters>171.399993896484375</AltitudeMeters>
            <DistanceMeters>277272.85350532</DistanceMeters>
          </Trackpoint>
          <Trackpoint>
            <Time>2018-09-14T13:29:49.000Z</Time>
            <Position>
              <LatitudeDegrees>37.8652192465960979461669921875</LatitudeDegrees>
              <LongitudeDegrees>-8.1439380906522274017333984375</LongitudeDegrees>
            </Position>
            <AltitudeMeters>171.399993896484375</AltitudeMeters>
            <DistanceMeters>277278.3074096</DistanceMeters>
          </Trackpoint>
          <Trackpoint>
            <Time>2018-09-14T13:29:50.000Z</Time>
            <Position>
              <LatitudeDegrees>37.865178175270557403564453125</LatitudeDegrees>
              <LongitudeDegrees>-8.14390649087727069854736328125</LongitudeDegrees>
            </Position>
            <AltitudeMeters>171.399993896484375</AltitudeMeters>
            <DistanceMeters>277283.65598718</DistanceMeters>
          </Trackpoint>
          <Trackpoint>
            <Time>2018-09-14T13:29:51.000Z</Time>
            <Position>
              <LatitudeDegrees>37.86513685248792171478271484375</LatitudeDegrees>
              <LongitudeDegrees>-8.14387430436909198760986328125</LongitudeDegrees>
            </Position>
            <AltitudeMeters>171.1999969482421875</AltitudeMeters>
            <DistanceMeters>277289.0549766</DistanceMeters>
          </Trackpoint>
          <Trackpoint>
            <Time>2018-09-14T13:29:52.000Z</Time>
            <Position>
              <LatitudeDegrees>37.8650951944291591644287109375</LatitudeDegrees>
              <LongitudeDegrees>-8.1438423693180084228515625</LongitudeDegrees>
            </Position>
            <AltitudeMeters>171.1999969482421875</AltitudeMeters>
            <DistanceMeters>277294.47399945</DistanceMeters>
          </Trackpoint>
          <Trackpoint>
            <Time>2018-09-14T13:29:53.000Z</Time>
            <Position>
              <LatitudeDegrees>37.865052781999111175537109375</LatitudeDegrees>
              <LongitudeDegrees>-8.14381043426692485809326171875</LongitudeDegrees>
            </Position>
            <AltitudeMeters>171.1999969482421875</AltitudeMeters>
            <DistanceMeters>277299.96503079</DistanceMeters>
          </Trackpoint>
          <Trackpoint>
            <Time>2018-09-14T13:29:54.000Z</Time>
            <Position>
              <LatitudeDegrees>37.86500978283584117889404296875</LatitudeDegrees>
              <LongitudeDegrees>-8.14377841539680957794189453125</LongitudeDegrees>
            </Position>
            <AltitudeMeters>171</AltitudeMeters>
            <DistanceMeters>277305.5165757</DistanceMeters>
          </Trackpoint>
          <Trackpoint>
            <Time>2018-09-14T13:29:55.000Z</Time>
            <Position>
              <LatitudeDegrees>37.8649664483964443206787109375</LatitudeDegrees>
              <LongitudeDegrees>-8.14374606125056743621826171875</LongitudeDegrees>
            </Position>
            <AltitudeMeters>171</AltitudeMeters>
            <DistanceMeters>277311.11589936</DistanceMeters>
          </Trackpoint>
          <Trackpoint>
            <Time>2018-09-14T13:29:56.000Z</Time>
            <Position>
              <LatitudeDegrees>37.864923365414142608642578125</LatitudeDegrees>
              <LongitudeDegrees>-8.14371270127594470977783203125</LongitudeDegrees>
            </Position>
            <AltitudeMeters>170.8000030517578125</AltitudeMeters>
            <DistanceMeters>277316.7377556</DistanceMeters>
          </Trackpoint>
          <Trackpoint>
            <Time>2018-09-14T13:29:57.000Z</Time>
            <Position>
              <LatitudeDegrees>37.8648806177079677581787109375</LatitudeDegrees>
              <LongitudeDegrees>-8.1436792574822902679443359375</LongitudeDegrees>
            </Position>
            <AltitudeMeters>170.600006103515625</AltitudeMeters>
            <DistanceMeters>277322.3306247</DistanceMeters>
          </Trackpoint>
          <Trackpoint>
            <Time>2018-09-14T13:29:58.000Z</Time>
            <Position>
              <LatitudeDegrees>37.864837534725666046142578125</LatitudeDegrees>
              <LongitudeDegrees>-8.14364547841250896453857421875</LongitudeDegrees>
            </Position>
            <AltitudeMeters>170.600006103515625</AltitudeMeters>
            <DistanceMeters>277327.97012195</DistanceMeters>
          </Trackpoint>
          <Trackpoint>
            <Time>2018-09-14T13:29:59.000Z</Time>
            <Position>
              <LatitudeDegrees>37.86479420028626918792724609375</LatitudeDegrees>
              <LongitudeDegrees>-8.14361211843788623809814453125</LongitudeDegrees>
            </Position>
            <AltitudeMeters>170.600006103515625</AltitudeMeters>
            <DistanceMeters>277333.61602045</DistanceMeters>
          </Trackpoint>
          <Trackpoint>
            <Time>2018-09-14T13:30:00.000Z</Time>
            <Position>
              <LatitudeDegrees>37.86475094966590404510498046875</LatitudeDegrees>
              <LongitudeDegrees>-8.14357892610132694244384765625</LongitudeDegrees>
            </Position>
            <AltitudeMeters>170.600006103515625</AltitudeMeters>
            <DistanceMeters>277339.244298</DistanceMeters>
          </Trackpoint>
          <Trackpoint>
            <Time>2018-09-14T13:30:01.000Z</Time>
            <Position>
              <LatitudeDegrees>37.86470736376941204071044921875</LatitudeDegrees>
              <LongitudeDegrees>-8.143544979393482208251953125</LongitudeDegrees>
            </Position>
            <AltitudeMeters>170.8000030517578125</AltitudeMeters>
            <DistanceMeters>277344.93797646</DistanceMeters>
          </Trackpoint>
          <Trackpoint>
            <Time>2018-09-14T13:30:02.000Z</Time>
            <Position>
              <LatitudeDegrees>37.86466277204453945159912109375</LatitudeDegrees>
              <LongitudeDegrees>-8.1435106135904788970947265625</LongitudeDegrees>
            </Position>
            <AltitudeMeters>170.8000030517578125</AltitudeMeters>
            <DistanceMeters>277350.74705519</DistanceMeters>
          </Trackpoint>
          <Trackpoint>
            <Time>2018-09-14T13:30:03.000Z</Time>
            <Position>
              <LatitudeDegrees>37.86461818031966686248779296875</LatitudeDegrees>
              <LongitudeDegrees>-8.1434760801494121551513671875</LongitudeDegrees>
            </Position>
            <AltitudeMeters>170.8000030517578125</AltitudeMeters>
            <DistanceMeters>277356.56467725</DistanceMeters>
          </Trackpoint>
          <Trackpoint>
            <Time>2018-09-14T13:30:04.000Z</Time>
            <Position>
              <LatitudeDegrees>37.8645743429660797119140625</LatitudeDegrees>
              <LongitudeDegrees>-8.14344246871769428253173828125</LongitudeDegrees>
            </Position>
            <AltitudeMeters>171</AltitudeMeters>
            <DistanceMeters>277362.26786368</DistanceMeters>
          </Trackpoint>
          <Trackpoint>
            <Time>2018-09-14T13:30:05.000Z</Time>
            <Position>
              <LatitudeDegrees>37.86453117616474628448486328125</LatitudeDegrees>
              <LongitudeDegrees>-8.14340927638113498687744140625</LongitudeDegrees>
            </Position>
            <AltitudeMeters>171.1999969482421875</AltitudeMeters>
            <DistanceMeters>277367.88811344</DistanceMeters>
          </Trackpoint>
          <Trackpoint>
            <Time>2018-09-14T13:30:06.000Z</Time>
            <Position>
              <LatitudeDegrees>37.8644885122776031494140625</LatitudeDegrees>
              <LongitudeDegrees>-8.14337541349232196807861328125</LongitudeDegrees>
            </Position>
            <AltitudeMeters>171.1999969482421875</AltitudeMeters>
            <DistanceMeters>277373.49066158</DistanceMeters>
          </Trackpoint>
          <Trackpoint>
            <Time>2018-09-14T13:30:07.000Z</Time>
            <Position>
              <LatitudeDegrees>37.86444618366658687591552734375</LatitudeDegrees>
              <LongitudeDegrees>-8.14334205351769924163818359375</LongitudeDegrees>
            </Position>
            <AltitudeMeters>171.399993896484375</AltitudeMeters>
            <DistanceMeters>277379.03895237</DistanceMeters>
          </Trackpoint>
          <Trackpoint>
            <Time>2018-09-14T13:30:08.000Z</Time>
            <Position>
              <LatitudeDegrees>37.8644031845033168792724609375</LatitudeDegrees>
              <LongitudeDegrees>-8.143309615552425384521484375</LongitudeDegrees>
            </Position>
            <AltitudeMeters>171.600006103515625</AltitudeMeters>
            <DistanceMeters>277384.60917163</DistanceMeters>
          </Trackpoint>
          <Trackpoint>
            <Time>2018-09-14T13:30:09.000Z</Time>
            <Position>
              <LatitudeDegrees>37.86435985006392002105712890625</LatitudeDegrees>
              <LongitudeDegrees>-8.1432772614061832427978515625</LongitudeDegrees>
            </Position>
            <AltitudeMeters>171.8000030517578125</AltitudeMeters>
            <DistanceMeters>277390.20849529</DistanceMeters>
          </Trackpoint>
          <Trackpoint>
            <Time>2018-09-14T13:30:10.000Z</Time>
            <Position>
              <LatitudeDegrees>37.86431659944355487823486328125</LatitudeDegrees>
              <LongitudeDegrees>-8.14324490725994110107421875</LongitudeDegrees>
            </Position>
            <AltitudeMeters>172</AltitudeMeters>
            <DistanceMeters>277395.79894201</DistanceMeters>
          </Trackpoint>
          <Trackpoint>
            <Time>2018-09-14T13:30:11.000Z</Time>
            <Position>
              <LatitudeDegrees>37.86427368409931659698486328125</LatitudeDegrees>
              <LongitudeDegrees>-8.14321079291403293609619140625</LongitudeDegrees>
            </Position>
            <AltitudeMeters>172.1999969482421875</AltitudeMeters>
            <DistanceMeters>277401.4376386</DistanceMeters>
          </Trackpoint>
          <Trackpoint>
            <Time>2018-09-14T13:30:12.000Z</Time>
            <Position>
              <LatitudeDegrees>37.86423043347895145416259765625</LatitudeDegrees>
              <LongitudeDegrees>-8.14317642711102962493896484375</LongitudeDegrees>
            </Position>
            <AltitudeMeters>172.399993896484375</AltitudeMeters>
            <DistanceMeters>277407.12020433</DistanceMeters>
          </Trackpoint>
          <Trackpoint>
            <Time>2018-09-14T13:30:13.000Z</Time>
            <Position>
              <LatitudeDegrees>37.864186428487300872802734375</LatitudeDegrees>
              <LongitudeDegrees>-8.14314256422221660614013671875</LongitudeDegrees>
            </Position>
            <AltitudeMeters>172.600006103515625</AltitudeMeters>
            <DistanceMeters>277412.85024429</DistanceMeters>
          </Trackpoint>
          <Trackpoint>
            <Time>2018-09-14T13:30:14.000Z</Time>
            <Position>
              <LatitudeDegrees>37.86414141766726970672607421875</LatitudeDegrees>
              <LongitudeDegrees>-8.14310903660953044891357421875</LongitudeDegrees>
            </Position>
            <AltitudeMeters>172.8000030517578125</AltitudeMeters>
            <DistanceMeters>277418.66165427</DistanceMeters>
          </Trackpoint>
          <Trackpoint>
            <Time>2018-09-14T13:30:15.000Z</Time>
            <Position>
              <LatitudeDegrees>37.8640964068472385406494140625</LatitudeDegrees>
              <LongitudeDegrees>-8.14307584427297115325927734375</LongitudeDegrees>
            </Position>
            <AltitudeMeters>173</AltitudeMeters>
            <DistanceMeters>277424.4590627</DistanceMeters>
          </Trackpoint>
          <Trackpoint>
            <Time>2018-09-14T13:30:16.000Z</Time>
            <Position>
              <LatitudeDegrees>37.86405206657946109771728515625</LatitudeDegrees>
              <LongitudeDegrees>-8.143042065203189849853515625</LongitudeDegrees>
            </Position>
            <AltitudeMeters>173.399993896484375</AltitudeMeters>
            <DistanceMeters>277430.21818336</DistanceMeters>
          </Trackpoint>
          <Trackpoint>
            <Time>2018-09-14T13:30:17.000Z</Time>
            <Position>
              <LatitudeDegrees>37.8640088997781276702880859375</LatitudeDegrees>
              <LongitudeDegrees>-8.14300795085728168487548828125</LongitudeDegrees>
            </Position>
            <AltitudeMeters>173.600006103515625</AltitudeMeters>
            <DistanceMeters>277435.88164798</DistanceMeters>
          </Trackpoint>
          <Trackpoint>
            <Time>2018-09-14T13:30:18.000Z</Time>
            <Position>
              <LatitudeDegrees>37.86396523006260395050048828125</LatitudeDegrees>
              <LongitudeDegrees>-8.1429745070636272430419921875</LongitudeDegrees>
            </Position>
            <AltitudeMeters>173.8000030517578125</AltitudeMeters>
            <DistanceMeters>277441.56103466</DistanceMeters>
          </Trackpoint>
          <Trackpoint>
            <Time>2018-09-14T13:30:19.000Z</Time>
            <Position>
              <LatitudeDegrees>37.86392147652804851531982421875</LatitudeDegrees>
              <LongitudeDegrees>-8.14294123090803623199462890625</LongitudeDegrees>
            </Position>
            <AltitudeMeters>174</AltitudeMeters>
            <DistanceMeters>277447.24121627</DistanceMeters>
          </Trackpoint>
          <Trackpoint>
            <Time>2018-09-14T13:30:20.000Z</Time>
            <Position>
              <LatitudeDegrees>37.86387722007930278778076171875</LatitudeDegrees>
              <LongitudeDegrees>-8.142907284200191497802734375</LongitudeDegrees>
            </Position>
            <AltitudeMeters>174.1999969482421875</AltitudeMeters>
            <DistanceMeters>277452.9995529</DistanceMeters>
          </Trackpoint>
          <Trackpoint>
            <Time>2018-09-14T13:30:21.000Z</Time>
            <Position>
              <LatitudeDegrees>37.86383329890668392181396484375</LatitudeDegrees>
              <LongitudeDegrees>-8.142872750759124755859375</LongitudeDegrees>
            </Position>
            <AltitudeMeters>174.399993896484375</AltitudeMeters>
            <DistanceMeters>277458.75475232</DistanceMeters>
          </Trackpoint>
          <Trackpoint>
            <Time>2018-09-14T13:30:22.000Z</Time>
            <Position>
              <LatitudeDegrees>37.86378921009600162506103515625</LatitudeDegrees>
              <LongitudeDegrees>-8.14283796586096286773681640625</LongitudeDegrees>
            </Position>
            <AltitudeMeters>174.8000030517578125</AltitudeMeters>
            <DistanceMeters>277464.53656372</DistanceMeters>
          </Trackpoint>
          <Trackpoint>
            <Time>2018-09-14T13:30:23.000Z</Time>
            <Position>
              <LatitudeDegrees>37.8637450374662876129150390625</LatitudeDegrees>
              <LongitudeDegrees>-8.142804019153118133544921875</LongitudeDegrees>
            </Position>
            <AltitudeMeters>175</AltitudeMeters>
            <DistanceMeters>277470.28705413</DistanceMeters>
          </Trackpoint>
          <Trackpoint>
            <Time>2018-09-14T13:30:24.000Z</Time>
            <Position>
              <LatitudeDegrees>37.86370019428431987762451171875</LatitudeDegrees>
              <LongitudeDegrees>-8.1427703239023685455322265625</LongitudeDegrees>
            </Position>
            <AltitudeMeters>175.1999969482421875</AltitudeMeters>
            <DistanceMeters>277476.09068964</DistanceMeters>
          </Trackpoint>
          <Trackpoint>
            <Time>2018-09-14T13:30:25.000Z</Time>
            <Position>
              <LatitudeDegrees>37.86365568637847900390625</LatitudeDegrees>
              <LongitudeDegrees>-8.14273570664227008819580078125</LongitudeDegrees>
            </Position>
            <AltitudeMeters>175.399993896484375</AltitudeMeters>
            <DistanceMeters>277481.90365326</DistanceMeters>
          </Trackpoint>
          <Trackpoint>
            <Time>2018-09-14T13:30:26.000Z</Time>
            <Position>
              <LatitudeDegrees>37.863611094653606414794921875</LatitudeDegrees>
              <LongitudeDegrees>-8.14270175993442535400390625</LongitudeDegrees>
            </Position>
            <AltitudeMeters>175.600006103515625</AltitudeMeters>
            <DistanceMeters>277487.69326842</DistanceMeters>
          </Trackpoint>
          <Trackpoint>
            <Time>2018-09-14T13:30:27.000Z</Time>
            <Position>
              <LatitudeDegrees>37.86356650292873382568359375</LatitudeDegrees>
              <LongitudeDegrees>-8.14266764558851718902587890625</LongitudeDegrees>
            </Position>
            <AltitudeMeters>176</AltitudeMeters>
            <DistanceMeters>277493.49067685</DistanceMeters>
          </Trackpoint>
          <Trackpoint>
            <Time>2018-09-14T13:30:28.000Z</Time>
            <Position>
              <LatitudeDegrees>37.8635220788419246673583984375</LatitudeDegrees>
              <LongitudeDegrees>-8.14263160340487957000732421875</LongitudeDegrees>
            </Position>
            <AltitudeMeters>176.1999969482421875</AltitudeMeters>
            <DistanceMeters>277499.36237438</DistanceMeters>
          </Trackpoint>
          <Trackpoint>
            <Time>2018-09-14T13:30:29.000Z</Time>
            <Position>
              <LatitudeDegrees>37.86347690038383007049560546875</LatitudeDegrees>
              <LongitudeDegrees>-8.14259438775479793548583984375</LongitudeDegrees>
            </Position>
            <AltitudeMeters>176.399993896484375</AltitudeMeters>
            <DistanceMeters>277505.36035942</DistanceMeters>
          </Trackpoint>
          <Trackpoint>
            <Time>2018-09-14T13:30:30.000Z</Time>
            <Position>
              <LatitudeDegrees>37.86343096755445003509521484375</LatitudeDegrees>
              <LongitudeDegrees>-8.14255801029503345489501953125</LongitudeDegrees>
            </Position>
            <AltitudeMeters>176.600006103515625</AltitudeMeters>
            <DistanceMeters>277511.38987746</DistanceMeters>
          </Trackpoint>
          <Trackpoint>
            <Time>2018-09-14T13:30:31.000Z</Time>
            <Position>
              <LatitudeDegrees>37.8633834421634674072265625</LatitudeDegrees>
              <LongitudeDegrees>-8.14252213574945926666259765625</LongitudeDegrees>
            </Position>
            <AltitudeMeters>176.399993896484375</AltitudeMeters>
            <DistanceMeters>277517.54831241</DistanceMeters>
          </Trackpoint>
          <Trackpoint>
            <Time>2018-09-14T13:30:32.000Z</Time>
            <Position>
              <LatitudeDegrees>37.86333449184894561767578125</LatitudeDegrees>
              <LongitudeDegrees>-8.14248659648001194000244140625</LongitudeDegrees>
            </Position>
            <AltitudeMeters>176.1999969482421875</AltitudeMeters>
            <DistanceMeters>277523.82798946</DistanceMeters>
          </Trackpoint>
          <Trackpoint>
            <Time>2018-09-14T13:30:33.000Z</Time>
            <Position>
              <LatitudeDegrees>37.8632847033441066741943359375</LatitudeDegrees>
              <LongitudeDegrees>-8.1424503028392791748046875</LongitudeDegrees>
            </Position>
            <AltitudeMeters>176</AltitudeMeters>
            <DistanceMeters>277530.22237654</DistanceMeters>
          </Trackpoint>
          <Trackpoint>
            <Time>2018-09-14T13:30:34.000Z</Time>
            <Position>
              <LatitudeDegrees>37.86323516629636287689208984375</LatitudeDegrees>
              <LongitudeDegrees>-8.1424125842750072479248046875</LongitudeDegrees>
            </Position>
            <AltitudeMeters>175.600006103515625</AltitudeMeters>
            <DistanceMeters>277536.65618338</DistanceMeters>
          </Trackpoint>
          <Trackpoint>
            <Time>2018-09-14T13:30:35.000Z</Time>
            <Position>
              <LatitudeDegrees>37.86318487487733364105224609375</LatitudeDegrees>
              <LongitudeDegrees>-8.14237478189170360565185546875</LongitudeDegrees>
            </Position>
            <AltitudeMeters>175.399993896484375</AltitudeMeters>
            <DistanceMeters>277543.1653399</DistanceMeters>
          </Trackpoint>
          <Trackpoint>
            <Time>2018-09-14T13:30:36.000Z</Time>
            <Position>
              <LatitudeDegrees>37.86313408054411411285400390625</LatitudeDegrees>
              <LongitudeDegrees>-8.1423364765942096710205078125</LongitudeDegrees>
            </Position>
            <AltitudeMeters>175</AltitudeMeters>
            <DistanceMeters>277549.74486773</DistanceMeters>
          </Trackpoint>
          <Trackpoint>
            <Time>2018-09-14T13:30:37.000Z</Time>
            <Position>
              <LatitudeDegrees>37.86308228038251399993896484375</LatitudeDegrees>
              <LongitudeDegrees>-8.142297752201557159423828125</LongitudeDegrees>
            </Position>
            <AltitudeMeters>174.8000030517578125</AltitudeMeters>
            <DistanceMeters>277556.4400376</DistanceMeters>
          </Trackpoint>
          <Trackpoint>
            <Time>2018-09-14T13:30:38.000Z</Time>
            <Position>
              <LatitudeDegrees>37.863030731678009033203125</LatitudeDegrees>
              <LongitudeDegrees>-8.142258189618587493896484375</LongitudeDegrees>
            </Position>
            <AltitudeMeters>174.399993896484375</AltitudeMeters>
            <DistanceMeters>277563.14868135</DistanceMeters>
          </Trackpoint>
          <Trackpoint>
            <Time>2018-09-14T13:30:39.000Z</Time>
            <Position>
              <LatitudeDegrees>37.8629782609641551971435546875</LatitudeDegrees>
              <LongitudeDegrees>-8.1422191299498081207275390625</LongitudeDegrees>
            </Position>
            <AltitudeMeters>174.1999969482421875</AltitudeMeters>
            <DistanceMeters>277569.9229598</DistanceMeters>
          </Trackpoint>
          <Trackpoint>
            <Time>2018-09-14T13:30:40.000Z</Time>
            <Position>
              <LatitudeDegrees>37.8629256226122379302978515625</LatitudeDegrees>
              <LongitudeDegrees>-8.14218115992844104766845703125</LongitudeDegrees>
            </Position>
            <AltitudeMeters>174</AltitudeMeters>
            <DistanceMeters>277576.66517047</DistanceMeters>
          </Trackpoint>
          <Trackpoint>
            <Time>2018-09-14T13:30:41.000Z</Time>
            <Position>
              <LatitudeDegrees>37.86287357099354267120361328125</LatitudeDegrees>
              <LongitudeDegrees>-8.1421433575451374053955078125</LongitudeDegrees>
            </Position>
            <AltitudeMeters>173.8000030517578125</AltitudeMeters>
            <DistanceMeters>277583.34413578</DistanceMeters>
          </Trackpoint>
          <Trackpoint>
            <Time>2018-09-14T13:30:42.000Z</Time>
            <Position>
              <LatitudeDegrees>37.8628220222890377044677734375</LatitudeDegrees>
              <LongitudeDegrees>-8.14210505224764347076416015625</LongitudeDegrees>
            </Position>
            <AltitudeMeters>173.600006103515625</AltitudeMeters>
            <DistanceMeters>277589.99600579</DistanceMeters>
          </Trackpoint>
          <Trackpoint>
            <Time>2018-09-14T13:30:43.000Z</Time>
            <Position>
              <LatitudeDegrees>37.86276997067034244537353515625</LatitudeDegrees>
              <LongitudeDegrees>-8.14206783659756183624267578125</LongitudeDegrees>
            </Position>
            <AltitudeMeters>173.399993896484375</AltitudeMeters>
            <DistanceMeters>277596.64855452</DistanceMeters>
          </Trackpoint>
          <Trackpoint>
            <Time>2018-09-14T13:30:45.000Z</Time>
            <Position>
              <LatitudeDegrees>37.86266259849071502685546875</LatitudeDegrees>
              <LongitudeDegrees>-8.14199474640190601348876953125</LongitudeDegrees>
            </Position>
            <AltitudeMeters>173</AltitudeMeters>
            <DistanceMeters>277610.21576051</DistanceMeters>
          </Trackpoint>
          <Trackpoint>
            <Time>2018-09-14T13:30:46.000Z</Time>
            <Position>
              <LatitudeDegrees>37.86260685883462429046630859375</LatitudeDegrees>
              <LongitudeDegrees>-8.1419609673321247100830078125</LongitudeDegrees>
            </Position>
            <AltitudeMeters>173</AltitudeMeters>
            <DistanceMeters>277617.09322664</DistanceMeters>
          </Trackpoint>
          <Trackpoint>
            <Time>2018-09-14T13:30:47.000Z</Time>
            <Position>
              <LatitudeDegrees>37.86255128681659698486328125</LatitudeDegrees>
              <LongitudeDegrees>-8.141929619014263153076171875</LongitudeDegrees>
            </Position>
            <AltitudeMeters>172.8000030517578125</AltitudeMeters>
            <DistanceMeters>277623.86417178</DistanceMeters>
          </Trackpoint>
          <Trackpoint>
            <Time>2018-09-14T13:30:48.000Z</Time>
            <Position>
              <LatitudeDegrees>37.8624951280653476715087890625</LatitudeDegrees>
              <LongitudeDegrees>-8.14189919270575046539306640625</LongitudeDegrees>
            </Position>
            <AltitudeMeters>173</AltitudeMeters>
            <DistanceMeters>277630.66372996</DistanceMeters>
          </Trackpoint>
          <Trackpoint>
            <Time>2018-09-14T13:30:49.000Z</Time>
            <Position>
              <LatitudeDegrees>37.8624379634857177734375</LatitudeDegrees>
              <LongitudeDegrees>-8.1418704427778720855712890625</LongitudeDegrees>
            </Position>
            <AltitudeMeters>173</AltitudeMeters>
            <DistanceMeters>277637.5096117</DistanceMeters>
          </Trackpoint>
          <Trackpoint>
            <Time>2018-09-14T13:30:51.000Z</Time>
            <Position>
              <LatitudeDegrees>37.86231768317520618438720703125</LatitudeDegrees>
              <LongitudeDegrees>-8.1418178044259548187255859375</LongitudeDegrees>
            </Position>
            <AltitudeMeters>173.1999969482421875</AltitudeMeters>
            <DistanceMeters>277651.67337455</DistanceMeters>
          </Trackpoint>
          <Trackpoint>
            <Time>2018-09-14T13:30:52.000Z</Time>
            <Position>
              <LatitudeDegrees>37.8622557409107685089111328125</LatitudeDegrees>
              <LongitudeDegrees>-8.14179358072578907012939453125</LongitudeDegrees>
            </Position>
            <AltitudeMeters>173.1999969482421875</AltitudeMeters>
            <DistanceMeters>277658.88915038</DistanceMeters>
          </Trackpoint>
          <Trackpoint>
            <Time>2018-09-14T13:30:53.000Z</Time>
            <Position>
              <LatitudeDegrees>37.8621940501034259796142578125</LatitudeDegrees>
              <LongitudeDegrees>-8.14177036285400390625</LongitudeDegrees>
            </Position>
            <AltitudeMeters>173.399993896484375</AltitudeMeters>
            <DistanceMeters>277666.05217309</DistanceMeters>
          </Trackpoint>
          <Trackpoint>
            <Time>2018-09-14T13:30:54.000Z</Time>
            <Position>
              <LatitudeDegrees>37.8621320240199565887451171875</LatitudeDegrees>
              <LongitudeDegrees>-8.1417473964393138885498046875</LongitudeDegrees>
            </Position>
            <AltitudeMeters>173.399993896484375</AltitudeMeters>
            <DistanceMeters>277673.2447601</DistanceMeters>
          </Trackpoint>
          <Trackpoint>
            <Time>2018-09-14T13:30:55.000Z</Time>
            <Position>
              <LatitudeDegrees>37.86207008175551891326904296875</LatitudeDegrees>
              <LongitudeDegrees>-8.1417261064052581787109375</LongitudeDegrees>
            </Position>
            <AltitudeMeters>173.600006103515625</AltitudeMeters>
            <DistanceMeters>277680.38884801</DistanceMeters>
          </Trackpoint>
          <Trackpoint>
            <Time>2018-09-14T13:30:56.000Z</Time>
            <Position>
              <LatitudeDegrees>37.8620086424052715301513671875</LatitudeDegrees>
              <LongitudeDegrees>-8.14170372672379016876220703125</LongitudeDegrees>
            </Position>
            <AltitudeMeters>173.8000030517578125</AltitudeMeters>
            <DistanceMeters>277687.50380469</DistanceMeters>
          </Trackpoint>
          <Trackpoint>
            <Time>2018-09-14T13:30:57.000Z</Time>
            <Position>
              <LatitudeDegrees>37.861947454512119293212890625</LatitudeDegrees>
              <LongitudeDegrees>-8.1416816823184490203857421875</LongitudeDegrees>
            </Position>
            <AltitudeMeters>174</AltitudeMeters>
            <DistanceMeters>277694.58441091</DistanceMeters>
          </Trackpoint>
          <Trackpoint>
            <Time>2018-09-14T13:30:58.000Z</Time>
            <Position>
              <LatitudeDegrees>37.86188718862831592559814453125</LatitudeDegrees>
              <LongitudeDegrees>-8.1416598893702030181884765625</LongitudeDegrees>
            </Position>
            <AltitudeMeters>174.1999969482421875</AltitudeMeters>
            <DistanceMeters>277701.55965656</DistanceMeters>
          </Trackpoint>
          <Trackpoint>
            <Time>2018-09-14T13:30:59.000Z</Time>
            <Position>
              <LatitudeDegrees>37.86182801239192485809326171875</LatitudeDegrees>
              <LongitudeDegrees>-8.14163801260292530059814453125</LongitudeDegrees>
            </Position>
            <AltitudeMeters>174.399993896484375</AltitudeMeters>
            <DistanceMeters>277708.42134867</DistanceMeters>
          </Trackpoint>
          <Trackpoint>
            <Time>2018-09-14T13:31:00.000Z</Time>
            <Position>
              <LatitudeDegrees>37.86176850087940692901611328125</LatitudeDegrees>
              <LongitudeDegrees>-8.14161789603531360626220703125</LongitudeDegrees>
            </Position>
            <AltitudeMeters>174.399993896484375</AltitudeMeters>
            <DistanceMeters>277715.27645755</DistanceMeters>
          </Trackpoint>
          <Trackpoint>
            <Time>2018-09-14T13:31:01.000Z</Time>
            <Position>
              <LatitudeDegrees>37.86170798353850841522216796875</LatitudeDegrees>
              <LongitudeDegrees>-8.14159744419157505035400390625</LongitudeDegrees>
            </Position>
            <AltitudeMeters>174.8000030517578125</AltitudeMeters>
            <DistanceMeters>277722.24781835</DistanceMeters>
          </Trackpoint>
          <Trackpoint>
            <Time>2018-09-14T13:31:02.000Z</Time>
            <Position>
              <LatitudeDegrees>37.861647047102451324462890625</LatitudeDegrees>
              <LongitudeDegrees>-8.141577579081058502197265625</LongitudeDegrees>
            </Position>
            <AltitudeMeters>175.1999969482421875</AltitudeMeters>
            <DistanceMeters>277729.25084236</DistanceMeters>
          </Trackpoint>
          <Trackpoint>
            <Time>2018-09-14T13:31:03.000Z</Time>
            <Position>
              <LatitudeDegrees>37.86158443428575992584228515625</LatitudeDegrees>
              <LongitudeDegrees>-8.1415557861328125</LongitudeDegrees>
            </Position>
            <AltitudeMeters>175.600006103515625</AltitudeMeters>
            <DistanceMeters>277736.47787232</DistanceMeters>
          </Trackpoint>
          <Trackpoint>
            <Time>2018-09-14T13:31:04.000Z</Time>
            <Position>
              <LatitudeDegrees>37.8615219891071319580078125</LatitudeDegrees>
              <LongitudeDegrees>-8.14153407700359821319580078125</LongitudeDegrees>
            </Position>
            <AltitudeMeters>176</AltitudeMeters>
            <DistanceMeters>277743.68488278</DistanceMeters>
          </Trackpoint>
          <Trackpoint>
            <Time>2018-09-14T13:31:05.000Z</Time>
            <Position>
              <LatitudeDegrees>37.8614597953855991363525390625</LatitudeDegrees>
              <LongitudeDegrees>-8.14151144586503505706787109375</LongitudeDegrees>
            </Position>
            <AltitudeMeters>176.1999969482421875</AltitudeMeters>
            <DistanceMeters>277750.88687966</DistanceMeters>
          </Trackpoint>
          <Trackpoint>
            <Time>2018-09-14T13:31:06.000Z</Time>
            <Position>
              <LatitudeDegrees>37.8613967634737491607666015625</LatitudeDegrees>
              <LongitudeDegrees>-8.14148998819291591644287109375</LongitudeDegrees>
            </Position>
            <AltitudeMeters>176.600006103515625</AltitudeMeters>
            <DistanceMeters>277758.15129751</DistanceMeters>
          </Trackpoint>
          <Trackpoint>
            <Time>2018-09-14T13:31:07.000Z</Time>
            <Position>
              <LatitudeDegrees>37.8613330610096454620361328125</LatitudeDegrees>
              <LongitudeDegrees>-8.14146819524466991424560546875</LongitudeDegrees>
            </Position>
            <AltitudeMeters>177.1999969482421875</AltitudeMeters>
            <DistanceMeters>277765.49545482</DistanceMeters>
          </Trackpoint>
          <Trackpoint>
            <Time>2018-09-14T13:31:08.000Z</Time>
            <Position>
              <LatitudeDegrees>37.8612693585455417633056640625</LatitudeDegrees>
              <LongitudeDegrees>-8.14144623465836048126220703125</LongitudeDegrees>
            </Position>
            <AltitudeMeters>177.600006103515625</AltitudeMeters>
            <DistanceMeters>277772.84391433</DistanceMeters>
          </Trackpoint>
          <Trackpoint>
            <Time>2018-09-14T13:31:09.000Z</Time>
            <Position>
              <LatitudeDegrees>37.861205153167247772216796875</LatitudeDegrees>
              <LongitudeDegrees>-8.1414238549768924713134765625</LongitudeDegrees>
            </Position>
            <AltitudeMeters>177.600006103515625</AltitudeMeters>
            <DistanceMeters>277780.25599805</DistanceMeters>
          </Trackpoint>
          <Trackpoint>
            <Time>2018-09-14T13:31:10.000Z</Time>
            <Position>
              <LatitudeDegrees>37.861141450703144073486328125</LatitudeDegrees>
              <LongitudeDegrees>-8.14140147529542446136474609375</LongitudeDegrees>
            </Position>
            <AltitudeMeters>177</AltitudeMeters>
            <DistanceMeters>277787.61428171</DistanceMeters>
          </Trackpoint>
          <Trackpoint>
            <Time>2018-09-14T13:31:11.000Z</Time>
            <Position>
              <LatitudeDegrees>37.86107716150581836700439453125</LatitudeDegrees>
              <LongitudeDegrees>-8.14137934707105159759521484375</LongitudeDegrees>
            </Position>
            <AltitudeMeters>176.399993896484375</AltitudeMeters>
            <DistanceMeters>277795.0300194</DistanceMeters>
          </Trackpoint>
          <Trackpoint>
            <Time>2018-09-14T13:31:12.000Z</Time>
            <Position>
              <LatitudeDegrees>37.86101278848946094512939453125</LatitudeDegrees>
              <LongitudeDegrees>-8.141357637941837310791015625</LongitudeDegrees>
            </Position>
            <AltitudeMeters>176</AltitudeMeters>
            <DistanceMeters>277802.4445393</DistanceMeters>
          </Trackpoint>
          <Trackpoint>
            <Time>2018-09-14T13:31:13.000Z</Time>
            <Position>
              <LatitudeDegrees>37.860949002206325531005859375</LatitudeDegrees>
              <LongitudeDegrees>-8.14133609645068645477294921875</LongitudeDegrees>
            </Position>
            <AltitudeMeters>175.399993896484375</AltitudeMeters>
            <DistanceMeters>277809.79238437</DistanceMeters>
          </Trackpoint>
          <Trackpoint>
            <Time>2018-09-14T13:31:14.000Z</Time>
            <Position>
              <LatitudeDegrees>37.8608851321041584014892578125</LatitudeDegrees>
              <LongitudeDegrees>-8.1413148902356624603271484375</LongitudeDegrees>
            </Position>
            <AltitudeMeters>175</AltitudeMeters>
            <DistanceMeters>277817.14207261</DistanceMeters>
          </Trackpoint>
          <Trackpoint>
            <Time>2018-09-14T13:31:15.000Z</Time>
            <Position>
              <LatitudeDegrees>37.86082126200199127197265625</LatitudeDegrees>
              <LongitudeDegrees>-8.14129217527806758880615234375</LongitudeDegrees>
            </Position>
            <AltitudeMeters>174.399993896484375</AltitudeMeters>
            <DistanceMeters>277824.52608247</DistanceMeters>
          </Trackpoint>
          <Trackpoint>
            <Time>2018-09-14T13:31:16.000Z</Time>
            <Position>
              <LatitudeDegrees>37.8607570566236972808837890625</LatitudeDegrees>
              <LongitudeDegrees>-8.14126853831112384796142578125</LongitudeDegrees>
            </Position>
            <AltitudeMeters>173.8000030517578125</AltitudeMeters>
            <DistanceMeters>277831.96795447</DistanceMeters>
          </Trackpoint>
          <Trackpoint>
            <Time>2018-09-14T13:31:17.000Z</Time>
            <Position>
              <LatitudeDegrees>37.86069226451218128204345703125</LatitudeDegrees>
              <LongitudeDegrees>-8.14124624244868755340576171875</LongitudeDegrees>
            </Position>
            <AltitudeMeters>173.399993896484375</AltitudeMeters>
            <DistanceMeters>277839.44070448</DistanceMeters>
          </Trackpoint>
          <Trackpoint>
            <Time>2018-09-14T13:31:18.000Z</Time>
            <Position>
              <LatitudeDegrees>37.860627472400665283203125</LatitudeDegrees>
              <LongitudeDegrees>-8.1412240304052829742431640625</LongitudeDegrees>
            </Position>
            <AltitudeMeters>172.8000030517578125</AltitudeMeters>
            <DistanceMeters>277846.91224599</DistanceMeters>
          </Trackpoint>
          <Trackpoint>
            <Time>2018-09-14T13:31:19.000Z</Time>
            <Position>
              <LatitudeDegrees>37.86056234501302242279052734375</LatitudeDegrees>
              <LongitudeDegrees>-8.1412019021809101104736328125</LongitudeDegrees>
            </Position>
            <AltitudeMeters>172.399993896484375</AltitudeMeters>
            <DistanceMeters>277854.4175519</DistanceMeters>
          </Trackpoint>
          <Trackpoint>
            <Time>2018-09-14T13:31:20.000Z</Time>
            <Position>
              <LatitudeDegrees>37.8604962117969989776611328125</LatitudeDegrees>
              <LongitudeDegrees>-8.14117969013750553131103515625</LongitudeDegrees>
            </Position>
            <AltitudeMeters>172.1999969482421875</AltitudeMeters>
            <DistanceMeters>277862.03274402</DistanceMeters>
          </Trackpoint>
          <Trackpoint>
            <Time>2018-09-14T13:31:21.000Z</Time>
            <Position>
              <LatitudeDegrees>37.86042965948581695556640625</LatitudeDegrees>
              <LongitudeDegrees>-8.1411566399037837982177734375</LongitudeDegrees>
            </Position>
            <AltitudeMeters>171.8000030517578125</AltitudeMeters>
            <DistanceMeters>277869.71287809</DistanceMeters>
          </Trackpoint>
          <Trackpoint>
            <Time>2018-09-14T13:31:22.000Z</Time>
            <Position>
              <LatitudeDegrees>37.8603631071746349334716796875</LatitudeDegrees>
              <LongitudeDegrees>-8.14113199710845947265625</LongitudeDegrees>
            </Position>
            <AltitudeMeters>171.399993896484375</AltitudeMeters>
            <DistanceMeters>277877.43054511</DistanceMeters>
          </Trackpoint>
          <Trackpoint>
            <Time>2018-09-14T13:31:23.000Z</Time>
            <Position>
              <LatitudeDegrees>37.86029689013957977294921875</LatitudeDegrees>
              <LongitudeDegrees>-8.1411070190370082855224609375</LongitudeDegrees>
            </Position>
            <AltitudeMeters>171</AltitudeMeters>
            <DistanceMeters>277885.12066673</DistanceMeters>
          </Trackpoint>
          <Trackpoint>
            <Time>2018-09-14T13:31:24.000Z</Time>
            <Position>
              <LatitudeDegrees>37.86023109219968318939208984375</LatitudeDegrees>
              <LongitudeDegrees>-8.14108380116522312164306640625</LongitudeDegrees>
            </Position>
            <AltitudeMeters>170.8000030517578125</AltitudeMeters>
            <DistanceMeters>277892.72339778</DistanceMeters>
          </Trackpoint>
          <Trackpoint>
            <Time>2018-09-14T13:31:25.000Z</Time>
            <Position>
              <LatitudeDegrees>37.86016588099300861358642578125</LatitudeDegrees>
              <LongitudeDegrees>-8.141059912741184234619140625</LongitudeDegrees>
            </Position>
            <AltitudeMeters>170.399993896484375</AltitudeMeters>
            <DistanceMeters>277900.27906739</DistanceMeters>
          </Trackpoint>
          <Trackpoint>
            <Time>2018-09-14T13:31:26.000Z</Time>
            <Position>
              <LatitudeDegrees>37.86010117270052433013916015625</LatitudeDegrees>
              <LongitudeDegrees>-8.14103552140295505523681640625</LongitudeDegrees>
            </Position>
            <AltitudeMeters>170</AltitudeMeters>
            <DistanceMeters>277907.79339158</DistanceMeters>
          </Trackpoint>
          <Trackpoint>
            <Time>2018-09-14T13:31:27.000Z</Time>
            <Position>
              <LatitudeDegrees>37.86003579385578632354736328125</LatitudeDegrees>
              <LongitudeDegrees>-8.1410121358931064605712890625</LongitudeDegrees>
            </Position>
            <AltitudeMeters>169.600006103515625</AltitudeMeters>
            <DistanceMeters>277915.35503452</DistanceMeters>
          </Trackpoint>
          <Trackpoint>
            <Time>2018-09-14T13:31:28.000Z</Time>
            <Position>
              <LatitudeDegrees>37.85997007973492145538330078125</LatitudeDegrees>
              <LongitudeDegrees>-8.14098925329744815826416015625</LongitudeDegrees>
            </Position>
            <AltitudeMeters>169.399993896484375</AltitudeMeters>
            <DistanceMeters>277922.94052377</DistanceMeters>
          </Trackpoint>
          <Trackpoint>
            <Time>2018-09-14T13:31:29.000Z</Time>
            <Position>
              <LatitudeDegrees>37.85990403033792972564697265625</LatitudeDegrees>
              <LongitudeDegrees>-8.1409658677875995635986328125</LongitudeDegrees>
            </Position>
            <AltitudeMeters>169.600006103515625</AltitudeMeters>
            <DistanceMeters>277930.57348212</DistanceMeters>
          </Trackpoint>
          <Trackpoint>
            <Time>2018-09-14T13:31:30.000Z</Time>
            <Position>
              <LatitudeDegrees>37.8598384000360965728759765625</LatitudeDegrees>
              <LongitudeDegrees>-8.14094214700162410736083984375</LongitudeDegrees>
            </Position>
            <AltitudeMeters>169.600006103515625</AltitudeMeters>
            <DistanceMeters>277938.16967778</DistanceMeters>
          </Trackpoint>
          <Trackpoint>
            <Time>2018-09-14T13:31:31.000Z</Time>
            <Position>
              <LatitudeDegrees>37.85977260209619998931884765625</LatitudeDegrees>
              <LongitudeDegrees>-8.140918426215648651123046875</LongitudeDegrees>
            </Position>
            <AltitudeMeters>169.600006103515625</AltitudeMeters>
            <DistanceMeters>277945.783684</DistanceMeters>
          </Trackpoint>
          <Trackpoint>
            <Time>2018-09-14T13:31:32.000Z</Time>
            <Position>
              <LatitudeDegrees>37.859706468880176544189453125</LatitudeDegrees>
              <LongitudeDegrees>-8.14089537598192691802978515625</LongitudeDegrees>
            </Position>
            <AltitudeMeters>169.8000030517578125</AltitudeMeters>
            <DistanceMeters>277953.4178253</DistanceMeters>
          </Trackpoint>
          <Trackpoint>
            <Time>2018-09-14T13:31:33.000Z</Time>
            <Position>
              <LatitudeDegrees>37.85963949747383594512939453125</LatitudeDegrees>
              <LongitudeDegrees>-8.14087257720530033111572265625</LongitudeDegrees>
            </Position>
            <AltitudeMeters>169.8000030517578125</AltitudeMeters>
            <DistanceMeters>277961.13549232</DistanceMeters>
          </Trackpoint>
          <Trackpoint>
            <Time>2018-09-14T13:31:34.000Z</Time>
            <Position>
              <LatitudeDegrees>37.85957227461040019989013671875</LatitudeDegrees>
              <LongitudeDegrees>-8.14084927551448345184326171875</LongitudeDegrees>
            </Position>
            <AltitudeMeters>170</AltitudeMeters>
            <DistanceMeters>277968.89225707</DistanceMeters>
          </Trackpoint>
          <Trackpoint>
            <Time>2018-09-14T13:31:35.000Z</Time>
            <Position>
              <LatitudeDegrees>37.85950521938502788543701171875</LatitudeDegrees>
              <LongitudeDegrees>-8.14082563854753971099853515625</LongitudeDegrees>
            </Position>
            <AltitudeMeters>170</AltitudeMeters>
            <DistanceMeters>277976.63912018</DistanceMeters>
          </Trackpoint>
          <Trackpoint>
            <Time>2018-09-14T13:31:36.000Z</Time>
            <Position>
              <LatitudeDegrees>37.859438247978687286376953125</LatitudeDegrees>
              <LongitudeDegrees>-8.14080200158059597015380859375</LongitudeDegrees>
            </Position>
            <AltitudeMeters>170.1999969482421875</AltitudeMeters>
            <DistanceMeters>277984.37665253</DistanceMeters>
          </Trackpoint>
          <Trackpoint>
            <Time>2018-09-14T13:31:37.000Z</Time>
            <Position>
              <LatitudeDegrees>37.85937127657234668731689453125</LatitudeDegrees>
              <LongitudeDegrees>-8.140778280794620513916015625</LongitudeDegrees>
            </Position>
            <AltitudeMeters>170.1999969482421875</AltitudeMeters>
            <DistanceMeters>277992.11651862</DistanceMeters>
          </Trackpoint>
          <Trackpoint>
            <Time>2018-09-14T13:31:38.000Z</Time>
            <Position>
              <LatitudeDegrees>37.85930447280406951904296875</LatitudeDegrees>
              <LongitudeDegrees>-8.14075472764670848846435546875</LongitudeDegrees>
            </Position>
            <AltitudeMeters>170.1999969482421875</AltitudeMeters>
            <DistanceMeters>277999.83418564</DistanceMeters>
          </Trackpoint>
          <Trackpoint>
            <Time>2018-09-14T13:31:39.000Z</Time>
            <Position>
              <LatitudeDegrees>37.85923741757869720458984375</LatitudeDegrees>
              <LongitudeDegrees>-8.14073109067976474761962890625</LongitudeDegrees>
            </Position>
            <AltitudeMeters>170</AltitudeMeters>
            <DistanceMeters>278007.5804659</DistanceMeters>
          </Trackpoint>
          <Trackpoint>
            <Time>2018-09-14T13:31:40.000Z</Time>
            <Position>
              <LatitudeDegrees>37.8591695241630077362060546875</LatitudeDegrees>
              <LongitudeDegrees>-8.14070745371282100677490234375</LongitudeDegrees>
            </Position>
            <AltitudeMeters>169.8000030517578125</AltitudeMeters>
            <DistanceMeters>278015.41656952</DistanceMeters>
          </Trackpoint>
          <Trackpoint>
            <Time>2018-09-14T13:31:41.000Z</Time>
            <Position>
              <LatitudeDegrees>37.85910087637603282928466796875</LatitudeDegrees>
              <LongitudeDegrees>-8.14068364910781383514404296875</LongitudeDegrees>
            </Position>
            <AltitudeMeters>169.399993896484375</AltitudeMeters>
            <DistanceMeters>278023.3386293</DistanceMeters>
          </Trackpoint>
          <Trackpoint>
            <Time>2018-09-14T13:31:42.000Z</Time>
            <Position>
              <LatitudeDegrees>37.8590320609509944915771484375</LatitudeDegrees>
              <LongitudeDegrees>-8.14065925776958465576171875</LongitudeDegrees>
            </Position>
            <AltitudeMeters>169.1999969482421875</AltitudeMeters>
            <DistanceMeters>278031.29254127</DistanceMeters>
          </Trackpoint>
          <Trackpoint>
            <Time>2018-09-14T13:31:43.000Z</Time>
            <Position>
              <LatitudeDegrees>37.85896249115467071533203125</LatitudeDegrees>
              <LongitudeDegrees>-8.140634782612323760986328125</LongitudeDegrees>
            </Position>
            <AltitudeMeters>169</AltitudeMeters>
            <DistanceMeters>278039.32834096</DistanceMeters>
          </Trackpoint>
          <Trackpoint>
            <Time>2018-09-14T13:31:44.000Z</Time>
            <Position>
              <LatitudeDegrees>37.85889166407287120819091796875</LatitudeDegrees>
              <LongitudeDegrees>-8.14060972072184085845947265625</LongitudeDegrees>
            </Position>
            <AltitudeMeters>168.600006103515625</AltitudeMeters>
            <DistanceMeters>278047.51278395</DistanceMeters>
          </Trackpoint>
          <Trackpoint>
            <Time>2018-09-14T13:31:45.000Z</Time>
            <Position>
              <LatitudeDegrees>37.85882108844816684722900390625</LatitudeDegrees>
              <LongitudeDegrees>-8.1405839882791042327880859375</LongitudeDegrees>
            </Position>
            <AltitudeMeters>168.399993896484375</AltitudeMeters>
            <DistanceMeters>278055.68673866</DistanceMeters>
          </Trackpoint>
          <Trackpoint>
            <Time>2018-09-14T13:31:46.000Z</Time>
            <Position>
              <LatitudeDegrees>37.85875118337571620941162109375</LatitudeDegrees>
              <LongitudeDegrees>-8.14055875875055789947509765625</LongitudeDegrees>
            </Position>
            <AltitudeMeters>168.399993896484375</AltitudeMeters>
            <DistanceMeters>278063.77573946</DistanceMeters>
          </Trackpoint>
          <Trackpoint>
            <Time>2018-09-14T13:31:47.000Z</Time>
            <Position>
              <LatitudeDegrees>37.8586816973984241485595703125</LatitudeDegrees>
              <LongitudeDegrees>-8.14053361304104328155517578125</LongitudeDegrees>
            </Position>
            <AltitudeMeters>169.1999969482421875</AltitudeMeters>
            <DistanceMeters>278071.81884008</DistanceMeters>
          </Trackpoint>
          <Trackpoint>
            <Time>2018-09-14T13:31:48.000Z</Time>
            <Position>
              <LatitudeDegrees>37.85861304961144924163818359375</LatitudeDegrees>
              <LongitudeDegrees>-8.1405082158744335174560546875</LongitudeDegrees>
            </Position>
            <AltitudeMeters>170</AltitudeMeters>
            <DistanceMeters>278079.77899375</DistanceMeters>
          </Trackpoint>
          <Trackpoint>
            <Time>2018-09-14T13:31:49.000Z</Time>
            <Position>
              <LatitudeDegrees>37.85854431800544261932373046875</LatitudeDegrees>
              <LongitudeDegrees>-8.1404837407171726226806640625</LongitudeDegrees>
            </Position>
            <AltitudeMeters>170.8000030517578125</AltitudeMeters>
            <DistanceMeters>278087.72552284</DistanceMeters>
          </Trackpoint>
          <Trackpoint>
            <Time>2018-09-14T13:31:50.000Z</Time>
            <Position>
              <LatitudeDegrees>37.85847567021846771240234375</LatitudeDegrees>
              <LongitudeDegrees>-8.14045817591249942779541015625</LongitudeDegrees>
            </Position>
            <AltitudeMeters>171.600006103515625</AltitudeMeters>
            <DistanceMeters>278095.68964595</DistanceMeters>
          </Trackpoint>
          <Trackpoint>
            <Time>2018-09-14T13:31:51.000Z</Time>
            <Position>
              <LatitudeDegrees>37.85840786062180995941162109375</LatitudeDegrees>
              <LongitudeDegrees>-8.140431940555572509765625</LongitudeDegrees>
            </Position>
            <AltitudeMeters>172.600006103515625</AltitudeMeters>
            <DistanceMeters>278103.58086938</DistanceMeters>
          </Trackpoint>
          <Trackpoint>
            <Time>2018-09-14T13:31:52.000Z</Time>
            <Position>
              <LatitudeDegrees>37.85834021866321563720703125</LatitudeDegrees>
              <LongitudeDegrees>-8.1404079683125019073486328125</LongitudeDegrees>
            </Position>
            <AltitudeMeters>173</AltitudeMeters>
            <DistanceMeters>278111.39851336</DistanceMeters>
          </Trackpoint>
          <Trackpoint>
            <Time>2018-09-14T13:31:53.000Z</Time>
            <Position>
              <LatitudeDegrees>37.8582726605236530303955078125</LatitudeDegrees>
              <LongitudeDegrees>-8.14038692973554134368896484375</LongitudeDegrees>
            </Position>
            <AltitudeMeters>173.1999969482421875</AltitudeMeters>
            <DistanceMeters>278119.14129564</DistanceMeters>
          </Trackpoint>
          <Trackpoint>
            <Time>2018-09-14T13:31:54.000Z</Time>
            <Position>
              <LatitudeDegrees>37.85820652730762958526611328125</LatitudeDegrees>
              <LongitudeDegrees>-8.1403663940727710723876953125</LongitudeDegrees>
            </Position>
            <AltitudeMeters>173.600006103515625</AltitudeMeters>
            <DistanceMeters>278126.71963888</DistanceMeters>
          </Trackpoint>
          <Trackpoint>
            <Time>2018-09-14T13:31:55.000Z</Time>
            <Position>
              <LatitudeDegrees>37.85814282484352588653564453125</LatitudeDegrees>
              <LongitudeDegrees>-8.14034518785774707794189453125</LongitudeDegrees>
            </Position>
            <AltitudeMeters>173.8000030517578125</AltitudeMeters>
            <DistanceMeters>278134.05087445</DistanceMeters>
          </Trackpoint>
          <Trackpoint>
            <Time>2018-09-14T13:31:56.000Z</Time>
            <Position>
              <LatitudeDegrees>37.85808180458843708038330078125</LatitudeDegrees>
              <LongitudeDegrees>-8.14032423309981822967529296875</LongitudeDegrees>
            </Position>
            <AltitudeMeters>174</AltitudeMeters>
            <DistanceMeters>278141.08734438</DistanceMeters>
          </Trackpoint>
          <Trackpoint>
            <Time>2018-09-14T13:31:57.000Z</Time>
            <Position>
              <LatitudeDegrees>37.85802313126623630523681640625</LatitudeDegrees>
              <LongitudeDegrees>-8.140302859246730804443359375</LongitudeDegrees>
            </Position>
            <AltitudeMeters>174.1999969482421875</AltitudeMeters>
            <DistanceMeters>278147.88291727</DistanceMeters>
          </Trackpoint>
          <Trackpoint>
            <Time>2018-09-14T13:31:58.000Z</Time>
            <Position>
              <LatitudeDegrees>37.85796563141047954559326171875</LatitudeDegrees>
              <LongitudeDegrees>-8.1402825750410556793212890625</LongitudeDegrees>
            </Position>
            <AltitudeMeters>174.399993896484375</AltitudeMeters>
            <DistanceMeters>278154.52595751</DistanceMeters>
          </Trackpoint>
          <Trackpoint>
            <Time>2018-09-14T13:31:59.000Z</Time>
            <Position>
              <LatitudeDegrees>37.85790930502116680145263671875</LatitudeDegrees>
              <LongitudeDegrees>-8.14026321284472942352294921875</LongitudeDegrees>
            </Position>
            <AltitudeMeters>174.600006103515625</AltitudeMeters>
            <DistanceMeters>278161.02122634</DistanceMeters>
          </Trackpoint>
          <Trackpoint>
            <Time>2018-09-14T13:32:00.000Z</Time>
            <Position>
              <LatitudeDegrees>37.857855074107646942138671875</LatitudeDegrees>
              <LongitudeDegrees>-8.14024477265775203704833984375</LongitudeDegrees>
            </Position>
            <AltitudeMeters>174.8000030517578125</AltitudeMeters>
            <DistanceMeters>278167.26991024</DistanceMeters>
          </Trackpoint>
          <Trackpoint>
            <Time>2018-09-14T13:32:01.000Z</Time>
            <Position>
              <LatitudeDegrees>37.85780285485088825225830078125</LatitudeDegrees>
              <LongitudeDegrees>-8.140227086842060089111328125</LongitudeDegrees>
            </Position>
            <AltitudeMeters>175</AltitudeMeters>
            <DistanceMeters>278173.28593438</DistanceMeters>
          </Trackpoint>
          <Trackpoint>
            <Time>2018-09-14T13:32:02.000Z</Time>
            <Position>
              <LatitudeDegrees>37.857752479612827301025390625</LatitudeDegrees>
              <LongitudeDegrees>-8.14020906575024127960205078125</LongitudeDegrees>
            </Position>
            <AltitudeMeters>175.1999969482421875</AltitudeMeters>
            <DistanceMeters>278179.11208725</DistanceMeters>
          </Trackpoint>
          <Trackpoint>
            <Time>2018-09-14T13:32:03.000Z</Time>
            <Position>
              <LatitudeDegrees>37.85770227201282978057861328125</LatitudeDegrees>
              <LongitudeDegrees>-8.14019121229648590087890625</LongitudeDegrees>
            </Position>
            <AltitudeMeters>175.399993896484375</AltitudeMeters>
            <DistanceMeters>278184.91572276</DistanceMeters>
          </Trackpoint>
          <Trackpoint>
            <Time>2018-09-14T13:32:04.000Z</Time>
            <Position>
              <LatitudeDegrees>37.85765231586992740631103515625</LatitudeDegrees>
              <LongitudeDegrees>-8.140174113214015960693359375</LongitudeDegrees>
            </Position>
            <AltitudeMeters>175.399993896484375</AltitudeMeters>
            <DistanceMeters>278190.67562735</DistanceMeters>
          </Trackpoint>
          <Trackpoint>
            <Time>2018-09-14T13:32:05.000Z</Time>
            <Position>
              <LatitudeDegrees>37.85760235972702503204345703125</LatitudeDegrees>
              <LongitudeDegrees>-8.1401571817696094512939453125</LongitudeDegrees>
            </Position>
            <AltitudeMeters>175.600006103515625</AltitudeMeters>
            <DistanceMeters>278196.43161124</DistanceMeters>
          </Trackpoint>
          <Trackpoint>
            <Time>2018-09-14T13:32:06.000Z</Time>
            <Position>
              <LatitudeDegrees>37.85755273886024951934814453125</LatitudeDegrees>
              <LongitudeDegrees>-8.1401397474110126495361328125</LongitudeDegrees>
            </Position>
            <AltitudeMeters>175.8000030517578125</AltitudeMeters>
            <DistanceMeters>278202.1632269</DistanceMeters>
          </Trackpoint>
          <Trackpoint>
            <Time>2018-09-14T13:32:07.000Z</Time>
            <Position>
              <LatitudeDegrees>37.8575035370886325836181640625</LatitudeDegrees>
              <LongitudeDegrees>-8.1401221454143524169921875</LongitudeDegrees>
            </Position>
            <AltitudeMeters>176</AltitudeMeters>
            <DistanceMeters>278207.85373251</DistanceMeters>
          </Trackpoint>
          <Trackpoint>
            <Time>2018-09-14T13:32:08.000Z</Time>
            <Position>
              <LatitudeDegrees>37.85745441913604736328125</LatitudeDegrees>
              <LongitudeDegrees>-8.1401042081415653228759765625</LongitudeDegrees>
            </Position>
            <AltitudeMeters>176.1999969482421875</AltitudeMeters>
            <DistanceMeters>278213.54265104</DistanceMeters>
          </Trackpoint>
          <Trackpoint>
            <Time>2018-09-14T13:32:09.000Z</Time>
            <Position>
              <LatitudeDegrees>37.85740572027862071990966796875</LatitudeDegrees>
              <LongitudeDegrees>-8.14008652232587337493896484375</LongitudeDegrees>
            </Position>
            <AltitudeMeters>176.1999969482421875</AltitudeMeters>
            <DistanceMeters>278219.18054684</DistanceMeters>
          </Trackpoint>
          <Trackpoint>
            <Time>2018-09-14T13:32:10.000Z</Time>
            <Position>
              <LatitudeDegrees>37.85735693760216236114501953125</LatitudeDegrees>
              <LongitudeDegrees>-8.140069507062435150146484375</LongitudeDegrees>
            </Position>
            <AltitudeMeters>176.399993896484375</AltitudeMeters>
            <DistanceMeters>278224.8120323</DistanceMeters>
          </Trackpoint>
          <Trackpoint>
            <Time>2018-09-14T13:32:11.000Z</Time>
            <Position>
              <LatitudeDegrees>37.85730815492570400238037109375</LatitudeDegrees>
              <LongitudeDegrees>-8.14005173742771148681640625</LongitudeDegrees>
            </Position>
            <AltitudeMeters>176.399993896484375</AltitudeMeters>
            <DistanceMeters>278230.4611287</DistanceMeters>
          </Trackpoint>
          <Trackpoint>
            <Time>2018-09-14T13:32:12.000Z</Time>
            <Position>
              <LatitudeDegrees>37.85725920461118221282958984375</LatitudeDegrees>
              <LongitudeDegrees>-8.1400334648787975311279296875</LongitudeDegrees>
            </Position>
            <AltitudeMeters>176.600006103515625</AltitudeMeters>
            <DistanceMeters>278236.14131031</DistanceMeters>
          </Trackpoint>
          <Trackpoint>
            <Time>2018-09-14T13:32:13.000Z</Time>
            <Position>
              <LatitudeDegrees>37.85720991902053356170654296875</LatitudeDegrees>
              <LongitudeDegrees>-8.14001544378697872161865234375</LongitudeDegrees>
            </Position>
            <AltitudeMeters>176.600006103515625</AltitudeMeters>
            <DistanceMeters>278241.85082657</DistanceMeters>
          </Trackpoint>
          <Trackpoint>
            <Time>2018-09-14T13:32:14.000Z</Time>
            <Position>
              <LatitudeDegrees>37.85715996287763118743896484375</LatitudeDegrees>
              <LongitudeDegrees>-8.13999767415225505828857421875</LongitudeDegrees>
            </Position>
            <AltitudeMeters>176.8000030517578125</AltitudeMeters>
            <DistanceMeters>278247.62638736</DistanceMeters>
          </Trackpoint>
          <Trackpoint>
            <Time>2018-09-14T13:32:15.000Z</Time>
            <Position>
              <LatitudeDegrees>37.85710983909666538238525390625</LatitudeDegrees>
              <LongitudeDegrees>-8.13998023979365825653076171875</LongitudeDegrees>
            </Position>
            <AltitudeMeters>176.8000030517578125</AltitudeMeters>
            <DistanceMeters>278253.41288228</DistanceMeters>
          </Trackpoint>
          <Trackpoint>
            <Time>2018-09-14T13:32:16.000Z</Time>
            <Position>
              <LatitudeDegrees>37.85705954767763614654541015625</LatitudeDegrees>
              <LongitudeDegrees>-8.1399630568921566009521484375</LongitudeDegrees>
            </Position>
            <AltitudeMeters>177</AltitudeMeters>
            <DistanceMeters>278259.21029071</DistanceMeters>
          </Trackpoint>
          <Trackpoint>
            <Time>2018-09-14T13:32:17.000Z</Time>
            <Position>
              <LatitudeDegrees>37.85700908862054347991943359375</LatitudeDegrees>
              <LongitudeDegrees>-8.13994579017162322998046875</LongitudeDegrees>
            </Position>
            <AltitudeMeters>177</AltitudeMeters>
            <DistanceMeters>278265.02868882</DistanceMeters>
          </Trackpoint>
          <Trackpoint>
            <Time>2018-09-14T13:32:18.000Z</Time>
            <Position>
              <LatitudeDegrees>37.8569583781063556671142578125</LatitudeDegrees>
              <LongitudeDegrees>-8.1399285234510898590087890625</LongitudeDegrees>
            </Position>
            <AltitudeMeters>177.1999969482421875</AltitudeMeters>
            <DistanceMeters>278270.8741836</DistanceMeters>
          </Trackpoint>
          <Trackpoint>
            <Time>2018-09-14T13:32:19.000Z</Time>
            <Position>
              <LatitudeDegrees>37.8569074161350727081298828125</LatitudeDegrees>
              <LongitudeDegrees>-8.13991092145442962646484375</LongitudeDegrees>
            </Position>
            <AltitudeMeters>177.1999969482421875</AltitudeMeters>
            <DistanceMeters>278276.7535656</DistanceMeters>
          </Trackpoint>
          <Trackpoint>
            <Time>2018-09-14T13:32:20.000Z</Time>
            <Position>
              <LatitudeDegrees>37.85685603506863117218017578125</LatitudeDegrees>
              <LongitudeDegrees>-8.13989290036261081695556640625</LongitudeDegrees>
            </Position>
            <AltitudeMeters>177.399993896484375</AltitudeMeters>
            <DistanceMeters>278282.68798201</DistanceMeters>
          </Trackpoint>
          <Trackpoint>
            <Time>2018-09-14T13:32:21.000Z</Time>
            <Position>
              <LatitudeDegrees>37.856804318726062774658203125</LatitudeDegrees>
              <LongitudeDegrees>-8.1398755498230457305908203125</LongitudeDegrees>
            </Position>
            <AltitudeMeters>177.399993896484375</AltitudeMeters>
            <DistanceMeters>278288.6429052</DistanceMeters>
          </Trackpoint>
          <Trackpoint>
            <Time>2018-09-14T13:32:22.000Z</Time>
            <Position>
              <LatitudeDegrees>37.856752686202526092529296875</LatitudeDegrees>
              <LongitudeDegrees>-8.1398574449121952056884765625</LongitudeDegrees>
            </Position>
            <AltitudeMeters>177.600006103515625</AltitudeMeters>
            <DistanceMeters>278294.60616278</DistanceMeters>
          </Trackpoint>
          <Trackpoint>
            <Time>2018-09-14T13:32:23.000Z</Time>
            <Position>
              <LatitudeDegrees>37.856701053678989410400390625</LatitudeDegrees>
              <LongitudeDegrees>-8.13983875326812267303466796875</LongitudeDegrees>
            </Position>
            <AltitudeMeters>177.600006103515625</AltitudeMeters>
            <DistanceMeters>278300.58378878</DistanceMeters>
          </Trackpoint>
          <Trackpoint>
            <Time>2018-09-14T13:32:24.000Z</Time>
            <Position>
              <LatitudeDegrees>37.85664950497448444366455078125</LatitudeDegrees>
              <LongitudeDegrees>-8.13981997780501842498779296875</LongitudeDegrees>
            </Position>
            <AltitudeMeters>177.600006103515625</AltitudeMeters>
            <DistanceMeters>278306.55461299</DistanceMeters>
          </Trackpoint>
          <Trackpoint>
            <Time>2018-09-14T13:32:25.000Z</Time>
            <Position>
              <LatitudeDegrees>37.85659804008901119232177734375</LatitudeDegrees>
              <LongitudeDegrees>-8.13980170525610446929931640625</LongitudeDegrees>
            </Position>
            <AltitudeMeters>177.600006103515625</AltitudeMeters>
            <DistanceMeters>278312.50422639</DistanceMeters>
          </Trackpoint>
          <Trackpoint>
            <Time>2018-09-14T13:32:26.000Z</Time>
            <Position>
              <LatitudeDegrees>37.8565464913845062255859375</LatitudeDegrees>
              <LongitudeDegrees>-8.139783851802349090576171875</LongitudeDegrees>
            </Position>
            <AltitudeMeters>177.600006103515625</AltitudeMeters>
            <DistanceMeters>278318.45156273</DistanceMeters>
          </Trackpoint>
          <Trackpoint>
            <Time>2018-09-14T13:32:27.000Z</Time>
            <Position>
              <LatitudeDegrees>37.85649485886096954345703125</LatitudeDegrees>
              <LongitudeDegrees>-8.13976549543440341949462890625</LongitudeDegrees>
            </Position>
            <AltitudeMeters>177.600006103515625</AltitudeMeters>
            <DistanceMeters>278324.42087438</DistanceMeters>
          </Trackpoint>
          <Trackpoint>
            <Time>2018-09-14T13:32:28.000Z</Time>
            <Position>
              <LatitudeDegrees>37.8564427234232425689697265625</LatitudeDegrees>
              <LongitudeDegrees>-8.13974856398999691009521484375</LongitudeDegrees>
            </Position>
            <AltitudeMeters>177.600006103515625</AltitudeMeters>
            <DistanceMeters>278330.4113271</DistanceMeters>
          </Trackpoint>
          <Trackpoint>
            <Time>2018-09-14T13:32:29.000Z</Time>
            <Position>
              <LatitudeDegrees>37.85639100708067417144775390625</LatitudeDegrees>
              <LongitudeDegrees>-8.13973146490752696990966796875</LongitudeDegrees>
            </Position>
            <AltitudeMeters>177.399993896484375</AltitudeMeters>
            <DistanceMeters>278336.35942255</DistanceMeters>
          </Trackpoint>
          <Trackpoint>
            <Time>2018-09-14T13:32:30.000Z</Time>
            <Position>
              <LatitudeDegrees>37.85633970983326435089111328125</LatitudeDegrees>
              <LongitudeDegrees>-8.13971335999667644500732421875</LongitudeDegrees>
            </Position>
            <AltitudeMeters>177.399993896484375</AltitudeMeters>
            <DistanceMeters>278342.28774926</DistanceMeters>
          </Trackpoint>
          <Trackpoint>
            <Time>2018-09-14T13:32:31.000Z</Time>
            <Position>
              <LatitudeDegrees>37.8562888316810131072998046875</LatitudeDegrees>
              <LongitudeDegrees>-8.13969592563807964324951171875</LongitudeDegrees>
            </Position>
            <AltitudeMeters>177.399993896484375</AltitudeMeters>
            <DistanceMeters>278348.15483128</DistanceMeters>
          </Trackpoint>
          <Trackpoint>
            <Time>2018-09-14T13:32:32.000Z</Time>
            <Position>
              <LatitudeDegrees>37.856237702071666717529296875</LatitudeDegrees>
              <LongitudeDegrees>-8.13967756927013397216796875</LongitudeDegrees>
            </Position>
            <AltitudeMeters>177.1999969482421875</AltitudeMeters>
            <DistanceMeters>278354.07095976</DistanceMeters>
          </Trackpoint>
          <Trackpoint>
            <Time>2018-09-14T13:32:33.000Z</Time>
            <Position>
              <LatitudeDegrees>37.8561862371861934661865234375</LatitudeDegrees>
              <LongitudeDegrees>-8.1396592967212200164794921875</LongitudeDegrees>
            </Position>
            <AltitudeMeters>176.8000030517578125</AltitudeMeters>
            <DistanceMeters>278360.02057317</DistanceMeters>
          </Trackpoint>
          <Trackpoint>
            <Time>2018-09-14T13:32:34.000Z</Time>
            <Position>
              <LatitudeDegrees>37.85613452084362506866455078125</LatitudeDegrees>
              <LongitudeDegrees>-8.13964043743908405303955078125</LongitudeDegrees>
            </Position>
            <AltitudeMeters>176.600006103515625</AltitudeMeters>
            <DistanceMeters>278366.00951829</DistanceMeters>
          </Trackpoint>
          <Trackpoint>
            <Time>2018-09-14T13:32:35.000Z</Time>
            <Position>
              <LatitudeDegrees>37.85608255304396152496337890625</LatitudeDegrees>
              <LongitudeDegrees>-8.139622248709201812744140625</LongitudeDegrees>
            </Position>
            <AltitudeMeters>176.399993896484375</AltitudeMeters>
            <DistanceMeters>278372.01051361</DistanceMeters>
          </Trackpoint>
          <Trackpoint>
            <Time>2018-09-14T13:32:36.000Z</Time>
            <Position>
              <LatitudeDegrees>37.856029830873012542724609375</LatitudeDegrees>
              <LongitudeDegrees>-8.1396053172647953033447265625</LongitudeDegrees>
            </Position>
            <AltitudeMeters>176</AltitudeMeters>
            <DistanceMeters>278378.06394654</DistanceMeters>
          </Trackpoint>
          <Trackpoint>
            <Time>2018-09-14T13:32:37.000Z</Time>
            <Position>
              <LatitudeDegrees>37.85597727634012699127197265625</LatitudeDegrees>
              <LongitudeDegrees>-8.1395875476300716400146484375</LongitudeDegrees>
            </Position>
            <AltitudeMeters>175.8000030517578125</AltitudeMeters>
            <DistanceMeters>278384.11737947</DistanceMeters>
          </Trackpoint>
          <Trackpoint>
            <Time>2018-09-14T13:32:38.000Z</Time>
            <Position>
              <LatitudeDegrees>37.85592447035014629364013671875</LatitudeDegrees>
              <LongitudeDegrees>-8.13956852070987224578857421875</LongitudeDegrees>
            </Position>
            <AltitudeMeters>175.600006103515625</AltitudeMeters>
            <DistanceMeters>278390.22797404</DistanceMeters>
          </Trackpoint>
          <Trackpoint>
            <Time>2018-09-14T13:32:39.000Z</Time>
            <Position>
              <LatitudeDegrees>37.8558719158172607421875</LatitudeDegrees>
              <LongitudeDegrees>-8.13954957760870456695556640625</LongitudeDegrees>
            </Position>
            <AltitudeMeters>175.399993896484375</AltitudeMeters>
            <DistanceMeters>278396.30968376</DistanceMeters>
          </Trackpoint>
          <Trackpoint>
            <Time>2018-09-14T13:32:40.000Z</Time>
            <Position>
              <LatitudeDegrees>37.85581852309405803680419921875</LatitudeDegrees>
              <LongitudeDegrees>-8.1395320594310760498046875</LongitudeDegrees>
            </Position>
            <AltitudeMeters>175.399993896484375</AltitudeMeters>
            <DistanceMeters>278402.44755627</DistanceMeters>
          </Trackpoint>
          <Trackpoint>
            <Time>2018-09-14T13:32:41.000Z</Time>
            <Position>
              <LatitudeDegrees>37.8557651303708553314208984375</LatitudeDegrees>
              <LongitudeDegrees>-8.13951437361538410186767578125</LongitudeDegrees>
            </Position>
            <AltitudeMeters>175.399993896484375</AltitudeMeters>
            <DistanceMeters>278408.58984081</DistanceMeters>
          </Trackpoint>
          <Trackpoint>
            <Time>2018-09-14T13:32:42.000Z</Time>
            <Position>
              <LatitudeDegrees>37.85571106709539890289306640625</LatitudeDegrees>
              <LongitudeDegrees>-8.1394956819713115692138671875</LongitudeDegrees>
            </Position>
            <AltitudeMeters>175.399993896484375</AltitudeMeters>
            <DistanceMeters>278414.82695307</DistanceMeters>
          </Trackpoint>
          <Trackpoint>
            <Time>2018-09-14T13:32:43.000Z</Time>
            <Position>
              <LatitudeDegrees>37.85565675236284732818603515625</LatitudeDegrees>
              <LongitudeDegrees>-8.13947564922273159027099609375</LongitudeDegrees>
            </Position>
            <AltitudeMeters>175.600006103515625</AltitudeMeters>
            <DistanceMeters>278421.12314522</DistanceMeters>
          </Trackpoint>
          <Trackpoint>
            <Time>2018-09-14T13:32:44.000Z</Time>
            <Position>
              <LatitudeDegrees>37.85560143180191516876220703125</LatitudeDegrees>
              <LongitudeDegrees>-8.13945553265511989593505859375</LongitudeDegrees>
            </Position>
            <AltitudeMeters>175.600006103515625</AltitudeMeters>
            <DistanceMeters>278427.52881984</DistanceMeters>
          </Trackpoint>
          <Trackpoint>
            <Time>2018-09-14T13:32:45.000Z</Time>
            <Position>
              <LatitudeDegrees>37.85554477013647556304931640625</LatitudeDegrees>
              <LongitudeDegrees>-8.13943675719201564788818359375</LongitudeDegrees>
            </Position>
            <AltitudeMeters>175.600006103515625</AltitudeMeters>
            <DistanceMeters>278434.04768015</DistanceMeters>
          </Trackpoint>
          <Trackpoint>
            <Time>2018-09-14T13:32:46.000Z</Time>
            <Position>
              <LatitudeDegrees>37.85548743791878223419189453125</LatitudeDegrees>
              <LongitudeDegrees>-8.13941781409084796905517578125</LongitudeDegrees>
            </Position>
            <AltitudeMeters>175.600006103515625</AltitudeMeters>
            <DistanceMeters>278440.64228766</DistanceMeters>
          </Trackpoint>
          <Trackpoint>
            <Time>2018-09-14T13:32:47.000Z</Time>
            <Position>
              <LatitudeDegrees>37.8554301895201206207275390625</LatitudeDegrees>
              <LongitudeDegrees>-8.13939752988517284393310546875</LongitudeDegrees>
            </Position>
            <AltitudeMeters>175.8000030517578125</AltitudeMeters>
            <DistanceMeters>278447.25876789</DistanceMeters>
          </Trackpoint>
          <Trackpoint>
            <Time>2018-09-14T13:32:48.000Z</Time>
            <Position>
              <LatitudeDegrees>37.85537310875952243804931640625</LatitudeDegrees>
              <LongitudeDegrees>-8.13937724567949771881103515625</LongitudeDegrees>
            </Position>
            <AltitudeMeters>175.8000030517578125</AltitudeMeters>
            <DistanceMeters>278453.85816624</DistanceMeters>
          </Trackpoint>
          <Trackpoint>
            <Time>2018-09-14T13:32:49.000Z</Time>
            <Position>
              <LatitudeDegrees>37.85531577654182910919189453125</LatitudeDegrees>
              <LongitudeDegrees>-8.13935779966413974761962890625</LongitudeDegrees>
            </Position>
            <AltitudeMeters>175.8000030517578125</AltitudeMeters>
            <DistanceMeters>278460.46508606</DistanceMeters>
          </Trackpoint>
          <Trackpoint>
            <Time>2018-09-14T13:32:50.000Z</Time>
            <Position>
              <LatitudeDegrees>37.85525894723832607269287109375</LatitudeDegrees>
              <LongitudeDegrees>-8.13933852128684520721435546875</LongitudeDegrees>
            </Position>
            <AltitudeMeters>175.8000030517578125</AltitudeMeters>
            <DistanceMeters>278467.01297145</DistanceMeters>
          </Trackpoint>
          <Trackpoint>
            <Time>2018-09-14T13:32:51.000Z</Time>
            <Position>
              <LatitudeDegrees>37.85520245321094989776611328125</LatitudeDegrees>
              <LongitudeDegrees>-8.139318488538265228271484375</LongitudeDegrees>
            </Position>
            <AltitudeMeters>175.8000030517578125</AltitudeMeters>
            <DistanceMeters>278473.54290414</DistanceMeters>
          </Trackpoint>
          <Trackpoint>
            <Time>2018-09-14T13:32:52.000Z</Time>
            <Position>
              <LatitudeDegrees>37.85514570772647857666015625</LatitudeDegrees>
              <LongitudeDegrees>-8.139298371970653533935546875</LongitudeDegrees>
            </Position>
            <AltitudeMeters>176</AltitudeMeters>
            <DistanceMeters>278480.1018129</DistanceMeters>
          </Trackpoint>
          <Trackpoint>
            <Time>2018-09-14T13:32:53.000Z</Time>
            <Position>
              <LatitudeDegrees>37.8550882078707218170166015625</LatitudeDegrees>
              <LongitudeDegrees>-8.1392787583172321319580078125</LongitudeDegrees>
            </Position>
            <AltitudeMeters>176</AltitudeMeters>
            <DistanceMeters>278486.72988365</DistanceMeters>
          </Trackpoint>
          <Trackpoint>
            <Time>2018-09-14T13:32:54.000Z</Time>
            <Position>
              <LatitudeDegrees>37.85503045655786991119384765625</LatitudeDegrees>
              <LongitudeDegrees>-8.139259479939937591552734375</LongitudeDegrees>
            </Position>
            <AltitudeMeters>176</AltitudeMeters>
            <DistanceMeters>278493.37700063</DistanceMeters>
          </Trackpoint>
          <Trackpoint>
            <Time>2018-09-14T13:32:55.000Z</Time>
            <Position>
              <LatitudeDegrees>37.85497295670211315155029296875</LatitudeDegrees>
              <LongitudeDegrees>-8.13923860900104045867919921875</LongitudeDegrees>
            </Position>
            <AltitudeMeters>176.1999969482421875</AltitudeMeters>
            <DistanceMeters>278500.03429852</DistanceMeters>
          </Trackpoint>
          <Trackpoint>
            <Time>2018-09-14T13:32:56.000Z</Time>
            <Position>
              <LatitudeDegrees>37.85491503775119781494140625</LatitudeDegrees>
              <LongitudeDegrees>-8.1392177380621433258056640625</LongitudeDegrees>
            </Position>
            <AltitudeMeters>176.399993896484375</AltitudeMeters>
            <DistanceMeters>278506.73688237</DistanceMeters>
          </Trackpoint>
          <Trackpoint>
            <Time>2018-09-14T13:32:57.000Z</Time>
            <Position>
              <LatitudeDegrees>37.85485661588609218597412109375</LatitudeDegrees>
              <LongitudeDegrees>-8.1391979567706584930419921875</LongitudeDegrees>
            </Position>
            <AltitudeMeters>176.399993896484375</AltitudeMeters>
            <DistanceMeters>278513.46836984</DistanceMeters>
          </Trackpoint>
          <Trackpoint>
            <Time>2018-09-14T13:32:58.000Z</Time>
            <Position>
              <LatitudeDegrees>37.8547991998493671417236328125</LatitudeDegrees>
              <LongitudeDegrees>-8.1391781754791736602783203125</LongitudeDegrees>
            </Position>
            <AltitudeMeters>176.600006103515625</AltitudeMeters>
            <DistanceMeters>278520.09167048</DistanceMeters>
          </Trackpoint>
          <Trackpoint>
            <Time>2018-09-14T13:32:59.000Z</Time>
            <Position>
              <LatitudeDegrees>37.85474245436489582061767578125</LatitudeDegrees>
              <LongitudeDegrees>-8.13915814273059368133544921875</LongitudeDegrees>
            </Position>
            <AltitudeMeters>176.8000030517578125</AltitudeMeters>
            <DistanceMeters>278526.64920234</DistanceMeters>
          </Trackpoint>
          <Trackpoint>
            <Time>2018-09-14T13:33:00.000Z</Time>
            <Position>
              <LatitudeDegrees>37.85468612797558307647705078125</LatitudeDegrees>
              <LongitudeDegrees>-8.13913802616298198699951171875</LongitudeDegrees>
            </Position>
            <AltitudeMeters>176.8000030517578125</AltitudeMeters>
            <DistanceMeters>278533.1625194</DistanceMeters>
          </Trackpoint>
          <Trackpoint>
            <Time>2018-09-14T13:33:01.000Z</Time>
            <Position>
              <LatitudeDegrees>37.8546298854053020477294921875</LatitudeDegrees>
              <LongitudeDegrees>-8.13911774195730686187744140625</LongitudeDegrees>
            </Position>
            <AltitudeMeters>177</AltitudeMeters>
            <DistanceMeters>278539.67167592</DistanceMeters>
          </Trackpoint>
          <Trackpoint>
            <Time>2018-09-14T13:33:02.000Z</Time>
            <Position>
              <LatitudeDegrees>37.854574061930179595947265625</LatitudeDegrees>
              <LongitudeDegrees>-8.13909762538969516754150390625</LongitudeDegrees>
            </Position>
            <AltitudeMeters>177.1999969482421875</AltitudeMeters>
            <DistanceMeters>278546.13139598</DistanceMeters>
          </Trackpoint>
          <Trackpoint>
            <Time>2018-09-14T13:33:03.000Z</Time>
            <Position>
              <LatitudeDegrees>37.8545179031789302825927734375</LatitudeDegrees>
              <LongitudeDegrees>-8.139077089726924896240234375</LongitudeDegrees>
            </Position>
            <AltitudeMeters>177.1999969482421875</AltitudeMeters>
            <DistanceMeters>278552.63777734</DistanceMeters>
          </Trackpoint>
          <Trackpoint>
            <Time>2018-09-14T13:33:04.000Z</Time>
            <Position>
              <LatitudeDegrees>37.85446099005639553070068359375</LatitudeDegrees>
              <LongitudeDegrees>-8.13905638642609119415283203125</LongitudeDegrees>
            </Position>
            <AltitudeMeters>177.399993896484375</AltitudeMeters>
            <DistanceMeters>278559.22827563</DistanceMeters>
          </Trackpoint>
          <Trackpoint>
            <Time>2018-09-14T13:33:05.000Z</Time>
            <Position>
              <LatitudeDegrees>37.85440298728644847869873046875</LatitudeDegrees>
              <LongitudeDegrees>-8.1390366889536380767822265625</LongitudeDegrees>
            </Position>
            <AltitudeMeters>177.600006103515625</AltitudeMeters>
            <DistanceMeters>278565.91264682</DistanceMeters>
          </Trackpoint>
          <Trackpoint>
            <Time>2018-09-14T13:33:06.000Z</Time>
            <Position>
              <LatitudeDegrees>37.85434515215456485748291015625</LatitudeDegrees>
              <LongitudeDegrees>-8.139016069471836090087890625</LongitudeDegrees>
            </Position>
            <AltitudeMeters>177.600006103515625</AltitudeMeters>
            <DistanceMeters>278572.59971932</DistanceMeters>
          </Trackpoint>
          <Trackpoint>
            <Time>2018-09-14T13:33:07.000Z</Time>
            <Position>
              <LatitudeDegrees>37.85428698174655437469482421875</LatitudeDegrees>
              <LongitudeDegrees>-8.1389951147139072418212890625</LongitudeDegrees>
            </Position>
            <AltitudeMeters>177.8000030517578125</AltitudeMeters>
            <DistanceMeters>278579.33120679</DistanceMeters>
          </Trackpoint>
          <Trackpoint>
            <Time>2018-09-14T13:33:08.000Z</Time>
            <Position>
              <LatitudeDegrees>37.8542285598814487457275390625</LatitudeDegrees>
              <LongitudeDegrees>-8.13897524960339069366455078125</LongitudeDegrees>
            </Position>
            <AltitudeMeters>178</AltitudeMeters>
            <DistanceMeters>278586.0640356</DistanceMeters>
          </Trackpoint>
          <Trackpoint>
            <Time>2018-09-14T13:33:09.000Z</Time>
            <Position>
              <LatitudeDegrees>37.854170389473438262939453125</LatitudeDegrees>
              <LongitudeDegrees>-8.1389548815786838531494140625</LongitudeDegrees>
            </Position>
            <AltitudeMeters>178</AltitudeMeters>
            <DistanceMeters>278592.78209499</DistanceMeters>
          </Trackpoint>
          <Trackpoint>
            <Time>2018-09-14T13:33:10.000Z</Time>
            <Position>
              <LatitudeDegrees>37.85411230288445949554443359375</LatitudeDegrees>
              <LongitudeDegrees>-8.1389339268207550048828125</LongitudeDegrees>
            </Position>
            <AltitudeMeters>178</AltitudeMeters>
            <DistanceMeters>278599.50418563</DistanceMeters>
          </Trackpoint>
          <Trackpoint>
            <Time>2018-09-14T13:33:11.000Z</Time>
            <Position>
              <LatitudeDegrees>37.85405379720032215118408203125</LatitudeDegrees>
              <LongitudeDegrees>-8.13891322351992130279541015625</LongitudeDegrees>
            </Position>
            <AltitudeMeters>178.1999969482421875</AltitudeMeters>
            <DistanceMeters>278606.26512099</DistanceMeters>
          </Trackpoint>
          <Trackpoint>
            <Time>2018-09-14T13:33:12.000Z</Time>
            <Position>
              <LatitudeDegrees>37.853995375335216522216796875</LatitudeDegrees>
              <LongitudeDegrees>-8.13889277167618274688720703125</LongitudeDegrees>
            </Position>
            <AltitudeMeters>178.1999969482421875</AltitudeMeters>
            <DistanceMeters>278613.01134848</DistanceMeters>
          </Trackpoint>
          <Trackpoint>
            <Time>2018-09-14T13:33:13.000Z</Time>
            <Position>
              <LatitudeDegrees>37.8539372049272060394287109375</LatitudeDegrees>
              <LongitudeDegrees>-8.13887215219438076019287109375</LongitudeDegrees>
            </Position>
            <AltitudeMeters>178.1999969482421875</AltitudeMeters>
            <DistanceMeters>278619.73478232</DistanceMeters>
          </Trackpoint>
          <Trackpoint>
            <Time>2018-09-14T13:33:14.000Z</Time>
            <Position>
              <LatitudeDegrees>37.85387945361435413360595703125</LatitudeDegrees>
              <LongitudeDegrees>-8.138851784169673919677734375</LongitudeDegrees>
            </Position>
            <AltitudeMeters>178.399993896484375</AltitudeMeters>
            <DistanceMeters>278626.40698412</DistanceMeters>
          </Trackpoint>
          <Trackpoint>
            <Time>2018-09-14T13:33:15.000Z</Time>
            <Position>
              <LatitudeDegrees>37.85382245667278766632080078125</LatitudeDegrees>
              <LongitudeDegrees>-8.138830997049808502197265625</LongitudeDegrees>
            </Position>
            <AltitudeMeters>178.399993896484375</AltitudeMeters>
            <DistanceMeters>278633.00911855</DistanceMeters>
          </Trackpoint>
          <Trackpoint>
            <Time>2018-09-14T13:33:16.000Z</Time>
            <Position>
              <LatitudeDegrees>37.853764705359935760498046875</LatitudeDegrees>
              <LongitudeDegrees>-8.1388107128441333770751953125</LongitudeDegrees>
            </Position>
            <AltitudeMeters>178.399993896484375</AltitudeMeters>
            <DistanceMeters>278639.67928996</DistanceMeters>
          </Trackpoint>
          <Trackpoint>
            <Time>2018-09-14T13:33:17.000Z</Time>
            <Position>
              <LatitudeDegrees>37.853707708418369293212890625</LatitudeDegrees>
              <LongitudeDegrees>-8.13879017718136310577392578125</LongitudeDegrees>
            </Position>
            <AltitudeMeters>178.399993896484375</AltitudeMeters>
            <DistanceMeters>278646.27526664</DistanceMeters>
          </Trackpoint>
          <Trackpoint>
            <Time>2018-09-14T13:33:18.000Z</Time>
            <Position>
              <LatitudeDegrees>37.8536502085626125335693359375</LatitudeDegrees>
              <LongitudeDegrees>-8.13876955769956111907958984375</LongitudeDegrees>
            </Position>
            <AltitudeMeters>178.1999969482421875</AltitudeMeters>
            <DistanceMeters>278652.92645785</DistanceMeters>
          </Trackpoint>
          <Trackpoint>
            <Time>2018-09-14T13:33:19.000Z</Time>
            <Position>
              <LatitudeDegrees>37.853593043982982635498046875</LatitudeDegrees>
              <LongitudeDegrees>-8.1387488543987274169921875</LongitudeDegrees>
            </Position>
            <AltitudeMeters>178.1999969482421875</AltitudeMeters>
            <DistanceMeters>278659.54430272</DistanceMeters>
          </Trackpoint>
          <Trackpoint>
            <Time>2018-09-14T13:33:20.000Z</Time>
            <Position>
              <LatitudeDegrees>37.853535711765289306640625</LatitudeDegrees>
              <LongitudeDegrees>-8.1387285701930522918701171875</LongitudeDegrees>
            </Position>
            <AltitudeMeters>178.1999969482421875</AltitudeMeters>
            <DistanceMeters>278666.17032956</DistanceMeters>
          </Trackpoint>
          <Trackpoint>
            <Time>2018-09-14T13:33:21.000Z</Time>
            <Position>
              <LatitudeDegrees>37.85347946919500827789306640625</LatitudeDegrees>
              <LongitudeDegrees>-8.1387087889015674591064453125</LongitudeDegrees>
            </Position>
            <AltitudeMeters>178.1999969482421875</AltitudeMeters>
            <DistanceMeters>278672.66698849</DistanceMeters>
          </Trackpoint>
          <Trackpoint>
            <Time>2018-09-14T13:33:22.000Z</Time>
            <Position>
              <LatitudeDegrees>37.85342372953891754150390625</LatitudeDegrees>
              <LongitudeDegrees>-8.1386893428862094879150390625</LongitudeDegrees>
            </Position>
            <AltitudeMeters>178.1999969482421875</AltitudeMeters>
            <DistanceMeters>278679.10219871</DistanceMeters>
          </Trackpoint>
          <Trackpoint>
            <Time>2018-09-14T13:33:23.000Z</Time>
            <Position>
              <LatitudeDegrees>37.8533682413399219512939453125</LatitudeDegrees>
              <LongitudeDegrees>-8.13867065124213695526123046875</LongitudeDegrees>
            </Position>
            <AltitudeMeters>178.1999969482421875</AltitudeMeters>
            <DistanceMeters>278685.49234782</DistanceMeters>
          </Trackpoint>
          <Trackpoint>
            <Time>2018-09-14T13:33:24.000Z</Time>
            <Position>
              <LatitudeDegrees>37.85331384278833866119384765625</LatitudeDegrees>
              <LongitudeDegrees>-8.13865154050290584564208984375</LongitudeDegrees>
            </Position>
            <AltitudeMeters>178</AltitudeMeters>
            <DistanceMeters>278691.77490018</DistanceMeters>
          </Trackpoint>
          <Trackpoint>
            <Time>2018-09-14T13:33:25.000Z</Time>
            <Position>
              <LatitudeDegrees>37.85325969569385051727294921875</LatitudeDegrees>
              <LongitudeDegrees>-8.13863217830657958984375</LongitudeDegrees>
            </Position>
            <AltitudeMeters>178</AltitudeMeters>
            <DistanceMeters>278698.03657663</DistanceMeters>
          </Trackpoint>
          <Trackpoint>
            <Time>2018-09-14T13:33:26.000Z</Time>
            <Position>
              <LatitudeDegrees>37.85320571623742580413818359375</LatitudeDegrees>
              <LongitudeDegrees>-8.1386125646531581878662109375</LongitudeDegrees>
            </Position>
            <AltitudeMeters>177.8000030517578125</AltitudeMeters>
            <DistanceMeters>278704.28670548</DistanceMeters>
          </Trackpoint>
          <Trackpoint>
            <Time>2018-09-14T13:33:27.000Z</Time>
            <Position>
              <LatitudeDegrees>37.85315089859068393707275390625</LatitudeDegrees>
              <LongitudeDegrees>-8.13859320245683193206787109375</LongitudeDegrees>
            </Position>
            <AltitudeMeters>177.8000030517578125</AltitudeMeters>
            <DistanceMeters>278710.62007738</DistanceMeters>
          </Trackpoint>
          <Trackpoint>
            <Time>2018-09-14T13:33:28.000Z</Time>
            <Position>
              <LatitudeDegrees>37.85309574566781520843505859375</LatitudeDegrees>
              <LongitudeDegrees>-8.1385753490030765533447265625</LongitudeDegrees>
            </Position>
            <AltitudeMeters>177.8000030517578125</AltitudeMeters>
            <DistanceMeters>278716.9548749</DistanceMeters>
          </Trackpoint>
          <Trackpoint>
            <Time>2018-09-14T13:33:29.000Z</Time>
            <Position>
              <LatitudeDegrees>37.8530406765639781951904296875</LatitudeDegrees>
              <LongitudeDegrees>-8.138557411730289459228515625</LongitudeDegrees>
            </Position>
            <AltitudeMeters>177.8000030517578125</AltitudeMeters>
            <DistanceMeters>278723.28325456</DistanceMeters>
          </Trackpoint>
          <Trackpoint>
            <Time>2018-09-14T13:33:30.000Z</Time>
            <Position>
              <LatitudeDegrees>37.8529860265552997589111328125</LatitudeDegrees>
              <LongitudeDegrees>-8.13853905536234378814697265625</LongitudeDegrees>
            </Position>
            <AltitudeMeters>177.8000030517578125</AltitudeMeters>
            <DistanceMeters>278729.57586015</DistanceMeters>
          </Trackpoint>
          <Trackpoint>
            <Time>2018-09-14T13:33:31.000Z</Time>
            <Position>
              <LatitudeDegrees>37.8529317118227481842041015625</LatitudeDegrees>
              <LongitudeDegrees>-8.13851977698504924774169921875</LongitudeDegrees>
            </Position>
            <AltitudeMeters>177.8000030517578125</AltitudeMeters>
            <DistanceMeters>278735.85409905</DistanceMeters>
          </Trackpoint>
          <Trackpoint>
            <Time>2018-09-14T13:33:32.000Z</Time>
            <Position>
              <LatitudeDegrees>37.85287781618535518646240234375</LatitudeDegrees>
              <LongitudeDegrees>-8.13849999569356441497802734375</LongitudeDegrees>
            </Position>
            <AltitudeMeters>177.8000030517578125</AltitudeMeters>
            <DistanceMeters>278742.09989206</DistanceMeters>
          </Trackpoint>
          <Trackpoint>
            <Time>2018-09-14T13:33:33.000Z</Time>
            <Position>
              <LatitudeDegrees>37.85282383672893047332763671875</LatitudeDegrees>
              <LongitudeDegrees>-8.13847937621176242828369140625</LongitudeDegrees>
            </Position>
            <AltitudeMeters>177.8000030517578125</AltitudeMeters>
            <DistanceMeters>278748.37453414</DistanceMeters>
          </Trackpoint>
          <Trackpoint>
            <Time>2018-09-14T13:33:34.000Z</Time>
            <Position>
              <LatitudeDegrees>37.852769605815410614013671875</LatitudeDegrees>
              <LongitudeDegrees>-8.138459511101245880126953125</LongitudeDegrees>
            </Position>
            <AltitudeMeters>177.8000030517578125</AltitudeMeters>
            <DistanceMeters>278754.65780512</DistanceMeters>
          </Trackpoint>
          <Trackpoint>
            <Time>2018-09-14T13:33:35.000Z</Time>
            <Position>
              <LatitudeDegrees>37.85271470434963703155517578125</LatitudeDegrees>
              <LongitudeDegrees>-8.13843998126685619354248046875</LongitudeDegrees>
            </Position>
            <AltitudeMeters>177.8000030517578125</AltitudeMeters>
            <DistanceMeters>278761.0047076</DistanceMeters>
          </Trackpoint>
          <Trackpoint>
            <Time>2018-09-14T13:33:36.000Z</Time>
            <Position>
              <LatitudeDegrees>37.85265988670289516448974609375</LatitudeDegrees>
              <LongitudeDegrees>-8.13842053525149822235107421875</LongitudeDegrees>
            </Position>
            <AltitudeMeters>177.8000030517578125</AltitudeMeters>
            <DistanceMeters>278767.34093044</DistanceMeters>
          </Trackpoint>
          <Trackpoint>
            <Time>2018-09-14T13:33:37.000Z</Time>
            <Position>
              <LatitudeDegrees>37.85260490141808986663818359375</LatitudeDegrees>
              <LongitudeDegrees>-8.13840217888355255126953125</LongitudeDegrees>
            </Position>
            <AltitudeMeters>177.8000030517578125</AltitudeMeters>
            <DistanceMeters>278773.67002351</DistanceMeters>
          </Trackpoint>
          <Trackpoint>
            <Time>2018-09-14T13:33:38.000Z</Time>
            <Position>
              <LatitudeDegrees>37.85255008377134799957275390625</LatitudeDegrees>
              <LongitudeDegrees>-8.13838399015367031097412109375</LongitudeDegrees>
            </Position>
            <AltitudeMeters>177.8000030517578125</AltitudeMeters>
            <DistanceMeters>278779.97767892</DistanceMeters>
          </Trackpoint>
          <Trackpoint>
            <Time>2018-09-14T13:33:39.000Z</Time>
            <Position>
              <LatitudeDegrees>37.8524958528578281402587890625</LatitudeDegrees>
              <LongitudeDegrees>-8.13836471177637577056884765625</LongitudeDegrees>
            </Position>
            <AltitudeMeters>178.1999969482421875</AltitudeMeters>
            <DistanceMeters>278786.24656181</DistanceMeters>
          </Trackpoint>
          <Trackpoint>
            <Time>2018-09-14T13:33:40.000Z</Time>
            <Position>
              <LatitudeDegrees>37.8524412028491497039794921875</LatitudeDegrees>
              <LongitudeDegrees>-8.13834509812295436859130859375</LongitudeDegrees>
            </Position>
            <AltitudeMeters>178.600006103515625</AltitudeMeters>
            <DistanceMeters>278792.56851707</DistanceMeters>
          </Trackpoint>
          <Trackpoint>
            <Time>2018-09-14T13:33:41.000Z</Time>
            <Position>
              <LatitudeDegrees>37.8523855470120906829833984375</LatitudeDegrees>
              <LongitudeDegrees>-8.13832514919340610504150390625</LongitudeDegrees>
            </Position>
            <AltitudeMeters>178.8000030517578125</AltitudeMeters>
            <DistanceMeters>278799.00583179</DistanceMeters>
          </Trackpoint>
          <Trackpoint>
            <Time>2018-09-14T13:33:42.000Z</Time>
            <Position>
              <LatitudeDegrees>37.8523298911750316619873046875</LatitudeDegrees>
              <LongitudeDegrees>-8.138305284082889556884765625</LongitudeDegrees>
            </Position>
            <AltitudeMeters>179.1999969482421875</AltitudeMeters>
            <DistanceMeters>278805.44104201</DistanceMeters>
          </Trackpoint>
          <Trackpoint>
            <Time>2018-09-14T13:33:43.000Z</Time>
            <Position>
              <LatitudeDegrees>37.85227364860475063323974609375</LatitudeDegrees>
              <LongitudeDegrees>-8.13828550279140472412109375</LongitudeDegrees>
            </Position>
            <AltitudeMeters>179.399993896484375</AltitudeMeters>
            <DistanceMeters>278811.93839589</DistanceMeters>
          </Trackpoint>
          <Trackpoint>
            <Time>2018-09-14T13:33:44.000Z</Time>
            <Position>
              <LatitudeDegrees>37.85221748985350131988525390625</LatitudeDegrees>
              <LongitudeDegrees>-8.1382655538618564605712890625</LongitudeDegrees>
            </Position>
            <AltitudeMeters>179.8000030517578125</AltitudeMeters>
            <DistanceMeters>278818.43018815</DistanceMeters>
          </Trackpoint>
          <Trackpoint>
            <Time>2018-09-14T13:33:45.000Z</Time>
            <Position>
              <LatitudeDegrees>37.8521610796451568603515625</LatitudeDegrees>
              <LongitudeDegrees>-8.138245604932308197021484375</LongitudeDegrees>
            </Position>
            <AltitudeMeters>180.1999969482421875</AltitudeMeters>
            <DistanceMeters>278824.94904846</DistanceMeters>
          </Trackpoint>
          <Trackpoint>
            <Time>2018-09-14T13:33:46.000Z</Time>
            <Position>
              <LatitudeDegrees>37.85210383124649524688720703125</LatitudeDegrees>
              <LongitudeDegrees>-8.138226158916950225830078125</LongitudeDegrees>
            </Position>
            <AltitudeMeters>180.600006103515625</AltitudeMeters>
            <DistanceMeters>278831.54707836</DistanceMeters>
          </Trackpoint>
          <Trackpoint>
            <Time>2018-09-14T13:33:47.000Z</Time>
            <Position>
              <LatitudeDegrees>37.8520465828478336334228515625</LatitudeDegrees>
              <LongitudeDegrees>-8.1382072158157825469970703125</LongitudeDegrees>
            </Position>
            <AltitudeMeters>180.8000030517578125</AltitudeMeters>
            <DistanceMeters>278838.13346487</DistanceMeters>
          </Trackpoint>
          <Trackpoint>
            <Time>2018-09-14T13:33:48.000Z</Time>
            <Position>
              <LatitudeDegrees>37.85198983736336231231689453125</LatitudeDegrees>
              <LongitudeDegrees>-8.13818885944783687591552734375</LongitudeDegrees>
            </Position>
            <AltitudeMeters>181.1999969482421875</AltitudeMeters>
            <DistanceMeters>278844.65163253</DistanceMeters>
          </Trackpoint>
          <Trackpoint>
            <Time>2018-09-14T13:33:49.000Z</Time>
            <Position>
              <LatitudeDegrees>37.8519342653453350067138671875</LatitudeDegrees>
              <LongitudeDegrees>-8.13817008398473262786865234375</LongitudeDegrees>
            </Position>
            <AltitudeMeters>181.1999969482421875</AltitudeMeters>
            <DistanceMeters>278851.05307665</DistanceMeters>
          </Trackpoint>
          <Trackpoint>
            <Time>2018-09-14T13:33:50.000Z</Time>
            <Position>
              <LatitudeDegrees>37.851878441870212554931640625</LatitudeDegrees>
              <LongitudeDegrees>-8.13815080560743808746337890625</LongitudeDegrees>
            </Position>
            <AltitudeMeters>181</AltitudeMeters>
            <DistanceMeters>278857.49389735</DistanceMeters>
          </Trackpoint>
          <Trackpoint>
            <Time>2018-09-14T13:33:51.000Z</Time>
            <Position>
              <LatitudeDegrees>37.85182303749024868011474609375</LatitudeDegrees>
              <LongitudeDegrees>-8.138132281601428985595703125</LongitudeDegrees>
            </Position>
            <AltitudeMeters>181</AltitudeMeters>
            <DistanceMeters>278863.87273144</DistanceMeters>
          </Trackpoint>
          <Trackpoint>
            <Time>2018-09-14T13:33:52.000Z</Time>
            <Position>
              <LatitudeDegrees>37.8517676331102848052978515625</LatitudeDegrees>
              <LongitudeDegrees>-8.13811291940510272979736328125</LongitudeDegrees>
            </Position>
            <AltitudeMeters>180.8000030517578125</AltitudeMeters>
            <DistanceMeters>278870.26994228</DistanceMeters>
          </Trackpoint>
          <Trackpoint>
            <Time>2018-09-14T13:33:53.000Z</Time>
            <Position>
              <LatitudeDegrees>37.85171239636838436126708984375</LatitudeDegrees>
              <LongitudeDegrees>-8.138093054294586181640625</LongitudeDegrees>
            </Position>
            <AltitudeMeters>180.8000030517578125</AltitudeMeters>
            <DistanceMeters>278876.66079791</DistanceMeters>
          </Trackpoint>
          <Trackpoint>
            <Time>2018-09-14T13:33:54.000Z</Time>
            <Position>
              <LatitudeDegrees>37.8516569919884204864501953125</LatitudeDegrees>
              <LongitudeDegrees>-8.138073943555355072021484375</LongitudeDegrees>
            </Position>
            <AltitudeMeters>180.8000030517578125</AltitudeMeters>
            <DistanceMeters>278883.05235999</DistanceMeters>
          </Trackpoint>
          <Trackpoint>
            <Time>2018-09-14T13:33:55.000Z</Time>
            <Position>
              <LatitudeDegrees>37.8516013361513614654541015625</LatitudeDegrees>
              <LongitudeDegrees>-8.13805541954934597015380859375</LongitudeDegrees>
            </Position>
            <AltitudeMeters>181</AltitudeMeters>
            <DistanceMeters>278889.45803462</DistanceMeters>
          </Trackpoint>
          <Trackpoint>
            <Time>2018-09-14T13:33:56.000Z</Time>
            <Position>
              <LatitudeDegrees>37.85154526121914386749267578125</LatitudeDegrees>
              <LongitudeDegrees>-8.138036392629146575927734375</LongitudeDegrees>
            </Position>
            <AltitudeMeters>181</AltitudeMeters>
            <DistanceMeters>278895.91985119</DistanceMeters>
          </Trackpoint>
          <Trackpoint>
            <Time>2018-09-14T13:33:57.000Z</Time>
            <Position>
              <LatitudeDegrees>37.85148876719176769256591796875</LatitudeDegrees>
              <LongitudeDegrees>-8.13801736570894718170166015625</LongitudeDegrees>
            </Position>
            <AltitudeMeters>181</AltitudeMeters>
            <DistanceMeters>278902.42623255</DistanceMeters>
          </Trackpoint>
          <Trackpoint>
            <Time>2018-09-14T13:33:58.000Z</Time>
            <Position>
              <LatitudeDegrees>37.85143227316439151763916015625</LatitudeDegrees>
              <LongitudeDegrees>-8.137997500598430633544921875</LongitudeDegrees>
            </Position>
            <AltitudeMeters>181.1999969482421875</AltitudeMeters>
            <DistanceMeters>278908.9520153</DistanceMeters>
          </Trackpoint>
          <Trackpoint>
            <Time>2018-09-14T13:33:59.000Z</Time>
            <Position>
              <LatitudeDegrees>37.851375527679920196533203125</LatitudeDegrees>
              <LongitudeDegrees>-8.13797780312597751617431640625</LongitudeDegrees>
            </Position>
            <AltitudeMeters>181.1999969482421875</AltitudeMeters>
            <DistanceMeters>278915.50127962</DistanceMeters>
          </Trackpoint>
          <Trackpoint>
            <Time>2018-09-14T13:34:00.000Z</Time>
            <Position>
              <LatitudeDegrees>37.8513186983764171600341796875</LatitudeDegrees>
              <LongitudeDegrees>-8.13795802183449268341064453125</LongitudeDegrees>
            </Position>
            <AltitudeMeters>181.1999969482421875</AltitudeMeters>
            <DistanceMeters>278922.061565</DistanceMeters>
          </Trackpoint>
          <Trackpoint>
            <Time>2018-09-14T13:34:01.000Z</Time>
            <Position>
              <LatitudeDegrees>37.8512610308825969696044921875</LatitudeDegrees>
              <LongitudeDegrees>-8.1379386596381664276123046875</LongitudeDegrees>
            </Position>
            <AltitudeMeters>181.1999969482421875</AltitudeMeters>
            <DistanceMeters>278928.70256593</DistanceMeters>
          </Trackpoint>
          <Trackpoint>
            <Time>2018-09-14T13:34:02.000Z</Time>
            <Position>
              <LatitudeDegrees>37.85120311193168163299560546875</LatitudeDegrees>
              <LongitudeDegrees>-8.1379185430705547332763671875</LongitudeDegrees>
            </Position>
            <AltitudeMeters>181.1999969482421875</AltitudeMeters>
            <DistanceMeters>278935.38693713</DistanceMeters>
          </Trackpoint>
          <Trackpoint>
            <Time>2018-09-14T13:34:03.000Z</Time>
            <Position>
              <LatitudeDegrees>37.8511453606188297271728515625</LatitudeDegrees>
              <LongitudeDegrees>-8.13789767213165760040283203125</LongitudeDegrees>
            </Position>
            <AltitudeMeters>181.1999969482421875</AltitudeMeters>
            <DistanceMeters>278942.07198375</DistanceMeters>
          </Trackpoint>
          <Trackpoint>
            <Time>2018-09-14T13:34:04.000Z</Time>
            <Position>
              <LatitudeDegrees>37.851087190210819244384765625</LatitudeDegrees>
              <LongitudeDegrees>-8.13787738792598247528076171875</LongitudeDegrees>
            </Position>
            <AltitudeMeters>181.1999969482421875</AltitudeMeters>
            <DistanceMeters>278948.78735431</DistanceMeters>
          </Trackpoint>
          <Trackpoint>
            <Time>2018-09-14T13:34:05.000Z</Time>
            <Position>
              <LatitudeDegrees>37.85102943889796733856201171875</LatitudeDegrees>
              <LongitudeDegrees>-8.13785559497773647308349609375</LongitudeDegrees>
            </Position>
            <AltitudeMeters>181.1999969482421875</AltitudeMeters>
            <DistanceMeters>278955.49465189</DistanceMeters>
          </Trackpoint>
          <Trackpoint>
            <Time>2018-09-14T13:34:06.000Z</Time>
            <Position>
              <LatitudeDegrees>37.85097210668027400970458984375</LatitudeDegrees>
              <LongitudeDegrees>-8.13783313147723674774169921875</LongitudeDegrees>
            </Position>
            <AltitudeMeters>181.1999969482421875</AltitudeMeters>
            <DistanceMeters>278962.1736172</DistanceMeters>
          </Trackpoint>
          <Trackpoint>
            <Time>2018-09-14T13:34:07.000Z</Time>
            <Position>
              <LatitudeDegrees>37.85091427154839038848876953125</LatitudeDegrees>
              <LongitudeDegrees>-8.13781133852899074554443359375</LongitudeDegrees>
            </Position>
            <AltitudeMeters>181.1999969482421875</AltitudeMeters>
            <DistanceMeters>278968.89033231</DistanceMeters>
          </Trackpoint>
          <Trackpoint>
            <Time>2018-09-14T13:34:08.000Z</Time>
            <Position>
              <LatitudeDegrees>37.85085551440715789794921875</LatitudeDegrees>
              <LongitudeDegrees>-8.13779004849493503570556640625</LongitudeDegrees>
            </Position>
            <AltitudeMeters>181</AltitudeMeters>
            <DistanceMeters>278975.69254605</DistanceMeters>
          </Trackpoint>
          <Trackpoint>
            <Time>2018-09-14T13:34:09.000Z</Time>
            <Position>
              <LatitudeDegrees>37.85079625435173511505126953125</LatitudeDegrees>
              <LongitudeDegrees>-8.1377686746418476104736328125</LongitudeDegrees>
            </Position>
            <AltitudeMeters>180.600006103515625</AltitudeMeters>
            <DistanceMeters>278982.55028898</DistanceMeters>
          </Trackpoint>
          <Trackpoint>
            <Time>2018-09-14T13:34:10.000Z</Time>
            <Position>
              <LatitudeDegrees>37.8507373295724391937255859375</LatitudeDegrees>
              <LongitudeDegrees>-8.1377475522458553314208984375</LongitudeDegrees>
            </Position>
            <AltitudeMeters>180.399993896484375</AltitudeMeters>
            <DistanceMeters>278989.36576499</DistanceMeters>
          </Trackpoint>
          <Trackpoint>
            <Time>2018-09-14T13:34:11.000Z</Time>
            <Position>
              <LatitudeDegrees>37.8506786562502384185791015625</LatitudeDegrees>
              <LongitudeDegrees>-8.13772751949727535247802734375</LongitudeDegrees>
            </Position>
            <AltitudeMeters>180.399993896484375</AltitudeMeters>
            <DistanceMeters>278996.12937107</DistanceMeters>
          </Trackpoint>
          <Trackpoint>
            <Time>2018-09-14T13:34:12.000Z</Time>
            <Position>
              <LatitudeDegrees>37.85062023438513278961181640625</LatitudeDegrees>
              <LongitudeDegrees>-8.13770874403417110443115234375</LongitudeDegrees>
            </Position>
            <AltitudeMeters>180.600006103515625</AltitudeMeters>
            <DistanceMeters>279002.83801483</DistanceMeters>
          </Trackpoint>
          <Trackpoint>
            <Time>2018-09-14T13:34:13.000Z</Time>
            <Position>
              <LatitudeDegrees>37.8505611419677734375</LatitudeDegrees>
              <LongitudeDegrees>-8.137690387666225433349609375</LongitudeDegrees>
            </Position>
            <AltitudeMeters>180.600006103515625</AltitudeMeters>
            <DistanceMeters>279009.60962676</DistanceMeters>
          </Trackpoint>
          <Trackpoint>
            <Time>2018-09-14T13:34:14.000Z</Time>
            <Position>
              <LatitudeDegrees>37.85050221718847751617431640625</LatitudeDegrees>
              <LongitudeDegrees>-8.1376697681844234466552734375</LongitudeDegrees>
            </Position>
            <AltitudeMeters>180.8000030517578125</AltitudeMeters>
            <DistanceMeters>279016.41316789</DistanceMeters>
          </Trackpoint>
          <Trackpoint>
            <Time>2018-09-14T13:34:15.000Z</Time>
            <Position>
              <LatitudeDegrees>37.850444130599498748779296875</LatitudeDegrees>
              <LongitudeDegrees>-8.1376489810645580291748046875</LongitudeDegrees>
            </Position>
            <AltitudeMeters>180.8000030517578125</AltitudeMeters>
            <DistanceMeters>279023.1325713</DistanceMeters>
          </Trackpoint>
          <Trackpoint>
            <Time>2018-09-14T13:34:16.000Z</Time>
            <Position>
              <LatitudeDegrees>37.85038612782955169677734375</LatitudeDegrees>
              <LongitudeDegrees>-8.13762995414435863494873046875</LongitudeDegrees>
            </Position>
            <AltitudeMeters>181</AltitudeMeters>
            <DistanceMeters>279029.80206577</DistanceMeters>
          </Trackpoint>
          <Trackpoint>
            <Time>2018-09-14T13:34:17.000Z</Time>
            <Position>
              <LatitudeDegrees>37.85032871179282665252685546875</LatitudeDegrees>
              <LongitudeDegrees>-8.13761101104319095611572265625</LongitudeDegrees>
            </Position>
            <AltitudeMeters>181</AltitudeMeters>
            <DistanceMeters>279036.40625151</DistanceMeters>
          </Trackpoint>
          <Trackpoint>
            <Time>2018-09-14T13:34:18.000Z</Time>
            <Position>
              <LatitudeDegrees>37.85027154721319675445556640625</LatitudeDegrees>
              <LongitudeDegrees>-8.13759022392332553863525390625</LongitudeDegrees>
            </Position>
            <AltitudeMeters>181.1999969482421875</AltitudeMeters>
            <DistanceMeters>279043.02614282</DistanceMeters>
          </Trackpoint>
          <Trackpoint>
            <Time>2018-09-14T13:34:19.000Z</Time>
            <Position>
              <LatitudeDegrees>37.85021505318582057952880859375</LatitudeDegrees>
              <LongitudeDegrees>-8.13756859861314296722412109375</LongitudeDegrees>
            </Position>
            <AltitudeMeters>181.399993896484375</AltitudeMeters>
            <DistanceMeters>279049.59536921</DistanceMeters>
          </Trackpoint>
          <Trackpoint>
            <Time>2018-09-14T13:34:20.000Z</Time>
            <Position>
              <LatitudeDegrees>37.85015872679650783538818359375</LatitudeDegrees>
              <LongitudeDegrees>-8.1375473923981189727783203125</LongitudeDegrees>
            </Position>
            <AltitudeMeters>181.600006103515625</AltitudeMeters>
            <DistanceMeters>279056.13635554</DistanceMeters>
          </Trackpoint>
          <Trackpoint>
            <Time>2018-09-14T13:34:21.000Z</Time>
            <Position>
              <LatitudeDegrees>37.850103490054607391357421875</LatitudeDegrees>
              <LongitudeDegrees>-8.13752668909728527069091796875</LongitudeDegrees>
            </Position>
            <AltitudeMeters>181.8000030517578125</AltitudeMeters>
            <DistanceMeters>279062.54837067</DistanceMeters>
          </Trackpoint>
          <Trackpoint>
            <Time>2018-09-14T13:34:22.000Z</Time>
            <Position>
              <LatitudeDegrees>37.85004858858883380889892578125</LatitudeDegrees>
              <LongitudeDegrees>-8.137504644691944122314453125</LongitudeDegrees>
            </Position>
            <AltitudeMeters>182</AltitudeMeters>
            <DistanceMeters>279068.95968161</DistanceMeters>
          </Trackpoint>
          <Trackpoint>
            <Time>2018-09-14T13:34:23.000Z</Time>
            <Position>
              <LatitudeDegrees>37.84999452531337738037109375</LatitudeDegrees>
              <LongitudeDegrees>-8.13748058862984180450439453125</LongitudeDegrees>
            </Position>
            <AltitudeMeters>182.1999969482421875</AltitudeMeters>
            <DistanceMeters>279075.33709992</DistanceMeters>
          </Trackpoint>
          <Trackpoint>
            <Time>2018-09-14T13:34:24.000Z</Time>
            <Position>
              <LatitudeDegrees>37.84993962384760379791259765625</LatitudeDegrees>
              <LongitudeDegrees>-8.1374558620154857635498046875</LongitudeDegrees>
            </Position>
            <AltitudeMeters>182.399993896484375</AltitudeMeters>
            <DistanceMeters>279081.82262967</DistanceMeters>
          </Trackpoint>
          <Trackpoint>
            <Time>2018-09-14T13:34:25.000Z</Time>
            <Position>
              <LatitudeDegrees>37.84988480620086193084716796875</LatitudeDegrees>
              <LongitudeDegrees>-8.13743163831532001495361328125</LongitudeDegrees>
            </Position>
            <AltitudeMeters>182.600006103515625</AltitudeMeters>
            <DistanceMeters>279088.28514493</DistanceMeters>
          </Trackpoint>
          <Trackpoint>
            <Time>2018-09-14T13:34:26.000Z</Time>
            <Position>
              <LatitudeDegrees>37.84982982091605663299560546875</LatitudeDegrees>
              <LongitudeDegrees>-8.13740833662450313568115234375</LongitudeDegrees>
            </Position>
            <AltitudeMeters>182.8000030517578125</AltitudeMeters>
            <DistanceMeters>279094.73997047</DistanceMeters>
          </Trackpoint>
          <Trackpoint>
            <Time>2018-09-14T13:34:27.000Z</Time>
            <Position>
              <LatitudeDegrees>37.8497740812599658966064453125</LatitudeDegrees>
              <LongitudeDegrees>-8.1373837776482105255126953125</LongitudeDegrees>
            </Position>
            <AltitudeMeters>183</AltitudeMeters>
            <DistanceMeters>279101.30850952</DistanceMeters>
          </Trackpoint>
          <Trackpoint>
            <Time>2018-09-14T13:34:28.000Z</Time>
            <Position>
              <LatitudeDegrees>37.849718593060970306396484375</LatitudeDegrees>
              <LongitudeDegrees>-8.13735586591064929962158203125</LongitudeDegrees>
            </Position>
            <AltitudeMeters>183.399993896484375</AltitudeMeters>
            <DistanceMeters>279107.95358844</DistanceMeters>
          </Trackpoint>
          <Trackpoint>
            <Time>2018-09-14T13:34:29.000Z</Time>
            <Position>
              <LatitudeDegrees>37.84966385923326015472412109375</LatitudeDegrees>
              <LongitudeDegrees>-8.1373251043260097503662109375</LongitudeDegrees>
            </Position>
            <AltitudeMeters>183.600006103515625</AltitudeMeters>
            <DistanceMeters>279114.61834245</DistanceMeters>
          </Trackpoint>
          <Trackpoint>
            <Time>2018-09-14T13:34:30.000Z</Time>
            <Position>
              <LatitudeDegrees>37.84960904158651828765869140625</LatitudeDegrees>
              <LongitudeDegrees>-8.13729451037943363189697265625</LongitudeDegrees>
            </Position>
            <AltitudeMeters>183.8000030517578125</AltitudeMeters>
            <DistanceMeters>279121.28648285</DistanceMeters>
          </Trackpoint>
          <Trackpoint>
            <Time>2018-09-14T13:34:31.000Z</Time>
            <Position>
              <LatitudeDegrees>37.8495551459491252899169921875</LatitudeDegrees>
              <LongitudeDegrees>-8.13726232387125492095947265625</LongitudeDegrees>
            </Position>
            <AltitudeMeters>184</AltitudeMeters>
            <DistanceMeters>279127.91863954</DistanceMeters>
          </Trackpoint>
          <Trackpoint>
            <Time>2018-09-14T13:34:32.000Z</Time>
            <Position>
              <LatitudeDegrees>37.849502004683017730712890625</LatitudeDegrees>
              <LongitudeDegrees>-8.13722829334437847137451171875</LongitudeDegrees>
            </Position>
            <AltitudeMeters>184.399993896484375</AltitudeMeters>
            <DistanceMeters>279134.54739146</DistanceMeters>
          </Trackpoint>
          <Trackpoint>
            <Time>2018-09-14T13:34:33.000Z</Time>
            <Position>
              <LatitudeDegrees>37.84944861195981502532958984375</LatitudeDegrees>
              <LongitudeDegrees>-8.137193508446216583251953125</LongitudeDegrees>
            </Position>
            <AltitudeMeters>184.600006103515625</AltitudeMeters>
            <DistanceMeters>279141.23041159</DistanceMeters>
          </Trackpoint>
          <Trackpoint>
            <Time>2018-09-14T13:34:34.000Z</Time>
            <Position>
              <LatitudeDegrees>37.849396057426929473876953125</LatitudeDegrees>
              <LongitudeDegrees>-8.137157969176769256591796875</LongitudeDegrees>
            </Position>
            <AltitudeMeters>185</AltitudeMeters>
            <DistanceMeters>279147.86188746</DistanceMeters>
          </Trackpoint>
          <Trackpoint>
            <Time>2018-09-14T13:34:35.000Z</Time>
            <Position>
              <LatitudeDegrees>37.84934450872242450714111328125</LatitudeDegrees>
              <LongitudeDegrees>-8.137121088802814483642578125</LongitudeDegrees>
            </Position>
            <AltitudeMeters>185.1999969482421875</AltitudeMeters>
            <DistanceMeters>279154.45101544</DistanceMeters>
          </Trackpoint>
          <Trackpoint>
            <Time>2018-09-14T13:34:36.000Z</Time>
            <Position>
              <LatitudeDegrees>37.84929337911307811737060546875</LatitudeDegrees>
              <LongitudeDegrees>-8.1370833702385425567626953125</LongitudeDegrees>
            </Position>
            <AltitudeMeters>185.600006103515625</AltitudeMeters>
            <DistanceMeters>279161.03740195</DistanceMeters>
          </Trackpoint>
          <Trackpoint>
            <Time>2018-09-14T13:34:37.000Z</Time>
            <Position>
              <LatitudeDegrees>37.84924308769404888153076171875</LatitudeDegrees>
              <LongitudeDegrees>-8.1370454840362071990966796875</LongitudeDegrees>
            </Position>
            <AltitudeMeters>185.8000030517578125</AltitudeMeters>
            <DistanceMeters>279167.55071901</DistanceMeters>
          </Trackpoint>
          <Trackpoint>
            <Time>2018-09-14T13:34:38.000Z</Time>
            <Position>
              <LatitudeDegrees>37.849194221198558807373046875</LatitudeDegrees>
              <LongitudeDegrees>-8.1370072625577449798583984375</LongitudeDegrees>
            </Position>
            <AltitudeMeters>186</AltitudeMeters>
            <DistanceMeters>279173.94369375</DistanceMeters>
          </Trackpoint>
          <Trackpoint>
            <Time>2018-09-14T13:34:39.000Z</Time>
            <Position>
              <LatitudeDegrees>37.84914501942694187164306640625</LatitudeDegrees>
              <LongitudeDegrees>-8.1369703821837902069091796875</LongitudeDegrees>
            </Position>
            <AltitudeMeters>186.1999969482421875</AltitudeMeters>
            <DistanceMeters>279180.30693685</DistanceMeters>
          </Trackpoint>
          <Trackpoint>
            <Time>2018-09-14T13:34:40.000Z</Time>
            <Position>
              <LatitudeDegrees>37.84909623675048351287841796875</LatitudeDegrees>
              <LongitudeDegrees>-8.1369341723620891571044921875</LongitudeDegrees>
            </Position>
            <AltitudeMeters>186.399993896484375</AltitudeMeters>
            <DistanceMeters>279186.60025992</DistanceMeters>
          </Trackpoint>
          <Trackpoint>
            <Time>2018-09-14T13:34:41.000Z</Time>
            <Position>
              <LatitudeDegrees>37.84904829226434230804443359375</LatitudeDegrees>
              <LongitudeDegrees>-8.13689745962619781494140625</LongitudeDegrees>
            </Position>
            <AltitudeMeters>186.399993896484375</AltitudeMeters>
            <DistanceMeters>279192.83592422</DistanceMeters>
          </Trackpoint>
          <Trackpoint>
            <Time>2018-09-14T13:34:42.000Z</Time>
            <Position>
              <LatitudeDegrees>37.8490012697875499725341796875</LatitudeDegrees>
              <LongitudeDegrees>-8.13686066307127475738525390625</LongitudeDegrees>
            </Position>
            <AltitudeMeters>186.399993896484375</AltitudeMeters>
            <DistanceMeters>279198.98775731</DistanceMeters>
          </Trackpoint>
          <Trackpoint>
            <Time>2018-09-14T13:34:43.000Z</Time>
            <Position>
              <LatitudeDegrees>37.8489560075104236602783203125</LatitudeDegrees>
              <LongitudeDegrees>-8.13682378269731998443603515625</LongitudeDegrees>
            </Position>
            <AltitudeMeters>186.399993896484375</AltitudeMeters>
            <DistanceMeters>279204.97821003</DistanceMeters>
          </Trackpoint>
          <Trackpoint>
            <Time>2018-09-14T13:34:44.000Z</Time>
            <Position>
              <LatitudeDegrees>37.84891217015683650970458984375</LatitudeDegrees>
              <LongitudeDegrees>-8.13678824342787265777587890625</LongitudeDegrees>
            </Position>
            <AltitudeMeters>186.399993896484375</AltitudeMeters>
            <DistanceMeters>279210.77250241</DistanceMeters>
          </Trackpoint>
          <Trackpoint>
            <Time>2018-09-14T13:34:45.000Z</Time>
            <Position>
              <LatitudeDegrees>37.84886992536485195159912109375</LatitudeDegrees>
              <LongitudeDegrees>-8.13675463199615478515625</LongitudeDegrees>
            </Position>
            <AltitudeMeters>186.600006103515625</AltitudeMeters>
            <DistanceMeters>279216.32486056</DistanceMeters>
          </Trackpoint>
          <Trackpoint>
            <Time>2018-09-14T13:34:46.000Z</Time>
            <Position>
              <LatitudeDegrees>37.8488289378583431243896484375</LatitudeDegrees>
              <LongitudeDegrees>-8.13672219403088092803955078125</LongitudeDegrees>
            </Position>
            <AltitudeMeters>186.8000030517578125</AltitudeMeters>
            <DistanceMeters>279221.70374194</DistanceMeters>
          </Trackpoint>
          <Trackpoint>
            <Time>2018-09-14T13:34:47.000Z</Time>
            <Position>
              <LatitudeDegrees>37.84878912381827831268310546875</LatitudeDegrees>
              <LongitudeDegrees>-8.13669025897979736328125</LongitudeDegrees>
            </Position>
            <AltitudeMeters>187</AltitudeMeters>
            <DistanceMeters>279226.94832132</DistanceMeters>
          </Trackpoint>
          <Trackpoint>
            <Time>2018-09-14T13:34:48.000Z</Time>
            <Position>
              <LatitudeDegrees>37.8487498126924037933349609375</LatitudeDegrees>
              <LongitudeDegrees>-8.13666000030934810638427734375</LongitudeDegrees>
            </Position>
            <AltitudeMeters>187.1999969482421875</AltitudeMeters>
            <DistanceMeters>279232.06743079</DistanceMeters>
          </Trackpoint>
          <Trackpoint>
            <Time>2018-09-14T13:34:49.000Z</Time>
            <Position>
              <LatitudeDegrees>37.84871234558522701263427734375</LatitudeDegrees>
              <LongitudeDegrees>-8.13662982545793056488037109375</LongitudeDegrees>
            </Position>
            <AltitudeMeters>187.399993896484375</AltitudeMeters>
            <DistanceMeters>279237.01064704</DistanceMeters>
          </Trackpoint>
          <Trackpoint>
            <Time>2018-09-14T13:34:50.000Z</Time>
            <Position>
              <LatitudeDegrees>37.84867647103965282440185546875</LatitudeDegrees>
              <LongitudeDegrees>-8.13659847714006900787353515625</LongitudeDegrees>
            </Position>
            <AltitudeMeters>187.8000030517578125</AltitudeMeters>
            <DistanceMeters>279241.86166541</DistanceMeters>
          </Trackpoint>
          <Trackpoint>
            <Time>2018-09-14T13:34:51.000Z</Time>
            <Position>
              <LatitudeDegrees>37.8486401773989200592041015625</LatitudeDegrees>
              <LongitudeDegrees>-8.1365700624883174896240234375</LongitudeDegrees>
            </Position>
            <AltitudeMeters>188</AltitudeMeters>
            <DistanceMeters>279246.61110021</DistanceMeters>
          </Trackpoint>
          <Trackpoint>
            <Time>2018-09-14T13:34:52.000Z</Time>
            <Position>
              <LatitudeDegrees>37.84860438667237758636474609375</LatitudeDegrees>
              <LongitudeDegrees>-8.13654248602688312530517578125</LongitudeDegrees>
            </Position>
            <AltitudeMeters>188.1999969482421875</AltitudeMeters>
            <DistanceMeters>279251.2741919</DistanceMeters>
          </Trackpoint>
          <Trackpoint>
            <Time>2018-09-14T13:34:53.000Z</Time>
            <Position>
              <LatitudeDegrees>37.84856935031712055206298828125</LatitudeDegrees>
              <LongitudeDegrees>-8.136514239013195037841796875</LongitudeDegrees>
            </Position>
            <AltitudeMeters>188.600006103515625</AltitudeMeters>
            <DistanceMeters>279255.8983914</DistanceMeters>
          </Trackpoint>
          <Trackpoint>
            <Time>2018-09-14T13:34:54.000Z</Time>
            <Position>
              <LatitudeDegrees>37.8485347330570220947265625</LatitudeDegrees>
              <LongitudeDegrees>-8.13648708164691925048828125</LongitudeDegrees>
            </Position>
            <AltitudeMeters>188.8000030517578125</AltitudeMeters>
            <DistanceMeters>279260.42988054</DistanceMeters>
          </Trackpoint>
          <Trackpoint>
            <Time>2018-09-14T13:34:55.000Z</Time>
            <Position>
              <LatitudeDegrees>37.84850078634917736053466796875</LatitudeDegrees>
              <LongitudeDegrees>-8.13645916990935802459716796875</LongitudeDegrees>
            </Position>
            <AltitudeMeters>189.1999969482421875</AltitudeMeters>
            <DistanceMeters>279264.93538959</DistanceMeters>
          </Trackpoint>
          <Trackpoint>
            <Time>2018-09-14T13:34:56.000Z</Time>
            <Position>
              <LatitudeDegrees>37.8484678454697132110595703125</LatitudeDegrees>
              <LongitudeDegrees>-8.13642966561019420623779296875</LongitudeDegrees>
            </Position>
            <AltitudeMeters>189.600006103515625</AltitudeMeters>
            <DistanceMeters>279269.42483618</DistanceMeters>
          </Trackpoint>
          <Trackpoint>
            <Time>2018-09-14T13:34:57.000Z</Time>
            <Position>
              <LatitudeDegrees>37.84843557514250278472900390625</LatitudeDegrees>
              <LongitudeDegrees>-8.1364014185965061187744140625</LongitudeDegrees>
            </Position>
            <AltitudeMeters>190</AltitudeMeters>
            <DistanceMeters>279273.79193149</DistanceMeters>
          </Trackpoint>
          <Trackpoint>
            <Time>2018-09-14T13:34:58.000Z</Time>
            <Position>
              <LatitudeDegrees>37.848402298986911773681640625</LatitudeDegrees>
              <LongitudeDegrees>-8.13637535087764263153076171875</LongitudeDegrees>
            </Position>
            <AltitudeMeters>190.1999969482421875</AltitudeMeters>
            <DistanceMeters>279278.1466026</DistanceMeters>
          </Trackpoint>
          <Trackpoint>
            <Time>2018-09-14T13:34:59.000Z</Time>
            <Position>
              <LatitudeDegrees>37.84836969338357448577880859375</LatitudeDegrees>
              <LongitudeDegrees>-8.136349283158779144287109375</LongitudeDegrees>
            </Position>
            <AltitudeMeters>190.600006103515625</AltitudeMeters>
            <DistanceMeters>279282.43756122</DistanceMeters>
          </Trackpoint>
          <Trackpoint>
            <Time>2018-09-14T13:35:00.000Z</Time>
            <Position>
              <LatitudeDegrees>37.84833717159926891326904296875</LatitudeDegrees>
              <LongitudeDegrees>-8.1363229639828205108642578125</LongitudeDegrees>
            </Position>
            <AltitudeMeters>190.8000030517578125</AltitudeMeters>
            <DistanceMeters>279286.73272667</DistanceMeters>
          </Trackpoint>
          <Trackpoint>
            <Time>2018-09-14T13:35:01.000Z</Time>
            <Position>
              <LatitudeDegrees>37.8483042307198047637939453125</LatitudeDegrees>
              <LongitudeDegrees>-8.13629572279751300811767578125</LongitudeDegrees>
            </Position>
            <AltitudeMeters>191.1999969482421875</AltitudeMeters>
            <DistanceMeters>279291.11221092</DistanceMeters>
          </Trackpoint>
          <Trackpoint>
            <Time>2018-09-14T13:35:02.000Z</Time>
            <Position>
              <LatitudeDegrees>37.8482707031071186065673828125</LatitudeDegrees>
              <LongitudeDegrees>-8.13626873306930065155029296875</LongitudeDegrees>
            </Position>
            <AltitudeMeters>191.399993896484375</AltitudeMeters>
            <DistanceMeters>279295.5347832</DistanceMeters>
          </Trackpoint>
          <Trackpoint>
            <Time>2018-09-14T13:35:03.000Z</Time>
            <Position>
              <LatitudeDegrees>37.84823792986571788787841796875</LatitudeDegrees>
              <LongitudeDegrees>-8.13624140806496143341064453125</LongitudeDegrees>
            </Position>
            <AltitudeMeters>191.600006103515625</AltitudeMeters>
            <DistanceMeters>279299.90187851</DistanceMeters>
          </Trackpoint>
          <Trackpoint>
            <Time>2018-09-14T13:35:04.000Z</Time>
            <Position>
              <LatitudeDegrees>37.84820415079593658447265625</LatitudeDegrees>
              <LongitudeDegrees>-8.13621441833674907684326171875</LongitudeDegrees>
            </Position>
            <AltitudeMeters>192</AltitudeMeters>
            <DistanceMeters>279304.34786967</DistanceMeters>
          </Trackpoint>
          <Trackpoint>
            <Time>2018-09-14T13:35:05.000Z</Time>
            <Position>
              <LatitudeDegrees>37.8481704555451869964599609375</LatitudeDegrees>
              <LongitudeDegrees>-8.1361871771514415740966796875</LongitudeDegrees>
            </Position>
            <AltitudeMeters>192.1999969482421875</AltitudeMeters>
            <DistanceMeters>279308.79690637</DistanceMeters>
          </Trackpoint>
          <Trackpoint>
            <Time>2018-09-14T13:35:06.000Z</Time>
            <Position>
              <LatitudeDegrees>37.84813768230378627777099609375</LatitudeDegrees>
              <LongitudeDegrees>-8.13615960069000720977783203125</LongitudeDegrees>
            </Position>
            <AltitudeMeters>192.399993896484375</AltitudeMeters>
            <DistanceMeters>279313.17639063</DistanceMeters>
          </Trackpoint>
          <Trackpoint>
            <Time>2018-09-14T13:35:07.000Z</Time>
            <Position>
              <LatitudeDegrees>37.84810549579560756683349609375</LatitudeDegrees>
              <LongitudeDegrees>-8.13613034784793853759765625</LongitudeDegrees>
            </Position>
            <AltitudeMeters>192.600006103515625</AltitudeMeters>
            <DistanceMeters>279317.58567113</DistanceMeters>
          </Trackpoint>
          <Trackpoint>
            <Time>2018-09-14T13:35:08.000Z</Time>
            <Position>
              <LatitudeDegrees>37.84807347692549228668212890625</LatitudeDegrees>
              <LongitudeDegrees>-8.1361015141010284423828125</LongitudeDegrees>
            </Position>
            <AltitudeMeters>192.8000030517578125</AltitudeMeters>
            <DistanceMeters>279321.9589653</DistanceMeters>
          </Trackpoint>
          <Trackpoint>
            <Time>2018-09-14T13:35:09.000Z</Time>
            <Position>
              <LatitudeDegrees>37.84804045222699642181396484375</LatitudeDegrees>
              <LongitudeDegrees>-8.13607460819184780120849609375</LongitudeDegrees>
            </Position>
            <AltitudeMeters>193</AltitudeMeters>
            <DistanceMeters>279326.33019417</DistanceMeters>
          </Trackpoint>
          <Trackpoint>
            <Time>2018-09-14T13:35:10.000Z</Time>
            <Position>
              <LatitudeDegrees>37.84800675697624683380126953125</LatitudeDegrees>
              <LongitudeDegrees>-8.13604845665395259857177734375</LongitudeDegrees>
            </Position>
            <AltitudeMeters>193.1999969482421875</AltitudeMeters>
            <DistanceMeters>279330.72819641</DistanceMeters>
          </Trackpoint>
          <Trackpoint>
            <Time>2018-09-14T13:35:11.000Z</Time>
            <Position>
              <LatitudeDegrees>37.84797272644937038421630859375</LatitudeDegrees>
              <LongitudeDegrees>-8.1360232271254062652587890625</LongitudeDegrees>
            </Position>
            <AltitudeMeters>193.399993896484375</AltitudeMeters>
            <DistanceMeters>279335.11694943</DistanceMeters>
          </Trackpoint>
          <Trackpoint>
            <Time>2018-09-14T13:35:12.000Z</Time>
            <Position>
              <LatitudeDegrees>37.8479392826557159423828125</LatitudeDegrees>
              <LongitudeDegrees>-8.13599749468266963958740234375</LongitudeDegrees>
            </Position>
            <AltitudeMeters>193.600006103515625</AltitudeMeters>
            <DistanceMeters>279339.47162054</DistanceMeters>
          </Trackpoint>
          <Trackpoint>
            <Time>2018-09-14T13:35:13.000Z</Time>
            <Position>
              <LatitudeDegrees>37.84790642559528350830078125</LatitudeDegrees>
              <LongitudeDegrees>-8.13597167842090129852294921875</LongitudeDegrees>
            </Position>
            <AltitudeMeters>193.8000030517578125</AltitudeMeters>
            <DistanceMeters>279343.7751873</DistanceMeters>
          </Trackpoint>
          <Trackpoint>
            <Time>2018-09-14T13:35:14.000Z</Time>
            <Position>
              <LatitudeDegrees>37.84787465818226337432861328125</LatitudeDegrees>
              <LongitudeDegrees>-8.1359451077878475189208984375</LongitudeDegrees>
            </Position>
            <AltitudeMeters>194</AltitudeMeters>
            <DistanceMeters>279348.0121428</DistanceMeters>
          </Trackpoint>
          <Trackpoint>
            <Time>2018-09-14T13:35:15.000Z</Time>
            <Position>
              <LatitudeDegrees>37.84784280695021152496337890625</LatitudeDegrees>
              <LongitudeDegrees>-8.1359189562499523162841796875</LongitudeDegrees>
            </Position>
            <AltitudeMeters>194.1999969482421875</AltitudeMeters>
            <DistanceMeters>279352.23736009</DistanceMeters>
          </Trackpoint>
          <Trackpoint>
            <Time>2018-09-14T13:35:16.000Z</Time>
            <Position>
              <LatitudeDegrees>37.84781145863234996795654296875</LatitudeDegrees>
              <LongitudeDegrees>-8.1358931399881839752197265625</LongitudeDegrees>
            </Position>
            <AltitudeMeters>194.399993896484375</AltitudeMeters>
            <DistanceMeters>279356.39905285</DistanceMeters>
          </Trackpoint>
          <Trackpoint>
            <Time>2018-09-14T13:35:17.000Z</Time>
            <Position>
              <LatitudeDegrees>37.84778011031448841094970703125</LatitudeDegrees>
              <LongitudeDegrees>-8.135866485536098480224609375</LongitudeDegrees>
            </Position>
            <AltitudeMeters>194.8000030517578125</AltitudeMeters>
            <DistanceMeters>279360.60284395</DistanceMeters>
          </Trackpoint>
          <Trackpoint>
            <Time>2018-09-14T13:35:18.000Z</Time>
            <Position>
              <LatitudeDegrees>37.8477490134537220001220703125</LatitudeDegrees>
              <LongitudeDegrees>-8.13583924435079097747802734375</LongitudeDegrees>
            </Position>
            <AltitudeMeters>195</AltitudeMeters>
            <DistanceMeters>279364.81307435</DistanceMeters>
          </Trackpoint>
          <Trackpoint>
            <Time>2018-09-14T13:35:19.000Z</Time>
            <Position>
              <LatitudeDegrees>37.847717665135860443115234375</LatitudeDegrees>
              <LongitudeDegrees>-8.13581258989870548248291015625</LongitudeDegrees>
            </Position>
            <AltitudeMeters>195.399993896484375</AltitudeMeters>
            <DistanceMeters>279369.01686545</DistanceMeters>
          </Trackpoint>
          <Trackpoint>
            <Time>2018-09-14T13:35:20.000Z</Time>
            <Position>
              <LatitudeDegrees>37.84768648445606231689453125</LatitudeDegrees>
              <LongitudeDegrees>-8.13578610308468341827392578125</LongitudeDegrees>
            </Position>
            <AltitudeMeters>195.600006103515625</AltitudeMeters>
            <DistanceMeters>279373.19588063</DistanceMeters>
          </Trackpoint>
          <Trackpoint>
            <Time>2018-09-14T13:35:21.000Z</Time>
            <Position>
              <LatitudeDegrees>37.8476554714143276214599609375</LatitudeDegrees>
              <LongitudeDegrees>-8.13576020300388336181640625</LongitudeDegrees>
            </Position>
            <AltitudeMeters>196</AltitudeMeters>
            <DistanceMeters>279377.33145372</DistanceMeters>
          </Trackpoint>
          <Trackpoint>
            <Time>2018-09-14T13:35:22.000Z</Time>
            <Position>
              <LatitudeDegrees>37.84762269817292690277099609375</LatitudeDegrees>
              <LongitudeDegrees>-8.13573514111340045928955078125</LongitudeDegrees>
            </Position>
            <AltitudeMeters>196.399993896484375</AltitudeMeters>
            <DistanceMeters>279381.59178864</DistanceMeters>
          </Trackpoint>
          <Trackpoint>
            <Time>2018-09-14T13:35:23.000Z</Time>
            <Position>
              <LatitudeDegrees>37.8475907631218433380126953125</LatitudeDegrees>
              <LongitudeDegrees>-8.13571033068001270294189453125</LongitudeDegrees>
            </Position>
            <AltitudeMeters>196.8000030517578125</AltitudeMeters>
            <DistanceMeters>279385.75998574</DistanceMeters>
          </Trackpoint>
          <Trackpoint>
            <Time>2018-09-14T13:35:24.000Z</Time>
            <Position>
              <LatitudeDegrees>37.84755907952785491943359375</LatitudeDegrees>
              <LongitudeDegrees>-8.13568501733243465423583984375</LongitudeDegrees>
            </Position>
            <AltitudeMeters>197</AltitudeMeters>
            <DistanceMeters>279389.92818284</DistanceMeters>
          </Trackpoint>
          <Trackpoint>
            <Time>2018-09-14T13:35:25.000Z</Time>
            <Position>
              <LatitudeDegrees>37.8475277312099933624267578125</LatitudeDegrees>
              <LongitudeDegrees>-8.13566003926098346710205078125</LongitudeDegrees>
            </Position>
            <AltitudeMeters>197.1999969482421875</AltitudeMeters>
            <DistanceMeters>279394.05063404</DistanceMeters>
          </Trackpoint>
          <Trackpoint>
            <Time>2018-09-14T13:35:26.000Z</Time>
            <Position>
              <LatitudeDegrees>37.84749696962535381317138671875</LatitudeDegrees>
              <LongitudeDegrees>-8.135633803904056549072265625</LongitudeDegrees>
            </Position>
            <AltitudeMeters>197.399993896484375</AltitudeMeters>
            <DistanceMeters>279398.1796514</DistanceMeters>
          </Trackpoint>
          <Trackpoint>
            <Time>2018-09-14T13:35:27.000Z</Time>
            <Position>
              <LatitudeDegrees>37.84746595658361911773681640625</LatitudeDegrees>
              <LongitudeDegrees>-8.13560723327100276947021484375</LongitudeDegrees>
            </Position>
            <AltitudeMeters>197.600006103515625</AltitudeMeters>
            <DistanceMeters>279402.34568151</DistanceMeters>
          </Trackpoint>
          <Trackpoint>
            <Time>2018-09-14T13:35:28.000Z</Time>
            <Position>
              <LatitudeDegrees>37.84743494354188442230224609375</LatitudeDegrees>
              <LongitudeDegrees>-8.1355816684663295745849609375</LongitudeDegrees>
            </Position>
            <AltitudeMeters>197.8000030517578125</AltitudeMeters>
            <DistanceMeters>279406.46374945</DistanceMeters>
          </Trackpoint>
          <Trackpoint>
            <Time>2018-09-14T13:35:29.000Z</Time>
            <Position>
              <LatitudeDegrees>37.84740443341434001922607421875</LatitudeDegrees>
              <LongitudeDegrees>-8.13555643893778324127197265625</LongitudeDegrees>
            </Position>
            <AltitudeMeters>198</AltitudeMeters>
            <DistanceMeters>279410.51884122</DistanceMeters>
          </Trackpoint>
          <Trackpoint>
            <Time>2018-09-14T13:35:30.000Z</Time>
            <Position>
              <LatitudeDegrees>37.847374342381954193115234375</LatitudeDegrees>
              <LongitudeDegrees>-8.13553095795214176177978515625</LongitudeDegrees>
            </Position>
            <AltitudeMeters>198.1999969482421875</AltitudeMeters>
            <DistanceMeters>279414.54936321</DistanceMeters>
          </Trackpoint>
          <Trackpoint>
            <Time>2018-09-14T13:35:31.000Z</Time>
            <Position>
              <LatitudeDegrees>37.8473436646163463592529296875</LatitudeDegrees>
              <LongitudeDegrees>-8.13550581224262714385986328125</LongitudeDegrees>
            </Position>
            <AltitudeMeters>198.399993896484375</AltitudeMeters>
            <DistanceMeters>279418.61890375</DistanceMeters>
          </Trackpoint>
          <Trackpoint>
            <Time>2018-09-14T13:35:32.000Z</Time>
            <Position>
              <LatitudeDegrees>37.84731340594589710235595703125</LatitudeDegrees>
              <LongitudeDegrees>-8.1354804150760173797607421875</LongitudeDegrees>
            </Position>
            <AltitudeMeters>198.600006103515625</AltitudeMeters>
            <DistanceMeters>279422.65949507</DistanceMeters>
          </Trackpoint>
          <Trackpoint>
            <Time>2018-09-14T13:35:33.000Z</Time>
            <Position>
              <LatitudeDegrees>37.84728281199932098388671875</LatitudeDegrees>
              <LongitudeDegrees>-8.13545518554747104644775390625</LongitudeDegrees>
            </Position>
            <AltitudeMeters>198.8000030517578125</AltitudeMeters>
            <DistanceMeters>279426.72237332</DistanceMeters>
          </Trackpoint>
          <Trackpoint>
            <Time>2018-09-14T13:35:34.000Z</Time>
            <Position>
              <LatitudeDegrees>37.8472521342337131500244140625</LatitudeDegrees>
              <LongitudeDegrees>-8.13542953692376613616943359375</LongitudeDegrees>
            </Position>
            <AltitudeMeters>199</AltitudeMeters>
            <DistanceMeters>279430.81183558</DistanceMeters>
          </Trackpoint>
          <Trackpoint>
            <Time>2018-09-14T13:35:35.000Z</Time>
            <Position>
              <LatitudeDegrees>37.84722137264907360076904296875</LatitudeDegrees>
              <LongitudeDegrees>-8.1354041397571563720703125</LongitudeDegrees>
            </Position>
            <AltitudeMeters>199</AltitudeMeters>
            <DistanceMeters>279434.89908911</DistanceMeters>
          </Trackpoint>
          <Trackpoint>
            <Time>2018-09-14T13:35:36.000Z</Time>
            <Position>
              <LatitudeDegrees>37.84719002433121204376220703125</LatitudeDegrees>
              <LongitudeDegrees>-8.1353788264095783233642578125</LongitudeDegrees>
            </Position>
            <AltitudeMeters>198.8000030517578125</AltitudeMeters>
            <DistanceMeters>279439.03684514</DistanceMeters>
          </Trackpoint>
          <Trackpoint>
            <Time>2018-09-14T13:35:37.000Z</Time>
            <Position>
              <LatitudeDegrees>37.8471575863659381866455078125</LatitudeDegrees>
              <LongitudeDegrees>-8.1353536807000637054443359375</LongitudeDegrees>
            </Position>
            <AltitudeMeters>198.399993896484375</AltitudeMeters>
            <DistanceMeters>279443.27166885</DistanceMeters>
          </Trackpoint>
          <Trackpoint>
            <Time>2018-09-14T13:35:38.000Z</Time>
            <Position>
              <LatitudeDegrees>37.8471250645816326141357421875</LatitudeDegrees>
              <LongitudeDegrees>-8.1353278644382953643798828125</LongitudeDegrees>
            </Position>
            <AltitudeMeters>198.1999969482421875</AltitudeMeters>
            <DistanceMeters>279447.5436455</DistanceMeters>
          </Trackpoint>
          <Trackpoint>
            <Time>2018-09-14T13:35:39.000Z</Time>
            <Position>
              <LatitudeDegrees>37.84709237515926361083984375</LatitudeDegrees>
              <LongitudeDegrees>-8.13530129380524158477783203125</LongitudeDegrees>
            </Position>
            <AltitudeMeters>198</AltitudeMeters>
            <DistanceMeters>279451.86709993</DistanceMeters>
          </Trackpoint>
          <Trackpoint>
            <Time>2018-09-14T13:35:40.000Z</Time>
            <Position>
              <LatitudeDegrees>37.84706010483205318450927734375</LatitudeDegrees>
              <LongitudeDegrees>-8.1352742202579975128173828125</LongitudeDegrees>
            </Position>
            <AltitudeMeters>197.8000030517578125</AltitudeMeters>
            <DistanceMeters>279456.17590918</DistanceMeters>
          </Trackpoint>
          <Trackpoint>
            <Time>2018-09-14T13:35:41.000Z</Time>
            <Position>
              <LatitudeDegrees>37.84702758304774761199951171875</LatitudeDegrees>
              <LongitudeDegrees>-8.135245554149150848388671875</LongitudeDegrees>
            </Position>
            <AltitudeMeters>197.600006103515625</AltitudeMeters>
            <DistanceMeters>279460.58621355</DistanceMeters>
          </Trackpoint>
          <Trackpoint>
            <Time>2018-09-14T13:35:42.000Z</Time>
            <Position>
              <LatitudeDegrees>37.846994809806346893310546875</LatitudeDegrees>
              <LongitudeDegrees>-8.1352155469357967376708984375</LongitudeDegrees>
            </Position>
            <AltitudeMeters>197.399993896484375</AltitudeMeters>
            <DistanceMeters>279465.08670924</DistanceMeters>
          </Trackpoint>
          <Trackpoint>
            <Time>2018-09-14T13:35:43.000Z</Time>
            <Position>
              <LatitudeDegrees>37.84696094691753387451171875</LatitudeDegrees>
              <LongitudeDegrees>-8.13518478535115718841552734375</LongitudeDegrees>
            </Position>
            <AltitudeMeters>197.1999969482421875</AltitudeMeters>
            <DistanceMeters>279469.72358449</DistanceMeters>
          </Trackpoint>
          <Trackpoint>
            <Time>2018-09-14T13:35:44.000Z</Time>
            <Position>
              <LatitudeDegrees>37.8469255752861499786376953125</LatitudeDegrees>
              <LongitudeDegrees>-8.13515494577586650848388671875</LongitudeDegrees>
            </Position>
            <AltitudeMeters>197</AltitudeMeters>
            <DistanceMeters>279474.45396813</DistanceMeters>
          </Trackpoint>
          <Trackpoint>
            <Time>2018-09-14T13:35:45.000Z</Time>
            <Position>
              <LatitudeDegrees>37.84688928164541721343994140625</LatitudeDegrees>
              <LongitudeDegrees>-8.13512678258121013641357421875</LongitudeDegrees>
            </Position>
            <AltitudeMeters>196.600006103515625</AltitudeMeters>
            <DistanceMeters>279479.1910284</DistanceMeters>
          </Trackpoint>
          <Trackpoint>
            <Time>2018-09-14T13:35:46.000Z</Time>
            <Position>
              <LatitudeDegrees>37.84685173071920871734619140625</LatitudeDegrees>
              <LongitudeDegrees>-8.13509778119623661041259765625</LongitudeDegrees>
            </Position>
            <AltitudeMeters>196.399993896484375</AltitudeMeters>
            <DistanceMeters>279484.08651845</DistanceMeters>
          </Trackpoint>
          <Trackpoint>
            <Time>2018-09-14T13:35:47.000Z</Time>
            <Position>
              <LatitudeDegrees>37.84681200049817562103271484375</LatitudeDegrees>
              <LongitudeDegrees>-8.13506676815450191497802734375</LongitudeDegrees>
            </Position>
            <AltitudeMeters>196.600006103515625</AltitudeMeters>
            <DistanceMeters>279489.28092587</DistanceMeters>
          </Trackpoint>
          <Trackpoint>
            <Time>2018-09-14T13:35:48.000Z</Time>
            <Position>
              <LatitudeDegrees>37.84677143208682537078857421875</LatitudeDegrees>
              <LongitudeDegrees>-8.13503374345600605010986328125</LongitudeDegrees>
            </Position>
            <AltitudeMeters>196.399993896484375</AltitudeMeters>
            <DistanceMeters>279494.64888395</DistanceMeters>
          </Trackpoint>
          <Trackpoint>
            <Time>2018-09-14T13:35:49.000Z</Time>
            <Position>
              <LatitudeDegrees>37.8467301093041896820068359375</LatitudeDegrees>
              <LongitudeDegrees>-8.13499887473881244659423828125</LongitudeDegrees>
            </Position>
            <AltitudeMeters>196</AltitudeMeters>
            <DistanceMeters>279500.17515923</DistanceMeters>
          </Trackpoint>
          <Trackpoint>
            <Time>2018-09-14T13:35:50.000Z</Time>
            <Position>
              <LatitudeDegrees>37.84668778069317340850830078125</LatitudeDegrees>
              <LongitudeDegrees>-8.13496350310742855072021484375</LongitudeDegrees>
            </Position>
            <AltitudeMeters>196.1999969482421875</AltitudeMeters>
            <DistanceMeters>279505.8194581</DistanceMeters>
          </Trackpoint>
          <Trackpoint>
            <Time>2018-09-14T13:35:51.000Z</Time>
            <Position>
              <LatitudeDegrees>37.846644110977649688720703125</LatitudeDegrees>
              <LongitudeDegrees>-8.13492746092379093170166015625</LongitudeDegrees>
            </Position>
            <AltitudeMeters>196.399993896484375</AltitudeMeters>
            <DistanceMeters>279511.62153747</DistanceMeters>
          </Trackpoint>
          <Trackpoint>
            <Time>2018-09-14T13:35:52.000Z</Time>
            <Position>
              <LatitudeDegrees>37.8465990163385868072509765625</LatitudeDegrees>
              <LongitudeDegrees>-8.13489058054983615875244140625</LongitudeDegrees>
            </Position>
            <AltitudeMeters>196.600006103515625</AltitudeMeters>
            <DistanceMeters>279517.59689706</DistanceMeters>
          </Trackpoint>
          <Trackpoint>
            <Time>2018-09-14T13:35:53.000Z</Time>
            <Position>
              <LatitudeDegrees>37.84655367024242877960205078125</LatitudeDegrees>
              <LongitudeDegrees>-8.13485286198556423187255859375</LongitudeDegrees>
            </Position>
            <AltitudeMeters>196.8000030517578125</AltitudeMeters>
            <DistanceMeters>279523.63539428</DistanceMeters>
          </Trackpoint>
          <Trackpoint>
            <Time>2018-09-14T13:35:54.000Z</Time>
            <Position>
              <LatitudeDegrees>37.84650891087949275970458984375</LatitudeDegrees>
              <LongitudeDegrees>-8.1348140537738800048828125</LongitudeDegrees>
            </Position>
            <AltitudeMeters>197</AltitudeMeters>
            <DistanceMeters>279529.6723959</DistanceMeters>
          </Trackpoint>
          <Trackpoint>
            <Time>2018-09-14T13:35:55.000Z</Time>
            <Position>
              <LatitudeDegrees>37.84646339714527130126953125</LatitudeDegrees>
              <LongitudeDegrees>-8.1347756646573543548583984375</LongitudeDegrees>
            </Position>
            <AltitudeMeters>197.1999969482421875</AltitudeMeters>
            <DistanceMeters>279535.76004189</DistanceMeters>
          </Trackpoint>
          <Trackpoint>
            <Time>2018-09-14T13:35:56.000Z</Time>
            <Position>
              <LatitudeDegrees>37.84641888923943042755126953125</LatitudeDegrees>
              <LongitudeDegrees>-8.13473702408373355865478515625</LongitudeDegrees>
            </Position>
            <AltitudeMeters>197.399993896484375</AltitudeMeters>
            <DistanceMeters>279541.76705325</DistanceMeters>
          </Trackpoint>
          <Trackpoint>
            <Time>2018-09-14T13:35:57.000Z</Time>
            <Position>
              <LatitudeDegrees>37.84637312404811382293701171875</LatitudeDegrees>
              <LongitudeDegrees>-8.1346992217004299163818359375</LongitudeDegrees>
            </Position>
            <AltitudeMeters>197.600006103515625</AltitudeMeters>
            <DistanceMeters>279547.84876297</DistanceMeters>
          </Trackpoint>
          <Trackpoint>
            <Time>2018-09-14T13:35:58.000Z</Time>
            <Position>
              <LatitudeDegrees>37.8463271073997020721435546875</LatitudeDegrees>
              <LongitudeDegrees>-8.13466183841228485107421875</LongitudeDegrees>
            </Position>
            <AltitudeMeters>197.8000030517578125</AltitudeMeters>
            <DistanceMeters>279553.93344155</DistanceMeters>
          </Trackpoint>
          <Trackpoint>
            <Time>2018-09-14T13:35:59.000Z</Time>
            <Position>
              <LatitudeDegrees>37.84628142602741718292236328125</LatitudeDegrees>
              <LongitudeDegrees>-8.13462336547672748565673828125</LongitudeDegrees>
            </Position>
            <AltitudeMeters>197.600006103515625</AltitudeMeters>
            <DistanceMeters>279560.03886173</DistanceMeters>
          </Trackpoint>
          <Trackpoint>
            <Time>2018-09-14T13:36:00.000Z</Time>
            <Position>
              <LatitudeDegrees>37.84623616375029087066650390625</LatitudeDegrees>
              <LongitudeDegrees>-8.13458598218858242034912109375</LongitudeDegrees>
            </Position>
            <AltitudeMeters>197.600006103515625</AltitudeMeters>
            <DistanceMeters>279566.05338467</DistanceMeters>
          </Trackpoint>
          <Trackpoint>
            <Time>2018-09-14T13:36:01.000Z</Time>
            <Position>
              <LatitudeDegrees>37.8461906500160694122314453125</LatitudeDegrees>
              <LongitudeDegrees>-8.1345493532717227935791015625</LongitudeDegrees>
            </Position>
            <AltitudeMeters>197.399993896484375</AltitudeMeters>
            <DistanceMeters>279572.05588457</DistanceMeters>
          </Trackpoint>
          <Trackpoint>
            <Time>2018-09-14T13:36:02.000Z</Time>
            <Position>
              <LatitudeDegrees>37.8461457230150699615478515625</LatitudeDegrees>
              <LongitudeDegrees>-8.13451305963099002838134765625</LongitudeDegrees>
            </Position>
            <AltitudeMeters>197.399993896484375</AltitudeMeters>
            <DistanceMeters>279577.98725691</DistanceMeters>
          </Trackpoint>
          <Trackpoint>
            <Time>2018-09-14T13:36:03.000Z</Time>
            <Position>
              <LatitudeDegrees>37.8461011312901973724365234375</LatitudeDegrees>
              <LongitudeDegrees>-8.1344762630760669708251953125</LongitudeDegrees>
            </Position>
            <AltitudeMeters>197.1999969482421875</AltitudeMeters>
            <DistanceMeters>279583.91101223</DistanceMeters>
          </Trackpoint>
          <Trackpoint>
            <Time>2018-09-14T13:36:04.000Z</Time>
            <Position>
              <LatitudeDegrees>37.8460541926324367523193359375</LatitudeDegrees>
              <LongitudeDegrees>-8.13443896360695362091064453125</LongitudeDegrees>
            </Position>
            <AltitudeMeters>197.1999969482421875</AltitudeMeters>
            <DistanceMeters>279590.0797027</DistanceMeters>
          </Trackpoint>
          <Trackpoint>
            <Time>2018-09-14T13:36:05.000Z</Time>
            <Position>
              <LatitudeDegrees>37.84600666724145412445068359375</LatitudeDegrees>
              <LongitudeDegrees>-8.1343994848430156707763671875</LongitudeDegrees>
            </Position>
            <AltitudeMeters>197</AltitudeMeters>
            <DistanceMeters>279596.40594161</DistanceMeters>
          </Trackpoint>
          <Trackpoint>
            <Time>2018-09-14T13:36:06.000Z</Time>
            <Position>
              <LatitudeDegrees>37.8459586389362812042236328125</LatitudeDegrees>
              <LongitudeDegrees>-8.13435883261263370513916015625</LongitudeDegrees>
            </Position>
            <AltitudeMeters>197</AltitudeMeters>
            <DistanceMeters>279602.83553646</DistanceMeters>
          </Trackpoint>
          <Trackpoint>
            <Time>2018-09-14T13:36:07.000Z</Time>
            <Position>
              <LatitudeDegrees>37.8459093533456325531005859375</LatitudeDegrees>
              <LongitudeDegrees>-8.13431826420128345489501953125</LongitudeDegrees>
            </Position>
            <AltitudeMeters>196.8000030517578125</AltitudeMeters>
            <DistanceMeters>279609.37790319</DistanceMeters>
          </Trackpoint>
          <Trackpoint>
            <Time>2018-09-14T13:36:08.000Z</Time>
            <Position>
              <LatitudeDegrees>37.84585914574563503265380859375</LatitudeDegrees>
              <LongitudeDegrees>-8.1342774443328380584716796875</LongitudeDegrees>
            </Position>
            <AltitudeMeters>197</AltitudeMeters>
            <DistanceMeters>279616.01890412</DistanceMeters>
          </Trackpoint>
          <Trackpoint>
            <Time>2018-09-14T13:36:09.000Z</Time>
            <Position>
              <LatitudeDegrees>37.84580885432660579681396484375</LatitudeDegrees>
              <LongitudeDegrees>-8.13423695974051952362060546875</LongitudeDegrees>
            </Position>
            <AltitudeMeters>197</AltitudeMeters>
            <DistanceMeters>279622.65242223</DistanceMeters>
          </Trackpoint>
          <Trackpoint>
            <Time>2018-09-14T13:36:10.000Z</Time>
            <Position>
              <LatitudeDegrees>37.8457586467266082763671875</LatitudeDegrees>
              <LongitudeDegrees>-8.13419505022466182708740234375</LongitudeDegrees>
            </Position>
            <AltitudeMeters>197.1999969482421875</AltitudeMeters>
            <DistanceMeters>279629.34624321</DistanceMeters>
          </Trackpoint>
          <Trackpoint>
            <Time>2018-09-14T13:36:11.000Z</Time>
            <Position>
              <LatitudeDegrees>37.8457095287740230560302734375</LatitudeDegrees>
              <LongitudeDegrees>-8.13415280543267726898193359375</LongitudeDegrees>
            </Position>
            <AltitudeMeters>197.399993896484375</AltitudeMeters>
            <DistanceMeters>279635.95521285</DistanceMeters>
          </Trackpoint>
          <Trackpoint>
            <Time>2018-09-14T13:36:12.000Z</Time>
            <Position>
              <LatitudeDegrees>37.845660410821437835693359375</LatitudeDegrees>
              <LongitudeDegrees>-8.134112320840358734130859375</LongitudeDegrees>
            </Position>
            <AltitudeMeters>197.399993896484375</AltitudeMeters>
            <DistanceMeters>279642.47822751</DistanceMeters>
          </Trackpoint>
          <Trackpoint>
            <Time>2018-09-14T13:36:13.000Z</Time>
            <Position>
              <LatitudeDegrees>37.8456122986972332000732421875</LatitudeDegrees>
              <LongitudeDegrees>-8.13407041132450103759765625</LongitudeDegrees>
            </Position>
            <AltitudeMeters>197.600006103515625</AltitudeMeters>
            <DistanceMeters>279648.9783604</DistanceMeters>
          </Trackpoint>
          <Trackpoint>
            <Time>2018-09-14T13:36:14.000Z</Time>
            <Position>
              <LatitudeDegrees>37.84556343220174312591552734375</LatitudeDegrees>
              <LongitudeDegrees>-8.13402908854186534881591796875</LongitudeDegrees>
            </Position>
            <AltitudeMeters>197.8000030517578125</AltitudeMeters>
            <DistanceMeters>279655.51796605</DistanceMeters>
          </Trackpoint>
          <Trackpoint>
            <Time>2018-09-14T13:36:15.000Z</Time>
            <Position>
              <LatitudeDegrees>37.84551431424915790557861328125</LatitudeDegrees>
              <LongitudeDegrees>-8.13398919068276882171630859375</LongitudeDegrees>
            </Position>
            <AltitudeMeters>198</AltitudeMeters>
            <DistanceMeters>279662.01323488</DistanceMeters>
          </Trackpoint>
          <Trackpoint>
            <Time>2018-09-14T13:36:16.000Z</Time>
            <Position>
              <LatitudeDegrees>37.8454641066491603851318359375</LatitudeDegrees>
              <LongitudeDegrees>-8.1339495442807674407958984375</LongitudeDegrees>
            </Position>
            <AltitudeMeters>198</AltitudeMeters>
            <DistanceMeters>279668.59825022</DistanceMeters>
          </Trackpoint>
          <Trackpoint>
            <Time>2018-09-14T13:36:17.000Z</Time>
            <Position>
              <LatitudeDegrees>37.845413982868194580078125</LatitudeDegrees>
              <LongitudeDegrees>-8.1339101493358612060546875</LongitudeDegrees>
            </Position>
            <AltitudeMeters>198.1999969482421875</AltitudeMeters>
            <DistanceMeters>279675.16403921</DistanceMeters>
          </Trackpoint>
          <Trackpoint>
            <Time>2018-09-14T13:36:18.000Z</Time>
            <Position>
              <LatitudeDegrees>37.84536494873464107513427734375</LatitudeDegrees>
              <LongitudeDegrees>-8.13387067057192325592041015625</LongitudeDegrees>
            </Position>
            <AltitudeMeters>198.1999969482421875</AltitudeMeters>
            <DistanceMeters>279681.63074501</DistanceMeters>
          </Trackpoint>
          <Trackpoint>
            <Time>2018-09-14T13:36:19.000Z</Time>
            <Position>
              <LatitudeDegrees>37.84531666897237300872802734375</LatitudeDegrees>
              <LongitudeDegrees>-8.13383060507476329803466796875</LongitudeDegrees>
            </Position>
            <AltitudeMeters>198.399993896484375</AltitudeMeters>
            <DistanceMeters>279688.05471959</DistanceMeters>
          </Trackpoint>
          <Trackpoint>
            <Time>2018-09-14T13:36:20.000Z</Time>
            <Position>
              <LatitudeDegrees>37.84526822157204151153564453125</LatitudeDegrees>
              <LongitudeDegrees>-8.13378970138728618621826171875</LongitudeDegrees>
            </Position>
            <AltitudeMeters>198.600006103515625</AltitudeMeters>
            <DistanceMeters>279694.53467757</DistanceMeters>
          </Trackpoint>
          <Trackpoint>
            <Time>2018-09-14T13:36:21.000Z</Time>
            <Position>
              <LatitudeDegrees>37.845219857990741729736328125</LatitudeDegrees>
              <LongitudeDegrees>-8.133749552071094512939453125</LongitudeDegrees>
            </Position>
            <AltitudeMeters>198.8000030517578125</AltitudeMeters>
            <DistanceMeters>279700.97058937</DistanceMeters>
          </Trackpoint>
          <Trackpoint>
            <Time>2018-09-14T13:36:22.000Z</Time>
            <Position>
              <LatitudeDegrees>37.84517115913331508636474609375</LatitudeDegrees>
              <LongitudeDegrees>-8.13370889984071254730224609375</LongitudeDegrees>
            </Position>
            <AltitudeMeters>198.8000030517578125</AltitudeMeters>
            <DistanceMeters>279707.46307709</DistanceMeters>
          </Trackpoint>
          <Trackpoint>
            <Time>2018-09-14T13:36:23.000Z</Time>
            <Position>
              <LatitudeDegrees>37.84512220881879329681396484375</LatitudeDegrees>
              <LongitudeDegrees>-8.13366883434355258941650390625</LongitudeDegrees>
            </Position>
            <AltitudeMeters>199</AltitudeMeters>
            <DistanceMeters>279713.94999903</DistanceMeters>
          </Trackpoint>
          <Trackpoint>
            <Time>2018-09-14T13:36:24.000Z</Time>
            <Position>
              <LatitudeDegrees>37.84507342614233493804931640625</LatitudeDegrees>
              <LongitudeDegrees>-8.13362809829413890838623046875</LongitudeDegrees>
            </Position>
            <AltitudeMeters>199.1999969482421875</AltitudeMeters>
            <DistanceMeters>279720.45429823</DistanceMeters>
          </Trackpoint>
          <Trackpoint>
            <Time>2018-09-14T13:36:25.000Z</Time>
            <Position>
              <LatitudeDegrees>37.84502514638006687164306640625</LatitudeDegrees>
              <LongitudeDegrees>-8.133587278425693511962890625</LongitudeDegrees>
            </Position>
            <AltitudeMeters>199.399993896484375</AltitudeMeters>
            <DistanceMeters>279726.91611481</DistanceMeters>
          </Trackpoint>
          <Trackpoint>
            <Time>2018-09-14T13:36:26.000Z</Time>
            <Position>
              <LatitudeDegrees>37.84497653134167194366455078125</LatitudeDegrees>
              <LongitudeDegrees>-8.13354629091918468475341796875</LongitudeDegrees>
            </Position>
            <AltitudeMeters>199.8000030517578125</AltitudeMeters>
            <DistanceMeters>279733.41694228</DistanceMeters>
          </Trackpoint>
          <Trackpoint>
            <Time>2018-09-14T13:36:27.000Z</Time>
            <Position>
              <LatitudeDegrees>37.84492774866521358489990234375</LatitudeDegrees>
              <LongitudeDegrees>-8.13350580632686614990234375</LongitudeDegrees>
            </Position>
            <AltitudeMeters>200</AltitudeMeters>
            <DistanceMeters>279739.908039</DistanceMeters>
          </Trackpoint>
          <Trackpoint>
            <Time>2018-09-14T13:36:28.000Z</Time>
            <Position>
              <LatitudeDegrees>37.84487863071262836456298828125</LatitudeDegrees>
              <LongitudeDegrees>-8.133465908467769622802734375</LongitudeDegrees>
            </Position>
            <AltitudeMeters>200.1999969482421875</AltitudeMeters>
            <DistanceMeters>279746.40330783</DistanceMeters>
          </Trackpoint>
          <Trackpoint>
            <Time>2018-09-14T13:36:29.000Z</Time>
            <Position>
              <LatitudeDegrees>37.84483085386455059051513671875</LatitudeDegrees>
              <LongitudeDegrees>-8.1334255076944828033447265625</LongitudeDegrees>
            </Position>
            <AltitudeMeters>200.399993896484375</AltitudeMeters>
            <DistanceMeters>279752.79698878</DistanceMeters>
          </Trackpoint>
          <Trackpoint>
            <Time>2018-09-14T13:36:30.000Z</Time>
            <Position>
              <LatitudeDegrees>37.84478307701647281646728515625</LatitudeDegrees>
              <LongitudeDegrees>-8.13338502310216426849365234375</LongitudeDegrees>
            </Position>
            <AltitudeMeters>200.399993896484375</AltitudeMeters>
            <DistanceMeters>279759.19561102</DistanceMeters>
          </Trackpoint>
          <Trackpoint>
            <Time>2018-09-14T13:36:31.000Z</Time>
            <Position>
              <LatitudeDegrees>37.84473496489226818084716796875</LatitudeDegrees>
              <LongitudeDegrees>-8.13334487378597259521484375</LongitudeDegrees>
            </Position>
            <AltitudeMeters>200.600006103515625</AltitudeMeters>
            <DistanceMeters>279765.6090343</DistanceMeters>
          </Trackpoint>
          <Trackpoint>
            <Time>2018-09-14T13:36:32.000Z</Time>
            <Position>
              <LatitudeDegrees>37.84468634985387325286865234375</LatitudeDegrees>
              <LongitudeDegrees>-8.13330489210784435272216796875</LongitudeDegrees>
            </Position>
            <AltitudeMeters>200.8000030517578125</AltitudeMeters>
            <DistanceMeters>279772.0610613</DistanceMeters>
          </Trackpoint>
          <Trackpoint>
            <Time>2018-09-14T13:36:33.000Z</Time>
            <Position>
              <LatitudeDegrees>37.84463840536773204803466796875</LatitudeDegrees>
              <LongitudeDegrees>-8.1332637369632720947265625</LongitudeDegrees>
            </Position>
            <AltitudeMeters>201</AltitudeMeters>
            <DistanceMeters>279778.50748758</DistanceMeters>
          </Trackpoint>
          <Trackpoint>
            <Time>2018-09-14T13:36:34.000Z</Time>
            <Position>
              <LatitudeDegrees>37.84459029324352741241455078125</LatitudeDegrees>
              <LongitudeDegrees>-8.13322283327579498291015625</LongitudeDegrees>
            </Position>
            <AltitudeMeters>201</AltitudeMeters>
            <DistanceMeters>279784.95671483</DistanceMeters>
          </Trackpoint>
          <Trackpoint>
            <Time>2018-09-14T13:36:35.000Z</Time>
            <Position>
              <LatitudeDegrees>37.844541929662227630615234375</LatitudeDegrees>
              <LongitudeDegrees>-8.1331820972263813018798828125</LongitudeDegrees>
            </Position>
            <AltitudeMeters>201.1999969482421875</AltitudeMeters>
            <DistanceMeters>279791.4220241</DistanceMeters>
          </Trackpoint>
          <Trackpoint>
            <Time>2018-09-14T13:36:36.000Z</Time>
            <Position>
              <LatitudeDegrees>37.8444931469857692718505859375</LatitudeDegrees>
              <LongitudeDegrees>-8.13314144499599933624267578125</LongitudeDegrees>
            </Position>
            <AltitudeMeters>201.399993896484375</AltitudeMeters>
            <DistanceMeters>279797.92146235</DistanceMeters>
          </Trackpoint>
          <Trackpoint>
            <Time>2018-09-14T13:36:37.000Z</Time>
            <Position>
              <LatitudeDegrees>37.84444377757608890533447265625</LatitudeDegrees>
              <LongitudeDegrees>-8.13309920020401477813720703125</LongitudeDegrees>
            </Position>
            <AltitudeMeters>201.600006103515625</AltitudeMeters>
            <DistanceMeters>279804.55361904</DistanceMeters>
          </Trackpoint>
          <Trackpoint>
            <Time>2018-09-14T13:36:38.000Z</Time>
            <Position>
              <LatitudeDegrees>37.84439465962350368499755859375</LatitudeDegrees>
              <LongitudeDegrees>-8.13305712305009365081787109375</LongitudeDegrees>
            </Position>
            <AltitudeMeters>201.8000030517578125</AltitudeMeters>
            <DistanceMeters>279811.15438557</DistanceMeters>
          </Trackpoint>
          <Trackpoint>
            <Time>2018-09-14T13:36:39.000Z</Time>
            <Position>
              <LatitudeDegrees>37.8443429432809352874755859375</LatitudeDegrees>
              <LongitudeDegrees>-8.1330161355435848236083984375</LongitudeDegrees>
            </Position>
            <AltitudeMeters>201.8000030517578125</AltitudeMeters>
            <DistanceMeters>279817.94464111</DistanceMeters>
          </Trackpoint>
          <Trackpoint>
            <Time>2018-09-14T13:36:40.000Z</Time>
            <Position>
              <LatitudeDegrees>37.84428971819579601287841796875</LatitudeDegrees>
              <LongitudeDegrees>-8.132975064218044281005859375</LongitudeDegrees>
            </Position>
            <AltitudeMeters>202</AltitudeMeters>
            <DistanceMeters>279824.8822421</DistanceMeters>
          </Trackpoint>
          <Trackpoint>
            <Time>2018-09-14T13:36:41.000Z</Time>
            <Position>
              <LatitudeDegrees>37.84423640929162502288818359375</LatitudeDegrees>
              <LongitudeDegrees>-8.13293189741671085357666015625</LongitudeDegrees>
            </Position>
            <AltitudeMeters>202.1999969482421875</AltitudeMeters>
            <DistanceMeters>279831.92576679</DistanceMeters>
          </Trackpoint>
          <Trackpoint>
            <Time>2018-09-14T13:36:42.000Z</Time>
            <Position>
              <LatitudeDegrees>37.84418293274939060211181640625</LatitudeDegrees>
              <LongitudeDegrees>-8.13288697041571140289306640625</LongitudeDegrees>
            </Position>
            <AltitudeMeters>202.1999969482421875</AltitudeMeters>
            <DistanceMeters>279839.06859059</DistanceMeters>
          </Trackpoint>
          <Trackpoint>
            <Time>2018-09-14T13:36:43.000Z</Time>
            <Position>
              <LatitudeDegrees>37.84412811510264873504638671875</LatitudeDegrees>
              <LongitudeDegrees>-8.132842294871807098388671875</LongitudeDegrees>
            </Position>
            <AltitudeMeters>202</AltitudeMeters>
            <DistanceMeters>279846.32430184</DistanceMeters>
          </Trackpoint>
          <Trackpoint>
            <Time>2018-09-14T13:36:44.000Z</Time>
            <Position>
              <LatitudeDegrees>37.84407329745590686798095703125</LatitudeDegrees>
              <LongitudeDegrees>-8.1327972002327442169189453125</LongitudeDegrees>
            </Position>
            <AltitudeMeters>201.8000030517578125</AltitudeMeters>
            <DistanceMeters>279853.59989859</DistanceMeters>
          </Trackpoint>
          <Trackpoint>
            <Time>2018-09-14T13:36:45.000Z</Time>
            <Position>
              <LatitudeDegrees>37.844018898904323577880859375</LatitudeDegrees>
              <LongitudeDegrees>-8.13275135122239589691162109375</LongitudeDegrees>
            </Position>
            <AltitudeMeters>201.8000030517578125</AltitudeMeters>
            <DistanceMeters>279860.87301263</DistanceMeters>
          </Trackpoint>
          <Trackpoint>
            <Time>2018-09-14T13:36:46.000Z</Time>
            <Position>
              <LatitudeDegrees>37.8439644165337085723876953125</LatitudeDegrees>
              <LongitudeDegrees>-8.13270424492657184600830078125</LongitudeDegrees>
            </Position>
            <AltitudeMeters>201.8000030517578125</AltitudeMeters>
            <DistanceMeters>279868.21532537</DistanceMeters>
          </Trackpoint>
          <Trackpoint>
            <Time>2018-09-14T13:36:47.000Z</Time>
            <Position>
              <LatitudeDegrees>37.8439087606966495513916015625</LatitudeDegrees>
              <LongitudeDegrees>-8.13265730626881122589111328125</LongitudeDegrees>
            </Position>
            <AltitudeMeters>201.600006103515625</AltitudeMeters>
            <DistanceMeters>279875.65780405</DistanceMeters>
          </Trackpoint>
          <Trackpoint>
            <Time>2018-09-14T13:36:48.000Z</Time>
            <Position>
              <LatitudeDegrees>37.84385184757411479949951171875</LatitudeDegrees>
              <LongitudeDegrees>-8.13261204399168491363525390625</LongitudeDegrees>
            </Position>
            <AltitudeMeters>201.600006103515625</AltitudeMeters>
            <DistanceMeters>279883.13780095</DistanceMeters>
          </Trackpoint>
          <Trackpoint>
            <Time>2018-09-14T13:36:49.000Z</Time>
            <Position>
              <LatitudeDegrees>37.8437944315373897552490234375</LatitudeDegrees>
              <LongitudeDegrees>-8.132567368447780609130859375</LongitudeDegrees>
            </Position>
            <AltitudeMeters>201.399993896484375</AltitudeMeters>
            <DistanceMeters>279890.63769069</DistanceMeters>
          </Trackpoint>
          <Trackpoint>
            <Time>2018-09-14T13:36:50.000Z</Time>
            <Position>
              <LatitudeDegrees>37.84373751841485500335693359375</LatitudeDegrees>
              <LongitudeDegrees>-8.1325219385325908660888671875</LongitudeDegrees>
            </Position>
            <AltitudeMeters>201</AltitudeMeters>
            <DistanceMeters>279898.12492747</DistanceMeters>
          </Trackpoint>
          <Trackpoint>
            <Time>2018-09-14T13:36:51.000Z</Time>
            <Position>
              <LatitudeDegrees>37.84368060529232025146484375</LatitudeDegrees>
              <LongitudeDegrees>-8.13247458077967166900634765625</LongitudeDegrees>
            </Position>
            <AltitudeMeters>200.8000030517578125</AltitudeMeters>
            <DistanceMeters>279905.70446217</DistanceMeters>
          </Trackpoint>
          <Trackpoint>
            <Time>2018-09-14T13:36:52.000Z</Time>
            <Position>
              <LatitudeDegrees>37.84362453036010265350341796875</LatitudeDegrees>
              <LongitudeDegrees>-8.13242730684578418731689453125</LongitudeDegrees>
            </Position>
            <AltitudeMeters>200.399993896484375</AltitudeMeters>
            <DistanceMeters>279913.20194348</DistanceMeters>
          </Trackpoint>
          <Trackpoint>
            <Time>2018-09-14T13:36:53.000Z</Time>
            <Position>
              <LatitudeDegrees>37.8435674495995044708251953125</LatitudeDegrees>
              <LongitudeDegrees>-8.13238196074962615966796875</LongitudeDegrees>
            </Position>
            <AltitudeMeters>200.399993896484375</AltitudeMeters>
            <DistanceMeters>279920.70183322</DistanceMeters>
          </Trackpoint>
          <Trackpoint>
            <Time>2018-09-14T13:36:54.000Z</Time>
            <Position>
              <LatitudeDegrees>37.84351162612438201904296875</LatitudeDegrees>
              <LongitudeDegrees>-8.13233678229153156280517578125</LongitudeDegrees>
            </Position>
            <AltitudeMeters>200.399993896484375</AltitudeMeters>
            <DistanceMeters>279928.07482855</DistanceMeters>
          </Trackpoint>
          <Trackpoint>
            <Time>2018-09-14T13:36:55.000Z</Time>
            <Position>
              <LatitudeDegrees>37.84345756284892559051513671875</LatitudeDegrees>
              <LongitudeDegrees>-8.1322905980050563812255859375</LongitudeDegrees>
            </Position>
            <AltitudeMeters>200.600006103515625</AltitudeMeters>
            <DistanceMeters>279935.33302847</DistanceMeters>
          </Trackpoint>
          <Trackpoint>
            <Time>2018-09-14T13:36:56.000Z</Time>
            <Position>
              <LatitudeDegrees>37.84340375103056430816650390625</LatitudeDegrees>
              <LongitudeDegrees>-8.132244832813739776611328125</LongitudeDegrees>
            </Position>
            <AltitudeMeters>200.8000030517578125</AltitudeMeters>
            <DistanceMeters>279942.54817855</DistanceMeters>
          </Trackpoint>
          <Trackpoint>
            <Time>2018-09-14T13:36:57.000Z</Time>
            <Position>
              <LatitudeDegrees>37.843349687755107879638671875</LatitudeDegrees>
              <LongitudeDegrees>-8.1322002410888671875</LongitudeDegrees>
            </Position>
            <AltitudeMeters>200.8000030517578125</AltitudeMeters>
            <DistanceMeters>279949.72882869</DistanceMeters>
          </Trackpoint>
          <Trackpoint>
            <Time>2018-09-14T13:36:58.000Z</Time>
            <Position>
              <LatitudeDegrees>37.843295373022556304931640625</LatitudeDegrees>
              <LongitudeDegrees>-8.13215573318302631378173828125</LongitudeDegrees>
            </Position>
            <AltitudeMeters>200.8000030517578125</AltitudeMeters>
            <DistanceMeters>279956.92957164</DistanceMeters>
          </Trackpoint>
          <Trackpoint>
            <Time>2018-09-14T13:36:59.000Z</Time>
            <Position>
              <LatitudeDegrees>37.84324198029935359954833984375</LatitudeDegrees>
              <LongitudeDegrees>-8.13211080618202686309814453125</LongitudeDegrees>
            </Position>
            <AltitudeMeters>200.600006103515625</AltitudeMeters>
            <DistanceMeters>279964.06480611</DistanceMeters>
          </Trackpoint>
          <Trackpoint>
            <Time>2018-09-14T13:37:00.000Z</Time>
            <Position>
              <LatitudeDegrees>37.84318976104259490966796875</LatitudeDegrees>
              <LongitudeDegrees>-8.13206546008586883544921875</LongitudeDegrees>
            </Position>
            <AltitudeMeters>200.600006103515625</AltitudeMeters>
            <DistanceMeters>279971.11217586</DistanceMeters>
          </Trackpoint>
          <Trackpoint>
            <Time>2018-09-14T13:37:01.000Z</Time>
            <Position>
              <LatitudeDegrees>37.843139134347438812255859375</LatitudeDegrees>
              <LongitudeDegrees>-8.13201994635164737701416015625</LongitudeDegrees>
            </Position>
            <AltitudeMeters>200.399993896484375</AltitudeMeters>
            <DistanceMeters>279978.0223889</DistanceMeters>
          </Trackpoint>
          <Trackpoint>
            <Time>2018-09-14T13:37:02.000Z</Time>
            <Position>
              <LatitudeDegrees>37.8430880047380924224853515625</LatitudeDegrees>
              <LongitudeDegrees>-8.13197568990290164947509765625</LongitudeDegrees>
            </Position>
            <AltitudeMeters>200.399993896484375</AltitudeMeters>
            <DistanceMeters>279984.91559296</DistanceMeters>
          </Trackpoint>
          <Trackpoint>
            <Time>2018-09-14T13:37:03.000Z</Time>
            <Position>
              <LatitudeDegrees>37.84303545020520687103271484375</LatitudeDegrees>
              <LongitudeDegrees>-8.13193227164447307586669921875</LongitudeDegrees>
            </Position>
            <AltitudeMeters>200.1999969482421875</AltitudeMeters>
            <DistanceMeters>279991.89989486</DistanceMeters>
          </Trackpoint>
          <Trackpoint>
            <Time>2018-09-14T13:37:04.000Z</Time>
            <Position>
              <LatitudeDegrees>37.84298063255846500396728515625</LatitudeDegrees>
              <LongitudeDegrees>-8.131888099014759063720703125</LongitudeDegrees>
            </Position>
            <AltitudeMeters>199.8000030517578125</AltitudeMeters>
            <DistanceMeters>279999.13192104</DistanceMeters>
          </Trackpoint>
          <Trackpoint>
            <Time>2018-09-14T13:37:05.000Z</Time>
            <Position>
              <LatitudeDegrees>37.84292497672140598297119140625</LatitudeDegrees>
              <LongitudeDegrees>-8.1318430043756961822509765625</LongitudeDegrees>
            </Position>
            <AltitudeMeters>199.600006103515625</AltitudeMeters>
            <DistanceMeters>280006.48652218</DistanceMeters>
          </Trackpoint>
          <Trackpoint>
            <Time>2018-09-14T13:37:06.000Z</Time>
            <Position>
              <LatitudeDegrees>37.84286865033209323883056640625</LatitudeDegrees>
              <LongitudeDegrees>-8.13179765827953815460205078125</LongitudeDegrees>
            </Position>
            <AltitudeMeters>199.399993896484375</AltitudeMeters>
            <DistanceMeters>280013.9156424</DistanceMeters>
          </Trackpoint>
          <Trackpoint>
            <Time>2018-09-14T13:37:07.000Z</Time>
            <Position>
              <LatitudeDegrees>37.84281232394278049468994140625</LatitudeDegrees>
              <LongitudeDegrees>-8.131752312183380126953125</LongitudeDegrees>
            </Position>
            <AltitudeMeters>199.1999969482421875</AltitudeMeters>
            <DistanceMeters>280021.34415485</DistanceMeters>
          </Trackpoint>
          <Trackpoint>
            <Time>2018-09-14T13:37:08.000Z</Time>
            <Position>
              <LatitudeDegrees>37.84275616519153118133544921875</LatitudeDegrees>
              <LongitudeDegrees>-8.13170738518238067626953125</LongitudeDegrees>
            </Position>
            <AltitudeMeters>198.600006103515625</AltitudeMeters>
            <DistanceMeters>280028.73733094</DistanceMeters>
          </Trackpoint>
          <Trackpoint>
            <Time>2018-09-14T13:37:09.000Z</Time>
            <Position>
              <LatitudeDegrees>37.84270025789737701416015625</LatitudeDegrees>
              <LongitudeDegrees>-8.1316622905433177947998046875</LongitudeDegrees>
            </Position>
            <AltitudeMeters>198.1999969482421875</AltitudeMeters>
            <DistanceMeters>280036.11522364</DistanceMeters>
          </Trackpoint>
          <Trackpoint>
            <Time>2018-09-14T13:37:10.000Z</Time>
            <Position>
              <LatitudeDegrees>37.84264451824128627777099609375</LatitudeDegrees>
              <LongitudeDegrees>-8.131617195904254913330078125</LongitudeDegrees>
            </Position>
            <AltitudeMeters>198</AltitudeMeters>
            <DistanceMeters>280043.47780124</DistanceMeters>
          </Trackpoint>
          <Trackpoint>
            <Time>2018-09-14T13:37:11.000Z</Time>
            <Position>
              <LatitudeDegrees>37.84258886240422725677490234375</LatitudeDegrees>
              <LongitudeDegrees>-8.13157268799841403961181640625</LongitudeDegrees>
            </Position>
            <AltitudeMeters>197.8000030517578125</AltitudeMeters>
            <DistanceMeters>280050.8047245</DistanceMeters>
          </Trackpoint>
          <Trackpoint>
            <Time>2018-09-14T13:37:12.000Z</Time>
            <Position>
              <LatitudeDegrees>37.8425334580242633819580078125</LatitudeDegrees>
              <LongitudeDegrees>-8.1315283477306365966796875</LongitudeDegrees>
            </Position>
            <AltitudeMeters>197.600006103515625</AltitudeMeters>
            <DistanceMeters>280058.10015256</DistanceMeters>
          </Trackpoint>
          <Trackpoint>
            <Time>2018-09-14T13:37:13.000Z</Time>
            <Position>
              <LatitudeDegrees>37.8424783051013946533203125</LatitudeDegrees>
              <LongitudeDegrees>-8.1314812414348125457763671875</LongitudeDegrees>
            </Position>
            <AltitudeMeters>197.1999969482421875</AltitudeMeters>
            <DistanceMeters>280065.50492293</DistanceMeters>
          </Trackpoint>
          <Trackpoint>
            <Time>2018-09-14T13:37:14.000Z</Time>
            <Position>
              <LatitudeDegrees>37.8424224816262722015380859375</LatitudeDegrees>
              <LongitudeDegrees>-8.13143304549157619476318359375</LongitudeDegrees>
            </Position>
            <AltitudeMeters>197</AltitudeMeters>
            <DistanceMeters>280073.02525329</DistanceMeters>
          </Trackpoint>
          <Trackpoint>
            <Time>2018-09-14T13:37:15.000Z</Time>
            <Position>
              <LatitudeDegrees>37.8423671610653400421142578125</LatitudeDegrees>
              <LongitudeDegrees>-8.13138694502413272857666015625</LongitudeDegrees>
            </Position>
            <AltitudeMeters>196.600006103515625</AltitudeMeters>
            <DistanceMeters>280080.39579872</DistanceMeters>
          </Trackpoint>
          <Trackpoint>
            <Time>2018-09-14T13:37:16.000Z</Time>
            <Position>
              <LatitudeDegrees>37.84231158904731273651123046875</LatitudeDegrees>
              <LongitudeDegrees>-8.13134252093732357025146484375</LongitudeDegrees>
            </Position>
            <AltitudeMeters>196.399993896484375</AltitudeMeters>
            <DistanceMeters>280087.71100432</DistanceMeters>
          </Trackpoint>
          <Trackpoint>
            <Time>2018-09-14T13:37:17.000Z</Time>
            <Position>
              <LatitudeDegrees>37.84225526265799999237060546875</LatitudeDegrees>
              <LongitudeDegrees>-8.13129742629826068878173828125</LongitudeDegrees>
            </Position>
            <AltitudeMeters>196</AltitudeMeters>
            <DistanceMeters>280095.12856833</DistanceMeters>
          </Trackpoint>
          <Trackpoint>
            <Time>2018-09-14T13:37:18.000Z</Time>
            <Position>
              <LatitudeDegrees>37.8421991877257823944091796875</LatitudeDegrees>
              <LongitudeDegrees>-8.1312495656311511993408203125</LongitudeDegrees>
            </Position>
            <AltitudeMeters>195.8000030517578125</AltitudeMeters>
            <DistanceMeters>280102.65549995</DistanceMeters>
          </Trackpoint>
          <Trackpoint>
            <Time>2018-09-14T13:37:19.000Z</Time>
            <Position>
              <LatitudeDegrees>37.842142023146152496337890625</LatitudeDegrees>
              <LongitudeDegrees>-8.131200782954692840576171875</LongitudeDegrees>
            </Position>
            <AltitudeMeters>195.8000030517578125</AltitudeMeters>
            <DistanceMeters>280110.32739921</DistanceMeters>
          </Trackpoint>
          <Trackpoint>
            <Time>2018-09-14T13:37:20.000Z</Time>
            <Position>
              <LatitudeDegrees>37.84208293072879314422607421875</LatitudeDegrees>
              <LongitudeDegrees>-8.13115074299275875091552734375</LongitudeDegrees>
            </Position>
            <AltitudeMeters>196</AltitudeMeters>
            <DistanceMeters>280118.23919356</DistanceMeters>
          </Trackpoint>
          <Trackpoint>
            <Time>2018-09-14T13:37:21.000Z</Time>
            <Position>
              <LatitudeDegrees>37.842024005949497222900390625</LatitudeDegrees>
              <LongitudeDegrees>-8.131103552877902984619140625</LongitudeDegrees>
            </Position>
            <AltitudeMeters>196</AltitudeMeters>
            <DistanceMeters>280125.99828627</DistanceMeters>
          </Trackpoint>
          <Trackpoint>
            <Time>2018-09-14T13:37:22.000Z</Time>
            <Position>
              <LatitudeDegrees>37.84196273423731327056884765625</LatitudeDegrees>
              <LongitudeDegrees>-8.13105401583015918731689453125</LongitudeDegrees>
            </Position>
            <AltitudeMeters>196</AltitudeMeters>
            <DistanceMeters>280134.08840333</DistanceMeters>
          </Trackpoint>
          <Trackpoint>
            <Time>2018-09-14T13:37:23.000Z</Time>
            <Position>
              <LatitudeDegrees>37.841899953782558441162109375</LatitudeDegrees>
              <LongitudeDegrees>-8.13100305385887622833251953125</LongitudeDegrees>
            </Position>
            <AltitudeMeters>196</AltitudeMeters>
            <DistanceMeters>280142.38788663</DistanceMeters>
          </Trackpoint>
          <Trackpoint>
            <Time>2018-09-14T13:37:24.000Z</Time>
            <Position>
              <LatitudeDegrees>37.84183616749942302703857421875</LatitudeDegrees>
              <LongitudeDegrees>-8.1309501640498638153076171875</LongitudeDegrees>
            </Position>
            <AltitudeMeters>196.1999969482421875</AltitudeMeters>
            <DistanceMeters>280150.87457561</DistanceMeters>
          </Trackpoint>
          <Trackpoint>
            <Time>2018-09-14T13:37:25.000Z</Time>
            <Position>
              <LatitudeDegrees>37.84177087247371673583984375</LatitudeDegrees>
              <LongitudeDegrees>-8.1308953464031219482421875</LongitudeDegrees>
            </Position>
            <AltitudeMeters>196</AltitudeMeters>
            <DistanceMeters>280159.59427994</DistanceMeters>
          </Trackpoint>
          <Trackpoint>
            <Time>2018-09-14T13:37:26.000Z</Time>
            <Position>
              <LatitudeDegrees>37.84170440398156642913818359375</LatitudeDegrees>
              <LongitudeDegrees>-8.1308375112712383270263671875</LongitudeDegrees>
            </Position>
            <AltitudeMeters>196.1999969482421875</AltitudeMeters>
            <DistanceMeters>280168.5701555</DistanceMeters>
          </Trackpoint>
          <Trackpoint>
            <Time>2018-09-14T13:37:27.000Z</Time>
            <Position>
              <LatitudeDegrees>37.84163768403232097625732421875</LatitudeDegrees>
              <LongitudeDegrees>-8.13077774830162525177001953125</LongitudeDegrees>
            </Position>
            <AltitudeMeters>196.1999969482421875</AltitudeMeters>
            <DistanceMeters>280177.66645092</DistanceMeters>
          </Trackpoint>
          <Trackpoint>
            <Time>2018-09-14T13:37:28.000Z</Time>
            <Position>
              <LatitudeDegrees>37.84157029353082180023193359375</LatitudeDegrees>
              <LongitudeDegrees>-8.1307161413133144378662109375</LongitudeDegrees>
            </Position>
            <AltitudeMeters>196.1999969482421875</AltitudeMeters>
            <DistanceMeters>280186.9168025</DistanceMeters>
          </Trackpoint>
          <Trackpoint>
            <Time>2018-09-14T13:37:29.000Z</Time>
            <Position>
              <LatitudeDegrees>37.841502986848354339599609375</LatitudeDegrees>
              <LongitudeDegrees>-8.13065486960113048553466796875</LongitudeDegrees>
            </Position>
            <AltitudeMeters>196.399993896484375</AltitudeMeters>
            <DistanceMeters>280196.1432065</DistanceMeters>
          </Trackpoint>
          <Trackpoint>
            <Time>2018-09-14T13:37:30.000Z</Time>
            <Position>
              <LatitudeDegrees>37.84143568016588687896728515625</LatitudeDegrees>
              <LongitudeDegrees>-8.13059451989829540252685546875</LongitudeDegrees>
            </Position>
            <AltitudeMeters>196.399993896484375</AltitudeMeters>
            <DistanceMeters>280205.32300352</DistanceMeters>
          </Trackpoint>
          <Trackpoint>
            <Time>2018-09-14T13:37:31.000Z</Time>
            <Position>
              <LatitudeDegrees>37.84136828966438770294189453125</LatitudeDegrees>
              <LongitudeDegrees>-8.1305350922048091888427734375</LongitudeDegrees>
            </Position>
            <AltitudeMeters>196.399993896484375</AltitudeMeters>
            <DistanceMeters>280214.46336824</DistanceMeters>
          </Trackpoint>
          <Trackpoint>
            <Time>2018-09-14T13:37:32.000Z</Time>
            <Position>
              <LatitudeDegrees>37.8413006477057933807373046875</LatitudeDegrees>
              <LongitudeDegrees>-8.1304777599871158599853515625</LongitudeDegrees>
            </Position>
            <AltitudeMeters>196.399993896484375</AltitudeMeters>
            <DistanceMeters>280223.52335692</DistanceMeters>
          </Trackpoint>
          <Trackpoint>
            <Time>2018-09-14T13:37:33.000Z</Time>
            <Position>
              <LatitudeDegrees>37.841233424842357635498046875</LatitudeDegrees>
              <LongitudeDegrees>-8.13042017631232738494873046875</LongitudeDegrees>
            </Position>
            <AltitudeMeters>196.399993896484375</AltitudeMeters>
            <DistanceMeters>280232.55639466</DistanceMeters>
          </Trackpoint>
          <Trackpoint>
            <Time>2018-09-14T13:37:34.000Z</Time>
            <Position>
              <LatitudeDegrees>37.841167710721492767333984375</LatitudeDegrees>
              <LongitudeDegrees>-8.1303642690181732177734375</LongitudeDegrees>
            </Position>
            <AltitudeMeters>196.399993896484375</AltitudeMeters>
            <DistanceMeters>280241.36778486</DistanceMeters>
          </Trackpoint>
          <Trackpoint>
            <Time>2018-09-14T13:37:35.000Z</Time>
            <Position>
              <LatitudeDegrees>37.84110300242900848388671875</LatitudeDegrees>
              <LongitudeDegrees>-8.13030869700014591217041015625</LongitudeDegrees>
            </Position>
            <AltitudeMeters>196.1999969482421875</AltitudeMeters>
            <DistanceMeters>280250.06986628</DistanceMeters>
          </Trackpoint>
          <Trackpoint>
            <Time>2018-09-14T13:37:36.000Z</Time>
            <Position>
              <LatitudeDegrees>37.8410394676029682159423828125</LatitudeDegrees>
              <LongitudeDegrees>-8.1302524544298648834228515625</LongitudeDegrees>
            </Position>
            <AltitudeMeters>196.1999969482421875</AltitudeMeters>
            <DistanceMeters>280258.69848032</DistanceMeters>
          </Trackpoint>
          <Trackpoint>
            <Time>2018-09-14T13:37:37.000Z</Time>
            <Position>
              <LatitudeDegrees>37.8409747593104839324951171875</LatitudeDegrees>
              <LongitudeDegrees>-8.1302006542682647705078125</LongitudeDegrees>
            </Position>
            <AltitudeMeters>196.1999969482421875</AltitudeMeters>
            <DistanceMeters>280267.21968004</DistanceMeters>
          </Trackpoint>
          <Trackpoint>
            <Time>2018-09-14T13:37:38.000Z</Time>
            <Position>
              <LatitudeDegrees>37.84090720117092132568359375</LatitudeDegrees>
              <LongitudeDegrees>-8.1301523745059967041015625</LongitudeDegrees>
            </Position>
            <AltitudeMeters>196</AltitudeMeters>
            <DistanceMeters>280275.85404806</DistanceMeters>
          </Trackpoint>
          <Trackpoint>
            <Time>2018-09-14T13:37:39.000Z</Time>
            <Position>
              <LatitudeDegrees>37.84083955921232700347900390625</LatitudeDegrees>
              <LongitudeDegrees>-8.13010585494339466094970703125</LongitudeDegrees>
            </Position>
            <AltitudeMeters>195.8000030517578125</AltitudeMeters>
            <DistanceMeters>280284.4222755</DistanceMeters>
          </Trackpoint>
          <Trackpoint>
            <Time>2018-09-14T13:37:40.000Z</Time>
            <Position>
              <LatitudeDegrees>37.84077334217727184295654296875</LatitudeDegrees>
              <LongitudeDegrees>-8.1300569884479045867919921875</LongitudeDegrees>
            </Position>
            <AltitudeMeters>195.600006103515625</AltitudeMeters>
            <DistanceMeters>280292.95247808</DistanceMeters>
          </Trackpoint>
          <Trackpoint>
            <Time>2018-09-14T13:37:41.000Z</Time>
            <Position>
              <LatitudeDegrees>37.84070796333253383636474609375</LatitudeDegrees>
              <LongitudeDegrees>-8.13000619411468505859375</LongitudeDegrees>
            </Position>
            <AltitudeMeters>195.399993896484375</AltitudeMeters>
            <DistanceMeters>280301.48955879</DistanceMeters>
          </Trackpoint>
          <Trackpoint>
            <Time>2018-09-14T13:37:42.000Z</Time>
            <Position>
              <LatitudeDegrees>37.84064241684973239898681640625</LatitudeDegrees>
              <LongitudeDegrees>-8.1299543939530849456787109375</LongitudeDegrees>
            </Position>
            <AltitudeMeters>195.1999969482421875</AltitudeMeters>
            <DistanceMeters>280310.08934518</DistanceMeters>
          </Trackpoint>
          <Trackpoint>
            <Time>2018-09-14T13:37:43.000Z</Time>
            <Position>
              <LatitudeDegrees>37.8405777923762798309326171875</LatitudeDegrees>
              <LongitudeDegrees>-8.1299024261534214019775390625</LongitudeDegrees>
            </Position>
            <AltitudeMeters>195</AltitudeMeters>
            <DistanceMeters>280318.61001503</DistanceMeters>
          </Trackpoint>
          <Trackpoint>
            <Time>2018-09-14T13:37:44.000Z</Time>
            <Position>
              <LatitudeDegrees>37.84051350317895412445068359375</LatitudeDegrees>
              <LongitudeDegrees>-8.12984987162053585052490234375</LongitudeDegrees>
            </Position>
            <AltitudeMeters>194.8000030517578125</AltitudeMeters>
            <DistanceMeters>280327.12697482</DistanceMeters>
          </Trackpoint>
          <Trackpoint>
            <Time>2018-09-14T13:37:45.000Z</Time>
            <Position>
              <LatitudeDegrees>37.84044896252453327178955078125</LatitudeDegrees>
              <LongitudeDegrees>-8.1297978200018405914306640625</LongitudeDegrees>
            </Position>
            <AltitudeMeters>194.600006103515625</AltitudeMeters>
            <DistanceMeters>280335.64340447</DistanceMeters>
          </Trackpoint>
          <Trackpoint>
            <Time>2018-09-14T13:37:46.000Z</Time>
            <Position>
              <LatitudeDegrees>37.84038375131785869598388671875</LatitudeDegrees>
              <LongitudeDegrees>-8.129746355116367340087890625</LongitudeDegrees>
            </Position>
            <AltitudeMeters>194.399993896484375</AltitudeMeters>
            <DistanceMeters>280344.19580876</DistanceMeters>
          </Trackpoint>
          <Trackpoint>
            <Time>2018-09-14T13:37:47.000Z</Time>
            <Position>
              <LatitudeDegrees>37.84031887538731098175048828125</LatitudeDegrees>
              <LongitudeDegrees>-8.12969380058348178863525390625</LongitudeDegrees>
            </Position>
            <AltitudeMeters>194.600006103515625</AltitudeMeters>
            <DistanceMeters>280352.76719733</DistanceMeters>
          </Trackpoint>
          <Trackpoint>
            <Time>2018-09-14T13:37:48.000Z</Time>
            <Position>
              <LatitudeDegrees>37.840253412723541259765625</LatitudeDegrees>
              <LongitudeDegrees>-8.12964208424091339111328125</LongitudeDegrees>
            </Position>
            <AltitudeMeters>194.8000030517578125</AltitudeMeters>
            <DistanceMeters>280361.35542557</DistanceMeters>
          </Trackpoint>
          <Trackpoint>
            <Time>2018-09-14T13:37:49.000Z</Time>
            <Position>
              <LatitudeDegrees>37.84018811769783496856689453125</LatitudeDegrees>
              <LongitudeDegrees>-8.1295892782509326934814453125</LongitudeDegrees>
            </Position>
            <AltitudeMeters>195</AltitudeMeters>
            <DistanceMeters>280369.97932896</DistanceMeters>
          </Trackpoint>
          <Trackpoint>
            <Time>2018-09-14T13:37:50.000Z</Time>
            <Position>
              <LatitudeDegrees>37.84012257121503353118896484375</LatitudeDegrees>
              <LongitudeDegrees>-8.12953613698482513427734375</LongitudeDegrees>
            </Position>
            <AltitudeMeters>195.1999969482421875</AltitudeMeters>
            <DistanceMeters>280378.64188835</DistanceMeters>
          </Trackpoint>
          <Trackpoint>
            <Time>2018-09-14T13:37:51.000Z</Time>
            <Position>
              <LatitudeDegrees>37.84005585126578807830810546875</LatitudeDegrees>
              <LongitudeDegrees>-8.1294826604425907135009765625</LongitudeDegrees>
            </Position>
            <AltitudeMeters>195.399993896484375</AltitudeMeters>
            <DistanceMeters>280387.43070363</DistanceMeters>
          </Trackpoint>
          <Trackpoint>
            <Time>2018-09-14T13:37:52.000Z</Time>
            <Position>
              <LatitudeDegrees>37.839989550411701202392578125</LatitudeDegrees>
              <LongitudeDegrees>-8.12942809425294399261474609375</LongitudeDegrees>
            </Position>
            <AltitudeMeters>195.399993896484375</AltitudeMeters>
            <DistanceMeters>280396.23183967</DistanceMeters>
          </Trackpoint>
          <Trackpoint>
            <Time>2018-09-14T13:37:53.000Z</Time>
            <Position>
              <LatitudeDegrees>37.83992375247180461883544921875</LatitudeDegrees>
              <LongitudeDegrees>-8.1293718516826629638671875</LongitudeDegrees>
            </Position>
            <AltitudeMeters>195.600006103515625</AltitudeMeters>
            <DistanceMeters>280405.06779129</DistanceMeters>
          </Trackpoint>
          <Trackpoint>
            <Time>2018-09-14T13:37:54.000Z</Time>
            <Position>
              <LatitudeDegrees>37.8398572839796543121337890625</LatitudeDegrees>
              <LongitudeDegrees>-8.129317872226238250732421875</LongitudeDegrees>
            </Position>
            <AltitudeMeters>195.8000030517578125</AltitudeMeters>
            <DistanceMeters>280413.85660656</DistanceMeters>
          </Trackpoint>
          <Trackpoint>
            <Time>2018-09-14T13:37:55.000Z</Time>
            <Position>
              <LatitudeDegrees>37.83979006111621856689453125</LatitudeDegrees>
              <LongitudeDegrees>-8.1292670778930187225341796875</LongitudeDegrees>
            </Position>
            <AltitudeMeters>196</AltitudeMeters>
            <DistanceMeters>280422.56957693</DistanceMeters>
          </Trackpoint>
          <Trackpoint>
            <Time>2018-09-14T13:37:56.000Z</Time>
            <Position>
              <LatitudeDegrees>37.839723341166973114013671875</LatitudeDegrees>
              <LongitudeDegrees>-8.12921226024627685546875</LongitudeDegrees>
            </Position>
            <AltitudeMeters>196</AltitudeMeters>
            <DistanceMeters>280431.42186496</DistanceMeters>
          </Trackpoint>
          <Trackpoint>
            <Time>2018-09-14T13:37:57.000Z</Time>
            <Position>
              <LatitudeDegrees>37.83965737558901309967041015625</LatitudeDegrees>
              <LongitudeDegrees>-8.129155598580837249755859375</LongitudeDegrees>
            </Position>
            <AltitudeMeters>196</AltitudeMeters>
            <DistanceMeters>280440.29351342</DistanceMeters>
          </Trackpoint>
          <Trackpoint>
            <Time>2018-09-14T13:37:58.000Z</Time>
            <Position>
              <LatitudeDegrees>37.8395922482013702392578125</LatitudeDegrees>
              <LongitudeDegrees>-8.12909835018217563629150390625</LongitudeDegrees>
            </Position>
            <AltitudeMeters>196</AltitudeMeters>
            <DistanceMeters>280449.11719287</DistanceMeters>
          </Trackpoint>
          <Trackpoint>
            <Time>2018-09-14T13:37:59.000Z</Time>
            <Position>
              <LatitudeDegrees>37.839526869356632232666015625</LatitudeDegrees>
              <LongitudeDegrees>-8.129042945802211761474609375</LongitudeDegrees>
            </Position>
            <AltitudeMeters>196</AltitudeMeters>
            <DistanceMeters>280457.87358363</DistanceMeters>
          </Trackpoint>
          <Trackpoint>
            <Time>2018-09-14T13:38:00.000Z</Time>
            <Position>
              <LatitudeDegrees>37.83946073614060878753662109375</LatitudeDegrees>
              <LongitudeDegrees>-8.12898804433643817901611328125</LongitudeDegrees>
            </Position>
            <AltitudeMeters>196</AltitudeMeters>
            <DistanceMeters>280466.67574563</DistanceMeters>
          </Trackpoint>
          <Trackpoint>
            <Time>2018-09-14T13:38:01.000Z</Time>
            <Position>
              <LatitudeDegrees>37.83939384855329990386962890625</LatitudeDegrees>
              <LongitudeDegrees>-8.12893507070839405059814453125</LongitudeDegrees>
            </Position>
            <AltitudeMeters>196.1999969482421875</AltitudeMeters>
            <DistanceMeters>280475.4573658</DistanceMeters>
          </Trackpoint>
          <Trackpoint>
            <Time>2018-09-14T13:38:02.000Z</Time>
            <Position>
              <LatitudeDegrees>37.83932763151824474334716796875</LatitudeDegrees>
              <LongitudeDegrees>-8.1288808397948741912841796875</LongitudeDegrees>
            </Position>
            <AltitudeMeters>196.399993896484375</AltitudeMeters>
            <DistanceMeters>280484.23487183</DistanceMeters>
          </Trackpoint>
          <Trackpoint>
            <Time>2018-09-14T13:38:03.000Z</Time>
            <Position>
              <LatitudeDegrees>37.83926124684512615203857421875</LatitudeDegrees>
              <LongitudeDegrees>-8.12882602214813232421875</LongitudeDegrees>
            </Position>
            <AltitudeMeters>196.399993896484375</AltitudeMeters>
            <DistanceMeters>280493.05548058</DistanceMeters>
          </Trackpoint>
          <Trackpoint>
            <Time>2018-09-14T13:38:04.000Z</Time>
            <Position>
              <LatitudeDegrees>37.8391944430768489837646484375</LatitudeDegrees>
              <LongitudeDegrees>-8.128772042691707611083984375</LongitudeDegrees>
            </Position>
            <AltitudeMeters>196.600006103515625</AltitudeMeters>
            <DistanceMeters>280501.87608933</DistanceMeters>
          </Trackpoint>
          <Trackpoint>
            <Time>2018-09-14T13:38:05.000Z</Time>
            <Position>
              <LatitudeDegrees>37.83912763930857181549072265625</LatitudeDegrees>
              <LongitudeDegrees>-8.12871848233044147491455078125</LongitudeDegrees>
            </Position>
            <AltitudeMeters>196.399993896484375</AltitudeMeters>
            <DistanceMeters>280510.67671235</DistanceMeters>
          </Trackpoint>
          <Trackpoint>
            <Time>2018-09-14T13:38:06.000Z</Time>
            <Position>
              <LatitudeDegrees>37.83906091935932636260986328125</LatitudeDegrees>
              <LongitudeDegrees>-8.128664083778858184814453125</LongitudeDegrees>
            </Position>
            <AltitudeMeters>196.399993896484375</AltitudeMeters>
            <DistanceMeters>280519.50857514</DistanceMeters>
          </Trackpoint>
          <Trackpoint>
            <Time>2018-09-14T13:38:07.000Z</Time>
            <Position>
              <LatitudeDegrees>37.83899503760039806365966796875</LatitudeDegrees>
              <LongitudeDegrees>-8.128609769046306610107421875</LongitudeDegrees>
            </Position>
            <AltitudeMeters>196.399993896484375</AltitudeMeters>
            <DistanceMeters>280528.25826017</DistanceMeters>
          </Trackpoint>
          <Trackpoint>
            <Time>2018-09-14T13:38:08.000Z</Time>
            <Position>
              <LatitudeDegrees>37.8389297425746917724609375</LatitudeDegrees>
              <LongitudeDegrees>-8.1285559572279453277587890625</LongitudeDegrees>
            </Position>
            <AltitudeMeters>196.600006103515625</AltitudeMeters>
            <DistanceMeters>280536.92967566</DistanceMeters>
          </Trackpoint>
          <Trackpoint>
            <Time>2018-09-14T13:38:09.000Z</Time>
            <Position>
              <LatitudeDegrees>37.83886461518704891204833984375</LatitudeDegrees>
              <LongitudeDegrees>-8.12850189395248889923095703125</LongitudeDegrees>
            </Position>
            <AltitudeMeters>196.8000030517578125</AltitudeMeters>
            <DistanceMeters>280545.59744561</DistanceMeters>
          </Trackpoint>
          <Trackpoint>
            <Time>2018-09-14T13:38:10.000Z</Time>
            <Position>
              <LatitudeDegrees>37.83880057744681835174560546875</LatitudeDegrees>
              <LongitudeDegrees>-8.1284486688673496246337890625</LongitudeDegrees>
            </Position>
            <AltitudeMeters>197</AltitudeMeters>
            <DistanceMeters>280554.12341274</DistanceMeters>
          </Trackpoint>
          <Trackpoint>
            <Time>2018-09-14T13:38:11.000Z</Time>
            <Position>
              <LatitudeDegrees>37.83873737789690494537353515625</LatitudeDegrees>
              <LongitudeDegrees>-8.1283967010676860809326171875</LongitudeDegrees>
            </Position>
            <AltitudeMeters>197</AltitudeMeters>
            <DistanceMeters>280562.51110166</DistanceMeters>
          </Trackpoint>
          <Trackpoint>
            <Time>2018-09-14T13:38:12.000Z</Time>
            <Position>
              <LatitudeDegrees>37.83867384307086467742919921875</LatitudeDegrees>
              <LongitudeDegrees>-8.12834515236318111419677734375</LongitudeDegrees>
            </Position>
            <AltitudeMeters>196.8000030517578125</AltitudeMeters>
            <DistanceMeters>280570.90901194</DistanceMeters>
          </Trackpoint>
          <Trackpoint>
            <Time>2018-09-14T13:38:13.000Z</Time>
            <Position>
              <LatitudeDegrees>37.83861047588288784027099609375</LatitudeDegrees>
              <LongitudeDegrees>-8.12829402275383472442626953125</LongitudeDegrees>
            </Position>
            <AltitudeMeters>196.8000030517578125</AltitudeMeters>
            <DistanceMeters>280579.27244259</DistanceMeters>
          </Trackpoint>
          <Trackpoint>
            <Time>2018-09-14T13:38:14.000Z</Time>
            <Position>
              <LatitudeDegrees>37.83854777924716472625732421875</LatitudeDegrees>
              <LongitudeDegrees>-8.1282424740493297576904296875</LongitudeDegrees>
            </Position>
            <AltitudeMeters>196.8000030517578125</AltitudeMeters>
            <DistanceMeters>280587.59257275</DistanceMeters>
          </Trackpoint>
          <Trackpoint>
            <Time>2018-09-14T13:38:15.000Z</Time>
            <Position>
              <LatitudeDegrees>37.83848516643047332763671875</LatitudeDegrees>
              <LongitudeDegrees>-8.128192014992237091064453125</LongitudeDegrees>
            </Position>
            <AltitudeMeters>196.8000030517578125</AltitudeMeters>
            <DistanceMeters>280595.85388728</DistanceMeters>
          </Trackpoint>
          <Trackpoint>
            <Time>2018-09-14T13:38:16.000Z</Time>
            <Position>
              <LatitudeDegrees>37.8384246490895748138427734375</LatitudeDegrees>
              <LongitudeDegrees>-8.12814138829708099365234375</LongitudeDegrees>
            </Position>
            <AltitudeMeters>197</AltitudeMeters>
            <DistanceMeters>280603.92668492</DistanceMeters>
          </Trackpoint>
          <Trackpoint>
            <Time>2018-09-14T13:38:17.000Z</Time>
            <Position>
              <LatitudeDegrees>37.8383642993867397308349609375</LatitudeDegrees>
              <LongitudeDegrees>-8.1280912645161151885986328125</LongitudeDegrees>
            </Position>
            <AltitudeMeters>196.8000030517578125</AltitudeMeters>
            <DistanceMeters>280611.95967479</DistanceMeters>
          </Trackpoint>
          <Trackpoint>
            <Time>2018-09-14T13:38:18.000Z</Time>
            <Position>
              <LatitudeDegrees>37.83830252476036548614501953125</LatitudeDegrees>
              <LongitudeDegrees>-8.12804105691611766815185546875</LongitudeDegrees>
            </Position>
            <AltitudeMeters>196.399993896484375</AltitudeMeters>
            <DistanceMeters>280620.13031462</DistanceMeters>
          </Trackpoint>
          <Trackpoint>
            <Time>2018-09-14T13:38:19.000Z</Time>
            <Position>
              <LatitudeDegrees>37.8382404148578643798828125</LatitudeDegrees>
              <LongitudeDegrees>-8.127990849316120147705078125</LongitudeDegrees>
            </Position>
            <AltitudeMeters>196.1999969482421875</AltitudeMeters>
            <DistanceMeters>280628.33239176</DistanceMeters>
          </Trackpoint>
          <Trackpoint>
            <Time>2018-09-14T13:38:20.000Z</Time>
            <Position>
              <LatitudeDegrees>37.83817914314568042755126953125</LatitudeDegrees>
              <LongitudeDegrees>-8.12794080935418605804443359375</LongitudeDegrees>
            </Position>
            <AltitudeMeters>195.8000030517578125</AltitudeMeters>
            <DistanceMeters>280636.44758415</DistanceMeters>
          </Trackpoint>
          <Trackpoint>
            <Time>2018-09-14T13:38:21.000Z</Time>
            <Position>
              <LatitudeDegrees>37.8381175361573696136474609375</LatitudeDegrees>
              <LongitudeDegrees>-8.12789303250610828399658203125</LongitudeDegrees>
            </Position>
            <AltitudeMeters>195.399993896484375</AltitudeMeters>
            <DistanceMeters>280644.48900053</DistanceMeters>
          </Trackpoint>
          <Trackpoint>
            <Time>2018-09-14T13:38:22.000Z</Time>
            <Position>
              <LatitudeDegrees>37.83805794082581996917724609375</LatitudeDegrees>
              <LongitudeDegrees>-8.1278431601822376251220703125</LongitudeDegrees>
            </Position>
            <AltitudeMeters>195.600006103515625</AltitudeMeters>
            <DistanceMeters>280652.44064158</DistanceMeters>
          </Trackpoint>
          <Trackpoint>
            <Time>2018-09-14T13:38:23.000Z</Time>
            <Position>
              <LatitudeDegrees>37.837998680770397186279296875</LatitudeDegrees>
              <LongitudeDegrees>-8.1277935393154621124267578125</LongitudeDegrees>
            </Position>
            <AltitudeMeters>196.1999969482421875</AltitudeMeters>
            <DistanceMeters>280660.34786924</DistanceMeters>
          </Trackpoint>
          <Trackpoint>
            <Time>2018-09-14T13:38:24.000Z</Time>
            <Position>
              <LatitudeDegrees>37.83793841488659381866455078125</LatitudeDegrees>
              <LongitudeDegrees>-8.127744756639003753662109375</LongitudeDegrees>
            </Position>
            <AltitudeMeters>196.600006103515625</AltitudeMeters>
            <DistanceMeters>280668.30859009</DistanceMeters>
          </Trackpoint>
          <Trackpoint>
            <Time>2018-09-14T13:38:25.000Z</Time>
            <Position>
              <LatitudeDegrees>37.83787823282182216644287109375</LatitudeDegrees>
              <LongitudeDegrees>-8.1276956386864185333251953125</LongitudeDegrees>
            </Position>
            <AltitudeMeters>197</AltitudeMeters>
            <DistanceMeters>280676.27781387</DistanceMeters>
          </Trackpoint>
          <Trackpoint>
            <Time>2018-09-14T13:38:26.000Z</Time>
            <Position>
              <LatitudeDegrees>37.8378193080425262451171875</LatitudeDegrees>
              <LongitudeDegrees>-8.1276473589241504669189453125</LongitudeDegrees>
            </Position>
            <AltitudeMeters>197.399993896484375</AltitudeMeters>
            <DistanceMeters>280684.08968027</DistanceMeters>
          </Trackpoint>
          <Trackpoint>
            <Time>2018-09-14T13:38:27.000Z</Time>
            <Position>
              <LatitudeDegrees>37.83776071853935718536376953125</LatitudeDegrees>
              <LongitudeDegrees>-8.1275990791618824005126953125</LongitudeDegrees>
            </Position>
            <AltitudeMeters>197.8000030517578125</AltitudeMeters>
            <DistanceMeters>280691.87027359</DistanceMeters>
          </Trackpoint>
          <Trackpoint>
            <Time>2018-09-14T13:38:28.000Z</Time>
            <Position>
              <LatitudeDegrees>37.8377024643123149871826171875</LatitudeDegrees>
              <LongitudeDegrees>-8.127550967037677764892578125</LongitudeDegrees>
            </Position>
            <AltitudeMeters>197.8000030517578125</AltitudeMeters>
            <DistanceMeters>280699.61130629</DistanceMeters>
          </Trackpoint>
          <Trackpoint>
            <Time>2018-09-14T13:38:29.000Z</Time>
            <Position>
              <LatitudeDegrees>37.83764404244720935821533203125</LatitudeDegrees>
              <LongitudeDegrees>-8.12750260345637798309326171875</LongitudeDegrees>
            </Position>
            <AltitudeMeters>198</AltitudeMeters>
            <DistanceMeters>280707.38028505</DistanceMeters>
          </Trackpoint>
          <Trackpoint>
            <Time>2018-09-14T13:38:30.000Z</Time>
            <Position>
              <LatitudeDegrees>37.83758637495338916778564453125</LatitudeDegrees>
              <LongitudeDegrees>-8.127454407513141632080078125</LongitudeDegrees>
            </Position>
            <AltitudeMeters>197.8000030517578125</AltitudeMeters>
            <DistanceMeters>280715.07099378</DistanceMeters>
          </Trackpoint>
          <Trackpoint>
            <Time>2018-09-14T13:38:31.000Z</Time>
            <Position>
              <LatitudeDegrees>37.83752954564988613128662109375</LatitudeDegrees>
              <LongitudeDegrees>-8.1274056248366832733154296875</LongitudeDegrees>
            </Position>
            <AltitudeMeters>197.600006103515625</AltitudeMeters>
            <DistanceMeters>280722.7122289</DistanceMeters>
          </Trackpoint>
          <Trackpoint>
            <Time>2018-09-14T13:38:32.000Z</Time>
            <Position>
              <LatitudeDegrees>37.8374717943370342254638671875</LatitudeDegrees>
              <LongitudeDegrees>-8.127357177436351776123046875</LongitudeDegrees>
            </Position>
            <AltitudeMeters>197.600006103515625</AltitudeMeters>
            <DistanceMeters>280730.42287241</DistanceMeters>
          </Trackpoint>
          <Trackpoint>
            <Time>2018-09-14T13:38:33.000Z</Time>
            <Position>
              <LatitudeDegrees>37.83741404302418231964111328125</LatitudeDegrees>
              <LongitudeDegrees>-8.1273092329502105712890625</LongitudeDegrees>
            </Position>
            <AltitudeMeters>197.399993896484375</AltitudeMeters>
            <DistanceMeters>280738.10888309</DistanceMeters>
          </Trackpoint>
          <Trackpoint>
            <Time>2018-09-14T13:38:34.000Z</Time>
            <Position>
              <LatitudeDegrees>37.83735620789229869842529296875</LatitudeDegrees>
              <LongitudeDegrees>-8.12726153992116451263427734375</LongitudeDegrees>
            </Position>
            <AltitudeMeters>197.1999969482421875</AltitudeMeters>
            <DistanceMeters>280745.79136834</DistanceMeters>
          </Trackpoint>
          <Trackpoint>
            <Time>2018-09-14T13:38:35.000Z</Time>
            <Position>
              <LatitudeDegrees>37.83729828894138336181640625</LatitudeDegrees>
              <LongitudeDegrees>-8.12721326015889644622802734375</LongitudeDegrees>
            </Position>
            <AltitudeMeters>197</AltitudeMeters>
            <DistanceMeters>280753.51020532</DistanceMeters>
          </Trackpoint>
          <Trackpoint>
            <Time>2018-09-14T13:38:36.000Z</Time>
            <Position>
              <LatitudeDegrees>37.83724053762853145599365234375</LatitudeDegrees>
              <LongitudeDegrees>-8.12716464512050151824951171875</LongitudeDegrees>
            </Position>
            <AltitudeMeters>196.8000030517578125</AltitudeMeters>
            <DistanceMeters>280761.2290423</DistanceMeters>
          </Trackpoint>
          <Trackpoint>
            <Time>2018-09-14T13:38:37.000Z</Time>
            <Position>
              <LatitudeDegrees>37.83718236722052097320556640625</LatitudeDegrees>
              <LongitudeDegrees>-8.1271159462630748748779296875</LongitudeDegrees>
            </Position>
            <AltitudeMeters>196.600006103515625</AltitudeMeters>
            <DistanceMeters>280768.99104398</DistanceMeters>
          </Trackpoint>
          <Trackpoint>
            <Time>2018-09-14T13:38:38.000Z</Time>
            <Position>
              <LatitudeDegrees>37.83712335862219333648681640625</LatitudeDegrees>
              <LongitudeDegrees>-8.1270669959485530853271484375</LongitudeDegrees>
            </Position>
            <AltitudeMeters>196.399993896484375</AltitudeMeters>
            <DistanceMeters>280776.84211409</DistanceMeters>
          </Trackpoint>
          <Trackpoint>
            <Time>2018-09-14T13:38:39.000Z</Time>
            <Position>
              <LatitudeDegrees>37.83706418238580226898193359375</LatitudeDegrees>
              <LongitudeDegrees>-8.12701762653887271881103515625</LongitudeDegrees>
            </Position>
            <AltitudeMeters>196.399993896484375</AltitudeMeters>
            <DistanceMeters>280784.72990381</DistanceMeters>
          </Trackpoint>
          <Trackpoint>
            <Time>2018-09-14T13:38:40.000Z</Time>
            <Position>
              <LatitudeDegrees>37.8370039165019989013671875</LatitudeDegrees>
              <LongitudeDegrees>-8.126968927681446075439453125</LongitudeDegrees>
            </Position>
            <AltitudeMeters>196.399993896484375</AltitudeMeters>
            <DistanceMeters>280792.68722095</DistanceMeters>
          </Trackpoint>
          <Trackpoint>
            <Time>2018-09-14T13:38:41.000Z</Time>
            <Position>
              <LatitudeDegrees>37.83694348298013210296630859375</LatitudeDegrees>
              <LongitudeDegrees>-8.12692056410014629364013671875</LongitudeDegrees>
            </Position>
            <AltitudeMeters>196.1999969482421875</AltitudeMeters>
            <DistanceMeters>280800.64510547</DistanceMeters>
          </Trackpoint>
          <Trackpoint>
            <Time>2018-09-14T13:38:42.000Z</Time>
            <Position>
              <LatitudeDegrees>37.83688330091536045074462890625</LatitudeDegrees>
              <LongitudeDegrees>-8.12687270343303680419921875</LongitudeDegrees>
            </Position>
            <AltitudeMeters>196.1999969482421875</AltitudeMeters>
            <DistanceMeters>280808.55518763</DistanceMeters>
          </Trackpoint>
          <Trackpoint>
            <Time>2018-09-14T13:38:43.000Z</Time>
            <Position>
              <LatitudeDegrees>37.8368253819644451141357421875</LatitudeDegrees>
              <LongitudeDegrees>-8.1268262676894664764404296875</LongitudeDegrees>
            </Position>
            <AltitudeMeters>196.1999969482421875</AltitudeMeters>
            <DistanceMeters>280816.18518781</DistanceMeters>
          </Trackpoint>
          <Trackpoint>
            <Time>2018-09-14T13:38:44.000Z</Time>
            <Position>
              <LatitudeDegrees>37.836768887937068939208984375</LatitudeDegrees>
              <LongitudeDegrees>-8.12677907757461071014404296875</LongitudeDegrees>
            </Position>
            <AltitudeMeters>196</AltitudeMeters>
            <DistanceMeters>280823.71811555</DistanceMeters>
          </Trackpoint>
          <Trackpoint>
            <Time>2018-09-14T13:38:45.000Z</Time>
            <Position>
              <LatitudeDegrees>37.83671415410935878753662109375</LatitudeDegrees>
              <LongitudeDegrees>-8.12673213891685009002685546875</LongitudeDegrees>
            </Position>
            <AltitudeMeters>195.8000030517578125</AltitudeMeters>
            <DistanceMeters>280831.07639921</DistanceMeters>
          </Trackpoint>
          <Trackpoint>
            <Time>2018-09-14T13:38:46.000Z</Time>
            <Position>
              <LatitudeDegrees>37.83666067756712436676025390625</LatitudeDegrees>
              <LongitudeDegrees>-8.12668494880199432373046875</LongitudeDegrees>
            </Position>
            <AltitudeMeters>195.600006103515625</AltitudeMeters>
            <DistanceMeters>280838.3308658</DistanceMeters>
          </Trackpoint>
          <Trackpoint>
            <Time>2018-09-14T13:38:47.000Z</Time>
            <Position>
              <LatitudeDegrees>37.83660636283457279205322265625</LatitudeDegrees>
              <LongitudeDegrees>-8.12663658522069454193115234375</LongitudeDegrees>
            </Position>
            <AltitudeMeters>195.399993896484375</AltitudeMeters>
            <DistanceMeters>280845.72220955</DistanceMeters>
          </Trackpoint>
          <Trackpoint>
            <Time>2018-09-14T13:38:48.000Z</Time>
            <Position>
              <LatitudeDegrees>37.836551629006862640380859375</LatitudeDegrees>
              <LongitudeDegrees>-8.126586377620697021484375</LongitudeDegrees>
            </Position>
            <AltitudeMeters>195.1999969482421875</AltitudeMeters>
            <DistanceMeters>280853.24434083</DistanceMeters>
          </Trackpoint>
          <Trackpoint>
            <Time>2018-09-14T13:38:49.000Z</Time>
            <Position>
              <LatitudeDegrees>37.83649739809334278106689453125</LatitudeDegrees>
              <LongitudeDegrees>-8.126534409821033477783203125</LongitudeDegrees>
            </Position>
            <AltitudeMeters>194.8000030517578125</AltitudeMeters>
            <DistanceMeters>280860.81433853</DistanceMeters>
          </Trackpoint>
          <Trackpoint>
            <Time>2018-09-14T13:38:50.000Z</Time>
            <Position>
              <LatitudeDegrees>37.83644241280853748321533203125</LatitudeDegrees>
              <LongitudeDegrees>-8.12648185528814792633056640625</LongitudeDegrees>
            </Position>
            <AltitudeMeters>194.600006103515625</AltitudeMeters>
            <DistanceMeters>280868.48152821</DistanceMeters>
          </Trackpoint>
          <Trackpoint>
            <Time>2018-09-14T13:38:51.000Z</Time>
            <Position>
              <LatitudeDegrees>37.83638826571404933929443359375</LatitudeDegrees>
              <LongitudeDegrees>-8.126428127288818359375</LongitudeDegrees>
            </Position>
            <AltitudeMeters>194.399993896484375</AltitudeMeters>
            <DistanceMeters>280876.13811076</DistanceMeters>
          </Trackpoint>
          <Trackpoint>
            <Time>2018-09-14T13:38:52.000Z</Time>
            <Position>
              <LatitudeDegrees>37.83633579500019550323486328125</LatitudeDegrees>
              <LongitudeDegrees>-8.1263712979853153228759765625</LongitudeDegrees>
            </Position>
            <AltitudeMeters>194.1999969482421875</AltitudeMeters>
            <DistanceMeters>280883.82294647</DistanceMeters>
          </Trackpoint>
          <Trackpoint>
            <Time>2018-09-14T13:38:53.000Z</Time>
            <Position>
              <LatitudeDegrees>37.83628600649535655975341796875</LatitudeDegrees>
              <LongitudeDegrees>-8.126309774816036224365234375</LongitudeDegrees>
            </Position>
            <AltitudeMeters>194</AltitudeMeters>
            <DistanceMeters>280891.56631186</DistanceMeters>
          </Trackpoint>
          <Trackpoint>
            <Time>2018-09-14T13:38:54.000Z</Time>
            <Position>
              <LatitudeDegrees>37.83623722381889820098876953125</LatitudeDegrees>
              <LongitudeDegrees>-8.126244731247425079345703125</LongitudeDegrees>
            </Position>
            <AltitudeMeters>194.1999969482421875</AltitudeMeters>
            <DistanceMeters>280899.45181162</DistanceMeters>
          </Trackpoint>
          <Trackpoint>
            <Time>2018-09-14T13:38:55.000Z</Time>
            <Position>
              <LatitudeDegrees>37.836188189685344696044921875</LatitudeDegrees>
              <LongitudeDegrees>-8.12617809511721134185791015625</LongitudeDegrees>
            </Position>
            <AltitudeMeters>194.399993896484375</AltitudeMeters>
            <DistanceMeters>280907.458341</DistanceMeters>
          </Trackpoint>
          <Trackpoint>
            <Time>2018-09-14T13:38:56.000Z</Time>
            <Position>
              <LatitudeDegrees>37.83613915555179119110107421875</LatitudeDegrees>
              <LongitudeDegrees>-8.12611020170152187347412109375</LongitudeDegrees>
            </Position>
            <AltitudeMeters>194.399993896484375</AltitudeMeters>
            <DistanceMeters>280915.54566711</DistanceMeters>
          </Trackpoint>
          <Trackpoint>
            <Time>2018-09-14T13:38:57.000Z</Time>
            <Position>
              <LatitudeDegrees>37.8360938094556331634521484375</LatitudeDegrees>
              <LongitudeDegrees>-8.12604029662907123565673828125</LongitudeDegrees>
            </Position>
            <AltitudeMeters>194.600006103515625</AltitudeMeters>
            <DistanceMeters>280923.4984437</DistanceMeters>
          </Trackpoint>
          <Trackpoint>
            <Time>2018-09-14T13:38:58.000Z</Time>
            <Position>
              <LatitudeDegrees>37.8360502235591411590576171875</LatitudeDegrees>
              <LongitudeDegrees>-8.12596821226179599761962890625</LongitudeDegrees>
            </Position>
            <AltitudeMeters>194.8000030517578125</AltitudeMeters>
            <DistanceMeters>280931.47842484</DistanceMeters>
          </Trackpoint>
          <Trackpoint>
            <Time>2018-09-14T13:38:59.000Z</Time>
            <Position>
              <LatitudeDegrees>37.836005799472332000732421875</LatitudeDegrees>
              <LongitudeDegrees>-8.125892691314220428466796875</LongitudeDegrees>
            </Position>
            <AltitudeMeters>194.8000030517578125</AltitudeMeters>
            <DistanceMeters>280939.755028</DistanceMeters>
          </Trackpoint>
          <Trackpoint>
            <Time>2018-09-14T13:39:00.000Z</Time>
            <Position>
              <LatitudeDegrees>37.83596363849937915802001953125</LatitudeDegrees>
              <LongitudeDegrees>-8.12581591308116912841796875</LongitudeDegrees>
            </Position>
            <AltitudeMeters>194.600006103515625</AltitudeMeters>
            <DistanceMeters>280947.97470147</DistanceMeters>
          </Trackpoint>
          <Trackpoint>
            <Time>2018-09-14T13:39:01.000Z</Time>
            <Position>
              <LatitudeDegrees>37.83592290244996547698974609375</LatitudeDegrees>
              <LongitudeDegrees>-8.12573754228651523590087890625</LongitudeDegrees>
            </Position>
            <AltitudeMeters>194.399993896484375</AltitudeMeters>
            <DistanceMeters>280956.22234149</DistanceMeters>
          </Trackpoint>
          <Trackpoint>
            <Time>2018-09-14T13:39:02.000Z</Time>
            <Position>
              <LatitudeDegrees>37.83588199876248836517333984375</LatitudeDegrees>
              <LongitudeDegrees>-8.12565824948251247406005859375</LongitudeDegrees>
            </Position>
            <AltitudeMeters>194.399993896484375</AltitudeMeters>
            <DistanceMeters>280964.54789654</DistanceMeters>
          </Trackpoint>
          <Trackpoint>
            <Time>2018-09-14T13:39:03.000Z</Time>
            <Position>
              <LatitudeDegrees>37.83584025688469409942626953125</LatitudeDegrees>
              <LongitudeDegrees>-8.12557811848819255828857421875</LongitudeDegrees>
            </Position>
            <AltitudeMeters>194</AltitudeMeters>
            <DistanceMeters>280972.9865684</DistanceMeters>
          </Trackpoint>
          <Trackpoint>
            <Time>2018-09-14T13:39:04.000Z</Time>
            <Position>
              <LatitudeDegrees>37.8357984311878681182861328125</LatitudeDegrees>
              <LongitudeDegrees>-8.12549631111323833465576171875</LongitudeDegrees>
            </Position>
            <AltitudeMeters>193.8000030517578125</AltitudeMeters>
            <DistanceMeters>280981.55321484</DistanceMeters>
          </Trackpoint>
          <Trackpoint>
            <Time>2018-09-14T13:39:05.000Z</Time>
            <Position>
              <LatitudeDegrees>37.83575543202459812164306640625</LatitudeDegrees>
              <LongitudeDegrees>-8.12541467137634754180908203125</LongitudeDegrees>
            </Position>
            <AltitudeMeters>193.600006103515625</AltitudeMeters>
            <DistanceMeters>280990.17921217</DistanceMeters>
          </Trackpoint>
          <Trackpoint>
            <Time>2018-09-14T13:39:06.000Z</Time>
            <Position>
              <LatitudeDegrees>37.835712097585201263427734375</LatitudeDegrees>
              <LongitudeDegrees>-8.1253336183726787567138671875</LongitudeDegrees>
            </Position>
            <AltitudeMeters>193.399993896484375</AltitudeMeters>
            <DistanceMeters>280998.78319768</DistanceMeters>
          </Trackpoint>
          <Trackpoint>
            <Time>2018-09-14T13:39:07.000Z</Time>
            <Position>
              <LatitudeDegrees>37.83567094244062900543212890625</LatitudeDegrees>
              <LongitudeDegrees>-8.1252534873783588409423828125</LongitudeDegrees>
            </Position>
            <AltitudeMeters>193.600006103515625</AltitudeMeters>
            <DistanceMeters>281007.18540796</DistanceMeters>
          </Trackpoint>
          <Trackpoint>
            <Time>2018-09-14T13:39:08.000Z</Time>
            <Position>
              <LatitudeDegrees>37.83562802709639072418212890625</LatitudeDegrees>
              <LongitudeDegrees>-8.12517561949789524078369140625</LongitudeDegrees>
            </Position>
            <AltitudeMeters>194</AltitudeMeters>
            <DistanceMeters>281015.53154538</DistanceMeters>
          </Trackpoint>
          <Trackpoint>
            <Time>2018-09-14T13:39:09.000Z</Time>
            <Position>
              <LatitudeDegrees>37.83558511175215244293212890625</LatitudeDegrees>
              <LongitudeDegrees>-8.12509842216968536376953125</LongitudeDegrees>
            </Position>
            <AltitudeMeters>194.399993896484375</AltitudeMeters>
            <DistanceMeters>281023.82994058</DistanceMeters>
          </Trackpoint>
          <Trackpoint>
            <Time>2018-09-14T13:39:10.000Z</Time>
            <Position>
              <LatitudeDegrees>37.83554286696016788482666015625</LatitudeDegrees>
              <LongitudeDegrees>-8.1250214762985706329345703125</LongitudeDegrees>
            </Position>
            <AltitudeMeters>194.8000030517578125</AltitudeMeters>
            <DistanceMeters>281032.06717278</DistanceMeters>
          </Trackpoint>
          <Trackpoint>
            <Time>2018-09-14T13:39:11.000Z</Time>
            <Position>
              <LatitudeDegrees>37.83550112508237361907958984375</LatitudeDegrees>
              <LongitudeDegrees>-8.12494427897036075592041015625</LongitudeDegrees>
            </Position>
            <AltitudeMeters>195.1999969482421875</AltitudeMeters>
            <DistanceMeters>281040.29178844</DistanceMeters>
          </Trackpoint>
          <Trackpoint>
            <Time>2018-09-14T13:39:12.000Z</Time>
            <Position>
              <LatitudeDegrees>37.83545955084264278411865234375</LatitudeDegrees>
              <LongitudeDegrees>-8.12486917711794376373291015625</LongitudeDegrees>
            </Position>
            <AltitudeMeters>195.600006103515625</AltitudeMeters>
            <DistanceMeters>281048.35451256</DistanceMeters>
          </Trackpoint>
          <Trackpoint>
            <Time>2018-09-14T13:39:13.000Z</Time>
            <Position>
              <LatitudeDegrees>37.83541797660291194915771484375</LatitudeDegrees>
              <LongitudeDegrees>-8.12479373998939990997314453125</LongitudeDegrees>
            </Position>
            <AltitudeMeters>196</AltitudeMeters>
            <DistanceMeters>281056.44128037</DistanceMeters>
          </Trackpoint>
          <Trackpoint>
            <Time>2018-09-14T13:39:14.000Z</Time>
            <Position>
              <LatitudeDegrees>37.8353769890964031219482421875</LatitudeDegrees>
              <LongitudeDegrees>-8.12471863813698291778564453125</LongitudeDegrees>
            </Position>
            <AltitudeMeters>196</AltitudeMeters>
            <DistanceMeters>281064.46639752</DistanceMeters>
          </Trackpoint>
          <Trackpoint>
            <Time>2018-09-14T13:39:15.000Z</Time>
            <Position>
              <LatitudeDegrees>37.835337929427623748779296875</LatitudeDegrees>
              <LongitudeDegrees>-8.12464303337037563323974609375</LongitudeDegrees>
            </Position>
            <AltitudeMeters>195.8000030517578125</AltitudeMeters>
            <DistanceMeters>281072.40781136</DistanceMeters>
          </Trackpoint>
          <Trackpoint>
            <Time>2018-09-14T13:39:16.000Z</Time>
            <Position>
              <LatitudeDegrees>37.83530062995851039886474609375</LatitudeDegrees>
              <LongitudeDegrees>-8.12456843443214893341064453125</LongitudeDegrees>
            </Position>
            <AltitudeMeters>195.8000030517578125</AltitudeMeters>
            <DistanceMeters>281080.16923134</DistanceMeters>
          </Trackpoint>
          <Trackpoint>
            <Time>2018-09-14T13:39:17.000Z</Time>
            <Position>
              <LatitudeDegrees>37.8352616541087627410888671875</LatitudeDegrees>
              <LongitudeDegrees>-8.12449433840811252593994140625</LongitudeDegrees>
            </Position>
            <AltitudeMeters>195.600006103515625</AltitudeMeters>
            <DistanceMeters>281087.99495676</DistanceMeters>
          </Trackpoint>
          <Trackpoint>
            <Time>2018-09-14T13:39:18.000Z</Time>
            <Position>
              <LatitudeDegrees>37.835221253335475921630859375</LatitudeDegrees>
              <LongitudeDegrees>-8.1244216673076152801513671875</LongitudeDegrees>
            </Position>
            <AltitudeMeters>195.399993896484375</AltitudeMeters>
            <DistanceMeters>281095.80740111</DistanceMeters>
          </Trackpoint>
          <Trackpoint>
            <Time>2018-09-14T13:39:19.000Z</Time>
            <Position>
              <LatitudeDegrees>37.83517926000058650970458984375</LatitudeDegrees>
              <LongitudeDegrees>-8.12434849329292774200439453125</LongitudeDegrees>
            </Position>
            <AltitudeMeters>195.1999969482421875</AltitudeMeters>
            <DistanceMeters>281103.75904215</DistanceMeters>
          </Trackpoint>
          <Trackpoint>
            <Time>2018-09-14T13:39:20.000Z</Time>
            <Position>
              <LatitudeDegrees>37.8351365961134433746337890625</LatitudeDegrees>
              <LongitudeDegrees>-8.12427288852632045745849609375</LongitudeDegrees>
            </Position>
            <AltitudeMeters>195</AltitudeMeters>
            <DistanceMeters>281111.92691854</DistanceMeters>
          </Trackpoint>
          <Trackpoint>
            <Time>2018-09-14T13:39:21.000Z</Time>
            <Position>
              <LatitudeDegrees>37.83509217202663421630859375</LatitudeDegrees>
              <LongitudeDegrees>-8.12419451773166656494140625</LongitudeDegrees>
            </Position>
            <AltitudeMeters>194.8000030517578125</AltitudeMeters>
            <DistanceMeters>281120.40722094</DistanceMeters>
          </Trackpoint>
          <Trackpoint>
            <Time>2018-09-14T13:39:22.000Z</Time>
            <Position>
              <LatitudeDegrees>37.8350474126636981964111328125</LatitudeDegrees>
              <LongitudeDegrees>-8.12411296181380748748779296875</LongitudeDegrees>
            </Position>
            <AltitudeMeters>194.600006103515625</AltitudeMeters>
            <DistanceMeters>281129.13727508</DistanceMeters>
          </Trackpoint>
          <Trackpoint>
            <Time>2018-09-14T13:39:23.000Z</Time>
            <Position>
              <LatitudeDegrees>37.83500290475785732269287109375</LatitudeDegrees>
              <LongitudeDegrees>-8.1240273825824260711669921875</LongitudeDegrees>
            </Position>
            <AltitudeMeters>194.1999969482421875</AltitudeMeters>
            <DistanceMeters>281138.14428384</DistanceMeters>
          </Trackpoint>
          <Trackpoint>
            <Time>2018-09-14T13:39:24.000Z</Time>
            <Position>
              <LatitudeDegrees>37.8349572233855724334716796875</LatitudeDegrees>
              <LongitudeDegrees>-8.12394012697041034698486328125</LongitudeDegrees>
            </Position>
            <AltitudeMeters>193.8000030517578125</AltitudeMeters>
            <DistanceMeters>281147.34667792</DistanceMeters>
          </Trackpoint>
          <Trackpoint>
            <Time>2018-09-14T13:39:25.000Z</Time>
            <Position>
              <LatitudeDegrees>37.8349102847278118133544921875</LatitudeDegrees>
              <LongitudeDegrees>-8.12385119497776031494140625</LongitudeDegrees>
            </Position>
            <AltitudeMeters>193.399993896484375</AltitudeMeters>
            <DistanceMeters>281156.7490419</DistanceMeters>
          </Trackpoint>
          <Trackpoint>
            <Time>2018-09-14T13:39:26.000Z</Time>
            <Position>
              <LatitudeDegrees>37.83486108295619487762451171875</LatitudeDegrees>
              <LongitudeDegrees>-8.12376142479479312896728515625</LongitudeDegrees>
            </Position>
            <AltitudeMeters>193</AltitudeMeters>
            <DistanceMeters>281166.3537939</DistanceMeters>
          </Trackpoint>
          <Trackpoint>
            <Time>2018-09-14T13:39:27.000Z</Time>
            <Position>
              <LatitudeDegrees>37.8348097018897533416748046875</LatitudeDegrees>
              <LongitudeDegrees>-8.12367073260247707366943359375</LongitudeDegrees>
            </Position>
            <AltitudeMeters>192.600006103515625</AltitudeMeters>
            <DistanceMeters>281176.1650433</DistanceMeters>
          </Trackpoint>
          <Trackpoint>
            <Time>2018-09-14T13:39:28.000Z</Time>
            <Position>
              <LatitudeDegrees>37.83475647680461406707763671875</LatitudeDegrees>
              <LongitudeDegrees>-8.12357853166759014129638671875</LongitudeDegrees>
            </Position>
            <AltitudeMeters>192</AltitudeMeters>
            <DistanceMeters>281186.20375104</DistanceMeters>
          </Trackpoint>
          <Trackpoint>
            <Time>2018-09-14T13:39:29.000Z</Time>
            <Position>
              <LatitudeDegrees>37.83470316790044307708740234375</LatitudeDegrees>
              <LongitudeDegrees>-8.12348373234272003173828125</LongitudeDegrees>
            </Position>
            <AltitudeMeters>191.399993896484375</AltitudeMeters>
            <DistanceMeters>281196.43314623</DistanceMeters>
          </Trackpoint>
          <Trackpoint>
            <Time>2018-09-14T13:39:30.000Z</Time>
            <Position>
              <LatitudeDegrees>37.83465002663433551788330078125</LatitudeDegrees>
              <LongitudeDegrees>-8.12338558025658130645751953125</LongitudeDegrees>
            </Position>
            <AltitudeMeters>191</AltitudeMeters>
            <DistanceMeters>281206.89385683</DistanceMeters>
          </Trackpoint>
          <Trackpoint>
            <Time>2018-09-14T13:39:31.000Z</Time>
            <Position>
              <LatitudeDegrees>37.83459554426372051239013671875</LatitudeDegrees>
              <LongitudeDegrees>-8.12328617088496685028076171875</LongitudeDegrees>
            </Position>
            <AltitudeMeters>190.8000030517578125</AltitudeMeters>
            <DistanceMeters>281217.53048354</DistanceMeters>
          </Trackpoint>
          <Trackpoint>
            <Time>2018-09-14T13:39:32.000Z</Time>
            <Position>
              <LatitudeDegrees>37.8345401398837566375732421875</LatitudeDegrees>
              <LongitudeDegrees>-8.12318625859916210174560546875</LongitudeDegrees>
            </Position>
            <AltitudeMeters>190.600006103515625</AltitudeMeters>
            <DistanceMeters>281228.26219333</DistanceMeters>
          </Trackpoint>
          <Trackpoint>
            <Time>2018-09-14T13:39:33.000Z</Time>
            <Position>
              <LatitudeDegrees>37.8344854898750782012939453125</LatitudeDegrees>
              <LongitudeDegrees>-8.1230855919420719146728515625</LongitudeDegrees>
            </Position>
            <AltitudeMeters>190.1999969482421875</AltitudeMeters>
            <DistanceMeters>281239.00063252</DistanceMeters>
          </Trackpoint>
          <Trackpoint>
            <Time>2018-09-14T13:39:34.000Z</Time>
            <Position>
              <LatitudeDegrees>37.83443092368543148040771484375</LatitudeDegrees>
              <LongitudeDegrees>-8.1229855120182037353515625</LongitudeDegrees>
            </Position>
            <AltitudeMeters>189.8000030517578125</AltitudeMeters>
            <DistanceMeters>281249.6910323</DistanceMeters>
          </Trackpoint>
          <Trackpoint>
            <Time>2018-09-14T13:39:35.000Z</Time>
            <Position>
              <LatitudeDegrees>37.83437577076256275177001953125</LatitudeDegrees>
              <LongitudeDegrees>-8.12288694083690643310546875</LongitudeDegrees>
            </Position>
            <AltitudeMeters>189.1999969482421875</AltitudeMeters>
            <DistanceMeters>281260.30981587</DistanceMeters>
          </Trackpoint>
          <Trackpoint>
            <Time>2018-09-14T13:39:36.000Z</Time>
            <Position>
              <LatitudeDegrees>37.83432162366807460784912109375</LatitudeDegrees>
              <LongitudeDegrees>-8.12278929166495800018310546875</LongitudeDegrees>
            </Position>
            <AltitudeMeters>188.8000030517578125</AltitudeMeters>
            <DistanceMeters>281270.7981137</DistanceMeters>
          </Trackpoint>
          <Trackpoint>
            <Time>2018-09-14T13:39:37.000Z</Time>
            <Position>
              <LatitudeDegrees>37.83426948823034763336181640625</LatitudeDegrees>
              <LongitudeDegrees>-8.122691810131072998046875</LongitudeDegrees>
            </Position>
            <AltitudeMeters>188.399993896484375</AltitudeMeters>
            <DistanceMeters>281281.14686756</DistanceMeters>
          </Trackpoint>
          <Trackpoint>
            <Time>2018-09-14T13:39:38.000Z</Time>
            <Position>
              <LatitudeDegrees>37.83421768806874752044677734375</LatitudeDegrees>
              <LongitudeDegrees>-8.12259684316813945770263671875</LongitudeDegrees>
            </Position>
            <AltitudeMeters>188</AltitudeMeters>
            <DistanceMeters>281291.29294422</DistanceMeters>
          </Trackpoint>
          <Trackpoint>
            <Time>2018-09-14T13:39:39.000Z</Time>
            <Position>
              <LatitudeDegrees>37.8341656364500522613525390625</LatitudeDegrees>
              <LongitudeDegrees>-8.1225042231380939483642578125</LongitudeDegrees>
            </Position>
            <AltitudeMeters>188</AltitudeMeters>
            <DistanceMeters>281301.28612266</DistanceMeters>
          </Trackpoint>
          <Trackpoint>
            <Time>2018-09-14T13:39:40.000Z</Time>
            <Position>
              <LatitudeDegrees>37.83411459065973758697509765625</LatitudeDegrees>
              <LongitudeDegrees>-8.122412860393524169921875</LongitudeDegrees>
            </Position>
            <AltitudeMeters>187.8000030517578125</AltitudeMeters>
            <DistanceMeters>281311.12402687</DistanceMeters>
          </Trackpoint>
          <Trackpoint>
            <Time>2018-09-14T13:39:41.000Z</Time>
            <Position>
              <LatitudeDegrees>37.83406496979296207427978515625</LatitudeDegrees>
              <LongitudeDegrees>-8.1223228387534618377685546875</LongitudeDegrees>
            </Position>
            <AltitudeMeters>187.8000030517578125</AltitudeMeters>
            <DistanceMeters>281320.77380139</DistanceMeters>
          </Trackpoint>
          <Trackpoint>
            <Time>2018-09-14T13:39:42.000Z</Time>
            <Position>
              <LatitudeDegrees>37.834016270935535430908203125</LatitudeDegrees>
              <LongitudeDegrees>-8.12223382294178009033203125</LongitudeDegrees>
            </Position>
            <AltitudeMeters>187.8000030517578125</AltitudeMeters>
            <DistanceMeters>281330.29213933</DistanceMeters>
          </Trackpoint>
          <Trackpoint>
            <Time>2018-09-14T13:39:43.000Z</Time>
            <Position>
              <LatitudeDegrees>37.83396824263036251068115234375</LatitudeDegrees>
              <LongitudeDegrees>-8.1221464835107326507568359375</LongitudeDegrees>
            </Position>
            <AltitudeMeters>187.600006103515625</AltitudeMeters>
            <DistanceMeters>281339.6473251</DistanceMeters>
          </Trackpoint>
          <Trackpoint>
            <Time>2018-09-14T13:39:44.000Z</Time>
            <Position>
              <LatitudeDegrees>37.83392004668712615966796875</LatitudeDegrees>
              <LongitudeDegrees>-8.12206082046031951904296875</LongitudeDegrees>
            </Position>
            <AltitudeMeters>187.600006103515625</AltitudeMeters>
            <DistanceMeters>281348.89279446</DistanceMeters>
          </Trackpoint>
          <Trackpoint>
            <Time>2018-09-14T13:39:45.000Z</Time>
            <Position>
              <LatitudeDegrees>37.8338729403913021087646484375</LatitudeDegrees>
              <LongitudeDegrees>-8.1219758279621601104736328125</LongitudeDegrees>
            </Position>
            <AltitudeMeters>187.399993896484375</AltitudeMeters>
            <DistanceMeters>281358.020307</DistanceMeters>
          </Trackpoint>
          <Trackpoint>
            <Time>2018-09-14T13:39:46.000Z</Time>
            <Position>
              <LatitudeDegrees>37.8338281810283660888671875</LatitudeDegrees>
              <LongitudeDegrees>-8.12189091928303241729736328125</LongitudeDegrees>
            </Position>
            <AltitudeMeters>187.399993896484375</AltitudeMeters>
            <DistanceMeters>281366.99417026</DistanceMeters>
          </Trackpoint>
          <Trackpoint>
            <Time>2018-09-14T13:39:47.000Z</Time>
            <Position>
              <LatitudeDegrees>37.83378417603671550750732421875</LatitudeDegrees>
              <LongitudeDegrees>-8.1218055076897144317626953125</LongitudeDegrees>
            </Position>
            <AltitudeMeters>187.399993896484375</AltitudeMeters>
            <DistanceMeters>281375.95846891</DistanceMeters>
          </Trackpoint>
          <Trackpoint>
            <Time>2018-09-14T13:39:48.000Z</Time>
            <Position>
              <LatitudeDegrees>37.83373941667377948760986328125</LatitudeDegrees>
              <LongitudeDegrees>-8.121720515191555023193359375</LongitudeDegrees>
            </Position>
            <AltitudeMeters>187.399993896484375</AltitudeMeters>
            <DistanceMeters>281384.93836772</DistanceMeters>
          </Trackpoint>
          <Trackpoint>
            <Time>2018-09-14T13:39:49.000Z</Time>
            <Position>
              <LatitudeDegrees>37.8336935676634311676025390625</LatitudeDegrees>
              <LongitudeDegrees>-8.121634684503078460693359375</LongitudeDegrees>
            </Position>
            <AltitudeMeters>187.399993896484375</AltitudeMeters>
            <DistanceMeters>281394.04706369</DistanceMeters>
          </Trackpoint>
          <Trackpoint>
            <Time>2018-09-14T13:39:50.000Z</Time>
            <Position>
              <LatitudeDegrees>37.83364671282470226287841796875</LatitudeDegrees>
              <LongitudeDegrees>-8.1215493567287921905517578125</LongitudeDegrees>
            </Position>
            <AltitudeMeters>187.399993896484375</AltitudeMeters>
            <DistanceMeters>281403.18248741</DistanceMeters>
          </Trackpoint>
          <Trackpoint>
            <Time>2018-09-14T13:39:51.000Z</Time>
            <Position>
              <LatitudeDegrees>37.8335993550717830657958984375</LatitudeDegrees>
              <LongitudeDegrees>-8.12146411277353763580322265625</LongitudeDegrees>
            </Position>
            <AltitudeMeters>187.399993896484375</AltitudeMeters>
            <DistanceMeters>281412.34406809</DistanceMeters>
          </Trackpoint>
          <Trackpoint>
            <Time>2018-09-14T13:39:52.000Z</Time>
            <Position>
              <LatitudeDegrees>37.83355317078530788421630859375</LatitudeDegrees>
              <LongitudeDegrees>-8.12137861736118793487548828125</LongitudeDegrees>
            </Position>
            <AltitudeMeters>187.1999969482421875</AltitudeMeters>
            <DistanceMeters>281421.44978947</DistanceMeters>
          </Trackpoint>
          <Trackpoint>
            <Time>2018-09-14T13:39:53.000Z</Time>
            <Position>
              <LatitudeDegrees>37.8335078246891498565673828125</LatitudeDegrees>
              <LongitudeDegrees>-8.12129312194883823394775390625</LongitudeDegrees>
            </Position>
            <AltitudeMeters>187.1999969482421875</AltitudeMeters>
            <DistanceMeters>281430.50279858</DistanceMeters>
          </Trackpoint>
          <Trackpoint>
            <Time>2018-09-14T13:39:54.000Z</Time>
            <Position>
              <LatitudeDegrees>37.8334625624120235443115234375</LatitudeDegrees>
              <LongitudeDegrees>-8.12120812945067882537841796875</LongitudeDegrees>
            </Position>
            <AltitudeMeters>187</AltitudeMeters>
            <DistanceMeters>281439.51431773</DistanceMeters>
          </Trackpoint>
          <Trackpoint>
            <Time>2018-09-14T13:39:55.000Z</Time>
            <Position>
              <LatitudeDegrees>37.83341721631586551666259765625</LatitudeDegrees>
              <LongitudeDegrees>-8.121123053133487701416015625</LongitudeDegrees>
            </Position>
            <AltitudeMeters>187</AltitudeMeters>
            <DistanceMeters>281448.5368528</DistanceMeters>
          </Trackpoint>
          <Trackpoint>
            <Time>2018-09-14T13:39:56.000Z</Time>
            <Position>
              <LatitudeDegrees>37.8333720378577709197998046875</LatitudeDegrees>
              <LongitudeDegrees>-8.12103747390210628509521484375</LongitudeDegrees>
            </Position>
            <AltitudeMeters>186.8000030517578125</AltitudeMeters>
            <DistanceMeters>281457.58537219</DistanceMeters>
          </Trackpoint>
          <Trackpoint>
            <Time>2018-09-14T13:39:57.000Z</Time>
            <Position>
              <LatitudeDegrees>37.83332593739032745361328125</LatitudeDegrees>
              <LongitudeDegrees>-8.120952062308788299560546875</LongitudeDegrees>
            </Position>
            <AltitudeMeters>186.8000030517578125</AltitudeMeters>
            <DistanceMeters>281466.67968196</DistanceMeters>
          </Trackpoint>
          <Trackpoint>
            <Time>2018-09-14T13:39:58.000Z</Time>
            <Position>
              <LatitudeDegrees>37.83328008837997913360595703125</LatitudeDegrees>
              <LongitudeDegrees>-8.120865561068058013916015625</LongitudeDegrees>
            </Position>
            <AltitudeMeters>186.8000030517578125</AltitudeMeters>
            <DistanceMeters>281475.83682616</DistanceMeters>
          </Trackpoint>
          <Trackpoint>
            <Time>2018-09-14T13:39:59.000Z</Time>
            <Position>
              <LatitudeDegrees>37.833235748112201690673828125</LatitudeDegrees>
              <LongitudeDegrees>-8.12077696435153484344482421875</LongitudeDegrees>
            </Position>
            <AltitudeMeters>186.600006103515625</AltitudeMeters>
            <DistanceMeters>281485.05686627</DistanceMeters>
          </Trackpoint>
          <Trackpoint>
            <Time>2018-09-14T13:40:00.000Z</Time>
            <Position>
              <LatitudeDegrees>37.83318914473056793212890625</LatitudeDegrees>
              <LongitudeDegrees>-8.1206883676350116729736328125</LongitudeDegrees>
            </Position>
            <AltitudeMeters>186.399993896484375</AltitudeMeters>
            <DistanceMeters>281494.41398234</DistanceMeters>
          </Trackpoint>
          <Trackpoint>
            <Time>2018-09-14T13:40:01.000Z</Time>
            <Position>
              <LatitudeDegrees>37.83314078114926815032958984375</LatitudeDegrees>
              <LongitudeDegrees>-8.120599351823329925537109375</LongitudeDegrees>
            </Position>
            <AltitudeMeters>186.1999969482421875</AltitudeMeters>
            <DistanceMeters>281503.91190125</DistanceMeters>
          </Trackpoint>
          <Trackpoint>
            <Time>2018-09-14T13:40:02.000Z</Time>
            <Position>
              <LatitudeDegrees>37.83309216611087322235107421875</LatitudeDegrees>
              <LongitudeDegrees>-8.1205093301832675933837890625</LongitudeDegrees>
            </Position>
            <AltitudeMeters>186.1999969482421875</AltitudeMeters>
            <DistanceMeters>281513.49830245</DistanceMeters>
          </Trackpoint>
          <Trackpoint>
            <Time>2018-09-14T13:40:03.000Z</Time>
            <Position>
              <LatitudeDegrees>37.833043299615383148193359375</LatitudeDegrees>
              <LongitudeDegrees>-8.12041939236223697662353515625</LongitudeDegrees>
            </Position>
            <AltitudeMeters>186</AltitudeMeters>
            <DistanceMeters>281523.0950597</DistanceMeters>
          </Trackpoint>
          <Trackpoint>
            <Time>2018-09-14T13:40:04.000Z</Time>
            <Position>
              <LatitudeDegrees>37.832995355129241943359375</LatitudeDegrees>
              <LongitudeDegrees>-8.1203292869031429290771484375</LongitudeDegrees>
            </Position>
            <AltitudeMeters>185.8000030517578125</AltitudeMeters>
            <DistanceMeters>281532.6460718</DistanceMeters>
          </Trackpoint>
          <Trackpoint>
            <Time>2018-09-14T13:40:05.000Z</Time>
            <Position>
              <LatitudeDegrees>37.83294766210019588470458984375</LatitudeDegrees>
              <LongitudeDegrees>-8.12023951672017574310302734375</LongitudeDegrees>
            </Position>
            <AltitudeMeters>185.600006103515625</AltitudeMeters>
            <DistanceMeters>281542.1572918</DistanceMeters>
          </Trackpoint>
          <Trackpoint>
            <Time>2018-09-14T13:40:06.000Z</Time>
            <Position>
              <LatitudeDegrees>37.83289887942373752593994140625</LatitudeDegrees>
              <LongitudeDegrees>-8.1201515905559062957763671875</LongitudeDegrees>
            </Position>
            <AltitudeMeters>185.399993896484375</AltitudeMeters>
            <DistanceMeters>281551.60277513</DistanceMeters>
          </Trackpoint>
          <Trackpoint>
            <Time>2018-09-14T13:40:07.000Z</Time>
            <Position>
              <LatitudeDegrees>37.83285043202340602874755859375</LatitudeDegrees>
              <LongitudeDegrees>-8.1200647540390491485595703125</LongitudeDegrees>
            </Position>
            <AltitudeMeters>185.1999969482421875</AltitudeMeters>
            <DistanceMeters>281560.94878655</DistanceMeters>
          </Trackpoint>
          <Trackpoint>
            <Time>2018-09-14T13:40:08.000Z</Time>
            <Position>
              <LatitudeDegrees>37.83280349336564540863037109375</LatitudeDegrees>
              <LongitudeDegrees>-8.11997783370316028594970703125</LongitudeDegrees>
            </Position>
            <AltitudeMeters>185</AltitudeMeters>
            <DistanceMeters>281570.2049934</DistanceMeters>
          </Trackpoint>
          <Trackpoint>
            <Time>2018-09-14T13:40:09.000Z</Time>
            <Position>
              <LatitudeDegrees>37.83275655470788478851318359375</LatitudeDegrees>
              <LongitudeDegrees>-8.119891583919525146484375</LongitudeDegrees>
            </Position>
            <AltitudeMeters>184.8000030517578125</AltitudeMeters>
            <DistanceMeters>281579.41278291</DistanceMeters>
          </Trackpoint>
          <Trackpoint>
            <Time>2018-09-14T13:40:10.000Z</Time>
            <Position>
              <LatitudeDegrees>37.83270844258368015289306640625</LatitudeDegrees>
              <LongitudeDegrees>-8.11980784870684146881103515625</LongitudeDegrees>
            </Position>
            <AltitudeMeters>184.8000030517578125</AltitudeMeters>
            <DistanceMeters>281588.51552873</DistanceMeters>
          </Trackpoint>
          <Trackpoint>
            <Time>2018-09-14T13:40:11.000Z</Time>
            <Position>
              <LatitudeDegrees>37.83265982754528522491455078125</LatitudeDegrees>
              <LongitudeDegrees>-8.11972520314157009124755859375</LongitudeDegrees>
            </Position>
            <AltitudeMeters>184.8000030517578125</AltitudeMeters>
            <DistanceMeters>281597.57452066</DistanceMeters>
          </Trackpoint>
          <Trackpoint>
            <Time>2018-09-14T13:40:12.000Z</Time>
            <Position>
              <LatitudeDegrees>37.83261255361139774322509765625</LatitudeDegrees>
              <LongitudeDegrees>-8.11964037828147411346435546875</LongitudeDegrees>
            </Position>
            <AltitudeMeters>185</AltitudeMeters>
            <DistanceMeters>281606.7005491</DistanceMeters>
          </Trackpoint>
          <Trackpoint>
            <Time>2018-09-14T13:40:13.000Z</Time>
            <Position>
              <LatitudeDegrees>37.83256544731557369232177734375</LatitudeDegrees>
              <LongitudeDegrees>-8.119553625583648681640625</LongitudeDegrees>
            </Position>
            <AltitudeMeters>185</AltitudeMeters>
            <DistanceMeters>281615.9548046</DistanceMeters>
          </Trackpoint>
          <Trackpoint>
            <Time>2018-09-14T13:40:14.000Z</Time>
            <Position>
              <LatitudeDegrees>37.8325177542865276336669921875</LatitudeDegrees>
              <LongitudeDegrees>-8.1194664537906646728515625</LongitudeDegrees>
            </Position>
            <AltitudeMeters>184.8000030517578125</AltitudeMeters>
            <DistanceMeters>281625.27711417</DistanceMeters>
          </Trackpoint>
          <Trackpoint>
            <Time>2018-09-14T13:40:15.000Z</Time>
            <Position>
              <LatitudeDegrees>37.8324704803526401519775390625</LatitudeDegrees>
              <LongitudeDegrees>-8.1193781085312366485595703125</LongitudeDegrees>
            </Position>
            <AltitudeMeters>184.600006103515625</AltitudeMeters>
            <DistanceMeters>281634.65784415</DistanceMeters>
          </Trackpoint>
          <Trackpoint>
            <Time>2018-09-14T13:40:16.000Z</Time>
            <Position>
              <LatitudeDegrees>37.83242362551391124725341796875</LatitudeDegrees>
              <LongitudeDegrees>-8.11928951181471347808837890625</LongitudeDegrees>
            </Position>
            <AltitudeMeters>184.600006103515625</AltitudeMeters>
            <DistanceMeters>281644.03087001</DistanceMeters>
          </Trackpoint>
          <Trackpoint>
            <Time>2018-09-14T13:40:17.000Z</Time>
            <Position>
              <LatitudeDegrees>37.8323769383132457733154296875</LatitudeDegrees>
              <LongitudeDegrees>-8.11920150183141231536865234375</LongitudeDegrees>
            </Position>
            <AltitudeMeters>184.8000030517578125</AltitudeMeters>
            <DistanceMeters>281653.35027317</DistanceMeters>
          </Trackpoint>
          <Trackpoint>
            <Time>2018-09-14T13:40:18.000Z</Time>
            <Position>
              <LatitudeDegrees>37.83233108930289745330810546875</LatitudeDegrees>
              <LongitudeDegrees>-8.119115419685840606689453125</LongitudeDegrees>
            </Position>
            <AltitudeMeters>185</AltitudeMeters>
            <DistanceMeters>281662.47778571</DistanceMeters>
          </Trackpoint>
          <Trackpoint>
            <Time>2018-09-14T13:40:19.000Z</Time>
            <Position>
              <LatitudeDegrees>37.8322850726544857025146484375</LatitudeDegrees>
              <LongitudeDegrees>-8.11903034336864948272705078125</LongitudeDegrees>
            </Position>
            <AltitudeMeters>185.1999969482421875</AltitudeMeters>
            <DistanceMeters>281671.54275651</DistanceMeters>
          </Trackpoint>
          <Trackpoint>
            <Time>2018-09-14T13:40:20.000Z</Time>
            <Position>
              <LatitudeDegrees>37.83223972655832767486572265625</LatitudeDegrees>
              <LongitudeDegrees>-8.11894803307950496673583984375</LongitudeDegrees>
            </Position>
            <AltitudeMeters>185.399993896484375</AltitudeMeters>
            <DistanceMeters>281680.36438895</DistanceMeters>
          </Trackpoint>
          <Trackpoint>
            <Time>2018-09-14T13:40:21.000Z</Time>
            <Position>
              <LatitudeDegrees>37.8321965597569942474365234375</LatitudeDegrees>
              <LongitudeDegrees>-8.11886907555162906646728515625</LongitudeDegrees>
            </Position>
            <AltitudeMeters>185.600006103515625</AltitudeMeters>
            <DistanceMeters>281688.8057356</DistanceMeters>
          </Trackpoint>
          <Trackpoint>
            <Time>2018-09-14T13:40:22.000Z</Time>
            <Position>
              <LatitudeDegrees>37.8321533091366291046142578125</LatitudeDegrees>
              <LongitudeDegrees>-8.118791878223419189453125</LongitudeDegrees>
            </Position>
            <AltitudeMeters>185.8000030517578125</AltitudeMeters>
            <DistanceMeters>281697.12586576</DistanceMeters>
          </Trackpoint>
          <Trackpoint>
            <Time>2018-09-14T13:40:23.000Z</Time>
            <Position>
              <LatitudeDegrees>37.83211064524948596954345703125</LatitudeDegrees>
              <LongitudeDegrees>-8.11871669255197048187255859375</LongitudeDegrees>
            </Position>
            <AltitudeMeters>186.1999969482421875</AltitudeMeters>
            <DistanceMeters>281705.2638373</DistanceMeters>
          </Trackpoint>
          <Trackpoint>
            <Time>2018-09-14T13:40:24.000Z</Time>
            <Position>
              <LatitudeDegrees>37.83206856809556484222412109375</LatitudeDegrees>
              <LongitudeDegrees>-8.1186394952237606048583984375</LongitudeDegrees>
            </Position>
            <AltitudeMeters>186.399993896484375</AltitudeMeters>
            <DistanceMeters>281713.50983485</DistanceMeters>
          </Trackpoint>
          <Trackpoint>
            <Time>2018-09-14T13:40:25.000Z</Time>
            <Position>
              <LatitudeDegrees>37.83202682621777057647705078125</LatitudeDegrees>
              <LongitudeDegrees>-8.11856246553361415863037109375</LongitudeDegrees>
            </Position>
            <AltitudeMeters>186.8000030517578125</AltitudeMeters>
            <DistanceMeters>281721.72291411</DistanceMeters>
          </Trackpoint>
          <Trackpoint>
            <Time>2018-09-14T13:40:26.000Z</Time>
            <Position>
              <LatitudeDegrees>37.83198541961610317230224609375</LatitudeDegrees>
              <LongitudeDegrees>-8.11848719604313373565673828125</LongitudeDegrees>
            </Position>
            <AltitudeMeters>187</AltitudeMeters>
            <DistanceMeters>281729.78619821</DistanceMeters>
          </Trackpoint>
          <Trackpoint>
            <Time>2018-09-14T13:40:27.000Z</Time>
            <Position>
              <LatitudeDegrees>37.83194317482411861419677734375</LatitudeDegrees>
              <LongitudeDegrees>-8.1184128485620021820068359375</LongitudeDegrees>
            </Position>
            <AltitudeMeters>187.1999969482421875</AltitudeMeters>
            <DistanceMeters>281737.83771476</DistanceMeters>
          </Trackpoint>
          <Trackpoint>
            <Time>2018-09-14T13:40:28.000Z</Time>
            <Position>
              <LatitudeDegrees>37.83190168440341949462890625</LatitudeDegrees>
              <LongitudeDegrees>-8.11833783052861690521240234375</LongitudeDegrees>
            </Position>
            <AltitudeMeters>187.399993896484375</AltitudeMeters>
            <DistanceMeters>281745.88867052</DistanceMeters>
          </Trackpoint>
          <Trackpoint>
            <Time>2018-09-14T13:40:29.000Z</Time>
            <Position>
              <LatitudeDegrees>37.83186145126819610595703125</LatitudeDegrees>
              <LongitudeDegrees>-8.11826172284781932830810546875</LongitudeDegrees>
            </Position>
            <AltitudeMeters>187.1999969482421875</AltitudeMeters>
            <DistanceMeters>281753.93962629</DistanceMeters>
          </Trackpoint>
          <Trackpoint>
            <Time>2018-09-14T13:40:30.000Z</Time>
            <Position>
              <LatitudeDegrees>37.831820882856845855712890625</LatitudeDegrees>
              <LongitudeDegrees>-8.11818645335733890533447265625</LongitudeDegrees>
            </Position>
            <AltitudeMeters>187</AltitudeMeters>
            <DistanceMeters>281761.95010213</DistanceMeters>
          </Trackpoint>
          <Trackpoint>
            <Time>2018-09-14T13:40:31.000Z</Time>
            <Position>
              <LatitudeDegrees>37.83178006298840045928955078125</LatitudeDegrees>
              <LongitudeDegrees>-8.11811386607587337493896484375</LongitudeDegrees>
            </Position>
            <AltitudeMeters>186.8000030517578125</AltitudeMeters>
            <DistanceMeters>281769.78274788</DistanceMeters>
          </Trackpoint>
          <Trackpoint>
            <Time>2018-09-14T13:40:32.000Z</Time>
            <Position>
              <LatitudeDegrees>37.8317382372915744781494140625</LatitudeDegrees>
              <LongitudeDegrees>-8.118042536079883575439453125</LongitudeDegrees>
            </Position>
            <AltitudeMeters>186.600006103515625</AltitudeMeters>
            <DistanceMeters>281777.59230204</DistanceMeters>
          </Trackpoint>
          <Trackpoint>
            <Time>2018-09-14T13:40:33.000Z</Time>
            <Position>
              <LatitudeDegrees>37.83169808797538280487060546875</LatitudeDegrees>
              <LongitudeDegrees>-8.11797053553164005279541015625</LongitudeDegrees>
            </Position>
            <AltitudeMeters>186.1999969482421875</AltitudeMeters>
            <DistanceMeters>281785.34033071</DistanceMeters>
          </Trackpoint>
          <Trackpoint>
            <Time>2018-09-14T13:40:34.000Z</Time>
            <Position>
              <LatitudeDegrees>37.83165869303047657012939453125</LatitudeDegrees>
              <LongitudeDegrees>-8.1178978644311428070068359375</LongitudeDegrees>
            </Position>
            <AltitudeMeters>186</AltitudeMeters>
            <DistanceMeters>281793.08835937</DistanceMeters>
          </Trackpoint>
          <Trackpoint>
            <Time>2018-09-14T13:40:35.000Z</Time>
            <Position>
              <LatitudeDegrees>37.8316212259232997894287109375</LatitudeDegrees>
              <LongitudeDegrees>-8.11782536096870899200439453125</LongitudeDegrees>
            </Position>
            <AltitudeMeters>185.600006103515625</AltitudeMeters>
            <DistanceMeters>281800.70473719</DistanceMeters>
          </Trackpoint>
          <Trackpoint>
            <Time>2018-09-14T13:40:36.000Z</Time>
            <Position>
              <LatitudeDegrees>37.83158426173031330108642578125</LatitudeDegrees>
              <LongitudeDegrees>-8.11775445006787776947021484375</LongitudeDegrees>
            </Position>
            <AltitudeMeters>185.399993896484375</AltitudeMeters>
            <DistanceMeters>281808.17386112</DistanceMeters>
          </Trackpoint>
          <Trackpoint>
            <Time>2018-09-14T13:40:37.000Z</Time>
            <Position>
              <LatitudeDegrees>37.831547297537326812744140625</LatitudeDegrees>
              <LongitudeDegrees>-8.11768404208123683929443359375</LongitudeDegrees>
            </Position>
            <AltitudeMeters>185.1999969482421875</AltitudeMeters>
            <DistanceMeters>281815.60662694</DistanceMeters>
          </Trackpoint>
          <Trackpoint>
            <Time>2018-09-14T13:40:38.000Z</Time>
            <Position>
              <LatitudeDegrees>37.83150932751595973968505859375</LatitudeDegrees>
              <LongitudeDegrees>-8.1176128797233104705810546875</LongitudeDegrees>
            </Position>
            <AltitudeMeters>185.1999969482421875</AltitudeMeters>
            <DistanceMeters>281823.15631849</DistanceMeters>
          </Trackpoint>
          <Trackpoint>
            <Time>2018-09-14T13:40:39.000Z</Time>
            <Position>
              <LatitudeDegrees>37.83147127367556095123291015625</LatitudeDegrees>
              <LongitudeDegrees>-8.11754154972732067108154296875</LongitudeDegrees>
            </Position>
            <AltitudeMeters>185.399993896484375</AltitudeMeters>
            <DistanceMeters>281830.72273671</DistanceMeters>
          </Trackpoint>
          <Trackpoint>
            <Time>2018-09-14T13:40:40.000Z</Time>
            <Position>
              <LatitudeDegrees>37.8314329683780670166015625</LatitudeDegrees>
              <LongitudeDegrees>-8.117469884455204010009765625</LongitudeDegrees>
            </Position>
            <AltitudeMeters>185.399993896484375</AltitudeMeters>
            <DistanceMeters>281838.32962371</DistanceMeters>
          </Trackpoint>
          <Trackpoint>
            <Time>2018-09-14T13:40:41.000Z</Time>
            <Position>
              <LatitudeDegrees>37.83139315433800220489501953125</LatitudeDegrees>
              <LongitudeDegrees>-8.11739922501146793365478515625</LongitudeDegrees>
            </Position>
            <AltitudeMeters>185.600006103515625</AltitudeMeters>
            <DistanceMeters>281845.96021562</DistanceMeters>
          </Trackpoint>
          <Trackpoint>
            <Time>2018-09-14T13:40:42.000Z</Time>
            <Position>
              <LatitudeDegrees>37.831352837383747100830078125</LatitudeDegrees>
              <LongitudeDegrees>-8.1173295713961124420166015625</LongitudeDegrees>
            </Position>
            <AltitudeMeters>185.600006103515625</AltitudeMeters>
            <DistanceMeters>281853.55046514</DistanceMeters>
          </Trackpoint>
          <Trackpoint>
            <Time>2018-09-14T13:40:43.000Z</Time>
            <Position>
              <LatitudeDegrees>37.83131302334368228912353515625</LatitudeDegrees>
              <LongitudeDegrees>-8.1172589957714080810546875</LongitudeDegrees>
            </Position>
            <AltitudeMeters>185.8000030517578125</AltitudeMeters>
            <DistanceMeters>281861.17454554</DistanceMeters>
          </Trackpoint>
          <Trackpoint>
            <Time>2018-09-14T13:40:44.000Z</Time>
            <Position>
              <LatitudeDegrees>37.83127379603683948516845703125</LatitudeDegrees>
              <LongitudeDegrees>-8.1171874143183231353759765625</LongitudeDegrees>
            </Position>
            <AltitudeMeters>186</AltitudeMeters>
            <DistanceMeters>281868.8334865</DistanceMeters>
          </Trackpoint>
          <Trackpoint>
            <Time>2018-09-14T13:40:45.000Z</Time>
            <Position>
              <LatitudeDegrees>37.83123473636806011199951171875</LatitudeDegrees>
              <LongitudeDegrees>-8.117115162312984466552734375</LongitudeDegrees>
            </Position>
            <AltitudeMeters>186.1999969482421875</AltitudeMeters>
            <DistanceMeters>281876.53006376</DistanceMeters>
          </Trackpoint>
          <Trackpoint>
            <Time>2018-09-14T13:40:46.000Z</Time>
            <Position>
              <LatitudeDegrees>37.83119550906121730804443359375</LatitudeDegrees>
              <LongitudeDegrees>-8.1170415692031383514404296875</LongitudeDegrees>
            </Position>
            <AltitudeMeters>186.399993896484375</AltitudeMeters>
            <DistanceMeters>281884.33499141</DistanceMeters>
          </Trackpoint>
          <Trackpoint>
            <Time>2018-09-14T13:40:47.000Z</Time>
            <Position>
              <LatitudeDegrees>37.83115594647824764251708984375</LatitudeDegrees>
              <LongitudeDegrees>-8.1169678084552288055419921875</LongitudeDegrees>
            </Position>
            <AltitudeMeters>186.600006103515625</AltitudeMeters>
            <DistanceMeters>281892.17339942</DistanceMeters>
          </Trackpoint>
          <Trackpoint>
            <Time>2018-09-14T13:40:48.000Z</Time>
            <Position>
              <LatitudeDegrees>37.83111571334302425384521484375</LatitudeDegrees>
              <LongitudeDegrees>-8.11689413152635097503662109375</LongitudeDegrees>
            </Position>
            <AltitudeMeters>187</AltitudeMeters>
            <DistanceMeters>281900.04858609</DistanceMeters>
          </Trackpoint>
          <Trackpoint>
            <Time>2018-09-14T13:40:49.000Z</Time>
            <Position>
              <LatitudeDegrees>37.8310760669410228729248046875</LatitudeDegrees>
              <LongitudeDegrees>-8.1168199516832828521728515625</LongitudeDegrees>
            </Position>
            <AltitudeMeters>187.1999969482421875</AltitudeMeters>
            <DistanceMeters>281907.92262602</DistanceMeters>
          </Trackpoint>
          <Trackpoint>
            <Time>2018-09-14T13:40:50.000Z</Time>
            <Position>
              <LatitudeDegrees>37.8310368396341800689697265625</LatitudeDegrees>
              <LongitudeDegrees>-8.1167455203831195831298828125</LongitudeDegrees>
            </Position>
            <AltitudeMeters>187.399993896484375</AltitudeMeters>
            <DistanceMeters>281915.78863414</DistanceMeters>
          </Trackpoint>
          <Trackpoint>
            <Time>2018-09-14T13:40:51.000Z</Time>
            <Position>
              <LatitudeDegrees>37.83099769614636898040771484375</LatitudeDegrees>
              <LongitudeDegrees>-8.1166715919971466064453125</LongitudeDegrees>
            </Position>
            <AltitudeMeters>187.399993896484375</AltitudeMeters>
            <DistanceMeters>281923.61205144</DistanceMeters>
          </Trackpoint>
          <Trackpoint>
            <Time>2018-09-14T13:40:52.000Z</Time>
            <Position>
              <LatitudeDegrees>37.83095796592533588409423828125</LatitudeDegrees>
              <LongitudeDegrees>-8.1165979988873004913330078125</LongitudeDegrees>
            </Position>
            <AltitudeMeters>187.399993896484375</AltitudeMeters>
            <DistanceMeters>281931.44815505</DistanceMeters>
          </Trackpoint>
          <Trackpoint>
            <Time>2018-09-14T13:40:53.000Z</Time>
            <Position>
              <LatitudeDegrees>37.8309184871613979339599609375</LatitudeDegrees>
              <LongitudeDegrees>-8.1165239028632640838623046875</LongitudeDegrees>
            </Position>
            <AltitudeMeters>187.399993896484375</AltitudeMeters>
            <DistanceMeters>281939.30612315</DistanceMeters>
          </Trackpoint>
          <Trackpoint>
            <Time>2018-09-14T13:40:54.000Z</Time>
            <Position>
              <LatitudeDegrees>37.83087900839745998382568359375</LatitudeDegrees>
              <LongitudeDegrees>-8.11644989065825939178466796875</LongitudeDegrees>
            </Position>
            <AltitudeMeters>187.399993896484375</AltitudeMeters>
            <DistanceMeters>281947.15776832</DistanceMeters>
          </Trackpoint>
          <Trackpoint>
            <Time>2018-09-14T13:40:55.000Z</Time>
            <Position>
              <LatitudeDegrees>37.83083860762417316436767578125</LatitudeDegrees>
              <LongitudeDegrees>-8.11637663282454013824462890625</LongitudeDegrees>
            </Position>
            <AltitudeMeters>187.399993896484375</AltitudeMeters>
            <DistanceMeters>281955.01228818</DistanceMeters>
          </Trackpoint>
          <Trackpoint>
            <Time>2018-09-14T13:40:56.000Z</Time>
            <Position>
              <LatitudeDegrees>37.830798961222171783447265625</LatitudeDegrees>
              <LongitudeDegrees>-8.11630371026694774627685546875</LongitudeDegrees>
            </Position>
            <AltitudeMeters>187.399993896484375</AltitudeMeters>
            <DistanceMeters>281962.79520234</DistanceMeters>
          </Trackpoint>
          <Trackpoint>
            <Time>2018-09-14T13:40:57.000Z</Time>
            <Position>
              <LatitudeDegrees>37.83075897954404354095458984375</LatitudeDegrees>
              <LongitudeDegrees>-8.11623145826160907745361328125</LongitudeDegrees>
            </Position>
            <AltitudeMeters>187.399993896484375</AltitudeMeters>
            <DistanceMeters>281970.55022066</DistanceMeters>
          </Trackpoint>
          <Trackpoint>
            <Time>2018-09-14T13:40:58.000Z</Time>
            <Position>
              <LatitudeDegrees>37.83071790821850299835205078125</LatitudeDegrees>
              <LongitudeDegrees>-8.11615887098014354705810546875</LongitudeDegrees>
            </Position>
            <AltitudeMeters>187.600006103515625</AltitudeMeters>
            <DistanceMeters>281978.39956532</DistanceMeters>
          </Trackpoint>
          <Trackpoint>
            <Time>2018-09-14T13:40:59.000Z</Time>
            <Position>
              <LatitudeDegrees>37.8306764177978038787841796875</LatitudeDegrees>
              <LongitudeDegrees>-8.116085864603519439697265625</LongitudeDegrees>
            </Position>
            <AltitudeMeters>187.600006103515625</AltitudeMeters>
            <DistanceMeters>281986.30679298</DistanceMeters>
          </Trackpoint>
          <Trackpoint>
            <Time>2018-09-14T13:41:00.000Z</Time>
            <Position>
              <LatitudeDegrees>37.83063459210097789764404296875</LatitudeDegrees>
              <LongitudeDegrees>-8.11601319350302219390869140625</LongitudeDegrees>
            </Position>
            <AltitudeMeters>187.600006103515625</AltitudeMeters>
            <DistanceMeters>281994.21173631</DistanceMeters>
          </Trackpoint>
          <Trackpoint>
            <Time>2018-09-14T13:41:01.000Z</Time>
            <Position>
              <LatitudeDegrees>37.830592431128025054931640625</LatitudeDegrees>
              <LongitudeDegrees>-8.11594069004058837890625</LongitudeDegrees>
            </Position>
            <AltitudeMeters>187.600006103515625</AltitudeMeters>
            <DistanceMeters>282002.12695395</DistanceMeters>
          </Trackpoint>
          <Trackpoint>
            <Time>2018-09-14T13:41:02.000Z</Time>
            <Position>
              <LatitudeDegrees>37.83054976724088191986083984375</LatitudeDegrees>
              <LongitudeDegrees>-8.115868605673313140869140625</LongitudeDegrees>
            </Position>
            <AltitudeMeters>187.399993896484375</AltitudeMeters>
            <DistanceMeters>282010.04559341</DistanceMeters>
          </Trackpoint>
          <Trackpoint>
            <Time>2018-09-14T13:41:03.000Z</Time>
            <Position>
              <LatitudeDegrees>37.83050718717277050018310546875</LatitudeDegrees>
              <LongitudeDegrees>-8.11579677276313304901123046875</LongitudeDegrees>
            </Position>
            <AltitudeMeters>187</AltitudeMeters>
            <DistanceMeters>282017.94139278</DistanceMeters>
          </Trackpoint>
          <Trackpoint>
            <Time>2018-09-14T13:41:04.000Z</Time>
            <Position>
              <LatitudeDegrees>37.83046594820916652679443359375</LatitudeDegrees>
              <LongitudeDegrees>-8.1157239340245723724365234375</LongitudeDegrees>
            </Position>
            <AltitudeMeters>186.8000030517578125</AltitudeMeters>
            <DistanceMeters>282025.81944555</DistanceMeters>
          </Trackpoint>
          <Trackpoint>
            <Time>2018-09-14T13:41:05.000Z</Time>
            <Position>
              <LatitudeDegrees>37.83042655326426029205322265625</LatitudeDegrees>
              <LongitudeDegrees>-8.11564958654344081878662109375</LongitudeDegrees>
            </Position>
            <AltitudeMeters>186.399993896484375</AltitudeMeters>
            <DistanceMeters>282033.69004428</DistanceMeters>
          </Trackpoint>
          <Trackpoint>
            <Time>2018-09-14T13:41:06.000Z</Time>
            <Position>
              <LatitudeDegrees>37.830387242138385772705078125</LatitudeDegrees>
              <LongitudeDegrees>-8.1155747361481189727783203125</LongitudeDegrees>
            </Position>
            <AltitudeMeters>186.1999969482421875</AltitudeMeters>
            <DistanceMeters>282041.59270261</DistanceMeters>
          </Trackpoint>
          <Trackpoint>
            <Time>2018-09-14T13:41:07.000Z</Time>
            <Position>
              <LatitudeDegrees>37.83034793101251125335693359375</LatitudeDegrees>
              <LongitudeDegrees>-8.11550055630505084991455078125</LongitudeDegrees>
            </Position>
            <AltitudeMeters>186</AltitudeMeters>
            <DistanceMeters>282049.44607273</DistanceMeters>
          </Trackpoint>
          <Trackpoint>
            <Time>2018-09-14T13:41:08.000Z</Time>
            <Position>
              <LatitudeDegrees>37.83030845224857330322265625</LatitudeDegrees>
              <LongitudeDegrees>-8.11542629264295101165771484375</LongitudeDegrees>
            </Position>
            <AltitudeMeters>185.8000030517578125</AltitudeMeters>
            <DistanceMeters>282057.31552406</DistanceMeters>
          </Trackpoint>
          <Trackpoint>
            <Time>2018-09-14T13:41:09.000Z</Time>
            <Position>
              <LatitudeDegrees>37.8302677161991596221923828125</LatitudeDegrees>
              <LongitudeDegrees>-8.11535253189504146575927734375</LongitudeDegrees>
            </Position>
            <AltitudeMeters>185.600006103515625</AltitudeMeters>
            <DistanceMeters>282065.22788906</DistanceMeters>
          </Trackpoint>
          <Trackpoint>
            <Time>2018-09-14T13:41:10.000Z</Time>
            <Position>
              <LatitudeDegrees>37.830226309597492218017578125</LatitudeDegrees>
              <LongitudeDegrees>-8.11527843587100505828857421875</LongitudeDegrees>
            </Position>
            <AltitudeMeters>185.399993896484375</AltitudeMeters>
            <DistanceMeters>282073.20730439</DistanceMeters>
          </Trackpoint>
          <Trackpoint>
            <Time>2018-09-14T13:41:11.000Z</Time>
            <Position>
              <LatitudeDegrees>37.830184735357761383056640625</LatitudeDegrees>
              <LongitudeDegrees>-8.115203082561492919921875</LongitudeDegrees>
            </Position>
            <AltitudeMeters>185.1999969482421875</AltitudeMeters>
            <DistanceMeters>282081.28848703</DistanceMeters>
          </Trackpoint>
          <Trackpoint>
            <Time>2018-09-14T13:41:12.000Z</Time>
            <Position>
              <LatitudeDegrees>37.8301433287560939788818359375</LatitudeDegrees>
              <LongitudeDegrees>-8.11512689106166362762451171875</LongitudeDegrees>
            </Position>
            <AltitudeMeters>185</AltitudeMeters>
            <DistanceMeters>282089.41868749</DistanceMeters>
          </Trackpoint>
          <Trackpoint>
            <Time>2018-09-14T13:41:13.000Z</Time>
            <Position>
              <LatitudeDegrees>37.83010192215442657470703125</LatitudeDegrees>
              <LongitudeDegrees>-8.11504893936216831207275390625</LongitudeDegrees>
            </Position>
            <AltitudeMeters>184.8000030517578125</AltitudeMeters>
            <DistanceMeters>282097.67617544</DistanceMeters>
          </Trackpoint>
          <Trackpoint>
            <Time>2018-09-14T13:41:14.000Z</Time>
            <Position>
              <LatitudeDegrees>37.83005959354341030120849609375</LatitudeDegrees>
              <LongitudeDegrees>-8.114969395101070404052734375</LongitudeDegrees>
            </Position>
            <AltitudeMeters>184.8000030517578125</AltitudeMeters>
            <DistanceMeters>282106.1078889</DistanceMeters>
          </Trackpoint>
          <Trackpoint>
            <Time>2018-09-14T13:41:15.000Z</Time>
            <Position>
              <LatitudeDegrees>37.8300159238278865814208984375</LatitudeDegrees>
              <LongitudeDegrees>-8.11488800682127475738525390625</LongitudeDegrees>
            </Position>
            <AltitudeMeters>184.600006103515625</AltitudeMeters>
            <DistanceMeters>282114.75688614</DistanceMeters>
          </Trackpoint>
          <Trackpoint>
            <Time>2018-09-14T13:41:16.000Z</Time>
            <Position>
              <LatitudeDegrees>37.82997091300785541534423828125</LatitudeDegrees>
              <LongitudeDegrees>-8.11480452306568622589111328125</LongitudeDegrees>
            </Position>
            <AltitudeMeters>184.399993896484375</AltitudeMeters>
            <DistanceMeters>282123.64277318</DistanceMeters>
          </Trackpoint>
          <Trackpoint>
            <Time>2018-09-14T13:41:17.000Z</Time>
            <Position>
              <LatitudeDegrees>37.8299240581691265106201171875</LatitudeDegrees>
              <LongitudeDegrees>-8.1147204525768756866455078125</LongitudeDegrees>
            </Position>
            <AltitudeMeters>184</AltitudeMeters>
            <DistanceMeters>282132.68829819</DistanceMeters>
          </Trackpoint>
          <Trackpoint>
            <Time>2018-09-14T13:41:18.000Z</Time>
            <Position>
              <LatitudeDegrees>37.82987552694976329803466796875</LatitudeDegrees>
              <LongitudeDegrees>-8.11463319696485996246337890625</LongitudeDegrees>
            </Position>
            <AltitudeMeters>183.8000030517578125</AltitudeMeters>
            <DistanceMeters>282142.06999074</DistanceMeters>
          </Trackpoint>
          <Trackpoint>
            <Time>2018-09-14T13:41:19.000Z</Time>
            <Position>
              <LatitudeDegrees>37.82982540316879749298095703125</LatitudeDegrees>
              <LongitudeDegrees>-8.11454418115317821502685546875</LongitudeDegrees>
            </Position>
            <AltitudeMeters>183.600006103515625</AltitudeMeters>
            <DistanceMeters>282151.68038208</DistanceMeters>
          </Trackpoint>
          <Trackpoint>
            <Time>2018-09-14T13:41:20.000Z</Time>
            <Position>
              <LatitudeDegrees>37.82977460883557796478271484375</LatitudeDegrees>
              <LongitudeDegrees>-8.11445298604667186737060546875</LongitudeDegrees>
            </Position>
            <AltitudeMeters>183.600006103515625</AltitudeMeters>
            <DistanceMeters>282161.48979056</DistanceMeters>
          </Trackpoint>
          <Trackpoint>
            <Time>2018-09-14T13:41:21.000Z</Time>
            <Position>
              <LatitudeDegrees>37.82972498796880245208740234375</LatitudeDegrees>
              <LongitudeDegrees>-8.114358521997928619384765625</LongitudeDegrees>
            </Position>
            <AltitudeMeters>183.8000030517578125</AltitudeMeters>
            <DistanceMeters>282171.46352216</DistanceMeters>
          </Trackpoint>
          <Trackpoint>
            <Time>2018-09-14T13:41:22.000Z</Time>
            <Position>
              <LatitudeDegrees>37.82967452891170978546142578125</LatitudeDegrees>
              <LongitudeDegrees>-8.1142624653875827789306640625</LongitudeDegrees>
            </Position>
            <AltitudeMeters>184</AltitudeMeters>
            <DistanceMeters>282181.6051478</DistanceMeters>
          </Trackpoint>
          <Trackpoint>
            <Time>2018-09-14T13:41:23.000Z</Time>
            <Position>
              <LatitudeDegrees>37.82962239347398281097412109375</LatitudeDegrees>
              <LongitudeDegrees>-8.1141664087772369384765625</LongitudeDegrees>
            </Position>
            <AltitudeMeters>183.600006103515625</AltitudeMeters>
            <DistanceMeters>282191.85130165</DistanceMeters>
          </Trackpoint>
          <Trackpoint>
            <Time>2018-09-14T13:41:24.000Z</Time>
            <Position>
              <LatitudeDegrees>37.82956950366497039794921875</LatitudeDegrees>
              <LongitudeDegrees>-8.11406917870044708251953125</LongitudeDegrees>
            </Position>
            <AltitudeMeters>183.1999969482421875</AltitudeMeters>
            <DistanceMeters>282202.22968071</DistanceMeters>
          </Trackpoint>
          <Trackpoint>
            <Time>2018-09-14T13:41:25.000Z</Time>
            <Position>
              <LatitudeDegrees>37.82951544038951396942138671875</LatitudeDegrees>
              <LongitudeDegrees>-8.11397085897624492645263671875</LongitudeDegrees>
            </Position>
            <AltitudeMeters>183</AltitudeMeters>
            <DistanceMeters>282212.76093889</DistanceMeters>
          </Trackpoint>
          <Trackpoint>
            <Time>2018-09-14T13:41:26.000Z</Time>
            <Position>
              <LatitudeDegrees>37.82946129329502582550048828125</LatitudeDegrees>
              <LongitudeDegrees>-8.1138708628714084625244140625</LongitudeDegrees>
            </Position>
            <AltitudeMeters>182.1999969482421875</AltitudeMeters>
            <DistanceMeters>282223.41919211</DistanceMeters>
          </Trackpoint>
          <Trackpoint>
            <Time>2018-09-14T13:41:27.000Z</Time>
            <Position>
              <LatitudeDegrees>37.82940723001956939697265625</LatitudeDegrees>
              <LongitudeDegrees>-8.113769106566905975341796875</LongitudeDegrees>
            </Position>
            <AltitudeMeters>181.399993896484375</AltitudeMeters>
            <DistanceMeters>282234.20001369</DistanceMeters>
          </Trackpoint>
          <Trackpoint>
            <Time>2018-09-14T13:41:28.000Z</Time>
            <Position>
              <LatitudeDegrees>37.82935232855379581451416015625</LatitudeDegrees>
              <LongitudeDegrees>-8.1136666797101497650146484375</LongitudeDegrees>
            </Position>
            <AltitudeMeters>180.8000030517578125</AltitudeMeters>
            <DistanceMeters>282245.08212849</DistanceMeters>
          </Trackpoint>
          <Trackpoint>
            <Time>2018-09-14T13:41:29.000Z</Time>
            <Position>
              <LatitudeDegrees>37.8292964212596416473388671875</LatitudeDegrees>
              <LongitudeDegrees>-8.11356358230113983154296875</LongitudeDegrees>
            </Position>
            <AltitudeMeters>180</AltitudeMeters>
            <DistanceMeters>282256.07569675</DistanceMeters>
          </Trackpoint>
          <Trackpoint>
            <Time>2018-09-14T13:41:30.000Z</Time>
            <Position>
              <LatitudeDegrees>37.82924001105129718780517578125</LatitudeDegrees>
              <LongitudeDegrees>-8.1134604848921298980712890625</LongitudeDegrees>
            </Position>
            <AltitudeMeters>179.1999969482421875</AltitudeMeters>
            <DistanceMeters>282267.10125293</DistanceMeters>
          </Trackpoint>
          <Trackpoint>
            <Time>2018-09-14T13:41:31.000Z</Time>
            <Position>
              <LatitudeDegrees>37.82918267883360385894775390625</LatitudeDegrees>
              <LongitudeDegrees>-8.11335814185440540313720703125</LongitudeDegrees>
            </Position>
            <AltitudeMeters>179</AltitudeMeters>
            <DistanceMeters>282278.13131276</DistanceMeters>
          </Trackpoint>
          <Trackpoint>
            <Time>2018-09-14T13:41:32.000Z</Time>
            <Position>
              <LatitudeDegrees>37.829124927520751953125</LatitudeDegrees>
              <LongitudeDegrees>-8.11325588263571262359619140625</LongitudeDegrees>
            </Position>
            <AltitudeMeters>179.1999969482421875</AltitudeMeters>
            <DistanceMeters>282289.18263775</DistanceMeters>
          </Trackpoint>
          <Trackpoint>
            <Time>2018-09-14T13:41:33.000Z</Time>
            <Position>
              <LatitudeDegrees>37.82906801439821720123291015625</LatitudeDegrees>
              <LongitudeDegrees>-8.11315261758863925933837890625</LongitudeDegrees>
            </Position>
            <AltitudeMeters>179.399993896484375</AltitudeMeters>
            <DistanceMeters>282300.25233229</DistanceMeters>
          </Trackpoint>
          <Trackpoint>
            <Time>2018-09-14T13:41:34.000Z</Time>
            <Position>
              <LatitudeDegrees>37.8290109336376190185546875</LatitudeDegrees>
              <LongitudeDegrees>-8.11304884962737560272216796875</LongitudeDegrees>
            </Position>
            <AltitudeMeters>179.399993896484375</AltitudeMeters>
            <DistanceMeters>282311.36923952</DistanceMeters>
          </Trackpoint>
          <Trackpoint>
            <Time>2018-09-14T13:41:35.000Z</Time>
            <Position>
              <LatitudeDegrees>37.82895469106733798980712890625</LatitudeDegrees>
              <LongitudeDegrees>-8.11294390819966793060302734375</LongitudeDegrees>
            </Position>
            <AltitudeMeters>179.600006103515625</AltitudeMeters>
            <DistanceMeters>282322.51778077</DistanceMeters>
          </Trackpoint>
          <Trackpoint>
            <Time>2018-09-14T13:41:36.000Z</Time>
            <Position>
              <LatitudeDegrees>37.828899286687374114990234375</LatitudeDegrees>
              <LongitudeDegrees>-8.11283804476261138916015625</LongitudeDegrees>
            </Position>
            <AltitudeMeters>179.8000030517578125</AltitudeMeters>
            <DistanceMeters>282333.68210544</DistanceMeters>
          </Trackpoint>
          <Trackpoint>
            <Time>2018-09-14T13:41:37.000Z</Time>
            <Position>
              <LatitudeDegrees>37.8288431279361248016357421875</LatitudeDegrees>
              <LongitudeDegrees>-8.1127336062490940093994140625</LongitudeDegrees>
            </Position>
            <AltitudeMeters>179.8000030517578125</AltitudeMeters>
            <DistanceMeters>282344.78926098</DistanceMeters>
          </Trackpoint>
          <Trackpoint>
            <Time>2018-09-14T13:41:38.000Z</Time>
            <Position>
              <LatitudeDegrees>37.82878763973712921142578125</LatitudeDegrees>
              <LongitudeDegrees>-8.1126310117542743682861328125</LongitudeDegrees>
            </Position>
            <AltitudeMeters>180</AltitudeMeters>
            <DistanceMeters>282355.72105094</DistanceMeters>
          </Trackpoint>
          <Trackpoint>
            <Time>2018-09-14T13:41:39.000Z</Time>
            <Position>
              <LatitudeDegrees>37.828732989728450775146484375</LatitudeDegrees>
              <LongitudeDegrees>-8.1125307641923427581787109375</LongitudeDegrees>
            </Position>
            <AltitudeMeters>180.399993896484375</AltitudeMeters>
            <DistanceMeters>282366.42917453</DistanceMeters>
          </Trackpoint>
          <Trackpoint>
            <Time>2018-09-14T13:41:40.000Z</Time>
            <Position>
              <LatitudeDegrees>37.828678674995899200439453125</LatitudeDegrees>
              <LongitudeDegrees>-8.1124335341155529022216796875</LongitudeDegrees>
            </Position>
            <AltitudeMeters>181</AltitudeMeters>
            <DistanceMeters>282376.89851394</DistanceMeters>
          </Trackpoint>
          <Trackpoint>
            <Time>2018-09-14T13:41:41.000Z</Time>
            <Position>
              <LatitudeDegrees>37.828626371920108795166015625</LatitudeDegrees>
              <LongitudeDegrees>-8.1123369745910167694091796875</LongitudeDegrees>
            </Position>
            <AltitudeMeters>181.399993896484375</AltitudeMeters>
            <DistanceMeters>282387.19127144</DistanceMeters>
          </Trackpoint>
          <Trackpoint>
            <Time>2018-09-14T13:41:42.000Z</Time>
            <Position>
              <LatitudeDegrees>37.8285762481391429901123046875</LatitudeDegrees>
              <LongitudeDegrees>-8.11224267818033695220947265625</LongitudeDegrees>
            </Position>
            <AltitudeMeters>181.600006103515625</AltitudeMeters>
            <DistanceMeters>282397.18309435</DistanceMeters>
          </Trackpoint>
          <Trackpoint>
            <Time>2018-09-14T13:41:43.000Z</Time>
            <Position>
              <LatitudeDegrees>37.82852754928171634674072265625</LatitudeDegrees>
              <LongitudeDegrees>-8.1121522374451160430908203125</LongitudeDegrees>
            </Position>
            <AltitudeMeters>181.600006103515625</AltitudeMeters>
            <DistanceMeters>282406.80569296</DistanceMeters>
          </Trackpoint>
          <Trackpoint>
            <Time>2018-09-14T13:41:44.000Z</Time>
            <Position>
              <LatitudeDegrees>37.828480191528797149658203125</LatitudeDegrees>
              <LongitudeDegrees>-8.11206447891891002655029296875</LongitudeDegrees>
            </Position>
            <AltitudeMeters>181.600006103515625</AltitudeMeters>
            <DistanceMeters>282416.14928857</DistanceMeters>
          </Trackpoint>
          <Trackpoint>
            <Time>2018-09-14T13:41:45.000Z</Time>
            <Position>
              <LatitudeDegrees>37.82843350432813167572021484375</LatitudeDegrees>
              <LongitudeDegrees>-8.11197948642075061798095703125</LongitudeDegrees>
            </Position>
            <AltitudeMeters>181.600006103515625</AltitudeMeters>
            <DistanceMeters>282425.25054625</DistanceMeters>
          </Trackpoint>
          <Trackpoint>
            <Time>2018-09-14T13:41:46.000Z</Time>
            <Position>
              <LatitudeDegrees>37.8283881582319736480712890625</LatitudeDegrees>
              <LongitudeDegrees>-8.11189566738903522491455078125</LongitudeDegrees>
            </Position>
            <AltitudeMeters>181.600006103515625</AltitudeMeters>
            <DistanceMeters>282434.18204642</DistanceMeters>
          </Trackpoint>
          <Trackpoint>
            <Time>2018-09-14T13:41:47.000Z</Time>
            <Position>
              <LatitudeDegrees>37.828343398869037628173828125</LatitudeDegrees>
              <LongitudeDegrees>-8.1118142791092395782470703125</LongitudeDegrees>
            </Position>
            <AltitudeMeters>181.8000030517578125</AltitudeMeters>
            <DistanceMeters>282442.89967932</DistanceMeters>
          </Trackpoint>
          <Trackpoint>
            <Time>2018-09-14T13:41:48.000Z</Time>
            <Position>
              <LatitudeDegrees>37.82829939387738704681396484375</LatitudeDegrees>
              <LongitudeDegrees>-8.111733980476856231689453125</LongitudeDegrees>
            </Position>
            <AltitudeMeters>181.8000030517578125</AltitudeMeters>
            <DistanceMeters>282451.49158684</DistanceMeters>
          </Trackpoint>
          <Trackpoint>
            <Time>2018-09-14T13:41:49.000Z</Time>
            <Position>
              <LatitudeDegrees>37.8282558917999267578125</LatitudeDegrees>
              <LongitudeDegrees>-8.11165460385382175445556640625</LongitudeDegrees>
            </Position>
            <AltitudeMeters>181.8000030517578125</AltitudeMeters>
            <DistanceMeters>282459.98518918</DistanceMeters>
          </Trackpoint>
          <Trackpoint>
            <Time>2018-09-14T13:41:50.000Z</Time>
            <Position>
              <LatitudeDegrees>37.8282128088176250457763671875</LatitudeDegrees>
              <LongitudeDegrees>-8.11157665215432643890380859375</LongitudeDegrees>
            </Position>
            <AltitudeMeters>181.8000030517578125</AltitudeMeters>
            <DistanceMeters>282468.34915966</DistanceMeters>
          </Trackpoint>
          <Trackpoint>
            <Time>2018-09-14T13:41:51.000Z</Time>
            <Position>
              <LatitudeDegrees>37.82816964201629161834716796875</LatitudeDegrees>
              <LongitudeDegrees>-8.11149903573095798492431640625</LongitudeDegrees>
            </Position>
            <AltitudeMeters>181.8000030517578125</AltitudeMeters>
            <DistanceMeters>282476.69421506</DistanceMeters>
          </Trackpoint>
          <Trackpoint>
            <Time>2018-09-14T13:41:52.000Z</Time>
            <Position>
              <LatitudeDegrees>37.8281263075768947601318359375</LatitudeDegrees>
              <LongitudeDegrees>-8.11142125166952610015869140625</LongitudeDegrees>
            </Position>
            <AltitudeMeters>181.8000030517578125</AltitudeMeters>
            <DistanceMeters>282485.06196342</DistanceMeters>
          </Trackpoint>
          <Trackpoint>
            <Time>2018-09-14T13:41:53.000Z</Time>
            <Position>
              <LatitudeDegrees>37.82808280549943447113037109375</LatitudeDegrees>
              <LongitudeDegrees>-8.11134413816034793853759765625</LongitudeDegrees>
            </Position>
            <AltitudeMeters>181.8000030517578125</AltitudeMeters>
            <DistanceMeters>282493.39402366</DistanceMeters>
          </Trackpoint>
          <Trackpoint>
            <Time>2018-09-14T13:41:54.000Z</Time>
            <Position>
              <LatitudeDegrees>37.82803955487906932830810546875</LatitudeDegrees>
              <LongitudeDegrees>-8.11126601882278919219970703125</LongitudeDegrees>
            </Position>
            <AltitudeMeters>181.8000030517578125</AltitudeMeters>
            <DistanceMeters>282501.78117427</DistanceMeters>
          </Trackpoint>
          <Trackpoint>
            <Time>2018-09-14T13:41:55.000Z</Time>
            <Position>
              <LatitudeDegrees>37.827998064458370208740234375</LatitudeDegrees>
              <LongitudeDegrees>-8.11118655838072299957275390625</LongitudeDegrees>
            </Position>
            <AltitudeMeters>182</AltitudeMeters>
            <DistanceMeters>282510.15539505</DistanceMeters>
          </Trackpoint>
          <Trackpoint>
            <Time>2018-09-14T13:41:56.000Z</Time>
            <Position>
              <LatitudeDegrees>37.82795607112348079681396484375</LatitudeDegrees>
              <LongitudeDegrees>-8.11110542155802249908447265625</LongitudeDegrees>
            </Position>
            <AltitudeMeters>182.399993896484375</AltitudeMeters>
            <DistanceMeters>282518.68242124</DistanceMeters>
          </Trackpoint>
          <Trackpoint>
            <Time>2018-09-14T13:41:57.000Z</Time>
            <Position>
              <LatitudeDegrees>37.82791131176054477691650390625</LatitudeDegrees>
              <LongitudeDegrees>-8.11102361418306827545166015625</LongitudeDegrees>
            </Position>
            <AltitudeMeters>182.600006103515625</AltitudeMeters>
            <DistanceMeters>282527.43107416</DistanceMeters>
          </Trackpoint>
          <Trackpoint>
            <Time>2018-09-14T13:41:58.000Z</Time>
            <Position>
              <LatitudeDegrees>37.82786437310278415679931640625</LatitudeDegrees>
              <LongitudeDegrees>-8.1109395436942577362060546875</LongitudeDegrees>
            </Position>
            <AltitudeMeters>183</AltitudeMeters>
            <DistanceMeters>282536.48158925</DistanceMeters>
          </Trackpoint>
          <Trackpoint>
            <Time>2018-09-14T13:41:59.000Z</Time>
            <Position>
              <LatitudeDegrees>37.8278175182640552520751953125</LatitudeDegrees>
              <LongitudeDegrees>-8.1108523719012737274169921875</LongitudeDegrees>
            </Position>
            <AltitudeMeters>182.8000030517578125</AltitudeMeters>
            <DistanceMeters>282545.75144402</DistanceMeters>
          </Trackpoint>
          <Trackpoint>
            <Time>2018-09-14T13:42:00.000Z</Time>
            <Position>
              <LatitudeDegrees>37.8277695737779140472412109375</LatitudeDegrees>
              <LongitudeDegrees>-8.11076377518475055694580078125</LongitudeDegrees>
            </Position>
            <AltitudeMeters>182.600006103515625</AltitudeMeters>
            <DistanceMeters>282555.19262427</DistanceMeters>
          </Trackpoint>
          <Trackpoint>
            <Time>2018-09-14T13:42:01.000Z</Time>
            <Position>
              <LatitudeDegrees>37.827719114720821380615234375</LatitudeDegrees>
              <LongitudeDegrees>-8.11067492701113224029541015625</LongitudeDegrees>
            </Position>
            <AltitudeMeters>182.399993896484375</AltitudeMeters>
            <DistanceMeters>282564.81287653</DistanceMeters>
          </Trackpoint>
          <Trackpoint>
            <Time>2018-09-14T13:42:02.000Z</Time>
            <Position>
              <LatitudeDegrees>37.8276671469211578369140625</LatitudeDegrees>
              <LongitudeDegrees>-8.11058498919010162353515625</LongitudeDegrees>
            </Position>
            <AltitudeMeters>182.399993896484375</AltitudeMeters>
            <DistanceMeters>282574.60938879</DistanceMeters>
          </Trackpoint>
          <Trackpoint>
            <Time>2018-09-14T13:42:03.000Z</Time>
            <Position>
              <LatitudeDegrees>37.827615849673748016357421875</LatitudeDegrees>
              <LongitudeDegrees>-8.11049354262650012969970703125</LongitudeDegrees>
            </Position>
            <AltitudeMeters>182.399993896484375</AltitudeMeters>
            <DistanceMeters>282584.46929766</DistanceMeters>
          </Trackpoint>
          <Trackpoint>
            <Time>2018-09-14T13:42:04.000Z</Time>
            <Position>
              <LatitudeDegrees>37.82756379805505275726318359375</LatitudeDegrees>
              <LongitudeDegrees>-8.1104014255106449127197265625</LongitudeDegrees>
            </Position>
            <AltitudeMeters>182.399993896484375</AltitudeMeters>
            <DistanceMeters>282594.42671898</DistanceMeters>
          </Trackpoint>
          <Trackpoint>
            <Time>2018-09-14T13:42:05.000Z</Time>
            <Position>
              <LatitudeDegrees>37.82751099206507205963134765625</LatitudeDegrees>
              <LongitudeDegrees>-8.11030863784253597259521484375</LongitudeDegrees>
            </Position>
            <AltitudeMeters>182</AltitudeMeters>
            <DistanceMeters>282604.48070703</DistanceMeters>
          </Trackpoint>
          <Trackpoint>
            <Time>2018-09-14T13:42:06.000Z</Time>
            <Position>
              <LatitudeDegrees>37.82745818607509136199951171875</LatitudeDegrees>
              <LongitudeDegrees>-8.11021459288895130157470703125</LongitudeDegrees>
            </Position>
            <AltitudeMeters>181.600006103515625</AltitudeMeters>
            <DistanceMeters>282614.62500352</DistanceMeters>
          </Trackpoint>
          <Trackpoint>
            <Time>2018-09-14T13:42:07.000Z</Time>
            <Position>
              <LatitudeDegrees>37.82740630209445953369140625</LatitudeDegrees>
              <LongitudeDegrees>-8.110119290649890899658203125</LongitudeDegrees>
            </Position>
            <AltitudeMeters>181.1999969482421875</AltitudeMeters>
            <DistanceMeters>282624.80129541</DistanceMeters>
          </Trackpoint>
          <Trackpoint>
            <Time>2018-09-14T13:42:08.000Z</Time>
            <Position>
              <LatitudeDegrees>37.8273538313806056976318359375</LatitudeDegrees>
              <LongitudeDegrees>-8.11002264730632305145263671875</LongitudeDegrees>
            </Position>
            <AltitudeMeters>181</AltitudeMeters>
            <DistanceMeters>282635.11158444</DistanceMeters>
          </Trackpoint>
          <Trackpoint>
            <Time>2018-09-14T13:42:09.000Z</Time>
            <Position>
              <LatitudeDegrees>37.82730043865740299224853515625</LatitudeDegrees>
              <LongitudeDegrees>-8.109925501048564910888671875</LongitudeDegrees>
            </Position>
            <AltitudeMeters>180.600006103515625</AltitudeMeters>
            <DistanceMeters>282645.51603331</DistanceMeters>
          </Trackpoint>
          <Trackpoint>
            <Time>2018-09-14T13:42:10.000Z</Time>
            <Position>
              <LatitudeDegrees>37.82724662683904170989990234375</LatitudeDegrees>
              <LongitudeDegrees>-8.10982835479080677032470703125</LongitudeDegrees>
            </Position>
            <AltitudeMeters>180.1999969482421875</AltitudeMeters>
            <DistanceMeters>282655.94691971</DistanceMeters>
          </Trackpoint>
          <Trackpoint>
            <Time>2018-09-14T13:42:11.000Z</Time>
            <Position>
              <LatitudeDegrees>37.827191054821014404296875</LatitudeDegrees>
              <LongitudeDegrees>-8.10973229818046092987060546875</LongitudeDegrees>
            </Position>
            <AltitudeMeters>179.8000030517578125</AltitudeMeters>
            <DistanceMeters>282666.41453394</DistanceMeters>
          </Trackpoint>
          <Trackpoint>
            <Time>2018-09-14T13:42:12.000Z</Time>
            <Position>
              <LatitudeDegrees>37.8271325491368770599365234375</LatitudeDegrees>
              <LongitudeDegrees>-8.109638504683971405029296875</LongitudeDegrees>
            </Position>
            <AltitudeMeters>179.600006103515625</AltitudeMeters>
            <DistanceMeters>282676.92175596</DistanceMeters>
          </Trackpoint>
          <Trackpoint>
            <Time>2018-09-14T13:42:13.000Z</Time>
            <Position>
              <LatitudeDegrees>37.82707245089113712310791015625</LatitudeDegrees>
              <LongitudeDegrees>-8.1095464713871479034423828125</LongitudeDegrees>
            </Position>
            <AltitudeMeters>179.600006103515625</AltitudeMeters>
            <DistanceMeters>282687.4203803</DistanceMeters>
          </Trackpoint>
          <Trackpoint>
            <Time>2018-09-14T13:42:14.000Z</Time>
            <Position>
              <LatitudeDegrees>37.827012352645397186279296875</LatitudeDegrees>
              <LongitudeDegrees>-8.109455443918704986572265625</LongitudeDegrees>
            </Position>
            <AltitudeMeters>179.399993896484375</AltitudeMeters>
            <DistanceMeters>282697.85083384</DistanceMeters>
          </Trackpoint>
          <Trackpoint>
            <Time>2018-09-14T13:42:15.000Z</Time>
            <Position>
              <LatitudeDegrees>37.82695409841835498809814453125</LatitudeDegrees>
              <LongitudeDegrees>-8.10936500318348407745361328125</LongitudeDegrees>
            </Position>
            <AltitudeMeters>179.399993896484375</AltitudeMeters>
            <DistanceMeters>282708.11063896</DistanceMeters>
          </Trackpoint>
          <Trackpoint>
            <Time>2018-09-14T13:42:16.000Z</Time>
            <Position>
              <LatitudeDegrees>37.82689609564840793609619140625</LatitudeDegrees>
              <LongitudeDegrees>-8.109275065362453460693359375</LongitudeDegrees>
            </Position>
            <AltitudeMeters>179.399993896484375</AltitudeMeters>
            <DistanceMeters>282718.31838367</DistanceMeters>
          </Trackpoint>
          <Trackpoint>
            <Time>2018-09-14T13:42:17.000Z</Time>
            <Position>
              <LatitudeDegrees>37.82683976925909519195556640625</LatitudeDegrees>
              <LongitudeDegrees>-8.109184540808200836181640625</LongitudeDegrees>
            </Position>
            <AltitudeMeters>179.1999969482421875</AltitudeMeters>
            <DistanceMeters>282728.44976457</DistanceMeters>
          </Trackpoint>
          <Trackpoint>
            <Time>2018-09-14T13:42:18.000Z</Time>
            <Position>
              <LatitudeDegrees>37.82678713090717792510986328125</LatitudeDegrees>
              <LongitudeDegrees>-8.10909259133040904998779296875</LongitudeDegrees>
            </Position>
            <AltitudeMeters>178.8000030517578125</AltitudeMeters>
            <DistanceMeters>282738.43345045</DistanceMeters>
          </Trackpoint>
          <Trackpoint>
            <Time>2018-09-14T13:42:19.000Z</Time>
            <Position>
              <LatitudeDegrees>37.82673700712621212005615234375</LatitudeDegrees>
              <LongitudeDegrees>-8.1089999713003635406494140625</LongitudeDegrees>
            </Position>
            <AltitudeMeters>178.1999969482421875</AltitudeMeters>
            <DistanceMeters>282748.3034284</DistanceMeters>
          </Trackpoint>
          <Trackpoint>
            <Time>2018-09-14T13:42:20.000Z</Time>
            <Position>
              <LatitudeDegrees>37.8266873024404048919677734375</LatitudeDegrees>
              <LongitudeDegrees>-8.1089087761938571929931640625</LongitudeDegrees>
            </Position>
            <AltitudeMeters>177.600006103515625</AltitudeMeters>
            <DistanceMeters>282758.04401428</DistanceMeters>
          </Trackpoint>
          <Trackpoint>
            <Time>2018-09-14T13:42:21.000Z</Time>
            <Position>
              <LatitudeDegrees>37.8266386874020099639892578125</LatitudeDegrees>
              <LongitudeDegrees>-8.10881850309669971466064453125</LongitudeDegrees>
            </Position>
            <AltitudeMeters>177</AltitudeMeters>
            <DistanceMeters>282767.64876627</DistanceMeters>
          </Trackpoint>
          <Trackpoint>
            <Time>2018-09-14T13:42:22.000Z</Time>
            <Position>
              <LatitudeDegrees>37.82659132964909076690673828125</LatitudeDegrees>
              <LongitudeDegrees>-8.10872848145663738250732421875</LongitudeDegrees>
            </Position>
            <AltitudeMeters>176.399993896484375</AltitudeMeters>
            <DistanceMeters>282777.15761244</DistanceMeters>
          </Trackpoint>
          <Trackpoint>
            <Time>2018-09-14T13:42:23.000Z</Time>
            <Position>
              <LatitudeDegrees>37.82654439099133014678955078125</LatitudeDegrees>
              <LongitudeDegrees>-8.1086392141878604888916015625</LongitudeDegrees>
            </Position>
            <AltitudeMeters>175.8000030517578125</AltitudeMeters>
            <DistanceMeters>282786.58491388</DistanceMeters>
          </Trackpoint>
          <Trackpoint>
            <Time>2018-09-14T13:42:24.000Z</Time>
            <Position>
              <LatitudeDegrees>37.8264948539435863494873046875</LatitudeDegrees>
              <LongitudeDegrees>-8.10855246149003505706787109375</LongitudeDegrees>
            </Position>
            <AltitudeMeters>175.600006103515625</AltitudeMeters>
            <DistanceMeters>282795.99591753</DistanceMeters>
          </Trackpoint>
          <Trackpoint>
            <Time>2018-09-14T13:42:25.000Z</Time>
            <Position>
              <LatitudeDegrees>37.82644598744809627532958984375</LatitudeDegrees>
              <LongitudeDegrees>-8.1084662117063999176025390625</LongitudeDegrees>
            </Position>
            <AltitudeMeters>175.399993896484375</AltitudeMeters>
            <DistanceMeters>282805.3269409</DistanceMeters>
          </Trackpoint>
          <Trackpoint>
            <Time>2018-09-14T13:42:26.000Z</Time>
            <Position>
              <LatitudeDegrees>37.82639955170452594757080078125</LatitudeDegrees>
              <LongitudeDegrees>-8.108377866446971893310546875</LongitudeDegrees>
            </Position>
            <AltitudeMeters>175.1999969482421875</AltitudeMeters>
            <DistanceMeters>282814.65602857</DistanceMeters>
          </Trackpoint>
          <Trackpoint>
            <Time>2018-09-14T13:42:27.000Z</Time>
            <Position>
              <LatitudeDegrees>37.82635412178933620452880859375</LatitudeDegrees>
              <LongitudeDegrees>-8.10828876681625843048095703125</LongitudeDegrees>
            </Position>
            <AltitudeMeters>175.1999969482421875</AltitudeMeters>
            <DistanceMeters>282823.979791</DistanceMeters>
          </Trackpoint>
          <Trackpoint>
            <Time>2018-09-14T13:42:28.000Z</Time>
            <Position>
              <LatitudeDegrees>37.8263060934841632843017578125</LatitudeDegrees>
              <LongitudeDegrees>-8.10820075683295726776123046875</LongitudeDegrees>
            </Position>
            <AltitudeMeters>175</AltitudeMeters>
            <DistanceMeters>282833.38407559</DistanceMeters>
          </Trackpoint>
          <Trackpoint>
            <Time>2018-09-14T13:42:29.000Z</Time>
            <Position>
              <LatitudeDegrees>37.82625655643641948699951171875</LatitudeDegrees>
              <LongitudeDegrees>-8.10811241157352924346923828125</LongitudeDegrees>
            </Position>
            <AltitudeMeters>174.8000030517578125</AltitudeMeters>
            <DistanceMeters>282842.9085781</DistanceMeters>
          </Trackpoint>
          <Trackpoint>
            <Time>2018-09-14T13:42:30.000Z</Time>
            <Position>
              <LatitudeDegrees>37.8262078575789928436279296875</LatitudeDegrees>
              <LongitudeDegrees>-8.10802213847637176513671875</LongitudeDegrees>
            </Position>
            <AltitudeMeters>174.8000030517578125</AltitudeMeters>
            <DistanceMeters>282852.51896945</DistanceMeters>
          </Trackpoint>
          <Trackpoint>
            <Time>2018-09-14T13:42:31.000Z</Time>
            <Position>
              <LatitudeDegrees>37.82616133801639080047607421875</LatitudeDegrees>
              <LongitudeDegrees>-8.10793002136051654815673828125</LongitudeDegrees>
            </Position>
            <AltitudeMeters>175</AltitudeMeters>
            <DistanceMeters>282862.13123984</DistanceMeters>
          </Trackpoint>
          <Trackpoint>
            <Time>2018-09-14T13:42:32.000Z</Time>
            <Position>
              <LatitudeDegrees>37.826117165386676788330078125</LatitudeDegrees>
              <LongitudeDegrees>-8.10783547349274158477783203125</LongitudeDegrees>
            </Position>
            <AltitudeMeters>175</AltitudeMeters>
            <DistanceMeters>282871.78896523</DistanceMeters>
          </Trackpoint>
          <Trackpoint>
            <Time>2018-09-14T13:42:33.000Z</Time>
            <Position>
              <LatitudeDegrees>37.8260739147663116455078125</LatitudeDegrees>
              <LongitudeDegrees>-8.10773924924433231353759765625</LongitudeDegrees>
            </Position>
            <AltitudeMeters>175</AltitudeMeters>
            <DistanceMeters>282881.52259569</DistanceMeters>
          </Trackpoint>
          <Trackpoint>
            <Time>2018-09-14T13:42:34.000Z</Time>
            <Position>
              <LatitudeDegrees>37.8260315023362636566162109375</LatitudeDegrees>
              <LongitudeDegrees>-8.1076431088149547576904296875</LongitudeDegrees>
            </Position>
            <AltitudeMeters>175.1999969482421875</AltitudeMeters>
            <DistanceMeters>282891.20320173</DistanceMeters>
          </Trackpoint>
          <Trackpoint>
            <Time>2018-09-14T13:42:35.000Z</Time>
            <Position>
              <LatitudeDegrees>37.82599009573459625244140625</LatitudeDegrees>
              <LongitudeDegrees>-8.10754797421395778656005859375</LongitudeDegrees>
            </Position>
            <AltitudeMeters>175</AltitudeMeters>
            <DistanceMeters>282900.75232274</DistanceMeters>
          </Trackpoint>
          <Trackpoint>
            <Time>2018-09-14T13:42:36.000Z</Time>
            <Position>
              <LatitudeDegrees>37.825946509838104248046875</LatitudeDegrees>
              <LongitudeDegrees>-8.1074555218219757080078125</LongitudeDegrees>
            </Position>
            <AltitudeMeters>175.1999969482421875</AltitudeMeters>
            <DistanceMeters>282910.21833819</DistanceMeters>
          </Trackpoint>
          <Trackpoint>
            <Time>2018-09-14T13:42:37.000Z</Time>
            <Position>
              <LatitudeDegrees>37.82590082846581935882568359375</LatitudeDegrees>
              <LongitudeDegrees>-8.10736491344869136810302734375</LongitudeDegrees>
            </Position>
            <AltitudeMeters>175.1999969482421875</AltitudeMeters>
            <DistanceMeters>282919.66860041</DistanceMeters>
          </Trackpoint>
          <Trackpoint>
            <Time>2018-09-14T13:42:38.000Z</Time>
            <Position>
              <LatitudeDegrees>37.8258544765412807464599609375</LatitudeDegrees>
              <LongitudeDegrees>-8.10727522708475589752197265625</LongitudeDegrees>
            </Position>
            <AltitudeMeters>175.399993896484375</AltitudeMeters>
            <DistanceMeters>282929.09206961</DistanceMeters>
          </Trackpoint>
          <Trackpoint>
            <Time>2018-09-14T13:42:39.000Z</Time>
            <Position>
              <LatitudeDegrees>37.8258075378835201263427734375</LatitudeDegrees>
              <LongitudeDegrees>-8.10718595981597900390625</LongitudeDegrees>
            </Position>
            <AltitudeMeters>175.399993896484375</AltitudeMeters>
            <DistanceMeters>282938.52032886</DistanceMeters>
          </Trackpoint>
          <Trackpoint>
            <Time>2018-09-14T13:42:40.000Z</Time>
            <Position>
              <LatitudeDegrees>37.82576001249253749847412109375</LatitudeDegrees>
              <LongitudeDegrees>-8.1070962734520435333251953125</LongitudeDegrees>
            </Position>
            <AltitudeMeters>175.1999969482421875</AltitudeMeters>
            <DistanceMeters>282948.01539512</DistanceMeters>
          </Trackpoint>
          <Trackpoint>
            <Time>2018-09-14T13:42:41.000Z</Time>
            <Position>
              <LatitudeDegrees>37.82571190036833286285400390625</LatitudeDegrees>
              <LongitudeDegrees>-8.10700784437358379364013671875</LongitudeDegrees>
            </Position>
            <AltitudeMeters>175.1999969482421875</AltitudeMeters>
            <DistanceMeters>282957.45514058</DistanceMeters>
          </Trackpoint>
          <Trackpoint>
            <Time>2018-09-14T13:42:42.000Z</Time>
            <Position>
              <LatitudeDegrees>37.82566311769187450408935546875</LatitudeDegrees>
              <LongitudeDegrees>-8.10692201368510723114013671875</LongitudeDegrees>
            </Position>
            <AltitudeMeters>175.1999969482421875</AltitudeMeters>
            <DistanceMeters>282966.75125975</DistanceMeters>
          </Trackpoint>
          <Trackpoint>
            <Time>2018-09-14T13:42:43.000Z</Time>
            <Position>
              <LatitudeDegrees>37.82561567611992359161376953125</LatitudeDegrees>
              <LongitudeDegrees>-8.1068377755582332611083984375</LongitudeDegrees>
            </Position>
            <AltitudeMeters>175</AltitudeMeters>
            <DistanceMeters>282975.8470588</DistanceMeters>
          </Trackpoint>
          <Trackpoint>
            <Time>2018-09-14T13:42:44.000Z</Time>
            <Position>
              <LatitudeDegrees>37.82556907273828983306884765625</LatitudeDegrees>
              <LongitudeDegrees>-8.10675454325973987579345703125</LongitudeDegrees>
            </Position>
            <AltitudeMeters>174.8000030517578125</AltitudeMeters>
            <DistanceMeters>282984.81689609</DistanceMeters>
          </Trackpoint>
          <Trackpoint>
            <Time>2018-09-14T13:42:45.000Z</Time>
            <Position>
              <LatitudeDegrees>37.8255240619182586669921875</LatitudeDegrees>
              <LongitudeDegrees>-8.1066731549799442291259765625</LongitudeDegrees>
            </Position>
            <AltitudeMeters>174.600006103515625</AltitudeMeters>
            <DistanceMeters>282993.55160364</DistanceMeters>
          </Trackpoint>
          <Trackpoint>
            <Time>2018-09-14T13:42:46.000Z</Time>
            <Position>
              <LatitudeDegrees>37.82547972165048122406005859375</LatitudeDegrees>
              <LongitudeDegrees>-8.10659394599497318267822265625</LongitudeDegrees>
            </Position>
            <AltitudeMeters>174.399993896484375</AltitudeMeters>
            <DistanceMeters>283002.08656858</DistanceMeters>
          </Trackpoint>
          <Trackpoint>
            <Time>2018-09-14T13:42:47.000Z</Time>
            <Position>
              <LatitudeDegrees>37.8254355490207672119140625</LatitudeDegrees>
              <LongitudeDegrees>-8.106515407562255859375</LongitudeDegrees>
            </Position>
            <AltitudeMeters>174</AltitudeMeters>
            <DistanceMeters>283010.56314326</DistanceMeters>
          </Trackpoint>
          <Trackpoint>
            <Time>2018-09-14T13:42:48.000Z</Time>
            <Position>
              <LatitudeDegrees>37.82539288513362407684326171875</LatitudeDegrees>
              <LongitudeDegrees>-8.10643653385341167449951171875</LongitudeDegrees>
            </Position>
            <AltitudeMeters>173.8000030517578125</AltitudeMeters>
            <DistanceMeters>283018.96857711</DistanceMeters>
          </Trackpoint>
          <Trackpoint>
            <Time>2018-09-14T13:42:49.000Z</Time>
            <Position>
              <LatitudeDegrees>37.8253518976271152496337890625</LatitudeDegrees>
              <LongitudeDegrees>-8.10635673813521862030029296875</LongitudeDegrees>
            </Position>
            <AltitudeMeters>174</AltitudeMeters>
            <DistanceMeters>283027.33740456</DistanceMeters>
          </Trackpoint>
          <Trackpoint>
            <Time>2018-09-14T13:42:50.000Z</Time>
            <Position>
              <LatitudeDegrees>37.825310491025447845458984375</LatitudeDegrees>
              <LongitudeDegrees>-8.1062781997025012969970703125</LongitudeDegrees>
            </Position>
            <AltitudeMeters>174.1999969482421875</AltitudeMeters>
            <DistanceMeters>283035.63906363</DistanceMeters>
          </Trackpoint>
          <Trackpoint>
            <Time>2018-09-14T13:42:51.000Z</Time>
            <Position>
              <LatitudeDegrees>37.82526900060474872589111328125</LatitudeDegrees>
              <LongitudeDegrees>-8.1062004156410694122314453125</LongitudeDegrees>
            </Position>
            <AltitudeMeters>174.399993896484375</AltitudeMeters>
            <DistanceMeters>283043.8905348</DistanceMeters>
          </Trackpoint>
          <Trackpoint>
            <Time>2018-09-14T13:42:52.000Z</Time>
            <Position>
              <LatitudeDegrees>37.825227677822113037109375</LatitudeDegrees>
              <LongitudeDegrees>-8.106122799217700958251953125</LongitudeDegrees>
            </Position>
            <AltitudeMeters>174.600006103515625</AltitudeMeters>
            <DistanceMeters>283052.12008967</DistanceMeters>
          </Trackpoint>
          <Trackpoint>
            <Time>2018-09-14T13:42:53.000Z</Time>
            <Position>
              <LatitudeDegrees>37.8251866064965724945068359375</LatitudeDegrees>
              <LongitudeDegrees>-8.1060461886227130889892578125</LongitudeDegrees>
            </Position>
            <AltitudeMeters>174.8000030517578125</AltitudeMeters>
            <DistanceMeters>283060.26028014</DistanceMeters>
          </Trackpoint>
          <Trackpoint>
            <Time>2018-09-14T13:42:54.000Z</Time>
            <Position>
              <LatitudeDegrees>37.8251457028090953826904296875</LatitudeDegrees>
              <LongitudeDegrees>-8.10597066767513751983642578125</LongitudeDegrees>
            </Position>
            <AltitudeMeters>175</AltitudeMeters>
            <DistanceMeters>283068.31067508</DistanceMeters>
          </Trackpoint>
          <Trackpoint>
            <Time>2018-09-14T13:42:55.000Z</Time>
            <Position>
              <LatitudeDegrees>37.8251056373119354248046875</LatitudeDegrees>
              <LongitudeDegrees>-8.10589514672756195068359375</LongitudeDegrees>
            </Position>
            <AltitudeMeters>175</AltitudeMeters>
            <DistanceMeters>283076.30874119</DistanceMeters>
          </Trackpoint>
          <Trackpoint>
            <Time>2018-09-14T13:42:56.000Z</Time>
            <Position>
              <LatitudeDegrees>37.82506565563380718231201171875</LatitudeDegrees>
              <LongitudeDegrees>-8.10582063160836696624755859375</LongitudeDegrees>
            </Position>
            <AltitudeMeters>175</AltitudeMeters>
            <DistanceMeters>283084.22852092</DistanceMeters>
          </Trackpoint>
          <Trackpoint>
            <Time>2018-09-14T13:42:57.000Z</Time>
            <Position>
              <LatitudeDegrees>37.82502542249858379364013671875</LatitudeDegrees>
              <LongitudeDegrees>-8.1057477928698062896728515625</LongitudeDegrees>
            </Position>
            <AltitudeMeters>175</AltitudeMeters>
            <DistanceMeters>283092.04269886</DistanceMeters>
          </Trackpoint>
          <Trackpoint>
            <Time>2018-09-14T13:42:58.000Z</Time>
            <Position>
              <LatitudeDegrees>37.82498585991561412811279296875</LatitudeDegrees>
              <LongitudeDegrees>-8.1056757085025310516357421875</LongitudeDegrees>
            </Position>
            <AltitudeMeters>175.1999969482421875</AltitudeMeters>
            <DistanceMeters>283099.75919574</DistanceMeters>
          </Trackpoint>
          <Trackpoint>
            <Time>2018-09-14T13:42:59.000Z</Time>
            <Position>
              <LatitudeDegrees>37.824947051703929901123046875</LatitudeDegrees>
              <LongitudeDegrees>-8.1056039594113826751708984375</LongitudeDegrees>
            </Position>
            <AltitudeMeters>175.1999969482421875</AltitudeMeters>
            <DistanceMeters>283107.40397531</DistanceMeters>
          </Trackpoint>
          <Trackpoint>
            <Time>2018-09-14T13:43:00.000Z</Time>
            <Position>
              <LatitudeDegrees>37.8249093331396579742431640625</LatitudeDegrees>
              <LongitudeDegrees>-8.10553363524377346038818359375</LongitudeDegrees>
            </Position>
            <AltitudeMeters>175.399993896484375</AltitudeMeters>
            <DistanceMeters>283114.87793363</DistanceMeters>
          </Trackpoint>
          <Trackpoint>
            <Time>2018-09-14T13:43:01.000Z</Time>
            <Position>
              <LatitudeDegrees>37.82487186603248119354248046875</LatitudeDegrees>
              <LongitudeDegrees>-8.10546574182808399200439453125</LongitudeDegrees>
            </Position>
            <AltitudeMeters>175.399993896484375</AltitudeMeters>
            <DistanceMeters>283122.16035348</DistanceMeters>
          </Trackpoint>
          <Trackpoint>
            <Time>2018-09-14T13:43:02.000Z</Time>
            <Position>
              <LatitudeDegrees>37.8248359076678752899169921875</LatitudeDegrees>
              <LongitudeDegrees>-8.105399943888187408447265625</LongitudeDegrees>
            </Position>
            <AltitudeMeters>175.600006103515625</AltitudeMeters>
            <DistanceMeters>283129.1942563</DistanceMeters>
          </Trackpoint>
          <Trackpoint>
            <Time>2018-09-14T13:43:03.000Z</Time>
            <Position>
              <LatitudeDegrees>37.824801541864871978759765625</LatitudeDegrees>
              <LongitudeDegrees>-8.1053354032337665557861328125</LongitudeDegrees>
            </Position>
            <AltitudeMeters>175.600006103515625</AltitudeMeters>
            <DistanceMeters>283136.03749942</DistanceMeters>
          </Trackpoint>
          <Trackpoint>
            <Time>2018-09-14T13:43:04.000Z</Time>
            <Position>
              <LatitudeDegrees>37.824768014252185821533203125</LatitudeDegrees>
              <LongitudeDegrees>-8.105273209512233734130859375</LongitudeDegrees>
            </Position>
            <AltitudeMeters>175.600006103515625</AltitudeMeters>
            <DistanceMeters>283142.65670866</DistanceMeters>
          </Trackpoint>
          <Trackpoint>
            <Time>2018-09-14T13:43:05.000Z</Time>
            <Position>
              <LatitudeDegrees>37.82473389990627765655517578125</LatitudeDegrees>
              <LongitudeDegrees>-8.1052133627235889434814453125</LongitudeDegrees>
            </Position>
            <AltitudeMeters>175.8000030517578125</AltitudeMeters>
            <DistanceMeters>283149.14571833</DistanceMeters>
          </Trackpoint>
          <Trackpoint>
            <Time>2018-09-14T13:43:06.000Z</Time>
            <Position>
              <LatitudeDegrees>37.824699617922306060791015625</LatitudeDegrees>
              <LongitudeDegrees>-8.10515477322041988372802734375</LongitudeDegrees>
            </Position>
            <AltitudeMeters>175.8000030517578125</AltitudeMeters>
            <DistanceMeters>283155.55562065</DistanceMeters>
          </Trackpoint>
          <Trackpoint>
            <Time>2018-09-14T13:43:07.000Z</Time>
            <Position>
              <LatitudeDegrees>37.82466667704284191131591796875</LatitudeDegrees>
              <LongitudeDegrees>-8.1050960160791873931884765625</LongitudeDegrees>
            </Position>
            <AltitudeMeters>176</AltitudeMeters>
            <DistanceMeters>283161.8897054</DistanceMeters>
          </Trackpoint>
          <Trackpoint>
            <Time>2018-09-14T13:43:08.000Z</Time>
            <Position>
              <LatitudeDegrees>37.8246344067156314849853515625</LatitudeDegrees>
              <LongitudeDegrees>-8.10503709129989147186279296875</LongitudeDegrees>
            </Position>
            <AltitudeMeters>176</AltitudeMeters>
            <DistanceMeters>283168.19378079</DistanceMeters>
          </Trackpoint>
          <Trackpoint>
            <Time>2018-09-14T13:43:09.000Z</Time>
            <Position>
              <LatitudeDegrees>37.82460247166454792022705078125</LatitudeDegrees>
              <LongitudeDegrees>-8.10497925616800785064697265625</LongitudeDegrees>
            </Position>
            <AltitudeMeters>176</AltitudeMeters>
            <DistanceMeters>283174.39750433</DistanceMeters>
          </Trackpoint>
          <Trackpoint>
            <Time>2018-09-14T13:43:10.000Z</Time>
            <Position>
              <LatitudeDegrees>37.824570871889591217041015625</LatitudeDegrees>
              <LongitudeDegrees>-8.10492192395031452178955078125</LongitudeDegrees>
            </Position>
            <AltitudeMeters>176.1999969482421875</AltitudeMeters>
            <DistanceMeters>283180.54272847</DistanceMeters>
          </Trackpoint>
          <Trackpoint>
            <Time>2018-09-14T13:43:11.000Z</Time>
            <Position>
              <LatitudeDegrees>37.82453960739076137542724609375</LatitudeDegrees>
              <LongitudeDegrees>-8.10486383736133575439453125</LongitudeDegrees>
            </Position>
            <AltitudeMeters>176.1999969482421875</AltitudeMeters>
            <DistanceMeters>283186.72238811</DistanceMeters>
          </Trackpoint>
          <Trackpoint>
            <Time>2018-09-14T13:43:12.000Z</Time>
            <Position>
              <LatitudeDegrees>37.82450775615870952606201171875</LatitudeDegrees>
              <LongitudeDegrees>-8.10480616986751556396484375</LongitudeDegrees>
            </Position>
            <AltitudeMeters>176.399993896484375</AltitudeMeters>
            <DistanceMeters>283192.90861991</DistanceMeters>
          </Trackpoint>
          <Trackpoint>
            <Time>2018-09-14T13:43:13.000Z</Time>
            <Position>
              <LatitudeDegrees>37.82447464764118194580078125</LatitudeDegrees>
              <LongitudeDegrees>-8.104749508202075958251953125</LongitudeDegrees>
            </Position>
            <AltitudeMeters>176.600006103515625</AltitudeMeters>
            <DistanceMeters>283199.10433254</DistanceMeters>
          </Trackpoint>
          <Trackpoint>
            <Time>2018-09-14T13:43:14.000Z</Time>
            <Position>
              <LatitudeDegrees>37.82444070093333721160888671875</LatitudeDegrees>
              <LongitudeDegrees>-8.10469293035566806793212890625</LongitudeDegrees>
            </Position>
            <AltitudeMeters>177</AltitudeMeters>
            <DistanceMeters>283205.35012554</DistanceMeters>
          </Trackpoint>
          <Trackpoint>
            <Time>2018-09-14T13:43:15.000Z</Time>
            <Position>
              <LatitudeDegrees>37.8244077600538730621337890625</LatitudeDegrees>
              <LongitudeDegrees>-8.10463584959506988525390625</LongitudeDegrees>
            </Position>
            <AltitudeMeters>177.1999969482421875</AltitudeMeters>
            <DistanceMeters>283211.56475642</DistanceMeters>
          </Trackpoint>
          <Trackpoint>
            <Time>2018-09-14T13:43:16.000Z</Time>
            <Position>
              <LatitudeDegrees>37.82437582500278949737548828125</LatitudeDegrees>
              <LongitudeDegrees>-8.10457952320575714111328125</LongitudeDegrees>
            </Position>
            <AltitudeMeters>177.600006103515625</AltitudeMeters>
            <DistanceMeters>283217.65981463</DistanceMeters>
          </Trackpoint>
          <Trackpoint>
            <Time>2018-09-14T13:43:17.000Z</Time>
            <Position>
              <LatitudeDegrees>37.8243427164852619171142578125</LatitudeDegrees>
              <LongitudeDegrees>-8.10452512465417385101318359375</LongitudeDegrees>
            </Position>
            <AltitudeMeters>177.8000030517578125</AltitudeMeters>
            <DistanceMeters>283223.69681624</DistanceMeters>
          </Trackpoint>
          <Trackpoint>
            <Time>2018-09-14T13:43:18.000Z</Time>
            <Position>
              <LatitudeDegrees>37.82430876977741718292236328125</LatitudeDegrees>
              <LongitudeDegrees>-8.10447181575000286102294921875</LongitudeDegrees>
            </Position>
            <AltitudeMeters>178</AltitudeMeters>
            <DistanceMeters>283229.71734171</DistanceMeters>
          </Trackpoint>
          <Trackpoint>
            <Time>2018-09-14T13:43:19.000Z</Time>
            <Position>
              <LatitudeDegrees>37.8242746554315090179443359375</LatitudeDegrees>
              <LongitudeDegrees>-8.10441934503614902496337890625</LongitudeDegrees>
            </Position>
            <AltitudeMeters>178.399993896484375</AltitudeMeters>
            <DistanceMeters>283235.6927013</DistanceMeters>
          </Trackpoint>
          <Trackpoint>
            <Time>2018-09-14T13:43:20.000Z</Time>
            <Position>
              <LatitudeDegrees>37.82424121163785457611083984375</LatitudeDegrees>
              <LongitudeDegrees>-8.10436670668423175811767578125</LongitudeDegrees>
            </Position>
            <AltitudeMeters>178.600006103515625</AltitudeMeters>
            <DistanceMeters>283241.63168089</DistanceMeters>
          </Trackpoint>
          <Trackpoint>
            <Time>2018-09-14T13:43:21.000Z</Time>
            <Position>
              <LatitudeDegrees>37.82420818693935871124267578125</LatitudeDegrees>
              <LongitudeDegrees>-8.10431490652263164520263671875</LongitudeDegrees>
            </Position>
            <AltitudeMeters>178.8000030517578125</AltitudeMeters>
            <DistanceMeters>283247.48412311</DistanceMeters>
          </Trackpoint>
          <Trackpoint>
            <Time>2018-09-14T13:43:22.000Z</Time>
            <Position>
              <LatitudeDegrees>37.82417482696473598480224609375</LatitudeDegrees>
              <LongitudeDegrees>-8.10426511801779270172119140625</LongitudeDegrees>
            </Position>
            <AltitudeMeters>178.8000030517578125</AltitudeMeters>
            <DistanceMeters>283253.22361079</DistanceMeters>
          </Trackpoint>
          <Trackpoint>
            <Time>2018-09-14T13:43:23.000Z</Time>
            <Position>
              <LatitudeDegrees>37.82414062879979610443115234375</LatitudeDegrees>
              <LongitudeDegrees>-8.104216754436492919921875</LongitudeDegrees>
            </Position>
            <AltitudeMeters>178.600006103515625</AltitudeMeters>
            <DistanceMeters>283258.92996301</DistanceMeters>
          </Trackpoint>
          <Trackpoint>
            <Time>2018-09-14T13:43:24.000Z</Time>
            <Position>
              <LatitudeDegrees>37.82410542480647563934326171875</LatitudeDegrees>
              <LongitudeDegrees>-8.10417048633098602294921875</LongitudeDegrees>
            </Position>
            <AltitudeMeters>178.1999969482421875</AltitudeMeters>
            <DistanceMeters>283264.57826011</DistanceMeters>
          </Trackpoint>
          <Trackpoint>
            <Time>2018-09-14T13:43:25.000Z</Time>
            <Position>
              <LatitudeDegrees>37.8240691311657428741455078125</LatitudeDegrees>
              <LongitudeDegrees>-8.10412514023482799530029296875</LongitudeDegrees>
            </Position>
            <AltitudeMeters>178</AltitudeMeters>
            <DistanceMeters>283270.25287486</DistanceMeters>
          </Trackpoint>
          <Trackpoint>
            <Time>2018-09-14T13:43:26.000Z</Time>
            <Position>
              <LatitudeDegrees>37.82403283752501010894775390625</LatitudeDegrees>
              <LongitudeDegrees>-8.10407937504351139068603515625</LongitudeDegrees>
            </Position>
            <AltitudeMeters>177.600006103515625</AltitudeMeters>
            <DistanceMeters>283275.95447772</DistanceMeters>
          </Trackpoint>
          <Trackpoint>
            <Time>2018-09-14T13:43:27.000Z</Time>
            <Position>
              <LatitudeDegrees>37.82399696297943592071533203125</LatitudeDegrees>
              <LongitudeDegrees>-8.10403260402381420135498046875</LongitudeDegrees>
            </Position>
            <AltitudeMeters>177.399993896484375</AltitudeMeters>
            <DistanceMeters>283281.68530559</DistanceMeters>
          </Trackpoint>
          <Trackpoint>
            <Time>2018-09-14T13:43:28.000Z</Time>
            <Position>
              <LatitudeDegrees>37.8239618428051471710205078125</LatitudeDegrees>
              <LongitudeDegrees>-8.10398549772799015045166015625</LongitudeDegrees>
            </Position>
            <AltitudeMeters>177</AltitudeMeters>
            <DistanceMeters>283287.37898405</DistanceMeters>
          </Trackpoint>
          <Trackpoint>
            <Time>2018-09-14T13:43:29.000Z</Time>
            <Position>
              <LatitudeDegrees>37.82392705790698528289794921875</LatitudeDegrees>
              <LongitudeDegrees>-8.1039379723370075225830078125</LongitudeDegrees>
            </Position>
            <AltitudeMeters>176.8000030517578125</AltitudeMeters>
            <DistanceMeters>283293.0758336</DistanceMeters>
          </Trackpoint>
          <Trackpoint>
            <Time>2018-09-14T13:43:30.000Z</Time>
            <Position>
              <LatitudeDegrees>37.82389168627560138702392578125</LatitudeDegrees>
              <LongitudeDegrees>-8.10389078222215175628662109375</LongitudeDegrees>
            </Position>
            <AltitudeMeters>176.399993896484375</AltitudeMeters>
            <DistanceMeters>283298.79483149</DistanceMeters>
          </Trackpoint>
          <Trackpoint>
            <Time>2018-09-14T13:43:31.000Z</Time>
            <Position>
              <LatitudeDegrees>37.8238557279109954833984375</LatitudeDegrees>
              <LongitudeDegrees>-8.10384468175470829010009765625</LongitudeDegrees>
            </Position>
            <AltitudeMeters>176</AltitudeMeters>
            <DistanceMeters>283304.49009571</DistanceMeters>
          </Trackpoint>
          <Trackpoint>
            <Time>2018-09-14T13:43:32.000Z</Time>
            <Position>
              <LatitudeDegrees>37.82381951808929443359375</LatitudeDegrees>
              <LongitudeDegrees>-8.1037981621921062469482421875</LongitudeDegrees>
            </Position>
            <AltitudeMeters>176</AltitudeMeters>
            <DistanceMeters>283310.23272918</DistanceMeters>
          </Trackpoint>
          <Trackpoint>
            <Time>2018-09-14T13:43:33.000Z</Time>
            <Position>
              <LatitudeDegrees>37.823782972991466522216796875</LatitudeDegrees>
              <LongitudeDegrees>-8.10375130735337734222412109375</LongitudeDegrees>
            </Position>
            <AltitudeMeters>176.399993896484375</AltitudeMeters>
            <DistanceMeters>283316.02156445</DistanceMeters>
          </Trackpoint>
          <Trackpoint>
            <Time>2018-09-14T13:43:34.000Z</Time>
            <Position>
              <LatitudeDegrees>37.8237462602555751800537109375</LatitudeDegrees>
              <LongitudeDegrees>-8.10370386578142642974853515625</LongitudeDegrees>
            </Position>
            <AltitudeMeters>176.600006103515625</AltitudeMeters>
            <DistanceMeters>283321.86010352</DistanceMeters>
          </Trackpoint>
          <Trackpoint>
            <Time>2018-09-14T13:43:35.000Z</Time>
            <Position>
              <LatitudeDegrees>37.82370778732001781463623046875</LatitudeDegrees>
              <LongitudeDegrees>-8.10365684330463409423828125</LongitudeDegrees>
            </Position>
            <AltitudeMeters>177</AltitudeMeters>
            <DistanceMeters>283327.81123449</DistanceMeters>
          </Trackpoint>
          <Trackpoint>
            <Time>2018-09-14T13:43:36.000Z</Time>
            <Position>
              <LatitudeDegrees>37.82366721890866756439208984375</LatitudeDegrees>
              <LongitudeDegrees>-8.10361233539879322052001953125</LongitudeDegrees>
            </Position>
            <AltitudeMeters>177.1999969482421875</AltitudeMeters>
            <DistanceMeters>283333.78659409</DistanceMeters>
          </Trackpoint>
          <Trackpoint>
            <Time>2018-09-14T13:43:37.000Z</Time>
            <Position>
              <LatitudeDegrees>37.82362597994506359100341796875</LatitudeDegrees>
              <LongitudeDegrees>-8.10356858186423778533935546875</LongitudeDegrees>
            </Position>
            <AltitudeMeters>177.600006103515625</AltitudeMeters>
            <DistanceMeters>283339.77478526</DistanceMeters>
          </Trackpoint>
          <Trackpoint>
            <Time>2018-09-14T13:43:38.000Z</Time>
            <Position>
              <LatitudeDegrees>37.82358608208596706390380859375</LatitudeDegrees>
              <LongitudeDegrees>-8.10352281667292118072509765625</LongitudeDegrees>
            </Position>
            <AltitudeMeters>177.8000030517578125</AltitudeMeters>
            <DistanceMeters>283345.7667452</DistanceMeters>
          </Trackpoint>
          <Trackpoint>
            <Time>2018-09-14T13:43:39.000Z</Time>
            <Position>
              <LatitudeDegrees>37.823545597493648529052734375</LatitudeDegrees>
              <LongitudeDegrees>-8.10347755439579486846923828125</LongitudeDegrees>
            </Position>
            <AltitudeMeters>178.1999969482421875</AltitudeMeters>
            <DistanceMeters>283351.77826464</DistanceMeters>
          </Trackpoint>
          <Trackpoint>
            <Time>2018-09-14T13:43:40.000Z</Time>
            <Position>
              <LatitudeDegrees>37.82350360415875911712646484375</LatitudeDegrees>
              <LongitudeDegrees>-8.1034330464899539947509765625</LongitudeDegrees>
            </Position>
            <AltitudeMeters>178.399993896484375</AltitudeMeters>
            <DistanceMeters>283357.8748042</DistanceMeters>
          </Trackpoint>
          <Trackpoint>
            <Time>2018-09-14T13:43:41.000Z</Time>
            <Position>
              <LatitudeDegrees>37.8234602697193622589111328125</LatitudeDegrees>
              <LongitudeDegrees>-8.10338987968862056732177734375</LongitudeDegrees>
            </Position>
            <AltitudeMeters>178.600006103515625</AltitudeMeters>
            <DistanceMeters>283364.01267671</DistanceMeters>
          </Trackpoint>
          <Trackpoint>
            <Time>2018-09-14T13:43:42.000Z</Time>
            <Position>
              <LatitudeDegrees>37.82341760583221912384033203125</LatitudeDegrees>
              <LongitudeDegrees>-8.10334704816341400146484375</LongitudeDegrees>
            </Position>
            <AltitudeMeters>178.8000030517578125</AltitudeMeters>
            <DistanceMeters>283370.07356369</DistanceMeters>
          </Trackpoint>
          <Trackpoint>
            <Time>2018-09-14T13:43:43.000Z</Time>
            <Position>
              <LatitudeDegrees>37.82337552867829799652099609375</LatitudeDegrees>
              <LongitudeDegrees>-8.10330413281917572021484375</LongitudeDegrees>
            </Position>
            <AltitudeMeters>178.8000030517578125</AltitudeMeters>
            <DistanceMeters>283376.08808663</DistanceMeters>
          </Trackpoint>
          <Trackpoint>
            <Time>2018-09-14T13:43:44.000Z</Time>
            <Position>
              <LatitudeDegrees>37.82333261333405971527099609375</LatitudeDegrees>
              <LongitudeDegrees>-8.1032620556652545928955078125</LongitudeDegrees>
            </Position>
            <AltitudeMeters>178.8000030517578125</AltitudeMeters>
            <DistanceMeters>283382.12957395</DistanceMeters>
          </Trackpoint>
          <Trackpoint>
            <Time>2018-09-14T13:43:45.000Z</Time>
            <Position>
              <LatitudeDegrees>37.82328852452337741851806640625</LatitudeDegrees>
              <LongitudeDegrees>-8.10321989469230175018310546875</LongitudeDegrees>
            </Position>
            <AltitudeMeters>178.8000030517578125</AltitudeMeters>
            <DistanceMeters>283388.279939</DistanceMeters>
          </Trackpoint>
          <Trackpoint>
            <Time>2018-09-14T13:43:46.000Z</Time>
            <Position>
              <LatitudeDegrees>37.82324292697012424468994140625</LatitudeDegrees>
              <LongitudeDegrees>-8.10317865572869777679443359375</LongitudeDegrees>
            </Position>
            <AltitudeMeters>178.8000030517578125</AltitudeMeters>
            <DistanceMeters>283394.51705125</DistanceMeters>
          </Trackpoint>
          <Trackpoint>
            <Time>2018-09-14T13:43:47.000Z</Time>
            <Position>
              <LatitudeDegrees>37.82319548539817333221435546875</LatitudeDegrees>
              <LongitudeDegrees>-8.10313942842185497283935546875</LongitudeDegrees>
            </Position>
            <AltitudeMeters>178.8000030517578125</AltitudeMeters>
            <DistanceMeters>283400.8232749</DistanceMeters>
          </Trackpoint>
          <Trackpoint>
            <Time>2018-09-14T13:43:48.000Z</Time>
            <Position>
              <LatitudeDegrees>37.82314603216946125030517578125</LatitudeDegrees>
              <LongitudeDegrees>-8.103100955486297607421875</LongitudeDegrees>
            </Position>
            <AltitudeMeters>178.8000030517578125</AltitudeMeters>
            <DistanceMeters>283407.28369387</DistanceMeters>
          </Trackpoint>
          <Trackpoint>
            <Time>2018-09-14T13:43:49.000Z</Time>
            <Position>
              <LatitudeDegrees>37.82309456728398799896240234375</LatitudeDegrees>
              <LongitudeDegrees>-8.103063404560089111328125</LongitudeDegrees>
            </Position>
            <AltitudeMeters>179</AltitudeMeters>
            <DistanceMeters>283413.89539563</DistanceMeters>
          </Trackpoint>
          <Trackpoint>
            <Time>2018-09-14T13:43:50.000Z</Time>
            <Position>
              <LatitudeDegrees>37.82304192893207073211669921875</LatitudeDegrees>
              <LongitudeDegrees>-8.10302576981484889984130859375</LongitudeDegrees>
            </Position>
            <AltitudeMeters>179</AltitudeMeters>
            <DistanceMeters>283420.62419963</DistanceMeters>
          </Trackpoint>
          <Trackpoint>
            <Time>2018-09-14T13:43:51.000Z</Time>
            <Position>
              <LatitudeDegrees>37.82298929058015346527099609375</LatitudeDegrees>
              <LongitudeDegrees>-8.10298721306025981903076171875</LongitudeDegrees>
            </Position>
            <AltitudeMeters>179</AltitudeMeters>
            <DistanceMeters>283427.393144</DistanceMeters>
          </Trackpoint>
          <Trackpoint>
            <Time>2018-09-14T13:43:52.000Z</Time>
            <Position>
              <LatitudeDegrees>37.82293681986629962921142578125</LatitudeDegrees>
              <LongitudeDegrees>-8.10294832102954387664794921875</LongitudeDegrees>
            </Position>
            <AltitudeMeters>179.1999969482421875</AltitudeMeters>
            <DistanceMeters>283434.16075419</DistanceMeters>
          </Trackpoint>
          <Trackpoint>
            <Time>2018-09-14T13:43:53.000Z</Time>
            <Position>
              <LatitudeDegrees>37.8228832595050334930419921875</LatitudeDegrees>
              <LongitudeDegrees>-8.102910853922367095947265625</LongitudeDegrees>
            </Position>
            <AltitudeMeters>179.399993896484375</AltitudeMeters>
            <DistanceMeters>283440.97225423</DistanceMeters>
          </Trackpoint>
          <Trackpoint>
            <Time>2018-09-14T13:43:54.000Z</Time>
            <Position>
              <LatitudeDegrees>37.8228284418582916259765625</LatitudeDegrees>
              <LongitudeDegrees>-8.10287355445325374603271484375</LongitudeDegrees>
            </Position>
            <AltitudeMeters>179.600006103515625</AltitudeMeters>
            <DistanceMeters>283447.89943448</DistanceMeters>
          </Trackpoint>
          <Trackpoint>
            <Time>2018-09-14T13:43:55.000Z</Time>
            <Position>
              <LatitudeDegrees>37.8227726183831691741943359375</LatitudeDegrees>
              <LongitudeDegrees>-8.1028354167938232421875</LongitudeDegrees>
            </Position>
            <AltitudeMeters>180</AltitudeMeters>
            <DistanceMeters>283454.96024548</DistanceMeters>
          </Trackpoint>
          <Trackpoint>
            <Time>2018-09-14T13:43:56.000Z</Time>
            <Position>
              <LatitudeDegrees>37.822715453803539276123046875</LatitudeDegrees>
              <LongitudeDegrees>-8.10279786586761474609375</LongitudeDegrees>
            </Position>
            <AltitudeMeters>180.1999969482421875</AltitudeMeters>
            <DistanceMeters>283462.12830903</DistanceMeters>
          </Trackpoint>
          <Trackpoint>
            <Time>2018-09-14T13:43:57.000Z</Time>
            <Position>
              <LatitudeDegrees>37.822657115757465362548828125</LatitudeDegrees>
              <LongitudeDegrees>-8.102761320769786834716796875</LongitudeDegrees>
            </Position>
            <AltitudeMeters>180.399993896484375</AltitudeMeters>
            <DistanceMeters>283469.37218742</DistanceMeters>
          </Trackpoint>
          <Trackpoint>
            <Time>2018-09-14T13:43:58.000Z</Time>
            <Position>
              <LatitudeDegrees>37.8225979395210742950439453125</LatitudeDegrees>
              <LongitudeDegrees>-8.10272536240518093109130859375</LongitudeDegrees>
            </Position>
            <AltitudeMeters>180.600006103515625</AltitudeMeters>
            <DistanceMeters>283476.67751095</DistanceMeters>
          </Trackpoint>
          <Trackpoint>
            <Time>2018-09-14T13:43:59.000Z</Time>
            <Position>
              <LatitudeDegrees>37.82253800891339778900146484375</LatitudeDegrees>
              <LongitudeDegrees>-8.10268932022154331207275390625</LongitudeDegrees>
            </Position>
            <AltitudeMeters>181</AltitudeMeters>
            <DistanceMeters>283484.06274363</DistanceMeters>
          </Trackpoint>
          <Trackpoint>
            <Time>2018-09-14T13:44:00.000Z</Time>
            <Position>
              <LatitudeDegrees>37.822476737201213836669921875</LatitudeDegrees>
              <LongitudeDegrees>-8.10265545733273029327392578125</LongitudeDegrees>
            </Position>
            <AltitudeMeters>181</AltitudeMeters>
            <DistanceMeters>283491.50340211</DistanceMeters>
          </Trackpoint>
          <Trackpoint>
            <Time>2018-09-14T13:44:01.000Z</Time>
            <Position>
              <LatitudeDegrees>37.8224142082035541534423828125</LatitudeDegrees>
              <LongitudeDegrees>-8.10262394137680530548095703125</LongitudeDegrees>
            </Position>
            <AltitudeMeters>181.1999969482421875</AltitudeMeters>
            <DistanceMeters>283498.99365344</DistanceMeters>
          </Trackpoint>
          <Trackpoint>
            <Time>2018-09-14T13:44:02.000Z</Time>
            <Position>
              <LatitudeDegrees>37.82235092483460903167724609375</LatitudeDegrees>
              <LongitudeDegrees>-8.10259225778281688690185546875</LongitudeDegrees>
            </Position>
            <AltitudeMeters>181.1999969482421875</AltitudeMeters>
            <DistanceMeters>283506.56782505</DistanceMeters>
          </Trackpoint>
          <Trackpoint>
            <Time>2018-09-14T13:44:03.000Z</Time>
            <Position>
              <LatitudeDegrees>37.8222874738276004791259765625</LatitudeDegrees>
              <LongitudeDegrees>-8.1025596521794795989990234375</LongitudeDegrees>
            </Position>
            <AltitudeMeters>181.399993896484375</AltitudeMeters>
            <DistanceMeters>283514.19012863</DistanceMeters>
          </Trackpoint>
          <Trackpoint>
            <Time>2018-09-14T13:44:04.000Z</Time>
            <Position>
              <LatitudeDegrees>37.8222237713634967803955078125</LatitudeDegrees>
              <LongitudeDegrees>-8.10252754949033260345458984375</LongitudeDegrees>
            </Position>
            <AltitudeMeters>181.399993896484375</AltitudeMeters>
            <DistanceMeters>283521.82131222</DistanceMeters>
          </Trackpoint>
          <Trackpoint>
            <Time>2018-09-14T13:44:05.000Z</Time>
            <Position>
              <LatitudeDegrees>37.8221597336232662200927734375</LatitudeDegrees>
              <LongitudeDegrees>-8.10249787755310535430908203125</LongitudeDegrees>
            </Position>
            <AltitudeMeters>181.399993896484375</AltitudeMeters>
            <DistanceMeters>283529.41156174</DistanceMeters>
          </Trackpoint>
          <Trackpoint>
            <Time>2018-09-14T13:44:06.000Z</Time>
            <Position>
              <LatitudeDegrees>37.82209577970206737518310546875</LatitudeDegrees>
              <LongitudeDegrees>-8.10247189365327358245849609375</LongitudeDegrees>
            </Position>
            <AltitudeMeters>181.600006103515625</AltitudeMeters>
            <DistanceMeters>283536.88733214</DistanceMeters>
          </Trackpoint>
          <Trackpoint>
            <Time>2018-09-14T13:44:07.000Z</Time>
            <Position>
              <LatitudeDegrees>37.82203123904764652252197265625</LatitudeDegrees>
              <LongitudeDegrees>-8.102448843419551849365234375</LongitudeDegrees>
            </Position>
            <AltitudeMeters>181.600006103515625</AltitudeMeters>
            <DistanceMeters>283544.35101364</DistanceMeters>
          </Trackpoint>
          <Trackpoint>
            <Time>2018-09-14T13:44:08.000Z</Time>
            <Position>
              <LatitudeDegrees>37.8219656087458133697509765625</LatitudeDegrees>
              <LongitudeDegrees>-8.102426044642925262451171875</LongitudeDegrees>
            </Position>
            <AltitudeMeters>181.8000030517578125</AltitudeMeters>
            <DistanceMeters>283551.92578134</DistanceMeters>
          </Trackpoint>
          <Trackpoint>
            <Time>2018-09-14T13:44:09.000Z</Time>
            <Position>
              <LatitudeDegrees>37.82189897261559963226318359375</LatitudeDegrees>
              <LongitudeDegrees>-8.10240299440920352935791015625</LongitudeDegrees>
            </Position>
            <AltitudeMeters>181.8000030517578125</AltitudeMeters>
            <DistanceMeters>283559.61531583</DistanceMeters>
          </Trackpoint>
          <Trackpoint>
            <Time>2018-09-14T13:44:10.000Z</Time>
            <Position>
              <LatitudeDegrees>37.82183191739022731781005859375</LatitudeDegrees>
              <LongitudeDegrees>-8.10238170437514781951904296875</LongitudeDegrees>
            </Position>
            <AltitudeMeters>182.1999969482421875</AltitudeMeters>
            <DistanceMeters>283567.30954621</DistanceMeters>
          </Trackpoint>
          <Trackpoint>
            <Time>2018-09-14T13:44:11.000Z</Time>
            <Position>
              <LatitudeDegrees>37.8217636048793792724609375</LatitudeDegrees>
              <LongitudeDegrees>-8.10236192308366298675537109375</LongitudeDegrees>
            </Position>
            <AltitudeMeters>182.399993896484375</AltitudeMeters>
            <DistanceMeters>283575.1098446</DistanceMeters>
          </Trackpoint>
          <Trackpoint>
            <Time>2018-09-14T13:44:12.000Z</Time>
            <Position>
              <LatitudeDegrees>37.82169579528272151947021484375</LatitudeDegrees>
              <LongitudeDegrees>-8.10234247706830501556396484375</LongitudeDegrees>
            </Position>
            <AltitudeMeters>182.600006103515625</AltitudeMeters>
            <DistanceMeters>283582.84854391</DistanceMeters>
          </Trackpoint>
          <Trackpoint>
            <Time>2018-09-14T13:44:13.000Z</Time>
            <Position>
              <LatitudeDegrees>37.821628153324127197265625</LatitudeDegrees>
              <LongitudeDegrees>-8.1023236177861690521240234375</LongitudeDegrees>
            </Position>
            <AltitudeMeters>182.8000030517578125</AltitudeMeters>
            <DistanceMeters>283590.55743054</DistanceMeters>
          </Trackpoint>
          <Trackpoint>
            <Time>2018-09-14T13:44:14.000Z</Time>
            <Position>
              <LatitudeDegrees>37.8215609304606914520263671875</LatitudeDegrees>
              <LongitudeDegrees>-8.1023061834275722503662109375</LongitudeDegrees>
            </Position>
            <AltitudeMeters>183</AltitudeMeters>
            <DistanceMeters>283598.19393718</DistanceMeters>
          </Trackpoint>
          <Trackpoint>
            <Time>2018-09-14T13:44:15.000Z</Time>
            <Position>
              <LatitudeDegrees>37.8214935399591922760009765625</LatitudeDegrees>
              <LongitudeDegrees>-8.1022917665541172027587890625</LongitudeDegrees>
            </Position>
            <AltitudeMeters>183.1999969482421875</AltitudeMeters>
            <DistanceMeters>283605.80082418</DistanceMeters>
          </Trackpoint>
          <Trackpoint>
            <Time>2018-09-14T13:44:16.000Z</Time>
            <Position>
              <LatitudeDegrees>37.821426652371883392333984375</LatitudeDegrees>
              <LongitudeDegrees>-8.1022786907851696014404296875</LongitudeDegrees>
            </Position>
            <AltitudeMeters>183.399993896484375</AltitudeMeters>
            <DistanceMeters>283613.33435128</DistanceMeters>
          </Trackpoint>
          <Trackpoint>
            <Time>2018-09-14T13:44:17.000Z</Time>
            <Position>
              <LatitudeDegrees>37.82136051915585994720458984375</LatitudeDegrees>
              <LongitudeDegrees>-8.10226519592106342315673828125</LongitudeDegrees>
            </Position>
            <AltitudeMeters>183.600006103515625</AltitudeMeters>
            <DistanceMeters>283620.79077003</DistanceMeters>
          </Trackpoint>
          <Trackpoint>
            <Time>2018-09-14T13:44:18.000Z</Time>
            <Position>
              <LatitudeDegrees>37.82129488885402679443359375</LatitudeDegrees>
              <LongitudeDegrees>-8.10225245542824268341064453125</LongitudeDegrees>
            </Position>
            <AltitudeMeters>183.8000030517578125</AltitudeMeters>
            <DistanceMeters>283628.18089198</DistanceMeters>
          </Trackpoint>
          <Trackpoint>
            <Time>2018-09-14T13:44:19.000Z</Time>
            <Position>
              <LatitudeDegrees>37.82122959382832050323486328125</LatitudeDegrees>
              <LongitudeDegrees>-8.10224273242056369781494140625</LongitudeDegrees>
            </Position>
            <AltitudeMeters>184</AltitudeMeters>
            <DistanceMeters>283635.49856601</DistanceMeters>
          </Trackpoint>
          <Trackpoint>
            <Time>2018-09-14T13:44:20.000Z</Time>
            <Position>
              <LatitudeDegrees>37.82116471789777278900146484375</LatitudeDegrees>
              <LongitudeDegrees>-8.10223636217415332794189453125</LongitudeDegrees>
            </Position>
            <AltitudeMeters>184.1999969482421875</AltitudeMeters>
            <DistanceMeters>283642.74119772</DistanceMeters>
          </Trackpoint>
          <Trackpoint>
            <Time>2018-09-14T13:44:21.000Z</Time>
            <Position>
              <LatitudeDegrees>37.82109984196722507476806640625</LatitudeDegrees>
              <LongitudeDegrees>-8.1022304110229015350341796875</LongitudeDegrees>
            </Position>
            <AltitudeMeters>184.399993896484375</AltitudeMeters>
            <DistanceMeters>283649.98133541</DistanceMeters>
          </Trackpoint>
          <Trackpoint>
            <Time>2018-09-14T13:44:22.000Z</Time>
            <Position>
              <LatitudeDegrees>37.8210348822176456451416015625</LatitudeDegrees>
              <LongitudeDegrees>-8.1022247113287448883056640625</LongitudeDegrees>
            </Position>
            <AltitudeMeters>184.600006103515625</AltitudeMeters>
            <DistanceMeters>283657.22895258</DistanceMeters>
          </Trackpoint>
          <Trackpoint>
            <Time>2018-09-14T13:44:23.000Z</Time>
            <Position>
              <LatitudeDegrees>37.82096992246806621551513671875</LatitudeDegrees>
              <LongitudeDegrees>-8.10222026892006397247314453125</LongitudeDegrees>
            </Position>
            <AltitudeMeters>184.8000030517578125</AltitudeMeters>
            <DistanceMeters>283664.46971386</DistanceMeters>
          </Trackpoint>
          <Trackpoint>
            <Time>2018-09-14T13:44:24.000Z</Time>
            <Position>
              <LatitudeDegrees>37.82090437598526477813720703125</LatitudeDegrees>
              <LongitudeDegrees>-8.102216832339763641357421875</LongitudeDegrees>
            </Position>
            <AltitudeMeters>184.8000030517578125</AltitudeMeters>
            <DistanceMeters>283671.77132815</DistanceMeters>
          </Trackpoint>
          <Trackpoint>
            <Time>2018-09-14T13:44:25.000Z</Time>
            <Position>
              <LatitudeDegrees>37.8208387456834316253662109375</LatitudeDegrees>
              <LongitudeDegrees>-8.102214820683002471923828125</LongitudeDegrees>
            </Position>
            <AltitudeMeters>185</AltitudeMeters>
            <DistanceMeters>283679.07850558</DistanceMeters>
          </Trackpoint>
          <Trackpoint>
            <Time>2018-09-14T13:44:26.000Z</Time>
            <Position>
              <LatitudeDegrees>37.82077244482934474945068359375</LatitudeDegrees>
              <LongitudeDegrees>-8.10221322812139987945556640625</LongitudeDegrees>
            </Position>
            <AltitudeMeters>185</AltitudeMeters>
            <DistanceMeters>283686.45884576</DistanceMeters>
          </Trackpoint>
          <Trackpoint>
            <Time>2018-09-14T13:44:27.000Z</Time>
            <Position>
              <LatitudeDegrees>37.82070589251816272735595703125</LatitudeDegrees>
              <LongitudeDegrees>-8.1022118031978607177734375</LongitudeDegrees>
            </Position>
            <AltitudeMeters>185</AltitudeMeters>
            <DistanceMeters>283693.86727371</DistanceMeters>
          </Trackpoint>
          <Trackpoint>
            <Time>2018-09-14T13:44:28.000Z</Time>
            <Position>
              <LatitudeDegrees>37.8206389211118221282958984375</LatitudeDegrees>
              <LongitudeDegrees>-8.1022143177688121795654296875</LongitudeDegrees>
            </Position>
            <AltitudeMeters>185</AltitudeMeters>
            <DistanceMeters>283701.32550881</DistanceMeters>
          </Trackpoint>
          <Trackpoint>
            <Time>2018-09-14T13:44:29.000Z</Time>
            <Position>
              <LatitudeDegrees>37.820571027696132659912109375</LatitudeDegrees>
              <LongitudeDegrees>-8.1022200174629688262939453125</LongitudeDegrees>
            </Position>
            <AltitudeMeters>185</AltitudeMeters>
            <DistanceMeters>283708.89908429</DistanceMeters>
          </Trackpoint>
          <Trackpoint>
            <Time>2018-09-14T13:44:30.000Z</Time>
            <Position>
              <LatitudeDegrees>37.82050221227109432220458984375</LatitudeDegrees>
              <LongitudeDegrees>-8.102226220071315765380859375</LongitudeDegrees>
            </Position>
            <AltitudeMeters>184.8000030517578125</AltitudeMeters>
            <DistanceMeters>283716.5774545</DistanceMeters>
          </Trackpoint>
          <Trackpoint>
            <Time>2018-09-14T13:44:31.000Z</Time>
            <Position>
              <LatitudeDegrees>37.8204330615699291229248046875</LatitudeDegrees>
              <LongitudeDegrees>-8.10223317705094814300537109375</LongitudeDegrees>
            </Position>
            <AltitudeMeters>184.8000030517578125</AltitudeMeters>
            <DistanceMeters>283724.29863088</DistanceMeters>
          </Trackpoint>
          <Trackpoint>
            <Time>2018-09-14T13:44:32.000Z</Time>
            <Position>
              <LatitudeDegrees>37.820363156497478485107421875</LatitudeDegrees>
              <LongitudeDegrees>-8.102240972220897674560546875</LongitudeDegrees>
            </Position>
            <AltitudeMeters>184.8000030517578125</AltitudeMeters>
            <DistanceMeters>283732.10934125</DistanceMeters>
          </Trackpoint>
          <Trackpoint>
            <Time>2018-09-14T13:44:33.000Z</Time>
            <Position>
              <LatitudeDegrees>37.8202932514250278472900390625</LatitudeDegrees>
              <LongitudeDegrees>-8.10225027613341808319091796875</LongitudeDegrees>
            </Position>
            <AltitudeMeters>184.8000030517578125</AltitudeMeters>
            <DistanceMeters>283739.93275854</DistanceMeters>
          </Trackpoint>
          <Trackpoint>
            <Time>2018-09-14T13:44:34.000Z</Time>
            <Position>
              <LatitudeDegrees>37.820223681628704071044921875</LatitudeDegrees>
              <LongitudeDegrees>-8.102261088788509368896484375</LongitudeDegrees>
            </Position>
            <AltitudeMeters>184.8000030517578125</AltitudeMeters>
            <DistanceMeters>283747.73421451</DistanceMeters>
          </Trackpoint>
          <Trackpoint>
            <Time>2018-09-14T13:44:35.000Z</Time>
            <Position>
              <LatitudeDegrees>37.820153944194316864013671875</LatitudeDegrees>
              <LongitudeDegrees>-8.10227240435779094696044921875</LongitudeDegrees>
            </Position>
            <AltitudeMeters>184.8000030517578125</AltitudeMeters>
            <DistanceMeters>283755.55993994</DistanceMeters>
          </Trackpoint>
          <Trackpoint>
            <Time>2018-09-14T13:44:36.000Z</Time>
            <Position>
              <LatitudeDegrees>37.82008429057896137237548828125</LatitudeDegrees>
              <LongitudeDegrees>-8.10228480957448482513427734375</LongitudeDegrees>
            </Position>
            <AltitudeMeters>184.8000030517578125</AltitudeMeters>
            <DistanceMeters>283763.38912629</DistanceMeters>
          </Trackpoint>
          <Trackpoint>
            <Time>2018-09-14T13:44:37.000Z</Time>
            <Position>
              <LatitudeDegrees>37.82001488842070102691650390625</LatitudeDegrees>
              <LongitudeDegrees>-8.10229830443859100341796875</LongitudeDegrees>
            </Position>
            <AltitudeMeters>184.600006103515625</AltitudeMeters>
            <DistanceMeters>283771.20445975</DistanceMeters>
          </Trackpoint>
          <Trackpoint>
            <Time>2018-09-14T13:44:38.000Z</Time>
            <Position>
              <LatitudeDegrees>37.8199459053575992584228515625</LatitudeDegrees>
              <LongitudeDegrees>-8.1023135595023632049560546875</LongitudeDegrees>
            </Position>
            <AltitudeMeters>184.399993896484375</AltitudeMeters>
            <DistanceMeters>283778.99838843</DistanceMeters>
          </Trackpoint>
          <Trackpoint>
            <Time>2018-09-14T13:44:39.000Z</Time>
            <Position>
              <LatitudeDegrees>37.8198771737515926361083984375</LatitudeDegrees>
              <LongitudeDegrees>-8.1023303233087062835693359375</LongitudeDegrees>
            </Position>
            <AltitudeMeters>184.1999969482421875</AltitudeMeters>
            <DistanceMeters>283786.78942006</DistanceMeters>
          </Trackpoint>
          <Trackpoint>
            <Time>2018-09-14T13:44:40.000Z</Time>
            <Position>
              <LatitudeDegrees>37.8198081068694591522216796875</LatitudeDegrees>
              <LongitudeDegrees>-8.10234800912439823150634765625</LongitudeDegrees>
            </Position>
            <AltitudeMeters>184</AltitudeMeters>
            <DistanceMeters>283794.63243483</DistanceMeters>
          </Trackpoint>
          <Trackpoint>
            <Time>2018-09-14T13:44:41.000Z</Time>
            <Position>
              <LatitudeDegrees>37.81973895616829395294189453125</LatitudeDegrees>
              <LongitudeDegrees>-8.1023665331304073333740234375</LongitudeDegrees>
            </Position>
            <AltitudeMeters>183.8000030517578125</AltitudeMeters>
            <DistanceMeters>283802.49959086</DistanceMeters>
          </Trackpoint>
          <Trackpoint>
            <Time>2018-09-14T13:44:42.000Z</Time>
            <Position>
              <LatitudeDegrees>37.819670476019382476806640625</LatitudeDegrees>
              <LongitudeDegrees>-8.10238690115511417388916015625</LongitudeDegrees>
            </Position>
            <AltitudeMeters>183.600006103515625</AltitudeMeters>
            <DistanceMeters>283810.32935388</DistanceMeters>
          </Trackpoint>
          <Trackpoint>
            <Time>2018-09-14T13:44:43.000Z</Time>
            <Position>
              <LatitudeDegrees>37.81960266642272472381591796875</LatitudeDegrees>
              <LongitudeDegrees>-8.10240936465561389923095703125</LongitudeDegrees>
            </Position>
            <AltitudeMeters>183.399993896484375</AltitudeMeters>
            <DistanceMeters>283818.13080985</DistanceMeters>
          </Trackpoint>
          <Trackpoint>
            <Time>2018-09-14T13:44:44.000Z</Time>
            <Position>
              <LatitudeDegrees>37.8195346891880035400390625</LatitudeDegrees>
              <LongitudeDegrees>-8.10243266634643077850341796875</LongitudeDegrees>
            </Position>
            <AltitudeMeters>183.1999969482421875</AltitudeMeters>
            <DistanceMeters>283825.96921786</DistanceMeters>
          </Trackpoint>
          <Trackpoint>
            <Time>2018-09-14T13:44:45.000Z</Time>
            <Position>
              <LatitudeDegrees>37.8194664604961872100830078125</LatitudeDegrees>
              <LongitudeDegrees>-8.10245655477046966552734375</LongitudeDegrees>
            </Position>
            <AltitudeMeters>183</AltitudeMeters>
            <DistanceMeters>283833.84841677</DistanceMeters>
          </Trackpoint>
          <Trackpoint>
            <Time>2018-09-14T13:44:46.000Z</Time>
            <Position>
              <LatitudeDegrees>37.8193990699946880340576171875</LatitudeDegrees>
              <LongitudeDegrees>-8.102481700479984283447265625</LongitudeDegrees>
            </Position>
            <AltitudeMeters>182.8000030517578125</AltitudeMeters>
            <DistanceMeters>283841.66837059</DistanceMeters>
          </Trackpoint>
          <Trackpoint>
            <Time>2018-09-14T13:44:47.000Z</Time>
            <Position>
              <LatitudeDegrees>37.81933243386447429656982421875</LatitudeDegrees>
              <LongitudeDegrees>-8.10250751674175262451171875</LongitudeDegrees>
            </Position>
            <AltitudeMeters>182.399993896484375</AltitudeMeters>
            <DistanceMeters>283849.42455323</DistanceMeters>
          </Trackpoint>
          <Trackpoint>
            <Time>2018-09-14T13:44:48.000Z</Time>
            <Position>
              <LatitudeDegrees>37.8192659653723239898681640625</LatitudeDegrees>
              <LongitudeDegrees>-8.10253433883190155029296875</LongitudeDegrees>
            </Position>
            <AltitudeMeters>182.1999969482421875</AltitudeMeters>
            <DistanceMeters>283857.1888813</DistanceMeters>
          </Trackpoint>
          <Trackpoint>
            <Time>2018-09-14T13:44:49.000Z</Time>
            <Position>
              <LatitudeDegrees>37.8191995806992053985595703125</LatitudeDegrees>
              <LongitudeDegrees>-8.102562837302684783935546875</LongitudeDegrees>
            </Position>
            <AltitudeMeters>182.1999969482421875</AltitudeMeters>
            <DistanceMeters>283864.99091599</DistanceMeters>
          </Trackpoint>
          <Trackpoint>
            <Time>2018-09-14T13:44:50.000Z</Time>
            <Position>
              <LatitudeDegrees>37.81913361512124538421630859375</LatitudeDegrees>
              <LongitudeDegrees>-8.1025926768779754638671875</LongitudeDegrees>
            </Position>
            <AltitudeMeters>182.1999969482421875</AltitudeMeters>
            <DistanceMeters>283872.78831971</DistanceMeters>
          </Trackpoint>
          <Trackpoint>
            <Time>2018-09-14T13:44:51.000Z</Time>
            <Position>
              <LatitudeDegrees>37.81906806863844394683837890625</LatitudeDegrees>
              <LongitudeDegrees>-8.10262394137680530548095703125</LongitudeDegrees>
            </Position>
            <AltitudeMeters>182.399993896484375</AltitudeMeters>
            <DistanceMeters>283880.58514436</DistanceMeters>
          </Trackpoint>
          <Trackpoint>
            <Time>2018-09-14T13:44:52.000Z</Time>
            <Position>
              <LatitudeDegrees>37.81900294125080108642578125</LatitudeDegrees>
              <LongitudeDegrees>-8.10265713371336460113525390625</LongitudeDegrees>
            </Position>
            <AltitudeMeters>182.600006103515625</AltitudeMeters>
            <DistanceMeters>283888.3993223</DistanceMeters>
          </Trackpoint>
          <Trackpoint>
            <Time>2018-09-14T13:44:53.000Z</Time>
            <Position>
              <LatitudeDegrees>37.8189384005963802337646484375</LatitudeDegrees>
              <LongitudeDegrees>-8.102690242230892181396484375</LongitudeDegrees>
            </Position>
            <AltitudeMeters>182.8000030517578125</AltitudeMeters>
            <DistanceMeters>283896.15084658</DistanceMeters>
          </Trackpoint>
          <Trackpoint>
            <Time>2018-09-14T13:44:54.000Z</Time>
            <Position>
              <LatitudeDegrees>37.8188750334084033966064453125</LatitudeDegrees>
              <LongitudeDegrees>-8.10272385366261005401611328125</LongitudeDegrees>
            </Position>
            <AltitudeMeters>183</AltitudeMeters>
            <DistanceMeters>283903.79739776</DistanceMeters>
          </Trackpoint>
          <Trackpoint>
            <Time>2018-09-14T13:44:55.000Z</Time>
            <Position>
              <LatitudeDegrees>37.818812169134616851806640625</LatitudeDegrees>
              <LongitudeDegrees>-8.10275905765593051910400390625</LongitudeDegrees>
            </Position>
            <AltitudeMeters>183.1999969482421875</AltitudeMeters>
            <DistanceMeters>283911.4480811</DistanceMeters>
          </Trackpoint>
          <Trackpoint>
            <Time>2018-09-14T13:44:56.000Z</Time>
            <Position>
              <LatitudeDegrees>37.8187486343085765838623046875</LatitudeDegrees>
              <LongitudeDegrees>-8.10279493220150470733642578125</LongitudeDegrees>
            </Position>
            <AltitudeMeters>183.399993896484375</AltitudeMeters>
            <DistanceMeters>283919.19144649</DistanceMeters>
          </Trackpoint>
          <Trackpoint>
            <Time>2018-09-14T13:44:57.000Z</Time>
            <Position>
              <LatitudeDegrees>37.81868400983512401580810546875</LatitudeDegrees>
              <LongitudeDegrees>-8.1028308905661106109619140625</LongitudeDegrees>
            </Position>
            <AltitudeMeters>183.600006103515625</AltitudeMeters>
            <DistanceMeters>283927.04826535</DistanceMeters>
          </Trackpoint>
          <Trackpoint>
            <Time>2018-09-14T13:44:58.000Z</Time>
            <Position>
              <LatitudeDegrees>37.81861829571425914764404296875</LatitudeDegrees>
              <LongitudeDegrees>-8.10286718420684337615966796875</LongitudeDegrees>
            </Position>
            <AltitudeMeters>183.8000030517578125</AltitudeMeters>
            <DistanceMeters>283935.02824649</DistanceMeters>
          </Trackpoint>
          <Trackpoint>
            <Time>2018-09-14T13:44:59.000Z</Time>
            <Position>
              <LatitudeDegrees>37.8185530006885528564453125</LatitudeDegrees>
              <LongitudeDegrees>-8.10290439985692501068115234375</LongitudeDegrees>
            </Position>
            <AltitudeMeters>184</AltitudeMeters>
            <DistanceMeters>283942.99803681</DistanceMeters>
          </Trackpoint>
          <Trackpoint>
            <Time>2018-09-14T13:45:00.000Z</Time>
            <Position>
              <LatitudeDegrees>37.818487621843814849853515625</LatitudeDegrees>
              <LongitudeDegrees>-8.102942369878292083740234375</LongitudeDegrees>
            </Position>
            <AltitudeMeters>184.1999969482421875</AltitudeMeters>
            <DistanceMeters>283951.00400225</DistanceMeters>
          </Trackpoint>
          <Trackpoint>
            <Time>2018-09-14T13:45:01.000Z</Time>
            <Position>
              <LatitudeDegrees>37.81842299737036228179931640625</LatitudeDegrees>
              <LongitudeDegrees>-8.10298117808997631072998046875</LongitudeDegrees>
            </Position>
            <AltitudeMeters>184.399993896484375</AltitudeMeters>
            <DistanceMeters>283958.9647231</DistanceMeters>
          </Trackpoint>
          <Trackpoint>
            <Time>2018-09-14T13:45:02.000Z</Time>
            <Position>
              <LatitudeDegrees>37.8183587081730365753173828125</LatitudeDegrees>
              <LongitudeDegrees>-8.1030196510255336761474609375</LongitudeDegrees>
            </Position>
            <AltitudeMeters>184.399993896484375</AltitudeMeters>
            <DistanceMeters>283966.87879981</DistanceMeters>
          </Trackpoint>
          <Trackpoint>
            <Time>2018-09-14T13:45:03.000Z</Time>
            <Position>
              <LatitudeDegrees>37.81829441897571086883544921875</LatitudeDegrees>
              <LongitudeDegrees>-8.10305728577077388763427734375</LongitudeDegrees>
            </Position>
            <AltitudeMeters>184.399993896484375</AltitudeMeters>
            <DistanceMeters>283974.76200894</DistanceMeters>
          </Trackpoint>
          <Trackpoint>
            <Time>2018-09-14T13:45:04.000Z</Time>
            <Position>
              <LatitudeDegrees>37.81823038123548030853271484375</LatitudeDegrees>
              <LongitudeDegrees>-8.1030944176018238067626953125</LongitudeDegrees>
            </Position>
            <AltitudeMeters>184.399993896484375</AltitudeMeters>
            <DistanceMeters>283982.6021448</DistanceMeters>
          </Trackpoint>
          <Trackpoint>
            <Time>2018-09-14T13:45:05.000Z</Time>
            <Position>
              <LatitudeDegrees>37.8181667625904083251953125</LatitudeDegrees>
              <LongitudeDegrees>-8.10313205234706401824951171875</LongitudeDegrees>
            </Position>
            <AltitudeMeters>184.399993896484375</AltitudeMeters>
            <DistanceMeters>283990.4186336</DistanceMeters>
          </Trackpoint>
          <Trackpoint>
            <Time>2018-09-14T13:45:06.000Z</Time>
            <Position>
              <LatitudeDegrees>37.8181035630404949188232421875</LatitudeDegrees>
              <LongitudeDegrees>-8.10317077673971652984619140625</LongitudeDegrees>
            </Position>
            <AltitudeMeters>184.399993896484375</AltitudeMeters>
            <DistanceMeters>283998.23396706</DistanceMeters>
          </Trackpoint>
          <Trackpoint>
            <Time>2018-09-14T13:45:07.000Z</Time>
            <Position>
              <LatitudeDegrees>37.8180395253002643585205078125</LatitudeDegrees>
              <LongitudeDegrees>-8.10320899821817874908447265625</LongitudeDegrees>
            </Position>
            <AltitudeMeters>184.399993896484375</AltitudeMeters>
            <DistanceMeters>284006.11431196</DistanceMeters>
          </Trackpoint>
          <Trackpoint>
            <Time>2018-09-14T13:45:08.000Z</Time>
            <Position>
              <LatitudeDegrees>37.8179748170077800750732421875</LatitudeDegrees>
              <LongitudeDegrees>-8.10324688442051410675048828125</LongitudeDegrees>
            </Position>
            <AltitudeMeters>184.1999969482421875</AltitudeMeters>
            <DistanceMeters>284014.05003834</DistanceMeters>
          </Trackpoint>
          <Trackpoint>
            <Time>2018-09-14T13:45:09.000Z</Time>
            <Position>
              <LatitudeDegrees>37.81791002489626407623291015625</LatitudeDegrees>
              <LongitudeDegrees>-8.10328493826091289520263671875</LongitudeDegrees>
            </Position>
            <AltitudeMeters>184.1999969482421875</AltitudeMeters>
            <DistanceMeters>284022.00054367</DistanceMeters>
          </Trackpoint>
          <Trackpoint>
            <Time>2018-09-14T13:45:10.000Z</Time>
            <Position>
              <LatitudeDegrees>37.8178450651466846466064453125</LatitudeDegrees>
              <LongitudeDegrees>-8.103322573006153106689453125</LongitudeDegrees>
            </Position>
            <AltitudeMeters>184.1999969482421875</AltitudeMeters>
            <DistanceMeters>284029.95218472</DistanceMeters>
          </Trackpoint>
          <Trackpoint>
            <Time>2018-09-14T13:45:11.000Z</Time>
            <Position>
              <LatitudeDegrees>37.8177793510258197784423828125</LatitudeDegrees>
              <LongitudeDegrees>-8.103359453380107879638671875</LongitudeDegrees>
            </Position>
            <AltitudeMeters>184.1999969482421875</AltitudeMeters>
            <DistanceMeters>284037.95250857</DistanceMeters>
          </Trackpoint>
          <Trackpoint>
            <Time>2018-09-14T13:45:12.000Z</Time>
            <Position>
              <LatitudeDegrees>37.81771405600011348724365234375</LatitudeDegrees>
              <LongitudeDegrees>-8.1033968366682529449462890625</LongitudeDegrees>
            </Position>
            <AltitudeMeters>184.1999969482421875</AltitudeMeters>
            <DistanceMeters>284045.92852817</DistanceMeters>
          </Trackpoint>
          <Trackpoint>
            <Time>2018-09-14T13:45:13.000Z</Time>
            <Position>
              <LatitudeDegrees>37.81764901243150234222412109375</LatitudeDegrees>
              <LongitudeDegrees>-8.103434555232524871826171875</LongitudeDegrees>
            </Position>
            <AltitudeMeters>184.1999969482421875</AltitudeMeters>
            <DistanceMeters>284053.89151735</DistanceMeters>
          </Trackpoint>
          <Trackpoint>
            <Time>2018-09-14T13:45:14.000Z</Time>
            <Position>
              <LatitudeDegrees>37.81758396886289119720458984375</LatitudeDegrees>
              <LongitudeDegrees>-8.10347151942551136016845703125</LongitudeDegrees>
            </Position>
            <AltitudeMeters>184</AltitudeMeters>
            <DistanceMeters>284061.82667476</DistanceMeters>
          </Trackpoint>
          <Trackpoint>
            <Time>2018-09-14T13:45:15.000Z</Time>
            <Position>
              <LatitudeDegrees>37.8175188414752483367919921875</LatitudeDegrees>
              <LongitudeDegrees>-8.103508986532688140869140625</LongitudeDegrees>
            </Position>
            <AltitudeMeters>184</AltitudeMeters>
            <DistanceMeters>284069.78909692</DistanceMeters>
          </Trackpoint>
          <Trackpoint>
            <Time>2018-09-14T13:45:16.000Z</Time>
            <Position>
              <LatitudeDegrees>37.81745371408760547637939453125</LatitudeDegrees>
              <LongitudeDegrees>-8.10354745946824550628662109375</LongitudeDegrees>
            </Position>
            <AltitudeMeters>184.1999969482421875</AltitudeMeters>
            <DistanceMeters>284077.78829199</DistanceMeters>
          </Trackpoint>
          <Trackpoint>
            <Time>2018-09-14T13:45:17.000Z</Time>
            <Position>
              <LatitudeDegrees>37.8173887543380260467529296875</LatitudeDegrees>
              <LongitudeDegrees>-8.1035866029560565948486328125</LongitudeDegrees>
            </Position>
            <AltitudeMeters>184.399993896484375</AltitudeMeters>
            <DistanceMeters>284085.79538526</DistanceMeters>
          </Trackpoint>
          <Trackpoint>
            <Time>2018-09-14T13:45:18.000Z</Time>
            <Position>
              <LatitudeDegrees>37.8173233754932880401611328125</LatitudeDegrees>
              <LongitudeDegrees>-8.1036248244345188140869140625</LongitudeDegrees>
            </Position>
            <AltitudeMeters>184.399993896484375</AltitudeMeters>
            <DistanceMeters>284093.81093228</DistanceMeters>
          </Trackpoint>
          <Trackpoint>
            <Time>2018-09-14T13:45:19.000Z</Time>
            <Position>
              <LatitudeDegrees>37.81725791282951831817626953125</LatitudeDegrees>
              <LongitudeDegrees>-8.1036617048084735870361328125</LongitudeDegrees>
            </Position>
            <AltitudeMeters>184.399993896484375</AltitudeMeters>
            <DistanceMeters>284101.78581964</DistanceMeters>
          </Trackpoint>
          <Trackpoint>
            <Time>2018-09-14T13:45:20.000Z</Time>
            <Position>
              <LatitudeDegrees>37.81719270162284374237060546875</LatitudeDegrees>
              <LongitudeDegrees>-8.10369883663952350616455078125</LongitudeDegrees>
            </Position>
            <AltitudeMeters>184.600006103515625</AltitudeMeters>
            <DistanceMeters>284109.74540608</DistanceMeters>
          </Trackpoint>
          <Trackpoint>
            <Time>2018-09-14T13:45:21.000Z</Time>
            <Position>
              <LatitudeDegrees>37.817127406597137451171875</LatitudeDegrees>
              <LongitudeDegrees>-8.10373554937541484832763671875</LongitudeDegrees>
            </Position>
            <AltitudeMeters>184.600006103515625</AltitudeMeters>
            <DistanceMeters>284117.69818266</DistanceMeters>
          </Trackpoint>
          <Trackpoint>
            <Time>2018-09-14T13:45:22.000Z</Time>
            <Position>
              <LatitudeDegrees>37.8170616924762725830078125</LatitudeDegrees>
              <LongitudeDegrees>-8.103771507740020751953125</LongitudeDegrees>
            </Position>
            <AltitudeMeters>184.600006103515625</AltitudeMeters>
            <DistanceMeters>284125.66683986</DistanceMeters>
          </Trackpoint>
          <Trackpoint>
            <Time>2018-09-14T13:45:23.000Z</Time>
            <Position>
              <LatitudeDegrees>37.8169961459934711456298828125</LatitudeDegrees>
              <LongitudeDegrees>-8.1038077175617218017578125</LongitudeDegrees>
            </Position>
            <AltitudeMeters>184.600006103515625</AltitudeMeters>
            <DistanceMeters>284133.62756071</DistanceMeters>
          </Trackpoint>
          <Trackpoint>
            <Time>2018-09-14T13:45:24.000Z</Time>
            <Position>
              <LatitudeDegrees>37.8169311024248600006103515625</LatitudeDegrees>
              <LongitudeDegrees>-8.1038444302976131439208984375</LongitudeDegrees>
            </Position>
            <AltitudeMeters>184.8000030517578125</AltitudeMeters>
            <DistanceMeters>284141.55417865</DistanceMeters>
          </Trackpoint>
          <Trackpoint>
            <Time>2018-09-14T13:45:25.000Z</Time>
            <Position>
              <LatitudeDegrees>37.81686647795140743255615234375</LatitudeDegrees>
              <LongitudeDegrees>-8.10388240031898021697998046875</LongitudeDegrees>
            </Position>
            <AltitudeMeters>184.8000030517578125</AltitudeMeters>
            <DistanceMeters>284149.4836441</DistanceMeters>
          </Trackpoint>
          <Trackpoint>
            <Time>2018-09-14T13:45:26.000Z</Time>
            <Position>
              <LatitudeDegrees>37.81680260784924030303955078125</LatitudeDegrees>
              <LongitudeDegrees>-8.10392213054001331329345703125</LongitudeDegrees>
            </Position>
            <AltitudeMeters>184.8000030517578125</AltitudeMeters>
            <DistanceMeters>284157.40456394</DistanceMeters>
          </Trackpoint>
          <Trackpoint>
            <Time>2018-09-14T13:45:27.000Z</Time>
            <Position>
              <LatitudeDegrees>37.81673890538513660430908203125</LatitudeDegrees>
              <LongitudeDegrees>-8.1039621122181415557861328125</LongitudeDegrees>
            </Position>
            <AltitudeMeters>185</AltitudeMeters>
            <DistanceMeters>284165.31864065</DistanceMeters>
          </Trackpoint>
          <Trackpoint>
            <Time>2018-09-14T13:45:28.000Z</Time>
            <Position>
              <LatitudeDegrees>37.81667537055909633636474609375</LatitudeDegrees>
              <LongitudeDegrees>-8.10400024987757205963134765625</LongitudeDegrees>
            </Position>
            <AltitudeMeters>185</AltitudeMeters>
            <DistanceMeters>284173.14436608</DistanceMeters>
          </Trackpoint>
          <Trackpoint>
            <Time>2018-09-14T13:45:29.000Z</Time>
            <Position>
              <LatitudeDegrees>37.81661166809499263763427734375</LatitudeDegrees>
              <LongitudeDegrees>-8.1040388904511928558349609375</LongitudeDegrees>
            </Position>
            <AltitudeMeters>185.1999969482421875</AltitudeMeters>
            <DistanceMeters>284181.00578091</DistanceMeters>
          </Trackpoint>
          <Trackpoint>
            <Time>2018-09-14T13:45:30.000Z</Time>
            <Position>
              <LatitudeDegrees>37.8165475465357303619384765625</LatitudeDegrees>
              <LongitudeDegrees>-8.10407820157706737518310546875</LongitudeDegrees>
            </Position>
            <AltitudeMeters>185.399993896484375</AltitudeMeters>
            <DistanceMeters>284188.93467694</DistanceMeters>
          </Trackpoint>
          <Trackpoint>
            <Time>2018-09-14T13:45:31.000Z</Time>
            <Position>
              <LatitudeDegrees>37.81648258678615093231201171875</LatitudeDegrees>
              <LongitudeDegrees>-8.10411675833165645599365234375</LongitudeDegrees>
            </Position>
            <AltitudeMeters>185.399993896484375</AltitudeMeters>
            <DistanceMeters>284196.91974862</DistanceMeters>
          </Trackpoint>
          <Trackpoint>
            <Time>2018-09-14T13:45:32.000Z</Time>
            <Position>
              <LatitudeDegrees>37.81641670502722263336181640625</LatitudeDegrees>
              <LongitudeDegrees>-8.1041548959910869598388671875</LongitudeDegrees>
            </Position>
            <AltitudeMeters>185.600006103515625</AltitudeMeters>
            <DistanceMeters>284204.98247274</DistanceMeters>
          </Trackpoint>
          <Trackpoint>
            <Time>2018-09-14T13:45:33.000Z</Time>
            <Position>
              <LatitudeDegrees>37.816350571811199188232421875</LatitudeDegrees>
              <LongitudeDegrees>-8.10419328510761260986328125</LongitudeDegrees>
            </Position>
            <AltitudeMeters>185.8000030517578125</AltitudeMeters>
            <DistanceMeters>284213.08095687</DistanceMeters>
          </Trackpoint>
          <Trackpoint>
            <Time>2018-09-14T13:45:34.000Z</Time>
            <Position>
              <LatitudeDegrees>37.8162846900522708892822265625</LatitudeDegrees>
              <LongitudeDegrees>-8.10423142276704311370849609375</LongitudeDegrees>
            </Position>
            <AltitudeMeters>185.8000030517578125</AltitudeMeters>
            <DistanceMeters>284221.14424097</DistanceMeters>
          </Trackpoint>
          <Trackpoint>
            <Time>2018-09-14T13:45:35.000Z</Time>
            <Position>
              <LatitudeDegrees>37.81621872447431087493896484375</LatitudeDegrees>
              <LongitudeDegrees>-8.10426847077906131744384765625</LongitudeDegrees>
            </Position>
            <AltitudeMeters>186</AltitudeMeters>
            <DistanceMeters>284229.17610664</DistanceMeters>
          </Trackpoint>
          <Trackpoint>
            <Time>2018-09-14T13:45:36.000Z</Time>
            <Position>
              <LatitudeDegrees>37.816152758896350860595703125</LatitudeDegrees>
              <LongitudeDegrees>-8.10430593788623809814453125</LongitudeDegrees>
            </Position>
            <AltitudeMeters>186</AltitudeMeters>
            <DistanceMeters>284237.22369685</DistanceMeters>
          </Trackpoint>
          <Trackpoint>
            <Time>2018-09-14T13:45:37.000Z</Time>
            <Position>
              <LatitudeDegrees>37.816087044775485992431640625</LatitudeDegrees>
              <LongitudeDegrees>-8.10434424318373203277587890625</LongitudeDegrees>
            </Position>
            <AltitudeMeters>186</AltitudeMeters>
            <DistanceMeters>284245.27577415</DistanceMeters>
          </Trackpoint>
          <Trackpoint>
            <Time>2018-09-14T13:45:38.000Z</Time>
            <Position>
              <LatitudeDegrees>37.8160214982926845550537109375</LatitudeDegrees>
              <LongitudeDegrees>-8.1043815426528453826904296875</LongitudeDegrees>
            </Position>
            <AltitudeMeters>186.1999969482421875</AltitudeMeters>
            <DistanceMeters>284253.27440476</DistanceMeters>
          </Trackpoint>
          <Trackpoint>
            <Time>2018-09-14T13:45:39.000Z</Time>
            <Position>
              <LatitudeDegrees>37.815956287086009979248046875</LatitudeDegrees>
              <LongitudeDegrees>-8.10441750101745128631591796875</LongitudeDegrees>
            </Position>
            <AltitudeMeters>186.1999969482421875</AltitudeMeters>
            <DistanceMeters>284261.19076317</DistanceMeters>
          </Trackpoint>
          <Trackpoint>
            <Time>2018-09-14T13:45:40.000Z</Time>
            <Position>
              <LatitudeDegrees>37.81589199788868427276611328125</LatitudeDegrees>
              <LongitudeDegrees>-8.10445505194365978240966796875</LongitudeDegrees>
            </Position>
            <AltitudeMeters>186.1999969482421875</AltitudeMeters>
            <DistanceMeters>284269.071681</DistanceMeters>
          </Trackpoint>
          <Trackpoint>
            <Time>2018-09-14T13:45:41.000Z</Time>
            <Position>
              <LatitudeDegrees>37.8158280439674854278564453125</LatitudeDegrees>
              <LongitudeDegrees>-8.10449302196502685546875</LongitudeDegrees>
            </Position>
            <AltitudeMeters>186.1999969482421875</AltitudeMeters>
            <DistanceMeters>284276.93309583</DistanceMeters>
          </Trackpoint>
          <Trackpoint>
            <Time>2018-09-14T13:45:42.000Z</Time>
            <Position>
              <LatitudeDegrees>37.8157646767795085906982421875</LatitudeDegrees>
              <LongitudeDegrees>-8.10452898032963275909423828125</LongitudeDegrees>
            </Position>
            <AltitudeMeters>186.1999969482421875</AltitudeMeters>
            <DistanceMeters>284284.66128615</DistanceMeters>
          </Trackpoint>
          <Trackpoint>
            <Time>2018-09-14T13:45:43.000Z</Time>
            <Position>
              <LatitudeDegrees>37.81570089049637317657470703125</LatitudeDegrees>
              <LongitudeDegrees>-8.10456418432295322418212890625</LongitudeDegrees>
            </Position>
            <AltitudeMeters>186.1999969482421875</AltitudeMeters>
            <DistanceMeters>284292.40581763</DistanceMeters>
          </Trackpoint>
          <Trackpoint>
            <Time>2018-09-14T13:45:44.000Z</Time>
            <Position>
              <LatitudeDegrees>37.8156369365751743316650390625</LatitudeDegrees>
              <LongitudeDegrees>-8.1045991368591785430908203125</LongitudeDegrees>
            </Position>
            <AltitudeMeters>186</AltitudeMeters>
            <DistanceMeters>284300.15850676</DistanceMeters>
          </Trackpoint>
          <Trackpoint>
            <Time>2018-09-14T13:45:45.000Z</Time>
            <Position>
              <LatitudeDegrees>37.8155732341110706329345703125</LatitudeDegrees>
              <LongitudeDegrees>-8.10463375411927700042724609375</LongitudeDegrees>
            </Position>
            <AltitudeMeters>186</AltitudeMeters>
            <DistanceMeters>284307.8744185</DistanceMeters>
          </Trackpoint>
          <Trackpoint>
            <Time>2018-09-14T13:45:46.000Z</Time>
            <Position>
              <LatitudeDegrees>37.8155086934566497802734375</LatitudeDegrees>
              <LongitudeDegrees>-8.10466845519840717315673828125</LongitudeDegrees>
            </Position>
            <AltitudeMeters>186</AltitudeMeters>
            <DistanceMeters>284315.67934616</DistanceMeters>
          </Trackpoint>
          <Trackpoint>
            <Time>2018-09-14T13:45:47.000Z</Time>
            <Position>
              <LatitudeDegrees>37.81544356606900691986083984375</LatitudeDegrees>
              <LongitudeDegrees>-8.10470156371593475341796875</LongitudeDegrees>
            </Position>
            <AltitudeMeters>186</AltitudeMeters>
            <DistanceMeters>284323.49121255</DistanceMeters>
          </Trackpoint>
          <Trackpoint>
            <Time>2018-09-14T13:45:48.000Z</Time>
            <Position>
              <LatitudeDegrees>37.815377600491046905517578125</LatitudeDegrees>
              <LongitudeDegrees>-8.10473299585282802581787109375</LongitudeDegrees>
            </Position>
            <AltitudeMeters>185.8000030517578125</AltitudeMeters>
            <DistanceMeters>284331.33595416</DistanceMeters>
          </Trackpoint>
          <Trackpoint>
            <Time>2018-09-14T13:45:49.000Z</Time>
            <Position>
              <LatitudeDegrees>37.81531062908470630645751953125</LatitudeDegrees>
              <LongitudeDegrees>-8.10476325452327728271484375</LongitudeDegrees>
            </Position>
            <AltitudeMeters>185.600006103515625</AltitudeMeters>
            <DistanceMeters>284339.25003088</DistanceMeters>
          </Trackpoint>
          <Trackpoint>
            <Time>2018-09-14T13:45:50.000Z</Time>
            <Position>
              <LatitudeDegrees>37.8152426518499851226806640625</LatitudeDegrees>
              <LongitudeDegrees>-8.1047920882701873779296875</LongitudeDegrees>
            </Position>
            <AltitudeMeters>185.399993896484375</AltitudeMeters>
            <DistanceMeters>284347.23001202</DistanceMeters>
          </Trackpoint>
          <Trackpoint>
            <Time>2018-09-14T13:45:51.000Z</Time>
            <Position>
              <LatitudeDegrees>37.81517417170107364654541015625</LatitudeDegrees>
              <LongitudeDegrees>-8.104819916188716888427734375</LongitudeDegrees>
            </Position>
            <AltitudeMeters>185.1999969482421875</AltitudeMeters>
            <DistanceMeters>284355.23484946</DistanceMeters>
          </Trackpoint>
          <Trackpoint>
            <Time>2018-09-14T13:45:52.000Z</Time>
            <Position>
              <LatitudeDegrees>37.81510510481894016265869140625</LatitudeDegrees>
              <LongitudeDegrees>-8.10484782792627811431884765625</LongitudeDegrees>
            </Position>
            <AltitudeMeters>185</AltitudeMeters>
            <DistanceMeters>284363.30485016</DistanceMeters>
          </Trackpoint>
          <Trackpoint>
            <Time>2018-09-14T13:45:53.000Z</Time>
            <Position>
              <LatitudeDegrees>37.81503637321293354034423828125</LatitudeDegrees>
              <LongitudeDegrees>-8.10487548820674419403076171875</LongitudeDegrees>
            </Position>
            <AltitudeMeters>185</AltitudeMeters>
            <DistanceMeters>284371.33277988</DistanceMeters>
          </Trackpoint>
          <Trackpoint>
            <Time>2018-09-14T13:45:54.000Z</Time>
            <Position>
              <LatitudeDegrees>37.81496814452111721038818359375</LatitudeDegrees>
              <LongitudeDegrees>-8.10490214265882968902587890625</LongitudeDegrees>
            </Position>
            <AltitudeMeters>185</AltitudeMeters>
            <DistanceMeters>284379.28044525</DistanceMeters>
          </Trackpoint>
          <Trackpoint>
            <Time>2018-09-14T13:45:55.000Z</Time>
            <Position>
              <LatitudeDegrees>37.8148999996483325958251953125</LatitudeDegrees>
              <LongitudeDegrees>-8.1049283780157566070556640625</LongitudeDegrees>
            </Position>
            <AltitudeMeters>185</AltitudeMeters>
            <DistanceMeters>284387.20820231</DistanceMeters>
          </Trackpoint>
          <Trackpoint>
            <Time>2018-09-14T13:45:56.000Z</Time>
            <Position>
              <LatitudeDegrees>37.81483151949942111968994140625</LatitudeDegrees>
              <LongitudeDegrees>-8.10495226643979549407958984375</LongitudeDegrees>
            </Position>
            <AltitudeMeters>185</AltitudeMeters>
            <DistanceMeters>284395.11428789</DistanceMeters>
          </Trackpoint>
          <Trackpoint>
            <Time>2018-09-14T13:45:57.000Z</Time>
            <Position>
              <LatitudeDegrees>37.81476262025535106658935546875</LatitudeDegrees>
              <LongitudeDegrees>-8.104975484311580657958984375</LongitudeDegrees>
            </Position>
            <AltitudeMeters>185</AltitudeMeters>
            <DistanceMeters>284403.05001426</DistanceMeters>
          </Trackpoint>
          <Trackpoint>
            <Time>2018-09-14T13:45:58.000Z</Time>
            <Position>
              <LatitudeDegrees>37.81469397246837615966796875</LatitudeDegrees>
              <LongitudeDegrees>-8.10500037856400012969970703125</LongitudeDegrees>
            </Position>
            <AltitudeMeters>185</AltitudeMeters>
            <DistanceMeters>284410.99711151</DistanceMeters>
          </Trackpoint>
          <Trackpoint>
            <Time>2018-09-14T13:45:59.000Z</Time>
            <Position>
              <LatitudeDegrees>37.814625911414623260498046875</LatitudeDegrees>
              <LongitudeDegrees>-8.1050242669880390167236328125</LongitudeDegrees>
            </Position>
            <AltitudeMeters>185.1999969482421875</AltitudeMeters>
            <DistanceMeters>284418.85852634</DistanceMeters>
          </Trackpoint>
          <Trackpoint>
            <Time>2018-09-14T13:46:00.000Z</Time>
            <Position>
              <LatitudeDegrees>37.814557515084743499755859375</LatitudeDegrees>
              <LongitudeDegrees>-8.10504664666950702667236328125</LongitudeDegrees>
            </Position>
            <AltitudeMeters>185.1999969482421875</AltitudeMeters>
            <DistanceMeters>284426.72108975</DistanceMeters>
          </Trackpoint>
          <Trackpoint>
            <Time>2018-09-14T13:46:01.000Z</Time>
            <Position>
              <LatitudeDegrees>37.81448903493583202362060546875</LatitudeDegrees>
              <LongitudeDegrees>-8.10506776906549930572509765625</LongitudeDegrees>
            </Position>
            <AltitudeMeters>185.1999969482421875</AltitudeMeters>
            <DistanceMeters>284434.56640689</DistanceMeters>
          </Trackpoint>
          <Trackpoint>
            <Time>2018-09-14T13:46:02.000Z</Time>
            <Position>
              <LatitudeDegrees>37.81442013569176197052001953125</LatitudeDegrees>
              <LongitudeDegrees>-8.105088137090206146240234375</LongitudeDegrees>
            </Position>
            <AltitudeMeters>185.1999969482421875</AltitudeMeters>
            <DistanceMeters>284442.44159356</DistanceMeters>
          </Trackpoint>
          <Trackpoint>
            <Time>2018-09-14T13:46:03.000Z</Time>
            <Position>
              <LatitudeDegrees>37.81435056589543819427490234375</LatitudeDegrees>
              <LongitudeDegrees>-8.10510749928653240203857421875</LongitudeDegrees>
            </Position>
            <AltitudeMeters>185.1999969482421875</AltitudeMeters>
            <DistanceMeters>284450.37048958</DistanceMeters>
          </Trackpoint>
          <Trackpoint>
            <Time>2018-09-14T13:46:04.000Z</Time>
            <Position>
              <LatitudeDegrees>37.8142807446420192718505859375</LatitudeDegrees>
              <LongitudeDegrees>-8.10512493364512920379638671875</LongitudeDegrees>
            </Position>
            <AltitudeMeters>185.1999969482421875</AltitudeMeters>
            <DistanceMeters>284458.29140943</DistanceMeters>
          </Trackpoint>
          <Trackpoint>
            <Time>2018-09-14T13:46:05.000Z</Time>
            <Position>
              <LatitudeDegrees>37.81421042047441005706787109375</LatitudeDegrees>
              <LongitudeDegrees>-8.1051416136324405670166015625</LongitudeDegrees>
            </Position>
            <AltitudeMeters>185</AltitudeMeters>
            <DistanceMeters>284466.25439861</DistanceMeters>
          </Trackpoint>
          <Trackpoint>
            <Time>2018-09-14T13:46:06.000Z</Time>
            <Position>
              <LatitudeDegrees>37.81413984484970569610595703125</LatitudeDegrees>
              <LongitudeDegrees>-8.10515762306749820709228515625</LongitudeDegrees>
            </Position>
            <AltitudeMeters>185.399993896484375</AltitudeMeters>
            <DistanceMeters>284474.23551127</DistanceMeters>
          </Trackpoint>
          <Trackpoint>
            <Time>2018-09-14T13:46:07.000Z</Time>
            <Position>
              <LatitudeDegrees>37.814069688320159912109375</LatitudeDegrees>
              <LongitudeDegrees>-8.1051717884838581085205078125</LongitudeDegrees>
            </Position>
            <AltitudeMeters>185.600006103515625</AltitudeMeters>
            <DistanceMeters>284482.14273893</DistanceMeters>
          </Trackpoint>
          <Trackpoint>
            <Time>2018-09-14T13:46:08.000Z</Time>
            <Position>
              <LatitudeDegrees>37.813999950885772705078125</LatitudeDegrees>
              <LongitudeDegrees>-8.10518528334796428680419921875</LongitudeDegrees>
            </Position>
            <AltitudeMeters>185.8000030517578125</AltitudeMeters>
            <DistanceMeters>284489.99495912</DistanceMeters>
          </Trackpoint>
          <Trackpoint>
            <Time>2018-09-14T13:46:09.000Z</Time>
            <Position>
              <LatitudeDegrees>37.813930213451385498046875</LatitudeDegrees>
              <LongitudeDegrees>-8.105198442935943603515625</LongitudeDegrees>
            </Position>
            <AltitudeMeters>186</AltitudeMeters>
            <DistanceMeters>284497.84257796</DistanceMeters>
          </Trackpoint>
          <Trackpoint>
            <Time>2018-09-14T13:46:10.000Z</Time>
            <Position>
              <LatitudeDegrees>37.81386022455990314483642578125</LatitudeDegrees>
              <LongitudeDegrees>-8.10521026141941547393798828125</LongitudeDegrees>
            </Position>
            <AltitudeMeters>186.1999969482421875</AltitudeMeters>
            <DistanceMeters>284505.70112062</DistanceMeters>
          </Trackpoint>
          <Trackpoint>
            <Time>2018-09-14T13:46:11.000Z</Time>
            <Position>
              <LatitudeDegrees>37.81379006803035736083984375</LatitudeDegrees>
              <LongitudeDegrees>-8.10522065497934818267822265625</LongitudeDegrees>
            </Position>
            <AltitudeMeters>186.399993896484375</AltitudeMeters>
            <DistanceMeters>284513.56253545</DistanceMeters>
          </Trackpoint>
          <Trackpoint>
            <Time>2018-09-14T13:46:12.000Z</Time>
            <Position>
              <LatitudeDegrees>37.8137198276817798614501953125</LatitudeDegrees>
              <LongitudeDegrees>-8.10522995889186859130859375</LongitudeDegrees>
            </Position>
            <AltitudeMeters>186.600006103515625</AltitudeMeters>
            <DistanceMeters>284521.42280155</DistanceMeters>
          </Trackpoint>
          <Trackpoint>
            <Time>2018-09-14T13:46:13.000Z</Time>
            <Position>
              <LatitudeDegrees>37.81364933587610721588134765625</LatitudeDegrees>
              <LongitudeDegrees>-8.10523875989019870758056640625</LongitudeDegrees>
            </Position>
            <AltitudeMeters>186.600006103515625</AltitudeMeters>
            <DistanceMeters>284529.30658339</DistanceMeters>
          </Trackpoint>
          <Trackpoint>
            <Time>2018-09-14T13:46:14.000Z</Time>
            <Position>
              <LatitudeDegrees>37.81357951462268829345703125</LatitudeDegrees>
              <LongitudeDegrees>-8.105245046317577362060546875</LongitudeDegrees>
            </Position>
            <AltitudeMeters>186.8000030517578125</AltitudeMeters>
            <DistanceMeters>284537.09761502</DistanceMeters>
          </Trackpoint>
          <Trackpoint>
            <Time>2018-09-14T13:46:15.000Z</Time>
            <Position>
              <LatitudeDegrees>37.81350919045507907867431640625</LatitudeDegrees>
              <LongitudeDegrees>-8.105250410735607147216796875</LongitudeDegrees>
            </Position>
            <AltitudeMeters>187</AltitudeMeters>
            <DistanceMeters>284544.93832675</DistanceMeters>
          </Trackpoint>
          <Trackpoint>
            <Time>2018-09-14T13:46:16.000Z</Time>
            <Position>
              <LatitudeDegrees>37.81343869864940643310546875</LatitudeDegrees>
              <LongitudeDegrees>-8.1052552722394466400146484375</LongitudeDegrees>
            </Position>
            <AltitudeMeters>187.1999969482421875</AltitudeMeters>
            <DistanceMeters>284552.79514561</DistanceMeters>
          </Trackpoint>
          <Trackpoint>
            <Time>2018-09-14T13:46:17.000Z</Time>
            <Position>
              <LatitudeDegrees>37.81336803920567035675048828125</LatitudeDegrees>
              <LongitudeDegrees>-8.105259798467159271240234375</LongitudeDegrees>
            </Position>
            <AltitudeMeters>187.399993896484375</AltitudeMeters>
            <DistanceMeters>284560.66918554</DistanceMeters>
          </Trackpoint>
          <Trackpoint>
            <Time>2018-09-14T13:46:18.000Z</Time>
            <Position>
              <LatitudeDegrees>37.81329729594290256500244140625</LatitudeDegrees>
              <LongitudeDegrees>-8.1052646599709987640380859375</LongitudeDegrees>
            </Position>
            <AltitudeMeters>187.8000030517578125</AltitudeMeters>
            <DistanceMeters>284568.5546853</DistanceMeters>
          </Trackpoint>
          <Trackpoint>
            <Time>2018-09-14T13:46:19.000Z</Time>
            <Position>
              <LatitudeDegrees>37.8132263012230396270751953125</LatitudeDegrees>
              <LongitudeDegrees>-8.10527019202709197998046875</LongitudeDegrees>
            </Position>
            <AltitudeMeters>188.1999969482421875</AltitudeMeters>
            <DistanceMeters>284576.47161403</DistanceMeters>
          </Trackpoint>
          <Trackpoint>
            <Time>2018-09-14T13:46:20.000Z</Time>
            <Position>
              <LatitudeDegrees>37.8131548874080181121826171875</LatitudeDegrees>
              <LongitudeDegrees>-8.10527463443577289581298828125</LongitudeDegrees>
            </Position>
            <AltitudeMeters>188.1999969482421875</AltitudeMeters>
            <DistanceMeters>284584.4300659</DistanceMeters>
          </Trackpoint>
          <Trackpoint>
            <Time>2018-09-14T13:46:21.000Z</Time>
            <Position>
              <LatitudeDegrees>37.81308305449783802032470703125</LatitudeDegrees>
              <LongitudeDegrees>-8.10527689754962921142578125</LongitudeDegrees>
            </Position>
            <AltitudeMeters>188.1999969482421875</AltitudeMeters>
            <DistanceMeters>284592.42756748</DistanceMeters>
          </Trackpoint>
          <Trackpoint>
            <Time>2018-09-14T13:46:22.000Z</Time>
            <Position>
              <LatitudeDegrees>37.81301097013056278228759765625</LatitudeDegrees>
              <LongitudeDegrees>-8.10527664609253406524658203125</LongitudeDegrees>
            </Position>
            <AltitudeMeters>188.1999969482421875</AltitudeMeters>
            <DistanceMeters>284600.45043385</DistanceMeters>
          </Trackpoint>
          <Trackpoint>
            <Time>2018-09-14T13:46:23.000Z</Time>
            <Position>
              <LatitudeDegrees>37.81293888576328754425048828125</LatitudeDegrees>
              <LongitudeDegrees>-8.1052753888070583343505859375</LongitudeDegrees>
            </Position>
            <AltitudeMeters>188.1999969482421875</AltitudeMeters>
            <DistanceMeters>284608.47330023</DistanceMeters>
          </Trackpoint>
          <Trackpoint>
            <Time>2018-09-14T13:46:24.000Z</Time>
            <Position>
              <LatitudeDegrees>37.81286663375794887542724609375</LatitudeDegrees>
              <LongitudeDegrees>-8.105273880064487457275390625</LongitudeDegrees>
            </Position>
            <AltitudeMeters>188.1999969482421875</AltitudeMeters>
            <DistanceMeters>284616.51640085</DistanceMeters>
          </Trackpoint>
          <Trackpoint>
            <Time>2018-09-14T13:46:25.000Z</Time>
            <Position>
              <LatitudeDegrees>37.81279404647648334503173828125</LatitudeDegrees>
              <LongitudeDegrees>-8.1052717007696628570556640625</LongitudeDegrees>
            </Position>
            <AltitudeMeters>188.1999969482421875</AltitudeMeters>
            <DistanceMeters>284624.59758349</DistanceMeters>
          </Trackpoint>
          <Trackpoint>
            <Time>2018-09-14T13:46:26.000Z</Time>
            <Position>
              <LatitudeDegrees>37.81272095628082752227783203125</LatitudeDegrees>
              <LongitudeDegrees>-8.10526943765580654144287109375</LongitudeDegrees>
            </Position>
            <AltitudeMeters>188.1999969482421875</AltitudeMeters>
            <DistanceMeters>284632.73444533</DistanceMeters>
          </Trackpoint>
          <Trackpoint>
            <Time>2018-09-14T13:46:27.000Z</Time>
            <Position>
              <LatitudeDegrees>37.81264836899936199188232421875</LatitudeDegrees>
              <LongitudeDegrees>-8.10526642017066478729248046875</LongitudeDegrees>
            </Position>
            <AltitudeMeters>188.1999969482421875</AltitudeMeters>
            <DistanceMeters>284640.8178625</DistanceMeters>
          </Trackpoint>
          <Trackpoint>
            <Time>2018-09-14T13:46:28.000Z</Time>
            <Position>
              <LatitudeDegrees>37.8125762008130550384521484375</LatitudeDegrees>
              <LongitudeDegrees>-8.10526055283844470977783203125</LongitudeDegrees>
            </Position>
            <AltitudeMeters>188.1999969482421875</AltitudeMeters>
            <DistanceMeters>284648.86657472</DistanceMeters>
          </Trackpoint>
          <Trackpoint>
            <Time>2018-09-14T13:46:29.000Z</Time>
            <Position>
              <LatitudeDegrees>37.8125041164457798004150390625</LatitudeDegrees>
              <LongitudeDegrees>-8.1052529253065586090087890625</LongitudeDegrees>
            </Position>
            <AltitudeMeters>187.8000030517578125</AltitudeMeters>
            <DistanceMeters>284656.91753048</DistanceMeters>
          </Trackpoint>
          <Trackpoint>
            <Time>2018-09-14T13:46:30.000Z</Time>
            <Position>
              <LatitudeDegrees>37.812431864440441131591796875</LatitudeDegrees>
              <LongitudeDegrees>-8.10524529777467250823974609375</LongitudeDegrees>
            </Position>
            <AltitudeMeters>187.399993896484375</AltitudeMeters>
            <DistanceMeters>284664.98753118</DistanceMeters>
          </Trackpoint>
          <Trackpoint>
            <Time>2018-09-14T13:46:31.000Z</Time>
            <Position>
              <LatitudeDegrees>37.81236003153026103973388671875</LatitudeDegrees>
              <LongitudeDegrees>-8.1052373349666595458984375</LongitudeDegrees>
            </Position>
            <AltitudeMeters>187.600006103515625</AltitudeMeters>
            <DistanceMeters>284673.01264833</DistanceMeters>
          </Trackpoint>
          <Trackpoint>
            <Time>2018-09-14T13:46:32.000Z</Time>
            <Position>
              <LatitudeDegrees>37.8122873604297637939453125</LatitudeDegrees>
              <LongitudeDegrees>-8.10522886924445629119873046875</LongitudeDegrees>
            </Position>
            <AltitudeMeters>187.8000030517578125</AltitudeMeters>
            <DistanceMeters>284681.13451439</DistanceMeters>
          </Trackpoint>
          <Trackpoint>
            <Time>2018-09-14T13:46:33.000Z</Time>
            <Position>
              <LatitudeDegrees>37.81221452169120311737060546875</LatitudeDegrees>
              <LongitudeDegrees>-8.10521923005580902099609375</LongitudeDegrees>
            </Position>
            <AltitudeMeters>188</AltitudeMeters>
            <DistanceMeters>284689.2852366</DistanceMeters>
          </Trackpoint>
          <Trackpoint>
            <Time>2018-09-14T13:46:34.000Z</Time>
            <Position>
              <LatitudeDegrees>37.8121411800384521484375</LatitudeDegrees>
              <LongitudeDegrees>-8.1052083335816860198974609375</LongitudeDegrees>
            </Position>
            <AltitudeMeters>188.399993896484375</AltitudeMeters>
            <DistanceMeters>284697.50491007</DistanceMeters>
          </Trackpoint>
          <Trackpoint>
            <Time>2018-09-14T13:46:35.000Z</Time>
            <Position>
              <LatitudeDegrees>37.81206783838570117950439453125</LatitudeDegrees>
              <LongitudeDegrees>-8.1051971018314361572265625</LongitudeDegrees>
            </Position>
            <AltitudeMeters>188.600006103515625</AltitudeMeters>
            <DistanceMeters>284705.72787865</DistanceMeters>
          </Trackpoint>
          <Trackpoint>
            <Time>2018-09-14T13:46:36.000Z</Time>
            <Position>
              <LatitudeDegrees>37.8119934909045696258544921875</LatitudeDegrees>
              <LongitudeDegrees>-8.1051841937005519866943359375</LongitudeDegrees>
            </Position>
            <AltitudeMeters>189</AltitudeMeters>
            <DistanceMeters>284714.08050522</DistanceMeters>
          </Trackpoint>
          <Trackpoint>
            <Time>2018-09-14T13:46:37.000Z</Time>
            <Position>
              <LatitudeDegrees>37.8119180537760257720947265625</LatitudeDegrees>
              <LongitudeDegrees>-8.1051702797412872314453125</LongitudeDegrees>
            </Position>
            <AltitudeMeters>189.1999969482421875</AltitudeMeters>
            <DistanceMeters>284722.565598</DistanceMeters>
          </Trackpoint>
          <Trackpoint>
            <Time>2018-09-14T13:46:38.000Z</Time>
            <Position>
              <LatitudeDegrees>37.8118412755429744720458984375</LatitudeDegrees>
              <LongitudeDegrees>-8.10515628196299076080322265625</LongitudeDegrees>
            </Position>
            <AltitudeMeters>189.399993896484375</AltitudeMeters>
            <DistanceMeters>284731.19996602</DistanceMeters>
          </Trackpoint>
          <Trackpoint>
            <Time>2018-09-14T13:46:39.000Z</Time>
            <Position>
              <LatitudeDegrees>37.81176365911960601806640625</LatitudeDegrees>
              <LongitudeDegrees>-8.10514203272759914398193359375</LongitudeDegrees>
            </Position>
            <AltitudeMeters>189.8000030517578125</AltitudeMeters>
            <DistanceMeters>284739.92950296</DistanceMeters>
          </Trackpoint>
          <Trackpoint>
            <Time>2018-09-14T13:46:40.000Z</Time>
            <Position>
              <LatitudeDegrees>37.81168512068688869476318359375</LatitudeDegrees>
              <LongitudeDegrees>-8.10512761585414409637451171875</LongitudeDegrees>
            </Position>
            <AltitudeMeters>189.8000030517578125</AltitudeMeters>
            <DistanceMeters>284748.76289928</DistanceMeters>
          </Trackpoint>
          <Trackpoint>
            <Time>2018-09-14T13:46:41.000Z</Time>
            <Position>
              <LatitudeDegrees>37.81160532496869564056396484375</LatitudeDegrees>
              <LongitudeDegrees>-8.1051121093332767486572265625</LongitudeDegrees>
            </Position>
            <AltitudeMeters>189.600006103515625</AltitudeMeters>
            <DistanceMeters>284757.74882959</DistanceMeters>
          </Trackpoint>
          <Trackpoint>
            <Time>2018-09-14T13:46:42.000Z</Time>
            <Position>
              <LatitudeDegrees>37.8115247748792171478271484375</LatitudeDegrees>
              <LongitudeDegrees>-8.105096183717250823974609375</LongitudeDegrees>
            </Position>
            <AltitudeMeters>189.600006103515625</AltitudeMeters>
            <DistanceMeters>284766.82276132</DistanceMeters>
          </Trackpoint>
          <Trackpoint>
            <Time>2018-09-14T13:46:43.000Z</Time>
            <Position>
              <LatitudeDegrees>37.81144313514232635498046875</LatitudeDegrees>
              <LongitudeDegrees>-8.10508084483444690704345703125</LongitudeDegrees>
            </Position>
            <AltitudeMeters>189.1999969482421875</AltitudeMeters>
            <DistanceMeters>284776.00944159</DistanceMeters>
          </Trackpoint>
          <Trackpoint>
            <Time>2018-09-14T13:46:44.000Z</Time>
            <Position>
              <LatitudeDegrees>37.811360657215118408203125</LatitudeDegrees>
              <LongitudeDegrees>-8.10506709851324558258056640625</LongitudeDegrees>
            </Position>
            <AltitudeMeters>189</AltitudeMeters>
            <DistanceMeters>284785.2695499</DistanceMeters>
          </Trackpoint>
          <Trackpoint>
            <Time>2018-09-14T13:46:45.000Z</Time>
            <Position>
              <LatitudeDegrees>37.81127792783081531524658203125</LatitudeDegrees>
              <LongitudeDegrees>-8.10505268163979053497314453125</LongitudeDegrees>
            </Position>
            <AltitudeMeters>188.8000030517578125</AltitudeMeters>
            <DistanceMeters>284794.56469764</DistanceMeters>
          </Trackpoint>
          <Trackpoint>
            <Time>2018-09-14T13:46:46.000Z</Time>
            <Position>
              <LatitudeDegrees>37.81119444407522678375244140625</LatitudeDegrees>
              <LongitudeDegrees>-8.105037845671176910400390625</LongitudeDegrees>
            </Position>
            <AltitudeMeters>188.399993896484375</AltitudeMeters>
            <DistanceMeters>284803.94783386</DistanceMeters>
          </Trackpoint>
          <Trackpoint>
            <Time>2018-09-14T13:46:47.000Z</Time>
            <Position>
              <LatitudeDegrees>37.81111045740544795989990234375</LatitudeDegrees>
              <LongitudeDegrees>-8.105021081864833831787109375</LongitudeDegrees>
            </Position>
            <AltitudeMeters>188.1999969482421875</AltitudeMeters>
            <DistanceMeters>284813.41146414</DistanceMeters>
          </Trackpoint>
          <Trackpoint>
            <Time>2018-09-14T13:46:48.000Z</Time>
            <Position>
              <LatitudeDegrees>37.81102613545954227447509765625</LatitudeDegrees>
              <LongitudeDegrees>-8.1050039827823638916015625</LongitudeDegrees>
            </Position>
            <AltitudeMeters>187.8000030517578125</AltitudeMeters>
            <DistanceMeters>284822.91603593</DistanceMeters>
          </Trackpoint>
          <Trackpoint>
            <Time>2018-09-14T13:46:49.000Z</Time>
            <Position>
              <LatitudeDegrees>37.8109417296946048736572265625</LatitudeDegrees>
              <LongitudeDegrees>-8.10498747043311595916748046875</LongitudeDegrees>
            </Position>
            <AltitudeMeters>187.8000030517578125</AltitudeMeters>
            <DistanceMeters>284832.42155774</DistanceMeters>
          </Trackpoint>
          <Trackpoint>
            <Time>2018-09-14T13:46:50.000Z</Time>
            <Position>
              <LatitudeDegrees>37.810857407748699188232421875</LatitudeDegrees>
              <LongitudeDegrees>-8.104971460998058319091796875</LongitudeDegrees>
            </Position>
            <AltitudeMeters>187.600006103515625</AltitudeMeters>
            <DistanceMeters>284841.91186766</DistanceMeters>
          </Trackpoint>
          <Trackpoint>
            <Time>2018-09-14T13:46:51.000Z</Time>
            <Position>
              <LatitudeDegrees>37.81077333725988864898681640625</LatitudeDegrees>
              <LongitudeDegrees>-8.1049558706581592559814453125</LongitudeDegrees>
            </Position>
            <AltitudeMeters>187.600006103515625</AltitudeMeters>
            <DistanceMeters>284851.36881627</DistanceMeters>
          </Trackpoint>
          <Trackpoint>
            <Time>2018-09-14T13:46:52.000Z</Time>
            <Position>
              <LatitudeDegrees>37.81069018878042697906494140625</LatitudeDegrees>
              <LongitudeDegrees>-8.10494002886116504669189453125</LongitudeDegrees>
            </Position>
            <AltitudeMeters>187.399993896484375</AltitudeMeters>
            <DistanceMeters>284860.72786225</DistanceMeters>
          </Trackpoint>
          <Trackpoint>
            <Time>2018-09-14T13:46:53.000Z</Time>
            <Position>
              <LatitudeDegrees>37.81060787849128246307373046875</LatitudeDegrees>
              <LongitudeDegrees>-8.10492410324513912200927734375</LongitudeDegrees>
            </Position>
            <AltitudeMeters>187.1999969482421875</AltitudeMeters>
            <DistanceMeters>284869.99576854</DistanceMeters>
          </Trackpoint>
          <Trackpoint>
            <Time>2018-09-14T13:46:54.000Z</Time>
            <Position>
              <LatitudeDegrees>37.810526154935359954833984375</LatitudeDegrees>
              <LongitudeDegrees>-8.10490784235298633575439453125</LongitudeDegrees>
            </Position>
            <AltitudeMeters>187.1999969482421875</AltitudeMeters>
            <DistanceMeters>284879.20404839</DistanceMeters>
          </Trackpoint>
          <Trackpoint>
            <Time>2018-09-14T13:46:55.000Z</Time>
            <Position>
              <LatitudeDegrees>37.81044443137943744659423828125</LatitudeDegrees>
              <LongitudeDegrees>-8.10489359311759471893310546875</LongitudeDegrees>
            </Position>
            <AltitudeMeters>187</AltitudeMeters>
            <DistanceMeters>284888.38581259</DistanceMeters>
          </Trackpoint>
          <Trackpoint>
            <Time>2018-09-14T13:46:56.000Z</Time>
            <Position>
              <LatitudeDegrees>37.81036220490932464599609375</LatitudeDegrees>
              <LongitudeDegrees>-8.10488001443445682525634765625</LongitudeDegrees>
            </Position>
            <AltitudeMeters>186.8000030517578125</AltitudeMeters>
            <DistanceMeters>284897.61466306</DistanceMeters>
          </Trackpoint>
          <Trackpoint>
            <Time>2018-09-14T13:46:57.000Z</Time>
            <Position>
              <LatitudeDegrees>37.81027997843921184539794921875</LatitudeDegrees>
              <LongitudeDegrees>-8.104865513741970062255859375</LongitudeDegrees>
            </Position>
            <AltitudeMeters>186.8000030517578125</AltitudeMeters>
            <DistanceMeters>284906.85427034</DistanceMeters>
          </Trackpoint>
          <Trackpoint>
            <Time>2018-09-14T13:46:58.000Z</Time>
            <Position>
              <LatitudeDegrees>37.8101979196071624755859375</LatitudeDegrees>
              <LongitudeDegrees>-8.10485000722110271453857421875</LongitudeDegrees>
            </Position>
            <AltitudeMeters>186.600006103515625</AltitudeMeters>
            <DistanceMeters>284916.08850078</DistanceMeters>
          </Trackpoint>
          <Trackpoint>
            <Time>2018-09-14T13:46:59.000Z</Time>
            <Position>
              <LatitudeDegrees>37.81011619605123996734619140625</LatitudeDegrees>
              <LongitudeDegrees>-8.1048331595957279205322265625</LongitudeDegrees>
            </Position>
            <AltitudeMeters>186.600006103515625</AltitudeMeters>
            <DistanceMeters>284925.30462247</DistanceMeters>
          </Trackpoint>
          <Trackpoint>
            <Time>2018-09-14T13:47:00.000Z</Time>
            <Position>
              <LatitudeDegrees>37.81003505922853946685791015625</LatitudeDegrees>
              <LongitudeDegrees>-8.10481782071292400360107421875</LongitudeDegrees>
            </Position>
            <AltitudeMeters>186.600006103515625</AltitudeMeters>
            <DistanceMeters>284934.43609146</DistanceMeters>
          </Trackpoint>
          <Trackpoint>
            <Time>2018-09-14T13:47:01.000Z</Time>
            <Position>
              <LatitudeDegrees>37.80995392240583896636962890625</LatitudeDegrees>
              <LongitudeDegrees>-8.10480273328721523284912109375</LongitudeDegrees>
            </Position>
            <AltitudeMeters>186.8000030517578125</AltitudeMeters>
            <DistanceMeters>284943.56409866</DistanceMeters>
          </Trackpoint>
          <Trackpoint>
            <Time>2018-09-14T13:47:02.000Z</Time>
            <Position>
              <LatitudeDegrees>37.80987295322120189666748046875</LatitudeDegrees>
              <LongitudeDegrees>-8.1047872267663478851318359375</LongitudeDegrees>
            </Position>
            <AltitudeMeters>186.8000030517578125</AltitudeMeters>
            <DistanceMeters>284952.6787409</DistanceMeters>
          </Trackpoint>
          <Trackpoint>
            <Time>2018-09-14T13:47:03.000Z</Time>
            <Position>
              <LatitudeDegrees>37.80979332514107227325439453125</LatitudeDegrees>
              <LongitudeDegrees>-8.10477272607386112213134765625</LongitudeDegrees>
            </Position>
            <AltitudeMeters>187</AltitudeMeters>
            <DistanceMeters>284961.63346473</DistanceMeters>
          </Trackpoint>
          <Trackpoint>
            <Time>2018-09-14T13:47:04.000Z</Time>
            <Position>
              <LatitudeDegrees>37.80971453525125980377197265625</LatitudeDegrees>
              <LongitudeDegrees>-8.10475923120975494384765625</LongitudeDegrees>
            </Position>
            <AltitudeMeters>187</AltitudeMeters>
            <DistanceMeters>284970.48269198</DistanceMeters>
          </Trackpoint>
          <Trackpoint>
            <Time>2018-09-14T13:47:05.000Z</Time>
            <Position>
              <LatitudeDegrees>37.8096375055611133575439453125</LatitudeDegrees>
              <LongitudeDegrees>-8.1047451496124267578125</LongitudeDegrees>
            </Position>
            <AltitudeMeters>187</AltitudeMeters>
            <DistanceMeters>284979.14525137</DistanceMeters>
          </Trackpoint>
          <Trackpoint>
            <Time>2018-09-14T13:47:06.000Z</Time>
            <Position>
              <LatitudeDegrees>37.80956231988966464996337890625</LatitudeDegrees>
              <LongitudeDegrees>-8.1047302298247814178466796875</LongitudeDegrees>
            </Position>
            <AltitudeMeters>187.1999969482421875</AltitudeMeters>
            <DistanceMeters>284987.61543185</DistanceMeters>
          </Trackpoint>
          <Trackpoint>
            <Time>2018-09-14T13:47:07.000Z</Time>
            <Position>
              <LatitudeDegrees>37.809489481151103973388671875</LatitudeDegrees>
              <LongitudeDegrees>-8.10471572913229465484619140625</LongitudeDegrees>
            </Position>
            <AltitudeMeters>187.399993896484375</AltitudeMeters>
            <DistanceMeters>284995.82191162</DistanceMeters>
          </Trackpoint>
          <Trackpoint>
            <Time>2018-09-14T13:47:08.000Z</Time>
            <Position>
              <LatitudeDegrees>37.8094175644218921661376953125</LatitudeDegrees>
              <LongitudeDegrees>-8.10470332391560077667236328125</LongitudeDegrees>
            </Position>
            <AltitudeMeters>187.600006103515625</AltitudeMeters>
            <DistanceMeters>285003.90085911</DistanceMeters>
          </Trackpoint>
          <Trackpoint>
            <Time>2018-09-14T13:47:09.000Z</Time>
            <Position>
              <LatitudeDegrees>37.80934631824493408203125</LatitudeDegrees>
              <LongitudeDegrees>-8.10469259507954120635986328125</LongitudeDegrees>
            </Position>
            <AltitudeMeters>187.600006103515625</AltitudeMeters>
            <DistanceMeters>285011.88706158</DistanceMeters>
          </Trackpoint>
          <Trackpoint>
            <Time>2018-09-14T13:47:10.000Z</Time>
            <Position>
              <LatitudeDegrees>37.80927591025829315185546875</LatitudeDegrees>
              <LongitudeDegrees>-8.10467985458672046661376953125</LongitudeDegrees>
            </Position>
            <AltitudeMeters>187.8000030517578125</AltitudeMeters>
            <DistanceMeters>285019.80341999</DistanceMeters>
          </Trackpoint>
          <Trackpoint>
            <Time>2018-09-14T13:47:11.000Z</Time>
            <Position>
              <LatitudeDegrees>37.80920776538550853729248046875</LatitudeDegrees>
              <LongitudeDegrees>-8.10466610826551914215087890625</LongitudeDegrees>
            </Position>
            <AltitudeMeters>188</AltitudeMeters>
            <DistanceMeters>285027.48355406</DistanceMeters>
          </Trackpoint>
          <Trackpoint>
            <Time>2018-09-14T13:47:12.000Z</Time>
            <Position>
              <LatitudeDegrees>37.80914104543626308441162109375</LatitudeDegrees>
              <LongitudeDegrees>-8.1046544574201107025146484375</LongitudeDegrees>
            </Position>
            <AltitudeMeters>188.1999969482421875</AltitudeMeters>
            <DistanceMeters>285034.97983085</DistanceMeters>
          </Trackpoint>
          <Trackpoint>
            <Time>2018-09-14T13:47:13.000Z</Time>
            <Position>
              <LatitudeDegrees>37.80907516367733478546142578125</LatitudeDegrees>
              <LongitudeDegrees>-8.1046430580317974090576171875</LongitudeDegrees>
            </Position>
            <AltitudeMeters>188.399993896484375</AltitudeMeters>
            <DistanceMeters>285042.38094183</DistanceMeters>
          </Trackpoint>
          <Trackpoint>
            <Time>2018-09-14T13:47:14.000Z</Time>
            <Position>
              <LatitudeDegrees>37.80901037156581878662109375</LatitudeDegrees>
              <LongitudeDegrees>-8.1046309880912303924560546875</LongitudeDegrees>
            </Position>
            <AltitudeMeters>188.399993896484375</AltitudeMeters>
            <DistanceMeters>285049.6701784</DistanceMeters>
          </Trackpoint>
          <Trackpoint>
            <Time>2018-09-14T13:47:15.000Z</Time>
            <Position>
              <LatitudeDegrees>37.808947004377841949462890625</LatitudeDegrees>
              <LongitudeDegrees>-8.10461916960775852203369140625</LongitudeDegrees>
            </Position>
            <AltitudeMeters>188.600006103515625</AltitudeMeters>
            <DistanceMeters>285056.79908226</DistanceMeters>
          </Trackpoint>
          <Trackpoint>
            <Time>2018-09-14T13:47:16.000Z</Time>
            <Position>
              <LatitudeDegrees>37.80888439156115055084228515625</LatitudeDegrees>
              <LongitudeDegrees>-8.1046078540384769439697265625</LongitudeDegrees>
            </Position>
            <AltitudeMeters>188.8000030517578125</AltitudeMeters>
            <DistanceMeters>285063.83940112</DistanceMeters>
          </Trackpoint>
          <Trackpoint>
            <Time>2018-09-14T13:47:17.000Z</Time>
            <Position>
              <LatitudeDegrees>37.80882261693477630615234375</LatitudeDegrees>
              <LongitudeDegrees>-8.1045964546501636505126953125</LongitudeDegrees>
            </Position>
            <AltitudeMeters>189</AltitudeMeters>
            <DistanceMeters>285070.78805701</DistanceMeters>
          </Trackpoint>
          <Trackpoint>
            <Time>2018-09-14T13:47:18.000Z</Time>
            <Position>
              <LatitudeDegrees>37.80876117758452892303466796875</LatitudeDegrees>
              <LongitudeDegrees>-8.10458430089056491851806640625</LongitudeDegrees>
            </Position>
            <AltitudeMeters>189</AltitudeMeters>
            <DistanceMeters>285077.71002101</DistanceMeters>
          </Trackpoint>
          <Trackpoint>
            <Time>2018-09-14T13:47:19.000Z</Time>
            <Position>
              <LatitudeDegrees>37.8087007440626621246337890625</LatitudeDegrees>
              <LongitudeDegrees>-8.104572482407093048095703125</LongitudeDegrees>
            </Position>
            <AltitudeMeters>189.1999969482421875</AltitudeMeters>
            <DistanceMeters>285084.51621614</DistanceMeters>
          </Trackpoint>
          <Trackpoint>
            <Time>2018-09-14T13:47:20.000Z</Time>
            <Position>
              <LatitudeDegrees>37.8086407296359539031982421875</LatitudeDegrees>
              <LongitudeDegrees>-8.10456150211393833160400390625</LongitudeDegrees>
            </Position>
            <AltitudeMeters>189.399993896484375</AltitudeMeters>
            <DistanceMeters>285091.26512017</DistanceMeters>
          </Trackpoint>
          <Trackpoint>
            <Time>2018-09-14T13:47:21.000Z</Time>
            <Position>
              <LatitudeDegrees>37.80858130194246768951416015625</LatitudeDegrees>
              <LongitudeDegrees>-8.1045511923730373382568359375</LongitudeDegrees>
            </Position>
            <AltitudeMeters>189.600006103515625</AltitudeMeters>
            <DistanceMeters>285097.9413809</DistanceMeters>
          </Trackpoint>
          <Trackpoint>
            <Time>2018-09-14T13:47:22.000Z</Time>
            <Position>
              <LatitudeDegrees>37.8085220418870449066162109375</LatitudeDegrees>
              <LongitudeDegrees>-8.10454105027019977569580078125</LongitudeDegrees>
            </Position>
            <AltitudeMeters>189.600006103515625</AltitudeMeters>
            <DistanceMeters>285104.59732223</DistanceMeters>
          </Trackpoint>
          <Trackpoint>
            <Time>2018-09-14T13:47:23.000Z</Time>
            <Position>
              <LatitudeDegrees>37.80846320092678070068359375</LatitudeDegrees>
              <LongitudeDegrees>-8.1045292317867279052734375</LongitudeDegrees>
            </Position>
            <AltitudeMeters>189.8000030517578125</AltitudeMeters>
            <DistanceMeters>285111.22879811</DistanceMeters>
          </Trackpoint>
          <Trackpoint>
            <Time>2018-09-14T13:47:24.000Z</Time>
            <Position>
              <LatitudeDegrees>37.80840494669973850250244140625</LatitudeDegrees>
              <LongitudeDegrees>-8.104517161846160888671875</LongitudeDegrees>
            </Position>
            <AltitudeMeters>190</AltitudeMeters>
            <DistanceMeters>285117.79939895</DistanceMeters>
          </Trackpoint>
          <Trackpoint>
            <Time>2018-09-14T13:47:25.000Z</Time>
            <Position>
              <LatitudeDegrees>37.80834711156785488128662109375</LatitudeDegrees>
              <LongitudeDegrees>-8.104506433010101318359375</LongitudeDegrees>
            </Position>
            <AltitudeMeters>190.1999969482421875</AltitudeMeters>
            <DistanceMeters>285124.30508633</DistanceMeters>
          </Trackpoint>
          <Trackpoint>
            <Time>2018-09-14T13:47:26.000Z</Time>
            <Position>
              <LatitudeDegrees>37.8082893602550029754638671875</LatitudeDegrees>
              <LongitudeDegrees>-8.10449662618339061737060546875</LongitudeDegrees>
            </Position>
            <AltitudeMeters>190.399993896484375</AltitudeMeters>
            <DistanceMeters>285130.78991987</DistanceMeters>
          </Trackpoint>
          <Trackpoint>
            <Time>2018-09-14T13:47:27.000Z</Time>
            <Position>
              <LatitudeDegrees>37.80823160894215106964111328125</LatitudeDegrees>
              <LongitudeDegrees>-8.104485981166362762451171875</LongitudeDegrees>
            </Position>
            <AltitudeMeters>190.8000030517578125</AltitudeMeters>
            <DistanceMeters>285137.28588379</DistanceMeters>
          </Trackpoint>
          <Trackpoint>
            <Time>2018-09-14T13:47:28.000Z</Time>
            <Position>
              <LatitudeDegrees>37.80817444436252117156982421875</LatitudeDegrees>
              <LongitudeDegrees>-8.10447516851127147674560546875</LongitudeDegrees>
            </Position>
            <AltitudeMeters>191</AltitudeMeters>
            <DistanceMeters>285143.71828694</DistanceMeters>
          </Trackpoint>
          <Trackpoint>
            <Time>2018-09-14T13:47:29.000Z</Time>
            <Position>
              <LatitudeDegrees>37.808118201792240142822265625</LatitudeDegrees>
              <LongitudeDegrees>-8.1044656969606876373291015625</LongitudeDegrees>
            </Position>
            <AltitudeMeters>191.1999969482421875</AltitudeMeters>
            <DistanceMeters>285150.03309632</DistanceMeters>
          </Trackpoint>
          <Trackpoint>
            <Time>2018-09-14T13:47:30.000Z</Time>
            <Position>
              <LatitudeDegrees>37.808062545955181121826171875</LatitudeDegrees>
              <LongitudeDegrees>-8.10445672832429409027099609375</LongitudeDegrees>
            </Position>
            <AltitudeMeters>191.399993896484375</AltitudeMeters>
            <DistanceMeters>285156.27744337</DistanceMeters>
          </Trackpoint>
          <Trackpoint>
            <Time>2018-09-14T13:47:31.000Z</Time>
            <Position>
              <LatitudeDegrees>37.808006890118122100830078125</LatitudeDegrees>
              <LongitudeDegrees>-8.10444784350693225860595703125</LongitudeDegrees>
            </Position>
            <AltitudeMeters>191.600006103515625</AltitudeMeters>
            <DistanceMeters>285162.52034414</DistanceMeters>
          </Trackpoint>
          <Trackpoint>
            <Time>2018-09-14T13:47:32.000Z</Time>
            <Position>
              <LatitudeDegrees>37.8079517371952533721923828125</LatitudeDegrees>
              <LongitudeDegrees>-8.10443862341344356536865234375</LongitudeDegrees>
            </Position>
            <AltitudeMeters>191.8000030517578125</AltitudeMeters>
            <DistanceMeters>285168.71241201</DistanceMeters>
          </Trackpoint>
          <Trackpoint>
            <Time>2018-09-14T13:47:33.000Z</Time>
            <Position>
              <LatitudeDegrees>37.807896919548511505126953125</LatitudeDegrees>
              <LongitudeDegrees>-8.10442873276770114898681640625</LongitudeDegrees>
            </Position>
            <AltitudeMeters>192</AltitudeMeters>
            <DistanceMeters>285174.87524428</DistanceMeters>
          </Trackpoint>
          <Trackpoint>
            <Time>2018-09-14T13:47:34.000Z</Time>
            <Position>
              <LatitudeDegrees>37.8078417666256427764892578125</LatitudeDegrees>
              <LongitudeDegrees>-8.104418925940990447998046875</LongitudeDegrees>
            </Position>
            <AltitudeMeters>192.1999969482421875</AltitudeMeters>
            <DistanceMeters>285181.07459951</DistanceMeters>
          </Trackpoint>
          <Trackpoint>
            <Time>2018-09-14T13:47:35.000Z</Time>
            <Position>
              <LatitudeDegrees>37.80778602696955204010009765625</LatitudeDegrees>
              <LongitudeDegrees>-8.10440861620008945465087890625</LongitudeDegrees>
            </Position>
            <AltitudeMeters>192.399993896484375</AltitudeMeters>
            <DistanceMeters>285187.3449227</DistanceMeters>
          </Trackpoint>
          <Trackpoint>
            <Time>2018-09-14T13:47:36.000Z</Time>
            <Position>
              <LatitudeDegrees>37.8077302873134613037109375</LatitudeDegrees>
              <LongitudeDegrees>-8.10439855791628360748291015625</LongitudeDegrees>
            </Position>
            <AltitudeMeters>192.600006103515625</AltitudeMeters>
            <DistanceMeters>285193.61164452</DistanceMeters>
          </Trackpoint>
          <Trackpoint>
            <Time>2018-09-14T13:47:37.000Z</Time>
            <Position>
              <LatitudeDegrees>37.80767454765737056732177734375</LatitudeDegrees>
              <LongitudeDegrees>-8.10438917018473148345947265625</LongitudeDegrees>
            </Position>
            <AltitudeMeters>192.8000030517578125</AltitudeMeters>
            <DistanceMeters>285199.87043607</DistanceMeters>
          </Trackpoint>
          <Trackpoint>
            <Time>2018-09-14T13:47:38.000Z</Time>
            <Position>
              <LatitudeDegrees>37.80761905945837497711181640625</LatitudeDegrees>
              <LongitudeDegrees>-8.1043781898915767669677734375</LongitudeDegrees>
            </Position>
            <AltitudeMeters>192.8000030517578125</AltitudeMeters>
            <DistanceMeters>285206.12056492</DistanceMeters>
          </Trackpoint>
          <Trackpoint>
            <Time>2018-09-14T13:47:39.000Z</Time>
            <Position>
              <LatitudeDegrees>37.80756390653550624847412109375</LatitudeDegrees>
              <LongitudeDegrees>-8.104366958141326904296875</LongitudeDegrees>
            </Position>
            <AltitudeMeters>193</AltitudeMeters>
            <DistanceMeters>285212.33737497</DistanceMeters>
          </Trackpoint>
          <Trackpoint>
            <Time>2018-09-14T13:47:40.000Z</Time>
            <Position>
              <LatitudeDegrees>37.8075085021555423736572265625</LatitudeDegrees>
              <LongitudeDegrees>-8.10435664840042591094970703125</LongitudeDegrees>
            </Position>
            <AltitudeMeters>193.399993896484375</AltitudeMeters>
            <DistanceMeters>285218.57014232</DistanceMeters>
          </Trackpoint>
          <Trackpoint>
            <Time>2018-09-14T13:47:41.000Z</Time>
            <Position>
              <LatitudeDegrees>37.80745326541364192962646484375</LatitudeDegrees>
              <LongitudeDegrees>-8.10434675775468349456787109375</LongitudeDegrees>
            </Position>
            <AltitudeMeters>193.600006103515625</AltitudeMeters>
            <DistanceMeters>285224.7796855</DistanceMeters>
          </Trackpoint>
          <Trackpoint>
            <Time>2018-09-14T13:47:42.000Z</Time>
            <Position>
              <LatitudeDegrees>37.80739777721464633941650390625</LatitudeDegrees>
              <LongitudeDegrees>-8.10433703474700450897216796875</LongitudeDegrees>
            </Position>
            <AltitudeMeters>193.600006103515625</AltitudeMeters>
            <DistanceMeters>285231.01462568</DistanceMeters>
          </Trackpoint>
          <Trackpoint>
            <Time>2018-09-14T13:47:43.000Z</Time>
            <Position>
              <LatitudeDegrees>37.8073425404727458953857421875</LatitudeDegrees>
              <LongitudeDegrees>-8.104326725006103515625</LongitudeDegrees>
            </Position>
            <AltitudeMeters>193.600006103515625</AltitudeMeters>
            <DistanceMeters>285237.22853</DistanceMeters>
          </Trackpoint>
          <Trackpoint>
            <Time>2018-09-14T13:47:44.000Z</Time>
            <Position>
              <LatitudeDegrees>37.8072882257401943206787109375</LatitudeDegrees>
              <LongitudeDegrees>-8.10431675054132938385009765625</LongitudeDegrees>
            </Position>
            <AltitudeMeters>193.600006103515625</AltitudeMeters>
            <DistanceMeters>285243.33690751</DistanceMeters>
          </Trackpoint>
          <Trackpoint>
            <Time>2018-09-14T13:47:45.000Z</Time>
            <Position>
              <LatitudeDegrees>37.80723533593118190765380859375</LatitudeDegrees>
              <LongitudeDegrees>-8.10430719517171382904052734375</LongitudeDegrees>
            </Position>
            <AltitudeMeters>193.600006103515625</AltitudeMeters>
            <DistanceMeters>285249.28348463</DistanceMeters>
          </Trackpoint>
          <Trackpoint>
            <Time>2018-09-14T13:47:46.000Z</Time>
            <Position>
              <LatitudeDegrees>37.8071836195886135101318359375</LatitudeDegrees>
              <LongitudeDegrees>-8.10429730452597141265869140625</LongitudeDegrees>
            </Position>
            <AltitudeMeters>193.600006103515625</AltitudeMeters>
            <DistanceMeters>285255.10421025</DistanceMeters>
          </Trackpoint>
          <Trackpoint>
            <Time>2018-09-14T13:47:47.000Z</Time>
            <Position>
              <LatitudeDegrees>37.80713207088410854339599609375</LatitudeDegrees>
              <LongitudeDegrees>-8.1042876653373241424560546875</LongitudeDegrees>
            </Position>
            <AltitudeMeters>193.600006103515625</AltitudeMeters>
            <DistanceMeters>285260.90317608</DistanceMeters>
          </Trackpoint>
          <Trackpoint>
            <Time>2018-09-14T13:47:48.000Z</Time>
            <Position>
              <LatitudeDegrees>37.80708052217960357666015625</LatitudeDegrees>
              <LongitudeDegrees>-8.1042779423296451568603515625</LongitudeDegrees>
            </Position>
            <AltitudeMeters>193.600006103515625</AltitudeMeters>
            <DistanceMeters>285266.70369889</DistanceMeters>
          </Trackpoint>
          <Trackpoint>
            <Time>2018-09-14T13:47:49.000Z</Time>
            <Position>
              <LatitudeDegrees>37.80702897347509860992431640625</LatitudeDegrees>
              <LongitudeDegrees>-8.10426847077906131744384765625</LongitudeDegrees>
            </Position>
            <AltitudeMeters>193.600006103515625</AltitudeMeters>
            <DistanceMeters>285272.50110732</DistanceMeters>
          </Trackpoint>
          <Trackpoint>
            <Time>2018-09-14T13:47:50.000Z</Time>
            <Position>
              <LatitudeDegrees>37.806976921856403350830078125</LatitudeDegrees>
              <LongitudeDegrees>-8.104259334504604339599609375</LongitudeDegrees>
            </Position>
            <AltitudeMeters>193.600006103515625</AltitudeMeters>
            <DistanceMeters>285278.35046281</DistanceMeters>
          </Trackpoint>
          <Trackpoint>
            <Time>2018-09-14T13:47:51.000Z</Time>
            <Position>
              <LatitudeDegrees>37.80692503787577152252197265625</LatitudeDegrees>
              <LongitudeDegrees>-8.1042504496872425079345703125</LongitudeDegrees>
            </Position>
            <AltitudeMeters>193.8000030517578125</AltitudeMeters>
            <DistanceMeters>285284.1773906</DistanceMeters>
          </Trackpoint>
          <Trackpoint>
            <Time>2018-09-14T13:47:52.000Z</Time>
            <Position>
              <LatitudeDegrees>37.80687307007610797882080078125</LatitudeDegrees>
              <LongitudeDegrees>-8.1042403914034366607666015625</LongitudeDegrees>
            </Position>
            <AltitudeMeters>193.8000030517578125</AltitudeMeters>
            <DistanceMeters>285290.02906129</DistanceMeters>
          </Trackpoint>
          <Trackpoint>
            <Time>2018-09-14T13:47:53.000Z</Time>
            <Position>
              <LatitudeDegrees>37.806821353733539581298828125</LatitudeDegrees>
              <LongitudeDegrees>-8.1042303331196308135986328125</LongitudeDegrees>
            </Position>
            <AltitudeMeters>193.8000030517578125</AltitudeMeters>
            <DistanceMeters>285295.85288882</DistanceMeters>
          </Trackpoint>
          <Trackpoint>
            <Time>2018-09-14T13:47:54.000Z</Time>
            <Position>
              <LatitudeDegrees>37.80676913447678089141845703125</LatitudeDegrees>
              <LongitudeDegrees>-8.10422035865485668182373046875</LongitudeDegrees>
            </Position>
            <AltitudeMeters>193.8000030517578125</AltitudeMeters>
            <DistanceMeters>285301.73073472</DistanceMeters>
          </Trackpoint>
          <Trackpoint>
            <Time>2018-09-14T13:47:55.000Z</Time>
            <Position>
              <LatitudeDegrees>37.8067172504961490631103515625</LatitudeDegrees>
              <LongitudeDegrees>-8.10420996509492397308349609375</LongitudeDegrees>
            </Position>
            <AltitudeMeters>194</AltitudeMeters>
            <DistanceMeters>285307.57777409</DistanceMeters>
          </Trackpoint>
          <Trackpoint>
            <Time>2018-09-14T13:47:56.000Z</Time>
            <Position>
              <LatitudeDegrees>37.80666553415358066558837890625</LatitudeDegrees>
              <LongitudeDegrees>-8.104199655354022979736328125</LongitudeDegrees>
            </Position>
            <AltitudeMeters>194.1999969482421875</AltitudeMeters>
            <DistanceMeters>285313.40470188</DistanceMeters>
          </Trackpoint>
          <Trackpoint>
            <Time>2018-09-14T13:47:57.000Z</Time>
            <Position>
              <LatitudeDegrees>37.80661381781101226806640625</LatitudeDegrees>
              <LongitudeDegrees>-8.1041904352605342864990234375</LongitudeDegrees>
            </Position>
            <AltitudeMeters>194.600006103515625</AltitudeMeters>
            <DistanceMeters>285319.2176655</DistanceMeters>
          </Trackpoint>
          <Trackpoint>
            <Time>2018-09-14T13:47:58.000Z</Time>
            <Position>
              <LatitudeDegrees>37.8065620176494121551513671875</LatitudeDegrees>
              <LongitudeDegrees>-8.1041817180812358856201171875</LongitudeDegrees>
            </Position>
            <AltitudeMeters>195</AltitudeMeters>
            <DistanceMeters>285325.03373517</DistanceMeters>
          </Trackpoint>
          <Trackpoint>
            <Time>2018-09-14T13:47:59.000Z</Time>
            <Position>
              <LatitudeDegrees>37.806510888040065765380859375</LatitudeDegrees>
              <LongitudeDegrees>-8.10417325235903263092041015625</LongitudeDegrees>
            </Position>
            <AltitudeMeters>195.399993896484375</AltitudeMeters>
            <DistanceMeters>285330.77322285</DistanceMeters>
          </Trackpoint>
          <Trackpoint>
            <Time>2018-09-14T13:48:00.000Z</Time>
            <Position>
              <LatitudeDegrees>37.8064604289829730987548828125</LatitudeDegrees>
              <LongitudeDegrees>-8.10416436754167079925537109375</LongitudeDegrees>
            </Position>
            <AltitudeMeters>195.8000030517578125</AltitudeMeters>
            <DistanceMeters>285336.44306166</DistanceMeters>
          </Trackpoint>
          <Trackpoint>
            <Time>2018-09-14T13:48:01.000Z</Time>
            <Position>
              <LatitudeDegrees>37.8064094670116901397705078125</LatitudeDegrees>
              <LongitudeDegrees>-8.10415565036237239837646484375</LongitudeDegrees>
            </Position>
            <AltitudeMeters>196</AltitudeMeters>
            <DistanceMeters>285342.16679448</DistanceMeters>
          </Trackpoint>
          <Trackpoint>
            <Time>2018-09-14T13:48:02.000Z</Time>
            <Position>
              <LatitudeDegrees>37.8063581697642803192138671875</LatitudeDegrees>
              <LongitudeDegrees>-8.10414760373532772064208984375</LongitudeDegrees>
            </Position>
            <AltitudeMeters>196.399993896484375</AltitudeMeters>
            <DistanceMeters>285347.92042466</DistanceMeters>
          </Trackpoint>
          <Trackpoint>
            <Time>2018-09-14T13:48:03.000Z</Time>
            <Position>
              <LatitudeDegrees>37.80630745925009250640869140625</LatitudeDegrees>
              <LongitudeDegrees>-8.10413905419409275054931640625</LongitudeDegrees>
            </Position>
            <AltitudeMeters>196.8000030517578125</AltitudeMeters>
            <DistanceMeters>285353.61410312</DistanceMeters>
          </Trackpoint>
          <Trackpoint>
            <Time>2018-09-14T13:48:04.000Z</Time>
            <Position>
              <LatitudeDegrees>37.80625700019299983978271484375</LatitudeDegrees>
              <LongitudeDegrees>-8.10412983410060405731201171875</LongitudeDegrees>
            </Position>
            <AltitudeMeters>197.1999969482421875</AltitudeMeters>
            <DistanceMeters>285359.28871787</DistanceMeters>
          </Trackpoint>
          <Trackpoint>
            <Time>2018-09-14T13:48:05.000Z</Time>
            <Position>
              <LatitudeDegrees>37.806206457316875457763671875</LatitudeDegrees>
              <LongitudeDegrees>-8.10412027873098850250244140625</LongitudeDegrees>
            </Position>
            <AltitudeMeters>197.600006103515625</AltitudeMeters>
            <DistanceMeters>285364.97684269</DistanceMeters>
          </Trackpoint>
          <Trackpoint>
            <Time>2018-09-14T13:48:06.000Z</Time>
            <Position>
              <LatitudeDegrees>37.80615557916462421417236328125</LatitudeDegrees>
              <LongitudeDegrees>-8.10411038808524608612060546875</LongitudeDegrees>
            </Position>
            <AltitudeMeters>197.8000030517578125</AltitudeMeters>
            <DistanceMeters>285370.70688265</DistanceMeters>
          </Trackpoint>
          <Trackpoint>
            <Time>2018-09-14T13:48:07.000Z</Time>
            <Position>
              <LatitudeDegrees>37.80610528774559497833251953125</LatitudeDegrees>
              <LongitudeDegrees>-8.10410083271563053131103515625</LongitudeDegrees>
            </Position>
            <AltitudeMeters>198.1999969482421875</AltitudeMeters>
            <DistanceMeters>285376.36715748</DistanceMeters>
          </Trackpoint>
          <Trackpoint>
            <Time>2018-09-14T13:48:08.000Z</Time>
            <Position>
              <LatitudeDegrees>37.80605549924075603485107421875</LatitudeDegrees>
              <LongitudeDegrees>-8.104091696441173553466796875</LongitudeDegrees>
            </Position>
            <AltitudeMeters>198.600006103515625</AltitudeMeters>
            <DistanceMeters>285381.96648114</DistanceMeters>
          </Trackpoint>
          <Trackpoint>
            <Time>2018-09-14T13:48:09.000Z</Time>
            <Position>
              <LatitudeDegrees>37.8060054592788219451904296875</LatitudeDegrees>
              <LongitudeDegrees>-8.10408272780478000640869140625</LongitudeDegrees>
            </Position>
            <AltitudeMeters>198.600006103515625</AltitudeMeters>
            <DistanceMeters>285387.59154895</DistanceMeters>
          </Trackpoint>
          <Trackpoint>
            <Time>2018-09-14T13:48:10.000Z</Time>
            <Position>
              <LatitudeDegrees>37.8059548325836658477783203125</LatitudeDegrees>
              <LongitudeDegrees>-8.1040740944445133209228515625</LongitudeDegrees>
            </Position>
            <AltitudeMeters>198.600006103515625</AltitudeMeters>
            <DistanceMeters>285393.27729197</DistanceMeters>
          </Trackpoint>
          <Trackpoint>
            <Time>2018-09-14T13:48:11.000Z</Time>
            <Position>
              <LatitudeDegrees>37.80590361915528774261474609375</LatitudeDegrees>
              <LongitudeDegrees>-8.10406562872231006622314453125</LongitudeDegrees>
            </Position>
            <AltitudeMeters>198.8000030517578125</AltitudeMeters>
            <DistanceMeters>285399.02464089</DistanceMeters>
          </Trackpoint>
          <Trackpoint>
            <Time>2018-09-14T13:48:12.000Z</Time>
            <Position>
              <LatitudeDegrees>37.8058522380888462066650390625</LatitudeDegrees>
              <LongitudeDegrees>-8.10405649244785308837890625</LongitudeDegrees>
            </Position>
            <AltitudeMeters>198.8000030517578125</AltitudeMeters>
            <DistanceMeters>285404.80020167</DistanceMeters>
          </Trackpoint>
          <Trackpoint>
            <Time>2018-09-14T13:48:13.000Z</Time>
            <Position>
              <LatitudeDegrees>37.8058009408414363861083984375</LatitudeDegrees>
              <LongitudeDegrees>-8.1040459312498569488525390625</LongitudeDegrees>
            </Position>
            <AltitudeMeters>198.600006103515625</AltitudeMeters>
            <DistanceMeters>285410.58513584</DistanceMeters>
          </Trackpoint>
          <Trackpoint>
            <Time>2018-09-14T13:48:14.000Z</Time>
            <Position>
              <LatitudeDegrees>37.805749811232089996337890625</LatitudeDegrees>
              <LongitudeDegrees>-8.104034699499607086181640625</LongitudeDegrees>
            </Position>
            <AltitudeMeters>198.600006103515625</AltitudeMeters>
            <DistanceMeters>285416.36069663</DistanceMeters>
          </Trackpoint>
          <Trackpoint>
            <Time>2018-09-14T13:48:15.000Z</Time>
            <Position>
              <LatitudeDegrees>37.80569792725145816802978515625</LatitudeDegrees>
              <LongitudeDegrees>-8.10402422212064266204833984375</LongitudeDegrees>
            </Position>
            <AltitudeMeters>198.600006103515625</AltitudeMeters>
            <DistanceMeters>285422.20928018</DistanceMeters>
          </Trackpoint>
          <Trackpoint>
            <Time>2018-09-14T13:48:16.000Z</Time>
            <Position>
              <LatitudeDegrees>37.80564629472792148590087890625</LatitudeDegrees>
              <LongitudeDegrees>-8.10401399619877338409423828125</LongitudeDegrees>
            </Position>
            <AltitudeMeters>198.399993896484375</AltitudeMeters>
            <DistanceMeters>285428.02534984</DistanceMeters>
          </Trackpoint>
          <Trackpoint>
            <Time>2018-09-14T13:48:17.000Z</Time>
            <Position>
              <LatitudeDegrees>37.8055940754711627960205078125</LatitudeDegrees>
              <LongitudeDegrees>-8.10400418937206268310546875</LongitudeDegrees>
            </Position>
            <AltitudeMeters>198.399993896484375</AltitudeMeters>
            <DistanceMeters>285433.90165926</DistanceMeters>
          </Trackpoint>
          <Trackpoint>
            <Time>2018-09-14T13:48:18.000Z</Time>
            <Position>
              <LatitudeDegrees>37.8055404312908649444580078125</LatitudeDegrees>
              <LongitudeDegrees>-8.10399320907890796661376953125</LongitudeDegrees>
            </Position>
            <AltitudeMeters>198.399993896484375</AltitudeMeters>
            <DistanceMeters>285439.95061535</DistanceMeters>
          </Trackpoint>
          <Trackpoint>
            <Time>2018-09-14T13:48:19.000Z</Time>
            <Position>
              <LatitudeDegrees>37.805484943091869354248046875</LatitudeDegrees>
              <LongitudeDegrees>-8.1039818935096263885498046875</LongitudeDegrees>
            </Position>
            <AltitudeMeters>198.1999969482421875</AltitudeMeters>
            <DistanceMeters>285446.20652066</DistanceMeters>
          </Trackpoint>
          <Trackpoint>
            <Time>2018-09-14T13:48:20.000Z</Time>
            <Position>
              <LatitudeDegrees>37.80542769469320774078369140625</LatitudeDegrees>
              <LongitudeDegrees>-8.103969655930995941162109375</LongitudeDegrees>
            </Position>
            <AltitudeMeters>198.1999969482421875</AltitudeMeters>
            <DistanceMeters>285452.66903593</DistanceMeters>
          </Trackpoint>
          <Trackpoint>
            <Time>2018-09-14T13:48:21.000Z</Time>
            <Position>
              <LatitudeDegrees>37.80536902137100696563720703125</LatitudeDegrees>
              <LongitudeDegrees>-8.10395817272365093231201171875</LongitudeDegrees>
            </Position>
            <AltitudeMeters>198.1999969482421875</AltitudeMeters>
            <DistanceMeters>285459.27732237</DistanceMeters>
          </Trackpoint>
          <Trackpoint>
            <Time>2018-09-14T13:48:22.000Z</Time>
            <Position>
              <LatitudeDegrees>37.80530934222042560577392578125</LatitudeDegrees>
              <LongitudeDegrees>-8.10394744388759136199951171875</LongitudeDegrees>
            </Position>
            <AltitudeMeters>198.1999969482421875</AltitudeMeters>
            <DistanceMeters>285465.98731202</DistanceMeters>
          </Trackpoint>
          <Trackpoint>
            <Time>2018-09-14T13:48:23.000Z</Time>
            <Position>
              <LatitudeDegrees>37.80524832196533679962158203125</LatitudeDegrees>
              <LongitudeDegrees>-8.1039376370608806610107421875</LongitudeDegrees>
            </Position>
            <AltitudeMeters>198.1999969482421875</AltitudeMeters>
            <DistanceMeters>285472.83385325</DistanceMeters>
          </Trackpoint>
          <Trackpoint>
            <Time>2018-09-14T13:48:24.000Z</Time>
            <Position>
              <LatitudeDegrees>37.8051867149770259857177734375</LatitudeDegrees>
              <LongitudeDegrees>-8.103927075862884521484375</LongitudeDegrees>
            </Position>
            <AltitudeMeters>198.1999969482421875</AltitudeMeters>
            <DistanceMeters>285479.75386014</DistanceMeters>
          </Trackpoint>
          <Trackpoint>
            <Time>2018-09-14T13:48:25.000Z</Time>
            <Position>
              <LatitudeDegrees>37.8051250241696834564208984375</LatitudeDegrees>
              <LongitudeDegrees>-8.10391475446522235870361328125</LongitudeDegrees>
            </Position>
            <AltitudeMeters>198.1999969482421875</AltitudeMeters>
            <DistanceMeters>285486.70446508</DistanceMeters>
          </Trackpoint>
          <Trackpoint>
            <Time>2018-09-14T13:48:26.000Z</Time>
            <Position>
              <LatitudeDegrees>37.80506324954330921173095703125</LatitudeDegrees>
              <LongitudeDegrees>-8.1039015948772430419921875</LongitudeDegrees>
            </Position>
            <AltitudeMeters>198.1999969482421875</AltitudeMeters>
            <DistanceMeters>285493.67712107</DistanceMeters>
          </Trackpoint>
          <Trackpoint>
            <Time>2018-09-14T13:48:27.000Z</Time>
            <Position>
              <LatitudeDegrees>37.8050013072788715362548828125</LatitudeDegrees>
              <LongitudeDegrees>-8.10388826765120029449462890625</LongitudeDegrees>
            </Position>
            <AltitudeMeters>198.1999969482421875</AltitudeMeters>
            <DistanceMeters>285500.67046748</DistanceMeters>
          </Trackpoint>
          <Trackpoint>
            <Time>2018-09-14T13:48:28.000Z</Time>
            <Position>
              <LatitudeDegrees>37.80493886210024356842041015625</LatitudeDegrees>
              <LongitudeDegrees>-8.1038752757012844085693359375</LongitudeDegrees>
            </Position>
            <AltitudeMeters>198.1999969482421875</AltitudeMeters>
            <DistanceMeters>285507.71399216</DistanceMeters>
          </Trackpoint>
          <Trackpoint>
            <Time>2018-09-14T13:48:29.000Z</Time>
            <Position>
              <LatitudeDegrees>37.80487599782645702362060546875</LatitudeDegrees>
              <LongitudeDegrees>-8.10386362485587596893310546875</LongitudeDegrees>
            </Position>
            <AltitudeMeters>198</AltitudeMeters>
            <DistanceMeters>285514.78502697</DistanceMeters>
          </Trackpoint>
          <Trackpoint>
            <Time>2018-09-14T13:48:30.000Z</Time>
            <Position>
              <LatitudeDegrees>37.8048120439052581787109375</LatitudeDegrees>
              <LongitudeDegrees>-8.103852309286594390869140625</LongitudeDegrees>
            </Position>
            <AltitudeMeters>198</AltitudeMeters>
            <DistanceMeters>285521.97259035</DistanceMeters>
          </Trackpoint>
          <Trackpoint>
            <Time>2018-09-14T13:48:31.000Z</Time>
            <Position>
              <LatitudeDegrees>37.804747335612773895263671875</LatitudeDegrees>
              <LongitudeDegrees>-8.10384082607924938201904296875</LongitudeDegrees>
            </Position>
            <AltitudeMeters>198</AltitudeMeters>
            <DistanceMeters>285529.24570439</DistanceMeters>
          </Trackpoint>
          <Trackpoint>
            <Time>2018-09-14T13:48:32.000Z</Time>
            <Position>
              <LatitudeDegrees>37.8046817891299724578857421875</LatitudeDegrees>
              <LongitudeDegrees>-8.1038290075957775115966796875</LongitudeDegrees>
            </Position>
            <AltitudeMeters>197.8000030517578125</AltitudeMeters>
            <DistanceMeters>285536.61624982</DistanceMeters>
          </Trackpoint>
          <Trackpoint>
            <Time>2018-09-14T13:48:33.000Z</Time>
            <Position>
              <LatitudeDegrees>37.8046164102852344512939453125</LatitudeDegrees>
              <LongitudeDegrees>-8.10381710529327392578125</LongitudeDegrees>
            </Position>
            <AltitudeMeters>198</AltitudeMeters>
            <DistanceMeters>285543.96839492</DistanceMeters>
          </Trackpoint>
          <Trackpoint>
            <Time>2018-09-14T13:48:34.000Z</Time>
            <Position>
              <LatitudeDegrees>37.80455128289759159088134765625</LatitudeDegrees>
              <LongitudeDegrees>-8.103804700076580047607421875</LongitudeDegrees>
            </Position>
            <AltitudeMeters>198</AltitudeMeters>
            <DistanceMeters>285551.2990146</DistanceMeters>
          </Trackpoint>
          <Trackpoint>
            <Time>2018-09-14T13:48:35.000Z</Time>
            <Position>
              <LatitudeDegrees>37.8044869937002658843994140625</LatitudeDegrees>
              <LongitudeDegrees>-8.10379355214536190032958984375</LongitudeDegrees>
            </Position>
            <AltitudeMeters>198</AltitudeMeters>
            <DistanceMeters>285558.52104489</DistanceMeters>
          </Trackpoint>
          <Trackpoint>
            <Time>2018-09-14T13:48:36.000Z</Time>
            <Position>
              <LatitudeDegrees>37.80442379415035247802734375</LatitudeDegrees>
              <LongitudeDegrees>-8.10378282330930233001708984375</LongitudeDegrees>
            </Position>
            <AltitudeMeters>198</AltitudeMeters>
            <DistanceMeters>285565.61821098</DistanceMeters>
          </Trackpoint>
          <Trackpoint>
            <Time>2018-09-14T13:48:37.000Z</Time>
            <Position>
              <LatitudeDegrees>37.80436168424785137176513671875</LatitudeDegrees>
              <LongitudeDegrees>-8.10377125628292560577392578125</LongitudeDegrees>
            </Position>
            <AltitudeMeters>198</AltitudeMeters>
            <DistanceMeters>285572.60509821</DistanceMeters>
          </Trackpoint>
          <Trackpoint>
            <Time>2018-09-14T13:48:38.000Z</Time>
            <Position>
              <LatitudeDegrees>37.80430116690695285797119140625</LatitudeDegrees>
              <LongitudeDegrees>-8.10375952161848545074462890625</LongitudeDegrees>
            </Position>
            <AltitudeMeters>198</AltitudeMeters>
            <DistanceMeters>285579.41924916</DistanceMeters>
          </Trackpoint>
          <Trackpoint>
            <Time>2018-09-14T13:48:39.000Z</Time>
            <Position>
              <LatitudeDegrees>37.804242074489593505859375</LatitudeDegrees>
              <LongitudeDegrees>-8.103747703135013580322265625</LongitudeDegrees>
            </Position>
            <AltitudeMeters>198.1999969482421875</AltitudeMeters>
            <DistanceMeters>285586.07790332</DistanceMeters>
          </Trackpoint>
          <Trackpoint>
            <Time>2018-09-14T13:48:40.000Z</Time>
            <Position>
              <LatitudeDegrees>37.8041844069957733154296875</LatitudeDegrees>
              <LongitudeDegrees>-8.103735633194446563720703125</LongitudeDegrees>
            </Position>
            <AltitudeMeters>198.1999969482421875</AltitudeMeters>
            <DistanceMeters>285592.58428468</DistanceMeters>
          </Trackpoint>
          <Trackpoint>
            <Time>2018-09-14T13:48:41.000Z</Time>
            <Position>
              <LatitudeDegrees>37.8041289187967777252197265625</LatitudeDegrees>
              <LongitudeDegrees>-8.1037244014441967010498046875</LongitudeDegrees>
            </Position>
            <AltitudeMeters>198.399993896484375</AltitudeMeters>
            <DistanceMeters>285598.83874638</DistanceMeters>
          </Trackpoint>
          <Trackpoint>
            <Time>2018-09-14T13:48:42.000Z</Time>
            <Position>
              <LatitudeDegrees>37.80407586134970188140869140625</LatitudeDegrees>
              <LongitudeDegrees>-8.10371308587491512298583984375</LongitudeDegrees>
            </Position>
            <AltitudeMeters>198.600006103515625</AltitudeMeters>
            <DistanceMeters>285604.8276915</DistanceMeters>
          </Trackpoint>
          <Trackpoint>
            <Time>2018-09-14T13:48:43.000Z</Time>
            <Position>
              <LatitudeDegrees>37.80402389355003833770751953125</LatitudeDegrees>
              <LongitudeDegrees>-8.10370302759110927581787109375</LongitudeDegrees>
            </Position>
            <AltitudeMeters>198.600006103515625</AltitudeMeters>
            <DistanceMeters>285610.67936219</DistanceMeters>
          </Trackpoint>
          <Trackpoint>
            <Time>2018-09-14T13:48:44.000Z</Time>
            <Position>
              <LatitudeDegrees>37.80397125519812107086181640625</LatitudeDegrees>
              <LongitudeDegrees>-8.1036948971450328826904296875</LongitudeDegrees>
            </Position>
            <AltitudeMeters>198.8000030517578125</AltitudeMeters>
            <DistanceMeters>285616.58173755</DistanceMeters>
          </Trackpoint>
          <Trackpoint>
            <Time>2018-09-14T13:48:45.000Z</Time>
            <Position>
              <LatitudeDegrees>37.803920544683933258056640625</LatitudeDegrees>
              <LongitudeDegrees>-8.1036870181560516357421875</LongitudeDegrees>
            </Position>
            <AltitudeMeters>199</AltitudeMeters>
            <DistanceMeters>285622.26906855</DistanceMeters>
          </Trackpoint>
          <Trackpoint>
            <Time>2018-09-14T13:48:46.000Z</Time>
            <Position>
              <LatitudeDegrees>37.8038705885410308837890625</LatitudeDegrees>
              <LongitudeDegrees>-8.10367855243384838104248046875</LongitudeDegrees>
            </Position>
            <AltitudeMeters>199.1999969482421875</AltitudeMeters>
            <DistanceMeters>285627.87806011</DistanceMeters>
          </Trackpoint>
          <Trackpoint>
            <Time>2018-09-14T13:48:47.000Z</Time>
            <Position>
              <LatitudeDegrees>37.8038223087787628173828125</LatitudeDegrees>
              <LongitudeDegrees>-8.1036694161593914031982421875</LongitudeDegrees>
            </Position>
            <AltitudeMeters>199.399993896484375</AltitudeMeters>
            <DistanceMeters>285633.31205955</DistanceMeters>
          </Trackpoint>
          <Trackpoint>
            <Time>2018-09-14T13:48:48.000Z</Time>
            <Position>
              <LatitudeDegrees>37.80377469956874847412109375</LatitudeDegrees>
              <LongitudeDegrees>-8.10366145335137844085693359375</LongitudeDegrees>
            </Position>
            <AltitudeMeters>199.600006103515625</AltitudeMeters>
            <DistanceMeters>285638.65725944</DistanceMeters>
          </Trackpoint>
          <Trackpoint>
            <Time>2018-09-14T13:48:49.000Z</Time>
            <Position>
              <LatitudeDegrees>37.80372784473001956939697265625</LatitudeDegrees>
              <LongitudeDegrees>-8.103653825819492340087890625</LongitudeDegrees>
            </Position>
            <AltitudeMeters>199.8000030517578125</AltitudeMeters>
            <DistanceMeters>285643.91559512</DistanceMeters>
          </Trackpoint>
          <Trackpoint>
            <Time>2018-09-14T13:48:50.000Z</Time>
            <Position>
              <LatitudeDegrees>37.80368157662451267242431640625</LatitudeDegrees>
              <LongitudeDegrees>-8.10364502482116222381591796875</LongitudeDegrees>
            </Position>
            <AltitudeMeters>200</AltitudeMeters>
            <DistanceMeters>285649.12302438</DistanceMeters>
          </Trackpoint>
          <Trackpoint>
            <Time>2018-09-14T13:48:51.000Z</Time>
            <Position>
              <LatitudeDegrees>37.8036353923380374908447265625</LatitudeDegrees>
              <LongitudeDegrees>-8.10363513417541980743408203125</LongitudeDegrees>
            </Position>
            <AltitudeMeters>200.1999969482421875</AltitudeMeters>
            <DistanceMeters>285654.33738534</DistanceMeters>
          </Trackpoint>
          <Trackpoint>
            <Time>2018-09-14T13:48:52.000Z</Time>
            <Position>
              <LatitudeDegrees>37.8035894595086574554443359375</LatitudeDegrees>
              <LongitudeDegrees>-8.10362524352967739105224609375</LongitudeDegrees>
            </Position>
            <AltitudeMeters>200.399993896484375</AltitudeMeters>
            <DistanceMeters>285659.52309336</DistanceMeters>
          </Trackpoint>
          <Trackpoint>
            <Time>2018-09-14T13:48:53.000Z</Time>
            <Position>
              <LatitudeDegrees>37.803544364869594573974609375</LatitudeDegrees>
              <LongitudeDegrees>-8.10361686162650585174560546875</LongitudeDegrees>
            </Position>
            <AltitudeMeters>200.600006103515625</AltitudeMeters>
            <DistanceMeters>285664.59613168</DistanceMeters>
          </Trackpoint>
          <Trackpoint>
            <Time>2018-09-14T13:48:54.000Z</Time>
            <Position>
              <LatitudeDegrees>37.80349977314472198486328125</LatitudeDegrees>
              <LongitudeDegrees>-8.1036092340946197509765625</LongitudeDegrees>
            </Position>
            <AltitudeMeters>200.8000030517578125</AltitudeMeters>
            <DistanceMeters>285669.60467961</DistanceMeters>
          </Trackpoint>
          <Trackpoint>
            <Time>2018-09-14T13:48:55.000Z</Time>
            <Position>
              <LatitudeDegrees>37.80345560051500797271728515625</LatitudeDegrees>
              <LongitudeDegrees>-8.10360185801982879638671875</LongitudeDegrees>
            </Position>
            <AltitudeMeters>201</AltitudeMeters>
            <DistanceMeters>285674.56430946</DistanceMeters>
          </Trackpoint>
          <Trackpoint>
            <Time>2018-09-14T13:48:56.000Z</Time>
            <Position>
              <LatitudeDegrees>37.80341184698045253753662109375</LatitudeDegrees>
              <LongitudeDegrees>-8.1035943143069744110107421875</LongitudeDegrees>
            </Position>
            <AltitudeMeters>201.1999969482421875</AltitudeMeters>
            <DistanceMeters>285679.4782106</DistanceMeters>
          </Trackpoint>
          <Trackpoint>
            <Time>2018-09-14T13:48:57.000Z</Time>
            <Position>
              <LatitudeDegrees>37.8033685125410556793212890625</LatitudeDegrees>
              <LongitudeDegrees>-8.10358651913702487945556640625</LongitudeDegrees>
            </Position>
            <AltitudeMeters>201.399993896484375</AltitudeMeters>
            <DistanceMeters>285684.34966222</DistanceMeters>
          </Trackpoint>
          <Trackpoint>
            <Time>2018-09-14T13:48:58.000Z</Time>
            <Position>
              <LatitudeDegrees>37.8033255971968173980712890625</LatitudeDegrees>
              <LongitudeDegrees>-8.10357864014804363250732421875</LongitudeDegrees>
            </Position>
            <AltitudeMeters>201.1999969482421875</AltitudeMeters>
            <DistanceMeters>285689.17642068</DistanceMeters>
          </Trackpoint>
          <Trackpoint>
            <Time>2018-09-14T13:48:59.000Z</Time>
            <Position>
              <LatitudeDegrees>37.8032826818525791168212890625</LatitudeDegrees>
              <LongitudeDegrees>-8.10357042588293552398681640625</LongitudeDegrees>
            </Position>
            <AltitudeMeters>201.1999969482421875</AltitudeMeters>
            <DistanceMeters>285694.00878839</DistanceMeters>
          </Trackpoint>
          <Trackpoint>
            <Time>2018-09-14T13:49:00.000Z</Time>
            <Position>
              <LatitudeDegrees>37.80324052087962627410888671875</LatitudeDegrees>
              <LongitudeDegrees>-8.10356254689395427703857421875</LongitudeDegrees>
            </Position>
            <AltitudeMeters>201.1999969482421875</AltitudeMeters>
            <DistanceMeters>285698.75251588</DistanceMeters>
          </Trackpoint>
          <Trackpoint>
            <Time>2018-09-14T13:49:01.000Z</Time>
            <Position>
              <LatitudeDegrees>37.803198359906673431396484375</LatitudeDegrees>
              <LongitudeDegrees>-8.10355450026690959930419921875</LongitudeDegrees>
            </Position>
            <AltitudeMeters>201.600006103515625</AltitudeMeters>
            <DistanceMeters>285703.49814657</DistanceMeters>
          </Trackpoint>
          <Trackpoint>
            <Time>2018-09-14T13:49:02.000Z</Time>
            <Position>
              <LatitudeDegrees>37.80315619893372058868408203125</LatitudeDegrees>
              <LongitudeDegrees>-8.1035460345447063446044921875</LongitudeDegrees>
            </Position>
            <AltitudeMeters>202.1999969482421875</AltitudeMeters>
            <DistanceMeters>285708.24758138</DistanceMeters>
          </Trackpoint>
          <Trackpoint>
            <Time>2018-09-14T13:49:03.000Z</Time>
            <Position>
              <LatitudeDegrees>37.80311378650367259979248046875</LatitudeDegrees>
              <LongitudeDegrees>-8.1035368144512176513671875</LongitudeDegrees>
            </Position>
            <AltitudeMeters>202.600006103515625</AltitudeMeters>
            <DistanceMeters>285713.03866208</DistanceMeters>
          </Trackpoint>
          <Trackpoint>
            <Time>2018-09-14T13:49:04.000Z</Time>
            <Position>
              <LatitudeDegrees>37.80307170934975147247314453125</LatitudeDegrees>
              <LongitudeDegrees>-8.10352734290063381195068359375</LongitudeDegrees>
            </Position>
            <AltitudeMeters>203</AltitudeMeters>
            <DistanceMeters>285717.79569599</DistanceMeters>
          </Trackpoint>
          <Trackpoint>
            <Time>2018-09-14T13:49:05.000Z</Time>
            <Position>
              <LatitudeDegrees>37.80302996747195720672607421875</LatitudeDegrees>
              <LongitudeDegrees>-8.103519380092620849609375</LongitudeDegrees>
            </Position>
            <AltitudeMeters>203.399993896484375</AltitudeMeters>
            <DistanceMeters>285722.49351536</DistanceMeters>
          </Trackpoint>
          <Trackpoint>
            <Time>2018-09-14T13:49:06.000Z</Time>
            <Position>
              <LatitudeDegrees>37.80298747122287750244140625</LatitudeDegrees>
              <LongitudeDegrees>-8.1035121716558933258056640625</LongitudeDegrees>
            </Position>
            <AltitudeMeters>203.8000030517578125</AltitudeMeters>
            <DistanceMeters>285727.26571116</DistanceMeters>
          </Trackpoint>
          <Trackpoint>
            <Time>2018-09-14T13:49:07.000Z</Time>
            <Position>
              <LatitudeDegrees>37.8029450587928295135498046875</LatitudeDegrees>
              <LongitudeDegrees>-8.1035051308572292327880859375</LongitudeDegrees>
            </Position>
            <AltitudeMeters>204.1999969482421875</AltitudeMeters>
            <DistanceMeters>285732.0255916</DistanceMeters>
          </Trackpoint>
          <Trackpoint>
            <Time>2018-09-14T13:49:08.000Z</Time>
            <Position>
              <LatitudeDegrees>37.80290189199149608612060546875</LatitudeDegrees>
              <LongitudeDegrees>-8.10349783860146999359130859375</LongitudeDegrees>
            </Position>
            <AltitudeMeters>204.600006103515625</AltitudeMeters>
            <DistanceMeters>285736.87288558</DistanceMeters>
          </Trackpoint>
          <Trackpoint>
            <Time>2018-09-14T13:49:09.000Z</Time>
            <Position>
              <LatitudeDegrees>37.80285864137113094329833984375</LatitudeDegrees>
              <LongitudeDegrees>-8.10349012725055217742919921875</LongitudeDegrees>
            </Position>
            <AltitudeMeters>205</AltitudeMeters>
            <DistanceMeters>285741.73506</DistanceMeters>
          </Trackpoint>
          <Trackpoint>
            <Time>2018-09-14T13:49:10.000Z</Time>
            <Position>
              <LatitudeDegrees>37.8028156422078609466552734375</LatitudeDegrees>
              <LongitudeDegrees>-8.1034830026328563690185546875</LongitudeDegrees>
            </Position>
            <AltitudeMeters>205.399993896484375</AltitudeMeters>
            <DistanceMeters>285746.56181846</DistanceMeters>
          </Trackpoint>
          <Trackpoint>
            <Time>2018-09-14T13:49:11.000Z</Time>
            <Position>
              <LatitudeDegrees>37.8027717210352420806884765625</LatitudeDegrees>
              <LongitudeDegrees>-8.10347638092935085296630859375</LongitudeDegrees>
            </Position>
            <AltitudeMeters>205.8000030517578125</AltitudeMeters>
            <DistanceMeters>285751.48398212</DistanceMeters>
          </Trackpoint>
          <Trackpoint>
            <Time>2018-09-14T13:49:12.000Z</Time>
            <Position>
              <LatitudeDegrees>37.80272729694843292236328125</LatitudeDegrees>
              <LongitudeDegrees>-8.10346984304487705230712890625</LongitudeDegrees>
            </Position>
            <AltitudeMeters>206.1999969482421875</AltitudeMeters>
            <DistanceMeters>285756.46178583</DistanceMeters>
          </Trackpoint>
          <Trackpoint>
            <Time>2018-09-14T13:49:13.000Z</Time>
            <Position>
              <LatitudeDegrees>37.8026835434138774871826171875</LatitudeDegrees>
              <LongitudeDegrees>-8.1034625507891178131103515625</LongitudeDegrees>
            </Position>
            <AltitudeMeters>206.600006103515625</AltitudeMeters>
            <DistanceMeters>285761.37384897</DistanceMeters>
          </Trackpoint>
          <Trackpoint>
            <Time>2018-09-14T13:49:14.000Z</Time>
            <Position>
              <LatitudeDegrees>37.802639789879322052001953125</LatitudeDegrees>
              <LongitudeDegrees>-8.10345475561916828155517578125</LongitudeDegrees>
            </Position>
            <AltitudeMeters>207</AltitudeMeters>
            <DistanceMeters>285766.29142405</DistanceMeters>
          </Trackpoint>
          <Trackpoint>
            <Time>2018-09-14T13:49:15.000Z</Time>
            <Position>
              <LatitudeDegrees>37.80259595252573490142822265625</LatitudeDegrees>
              <LongitudeDegrees>-8.10344696044921875</LongitudeDegrees>
            </Position>
            <AltitudeMeters>207.600006103515625</AltitudeMeters>
            <DistanceMeters>285771.21817201</DistanceMeters>
          </Trackpoint>
          <Trackpoint>
            <Time>2018-09-14T13:49:16.000Z</Time>
            <Position>
              <LatitudeDegrees>37.80255270190536975860595703125</LatitudeDegrees>
              <LongitudeDegrees>-8.1034390814602375030517578125</LongitudeDegrees>
            </Position>
            <AltitudeMeters>208</AltitudeMeters>
            <DistanceMeters>285776.08220329</DistanceMeters>
          </Trackpoint>
          <Trackpoint>
            <Time>2018-09-14T13:49:17.000Z</Time>
            <Position>
              <LatitudeDegrees>37.80251028947532176971435546875</LatitudeDegrees>
              <LongitudeDegrees>-8.10343111865222454071044921875</LongitudeDegrees>
            </Position>
            <AltitudeMeters>207.8000030517578125</AltitudeMeters>
            <DistanceMeters>285780.8543991</DistanceMeters>
          </Trackpoint>
          <Trackpoint>
            <Time>2018-09-14T13:49:18.000Z</Time>
            <Position>
              <LatitudeDegrees>37.80246837995946407318115234375</LatitudeDegrees>
              <LongitudeDegrees>-8.10342357493937015533447265625</LongitudeDegrees>
            </Position>
            <AltitudeMeters>207.600006103515625</AltitudeMeters>
            <DistanceMeters>285785.5666128</DistanceMeters>
          </Trackpoint>
          <Trackpoint>
            <Time>2018-09-14T13:49:19.000Z</Time>
            <Position>
              <LatitudeDegrees>37.802427224814891815185546875</LatitudeDegrees>
              <LongitudeDegrees>-8.10341552831232547760009765625</LongitudeDegrees>
            </Position>
            <AltitudeMeters>207.399993896484375</AltitudeMeters>
            <DistanceMeters>285790.20251421</DistanceMeters>
          </Trackpoint>
          <Trackpoint>
            <Time>2018-09-14T13:49:20.000Z</Time>
            <Position>
              <LatitudeDegrees>37.8023864887654781341552734375</LatitudeDegrees>
              <LongitudeDegrees>-8.10340873897075653076171875</LongitudeDegrees>
            </Position>
            <AltitudeMeters>207.1999969482421875</AltitudeMeters>
            <DistanceMeters>285794.77565942</DistanceMeters>
          </Trackpoint>
          <Trackpoint>
            <Time>2018-09-14T13:49:21.000Z</Time>
            <Position>
              <LatitudeDegrees>37.802345417439937591552734375</LatitudeDegrees>
              <LongitudeDegrees>-8.103401698172092437744140625</LongitudeDegrees>
            </Position>
            <AltitudeMeters>207</AltitudeMeters>
            <DistanceMeters>285799.38812731</DistanceMeters>
          </Trackpoint>
          <Trackpoint>
            <Time>2018-09-14T13:49:22.000Z</Time>
            <Position>
              <LatitudeDegrees>37.80230392701923847198486328125</LatitudeDegrees>
              <LongitudeDegrees>-8.10339407064020633697509765625</LongitudeDegrees>
            </Position>
            <AltitudeMeters>206.8000030517578125</AltitudeMeters>
            <DistanceMeters>285804.05412285</DistanceMeters>
          </Trackpoint>
          <Trackpoint>
            <Time>2018-09-14T13:49:23.000Z</Time>
            <Position>
              <LatitudeDegrees>37.8022614307701587677001953125</LatitudeDegrees>
              <LongitudeDegrees>-8.10338736511766910552978515625</LongitudeDegrees>
            </Position>
            <AltitudeMeters>206.600006103515625</AltitudeMeters>
            <DistanceMeters>285808.82063859</DistanceMeters>
          </Trackpoint>
          <Trackpoint>
            <Time>2018-09-14T13:49:24.000Z</Time>
            <Position>
              <LatitudeDegrees>37.80221843160688877105712890625</LatitudeDegrees>
              <LongitudeDegrees>-8.10337982140481472015380859375</LongitudeDegrees>
            </Position>
            <AltitudeMeters>206.399993896484375</AltitudeMeters>
            <DistanceMeters>285813.6530063</DistanceMeters>
          </Trackpoint>
          <Trackpoint>
            <Time>2018-09-14T13:49:25.000Z</Time>
            <Position>
              <LatitudeDegrees>37.8021752648055553436279296875</LatitudeDegrees>
              <LongitudeDegrees>-8.10337160713970661163330078125</LongitudeDegrees>
            </Position>
            <AltitudeMeters>206.1999969482421875</AltitudeMeters>
            <DistanceMeters>285818.51146488</DistanceMeters>
          </Trackpoint>
          <Trackpoint>
            <Time>2018-09-14T13:49:26.000Z</Time>
            <Position>
              <LatitudeDegrees>37.8021310083568096160888671875</LatitudeDegrees>
              <LongitudeDegrees>-8.10336305759847164154052734375</LongitudeDegrees>
            </Position>
            <AltitudeMeters>206</AltitudeMeters>
            <DistanceMeters>285823.49289541</DistanceMeters>
          </Trackpoint>
          <Trackpoint>
            <Time>2018-09-14T13:49:27.000Z</Time>
            <Position>
              <LatitudeDegrees>37.80208549462258815765380859375</LatitudeDegrees>
              <LongitudeDegrees>-8.10335417278110980987548828125</LongitudeDegrees>
            </Position>
            <AltitudeMeters>205.8000030517578125</AltitudeMeters>
            <DistanceMeters>285828.619056</DistanceMeters>
          </Trackpoint>
          <Trackpoint>
            <Time>2018-09-14T13:49:28.000Z</Time>
            <Position>
              <LatitudeDegrees>37.80203872360289096832275390625</LatitudeDegrees>
              <LongitudeDegrees>-8.1033441983163356781005859375</LongitudeDegrees>
            </Position>
            <AltitudeMeters>205.600006103515625</AltitudeMeters>
            <DistanceMeters>285833.89795891</DistanceMeters>
          </Trackpoint>
          <Trackpoint>
            <Time>2018-09-14T13:49:29.000Z</Time>
            <Position>
              <LatitudeDegrees>37.8019908629357814788818359375</LatitudeDegrees>
              <LongitudeDegrees>-8.10333405621349811553955078125</LongitudeDegrees>
            </Position>
            <AltitudeMeters>205.1999969482421875</AltitudeMeters>
            <DistanceMeters>285839.29862062</DistanceMeters>
          </Trackpoint>
          <Trackpoint>
            <Time>2018-09-14T13:49:30.000Z</Time>
            <Position>
              <LatitudeDegrees>37.8019420802593231201171875</LatitudeDegrees>
              <LongitudeDegrees>-8.10332517139613628387451171875</LongitudeDegrees>
            </Position>
            <AltitudeMeters>205</AltitudeMeters>
            <DistanceMeters>285844.78389315</DistanceMeters>
          </Trackpoint>
          <Trackpoint>
            <Time>2018-09-14T13:49:31.000Z</Time>
            <Position>
              <LatitudeDegrees>37.80189187265932559967041015625</LatitudeDegrees>
              <LongitudeDegrees>-8.10331611894071102142333984375</LongitudeDegrees>
            </Position>
            <AltitudeMeters>204.8000030517578125</AltitudeMeters>
            <DistanceMeters>285850.42819202</DistanceMeters>
          </Trackpoint>
          <Trackpoint>
            <Time>2018-09-14T13:49:32.000Z</Time>
            <Position>
              <LatitudeDegrees>37.801839821040630340576171875</LatitudeDegrees>
              <LongitudeDegrees>-8.10330622829496860504150390625</LongitudeDegrees>
            </Position>
            <AltitudeMeters>204.600006103515625</AltitudeMeters>
            <DistanceMeters>285856.2860321</DistanceMeters>
          </Trackpoint>
          <Trackpoint>
            <Time>2018-09-14T13:49:33.000Z</Time>
            <Position>
              <LatitudeDegrees>37.80178709886968135833740234375</LatitudeDegrees>
              <LongitudeDegrees>-8.1032962538301944732666015625</LongitudeDegrees>
            </Position>
            <AltitudeMeters>204.8000030517578125</AltitudeMeters>
            <DistanceMeters>285862.21892667</DistanceMeters>
          </Trackpoint>
          <Trackpoint>
            <Time>2018-09-14T13:49:34.000Z</Time>
            <Position>
              <LatitudeDegrees>37.80173328705132007598876953125</LatitudeDegrees>
              <LongitudeDegrees>-8.1032861955463886260986328125</LongitudeDegrees>
            </Position>
            <AltitudeMeters>205</AltitudeMeters>
            <DistanceMeters>285868.27385115</DistanceMeters>
          </Trackpoint>
          <Trackpoint>
            <Time>2018-09-14T13:49:35.000Z</Time>
            <Position>
              <LatitudeDegrees>37.8016787208616733551025390625</LatitudeDegrees>
              <LongitudeDegrees>-8.103275634348392486572265625</LongitudeDegrees>
            </Position>
            <AltitudeMeters>205.1999969482421875</AltitudeMeters>
            <DistanceMeters>285874.41760566</DistanceMeters>
          </Trackpoint>
          <Trackpoint>
            <Time>2018-09-14T13:49:36.000Z</Time>
            <Position>
              <LatitudeDegrees>37.80162331648170948028564453125</LatitudeDegrees>
              <LongitudeDegrees>-8.103264905512332916259765625</LongitudeDegrees>
            </Position>
            <AltitudeMeters>205.399993896484375</AltitudeMeters>
            <DistanceMeters>285880.65616555</DistanceMeters>
          </Trackpoint>
          <Trackpoint>
            <Time>2018-09-14T13:49:37.000Z</Time>
            <Position>
              <LatitudeDegrees>37.80156724154949188232421875</LatitudeDegrees>
              <LongitudeDegrees>-8.103253506124019622802734375</LongitudeDegrees>
            </Position>
            <AltitudeMeters>205.600006103515625</AltitudeMeters>
            <DistanceMeters>285886.97740659</DistanceMeters>
          </Trackpoint>
          <Trackpoint>
            <Time>2018-09-14T13:49:38.000Z</Time>
            <Position>
              <LatitudeDegrees>37.801510579884052276611328125</LatitudeDegrees>
              <LongitudeDegrees>-8.1032412685453891754150390625</LongitudeDegrees>
            </Position>
            <AltitudeMeters>205.8000030517578125</AltitudeMeters>
            <DistanceMeters>285893.37461742</DistanceMeters>
          </Trackpoint>
          <Trackpoint>
            <Time>2018-09-14T13:49:39.000Z</Time>
            <Position>
              <LatitudeDegrees>37.80145316384732723236083984375</LatitudeDegrees>
              <LongitudeDegrees>-8.1032288633286952972412109375</LongitudeDegrees>
            </Position>
            <AltitudeMeters>205.8000030517578125</AltitudeMeters>
            <DistanceMeters>285899.85736188</DistanceMeters>
          </Trackpoint>
          <Trackpoint>
            <Time>2018-09-14T13:49:40.000Z</Time>
            <Position>
              <LatitudeDegrees>37.80139499343931674957275390625</LatitudeDegrees>
              <LongitudeDegrees>-8.10321838594973087310791015625</LongitudeDegrees>
            </Position>
            <AltitudeMeters>206</AltitudeMeters>
            <DistanceMeters>285906.39696753</DistanceMeters>
          </Trackpoint>
          <Trackpoint>
            <Time>2018-09-14T13:49:41.000Z</Time>
            <Position>
              <LatitudeDegrees>37.80133548192679882049560546875</LatitudeDegrees>
              <LongitudeDegrees>-8.1032077409327030181884765625</LongitudeDegrees>
            </Position>
            <AltitudeMeters>206.1999969482421875</AltitudeMeters>
            <DistanceMeters>285913.08674024</DistanceMeters>
          </Trackpoint>
          <Trackpoint>
            <Time>2018-09-14T13:49:42.000Z</Time>
            <Position>
              <LatitudeDegrees>37.80127488076686859130859375</LatitudeDegrees>
              <LongitudeDegrees>-8.10319491662085056304931640625</LongitudeDegrees>
            </Position>
            <AltitudeMeters>206.399993896484375</AltitudeMeters>
            <DistanceMeters>285919.92602353</DistanceMeters>
          </Trackpoint>
          <Trackpoint>
            <Time>2018-09-14T13:49:43.000Z</Time>
            <Position>
              <LatitudeDegrees>37.80121453106403350830078125</LatitudeDegrees>
              <LongitudeDegrees>-8.1031822599470615386962890625</LongitudeDegrees>
            </Position>
            <AltitudeMeters>206.600006103515625</AltitudeMeters>
            <DistanceMeters>285926.73487163</DistanceMeters>
          </Trackpoint>
          <Trackpoint>
            <Time>2018-09-14T13:49:44.000Z</Time>
            <Position>
              <LatitudeDegrees>37.80115284025669097900390625</LatitudeDegrees>
              <LongitudeDegrees>-8.10317144729197025299072265625</LongitudeDegrees>
            </Position>
            <AltitudeMeters>206.600006103515625</AltitudeMeters>
            <DistanceMeters>285933.66726421</DistanceMeters>
          </Trackpoint>
          <Trackpoint>
            <Time>2018-09-14T13:49:45.000Z</Time>
            <Position>
              <LatitudeDegrees>37.801091484725475311279296875</LatitudeDegrees>
              <LongitudeDegrees>-8.10315988026559352874755859375</LongitudeDegrees>
            </Position>
            <AltitudeMeters>206.8000030517578125</AltitudeMeters>
            <DistanceMeters>285940.57224818</DistanceMeters>
          </Trackpoint>
          <Trackpoint>
            <Time>2018-09-14T13:49:46.000Z</Time>
            <Position>
              <LatitudeDegrees>37.80103021301329135894775390625</LatitudeDegrees>
              <LongitudeDegrees>-8.10314663685858249664306640625</LongitudeDegrees>
            </Position>
            <AltitudeMeters>206.8000030517578125</AltitudeMeters>
            <DistanceMeters>285947.49095003</DistanceMeters>
          </Trackpoint>
          <Trackpoint>
            <Time>2018-09-14T13:49:47.000Z</Time>
            <Position>
              <LatitudeDegrees>37.80096718110144138336181640625</LatitudeDegrees>
              <LongitudeDegrees>-8.103136159479618072509765625</LongitudeDegrees>
            </Position>
            <AltitudeMeters>206.8000030517578125</AltitudeMeters>
            <DistanceMeters>285954.5664531</DistanceMeters>
          </Trackpoint>
          <Trackpoint>
            <Time>2018-09-14T13:49:48.000Z</Time>
            <Position>
              <LatitudeDegrees>37.80090364627540111541748046875</LatitudeDegrees>
              <LongitudeDegrees>-8.10312400572001934051513671875</LongitudeDegrees>
            </Position>
            <AltitudeMeters>207</AltitudeMeters>
            <DistanceMeters>285961.71875225</DistanceMeters>
          </Trackpoint>
          <Trackpoint>
            <Time>2018-09-14T13:49:49.000Z</Time>
            <Position>
              <LatitudeDegrees>37.8008401952683925628662109375</LatitudeDegrees>
              <LongitudeDegrees>-8.10311143286526203155517578125</LongitudeDegrees>
            </Position>
            <AltitudeMeters>207</AltitudeMeters>
            <DistanceMeters>285968.86663113</DistanceMeters>
          </Trackpoint>
          <Trackpoint>
            <Time>2018-09-14T13:49:50.000Z</Time>
            <Position>
              <LatitudeDegrees>37.80077607370913028717041015625</LatitudeDegrees>
              <LongitudeDegrees>-8.1030974350869655609130859375</LongitudeDegrees>
            </Position>
            <AltitudeMeters>207.1999969482421875</AltitudeMeters>
            <DistanceMeters>285976.10863941</DistanceMeters>
          </Trackpoint>
          <Trackpoint>
            <Time>2018-09-14T13:49:51.000Z</Time>
            <Position>
              <LatitudeDegrees>37.80071161687374114990234375</LatitudeDegrees>
              <LongitudeDegrees>-8.10308410786092281341552734375</LongitudeDegrees>
            </Position>
            <AltitudeMeters>207.1999969482421875</AltitudeMeters>
            <DistanceMeters>285983.37802779</DistanceMeters>
          </Trackpoint>
          <Trackpoint>
            <Time>2018-09-14T13:49:52.000Z</Time>
            <Position>
              <LatitudeDegrees>37.8006460703909397125244140625</LatitudeDegrees>
              <LongitudeDegrees>-8.10307170264422893524169921875</LongitudeDegrees>
            </Position>
            <AltitudeMeters>207.1999969482421875</AltitudeMeters>
            <DistanceMeters>285990.75469646</DistanceMeters>
          </Trackpoint>
          <Trackpoint>
            <Time>2018-09-14T13:49:53.000Z</Time>
            <Position>
              <LatitudeDegrees>37.80058027245104312896728515625</LatitudeDegrees>
              <LongitudeDegrees>-8.10305980034172534942626953125</LongitudeDegrees>
            </Position>
            <AltitudeMeters>207.399993896484375</AltitudeMeters>
            <DistanceMeters>285998.15214624</DistanceMeters>
          </Trackpoint>
          <Trackpoint>
            <Time>2018-09-14T13:49:54.000Z</Time>
            <Position>
              <LatitudeDegrees>37.80051472596824169158935546875</LatitudeDegrees>
              <LongitudeDegrees>-8.10304923914372920989990234375</LongitudeDegrees>
            </Position>
            <AltitudeMeters>207.399993896484375</AltitudeMeters>
            <DistanceMeters>286005.50613344</DistanceMeters>
          </Trackpoint>
          <Trackpoint>
            <Time>2018-09-14T13:49:55.000Z</Time>
            <Position>
              <LatitudeDegrees>37.800449430942535400390625</LatitudeDegrees>
              <LongitudeDegrees>-8.1030370853841304779052734375</LongitudeDegrees>
            </Position>
            <AltitudeMeters>207.600006103515625</AltitudeMeters>
            <DistanceMeters>286012.85213486</DistanceMeters>
          </Trackpoint>
          <Trackpoint>
            <Time>2018-09-14T13:49:56.000Z</Time>
            <Position>
              <LatitudeDegrees>37.80038346536457538604736328125</LatitudeDegrees>
              <LongitudeDegrees>-8.10302384197711944580078125</LongitudeDegrees>
            </Position>
            <AltitudeMeters>207.399993896484375</AltitudeMeters>
            <DistanceMeters>286020.28611548</DistanceMeters>
          </Trackpoint>
          <Trackpoint>
            <Time>2018-09-14T13:49:57.000Z</Time>
            <Position>
              <LatitudeDegrees>37.8003178350627422332763671875</LatitudeDegrees>
              <LongitudeDegrees>-8.10301168821752071380615234375</LongitudeDegrees>
            </Position>
            <AltitudeMeters>207.399993896484375</AltitudeMeters>
            <DistanceMeters>286027.66890231</DistanceMeters>
          </Trackpoint>
          <Trackpoint>
            <Time>2018-09-14T13:49:58.000Z</Time>
            <Position>
              <LatitudeDegrees>37.80025254003703594207763671875</LatitudeDegrees>
              <LongitudeDegrees>-8.10300012119114398956298828125</LongitudeDegrees>
            </Position>
            <AltitudeMeters>207.1999969482421875</AltitudeMeters>
            <DistanceMeters>286035.00752452</DistanceMeters>
          </Trackpoint>
          <Trackpoint>
            <Time>2018-09-14T13:49:59.000Z</Time>
            <Position>
              <LatitudeDegrees>37.80018724501132965087890625</LatitudeDegrees>
              <LongitudeDegrees>-8.102987296879291534423828125</LongitudeDegrees>
            </Position>
            <AltitudeMeters>207</AltitudeMeters>
            <DistanceMeters>286042.36212566</DistanceMeters>
          </Trackpoint>
          <Trackpoint>
            <Time>2018-09-14T13:50:00.000Z</Time>
            <Position>
              <LatitudeDegrees>37.80012153089046478271484375</LatitudeDegrees>
              <LongitudeDegrees>-8.10297363437712192535400390625</LongitudeDegrees>
            </Position>
            <AltitudeMeters>207</AltitudeMeters>
            <DistanceMeters>286049.77420938</DistanceMeters>
          </Trackpoint>
          <Trackpoint>
            <Time>2018-09-14T13:50:01.000Z</Time>
            <Position>
              <LatitudeDegrees>37.80005573295056819915771484375</LatitudeDegrees>
              <LongitudeDegrees>-8.10296081006526947021484375</LongitudeDegrees>
            </Position>
            <AltitudeMeters>206.8000030517578125</AltitudeMeters>
            <DistanceMeters>286057.18446544</DistanceMeters>
          </Trackpoint>
          <Trackpoint>
            <Time>2018-09-14T13:50:02.000Z</Time>
            <Position>
              <LatitudeDegrees>37.79999010264873504638671875</LatitudeDegrees>
              <LongitudeDegrees>-8.10294765047729015350341796875</LongitudeDegrees>
            </Position>
            <AltitudeMeters>206.8000030517578125</AltitudeMeters>
            <DistanceMeters>286064.58069442</DistanceMeters>
          </Trackpoint>
          <Trackpoint>
            <Time>2018-09-14T13:50:03.000Z</Time>
            <Position>
              <LatitudeDegrees>37.79992430470883846282958984375</LatitudeDegrees>
              <LongitudeDegrees>-8.10293340124189853668212890625</LongitudeDegrees>
            </Position>
            <AltitudeMeters>206.8000030517578125</AltitudeMeters>
            <DistanceMeters>286072.01042236</DistanceMeters>
          </Trackpoint>
          <Trackpoint>
            <Time>2018-09-14T13:50:04.000Z</Time>
            <Position>
              <LatitudeDegrees>37.79985741712152957916259765625</LatitudeDegrees>
              <LongitudeDegrees>-8.102919571101665496826171875</LongitudeDegrees>
            </Position>
            <AltitudeMeters>206.8000030517578125</AltitudeMeters>
            <DistanceMeters>286079.55413111</DistanceMeters>
          </Trackpoint>
          <Trackpoint>
            <Time>2018-09-14T13:50:05.000Z</Time>
            <Position>
              <LatitudeDegrees>37.79978985898196697235107421875</LatitudeDegrees>
              <LongitudeDegrees>-8.102906160056591033935546875</LongitudeDegrees>
            </Position>
            <AltitudeMeters>206.8000030517578125</AltitudeMeters>
            <DistanceMeters>286087.165765</DistanceMeters>
          </Trackpoint>
          <Trackpoint>
            <Time>2018-09-14T13:50:06.000Z</Time>
            <Position>
              <LatitudeDegrees>37.7997220493853092193603515625</LatitudeDegrees>
              <LongitudeDegrees>-8.10289467684924602508544921875</LongitudeDegrees>
            </Position>
            <AltitudeMeters>206.8000030517578125</AltitudeMeters>
            <DistanceMeters>286094.77977123</DistanceMeters>
          </Trackpoint>
          <Trackpoint>
            <Time>2018-09-14T13:50:07.000Z</Time>
            <Position>
              <LatitudeDegrees>37.799653820693492889404296875</LatitudeDegrees>
              <LongitudeDegrees>-8.10288361273705959320068359375</LongitudeDegrees>
            </Position>
            <AltitudeMeters>207</AltitudeMeters>
            <DistanceMeters>286102.43576405</DistanceMeters>
          </Trackpoint>
          <Trackpoint>
            <Time>2018-09-14T13:50:08.000Z</Time>
            <Position>
              <LatitudeDegrees>37.7995852567255496978759765625</LatitudeDegrees>
              <LongitudeDegrees>-8.1028694473206996917724609375</LongitudeDegrees>
            </Position>
            <AltitudeMeters>207.1999969482421875</AltitudeMeters>
            <DistanceMeters>286110.16745896</DistanceMeters>
          </Trackpoint>
          <Trackpoint>
            <Time>2018-09-14T13:50:09.000Z</Time>
            <Position>
              <LatitudeDegrees>37.79951627366244792938232421875</LatitudeDegrees>
              <LongitudeDegrees>-8.10285486280918121337890625</LongitudeDegrees>
            </Position>
            <AltitudeMeters>207.1999969482421875</AltitudeMeters>
            <DistanceMeters>286117.95153327</DistanceMeters>
          </Trackpoint>
          <Trackpoint>
            <Time>2018-09-14T13:50:10.000Z</Time>
            <Position>
              <LatitudeDegrees>37.79944703914225101470947265625</LatitudeDegrees>
              <LongitudeDegrees>-8.10284036211669445037841796875</LongitudeDegrees>
            </Position>
            <AltitudeMeters>207.399993896484375</AltitudeMeters>
            <DistanceMeters>286125.76224364</DistanceMeters>
          </Trackpoint>
          <Trackpoint>
            <Time>2018-09-14T13:50:11.000Z</Time>
            <Position>
              <LatitudeDegrees>37.79937797226011753082275390625</LatitudeDegrees>
              <LongitudeDegrees>-8.10282628051936626434326171875</LongitudeDegrees>
            </Position>
            <AltitudeMeters>207.600006103515625</AltitudeMeters>
            <DistanceMeters>286133.54863775</DistanceMeters>
          </Trackpoint>
          <Trackpoint>
            <Time>2018-09-14T13:50:12.000Z</Time>
            <Position>
              <LatitudeDegrees>37.7993094921112060546875</LatitudeDegrees>
              <LongitudeDegrees>-8.10281052254140377044677734375</LongitudeDegrees>
            </Position>
            <AltitudeMeters>207.8000030517578125</AltitudeMeters>
            <DistanceMeters>286141.29608366</DistanceMeters>
          </Trackpoint>
          <Trackpoint>
            <Time>2018-09-14T13:50:13.000Z</Time>
            <Position>
              <LatitudeDegrees>37.7992409281432628631591796875</LatitudeDegrees>
              <LongitudeDegrees>-8.10279392637312412261962890625</LongitudeDegrees>
            </Position>
            <AltitudeMeters>208</AltitudeMeters>
            <DistanceMeters>286149.06564356</DistanceMeters>
          </Trackpoint>
          <Trackpoint>
            <Time>2018-09-14T13:50:14.000Z</Time>
            <Position>
              <LatitudeDegrees>37.799172699451446533203125</LatitudeDegrees>
              <LongitudeDegrees>-8.10277934186160564422607421875</LongitudeDegrees>
            </Position>
            <AltitudeMeters>208</AltitudeMeters>
            <DistanceMeters>286156.76632613</DistanceMeters>
          </Trackpoint>
          <Trackpoint>
            <Time>2018-09-14T13:50:15.000Z</Time>
            <Position>
              <LatitudeDegrees>37.7991044707596302032470703125</LatitudeDegrees>
              <LongitudeDegrees>-8.1027670204639434814453125</LongitudeDegrees>
            </Position>
            <AltitudeMeters>207.8000030517578125</AltitudeMeters>
            <DistanceMeters>286164.43704826</DistanceMeters>
          </Trackpoint>
          <Trackpoint>
            <Time>2018-09-14T13:50:16.000Z</Time>
            <Position>
              <LatitudeDegrees>37.7990364097058773040771484375</LatitudeDegrees>
              <LongitudeDegrees>-8.1027554534375667572021484375</LongitudeDegrees>
            </Position>
            <AltitudeMeters>207.8000030517578125</AltitudeMeters>
            <DistanceMeters>286172.08064654</DistanceMeters>
          </Trackpoint>
          <Trackpoint>
            <Time>2018-09-14T13:50:17.000Z</Time>
            <Position>
              <LatitudeDegrees>37.7989683486521244049072265625</LatitudeDegrees>
              <LongitudeDegrees>-8.10274397023022174835205078125</LongitudeDegrees>
            </Position>
            <AltitudeMeters>207.600006103515625</AltitudeMeters>
            <DistanceMeters>286179.72306333</DistanceMeters>
          </Trackpoint>
          <Trackpoint>
            <Time>2018-09-14T13:50:18.000Z</Time>
            <Position>
              <LatitudeDegrees>37.79890104196965694427490234375</LatitudeDegrees>
              <LongitudeDegrees>-8.1027316488325595855712890625</LongitudeDegrees>
            </Position>
            <AltitudeMeters>207.399993896484375</AltitudeMeters>
            <DistanceMeters>286187.29306103</DistanceMeters>
          </Trackpoint>
          <Trackpoint>
            <Time>2018-09-14T13:50:19.000Z</Time>
            <Position>
              <LatitudeDegrees>37.79883348383009433746337890625</LatitudeDegrees>
              <LongitudeDegrees>-8.10271865688264369964599609375</LongitudeDegrees>
            </Position>
            <AltitudeMeters>207.1999969482421875</AltitudeMeters>
            <DistanceMeters>286194.89935446</DistanceMeters>
          </Trackpoint>
          <Trackpoint>
            <Time>2018-09-14T13:50:20.000Z</Time>
            <Position>
              <LatitudeDegrees>37.79876508750021457672119140625</LatitudeDegrees>
              <LongitudeDegrees>-8.1027075089514255523681640625</LongitudeDegrees>
            </Position>
            <AltitudeMeters>207</AltitudeMeters>
            <DistanceMeters>286202.57419574</DistanceMeters>
          </Trackpoint>
          <Trackpoint>
            <Time>2018-09-14T13:50:21.000Z</Time>
            <Position>
              <LatitudeDegrees>37.79869727790355682373046875</LatitudeDegrees>
              <LongitudeDegrees>-8.10269669629633426666259765625</LongitudeDegrees>
            </Position>
            <AltitudeMeters>206.8000030517578125</AltitudeMeters>
            <DistanceMeters>286210.18108274</DistanceMeters>
          </Trackpoint>
          <Trackpoint>
            <Time>2018-09-14T13:50:22.000Z</Time>
            <Position>
              <LatitudeDegrees>37.79862980358302593231201171875</LatitudeDegrees>
              <LongitudeDegrees>-8.1026853807270526885986328125</LongitudeDegrees>
            </Position>
            <AltitudeMeters>206.600006103515625</AltitudeMeters>
            <DistanceMeters>286217.75644648</DistanceMeters>
          </Trackpoint>
          <Trackpoint>
            <Time>2018-09-14T13:50:23.000Z</Time>
            <Position>
              <LatitudeDegrees>37.7985606528818607330322265625</LatitudeDegrees>
              <LongitudeDegrees>-8.10267305932939052581787109375</LongitudeDegrees>
            </Position>
            <AltitudeMeters>206.600006103515625</AltitudeMeters>
            <DistanceMeters>286225.52891143</DistanceMeters>
          </Trackpoint>
          <Trackpoint>
            <Time>2018-09-14T13:50:24.000Z</Time>
            <Position>
              <LatitudeDegrees>37.7984915859997272491455078125</LatitudeDegrees>
              <LongitudeDegrees>-8.10265998356044292449951171875</LongitudeDegrees>
            </Position>
            <AltitudeMeters>206.399993896484375</AltitudeMeters>
            <DistanceMeters>286233.30137638</DistanceMeters>
          </Trackpoint>
          <Trackpoint>
            <Time>2018-09-14T13:50:25.000Z</Time>
            <Position>
              <LatitudeDegrees>37.7984225191175937652587890625</LatitudeDegrees>
              <LongitudeDegrees>-8.10264674015343189239501953125</LongitudeDegrees>
            </Position>
            <AltitudeMeters>206.1999969482421875</AltitudeMeters>
            <DistanceMeters>286241.07558384</DistanceMeters>
          </Trackpoint>
          <Trackpoint>
            <Time>2018-09-14T13:50:26.000Z</Time>
            <Position>
              <LatitudeDegrees>37.79835353605449199676513671875</LatitudeDegrees>
              <LongitudeDegrees>-8.10263299383223056793212890625</LongitudeDegrees>
            </Position>
            <AltitudeMeters>206.1999969482421875</AltitudeMeters>
            <DistanceMeters>286248.84804879</DistanceMeters>
          </Trackpoint>
          <Trackpoint>
            <Time>2018-09-14T13:50:27.000Z</Time>
            <Position>
              <LatitudeDegrees>37.7982843853533267974853515625</LatitudeDegrees>
              <LongitudeDegrees>-8.10262008570134639739990234375</LongitudeDegrees>
            </Position>
            <AltitudeMeters>206.1999969482421875</AltitudeMeters>
            <DistanceMeters>286256.62748144</DistanceMeters>
          </Trackpoint>
          <Trackpoint>
            <Time>2018-09-14T13:50:28.000Z</Time>
            <Position>
              <LatitudeDegrees>37.7982151508331298828125</LatitudeDegrees>
              <LongitudeDegrees>-8.102607429027557373046875</LongitudeDegrees>
            </Position>
            <AltitudeMeters>206.1999969482421875</AltitudeMeters>
            <DistanceMeters>286264.41271574</DistanceMeters>
          </Trackpoint>
          <Trackpoint>
            <Time>2018-09-14T13:50:29.000Z</Time>
            <Position>
              <LatitudeDegrees>37.7981465868651866912841796875</LatitudeDegrees>
              <LongitudeDegrees>-8.102593682706356048583984375</LongitudeDegrees>
            </Position>
            <AltitudeMeters>206.1999969482421875</AltitudeMeters>
            <DistanceMeters>286272.13915317</DistanceMeters>
          </Trackpoint>
          <Trackpoint>
            <Time>2018-09-14T13:50:30.000Z</Time>
            <Position>
              <LatitudeDegrees>37.79807860963046550750732421875</LatitudeDegrees>
              <LongitudeDegrees>-8.1025794334709644317626953125</LongitudeDegrees>
            </Position>
            <AltitudeMeters>206.399993896484375</AltitudeMeters>
            <DistanceMeters>286279.80810929</DistanceMeters>
          </Trackpoint>
          <Trackpoint>
            <Time>2018-09-14T13:50:31.000Z</Time>
            <Position>
              <LatitudeDegrees>37.79801105149090290069580078125</LatitudeDegrees>
              <LongitudeDegrees>-8.102566190063953399658203125</LongitudeDegrees>
            </Position>
            <AltitudeMeters>206.399993896484375</AltitudeMeters>
            <DistanceMeters>286287.41677672</DistanceMeters>
          </Trackpoint>
          <Trackpoint>
            <Time>2018-09-14T13:50:32.000Z</Time>
            <Position>
              <LatitudeDegrees>37.79794416390359401702880859375</LatitudeDegrees>
              <LongitudeDegrees>-8.10255386866629123687744140625</LongitudeDegrees>
            </Position>
            <AltitudeMeters>206.399993896484375</AltitudeMeters>
            <DistanceMeters>286294.94010837</DistanceMeters>
          </Trackpoint>
          <Trackpoint>
            <Time>2018-09-14T13:50:33.000Z</Time>
            <Position>
              <LatitudeDegrees>37.79787786304950714111328125</LatitudeDegrees>
              <LongitudeDegrees>-8.10254179872572422027587890625</LongitudeDegrees>
            </Position>
            <AltitudeMeters>206.399993896484375</AltitudeMeters>
            <DistanceMeters>286302.39592158</DistanceMeters>
          </Trackpoint>
          <Trackpoint>
            <Time>2018-09-14T13:50:34.000Z</Time>
            <Position>
              <LatitudeDegrees>37.79781214892864227294921875</LatitudeDegrees>
              <LongitudeDegrees>-8.102529980242252349853515625</LongitudeDegrees>
            </Position>
            <AltitudeMeters>206.600006103515625</AltitudeMeters>
            <DistanceMeters>286309.78359929</DistanceMeters>
          </Trackpoint>
          <Trackpoint>
            <Time>2018-09-14T13:50:35.000Z</Time>
            <Position>
              <LatitudeDegrees>37.7977466024458408355712890625</LatitudeDegrees>
              <LongitudeDegrees>-8.10251698829233646392822265625</LongitudeDegrees>
            </Position>
            <AltitudeMeters>206.600006103515625</AltitudeMeters>
            <DistanceMeters>286317.16822059</DistanceMeters>
          </Trackpoint>
          <Trackpoint>
            <Time>2018-09-14T13:50:36.000Z</Time>
            <Position>
              <LatitudeDegrees>37.7976805530488491058349609375</LatitudeDegrees>
              <LongitudeDegrees>-8.10250424779951572418212890625</LongitudeDegrees>
            </Position>
            <AltitudeMeters>206.600006103515625</AltitudeMeters>
            <DistanceMeters>286324.60463021</DistanceMeters>
          </Trackpoint>
          <Trackpoint>
            <Time>2018-09-14T13:50:37.000Z</Time>
            <Position>
              <LatitudeDegrees>37.7976143360137939453125</LatitudeDegrees>
              <LongitudeDegrees>-8.10249133966863155364990234375</LongitudeDegrees>
            </Position>
            <AltitudeMeters>206.8000030517578125</AltitudeMeters>
            <DistanceMeters>286332.06165447</DistanceMeters>
          </Trackpoint>
          <Trackpoint>
            <Time>2018-09-14T13:50:38.000Z</Time>
            <Position>
              <LatitudeDegrees>37.79754853807389736175537109375</LatitudeDegrees>
              <LongitudeDegrees>-8.10247776098549365997314453125</LongitudeDegrees>
            </Position>
            <AltitudeMeters>206.8000030517578125</AltitudeMeters>
            <DistanceMeters>286339.48226133</DistanceMeters>
          </Trackpoint>
          <Trackpoint>
            <Time>2018-09-14T13:50:39.000Z</Time>
            <Position>
              <LatitudeDegrees>37.797482572495937347412109375</LatitudeDegrees>
              <LongitudeDegrees>-8.10246502049267292022705078125</LongitudeDegrees>
            </Position>
            <AltitudeMeters>206.8000030517578125</AltitudeMeters>
            <DistanceMeters>286346.91016595</DistanceMeters>
          </Trackpoint>
          <Trackpoint>
            <Time>2018-09-14T13:50:40.000Z</Time>
            <Position>
              <LatitudeDegrees>37.79741677455604076385498046875</LatitudeDegrees>
              <LongitudeDegrees>-8.1024523638188838958740234375</LongitudeDegrees>
            </Position>
            <AltitudeMeters>206.8000030517578125</AltitudeMeters>
            <DistanceMeters>286354.31798442</DistanceMeters>
          </Trackpoint>
          <Trackpoint>
            <Time>2018-09-14T13:50:41.000Z</Time>
            <Position>
              <LatitudeDegrees>37.79735055752098560333251953125</LatitudeDegrees>
              <LongitudeDegrees>-8.1024399586021900177001953125</LongitudeDegrees>
            </Position>
            <AltitudeMeters>206.8000030517578125</AltitudeMeters>
            <DistanceMeters>286361.76834548</DistanceMeters>
          </Trackpoint>
          <Trackpoint>
            <Time>2018-09-14T13:50:42.000Z</Time>
            <Position>
              <LatitudeDegrees>37.797284089028835296630859375</LatitudeDegrees>
              <LongitudeDegrees>-8.1024263799190521240234375</LongitudeDegrees>
            </Position>
            <AltitudeMeters>206.8000030517578125</AltitudeMeters>
            <DistanceMeters>286369.26221267</DistanceMeters>
          </Trackpoint>
          <Trackpoint>
            <Time>2018-09-14T13:50:43.000Z</Time>
            <Position>
              <LatitudeDegrees>37.7972172014415264129638671875</LatitudeDegrees>
              <LongitudeDegrees>-8.1024107895791530609130859375</LongitudeDegrees>
            </Position>
            <AltitudeMeters>206.8000030517578125</AltitudeMeters>
            <DistanceMeters>286376.83221036</DistanceMeters>
          </Trackpoint>
          <Trackpoint>
            <Time>2018-09-14T13:50:44.000Z</Time>
            <Position>
              <LatitudeDegrees>37.7971491403877735137939453125</LatitudeDegrees>
              <LongitudeDegrees>-8.10239679180085659027099609375</LongitudeDegrees>
            </Position>
            <AltitudeMeters>206.8000030517578125</AltitudeMeters>
            <DistanceMeters>286384.50646333</DistanceMeters>
          </Trackpoint>
          <Trackpoint>
            <Time>2018-09-14T13:50:45.000Z</Time>
            <Position>
              <LatitudeDegrees>37.79707990586757659912109375</LatitudeDegrees>
              <LongitudeDegrees>-8.10238304547965526580810546875</LongitudeDegrees>
            </Position>
            <AltitudeMeters>206.8000030517578125</AltitudeMeters>
            <DistanceMeters>286392.30676173</DistanceMeters>
          </Trackpoint>
          <Trackpoint>
            <Time>2018-09-14T13:50:46.000Z</Time>
            <Position>
              <LatitudeDegrees>37.79700958169996738433837890625</LatitudeDegrees>
              <LongitudeDegrees>-8.1023702211678028106689453125</LongitudeDegrees>
            </Position>
            <AltitudeMeters>206.8000030517578125</AltitudeMeters>
            <DistanceMeters>286400.21513131</DistanceMeters>
          </Trackpoint>
          <Trackpoint>
            <Time>2018-09-14T13:50:47.000Z</Time>
            <Position>
              <LatitudeDegrees>37.79693900607526302337646484375</LatitudeDegrees>
              <LongitudeDegrees>-8.102357648313045501708984375</LongitudeDegrees>
            </Position>
            <AltitudeMeters>206.600006103515625</AltitudeMeters>
            <DistanceMeters>286408.14744324</DistanceMeters>
          </Trackpoint>
          <Trackpoint>
            <Time>2018-09-14T13:50:48.000Z</Time>
            <Position>
              <LatitudeDegrees>37.79686826281249523162841796875</LatitudeDegrees>
              <LongitudeDegrees>-8.1023433990776538848876953125</LongitudeDegrees>
            </Position>
            <AltitudeMeters>206.600006103515625</AltitudeMeters>
            <DistanceMeters>286416.12063195</DistanceMeters>
          </Trackpoint>
          <Trackpoint>
            <Time>2018-09-14T13:50:49.000Z</Time>
            <Position>
              <LatitudeDegrees>37.79679684899747371673583984375</LatitudeDegrees>
              <LongitudeDegrees>-8.10232822783291339874267578125</LongitudeDegrees>
            </Position>
            <AltitudeMeters>206.399993896484375</AltitudeMeters>
            <DistanceMeters>286424.18055564</DistanceMeters>
          </Trackpoint>
          <Trackpoint>
            <Time>2018-09-14T13:50:50.000Z</Time>
            <Position>
              <LatitudeDegrees>37.7967243455350399017333984375</LatitudeDegrees>
              <LongitudeDegrees>-8.10231213457882404327392578125</LongitudeDegrees>
            </Position>
            <AltitudeMeters>206.399993896484375</AltitudeMeters>
            <DistanceMeters>286432.37382046</DistanceMeters>
          </Trackpoint>
          <Trackpoint>
            <Time>2018-09-14T13:50:51.000Z</Time>
            <Position>
              <LatitudeDegrees>37.79665033333003520965576171875</LatitudeDegrees>
              <LongitudeDegrees>-8.10229671187698841094970703125</LongitudeDegrees>
            </Position>
            <AltitudeMeters>206.1999969482421875</AltitudeMeters>
            <DistanceMeters>286440.7226623</DistanceMeters>
          </Trackpoint>
          <Trackpoint>
            <Time>2018-09-14T13:50:52.000Z</Time>
            <Position>
              <LatitudeDegrees>37.7965748123824596405029296875</LatitudeDegrees>
              <LongitudeDegrees>-8.10228145681321620941162109375</LongitudeDegrees>
            </Position>
            <AltitudeMeters>206</AltitudeMeters>
            <DistanceMeters>286449.23484964</DistanceMeters>
          </Trackpoint>
          <Trackpoint>
            <Time>2018-09-14T13:50:53.000Z</Time>
            <Position>
              <LatitudeDegrees>37.796497531235218048095703125</LatitudeDegrees>
              <LongitudeDegrees>-8.10226536355912685394287109375</LongitudeDegrees>
            </Position>
            <AltitudeMeters>206</AltitudeMeters>
            <DistanceMeters>286457.95248254</DistanceMeters>
          </Trackpoint>
          <Trackpoint>
            <Time>2018-09-14T13:50:54.000Z</Time>
            <Position>
              <LatitudeDegrees>37.79641932807862758636474609375</LatitudeDegrees>
              <LongitudeDegrees>-8.102249018847942352294921875</LongitudeDegrees>
            </Position>
            <AltitudeMeters>205.8000030517578125</AltitudeMeters>
            <DistanceMeters>286466.77462677</DistanceMeters>
          </Trackpoint>
          <Trackpoint>
            <Time>2018-09-14T13:50:55.000Z</Time>
            <Position>
              <LatitudeDegrees>37.79633969999849796295166015625</LatitudeDegrees>
              <LongitudeDegrees>-8.10223367996513843536376953125</LongitudeDegrees>
            </Position>
            <AltitudeMeters>205.600006103515625</AltitudeMeters>
            <DistanceMeters>286475.7399327</DistanceMeters>
          </Trackpoint>
          <Trackpoint>
            <Time>2018-09-14T13:50:56.000Z</Time>
            <Position>
              <LatitudeDegrees>37.79625906608998775482177734375</LatitudeDegrees>
              <LongitudeDegrees>-8.1022186763584613800048828125</LongitudeDegrees>
            </Position>
            <AltitudeMeters>205.600006103515625</AltitudeMeters>
            <DistanceMeters>286484.81087844</DistanceMeters>
          </Trackpoint>
          <Trackpoint>
            <Time>2018-09-14T13:50:57.000Z</Time>
            <Position>
              <LatitudeDegrees>37.79617759399116039276123046875</LatitudeDegrees>
              <LongitudeDegrees>-8.10220442712306976318359375</LongitudeDegrees>
            </Position>
            <AltitudeMeters>205.8000030517578125</AltitudeMeters>
            <DistanceMeters>286493.96506379</DistanceMeters>
          </Trackpoint>
          <Trackpoint>
            <Time>2018-09-14T13:50:58.000Z</Time>
            <Position>
              <LatitudeDegrees>37.79609553515911102294921875</LatitudeDegrees>
              <LongitudeDegrees>-8.10219093225896358489990234375</LongitudeDegrees>
            </Position>
            <AltitudeMeters>206</AltitudeMeters>
            <DistanceMeters>286503.17481449</DistanceMeters>
          </Trackpoint>
          <Trackpoint>
            <Time>2018-09-14T13:50:59.000Z</Time>
            <Position>
              <LatitudeDegrees>37.7960125543177127838134765625</LatitudeDegrees>
              <LongitudeDegrees>-8.10217618010938167572021484375</LongitudeDegrees>
            </Position>
            <AltitudeMeters>206.1999969482421875</AltitudeMeters>
            <DistanceMeters>286512.50148198</DistanceMeters>
          </Trackpoint>
          <Trackpoint>
            <Time>2018-09-14T13:51:00.000Z</Time>
            <Position>
              <LatitudeDegrees>37.795928902924060821533203125</LatitudeDegrees>
              <LongitudeDegrees>-8.10215857811272144317626953125</LongitudeDegrees>
            </Position>
            <AltitudeMeters>206.399993896484375</AltitudeMeters>
            <DistanceMeters>286521.93979243</DistanceMeters>
          </Trackpoint>
          <Trackpoint>
            <Time>2018-09-14T13:51:01.000Z</Time>
            <Position>
              <LatitudeDegrees>37.79584474861621856689453125</LatitudeDegrees>
              <LongitudeDegrees>-8.10213946737349033355712890625</LongitudeDegrees>
            </Position>
            <AltitudeMeters>206.600006103515625</AltitudeMeters>
            <DistanceMeters>286531.4557583</DistanceMeters>
          </Trackpoint>
          <Trackpoint>
            <Time>2018-09-14T13:51:02.000Z</Time>
            <Position>
              <LatitudeDegrees>37.79576000757515430450439453125</LatitudeDegrees>
              <LongitudeDegrees>-8.10212203301489353179931640625</LongitudeDegrees>
            </Position>
            <AltitudeMeters>206.399993896484375</AltitudeMeters>
            <DistanceMeters>286541.01149653</DistanceMeters>
          </Trackpoint>
          <Trackpoint>
            <Time>2018-09-14T13:51:03.000Z</Time>
            <Position>
              <LatitudeDegrees>37.79567518271505832672119140625</LatitudeDegrees>
              <LongitudeDegrees>-8.102105520665645599365234375</LongitudeDegrees>
            </Position>
            <AltitudeMeters>206.399993896484375</AltitudeMeters>
            <DistanceMeters>286550.56439936</DistanceMeters>
          </Trackpoint>
          <Trackpoint>
            <Time>2018-09-14T13:51:04.000Z</Time>
            <Position>
              <LatitudeDegrees>37.7955911122262477874755859375</LatitudeDegrees>
              <LongitudeDegrees>-8.10208984650671482086181640625</LongitudeDegrees>
            </Position>
            <AltitudeMeters>206.1999969482421875</AltitudeMeters>
            <DistanceMeters>286560.02230279</DistanceMeters>
          </Trackpoint>
          <Trackpoint>
            <Time>2018-09-14T13:51:05.000Z</Time>
            <Position>
              <LatitudeDegrees>37.79550771228969097137451171875</LatitudeDegrees>
              <LongitudeDegrees>-8.10207375325262546539306640625</LongitudeDegrees>
            </Position>
            <AltitudeMeters>206.1999969482421875</AltitudeMeters>
            <DistanceMeters>286569.41265403</DistanceMeters>
          </Trackpoint>
          <Trackpoint>
            <Time>2018-09-14T13:51:06.000Z</Time>
            <Position>
              <LatitudeDegrees>37.7954251505434513092041015625</LatitudeDegrees>
              <LongitudeDegrees>-8.102057240903377532958984375</LongitudeDegrees>
            </Position>
            <AltitudeMeters>206</AltitudeMeters>
            <DistanceMeters>286578.71654101</DistanceMeters>
          </Trackpoint>
          <Trackpoint>
            <Time>2018-09-14T13:51:07.000Z</Time>
            <Position>
              <LatitudeDegrees>37.79534325934946537017822265625</LatitudeDegrees>
              <LongitudeDegrees>-8.10204139910638332366943359375</LongitudeDegrees>
            </Position>
            <AltitudeMeters>205.8000030517578125</AltitudeMeters>
            <DistanceMeters>286587.93658112</DistanceMeters>
          </Trackpoint>
          <Trackpoint>
            <Time>2018-09-14T13:51:08.000Z</Time>
            <Position>
              <LatitudeDegrees>37.79526145197451114654541015625</LatitudeDegrees>
              <LongitudeDegrees>-8.1020252220332622528076171875</LongitudeDegrees>
            </Position>
            <AltitudeMeters>205.600006103515625</AltitudeMeters>
            <DistanceMeters>286597.15221289</DistanceMeters>
          </Trackpoint>
          <Trackpoint>
            <Time>2018-09-14T13:51:09.000Z</Time>
            <Position>
              <LatitudeDegrees>37.795181237161159515380859375</LatitudeDegrees>
              <LongitudeDegrees>-8.10200921259820461273193359375</LongitudeDegrees>
            </Position>
            <AltitudeMeters>205.399993896484375</AltitudeMeters>
            <DistanceMeters>286606.19124667</DistanceMeters>
          </Trackpoint>
          <Trackpoint>
            <Time>2018-09-14T13:51:10.000Z</Time>
            <Position>
              <LatitudeDegrees>37.79510152526199817657470703125</LatitudeDegrees>
              <LongitudeDegrees>-8.101993538439273834228515625</LongitudeDegrees>
            </Position>
            <AltitudeMeters>205.1999969482421875</AltitudeMeters>
            <DistanceMeters>286615.17013983</DistanceMeters>
          </Trackpoint>
          <Trackpoint>
            <Time>2018-09-14T13:51:11.000Z</Time>
            <Position>
              <LatitudeDegrees>37.79502240009605884552001953125</LatitudeDegrees>
              <LongitudeDegrees>-8.10197786428034305572509765625</LongitudeDegrees>
            </Position>
            <AltitudeMeters>205</AltitudeMeters>
            <DistanceMeters>286624.08443581</DistanceMeters>
          </Trackpoint>
          <Trackpoint>
            <Time>2018-09-14T13:51:12.000Z</Time>
            <Position>
              <LatitudeDegrees>37.7949446998536586761474609375</LatitudeDegrees>
              <LongitudeDegrees>-8.1019618548452854156494140625</LongitudeDegrees>
            </Position>
            <AltitudeMeters>204.8000030517578125</AltitudeMeters>
            <DistanceMeters>286632.84701191</DistanceMeters>
          </Trackpoint>
          <Trackpoint>
            <Time>2018-09-14T13:51:13.000Z</Time>
            <Position>
              <LatitudeDegrees>37.7948682568967342376708984375</LatitudeDegrees>
              <LongitudeDegrees>-8.10194718651473522186279296875</LongitudeDegrees>
            </Position>
            <AltitudeMeters>204.600006103515625</AltitudeMeters>
            <DistanceMeters>286641.45204688</DistanceMeters>
          </Trackpoint>
          <Trackpoint>
            <Time>2018-09-14T13:51:14.000Z</Time>
            <Position>
              <LatitudeDegrees>37.7947931550443172454833984375</LatitudeDegrees>
              <LongitudeDegrees>-8.1019330210983753204345703125</LongitudeDegrees>
            </Position>
            <AltitudeMeters>204.8000030517578125</AltitudeMeters>
            <DistanceMeters>286649.90354998</DistanceMeters>
          </Trackpoint>
          <Trackpoint>
            <Time>2018-09-14T13:51:15.000Z</Time>
            <Position>
              <LatitudeDegrees>37.79471931047737598419189453125</LatitudeDegrees>
              <LongitudeDegrees>-8.1019175983965396881103515625</LongitudeDegrees>
            </Position>
            <AltitudeMeters>205</AltitudeMeters>
            <DistanceMeters>286658.23452637</DistanceMeters>
          </Trackpoint>
          <Trackpoint>
            <Time>2018-09-14T13:51:16.000Z</Time>
            <Position>
              <LatitudeDegrees>37.79464554972946643829345703125</LatitudeDegrees>
              <LongitudeDegrees>-8.101902343332767486572265625</LongitudeDegrees>
            </Position>
            <AltitudeMeters>205.399993896484375</AltitudeMeters>
            <DistanceMeters>286666.55302839</DistanceMeters>
          </Trackpoint>
          <Trackpoint>
            <Time>2018-09-14T13:51:17.000Z</Time>
            <Position>
              <LatitudeDegrees>37.79457178898155689239501953125</LatitudeDegrees>
              <LongitudeDegrees>-8.1018899381160736083984375</LongitudeDegrees>
            </Position>
            <AltitudeMeters>205.600006103515625</AltitudeMeters>
            <DistanceMeters>286674.83508494</DistanceMeters>
          </Trackpoint>
          <Trackpoint>
            <Time>2018-09-14T13:51:19.000Z</Time>
            <Position>
              <LatitudeDegrees>37.79441990889608860015869140625</LatitudeDegrees>
              <LongitudeDegrees>-8.1018599309027194976806640625</LongitudeDegrees>
            </Position>
            <AltitudeMeters>206</AltitudeMeters>
            <DistanceMeters>286691.9446442</DistanceMeters>
          </Trackpoint>
          <Trackpoint>
            <Time>2018-09-14T13:51:21.000Z</Time>
            <Position>
              <LatitudeDegrees>37.794268615543842315673828125</LatitudeDegrees>
              <LongitudeDegrees>-8.10182950459420680999755859375</LongitudeDegrees>
            </Position>
            <AltitudeMeters>206.600006103515625</AltitudeMeters>
            <DistanceMeters>286708.99525448</DistanceMeters>
          </Trackpoint>
          <Trackpoint>
            <Time>2018-09-14T13:51:22.000Z</Time>
            <Position>
              <LatitudeDegrees>37.7941936813294887542724609375</LatitudeDegrees>
              <LongitudeDegrees>-8.10181424953043460845947265625</LongitudeDegrees>
            </Position>
            <AltitudeMeters>206.8000030517578125</AltitudeMeters>
            <DistanceMeters>286717.44248267</DistanceMeters>
          </Trackpoint>
          <Trackpoint>
            <Time>2018-09-14T13:51:23.000Z</Time>
            <Position>
              <LatitudeDegrees>37.79411950148642063140869140625</LatitudeDegrees>
              <LongitudeDegrees>-8.10179899446666240692138671875</LongitudeDegrees>
            </Position>
            <AltitudeMeters>206.8000030517578125</AltitudeMeters>
            <DistanceMeters>286725.80699296</DistanceMeters>
          </Trackpoint>
          <Trackpoint>
            <Time>2018-09-14T13:51:24.000Z</Time>
            <Position>
              <LatitudeDegrees>37.794044651091098785400390625</LatitudeDegrees>
              <LongitudeDegrees>-8.101784326136112213134765625</LongitudeDegrees>
            </Position>
            <AltitudeMeters>206.399993896484375</AltitudeMeters>
            <DistanceMeters>286734.23709981</DistanceMeters>
          </Trackpoint>
          <Trackpoint>
            <Time>2018-09-14T13:51:26.000Z</Time>
            <Position>
              <LatitudeDegrees>37.793897800147533416748046875</LatitudeDegrees>
              <LongitudeDegrees>-8.10175658203661441802978515625</LongitudeDegrees>
            </Position>
            <AltitudeMeters>205.8000030517578125</AltitudeMeters>
            <DistanceMeters>286750.76300771</DistanceMeters>
          </Trackpoint>
          <Trackpoint>
            <Time>2018-09-14T13:51:27.000Z</Time>
            <Position>
              <LatitudeDegrees>37.79382613487541675567626953125</LatitudeDegrees>
              <LongitudeDegrees>-8.1017424166202545166015625</LongitudeDegrees>
            </Position>
            <AltitudeMeters>205.600006103515625</AltitudeMeters>
            <DistanceMeters>286758.83636462</DistanceMeters>
          </Trackpoint>
          <Trackpoint>
            <Time>2018-09-14T13:51:28.000Z</Time>
            <Position>
              <LatitudeDegrees>37.79375572688877582550048828125</LatitudeDegrees>
              <LongitudeDegrees>-8.10172590427100658416748046875</LongitudeDegrees>
            </Position>
            <AltitudeMeters>205.1999969482421875</AltitudeMeters>
            <DistanceMeters>286766.8072879</DistanceMeters>
          </Trackpoint>
          <Trackpoint>
            <Time>2018-09-14T13:51:29.000Z</Time>
            <Position>
              <LatitudeDegrees>37.79368557035923004150390625</LatitudeDegrees>
              <LongitudeDegrees>-8.10170964337885379791259765625</LongitudeDegrees>
            </Position>
            <AltitudeMeters>204.8000030517578125</AltitudeMeters>
            <DistanceMeters>286774.74528975</DistanceMeters>
          </Trackpoint>
          <Trackpoint>
            <Time>2018-09-14T13:51:30.000Z</Time>
            <Position>
              <LatitudeDegrees>37.7936153300106525421142578125</LatitudeDegrees>
              <LongitudeDegrees>-8.1016953103244304656982421875</LongitudeDegrees>
            </Position>
            <AltitudeMeters>204.600006103515625</AltitudeMeters>
            <DistanceMeters>286782.66392921</DistanceMeters>
          </Trackpoint>
          <Trackpoint>
            <Time>2018-09-14T13:51:31.000Z</Time>
            <Position>
              <LatitudeDegrees>37.79354534111917018890380859375</LatitudeDegrees>
              <LongitudeDegrees>-8.1016825698316097259521484375</LongitudeDegrees>
            </Position>
            <AltitudeMeters>204.1999969482421875</AltitudeMeters>
            <DistanceMeters>286790.53452794</DistanceMeters>
          </Trackpoint>
          <Trackpoint>
            <Time>2018-09-14T13:51:32.000Z</Time>
            <Position>
              <LatitudeDegrees>37.793475687503814697265625</LatitudeDegrees>
              <LongitudeDegrees>-8.101669661700725555419921875</LongitudeDegrees>
            </Position>
            <AltitudeMeters>204</AltitudeMeters>
            <DistanceMeters>286798.3694791</DistanceMeters>
          </Trackpoint>
          <Trackpoint>
            <Time>2018-09-14T13:51:33.000Z</Time>
            <Position>
              <LatitudeDegrees>37.79340653680264949798583984375</LatitudeDegrees>
              <LongitudeDegrees>-8.1016557477414608001708984375</LongitudeDegrees>
            </Position>
            <AltitudeMeters>204.1999969482421875</AltitudeMeters>
            <DistanceMeters>286806.16224909</DistanceMeters>
          </Trackpoint>
          <Trackpoint>
            <Time>2018-09-14T13:51:34.000Z</Time>
            <Position>
              <LatitudeDegrees>37.7933380566537380218505859375</LatitudeDegrees>
              <LongitudeDegrees>-8.10164275579154491424560546875</LongitudeDegrees>
            </Position>
            <AltitudeMeters>204.399993896484375</AltitudeMeters>
            <DistanceMeters>286813.86937844</DistanceMeters>
          </Trackpoint>
          <Trackpoint>
            <Time>2018-09-14T13:51:35.000Z</Time>
            <Position>
              <LatitudeDegrees>37.79327007941901683807373046875</LatitudeDegrees>
              <LongitudeDegrees>-8.10163051821291446685791015625</LongitudeDegrees>
            </Position>
            <AltitudeMeters>204.8000030517578125</AltitudeMeters>
            <DistanceMeters>286821.51061357</DistanceMeters>
          </Trackpoint>
          <Trackpoint>
            <Time>2018-09-14T13:51:36.000Z</Time>
            <Position>
              <LatitudeDegrees>37.793203108012676239013671875</LatitudeDegrees>
              <LongitudeDegrees>-8.101618699729442596435546875</LongitudeDegrees>
            </Position>
            <AltitudeMeters>205</AltitudeMeters>
            <DistanceMeters>286829.03694531</DistanceMeters>
          </Trackpoint>
          <Trackpoint>
            <Time>2018-09-14T13:51:37.000Z</Time>
            <Position>
              <LatitudeDegrees>37.7931363880634307861328125</LatitudeDegrees>
              <LongitudeDegrees>-8.101606629788875579833984375</LongitudeDegrees>
            </Position>
            <AltitudeMeters>205.399993896484375</AltitudeMeters>
            <DistanceMeters>286836.53864088</DistanceMeters>
          </Trackpoint>
          <Trackpoint>
            <Time>2018-09-14T13:51:38.000Z</Time>
            <Position>
              <LatitudeDegrees>37.7930711768567562103271484375</LatitudeDegrees>
              <LongitudeDegrees>-8.10159296728670597076416015625</LongitudeDegrees>
            </Position>
            <AltitudeMeters>205.8000030517578125</AltitudeMeters>
            <DistanceMeters>286843.89569723</DistanceMeters>
          </Trackpoint>
          <Trackpoint>
            <Time>2018-09-14T13:51:39.000Z</Time>
            <Position>
              <LatitudeDegrees>37.793006636202335357666015625</LatitudeDegrees>
              <LongitudeDegrees>-8.1015796400606632232666015625</LongitudeDegrees>
            </Position>
            <AltitudeMeters>206</AltitudeMeters>
            <DistanceMeters>286851.17377586</DistanceMeters>
          </Trackpoint>
          <Trackpoint>
            <Time>2018-09-14T13:51:40.000Z</Time>
            <Position>
              <LatitudeDegrees>37.79294259846210479736328125</LatitudeDegrees>
              <LongitudeDegrees>-8.101566731929779052734375</LongitudeDegrees>
            </Position>
            <AltitudeMeters>206.399993896484375</AltitudeMeters>
            <DistanceMeters>286858.39142859</DistanceMeters>
          </Trackpoint>
          <Trackpoint>
            <Time>2018-09-14T13:51:41.000Z</Time>
            <Position>
              <LatitudeDegrees>37.79287881217896938323974609375</LatitudeDegrees>
              <LongitudeDegrees>-8.10155256651341915130615234375</LongitudeDegrees>
            </Position>
            <AltitudeMeters>206.600006103515625</AltitudeMeters>
            <DistanceMeters>286865.59969189</DistanceMeters>
          </Trackpoint>
          <Trackpoint>
            <Time>2018-09-14T13:51:42.000Z</Time>
            <Position>
              <LatitudeDegrees>37.79281544499099254608154296875</LatitudeDegrees>
              <LongitudeDegrees>-8.10153789818286895751953125</LongitudeDegrees>
            </Position>
            <AltitudeMeters>207</AltitudeMeters>
            <DistanceMeters>286872.76964484</DistanceMeters>
          </Trackpoint>
          <Trackpoint>
            <Time>2018-09-14T13:51:43.000Z</Time>
            <Position>
              <LatitudeDegrees>37.7927519939839839935302734375</LatitudeDegrees>
              <LongitudeDegrees>-8.10152423568069934844970703125</LongitudeDegrees>
            </Position>
            <AltitudeMeters>207.1999969482421875</AltitudeMeters>
            <DistanceMeters>286879.93392809</DistanceMeters>
          </Trackpoint>
          <Trackpoint>
            <Time>2018-09-14T13:51:44.000Z</Time>
            <Position>
              <LatitudeDegrees>37.79268804006278514862060546875</LatitudeDegrees>
              <LongitudeDegrees>-8.1015112437307834625244140625</LongitudeDegrees>
            </Position>
            <AltitudeMeters>207.399993896484375</AltitudeMeters>
            <DistanceMeters>286887.14344402</DistanceMeters>
          </Trackpoint>
          <Trackpoint>
            <Time>2018-09-14T13:51:45.000Z</Time>
            <Position>
              <LatitudeDegrees>37.79262484051287174224853515625</LatitudeDegrees>
              <LongitudeDegrees>-8.10149892233312129974365234375</LongitudeDegrees>
            </Position>
            <AltitudeMeters>207.399993896484375</AltitudeMeters>
            <DistanceMeters>286894.26093859</DistanceMeters>
          </Trackpoint>
          <Trackpoint>
            <Time>2018-09-14T13:51:46.000Z</Time>
            <Position>
              <LatitudeDegrees>37.79256214387714862823486328125</LatitudeDegrees>
              <LongitudeDegrees>-8.1014881096780300140380859375</LongitudeDegrees>
            </Position>
            <AltitudeMeters>207.600006103515625</AltitudeMeters>
            <DistanceMeters>286901.30446327</DistanceMeters>
          </Trackpoint>
          <Trackpoint>
            <Time>2018-09-14T13:51:47.000Z</Time>
            <Position>
              <LatitudeDegrees>37.7924998663365840911865234375</LatitudeDegrees>
              <LongitudeDegrees>-8.10147821903228759765625</LongitudeDegrees>
            </Position>
            <AltitudeMeters>207.600006103515625</AltitudeMeters>
            <DistanceMeters>286908.29135051</DistanceMeters>
          </Trackpoint>
          <Trackpoint>
            <Time>2018-09-14T13:51:48.000Z</Time>
            <Position>
              <LatitudeDegrees>37.79243809171020984649658203125</LatitudeDegrees>
              <LongitudeDegrees>-8.10146547853946685791015625</LongitudeDegrees>
            </Position>
            <AltitudeMeters>207.600006103515625</AltitudeMeters>
            <DistanceMeters>286915.25752814</DistanceMeters>
          </Trackpoint>
          <Trackpoint>
            <Time>2018-09-14T13:51:49.000Z</Time>
            <Position>
              <LatitudeDegrees>37.79237539507448673248291015625</LatitudeDegrees>
              <LongitudeDegrees>-8.101449720561504364013671875</LongitudeDegrees>
            </Position>
            <AltitudeMeters>207.399993896484375</AltitudeMeters>
            <DistanceMeters>286922.37248482</DistanceMeters>
          </Trackpoint>
          <Trackpoint>
            <Time>2018-09-14T13:51:50.000Z</Time>
            <Position>
              <LatitudeDegrees>37.7923117764294147491455078125</LatitudeDegrees>
              <LongitudeDegrees>-8.1014348007738590240478515625</LongitudeDegrees>
            </Position>
            <AltitudeMeters>207.399993896484375</AltitudeMeters>
            <DistanceMeters>286929.57322776</DistanceMeters>
          </Trackpoint>
          <Trackpoint>
            <Time>2018-09-14T13:51:51.000Z</Time>
            <Position>
              <LatitudeDegrees>37.792247235774993896484375</LatitudeDegrees>
              <LongitudeDegrees>-8.10142214410006999969482421875</LongitudeDegrees>
            </Position>
            <AltitudeMeters>207.1999969482421875</AltitudeMeters>
            <DistanceMeters>286936.84261614</DistanceMeters>
          </Trackpoint>
          <Trackpoint>
            <Time>2018-09-14T13:51:52.000Z</Time>
            <Position>
              <LatitudeDegrees>37.79218160547316074371337890625</LatitudeDegrees>
              <LongitudeDegrees>-8.101409487426280975341796875</LongitudeDegrees>
            </Position>
            <AltitudeMeters>207.1999969482421875</AltitudeMeters>
            <DistanceMeters>286944.23151607</DistanceMeters>
          </Trackpoint>
          <Trackpoint>
            <Time>2018-09-14T13:51:53.000Z</Time>
            <Position>
              <LatitudeDegrees>37.7921144664287567138671875</LatitudeDegrees>
              <LongitudeDegrees>-8.1013965792953968048095703125</LongitudeDegrees>
            </Position>
            <AltitudeMeters>207</AltitudeMeters>
            <DistanceMeters>286951.79017294</DistanceMeters>
          </Trackpoint>
          <Trackpoint>
            <Time>2018-09-14T13:51:54.000Z</Time>
            <Position>
              <LatitudeDegrees>37.79204565100371837615966796875</LatitudeDegrees>
              <LongitudeDegrees>-8.1013848446309566497802734375</LongitudeDegrees>
            </Position>
            <AltitudeMeters>206.8000030517578125</AltitudeMeters>
            <DistanceMeters>286959.51894746</DistanceMeters>
          </Trackpoint>
          <Trackpoint>
            <Time>2018-09-14T13:51:55.000Z</Time>
            <Position>
              <LatitudeDegrees>37.79197608120739459991455078125</LatitudeDegrees>
              <LongitudeDegrees>-8.1013737805187702178955078125</LongitudeDegrees>
            </Position>
            <AltitudeMeters>206.600006103515625</AltitudeMeters>
            <DistanceMeters>286967.32271806</DistanceMeters>
          </Trackpoint>
          <Trackpoint>
            <Time>2018-09-14T13:51:56.000Z</Time>
            <Position>
              <LatitudeDegrees>37.7919060923159122467041015625</LatitudeDegrees>
              <LongitudeDegrees>-8.101361207664012908935546875</LongitudeDegrees>
            </Position>
            <AltitudeMeters>206.399993896484375</AltitudeMeters>
            <DistanceMeters>286975.19102182</DistanceMeters>
          </Trackpoint>
          <Trackpoint>
            <Time>2018-09-14T13:51:57.000Z</Time>
            <Position>
              <LatitudeDegrees>37.79183627106249332427978515625</LatitudeDegrees>
              <LongitudeDegrees>-8.1013486348092555999755859375</LongitudeDegrees>
            </Position>
            <AltitudeMeters>206.1999969482421875</AltitudeMeters>
            <DistanceMeters>286983.04094167</DistanceMeters>
          </Trackpoint>
          <Trackpoint>
            <Time>2018-09-14T13:51:58.000Z</Time>
            <Position>
              <LatitudeDegrees>37.791767120361328125</LatitudeDegrees>
              <LongitudeDegrees>-8.101335726678371429443359375</LongitudeDegrees>
            </Position>
            <AltitudeMeters>206</AltitudeMeters>
            <DistanceMeters>286990.82037432</DistanceMeters>
          </Trackpoint>
          <Trackpoint>
            <Time>2018-09-14T13:51:59.000Z</Time>
            <Position>
              <LatitudeDegrees>37.79169813729822635650634765625</LatitudeDegrees>
              <LongitudeDegrees>-8.10132156126201152801513671875</LongitudeDegrees>
            </Position>
            <AltitudeMeters>205.8000030517578125</AltitudeMeters>
            <DistanceMeters>286998.59864612</DistanceMeters>
          </Trackpoint>
          <Trackpoint>
            <Time>2018-09-14T13:52:00.000Z</Time>
            <Position>
              <LatitudeDegrees>37.79162789694964885711669921875</LatitudeDegrees>
              <LongitudeDegrees>-8.10130655765533447265625</LongitudeDegrees>
            </Position>
            <AltitudeMeters>205.600006103515625</AltitudeMeters>
            <DistanceMeters>287006.52754215</DistanceMeters>
          </Trackpoint>
          <Trackpoint>
            <Time>2018-09-14T13:52:01.000Z</Time>
            <Position>
              <LatitudeDegrees>37.7915557287633419036865234375</LatitudeDegrees>
              <LongitudeDegrees>-8.1012919731438159942626953125</LongitudeDegrees>
            </Position>
            <AltitudeMeters>205.399993896484375</AltitudeMeters>
            <DistanceMeters>287014.66218413</DistanceMeters>
          </Trackpoint>
          <Trackpoint>
            <Time>2018-09-14T13:52:02.000Z</Time>
            <Position>
              <LatitudeDegrees>37.7914823032915592193603515625</LatitudeDegrees>
              <LongitudeDegrees>-8.1012768857181072235107421875</LongitudeDegrees>
            </Position>
            <AltitudeMeters>205.1999969482421875</AltitudeMeters>
            <DistanceMeters>287022.94205975</DistanceMeters>
          </Trackpoint>
          <Trackpoint>
            <Time>2018-09-14T13:52:03.000Z</Time>
            <Position>
              <LatitudeDegrees>37.79140812344849109649658203125</LatitudeDegrees>
              <LongitudeDegrees>-8.10126171447336673736572265625</LongitudeDegrees>
            </Position>
            <AltitudeMeters>205</AltitudeMeters>
            <DistanceMeters>287031.30603023</DistanceMeters>
          </Trackpoint>
          <Trackpoint>
            <Time>2018-09-14T13:52:04.000Z</Time>
            <Position>
              <LatitudeDegrees>37.79133268631994724273681640625</LatitudeDegrees>
              <LongitudeDegrees>-8.10124562121927738189697265625</LongitudeDegrees>
            </Position>
            <AltitudeMeters>204.8000030517578125</AltitudeMeters>
            <DistanceMeters>287039.82139951</DistanceMeters>
          </Trackpoint>
          <Trackpoint>
            <Time>2018-09-14T13:52:05.000Z</Time>
            <Position>
              <LatitudeDegrees>37.791255824267864227294921875</LatitudeDegrees>
              <LongitudeDegrees>-8.10122919268906116485595703125</LongitudeDegrees>
            </Position>
            <AltitudeMeters>204.600006103515625</AltitudeMeters>
            <DistanceMeters>287048.49749985</DistanceMeters>
          </Trackpoint>
          <Trackpoint>
            <Time>2018-09-14T13:52:06.000Z</Time>
            <Position>
              <LatitudeDegrees>37.79117745347321033477783203125</LatitudeDegrees>
              <LongitudeDegrees>-8.1012121774256229400634765625</LongitudeDegrees>
            </Position>
            <AltitudeMeters>204.399993896484375</AltitudeMeters>
            <DistanceMeters>287057.34774748</DistanceMeters>
          </Trackpoint>
          <Trackpoint>
            <Time>2018-09-14T13:52:07.000Z</Time>
            <Position>
              <LatitudeDegrees>37.79109723865985870361328125</LatitudeDegrees>
              <LongitudeDegrees>-8.101194240152835845947265625</LongitudeDegrees>
            </Position>
            <AltitudeMeters>204.1999969482421875</AltitudeMeters>
            <DistanceMeters>287066.41371438</DistanceMeters>
          </Trackpoint>
          <Trackpoint>
            <Time>2018-09-14T13:52:08.000Z</Time>
            <Position>
              <LatitudeDegrees>37.79101517982780933380126953125</LatitudeDegrees>
              <LongitudeDegrees>-8.10117672197520732879638671875</LongitudeDegrees>
            </Position>
            <AltitudeMeters>204</AltitudeMeters>
            <DistanceMeters>287075.67626027</DistanceMeters>
          </Trackpoint>
          <Trackpoint>
            <Time>2018-09-14T13:52:09.000Z</Time>
            <Position>
              <LatitudeDegrees>37.79093119315803050994873046875</LatitudeDegrees>
              <LongitudeDegrees>-8.10115970671176910400390625</LongitudeDegrees>
            </Position>
            <AltitudeMeters>203.600006103515625</AltitudeMeters>
            <DistanceMeters>287085.14275268</DistanceMeters>
          </Trackpoint>
          <Trackpoint>
            <Time>2018-09-14T13:52:10.000Z</Time>
            <Position>
              <LatitudeDegrees>37.79084569774568080902099609375</LatitudeDegrees>
              <LongitudeDegrees>-8.10114269144833087921142578125</LongitudeDegrees>
            </Position>
            <AltitudeMeters>203.399993896484375</AltitudeMeters>
            <DistanceMeters>287094.77519969</DistanceMeters>
          </Trackpoint>
          <Trackpoint>
            <Time>2018-09-14T13:52:11.000Z</Time>
            <Position>
              <LatitudeDegrees>37.79075919650495052337646484375</LatitudeDegrees>
              <LongitudeDegrees>-8.101125173270702362060546875</LongitudeDegrees>
            </Position>
            <AltitudeMeters>203</AltitudeMeters>
            <DistanceMeters>287104.52551481</DistanceMeters>
          </Trackpoint>
          <Trackpoint>
            <Time>2018-09-14T13:52:12.000Z</Time>
            <Position>
              <LatitudeDegrees>37.790671773254871368408203125</LatitudeDegrees>
              <LongitudeDegrees>-8.1011069007217884063720703125</LongitudeDegrees>
            </Position>
            <AltitudeMeters>202.600006103515625</AltitudeMeters>
            <DistanceMeters>287114.38725519</DistanceMeters>
          </Trackpoint>
          <Trackpoint>
            <Time>2018-09-14T13:52:13.000Z</Time>
            <Position>
              <LatitudeDegrees>37.7905827574431896209716796875</LatitudeDegrees>
              <LongitudeDegrees>-8.101090975105762481689453125</LongitudeDegrees>
            </Position>
            <AltitudeMeters>202.399993896484375</AltitudeMeters>
            <DistanceMeters>287124.3935276</DistanceMeters>
          </Trackpoint>
          <Trackpoint>
            <Time>2018-09-14T13:52:14.000Z</Time>
            <Position>
              <LatitudeDegrees>37.79049281962215900421142578125</LatitudeDegrees>
              <LongitudeDegrees>-8.10107597149908542633056640625</LongitudeDegrees>
            </Position>
            <AltitudeMeters>202</AltitudeMeters>
            <DistanceMeters>287134.49053523</DistanceMeters>
          </Trackpoint>
          <Trackpoint>
            <Time>2018-09-14T13:52:15.000Z</Time>
            <Position>
              <LatitudeDegrees>37.79040263034403324127197265625</LatitudeDegrees>
              <LongitudeDegrees>-8.1010589562356472015380859375</LongitudeDegrees>
            </Position>
            <AltitudeMeters>201.600006103515625</AltitudeMeters>
            <DistanceMeters>287144.64017128</DistanceMeters>
          </Trackpoint>
          <Trackpoint>
            <Time>2018-09-14T13:52:16.000Z</Time>
            <Position>
              <LatitudeDegrees>37.7903121896088123321533203125</LatitudeDegrees>
              <LongitudeDegrees>-8.10104143805801868438720703125</LongitudeDegrees>
            </Position>
            <AltitudeMeters>201.1999969482421875</AltitudeMeters>
            <DistanceMeters>287154.82355961</DistanceMeters>
          </Trackpoint>
          <Trackpoint>
            <Time>2018-09-14T13:52:17.000Z</Time>
            <Position>
              <LatitudeDegrees>37.79022158123552799224853515625</LatitudeDegrees>
              <LongitudeDegrees>-8.10102350078523159027099609375</LongitudeDegrees>
            </Position>
            <AltitudeMeters>200.8000030517578125</AltitudeMeters>
            <DistanceMeters>287165.030862</DistanceMeters>
          </Trackpoint>
          <Trackpoint>
            <Time>2018-09-14T13:52:18.000Z</Time>
            <Position>
              <LatitudeDegrees>37.79013088904321193695068359375</LatitudeDegrees>
              <LongitudeDegrees>-8.10100547969341278076171875</LongitudeDegrees>
            </Position>
            <AltitudeMeters>200.399993896484375</AltitudeMeters>
            <DistanceMeters>287175.24921676</DistanceMeters>
          </Trackpoint>
          <Trackpoint>
            <Time>2018-09-14T13:52:19.000Z</Time>
            <Position>
              <LatitudeDegrees>37.79003969393670558929443359375</LatitudeDegrees>
              <LongitudeDegrees>-8.10098938643932342529296875</LongitudeDegrees>
            </Position>
            <AltitudeMeters>200.1999969482421875</AltitudeMeters>
            <DistanceMeters>287185.49801421</DistanceMeters>
          </Trackpoint>
          <Trackpoint>
            <Time>2018-09-14T13:52:20.000Z</Time>
            <Position>
              <LatitudeDegrees>37.78994816355407238006591796875</LatitudeDegrees>
              <LongitudeDegrees>-8.100972957909107208251953125</LongitudeDegrees>
            </Position>
            <AltitudeMeters>200.399993896484375</AltitudeMeters>
            <DistanceMeters>287195.78726181</DistanceMeters>
          </Trackpoint>
          <Trackpoint>
            <Time>2018-09-14T13:52:21.000Z</Time>
            <Position>
              <LatitudeDegrees>37.7898560464382171630859375</LatitudeDegrees>
              <LongitudeDegrees>-8.1009563617408275604248046875</LongitudeDegrees>
            </Position>
            <AltitudeMeters>201.1999969482421875</AltitudeMeters>
            <DistanceMeters>287206.14299394</DistanceMeters>
          </Trackpoint>
          <Trackpoint>
            <Time>2018-09-14T13:52:22.000Z</Time>
            <Position>
              <LatitudeDegrees>37.78976342640817165374755859375</LatitudeDegrees>
              <LongitudeDegrees>-8.1009395979344844818115234375</LongitudeDegrees>
            </Position>
            <AltitudeMeters>202</AltitudeMeters>
            <DistanceMeters>287216.55698539</DistanceMeters>
          </Trackpoint>
          <Trackpoint>
            <Time>2018-09-14T13:52:23.000Z</Time>
            <Position>
              <LatitudeDegrees>37.7896704711019992828369140625</LatitudeDegrees>
              <LongitudeDegrees>-8.1009216606616973876953125</LongitudeDegrees>
            </Position>
            <AltitudeMeters>202.8000030517578125</AltitudeMeters>
            <DistanceMeters>287227.0220113</DistanceMeters>
          </Trackpoint>
          <Trackpoint>
            <Time>2018-09-14T13:52:24.000Z</Time>
            <Position>
              <LatitudeDegrees>37.7895779348909854888916015625</LatitudeDegrees>
              <LongitudeDegrees>-8.10090221464633941650390625</LongitudeDegrees>
            </Position>
            <AltitudeMeters>203.399993896484375</AltitudeMeters>
            <DistanceMeters>287237.46241611</DistanceMeters>
          </Trackpoint>
          <Trackpoint>
            <Time>2018-09-14T13:52:25.000Z</Time>
            <Position>
              <LatitudeDegrees>37.789485566318035125732421875</LatitudeDegrees>
              <LongitudeDegrees>-8.100882433354854583740234375</LongitudeDegrees>
            </Position>
            <AltitudeMeters>204</AltitudeMeters>
            <DistanceMeters>287247.88940611</DistanceMeters>
          </Trackpoint>
          <Trackpoint>
            <Time>2018-09-14T13:52:26.000Z</Time>
            <Position>
              <LatitudeDegrees>37.789393030107021331787109375</LatitudeDegrees>
              <LongitudeDegrees>-8.10086541809141635894775390625</LongitudeDegrees>
            </Position>
            <AltitudeMeters>204.8000030517578125</AltitudeMeters>
            <DistanceMeters>287258.29732603</DistanceMeters>
          </Trackpoint>
          <Trackpoint>
            <Time>2018-09-14T13:52:27.000Z</Time>
            <Position>
              <LatitudeDegrees>37.7893003262579441070556640625</LatitudeDegrees>
              <LongitudeDegrees>-8.1008500792086124420166015625</LongitudeDegrees>
            </Position>
            <AltitudeMeters>205.399993896484375</AltitudeMeters>
            <DistanceMeters>287268.70351057</DistanceMeters>
          </Trackpoint>
          <Trackpoint>
            <Time>2018-09-14T13:52:28.000Z</Time>
            <Position>
              <LatitudeDegrees>37.78920753858983516693115234375</LatitudeDegrees>
              <LongitudeDegrees>-8.100834153592586517333984375</LongitudeDegrees>
            </Position>
            <AltitudeMeters>205.1999969482421875</AltitudeMeters>
            <DistanceMeters>287279.1253031</DistanceMeters>
          </Trackpoint>
          <Trackpoint>
            <Time>2018-09-14T13:52:29.000Z</Time>
            <Position>
              <LatitudeDegrees>37.78911517001688480377197265625</LatitudeDegrees>
              <LongitudeDegrees>-8.10081814415752887725830078125</LongitudeDegrees>
            </Position>
            <AltitudeMeters>204.399993896484375</AltitudeMeters>
            <DistanceMeters>287289.50194183</DistanceMeters>
          </Trackpoint>
          <Trackpoint>
            <Time>2018-09-14T13:52:30.000Z</Time>
            <Position>
              <LatitudeDegrees>37.78902313672006130218505859375</LatitudeDegrees>
              <LongitudeDegrees>-8.10080070979893207550048828125</LongitudeDegrees>
            </Position>
            <AltitudeMeters>203.399993896484375</AltitudeMeters>
            <DistanceMeters>287299.85941779</DistanceMeters>
          </Trackpoint>
          <Trackpoint>
            <Time>2018-09-14T13:52:31.000Z</Time>
            <Position>
              <LatitudeDegrees>37.78893269598484039306640625</LatitudeDegrees>
              <LongitudeDegrees>-8.10078059323132038116455078125</LongitudeDegrees>
            </Position>
            <AltitudeMeters>202.600006103515625</AltitudeMeters>
            <DistanceMeters>287310.07998159</DistanceMeters>
          </Trackpoint>
          <Trackpoint>
            <Time>2018-09-14T13:52:32.000Z</Time>
            <Position>
              <LatitudeDegrees>37.7888433448970317840576171875</LatitudeDegrees>
              <LongitudeDegrees>-8.10075896792113780975341796875</LongitudeDegrees>
            </Position>
            <AltitudeMeters>201.600006103515625</AltitudeMeters>
            <DistanceMeters>287320.20556739</DistanceMeters>
          </Trackpoint>
          <Trackpoint>
            <Time>2018-09-14T13:52:33.000Z</Time>
            <Position>
              <LatitudeDegrees>37.7887541614472866058349609375</LatitudeDegrees>
              <LongitudeDegrees>-8.10073985718190670013427734375</LongitudeDegrees>
            </Position>
            <AltitudeMeters>200.8000030517578125</AltitudeMeters>
            <DistanceMeters>287330.27301881</DistanceMeters>
          </Trackpoint>
          <Trackpoint>
            <Time>2018-09-14T13:52:34.000Z</Time>
            <Position>
              <LatitudeDegrees>37.78866539709270000457763671875</LatitudeDegrees>
              <LongitudeDegrees>-8.1007220037281513214111328125</LongitudeDegrees>
            </Position>
            <AltitudeMeters>199.8000030517578125</AltitudeMeters>
            <DistanceMeters>287340.27613218</DistanceMeters>
          </Trackpoint>
          <Trackpoint>
            <Time>2018-09-14T13:52:35.000Z</Time>
            <Position>
              <LatitudeDegrees>37.788576968014240264892578125</LatitudeDegrees>
              <LongitudeDegrees>-8.10070373117923736572265625</LongitudeDegrees>
            </Position>
            <AltitudeMeters>199.1999969482421875</AltitudeMeters>
            <DistanceMeters>287350.24850561</DistanceMeters>
          </Trackpoint>
          <Trackpoint>
            <Time>2018-09-14T13:52:36.000Z</Time>
            <Position>
              <LatitudeDegrees>37.78848870657384395599365234375</LatitudeDegrees>
              <LongitudeDegrees>-8.100686632096767425537109375</LongitudeDegrees>
            </Position>
            <AltitudeMeters>199.1999969482421875</AltitudeMeters>
            <DistanceMeters>287360.18686444</DistanceMeters>
          </Trackpoint>
          <Trackpoint>
            <Time>2018-09-14T13:52:37.000Z</Time>
            <Position>
              <LatitudeDegrees>37.78840002603828907012939453125</LatitudeDegrees>
              <LongitudeDegrees>-8.100670538842678070068359375</LongitudeDegrees>
            </Position>
            <AltitudeMeters>199</AltitudeMeters>
            <DistanceMeters>287370.15787951</DistanceMeters>
          </Trackpoint>
          <Trackpoint>
            <Time>2018-09-14T13:52:38.000Z</Time>
            <Position>
              <LatitudeDegrees>37.7883112616837024688720703125</LatitudeDegrees>
              <LongitudeDegrees>-8.10065335594117641448974609375</LongitudeDegrees>
            </Position>
            <AltitudeMeters>198.8000030517578125</AltitudeMeters>
            <DistanceMeters>287380.1524133</DistanceMeters>
          </Trackpoint>
          <Trackpoint>
            <Time>2018-09-14T13:52:39.000Z</Time>
            <Position>
              <LatitudeDegrees>37.78822266496717929840087890625</LatitudeDegrees>
              <LongitudeDegrees>-8.10063625685870647430419921875</LongitudeDegrees>
            </Position>
            <AltitudeMeters>198.399993896484375</AltitudeMeters>
            <DistanceMeters>287390.12705025</DistanceMeters>
          </Trackpoint>
          <Trackpoint>
            <Time>2018-09-14T13:52:40.000Z</Time>
            <Position>
              <LatitudeDegrees>37.7881342358887195587158203125</LatitudeDegrees>
              <LongitudeDegrees>-8.10061949305236339569091796875</LongitudeDegrees>
            </Position>
            <AltitudeMeters>198.1999969482421875</AltitudeMeters>
            <DistanceMeters>287400.07902887</DistanceMeters>
          </Trackpoint>
          <Trackpoint>
            <Time>2018-09-14T13:52:41.000Z</Time>
            <Position>
              <LatitudeDegrees>37.7880455553531646728515625</LatitudeDegrees>
              <LongitudeDegrees>-8.10060155577957630157470703125</LongitudeDegrees>
            </Position>
            <AltitudeMeters>197.8000030517578125</AltitudeMeters>
            <DistanceMeters>287410.07446611</DistanceMeters>
          </Trackpoint>
          <Trackpoint>
            <Time>2018-09-14T13:52:42.000Z</Time>
            <Position>
              <LatitudeDegrees>37.78795637190341949462890625</LatitudeDegrees>
              <LongitudeDegrees>-8.1005825288593769073486328125</LongitudeDegrees>
            </Position>
            <AltitudeMeters>197.399993896484375</AltitudeMeters>
            <DistanceMeters>287420.14102053</DistanceMeters>
          </Trackpoint>
          <Trackpoint>
            <Time>2018-09-14T13:52:43.000Z</Time>
            <Position>
              <LatitudeDegrees>37.7878663502633571624755859375</LatitudeDegrees>
              <LongitudeDegrees>-8.1005637533962726593017578125</LongitudeDegrees>
            </Position>
            <AltitudeMeters>197</AltitudeMeters>
            <DistanceMeters>287430.29510409</DistanceMeters>
          </Trackpoint>
          <Trackpoint>
            <Time>2018-09-14T13:52:44.000Z</Time>
            <Position>
              <LatitudeDegrees>37.78777590952813625335693359375</LatitudeDegrees>
              <LongitudeDegrees>-8.10054522939026355743408203125</LongitudeDegrees>
            </Position>
            <AltitudeMeters>196.600006103515625</AltitudeMeters>
            <DistanceMeters>287440.49222771</DistanceMeters>
          </Trackpoint>
          <Trackpoint>
            <Time>2018-09-14T13:52:45.000Z</Time>
            <Position>
              <LatitudeDegrees>37.78768454678356647491455078125</LatitudeDegrees>
              <LongitudeDegrees>-8.10052762739360332489013671875</LongitudeDegrees>
            </Position>
            <AltitudeMeters>196.1999969482421875</AltitudeMeters>
            <DistanceMeters>287450.77796423</DistanceMeters>
          </Trackpoint>
          <Trackpoint>
            <Time>2018-09-14T13:52:46.000Z</Time>
            <Position>
              <LatitudeDegrees>37.78759268112480640411376953125</LatitudeDegrees>
              <LongitudeDegrees>-8.10051136650145053863525390625</LongitudeDegrees>
            </Position>
            <AltitudeMeters>195.8000030517578125</AltitudeMeters>
            <DistanceMeters>287461.10225705</DistanceMeters>
          </Trackpoint>
          <Trackpoint>
            <Time>2018-09-14T13:52:47.000Z</Time>
            <Position>
              <LatitudeDegrees>37.7875008992850780487060546875</LatitudeDegrees>
              <LongitudeDegrees>-8.10049510560929775238037109375</LongitudeDegrees>
            </Position>
            <AltitudeMeters>195.600006103515625</AltitudeMeters>
            <DistanceMeters>287471.41779973</DistanceMeters>
          </Trackpoint>
          <Trackpoint>
            <Time>2018-09-14T13:52:48.000Z</Time>
            <Position>
              <LatitudeDegrees>37.7874093689024448394775390625</LatitudeDegrees>
              <LongitudeDegrees>-8.100478760898113250732421875</LongitudeDegrees>
            </Position>
            <AltitudeMeters>195.600006103515625</AltitudeMeters>
            <DistanceMeters>287481.70616968</DistanceMeters>
          </Trackpoint>
          <Trackpoint>
            <Time>2018-09-14T13:52:49.000Z</Time>
            <Position>
              <LatitudeDegrees>37.78731792233884334564208984375</LatitudeDegrees>
              <LongitudeDegrees>-8.10046224854886531829833984375</LongitudeDegrees>
            </Position>
            <AltitudeMeters>195.8000030517578125</AltitudeMeters>
            <DistanceMeters>287491.98751564</DistanceMeters>
          </Trackpoint>
          <Trackpoint>
            <Time>2018-09-14T13:52:50.000Z</Time>
            <Position>
              <LatitudeDegrees>37.787226475775241851806640625</LatitudeDegrees>
              <LongitudeDegrees>-8.100444562733173370361328125</LongitudeDegrees>
            </Position>
            <AltitudeMeters>195.8000030517578125</AltitudeMeters>
            <DistanceMeters>287502.28378183</DistanceMeters>
          </Trackpoint>
          <Trackpoint>
            <Time>2018-09-14T13:52:51.000Z</Time>
            <Position>
              <LatitudeDegrees>37.7871351130306720733642578125</LatitudeDegrees>
              <LongitudeDegrees>-8.100426457822322845458984375</LongitudeDegrees>
            </Position>
            <AltitudeMeters>196</AltitudeMeters>
            <DistanceMeters>287512.57653933</DistanceMeters>
          </Trackpoint>
          <Trackpoint>
            <Time>2018-09-14T13:52:52.000Z</Time>
            <Position>
              <LatitudeDegrees>37.787043750286102294921875</LatitudeDegrees>
              <LongitudeDegrees>-8.100408017635345458984375</LongitudeDegrees>
            </Position>
            <AltitudeMeters>196.1999969482421875</AltitudeMeters>
            <DistanceMeters>287522.8736825</DistanceMeters>
          </Trackpoint>
          <Trackpoint>
            <Time>2018-09-14T13:52:53.000Z</Time>
            <Position>
              <LatitudeDegrees>37.78695230372250080108642578125</LatitudeDegrees>
              <LongitudeDegrees>-8.1003900803625583648681640625</LongitudeDegrees>
            </Position>
            <AltitudeMeters>196.399993896484375</AltitudeMeters>
            <DistanceMeters>287533.17301782</DistanceMeters>
          </Trackpoint>
          <Trackpoint>
            <Time>2018-09-14T13:52:54.000Z</Time>
            <Position>
              <LatitudeDegrees>37.7868608571588993072509765625</LatitudeDegrees>
              <LongitudeDegrees>-8.1003723107278347015380859375</LongitudeDegrees>
            </Position>
            <AltitudeMeters>196.600006103515625</AltitudeMeters>
            <DistanceMeters>287543.470161</DistanceMeters>
          </Trackpoint>
          <Trackpoint>
            <Time>2018-09-14T13:52:55.000Z</Time>
            <Position>
              <LatitudeDegrees>37.78676949441432952880859375</LatitudeDegrees>
              <LongitudeDegrees>-8.10035361908376216888427734375</LongitudeDegrees>
            </Position>
            <AltitudeMeters>196.8000030517578125</AltitudeMeters>
            <DistanceMeters>287553.77081138</DistanceMeters>
          </Trackpoint>
          <Trackpoint>
            <Time>2018-09-14T13:52:56.000Z</Time>
            <Position>
              <LatitudeDegrees>37.78667855076491832733154296875</LatitudeDegrees>
              <LongitudeDegrees>-8.10033618472516536712646484375</LongitudeDegrees>
            </Position>
            <AltitudeMeters>197</AltitudeMeters>
            <DistanceMeters>287564.0081483</DistanceMeters>
          </Trackpoint>
          <Trackpoint>
            <Time>2018-09-14T13:52:57.000Z</Time>
            <Position>
              <LatitudeDegrees>37.78658802621066570281982421875</LatitudeDegrees>
              <LongitudeDegrees>-8.10031908564269542694091796875</LongitudeDegrees>
            </Position>
            <AltitudeMeters>196.8000030517578125</AltitudeMeters>
            <DistanceMeters>287574.19508299</DistanceMeters>
          </Trackpoint>
          <Trackpoint>
            <Time>2018-09-14T13:52:58.000Z</Time>
            <Position>
              <LatitudeDegrees>37.78649800457060337066650390625</LatitudeDegrees>
              <LongitudeDegrees>-8.1003019027411937713623046875</LongitudeDegrees>
            </Position>
            <AltitudeMeters>196.8000030517578125</AltitudeMeters>
            <DistanceMeters>287584.32780075</DistanceMeters>
          </Trackpoint>
          <Trackpoint>
            <Time>2018-09-14T13:52:59.000Z</Time>
            <Position>
              <LatitudeDegrees>37.78640882112085819244384765625</LatitudeDegrees>
              <LongitudeDegrees>-8.1002844683825969696044921875</LongitudeDegrees>
            </Position>
            <AltitudeMeters>197.399993896484375</AltitudeMeters>
            <DistanceMeters>287594.37145466</DistanceMeters>
          </Trackpoint>
          <Trackpoint>
            <Time>2018-09-14T13:53:00.000Z</Time>
            <Position>
              <LatitudeDegrees>37.78631997294723987579345703125</LatitudeDegrees>
              <LongitudeDegrees>-8.10026787221431732177734375</LongitudeDegrees>
            </Position>
            <AltitudeMeters>197.8000030517578125</AltitudeMeters>
            <DistanceMeters>287604.36779529</DistanceMeters>
          </Trackpoint>
          <Trackpoint>
            <Time>2018-09-14T13:53:01.000Z</Time>
            <Position>
              <LatitudeDegrees>37.78623095713555812835693359375</LatitudeDegrees>
              <LongitudeDegrees>-8.10025102458894252777099609375</LongitudeDegrees>
            </Position>
            <AltitudeMeters>198.399993896484375</AltitudeMeters>
            <DistanceMeters>287614.38579258</DistanceMeters>
          </Trackpoint>
          <Trackpoint>
            <Time>2018-09-14T13:53:02.000Z</Time>
            <Position>
              <LatitudeDegrees>37.786142863333225250244140625</LatitudeDegrees>
              <LongitudeDegrees>-8.10023300349712371826171875</LongitudeDegrees>
            </Position>
            <AltitudeMeters>199</AltitudeMeters>
            <DistanceMeters>287624.31824369</DistanceMeters>
          </Trackpoint>
          <Trackpoint>
            <Time>2018-09-14T13:53:03.000Z</Time>
            <Position>
              <LatitudeDegrees>37.78605527244508266448974609375</LatitudeDegrees>
              <LongitudeDegrees>-8.1002147309482097625732421875</LongitudeDegrees>
            </Position>
            <AltitudeMeters>199.399993896484375</AltitudeMeters>
            <DistanceMeters>287634.19873742</DistanceMeters>
          </Trackpoint>
          <Trackpoint>
            <Time>2018-09-14T13:53:04.000Z</Time>
            <Position>
              <LatitudeDegrees>37.7859683521091938018798828125</LatitudeDegrees>
              <LongitudeDegrees>-8.1001969613134860992431640625</LongitudeDegrees>
            </Position>
            <AltitudeMeters>200</AltitudeMeters>
            <DistanceMeters>287643.99801459</DistanceMeters>
          </Trackpoint>
          <Trackpoint>
            <Time>2018-09-14T13:53:05.000Z</Time>
            <Position>
              <LatitudeDegrees>37.78588235378265380859375</LatitudeDegrees>
              <LongitudeDegrees>-8.10017910785973072052001953125</LongitudeDegrees>
            </Position>
            <AltitudeMeters>200.600006103515625</AltitudeMeters>
            <DistanceMeters>287653.69772419</DistanceMeters>
          </Trackpoint>
          <Trackpoint>
            <Time>2018-09-14T13:53:06.000Z</Time>
            <Position>
              <LatitudeDegrees>37.78579727746546268463134765625</LatitudeDegrees>
              <LongitudeDegrees>-8.1001620925962924957275390625</LongitudeDegrees>
            </Position>
            <AltitudeMeters>200.600006103515625</AltitudeMeters>
            <DistanceMeters>287663.2836544</DistanceMeters>
          </Trackpoint>
          <Trackpoint>
            <Time>2018-09-14T13:53:07.000Z</Time>
            <Position>
              <LatitudeDegrees>37.78571329079568386077880859375</LatitudeDegrees>
              <LongitudeDegrees>-8.10014625079929828643798828125</LongitudeDegrees>
            </Position>
            <AltitudeMeters>200.600006103515625</AltitudeMeters>
            <DistanceMeters>287672.73439438</DistanceMeters>
          </Trackpoint>
          <Trackpoint>
            <Time>2018-09-14T13:53:08.000Z</Time>
            <Position>
              <LatitudeDegrees>37.78563030995428562164306640625</LatitudeDegrees>
              <LongitudeDegrees>-8.10013183392584323883056640625</LongitudeDegrees>
            </Position>
            <AltitudeMeters>200.8000030517578125</AltitudeMeters>
            <DistanceMeters>287682.05670395</DistanceMeters>
          </Trackpoint>
          <Trackpoint>
            <Time>2018-09-14T13:53:09.000Z</Time>
            <Position>
              <LatitudeDegrees>37.785548754036426544189453125</LatitudeDegrees>
              <LongitudeDegrees>-8.1001175008714199066162109375</LongitudeDegrees>
            </Position>
            <AltitudeMeters>200.8000030517578125</AltitudeMeters>
            <DistanceMeters>287691.22074841</DistanceMeters>
          </Trackpoint>
          <Trackpoint>
            <Time>2018-09-14T13:53:10.000Z</Time>
            <Position>
              <LatitudeDegrees>37.7854677848517894744873046875</LatitudeDegrees>
              <LongitudeDegrees>-8.10010383836925029754638671875</LongitudeDegrees>
            </Position>
            <AltitudeMeters>201</AltitudeMeters>
            <DistanceMeters>287700.3125755</DistanceMeters>
          </Trackpoint>
          <Trackpoint>
            <Time>2018-09-14T13:53:11.000Z</Time>
            <Position>
              <LatitudeDegrees>37.78538790531456470489501953125</LatitudeDegrees>
              <LongitudeDegrees>-8.10008942149579524993896484375</LongitudeDegrees>
            </Position>
            <AltitudeMeters>201</AltitudeMeters>
            <DistanceMeters>287709.29347984</DistanceMeters>
          </Trackpoint>
          <Trackpoint>
            <Time>2018-09-14T13:53:12.000Z</Time>
            <Position>
              <LatitudeDegrees>37.78530945070087909698486328125</LatitudeDegrees>
              <LongitudeDegrees>-8.10007399879395961761474609375</LongitudeDegrees>
            </Position>
            <AltitudeMeters>201</AltitudeMeters>
            <DistanceMeters>287718.13045336</DistanceMeters>
          </Trackpoint>
          <Trackpoint>
            <Time>2018-09-14T13:53:13.000Z</Time>
            <Position>
              <LatitudeDegrees>37.78523367829620838165283203125</LatitudeDegrees>
              <LongitudeDegrees>-8.10005824081599712371826171875</LongitudeDegrees>
            </Position>
            <AltitudeMeters>200.8000030517578125</AltitudeMeters>
            <DistanceMeters>287726.67757676</DistanceMeters>
          </Trackpoint>
          <Trackpoint>
            <Time>2018-09-14T13:53:14.000Z</Time>
            <Position>
              <LatitudeDegrees>37.78516016900539398193359375</LatitudeDegrees>
              <LongitudeDegrees>-8.1000440753996372222900390625</LongitudeDegrees>
            </Position>
            <AltitudeMeters>200.8000030517578125</AltitudeMeters>
            <DistanceMeters>287734.95417993</DistanceMeters>
          </Trackpoint>
          <Trackpoint>
            <Time>2018-09-14T13:53:15.000Z</Time>
            <Position>
              <LatitudeDegrees>37.78508816845715045928955078125</LatitudeDegrees>
              <LongitudeDegrees>-8.10003049671649932861328125</LongitudeDegrees>
            </Position>
            <AltitudeMeters>200.8000030517578125</AltitudeMeters>
            <DistanceMeters>287743.05656573</DistanceMeters>
          </Trackpoint>
          <Trackpoint>
            <Time>2018-09-14T13:53:16.000Z</Time>
            <Position>
              <LatitudeDegrees>37.7850175090134143829345703125</LatitudeDegrees>
              <LongitudeDegrees>-8.10001582838594913482666015625</LongitudeDegrees>
            </Position>
            <AltitudeMeters>200.600006103515625</AltitudeMeters>
            <DistanceMeters>287751.02635605</DistanceMeters>
          </Trackpoint>
          <Trackpoint>
            <Time>2018-09-14T13:53:17.000Z</Time>
            <Position>
              <LatitudeDegrees>37.78494919650256633758544921875</LatitudeDegrees>
              <LongitudeDegrees>-8.1000011600553989410400390625</LongitudeDegrees>
            </Position>
            <AltitudeMeters>200.600006103515625</AltitudeMeters>
            <DistanceMeters>287758.73817059</DistanceMeters>
          </Trackpoint>
          <Trackpoint>
            <Time>2018-09-14T13:53:18.000Z</Time>
            <Position>
              <LatitudeDegrees>37.7848823927342891693115234375</LatitudeDegrees>
              <LongitudeDegrees>-8.09998691082000732421875</LongitudeDegrees>
            </Position>
            <AltitudeMeters>200.600006103515625</AltitudeMeters>
            <DistanceMeters>287766.27828738</DistanceMeters>
          </Trackpoint>
          <Trackpoint>
            <Time>2018-09-14T13:53:19.000Z</Time>
            <Position>
              <LatitudeDegrees>37.78481726534664630889892578125</LatitudeDegrees>
              <LongitudeDegrees>-8.09997358359396457672119140625</LongitudeDegrees>
            </Position>
            <AltitudeMeters>200.600006103515625</AltitudeMeters>
            <DistanceMeters>287773.62121503</DistanceMeters>
          </Trackpoint>
          <Trackpoint>
            <Time>2018-09-14T13:53:20.000Z</Time>
            <Position>
              <LatitudeDegrees>37.78475406579673290252685546875</LatitudeDegrees>
              <LongitudeDegrees>-8.09996151365339756011962890625</LongitudeDegrees>
            </Position>
            <AltitudeMeters>200.600006103515625</AltitudeMeters>
            <DistanceMeters>287780.73490243</DistanceMeters>
          </Trackpoint>
          <Trackpoint>
            <Time>2018-09-14T13:53:21.000Z</Time>
            <Position>
              <LatitudeDegrees>37.7846912853419780731201171875</LatitudeDegrees>
              <LongitudeDegrees>-8.09994961135089397430419921875</LongitudeDegrees>
            </Position>
            <AltitudeMeters>200.8000030517578125</AltitudeMeters>
            <DistanceMeters>287787.80018817</DistanceMeters>
          </Trackpoint>
          <Trackpoint>
            <Time>2018-09-14T13:53:22.000Z</Time>
            <Position>
              <LatitudeDegrees>37.78462909162044525146484375</LatitudeDegrees>
              <LongitudeDegrees>-8.09993804432451725006103515625</LongitudeDegrees>
            </Position>
            <AltitudeMeters>200.8000030517578125</AltitudeMeters>
            <DistanceMeters>287794.79676193</DistanceMeters>
          </Trackpoint>
          <Trackpoint>
            <Time>2018-09-14T13:53:23.000Z</Time>
            <Position>
              <LatitudeDegrees>37.7845679037272930145263671875</LatitudeDegrees>
              <LongitudeDegrees>-8.09992723166942596435546875</LongitudeDegrees>
            </Position>
            <AltitudeMeters>200.8000030517578125</AltitudeMeters>
            <DistanceMeters>287801.67291494</DistanceMeters>
          </Trackpoint>
          <Trackpoint>
            <Time>2018-09-14T13:53:24.000Z</Time>
            <Position>
              <LatitudeDegrees>37.7845077216625213623046875</LatitudeDegrees>
              <LongitudeDegrees>-8.09991625137627124786376953125</LongitudeDegrees>
            </Position>
            <AltitudeMeters>200.8000030517578125</AltitudeMeters>
            <DistanceMeters>287808.44052514</DistanceMeters>
          </Trackpoint>
          <Trackpoint>
            <Time>2018-09-14T13:53:25.000Z</Time>
            <Position>
              <LatitudeDegrees>37.7844485454261302947998046875</LatitudeDegrees>
              <LongitudeDegrees>-8.0999051034450531005859375</LongitudeDegrees>
            </Position>
            <AltitudeMeters>200.8000030517578125</AltitudeMeters>
            <DistanceMeters>287815.0985012</DistanceMeters>
          </Trackpoint>
          <Trackpoint>
            <Time>2018-09-14T13:53:26.000Z</Time>
            <Position>
              <LatitudeDegrees>37.784390039741992950439453125</LatitudeDegrees>
              <LongitudeDegrees>-8.09989345259964466094970703125</LongitudeDegrees>
            </Position>
            <AltitudeMeters>201</AltitudeMeters>
            <DistanceMeters>287821.68968454</DistanceMeters>
          </Trackpoint>
          <Trackpoint>
            <Time>2018-09-14T13:53:27.000Z</Time>
            <Position>
              <LatitudeDegrees>37.78433312661945819854736328125</LatitudeDegrees>
              <LongitudeDegrees>-8.09988205321133136749267578125</LongitudeDegrees>
            </Position>
            <AltitudeMeters>201.399993896484375</AltitudeMeters>
            <DistanceMeters>287828.10240378</DistanceMeters>
          </Trackpoint>
          <Trackpoint>
            <Time>2018-09-14T13:53:28.000Z</Time>
            <Position>
              <LatitudeDegrees>37.7842770516872406005859375</LatitudeDegrees>
              <LongitudeDegrees>-8.09987048618495464324951171875</LongitudeDegrees>
            </Position>
            <AltitudeMeters>201.8000030517578125</AltitudeMeters>
            <DistanceMeters>287834.42578725</DistanceMeters>
          </Trackpoint>
          <Trackpoint>
            <Time>2018-09-14T13:53:29.000Z</Time>
            <Position>
              <LatitudeDegrees>37.78422215022146701812744140625</LatitudeDegrees>
              <LongitudeDegrees>-8.0998596735298633575439453125</LongitudeDegrees>
            </Position>
            <AltitudeMeters>202.1999969482421875</AltitudeMeters>
            <DistanceMeters>287840.60982911</DistanceMeters>
          </Trackpoint>
          <Trackpoint>
            <Time>2018-09-14T13:53:30.000Z</Time>
            <Position>
              <LatitudeDegrees>37.78416775166988372802734375</LatitudeDegrees>
              <LongitudeDegrees>-8.09985020197927951812744140625</LongitudeDegrees>
            </Position>
            <AltitudeMeters>202.399993896484375</AltitudeMeters>
            <DistanceMeters>287846.72116253</DistanceMeters>
          </Trackpoint>
          <Trackpoint>
            <Time>2018-09-14T13:53:31.000Z</Time>
            <Position>
              <LatitudeDegrees>37.7841134369373321533203125</LatitudeDegrees>
              <LongitudeDegrees>-8.099840395152568817138671875</LongitudeDegrees>
            </Position>
            <AltitudeMeters>202.600006103515625</AltitudeMeters>
            <DistanceMeters>287852.82658271</DistanceMeters>
          </Trackpoint>
          <Trackpoint>
            <Time>2018-09-14T13:53:32.000Z</Time>
            <Position>
              <LatitudeDegrees>37.78405970893800258636474609375</LatitudeDegrees>
              <LongitudeDegrees>-8.09983008541166782379150390625</LongitudeDegrees>
            </Position>
            <AltitudeMeters>202.8000030517578125</AltitudeMeters>
            <DistanceMeters>287858.87404578</DistanceMeters>
          </Trackpoint>
          <Trackpoint>
            <Time>2018-09-14T13:53:33.000Z</Time>
            <Position>
              <LatitudeDegrees>37.784006483852863311767578125</LatitudeDegrees>
              <LongitudeDegrees>-8.09981985948979854583740234375</LongitudeDegrees>
            </Position>
            <AltitudeMeters>203</AltitudeMeters>
            <DistanceMeters>287864.86525216</DistanceMeters>
          </Trackpoint>
          <Trackpoint>
            <Time>2018-09-14T13:53:34.000Z</Time>
            <Position>
              <LatitudeDegrees>37.7839536778628826141357421875</LatitudeDegrees>
              <LongitudeDegrees>-8.0998083762824535369873046875</LongitudeDegrees>
            </Position>
            <AltitudeMeters>203.1999969482421875</AltitudeMeters>
            <DistanceMeters>287870.82850975</DistanceMeters>
          </Trackpoint>
          <Trackpoint>
            <Time>2018-09-14T13:53:35.000Z</Time>
            <Position>
              <LatitudeDegrees>37.783900536596775054931640625</LatitudeDegrees>
              <LongitudeDegrees>-8.099797479808330535888671875</LongitudeDegrees>
            </Position>
            <AltitudeMeters>203.399993896484375</AltitudeMeters>
            <DistanceMeters>287876.82197653</DistanceMeters>
          </Trackpoint>
          <Trackpoint>
            <Time>2018-09-14T13:53:36.000Z</Time>
            <Position>
              <LatitudeDegrees>37.78384731151163578033447265625</LatitudeDegrees>
              <LongitudeDegrees>-8.09978633187711238861083984375</LongitudeDegrees>
            </Position>
            <AltitudeMeters>203.600006103515625</AltitudeMeters>
            <DistanceMeters>287882.82673258</DistanceMeters>
          </Trackpoint>
          <Trackpoint>
            <Time>2018-09-14T13:53:37.000Z</Time>
            <Position>
              <LatitudeDegrees>37.783794589340686798095703125</LatitudeDegrees>
              <LongitudeDegrees>-8.09977392666041851043701171875</LongitudeDegrees>
            </Position>
            <AltitudeMeters>204</AltitudeMeters>
            <DistanceMeters>287888.79528781</DistanceMeters>
          </Trackpoint>
          <Trackpoint>
            <Time>2018-09-14T13:53:38.000Z</Time>
            <Position>
              <LatitudeDegrees>37.783742286264896392822265625</LatitudeDegrees>
              <LongitudeDegrees>-8.09976051561534404754638671875</LongitudeDegrees>
            </Position>
            <AltitudeMeters>204.1999969482421875</AltitudeMeters>
            <DistanceMeters>287894.7350276</DistanceMeters>
          </Trackpoint>
          <Trackpoint>
            <Time>2018-09-14T13:53:39.000Z</Time>
            <Position>
              <LatitudeDegrees>37.78368989937007427215576171875</LatitudeDegrees>
              <LongitudeDegrees>-8.0997490324079990386962890625</LongitudeDegrees>
            </Position>
            <AltitudeMeters>204.1999969482421875</AltitudeMeters>
            <DistanceMeters>287900.65268224</DistanceMeters>
          </Trackpoint>
          <Trackpoint>
            <Time>2018-09-14T13:53:40.000Z</Time>
            <Position>
              <LatitudeDegrees>37.783637009561061859130859375</LatitudeDegrees>
              <LongitudeDegrees>-8.09973922558128833770751953125</LongitudeDegrees>
            </Position>
            <AltitudeMeters>204.1999969482421875</AltitudeMeters>
            <DistanceMeters>287906.60077769</DistanceMeters>
          </Trackpoint>
          <Trackpoint>
            <Time>2018-09-14T13:53:41.000Z</Time>
            <Position>
              <LatitudeDegrees>37.78358344919979572296142578125</LatitudeDegrees>
              <LongitudeDegrees>-8.09972983784973621368408203125</LongitudeDegrees>
            </Position>
            <AltitudeMeters>204.399993896484375</AltitudeMeters>
            <DistanceMeters>287912.61980308</DistanceMeters>
          </Trackpoint>
          <Trackpoint>
            <Time>2018-09-14T13:53:42.000Z</Time>
            <Position>
              <LatitudeDegrees>37.78352963738143444061279296875</LatitudeDegrees>
              <LongitudeDegrees>-8.09972128830850124359130859375</LongitudeDegrees>
            </Position>
            <AltitudeMeters>204.399993896484375</AltitudeMeters>
            <DistanceMeters>287918.65530873</DistanceMeters>
          </Trackpoint>
          <Trackpoint>
            <Time>2018-09-14T13:53:43.000Z</Time>
            <Position>
              <LatitudeDegrees>37.78347565792500972747802734375</LatitudeDegrees>
              <LongitudeDegrees>-8.0997119843959808349609375</LongitudeDegrees>
            </Position>
            <AltitudeMeters>204.399993896484375</AltitudeMeters>
            <DistanceMeters>287924.71768542</DistanceMeters>
          </Trackpoint>
          <Trackpoint>
            <Time>2018-09-14T13:53:44.000Z</Time>
            <Position>
              <LatitudeDegrees>37.78342084027826786041259765625</LatitudeDegrees>
              <LongitudeDegrees>-8.099700920283794403076171875</LongitudeDegrees>
            </Position>
            <AltitudeMeters>204.399993896484375</AltitudeMeters>
            <DistanceMeters>287930.89661438</DistanceMeters>
          </Trackpoint>
          <Trackpoint>
            <Time>2018-09-14T13:53:45.000Z</Time>
            <Position>
              <LatitudeDegrees>37.78336518444120883941650390625</LatitudeDegrees>
              <LongitudeDegrees>-8.099690191447734832763671875</LongitudeDegrees>
            </Position>
            <AltitudeMeters>204.399993896484375</AltitudeMeters>
            <DistanceMeters>287937.16261569</DistanceMeters>
          </Trackpoint>
          <Trackpoint>
            <Time>2018-09-14T13:53:46.000Z</Time>
            <Position>
              <LatitudeDegrees>37.78330810368061065673828125</LatitudeDegrees>
              <LongitudeDegrees>-8.0996803008019924163818359375</LongitudeDegrees>
            </Position>
            <AltitudeMeters>204.1999969482421875</AltitudeMeters>
            <DistanceMeters>287943.57463082</DistanceMeters>
          </Trackpoint>
          <Trackpoint>
            <Time>2018-09-14T13:53:47.000Z</Time>
            <Position>
              <LatitudeDegrees>37.78324917890131473541259765625</LatitudeDegrees>
              <LongitudeDegrees>-8.09967099688947200775146484375</LongitudeDegrees>
            </Position>
            <AltitudeMeters>203.8000030517578125</AltitudeMeters>
            <DistanceMeters>287950.1842836</DistanceMeters>
          </Trackpoint>
          <Trackpoint>
            <Time>2018-09-14T13:53:48.000Z</Time>
            <Position>
              <LatitudeDegrees>37.7831902541220188140869140625</LatitudeDegrees>
              <LongitudeDegrees>-8.09966144151985645294189453125</LongitudeDegrees>
            </Position>
            <AltitudeMeters>203.600006103515625</AltitudeMeters>
            <DistanceMeters>287956.7966682</DistanceMeters>
          </Trackpoint>
          <Trackpoint>
            <Time>2018-09-14T13:53:49.000Z</Time>
            <Position>
              <LatitudeDegrees>37.7831312455236911773681640625</LatitudeDegrees>
              <LongitudeDegrees>-8.099649287760257720947265625</LongitudeDegrees>
            </Position>
            <AltitudeMeters>203.1999969482421875</AltitudeMeters>
            <DistanceMeters>287963.45125271</DistanceMeters>
          </Trackpoint>
          <Trackpoint>
            <Time>2018-09-14T13:53:50.000Z</Time>
            <Position>
              <LatitudeDegrees>37.78307198546826839447021484375</LatitudeDegrees>
              <LongitudeDegrees>-8.0996368825435638427734375</LongitudeDegrees>
            </Position>
            <AltitudeMeters>203</AltitudeMeters>
            <DistanceMeters>287970.13629933</DistanceMeters>
          </Trackpoint>
          <Trackpoint>
            <Time>2018-09-14T13:53:51.000Z</Time>
            <Position>
              <LatitudeDegrees>37.78301247395575046539306640625</LatitudeDegrees>
              <LongitudeDegrees>-8.0996249802410602569580078125</LongitudeDegrees>
            </Position>
            <AltitudeMeters>202.600006103515625</AltitudeMeters>
            <DistanceMeters>287976.84225047</DistanceMeters>
          </Trackpoint>
          <Trackpoint>
            <Time>2018-09-14T13:53:52.000Z</Time>
            <Position>
              <LatitudeDegrees>37.78295229189097881317138671875</LatitudeDegrees>
              <LongitudeDegrees>-8.0996127426624298095703125</LongitudeDegrees>
            </Position>
            <AltitudeMeters>202.600006103515625</AltitudeMeters>
            <DistanceMeters>287983.62585346</DistanceMeters>
          </Trackpoint>
          <Trackpoint>
            <Time>2018-09-14T13:53:53.000Z</Time>
            <Position>
              <LatitudeDegrees>37.78289076872169971466064453125</LatitudeDegrees>
              <LongitudeDegrees>-8.09960109181702136993408203125</LongitudeDegrees>
            </Position>
            <AltitudeMeters>202.399993896484375</AltitudeMeters>
            <DistanceMeters>287990.54912189</DistanceMeters>
          </Trackpoint>
          <Trackpoint>
            <Time>2018-09-14T13:53:54.000Z</Time>
            <Position>
              <LatitudeDegrees>37.7828274853527545928955078125</LatitudeDegrees>
              <LongitudeDegrees>-8.099589608609676361083984375</LongitudeDegrees>
            </Position>
            <AltitudeMeters>202.1999969482421875</AltitudeMeters>
            <DistanceMeters>287997.66471312</DistanceMeters>
          </Trackpoint>
          <Trackpoint>
            <Time>2018-09-14T13:53:55.000Z</Time>
            <Position>
              <LatitudeDegrees>37.78276286087930202484130859375</LatitudeDegrees>
              <LongitudeDegrees>-8.09957745485007762908935546875</LongitudeDegrees>
            </Position>
            <AltitudeMeters>202.1999969482421875</AltitudeMeters>
            <DistanceMeters>288004.93658549</DistanceMeters>
          </Trackpoint>
          <Trackpoint>
            <Time>2018-09-14T13:53:56.000Z</Time>
            <Position>
              <LatitudeDegrees>37.78269630856812000274658203125</LatitudeDegrees>
              <LongitudeDegrees>-8.09956488199532032012939453125</LongitudeDegrees>
            </Position>
            <AltitudeMeters>202</AltitudeMeters>
            <DistanceMeters>288012.426234</DistanceMeters>
          </Trackpoint>
          <Trackpoint>
            <Time>2018-09-14T13:53:57.000Z</Time>
            <Position>
              <LatitudeDegrees>37.7826273255050182342529296875</LatitudeDegrees>
              <LongitudeDegrees>-8.0995528958737850189208984375</LongitudeDegrees>
            </Position>
            <AltitudeMeters>201.8000030517578125</AltitudeMeters>
            <DistanceMeters>288020.17659325</DistanceMeters>
          </Trackpoint>
          <Trackpoint>
            <Time>2018-09-14T13:53:58.000Z</Time>
            <Position>
              <LatitudeDegrees>37.7825559116899967193603515625</LatitudeDegrees>
              <LongitudeDegrees>-8.0995411612093448638916015625</LongitudeDegrees>
            </Position>
            <AltitudeMeters>201.600006103515625</AltitudeMeters>
            <DistanceMeters>288028.19157696</DistanceMeters>
          </Trackpoint>
          <Trackpoint>
            <Time>2018-09-14T13:53:59.000Z</Time>
            <Position>
              <LatitudeDegrees>37.78248189948499202728271484375</LatitudeDegrees>
              <LongitudeDegrees>-8.09952800162136554718017578125</LongitudeDegrees>
            </Position>
            <AltitudeMeters>201.1999969482421875</AltitudeMeters>
            <DistanceMeters>288036.51062173</DistanceMeters>
          </Trackpoint>
          <Trackpoint>
            <Time>2018-09-14T13:54:00.000Z</Time>
            <Position>
              <LatitudeDegrees>37.7824057079851627349853515625</LatitudeDegrees>
              <LongitudeDegrees>-8.0995133332908153533935546875</LongitudeDegrees>
            </Position>
            <AltitudeMeters>200.8000030517578125</AltitudeMeters>
            <DistanceMeters>288045.08832905</DistanceMeters>
          </Trackpoint>
          <Trackpoint>
            <Time>2018-09-14T13:54:01.000Z</Time>
            <Position>
              <LatitudeDegrees>37.78232800774276256561279296875</LatitudeDegrees>
              <LongitudeDegrees>-8.0994975753128528594970703125</LongitudeDegrees>
            </Position>
            <AltitudeMeters>200.399993896484375</AltitudeMeters>
            <DistanceMeters>288053.84678207</DistanceMeters>
          </Trackpoint>
          <Trackpoint>
            <Time>2018-09-14T13:54:02.000Z</Time>
            <Position>
              <LatitudeDegrees>37.7822484634816646575927734375</LatitudeDegrees>
              <LongitudeDegrees>-8.09948223643004894256591796875</LongitudeDegrees>
            </Position>
            <AltitudeMeters>200.1999969482421875</AltitudeMeters>
            <DistanceMeters>288062.80251426</DistanceMeters>
          </Trackpoint>
          <Trackpoint>
            <Time>2018-09-14T13:54:03.000Z</Time>
            <Position>
              <LatitudeDegrees>37.782167829573154449462890625</LatitudeDegrees>
              <LongitudeDegrees>-8.09946681372821331024169921875</LongitudeDegrees>
            </Position>
            <AltitudeMeters>200.1999969482421875</AltitudeMeters>
            <DistanceMeters>288071.87943099</DistanceMeters>
          </Trackpoint>
          <Trackpoint>
            <Time>2018-09-14T13:54:04.000Z</Time>
            <Position>
              <LatitudeDegrees>37.7820865251123905181884765625</LatitudeDegrees>
              <LongitudeDegrees>-8.09945206157863140106201171875</LongitudeDegrees>
            </Position>
            <AltitudeMeters>200</AltitudeMeters>
            <DistanceMeters>288081.02177137</DistanceMeters>
          </Trackpoint>
          <Trackpoint>
            <Time>2018-09-14T13:54:05.000Z</Time>
            <Position>
              <LatitudeDegrees>37.78200429864227771759033203125</LatitudeDegrees>
              <LongitudeDegrees>-8.0994368903338909149169921875</LongitudeDegrees>
            </Position>
            <AltitudeMeters>199.8000030517578125</AltitudeMeters>
            <DistanceMeters>288090.26968216</DistanceMeters>
          </Trackpoint>
          <Trackpoint>
            <Time>2018-09-14T13:54:06.000Z</Time>
            <Position>
              <LatitudeDegrees>37.78192148543894290924072265625</LatitudeDegrees>
              <LongitudeDegrees>-8.0994196236133575439453125</LongitudeDegrees>
            </Position>
            <AltitudeMeters>199.8000030517578125</AltitudeMeters>
            <DistanceMeters>288099.61037799</DistanceMeters>
          </Trackpoint>
          <Trackpoint>
            <Time>2018-09-14T13:54:07.000Z</Time>
            <Position>
              <LatitudeDegrees>37.78183800168335437774658203125</LatitudeDegrees>
              <LongitudeDegrees>-8.0994033627212047576904296875</LongitudeDegrees>
            </Position>
            <AltitudeMeters>199.600006103515625</AltitudeMeters>
            <DistanceMeters>288109.01178152</DistanceMeters>
          </Trackpoint>
          <Trackpoint>
            <Time>2018-09-14T13:54:08.000Z</Time>
            <Position>
              <LatitudeDegrees>37.78175242245197296142578125</LatitudeDegrees>
              <LongitudeDegrees>-8.09939003549516201019287109375</LongitudeDegrees>
            </Position>
            <AltitudeMeters>199.399993896484375</AltitudeMeters>
            <DistanceMeters>288118.60806828</DistanceMeters>
          </Trackpoint>
          <Trackpoint>
            <Time>2018-09-14T13:54:09.000Z</Time>
            <Position>
              <LatitudeDegrees>37.7816647477447986602783203125</LatitudeDegrees>
              <LongitudeDegrees>-8.0993758700788021087646484375</LongitudeDegrees>
            </Position>
            <AltitudeMeters>199.399993896484375</AltitudeMeters>
            <DistanceMeters>288128.44597249</DistanceMeters>
          </Trackpoint>
          <Trackpoint>
            <Time>2018-09-14T13:54:10.000Z</Time>
            <Position>
              <LatitudeDegrees>37.78157531283795833587646484375</LatitudeDegrees>
              <LongitudeDegrees>-8.09935969300568103790283203125</LongitudeDegrees>
            </Position>
            <AltitudeMeters>199.1999969482421875</AltitudeMeters>
            <DistanceMeters>288138.50130769</DistanceMeters>
          </Trackpoint>
          <Trackpoint>
            <Time>2018-09-14T13:54:11.000Z</Time>
            <Position>
              <LatitudeDegrees>37.7814843691885471343994140625</LatitudeDegrees>
              <LongitudeDegrees>-8.09934125281870365142822265625</LongitudeDegrees>
            </Position>
            <AltitudeMeters>198.8000030517578125</AltitudeMeters>
            <DistanceMeters>288148.75274806</DistanceMeters>
          </Trackpoint>
          <Trackpoint>
            <Time>2018-09-14T13:54:12.000Z</Time>
            <Position>
              <LatitudeDegrees>37.7813923358917236328125</LatitudeDegrees>
              <LongitudeDegrees>-8.09932096861302852630615234375</LongitudeDegrees>
            </Position>
            <AltitudeMeters>198.399993896484375</AltitudeMeters>
            <DistanceMeters>288159.15025137</DistanceMeters>
          </Trackpoint>
          <Trackpoint>
            <Time>2018-09-14T13:54:13.000Z</Time>
            <Position>
              <LatitudeDegrees>37.78129912912845611572265625</LatitudeDegrees>
              <LongitudeDegrees>-8.09930169023573398590087890625</LongitudeDegrees>
            </Position>
            <AltitudeMeters>198</AltitudeMeters>
            <DistanceMeters>288169.66262863</DistanceMeters>
          </Trackpoint>
          <Trackpoint>
            <Time>2018-09-14T13:54:14.000Z</Time>
            <Position>
              <LatitudeDegrees>37.78120483271777629852294921875</LatitudeDegrees>
              <LongitudeDegrees>-8.09928274713456630706787109375</LongitudeDegrees>
            </Position>
            <AltitudeMeters>197.600006103515625</AltitudeMeters>
            <DistanceMeters>288180.28948781</DistanceMeters>
          </Trackpoint>
          <Trackpoint>
            <Time>2018-09-14T13:54:15.000Z</Time>
            <Position>
              <LatitudeDegrees>37.78110978193581104278564453125</LatitudeDegrees>
              <LongitudeDegrees>-8.09926430694758892059326171875</LongitudeDegrees>
            </Position>
            <AltitudeMeters>197</AltitudeMeters>
            <DistanceMeters>288190.99212859</DistanceMeters>
          </Trackpoint>
          <Trackpoint>
            <Time>2018-09-14T13:54:16.000Z</Time>
            <Position>
              <LatitudeDegrees>37.78101339004933834075927734375</LatitudeDegrees>
              <LongitudeDegrees>-8.0992451123893260955810546875</LongitudeDegrees>
            </Position>
            <AltitudeMeters>196.600006103515625</AltitudeMeters>
            <DistanceMeters>288201.85264692</DistanceMeters>
          </Trackpoint>
          <Trackpoint>
            <Time>2018-09-14T13:54:17.000Z</Time>
            <Position>
              <LatitudeDegrees>37.780915908515453338623046875</LatitudeDegrees>
              <LongitudeDegrees>-8.09922449290752410888671875</LongitudeDegrees>
            </Position>
            <AltitudeMeters>196</AltitudeMeters>
            <DistanceMeters>288212.85360527</DistanceMeters>
          </Trackpoint>
          <Trackpoint>
            <Time>2018-09-14T13:54:18.000Z</Time>
            <Position>
              <LatitudeDegrees>37.78081767261028289794921875</LatitudeDegrees>
              <LongitudeDegrees>-8.09920378960669040679931640625</LongitudeDegrees>
            </Position>
            <AltitudeMeters>195.8000030517578125</AltitudeMeters>
            <DistanceMeters>288223.93797355</DistanceMeters>
          </Trackpoint>
          <Trackpoint>
            <Time>2018-09-14T13:54:19.000Z</Time>
            <Position>
              <LatitudeDegrees>37.78071884997189044952392578125</LatitudeDegrees>
              <LongitudeDegrees>-8.09918434359133243560791015625</LongitudeDegrees>
            </Position>
            <AltitudeMeters>195.600006103515625</AltitudeMeters>
            <DistanceMeters>288235.06908665</DistanceMeters>
          </Trackpoint>
          <Trackpoint>
            <Time>2018-09-14T13:54:20.000Z</Time>
            <Position>
              <LatitudeDegrees>37.7806193567812442779541015625</LatitudeDegrees>
              <LongitudeDegrees>-8.09916548430919647216796875</LongitudeDegrees>
            </Position>
            <AltitudeMeters>195.399993896484375</AltitudeMeters>
            <DistanceMeters>288246.26652436</DistanceMeters>
          </Trackpoint>
          <Trackpoint>
            <Time>2018-09-14T13:54:21.000Z</Time>
            <Position>
              <LatitudeDegrees>37.78051952831447124481201171875</LatitudeDegrees>
              <LongitudeDegrees>-8.09914628975093364715576171875</LongitudeDegrees>
            </Position>
            <AltitudeMeters>195.1999969482421875</AltitudeMeters>
            <DistanceMeters>288257.50501533</DistanceMeters>
          </Trackpoint>
          <Trackpoint>
            <Time>2018-09-14T13:54:22.000Z</Time>
            <Position>
              <LatitudeDegrees>37.7804191969335079193115234375</LatitudeDegrees>
              <LongitudeDegrees>-8.0991260893642902374267578125</LongitudeDegrees>
            </Position>
            <AltitudeMeters>195</AltitudeMeters>
            <DistanceMeters>288268.81279506</DistanceMeters>
          </Trackpoint>
          <Trackpoint>
            <Time>2018-09-14T13:54:23.000Z</Time>
            <Position>
              <LatitudeDegrees>37.780318446457386016845703125</LatitudeDegrees>
              <LongitudeDegrees>-8.09910714626312255859375</LongitudeDegrees>
            </Position>
            <AltitudeMeters>194.8000030517578125</AltitudeMeters>
            <DistanceMeters>288280.14928693</DistanceMeters>
          </Trackpoint>
          <Trackpoint>
            <Time>2018-09-14T13:54:24.000Z</Time>
            <Position>
              <LatitudeDegrees>37.7802166901528835296630859375</LatitudeDegrees>
              <LongitudeDegrees>-8.09908568859100341796875</LongitudeDegrees>
            </Position>
            <AltitudeMeters>194.600006103515625</AltitudeMeters>
            <DistanceMeters>288291.63140852</DistanceMeters>
          </Trackpoint>
          <Trackpoint>
            <Time>2018-09-14T13:54:25.000Z</Time>
            <Position>
              <LatitudeDegrees>37.780115939676761627197265625</LatitudeDegrees>
              <LongitudeDegrees>-8.09906414709985256195068359375</LongitudeDegrees>
            </Position>
            <AltitudeMeters>194.1999969482421875</AltitudeMeters>
            <DistanceMeters>288303.00448264</DistanceMeters>
          </Trackpoint>
          <Trackpoint>
            <Time>2018-09-14T13:54:26.000Z</Time>
            <Position>
              <LatitudeDegrees>37.7800138480961322784423828125</LatitudeDegrees>
              <LongitudeDegrees>-8.09904344379901885986328125</LongitudeDegrees>
            </Position>
            <AltitudeMeters>193.8000030517578125</AltitudeMeters>
            <DistanceMeters>288314.5125277</DistanceMeters>
          </Trackpoint>
          <Trackpoint>
            <Time>2018-09-14T13:54:27.000Z</Time>
            <Position>
              <LatitudeDegrees>37.779910080134868621826171875</LatitudeDegrees>
              <LongitudeDegrees>-8.099022991955280303955078125</LongitudeDegrees>
            </Position>
            <AltitudeMeters>193.399993896484375</AltitudeMeters>
            <DistanceMeters>288326.20158612</DistanceMeters>
          </Trackpoint>
          <Trackpoint>
            <Time>2018-09-14T13:54:28.000Z</Time>
            <Position>
              <LatitudeDegrees>37.77980513870716094970703125</LatitudeDegrees>
              <LongitudeDegrees>-8.099002540111541748046875</LongitudeDegrees>
            </Position>
            <AltitudeMeters>192.8000030517578125</AltitudeMeters>
            <DistanceMeters>288338.01971593</DistanceMeters>
          </Trackpoint>
          <Trackpoint>
            <Time>2018-09-14T13:54:29.000Z</Time>
            <Position>
              <LatitudeDegrees>37.77969944290816783905029296875</LatitudeDegrees>
              <LongitudeDegrees>-8.098982758820056915283203125</LongitudeDegrees>
            </Position>
            <AltitudeMeters>192.399993896484375</AltitudeMeters>
            <DistanceMeters>288349.91135153</DistanceMeters>
          </Trackpoint>
          <Trackpoint>
            <Time>2018-09-14T13:54:30.000Z</Time>
            <Position>
              <LatitudeDegrees>37.7795940823853015899658203125</LatitudeDegrees>
              <LongitudeDegrees>-8.09896172024309635162353515625</LongitudeDegrees>
            </Position>
            <AltitudeMeters>192</AltitudeMeters>
            <DistanceMeters>288361.78284693</DistanceMeters>
          </Trackpoint>
          <Trackpoint>
            <Time>2018-09-14T13:54:31.000Z</Time>
            <Position>
              <LatitudeDegrees>37.77948997914791107177734375</LatitudeDegrees>
              <LongitudeDegrees>-8.09893908910453319549560546875</LongitudeDegrees>
            </Position>
            <AltitudeMeters>191.600006103515625</AltitudeMeters>
            <DistanceMeters>288373.53930686</DistanceMeters>
          </Trackpoint>
          <Trackpoint>
            <Time>2018-09-14T13:54:32.000Z</Time>
            <Position>
              <LatitudeDegrees>37.77938679791986942291259765625</LatitudeDegrees>
              <LongitudeDegrees>-8.098918385803699493408203125</LongitudeDegrees>
            </Position>
            <AltitudeMeters>191.399993896484375</AltitudeMeters>
            <DistanceMeters>288385.16678743</DistanceMeters>
          </Trackpoint>
          <Trackpoint>
            <Time>2018-09-14T13:54:33.000Z</Time>
            <Position>
              <LatitudeDegrees>37.7792856283485889434814453125</LatitudeDegrees>
              <LongitudeDegrees>-8.0988977663218975067138671875</LongitudeDegrees>
            </Position>
            <AltitudeMeters>191.1999969482421875</AltitudeMeters>
            <DistanceMeters>288396.57236858</DistanceMeters>
          </Trackpoint>
          <Trackpoint>
            <Time>2018-09-14T13:54:34.000Z</Time>
            <Position>
              <LatitudeDegrees>37.779185883700847625732421875</LatitudeDegrees>
              <LongitudeDegrees>-8.0988766439259052276611328125</LongitudeDegrees>
            </Position>
            <AltitudeMeters>191</AltitudeMeters>
            <DistanceMeters>288407.82812144</DistanceMeters>
          </Trackpoint>
          <Trackpoint>
            <Time>2018-09-14T13:54:35.000Z</Time>
            <Position>
              <LatitudeDegrees>37.77908689342439174652099609375</LatitudeDegrees>
              <LongitudeDegrees>-8.09885711409151554107666015625</LongitudeDegrees>
            </Position>
            <AltitudeMeters>190.8000030517578125</AltitudeMeters>
            <DistanceMeters>288418.97909237</DistanceMeters>
          </Trackpoint>
          <Trackpoint>
            <Time>2018-09-14T13:54:36.000Z</Time>
            <Position>
              <LatitudeDegrees>37.77898899279534816741943359375</LatitudeDegrees>
              <LongitudeDegrees>-8.098837248980998992919921875</LongitudeDegrees>
            </Position>
            <AltitudeMeters>190.8000030517578125</AltitudeMeters>
            <DistanceMeters>288430.01488147</DistanceMeters>
          </Trackpoint>
          <Trackpoint>
            <Time>2018-09-14T13:54:37.000Z</Time>
            <Position>
              <LatitudeDegrees>37.77889184653759002685546875</LatitudeDegrees>
              <LongitudeDegrees>-8.0988176353275775909423828125</LongitudeDegrees>
            </Position>
            <AltitudeMeters>190.600006103515625</AltitudeMeters>
            <DistanceMeters>288440.96400448</DistanceMeters>
          </Trackpoint>
          <Trackpoint>
            <Time>2018-09-14T13:54:38.000Z</Time>
            <Position>
              <LatitudeDegrees>37.77879537083208560943603515625</LatitudeDegrees>
              <LongitudeDegrees>-8.0987988598644733428955078125</LongitudeDegrees>
            </Position>
            <AltitudeMeters>190.600006103515625</AltitudeMeters>
            <DistanceMeters>288451.82784815</DistanceMeters>
          </Trackpoint>
          <Trackpoint>
            <Time>2018-09-14T13:54:39.000Z</Time>
            <Position>
              <LatitudeDegrees>37.77869981713593006134033203125</LatitudeDegrees>
              <LongitudeDegrees>-8.09877983294427394866943359375</LongitudeDegrees>
            </Position>
            <AltitudeMeters>190.600006103515625</AltitudeMeters>
            <DistanceMeters>288462.59400165</DistanceMeters>
          </Trackpoint>
          <Trackpoint>
            <Time>2018-09-14T13:54:40.000Z</Time>
            <Position>
              <LatitudeDegrees>37.77860593982040882110595703125</LatitudeDegrees>
              <LongitudeDegrees>-8.09876047074794769287109375</LongitudeDegrees>
            </Position>
            <AltitudeMeters>190.8000030517578125</AltitudeMeters>
            <DistanceMeters>288473.18084768</DistanceMeters>
          </Trackpoint>
          <Trackpoint>
            <Time>2018-09-14T13:54:41.000Z</Time>
            <Position>
              <LatitudeDegrees>37.7785129845142364501953125</LatitudeDegrees>
              <LongitudeDegrees>-8.09874094091355800628662109375</LongitudeDegrees>
            </Position>
            <AltitudeMeters>190.8000030517578125</AltitudeMeters>
            <DistanceMeters>288483.6691455</DistanceMeters>
          </Trackpoint>
          <Trackpoint>
            <Time>2018-09-14T13:54:42.000Z</Time>
            <Position>
              <LatitudeDegrees>37.77842086739838123321533203125</LatitudeDegrees>
              <LongitudeDegrees>-8.0987210758030414581298828125</LongitudeDegrees>
            </Position>
            <AltitudeMeters>191</AltitudeMeters>
            <DistanceMeters>288494.07012218</DistanceMeters>
          </Trackpoint>
          <Trackpoint>
            <Time>2018-09-14T13:54:43.000Z</Time>
            <Position>
              <LatitudeDegrees>37.77832992374897003173828125</LatitudeDegrees>
              <LongitudeDegrees>-8.09870238415896892547607421875</LongitudeDegrees>
            </Position>
            <AltitudeMeters>191</AltitudeMeters>
            <DistanceMeters>288504.32508538</DistanceMeters>
          </Trackpoint>
          <Trackpoint>
            <Time>2018-09-14T13:54:44.000Z</Time>
            <Position>
              <LatitudeDegrees>37.7782399021089076995849609375</LatitudeDegrees>
              <LongitudeDegrees>-8.0986845307052135467529296875</LongitudeDegrees>
            </Position>
            <AltitudeMeters>190.8000030517578125</AltitudeMeters>
            <DistanceMeters>288514.46715621</DistanceMeters>
          </Trackpoint>
          <Trackpoint>
            <Time>2018-09-14T13:54:45.000Z</Time>
            <Position>
              <LatitudeDegrees>37.77815063484013080596923828125</LatitudeDegrees>
              <LongitudeDegrees>-8.09866868890821933746337890625</LongitudeDegrees>
            </Position>
            <AltitudeMeters>190.8000030517578125</AltitudeMeters>
            <DistanceMeters>288524.4995653</DistanceMeters>
          </Trackpoint>
          <Trackpoint>
            <Time>2018-09-14T13:54:46.000Z</Time>
            <Position>
              <LatitudeDegrees>37.77806245721876621246337890625</LatitudeDegrees>
              <LongitudeDegrees>-8.0986536853015422821044921875</LongitudeDegrees>
            </Position>
            <AltitudeMeters>190.8000030517578125</AltitudeMeters>
            <DistanceMeters>288534.40242499</DistanceMeters>
          </Trackpoint>
          <Trackpoint>
            <Time>2018-09-14T13:54:47.000Z</Time>
            <Position>
              <LatitudeDegrees>37.7779746986925601959228515625</LatitudeDegrees>
              <LongitudeDegrees>-8.09863767586648464202880859375</LongitudeDegrees>
            </Position>
            <AltitudeMeters>191</AltitudeMeters>
            <DistanceMeters>288544.27148799</DistanceMeters>
          </Trackpoint>
          <Trackpoint>
            <Time>2018-09-14T13:54:48.000Z</Time>
            <Position>
              <LatitudeDegrees>37.7778871916234493255615234375</LatitudeDegrees>
              <LongitudeDegrees>-8.0986208282411098480224609375</LongitudeDegrees>
            </Position>
            <AltitudeMeters>191.1999969482421875</AltitudeMeters>
            <DistanceMeters>288554.12315088</DistanceMeters>
          </Trackpoint>
          <Trackpoint>
            <Time>2018-09-14T13:54:49.000Z</Time>
            <Position>
              <LatitudeDegrees>37.7778006903827190399169921875</LatitudeDegrees>
              <LongitudeDegrees>-8.0986042320728302001953125</LongitudeDegrees>
            </Position>
            <AltitudeMeters>191.1999969482421875</AltitudeMeters>
            <DistanceMeters>288563.86049152</DistanceMeters>
          </Trackpoint>
          <Trackpoint>
            <Time>2018-09-14T13:54:50.000Z</Time>
            <Position>
              <LatitudeDegrees>37.777716033160686492919921875</LatitudeDegrees>
              <LongitudeDegrees>-8.09858738444745540618896484375</LongitudeDegrees>
            </Position>
            <AltitudeMeters>191.399993896484375</AltitudeMeters>
            <DistanceMeters>288573.39825803</DistanceMeters>
          </Trackpoint>
          <Trackpoint>
            <Time>2018-09-14T13:54:51.000Z</Time>
            <Position>
              <LatitudeDegrees>37.77763313613831996917724609375</LatitudeDegrees>
              <LongitudeDegrees>-8.0985698662698268890380859375</LongitudeDegrees>
            </Position>
            <AltitudeMeters>191.600006103515625</AltitudeMeters>
            <DistanceMeters>288582.75247851</DistanceMeters>
          </Trackpoint>
          <Trackpoint>
            <Time>2018-09-14T13:54:52.000Z</Time>
            <Position>
              <LatitudeDegrees>37.777551747858524322509765625</LatitudeDegrees>
              <LongitudeDegrees>-8.09855259954929351806640625</LongitudeDegrees>
            </Position>
            <AltitudeMeters>191.8000030517578125</AltitudeMeters>
            <DistanceMeters>288591.93817578</DistanceMeters>
          </Trackpoint>
          <Trackpoint>
            <Time>2018-09-14T13:54:53.000Z</Time>
            <Position>
              <LatitudeDegrees>37.77747220359742641448974609375</LatitudeDegrees>
              <LongitudeDegrees>-8.09853709302842617034912109375</LongitudeDegrees>
            </Position>
            <AltitudeMeters>191.8000030517578125</AltitudeMeters>
            <DistanceMeters>288600.89592434</DistanceMeters>
          </Trackpoint>
          <Trackpoint>
            <Time>2018-09-14T13:54:54.000Z</Time>
            <Position>
              <LatitudeDegrees>37.7773936651647090911865234375</LatitudeDegrees>
              <LongitudeDegrees>-8.09852384962141513824462890625</LongitudeDegrees>
            </Position>
            <AltitudeMeters>192.1999969482421875</AltitudeMeters>
            <DistanceMeters>288609.71550928</DistanceMeters>
          </Trackpoint>
          <Trackpoint>
            <Time>2018-09-14T13:54:55.000Z</Time>
            <Position>
              <LatitudeDegrees>37.77731646783649921417236328125</LatitudeDegrees>
              <LongitudeDegrees>-8.09851177968084812164306640625</LongitudeDegrees>
            </Position>
            <AltitudeMeters>192.399993896484375</AltitudeMeters>
            <DistanceMeters>288618.37389796</DistanceMeters>
          </Trackpoint>
          <Trackpoint>
            <Time>2018-09-14T13:54:56.000Z</Time>
            <Position>
              <LatitudeDegrees>37.77724094688892364501953125</LatitudeDegrees>
              <LongitudeDegrees>-8.0984991230070590972900390625</LongitudeDegrees>
            </Position>
            <AltitudeMeters>192.8000030517578125</AltitudeMeters>
            <DistanceMeters>288626.85260297</DistanceMeters>
          </Trackpoint>
          <Trackpoint>
            <Time>2018-09-14T13:54:57.000Z</Time>
            <Position>
              <LatitudeDegrees>37.77716693468391895294189453125</LatitudeDegrees>
              <LongitudeDegrees>-8.09848529286682605743408203125</LongitudeDegrees>
            </Position>
            <AltitudeMeters>193.1999969482421875</AltitudeMeters>
            <DistanceMeters>288635.17978478</DistanceMeters>
          </Trackpoint>
          <Trackpoint>
            <Time>2018-09-14T13:54:58.000Z</Time>
            <Position>
              <LatitudeDegrees>37.77709401212632656097412109375</LatitudeDegrees>
              <LongitudeDegrees>-8.09847087599337100982666015625</LongitudeDegrees>
            </Position>
            <AltitudeMeters>193.399993896484375</AltitudeMeters>
            <DistanceMeters>288643.39506271</DistanceMeters>
          </Trackpoint>
          <Trackpoint>
            <Time>2018-09-14T13:54:59.000Z</Time>
            <Position>
              <LatitudeDegrees>37.7770215086638927459716796875</LatitudeDegrees>
              <LongitudeDegrees>-8.098456375300884246826171875</LongitudeDegrees>
            </Position>
            <AltitudeMeters>193.8000030517578125</AltitudeMeters>
            <DistanceMeters>288651.56514992</DistanceMeters>
          </Trackpoint>
          <Trackpoint>
            <Time>2018-09-14T13:55:00.000Z</Time>
            <Position>
              <LatitudeDegrees>37.77694900520145893096923828125</LatitudeDegrees>
              <LongitudeDegrees>-8.09844153933227062225341796875</LongitudeDegrees>
            </Position>
            <AltitudeMeters>194.1999969482421875</AltitudeMeters>
            <DistanceMeters>288659.74020929</DistanceMeters>
          </Trackpoint>
          <Trackpoint>
            <Time>2018-09-14T13:55:01.000Z</Time>
            <Position>
              <LatitudeDegrees>37.776876501739025115966796875</LatitudeDegrees>
              <LongitudeDegrees>-8.09842712245881557464599609375</LongitudeDegrees>
            </Position>
            <AltitudeMeters>194.399993896484375</AltitudeMeters>
            <DistanceMeters>288667.90919117</DistanceMeters>
          </Trackpoint>
          <Trackpoint>
            <Time>2018-09-14T13:55:02.000Z</Time>
            <Position>
              <LatitudeDegrees>37.77680466882884502410888671875</LatitudeDegrees>
              <LongitudeDegrees>-8.09841387905180454254150390625</LongitudeDegrees>
            </Position>
            <AltitudeMeters>194.600006103515625</AltitudeMeters>
            <DistanceMeters>288675.98925631</DistanceMeters>
          </Trackpoint>
          <Trackpoint>
            <Time>2018-09-14T13:55:03.000Z</Time>
            <Position>
              <LatitudeDegrees>37.77673409320414066314697265625</LatitudeDegrees>
              <LongitudeDegrees>-8.09840046800673007965087890625</LongitudeDegrees>
            </Position>
            <AltitudeMeters>195</AltitudeMeters>
            <DistanceMeters>288683.93180717</DistanceMeters>
          </Trackpoint>
          <Trackpoint>
            <Time>2018-09-14T13:55:04.000Z</Time>
            <Position>
              <LatitudeDegrees>37.77666485868394374847412109375</LatitudeDegrees>
              <LongitudeDegrees>-8.0983868055045604705810546875</LongitudeDegrees>
            </Position>
            <AltitudeMeters>195</AltitudeMeters>
            <DistanceMeters>288691.73094782</DistanceMeters>
          </Trackpoint>
          <Trackpoint>
            <Time>2018-09-14T13:55:05.000Z</Time>
            <Position>
              <LatitudeDegrees>37.77659679763019084930419921875</LatitudeDegrees>
              <LongitudeDegrees>-8.0983735620975494384765625</LongitudeDegrees>
            </Position>
            <AltitudeMeters>195</AltitudeMeters>
            <DistanceMeters>288699.39578163</DistanceMeters>
          </Trackpoint>
          <Trackpoint>
            <Time>2018-09-14T13:55:06.000Z</Time>
            <Position>
              <LatitudeDegrees>37.77653007768094539642333984375</LatitudeDegrees>
              <LongitudeDegrees>-8.09836107306182384490966796875</LongitudeDegrees>
            </Position>
            <AltitudeMeters>195</AltitudeMeters>
            <DistanceMeters>288706.90289206</DistanceMeters>
          </Trackpoint>
          <Trackpoint>
            <Time>2018-09-14T13:55:07.000Z</Time>
            <Position>
              <LatitudeDegrees>37.77646444737911224365234375</LatitudeDegrees>
              <LongitudeDegrees>-8.098347075283527374267578125</LongitudeDegrees>
            </Position>
            <AltitudeMeters>195</AltitudeMeters>
            <DistanceMeters>288714.31071054</DistanceMeters>
          </Trackpoint>
          <Trackpoint>
            <Time>2018-09-14T13:55:08.000Z</Time>
            <Position>
              <LatitudeDegrees>37.77639931999146938323974609375</LatitudeDegrees>
              <LongitudeDegrees>-8.09833257459104061126708984375</LongitudeDegrees>
            </Position>
            <AltitudeMeters>195</AltitudeMeters>
            <DistanceMeters>288721.67022129</DistanceMeters>
          </Trackpoint>
          <Trackpoint>
            <Time>2018-09-14T13:55:09.000Z</Time>
            <Position>
              <LatitudeDegrees>37.77633595280349254608154296875</LatitudeDegrees>
              <LongitudeDegrees>-8.0983190797269344329833984375</LongitudeDegrees>
            </Position>
            <AltitudeMeters>195</AltitudeMeters>
            <DistanceMeters>288728.82252044</DistanceMeters>
          </Trackpoint>
          <Trackpoint>
            <Time>2018-09-14T13:55:10.000Z</Time>
            <Position>
              <LatitudeDegrees>37.7762733399868011474609375</LatitudeDegrees>
              <LongitudeDegrees>-8.0983063392341136932373046875</LongitudeDegrees>
            </Position>
            <AltitudeMeters>195</AltitudeMeters>
            <DistanceMeters>288735.88141283</DistanceMeters>
          </Trackpoint>
          <Trackpoint>
            <Time>2018-09-14T13:55:11.000Z</Time>
            <Position>
              <LatitudeDegrees>37.77621139772236347198486328125</LatitudeDegrees>
              <LongitudeDegrees>-8.0982942692935466766357421875</LongitudeDegrees>
            </Position>
            <AltitudeMeters>195</AltitudeMeters>
            <DistanceMeters>288742.85665848</DistanceMeters>
          </Trackpoint>
          <Trackpoint>
            <Time>2018-09-14T13:55:12.000Z</Time>
            <Position>
              <LatitudeDegrees>37.7761497907340526580810546875</LatitudeDegrees>
              <LongitudeDegrees>-8.0982825346291065216064453125</LongitudeDegrees>
            </Position>
            <AltitudeMeters>195</AltitudeMeters>
            <DistanceMeters>288749.79035352</DistanceMeters>
          </Trackpoint>
          <Trackpoint>
            <Time>2018-09-14T13:55:13.000Z</Time>
            <Position>
              <LatitudeDegrees>37.77608935721218585968017578125</LatitudeDegrees>
              <LongitudeDegrees>-8.0982707999646663665771484375</LongitudeDegrees>
            </Position>
            <AltitudeMeters>195</AltitudeMeters>
            <DistanceMeters>288756.59522178</DistanceMeters>
          </Trackpoint>
          <Trackpoint>
            <Time>2018-09-14T13:55:14.000Z</Time>
            <Position>
              <LatitudeDegrees>37.77603018097579479217529296875</LatitudeDegrees>
              <LongitudeDegrees>-8.09825889766216278076171875</LongitudeDegrees>
            </Position>
            <AltitudeMeters>195</AltitudeMeters>
            <DistanceMeters>288763.26403925</DistanceMeters>
          </Trackpoint>
          <Trackpoint>
            <Time>2018-09-14T13:55:15.000Z</Time>
            <Position>
              <LatitudeDegrees>37.775971926748752593994140625</LatitudeDegrees>
              <LongitudeDegrees>-8.098246492445468902587890625</LongitudeDegrees>
            </Position>
            <AltitudeMeters>194.8000030517578125</AltitudeMeters>
            <DistanceMeters>288769.83944844</DistanceMeters>
          </Trackpoint>
          <Trackpoint>
            <Time>2018-09-14T13:55:16.000Z</Time>
            <Position>
              <LatitudeDegrees>37.7759144268929958343505859375</LatitudeDegrees>
              <LongitudeDegrees>-8.09823383577167987823486328125</LongitudeDegrees>
            </Position>
            <AltitudeMeters>194.8000030517578125</AltitudeMeters>
            <DistanceMeters>288776.33471727</DistanceMeters>
          </Trackpoint>
          <Trackpoint>
            <Time>2018-09-14T13:55:17.000Z</Time>
            <Position>
              <LatitudeDegrees>37.7758562564849853515625</LatitudeDegrees>
              <LongitudeDegrees>-8.09822176583111286163330078125</LongitudeDegrees>
            </Position>
            <AltitudeMeters>194.8000030517578125</AltitudeMeters>
            <DistanceMeters>288782.89500266</DistanceMeters>
          </Trackpoint>
          <Trackpoint>
            <Time>2018-09-14T13:55:18.000Z</Time>
            <Position>
              <LatitudeDegrees>37.77579666115343570709228515625</LatitudeDegrees>
              <LongitudeDegrees>-8.098210953176021575927734375</LongitudeDegrees>
            </Position>
            <AltitudeMeters>194.600006103515625</AltitudeMeters>
            <DistanceMeters>288789.59556533</DistanceMeters>
          </Trackpoint>
          <Trackpoint>
            <Time>2018-09-14T13:55:19.000Z</Time>
            <Position>
              <LatitudeDegrees>37.77573497034609317779541015625</LatitudeDegrees>
              <LongitudeDegrees>-8.0982003919780254364013671875</LongitudeDegrees>
            </Position>
            <AltitudeMeters>194.600006103515625</AltitudeMeters>
            <DistanceMeters>288796.52535223</DistanceMeters>
          </Trackpoint>
          <Trackpoint>
            <Time>2018-09-14T13:55:20.000Z</Time>
            <Position>
              <LatitudeDegrees>37.77567160315811634063720703125</LatitudeDegrees>
              <LongitudeDegrees>-8.098189830780029296875</LongitudeDegrees>
            </Position>
            <AltitudeMeters>194.399993896484375</AltitudeMeters>
            <DistanceMeters>288803.63903963</DistanceMeters>
          </Trackpoint>
          <Trackpoint>
            <Time>2018-09-14T13:55:21.000Z</Time>
            <Position>
              <LatitudeDegrees>37.7756063081324100494384765625</LatitudeDegrees>
              <LongitudeDegrees>-8.0981785990297794342041015625</LongitudeDegrees>
            </Position>
            <AltitudeMeters>194.399993896484375</AltitudeMeters>
            <DistanceMeters>288810.97335387</DistanceMeters>
          </Trackpoint>
          <Trackpoint>
            <Time>2018-09-14T13:55:22.000Z</Time>
            <Position>
              <LatitudeDegrees>37.77553975582122802734375</LatitudeDegrees>
              <LongitudeDegrees>-8.09816636145114898681640625</LongitudeDegrees>
            </Position>
            <AltitudeMeters>194.1999969482421875</AltitudeMeters>
            <DistanceMeters>288818.45878133</DistanceMeters>
          </Trackpoint>
          <Trackpoint>
            <Time>2018-09-14T13:55:23.000Z</Time>
            <Position>
              <LatitudeDegrees>37.7754715271294116973876953125</LatitudeDegrees>
              <LongitudeDegrees>-8.09815269894897937774658203125</LongitudeDegrees>
            </Position>
            <AltitudeMeters>194.1999969482421875</AltitudeMeters>
            <DistanceMeters>288826.14714139</DistanceMeters>
          </Trackpoint>
          <Trackpoint>
            <Time>2018-09-14T13:55:24.000Z</Time>
            <Position>
              <LatitudeDegrees>37.77540254406630992889404296875</LatitudeDegrees>
              <LongitudeDegrees>-8.09813878498971462249755859375</LongitudeDegrees>
            </Position>
            <AltitudeMeters>194</AltitudeMeters>
            <DistanceMeters>288833.9219296</DistanceMeters>
          </Trackpoint>
          <Trackpoint>
            <Time>2018-09-14T13:55:25.000Z</Time>
            <Position>
              <LatitudeDegrees>37.77533280663192272186279296875</LatitudeDegrees>
              <LongitudeDegrees>-8.0981246195733547210693359375</LongitudeDegrees>
            </Position>
            <AltitudeMeters>194</AltitudeMeters>
            <DistanceMeters>288841.78334444</DistanceMeters>
          </Trackpoint>
          <Trackpoint>
            <Time>2018-09-14T13:55:26.000Z</Time>
            <Position>
              <LatitudeDegrees>37.77526223100721836090087890625</LatitudeDegrees>
              <LongitudeDegrees>-8.0981102026998996734619140625</LongitudeDegrees>
            </Position>
            <AltitudeMeters>193.8000030517578125</AltitudeMeters>
            <DistanceMeters>288849.73952668</DistanceMeters>
          </Trackpoint>
          <Trackpoint>
            <Time>2018-09-14T13:55:27.000Z</Time>
            <Position>
              <LatitudeDegrees>37.77519098483026027679443359375</LatitudeDegrees>
              <LongitudeDegrees>-8.09809553436934947967529296875</LongitudeDegrees>
            </Position>
            <AltitudeMeters>193.600006103515625</AltitudeMeters>
            <DistanceMeters>288857.77364059</DistanceMeters>
          </Trackpoint>
          <Trackpoint>
            <Time>2018-09-14T13:55:28.000Z</Time>
            <Position>
              <LatitudeDegrees>37.7751194871962070465087890625</LatitudeDegrees>
              <LongitudeDegrees>-8.09808212332427501678466796875</LongitudeDegrees>
            </Position>
            <AltitudeMeters>193.399993896484375</AltitudeMeters>
            <DistanceMeters>288865.81786385</DistanceMeters>
          </Trackpoint>
          <Trackpoint>
            <Time>2018-09-14T13:55:29.000Z</Time>
            <Position>
              <LatitudeDegrees>37.77504698373377323150634765625</LatitudeDegrees>
              <LongitudeDegrees>-8.098067454993724822998046875</LongitudeDegrees>
            </Position>
            <AltitudeMeters>193.1999969482421875</AltitudeMeters>
            <DistanceMeters>288873.98960879</DistanceMeters>
          </Trackpoint>
          <Trackpoint>
            <Time>2018-09-14T13:55:30.000Z</Time>
            <Position>
              <LatitudeDegrees>37.77497473172843456268310546875</LatitudeDegrees>
              <LongitudeDegrees>-8.09805111028254032135009765625</LongitudeDegrees>
            </Position>
            <AltitudeMeters>193.1999969482421875</AltitudeMeters>
            <DistanceMeters>288882.15859067</DistanceMeters>
          </Trackpoint>
          <Trackpoint>
            <Time>2018-09-14T13:55:31.000Z</Time>
            <Position>
              <LatitudeDegrees>37.77490130625665187835693359375</LatitudeDegrees>
              <LongitudeDegrees>-8.09803535230457782745361328125</LongitudeDegrees>
            </Position>
            <AltitudeMeters>193.399993896484375</AltitudeMeters>
            <DistanceMeters>288890.44827593</DistanceMeters>
          </Trackpoint>
          <Trackpoint>
            <Time>2018-09-14T13:55:32.000Z</Time>
            <Position>
              <LatitudeDegrees>37.7748276293277740478515625</LatitudeDegrees>
              <LongitudeDegrees>-8.09801976196467876434326171875</LongitudeDegrees>
            </Position>
            <AltitudeMeters>193.600006103515625</AltitudeMeters>
            <DistanceMeters>288898.76297768</DistanceMeters>
          </Trackpoint>
          <Trackpoint>
            <Time>2018-09-14T13:55:33.000Z</Time>
            <Position>
              <LatitudeDegrees>37.774752862751483917236328125</LatitudeDegrees>
              <LongitudeDegrees>-8.09800433926284313201904296875</LongitudeDegrees>
            </Position>
            <AltitudeMeters>193.600006103515625</AltitudeMeters>
            <DistanceMeters>288907.1952266</DistanceMeters>
          </Trackpoint>
          <Trackpoint>
            <Time>2018-09-14T13:55:34.000Z</Time>
            <Position>
              <LatitudeDegrees>37.774677090346813201904296875</LatitudeDegrees>
              <LongitudeDegrees>-8.09798933565616607666015625</LongitudeDegrees>
            </Position>
            <AltitudeMeters>193.8000030517578125</AltitudeMeters>
            <DistanceMeters>288915.7312495</DistanceMeters>
          </Trackpoint>
          <Trackpoint>
            <Time>2018-09-14T13:55:35.000Z</Time>
            <Position>
              <LatitudeDegrees>37.77460039593279361724853515625</LatitudeDegrees>
              <LongitudeDegrees>-8.0979750864207744598388671875</LongitudeDegrees>
            </Position>
            <AltitudeMeters>193.8000030517578125</AltitudeMeters>
            <DistanceMeters>288924.35881695</DistanceMeters>
          </Trackpoint>
          <Trackpoint>
            <Time>2018-09-14T13:55:36.000Z</Time>
            <Position>
              <LatitudeDegrees>37.7745230309665203094482421875</LatitudeDegrees>
              <LongitudeDegrees>-8.09796259738504886627197265625</LongitudeDegrees>
            </Position>
            <AltitudeMeters>193.600006103515625</AltitudeMeters>
            <DistanceMeters>288933.04011973</DistanceMeters>
          </Trackpoint>
          <Trackpoint>
            <Time>2018-09-14T13:55:37.000Z</Time>
            <Position>
              <LatitudeDegrees>37.7744449116289615631103515625</LatitudeDegrees>
              <LongitudeDegrees>-8.097951449453830718994140625</LongitudeDegrees>
            </Position>
            <AltitudeMeters>193.399993896484375</AltitudeMeters>
            <DistanceMeters>288941.78980476</DistanceMeters>
          </Trackpoint>
          <Trackpoint>
            <Time>2018-09-14T13:55:38.000Z</Time>
            <Position>
              <LatitudeDegrees>37.774365954101085662841796875</LatitudeDegrees>
              <LongitudeDegrees>-8.097938708961009979248046875</LongitudeDegrees>
            </Position>
            <AltitudeMeters>193.1999969482421875</AltitudeMeters>
            <DistanceMeters>288950.64821118</DistanceMeters>
          </Trackpoint>
          <Trackpoint>
            <Time>2018-09-14T13:55:39.000Z</Time>
            <Position>
              <LatitudeDegrees>37.77428624220192432403564453125</LatitudeDegrees>
              <LongitudeDegrees>-8.09792471118271350860595703125</LongitudeDegrees>
            </Position>
            <AltitudeMeters>193</AltitudeMeters>
            <DistanceMeters>288959.60495161</DistanceMeters>
          </Trackpoint>
          <Trackpoint>
            <Time>2018-09-14T13:55:40.000Z</Time>
            <Position>
              <LatitudeDegrees>37.77420678175985813140869140625</LatitudeDegrees>
              <LongitudeDegrees>-8.09790928848087787628173828125</LongitudeDegrees>
            </Position>
            <AltitudeMeters>192.8000030517578125</AltitudeMeters>
            <DistanceMeters>288968.55261375</DistanceMeters>
          </Trackpoint>
          <Trackpoint>
            <Time>2018-09-14T13:55:41.000Z</Time>
            <Position>
              <LatitudeDegrees>37.77412765659391880035400390625</LatitudeDegrees>
              <LongitudeDegrees>-8.0978929437696933746337890625</LongitudeDegrees>
            </Position>
            <AltitudeMeters>192.399993896484375</AltitudeMeters>
            <DistanceMeters>288977.47551597</DistanceMeters>
          </Trackpoint>
          <Trackpoint>
            <Time>2018-09-14T13:55:42.000Z</Time>
            <Position>
              <LatitudeDegrees>37.774048112332820892333984375</LatitudeDegrees>
              <LongitudeDegrees>-8.0978768505156040191650390625</LongitudeDegrees>
            </Position>
            <AltitudeMeters>192</AltitudeMeters>
            <DistanceMeters>288986.4413255</DistanceMeters>
          </Trackpoint>
          <Trackpoint>
            <Time>2018-09-14T13:55:43.000Z</Time>
            <Position>
              <LatitudeDegrees>37.77396873570978641510009765625</LatitudeDegrees>
              <LongitudeDegrees>-8.09786100871860980987548828125</LongitudeDegrees>
            </Position>
            <AltitudeMeters>191.600006103515625</AltitudeMeters>
            <DistanceMeters>288995.38494988</DistanceMeters>
          </Trackpoint>
          <Trackpoint>
            <Time>2018-09-14T13:55:44.000Z</Time>
            <Position>
              <LatitudeDegrees>37.773890197277069091796875</LatitudeDegrees>
              <LongitudeDegrees>-8.0978446640074253082275390625</LongitudeDegrees>
            </Position>
            <AltitudeMeters>191.8000030517578125</AltitudeMeters>
            <DistanceMeters>289004.2433563</DistanceMeters>
          </Trackpoint>
          <Trackpoint>
            <Time>2018-09-14T13:55:45.000Z</Time>
            <Position>
              <LatitudeDegrees>37.773812077939510345458984375</LatitudeDegrees>
              <LongitudeDegrees>-8.09782865457236766815185546875</LongitudeDegrees>
            </Position>
            <AltitudeMeters>192</AltitudeMeters>
            <DistanceMeters>289013.05167151</DistanceMeters>
          </Trackpoint>
          <Trackpoint>
            <Time>2018-09-14T13:55:46.000Z</Time>
            <Position>
              <LatitudeDegrees>37.773733623325824737548828125</LatitudeDegrees>
              <LongitudeDegrees>-8.097815327346324920654296875</LongitudeDegrees>
            </Position>
            <AltitudeMeters>192.1999969482421875</AltitudeMeters>
            <DistanceMeters>289021.86203683</DistanceMeters>
          </Trackpoint>
          <Trackpoint>
            <Time>2018-09-14T13:55:47.000Z</Time>
            <Position>
              <LatitudeDegrees>37.773655168712139129638671875</LatitudeDegrees>
              <LongitudeDegrees>-8.0978024192154407501220703125</LongitudeDegrees>
            </Position>
            <AltitudeMeters>192.399993896484375</AltitudeMeters>
            <DistanceMeters>289030.66830145</DistanceMeters>
          </Trackpoint>
          <Trackpoint>
            <Time>2018-09-14T13:55:48.000Z</Time>
            <Position>
              <LatitudeDegrees>37.7735768817365169525146484375</LatitudeDegrees>
              <LongitudeDegrees>-8.09778808616101741790771484375</LongitudeDegrees>
            </Position>
            <AltitudeMeters>192.600006103515625</AltitudeMeters>
            <DistanceMeters>289039.472515</DistanceMeters>
          </Trackpoint>
          <Trackpoint>
            <Time>2018-09-14T13:55:49.000Z</Time>
            <Position>
              <LatitudeDegrees>37.77349867857992649078369140625</LatitudeDegrees>
              <LongitudeDegrees>-8.097773753106594085693359375</LongitudeDegrees>
            </Position>
            <AltitudeMeters>192.8000030517578125</AltitudeMeters>
            <DistanceMeters>289048.26749281</DistanceMeters>
          </Trackpoint>
          <Trackpoint>
            <Time>2018-09-14T13:55:50.000Z</Time>
            <Position>
              <LatitudeDegrees>37.773420475423336029052734375</LatitudeDegrees>
              <LongitudeDegrees>-8.0977601744234561920166015625</LongitudeDegrees>
            </Position>
            <AltitudeMeters>193</AltitudeMeters>
            <DistanceMeters>289057.05322519</DistanceMeters>
          </Trackpoint>
          <Trackpoint>
            <Time>2018-09-14T13:55:51.000Z</Time>
            <Position>
              <LatitudeDegrees>37.773342691361904144287109375</LatitudeDegrees>
              <LongitudeDegrees>-8.097744919359683990478515625</LongitudeDegrees>
            </Position>
            <AltitudeMeters>192.8000030517578125</AltitudeMeters>
            <DistanceMeters>289065.81425537</DistanceMeters>
          </Trackpoint>
          <Trackpoint>
            <Time>2018-09-14T13:55:52.000Z</Time>
            <Position>
              <LatitudeDegrees>37.77326549403369426727294921875</LatitudeDegrees>
              <LongitudeDegrees>-8.0977273173630237579345703125</LongitudeDegrees>
            </Position>
            <AltitudeMeters>192.600006103515625</AltitudeMeters>
            <DistanceMeters>289074.54534381</DistanceMeters>
          </Trackpoint>
          <Trackpoint>
            <Time>2018-09-14T13:55:53.000Z</Time>
            <Position>
              <LatitudeDegrees>37.77318871580064296722412109375</LatitudeDegrees>
              <LongitudeDegrees>-8.09771030209958553314208984375</LongitudeDegrees>
            </Position>
            <AltitudeMeters>192.399993896484375</AltitudeMeters>
            <DistanceMeters>289083.22092374</DistanceMeters>
          </Trackpoint>
          <Trackpoint>
            <Time>2018-09-14T13:55:54.000Z</Time>
            <Position>
              <LatitudeDegrees>37.7731121890246868133544921875</LatitudeDegrees>
              <LongitudeDegrees>-8.0976937897503376007080078125</LongitudeDegrees>
            </Position>
            <AltitudeMeters>192</AltitudeMeters>
            <DistanceMeters>289091.86156446</DistanceMeters>
          </Trackpoint>
          <Trackpoint>
            <Time>2018-09-14T13:55:55.000Z</Time>
            <Position>
              <LatitudeDegrees>37.77303582988679409027099609375</LatitudeDegrees>
              <LongitudeDegrees>-8.09767694212496280670166015625</LongitudeDegrees>
            </Position>
            <AltitudeMeters>191.8000030517578125</AltitudeMeters>
            <DistanceMeters>289100.48860857</DistanceMeters>
          </Trackpoint>
          <Trackpoint>
            <Time>2018-09-14T13:55:56.000Z</Time>
            <Position>
              <LatitudeDegrees>37.77295972220599651336669921875</LatitudeDegrees>
              <LongitudeDegrees>-8.0976609326899051666259765625</LongitudeDegrees>
            </Position>
            <AltitudeMeters>191.399993896484375</AltitudeMeters>
            <DistanceMeters>289109.0757853</DistanceMeters>
          </Trackpoint>
          <Trackpoint>
            <Time>2018-09-14T13:55:57.000Z</Time>
            <Position>
              <LatitudeDegrees>37.7728838659822940826416015625</LatitudeDegrees>
              <LongitudeDegrees>-8.0976468510925769805908203125</LongitudeDegrees>
            </Position>
            <AltitudeMeters>191.1999969482421875</AltitudeMeters>
            <DistanceMeters>289117.60916309</DistanceMeters>
          </Trackpoint>
          <Trackpoint>
            <Time>2018-09-14T13:55:58.000Z</Time>
            <Position>
              <LatitudeDegrees>37.77280767448246479034423828125</LatitudeDegrees>
              <LongitudeDegrees>-8.0976331047713756561279296875</LongitudeDegrees>
            </Position>
            <AltitudeMeters>191</AltitudeMeters>
            <DistanceMeters>289126.17528247</DistanceMeters>
          </Trackpoint>
          <Trackpoint>
            <Time>2018-09-14T13:55:59.000Z</Time>
            <Position>
              <LatitudeDegrees>37.77273215353488922119140625</LatitudeDegrees>
              <LongitudeDegrees>-8.097619526088237762451171875</LongitudeDegrees>
            </Position>
            <AltitudeMeters>190.600006103515625</AltitudeMeters>
            <DistanceMeters>289134.66516292</DistanceMeters>
          </Trackpoint>
          <Trackpoint>
            <Time>2018-09-14T13:56:00.000Z</Time>
            <Position>
              <LatitudeDegrees>37.77265763841569423675537109375</LatitudeDegrees>
              <LongitudeDegrees>-8.0976046063005924224853515625</LongitudeDegrees>
            </Position>
            <AltitudeMeters>190.399993896484375</AltitudeMeters>
            <DistanceMeters>289143.06199786</DistanceMeters>
          </Trackpoint>
          <Trackpoint>
            <Time>2018-09-14T13:56:01.000Z</Time>
            <Position>
              <LatitudeDegrees>37.77258329093456268310546875</LatitudeDegrees>
              <LongitudeDegrees>-8.0975891835987567901611328125</LongitudeDegrees>
            </Position>
            <AltitudeMeters>190.1999969482421875</AltitudeMeters>
            <DistanceMeters>289151.44699489</DistanceMeters>
          </Trackpoint>
          <Trackpoint>
            <Time>2018-09-14T13:56:02.000Z</Time>
            <Position>
              <LatitudeDegrees>37.77250927872955799102783203125</LatitudeDegrees>
              <LongitudeDegrees>-8.0975737608969211578369140625</LongitudeDegrees>
            </Position>
            <AltitudeMeters>190.1999969482421875</AltitudeMeters>
            <DistanceMeters>289159.79583673</DistanceMeters>
          </Trackpoint>
          <Trackpoint>
            <Time>2018-09-14T13:56:03.000Z</Time>
            <Position>
              <LatitudeDegrees>37.77243576943874359130859375</LatitudeDegrees>
              <LongitudeDegrees>-8.09755892492830753326416015625</LongitudeDegrees>
            </Position>
            <AltitudeMeters>190.399993896484375</AltitudeMeters>
            <DistanceMeters>289168.08116358</DistanceMeters>
          </Trackpoint>
          <Trackpoint>
            <Time>2018-09-14T13:56:04.000Z</Time>
            <Position>
              <LatitudeDegrees>37.77236276306211948394775390625</LatitudeDegrees>
              <LongitudeDegrees>-8.097546435892581939697265625</LongitudeDegrees>
            </Position>
            <AltitudeMeters>190.600006103515625</AltitudeMeters>
            <DistanceMeters>289176.28103853</DistanceMeters>
          </Trackpoint>
          <Trackpoint>
            <Time>2018-09-14T13:56:05.000Z</Time>
            <Position>
              <LatitudeDegrees>37.77229051105678081512451171875</LatitudeDegrees>
              <LongitudeDegrees>-8.09753478504717350006103515625</LongitudeDegrees>
            </Position>
            <AltitudeMeters>190.600006103515625</AltitudeMeters>
            <DistanceMeters>289184.3878811</DistanceMeters>
          </Trackpoint>
          <Trackpoint>
            <Time>2018-09-14T13:56:06.000Z</Time>
            <Position>
              <LatitudeDegrees>37.77221892960369586944580078125</LatitudeDegrees>
              <LongitudeDegrees>-8.09752254746854305267333984375</LongitudeDegrees>
            </Position>
            <AltitudeMeters>190.8000030517578125</AltitudeMeters>
            <DistanceMeters>289192.42761288</DistanceMeters>
          </Trackpoint>
          <Trackpoint>
            <Time>2018-09-14T13:56:07.000Z</Time>
            <Position>
              <LatitudeDegrees>37.77214818634092807769775390625</LatitudeDegrees>
              <LongitudeDegrees>-8.097508884966373443603515625</LongitudeDegrees>
            </Position>
            <AltitudeMeters>191</AltitudeMeters>
            <DistanceMeters>289200.39286976</DistanceMeters>
          </Trackpoint>
          <Trackpoint>
            <Time>2018-09-14T13:56:08.000Z</Time>
            <Position>
              <LatitudeDegrees>37.7720775268971920013427734375</LatitudeDegrees>
              <LongitudeDegrees>-8.09749505482614040374755859375</LongitudeDegrees>
            </Position>
            <AltitudeMeters>191.1999969482421875</AltitudeMeters>
            <DistanceMeters>289208.35075428</DistanceMeters>
          </Trackpoint>
          <Trackpoint>
            <Time>2018-09-14T13:56:09.000Z</Time>
            <Position>
              <LatitudeDegrees>37.77200686745345592498779296875</LatitudeDegrees>
              <LongitudeDegrees>-8.09748248197138309478759765625</LongitudeDegrees>
            </Position>
            <AltitudeMeters>191.399993896484375</AltitudeMeters>
            <DistanceMeters>289216.29273665</DistanceMeters>
          </Trackpoint>
          <Trackpoint>
            <Time>2018-09-14T13:56:10.000Z</Time>
            <Position>
              <LatitudeDegrees>37.7719357050955295562744140625</LatitudeDegrees>
              <LongitudeDegrees>-8.0974704958498477935791015625</LongitudeDegrees>
            </Position>
            <AltitudeMeters>191.600006103515625</AltitudeMeters>
            <DistanceMeters>289224.28289563</DistanceMeters>
          </Trackpoint>
          <Trackpoint>
            <Time>2018-09-14T13:56:11.000Z</Time>
            <Position>
              <LatitudeDegrees>37.7718646265566349029541015625</LatitudeDegrees>
              <LongitudeDegrees>-8.09745716862380504608154296875</LongitudeDegrees>
            </Position>
            <AltitudeMeters>191.8000030517578125</AltitudeMeters>
            <DistanceMeters>289232.27983263</DistanceMeters>
          </Trackpoint>
          <Trackpoint>
            <Time>2018-09-14T13:56:12.000Z</Time>
            <Position>
              <LatitudeDegrees>37.77179379947483539581298828125</LatitudeDegrees>
              <LongitudeDegrees>-8.0974423326551914215087890625</LongitudeDegrees>
            </Position>
            <AltitudeMeters>192</AltitudeMeters>
            <DistanceMeters>289240.2699916</DistanceMeters>
          </Trackpoint>
          <Trackpoint>
            <Time>2018-09-14T13:56:13.000Z</Time>
            <Position>
              <LatitudeDegrees>37.77172355912625789642333984375</LatitudeDegrees>
              <LongitudeDegrees>-8.09742682613432407379150390625</LongitudeDegrees>
            </Position>
            <AltitudeMeters>192</AltitudeMeters>
            <DistanceMeters>289248.20571798</DistanceMeters>
          </Trackpoint>
          <Trackpoint>
            <Time>2018-09-14T13:56:14.000Z</Time>
            <Position>
              <LatitudeDegrees>37.77165231294929981231689453125</LatitudeDegrees>
              <LongitudeDegrees>-8.0974124930799007415771484375</LongitudeDegrees>
            </Position>
            <AltitudeMeters>192</AltitudeMeters>
            <DistanceMeters>289256.23533477</DistanceMeters>
          </Trackpoint>
          <Trackpoint>
            <Time>2018-09-14T13:56:15.000Z</Time>
            <Position>
              <LatitudeDegrees>37.77158073149621486663818359375</LatitudeDegrees>
              <LongitudeDegrees>-8.0974004231393337249755859375</LongitudeDegrees>
            </Position>
            <AltitudeMeters>192</AltitudeMeters>
            <DistanceMeters>289264.27281988</DistanceMeters>
          </Trackpoint>
          <Trackpoint>
            <Time>2018-09-14T13:56:16.000Z</Time>
            <Position>
              <LatitudeDegrees>37.7715088985860347747802734375</LatitudeDegrees>
              <LongitudeDegrees>-8.09738877229392528533935546875</LongitudeDegrees>
            </Position>
            <AltitudeMeters>192</AltitudeMeters>
            <DistanceMeters>289272.33330374</DistanceMeters>
          </Trackpoint>
          <Trackpoint>
            <Time>2018-09-14T13:56:17.000Z</Time>
            <Position>
              <LatitudeDegrees>37.77143723331391811370849609375</LatitudeDegrees>
              <LongitudeDegrees>-8.0973762832581996917724609375</LongitudeDegrees>
            </Position>
            <AltitudeMeters>192</AltitudeMeters>
            <DistanceMeters>289280.38538104</DistanceMeters>
          </Trackpoint>
          <Trackpoint>
            <Time>2018-09-14T13:56:18.000Z</Time>
            <Position>
              <LatitudeDegrees>37.77136598713696002960205078125</LatitudeDegrees>
              <LongitudeDegrees>-8.09736228547990322113037109375</LongitudeDegrees>
            </Position>
            <AltitudeMeters>192</AltitudeMeters>
            <DistanceMeters>289288.41049818</DistanceMeters>
          </Trackpoint>
          <Trackpoint>
            <Time>2018-09-14T13:56:19.000Z</Time>
            <Position>
              <LatitudeDegrees>37.7712946571409702301025390625</LatitudeDegrees>
              <LongitudeDegrees>-8.09734887443482875823974609375</LongitudeDegrees>
            </Position>
            <AltitudeMeters>192</AltitudeMeters>
            <DistanceMeters>289296.43674048</DistanceMeters>
          </Trackpoint>
          <Trackpoint>
            <Time>2018-09-14T13:56:20.000Z</Time>
            <Position>
              <LatitudeDegrees>37.7712232433259487152099609375</LatitudeDegrees>
              <LongitudeDegrees>-8.09733621776103973388671875</LongitudeDegrees>
            </Position>
            <AltitudeMeters>192</AltitudeMeters>
            <DistanceMeters>289304.46298277</DistanceMeters>
          </Trackpoint>
          <Trackpoint>
            <Time>2018-09-14T13:56:21.000Z</Time>
            <Position>
              <LatitudeDegrees>37.77115141041576862335205078125</LatitudeDegrees>
              <LongitudeDegrees>-8.097323477268218994140625</LongitudeDegrees>
            </Position>
            <AltitudeMeters>192</AltitudeMeters>
            <DistanceMeters>289312.53633968</DistanceMeters>
          </Trackpoint>
          <Trackpoint>
            <Time>2018-09-14T13:56:22.000Z</Time>
            <Position>
              <LatitudeDegrees>37.77107982896268367767333984375</LatitudeDegrees>
              <LongitudeDegrees>-8.0973112396895885467529296875</LongitudeDegrees>
            </Position>
            <AltitudeMeters>192.1999969482421875</AltitudeMeters>
            <DistanceMeters>289320.57607147</DistanceMeters>
          </Trackpoint>
          <Trackpoint>
            <Time>2018-09-14T13:56:23.000Z</Time>
            <Position>
              <LatitudeDegrees>37.77100875042378902435302734375</LatitudeDegrees>
              <LongitudeDegrees>-8.0972984991967678070068359375</LongitudeDegrees>
            </Position>
            <AltitudeMeters>192.399993896484375</AltitudeMeters>
            <DistanceMeters>289328.56623044</DistanceMeters>
          </Trackpoint>
          <Trackpoint>
            <Time>2018-09-14T13:56:24.000Z</Time>
            <Position>
              <LatitudeDegrees>37.77093817479908466339111328125</LatitudeDegrees>
              <LongitudeDegrees>-8.097284920513629913330078125</LongitudeDegrees>
            </Position>
            <AltitudeMeters>192.600006103515625</AltitudeMeters>
            <DistanceMeters>289336.51105482</DistanceMeters>
          </Trackpoint>
          <Trackpoint>
            <Time>2018-09-14T13:56:25.000Z</Time>
            <Position>
              <LatitudeDegrees>37.770867682993412017822265625</LatitudeDegrees>
              <LongitudeDegrees>-8.09727159328758716583251953125</LongitudeDegrees>
            </Position>
            <AltitudeMeters>192.8000030517578125</AltitudeMeters>
            <DistanceMeters>289344.44393593</DistanceMeters>
          </Trackpoint>
          <Trackpoint>
            <Time>2018-09-14T13:56:26.000Z</Time>
            <Position>
              <LatitudeDegrees>37.77079735882580280303955078125</LatitudeDegrees>
              <LongitudeDegrees>-8.0972582660615444183349609375</LongitudeDegrees>
            </Position>
            <AltitudeMeters>193</AltitudeMeters>
            <DistanceMeters>289352.35801264</DistanceMeters>
          </Trackpoint>
          <Trackpoint>
            <Time>2018-09-14T13:56:27.000Z</Time>
            <Position>
              <LatitudeDegrees>37.770727537572383880615234375</LatitudeDegrees>
              <LongitudeDegrees>-8.09724493883550167083740234375</LongitudeDegrees>
            </Position>
            <AltitudeMeters>193</AltitudeMeters>
            <DistanceMeters>289360.21712982</DistanceMeters>
          </Trackpoint>
          <Trackpoint>
            <Time>2018-09-14T13:56:28.000Z</Time>
            <Position>
              <LatitudeDegrees>37.77065805159509181976318359375</LatitudeDegrees>
              <LongitudeDegrees>-8.09723052196204662322998046875</LongitudeDegrees>
            </Position>
            <AltitudeMeters>193.1999969482421875</AltitudeMeters>
            <DistanceMeters>289368.05438572</DistanceMeters>
          </Trackpoint>
          <Trackpoint>
            <Time>2018-09-14T13:56:29.000Z</Time>
            <Position>
              <LatitudeDegrees>37.7705885656177997589111328125</LatitudeDegrees>
              <LongitudeDegrees>-8.09721610508859157562255859375</LongitudeDegrees>
            </Position>
            <AltitudeMeters>193.1999969482421875</AltitudeMeters>
            <DistanceMeters>289375.89164161</DistanceMeters>
          </Trackpoint>
          <Trackpoint>
            <Time>2018-09-14T13:56:30.000Z</Time>
            <Position>
              <LatitudeDegrees>37.77051874436438083648681640625</LatitudeDegrees>
              <LongitudeDegrees>-8.097202777862548828125</LongitudeDegrees>
            </Position>
            <AltitudeMeters>193.399993896484375</AltitudeMeters>
            <DistanceMeters>289383.75075879</DistanceMeters>
          </Trackpoint>
          <Trackpoint>
            <Time>2018-09-14T13:56:31.000Z</Time>
            <Position>
              <LatitudeDegrees>37.7704487554728984832763671875</LatitudeDegrees>
              <LongitudeDegrees>-8.09719003736972808837890625</LongitudeDegrees>
            </Position>
            <AltitudeMeters>193.399993896484375</AltitudeMeters>
            <DistanceMeters>289391.62135753</DistanceMeters>
          </Trackpoint>
          <Trackpoint>
            <Time>2018-09-14T13:56:32.000Z</Time>
            <Position>
              <LatitudeDegrees>37.77037843130528926849365234375</LatitudeDegrees>
              <LongitudeDegrees>-8.0971757881343364715576171875</LongitudeDegrees>
            </Position>
            <AltitudeMeters>193.1999969482421875</AltitudeMeters>
            <DistanceMeters>289399.54911459</DistanceMeters>
          </Trackpoint>
          <Trackpoint>
            <Time>2018-09-14T13:56:33.000Z</Time>
            <Position>
              <LatitudeDegrees>37.7703079394996166229248046875</LatitudeDegrees>
              <LongitudeDegrees>-8.0971623770892620086669921875</LongitudeDegrees>
            </Position>
            <AltitudeMeters>193.1999969482421875</AltitudeMeters>
            <DistanceMeters>289407.48313393</DistanceMeters>
          </Trackpoint>
          <Trackpoint>
            <Time>2018-09-14T13:56:34.000Z</Time>
            <Position>
              <LatitudeDegrees>37.77023728005588054656982421875</LatitudeDegrees>
              <LongitudeDegrees>-8.0971491336822509765625</LongitudeDegrees>
            </Position>
            <AltitudeMeters>193</AltitudeMeters>
            <DistanceMeters>289415.43363927</DistanceMeters>
          </Trackpoint>
          <Trackpoint>
            <Time>2018-09-14T13:56:35.000Z</Time>
            <Position>
              <LatitudeDegrees>37.770166955888271331787109375</LatitudeDegrees>
              <LongitudeDegrees>-8.0971348844468593597412109375</LongitudeDegrees>
            </Position>
            <AltitudeMeters>192.8000030517578125</AltitudeMeters>
            <DistanceMeters>289423.36082679</DistanceMeters>
          </Trackpoint>
          <Trackpoint>
            <Time>2018-09-14T13:56:36.000Z</Time>
            <Position>
              <LatitudeDegrees>37.77009629644453525543212890625</LatitudeDegrees>
              <LongitudeDegrees>-8.09712088666856288909912109375</LongitudeDegrees>
            </Position>
            <AltitudeMeters>192.600006103515625</AltitudeMeters>
            <DistanceMeters>289431.32154764</DistanceMeters>
          </Trackpoint>
          <Trackpoint>
            <Time>2018-09-14T13:56:37.000Z</Time>
            <Position>
              <LatitudeDegrees>37.77002622373402118682861328125</LatitudeDegrees>
              <LongitudeDegrees>-8.0971062183380126953125</LongitudeDegrees>
            </Position>
            <AltitudeMeters>192.399993896484375</AltitudeMeters>
            <DistanceMeters>289439.22706211</DistanceMeters>
          </Trackpoint>
          <Trackpoint>
            <Time>2018-09-14T13:56:38.000Z</Time>
            <Position>
              <LatitudeDegrees>37.7699565701186656951904296875</LatitudeDegrees>
              <LongitudeDegrees>-8.09709155000746250152587890625</LongitudeDegrees>
            </Position>
            <AltitudeMeters>192.600006103515625</AltitudeMeters>
            <DistanceMeters>289447.0873282</DistanceMeters>
          </Trackpoint>
          <Trackpoint>
            <Time>2018-09-14T13:56:39.000Z</Time>
            <Position>
              <LatitudeDegrees>37.76988691650331020355224609375</LatitudeDegrees>
              <LongitudeDegrees>-8.09707830660045146942138671875</LongitudeDegrees>
            </Position>
            <AltitudeMeters>192.8000030517578125</AltitudeMeters>
            <DistanceMeters>289454.92803993</DistanceMeters>
          </Trackpoint>
          <Trackpoint>
            <Time>2018-09-14T13:56:40.000Z</Time>
            <Position>
              <LatitudeDegrees>37.76981768198311328887939453125</LatitudeDegrees>
              <LongitudeDegrees>-8.09706590138375759124755859375</LongitudeDegrees>
            </Position>
            <AltitudeMeters>193</AltitudeMeters>
            <DistanceMeters>289462.71095409</DistanceMeters>
          </Trackpoint>
          <Trackpoint>
            <Time>2018-09-14T13:56:41.000Z</Time>
            <Position>
              <LatitudeDegrees>37.76974928565323352813720703125</LatitudeDegrees>
              <LongitudeDegrees>-8.0970539152622222900390625</LongitudeDegrees>
            </Position>
            <AltitudeMeters>193</AltitudeMeters>
            <DistanceMeters>289470.3957898</DistanceMeters>
          </Trackpoint>
          <Trackpoint>
            <Time>2018-09-14T13:56:42.000Z</Time>
            <Position>
              <LatitudeDegrees>37.76968105696141719818115234375</LatitudeDegrees>
              <LongitudeDegrees>-8.09704109095036983489990234375</LongitudeDegrees>
            </Position>
            <AltitudeMeters>193.1999969482421875</AltitudeMeters>
            <DistanceMeters>289478.07357197</DistanceMeters>
          </Trackpoint>
          <Trackpoint>
            <Time>2018-09-14T13:56:43.000Z</Time>
            <Position>
              <LatitudeDegrees>37.7696129120886325836181640625</LatitudeDegrees>
              <LongitudeDegrees>-8.0970275960862636566162109375</LongitudeDegrees>
            </Position>
            <AltitudeMeters>193.399993896484375</AltitudeMeters>
            <DistanceMeters>289485.75076605</DistanceMeters>
          </Trackpoint>
          <Trackpoint>
            <Time>2018-09-14T13:56:44.000Z</Time>
            <Position>
              <LatitudeDegrees>37.76954476721584796905517578125</LatitudeDegrees>
              <LongitudeDegrees>-8.09701426886022090911865234375</LongitudeDegrees>
            </Position>
            <AltitudeMeters>193.399993896484375</AltitudeMeters>
            <DistanceMeters>289493.42560733</DistanceMeters>
          </Trackpoint>
          <Trackpoint>
            <Time>2018-09-14T13:56:45.000Z</Time>
            <Position>
              <LatitudeDegrees>37.76947653852403163909912109375</LatitudeDegrees>
              <LongitudeDegrees>-8.09700018726289272308349609375</LongitudeDegrees>
            </Position>
            <AltitudeMeters>193.600006103515625</AltitudeMeters>
            <DistanceMeters>289501.11983771</DistanceMeters>
          </Trackpoint>
          <Trackpoint>
            <Time>2018-09-14T13:56:46.000Z</Time>
            <Position>
              <LatitudeDegrees>37.769408561289310455322265625</LatitudeDegrees>
              <LongitudeDegrees>-8.0969856865704059600830078125</LongitudeDegrees>
            </Position>
            <AltitudeMeters>193.8000030517578125</AltitudeMeters>
            <DistanceMeters>289508.79173697</DistanceMeters>
          </Trackpoint>
          <Trackpoint>
            <Time>2018-09-14T13:56:47.000Z</Time>
            <Position>
              <LatitudeDegrees>37.76934091933071613311767578125</LatitudeDegrees>
              <LongitudeDegrees>-8.096972443163394927978515625</LongitudeDegrees>
            </Position>
            <AltitudeMeters>194</AltitudeMeters>
            <DistanceMeters>289516.41048565</DistanceMeters>
          </Trackpoint>
          <Trackpoint>
            <Time>2018-09-14T13:56:48.000Z</Time>
            <Position>
              <LatitudeDegrees>37.769273780286312103271484375</LatitudeDegrees>
              <LongitudeDegrees>-8.09696012176573276519775390625</LongitudeDegrees>
            </Position>
            <AltitudeMeters>194</AltitudeMeters>
            <DistanceMeters>289523.96137319</DistanceMeters>
          </Trackpoint>
          <Trackpoint>
            <Time>2018-09-14T13:56:49.000Z</Time>
            <Position>
              <LatitudeDegrees>37.76920714415609836578369140625</LatitudeDegrees>
              <LongitudeDegrees>-8.09694754891097545623779296875</LongitudeDegrees>
            </Position>
            <AltitudeMeters>194.1999969482421875</AltitudeMeters>
            <DistanceMeters>289531.46005881</DistanceMeters>
          </Trackpoint>
          <Trackpoint>
            <Time>2018-09-14T13:56:50.000Z</Time>
            <Position>
              <LatitudeDegrees>37.76914059184491634368896484375</LatitudeDegrees>
              <LongitudeDegrees>-8.09693397022783756256103515625</LongitudeDegrees>
            </Position>
            <AltitudeMeters>194.1999969482421875</AltitudeMeters>
            <DistanceMeters>289538.96295802</DistanceMeters>
          </Trackpoint>
          <Trackpoint>
            <Time>2018-09-14T13:56:51.000Z</Time>
            <Position>
              <LatitudeDegrees>37.76907403953373432159423828125</LatitudeDegrees>
              <LongitudeDegrees>-8.09692039154469966888427734375</LongitudeDegrees>
            </Position>
            <AltitudeMeters>194.1999969482421875</AltitudeMeters>
            <DistanceMeters>289546.46585723</DistanceMeters>
          </Trackpoint>
          <Trackpoint>
            <Time>2018-09-14T13:56:52.000Z</Time>
            <Position>
              <LatitudeDegrees>37.7690074034035205841064453125</LatitudeDegrees>
              <LongitudeDegrees>-8.09690848924219608306884765625</LongitudeDegrees>
            </Position>
            <AltitudeMeters>194</AltitudeMeters>
            <DistanceMeters>289553.95550574</DistanceMeters>
          </Trackpoint>
          <Trackpoint>
            <Time>2018-09-14T13:56:53.000Z</Time>
            <Position>
              <LatitudeDegrees>37.768941186368465423583984375</LatitudeDegrees>
              <LongitudeDegrees>-8.0968948267400264739990234375</LongitudeDegrees>
            </Position>
            <AltitudeMeters>194</AltitudeMeters>
            <DistanceMeters>289561.42221131</DistanceMeters>
          </Trackpoint>
          <Trackpoint>
            <Time>2018-09-14T13:56:54.000Z</Time>
            <Position>
              <LatitudeDegrees>37.76887555606663227081298828125</LatitudeDegrees>
              <LongitudeDegrees>-8.09688032604753971099853515625</LongitudeDegrees>
            </Position>
            <AltitudeMeters>193.8000030517578125</AltitudeMeters>
            <DistanceMeters>289568.83734013</DistanceMeters>
          </Trackpoint>
          <Trackpoint>
            <Time>2018-09-14T13:56:55.000Z</Time>
            <Position>
              <LatitudeDegrees>37.76881017722189426422119140625</LatitudeDegrees>
              <LongitudeDegrees>-8.0968663282692432403564453125</LongitudeDegrees>
            </Position>
            <AltitudeMeters>193.8000030517578125</AltitudeMeters>
            <DistanceMeters>289576.21768031</DistanceMeters>
          </Trackpoint>
          <Trackpoint>
            <Time>2018-09-14T13:56:56.000Z</Time>
            <Position>
              <LatitudeDegrees>37.768744714558124542236328125</LatitudeDegrees>
              <LongitudeDegrees>-8.0968529172241687774658203125</LongitudeDegrees>
            </Position>
            <AltitudeMeters>193.600006103515625</AltitudeMeters>
            <DistanceMeters>289583.59802048</DistanceMeters>
          </Trackpoint>
          <Trackpoint>
            <Time>2018-09-14T13:56:57.000Z</Time>
            <Position>
              <LatitudeDegrees>37.76867908425629138946533203125</LatitudeDegrees>
              <LongitudeDegrees>-8.09683975763618946075439453125</LongitudeDegrees>
            </Position>
            <AltitudeMeters>193.600006103515625</AltitudeMeters>
            <DistanceMeters>289590.99485989</DistanceMeters>
          </Trackpoint>
          <Trackpoint>
            <Time>2018-09-14T13:56:58.000Z</Time>
            <Position>
              <LatitudeDegrees>37.768613286316394805908203125</LatitudeDegrees>
              <LongitudeDegrees>-8.09682534076273441314697265625</LongitudeDegrees>
            </Position>
            <AltitudeMeters>193.399993896484375</AltitudeMeters>
            <DistanceMeters>289598.4276257</DistanceMeters>
          </Trackpoint>
          <Trackpoint>
            <Time>2018-09-14T13:56:59.000Z</Time>
            <Position>
              <LatitudeDegrees>37.768547236919403076171875</LatitudeDegrees>
              <LongitudeDegrees>-8.09681050479412078857421875</LongitudeDegrees>
            </Position>
            <AltitudeMeters>193.399993896484375</AltitudeMeters>
            <DistanceMeters>289605.89433126</DistanceMeters>
          </Trackpoint>
          <Trackpoint>
            <Time>2018-09-14T13:57:00.000Z</Time>
            <Position>
              <LatitudeDegrees>37.768480516970157623291015625</LatitudeDegrees>
              <LongitudeDegrees>-8.09679818339645862579345703125</LongitudeDegrees>
            </Position>
            <AltitudeMeters>193.1999969482421875</AltitudeMeters>
            <DistanceMeters>289613.39963718</DistanceMeters>
          </Trackpoint>
          <Trackpoint>
            <Time>2018-09-14T13:57:01.000Z</Time>
            <Position>
              <LatitudeDegrees>37.76841354556381702423095703125</LatitudeDegrees>
              <LongitudeDegrees>-8.0967872031033039093017578125</LongitudeDegrees>
            </Position>
            <AltitudeMeters>193</AltitudeMeters>
            <DistanceMeters>289620.91576372</DistanceMeters>
          </Trackpoint>
          <Trackpoint>
            <Time>2018-09-14T13:57:02.000Z</Time>
            <Position>
              <LatitudeDegrees>37.7683462388813495635986328125</LatitudeDegrees>
              <LongitudeDegrees>-8.09677555225789546966552734375</LongitudeDegrees>
            </Position>
            <AltitudeMeters>193</AltitudeMeters>
            <DistanceMeters>289628.47621238</DistanceMeters>
          </Trackpoint>
          <Trackpoint>
            <Time>2018-09-14T13:57:03.000Z</Time>
            <Position>
              <LatitudeDegrees>37.7682788483798503875732421875</LatitudeDegrees>
              <LongitudeDegrees>-8.096763230860233306884765625</LongitudeDegrees>
            </Position>
            <AltitudeMeters>193</AltitudeMeters>
            <DistanceMeters>289636.05455561</DistanceMeters>
          </Trackpoint>
          <Trackpoint>
            <Time>2018-09-14T13:57:04.000Z</Time>
            <Position>
              <LatitudeDegrees>37.76821187697350978851318359375</LatitudeDegrees>
              <LongitudeDegrees>-8.09674889780580997467041015625</LongitudeDegrees>
            </Position>
            <AltitudeMeters>193</AltitudeMeters>
            <DistanceMeters>289643.61380979</DistanceMeters>
          </Trackpoint>
          <Trackpoint>
            <Time>2018-09-14T13:57:05.000Z</Time>
            <Position>
              <LatitudeDegrees>37.76814415119588375091552734375</LatitudeDegrees>
              <LongitudeDegrees>-8.0967359058558940887451171875</LongitudeDegrees>
            </Position>
            <AltitudeMeters>193</AltitudeMeters>
            <DistanceMeters>289651.23848239</DistanceMeters>
          </Trackpoint>
          <Trackpoint>
            <Time>2018-09-14T13:57:06.000Z</Time>
            <Position>
              <LatitudeDegrees>37.7680756710469722747802734375</LatitudeDegrees>
              <LongitudeDegrees>-8.0967240035533905029296875</LongitudeDegrees>
            </Position>
            <AltitudeMeters>193</AltitudeMeters>
            <DistanceMeters>289658.93212594</DistanceMeters>
          </Trackpoint>
          <Trackpoint>
            <Time>2018-09-14T13:57:07.000Z</Time>
            <Position>
              <LatitudeDegrees>37.7680069394409656524658203125</LatitudeDegrees>
              <LongitudeDegrees>-8.0967121012508869171142578125</LongitudeDegrees>
            </Position>
            <AltitudeMeters>193</AltitudeMeters>
            <DistanceMeters>289666.65330232</DistanceMeters>
          </Trackpoint>
          <Trackpoint>
            <Time>2018-09-14T13:57:08.000Z</Time>
            <Position>
              <LatitudeDegrees>37.76793795637786388397216796875</LatitudeDegrees>
              <LongitudeDegrees>-8.09669877402484416961669921875</LongitudeDegrees>
            </Position>
            <AltitudeMeters>193</AltitudeMeters>
            <DistanceMeters>289674.41995608</DistanceMeters>
          </Trackpoint>
          <Trackpoint>
            <Time>2018-09-14T13:57:09.000Z</Time>
            <Position>
              <LatitudeDegrees>37.767868973314762115478515625</LatitudeDegrees>
              <LongitudeDegrees>-8.09668435715138912200927734375</LongitudeDegrees>
            </Position>
            <AltitudeMeters>193</AltitudeMeters>
            <DistanceMeters>289682.20170991</DistanceMeters>
          </Trackpoint>
          <Trackpoint>
            <Time>2018-09-14T13:57:10.000Z</Time>
            <Position>
              <LatitudeDegrees>37.7677997387945652008056640625</LatitudeDegrees>
              <LongitudeDegrees>-8.096670694649219512939453125</LongitudeDegrees>
            </Position>
            <AltitudeMeters>192.8000030517578125</AltitudeMeters>
            <DistanceMeters>289690.00085056</DistanceMeters>
          </Trackpoint>
          <Trackpoint>
            <Time>2018-09-14T13:57:11.000Z</Time>
            <Position>
              <LatitudeDegrees>37.767730168998241424560546875</LatitudeDegrees>
              <LongitudeDegrees>-8.0966574512422084808349609375</LongitudeDegrees>
            </Position>
            <AltitudeMeters>192.8000030517578125</AltitudeMeters>
            <DistanceMeters>289697.8317668</DistanceMeters>
          </Trackpoint>
          <Trackpoint>
            <Time>2018-09-14T13:57:12.000Z</Time>
            <Position>
              <LatitudeDegrees>37.76766068302094936370849609375</LatitudeDegrees>
              <LongitudeDegrees>-8.09664429165422916412353515625</LongitudeDegrees>
            </Position>
            <AltitudeMeters>192.8000030517578125</AltitudeMeters>
            <DistanceMeters>289705.65172061</DistanceMeters>
          </Trackpoint>
          <Trackpoint>
            <Time>2018-09-14T13:57:13.000Z</Time>
            <Position>
              <LatitudeDegrees>37.7675910294055938720703125</LatitudeDegrees>
              <LongitudeDegrees>-8.0966306291520595550537109375</LongitudeDegrees>
            </Position>
            <AltitudeMeters>192.8000030517578125</AltitudeMeters>
            <DistanceMeters>289713.49703775</DistanceMeters>
          </Trackpoint>
          <Trackpoint>
            <Time>2018-09-14T13:57:14.000Z</Time>
            <Position>
              <LatitudeDegrees>37.76752154342830181121826171875</LatitudeDegrees>
              <LongitudeDegrees>-8.09661679901182651519775390625</LongitudeDegrees>
            </Position>
            <AltitudeMeters>192.8000030517578125</AltitudeMeters>
            <DistanceMeters>289721.3262241</DistanceMeters>
          </Trackpoint>
          <Trackpoint>
            <Time>2018-09-14T13:57:15.000Z</Time>
            <Position>
              <LatitudeDegrees>37.76745247654616832733154296875</LatitudeDegrees>
              <LongitudeDegrees>-8.09660271741449832916259765625</LongitudeDegrees>
            </Position>
            <AltitudeMeters>193</AltitudeMeters>
            <DistanceMeters>289729.11319805</DistanceMeters>
          </Trackpoint>
          <Trackpoint>
            <Time>2018-09-14T13:57:16.000Z</Time>
            <Position>
              <LatitudeDegrees>37.767383493483066558837890625</LatitudeDegrees>
              <LongitudeDegrees>-8.0965873785316944122314453125</LongitudeDegrees>
            </Position>
            <AltitudeMeters>193</AltitudeMeters>
            <DistanceMeters>289736.90886444</DistanceMeters>
          </Trackpoint>
          <Trackpoint>
            <Time>2018-09-14T13:57:17.000Z</Time>
            <Position>
              <LatitudeDegrees>37.7673142589628696441650390625</LatitudeDegrees>
              <LongitudeDegrees>-8.09657472185790538787841796875</LongitudeDegrees>
            </Position>
            <AltitudeMeters>193</AltitudeMeters>
            <DistanceMeters>289744.69467867</DistanceMeters>
          </Trackpoint>
          <Trackpoint>
            <Time>2018-09-14T13:57:18.000Z</Time>
            <Position>
              <LatitudeDegrees>37.7672450244426727294921875</LatitudeDegrees>
              <LongitudeDegrees>-8.0965639092028141021728515625</LongitudeDegrees>
            </Position>
            <AltitudeMeters>193.1999969482421875</AltitudeMeters>
            <DistanceMeters>289752.45900674</DistanceMeters>
          </Trackpoint>
          <Trackpoint>
            <Time>2018-09-14T13:57:19.000Z</Time>
            <Position>
              <LatitudeDegrees>37.76717637665569782257080078125</LatitudeDegrees>
              <LongitudeDegrees>-8.09655167162418365478515625</LongitudeDegrees>
            </Position>
            <AltitudeMeters>193.1999969482421875</AltitudeMeters>
            <DistanceMeters>289760.17491848</DistanceMeters>
          </Trackpoint>
          <Trackpoint>
            <Time>2018-09-14T13:57:20.000Z</Time>
            <Position>
              <LatitudeDegrees>37.7671083994209766387939453125</LatitudeDegrees>
              <LongitudeDegrees>-8.09653750620782375335693359375</LongitudeDegrees>
            </Position>
            <AltitudeMeters>193.1999969482421875</AltitudeMeters>
            <DistanceMeters>289767.84328583</DistanceMeters>
          </Trackpoint>
          <Trackpoint>
            <Time>2018-09-14T13:57:21.000Z</Time>
            <Position>
              <LatitudeDegrees>37.76704058982431888580322265625</LatitudeDegrees>
              <LongitudeDegrees>-8.0965246818959712982177734375</LongitudeDegrees>
            </Position>
            <AltitudeMeters>193.399993896484375</AltitudeMeters>
            <DistanceMeters>289775.47446942</DistanceMeters>
          </Trackpoint>
          <Trackpoint>
            <Time>2018-09-14T13:57:22.000Z</Time>
            <Position>
              <LatitudeDegrees>37.766973115503787994384765625</LatitudeDegrees>
              <LongitudeDegrees>-8.09651202522218227386474609375</LongitudeDegrees>
            </Position>
            <AltitudeMeters>193.399993896484375</AltitudeMeters>
            <DistanceMeters>289783.06650327</DistanceMeters>
          </Trackpoint>
          <Trackpoint>
            <Time>2018-09-14T13:57:23.000Z</Time>
            <Position>
              <LatitudeDegrees>37.766906060278415679931640625</LatitudeDegrees>
              <LongitudeDegrees>-8.0964986979961395263671875</LongitudeDegrees>
            </Position>
            <AltitudeMeters>193.8000030517578125</AltitudeMeters>
            <DistanceMeters>289790.62097764</DistanceMeters>
          </Trackpoint>
          <Trackpoint>
            <Time>2018-09-14T13:57:24.000Z</Time>
            <Position>
              <LatitudeDegrees>37.76683959178626537322998046875</LatitudeDegrees>
              <LongitudeDegrees>-8.09648570604622364044189453125</LongitudeDegrees>
            </Position>
            <AltitudeMeters>194</AltitudeMeters>
            <DistanceMeters>289798.10700826</DistanceMeters>
          </Trackpoint>
          <Trackpoint>
            <Time>2018-09-14T13:57:25.000Z</Time>
            <Position>
              <LatitudeDegrees>37.7667734585702419281005859375</LatitudeDegrees>
              <LongitudeDegrees>-8.0964727140963077545166015625</LongitudeDegrees>
            </Position>
            <AltitudeMeters>194.399993896484375</AltitudeMeters>
            <DistanceMeters>289805.55615719</DistanceMeters>
          </Trackpoint>
          <Trackpoint>
            <Time>2018-09-14T13:57:26.000Z</Time>
            <Position>
              <LatitudeDegrees>37.76670799590647220611572265625</LatitudeDegrees>
              <LongitudeDegrees>-8.09645972214639186859130859375</LongitudeDegrees>
            </Position>
            <AltitudeMeters>194.8000030517578125</AltitudeMeters>
            <DistanceMeters>289812.93160162</DistanceMeters>
          </Trackpoint>
          <Trackpoint>
            <Time>2018-09-14T13:57:27.000Z</Time>
            <Position>
              <LatitudeDegrees>37.766642868518829345703125</LatitudeDegrees>
              <LongitudeDegrees>-8.0964479036629199981689453125</LongitudeDegrees>
            </Position>
            <AltitudeMeters>195</AltitudeMeters>
            <DistanceMeters>289820.2554431</DistanceMeters>
          </Trackpoint>
          <Trackpoint>
            <Time>2018-09-14T13:57:28.000Z</Time>
            <Position>
              <LatitudeDegrees>37.7665776573121547698974609375</LatitudeDegrees>
              <LongitudeDegrees>-8.096436001360416412353515625</LongitudeDegrees>
            </Position>
            <AltitudeMeters>195.1999969482421875</AltitudeMeters>
            <DistanceMeters>289827.58791029</DistanceMeters>
          </Trackpoint>
          <Trackpoint>
            <Time>2018-09-14T13:57:29.000Z</Time>
            <Position>
              <LatitudeDegrees>37.766513116657733917236328125</LatitudeDegrees>
              <LongitudeDegrees>-8.09642351232469081878662109375</LongitudeDegrees>
            </Position>
            <AltitudeMeters>195.600006103515625</AltitudeMeters>
            <DistanceMeters>289834.85481383</DistanceMeters>
          </Trackpoint>
          <Trackpoint>
            <Time>2018-09-14T13:57:30.000Z</Time>
            <Position>
              <LatitudeDegrees>37.7664489112794399261474609375</LatitudeDegrees>
              <LongitudeDegrees>-8.0964100174605846405029296875</LongitudeDegrees>
            </Position>
            <AltitudeMeters>195.8000030517578125</AltitudeMeters>
            <DistanceMeters>289842.09931549</DistanceMeters>
          </Trackpoint>
          <Trackpoint>
            <Time>2018-09-14T13:57:31.000Z</Time>
            <Position>
              <LatitudeDegrees>37.76638395152986049652099609375</LatitudeDegrees>
              <LongitudeDegrees>-8.0963972769677639007568359375</LongitudeDegrees>
            </Position>
            <AltitudeMeters>196</AltitudeMeters>
            <DistanceMeters>289849.41575542</DistanceMeters>
          </Trackpoint>
          <Trackpoint>
            <Time>2018-09-14T13:57:32.000Z</Time>
            <Position>
              <LatitudeDegrees>37.76631941087543964385986328125</LatitudeDegrees>
              <LongitudeDegrees>-8.0963855423033237457275390625</LongitudeDegrees>
            </Position>
            <AltitudeMeters>196.399993896484375</AltitudeMeters>
            <DistanceMeters>289856.6727111</DistanceMeters>
          </Trackpoint>
          <Trackpoint>
            <Time>2018-09-14T13:57:33.000Z</Time>
            <Position>
              <LatitudeDegrees>37.7662551216781139373779296875</LatitudeDegrees>
              <LongitudeDegrees>-8.096372298896312713623046875</LongitudeDegrees>
            </Position>
            <AltitudeMeters>196.600006103515625</AltitudeMeters>
            <DistanceMeters>289863.92281972</DistanceMeters>
          </Trackpoint>
          <Trackpoint>
            <Time>2018-09-14T13:57:34.000Z</Time>
            <Position>
              <LatitudeDegrees>37.76619167067110538482666015625</LatitudeDegrees>
              <LongitudeDegrees>-8.09635913930833339691162109375</LongitudeDegrees>
            </Position>
            <AltitudeMeters>197</AltitudeMeters>
            <DistanceMeters>289871.0795364</DistanceMeters>
          </Trackpoint>
          <Trackpoint>
            <Time>2018-09-14T13:57:35.000Z</Time>
            <Position>
              <LatitudeDegrees>37.76612847112119197845458984375</LatitudeDegrees>
              <LongitudeDegrees>-8.09634723700582981109619140625</LongitudeDegrees>
            </Position>
            <AltitudeMeters>197.600006103515625</AltitudeMeters>
            <DistanceMeters>289878.19068455</DistanceMeters>
          </Trackpoint>
          <Trackpoint>
            <Time>2018-09-14T13:57:36.000Z</Time>
            <Position>
              <LatitudeDegrees>37.7660640142858028411865234375</LatitudeDegrees>
              <LongitudeDegrees>-8.09633483178913593292236328125</LongitudeDegrees>
            </Position>
            <AltitudeMeters>198</AltitudeMeters>
            <DistanceMeters>289885.44764024</DistanceMeters>
          </Trackpoint>
          <Trackpoint>
            <Time>2018-09-14T13:57:37.000Z</Time>
            <Position>
              <LatitudeDegrees>37.76599938981235027313232421875</LatitudeDegrees>
              <LongitudeDegrees>-8.09632259421050548553466796875</LongitudeDegrees>
            </Position>
            <AltitudeMeters>198.399993896484375</AltitudeMeters>
            <DistanceMeters>289892.72075428</DistanceMeters>
          </Trackpoint>
          <Trackpoint>
            <Time>2018-09-14T13:57:38.000Z</Time>
            <Position>
              <LatitudeDegrees>37.765935100615024566650390625</LatitudeDegrees>
              <LongitudeDegrees>-8.09630968607962131500244140625</LongitudeDegrees>
            </Position>
            <AltitudeMeters>198.8000030517578125</AltitudeMeters>
            <DistanceMeters>289899.9665023</DistanceMeters>
          </Trackpoint>
          <Trackpoint>
            <Time>2018-09-14T13:57:39.000Z</Time>
            <Position>
              <LatitudeDegrees>37.76587097905576229095458984375</LatitudeDegrees>
              <LongitudeDegrees>-8.09629845432937145233154296875</LongitudeDegrees>
            </Position>
            <AltitudeMeters>199.1999969482421875</AltitudeMeters>
            <DistanceMeters>289907.17163308</DistanceMeters>
          </Trackpoint>
          <Trackpoint>
            <Time>2018-09-14T13:57:40.000Z</Time>
            <Position>
              <LatitudeDegrees>37.7658065222203731536865234375</LatitudeDegrees>
              <LongitudeDegrees>-8.0962869711220264434814453125</LongitudeDegrees>
            </Position>
            <AltitudeMeters>199.1999969482421875</AltitudeMeters>
            <DistanceMeters>289914.41613474</DistanceMeters>
          </Trackpoint>
          <Trackpoint>
            <Time>2018-09-14T13:57:41.000Z</Time>
            <Position>
              <LatitudeDegrees>37.765741981565952301025390625</LatitudeDegrees>
              <LongitudeDegrees>-8.09627406299114227294921875</LongitudeDegrees>
            </Position>
            <AltitudeMeters>199.1999969482421875</AltitudeMeters>
            <DistanceMeters>289921.68924877</DistanceMeters>
          </Trackpoint>
          <Trackpoint>
            <Time>2018-09-14T13:57:42.000Z</Time>
            <Position>
              <LatitudeDegrees>37.765677273273468017578125</LatitudeDegrees>
              <LongitudeDegrees>-8.09626065194606781005859375</LongitudeDegrees>
            </Position>
            <AltitudeMeters>199.1999969482421875</AltitudeMeters>
            <DistanceMeters>289928.98715196</DistanceMeters>
          </Trackpoint>
          <Trackpoint>
            <Time>2018-09-14T13:57:43.000Z</Time>
            <Position>
              <LatitudeDegrees>37.7656120620667934417724609375</LatitudeDegrees>
              <LongitudeDegrees>-8.09624648652970790863037109375</LongitudeDegrees>
            </Position>
            <AltitudeMeters>199.1999969482421875</AltitudeMeters>
            <DistanceMeters>289936.35156905</DistanceMeters>
          </Trackpoint>
          <Trackpoint>
            <Time>2018-09-14T13:57:44.000Z</Time>
            <Position>
              <LatitudeDegrees>37.76554676704108715057373046875</LatitudeDegrees>
              <LongitudeDegrees>-8.0962326563894748687744140625</LongitudeDegrees>
            </Position>
            <AltitudeMeters>199</AltitudeMeters>
            <DistanceMeters>289943.72088922</DistanceMeters>
          </Trackpoint>
          <Trackpoint>
            <Time>2018-09-14T13:57:45.000Z</Time>
            <Position>
              <LatitudeDegrees>37.76548222638666629791259765625</LatitudeDegrees>
              <LongitudeDegrees>-8.09621899388730525970458984375</LongitudeDegrees>
            </Position>
            <AltitudeMeters>198.8000030517578125</AltitudeMeters>
            <DistanceMeters>289951.00516881</DistanceMeters>
          </Trackpoint>
          <Trackpoint>
            <Time>2018-09-14T13:57:46.000Z</Time>
            <Position>
              <LatitudeDegrees>37.7654182724654674530029296875</LatitudeDegrees>
              <LongitudeDegrees>-8.0962061695754528045654296875</LongitudeDegrees>
            </Position>
            <AltitudeMeters>198.600006103515625</AltitudeMeters>
            <DistanceMeters>289958.21217926</DistanceMeters>
          </Trackpoint>
          <Trackpoint>
            <Time>2018-09-14T13:57:47.000Z</Time>
            <Position>
              <LatitudeDegrees>37.76535515673458576202392578125</LatitudeDegrees>
              <LongitudeDegrees>-8.0961934290826320648193359375</LongitudeDegrees>
            </Position>
            <AltitudeMeters>198.399993896484375</AltitudeMeters>
            <DistanceMeters>289965.32586666</DistanceMeters>
          </Trackpoint>
          <Trackpoint>
            <Time>2018-09-14T13:57:48.000Z</Time>
            <Position>
              <LatitudeDegrees>37.7652925439178943634033203125</LatitudeDegrees>
              <LongitudeDegrees>-8.096180856227874755859375</LongitudeDegrees>
            </Position>
            <AltitudeMeters>198.1999969482421875</AltitudeMeters>
            <DistanceMeters>289972.3822001</DistanceMeters>
          </Trackpoint>
          <Trackpoint>
            <Time>2018-09-14T13:57:49.000Z</Time>
            <Position>
              <LatitudeDegrees>37.7652298472821712493896484375</LatitudeDegrees>
              <LongitudeDegrees>-8.09616887010633945465087890625</LongitudeDegrees>
            </Position>
            <AltitudeMeters>198.1999969482421875</AltitudeMeters>
            <DistanceMeters>289979.43981312</DistanceMeters>
          </Trackpoint>
          <Trackpoint>
            <Time>2018-09-14T13:57:50.000Z</Time>
            <Position>
              <LatitudeDegrees>37.76516698300838470458984375</LatitudeDegrees>
              <LongitudeDegrees>-8.09615730307996273040771484375</LongitudeDegrees>
            </Position>
            <AltitudeMeters>198</AltitudeMeters>
            <DistanceMeters>289986.51148643</DistanceMeters>
          </Trackpoint>
          <Trackpoint>
            <Time>2018-09-14T13:57:51.000Z</Time>
            <Position>
              <LatitudeDegrees>37.76510369963943958282470703125</LatitudeDegrees>
              <LongitudeDegrees>-8.09614556841552257537841796875</LongitudeDegrees>
            </Position>
            <AltitudeMeters>197.8000030517578125</AltitudeMeters>
            <DistanceMeters>289993.6302496</DistanceMeters>
          </Trackpoint>
          <Trackpoint>
            <Time>2018-09-14T13:57:52.000Z</Time>
            <Position>
              <LatitudeDegrees>37.76503882370889186859130859375</LatitudeDegrees>
              <LongitudeDegrees>-8.096132241189479827880859375</LongitudeDegrees>
            </Position>
            <AltitudeMeters>197.600006103515625</AltitudeMeters>
            <DistanceMeters>290000.9454552</DistanceMeters>
          </Trackpoint>
          <Trackpoint>
            <Time>2018-09-14T13:57:53.000Z</Time>
            <Position>
              <LatitudeDegrees>37.76497344486415386199951171875</LatitudeDegrees>
              <LongitudeDegrees>-8.0961183272302150726318359375</LongitudeDegrees>
            </Position>
            <AltitudeMeters>197.600006103515625</AltitudeMeters>
            <DistanceMeters>290008.32395985</DistanceMeters>
          </Trackpoint>
          <Trackpoint>
            <Time>2018-09-14T13:57:54.000Z</Time>
            <Position>
              <LatitudeDegrees>37.76490747928619384765625</LatitudeDegrees>
              <LongitudeDegrees>-8.09610533528029918670654296875</LongitudeDegrees>
            </Position>
            <AltitudeMeters>197.600006103515625</AltitudeMeters>
            <DistanceMeters>290015.75429547</DistanceMeters>
          </Trackpoint>
          <Trackpoint>
            <Time>2018-09-14T13:57:55.000Z</Time>
            <Position>
              <LatitudeDegrees>37.76484067551791667938232421875</LatitudeDegrees>
              <LongitudeDegrees>-8.09609309770166873931884765625</LongitudeDegrees>
            </Position>
            <AltitudeMeters>197.600006103515625</AltitudeMeters>
            <DistanceMeters>290023.26681686</DistanceMeters>
          </Trackpoint>
          <Trackpoint>
            <Time>2018-09-14T13:57:56.000Z</Time>
            <Position>
              <LatitudeDegrees>37.76477294974029064178466796875</LatitudeDegrees>
              <LongitudeDegrees>-8.09608119539916515350341796875</LongitudeDegrees>
            </Position>
            <AltitudeMeters>197.600006103515625</AltitudeMeters>
            <DistanceMeters>290030.87667102</DistanceMeters>
          </Trackpoint>
          <Trackpoint>
            <Time>2018-09-14T13:57:57.000Z</Time>
            <Position>
              <LatitudeDegrees>37.76470488868653774261474609375</LatitudeDegrees>
              <LongitudeDegrees>-8.09606862254440784454345703125</LongitudeDegrees>
            </Position>
            <AltitudeMeters>197.600006103515625</AltitudeMeters>
            <DistanceMeters>290038.53266385</DistanceMeters>
          </Trackpoint>
          <Trackpoint>
            <Time>2018-09-14T13:57:58.000Z</Time>
            <Position>
              <LatitudeDegrees>37.76463615708053112030029296875</LatitudeDegrees>
              <LongitudeDegrees>-8.09605638496577739715576171875</LongitudeDegrees>
            </Position>
            <AltitudeMeters>197.8000030517578125</AltitudeMeters>
            <DistanceMeters>290046.25793246</DistanceMeters>
          </Trackpoint>
          <Trackpoint>
            <Time>2018-09-14T13:57:59.000Z</Time>
            <Position>
              <LatitudeDegrees>37.76456742547452449798583984375</LatitudeDegrees>
              <LongitudeDegrees>-8.09604498557746410369873046875</LongitudeDegrees>
            </Position>
            <AltitudeMeters>197.8000030517578125</AltitudeMeters>
            <DistanceMeters>290053.97384421</DistanceMeters>
          </Trackpoint>
          <Trackpoint>
            <Time>2018-09-14T13:58:00.000Z</Time>
            <Position>
              <LatitudeDegrees>37.764499448239803314208984375</LatitudeDegrees>
              <LongitudeDegrees>-8.0960333347320556640625</LongitudeDegrees>
            </Position>
            <AltitudeMeters>197.8000030517578125</AltitudeMeters>
            <DistanceMeters>290061.60916827</DistanceMeters>
          </Trackpoint>
          <Trackpoint>
            <Time>2018-09-14T13:58:01.000Z</Time>
            <Position>
              <LatitudeDegrees>37.7644315548241138458251953125</LatitudeDegrees>
              <LongitudeDegrees>-8.09602059423923492431640625</LongitudeDegrees>
            </Position>
            <AltitudeMeters>197.8000030517578125</AltitudeMeters>
            <DistanceMeters>290069.24803952</DistanceMeters>
          </Trackpoint>
          <Trackpoint>
            <Time>2018-09-14T13:58:02.000Z</Time>
            <Position>
              <LatitudeDegrees>37.7643638290464878082275390625</LatitudeDegrees>
              <LongitudeDegrees>-8.09600693173706531524658203125</LongitudeDegrees>
            </Position>
            <AltitudeMeters>197.8000030517578125</AltitudeMeters>
            <DistanceMeters>290076.88099787</DistanceMeters>
          </Trackpoint>
          <Trackpoint>
            <Time>2018-09-14T13:58:03.000Z</Time>
            <Position>
              <LatitudeDegrees>37.7642967738211154937744140625</LatitudeDegrees>
              <LongitudeDegrees>-8.0959942750632762908935546875</LongitudeDegrees>
            </Position>
            <AltitudeMeters>197.8000030517578125</AltitudeMeters>
            <DistanceMeters>290084.42710031</DistanceMeters>
          </Trackpoint>
          <Trackpoint>
            <Time>2018-09-14T13:58:04.000Z</Time>
            <Position>
              <LatitudeDegrees>37.7642300538718700408935546875</LatitudeDegrees>
              <LongitudeDegrees>-8.0959822051227092742919921875</LongitudeDegrees>
            </Position>
            <AltitudeMeters>197.8000030517578125</AltitudeMeters>
            <DistanceMeters>290091.92879588</DistanceMeters>
          </Trackpoint>
          <Trackpoint>
            <Time>2018-09-14T13:58:05.000Z</Time>
            <Position>
              <LatitudeDegrees>37.76416392065584659576416015625</LatitudeDegrees>
              <LongitudeDegrees>-8.095970638096332550048828125</LongitudeDegrees>
            </Position>
            <AltitudeMeters>198.1999969482421875</AltitudeMeters>
            <DistanceMeters>290099.35973912</DistanceMeters>
          </Trackpoint>
          <Trackpoint>
            <Time>2018-09-14T13:58:06.000Z</Time>
            <Position>
              <LatitudeDegrees>37.76409870944917201995849609375</LatitudeDegrees>
              <LongitudeDegrees>-8.095958232879638671875</LongitudeDegrees>
            </Position>
            <AltitudeMeters>198.600006103515625</AltitudeMeters>
            <DistanceMeters>290106.69959171</DistanceMeters>
          </Trackpoint>
          <Trackpoint>
            <Time>2018-09-14T13:58:07.000Z</Time>
            <Position>
              <LatitudeDegrees>37.76403450407087802886962890625</LatitudeDegrees>
              <LongitudeDegrees>-8.09594557620584964752197265625</LongitudeDegrees>
            </Position>
            <AltitudeMeters>199</AltitudeMeters>
            <DistanceMeters>290113.9316179</DistanceMeters>
          </Trackpoint>
          <Trackpoint>
            <Time>2018-09-14T13:58:08.000Z</Time>
            <Position>
              <LatitudeDegrees>37.76397046633064746856689453125</LatitudeDegrees>
              <LongitudeDegrees>-8.0959325842559337615966796875</LongitudeDegrees>
            </Position>
            <AltitudeMeters>199.399993896484375</AltitudeMeters>
            <DistanceMeters>290121.15114706</DistanceMeters>
          </Trackpoint>
          <Trackpoint>
            <Time>2018-09-14T13:58:09.000Z</Time>
            <Position>
              <LatitudeDegrees>37.76390776969492435455322265625</LatitudeDegrees>
              <LongitudeDegrees>-8.09592043049633502960205078125</LongitudeDegrees>
            </Position>
            <AltitudeMeters>199.8000030517578125</AltitudeMeters>
            <DistanceMeters>290128.21131858</DistanceMeters>
          </Trackpoint>
          <Trackpoint>
            <Time>2018-09-14T13:58:10.000Z</Time>
            <Position>
              <LatitudeDegrees>37.76384641416370868682861328125</LatitudeDegrees>
              <LongitudeDegrees>-8.09590903110802173614501953125</LongitudeDegrees>
            </Position>
            <AltitudeMeters>200.1999969482421875</AltitudeMeters>
            <DistanceMeters>290135.11368653</DistanceMeters>
          </Trackpoint>
          <Trackpoint>
            <Time>2018-09-14T13:58:11.000Z</Time>
            <Position>
              <LatitudeDegrees>37.7637858130037784576416015625</LatitudeDegrees>
              <LongitudeDegrees>-8.09589721262454986572265625</LongitudeDegrees>
            </Position>
            <AltitudeMeters>200.600006103515625</AltitudeMeters>
            <DistanceMeters>290141.9384308</DistanceMeters>
          </Trackpoint>
          <Trackpoint>
            <Time>2018-09-14T13:58:12.000Z</Time>
            <Position>
              <LatitudeDegrees>37.763726972043514251708984375</LatitudeDegrees>
              <LongitudeDegrees>-8.0958859808743000030517578125</LongitudeDegrees>
            </Position>
            <AltitudeMeters>201</AltitudeMeters>
            <DistanceMeters>290148.56173144</DistanceMeters>
          </Trackpoint>
          <Trackpoint>
            <Time>2018-09-14T13:58:13.000Z</Time>
            <Position>
              <LatitudeDegrees>37.7636696398258209228515625</LatitudeDegrees>
              <LongitudeDegrees>-8.09587533585727214813232421875</LongitudeDegrees>
            </Position>
            <AltitudeMeters>201.1999969482421875</AltitudeMeters>
            <DistanceMeters>290155.01165874</DistanceMeters>
          </Trackpoint>
          <Trackpoint>
            <Time>2018-09-14T13:58:14.000Z</Time>
            <Position>
              <LatitudeDegrees>37.76361398398876190185546875</LatitudeDegrees>
              <LongitudeDegrees>-8.095864020287990570068359375</LongitudeDegrees>
            </Position>
            <AltitudeMeters>201.600006103515625</AltitudeMeters>
            <DistanceMeters>290161.28558121</DistanceMeters>
          </Trackpoint>
          <Trackpoint>
            <Time>2018-09-14T13:58:15.000Z</Time>
            <Position>
              <LatitudeDegrees>37.76355908252298831939697265625</LatitudeDegrees>
              <LongitudeDegrees>-8.095853626728057861328125</LongitudeDegrees>
            </Position>
            <AltitudeMeters>202</AltitudeMeters>
            <DistanceMeters>290167.46377942</DistanceMeters>
          </Trackpoint>
          <Trackpoint>
            <Time>2018-09-14T13:58:16.000Z</Time>
            <Position>
              <LatitudeDegrees>37.7635048516094684600830078125</LatitudeDegrees>
              <LongitudeDegrees>-8.09584365226328372955322265625</LongitudeDegrees>
            </Position>
            <AltitudeMeters>202.1999969482421875</AltitudeMeters>
            <DistanceMeters>290173.56179999</DistanceMeters>
          </Trackpoint>
          <Trackpoint>
            <Time>2018-09-14T13:58:17.000Z</Time>
            <Position>
              <LatitudeDegrees>37.763451375067234039306640625</LatitudeDegrees>
              <LongitudeDegrees>-8.0958326719701290130615234375</LongitudeDegrees>
            </Position>
            <AltitudeMeters>202.399993896484375</AltitudeMeters>
            <DistanceMeters>290179.5920668</DistanceMeters>
          </Trackpoint>
          <Trackpoint>
            <Time>2018-09-14T13:58:18.000Z</Time>
            <Position>
              <LatitudeDegrees>37.76339940726757049560546875</LatitudeDegrees>
              <LongitudeDegrees>-8.09582001529633998870849609375</LongitudeDegrees>
            </Position>
            <AltitudeMeters>202.399993896484375</AltitudeMeters>
            <DistanceMeters>290185.4821902</DistanceMeters>
          </Trackpoint>
          <Trackpoint>
            <Time>2018-09-14T13:58:19.000Z</Time>
            <Position>
              <LatitudeDegrees>37.76334769092500209808349609375</LatitudeDegrees>
              <LongitudeDegrees>-8.0958080291748046875</LongitudeDegrees>
            </Position>
            <AltitudeMeters>202.1999969482421875</AltitudeMeters>
            <DistanceMeters>290191.33386089</DistanceMeters>
          </Trackpoint>
          <Trackpoint>
            <Time>2018-09-14T13:58:20.000Z</Time>
            <Position>
              <LatitudeDegrees>37.76329572312533855438232421875</LatitudeDegrees>
              <LongitudeDegrees>-8.09579855762422084808349609375</LongitudeDegrees>
            </Position>
            <AltitudeMeters>202.1999969482421875</AltitudeMeters>
            <DistanceMeters>290197.17781068</DistanceMeters>
          </Trackpoint>
          <Trackpoint>
            <Time>2018-09-14T13:58:21.000Z</Time>
            <Position>
              <LatitudeDegrees>37.763244174420833587646484375</LatitudeDegrees>
              <LongitudeDegrees>-8.0957890860736370086669921875</LongitudeDegrees>
            </Position>
            <AltitudeMeters>202</AltitudeMeters>
            <DistanceMeters>290202.97599786</DistanceMeters>
          </Trackpoint>
          <Trackpoint>
            <Time>2018-09-14T13:58:22.000Z</Time>
            <Position>
              <LatitudeDegrees>37.76319312863051891326904296875</LatitudeDegrees>
              <LongitudeDegrees>-8.0957793630659580230712890625</LongitudeDegrees>
            </Position>
            <AltitudeMeters>201.8000030517578125</AltitudeMeters>
            <DistanceMeters>290208.7217754</DistanceMeters>
          </Trackpoint>
          <Trackpoint>
            <Time>2018-09-14T13:58:23.000Z</Time>
            <Position>
              <LatitudeDegrees>37.763142250478267669677734375</LatitudeDegrees>
              <LongitudeDegrees>-8.09576938860118389129638671875</LongitudeDegrees>
            </Position>
            <AltitudeMeters>201.8000030517578125</AltitudeMeters>
            <DistanceMeters>290214.45181536</DistanceMeters>
          </Trackpoint>
          <Trackpoint>
            <Time>2018-09-14T13:58:24.000Z</Time>
            <Position>
              <LatitudeDegrees>37.7630914561450481414794921875</LatitudeDegrees>
              <LongitudeDegrees>-8.09576016850769519805908203125</LongitudeDegrees>
            </Position>
            <AltitudeMeters>201.600006103515625</AltitudeMeters>
            <DistanceMeters>290220.16291299</DistanceMeters>
          </Trackpoint>
          <Trackpoint>
            <Time>2018-09-14T13:58:25.000Z</Time>
            <Position>
              <LatitudeDegrees>37.76304041035473346710205078125</LatitudeDegrees>
              <LongitudeDegrees>-8.09575111605226993560791015625</LongitudeDegrees>
            </Position>
            <AltitudeMeters>201.600006103515625</AltitudeMeters>
            <DistanceMeters>290225.9000402</DistanceMeters>
          </Trackpoint>
          <Trackpoint>
            <Time>2018-09-14T13:58:26.000Z</Time>
            <Position>
              <LatitudeDegrees>37.762989699840545654296875</LatitudeDegrees>
              <LongitudeDegrees>-8.095743656158447265625</LongitudeDegrees>
            </Position>
            <AltitudeMeters>201.399993896484375</AltitudeMeters>
            <DistanceMeters>290231.58181134</DistanceMeters>
          </Trackpoint>
          <Trackpoint>
            <Time>2018-09-14T13:58:27.000Z</Time>
            <Position>
              <LatitudeDegrees>37.76293831877410411834716796875</LatitudeDegrees>
              <LongitudeDegrees>-8.09573837555944919586181640625</LongitudeDegrees>
            </Position>
            <AltitudeMeters>201.399993896484375</AltitudeMeters>
            <DistanceMeters>290237.31815151</DistanceMeters>
          </Trackpoint>
          <Trackpoint>
            <Time>2018-09-14T13:58:28.000Z</Time>
            <Position>
              <LatitudeDegrees>37.7628869377076625823974609375</LatitudeDegrees>
              <LongitudeDegrees>-8.0957317538559436798095703125</LongitudeDegrees>
            </Position>
            <AltitudeMeters>201.1999969482421875</AltitudeMeters>
            <DistanceMeters>290243.06550043</DistanceMeters>
          </Trackpoint>
          <Trackpoint>
            <Time>2018-09-14T13:58:29.000Z</Time>
            <Position>
              <LatitudeDegrees>37.76283622719347476959228515625</LatitudeDegrees>
              <LongitudeDegrees>-8.09572110883891582489013671875</LongitudeDegrees>
            </Position>
            <AltitudeMeters>201</AltitudeMeters>
            <DistanceMeters>290248.78686627</DistanceMeters>
          </Trackpoint>
          <Trackpoint>
            <Time>2018-09-14T13:58:30.000Z</Time>
            <Position>
              <LatitudeDegrees>37.76278627105057239532470703125</LatitudeDegrees>
              <LongitudeDegrees>-8.09570937417447566986083984375</LongitudeDegrees>
            </Position>
            <AltitudeMeters>201</AltitudeMeters>
            <DistanceMeters>290254.44235306</DistanceMeters>
          </Trackpoint>
          <Trackpoint>
            <Time>2018-09-14T13:58:31.000Z</Time>
            <Position>
              <LatitudeDegrees>37.7627362310886383056640625</LatitudeDegrees>
              <LongitudeDegrees>-8.09569948352873325347900390625</LongitudeDegrees>
            </Position>
            <AltitudeMeters>201</AltitudeMeters>
            <DistanceMeters>290260.07864696</DistanceMeters>
          </Trackpoint>
          <Trackpoint>
            <Time>2018-09-14T13:58:32.000Z</Time>
            <Position>
              <LatitudeDegrees>37.7626852691173553466796875</LatitudeDegrees>
              <LongitudeDegrees>-8.095691688358783721923828125</LongitudeDegrees>
            </Position>
            <AltitudeMeters>201.1999969482421875</AltitudeMeters>
            <DistanceMeters>290265.79132551</DistanceMeters>
          </Trackpoint>
          <Trackpoint>
            <Time>2018-09-14T13:58:33.000Z</Time>
            <Position>
              <LatitudeDegrees>37.76263439096510410308837890625</LatitudeDegrees>
              <LongitudeDegrees>-8.09568339027464389801025390625</LongitudeDegrees>
            </Position>
            <AltitudeMeters>201.399993896484375</AltitudeMeters>
            <DistanceMeters>290271.50084178</DistanceMeters>
          </Trackpoint>
          <Trackpoint>
            <Time>2018-09-14T13:58:34.000Z</Time>
            <Position>
              <LatitudeDegrees>37.7625835128128528594970703125</LatitudeDegrees>
              <LongitudeDegrees>-8.09567400254309177398681640625</LongitudeDegrees>
            </Position>
            <AltitudeMeters>201.600006103515625</AltitudeMeters>
            <DistanceMeters>290277.22457459</DistanceMeters>
          </Trackpoint>
          <Trackpoint>
            <Time>2018-09-14T13:58:35.000Z</Time>
            <Position>
              <LatitudeDegrees>37.76253296993672847747802734375</LatitudeDegrees>
              <LongitudeDegrees>-8.0956646986305713653564453125</LongitudeDegrees>
            </Position>
            <AltitudeMeters>201.8000030517578125</AltitudeMeters>
            <DistanceMeters>290282.90952346</DistanceMeters>
          </Trackpoint>
          <Trackpoint>
            <Time>2018-09-14T13:58:36.000Z</Time>
            <Position>
              <LatitudeDegrees>37.76248267851769924163818359375</LatitudeDegrees>
              <LongitudeDegrees>-8.095654807984828948974609375</LongitudeDegrees>
            </Position>
            <AltitudeMeters>202.1999969482421875</AltitudeMeters>
            <DistanceMeters>290288.5745823</DistanceMeters>
          </Trackpoint>
          <Trackpoint>
            <Time>2018-09-14T13:58:37.000Z</Time>
            <Position>
              <LatitudeDegrees>37.76243305765092372894287109375</LatitudeDegrees>
              <LongitudeDegrees>-8.09564500115811824798583984375</LongitudeDegrees>
            </Position>
            <AltitudeMeters>202.399993896484375</AltitudeMeters>
            <DistanceMeters>290294.16341352</DistanceMeters>
          </Trackpoint>
          <Trackpoint>
            <Time>2018-09-14T13:58:38.000Z</Time>
            <Position>
              <LatitudeDegrees>37.7623833529651165008544921875</LatitudeDegrees>
              <LongitudeDegrees>-8.09563561342656612396240234375</LongitudeDegrees>
            </Position>
            <AltitudeMeters>202.8000030517578125</AltitudeMeters>
            <DistanceMeters>290299.75708985</DistanceMeters>
          </Trackpoint>
          <Trackpoint>
            <Time>2018-09-14T13:58:39.000Z</Time>
            <Position>
              <LatitudeDegrees>37.76233415119349956512451171875</LatitudeDegrees>
              <LongitudeDegrees>-8.09562605805695056915283203125</LongitudeDegrees>
            </Position>
            <AltitudeMeters>203.1999969482421875</AltitudeMeters>
            <DistanceMeters>290305.29723694</DistanceMeters>
          </Trackpoint>
          <Trackpoint>
            <Time>2018-09-14T13:58:40.000Z</Time>
            <Position>
              <LatitudeDegrees>37.7622854523360729217529296875</LatitudeDegrees>
              <LongitudeDegrees>-8.095616586506366729736328125</LongitudeDegrees>
            </Position>
            <AltitudeMeters>203.399993896484375</AltitudeMeters>
            <DistanceMeters>290310.78086298</DistanceMeters>
          </Trackpoint>
          <Trackpoint>
            <Time>2018-09-14T13:58:41.000Z</Time>
            <Position>
              <LatitudeDegrees>37.76223658584058284759521484375</LatitudeDegrees>
              <LongitudeDegrees>-8.09560812078416347503662109375</LongitudeDegrees>
            </Position>
            <AltitudeMeters>203.8000030517578125</AltitudeMeters>
            <DistanceMeters>290316.27024957</DistanceMeters>
          </Trackpoint>
          <Trackpoint>
            <Time>2018-09-14T13:58:42.000Z</Time>
            <Position>
              <LatitudeDegrees>37.76218880899250507354736328125</LatitudeDegrees>
              <LongitudeDegrees>-8.0955993197858333587646484375</LongitudeDegrees>
            </Position>
            <AltitudeMeters>204.1999969482421875</AltitudeMeters>
            <DistanceMeters>290321.64409219</DistanceMeters>
          </Trackpoint>
          <Trackpoint>
            <Time>2018-09-14T13:58:43.000Z</Time>
            <Position>
              <LatitudeDegrees>37.76214145123958587646484375</LatitudeDegrees>
              <LongitudeDegrees>-8.095590434968471527099609375</LongitudeDegrees>
            </Position>
            <AltitudeMeters>204.399993896484375</AltitudeMeters>
            <DistanceMeters>290326.97237149</DistanceMeters>
          </Trackpoint>
          <Trackpoint>
            <Time>2018-09-14T13:58:44.000Z</Time>
            <Position>
              <LatitudeDegrees>37.76209459640085697174072265625</LatitudeDegrees>
              <LongitudeDegrees>-8.0955815501511096954345703125</LongitudeDegrees>
            </Position>
            <AltitudeMeters>204.8000030517578125</AltitudeMeters>
            <DistanceMeters>290332.24528391</DistanceMeters>
          </Trackpoint>
          <Trackpoint>
            <Time>2018-09-14T13:58:45.000Z</Time>
            <Position>
              <LatitudeDegrees>37.76204832829535007476806640625</LatitudeDegrees>
              <LongitudeDegrees>-8.095571994781494140625</LongitudeDegrees>
            </Position>
            <AltitudeMeters>205.1999969482421875</AltitudeMeters>
            <DistanceMeters>290337.46224187</DistanceMeters>
          </Trackpoint>
          <Trackpoint>
            <Time>2018-09-14T13:58:46.000Z</Time>
            <Position>
              <LatitudeDegrees>37.7620018087327480316162109375</LatitudeDegrees>
              <LongitudeDegrees>-8.09556193649768829345703125</LongitudeDegrees>
            </Position>
            <AltitudeMeters>205.600006103515625</AltitudeMeters>
            <DistanceMeters>290342.71542316</DistanceMeters>
          </Trackpoint>
          <Trackpoint>
            <Time>2018-09-14T13:58:47.000Z</Time>
            <Position>
              <LatitudeDegrees>37.76195528917014598846435546875</LatitudeDegrees>
              <LongitudeDegrees>-8.09555347077548503875732421875</LongitudeDegrees>
            </Position>
            <AltitudeMeters>206</AltitudeMeters>
            <DistanceMeters>290347.94621006</DistanceMeters>
          </Trackpoint>
          <Trackpoint>
            <Time>2018-09-14T13:58:48.000Z</Time>
            <Position>
              <LatitudeDegrees>37.761909104883670806884765625</LatitudeDegrees>
              <LongitudeDegrees>-8.095544837415218353271484375</LongitudeDegrees>
            </Position>
            <AltitudeMeters>206.399993896484375</AltitudeMeters>
            <DistanceMeters>290353.14235561</DistanceMeters>
          </Trackpoint>
          <Trackpoint>
            <Time>2018-09-14T13:58:49.000Z</Time>
            <Position>
              <LatitudeDegrees>37.7618626691401004791259765625</LatitudeDegrees>
              <LongitudeDegrees>-8.0955359525978565216064453125</LongitudeDegrees>
            </Position>
            <AltitudeMeters>206.8000030517578125</AltitudeMeters>
            <DistanceMeters>290358.36796095</DistanceMeters>
          </Trackpoint>
          <Trackpoint>
            <Time>2018-09-14T13:58:50.000Z</Time>
            <Position>
              <LatitudeDegrees>37.76181682012975215911865234375</LatitudeDegrees>
              <LongitudeDegrees>-8.09552664868533611297607421875</LongitudeDegrees>
            </Position>
            <AltitudeMeters>207.1999969482421875</AltitudeMeters>
            <DistanceMeters>290363.53622624</DistanceMeters>
          </Trackpoint>
          <Trackpoint>
            <Time>2018-09-14T13:58:51.000Z</Time>
            <Position>
              <LatitudeDegrees>37.76177122257649898529052734375</LatitudeDegrees>
              <LongitudeDegrees>-8.0955170094966888427734375</LongitudeDegrees>
            </Position>
            <AltitudeMeters>207.399993896484375</AltitudeMeters>
            <DistanceMeters>290368.68172759</DistanceMeters>
          </Trackpoint>
          <Trackpoint>
            <Time>2018-09-14T13:58:52.000Z</Time>
            <Position>
              <LatitudeDegrees>37.76172579266130924224853515625</LatitudeDegrees>
              <LongitudeDegrees>-8.095507957041263580322265625</LongitudeDegrees>
            </Position>
            <AltitudeMeters>207.8000030517578125</AltitudeMeters>
            <DistanceMeters>290373.79995499</DistanceMeters>
          </Trackpoint>
          <Trackpoint>
            <Time>2018-09-14T13:58:53.000Z</Time>
            <Position>
              <LatitudeDegrees>37.76168069802224636077880859375</LatitudeDegrees>
              <LongitudeDegrees>-8.0954980663955211639404296875</LongitudeDegrees>
            </Position>
            <AltitudeMeters>208.1999969482421875</AltitudeMeters>
            <DistanceMeters>290378.8943087</DistanceMeters>
          </Trackpoint>
          <Trackpoint>
            <Time>2018-09-14T13:58:54.000Z</Time>
            <Position>
              <LatitudeDegrees>37.7616350166499614715576171875</LatitudeDegrees>
              <LongitudeDegrees>-8.09548859484493732452392578125</LongitudeDegrees>
            </Position>
            <AltitudeMeters>208.1999969482421875</AltitudeMeters>
            <DistanceMeters>290384.04682505</DistanceMeters>
          </Trackpoint>
          <Trackpoint>
            <Time>2018-09-14T13:58:55.000Z</Time>
            <Position>
              <LatitudeDegrees>37.76158933527767658233642578125</LatitudeDegrees>
              <LongitudeDegrees>-8.09548105113208293914794921875</LongitudeDegrees>
            </Position>
            <AltitudeMeters>208.399993896484375</AltitudeMeters>
            <DistanceMeters>290389.17474691</DistanceMeters>
          </Trackpoint>
          <Trackpoint>
            <Time>2018-09-14T13:58:56.000Z</Time>
            <Position>
              <LatitudeDegrees>37.76154357008635997772216796875</LatitudeDegrees>
              <LongitudeDegrees>-8.095469735562801361083984375</LongitudeDegrees>
            </Position>
            <AltitudeMeters>208.600006103515625</AltitudeMeters>
            <DistanceMeters>290394.36567632</DistanceMeters>
          </Trackpoint>
          <Trackpoint>
            <Time>2018-09-14T13:58:57.000Z</Time>
            <Position>
              <LatitudeDegrees>37.761498056352138519287109375</LatitudeDegrees>
              <LongitudeDegrees>-8.0954554863274097442626953125</LongitudeDegrees>
            </Position>
            <AltitudeMeters>208.8000030517578125</AltitudeMeters>
            <DistanceMeters>290399.58436491</DistanceMeters>
          </Trackpoint>
          <Trackpoint>
            <Time>2018-09-14T13:58:58.000Z</Time>
            <Position>
              <LatitudeDegrees>37.7614526264369487762451171875</LatitudeDegrees>
              <LongitudeDegrees>-8.0954445898532867431640625</LongitudeDegrees>
            </Position>
            <AltitudeMeters>209</AltitudeMeters>
            <DistanceMeters>290404.73074365</DistanceMeters>
          </Trackpoint>
          <Trackpoint>
            <Time>2018-09-14T13:58:59.000Z</Time>
            <Position>
              <LatitudeDegrees>37.76140677742660045623779296875</LatitudeDegrees>
              <LongitudeDegrees>-8.09543763287365436553955078125</LongitudeDegrees>
            </Position>
            <AltitudeMeters>209</AltitudeMeters>
            <DistanceMeters>290409.86922042</DistanceMeters>
          </Trackpoint>
          <Trackpoint>
            <Time>2018-09-14T13:59:00.000Z</Time>
            <Position>
              <LatitudeDegrees>37.761360593140125274658203125</LatitudeDegrees>
              <LongitudeDegrees>-8.0954306758940219879150390625</LongitudeDegrees>
            </Position>
            <AltitudeMeters>209.1999969482421875</AltitudeMeters>
            <DistanceMeters>290415.04446986</DistanceMeters>
          </Trackpoint>
          <Trackpoint>
            <Time>2018-09-14T13:59:01.000Z</Time>
            <Position>
              <LatitudeDegrees>37.7613146603107452392578125</LatitudeDegrees>
              <LongitudeDegrees>-8.09542321600019931793212890625</LongitudeDegrees>
            </Position>
            <AltitudeMeters>209.399993896484375</AltitudeMeters>
            <DistanceMeters>290420.19873847</DistanceMeters>
          </Trackpoint>
          <Trackpoint>
            <Time>2018-09-14T13:59:02.000Z</Time>
            <Position>
              <LatitudeDegrees>37.7612688951194286346435546875</LatitudeDegrees>
              <LongitudeDegrees>-8.0954162590205669403076171875</LongitudeDegrees>
            </Position>
            <AltitudeMeters>209.399993896484375</AltitudeMeters>
            <DistanceMeters>290425.32930109</DistanceMeters>
          </Trackpoint>
          <Trackpoint>
            <Time>2018-09-14T13:59:03.000Z</Time>
            <Position>
              <LatitudeDegrees>37.76122287847101688385009765625</LatitudeDegrees>
              <LongitudeDegrees>-8.09540770947933197021484375</LongitudeDegrees>
            </Position>
            <AltitudeMeters>209.600006103515625</AltitudeMeters>
            <DistanceMeters>290430.50629509</DistanceMeters>
          </Trackpoint>
          <Trackpoint>
            <Time>2018-09-14T13:59:04.000Z</Time>
            <Position>
              <LatitudeDegrees>37.7611773647367954254150390625</LatitudeDegrees>
              <LongitudeDegrees>-8.095398657023906707763671875</LongitudeDegrees>
            </Position>
            <AltitudeMeters>209.600006103515625</AltitudeMeters>
            <DistanceMeters>290435.6333364</DistanceMeters>
          </Trackpoint>
          <Trackpoint>
            <Time>2018-09-14T13:59:05.000Z</Time>
            <Position>
              <LatitudeDegrees>37.76113218627870082855224609375</LatitudeDegrees>
              <LongitudeDegrees>-8.09539035893976688385009765625</LongitudeDegrees>
            </Position>
            <AltitudeMeters>209.8000030517578125</AltitudeMeters>
            <DistanceMeters>290440.71437847</DistanceMeters>
          </Trackpoint>
          <Trackpoint>
            <Time>2018-09-14T13:59:06.000Z</Time>
            <Position>
              <LatitudeDegrees>37.761087007820606231689453125</LatitudeDegrees>
              <LongitudeDegrees>-8.09538315050303936004638671875</LongitudeDegrees>
            </Position>
            <AltitudeMeters>209.8000030517578125</AltitudeMeters>
            <DistanceMeters>290445.78207395</DistanceMeters>
          </Trackpoint>
          <Trackpoint>
            <Time>2018-09-14T13:59:07.000Z</Time>
            <Position>
              <LatitudeDegrees>37.76104182936251163482666015625</LatitudeDegrees>
              <LongitudeDegrees>-8.09537552297115325927734375</LongitudeDegrees>
            </Position>
            <AltitudeMeters>210</AltitudeMeters>
            <DistanceMeters>290450.85511227</DistanceMeters>
          </Trackpoint>
          <Trackpoint>
            <Time>2018-09-14T13:59:08.000Z</Time>
            <Position>
              <LatitudeDegrees>37.76099681854248046875</LatitudeDegrees>
              <LongitudeDegrees>-8.09536613523960113525390625</LongitudeDegrees>
            </Position>
            <AltitudeMeters>210</AltitudeMeters>
            <DistanceMeters>290455.93170938</DistanceMeters>
          </Trackpoint>
          <Trackpoint>
            <Time>2018-09-14T13:59:09.000Z</Time>
            <Position>
              <LatitudeDegrees>37.76095189154148101806640625</LatitudeDegrees>
              <LongitudeDegrees>-8.0953565798699855804443359375</LongitudeDegrees>
            </Position>
            <AltitudeMeters>210.1999969482421875</AltitudeMeters>
            <DistanceMeters>290461.00207698</DistanceMeters>
          </Trackpoint>
          <Trackpoint>
            <Time>2018-09-14T13:59:10.000Z</Time>
            <Position>
              <LatitudeDegrees>37.76090637780725955963134765625</LatitudeDegrees>
              <LongitudeDegrees>-8.095349036157131195068359375</LongitudeDegrees>
            </Position>
            <AltitudeMeters>210.1999969482421875</AltitudeMeters>
            <DistanceMeters>290466.11147528</DistanceMeters>
          </Trackpoint>
          <Trackpoint>
            <Time>2018-09-14T13:59:11.000Z</Time>
            <Position>
              <LatitudeDegrees>37.76086078025400638580322265625</LatitudeDegrees>
              <LongitudeDegrees>-8.09534174390137195587158203125</LongitudeDegrees>
            </Position>
            <AltitudeMeters>210.1999969482421875</AltitudeMeters>
            <DistanceMeters>290471.22705556</DistanceMeters>
          </Trackpoint>
          <Trackpoint>
            <Time>2018-09-14T13:59:12.000Z</Time>
            <Position>
              <LatitudeDegrees>37.760815434157848358154296875</LatitudeDegrees>
              <LongitudeDegrees>-8.0953334458172321319580078125</LongitudeDegrees>
            </Position>
            <AltitudeMeters>210</AltitudeMeters>
            <DistanceMeters>290476.32672419</DistanceMeters>
          </Trackpoint>
          <Trackpoint>
            <Time>2018-09-14T13:59:13.000Z</Time>
            <Position>
              <LatitudeDegrees>37.76076975278556346893310546875</LatitudeDegrees>
              <LongitudeDegrees>-8.09532430954277515411376953125</LongitudeDegrees>
            </Position>
            <AltitudeMeters>209.8000030517578125</AltitudeMeters>
            <DistanceMeters>290481.47573423</DistanceMeters>
          </Trackpoint>
          <Trackpoint>
            <Time>2018-09-14T13:59:14.000Z</Time>
            <Position>
              <LatitudeDegrees>37.7607244066894054412841796875</LatitudeDegrees>
              <LongitudeDegrees>-8.09531508944928646087646484375</LongitudeDegrees>
            </Position>
            <AltitudeMeters>209.8000030517578125</AltitudeMeters>
            <DistanceMeters>290486.58778287</DistanceMeters>
          </Trackpoint>
          <Trackpoint>
            <Time>2018-09-14T13:59:15.000Z</Time>
            <Position>
              <LatitudeDegrees>37.7606788091361522674560546875</LatitudeDegrees>
              <LongitudeDegrees>-8.095306120812892913818359375</LongitudeDegrees>
            </Position>
            <AltitudeMeters>209.600006103515625</AltitudeMeters>
            <DistanceMeters>290491.72450199</DistanceMeters>
          </Trackpoint>
          <Trackpoint>
            <Time>2018-09-14T13:59:16.000Z</Time>
            <Position>
              <LatitudeDegrees>37.76063270866870880126953125</LatitudeDegrees>
              <LongitudeDegrees>-8.0952975712716579437255859375</LongitudeDegrees>
            </Position>
            <AltitudeMeters>209.600006103515625</AltitudeMeters>
            <DistanceMeters>290496.91021001</DistanceMeters>
          </Trackpoint>
          <Trackpoint>
            <Time>2018-09-14T13:59:17.000Z</Time>
            <Position>
              <LatitudeDegrees>37.7605862729251384735107421875</LatitudeDegrees>
              <LongitudeDegrees>-8.09528860263526439666748046875</LongitudeDegrees>
            </Position>
            <AltitudeMeters>209.600006103515625</AltitudeMeters>
            <DistanceMeters>290502.13754311</DistanceMeters>
          </Trackpoint>
          <Trackpoint>
            <Time>2018-09-14T13:59:18.000Z</Time>
            <Position>
              <LatitudeDegrees>37.76054008863866329193115234375</LatitudeDegrees>
              <LongitudeDegrees>-8.09527938254177570343017578125</LongitudeDegrees>
            </Position>
            <AltitudeMeters>209.600006103515625</AltitudeMeters>
            <DistanceMeters>290507.34237061</DistanceMeters>
          </Trackpoint>
          <Trackpoint>
            <Time>2018-09-14T13:59:19.000Z</Time>
            <Position>
              <LatitudeDegrees>37.76049415580928325653076171875</LatitudeDegrees>
              <LongitudeDegrees>-8.0952702462673187255859375</LongitudeDegrees>
            </Position>
            <AltitudeMeters>209.600006103515625</AltitudeMeters>
            <DistanceMeters>290512.51762005</DistanceMeters>
          </Trackpoint>
          <Trackpoint>
            <Time>2018-09-14T13:59:20.000Z</Time>
            <Position>
              <LatitudeDegrees>37.76044822297990322113037109375</LatitudeDegrees>
              <LongitudeDegrees>-8.0952608585357666015625</LongitudeDegrees>
            </Position>
            <AltitudeMeters>209.600006103515625</AltitudeMeters>
            <DistanceMeters>290517.69635802</DistanceMeters>
          </Trackpoint>
          <Trackpoint>
            <Time>2018-09-14T13:59:21.000Z</Time>
            <Position>
              <LatitudeDegrees>37.7604025416076183319091796875</LatitudeDegrees>
              <LongitudeDegrees>-8.09525105170905590057373046875</LongitudeDegrees>
            </Position>
            <AltitudeMeters>209.600006103515625</AltitudeMeters>
            <DistanceMeters>290522.85412936</DistanceMeters>
          </Trackpoint>
          <Trackpoint>
            <Time>2018-09-14T13:59:22.000Z</Time>
            <Position>
              <LatitudeDegrees>37.76035686023533344268798828125</LatitudeDegrees>
              <LongitudeDegrees>-8.09524132870137691497802734375</LongitudeDegrees>
            </Position>
            <AltitudeMeters>209.600006103515625</AltitudeMeters>
            <DistanceMeters>290528.01014964</DistanceMeters>
          </Trackpoint>
          <Trackpoint>
            <Time>2018-09-14T13:59:23.000Z</Time>
            <Position>
              <LatitudeDegrees>37.76031008921563625335693359375</LatitudeDegrees>
              <LongitudeDegrees>-8.0952325277030467987060546875</LongitudeDegrees>
            </Position>
            <AltitudeMeters>209.600006103515625</AltitudeMeters>
            <DistanceMeters>290533.27363465</DistanceMeters>
          </Trackpoint>
          <Trackpoint>
            <Time>2018-09-14T13:59:24.000Z</Time>
            <Position>
              <LatitudeDegrees>37.7602627314627170562744140625</LatitudeDegrees>
              <LongitudeDegrees>-8.09522330760955810546875</LongitudeDegrees>
            </Position>
            <AltitudeMeters>209.8000030517578125</AltitudeMeters>
            <DistanceMeters>290538.60868863</DistanceMeters>
          </Trackpoint>
          <Trackpoint>
            <Time>2018-09-14T13:59:25.000Z</Time>
            <Position>
              <LatitudeDegrees>37.76021520607173442840576171875</LatitudeDegrees>
              <LongitudeDegrees>-8.0952139198780059814453125</LongitudeDegrees>
            </Position>
            <AltitudeMeters>209.8000030517578125</AltitudeMeters>
            <DistanceMeters>290543.96317205</DistanceMeters>
          </Trackpoint>
          <Trackpoint>
            <Time>2018-09-14T13:59:26.000Z</Time>
            <Position>
              <LatitudeDegrees>37.76016726158559322357177734375</LatitudeDegrees>
              <LongitudeDegrees>-8.0952053703367710113525390625</LongitudeDegrees>
            </Position>
            <AltitudeMeters>209.8000030517578125</AltitudeMeters>
            <DistanceMeters>290549.35127894</DistanceMeters>
          </Trackpoint>
          <Trackpoint>
            <Time>2018-09-14T13:59:27.000Z</Time>
            <Position>
              <LatitudeDegrees>37.760118059813976287841796875</LatitudeDegrees>
              <LongitudeDegrees>-8.0951963178813457489013671875</LongitudeDegrees>
            </Position>
            <AltitudeMeters>209.8000030517578125</AltitudeMeters>
            <DistanceMeters>290554.88408646</DistanceMeters>
          </Trackpoint>
          <Trackpoint>
            <Time>2018-09-14T13:59:28.000Z</Time>
            <Position>
              <LatitudeDegrees>37.76006801985204219818115234375</LatitudeDegrees>
              <LongitudeDegrees>-8.0951862595975399017333984375</LongitudeDegrees>
            </Position>
            <AltitudeMeters>209.8000030517578125</AltitudeMeters>
            <DistanceMeters>290560.52358371</DistanceMeters>
          </Trackpoint>
          <Trackpoint>
            <Time>2018-09-14T13:59:29.000Z</Time>
            <Position>
              <LatitudeDegrees>37.76001638732850551605224609375</LatitudeDegrees>
              <LongitudeDegrees>-8.09517561458051204681396484375</LongitudeDegrees>
            </Position>
            <AltitudeMeters>209.8000030517578125</AltitudeMeters>
            <DistanceMeters>290566.34663593</DistanceMeters>
          </Trackpoint>
          <Trackpoint>
            <Time>2018-09-14T13:59:30.000Z</Time>
            <Position>
              <LatitudeDegrees>37.7599629946053028106689453125</LatitudeDegrees>
              <LongitudeDegrees>-8.0951631255447864532470703125</LongitudeDegrees>
            </Position>
            <AltitudeMeters>209.600006103515625</AltitudeMeters>
            <DistanceMeters>290572.39036484</DistanceMeters>
          </Trackpoint>
          <Trackpoint>
            <Time>2018-09-14T13:59:31.000Z</Time>
            <Position>
              <LatitudeDegrees>37.75990909896790981292724609375</LatitudeDegrees>
              <LongitudeDegrees>-8.09514929540455341339111328125</LongitudeDegrees>
            </Position>
            <AltitudeMeters>209.8000030517578125</AltitudeMeters>
            <DistanceMeters>290578.51203269</DistanceMeters>
          </Trackpoint>
          <Trackpoint>
            <Time>2018-09-14T13:59:32.000Z</Time>
            <Position>
              <LatitudeDegrees>37.7598543651401996612548828125</LatitudeDegrees>
              <LongitudeDegrees>-8.09513638727366924285888671875</LongitudeDegrees>
            </Position>
            <AltitudeMeters>209.8000030517578125</AltitudeMeters>
            <DistanceMeters>290584.70920262</DistanceMeters>
          </Trackpoint>
          <Trackpoint>
            <Time>2018-09-14T13:59:33.000Z</Time>
            <Position>
              <LatitudeDegrees>37.75979854166507720947265625</LatitudeDegrees>
              <LongitudeDegrees>-8.09512465260922908782958984375</LongitudeDegrees>
            </Position>
            <AltitudeMeters>209.8000030517578125</AltitudeMeters>
            <DistanceMeters>290591.00754572</DistanceMeters>
          </Trackpoint>
          <Trackpoint>
            <Time>2018-09-14T13:59:34.000Z</Time>
            <Position>
              <LatitudeDegrees>37.75974179618060588836669921875</LatitudeDegrees>
              <LongitudeDegrees>-8.095113337039947509765625</LongitudeDegrees>
            </Position>
            <AltitudeMeters>210</AltitudeMeters>
            <DistanceMeters>290597.4019328</DistanceMeters>
          </Trackpoint>
          <Trackpoint>
            <Time>2018-09-14T13:59:35.000Z</Time>
            <Position>
              <LatitudeDegrees>37.75968362577259540557861328125</LatitudeDegrees>
              <LongitudeDegrees>-8.0951012670993804931640625</LongitudeDegrees>
            </Position>
            <AltitudeMeters>210</AltitudeMeters>
            <DistanceMeters>290603.96359452</DistanceMeters>
          </Trackpoint>
          <Trackpoint>
            <Time>2018-09-14T13:59:36.000Z</Time>
            <Position>
              <LatitudeDegrees>37.75962478481233119964599609375</LatitudeDegrees>
              <LongitudeDegrees>-8.09508793987333774566650390625</LongitudeDegrees>
            </Position>
            <AltitudeMeters>210</AltitudeMeters>
            <DistanceMeters>290610.61682191</DistanceMeters>
          </Trackpoint>
          <Trackpoint>
            <Time>2018-09-14T13:59:37.000Z</Time>
            <Position>
              <LatitudeDegrees>37.75956460274755954742431640625</LatitudeDegrees>
              <LongitudeDegrees>-8.09507436119019985198974609375</LongitudeDegrees>
            </Position>
            <AltitudeMeters>210</AltitudeMeters>
            <DistanceMeters>290617.42169017</DistanceMeters>
          </Trackpoint>
          <Trackpoint>
            <Time>2018-09-14T13:59:38.000Z</Time>
            <Position>
              <LatitudeDegrees>37.75950341485440731048583984375</LatitudeDegrees>
              <LongitudeDegrees>-8.09506212361156940460205078125</LongitudeDegrees>
            </Position>
            <AltitudeMeters>210</AltitudeMeters>
            <DistanceMeters>290624.3162041</DistanceMeters>
          </Trackpoint>
          <Trackpoint>
            <Time>2018-09-14T13:59:39.000Z</Time>
            <Position>
              <LatitudeDegrees>37.75944105349481105804443359375</LatitudeDegrees>
              <LongitudeDegrees>-8.0950501374900341033935546875</LongitudeDegrees>
            </Position>
            <AltitudeMeters>210</AltitudeMeters>
            <DistanceMeters>290631.33661415</DistanceMeters>
          </Trackpoint>
          <Trackpoint>
            <Time>2018-09-14T13:59:40.000Z</Time>
            <Position>
              <LatitudeDegrees>37.759377770125865936279296875</LatitudeDegrees>
              <LongitudeDegrees>-8.09503756463527679443359375</LongitudeDegrees>
            </Position>
            <AltitudeMeters>210</AltitudeMeters>
            <DistanceMeters>290638.46678458</DistanceMeters>
          </Trackpoint>
          <Trackpoint>
            <Time>2018-09-14T13:59:41.000Z</Time>
            <Position>
              <LatitudeDegrees>37.7593137323856353759765625</LatitudeDegrees>
              <LongitudeDegrees>-8.09502474032342433929443359375</LongitudeDegrees>
            </Position>
            <AltitudeMeters>210</AltitudeMeters>
            <DistanceMeters>290645.68256041</DistanceMeters>
          </Trackpoint>
          <Trackpoint>
            <Time>2018-09-14T13:59:42.000Z</Time>
            <Position>
              <LatitudeDegrees>37.75924826972186565399169921875</LatitudeDegrees>
              <LongitudeDegrees>-8.09501317329704761505126953125</LongitudeDegrees>
            </Position>
            <AltitudeMeters>210.1999969482421875</AltitudeMeters>
            <DistanceMeters>290653.03961676</DistanceMeters>
          </Trackpoint>
          <Trackpoint>
            <Time>2018-09-14T13:59:43.000Z</Time>
            <Position>
              <LatitudeDegrees>37.75918163359165191650390625</LatitudeDegrees>
              <LongitudeDegrees>-8.0950028635561466217041015625</LongitudeDegrees>
            </Position>
            <AltitudeMeters>210.1999969482421875</AltitudeMeters>
            <DistanceMeters>290660.51115827</DistanceMeters>
          </Trackpoint>
          <Trackpoint>
            <Time>2018-09-14T13:59:44.000Z</Time>
            <Position>
              <LatitudeDegrees>37.75911415927112102508544921875</LatitudeDegrees>
              <LongitudeDegrees>-8.0949928052723407745361328125</LongitudeDegrees>
            </Position>
            <AltitudeMeters>210.399993896484375</AltitudeMeters>
            <DistanceMeters>290668.07280122</DistanceMeters>
          </Trackpoint>
          <Trackpoint>
            <Time>2018-09-14T13:59:45.000Z</Time>
            <Position>
              <LatitudeDegrees>37.7590466849505901336669921875</LatitudeDegrees>
              <LongitudeDegrees>-8.09498115442693233489990234375</LongitudeDegrees>
            </Position>
            <AltitudeMeters>210.8000030517578125</AltitudeMeters>
            <DistanceMeters>290675.65233592</DistanceMeters>
          </Trackpoint>
          <Trackpoint>
            <Time>2018-09-14T13:59:46.000Z</Time>
            <Position>
              <LatitudeDegrees>37.75897937826812267303466796875</LatitudeDegrees>
              <LongitudeDegrees>-8.09496774338185787200927734375</LongitudeDegrees>
            </Position>
            <AltitudeMeters>211</AltitudeMeters>
            <DistanceMeters>290683.23544391</DistanceMeters>
          </Trackpoint>
          <Trackpoint>
            <Time>2018-09-14T13:59:47.000Z</Time>
            <Position>
              <LatitudeDegrees>37.7589122392237186431884765625</LatitudeDegrees>
              <LongitudeDegrees>-8.09495382942259311676025390625</LongitudeDegrees>
            </Position>
            <AltitudeMeters>211.1999969482421875</AltitudeMeters>
            <DistanceMeters>290690.80782699</DistanceMeters>
          </Trackpoint>
          <Trackpoint>
            <Time>2018-09-14T13:59:48.000Z</Time>
            <Position>
              <LatitudeDegrees>37.758844681084156036376953125</LatitudeDegrees>
              <LongitudeDegrees>-8.09493974782526493072509765625</LongitudeDegrees>
            </Position>
            <AltitudeMeters>211.600006103515625</AltitudeMeters>
            <DistanceMeters>290698.42894578</DistanceMeters>
          </Trackpoint>
          <Trackpoint>
            <Time>2018-09-14T13:59:49.000Z</Time>
            <Position>
              <LatitudeDegrees>37.758776955306529998779296875</LatitudeDegrees>
              <LongitudeDegrees>-8.09492633678019046783447265625</LongitudeDegrees>
            </Position>
            <AltitudeMeters>211.8000030517578125</AltitudeMeters>
            <DistanceMeters>290706.0583542</DistanceMeters>
          </Trackpoint>
          <Trackpoint>
            <Time>2018-09-14T13:59:50.000Z</Time>
            <Position>
              <LatitudeDegrees>37.75870881043374538421630859375</LatitudeDegrees>
              <LongitudeDegrees>-8.09491393156349658966064453125</LongitudeDegrees>
            </Position>
            <AltitudeMeters>212</AltitudeMeters>
            <DistanceMeters>290713.72142063</DistanceMeters>
          </Trackpoint>
          <Trackpoint>
            <Time>2018-09-14T13:59:51.000Z</Time>
            <Position>
              <LatitudeDegrees>37.7586406655609607696533203125</LatitudeDegrees>
              <LongitudeDegrees>-8.09490119107067584991455078125</LongitudeDegrees>
            </Position>
            <AltitudeMeters>212.1999969482421875</AltitudeMeters>
            <DistanceMeters>290721.38861031</DistanceMeters>
          </Trackpoint>
          <Trackpoint>
            <Time>2018-09-14T13:59:52.000Z</Time>
            <Position>
              <LatitudeDegrees>37.75857277214527130126953125</LatitudeDegrees>
              <LongitudeDegrees>-8.0948866903781890869140625</LongitudeDegrees>
            </Position>
            <AltitudeMeters>212.600006103515625</AltitudeMeters>
            <DistanceMeters>290729.05226591</DistanceMeters>
          </Trackpoint>
          <Trackpoint>
            <Time>2018-09-14T13:59:53.000Z</Time>
            <Position>
              <LatitudeDegrees>37.7585045434534549713134765625</LatitudeDegrees>
              <LongitudeDegrees>-8.0948721058666706085205078125</LongitudeDegrees>
            </Position>
            <AltitudeMeters>212.600006103515625</AltitudeMeters>
            <DistanceMeters>290736.75412103</DistanceMeters>
          </Trackpoint>
          <Trackpoint>
            <Time>2018-09-14T13:59:54.000Z</Time>
            <Position>
              <LatitudeDegrees>37.758435308933258056640625</LatitudeDegrees>
              <LongitudeDegrees>-8.0948580242693424224853515625</LongitudeDegrees>
            </Position>
            <AltitudeMeters>212.600006103515625</AltitudeMeters>
            <DistanceMeters>290744.55904868</DistanceMeters>
          </Trackpoint>
          <Trackpoint>
            <Time>2018-09-14T13:59:55.000Z</Time>
            <Position>
              <LatitudeDegrees>37.758365571498870849609375</LatitudeDegrees>
              <LongitudeDegrees>-8.09484620578587055206298828125</LongitudeDegrees>
            </Position>
            <AltitudeMeters>212.600006103515625</AltitudeMeters>
            <DistanceMeters>290752.39054146</DistanceMeters>
          </Trackpoint>
          <Trackpoint>
            <Time>2018-09-14T13:59:56.000Z</Time>
            <Position>
              <LatitudeDegrees>37.75829558260738849639892578125</LatitudeDegrees>
              <LongitudeDegrees>-8.09483371675014495849609375</LongitudeDegrees>
            </Position>
            <AltitudeMeters>212.399993896484375</AltitudeMeters>
            <DistanceMeters>290760.25769749</DistanceMeters>
          </Trackpoint>
          <Trackpoint>
            <Time>2018-09-14T13:59:57.000Z</Time>
            <Position>
              <LatitudeDegrees>37.75822517462074756622314453125</LatitudeDegrees>
              <LongitudeDegrees>-8.0948171205818653106689453125</LongitudeDegrees>
            </Position>
            <AltitudeMeters>212.1999969482421875</AltitudeMeters>
            <DistanceMeters>290768.22918718</DistanceMeters>
          </Trackpoint>
          <Trackpoint>
            <Time>2018-09-14T13:59:58.000Z</Time>
            <Position>
              <LatitudeDegrees>37.75815443135797977447509765625</LatitudeDegrees>
              <LongitudeDegrees>-8.09479960240423679351806640625</LongitudeDegrees>
            </Position>
            <AltitudeMeters>211.8000030517578125</AltitudeMeters>
            <DistanceMeters>290776.25261631</DistanceMeters>
          </Trackpoint>
          <Trackpoint>
            <Time>2018-09-14T13:59:59.000Z</Time>
            <Position>
              <LatitudeDegrees>37.7580827660858631134033203125</LatitudeDegrees>
              <LongitudeDegrees>-8.09478367678821086883544921875</LongitudeDegrees>
            </Position>
            <AltitudeMeters>211.600006103515625</AltitudeMeters>
            <DistanceMeters>290784.35165794</DistanceMeters>
          </Trackpoint>
          <Trackpoint>
            <Time>2018-09-14T14:00:00.000Z</Time>
            <Position>
              <LatitudeDegrees>37.75800992734730243682861328125</LatitudeDegrees>
              <LongitudeDegrees>-8.094770014286041259765625</LongitudeDegrees>
            </Position>
            <AltitudeMeters>211.1999969482421875</AltitudeMeters>
            <DistanceMeters>290792.54712672</DistanceMeters>
          </Trackpoint>
          <Trackpoint>
            <Time>2018-09-14T14:00:01.000Z</Time>
            <Position>
              <LatitudeDegrees>37.75793516077101230621337890625</LatitudeDegrees>
              <LongitudeDegrees>-8.09475685469806194305419921875</LongitudeDegrees>
            </Position>
            <AltitudeMeters>211</AltitudeMeters>
            <DistanceMeters>290800.94826221</DistanceMeters>
          </Trackpoint>
          <Trackpoint>
            <Time>2018-09-14T14:00:02.000Z</Time>
            <Position>
              <LatitudeDegrees>37.7578599750995635986328125</LatitudeDegrees>
              <LongitudeDegrees>-8.09474243782460689544677734375</LongitudeDegrees>
            </Position>
            <AltitudeMeters>210.8000030517578125</AltitudeMeters>
            <DistanceMeters>290809.41151019</DistanceMeters>
          </Trackpoint>
          <Trackpoint>
            <Time>2018-09-14T14:00:03.000Z</Time>
            <Position>
              <LatitudeDegrees>37.75778420269489288330078125</LatitudeDegrees>
              <LongitudeDegrees>-8.09472835622727870941162109375</LongitudeDegrees>
            </Position>
            <AltitudeMeters>210.8000030517578125</AltitudeMeters>
            <DistanceMeters>290817.93641812</DistanceMeters>
          </Trackpoint>
          <Trackpoint>
            <Time>2018-09-14T14:00:04.000Z</Time>
            <Position>
              <LatitudeDegrees>37.75770717300474643707275390625</LatitudeDegrees>
              <LongitudeDegrees>-8.09471393935382366180419921875</LongitudeDegrees>
            </Position>
            <AltitudeMeters>211</AltitudeMeters>
            <DistanceMeters>290826.60314621</DistanceMeters>
          </Trackpoint>
          <Trackpoint>
            <Time>2018-09-14T14:00:05.000Z</Time>
            <Position>
              <LatitudeDegrees>37.75762997567653656005859375</LatitudeDegrees>
              <LongitudeDegrees>-8.09469901956617832183837890625</LongitudeDegrees>
            </Position>
            <AltitudeMeters>211</AltitudeMeters>
            <DistanceMeters>290835.29536398</DistanceMeters>
          </Trackpoint>
          <Trackpoint>
            <Time>2018-09-14T14:00:06.000Z</Time>
            <Position>
              <LatitudeDegrees>37.75755219161510467529296875</LatitudeDegrees>
              <LongitudeDegrees>-8.094683848321437835693359375</LongitudeDegrees>
            </Position>
            <AltitudeMeters>211</AltitudeMeters>
            <DistanceMeters>290844.05587878</DistanceMeters>
          </Trackpoint>
          <Trackpoint>
            <Time>2018-09-14T14:00:07.000Z</Time>
            <Position>
              <LatitudeDegrees>37.7574742399156093597412109375</LatitudeDegrees>
              <LongitudeDegrees>-8.094668425619602203369140625</LongitudeDegrees>
            </Position>
            <AltitudeMeters>210.8000030517578125</AltitudeMeters>
            <DistanceMeters>290852.83749895</DistanceMeters>
          </Trackpoint>
          <Trackpoint>
            <Time>2018-09-14T14:00:08.000Z</Time>
            <Position>
              <LatitudeDegrees>37.75739637203514575958251953125</LatitudeDegrees>
              <LongitudeDegrees>-8.0946533381938934326171875</LongitudeDegrees>
            </Position>
            <AltitudeMeters>210.600006103515625</AltitudeMeters>
            <DistanceMeters>290861.60522618</DistanceMeters>
          </Trackpoint>
          <Trackpoint>
            <Time>2018-09-14T14:00:09.000Z</Time>
            <Position>
              <LatitudeDegrees>37.75731875561177730560302734375</LatitudeDegrees>
              <LongitudeDegrees>-8.094638250768184661865234375</LongitudeDegrees>
            </Position>
            <AltitudeMeters>210.1999969482421875</AltitudeMeters>
            <DistanceMeters>290870.34561786</DistanceMeters>
          </Trackpoint>
          <Trackpoint>
            <Time>2018-09-14T14:00:10.000Z</Time>
            <Position>
              <LatitudeDegrees>37.757241390645503997802734375</LatitudeDegrees>
              <LongitudeDegrees>-8.0946233309805393218994140625</LongitudeDegrees>
            </Position>
            <AltitudeMeters>210</AltitudeMeters>
            <DistanceMeters>290879.05599686</DistanceMeters>
          </Trackpoint>
          <Trackpoint>
            <Time>2018-09-14T14:00:11.000Z</Time>
            <Position>
              <LatitudeDegrees>37.7571641094982624053955078125</LatitudeDegrees>
              <LongitudeDegrees>-8.09460841119289398193359375</LongitudeDegrees>
            </Position>
            <AltitudeMeters>210</AltitudeMeters>
            <DistanceMeters>290887.75755942</DistanceMeters>
          </Trackpoint>
          <Trackpoint>
            <Time>2018-09-14T14:00:12.000Z</Time>
            <Position>
              <LatitudeDegrees>37.75708682835102081298828125</LatitudeDegrees>
              <LongitudeDegrees>-8.094592653214931488037109375</LongitudeDegrees>
            </Position>
            <AltitudeMeters>210.1999969482421875</AltitudeMeters>
            <DistanceMeters>290896.47001158</DistanceMeters>
          </Trackpoint>
          <Trackpoint>
            <Time>2018-09-14T14:00:13.000Z</Time>
            <Position>
              <LatitudeDegrees>37.75700996629893779754638671875</LatitudeDegrees>
              <LongitudeDegrees>-8.0945763923227787017822265625</LongitudeDegrees>
            </Position>
            <AltitudeMeters>210.399993896484375</AltitudeMeters>
            <DistanceMeters>290905.14350954</DistanceMeters>
          </Trackpoint>
          <Trackpoint>
            <Time>2018-09-14T14:00:14.000Z</Time>
            <Position>
              <LatitudeDegrees>37.75693318806588649749755859375</LatitudeDegrees>
              <LongitudeDegrees>-8.09456055052578449249267578125</LongitudeDegrees>
            </Position>
            <AltitudeMeters>210.600006103515625</AltitudeMeters>
            <DistanceMeters>290913.80189822</DistanceMeters>
          </Trackpoint>
          <Trackpoint>
            <Time>2018-09-14T14:00:15.000Z</Time>
            <Position>
              <LatitudeDegrees>37.7568563260138034820556640625</LatitudeDegrees>
              <LongitudeDegrees>-8.09454613365232944488525390625</LongitudeDegrees>
            </Position>
            <AltitudeMeters>210.8000030517578125</AltitudeMeters>
            <DistanceMeters>290922.44985134</DistanceMeters>
          </Trackpoint>
          <Trackpoint>
            <Time>2018-09-14T14:00:16.000Z</Time>
            <Position>
              <LatitudeDegrees>37.75677896104753017425537109375</LatitudeDegrees>
              <LongitudeDegrees>-8.0945318005979061126708984375</LongitudeDegrees>
            </Position>
            <AltitudeMeters>211</AltitudeMeters>
            <DistanceMeters>290931.15297039</DistanceMeters>
          </Trackpoint>
          <Trackpoint>
            <Time>2018-09-14T14:00:17.000Z</Time>
            <Position>
              <LatitudeDegrees>37.75670218281447887420654296875</LatitudeDegrees>
              <LongitudeDegrees>-8.0945192277431488037109375</LongitudeDegrees>
            </Position>
            <AltitudeMeters>211.1999969482421875</AltitudeMeters>
            <DistanceMeters>290939.77006495</DistanceMeters>
          </Trackpoint>
          <Trackpoint>
            <Time>2018-09-14T14:00:18.000Z</Time>
            <Position>
              <LatitudeDegrees>37.75662573985755443572998046875</LatitudeDegrees>
              <LongitudeDegrees>-8.0945076607167720794677734375</LongitudeDegrees>
            </Position>
            <AltitudeMeters>211.1999969482421875</AltitudeMeters>
            <DistanceMeters>290948.33934623</DistanceMeters>
          </Trackpoint>
          <Trackpoint>
            <Time>2018-09-14T14:00:19.000Z</Time>
            <Position>
              <LatitudeDegrees>37.75655013509094715118408203125</LatitudeDegrees>
              <LongitudeDegrees>-8.09449466876685619354248046875</LongitudeDegrees>
            </Position>
            <AltitudeMeters>211.1999969482421875</AltitudeMeters>
            <DistanceMeters>290956.83188534</DistanceMeters>
          </Trackpoint>
          <Trackpoint>
            <Time>2018-09-14T14:00:20.000Z</Time>
            <Position>
              <LatitudeDegrees>37.7564751170575618743896484375</LatitudeDegrees>
              <LongitudeDegrees>-8.0944794975221157073974609375</LongitudeDegrees>
            </Position>
            <AltitudeMeters>211.1999969482421875</AltitudeMeters>
            <DistanceMeters>290965.28766119</DistanceMeters>
          </Trackpoint>
          <Trackpoint>
            <Time>2018-09-14T14:00:21.000Z</Time>
            <Position>
              <LatitudeDegrees>37.75640009902417659759521484375</LatitudeDegrees>
              <LongitudeDegrees>-8.09446432627737522125244140625</LongitudeDegrees>
            </Position>
            <AltitudeMeters>211.399993896484375</AltitudeMeters>
            <DistanceMeters>290973.74343705</DistanceMeters>
          </Trackpoint>
          <Trackpoint>
            <Time>2018-09-14T14:00:22.000Z</Time>
            <Position>
              <LatitudeDegrees>37.7563259191811084747314453125</LatitudeDegrees>
              <LongitudeDegrees>-8.094450496137142181396484375</LongitudeDegrees>
            </Position>
            <AltitudeMeters>211.399993896484375</AltitudeMeters>
            <DistanceMeters>290982.08903347</DistanceMeters>
          </Trackpoint>
          <Trackpoint>
            <Time>2018-09-14T14:00:23.000Z</Time>
            <Position>
              <LatitudeDegrees>37.7562514878809452056884765625</LatitudeDegrees>
              <LongitudeDegrees>-8.0944369174540042877197265625</LongitudeDegrees>
            </Position>
            <AltitudeMeters>211.600006103515625</AltitudeMeters>
            <DistanceMeters>290990.45947928</DistanceMeters>
          </Trackpoint>
          <Trackpoint>
            <Time>2018-09-14T14:00:24.000Z</Time>
            <Position>
              <LatitudeDegrees>37.75617730803787708282470703125</LatitudeDegrees>
              <LongitudeDegrees>-8.094423003494739532470703125</LongitudeDegrees>
            </Position>
            <AltitudeMeters>211.600006103515625</AltitudeMeters>
            <DistanceMeters>290998.80615765</DistanceMeters>
          </Trackpoint>
          <Trackpoint>
            <Time>2018-09-14T14:00:25.000Z</Time>
            <Position>
              <LatitudeDegrees>37.75610388256609439849853515625</LatitudeDegrees>
              <LongitudeDegrees>-8.0944090895354747772216796875</LongitudeDegrees>
            </Position>
            <AltitudeMeters>211.8000030517578125</AltitudeMeters>
            <DistanceMeters>291007.069658</DistanceMeters>
          </Trackpoint>
          <Trackpoint>
            <Time>2018-09-14T14:00:26.000Z</Time>
            <Position>
              <LatitudeDegrees>37.75603003799915313720703125</LatitudeDegrees>
              <LongitudeDegrees>-8.0943960137665271759033203125</LongitudeDegrees>
            </Position>
            <AltitudeMeters>212</AltitudeMeters>
            <DistanceMeters>291015.3691413</DistanceMeters>
          </Trackpoint>
          <Trackpoint>
            <Time>2018-09-14T14:00:27.000Z</Time>
            <Position>
              <LatitudeDegrees>37.7559567801654338836669921875</LatitudeDegrees>
              <LongitudeDegrees>-8.094383440911769866943359375</LongitudeDegrees>
            </Position>
            <AltitudeMeters>212</AltitudeMeters>
            <DistanceMeters>291023.59759882</DistanceMeters>
          </Trackpoint>
          <Trackpoint>
            <Time>2018-09-14T14:00:28.000Z</Time>
            <Position>
              <LatitudeDegrees>37.75588327087461948394775390625</LatitudeDegrees>
              <LongitudeDegrees>-8.0943698622286319732666015625</LongitudeDegrees>
            </Position>
            <AltitudeMeters>212.1999969482421875</AltitudeMeters>
            <DistanceMeters>291031.8665612</DistanceMeters>
          </Trackpoint>
          <Trackpoint>
            <Time>2018-09-14T14:00:29.000Z</Time>
            <Position>
              <LatitudeDegrees>37.755810432136058807373046875</LatitudeDegrees>
              <LongitudeDegrees>-8.09435427188873291015625</LongitudeDegrees>
            </Position>
            <AltitudeMeters>212.399993896484375</AltitudeMeters>
            <DistanceMeters>291040.08843157</DistanceMeters>
          </Trackpoint>
          <Trackpoint>
            <Time>2018-09-14T14:00:30.000Z</Time>
            <Position>
              <LatitudeDegrees>37.755737006664276123046875</LatitudeDegrees>
              <LongitudeDegrees>-8.0943386815488338470458984375</LongitudeDegrees>
            </Position>
            <AltitudeMeters>212.399993896484375</AltitudeMeters>
            <DistanceMeters>291048.37484824</DistanceMeters>
          </Trackpoint>
          <Trackpoint>
            <Time>2018-09-14T14:00:31.000Z</Time>
            <Position>
              <LatitudeDegrees>37.7556634135544300079345703125</LatitudeDegrees>
              <LongitudeDegrees>-8.09432535432279109954833984375</LongitudeDegrees>
            </Position>
            <AltitudeMeters>212.600006103515625</AltitudeMeters>
            <DistanceMeters>291056.64981468</DistanceMeters>
          </Trackpoint>
          <Trackpoint>
            <Time>2018-09-14T14:00:32.000Z</Time>
            <Position>
              <LatitudeDegrees>37.7555889822542667388916015625</LatitudeDegrees>
              <LongitudeDegrees>-8.09431211091578006744384765625</LongitudeDegrees>
            </Position>
            <AltitudeMeters>212.600006103515625</AltitudeMeters>
            <DistanceMeters>291065.01648383</DistanceMeters>
          </Trackpoint>
          <Trackpoint>
            <Time>2018-09-14T14:00:33.000Z</Time>
            <Position>
              <LatitudeDegrees>37.7555143833160400390625</LatitudeDegrees>
              <LongitudeDegrees>-8.0942984484136104583740234375</LongitudeDegrees>
            </Position>
            <AltitudeMeters>212.8000030517578125</AltitudeMeters>
            <DistanceMeters>291073.40578749</DistanceMeters>
          </Trackpoint>
          <Trackpoint>
            <Time>2018-09-14T14:00:34.000Z</Time>
            <Position>
              <LatitudeDegrees>37.75543886236846446990966796875</LatitudeDegrees>
              <LongitudeDegrees>-8.0942850373685359954833984375</LongitudeDegrees>
            </Position>
            <AltitudeMeters>212.8000030517578125</AltitudeMeters>
            <DistanceMeters>291081.89354042</DistanceMeters>
          </Trackpoint>
          <Trackpoint>
            <Time>2018-09-14T14:00:35.000Z</Time>
            <Position>
              <LatitudeDegrees>37.75536359287798404693603515625</LatitudeDegrees>
              <LongitudeDegrees>-8.09427405707538127899169921875</LongitudeDegrees>
            </Position>
            <AltitudeMeters>213</AltitudeMeters>
            <DistanceMeters>291090.32686017</DistanceMeters>
          </Trackpoint>
          <Trackpoint>
            <Time>2018-09-14T14:00:36.000Z</Time>
            <Position>
              <LatitudeDegrees>37.75528815574944019317626953125</LatitudeDegrees>
              <LongitudeDegrees>-8.0942617356777191162109375</LongitudeDegrees>
            </Position>
            <AltitudeMeters>213</AltitudeMeters>
            <DistanceMeters>291098.79224183</DistanceMeters>
          </Trackpoint>
          <Trackpoint>
            <Time>2018-09-14T14:00:37.000Z</Time>
            <Position>
              <LatitudeDegrees>37.75521305389702320098876953125</LatitudeDegrees>
              <LongitudeDegrees>-8.09424639679491519927978515625</LongitudeDegrees>
            </Position>
            <AltitudeMeters>213</AltitudeMeters>
            <DistanceMeters>291107.2592234</DistanceMeters>
          </Trackpoint>
          <Trackpoint>
            <Time>2018-09-14T14:00:38.000Z</Time>
            <Position>
              <LatitudeDegrees>37.7551383711397647857666015625</LatitudeDegrees>
              <LongitudeDegrees>-8.0942308902740478515625</LongitudeDegrees>
            </Position>
            <AltitudeMeters>213</AltitudeMeters>
            <DistanceMeters>291115.68236478</DistanceMeters>
          </Trackpoint>
          <Trackpoint>
            <Time>2018-09-14T14:00:39.000Z</Time>
            <Position>
              <LatitudeDegrees>37.75506352074444293975830078125</LatitudeDegrees>
              <LongitudeDegrees>-8.0942173115909099578857421875</LongitudeDegrees>
            </Position>
            <AltitudeMeters>213</AltitudeMeters>
            <DistanceMeters>291124.09907136</DistanceMeters>
          </Trackpoint>
          <Trackpoint>
            <Time>2018-09-14T14:00:40.000Z</Time>
            <Position>
              <LatitudeDegrees>37.754989005625247955322265625</LatitudeDegrees>
              <LongitudeDegrees>-8.0942039005458354949951171875</LongitudeDegrees>
            </Position>
            <AltitudeMeters>213.1999969482421875</AltitudeMeters>
            <DistanceMeters>291132.47652647</DistanceMeters>
          </Trackpoint>
          <Trackpoint>
            <Time>2018-09-14T14:00:41.000Z</Time>
            <Position>
              <LatitudeDegrees>37.7549149096012115478515625</LatitudeDegrees>
              <LongitudeDegrees>-8.0941898189485073089599609375</LongitudeDegrees>
            </Position>
            <AltitudeMeters>213.600006103515625</AltitudeMeters>
            <DistanceMeters>291140.81616967</DistanceMeters>
          </Trackpoint>
          <Trackpoint>
            <Time>2018-09-14T14:00:42.000Z</Time>
            <Position>
              <LatitudeDegrees>37.75484156794846057891845703125</LatitudeDegrees>
              <LongitudeDegrees>-8.094175569713115692138671875</LongitudeDegrees>
            </Position>
            <AltitudeMeters>213.8000030517578125</AltitudeMeters>
            <DistanceMeters>291149.07475111</DistanceMeters>
          </Trackpoint>
          <Trackpoint>
            <Time>2018-09-14T14:00:43.000Z</Time>
            <Position>
              <LatitudeDegrees>37.75476864539086818695068359375</LatitudeDegrees>
              <LongitudeDegrees>-8.09416207484900951385498046875</LongitudeDegrees>
            </Position>
            <AltitudeMeters>214.1999969482421875</AltitudeMeters>
            <DistanceMeters>291157.27682826</DistanceMeters>
          </Trackpoint>
          <Trackpoint>
            <Time>2018-09-14T14:00:44.000Z</Time>
            <Position>
              <LatitudeDegrees>37.7546964772045612335205078125</LatitudeDegrees>
              <LongitudeDegrees>-8.09414765797555446624755859375</LongitudeDegrees>
            </Position>
            <AltitudeMeters>214.600006103515625</AltitudeMeters>
            <DistanceMeters>291165.40924979</DistanceMeters>
          </Trackpoint>
          <Trackpoint>
            <Time>2018-09-14T14:00:45.000Z</Time>
            <Position>
              <LatitudeDegrees>37.75462565012276172637939453125</LatitudeDegrees>
              <LongitudeDegrees>-8.09413206763565540313720703125</LongitudeDegrees>
            </Position>
            <AltitudeMeters>214.8000030517578125</AltitudeMeters>
            <DistanceMeters>291173.41070228</DistanceMeters>
          </Trackpoint>
          <Trackpoint>
            <Time>2018-09-14T14:00:46.000Z</Time>
            <Position>
              <LatitudeDegrees>37.7545554935932159423828125</LatitudeDegrees>
              <LongitudeDegrees>-8.0941167287528514862060546875</LongitudeDegrees>
            </Position>
            <AltitudeMeters>215.1999969482421875</AltitudeMeters>
            <DistanceMeters>291181.33504147</DistanceMeters>
          </Trackpoint>
          <Trackpoint>
            <Time>2018-09-14T14:00:47.000Z</Time>
            <Position>
              <LatitudeDegrees>37.754487097263336181640625</LatitudeDegrees>
              <LongitudeDegrees>-8.0941003002226352691650390625</LongitudeDegrees>
            </Position>
            <AltitudeMeters>215.399993896484375</AltitudeMeters>
            <DistanceMeters>291189.08307013</DistanceMeters>
          </Trackpoint>
          <Trackpoint>
            <Time>2018-09-14T14:00:48.000Z</Time>
            <Position>
              <LatitudeDegrees>37.7544200420379638671875</LatitudeDegrees>
              <LongitudeDegrees>-8.0940835364162921905517578125</LongitudeDegrees>
            </Position>
            <AltitudeMeters>215.8000030517578125</AltitudeMeters>
            <DistanceMeters>291196.69114413</DistanceMeters>
          </Trackpoint>
          <Trackpoint>
            <Time>2018-09-14T14:00:49.000Z</Time>
            <Position>
              <LatitudeDegrees>37.75435374118387699127197265625</LatitudeDegrees>
              <LongitudeDegrees>-8.09406853280961513519287109375</LongitudeDegrees>
            </Position>
            <AltitudeMeters>216</AltitudeMeters>
            <DistanceMeters>291204.1880232</DistanceMeters>
          </Trackpoint>
          <Trackpoint>
            <Time>2018-09-14T14:00:50.000Z</Time>
            <Position>
              <LatitudeDegrees>37.75428869761526584625244140625</LatitudeDegrees>
              <LongitudeDegrees>-8.09405721724033355712890625</LongitudeDegrees>
            </Position>
            <AltitudeMeters>216.399993896484375</AltitudeMeters>
            <DistanceMeters>291211.4958185</DistanceMeters>
          </Trackpoint>
          <Trackpoint>
            <Time>2018-09-14T14:00:51.000Z</Time>
            <Position>
              <LatitudeDegrees>37.754224576056003570556640625</LatitudeDegrees>
              <LongitudeDegrees>-8.09404850006103515625</LongitudeDegrees>
            </Position>
            <AltitudeMeters>216.600006103515625</AltitudeMeters>
            <DistanceMeters>291218.67395309</DistanceMeters>
          </Trackpoint>
          <Trackpoint>
            <Time>2018-09-14T14:00:52.000Z</Time>
            <Position>
              <LatitudeDegrees>37.75416011922061443328857421875</LatitudeDegrees>
              <LongitudeDegrees>-8.09404020197689533233642578125</LongitudeDegrees>
            </Position>
            <AltitudeMeters>216.399993896484375</AltitudeMeters>
            <DistanceMeters>291225.88472144</DistanceMeters>
          </Trackpoint>
          <Trackpoint>
            <Time>2018-09-14T14:00:53.000Z</Time>
            <Position>
              <LatitudeDegrees>37.75409507565200328826904296875</LatitudeDegrees>
              <LongitudeDegrees>-8.09403047896921634674072265625</LongitudeDegrees>
            </Position>
            <AltitudeMeters>215.8000030517578125</AltitudeMeters>
            <DistanceMeters>291233.17395801</DistanceMeters>
          </Trackpoint>
          <Trackpoint>
            <Time>2018-09-14T14:00:54.000Z</Time>
            <Position>
              <LatitudeDegrees>37.75402986444532871246337890625</LatitudeDegrees>
              <LongitudeDegrees>-8.0940184928476810455322265625</LongitudeDegrees>
            </Position>
            <AltitudeMeters>215.399993896484375</AltitudeMeters>
            <DistanceMeters>291240.50827225</DistanceMeters>
          </Trackpoint>
          <Trackpoint>
            <Time>2018-09-14T14:00:55.000Z</Time>
            <Position>
              <LatitudeDegrees>37.7539645694196224212646484375</LatitudeDegrees>
              <LongitudeDegrees>-8.09400566853582859039306640625</LongitudeDegrees>
            </Position>
            <AltitudeMeters>215</AltitudeMeters>
            <DistanceMeters>291247.86287339</DistanceMeters>
          </Trackpoint>
          <Trackpoint>
            <Time>2018-09-14T14:00:56.000Z</Time>
            <Position>
              <LatitudeDegrees>37.7538985200226306915283203125</LatitudeDegrees>
              <LongitudeDegrees>-8.0939923413097858428955078125</LongitudeDegrees>
            </Position>
            <AltitudeMeters>214.399993896484375</AltitudeMeters>
            <DistanceMeters>291255.3077783</DistanceMeters>
          </Trackpoint>
          <Trackpoint>
            <Time>2018-09-14T14:00:57.000Z</Time>
            <Position>
              <LatitudeDegrees>37.75383138097822666168212890625</LatitudeDegrees>
              <LongitudeDegrees>-8.09397918172180652618408203125</LongitudeDegrees>
            </Position>
            <AltitudeMeters>214</AltitudeMeters>
            <DistanceMeters>291262.86942125</DistanceMeters>
          </Trackpoint>
          <Trackpoint>
            <Time>2018-09-14T14:00:58.000Z</Time>
            <Position>
              <LatitudeDegrees>37.75376331992447376251220703125</LatitudeDegrees>
              <LongitudeDegrees>-8.09396627359092235565185546875</LongitudeDegrees>
            </Position>
            <AltitudeMeters>213.399993896484375</AltitudeMeters>
            <DistanceMeters>291270.52954114</DistanceMeters>
          </Trackpoint>
          <Trackpoint>
            <Time>2018-09-14T14:00:59.000Z</Time>
            <Position>
              <LatitudeDegrees>37.7536963485181331634521484375</LatitudeDegrees>
              <LongitudeDegrees>-8.093952275812625885009765625</LongitudeDegrees>
            </Position>
            <AltitudeMeters>213</AltitudeMeters>
            <DistanceMeters>291278.08461316</DistanceMeters>
          </Trackpoint>
          <Trackpoint>
            <Time>2018-09-14T14:01:00.000Z</Time>
            <Position>
              <LatitudeDegrees>37.753628790378570556640625</LatitudeDegrees>
              <LongitudeDegrees>-8.09393743984401226043701171875</LongitudeDegrees>
            </Position>
            <AltitudeMeters>212.600006103515625</AltitudeMeters>
            <DistanceMeters>291285.71638838</DistanceMeters>
          </Trackpoint>
          <Trackpoint>
            <Time>2018-09-14T14:01:01.000Z</Time>
            <Position>
              <LatitudeDegrees>37.7535608969628810882568359375</LatitudeDegrees>
              <LongitudeDegrees>-8.09392184950411319732666015625</LongitudeDegrees>
            </Position>
            <AltitudeMeters>212.399993896484375</AltitudeMeters>
            <DistanceMeters>291293.39652245</DistanceMeters>
          </Trackpoint>
          <Trackpoint>
            <Time>2018-09-14T14:01:02.000Z</Time>
            <Position>
              <LatitudeDegrees>37.75349199771881103515625</LatitudeDegrees>
              <LongitudeDegrees>-8.093907348811626434326171875</LongitudeDegrees>
            </Position>
            <AltitudeMeters>212</AltitudeMeters>
            <DistanceMeters>291301.17014912</DistanceMeters>
          </Trackpoint>
          <Trackpoint>
            <Time>2018-09-14T14:01:03.000Z</Time>
            <Position>
              <LatitudeDegrees>37.7534207515418529510498046875</LatitudeDegrees>
              <LongitudeDegrees>-8.09389452449977397918701171875</LongitudeDegrees>
            </Position>
            <AltitudeMeters>211.600006103515625</AltitudeMeters>
            <DistanceMeters>291309.1800613</DistanceMeters>
          </Trackpoint>
          <Trackpoint>
            <Time>2018-09-14T14:01:04.000Z</Time>
            <Position>
              <LatitudeDegrees>37.75334690697491168975830078125</LatitudeDegrees>
              <LongitudeDegrees>-8.0938833765685558319091796875</LongitudeDegrees>
            </Position>
            <AltitudeMeters>211.399993896484375</AltitudeMeters>
            <DistanceMeters>291317.45775543</DistanceMeters>
          </Trackpoint>
          <Trackpoint>
            <Time>2018-09-14T14:01:05.000Z</Time>
            <Position>
              <LatitudeDegrees>37.7532705478370189666748046875</LatitudeDegrees>
              <LongitudeDegrees>-8.0938716419041156768798828125</LongitudeDegrees>
            </Position>
            <AltitudeMeters>211.1999969482421875</AltitudeMeters>
            <DistanceMeters>291326.01860237</DistanceMeters>
          </Trackpoint>
          <Trackpoint>
            <Time>2018-09-14T14:01:06.000Z</Time>
            <Position>
              <LatitudeDegrees>37.75319226086139678955078125</LatitudeDegrees>
              <LongitudeDegrees>-8.0938568897545337677001953125</LongitudeDegrees>
            </Position>
            <AltitudeMeters>211</AltitudeMeters>
            <DistanceMeters>291334.8279427</DistanceMeters>
          </Trackpoint>
          <Trackpoint>
            <Time>2018-09-14T14:01:07.000Z</Time>
            <Position>
              <LatitudeDegrees>37.753112129867076873779296875</LatitudeDegrees>
              <LongitudeDegrees>-8.09383970685303211212158203125</LongitudeDegrees>
            </Position>
            <AltitudeMeters>210.8000030517578125</AltitudeMeters>
            <DistanceMeters>291343.8734677</DistanceMeters>
          </Trackpoint>
          <Trackpoint>
            <Time>2018-09-14T14:01:08.000Z</Time>
            <Position>
              <LatitudeDegrees>37.75303065776824951171875</LatitudeDegrees>
              <LongitudeDegrees>-8.09382093138992786407470703125</LongitudeDegrees>
            </Position>
            <AltitudeMeters>210.8000030517578125</AltitudeMeters>
            <DistanceMeters>291353.091059</DistanceMeters>
          </Trackpoint>
          <Trackpoint>
            <Time>2018-09-14T14:01:09.000Z</Time>
            <Position>
              <LatitudeDegrees>37.7529476769268512725830078125</LatitudeDegrees>
              <LongitudeDegrees>-8.09380198828876018524169921875</LongitudeDegrees>
            </Position>
            <AltitudeMeters>210.600006103515625</AltitudeMeters>
            <DistanceMeters>291362.47611977</DistanceMeters>
          </Trackpoint>
          <Trackpoint>
            <Time>2018-09-14T14:01:10.000Z</Time>
            <Position>
              <LatitudeDegrees>37.7528635226190090179443359375</LatitudeDegrees>
              <LongitudeDegrees>-8.0937831290066242218017578125</LongitudeDegrees>
            </Position>
            <AltitudeMeters>210.399993896484375</AltitudeMeters>
            <DistanceMeters>291371.98828913</DistanceMeters>
          </Trackpoint>
          <Trackpoint>
            <Time>2018-09-14T14:01:11.000Z</Time>
            <Position>
              <LatitudeDegrees>37.752778530120849609375</LatitudeDegrees>
              <LongitudeDegrees>-8.093764521181583404541015625</LongitudeDegrees>
            </Position>
            <AltitudeMeters>210.1999969482421875</AltitudeMeters>
            <DistanceMeters>291381.58927972</DistanceMeters>
          </Trackpoint>
          <Trackpoint>
            <Time>2018-09-14T14:01:12.000Z</Time>
            <Position>
              <LatitudeDegrees>37.752691693603992462158203125</LatitudeDegrees>
              <LongitudeDegrees>-8.0937467515468597412109375</LongitudeDegrees>
            </Position>
            <AltitudeMeters>210</AltitudeMeters>
            <DistanceMeters>291391.38025983</DistanceMeters>
          </Trackpoint>
          <Trackpoint>
            <Time>2018-09-14T14:01:13.000Z</Time>
            <Position>
              <LatitudeDegrees>37.75260343216359615325927734375</LatitudeDegrees>
              <LongitudeDegrees>-8.093729652464389801025390625</LongitudeDegrees>
            </Position>
            <AltitudeMeters>209.8000030517578125</AltitudeMeters>
            <DistanceMeters>291401.31861866</DistanceMeters>
          </Trackpoint>
          <Trackpoint>
            <Time>2018-09-14T14:01:14.000Z</Time>
            <Position>
              <LatitudeDegrees>37.752512656152248382568359375</LatitudeDegrees>
              <LongitudeDegrees>-8.09371515177190303802490234375</LongitudeDegrees>
            </Position>
            <AltitudeMeters>209.600006103515625</AltitudeMeters>
            <DistanceMeters>291411.50200699</DistanceMeters>
          </Trackpoint>
          <Trackpoint>
            <Time>2018-09-14T14:01:15.000Z</Time>
            <Position>
              <LatitudeDegrees>37.752420119941234588623046875</LatitudeDegrees>
              <LongitudeDegrees>-8.09369914233684539794921875</LongitudeDegrees>
            </Position>
            <AltitudeMeters>209.1999969482421875</AltitudeMeters>
            <DistanceMeters>291421.89733886</DistanceMeters>
          </Trackpoint>
          <Trackpoint>
            <Time>2018-09-14T14:01:16.000Z</Time>
            <Position>
              <LatitudeDegrees>37.75232632644474506378173828125</LatitudeDegrees>
              <LongitudeDegrees>-8.09368112124502658843994140625</LongitudeDegrees>
            </Position>
            <AltitudeMeters>209</AltitudeMeters>
            <DistanceMeters>291432.45685513</DistanceMeters>
          </Trackpoint>
          <Trackpoint>
            <Time>2018-09-14T14:01:17.000Z</Time>
            <Position>
              <LatitudeDegrees>37.75223144330084323883056640625</LatitudeDegrees>
              <LongitudeDegrees>-8.09366402216255664825439453125</LongitudeDegrees>
            </Position>
            <AltitudeMeters>208.600006103515625</AltitudeMeters>
            <DistanceMeters>291443.1244239</DistanceMeters>
          </Trackpoint>
          <Trackpoint>
            <Time>2018-09-14T14:01:18.000Z</Time>
            <Position>
              <LatitudeDegrees>37.7521361410617828369140625</LatitudeDegrees>
              <LongitudeDegrees>-8.09364675544202327728271484375</LongitudeDegrees>
            </Position>
            <AltitudeMeters>208.1999969482421875</AltitudeMeters>
            <DistanceMeters>291453.84013442</DistanceMeters>
          </Trackpoint>
          <Trackpoint>
            <Time>2018-09-14T14:01:19.000Z</Time>
            <Position>
              <LatitudeDegrees>37.752040922641754150390625</LatitudeDegrees>
              <LongitudeDegrees>-8.0936278961598873138427734375</LongitudeDegrees>
            </Position>
            <AltitudeMeters>208</AltitudeMeters>
            <DistanceMeters>291464.5672153</DistanceMeters>
          </Trackpoint>
          <Trackpoint>
            <Time>2018-09-14T14:01:20.000Z</Time>
            <Position>
              <LatitudeDegrees>37.75194679386913776397705078125</LatitudeDegrees>
              <LongitudeDegrees>-8.09360937215387821197509765625</LongitudeDegrees>
            </Position>
            <AltitudeMeters>207.600006103515625</AltitudeMeters>
            <DistanceMeters>291475.17025504</DistanceMeters>
          </Trackpoint>
          <Trackpoint>
            <Time>2018-09-14T14:01:21.000Z</Time>
            <Position>
              <LatitudeDegrees>37.75185392238199710845947265625</LatitudeDegrees>
              <LongitudeDegrees>-8.0935916863381862640380859375</LongitudeDegrees>
            </Position>
            <AltitudeMeters>207.399993896484375</AltitudeMeters>
            <DistanceMeters>291485.62319362</DistanceMeters>
          </Trackpoint>
          <Trackpoint>
            <Time>2018-09-14T14:01:22.000Z</Time>
            <Position>
              <LatitudeDegrees>37.7517618052661418914794921875</LatitudeDegrees>
              <LongitudeDegrees>-8.093572743237018585205078125</LongitudeDegrees>
            </Position>
            <AltitudeMeters>207</AltitudeMeters>
            <DistanceMeters>291496.01070456</DistanceMeters>
          </Trackpoint>
          <Trackpoint>
            <Time>2018-09-14T14:01:23.000Z</Time>
            <Position>
              <LatitudeDegrees>37.751669771969318389892578125</LatitudeDegrees>
              <LongitudeDegrees>-8.09355488978326320648193359375</LongitudeDegrees>
            </Position>
            <AltitudeMeters>206.8000030517578125</AltitudeMeters>
            <DistanceMeters>291506.3742816</DistanceMeters>
          </Trackpoint>
          <Trackpoint>
            <Time>2018-09-14T14:01:24.000Z</Time>
            <Position>
              <LatitudeDegrees>37.75157815776765346527099609375</LatitudeDegrees>
              <LongitudeDegrees>-8.09353820979595184326171875</LongitudeDegrees>
            </Position>
            <AltitudeMeters>206.600006103515625</AltitudeMeters>
            <DistanceMeters>291516.6758086</DistanceMeters>
          </Trackpoint>
          <Trackpoint>
            <Time>2018-09-14T14:01:25.000Z</Time>
            <Position>
              <LatitudeDegrees>37.75148612447082996368408203125</LatitudeDegrees>
              <LongitudeDegrees>-8.093521781265735626220703125</LongitudeDegrees>
            </Position>
            <AltitudeMeters>206.399993896484375</AltitudeMeters>
            <DistanceMeters>291527.02019866</DistanceMeters>
          </Trackpoint>
          <Trackpoint>
            <Time>2018-09-14T14:01:26.000Z</Time>
            <Position>
              <LatitudeDegrees>37.75139375589787960052490234375</LatitudeDegrees>
              <LongitudeDegrees>-8.093504346907138824462890625</LongitudeDegrees>
            </Position>
            <AltitudeMeters>206</AltitudeMeters>
            <DistanceMeters>291537.41466184</DistanceMeters>
          </Trackpoint>
          <Trackpoint>
            <Time>2018-09-14T14:01:27.000Z</Time>
            <Position>
              <LatitudeDegrees>37.75130138732492923736572265625</LatitudeDegrees>
              <LongitudeDegrees>-8.09348498471081256866455078125</LongitudeDegrees>
            </Position>
            <AltitudeMeters>205.600006103515625</AltitudeMeters>
            <DistanceMeters>291547.83558787</DistanceMeters>
          </Trackpoint>
          <Trackpoint>
            <Time>2018-09-14T14:01:28.000Z</Time>
            <Position>
              <LatitudeDegrees>37.75120885111391544342041015625</LatitudeDegrees>
              <LongitudeDegrees>-8.09346704743802547454833984375</LongitudeDegrees>
            </Position>
            <AltitudeMeters>205.1999969482421875</AltitudeMeters>
            <DistanceMeters>291558.25521402</DistanceMeters>
          </Trackpoint>
          <Trackpoint>
            <Time>2018-09-14T14:01:29.000Z</Time>
            <Position>
              <LatitudeDegrees>37.75111581198871135711669921875</LatitudeDegrees>
              <LongitudeDegrees>-8.0934491939842700958251953125</LongitudeDegrees>
            </Position>
            <AltitudeMeters>204.8000030517578125</AltitudeMeters>
            <DistanceMeters>291568.72886518</DistanceMeters>
          </Trackpoint>
          <Trackpoint>
            <Time>2018-09-14T14:01:30.000Z</Time>
            <Position>
              <LatitudeDegrees>37.751022689044475555419921875</LatitudeDegrees>
              <LongitudeDegrees>-8.09342999942600727081298828125</LongitudeDegrees>
            </Position>
            <AltitudeMeters>204.600006103515625</AltitudeMeters>
            <DistanceMeters>291579.23049951</DistanceMeters>
          </Trackpoint>
          <Trackpoint>
            <Time>2018-09-14T14:01:31.000Z</Time>
            <Position>
              <LatitudeDegrees>37.75092973373830318450927734375</LatitudeDegrees>
              <LongitudeDegrees>-8.09341088868677616119384765625</LongitudeDegrees>
            </Position>
            <AltitudeMeters>204.1999969482421875</AltitudeMeters>
            <DistanceMeters>291589.71190733</DistanceMeters>
          </Trackpoint>
          <Trackpoint>
            <Time>2018-09-14T14:01:32.000Z</Time>
            <Position>
              <LatitudeDegrees>37.75083652697503566741943359375</LatitudeDegrees>
              <LongitudeDegrees>-8.09339211322367191314697265625</LongitudeDegrees>
            </Position>
            <AltitudeMeters>204</AltitudeMeters>
            <DistanceMeters>291600.21655079</DistanceMeters>
          </Trackpoint>
          <Trackpoint>
            <Time>2018-09-14T14:01:33.000Z</Time>
            <Position>
              <LatitudeDegrees>37.7507442422211170196533203125</LatitudeDegrees>
              <LongitudeDegrees>-8.093372918665409088134765625</LongitudeDegrees>
            </Position>
            <AltitudeMeters>204</AltitudeMeters>
            <DistanceMeters>291610.62620579</DistanceMeters>
          </Trackpoint>
          <Trackpoint>
            <Time>2018-09-14T14:01:34.000Z</Time>
            <Position>
              <LatitudeDegrees>37.75065296329557895660400390625</LatitudeDegrees>
              <LongitudeDegrees>-8.0933526344597339630126953125</LongitudeDegrees>
            </Position>
            <AltitudeMeters>204</AltitudeMeters>
            <DistanceMeters>291620.94174848</DistanceMeters>
          </Trackpoint>
          <Trackpoint>
            <Time>2018-09-14T14:01:35.000Z</Time>
            <Position>
              <LatitudeDegrees>37.75056235492229461669921875</LatitudeDegrees>
              <LongitudeDegrees>-8.09333360753953456878662109375</LongitudeDegrees>
            </Position>
            <AltitudeMeters>204.1999969482421875</AltitudeMeters>
            <DistanceMeters>291631.16496249</DistanceMeters>
          </Trackpoint>
          <Trackpoint>
            <Time>2018-09-14T14:01:36.000Z</Time>
            <Position>
              <LatitudeDegrees>37.75047191418707370758056640625</LatitudeDegrees>
              <LongitudeDegrees>-8.09331617318093776702880859375</LongitudeDegrees>
            </Position>
            <AltitudeMeters>204.1999969482421875</AltitudeMeters>
            <DistanceMeters>291641.34790744</DistanceMeters>
          </Trackpoint>
          <Trackpoint>
            <Time>2018-09-14T14:01:37.000Z</Time>
            <Position>
              <LatitudeDegrees>37.7503821440041065216064453125</LatitudeDegrees>
              <LongitudeDegrees>-8.09329907409846782684326171875</LongitudeDegrees>
            </Position>
            <AltitudeMeters>204.1999969482421875</AltitudeMeters>
            <DistanceMeters>291651.45251403</DistanceMeters>
          </Trackpoint>
          <Trackpoint>
            <Time>2018-09-14T14:01:38.000Z</Time>
            <Position>
              <LatitudeDegrees>37.75029203854501247406005859375</LatitudeDegrees>
              <LongitudeDegrees>-8.09328298084437847137451171875</LongitudeDegrees>
            </Position>
            <AltitudeMeters>204.1999969482421875</AltitudeMeters>
            <DistanceMeters>291661.5807749</DistanceMeters>
          </Trackpoint>
          <Trackpoint>
            <Time>2018-09-14T14:01:39.000Z</Time>
            <Position>
              <LatitudeDegrees>37.750201933085918426513671875</LatitudeDegrees>
              <LongitudeDegrees>-8.09326789341866970062255859375</LongitudeDegrees>
            </Position>
            <AltitudeMeters>204.1999969482421875</AltitudeMeters>
            <DistanceMeters>291671.69654607</DistanceMeters>
          </Trackpoint>
          <Trackpoint>
            <Time>2018-09-14T14:01:40.000Z</Time>
            <Position>
              <LatitudeDegrees>37.75011199526488780975341796875</LatitudeDegrees>
              <LongitudeDegrees>-8.09325146488845348358154296875</LongitudeDegrees>
            </Position>
            <AltitudeMeters>204</AltitudeMeters>
            <DistanceMeters>291681.81053173</DistanceMeters>
          </Trackpoint>
          <Trackpoint>
            <Time>2018-09-14T14:01:41.000Z</Time>
            <Position>
              <LatitudeDegrees>37.75002264417707920074462890625</LatitudeDegrees>
              <LongitudeDegrees>-8.09323386289179325103759765625</LongitudeDegrees>
            </Position>
            <AltitudeMeters>203.8000030517578125</AltitudeMeters>
            <DistanceMeters>291691.87529191</DistanceMeters>
          </Trackpoint>
          <Trackpoint>
            <Time>2018-09-14T14:01:42.000Z</Time>
            <Position>
              <LatitudeDegrees>37.7499335445463657379150390625</LatitudeDegrees>
              <LongitudeDegrees>-8.093218021094799041748046875</LongitudeDegrees>
            </Position>
            <AltitudeMeters>203.8000030517578125</AltitudeMeters>
            <DistanceMeters>291701.88968301</DistanceMeters>
          </Trackpoint>
          <Trackpoint>
            <Time>2018-09-14T14:01:43.000Z</Time>
            <Position>
              <LatitudeDegrees>37.749843858182430267333984375</LatitudeDegrees>
              <LongitudeDegrees>-8.0932020954787731170654296875</LongitudeDegrees>
            </Position>
            <AltitudeMeters>203.8000030517578125</AltitudeMeters>
            <DistanceMeters>291711.97057981</DistanceMeters>
          </Trackpoint>
          <Trackpoint>
            <Time>2018-09-14T14:01:44.000Z</Time>
            <Position>
              <LatitudeDegrees>37.74975358508527278900146484375</LatitudeDegrees>
              <LongitudeDegrees>-8.093184493482112884521484375</LongitudeDegrees>
            </Position>
            <AltitudeMeters>203.8000030517578125</AltitudeMeters>
            <DistanceMeters>291722.13710601</DistanceMeters>
          </Trackpoint>
          <Trackpoint>
            <Time>2018-09-14T14:01:45.000Z</Time>
            <Position>
              <LatitudeDegrees>37.74966306053102016448974609375</LatitudeDegrees>
              <LongitudeDegrees>-8.093167059123516082763671875</LongitudeDegrees>
            </Position>
            <AltitudeMeters>203.600006103515625</AltitudeMeters>
            <DistanceMeters>291732.32891494</DistanceMeters>
          </Trackpoint>
          <Trackpoint>
            <Time>2018-09-14T14:01:46.000Z</Time>
            <Position>
              <LatitudeDegrees>37.7495724521577358245849609375</LatitudeDegrees>
              <LongitudeDegrees>-8.09314903803169727325439453125</LongitudeDegrees>
            </Position>
            <AltitudeMeters>203.600006103515625</AltitudeMeters>
            <DistanceMeters>291742.53842876</DistanceMeters>
          </Trackpoint>
          <Trackpoint>
            <Time>2018-09-14T14:01:47.000Z</Time>
            <Position>
              <LatitudeDegrees>37.7494822628796100616455078125</LatitudeDegrees>
              <LongitudeDegrees>-8.09313143603503704071044921875</LongitudeDegrees>
            </Position>
            <AltitudeMeters>203.600006103515625</AltitudeMeters>
            <DistanceMeters>291752.69606891</DistanceMeters>
          </Trackpoint>
          <Trackpoint>
            <Time>2018-09-14T14:01:48.000Z</Time>
            <Position>
              <LatitudeDegrees>37.74939215742051601409912109375</LatitudeDegrees>
              <LongitudeDegrees>-8.09311450459063053131103515625</LongitudeDegrees>
            </Position>
            <AltitudeMeters>203.399993896484375</AltitudeMeters>
            <DistanceMeters>291762.83502301</DistanceMeters>
          </Trackpoint>
          <Trackpoint>
            <Time>2018-09-14T14:01:49.000Z</Time>
            <Position>
              <LatitudeDegrees>37.74930171668529510498046875</LatitudeDegrees>
              <LongitudeDegrees>-8.0930974893271923065185546875</LongitudeDegrees>
            </Position>
            <AltitudeMeters>203.399993896484375</AltitudeMeters>
            <DistanceMeters>291773.01220223</DistanceMeters>
          </Trackpoint>
          <Trackpoint>
            <Time>2018-09-14T14:01:50.000Z</Time>
            <Position>
              <LatitudeDegrees>37.7492116950452327728271484375</LatitudeDegrees>
              <LongitudeDegrees>-8.093078546226024627685546875</LongitudeDegrees>
            </Position>
            <AltitudeMeters>203.1999969482421875</AltitudeMeters>
            <DistanceMeters>291783.16984238</DistanceMeters>
          </Trackpoint>
          <Trackpoint>
            <Time>2018-09-14T14:01:51.000Z</Time>
            <Position>
              <LatitudeDegrees>37.7491215057671070098876953125</LatitudeDegrees>
              <LongitudeDegrees>-8.09305817820131778717041015625</LongitudeDegrees>
            </Position>
            <AltitudeMeters>203</AltitudeMeters>
            <DistanceMeters>291793.36696601</DistanceMeters>
          </Trackpoint>
          <Trackpoint>
            <Time>2018-09-14T14:01:52.000Z</Time>
            <Position>
              <LatitudeDegrees>37.74903039447963237762451171875</LatitudeDegrees>
              <LongitudeDegrees>-8.09304007329046726226806640625</LongitudeDegrees>
            </Position>
            <AltitudeMeters>202.8000030517578125</AltitudeMeters>
            <DistanceMeters>291803.63249045</DistanceMeters>
          </Trackpoint>
          <Trackpoint>
            <Time>2018-09-14T14:01:53.000Z</Time>
            <Position>
              <LatitudeDegrees>37.74893886409699916839599609375</LatitudeDegrees>
              <LongitudeDegrees>-8.09302314184606075286865234375</LongitudeDegrees>
            </Position>
            <AltitudeMeters>202.600006103515625</AltitudeMeters>
            <DistanceMeters>291813.92875664</DistanceMeters>
          </Trackpoint>
          <Trackpoint>
            <Time>2018-09-14T14:01:54.000Z</Time>
            <Position>
              <LatitudeDegrees>37.74884666316211223602294921875</LatitudeDegrees>
              <LongitudeDegrees>-8.09300570748746395111083984375</LongitudeDegrees>
            </Position>
            <AltitudeMeters>202.600006103515625</AltitudeMeters>
            <DistanceMeters>291824.30539538</DistanceMeters>
          </Trackpoint>
          <Trackpoint>
            <Time>2018-09-14T14:01:55.000Z</Time>
            <Position>
              <LatitudeDegrees>37.74875496514141559600830078125</LatitudeDegrees>
              <LongitudeDegrees>-8.09298894368112087249755859375</LongitudeDegrees>
            </Position>
            <AltitudeMeters>202.399993896484375</AltitudeMeters>
            <DistanceMeters>291834.61743592</DistanceMeters>
          </Trackpoint>
          <Trackpoint>
            <Time>2018-09-14T14:01:56.000Z</Time>
            <Position>
              <LatitudeDegrees>37.748664356768131256103515625</LatitudeDegrees>
              <LongitudeDegrees>-8.09297226369380950927734375</LongitudeDegrees>
            </Position>
            <AltitudeMeters>202.1999969482421875</AltitudeMeters>
            <DistanceMeters>291844.80880184</DistanceMeters>
          </Trackpoint>
          <Trackpoint>
            <Time>2018-09-14T14:01:57.000Z</Time>
            <Position>
              <LatitudeDegrees>37.74857458658516407012939453125</LatitudeDegrees>
              <LongitudeDegrees>-8.09295441024005413055419921875</LongitudeDegrees>
            </Position>
            <AltitudeMeters>202</AltitudeMeters>
            <DistanceMeters>291854.92368029</DistanceMeters>
          </Trackpoint>
          <Trackpoint>
            <Time>2018-09-14T14:01:58.000Z</Time>
            <Position>
              <LatitudeDegrees>37.748485319316387176513671875</LatitudeDegrees>
              <LongitudeDegrees>-8.092935718595981597900390625</LongitudeDegrees>
            </Position>
            <AltitudeMeters>202</AltitudeMeters>
            <DistanceMeters>291864.9947189</DistanceMeters>
          </Trackpoint>
          <Trackpoint>
            <Time>2018-09-14T14:01:59.000Z</Time>
            <Position>
              <LatitudeDegrees>37.7483966387808322906494140625</LatitudeDegrees>
              <LongitudeDegrees>-8.09291736222803592681884765625</LongitudeDegrees>
            </Position>
            <AltitudeMeters>201.8000030517578125</AltitudeMeters>
            <DistanceMeters>291874.99647809</DistanceMeters>
          </Trackpoint>
          <Trackpoint>
            <Time>2018-09-14T14:02:00.000Z</Time>
            <Position>
              <LatitudeDegrees>37.74830837734043598175048828125</LatitudeDegrees>
              <LongitudeDegrees>-8.0929000116884708404541015625</LongitudeDegrees>
            </Position>
            <AltitudeMeters>201.8000030517578125</AltitudeMeters>
            <DistanceMeters>291884.93847068</DistanceMeters>
          </Trackpoint>
          <Trackpoint>
            <Time>2018-09-14T14:02:01.000Z</Time>
            <Position>
              <LatitudeDegrees>37.7482201159000396728515625</LatitudeDegrees>
              <LongitudeDegrees>-8.09288366697728633880615234375</LongitudeDegrees>
            </Position>
            <AltitudeMeters>201.600006103515625</AltitudeMeters>
            <DistanceMeters>291894.86682978</DistanceMeters>
          </Trackpoint>
          <Trackpoint>
            <Time>2018-09-14T14:02:02.000Z</Time>
            <Position>
              <LatitudeDegrees>37.7481321059167385101318359375</LatitudeDegrees>
              <LongitudeDegrees>-8.0928661487996578216552734375</LongitudeDegrees>
            </Position>
            <AltitudeMeters>201.600006103515625</AltitudeMeters>
            <DistanceMeters>291904.78290272</DistanceMeters>
          </Trackpoint>
          <Trackpoint>
            <Time>2018-09-14T14:02:03.000Z</Time>
            <Position>
              <LatitudeDegrees>37.748044431209564208984375</LatitudeDegrees>
              <LongitudeDegrees>-8.0928453616797924041748046875</LongitudeDegrees>
            </Position>
            <AltitudeMeters>201.1999969482421875</AltitudeMeters>
            <DistanceMeters>291914.71126182</DistanceMeters>
          </Trackpoint>
          <Trackpoint>
            <Time>2018-09-14T14:02:04.000Z</Time>
            <Position>
              <LatitudeDegrees>37.7479572594165802001953125</LatitudeDegrees>
              <LongitudeDegrees>-8.09282382018864154815673828125</LongitudeDegrees>
            </Position>
            <AltitudeMeters>200.8000030517578125</AltitudeMeters>
            <DistanceMeters>291924.59678089</DistanceMeters>
          </Trackpoint>
          <Trackpoint>
            <Time>2018-09-14T14:02:05.000Z</Time>
            <Position>
              <LatitudeDegrees>37.74786883033812046051025390625</LatitudeDegrees>
              <LongitudeDegrees>-8.09280437417328357696533203125</LongitudeDegrees>
            </Position>
            <AltitudeMeters>200.399993896484375</AltitudeMeters>
            <DistanceMeters>291934.58634418</DistanceMeters>
          </Trackpoint>
          <Trackpoint>
            <Time>2018-09-14T14:02:06.000Z</Time>
            <Position>
              <LatitudeDegrees>37.7477787248790264129638671875</LatitudeDegrees>
              <LongitudeDegrees>-8.0927873589098453521728515625</LongitudeDegrees>
            </Position>
            <AltitudeMeters>200</AltitudeMeters>
            <DistanceMeters>291944.72618887</DistanceMeters>
          </Trackpoint>
          <Trackpoint>
            <Time>2018-09-14T14:02:07.000Z</Time>
            <Position>
              <LatitudeDegrees>37.7476863563060760498046875</LatitudeDegrees>
              <LongitudeDegrees>-8.09277034364640712738037109375</LongitudeDegrees>
            </Position>
            <AltitudeMeters>199.600006103515625</AltitudeMeters>
            <DistanceMeters>291955.11500371</DistanceMeters>
          </Trackpoint>
          <Trackpoint>
            <Time>2018-09-14T14:02:08.000Z</Time>
            <Position>
              <LatitudeDegrees>37.74759155698120594024658203125</LatitudeDegrees>
              <LongitudeDegrees>-8.09275240637362003326416015625</LongitudeDegrees>
            </Position>
            <AltitudeMeters>199.1999969482421875</AltitudeMeters>
            <DistanceMeters>291965.78341894</DistanceMeters>
          </Trackpoint>
          <Trackpoint>
            <Time>2018-09-14T14:02:09.000Z</Time>
            <Position>
              <LatitudeDegrees>37.7474950812757015228271484375</LatitudeDegrees>
              <LongitudeDegrees>-8.09273480437695980072021484375</LongitudeDegrees>
            </Position>
            <AltitudeMeters>198.399993896484375</AltitudeMeters>
            <DistanceMeters>291976.63312292</DistanceMeters>
          </Trackpoint>
          <Trackpoint>
            <Time>2018-09-14T14:02:10.000Z</Time>
            <Position>
              <LatitudeDegrees>37.74739659391343593597412109375</LatitudeDegrees>
              <LongitudeDegrees>-8.092717118561267852783203125</LongitudeDegrees>
            </Position>
            <AltitudeMeters>197.8000030517578125</AltitudeMeters>
            <DistanceMeters>291987.70485665</DistanceMeters>
          </Trackpoint>
          <Trackpoint>
            <Time>2018-09-14T14:02:11.000Z</Time>
            <Position>
              <LatitudeDegrees>37.74729718454182147979736328125</LatitudeDegrees>
              <LongitudeDegrees>-8.0926988460123538970947265625</LongitudeDegrees>
            </Position>
            <AltitudeMeters>197.8000030517578125</AltitudeMeters>
            <DistanceMeters>291998.88534627</DistanceMeters>
          </Trackpoint>
          <Trackpoint>
            <Time>2018-09-14T14:02:12.000Z</Time>
            <Position>
              <LatitudeDegrees>37.7471966855227947235107421875</LatitudeDegrees>
              <LongitudeDegrees>-8.09268082492053508758544921875</LongitudeDegrees>
            </Position>
            <AltitudeMeters>197.600006103515625</AltitudeMeters>
            <DistanceMeters>292010.18353907</DistanceMeters>
          </Trackpoint>
          <Trackpoint>
            <Time>2018-09-14T14:02:13.000Z</Time>
            <Position>
              <LatitudeDegrees>37.74709518067538738250732421875</LatitudeDegrees>
              <LongitudeDegrees>-8.0926616303622722625732421875</LongitudeDegrees>
            </Position>
            <AltitudeMeters>197.399993896484375</AltitudeMeters>
            <DistanceMeters>292021.60692013</DistanceMeters>
          </Trackpoint>
          <Trackpoint>
            <Time>2018-09-14T14:02:14.000Z</Time>
            <Position>
              <LatitudeDegrees>37.746994011104106903076171875</LatitudeDegrees>
              <LongitudeDegrees>-8.09264260344207286834716796875</LongitudeDegrees>
            </Position>
            <AltitudeMeters>197.399993896484375</AltitudeMeters>
            <DistanceMeters>292032.99150124</DistanceMeters>
          </Trackpoint>
          <Trackpoint>
            <Time>2018-09-14T14:02:15.000Z</Time>
            <Position>
              <LatitudeDegrees>37.746892757713794708251953125</LatitudeDegrees>
              <LongitudeDegrees>-8.09262357652187347412109375</LongitudeDegrees>
            </Position>
            <AltitudeMeters>197.1999969482421875</AltitudeMeters>
            <DistanceMeters>292044.38520033</DistanceMeters>
          </Trackpoint>
          <Trackpoint>
            <Time>2018-09-14T14:02:16.000Z</Time>
            <Position>
              <LatitudeDegrees>37.746791839599609375</LatitudeDegrees>
              <LongitudeDegrees>-8.0926032923161983489990234375</LongitudeDegrees>
            </Position>
            <AltitudeMeters>197.1999969482421875</AltitudeMeters>
            <DistanceMeters>292055.75867144</DistanceMeters>
          </Trackpoint>
          <Trackpoint>
            <Time>2018-09-14T14:02:17.000Z</Time>
            <Position>
              <LatitudeDegrees>37.74669100530445575714111328125</LatitudeDegrees>
              <LongitudeDegrees>-8.0925831757485866546630859375</LongitudeDegrees>
            </Position>
            <AltitudeMeters>197</AltitudeMeters>
            <DistanceMeters>292067.12062431</DistanceMeters>
          </Trackpoint>
          <Trackpoint>
            <Time>2018-09-14T14:02:18.000Z</Time>
            <Position>
              <LatitudeDegrees>37.746590673923492431640625</LatitudeDegrees>
              <LongitudeDegrees>-8.09256414882838726043701171875</LongitudeDegrees>
            </Position>
            <AltitudeMeters>196.8000030517578125</AltitudeMeters>
            <DistanceMeters>292078.41282115</DistanceMeters>
          </Trackpoint>
          <Trackpoint>
            <Time>2018-09-14T14:02:19.000Z</Time>
            <Position>
              <LatitudeDegrees>37.74648967199027538299560546875</LatitudeDegrees>
              <LongitudeDegrees>-8.0925456248223781585693359375</LongitudeDegrees>
            </Position>
            <AltitudeMeters>196.8000030517578125</AltitudeMeters>
            <DistanceMeters>292089.77199199</DistanceMeters>
          </Trackpoint>
          <Trackpoint>
            <Time>2018-09-14T14:02:20.000Z</Time>
            <Position>
              <LatitudeDegrees>37.7463896758854389190673828125</LatitudeDegrees>
              <LongitudeDegrees>-8.0925275199115276336669921875</LongitudeDegrees>
            </Position>
            <AltitudeMeters>196.600006103515625</AltitudeMeters>
            <DistanceMeters>292101.0153029</DistanceMeters>
          </Trackpoint>
          <Trackpoint>
            <Time>2018-09-14T14:02:21.000Z</Time>
            <Position>
              <LatitudeDegrees>37.74629035033285617828369140625</LatitudeDegrees>
              <LongitudeDegrees>-8.0925090797245502471923828125</LongitudeDegrees>
            </Position>
            <AltitudeMeters>196.399993896484375</AltitudeMeters>
            <DistanceMeters>292112.18892527</DistanceMeters>
          </Trackpoint>
          <Trackpoint>
            <Time>2018-09-14T14:02:22.000Z</Time>
            <Position>
              <LatitudeDegrees>37.7461918629705905914306640625</LatitudeDegrees>
              <LongitudeDegrees>-8.09248921461403369903564453125</LongitudeDegrees>
            </Position>
            <AltitudeMeters>196.399993896484375</AltitudeMeters>
            <DistanceMeters>292123.2891682</DistanceMeters>
          </Trackpoint>
          <Trackpoint>
            <Time>2018-09-14T14:02:23.000Z</Time>
            <Position>
              <LatitudeDegrees>37.74609505198895931243896484375</LatitudeDegrees>
              <LongitudeDegrees>-8.0924700200557708740234375</LongitudeDegrees>
            </Position>
            <AltitudeMeters>196.1999969482421875</AltitudeMeters>
            <DistanceMeters>292134.19573489</DistanceMeters>
          </Trackpoint>
          <Trackpoint>
            <Time>2018-09-14T14:02:24.000Z</Time>
            <Position>
              <LatitudeDegrees>37.74600067175924777984619140625</LatitudeDegrees>
              <LongitudeDegrees>-8.0924517475068569183349609375</LongitudeDegrees>
            </Position>
            <AltitudeMeters>196.1999969482421875</AltitudeMeters>
            <DistanceMeters>292144.82259407</DistanceMeters>
          </Trackpoint>
          <Trackpoint>
            <Time>2018-09-14T14:02:25.000Z</Time>
            <Position>
              <LatitudeDegrees>37.74590914137661457061767578125</LatitudeDegrees>
              <LongitudeDegrees>-8.092433474957942962646484375</LongitudeDegrees>
            </Position>
            <AltitudeMeters>196</AltitudeMeters>
            <DistanceMeters>292155.13638583</DistanceMeters>
          </Trackpoint>
          <Trackpoint>
            <Time>2018-09-14T14:02:26.000Z</Time>
            <Position>
              <LatitudeDegrees>37.745819203555583953857421875</LatitudeDegrees>
              <LongitudeDegrees>-8.09241461567580699920654296875</LongitudeDegrees>
            </Position>
            <AltitudeMeters>196</AltitudeMeters>
            <DistanceMeters>292165.28290748</DistanceMeters>
          </Trackpoint>
          <Trackpoint>
            <Time>2018-09-14T14:02:27.000Z</Time>
            <Position>
              <LatitudeDegrees>37.74573035538196563720703125</LatitudeDegrees>
              <LongitudeDegrees>-8.09239558875560760498046875</LongitudeDegrees>
            </Position>
            <AltitudeMeters>196</AltitudeMeters>
            <DistanceMeters>292175.31261593</DistanceMeters>
          </Trackpoint>
          <Trackpoint>
            <Time>2018-09-14T14:02:28.000Z</Time>
            <Position>
              <LatitudeDegrees>37.74564242921769618988037109375</LatitudeDegrees>
              <LongitudeDegrees>-8.09237740002572536468505859375</LongitudeDegrees>
            </Position>
            <AltitudeMeters>196</AltitudeMeters>
            <DistanceMeters>292185.22914417</DistanceMeters>
          </Trackpoint>
          <Trackpoint>
            <Time>2018-09-14T14:02:29.000Z</Time>
            <Position>
              <LatitudeDegrees>37.74555559270083904266357421875</LatitudeDegrees>
              <LongitudeDegrees>-8.092361390590667724609375</LongitudeDegrees>
            </Position>
            <AltitudeMeters>196</AltitudeMeters>
            <DistanceMeters>292194.99703994</DistanceMeters>
          </Trackpoint>
          <Trackpoint>
            <Time>2018-09-14T14:02:30.000Z</Time>
            <Position>
              <LatitudeDegrees>37.74546959437429904937744140625</LatitudeDegrees>
              <LongitudeDegrees>-8.0923471413552761077880859375</LongitudeDegrees>
            </Position>
            <AltitudeMeters>196</AltitudeMeters>
            <DistanceMeters>292204.65055686</DistanceMeters>
          </Trackpoint>
          <Trackpoint>
            <Time>2018-09-14T14:02:31.000Z</Time>
            <Position>
              <LatitudeDegrees>37.745384685695171356201171875</LatitudeDegrees>
              <LongitudeDegrees>-8.09233163483440876007080078125</LongitudeDegrees>
            </Position>
            <AltitudeMeters>196</AltitudeMeters>
            <DistanceMeters>292214.19873217</DistanceMeters>
          </Trackpoint>
          <Trackpoint>
            <Time>2018-09-14T14:02:32.000Z</Time>
            <Position>
              <LatitudeDegrees>37.74530078284442424774169921875</LatitudeDegrees>
              <LongitudeDegrees>-8.09231520630419254302978515625</LongitudeDegrees>
            </Position>
            <AltitudeMeters>196</AltitudeMeters>
            <DistanceMeters>292223.64803881</DistanceMeters>
          </Trackpoint>
          <Trackpoint>
            <Time>2018-09-14T14:02:33.000Z</Time>
            <Position>
              <LatitudeDegrees>37.7452182210981845855712890625</LatitudeDegrees>
              <LongitudeDegrees>-8.09229944832623004913330078125</LongitudeDegrees>
            </Position>
            <AltitudeMeters>196.1999969482421875</AltitudeMeters>
            <DistanceMeters>292232.94124337</DistanceMeters>
          </Trackpoint>
          <Trackpoint>
            <Time>2018-09-14T14:02:34.000Z</Time>
            <Position>
              <LatitudeDegrees>37.74513716809451580047607421875</LatitudeDegrees>
              <LongitudeDegrees>-8.092285282909870147705078125</LongitudeDegrees>
            </Position>
            <AltitudeMeters>196.1999969482421875</AltitudeMeters>
            <DistanceMeters>292242.04845217</DistanceMeters>
          </Trackpoint>
          <Trackpoint>
            <Time>2018-09-14T14:02:35.000Z</Time>
            <Position>
              <LatitudeDegrees>37.7450579591095447540283203125</LatitudeDegrees>
              <LongitudeDegrees>-8.09227162040770053863525390625</LongitudeDegrees>
            </Position>
            <AltitudeMeters>196.399993896484375</AltitudeMeters>
            <DistanceMeters>292250.94652557</DistanceMeters>
          </Trackpoint>
          <Trackpoint>
            <Time>2018-09-14T14:02:36.000Z</Time>
            <Position>
              <LatitudeDegrees>37.74498092941939830780029296875</LatitudeDegrees>
              <LongitudeDegrees>-8.09225787408649921417236328125</LongitudeDegrees>
            </Position>
            <AltitudeMeters>196.600006103515625</AltitudeMeters>
            <DistanceMeters>292259.60491426</DistanceMeters>
          </Trackpoint>
          <Trackpoint>
            <Time>2018-09-14T14:02:37.000Z</Time>
            <Position>
              <LatitudeDegrees>37.7449064143002033233642578125</LatitudeDegrees>
              <LongitudeDegrees>-8.09224312193691730499267578125</LongitudeDegrees>
            </Position>
            <AltitudeMeters>197</AltitudeMeters>
            <DistanceMeters>292267.99959809</DistanceMeters>
          </Trackpoint>
          <Trackpoint>
            <Time>2018-09-14T14:02:38.000Z</Time>
            <Position>
              <LatitudeDegrees>37.74483508430421352386474609375</LatitudeDegrees>
              <LongitudeDegrees>-8.0922286212444305419921875</LongitudeDegrees>
            </Position>
            <AltitudeMeters>197.1999969482421875</AltitudeMeters>
            <DistanceMeters>292276.04101447</DistanceMeters>
          </Trackpoint>
          <Trackpoint>
            <Time>2018-09-14T14:02:39.000Z</Time>
            <Position>
              <LatitudeDegrees>37.74476618506014347076416015625</LatitudeDegrees>
              <LongitudeDegrees>-8.0922147072851657867431640625</LongitudeDegrees>
            </Position>
            <AltitudeMeters>197.399993896484375</AltitudeMeters>
            <DistanceMeters>292283.80766823</DistanceMeters>
          </Trackpoint>
          <Trackpoint>
            <Time>2018-09-14T14:02:40.000Z</Time>
            <Position>
              <LatitudeDegrees>37.7446983754634857177734375</LatitudeDegrees>
              <LongitudeDegrees>-8.092200458049774169921875</LongitudeDegrees>
            </Position>
            <AltitudeMeters>197.8000030517578125</AltitudeMeters>
            <DistanceMeters>292291.45835157</DistanceMeters>
          </Trackpoint>
          <Trackpoint>
            <Time>2018-09-14T14:02:41.000Z</Time>
            <Position>
              <LatitudeDegrees>37.74463224224746227264404296875</LatitudeDegrees>
              <LongitudeDegrees>-8.0921885557472705841064453125</LongitudeDegrees>
            </Position>
            <AltitudeMeters>198</AltitudeMeters>
            <DistanceMeters>292298.89233219</DistanceMeters>
          </Trackpoint>
          <Trackpoint>
            <Time>2018-09-14T14:02:42.000Z</Time>
            <Position>
              <LatitudeDegrees>37.74456803686916828155517578125</LatitudeDegrees>
              <LongitudeDegrees>-8.0921774916350841522216796875</LongitudeDegrees>
            </Position>
            <AltitudeMeters>198.1999969482421875</AltitudeMeters>
            <DistanceMeters>292306.10435273</DistanceMeters>
          </Trackpoint>
          <Trackpoint>
            <Time>2018-09-14T14:02:43.000Z</Time>
            <Position>
              <LatitudeDegrees>37.74450550787150859832763671875</LatitudeDegrees>
              <LongitudeDegrees>-8.0921657569706439971923828125</LongitudeDegrees>
            </Position>
            <AltitudeMeters>198.600006103515625</AltitudeMeters>
            <DistanceMeters>292313.14018097</DistanceMeters>
          </Trackpoint>
          <Trackpoint>
            <Time>2018-09-14T14:02:44.000Z</Time>
            <Position>
              <LatitudeDegrees>37.7444435656070709228515625</LatitudeDegrees>
              <LongitudeDegrees>-8.09215259738266468048095703125</LongitudeDegrees>
            </Position>
            <AltitudeMeters>199</AltitudeMeters>
            <DistanceMeters>292320.13094443</DistanceMeters>
          </Trackpoint>
          <Trackpoint>
            <Time>2018-09-14T14:02:45.000Z</Time>
            <Position>
              <LatitudeDegrees>37.74438329972326755523681640625</LatitudeDegrees>
              <LongitudeDegrees>-8.0921382643282413482666015625</LongitudeDegrees>
            </Position>
            <AltitudeMeters>199.1999969482421875</AltitudeMeters>
            <DistanceMeters>292326.9556887</DistanceMeters>
          </Trackpoint>
          <Trackpoint>
            <Time>2018-09-14T14:02:46.000Z</Time>
            <Position>
              <LatitudeDegrees>37.7443237043917179107666015625</LatitudeDegrees>
              <LongitudeDegrees>-8.0921251885592937469482421875</LongitudeDegrees>
            </Position>
            <AltitudeMeters>199.600006103515625</AltitudeMeters>
            <DistanceMeters>292333.68784687</DistanceMeters>
          </Trackpoint>
          <Trackpoint>
            <Time>2018-09-14T14:02:47.000Z</Time>
            <Position>
              <LatitudeDegrees>37.7442643605172634124755859375</LatitudeDegrees>
              <LongitudeDegrees>-8.092115633189678192138671875</LongitudeDegrees>
            </Position>
            <AltitudeMeters>199.8000030517578125</AltitudeMeters>
            <DistanceMeters>292340.34582293</DistanceMeters>
          </Trackpoint>
          <Trackpoint>
            <Time>2018-09-14T14:02:48.000Z</Time>
            <Position>
              <LatitudeDegrees>37.7442056871950626373291015625</LatitudeDegrees>
              <LongitudeDegrees>-8.0921065807342529296875</LongitudeDegrees>
            </Position>
            <AltitudeMeters>200.1999969482421875</AltitudeMeters>
            <DistanceMeters>292346.9246645</DistanceMeters>
          </Trackpoint>
          <Trackpoint>
            <Time>2018-09-14T14:02:49.000Z</Time>
            <Position>
              <LatitudeDegrees>37.74414785206317901611328125</LatitudeDegrees>
              <LongitudeDegrees>-8.0920963548123836517333984375</LongitudeDegrees>
            </Position>
            <AltitudeMeters>200.1999969482421875</AltitudeMeters>
            <DistanceMeters>292353.42410275</DistanceMeters>
          </Trackpoint>
          <Trackpoint>
            <Time>2018-09-14T14:02:50.000Z</Time>
            <Position>
              <LatitudeDegrees>37.74409093894064426422119140625</LatitudeDegrees>
              <LongitudeDegrees>-8.09208537451922893524169921875</LongitudeDegrees>
            </Position>
            <AltitudeMeters>200.399993896484375</AltitudeMeters>
            <DistanceMeters>292359.83118692</DistanceMeters>
          </Trackpoint>
          <Trackpoint>
            <Time>2018-09-14T14:02:51.000Z</Time>
            <Position>
              <LatitudeDegrees>37.74403444491326808929443359375</LatitudeDegrees>
              <LongitudeDegrees>-8.09207431040704250335693359375</LongitudeDegrees>
            </Position>
            <AltitudeMeters>200.399993896484375</AltitudeMeters>
            <DistanceMeters>292366.19301077</DistanceMeters>
          </Trackpoint>
          <Trackpoint>
            <Time>2018-09-14T14:02:52.000Z</Time>
            <Position>
              <LatitudeDegrees>37.7439780347049236297607421875</LatitudeDegrees>
              <LongitudeDegrees>-8.09206324629485607147216796875</LongitudeDegrees>
            </Position>
            <AltitudeMeters>200.600006103515625</AltitudeMeters>
            <DistanceMeters>292372.5463124</DistanceMeters>
          </Trackpoint>
          <Trackpoint>
            <Time>2018-09-14T14:02:53.000Z</Time>
            <Position>
              <LatitudeDegrees>37.74392263032495975494384765625</LatitudeDegrees>
              <LongitudeDegrees>-8.09205251745879650115966796875</LongitudeDegrees>
            </Position>
            <AltitudeMeters>200.600006103515625</AltitudeMeters>
            <DistanceMeters>292378.78487229</DistanceMeters>
          </Trackpoint>
          <Trackpoint>
            <Time>2018-09-14T14:02:54.000Z</Time>
            <Position>
              <LatitudeDegrees>37.7438668906688690185546875</LatitudeDegrees>
              <LongitudeDegrees>-8.09204329736530780792236328125</LongitudeDegrees>
            </Position>
            <AltitudeMeters>201</AltitudeMeters>
            <DistanceMeters>292385.04222089</DistanceMeters>
          </Trackpoint>
          <Trackpoint>
            <Time>2018-09-14T14:02:55.000Z</Time>
            <Position>
              <LatitudeDegrees>37.743811905384063720703125</LatitudeDegrees>
              <LongitudeDegrees>-8.09203525073826313018798828125</LongitudeDegrees>
            </Position>
            <AltitudeMeters>201.399993896484375</AltitudeMeters>
            <DistanceMeters>292391.20285489</DistanceMeters>
          </Trackpoint>
          <Trackpoint>
            <Time>2018-09-14T14:02:56.000Z</Time>
            <Position>
              <LatitudeDegrees>37.743759267032146453857421875</LatitudeDegrees>
              <LongitudeDegrees>-8.09202636592090129852294921875</LongitudeDegrees>
            </Position>
            <AltitudeMeters>201.8000030517578125</AltitudeMeters>
            <DistanceMeters>292397.11440256</DistanceMeters>
          </Trackpoint>
          <Trackpoint>
            <Time>2018-09-14T14:02:57.000Z</Time>
            <Position>
              <LatitudeDegrees>37.7437078021466732025146484375</LatitudeDegrees>
              <LongitudeDegrees>-8.09201714582741260528564453125</LongitudeDegrees>
            </Position>
            <AltitudeMeters>202.1999969482421875</AltitudeMeters>
            <DistanceMeters>292402.90089748</DistanceMeters>
          </Trackpoint>
          <Trackpoint>
            <Time>2018-09-14T14:02:58.000Z</Time>
            <Position>
              <LatitudeDegrees>37.74365725927054882049560546875</LatitudeDegrees>
              <LongitudeDegrees>-8.09200658462941646575927734375</LongitudeDegrees>
            </Position>
            <AltitudeMeters>202.600006103515625</AltitudeMeters>
            <DistanceMeters>292408.60329217</DistanceMeters>
          </Trackpoint>
          <Trackpoint>
            <Time>2018-09-14T14:02:59.000Z</Time>
            <Position>
              <LatitudeDegrees>37.74360730312764644622802734375</LatitudeDegrees>
              <LongitudeDegrees>-8.0919947661459445953369140625</LongitudeDegrees>
            </Position>
            <AltitudeMeters>203</AltitudeMeters>
            <DistanceMeters>292414.26037542</DistanceMeters>
          </Trackpoint>
          <Trackpoint>
            <Time>2018-09-14T14:03:00.000Z</Time>
            <Position>
              <LatitudeDegrees>37.7435575984418392181396484375</LatitudeDegrees>
              <LongitudeDegrees>-8.09198361821472644805908203125</LongitudeDegrees>
            </Position>
            <AltitudeMeters>203.399993896484375</AltitudeMeters>
            <DistanceMeters>292419.87901825</DistanceMeters>
          </Trackpoint>
          <Trackpoint>
            <Time>2018-09-14T14:03:01.000Z</Time>
            <Position>
              <LatitudeDegrees>37.74350688792765140533447265625</LatitudeDegrees>
              <LongitudeDegrees>-8.09197355993092060089111328125</LongitudeDegrees>
            </Position>
            <AltitudeMeters>203.8000030517578125</AltitudeMeters>
            <DistanceMeters>292425.59169681</DistanceMeters>
          </Trackpoint>
          <Trackpoint>
            <Time>2018-09-14T14:03:02.000Z</Time>
            <Position>
              <LatitudeDegrees>37.74345508776605129241943359375</LatitudeDegrees>
              <LongitudeDegrees>-8.0919632501900196075439453125</LongitudeDegrees>
            </Position>
            <AltitudeMeters>204</AltitudeMeters>
            <DistanceMeters>292431.42791548</DistanceMeters>
          </Trackpoint>
          <Trackpoint>
            <Time>2018-09-14T14:03:03.000Z</Time>
            <Position>
              <LatitudeDegrees>37.74340244941413402557373046875</LatitudeDegrees>
              <LongitudeDegrees>-8.09195327572524547576904296875</LongitudeDegrees>
            </Position>
            <AltitudeMeters>204.399993896484375</AltitudeMeters>
            <DistanceMeters>292437.3516708</DistanceMeters>
          </Trackpoint>
          <Trackpoint>
            <Time>2018-09-14T14:03:04.000Z</Time>
            <Position>
              <LatitudeDegrees>37.7433490566909313201904296875</LatitudeDegrees>
              <LongitudeDegrees>-8.0919434688985347747802734375</LongitudeDegrees>
            </Position>
            <AltitudeMeters>204.8000030517578125</AltitudeMeters>
            <DistanceMeters>292443.35567489</DistanceMeters>
          </Trackpoint>
          <Trackpoint>
            <Time>2018-09-14T14:03:05.000Z</Time>
            <Position>
              <LatitudeDegrees>37.7432947419583797454833984375</LatitudeDegrees>
              <LongitudeDegrees>-8.09193290770053863525390625</LongitudeDegrees>
            </Position>
            <AltitudeMeters>205</AltitudeMeters>
            <DistanceMeters>292449.47143949</DistanceMeters>
          </Trackpoint>
          <Trackpoint>
            <Time>2018-09-14T14:03:06.000Z</Time>
            <Position>
              <LatitudeDegrees>37.74323933757841587066650390625</LatitudeDegrees>
              <LongitudeDegrees>-8.09192192740738391876220703125</LongitudeDegrees>
            </Position>
            <AltitudeMeters>205.399993896484375</AltitudeMeters>
            <DistanceMeters>292455.71289363</DistanceMeters>
          </Trackpoint>
          <Trackpoint>
            <Time>2018-09-14T14:03:07.000Z</Time>
            <Position>
              <LatitudeDegrees>37.7431830950081348419189453125</LatitudeDegrees>
              <LongitudeDegrees>-8.0919122882187366485595703125</LongitudeDegrees>
            </Position>
            <AltitudeMeters>205.399993896484375</AltitudeMeters>
            <DistanceMeters>292462.02913284</DistanceMeters>
          </Trackpoint>
          <Trackpoint>
            <Time>2018-09-14T14:03:08.000Z</Time>
            <Position>
              <LatitudeDegrees>37.74312601424753665924072265625</LatitudeDegrees>
              <LongitudeDegrees>-8.0919015593826770782470703125</LongitudeDegrees>
            </Position>
            <AltitudeMeters>205.1999969482421875</AltitudeMeters>
            <DistanceMeters>292468.45240453</DistanceMeters>
          </Trackpoint>
          <Trackpoint>
            <Time>2018-09-14T14:03:09.000Z</Time>
            <Position>
              <LatitudeDegrees>37.74306784383952617645263671875</LatitudeDegrees>
              <LongitudeDegrees>-8.09189007617533206939697265625</LongitudeDegrees>
            </Position>
            <AltitudeMeters>205.1999969482421875</AltitudeMeters>
            <DistanceMeters>292475.00442585</DistanceMeters>
          </Trackpoint>
          <Trackpoint>
            <Time>2018-09-14T14:03:10.000Z</Time>
            <Position>
              <LatitudeDegrees>37.74300833232700824737548828125</LatitudeDegrees>
              <LongitudeDegrees>-8.0918794311583042144775390625</LongitudeDegrees>
            </Position>
            <AltitudeMeters>205</AltitudeMeters>
            <DistanceMeters>292481.69419856</DistanceMeters>
          </Trackpoint>
          <Trackpoint>
            <Time>2018-09-14T14:03:11.000Z</Time>
            <Position>
              <LatitudeDegrees>37.74294848553836345672607421875</LatitudeDegrees>
              <LongitudeDegrees>-8.09186845086514949798583984375</LongitudeDegrees>
            </Position>
            <AltitudeMeters>204.8000030517578125</AltitudeMeters>
            <DistanceMeters>292488.42434443</DistanceMeters>
          </Trackpoint>
          <Trackpoint>
            <Time>2018-09-14T14:03:12.000Z</Time>
            <Position>
              <LatitudeDegrees>37.7428887225687503814697265625</LatitudeDegrees>
              <LongitudeDegrees>-8.09185705147683620452880859375</LongitudeDegrees>
            </Position>
            <AltitudeMeters>204.8000030517578125</AltitudeMeters>
            <DistanceMeters>292495.15113513</DistanceMeters>
          </Trackpoint>
          <Trackpoint>
            <Time>2018-09-14T14:03:13.000Z</Time>
            <Position>
              <LatitudeDegrees>37.7428288757801055908203125</LatitudeDegrees>
              <LongitudeDegrees>-8.0918455682694911956787109375</LongitudeDegrees>
            </Position>
            <AltitudeMeters>204.600006103515625</AltitudeMeters>
            <DistanceMeters>292501.88798634</DistanceMeters>
          </Trackpoint>
          <Trackpoint>
            <Time>2018-09-14T14:03:14.000Z</Time>
            <Position>
              <LatitudeDegrees>37.74276928044855594635009765625</LatitudeDegrees>
              <LongitudeDegrees>-8.0918345041573047637939453125</LongitudeDegrees>
            </Position>
            <AltitudeMeters>204.399993896484375</AltitudeMeters>
            <DistanceMeters>292508.59259076</DistanceMeters>
          </Trackpoint>
          <Trackpoint>
            <Time>2018-09-14T14:03:15.000Z</Time>
            <Position>
              <LatitudeDegrees>37.7427093498408794403076171875</LatitudeDegrees>
              <LongitudeDegrees>-8.0918227694928646087646484375</LongitudeDegrees>
            </Position>
            <AltitudeMeters>204.399993896484375</AltitudeMeters>
            <DistanceMeters>292515.34216376</DistanceMeters>
          </Trackpoint>
          <Trackpoint>
            <Time>2018-09-14T14:03:16.000Z</Time>
            <Position>
              <LatitudeDegrees>37.7426479943096637725830078125</LatitudeDegrees>
              <LongitudeDegrees>-8.09181011281907558441162109375</LongitudeDegrees>
            </Position>
            <AltitudeMeters>204.1999969482421875</AltitudeMeters>
            <DistanceMeters>292522.26217065</DistanceMeters>
          </Trackpoint>
          <Trackpoint>
            <Time>2018-09-14T14:03:17.000Z</Time>
            <Position>
              <LatitudeDegrees>37.74258621968328952789306640625</LatitudeDegrees>
              <LongitudeDegrees>-8.0917982943356037139892578125</LongitudeDegrees>
            </Position>
            <AltitudeMeters>204</AltitudeMeters>
            <DistanceMeters>292529.21667203</DistanceMeters>
          </Trackpoint>
          <Trackpoint>
            <Time>2018-09-14T14:03:18.000Z</Time>
            <Position>
              <LatitudeDegrees>37.742523439228534698486328125</LatitudeDegrees>
              <LongitudeDegrees>-8.09178647585213184356689453125</LongitudeDegrees>
            </Position>
            <AltitudeMeters>204</AltitudeMeters>
            <DistanceMeters>292536.2813187</DistanceMeters>
          </Trackpoint>
          <Trackpoint>
            <Time>2018-09-14T14:03:19.000Z</Time>
            <Position>
              <LatitudeDegrees>37.742460072040557861328125</LatitudeDegrees>
              <LongitudeDegrees>-8.0917741544544696807861328125</LongitudeDegrees>
            </Position>
            <AltitudeMeters>204.1999969482421875</AltitudeMeters>
            <DistanceMeters>292543.41655317</DistanceMeters>
          </Trackpoint>
          <Trackpoint>
            <Time>2018-09-14T14:03:20.000Z</Time>
            <Position>
              <LatitudeDegrees>37.742396034300327301025390625</LatitudeDegrees>
              <LongitudeDegrees>-8.0917620845139026641845703125</LongitudeDegrees>
            </Position>
            <AltitudeMeters>204.399993896484375</AltitudeMeters>
            <DistanceMeters>292550.62231056</DistanceMeters>
          </Trackpoint>
          <Trackpoint>
            <Time>2018-09-14T14:03:21.000Z</Time>
            <Position>
              <LatitudeDegrees>37.74233258329331874847412109375</LatitudeDegrees>
              <LongitudeDegrees>-8.09175076894462108612060546875</LongitudeDegrees>
            </Position>
            <AltitudeMeters>204.399993896484375</AltitudeMeters>
            <DistanceMeters>292557.75438043</DistanceMeters>
          </Trackpoint>
          <Trackpoint>
            <Time>2018-09-14T14:03:22.000Z</Time>
            <Position>
              <LatitudeDegrees>37.7422687970101833343505859375</LatitudeDegrees>
              <LongitudeDegrees>-8.09173844754695892333984375</LongitudeDegrees>
            </Position>
            <AltitudeMeters>204.600006103515625</AltitudeMeters>
            <DistanceMeters>292564.93628802</DistanceMeters>
          </Trackpoint>
          <Trackpoint>
            <Time>2018-09-14T14:03:23.000Z</Time>
            <Position>
              <LatitudeDegrees>37.74220517836511135101318359375</LatitudeDegrees>
              <LongitudeDegrees>-8.09172629378736019134521484375</LongitudeDegrees>
            </Position>
            <AltitudeMeters>204.8000030517578125</AltitudeMeters>
            <DistanceMeters>292572.09804997</DistanceMeters>
          </Trackpoint>
          <Trackpoint>
            <Time>2018-09-14T14:03:24.000Z</Time>
            <Position>
              <LatitudeDegrees>37.7421422302722930908203125</LatitudeDegrees>
              <LongitudeDegrees>-8.09171430766582489013671875</LongitudeDegrees>
            </Position>
            <AltitudeMeters>205</AltitudeMeters>
            <DistanceMeters>292579.18311842</DistanceMeters>
          </Trackpoint>
          <Trackpoint>
            <Time>2018-09-14T14:03:25.000Z</Time>
            <Position>
              <LatitudeDegrees>37.74208012036979198455810546875</LatitudeDegrees>
              <LongitudeDegrees>-8.09170248918235301971435546875</LongitudeDegrees>
            </Position>
            <AltitudeMeters>205.1999969482421875</AltitudeMeters>
            <DistanceMeters>292586.17388188</DistanceMeters>
          </Trackpoint>
          <Trackpoint>
            <Time>2018-09-14T14:03:26.000Z</Time>
            <Position>
              <LatitudeDegrees>37.7420188486576080322265625</LatitudeDegrees>
              <LongitudeDegrees>-8.09169108979403972625732421875</LongitudeDegrees>
            </Position>
            <AltitudeMeters>205.1999969482421875</AltitudeMeters>
            <DistanceMeters>292593.06577582</DistanceMeters>
          </Trackpoint>
          <Trackpoint>
            <Time>2018-09-14T14:03:27.000Z</Time>
            <Position>
              <LatitudeDegrees>37.74195774458348751068115234375</LatitudeDegrees>
              <LongitudeDegrees>-8.09167943894863128662109375</LongitudeDegrees>
            </Position>
            <AltitudeMeters>205.399993896484375</AltitudeMeters>
            <DistanceMeters>292599.94324195</DistanceMeters>
          </Trackpoint>
          <Trackpoint>
            <Time>2018-09-14T14:03:28.000Z</Time>
            <Position>
              <LatitudeDegrees>37.74189722724258899688720703125</LatitudeDegrees>
              <LongitudeDegrees>-8.0916672013700008392333984375</LongitudeDegrees>
            </Position>
            <AltitudeMeters>205.600006103515625</AltitudeMeters>
            <DistanceMeters>292606.76401565</DistanceMeters>
          </Trackpoint>
          <Trackpoint>
            <Time>2018-09-14T14:03:29.000Z</Time>
            <Position>
              <LatitudeDegrees>37.74183687753975391387939453125</LatitudeDegrees>
              <LongitudeDegrees>-8.09165370650589466094970703125</LongitudeDegrees>
            </Position>
            <AltitudeMeters>205.600006103515625</AltitudeMeters>
            <DistanceMeters>292613.58478935</DistanceMeters>
          </Trackpoint>
          <Trackpoint>
            <Time>2018-09-14T14:03:30.000Z</Time>
            <Position>
              <LatitudeDegrees>37.74177669547498226165771484375</LatitudeDegrees>
              <LongitudeDegrees>-8.09164146892726421356201171875</LongitudeDegrees>
            </Position>
            <AltitudeMeters>205.8000030517578125</AltitudeMeters>
            <DistanceMeters>292620.36839234</DistanceMeters>
          </Trackpoint>
          <Trackpoint>
            <Time>2018-09-14T14:03:31.000Z</Time>
            <Position>
              <LatitudeDegrees>37.7417172677814960479736328125</LatitudeDegrees>
              <LongitudeDegrees>-8.0916309915482997894287109375</LongitudeDegrees>
            </Position>
            <AltitudeMeters>205.600006103515625</AltitudeMeters>
            <DistanceMeters>292627.04735765</DistanceMeters>
          </Trackpoint>
          <Trackpoint>
            <Time>2018-09-14T14:03:32.000Z</Time>
            <Position>
              <LatitudeDegrees>37.741659097373485565185546875</LatitudeDegrees>
              <LongitudeDegrees>-8.09162017889320850372314453125</LongitudeDegrees>
            </Position>
            <AltitudeMeters>205.600006103515625</AltitudeMeters>
            <DistanceMeters>292633.59110447</DistanceMeters>
          </Trackpoint>
          <Trackpoint>
            <Time>2018-09-14T14:03:33.000Z</Time>
            <Position>
              <LatitudeDegrees>37.74160218425095081329345703125</LatitudeDegrees>
              <LongitudeDegrees>-8.09161028824746608734130859375</LongitudeDegrees>
            </Position>
            <AltitudeMeters>205.600006103515625</AltitudeMeters>
            <DistanceMeters>292639.98549156</DistanceMeters>
          </Trackpoint>
          <Trackpoint>
            <Time>2018-09-14T14:03:34.000Z</Time>
            <Position>
              <LatitudeDegrees>37.7415466122329235076904296875</LatitudeDegrees>
              <LongitudeDegrees>-8.09160031378269195556640625</LongitudeDegrees>
            </Position>
            <AltitudeMeters>205.600006103515625</AltitudeMeters>
            <DistanceMeters>292646.23273018</DistanceMeters>
          </Trackpoint>
          <Trackpoint>
            <Time>2018-09-14T14:03:35.000Z</Time>
            <Position>
              <LatitudeDegrees>37.74149171076714992523193359375</LatitudeDegrees>
              <LongitudeDegrees>-8.091589920222759246826171875</LongitudeDegrees>
            </Position>
            <AltitudeMeters>205.600006103515625</AltitudeMeters>
            <DistanceMeters>292652.41165915</DistanceMeters>
          </Trackpoint>
          <Trackpoint>
            <Time>2018-09-14T14:03:36.000Z</Time>
            <Position>
              <LatitudeDegrees>37.74143756367266178131103515625</LatitudeDegrees>
              <LongitudeDegrees>-8.091579191386699676513671875</LongitudeDegrees>
            </Position>
            <AltitudeMeters>205.600006103515625</AltitudeMeters>
            <DistanceMeters>292658.51264063</DistanceMeters>
          </Trackpoint>
          <Trackpoint>
            <Time>2018-09-14T14:03:37.000Z</Time>
            <Position>
              <LatitudeDegrees>37.7413843385875225067138671875</LatitudeDegrees>
              <LongitudeDegrees>-8.09156821109354496002197265625</LongitudeDegrees>
            </Position>
            <AltitudeMeters>205.600006103515625</AltitudeMeters>
            <DistanceMeters>292664.51514053</DistanceMeters>
          </Trackpoint>
          <Trackpoint>
            <Time>2018-09-14T14:03:38.000Z</Time>
            <Position>
              <LatitudeDegrees>37.74133178405463695526123046875</LatitudeDegrees>
              <LongitudeDegrees>-8.0915579013526439666748046875</LongitudeDegrees>
            </Position>
            <AltitudeMeters>205.600006103515625</AltitudeMeters>
            <DistanceMeters>292670.43432093</DistanceMeters>
          </Trackpoint>
          <Trackpoint>
            <Time>2018-09-14T14:03:39.000Z</Time>
            <Position>
              <LatitudeDegrees>37.74127914570271968841552734375</LatitudeDegrees>
              <LongitudeDegrees>-8.09154809452593326568603515625</LongitudeDegrees>
            </Position>
            <AltitudeMeters>205.399993896484375</AltitudeMeters>
            <DistanceMeters>292676.35655167</DistanceMeters>
          </Trackpoint>
          <Trackpoint>
            <Time>2018-09-14T14:03:40.000Z</Time>
            <Position>
              <LatitudeDegrees>37.74122600443661212921142578125</LatitudeDegrees>
              <LongitudeDegrees>-8.0915384553372859954833984375</LongitudeDegrees>
            </Position>
            <AltitudeMeters>205.399993896484375</AltitudeMeters>
            <DistanceMeters>292682.3311556</DistanceMeters>
          </Trackpoint>
          <Trackpoint>
            <Time>2018-09-14T14:03:41.000Z</Time>
            <Position>
              <LatitudeDegrees>37.741172276437282562255859375</LatitudeDegrees>
              <LongitudeDegrees>-8.09152831323444843292236328125</LongitudeDegrees>
            </Position>
            <AltitudeMeters>205.399993896484375</AltitudeMeters>
            <DistanceMeters>292688.37712529</DistanceMeters>
          </Trackpoint>
          <Trackpoint>
            <Time>2018-09-14T14:03:42.000Z</Time>
            <Position>
              <LatitudeDegrees>37.7411171235144138336181640625</LatitudeDegrees>
              <LongitudeDegrees>-8.0915186740458011627197265625</LongitudeDegrees>
            </Position>
            <AltitudeMeters>205.399993896484375</AltitudeMeters>
            <DistanceMeters>292694.57356661</DistanceMeters>
          </Trackpoint>
          <Trackpoint>
            <Time>2018-09-14T14:03:43.000Z</Time>
            <Position>
              <LatitudeDegrees>37.74106071330606937408447265625</LatitudeDegrees>
              <LongitudeDegrees>-8.0915086157619953155517578125</LongitudeDegrees>
            </Position>
            <AltitudeMeters>205.399993896484375</AltitudeMeters>
            <DistanceMeters>292700.91406346</DistanceMeters>
          </Trackpoint>
          <Trackpoint>
            <Time>2018-09-14T14:03:44.000Z</Time>
            <Position>
              <LatitudeDegrees>37.7410027943551540374755859375</LatitudeDegrees>
              <LongitudeDegrees>-8.091497384011745452880859375</LongitudeDegrees>
            </Position>
            <AltitudeMeters>205.1999969482421875</AltitudeMeters>
            <DistanceMeters>292707.43569363</DistanceMeters>
          </Trackpoint>
          <Trackpoint>
            <Time>2018-09-14T14:03:45.000Z</Time>
            <Position>
              <LatitudeDegrees>37.740942277014255523681640625</LatitudeDegrees>
              <LongitudeDegrees>-8.09148523025214672088623046875</LongitudeDegrees>
            </Position>
            <AltitudeMeters>205</AltitudeMeters>
            <DistanceMeters>292714.25580534</DistanceMeters>
          </Trackpoint>
          <Trackpoint>
            <Time>2018-09-14T14:03:46.000Z</Time>
            <Position>
              <LatitudeDegrees>37.740879245102405548095703125</LatitudeDegrees>
              <LongitudeDegrees>-8.0914724059402942657470703125</LongitudeDegrees>
            </Position>
            <AltitudeMeters>205</AltitudeMeters>
            <DistanceMeters>292721.36123688</DistanceMeters>
          </Trackpoint>
          <Trackpoint>
            <Time>2018-09-14T14:03:47.000Z</Time>
            <Position>
              <LatitudeDegrees>37.74081361480057239532470703125</LatitudeDegrees>
              <LongitudeDegrees>-8.091459162533283233642578125</LongitudeDegrees>
            </Position>
            <AltitudeMeters>204.600006103515625</AltitudeMeters>
            <DistanceMeters>292728.75868666</DistanceMeters>
          </Trackpoint>
          <Trackpoint>
            <Time>2018-09-14T14:03:48.000Z</Time>
            <Position>
              <LatitudeDegrees>37.74074588902294635772705078125</LatitudeDegrees>
              <LongitudeDegrees>-8.091445080935955047607421875</LongitudeDegrees>
            </Position>
            <AltitudeMeters>204.399993896484375</AltitudeMeters>
            <DistanceMeters>292736.39755791</DistanceMeters>
          </Trackpoint>
          <Trackpoint>
            <Time>2018-09-14T14:03:49.000Z</Time>
            <Position>
              <LatitudeDegrees>37.740676403045654296875</LatitudeDegrees>
              <LongitudeDegrees>-8.09143133461475372314453125</LongitudeDegrees>
            </Position>
            <AltitudeMeters>204</AltitudeMeters>
            <DistanceMeters>292744.22559079</DistanceMeters>
          </Trackpoint>
          <Trackpoint>
            <Time>2018-09-14T14:03:50.000Z</Time>
            <Position>
              <LatitudeDegrees>37.74060490541160106658935546875</LatitudeDegrees>
              <LongitudeDegrees>-8.0914164148271083831787109375</LongitudeDegrees>
            </Position>
            <AltitudeMeters>203.8000030517578125</AltitudeMeters>
            <DistanceMeters>292752.29111438</DistanceMeters>
          </Trackpoint>
          <Trackpoint>
            <Time>2018-09-14T14:03:51.000Z</Time>
            <Position>
              <LatitudeDegrees>37.74053080938756465911865234375</LatitudeDegrees>
              <LongitudeDegrees>-8.09139923192560672760009765625</LongitudeDegrees>
            </Position>
            <AltitudeMeters>203.399993896484375</AltitudeMeters>
            <DistanceMeters>292760.67557292</DistanceMeters>
          </Trackpoint>
          <Trackpoint>
            <Time>2018-09-14T14:03:52.000Z</Time>
            <Position>
              <LatitudeDegrees>37.74045436643064022064208984375</LatitudeDegrees>
              <LongitudeDegrees>-8.09138380922377109527587890625</LongitudeDegrees>
            </Position>
            <AltitudeMeters>203.1999969482421875</AltitudeMeters>
            <DistanceMeters>292769.29109545</DistanceMeters>
          </Trackpoint>
          <Trackpoint>
            <Time>2018-09-14T14:03:53.000Z</Time>
            <Position>
              <LatitudeDegrees>37.74037624709308147430419921875</LatitudeDegrees>
              <LongitudeDegrees>-8.0913694761693477630615234375</LongitudeDegrees>
            </Position>
            <AltitudeMeters>203</AltitudeMeters>
            <DistanceMeters>292778.07682783</DistanceMeters>
          </Trackpoint>
          <Trackpoint>
            <Time>2018-09-14T14:03:54.000Z</Time>
            <Position>
              <LatitudeDegrees>37.7402968704700469970703125</LatitudeDegrees>
              <LongitudeDegrees>-8.09135380201041698455810546875</LongitudeDegrees>
            </Position>
            <AltitudeMeters>203</AltitudeMeters>
            <DistanceMeters>292787.01893758</DistanceMeters>
          </Trackpoint>
          <Trackpoint>
            <Time>2018-09-14T14:03:55.000Z</Time>
            <Position>
              <LatitudeDegrees>37.74021632038056850433349609375</LatitudeDegrees>
              <LongitudeDegrees>-8.09133821167051792144775390625</LongitudeDegrees>
            </Position>
            <AltitudeMeters>203</AltitudeMeters>
            <DistanceMeters>292796.08838996</DistanceMeters>
          </Trackpoint>
          <Trackpoint>
            <Time>2018-09-14T14:03:56.000Z</Time>
            <Position>
              <LatitudeDegrees>37.74013317190110683441162109375</LatitudeDegrees>
              <LongitudeDegrees>-8.09132345952093601226806640625</LongitudeDegrees>
            </Position>
            <AltitudeMeters>203</AltitudeMeters>
            <DistanceMeters>292805.43391826</DistanceMeters>
          </Trackpoint>
          <Trackpoint>
            <Time>2018-09-14T14:03:57.000Z</Time>
            <Position>
              <LatitudeDegrees>37.74004884995520114898681640625</LatitudeDegrees>
              <LongitudeDegrees>-8.0913087911903858184814453125</LongitudeDegrees>
            </Position>
            <AltitudeMeters>203</AltitudeMeters>
            <DistanceMeters>292814.90708562</DistanceMeters>
          </Trackpoint>
          <Trackpoint>
            <Time>2018-09-14T14:03:58.000Z</Time>
            <Position>
              <LatitudeDegrees>37.739963270723819732666015625</LatitudeDegrees>
              <LongitudeDegrees>-8.0912930332124233245849609375</LongitudeDegrees>
            </Position>
            <AltitudeMeters>203</AltitudeMeters>
            <DistanceMeters>292824.53296814</DistanceMeters>
          </Trackpoint>
          <Trackpoint>
            <Time>2018-09-14T14:03:59.000Z</Time>
            <Position>
              <LatitudeDegrees>37.73987685330212116241455078125</LatitudeDegrees>
              <LongitudeDegrees>-8.0912764370441436767578125</LongitudeDegrees>
            </Position>
            <AltitudeMeters>202.8000030517578125</AltitudeMeters>
            <DistanceMeters>292834.26149482</DistanceMeters>
          </Trackpoint>
          <Trackpoint>
            <Time>2018-09-14T14:04:00.000Z</Time>
            <Position>
              <LatitudeDegrees>37.73978951387107372283935546875</LatitudeDegrees>
              <LongitudeDegrees>-8.09125958941876888275146484375</LongitudeDegrees>
            </Position>
            <AltitudeMeters>202.600006103515625</AltitudeMeters>
            <DistanceMeters>292844.09434936</DistanceMeters>
          </Trackpoint>
          <Trackpoint>
            <Time>2018-09-14T14:04:01.000Z</Time>
            <Position>
              <LatitudeDegrees>37.73970167152583599090576171875</LatitudeDegrees>
              <LongitudeDegrees>-8.09124450199306011199951171875</LongitudeDegrees>
            </Position>
            <AltitudeMeters>202.600006103515625</AltitudeMeters>
            <DistanceMeters>292853.96066701</DistanceMeters>
          </Trackpoint>
          <Trackpoint>
            <Time>2018-09-14T14:04:02.000Z</Time>
            <Position>
              <LatitudeDegrees>37.7396137453615665435791015625</LatitudeDegrees>
              <LongitudeDegrees>-8.09122824110090732574462890625</LongitudeDegrees>
            </Position>
            <AltitudeMeters>202.399993896484375</AltitudeMeters>
            <DistanceMeters>292863.85120887</DistanceMeters>
          </Trackpoint>
          <Trackpoint>
            <Time>2018-09-14T14:04:03.000Z</Time>
            <Position>
              <LatitudeDegrees>37.73952598683536052703857421875</LatitudeDegrees>
              <LongitudeDegrees>-8.0912115611135959625244140625</LongitudeDegrees>
            </Position>
            <AltitudeMeters>202.1999969482421875</AltitudeMeters>
            <DistanceMeters>292873.72850333</DistanceMeters>
          </Trackpoint>
          <Trackpoint>
            <Time>2018-09-14T14:04:04.000Z</Time>
            <Position>
              <LatitudeDegrees>37.73943931795656681060791015625</LatitudeDegrees>
              <LongitudeDegrees>-8.0911947973072528839111328125</LongitudeDegrees>
            </Position>
            <AltitudeMeters>201.8000030517578125</AltitudeMeters>
            <DistanceMeters>292883.48715007</DistanceMeters>
          </Trackpoint>
          <Trackpoint>
            <Time>2018-09-14T14:04:05.000Z</Time>
            <Position>
              <LatitudeDegrees>37.73935415782034397125244140625</LatitudeDegrees>
              <LongitudeDegrees>-8.09117677621543407440185546875</LongitudeDegrees>
            </Position>
            <AltitudeMeters>201.600006103515625</AltitudeMeters>
            <DistanceMeters>292893.09754142</DistanceMeters>
          </Trackpoint>
          <Trackpoint>
            <Time>2018-09-14T14:04:06.000Z</Time>
            <Position>
              <LatitudeDegrees>37.73927067406475543975830078125</LatitudeDegrees>
              <LongitudeDegrees>-8.091158755123615264892578125</LongitudeDegrees>
            </Position>
            <AltitudeMeters>201.399993896484375</AltitudeMeters>
            <DistanceMeters>292902.52436391</DistanceMeters>
          </Trackpoint>
          <Trackpoint>
            <Time>2018-09-14T14:04:07.000Z</Time>
            <Position>
              <LatitudeDegrees>37.73918886668980121612548828125</LatitudeDegrees>
              <LongitudeDegrees>-8.09114241041243076324462890625</LongitudeDegrees>
            </Position>
            <AltitudeMeters>201.1999969482421875</AltitudeMeters>
            <DistanceMeters>292911.74244502</DistanceMeters>
          </Trackpoint>
          <Trackpoint>
            <Time>2018-09-14T14:04:08.000Z</Time>
            <Position>
              <LatitudeDegrees>37.73910772986710071563720703125</LatitudeDegrees>
              <LongitudeDegrees>-8.09112782590091228485107421875</LongitudeDegrees>
            </Position>
            <AltitudeMeters>201.399993896484375</AltitudeMeters>
            <DistanceMeters>292920.86401968</DistanceMeters>
          </Trackpoint>
          <Trackpoint>
            <Time>2018-09-14T14:04:09.000Z</Time>
            <Position>
              <LatitudeDegrees>37.739027179777622222900390625</LatitudeDegrees>
              <LongitudeDegrees>-8.09111357666552066802978515625</LongitudeDegrees>
            </Position>
            <AltitudeMeters>201.399993896484375</AltitudeMeters>
            <DistanceMeters>292929.91603126</DistanceMeters>
          </Trackpoint>
          <Trackpoint>
            <Time>2018-09-14T14:04:10.000Z</Time>
            <Position>
              <LatitudeDegrees>37.73894704878330230712890625</LatitudeDegrees>
              <LongitudeDegrees>-8.09109932743012905120849609375</LongitudeDegrees>
            </Position>
            <AltitudeMeters>201.1999969482421875</AltitudeMeters>
            <DistanceMeters>292938.9220374</DistanceMeters>
          </Trackpoint>
          <Trackpoint>
            <Time>2018-09-14T14:04:11.000Z</Time>
            <Position>
              <LatitudeDegrees>37.73886800743639469146728515625</LatitudeDegrees>
              <LongitudeDegrees>-8.0910854972898960113525390625</LongitudeDegrees>
            </Position>
            <AltitudeMeters>201.1999969482421875</AltitudeMeters>
            <DistanceMeters>292947.80284185</DistanceMeters>
          </Trackpoint>
          <Trackpoint>
            <Time>2018-09-14T14:04:12.000Z</Time>
            <Position>
              <LatitudeDegrees>37.73878988809883594512939453125</LatitudeDegrees>
              <LongitudeDegrees>-8.09107191860675811767578125</LongitudeDegrees>
            </Position>
            <AltitudeMeters>201</AltitudeMeters>
            <DistanceMeters>292956.57931905</DistanceMeters>
          </Trackpoint>
          <Trackpoint>
            <Time>2018-09-14T14:04:13.000Z</Time>
            <Position>
              <LatitudeDegrees>37.73871243931353092193603515625</LatitudeDegrees>
              <LongitudeDegrees>-8.09105842374265193939208984375</LongitudeDegrees>
            </Position>
            <AltitudeMeters>200.8000030517578125</AltitudeMeters>
            <DistanceMeters>292965.28088161</DistanceMeters>
          </Trackpoint>
          <Trackpoint>
            <Time>2018-09-14T14:04:14.000Z</Time>
            <Position>
              <LatitudeDegrees>37.73863582871854305267333984375</LatitudeDegrees>
              <LongitudeDegrees>-8.09104509651660919189453125</LongitudeDegrees>
            </Position>
            <AltitudeMeters>200.8000030517578125</AltitudeMeters>
            <DistanceMeters>292973.88801512</DistanceMeters>
          </Trackpoint>
          <Trackpoint>
            <Time>2018-09-14T14:04:15.000Z</Time>
            <Position>
              <LatitudeDegrees>37.73855988867580890655517578125</LatitudeDegrees>
              <LongitudeDegrees>-8.0910311825573444366455078125</LongitudeDegrees>
            </Position>
            <AltitudeMeters>200.600006103515625</AltitudeMeters>
            <DistanceMeters>292982.42826848</DistanceMeters>
          </Trackpoint>
          <Trackpoint>
            <Time>2018-09-14T14:04:16.000Z</Time>
            <Position>
              <LatitudeDegrees>37.73848478682339191436767578125</LatitudeDegrees>
              <LongitudeDegrees>-8.09101693332195281982421875</LongitudeDegrees>
            </Position>
            <AltitudeMeters>200.399993896484375</AltitudeMeters>
            <DistanceMeters>292990.88083997</DistanceMeters>
          </Trackpoint>
          <Trackpoint>
            <Time>2018-09-14T14:04:17.000Z</Time>
            <Position>
              <LatitudeDegrees>37.73841018788516521453857421875</LatitudeDegrees>
              <LongitudeDegrees>-8.091002516448497772216796875</LongitudeDegrees>
            </Position>
            <AltitudeMeters>200.399993896484375</AltitudeMeters>
            <DistanceMeters>292999.280363</DistanceMeters>
          </Trackpoint>
          <Trackpoint>
            <Time>2018-09-14T14:04:18.000Z</Time>
            <Position>
              <LatitudeDegrees>37.73833642713725566864013671875</LatitudeDegrees>
              <LongitudeDegrees>-8.090988099575042724609375</LongitudeDegrees>
            </Position>
            <AltitudeMeters>200.1999969482421875</AltitudeMeters>
            <DistanceMeters>293007.58745902</DistanceMeters>
          </Trackpoint>
          <Trackpoint>
            <Time>2018-09-14T14:04:19.000Z</Time>
            <Position>
              <LatitudeDegrees>37.73826308548450469970703125</LatitudeDegrees>
              <LongitudeDegrees>-8.0909738503396511077880859375</LongitudeDegrees>
            </Position>
            <AltitudeMeters>200.399993896484375</AltitudeMeters>
            <DistanceMeters>293015.84549373</DistanceMeters>
          </Trackpoint>
          <Trackpoint>
            <Time>2018-09-14T14:04:20.000Z</Time>
            <Position>
              <LatitudeDegrees>37.73819024674594402313232421875</LatitudeDegrees>
              <LongitudeDegrees>-8.09096002019941806793212890625</LongitudeDegrees>
            </Position>
            <AltitudeMeters>200.600006103515625</AltitudeMeters>
            <DistanceMeters>293024.04316589</DistanceMeters>
          </Trackpoint>
          <Trackpoint>
            <Time>2018-09-14T14:04:21.000Z</Time>
            <Position>
              <LatitudeDegrees>37.7381187491118907928466796875</LatitudeDegrees>
              <LongitudeDegrees>-8.0909460224211215972900390625</LongitudeDegrees>
            </Position>
            <AltitudeMeters>201</AltitudeMeters>
            <DistanceMeters>293032.0952432</DistanceMeters>
          </Trackpoint>
          <Trackpoint>
            <Time>2018-09-14T14:04:22.000Z</Time>
            <Position>
              <LatitudeDegrees>37.73804892785847187042236328125</LatitudeDegrees>
              <LongitudeDegrees>-8.09093185700476169586181640625</LongitudeDegrees>
            </Position>
            <AltitudeMeters>201.1999969482421875</AltitudeMeters>
            <DistanceMeters>293039.96584193</DistanceMeters>
          </Trackpoint>
          <Trackpoint>
            <Time>2018-09-14T14:04:23.000Z</Time>
            <Position>
              <LatitudeDegrees>37.73798053152859210968017578125</LatitudeDegrees>
              <LongitudeDegrees>-8.090918362140655517578125</LongitudeDegrees>
            </Position>
            <AltitudeMeters>201.399993896484375</AltitudeMeters>
            <DistanceMeters>293047.67004159</DistanceMeters>
          </Trackpoint>
          <Trackpoint>
            <Time>2018-09-14T14:04:24.000Z</Time>
            <Position>
              <LatitudeDegrees>37.73791330866515636444091796875</LatitudeDegrees>
              <LongitudeDegrees>-8.0909057892858982086181640625</LongitudeDegrees>
            </Position>
            <AltitudeMeters>201.8000030517578125</AltitudeMeters>
            <DistanceMeters>293055.23407255</DistanceMeters>
          </Trackpoint>
          <Trackpoint>
            <Time>2018-09-14T14:04:25.000Z</Time>
            <Position>
              <LatitudeDegrees>37.7378468401730060577392578125</LatitudeDegrees>
              <LongitudeDegrees>-8.0908933840692043304443359375</LongitudeDegrees>
            </Position>
            <AltitudeMeters>202</AltitudeMeters>
            <DistanceMeters>293062.71286212</DistanceMeters>
          </Trackpoint>
          <Trackpoint>
            <Time>2018-09-14T14:04:26.000Z</Time>
            <Position>
              <LatitudeDegrees>37.73778137750923633575439453125</LatitudeDegrees>
              <LongitudeDegrees>-8.0908813141286373138427734375</LongitudeDegrees>
            </Position>
            <AltitudeMeters>202.1999969482421875</AltitudeMeters>
            <DistanceMeters>293070.07605294</DistanceMeters>
          </Trackpoint>
          <Trackpoint>
            <Time>2018-09-14T14:04:27.000Z</Time>
            <Position>
              <LatitudeDegrees>37.73771650157868862152099609375</LatitudeDegrees>
              <LongitudeDegrees>-8.09086983092129230499267578125</LongitudeDegrees>
            </Position>
            <AltitudeMeters>202.600006103515625</AltitudeMeters>
            <DistanceMeters>293077.36714751</DistanceMeters>
          </Trackpoint>
          <Trackpoint>
            <Time>2018-09-14T14:04:28.000Z</Time>
            <Position>
              <LatitudeDegrees>37.7376530505716800689697265625</LatitudeDegrees>
              <LongitudeDegrees>-8.0908580124378204345703125</LongitudeDegrees>
            </Position>
            <AltitudeMeters>202.8000030517578125</AltitudeMeters>
            <DistanceMeters>293084.50617766</DistanceMeters>
          </Trackpoint>
          <Trackpoint>
            <Time>2018-09-14T14:04:29.000Z</Time>
            <Position>
              <LatitudeDegrees>37.7375903539359569549560546875</LatitudeDegrees>
              <LongitudeDegrees>-8.09084594249725341796875</LongitudeDegrees>
            </Position>
            <AltitudeMeters>203</AltitudeMeters>
            <DistanceMeters>293091.56507005</DistanceMeters>
          </Trackpoint>
          <Trackpoint>
            <Time>2018-09-14T14:04:30.000Z</Time>
            <Position>
              <LatitudeDegrees>37.73752807639539241790771484375</LatitudeDegrees>
              <LongitudeDegrees>-8.090833537280559539794921875</LongitudeDegrees>
            </Position>
            <AltitudeMeters>203.1999969482421875</AltitudeMeters>
            <DistanceMeters>293098.58162025</DistanceMeters>
          </Trackpoint>
          <Trackpoint>
            <Time>2018-09-14T14:04:31.000Z</Time>
            <Position>
              <LatitudeDegrees>37.73746621794998645782470703125</LatitudeDegrees>
              <LongitudeDegrees>-8.0908209644258022308349609375</LongitudeDegrees>
            </Position>
            <AltitudeMeters>203.399993896484375</AltitudeMeters>
            <DistanceMeters>293105.55492375</DistanceMeters>
          </Trackpoint>
          <Trackpoint>
            <Time>2018-09-14T14:04:32.000Z</Time>
            <Position>
              <LatitudeDegrees>37.73740419186651706695556640625</LatitudeDegrees>
              <LongitudeDegrees>-8.09080830775201320648193359375</LongitudeDegrees>
            </Position>
            <AltitudeMeters>203.600006103515625</AltitudeMeters>
            <DistanceMeters>293112.54827016</DistanceMeters>
          </Trackpoint>
          <Trackpoint>
            <Time>2018-09-14T14:04:33.000Z</Time>
            <Position>
              <LatitudeDegrees>37.73734216578304767608642578125</LatitudeDegrees>
              <LongitudeDegrees>-8.0907968245446681976318359375</LongitudeDegrees>
            </Position>
            <AltitudeMeters>203.8000030517578125</AltitudeMeters>
            <DistanceMeters>293119.52545742</DistanceMeters>
          </Trackpoint>
          <Trackpoint>
            <Time>2018-09-14T14:04:34.000Z</Time>
            <Position>
              <LatitudeDegrees>37.73728030733764171600341796875</LatitudeDegrees>
              <LongitudeDegrees>-8.090785928070545196533203125</LongitudeDegrees>
            </Position>
            <AltitudeMeters>204.1999969482421875</AltitudeMeters>
            <DistanceMeters>293126.47671192</DistanceMeters>
          </Trackpoint>
          <Trackpoint>
            <Time>2018-09-14T14:04:35.000Z</Time>
            <Position>
              <LatitudeDegrees>37.7372178621590137481689453125</LatitudeDegrees>
              <LongitudeDegrees>-8.09077360667288303375244140625</LongitudeDegrees>
            </Position>
            <AltitudeMeters>204.399993896484375</AltitudeMeters>
            <DistanceMeters>293133.5112566</DistanceMeters>
          </Trackpoint>
          <Trackpoint>
            <Time>2018-09-14T14:04:36.000Z</Time>
            <Position>
              <LatitudeDegrees>37.7371544949710369110107421875</LatitudeDegrees>
              <LongitudeDegrees>-8.0907616205513477325439453125</LongitudeDegrees>
            </Position>
            <AltitudeMeters>204.600006103515625</AltitudeMeters>
            <DistanceMeters>293140.64269338</DistanceMeters>
          </Trackpoint>
          <Trackpoint>
            <Time>2018-09-14T14:04:37.000Z</Time>
            <Position>
              <LatitudeDegrees>37.737090289592742919921875</LatitudeDegrees>
              <LongitudeDegrees>-8.09075005352497100830078125</LongitudeDegrees>
            </Position>
            <AltitudeMeters>204.8000030517578125</AltitudeMeters>
            <DistanceMeters>293147.86097165</DistanceMeters>
          </Trackpoint>
          <Trackpoint>
            <Time>2018-09-14T14:04:38.000Z</Time>
            <Position>
              <LatitudeDegrees>37.7370254136621952056884765625</LatitudeDegrees>
              <LongitudeDegrees>-8.0907381512224674224853515625</LongitudeDegrees>
            </Position>
            <AltitudeMeters>205</AltitudeMeters>
            <DistanceMeters>293155.15701856</DistanceMeters>
          </Trackpoint>
          <Trackpoint>
            <Time>2018-09-14T14:04:39.000Z</Time>
            <Position>
              <LatitudeDegrees>37.73695995099842548370361328125</LatitudeDegrees>
              <LongitudeDegrees>-8.0907257460057735443115234375</LongitudeDegrees>
            </Position>
            <AltitudeMeters>205.399993896484375</AltitudeMeters>
            <DistanceMeters>293162.52450046</DistanceMeters>
          </Trackpoint>
          <Trackpoint>
            <Time>2018-09-14T14:04:40.000Z</Time>
            <Position>
              <LatitudeDegrees>37.73689406923949718475341796875</LatitudeDegrees>
              <LongitudeDegrees>-8.090712167322635650634765625</LongitudeDegrees>
            </Position>
            <AltitudeMeters>205.399993896484375</AltitudeMeters>
            <DistanceMeters>293169.95362068</DistanceMeters>
          </Trackpoint>
          <Trackpoint>
            <Time>2018-09-14T14:04:41.000Z</Time>
            <Position>
              <LatitudeDegrees>37.73682801984250545501708984375</LatitudeDegrees>
              <LongitudeDegrees>-8.09069900773465633392333984375</LongitudeDegrees>
            </Position>
            <AltitudeMeters>205.399993896484375</AltitudeMeters>
            <DistanceMeters>293177.39609936</DistanceMeters>
          </Trackpoint>
          <Trackpoint>
            <Time>2018-09-14T14:04:42.000Z</Time>
            <Position>
              <LatitudeDegrees>37.73676213808357715606689453125</LatitudeDegrees>
              <LongitudeDegrees>-8.09068609960377216339111328125</LongitudeDegrees>
            </Position>
            <AltitudeMeters>205.1999969482421875</AltitudeMeters>
            <DistanceMeters>293184.81609775</DistanceMeters>
          </Trackpoint>
          <Trackpoint>
            <Time>2018-09-14T14:04:43.000Z</Time>
            <Position>
              <LatitudeDegrees>37.73669667541980743408203125</LatitudeDegrees>
              <LongitudeDegrees>-8.09067386202514171600341796875</LongitudeDegrees>
            </Position>
            <AltitudeMeters>205</AltitudeMeters>
            <DistanceMeters>293192.18051484</DistanceMeters>
          </Trackpoint>
          <Trackpoint>
            <Time>2018-09-14T14:04:44.000Z</Time>
            <Position>
              <LatitudeDegrees>37.73663096129894256591796875</LatitudeDegrees>
              <LongitudeDegrees>-8.09066162444651126861572265625</LongitudeDegrees>
            </Position>
            <AltitudeMeters>205</AltitudeMeters>
            <DistanceMeters>293199.5730802</DistanceMeters>
          </Trackpoint>
          <Trackpoint>
            <Time>2018-09-14T14:04:45.000Z</Time>
            <Position>
              <LatitudeDegrees>37.7365654148161411285400390625</LatitudeDegrees>
              <LongitudeDegrees>-8.09064888395369052886962890625</LongitudeDegrees>
            </Position>
            <AltitudeMeters>205</AltitudeMeters>
            <DistanceMeters>293206.95464381</DistanceMeters>
          </Trackpoint>
          <Trackpoint>
            <Time>2018-09-14T14:04:46.000Z</Time>
            <Position>
              <LatitudeDegrees>37.73649978451430797576904296875</LatitudeDegrees>
              <LongitudeDegrees>-8.09063605964183807373046875</LongitudeDegrees>
            </Position>
            <AltitudeMeters>205</AltitudeMeters>
            <DistanceMeters>293214.34598756</DistanceMeters>
          </Trackpoint>
          <Trackpoint>
            <Time>2018-09-14T14:04:47.000Z</Time>
            <Position>
              <LatitudeDegrees>37.73643423803150653839111328125</LatitudeDegrees>
              <LongitudeDegrees>-8.09062373824417591094970703125</LongitudeDegrees>
            </Position>
            <AltitudeMeters>204.8000030517578125</AltitudeMeters>
            <DistanceMeters>293221.72081979</DistanceMeters>
          </Trackpoint>
          <Trackpoint>
            <Time>2018-09-14T14:04:48.000Z</Time>
            <Position>
              <LatitudeDegrees>37.73636919446289539337158203125</LatitudeDegrees>
              <LongitudeDegrees>-8.09061116538941860198974609375</LongitudeDegrees>
            </Position>
            <AltitudeMeters>204.8000030517578125</AltitudeMeters>
            <DistanceMeters>293229.04466128</DistanceMeters>
          </Trackpoint>
          <Trackpoint>
            <Time>2018-09-14T14:04:49.000Z</Time>
            <Position>
              <LatitudeDegrees>37.736304067075252532958984375</LatitudeDegrees>
              <LongitudeDegrees>-8.09059926308691501617431640625</LongitudeDegrees>
            </Position>
            <AltitudeMeters>204.8000030517578125</AltitudeMeters>
            <DistanceMeters>293236.36850276</DistanceMeters>
          </Trackpoint>
          <Trackpoint>
            <Time>2018-09-14T14:04:50.000Z</Time>
            <Position>
              <LatitudeDegrees>37.73623927496373653411865234375</LatitudeDegrees>
              <LongitudeDegrees>-8.0905866064131259918212890625</LongitudeDegrees>
            </Position>
            <AltitudeMeters>204.8000030517578125</AltitudeMeters>
            <DistanceMeters>293243.66578724</DistanceMeters>
          </Trackpoint>
          <Trackpoint>
            <Time>2018-09-14T14:04:51.000Z</Time>
            <Position>
              <LatitudeDegrees>37.73617498576641082763671875</LatitudeDegrees>
              <LongitudeDegrees>-8.09057327918708324432373046875</LongitudeDegrees>
            </Position>
            <AltitudeMeters>205</AltitudeMeters>
            <DistanceMeters>293250.91651859</DistanceMeters>
          </Trackpoint>
          <Trackpoint>
            <Time>2018-09-14T14:04:52.000Z</Time>
            <Position>
              <LatitudeDegrees>37.73611086420714855194091796875</LatitudeDegrees>
              <LongitudeDegrees>-8.0905604548752307891845703125</LongitudeDegrees>
            </Position>
            <AltitudeMeters>205.1999969482421875</AltitudeMeters>
            <DistanceMeters>293258.14167408</DistanceMeters>
          </Trackpoint>
          <Trackpoint>
            <Time>2018-09-14T14:04:53.000Z</Time>
            <Position>
              <LatitudeDegrees>37.736047245562076568603515625</LatitudeDegrees>
              <LongitudeDegrees>-8.09054880402982234954833984375</LongitudeDegrees>
            </Position>
            <AltitudeMeters>205.399993896484375</AltitudeMeters>
            <DistanceMeters>293265.29586679</DistanceMeters>
          </Trackpoint>
          <Trackpoint>
            <Time>2018-09-14T14:04:54.000Z</Time>
            <Position>
              <LatitudeDegrees>37.7359838783740997314453125</LatitudeDegrees>
              <LongitudeDegrees>-8.090537488460540771484375</LongitudeDegrees>
            </Position>
            <AltitudeMeters>205.600006103515625</AltitudeMeters>
            <DistanceMeters>293272.41843441</DistanceMeters>
          </Trackpoint>
          <Trackpoint>
            <Time>2018-09-14T14:04:55.000Z</Time>
            <Position>
              <LatitudeDegrees>37.735920511186122894287109375</LatitudeDegrees>
              <LongitudeDegrees>-8.0905255861580371856689453125</LongitudeDegrees>
            </Position>
            <AltitudeMeters>205.8000030517578125</AltitudeMeters>
            <DistanceMeters>293279.54860484</DistanceMeters>
          </Trackpoint>
          <Trackpoint>
            <Time>2018-09-14T14:04:56.000Z</Time>
            <Position>
              <LatitudeDegrees>37.73585714399814605712890625</LatitudeDegrees>
              <LongitudeDegrees>-8.0905135162174701690673828125</LongitudeDegrees>
            </Position>
            <AltitudeMeters>206</AltitudeMeters>
            <DistanceMeters>293286.68130774</DistanceMeters>
          </Trackpoint>
          <Trackpoint>
            <Time>2018-09-14T14:04:57.000Z</Time>
            <Position>
              <LatitudeDegrees>37.73579352535307407379150390625</LatitudeDegrees>
              <LongitudeDegrees>-8.09050153009593486785888671875</LongitudeDegrees>
            </Position>
            <AltitudeMeters>206</AltitudeMeters>
            <DistanceMeters>293293.8405475</DistanceMeters>
          </Trackpoint>
          <Trackpoint>
            <Time>2018-09-14T14:04:58.000Z</Time>
            <Position>
              <LatitudeDegrees>37.73572931997478008270263671875</LatitudeDegrees>
              <LongitudeDegrees>-8.09048878960311412811279296875</LongitudeDegrees>
            </Position>
            <AltitudeMeters>206.1999969482421875</AltitudeMeters>
            <DistanceMeters>293301.0738222</DistanceMeters>
          </Trackpoint>
          <Trackpoint>
            <Time>2018-09-14T14:04:59.000Z</Time>
            <Position>
              <LatitudeDegrees>37.73566444404423236846923828125</LatitudeDegrees>
              <LongitudeDegrees>-8.09047554619610309600830078125</LongitudeDegrees>
            </Position>
            <AltitudeMeters>206.1999969482421875</AltitudeMeters>
            <DistanceMeters>293308.38841056</DistanceMeters>
          </Trackpoint>
          <Trackpoint>
            <Time>2018-09-14T14:05:00.000Z</Time>
            <Position>
              <LatitudeDegrees>37.73559872992336750030517578125</LatitudeDegrees>
              <LongitudeDegrees>-8.0904625542461872100830078125</LongitudeDegrees>
            </Position>
            <AltitudeMeters>206.399993896484375</AltitudeMeters>
            <DistanceMeters>293315.79074154</DistanceMeters>
          </Trackpoint>
          <Trackpoint>
            <Time>2018-09-14T14:05:01.000Z</Time>
            <Position>
              <LatitudeDegrees>37.735532261431217193603515625</LatitudeDegrees>
              <LongitudeDegrees>-8.0904494784772396087646484375</LongitudeDegrees>
            </Position>
            <AltitudeMeters>206.399993896484375</AltitudeMeters>
            <DistanceMeters>293323.27797831</DistanceMeters>
          </Trackpoint>
          <Trackpoint>
            <Time>2018-09-14T14:05:02.000Z</Time>
            <Position>
              <LatitudeDegrees>37.73546495474874973297119140625</LatitudeDegrees>
              <LongitudeDegrees>-8.09043698944151401519775390625</LongitudeDegrees>
            </Position>
            <AltitudeMeters>206.399993896484375</AltitudeMeters>
            <DistanceMeters>293330.84976511</DistanceMeters>
          </Trackpoint>
          <Trackpoint>
            <Time>2018-09-14T14:05:03.000Z</Time>
            <Position>
              <LatitudeDegrees>37.73539605550467967987060546875</LatitudeDegrees>
              <LongitudeDegrees>-8.09042458422482013702392578125</LongitudeDegrees>
            </Position>
            <AltitudeMeters>206.1999969482421875</AltitudeMeters>
            <DistanceMeters>293338.59546249</DistanceMeters>
          </Trackpoint>
          <Trackpoint>
            <Time>2018-09-14T14:05:04.000Z</Time>
            <Position>
              <LatitudeDegrees>37.73532606661319732666015625</LatitudeDegrees>
              <LongitudeDegrees>-8.09041217900812625885009765625</LongitudeDegrees>
            </Position>
            <AltitudeMeters>206</AltitudeMeters>
            <DistanceMeters>293346.46147062</DistanceMeters>
          </Trackpoint>
          <Trackpoint>
            <Time>2018-09-14T14:05:05.000Z</Time>
            <Position>
              <LatitudeDegrees>37.7352548204362392425537109375</LatitudeDegrees>
              <LongitudeDegrees>-8.09039960615336894989013671875</LongitudeDegrees>
            </Position>
            <AltitudeMeters>206</AltitudeMeters>
            <DistanceMeters>293354.46856389</DistanceMeters>
          </Trackpoint>
          <Trackpoint>
            <Time>2018-09-14T14:05:06.000Z</Time>
            <Position>
              <LatitudeDegrees>37.735182233154773712158203125</LatitudeDegrees>
              <LongitudeDegrees>-8.09038602747023105621337890625</LongitudeDegrees>
            </Position>
            <AltitudeMeters>205.8000030517578125</AltitudeMeters>
            <DistanceMeters>293362.63644029</DistanceMeters>
          </Trackpoint>
          <Trackpoint>
            <Time>2018-09-14T14:05:07.000Z</Time>
            <Position>
              <LatitudeDegrees>37.73510805331170558929443359375</LatitudeDegrees>
              <LongitudeDegrees>-8.09037194587290287017822265625</LongitudeDegrees>
            </Position>
            <AltitudeMeters>205.8000030517578125</AltitudeMeters>
            <DistanceMeters>293370.98582291</DistanceMeters>
          </Trackpoint>
          <Trackpoint>
            <Time>2018-09-14T14:05:08.000Z</Time>
            <Position>
              <LatitudeDegrees>37.73503295145928859710693359375</LatitudeDegrees>
              <LongitudeDegrees>-8.09035769663751125335693359375</LongitudeDegrees>
            </Position>
            <AltitudeMeters>205.600006103515625</AltitudeMeters>
            <DistanceMeters>293379.4383944</DistanceMeters>
          </Trackpoint>
          <Trackpoint>
            <Time>2018-09-14T14:05:09.000Z</Time>
            <Position>
              <LatitudeDegrees>37.7349567599594593048095703125</LatitudeDegrees>
              <LongitudeDegrees>-8.0903438664972782135009765625</LongitudeDegrees>
            </Position>
            <AltitudeMeters>205.1999969482421875</AltitudeMeters>
            <DistanceMeters>293388.00556787</DistanceMeters>
          </Trackpoint>
          <Trackpoint>
            <Time>2018-09-14T14:05:10.000Z</Time>
            <Position>
              <LatitudeDegrees>37.73487939499318599700927734375</LatitudeDegrees>
              <LongitudeDegrees>-8.0903294496238231658935546875</LongitudeDegrees>
            </Position>
            <AltitudeMeters>205</AltitudeMeters>
            <DistanceMeters>293396.70920569</DistanceMeters>
          </Trackpoint>
          <Trackpoint>
            <Time>2018-09-14T14:05:11.000Z</Time>
            <Position>
              <LatitudeDegrees>37.7348005212843418121337890625</LatitudeDegrees>
              <LongitudeDegrees>-8.0903136916458606719970703125</LongitudeDegrees>
            </Position>
            <AltitudeMeters>204.600006103515625</AltitudeMeters>
            <DistanceMeters>293405.59712495</DistanceMeters>
          </Trackpoint>
          <Trackpoint>
            <Time>2018-09-14T14:05:12.000Z</Time>
            <Position>
              <LatitudeDegrees>37.7347213961184024810791015625</LatitudeDegrees>
              <LongitudeDegrees>-8.09029784984886646270751953125</LongitudeDegrees>
            </Position>
            <AltitudeMeters>204.399993896484375</AltitudeMeters>
            <DistanceMeters>293414.51344667</DistanceMeters>
          </Trackpoint>
          <Trackpoint>
            <Time>2018-09-14T14:05:13.000Z</Time>
            <Position>
              <LatitudeDegrees>37.73464168421924114227294921875</LatitudeDegrees>
              <LongitudeDegrees>-8.090282343327999114990234375</LongitudeDegrees>
            </Position>
            <AltitudeMeters>204</AltitudeMeters>
            <DistanceMeters>293423.48932223</DistanceMeters>
          </Trackpoint>
          <Trackpoint>
            <Time>2018-09-14T14:05:14.000Z</Time>
            <Position>
              <LatitudeDegrees>37.73456105031073093414306640625</LatitudeDegrees>
              <LongitudeDegrees>-8.090267591178417205810546875</LongitudeDegrees>
            </Position>
            <AltitudeMeters>203.600006103515625</AltitudeMeters>
            <DistanceMeters>293432.55777889</DistanceMeters>
          </Trackpoint>
          <Trackpoint>
            <Time>2018-09-14T14:05:15.000Z</Time>
            <Position>
              <LatitudeDegrees>37.7344806678593158721923828125</LatitudeDegrees>
              <LongitudeDegrees>-8.090253174304962158203125</LongitudeDegrees>
            </Position>
            <AltitudeMeters>203.399993896484375</AltitudeMeters>
            <DistanceMeters>293441.59381514</DistanceMeters>
          </Trackpoint>
          <Trackpoint>
            <Time>2018-09-14T14:05:16.000Z</Time>
            <Position>
              <LatitudeDegrees>37.73440070450305938720703125</LatitudeDegrees>
              <LongitudeDegrees>-8.09023817069828510284423828125</LongitudeDegrees>
            </Position>
            <AltitudeMeters>203</AltitudeMeters>
            <DistanceMeters>293450.59179633</DistanceMeters>
          </Trackpoint>
          <Trackpoint>
            <Time>2018-09-14T14:05:17.000Z</Time>
            <Position>
              <LatitudeDegrees>37.73432132788002490997314453125</LatitudeDegrees>
              <LongitudeDegrees>-8.09022308327257633209228515625</LongitudeDegrees>
            </Position>
            <AltitudeMeters>202.8000030517578125</AltitudeMeters>
            <DistanceMeters>293459.52531834</DistanceMeters>
          </Trackpoint>
          <Trackpoint>
            <Time>2018-09-14T14:05:18.000Z</Time>
            <Position>
              <LatitudeDegrees>37.73424220271408557891845703125</LatitudeDegrees>
              <LongitudeDegrees>-8.0902084149420261383056640625</LongitudeDegrees>
            </Position>
            <AltitudeMeters>202.399993896484375</AltitudeMeters>
            <DistanceMeters>293468.42643573</DistanceMeters>
          </Trackpoint>
          <Trackpoint>
            <Time>2018-09-14T14:05:19.000Z</Time>
            <Position>
              <LatitudeDegrees>37.73416358046233654022216796875</LatitudeDegrees>
              <LongitudeDegrees>-8.0901939980685710906982421875</LongitudeDegrees>
            </Position>
            <AltitudeMeters>202.1999969482421875</AltitudeMeters>
            <DistanceMeters>293477.26851704</DistanceMeters>
          </Trackpoint>
          <Trackpoint>
            <Time>2018-09-14T14:05:20.000Z</Time>
            <Position>
              <LatitudeDegrees>37.73408613167703151702880859375</LatitudeDegrees>
              <LongitudeDegrees>-8.09017916209995746612548828125</LongitudeDegrees>
            </Position>
            <AltitudeMeters>202.399993896484375</AltitudeMeters>
            <DistanceMeters>293485.98666784</DistanceMeters>
          </Trackpoint>
          <Trackpoint>
            <Time>2018-09-14T14:05:21.000Z</Time>
            <Position>
              <LatitudeDegrees>37.7340099401772022247314453125</LatitudeDegrees>
              <LongitudeDegrees>-8.09016323648393154144287109375</LongitudeDegrees>
            </Position>
            <AltitudeMeters>202.600006103515625</AltitudeMeters>
            <DistanceMeters>293494.58225307</DistanceMeters>
          </Trackpoint>
          <Trackpoint>
            <Time>2018-09-14T14:05:22.000Z</Time>
            <Position>
              <LatitudeDegrees>37.7339334972202777862548828125</LatitudeDegrees>
              <LongitudeDegrees>-8.09014798142015933990478515625</LongitudeDegrees>
            </Position>
            <AltitudeMeters>202.8000030517578125</AltitudeMeters>
            <DistanceMeters>293503.19567911</DistanceMeters>
          </Trackpoint>
          <Trackpoint>
            <Time>2018-09-14T14:05:23.000Z</Time>
            <Position>
              <LatitudeDegrees>37.73385663516819477081298828125</LatitudeDegrees>
              <LongitudeDegrees>-8.0901333130896091461181640625</LongitudeDegrees>
            </Position>
            <AltitudeMeters>202.8000030517578125</AltitudeMeters>
            <DistanceMeters>293511.8472861</DistanceMeters>
          </Trackpoint>
          <Trackpoint>
            <Time>2018-09-14T14:05:24.000Z</Time>
            <Position>
              <LatitudeDegrees>37.7337785996496677398681640625</LatitudeDegrees>
              <LongitudeDegrees>-8.09011898003518581390380859375</LongitudeDegrees>
            </Position>
            <AltitudeMeters>203</AltitudeMeters>
            <DistanceMeters>293520.62376331</DistanceMeters>
          </Trackpoint>
          <Trackpoint>
            <Time>2018-09-14T14:05:25.000Z</Time>
            <Position>
              <LatitudeDegrees>37.733699977397918701171875</LatitudeDegrees>
              <LongitudeDegrees>-8.09010389260947704315185546875</LongitudeDegrees>
            </Position>
            <AltitudeMeters>203.1999969482421875</AltitudeMeters>
            <DistanceMeters>293529.47503119</DistanceMeters>
          </Trackpoint>
          <Trackpoint>
            <Time>2018-09-14T14:05:26.000Z</Time>
            <Position>
              <LatitudeDegrees>37.73362143896520137786865234375</LatitudeDegrees>
              <LongitudeDegrees>-8.0900883860886096954345703125</LongitudeDegrees>
            </Position>
            <AltitudeMeters>203.399993896484375</AltitudeMeters>
            <DistanceMeters>293538.32272766</DistanceMeters>
          </Trackpoint>
          <Trackpoint>
            <Time>2018-09-14T14:05:27.000Z</Time>
            <Position>
              <LatitudeDegrees>37.73354239761829376220703125</LatitudeDegrees>
              <LongitudeDegrees>-8.09007287956774234771728515625</LongitudeDegrees>
            </Position>
            <AltitudeMeters>203.600006103515625</AltitudeMeters>
            <DistanceMeters>293547.22536664</DistanceMeters>
          </Trackpoint>
          <Trackpoint>
            <Time>2018-09-14T14:05:28.000Z</Time>
            <Position>
              <LatitudeDegrees>37.7334631048142910003662109375</LatitudeDegrees>
              <LongitudeDegrees>-8.090057373046875</LongitudeDegrees>
            </Position>
            <AltitudeMeters>203.8000030517578125</AltitudeMeters>
            <DistanceMeters>293556.15484451</DistanceMeters>
          </Trackpoint>
          <Trackpoint>
            <Time>2018-09-14T14:05:29.000Z</Time>
            <Position>
              <LatitudeDegrees>37.733383812010288238525390625</LatitudeDegrees>
              <LongitudeDegrees>-8.09004270471632480621337890625</LongitudeDegrees>
            </Position>
            <AltitudeMeters>203.8000030517578125</AltitudeMeters>
            <DistanceMeters>293565.07471018</DistanceMeters>
          </Trackpoint>
          <Trackpoint>
            <Time>2018-09-14T14:05:30.000Z</Time>
            <Position>
              <LatitudeDegrees>37.73330560885369777679443359375</LatitudeDegrees>
              <LongitudeDegrees>-8.0900283716619014739990234375</LongitudeDegrees>
            </Position>
            <AltitudeMeters>204</AltitudeMeters>
            <DistanceMeters>293573.869688</DistanceMeters>
          </Trackpoint>
          <Trackpoint>
            <Time>2018-09-14T14:05:31.000Z</Time>
            <Position>
              <LatitudeDegrees>37.7332287468016147613525390625</LatitudeDegrees>
              <LongitudeDegrees>-8.090013451874256134033203125</LongitudeDegrees>
            </Position>
            <AltitudeMeters>204.1999969482421875</AltitudeMeters>
            <DistanceMeters>293582.52494734</DistanceMeters>
          </Trackpoint>
          <Trackpoint>
            <Time>2018-09-14T14:05:32.000Z</Time>
            <Position>
              <LatitudeDegrees>37.7331529743969440460205078125</LatitudeDegrees>
              <LongitudeDegrees>-8.08999911881983280181884765625</LongitudeDegrees>
            </Position>
            <AltitudeMeters>204.1999969482421875</AltitudeMeters>
            <DistanceMeters>293591.05197352</DistanceMeters>
          </Trackpoint>
          <Trackpoint>
            <Time>2018-09-14T14:05:33.000Z</Time>
            <Position>
              <LatitudeDegrees>37.73307845927774906158447265625</LatitudeDegrees>
              <LongitudeDegrees>-8.089984953403472900390625</LongitudeDegrees>
            </Position>
            <AltitudeMeters>204.399993896484375</AltitudeMeters>
            <DistanceMeters>293599.43804741</DistanceMeters>
          </Trackpoint>
          <Trackpoint>
            <Time>2018-09-14T14:05:34.000Z</Time>
            <Position>
              <LatitudeDegrees>37.733005620539188385009765625</LatitudeDegrees>
              <LongitudeDegrees>-8.08996978215873241424560546875</LongitudeDegrees>
            </Position>
            <AltitudeMeters>204.600006103515625</AltitudeMeters>
            <DistanceMeters>293607.65442444</DistanceMeters>
          </Trackpoint>
          <Trackpoint>
            <Time>2018-09-14T14:05:35.000Z</Time>
            <Position>
              <LatitudeDegrees>37.7329343743622303009033203125</LatitudeDegrees>
              <LongitudeDegrees>-8.08995419181883335113525390625</LongitudeDegrees>
            </Position>
            <AltitudeMeters>204.8000030517578125</AltitudeMeters>
            <DistanceMeters>293615.70201466</DistanceMeters>
          </Trackpoint>
          <Trackpoint>
            <Time>2018-09-14T14:05:36.000Z</Time>
            <Position>
              <LatitudeDegrees>37.73286405019462108612060546875</LatitudeDegrees>
              <LongitudeDegrees>-8.0899385176599025726318359375</LongitudeDegrees>
            </Position>
            <AltitudeMeters>204.8000030517578125</AltitudeMeters>
            <DistanceMeters>293623.6502481</DistanceMeters>
          </Trackpoint>
          <Trackpoint>
            <Time>2018-09-14T14:05:37.000Z</Time>
            <Position>
              <LatitudeDegrees>37.7327952347695827484130859375</LatitudeDegrees>
              <LongitudeDegrees>-8.08992284350097179412841796875</LongitudeDegrees>
            </Position>
            <AltitudeMeters>205</AltitudeMeters>
            <DistanceMeters>293631.43316225</DistanceMeters>
          </Trackpoint>
          <Trackpoint>
            <Time>2018-09-14T14:05:38.000Z</Time>
            <Position>
              <LatitudeDegrees>37.73272759281098842620849609375</LatitudeDegrees>
              <LongitudeDegrees>-8.0899100191891193389892578125</LongitudeDegrees>
            </Position>
            <AltitudeMeters>205</AltitudeMeters>
            <DistanceMeters>293639.0459824</DistanceMeters>
          </Trackpoint>
          <Trackpoint>
            <Time>2018-09-14T14:05:39.000Z</Time>
            <Position>
              <LatitudeDegrees>37.7326611243188381195068359375</LatitudeDegrees>
              <LongitudeDegrees>-8.08989937417209148406982421875</LongitudeDegrees>
            </Position>
            <AltitudeMeters>205</AltitudeMeters>
            <DistanceMeters>293646.50300666</DistanceMeters>
          </Trackpoint>
          <Trackpoint>
            <Time>2018-09-14T14:05:40.000Z</Time>
            <Position>
              <LatitudeDegrees>37.73259582929313182830810546875</LatitudeDegrees>
              <LongitudeDegrees>-8.0898888967931270599365234375</LongitudeDegrees>
            </Position>
            <AltitudeMeters>204.8000030517578125</AltitudeMeters>
            <DistanceMeters>293653.82869736</DistanceMeters>
          </Trackpoint>
          <Trackpoint>
            <Time>2018-09-14T14:05:41.000Z</Time>
            <Position>
              <LatitudeDegrees>37.73253212682902812957763671875</LatitudeDegrees>
              <LongitudeDegrees>-8.0898771621286869049072265625</LongitudeDegrees>
            </Position>
            <AltitudeMeters>204.600006103515625</AltitudeMeters>
            <DistanceMeters>293660.99424093</DistanceMeters>
          </Trackpoint>
          <Trackpoint>
            <Time>2018-09-14T14:05:42.000Z</Time>
            <Position>
              <LatitudeDegrees>37.7324701845645904541015625</LatitudeDegrees>
              <LongitudeDegrees>-8.08986467309296131134033203125</LongitudeDegrees>
            </Position>
            <AltitudeMeters>204.8000030517578125</AltitudeMeters>
            <DistanceMeters>293667.97595653</DistanceMeters>
          </Trackpoint>
          <Trackpoint>
            <Time>2018-09-14T14:05:43.000Z</Time>
            <Position>
              <LatitudeDegrees>37.73240958340466022491455078125</LatitudeDegrees>
              <LongitudeDegrees>-8.089853189885616302490234375</LongitudeDegrees>
            </Position>
            <AltitudeMeters>204.8000030517578125</AltitudeMeters>
            <DistanceMeters>293674.79540619</DistanceMeters>
          </Trackpoint>
          <Trackpoint>
            <Time>2018-09-14T14:05:44.000Z</Time>
            <Position>
              <LatitudeDegrees>37.73235023953020572662353515625</LatitudeDegrees>
              <LongitudeDegrees>-8.0898422934114933013916015625</LongitudeDegrees>
            </Position>
            <AltitudeMeters>205</AltitudeMeters>
            <DistanceMeters>293681.46963776</DistanceMeters>
          </Trackpoint>
          <Trackpoint>
            <Time>2018-09-14T14:05:45.000Z</Time>
            <Position>
              <LatitudeDegrees>37.7322923205792903900146484375</LatitudeDegrees>
              <LongitudeDegrees>-8.08983198367059230804443359375</LongitudeDegrees>
            </Position>
            <AltitudeMeters>205</AltitudeMeters>
            <DistanceMeters>293687.9794879</DistanceMeters>
          </Trackpoint>
          <Trackpoint>
            <Time>2018-09-14T14:05:46.000Z</Time>
            <Position>
              <LatitudeDegrees>37.73223574273288249969482421875</LatitudeDegrees>
              <LongitudeDegrees>-8.08982159011065959930419921875</LongitudeDegrees>
            </Position>
            <AltitudeMeters>205</AltitudeMeters>
            <DistanceMeters>293694.342731</DistanceMeters>
          </Trackpoint>
          <Trackpoint>
            <Time>2018-09-14T14:05:47.000Z</Time>
            <Position>
              <LatitudeDegrees>37.73217958398163318634033203125</LatitudeDegrees>
              <LongitudeDegrees>-8.0898104421794414520263671875</LongitudeDegrees>
            </Position>
            <AltitudeMeters>205.1999969482421875</AltitudeMeters>
            <DistanceMeters>293700.66968357</DistanceMeters>
          </Trackpoint>
          <Trackpoint>
            <Time>2018-09-14T14:05:48.000Z</Time>
            <Position>
              <LatitudeDegrees>37.7321241796016693115234375</LatitudeDegrees>
              <LongitudeDegrees>-8.08979921042919158935546875</LongitudeDegrees>
            </Position>
            <AltitudeMeters>205.1999969482421875</AltitudeMeters>
            <DistanceMeters>293706.91403062</DistanceMeters>
          </Trackpoint>
          <Trackpoint>
            <Time>2018-09-14T14:05:49.000Z</Time>
            <Position>
              <LatitudeDegrees>37.732069194316864013671875</LatitudeDegrees>
              <LongitudeDegrees>-8.08978906832635402679443359375</LongitudeDegrees>
            </Position>
            <AltitudeMeters>205.1999969482421875</AltitudeMeters>
            <DistanceMeters>293713.09880255</DistanceMeters>
          </Trackpoint>
          <Trackpoint>
            <Time>2018-09-14T14:05:50.000Z</Time>
            <Position>
              <LatitudeDegrees>37.73201378993690013885498046875</LatitudeDegrees>
              <LongitudeDegrees>-8.08977833949029445648193359375</LongitudeDegrees>
            </Position>
            <AltitudeMeters>205.399993896484375</AltitudeMeters>
            <DistanceMeters>293719.33808613</DistanceMeters>
          </Trackpoint>
          <Trackpoint>
            <Time>2018-09-14T14:05:51.000Z</Time>
            <Position>
              <LatitudeDegrees>37.7319587208330631256103515625</LatitudeDegrees>
              <LongitudeDegrees>-8.0897671915590763092041015625</LongitudeDegrees>
            </Position>
            <AltitudeMeters>205.600006103515625</AltitudeMeters>
            <DistanceMeters>293725.54472017</DistanceMeters>
          </Trackpoint>
          <Trackpoint>
            <Time>2018-09-14T14:05:52.000Z</Time>
            <Position>
              <LatitudeDegrees>37.73190348409116268157958984375</LatitudeDegrees>
              <LongitudeDegrees>-8.08975721709430217742919921875</LongitudeDegrees>
            </Position>
            <AltitudeMeters>205.600006103515625</AltitudeMeters>
            <DistanceMeters>293731.75426334</DistanceMeters>
          </Trackpoint>
          <Trackpoint>
            <Time>2018-09-14T14:05:53.000Z</Time>
            <Position>
              <LatitudeDegrees>37.73184799589216709136962890625</LatitudeDegrees>
              <LongitudeDegrees>-8.089747913181781768798828125</LongitudeDegrees>
            </Position>
            <AltitudeMeters>205.8000030517578125</AltitudeMeters>
            <DistanceMeters>293737.9841324</DistanceMeters>
          </Trackpoint>
          <Trackpoint>
            <Time>2018-09-14T14:05:54.000Z</Time>
            <Position>
              <LatitudeDegrees>37.73179150186479091644287109375</LatitudeDegrees>
              <LongitudeDegrees>-8.08973751962184906005859375</LongitudeDegrees>
            </Position>
            <AltitudeMeters>206</AltitudeMeters>
            <DistanceMeters>293744.33743404</DistanceMeters>
          </Trackpoint>
          <Trackpoint>
            <Time>2018-09-14T14:05:55.000Z</Time>
            <Position>
              <LatitudeDegrees>37.7317334152758121490478515625</LatitudeDegrees>
              <LongitudeDegrees>-8.08972637169063091278076171875</LongitudeDegrees>
            </Position>
            <AltitudeMeters>206.1999969482421875</AltitudeMeters>
            <DistanceMeters>293750.87565872</DistanceMeters>
          </Trackpoint>
          <Trackpoint>
            <Time>2018-09-14T14:05:56.000Z</Time>
            <Position>
              <LatitudeDegrees>37.73167348466813564300537109375</LatitudeDegrees>
              <LongitudeDegrees>-8.08971413411200046539306640625</LongitudeDegrees>
            </Position>
            <AltitudeMeters>206.1999969482421875</AltitudeMeters>
            <DistanceMeters>293757.63258601</DistanceMeters>
          </Trackpoint>
          <Trackpoint>
            <Time>2018-09-14T14:05:57.000Z</Time>
            <Position>
              <LatitudeDegrees>37.7316118776798248291015625</LatitudeDegrees>
              <LongitudeDegrees>-8.08970273472368717193603515625</LongitudeDegrees>
            </Position>
            <AltitudeMeters>206</AltitudeMeters>
            <DistanceMeters>293764.56237292</DistanceMeters>
          </Trackpoint>
          <Trackpoint>
            <Time>2018-09-14T14:05:58.000Z</Time>
            <Position>
              <LatitudeDegrees>37.73154817521572113037109375</LatitudeDegrees>
              <LongitudeDegrees>-8.0896912515163421630859375</LongitudeDegrees>
            </Position>
            <AltitudeMeters>205.8000030517578125</AltitudeMeters>
            <DistanceMeters>293771.72413487</DistanceMeters>
          </Trackpoint>
          <Trackpoint>
            <Time>2018-09-14T14:05:59.000Z</Time>
            <Position>
              <LatitudeDegrees>37.73148338310420513153076171875</LatitudeDegrees>
              <LongitudeDegrees>-8.089678846299648284912109375</LongitudeDegrees>
            </Position>
            <AltitudeMeters>205.8000030517578125</AltitudeMeters>
            <DistanceMeters>293779.01832505</DistanceMeters>
          </Trackpoint>
          <Trackpoint>
            <Time>2018-09-14T14:06:00.000Z</Time>
            <Position>
              <LatitudeDegrees>37.7314165793359279632568359375</LatitudeDegrees>
              <LongitudeDegrees>-8.08966618962585926055908203125</LongitudeDegrees>
            </Position>
            <AltitudeMeters>205.600006103515625</AltitudeMeters>
            <DistanceMeters>293786.53685406</DistanceMeters>
          </Trackpoint>
          <Trackpoint>
            <Time>2018-09-14T14:06:01.000Z</Time>
            <Position>
              <LatitudeDegrees>37.73134776391088962554931640625</LatitudeDegrees>
              <LongitudeDegrees>-8.08965361677110195159912109375</LongitudeDegrees>
            </Position>
            <AltitudeMeters>205.399993896484375</AltitudeMeters>
            <DistanceMeters>293794.27555337</DistanceMeters>
          </Trackpoint>
          <Trackpoint>
            <Time>2018-09-14T14:06:02.000Z</Time>
            <Position>
              <LatitudeDegrees>37.7312774397432804107666015625</LatitudeDegrees>
              <LongitudeDegrees>-8.08964020572602748870849609375</LongitudeDegrees>
            </Position>
            <AltitudeMeters>205.399993896484375</AltitudeMeters>
            <DistanceMeters>293802.19077101</DistanceMeters>
          </Trackpoint>
          <Trackpoint>
            <Time>2018-09-14T14:06:03.000Z</Time>
            <Position>
              <LatitudeDegrees>37.73120577447116374969482421875</LatitudeDegrees>
              <LongitudeDegrees>-8.08962620794773101806640625</LongitudeDegrees>
            </Position>
            <AltitudeMeters>205.600006103515625</AltitudeMeters>
            <DistanceMeters>293810.26189061</DistanceMeters>
          </Trackpoint>
          <Trackpoint>
            <Time>2018-09-14T14:06:04.000Z</Time>
            <Position>
              <LatitudeDegrees>37.73113243281841278076171875</LatitudeDegrees>
              <LongitudeDegrees>-8.08961279690265655517578125</LongitudeDegrees>
            </Position>
            <AltitudeMeters>205.8000030517578125</AltitudeMeters>
            <DistanceMeters>293818.51007804</DistanceMeters>
          </Trackpoint>
          <Trackpoint>
            <Time>2018-09-14T14:06:05.000Z</Time>
            <Position>
              <LatitudeDegrees>37.73105842061340808868408203125</LatitudeDegrees>
              <LongitudeDegrees>-8.08959846384823322296142578125</LongitudeDegrees>
            </Position>
            <AltitudeMeters>206</AltitudeMeters>
            <DistanceMeters>293826.84322198</DistanceMeters>
          </Trackpoint>
          <Trackpoint>
            <Time>2018-09-14T14:06:06.000Z</Time>
            <Position>
              <LatitudeDegrees>37.7309837378561496734619140625</LatitudeDegrees>
              <LongitudeDegrees>-8.08958463370800018310546875</LongitudeDegrees>
            </Position>
            <AltitudeMeters>206.1999969482421875</AltitudeMeters>
            <DistanceMeters>293835.24382001</DistanceMeters>
          </Trackpoint>
          <Trackpoint>
            <Time>2018-09-14T14:06:07.000Z</Time>
            <Position>
              <LatitudeDegrees>37.73090871982276439666748046875</LatitudeDegrees>
              <LongitudeDegrees>-8.0895703844726085662841796875</LongitudeDegrees>
            </Position>
            <AltitudeMeters>206.1999969482421875</AltitudeMeters>
            <DistanceMeters>293843.6878406</DistanceMeters>
          </Trackpoint>
          <Trackpoint>
            <Time>2018-09-14T14:06:08.000Z</Time>
            <Position>
              <LatitudeDegrees>37.73083210922777652740478515625</LatitudeDegrees>
              <LongitudeDegrees>-8.089555464684963226318359375</LongitudeDegrees>
            </Position>
            <AltitudeMeters>206.600006103515625</AltitudeMeters>
            <DistanceMeters>293852.31488471</DistanceMeters>
          </Trackpoint>
          <Trackpoint>
            <Time>2018-09-14T14:06:09.000Z</Time>
            <Position>
              <LatitudeDegrees>37.73075415752828121185302734375</LatitudeDegrees>
              <LongitudeDegrees>-8.08954096399247646331787109375</LongitudeDegrees>
            </Position>
            <AltitudeMeters>207</AltitudeMeters>
            <DistanceMeters>293861.08415668</DistanceMeters>
          </Trackpoint>
          <Trackpoint>
            <Time>2018-09-14T14:06:10.000Z</Time>
            <Position>
              <LatitudeDegrees>37.73067553527653217315673828125</LatitudeDegrees>
              <LongitudeDegrees>-8.0895261280238628387451171875</LongitudeDegrees>
            </Position>
            <AltitudeMeters>207.399993896484375</AltitudeMeters>
            <DistanceMeters>293869.93236344</DistanceMeters>
          </Trackpoint>
          <Trackpoint>
            <Time>2018-09-14T14:06:11.000Z</Time>
            <Position>
              <LatitudeDegrees>37.73059674538671970367431640625</LatitudeDegrees>
              <LongitudeDegrees>-8.08951179496943950653076171875</LongitudeDegrees>
            </Position>
            <AltitudeMeters>207.8000030517578125</AltitudeMeters>
            <DistanceMeters>293878.79178918</DistanceMeters>
          </Trackpoint>
          <Trackpoint>
            <Time>2018-09-14T14:06:12.000Z</Time>
            <Position>
              <LatitudeDegrees>37.73051829077303409576416015625</LatitudeDegrees>
              <LongitudeDegrees>-8.08949788101017475128173828125</LongitudeDegrees>
            </Position>
            <AltitudeMeters>207.8000030517578125</AltitudeMeters>
            <DistanceMeters>293887.60932614</DistanceMeters>
          </Trackpoint>
          <Trackpoint>
            <Time>2018-09-14T14:06:13.000Z</Time>
            <Position>
              <LatitudeDegrees>37.730440087616443634033203125</LatitudeDegrees>
              <LongitudeDegrees>-8.08948338031768798828125</LongitudeDegrees>
            </Position>
            <AltitudeMeters>207.8000030517578125</AltitudeMeters>
            <DistanceMeters>293896.40635718</DistanceMeters>
          </Trackpoint>
          <Trackpoint>
            <Time>2018-09-14T14:06:14.000Z</Time>
            <Position>
              <LatitudeDegrees>37.73036272265017032623291015625</LatitudeDegrees>
              <LongitudeDegrees>-8.08946854434907436370849609375</LongitudeDegrees>
            </Position>
            <AltitudeMeters>207.8000030517578125</AltitudeMeters>
            <DistanceMeters>293905.11569942</DistanceMeters>
          </Trackpoint>
          <Trackpoint>
            <Time>2018-09-14T14:06:15.000Z</Time>
            <Position>
              <LatitudeDegrees>37.73028627969324588775634765625</LatitudeDegrees>
              <LongitudeDegrees>-8.0894533731043338775634765625</LongitudeDegrees>
            </Position>
            <AltitudeMeters>207.8000030517578125</AltitudeMeters>
            <DistanceMeters>293913.72807702</DistanceMeters>
          </Trackpoint>
          <Trackpoint>
            <Time>2018-09-14T14:06:16.000Z</Time>
            <Position>
              <LatitudeDegrees>37.73021050728857517242431640625</LatitudeDegrees>
              <LongitudeDegrees>-8.0894382856786251068115234375</LongitudeDegrees>
            </Position>
            <AltitudeMeters>207.8000030517578125</AltitudeMeters>
            <DistanceMeters>293922.26568658</DistanceMeters>
          </Trackpoint>
          <Trackpoint>
            <Time>2018-09-14T14:06:17.000Z</Time>
            <Position>
              <LatitudeDegrees>37.73013507016003131866455078125</LatitudeDegrees>
              <LongitudeDegrees>-8.0894235335290431976318359375</LongitudeDegrees>
            </Position>
            <AltitudeMeters>207.8000030517578125</AltitudeMeters>
            <DistanceMeters>293930.76194641</DistanceMeters>
          </Trackpoint>
          <Trackpoint>
            <Time>2018-09-14T14:06:18.000Z</Time>
            <Position>
              <LatitudeDegrees>37.73006021976470947265625</LatitudeDegrees>
              <LongitudeDegrees>-8.089409284293651580810546875</LongitudeDegrees>
            </Position>
            <AltitudeMeters>207.8000030517578125</AltitudeMeters>
            <DistanceMeters>293939.1877675</DistanceMeters>
          </Trackpoint>
          <Trackpoint>
            <Time>2018-09-14T14:06:19.000Z</Time>
            <Position>
              <LatitudeDegrees>37.7299869619309902191162109375</LatitudeDegrees>
              <LongitudeDegrees>-8.08939562179148197174072265625</LongitudeDegrees>
            </Position>
            <AltitudeMeters>208</AltitudeMeters>
            <DistanceMeters>293947.42993136</DistanceMeters>
          </Trackpoint>
          <Trackpoint>
            <Time>2018-09-14T14:06:20.000Z</Time>
            <Position>
              <LatitudeDegrees>37.72991378791630268096923828125</LatitudeDegrees>
              <LongitudeDegrees>-8.089382462203502655029296875</LongitudeDegrees>
            </Position>
            <AltitudeMeters>208.1999969482421875</AltitudeMeters>
            <DistanceMeters>293955.65674258</DistanceMeters>
          </Trackpoint>
          <Trackpoint>
            <Time>2018-09-14T14:06:21.000Z</Time>
            <Position>
              <LatitudeDegrees>37.7298397757112979888916015625</LatitudeDegrees>
              <LongitudeDegrees>-8.089369051158428192138671875</LongitudeDegrees>
            </Position>
            <AltitudeMeters>208.1999969482421875</AltitudeMeters>
            <DistanceMeters>293963.97904313</DistanceMeters>
          </Trackpoint>
          <Trackpoint>
            <Time>2018-09-14T14:06:22.000Z</Time>
            <Position>
              <LatitudeDegrees>37.72976593114435672760009765625</LatitudeDegrees>
              <LongitudeDegrees>-8.0893558077514171600341796875</LongitudeDegrees>
            </Position>
            <AltitudeMeters>208.399993896484375</AltitudeMeters>
            <DistanceMeters>293972.2807022</DistanceMeters>
          </Trackpoint>
          <Trackpoint>
            <Time>2018-09-14T14:06:23.000Z</Time>
            <Position>
              <LatitudeDegrees>37.72969267331063747406005859375</LatitudeDegrees>
              <LongitudeDegrees>-8.08934189379215240478515625</LongitudeDegrees>
            </Position>
            <AltitudeMeters>208.399993896484375</AltitudeMeters>
            <DistanceMeters>293980.52615219</DistanceMeters>
          </Trackpoint>
          <Trackpoint>
            <Time>2018-09-14T14:06:24.000Z</Time>
            <Position>
              <LatitudeDegrees>37.72962008602917194366455078125</LatitudeDegrees>
              <LongitudeDegrees>-8.08932739309966564178466796875</LongitudeDegrees>
            </Position>
            <AltitudeMeters>208.399993896484375</AltitudeMeters>
            <DistanceMeters>293988.70507671</DistanceMeters>
          </Trackpoint>
          <Trackpoint>
            <Time>2018-09-14T14:06:25.000Z</Time>
            <Position>
              <LatitudeDegrees>37.72954800166189670562744140625</LatitudeDegrees>
              <LongitudeDegrees>-8.0893132276833057403564453125</LongitudeDegrees>
            </Position>
            <AltitudeMeters>208.600006103515625</AltitudeMeters>
            <DistanceMeters>293996.82416275</DistanceMeters>
          </Trackpoint>
          <Trackpoint>
            <Time>2018-09-14T14:06:26.000Z</Time>
            <Position>
              <LatitudeDegrees>37.72947591729462146759033203125</LatitudeDegrees>
              <LongitudeDegrees>-8.089299313724040985107421875</LongitudeDegrees>
            </Position>
            <AltitudeMeters>208.600006103515625</AltitudeMeters>
            <DistanceMeters>294004.93991149</DistanceMeters>
          </Trackpoint>
          <Trackpoint>
            <Time>2018-09-14T14:06:27.000Z</Time>
            <Position>
              <LatitudeDegrees>37.729404754936695098876953125</LatitudeDegrees>
              <LongitudeDegrees>-8.08928581885993480682373046875</LongitudeDegrees>
            </Position>
            <AltitudeMeters>208.600006103515625</AltitudeMeters>
            <DistanceMeters>294012.94813244</DistanceMeters>
          </Trackpoint>
          <Trackpoint>
            <Time>2018-09-14T14:06:28.000Z</Time>
            <Position>
              <LatitudeDegrees>37.7293346822261810302734375</LatitudeDegrees>
              <LongitudeDegrees>-8.089273162186145782470703125</LongitudeDegrees>
            </Position>
            <AltitudeMeters>208.8000030517578125</AltitudeMeters>
            <DistanceMeters>294020.82618521</DistanceMeters>
          </Trackpoint>
          <Trackpoint>
            <Time>2018-09-14T14:06:29.000Z</Time>
            <Position>
              <LatitudeDegrees>37.72926603443920612335205078125</LatitudeDegrees>
              <LongitudeDegrees>-8.089260756969451904296875</LongitudeDegrees>
            </Position>
            <AltitudeMeters>208.8000030517578125</AltitudeMeters>
            <DistanceMeters>294028.54385223</DistanceMeters>
          </Trackpoint>
          <Trackpoint>
            <Time>2018-09-14T14:06:30.000Z</Time>
            <Position>
              <LatitudeDegrees>37.7291977219283580780029296875</LatitudeDegrees>
              <LongitudeDegrees>-8.08924843557178974151611328125</LongitudeDegrees>
            </Position>
            <AltitudeMeters>208.8000030517578125</AltitudeMeters>
            <DistanceMeters>294036.2239863</DistanceMeters>
          </Trackpoint>
          <Trackpoint>
            <Time>2018-09-14T14:06:31.000Z</Time>
            <Position>
              <LatitudeDegrees>37.72912924177944660186767578125</LatitudeDegrees>
              <LongitudeDegrees>-8.08923586271703243255615234375</LongitudeDegrees>
            </Position>
            <AltitudeMeters>208.600006103515625</AltitudeMeters>
            <DistanceMeters>294043.92642762</DistanceMeters>
          </Trackpoint>
          <Trackpoint>
            <Time>2018-09-14T14:06:32.000Z</Time>
            <Position>
              <LatitudeDegrees>37.72906034253537654876708984375</LatitudeDegrees>
              <LongitudeDegrees>-8.08922278694808483123779296875</LongitudeDegrees>
            </Position>
            <AltitudeMeters>208.399993896484375</AltitudeMeters>
            <DistanceMeters>294051.6808637</DistanceMeters>
          </Trackpoint>
          <Trackpoint>
            <Time>2018-09-14T14:06:33.000Z</Time>
            <Position>
              <LatitudeDegrees>37.72899110801517963409423828125</LatitudeDegrees>
              <LongitudeDegrees>-8.08920912444591522216796875</LongitudeDegrees>
            </Position>
            <AltitudeMeters>208</AltitudeMeters>
            <DistanceMeters>294059.47942542</DistanceMeters>
          </Trackpoint>
          <Trackpoint>
            <Time>2018-09-14T14:06:34.000Z</Time>
            <Position>
              <LatitudeDegrees>37.728921286761760711669921875</LatitudeDegrees>
              <LongitudeDegrees>-8.08919529430568218231201171875</LongitudeDegrees>
            </Position>
            <AltitudeMeters>207.8000030517578125</AltitudeMeters>
            <DistanceMeters>294067.34543354</DistanceMeters>
          </Trackpoint>
          <Trackpoint>
            <Time>2018-09-14T14:06:35.000Z</Time>
            <Position>
              <LatitudeDegrees>37.728851549327373504638671875</LatitudeDegrees>
              <LongitudeDegrees>-8.0891814641654491424560546875</LongitudeDegrees>
            </Position>
            <AltitudeMeters>207.600006103515625</AltitudeMeters>
            <DistanceMeters>294075.2022524</DistanceMeters>
          </Trackpoint>
          <Trackpoint>
            <Time>2018-09-14T14:06:36.000Z</Time>
            <Position>
              <LatitudeDegrees>37.72878156043589115142822265625</LatitudeDegrees>
              <LongitudeDegrees>-8.08916763402521610260009765625</LongitudeDegrees>
            </Position>
            <AltitudeMeters>207.1999969482421875</AltitudeMeters>
            <DistanceMeters>294083.08660692</DistanceMeters>
          </Trackpoint>
          <Trackpoint>
            <Time>2018-09-14T14:06:37.000Z</Time>
            <Position>
              <LatitudeDegrees>37.728711403906345367431640625</LatitudeDegrees>
              <LongitudeDegrees>-8.0891546420753002166748046875</LongitudeDegrees>
            </Position>
            <AltitudeMeters>207</AltitudeMeters>
            <DistanceMeters>294090.97783035</DistanceMeters>
          </Trackpoint>
          <Trackpoint>
            <Time>2018-09-14T14:06:38.000Z</Time>
            <Position>
              <LatitudeDegrees>37.7286408282816410064697265625</LatitudeDegrees>
              <LongitudeDegrees>-8.0891412310302257537841796875</LongitudeDegrees>
            </Position>
            <AltitudeMeters>206.8000030517578125</AltitudeMeters>
            <DistanceMeters>294098.92151805</DistanceMeters>
          </Trackpoint>
          <Trackpoint>
            <Time>2018-09-14T14:06:39.000Z</Time>
            <Position>
              <LatitudeDegrees>37.72856882773339748382568359375</LatitudeDegrees>
              <LongitudeDegrees>-8.0891268141567707061767578125</LongitudeDegrees>
            </Position>
            <AltitudeMeters>206.399993896484375</AltitudeMeters>
            <DistanceMeters>294107.03504116</DistanceMeters>
          </Trackpoint>
          <Trackpoint>
            <Time>2018-09-14T14:06:40.000Z</Time>
            <Position>
              <LatitudeDegrees>37.7284951508045196533203125</LatitudeDegrees>
              <LongitudeDegrees>-8.08911281637847423553466796875</LongitudeDegrees>
            </Position>
            <AltitudeMeters>206.1999969482421875</AltitudeMeters>
            <DistanceMeters>294115.32744926</DistanceMeters>
          </Trackpoint>
          <Trackpoint>
            <Time>2018-09-14T14:06:41.000Z</Time>
            <Position>
              <LatitudeDegrees>37.72841979749500751495361328125</LatitudeDegrees>
              <LongitudeDegrees>-8.08909890241920948028564453125</LongitudeDegrees>
            </Position>
            <AltitudeMeters>205.8000030517578125</AltitudeMeters>
            <DistanceMeters>294123.80349127</DistanceMeters>
          </Trackpoint>
          <Trackpoint>
            <Time>2018-09-14T14:06:42.000Z</Time>
            <Position>
              <LatitudeDegrees>37.7283420972526073455810546875</LatitudeDegrees>
              <LongitudeDegrees>-8.08908415026962757110595703125</LongitudeDegrees>
            </Position>
            <AltitudeMeters>205.1999969482421875</AltitudeMeters>
            <DistanceMeters>294132.54904714</DistanceMeters>
          </Trackpoint>
          <Trackpoint>
            <Time>2018-09-14T14:06:43.000Z</Time>
            <Position>
              <LatitudeDegrees>37.7282623015344142913818359375</LatitudeDegrees>
              <LongitudeDegrees>-8.08906855992972850799560546875</LongitudeDegrees>
            </Position>
            <AltitudeMeters>204.600006103515625</AltitudeMeters>
            <DistanceMeters>294141.53547989</DistanceMeters>
          </Trackpoint>
          <Trackpoint>
            <Time>2018-09-14T14:06:44.000Z</Time>
            <Position>
              <LatitudeDegrees>37.7281808294355869293212890625</LatitudeDegrees>
              <LongitudeDegrees>-8.08905296958982944488525390625</LongitudeDegrees>
            </Position>
            <AltitudeMeters>203.8000030517578125</AltitudeMeters>
            <DistanceMeters>294150.70641943</DistanceMeters>
          </Trackpoint>
          <Trackpoint>
            <Time>2018-09-14T14:06:45.000Z</Time>
            <Position>
              <LatitudeDegrees>37.728097848594188690185546875</LatitudeDegrees>
              <LongitudeDegrees>-8.0890369601547718048095703125</LongitudeDegrees>
            </Position>
            <AltitudeMeters>203.1999969482421875</AltitudeMeters>
            <DistanceMeters>294160.04904855</DistanceMeters>
          </Trackpoint>
          <Trackpoint>
            <Time>2018-09-14T14:06:46.000Z</Time>
            <Position>
              <LatitudeDegrees>37.72801327519118785858154296875</LatitudeDegrees>
              <LongitudeDegrees>-8.08902095071971416473388671875</LongitudeDegrees>
            </Position>
            <AltitudeMeters>202.399993896484375</AltitudeMeters>
            <DistanceMeters>294169.56691212</DistanceMeters>
          </Trackpoint>
          <Trackpoint>
            <Time>2018-09-14T14:06:47.000Z</Time>
            <Position>
              <LatitudeDegrees>37.7279263548552989959716796875</LatitudeDegrees>
              <LongitudeDegrees>-8.089005611836910247802734375</LongitudeDegrees>
            </Position>
            <AltitudeMeters>201.600006103515625</AltitudeMeters>
            <DistanceMeters>294179.33527011</DistanceMeters>
          </Trackpoint>
          <Trackpoint>
            <Time>2018-09-14T14:06:48.000Z</Time>
            <Position>
              <LatitudeDegrees>37.727837674319744110107421875</LatitudeDegrees>
              <LongitudeDegrees>-8.08899010531604290008544921875</LongitudeDegrees>
            </Position>
            <AltitudeMeters>200.8000030517578125</AltitudeMeters>
            <DistanceMeters>294189.29903749</DistanceMeters>
          </Trackpoint>
          <Trackpoint>
            <Time>2018-09-14T14:06:49.000Z</Time>
            <Position>
              <LatitudeDegrees>37.72774689830839633941650390625</LatitudeDegrees>
              <LongitudeDegrees>-8.08897334150969982147216796875</LongitudeDegrees>
            </Position>
            <AltitudeMeters>200.600006103515625</AltitudeMeters>
            <DistanceMeters>294199.50899354</DistanceMeters>
          </Trackpoint>
          <Trackpoint>
            <Time>2018-09-14T14:06:50.000Z</Time>
            <Position>
              <LatitudeDegrees>37.72765452973544597625732421875</LatitudeDegrees>
              <LongitudeDegrees>-8.08895641006529331207275390625</LongitudeDegrees>
            </Position>
            <AltitudeMeters>200.399993896484375</AltitudeMeters>
            <DistanceMeters>294209.89693912</DistanceMeters>
          </Trackpoint>
          <Trackpoint>
            <Time>2018-09-14T14:06:51.000Z</Time>
            <Position>
              <LatitudeDegrees>37.72756048478186130523681640625</LatitudeDegrees>
              <LongitudeDegrees>-8.088938891887664794921875</LongitudeDegrees>
            </Position>
            <AltitudeMeters>200.1999969482421875</AltitudeMeters>
            <DistanceMeters>294220.47695933</DistanceMeters>
          </Trackpoint>
          <Trackpoint>
            <Time>2018-09-14T14:06:52.000Z</Time>
            <Position>
              <LatitudeDegrees>37.72746543399989604949951171875</LatitudeDegrees>
              <LongitudeDegrees>-8.08891944587230682373046875</LongitudeDegrees>
            </Position>
            <AltitudeMeters>200</AltitudeMeters>
            <DistanceMeters>294231.19435511</DistanceMeters>
          </Trackpoint>
          <Trackpoint>
            <Time>2018-09-14T14:06:53.000Z</Time>
            <Position>
              <LatitudeDegrees>37.72736954502761363983154296875</LatitudeDegrees>
              <LongitudeDegrees>-8.08889958076179027557373046875</LongitudeDegrees>
            </Position>
            <AltitudeMeters>200</AltitudeMeters>
            <DistanceMeters>294242.00904651</DistanceMeters>
          </Trackpoint>
          <Trackpoint>
            <Time>2018-09-14T14:06:54.000Z</Time>
            <Position>
              <LatitudeDegrees>37.727273404598236083984375</LatitudeDegrees>
              <LongitudeDegrees>-8.08888097293674945831298828125</LongitudeDegrees>
            </Position>
            <AltitudeMeters>199.8000030517578125</AltitudeMeters>
            <DistanceMeters>294252.83458724</DistanceMeters>
          </Trackpoint>
          <Trackpoint>
            <Time>2018-09-14T14:06:55.000Z</Time>
            <Position>
              <LatitudeDegrees>37.727177180349826812744140625</LatitudeDegrees>
              <LongitudeDegrees>-8.0888639576733112335205078125</LongitudeDegrees>
            </Position>
            <AltitudeMeters>199.600006103515625</AltitudeMeters>
            <DistanceMeters>294263.64844363</DistanceMeters>
          </Trackpoint>
          <Trackpoint>
            <Time>2018-09-14T14:06:56.000Z</Time>
            <Position>
              <LatitudeDegrees>37.72708204574882984161376953125</LatitudeDegrees>
              <LongitudeDegrees>-8.088846690952777862548828125</LongitudeDegrees>
            </Position>
            <AltitudeMeters>199.399993896484375</AltitudeMeters>
            <DistanceMeters>294274.34517671</DistanceMeters>
          </Trackpoint>
          <Trackpoint>
            <Time>2018-09-14T14:06:57.000Z</Time>
            <Position>
              <LatitudeDegrees>37.7269882522523403167724609375</LatitudeDegrees>
              <LongitudeDegrees>-8.08882892131805419921875</LongitudeDegrees>
            </Position>
            <AltitudeMeters>199.399993896484375</AltitudeMeters>
            <DistanceMeters>294284.90084406</DistanceMeters>
          </Trackpoint>
          <Trackpoint>
            <Time>2018-09-14T14:06:58.000Z</Time>
            <Position>
              <LatitudeDegrees>37.7268957160413265228271484375</LatitudeDegrees>
              <LongitudeDegrees>-8.0888114869594573974609375</LongitudeDegrees>
            </Position>
            <AltitudeMeters>199.399993896484375</AltitudeMeters>
            <DistanceMeters>294295.31396838</DistanceMeters>
          </Trackpoint>
          <Trackpoint>
            <Time>2018-09-14T14:06:59.000Z</Time>
            <Position>
              <LatitudeDegrees>37.72680477239191532135009765625</LatitudeDegrees>
              <LongitudeDegrees>-8.08879380114376544952392578125</LongitudeDegrees>
            </Position>
            <AltitudeMeters>199.399993896484375</AltitudeMeters>
            <DistanceMeters>294305.55527385</DistanceMeters>
          </Trackpoint>
          <Trackpoint>
            <Time>2018-09-14T14:07:00.000Z</Time>
            <Position>
              <LatitudeDegrees>37.72671558894217014312744140625</LatitudeDegrees>
              <LongitudeDegrees>-8.088776282966136932373046875</LongitudeDegrees>
            </Position>
            <AltitudeMeters>199.399993896484375</AltitudeMeters>
            <DistanceMeters>294315.60072577</DistanceMeters>
          </Trackpoint>
          <Trackpoint>
            <Time>2018-09-14T14:07:01.000Z</Time>
            <Position>
              <LatitudeDegrees>37.726627998054027557373046875</LatitudeDegrees>
              <LongitudeDegrees>-8.08876044116914272308349609375</LongitudeDegrees>
            </Position>
            <AltitudeMeters>199.399993896484375</AltitudeMeters>
            <DistanceMeters>294325.44872156</DistanceMeters>
          </Trackpoint>
          <Trackpoint>
            <Time>2018-09-14T14:07:02.000Z</Time>
            <Position>
              <LatitudeDegrees>37.72654225118458271026611328125</LatitudeDegrees>
              <LongitudeDegrees>-8.08874510228633880615234375</LongitudeDegrees>
            </Position>
            <AltitudeMeters>199.399993896484375</AltitudeMeters>
            <DistanceMeters>294335.08819699</DistanceMeters>
          </Trackpoint>
          <Trackpoint>
            <Time>2018-09-14T14:07:03.000Z</Time>
            <Position>
              <LatitudeDegrees>37.7264571748673915863037109375</LatitudeDegrees>
              <LongitudeDegrees>-8.08872942812740802764892578125</LongitudeDegrees>
            </Position>
            <AltitudeMeters>199.399993896484375</AltitudeMeters>
            <DistanceMeters>294344.65809957</DistanceMeters>
          </Trackpoint>
          <Trackpoint>
            <Time>2018-09-14T14:07:04.000Z</Time>
            <Position>
              <LatitudeDegrees>37.72637360729277133941650390625</LatitudeDegrees>
              <LongitudeDegrees>-8.0887134186923503875732421875</LongitudeDegrees>
            </Position>
            <AltitudeMeters>199.1999969482421875</AltitudeMeters>
            <DistanceMeters>294354.06526434</DistanceMeters>
          </Trackpoint>
          <Trackpoint>
            <Time>2018-09-14T14:07:05.000Z</Time>
            <Position>
              <LatitudeDegrees>37.72629146464169025421142578125</LatitudeDegrees>
              <LongitudeDegrees>-8.08869690634310245513916015625</LongitudeDegrees>
            </Position>
            <AltitudeMeters>199.1999969482421875</AltitudeMeters>
            <DistanceMeters>294363.32244672</DistanceMeters>
          </Trackpoint>
          <Trackpoint>
            <Time>2018-09-14T14:07:06.000Z</Time>
            <Position>
              <LatitudeDegrees>37.72620999254286289215087890625</LatitudeDegrees>
              <LongitudeDegrees>-8.08868114836513996124267578125</LongitudeDegrees>
            </Position>
            <AltitudeMeters>199</AltitudeMeters>
            <DistanceMeters>294372.4963397</DistanceMeters>
          </Trackpoint>
          <Trackpoint>
            <Time>2018-09-14T14:07:07.000Z</Time>
            <Position>
              <LatitudeDegrees>37.7261294424533843994140625</LatitudeDegrees>
              <LongitudeDegrees>-8.0886654742062091827392578125</LongitudeDegrees>
            </Position>
            <AltitudeMeters>198.8000030517578125</AltitudeMeters>
            <DistanceMeters>294381.56728544</DistanceMeters>
          </Trackpoint>
          <Trackpoint>
            <Time>2018-09-14T14:07:08.000Z</Time>
            <Position>
              <LatitudeDegrees>37.726049311459064483642578125</LatitudeDegrees>
              <LongitudeDegrees>-8.08865063823759555816650390625</LongitudeDegrees>
            </Position>
            <AltitudeMeters>198.8000030517578125</AltitudeMeters>
            <DistanceMeters>294390.58080848</DistanceMeters>
          </Trackpoint>
          <Trackpoint>
            <Time>2018-09-14T14:07:09.000Z</Time>
            <Position>
              <LatitudeDegrees>37.72597010247409343719482421875</LatitudeDegrees>
              <LongitudeDegrees>-8.08863655664026737213134765625</LongitudeDegrees>
            </Position>
            <AltitudeMeters>198.600006103515625</AltitudeMeters>
            <DistanceMeters>294399.48395462</DistanceMeters>
          </Trackpoint>
          <Trackpoint>
            <Time>2018-09-14T14:07:10.000Z</Time>
            <Position>
              <LatitudeDegrees>37.7258922345936298370361328125</LatitudeDegrees>
              <LongitudeDegrees>-8.08862172067165374755859375</LongitudeDegrees>
            </Position>
            <AltitudeMeters>198.399993896484375</AltitudeMeters>
            <DistanceMeters>294408.24910666</DistanceMeters>
          </Trackpoint>
          <Trackpoint>
            <Time>2018-09-14T14:07:11.000Z</Time>
            <Position>
              <LatitudeDegrees>37.725815288722515106201171875</LatitudeDegrees>
              <LongitudeDegrees>-8.0886068008840084075927734375</LongitudeDegrees>
            </Position>
            <AltitudeMeters>198.600006103515625</AltitudeMeters>
            <DistanceMeters>294416.91375066</DistanceMeters>
          </Trackpoint>
          <Trackpoint>
            <Time>2018-09-14T14:07:12.000Z</Time>
            <Position>
              <LatitudeDegrees>37.72573851048946380615234375</LatitudeDegrees>
              <LongitudeDegrees>-8.08859129436314105987548828125</LongitudeDegrees>
            </Position>
            <AltitudeMeters>198.8000030517578125</AltitudeMeters>
            <DistanceMeters>294425.56796662</DistanceMeters>
          </Trackpoint>
          <Trackpoint>
            <Time>2018-09-14T14:07:13.000Z</Time>
            <Position>
              <LatitudeDegrees>37.72566282190382480621337890625</LatitudeDegrees>
              <LongitudeDegrees>-8.08857553638517856597900390625</LongitudeDegrees>
            </Position>
            <AltitudeMeters>199.1999969482421875</AltitudeMeters>
            <DistanceMeters>294434.10557619</DistanceMeters>
          </Trackpoint>
          <Trackpoint>
            <Time>2018-09-14T14:07:14.000Z</Time>
            <Position>
              <LatitudeDegrees>37.72558788768947124481201171875</LatitudeDegrees>
              <LongitudeDegrees>-8.0885605327785015106201171875</LongitudeDegrees>
            </Position>
            <AltitudeMeters>199.600006103515625</AltitudeMeters>
            <DistanceMeters>294442.54959677</DistanceMeters>
          </Trackpoint>
          <Trackpoint>
            <Time>2018-09-14T14:07:15.000Z</Time>
            <Position>
              <LatitudeDegrees>37.725513875484466552734375</LatitudeDegrees>
              <LongitudeDegrees>-8.08854569680988788604736328125</LongitudeDegrees>
            </Position>
            <AltitudeMeters>200.1999969482421875</AltitudeMeters>
            <DistanceMeters>294450.89032269</DistanceMeters>
          </Trackpoint>
          <Trackpoint>
            <Time>2018-09-14T14:07:16.000Z</Time>
            <Position>
              <LatitudeDegrees>37.7254409529268741607666015625</LatitudeDegrees>
              <LongitudeDegrees>-8.08853044174611568450927734375</LongitudeDegrees>
            </Position>
            <AltitudeMeters>200.600006103515625</AltitudeMeters>
            <DistanceMeters>294459.11768272</DistanceMeters>
          </Trackpoint>
          <Trackpoint>
            <Time>2018-09-14T14:07:17.000Z</Time>
            <Position>
              <LatitudeDegrees>37.725368700921535491943359375</LatitudeDegrees>
              <LongitudeDegrees>-8.088516108691692352294921875</LongitudeDegrees>
            </Position>
            <AltitudeMeters>201</AltitudeMeters>
            <DistanceMeters>294467.25787319</DistanceMeters>
          </Trackpoint>
          <Trackpoint>
            <Time>2018-09-14T14:07:18.000Z</Time>
            <Position>
              <LatitudeDegrees>37.72529728710651397705078125</LatitudeDegrees>
              <LongitudeDegrees>-8.08850370347499847412109375</LongitudeDegrees>
            </Position>
            <AltitudeMeters>201.399993896484375</AltitudeMeters>
            <DistanceMeters>294475.28073957</DistanceMeters>
          </Trackpoint>
          <Trackpoint>
            <Time>2018-09-14T14:07:19.000Z</Time>
            <Position>
              <LatitudeDegrees>37.72522713057696819305419921875</LatitudeDegrees>
              <LongitudeDegrees>-8.08849104680120944976806640625</LongitudeDegrees>
            </Position>
            <AltitudeMeters>201.8000030517578125</AltitudeMeters>
            <DistanceMeters>294483.16852929</DistanceMeters>
          </Trackpoint>
          <Trackpoint>
            <Time>2018-09-14T14:07:20.000Z</Time>
            <Position>
              <LatitudeDegrees>37.72515789605677127838134765625</LatitudeDegrees>
              <LongitudeDegrees>-8.08847830630838871002197265625</LongitudeDegrees>
            </Position>
            <AltitudeMeters>202.1999969482421875</AltitudeMeters>
            <DistanceMeters>294490.95608304</DistanceMeters>
          </Trackpoint>
          <Trackpoint>
            <Time>2018-09-14T14:07:21.000Z</Time>
            <Position>
              <LatitudeDegrees>37.72508983500301837921142578125</LatitudeDegrees>
              <LongitudeDegrees>-8.0884676612913608551025390625</LongitudeDegrees>
            </Position>
            <AltitudeMeters>202.600006103515625</AltitudeMeters>
            <DistanceMeters>294498.58785827</DistanceMeters>
          </Trackpoint>
          <Trackpoint>
            <Time>2018-09-14T14:07:22.000Z</Time>
            <Position>
              <LatitudeDegrees>37.72502395324409008026123046875</LatitudeDegrees>
              <LongitudeDegrees>-8.08845701627433300018310546875</LongitudeDegrees>
            </Position>
            <AltitudeMeters>203</AltitudeMeters>
            <DistanceMeters>294505.97981285</DistanceMeters>
          </Trackpoint>
          <Trackpoint>
            <Time>2018-09-14T14:07:23.000Z</Time>
            <Position>
              <LatitudeDegrees>37.724959664046764373779296875</LatitudeDegrees>
              <LongitudeDegrees>-8.08844511397182941436767578125</LongitudeDegrees>
            </Position>
            <AltitudeMeters>203.399993896484375</AltitudeMeters>
            <DistanceMeters>294513.21183904</DistanceMeters>
          </Trackpoint>
          <Trackpoint>
            <Time>2018-09-14T14:07:24.000Z</Time>
            <Position>
              <LatitudeDegrees>37.72489721886813640594482421875</LatitudeDegrees>
              <LongitudeDegrees>-8.088432960212230682373046875</LongitudeDegrees>
            </Position>
            <AltitudeMeters>203.600006103515625</AltitudeMeters>
            <DistanceMeters>294520.2438159</DistanceMeters>
          </Trackpoint>
          <Trackpoint>
            <Time>2018-09-14T14:07:25.000Z</Time>
            <Position>
              <LatitudeDegrees>37.72483686916530132293701171875</LatitudeDegrees>
              <LongitudeDegrees>-8.08842080645263195037841796875</LongitudeDegrees>
            </Position>
            <AltitudeMeters>204</AltitudeMeters>
            <DistanceMeters>294527.04602963</DistanceMeters>
          </Trackpoint>
          <Trackpoint>
            <Time>2018-09-14T14:07:26.000Z</Time>
            <Position>
              <LatitudeDegrees>37.7247777767479419708251953125</LatitudeDegrees>
              <LongitudeDegrees>-8.088408820331096649169921875</LongitudeDegrees>
            </Position>
            <AltitudeMeters>204.1999969482421875</AltitudeMeters>
            <DistanceMeters>294533.70739553</DistanceMeters>
          </Trackpoint>
          <Trackpoint>
            <Time>2018-09-14T14:07:27.000Z</Time>
            <Position>
              <LatitudeDegrees>37.7247194387018680572509765625</LatitudeDegrees>
              <LongitudeDegrees>-8.08839700184762477874755859375</LongitudeDegrees>
            </Position>
            <AltitudeMeters>204.399993896484375</AltitudeMeters>
            <DistanceMeters>294540.28349134</DistanceMeters>
          </Trackpoint>
          <Trackpoint>
            <Time>2018-09-14T14:07:28.000Z</Time>
            <Position>
              <LatitudeDegrees>37.72466202266514301300048828125</LatitudeDegrees>
              <LongitudeDegrees>-8.088386356830596923828125</LongitudeDegrees>
            </Position>
            <AltitudeMeters>204.600006103515625</AltitudeMeters>
            <DistanceMeters>294546.74181335</DistanceMeters>
          </Trackpoint>
          <Trackpoint>
            <Time>2018-09-14T14:07:30.000Z</Time>
            <Position>
              <LatitudeDegrees>37.72454895079135894775390625</LatitudeDegrees>
              <LongitudeDegrees>-8.08836582116782665252685546875</LongitudeDegrees>
            </Position>
            <AltitudeMeters>205.1999969482421875</AltitudeMeters>
            <DistanceMeters>294559.45587636</DistanceMeters>
          </Trackpoint>
          <Trackpoint>
            <Time>2018-09-14T14:07:31.000Z</Time>
            <Position>
              <LatitudeDegrees>37.72449337877333164215087890625</LatitudeDegrees>
              <LongitudeDegrees>-8.0883546732366085052490234375</LongitudeDegrees>
            </Position>
            <AltitudeMeters>205.399993896484375</AltitudeMeters>
            <DistanceMeters>294565.71755281</DistanceMeters>
          </Trackpoint>
          <Trackpoint>
            <Time>2018-09-14T14:07:32.000Z</Time>
            <Position>
              <LatitudeDegrees>37.7244388125836849212646484375</LatitudeDegrees>
              <LongitudeDegrees>-8.08834302239120006561279296875</LongitudeDegrees>
            </Position>
            <AltitudeMeters>205.600006103515625</AltitudeMeters>
            <DistanceMeters>294571.87598776</DistanceMeters>
          </Trackpoint>
          <Trackpoint>
            <Time>2018-09-14T14:07:33.000Z</Time>
            <Position>
              <LatitudeDegrees>37.7243848331272602081298828125</LatitudeDegrees>
              <LongitudeDegrees>-8.08833070099353790283203125</LongitudeDegrees>
            </Position>
            <AltitudeMeters>205.8000030517578125</AltitudeMeters>
            <DistanceMeters>294577.98140794</DistanceMeters>
          </Trackpoint>
          <Trackpoint>
            <Time>2018-09-14T14:07:34.000Z</Time>
            <Position>
              <LatitudeDegrees>37.72433144040405750274658203125</LatitudeDegrees>
              <LongitudeDegrees>-8.08831955306231975555419921875</LongitudeDegrees>
            </Position>
            <AltitudeMeters>206.1999969482421875</AltitudeMeters>
            <DistanceMeters>294584.00418281</DistanceMeters>
          </Trackpoint>
          <Trackpoint>
            <Time>2018-09-14T14:07:35.000Z</Time>
            <Position>
              <LatitudeDegrees>37.7242778800427913665771484375</LatitudeDegrees>
              <LongitudeDegrees>-8.08830966241657733917236328125</LongitudeDegrees>
            </Position>
            <AltitudeMeters>206.1999969482421875</AltitudeMeters>
            <DistanceMeters>294590.02920623</DistanceMeters>
          </Trackpoint>
          <Trackpoint>
            <Time>2018-09-14T14:07:36.000Z</Time>
            <Position>
              <LatitudeDegrees>37.72422448731958866119384765625</LatitudeDegrees>
              <LongitudeDegrees>-8.08829910121858119964599609375</LongitudeDegrees>
            </Position>
            <AltitudeMeters>206.1999969482421875</AltitudeMeters>
            <DistanceMeters>294596.04372918</DistanceMeters>
          </Trackpoint>
          <Trackpoint>
            <Time>2018-09-14T14:07:37.000Z</Time>
            <Position>
              <LatitudeDegrees>37.72417067550122737884521484375</LatitudeDegrees>
              <LongitudeDegrees>-8.0882872827351093292236328125</LongitudeDegrees>
            </Position>
            <AltitudeMeters>206</AltitudeMeters>
            <DistanceMeters>294602.12246859</DistanceMeters>
          </Trackpoint>
          <Trackpoint>
            <Time>2018-09-14T14:07:38.000Z</Time>
            <Position>
              <LatitudeDegrees>37.72411619313061237335205078125</LatitudeDegrees>
              <LongitudeDegrees>-8.08827512897551059722900390625</LongitudeDegrees>
            </Position>
            <AltitudeMeters>205.8000030517578125</AltitudeMeters>
            <DistanceMeters>294608.28090354</DistanceMeters>
          </Trackpoint>
          <Trackpoint>
            <Time>2018-09-14T14:07:39.000Z</Time>
            <Position>
              <LatitudeDegrees>37.72406078875064849853515625</LatitudeDegrees>
              <LongitudeDegrees>-8.08826356194913387298583984375</LongitudeDegrees>
            </Position>
            <AltitudeMeters>205.399993896484375</AltitudeMeters>
            <DistanceMeters>294614.53103239</DistanceMeters>
          </Trackpoint>
          <Trackpoint>
            <Time>2018-09-14T14:07:40.000Z</Time>
            <Position>
              <LatitudeDegrees>37.72400504909455776214599609375</LatitudeDegrees>
              <LongitudeDegrees>-8.08825082145631313323974609375</LongitudeDegrees>
            </Position>
            <AltitudeMeters>205.1999969482421875</AltitudeMeters>
            <DistanceMeters>294620.83582395</DistanceMeters>
          </Trackpoint>
          <Trackpoint>
            <Time>2018-09-14T14:07:41.000Z</Time>
            <Position>
              <LatitudeDegrees>37.72394889034330844879150390625</LatitudeDegrees>
              <LongitudeDegrees>-8.08823682367801666259765625</LongitudeDegrees>
            </Position>
            <AltitudeMeters>205</AltitudeMeters>
            <DistanceMeters>294627.20615859</DistanceMeters>
          </Trackpoint>
          <Trackpoint>
            <Time>2018-09-14T14:07:42.000Z</Time>
            <Position>
              <LatitudeDegrees>37.723891474306583404541015625</LatitudeDegrees>
              <LongitudeDegrees>-8.0882222391664981842041015625</LongitudeDegrees>
            </Position>
            <AltitudeMeters>204.600006103515625</AltitudeMeters>
            <DistanceMeters>294633.72363353</DistanceMeters>
          </Trackpoint>
          <Trackpoint>
            <Time>2018-09-14T14:07:43.000Z</Time>
            <Position>
              <LatitudeDegrees>37.72383322007954120635986328125</LatitudeDegrees>
              <LongitudeDegrees>-8.0882074870169162750244140625</LongitudeDegrees>
            </Position>
            <AltitudeMeters>204.399993896484375</AltitudeMeters>
            <DistanceMeters>294640.33601814</DistanceMeters>
          </Trackpoint>
          <Trackpoint>
            <Time>2018-09-14T14:07:44.000Z</Time>
            <Position>
              <LatitudeDegrees>37.72377379238605499267578125</LatitudeDegrees>
              <LongitudeDegrees>-8.088193573057651519775390625</LongitudeDegrees>
            </Position>
            <AltitudeMeters>204</AltitudeMeters>
            <DistanceMeters>294647.06280883</DistanceMeters>
          </Trackpoint>
          <Trackpoint>
            <Time>2018-09-14T14:07:45.000Z</Time>
            <Position>
              <LatitudeDegrees>37.7237132750451564788818359375</LatitudeDegrees>
              <LongitudeDegrees>-8.08818049728870391845703125</LongitudeDegrees>
            </Position>
            <AltitudeMeters>203.8000030517578125</AltitudeMeters>
            <DistanceMeters>294653.89680879</DistanceMeters>
          </Trackpoint>
          <Trackpoint>
            <Time>2018-09-14T14:07:46.000Z</Time>
            <Position>
              <LatitudeDegrees>37.7236525900661945343017578125</LatitudeDegrees>
              <LongitudeDegrees>-8.08816717006266117095947265625</LongitudeDegrees>
            </Position>
            <AltitudeMeters>203.399993896484375</AltitudeMeters>
            <DistanceMeters>294660.75323482</DistanceMeters>
          </Trackpoint>
          <Trackpoint>
            <Time>2018-09-14T14:07:47.000Z</Time>
            <Position>
              <LatitudeDegrees>37.72359148599207401275634765625</LatitudeDegrees>
              <LongitudeDegrees>-8.0881535075604915618896484375</LongitudeDegrees>
            </Position>
            <AltitudeMeters>203.399993896484375</AltitudeMeters>
            <DistanceMeters>294667.65952643</DistanceMeters>
          </Trackpoint>
          <Trackpoint>
            <Time>2018-09-14T14:07:48.000Z</Time>
            <Position>
              <LatitudeDegrees>37.72352962754666805267333984375</LatitudeDegrees>
              <LongitudeDegrees>-8.0881409347057342529296875</LongitudeDegrees>
            </Position>
            <AltitudeMeters>203.399993896484375</AltitudeMeters>
            <DistanceMeters>294674.63347737</DistanceMeters>
          </Trackpoint>
          <Trackpoint>
            <Time>2018-09-14T14:07:49.000Z</Time>
            <Position>
              <LatitudeDegrees>37.72346776910126209259033203125</LatitudeDegrees>
              <LongitudeDegrees>-8.0881273560225963592529296875</LongitudeDegrees>
            </Position>
            <AltitudeMeters>203.1999969482421875</AltitudeMeters>
            <DistanceMeters>294681.62101079</DistanceMeters>
          </Trackpoint>
          <Trackpoint>
            <Time>2018-09-14T14:07:50.000Z</Time>
            <Position>
              <LatitudeDegrees>37.72340557537972927093505859375</LatitudeDegrees>
              <LongitudeDegrees>-8.0881126038730144500732421875</LongitudeDegrees>
            </Position>
            <AltitudeMeters>203.1999969482421875</AltitudeMeters>
            <DistanceMeters>294688.66453548</DistanceMeters>
          </Trackpoint>
          <Trackpoint>
            <Time>2018-09-14T14:07:51.000Z</Time>
            <Position>
              <LatitudeDegrees>37.7233431302011013031005859375</LatitudeDegrees>
              <LongitudeDegrees>-8.08809810318052768707275390625</LongitudeDegrees>
            </Position>
            <AltitudeMeters>203.1999969482421875</AltitudeMeters>
            <DistanceMeters>294695.73109919</DistanceMeters>
          </Trackpoint>
          <Trackpoint>
            <Time>2018-09-14T14:07:52.000Z</Time>
            <Position>
              <LatitudeDegrees>37.7232797630131244659423828125</LatitudeDegrees>
              <LongitudeDegrees>-8.0880834348499774932861328125</LongitudeDegrees>
            </Position>
            <AltitudeMeters>203.1999969482421875</AltitudeMeters>
            <DistanceMeters>294702.90168182</DistanceMeters>
          </Trackpoint>
          <Trackpoint>
            <Time>2018-09-14T14:07:53.000Z</Time>
            <Position>
              <LatitudeDegrees>37.72321614436805248260498046875</LatitudeDegrees>
              <LongitudeDegrees>-8.08806843124330043792724609375</LongitudeDegrees>
            </Position>
            <AltitudeMeters>203.1999969482421875</AltitudeMeters>
            <DistanceMeters>294710.10430559</DistanceMeters>
          </Trackpoint>
          <Trackpoint>
            <Time>2018-09-14T14:07:54.000Z</Time>
            <Position>
              <LatitudeDegrees>37.7231521904468536376953125</LatitudeDegrees>
              <LongitudeDegrees>-8.08805334381759166717529296875</LongitudeDegrees>
            </Position>
            <AltitudeMeters>203</AltitudeMeters>
            <DistanceMeters>294717.3456904</DistanceMeters>
          </Trackpoint>
          <Trackpoint>
            <Time>2018-09-14T14:07:55.000Z</Time>
            <Position>
              <LatitudeDegrees>37.72308806888759136199951171875</LatitudeDegrees>
              <LongitudeDegrees>-8.0880378372967243194580078125</LongitudeDegrees>
            </Position>
            <AltitudeMeters>203</AltitudeMeters>
            <DistanceMeters>294724.6119726</DistanceMeters>
          </Trackpoint>
          <Trackpoint>
            <Time>2018-09-14T14:07:56.000Z</Time>
            <Position>
              <LatitudeDegrees>37.72302369587123394012451171875</LatitudeDegrees>
              <LongitudeDegrees>-8.0880229175090789794921875</LongitudeDegrees>
            </Position>
            <AltitudeMeters>203</AltitudeMeters>
            <DistanceMeters>294731.89625219</DistanceMeters>
          </Trackpoint>
          <Trackpoint>
            <Time>2018-09-14T14:07:57.000Z</Time>
            <Position>
              <LatitudeDegrees>37.7229592390358448028564453125</LatitudeDegrees>
              <LongitudeDegrees>-8.0880081653594970703125</LongitudeDegrees>
            </Position>
            <AltitudeMeters>203</AltitudeMeters>
            <DistanceMeters>294739.18672748</DistanceMeters>
          </Trackpoint>
          <Trackpoint>
            <Time>2018-09-14T14:07:58.000Z</Time>
            <Position>
              <LatitudeDegrees>37.722894363105297088623046875</LatitudeDegrees>
              <LongitudeDegrees>-8.08799274265766143798828125</LongitudeDegrees>
            </Position>
            <AltitudeMeters>203</AltitudeMeters>
            <DistanceMeters>294746.53395804</DistanceMeters>
          </Trackpoint>
          <Trackpoint>
            <Time>2018-09-14T14:07:59.000Z</Time>
            <Position>
              <LatitudeDegrees>37.72282839752733707427978515625</LatitudeDegrees>
              <LongitudeDegrees>-8.08797740377485752105712890625</LongitudeDegrees>
            </Position>
            <AltitudeMeters>203.1999969482421875</AltitudeMeters>
            <DistanceMeters>294753.99945413</DistanceMeters>
          </Trackpoint>
          <Trackpoint>
            <Time>2018-09-14T14:08:00.000Z</Time>
            <Position>
              <LatitudeDegrees>37.7227620966732501983642578125</LatitudeDegrees>
              <LongitudeDegrees>-8.08796164579689502716064453125</LongitudeDegrees>
            </Position>
            <AltitudeMeters>203.1999969482421875</AltitudeMeters>
            <DistanceMeters>294761.50836865</DistanceMeters>
          </Trackpoint>
          <Trackpoint>
            <Time>2018-09-14T14:08:01.000Z</Time>
            <Position>
              <LatitudeDegrees>37.72269562818109989166259765625</LatitudeDegrees>
              <LongitudeDegrees>-8.08794504962861537933349609375</LongitudeDegrees>
            </Position>
            <AltitudeMeters>203.1999969482421875</AltitudeMeters>
            <DistanceMeters>294769.04908423</DistanceMeters>
          </Trackpoint>
          <Trackpoint>
            <Time>2018-09-14T14:08:02.000Z</Time>
            <Position>
              <LatitudeDegrees>37.7226286567747592926025390625</LatitudeDegrees>
              <LongitudeDegrees>-8.0879288725554943084716796875</LongitudeDegrees>
            </Position>
            <AltitudeMeters>203.1999969482421875</AltitudeMeters>
            <DistanceMeters>294776.63814396</DistanceMeters>
          </Trackpoint>
          <Trackpoint>
            <Time>2018-09-14T14:08:03.000Z</Time>
            <Position>
              <LatitudeDegrees>37.72256143391132354736328125</LatitudeDegrees>
              <LongitudeDegrees>-8.08791286312043666839599609375</LongitudeDegrees>
            </Position>
            <AltitudeMeters>203.399993896484375</AltitudeMeters>
            <DistanceMeters>294784.25155717</DistanceMeters>
          </Trackpoint>
          <Trackpoint>
            <Time>2018-09-14T14:08:04.000Z</Time>
            <Position>
              <LatitudeDegrees>37.72249395959079265594482421875</LatitudeDegrees>
              <LongitudeDegrees>-8.08789660222828388214111328125</LongitudeDegrees>
            </Position>
            <AltitudeMeters>203.399993896484375</AltitudeMeters>
            <DistanceMeters>294791.89633674</DistanceMeters>
          </Trackpoint>
          <Trackpoint>
            <Time>2018-09-14T14:08:05.000Z</Time>
            <Position>
              <LatitudeDegrees>37.72242640145123004913330078125</LatitudeDegrees>
              <LongitudeDegrees>-8.08788000606000423431396484375</LongitudeDegrees>
            </Position>
            <AltitudeMeters>203.399993896484375</AltitudeMeters>
            <DistanceMeters>294799.5552777</DistanceMeters>
          </Trackpoint>
          <Trackpoint>
            <Time>2018-09-14T14:08:06.000Z</Time>
            <Position>
              <LatitudeDegrees>37.72235850803554058074951171875</LatitudeDegrees>
              <LongitudeDegrees>-8.0878628231585025787353515625</LongitudeDegrees>
            </Position>
            <AltitudeMeters>203.600006103515625</AltitudeMeters>
            <DistanceMeters>294807.2618212</DistanceMeters>
          </Trackpoint>
          <Trackpoint>
            <Time>2018-09-14T14:08:07.000Z</Time>
            <Position>
              <LatitudeDegrees>37.7222896926105022430419921875</LatitudeDegrees>
              <LongitudeDegrees>-8.08784496970474720001220703125</LongitudeDegrees>
            </Position>
            <AltitudeMeters>203.600006103515625</AltitudeMeters>
            <DistanceMeters>294815.08062018</DistanceMeters>
          </Trackpoint>
          <Trackpoint>
            <Time>2018-09-14T14:08:08.000Z</Time>
            <Position>
              <LatitudeDegrees>37.722220122814178466796875</LatitudeDegrees>
              <LongitudeDegrees>-8.08782770298421382904052734375</LongitudeDegrees>
            </Position>
            <AltitudeMeters>203.600006103515625</AltitudeMeters>
            <DistanceMeters>294822.97184361</DistanceMeters>
          </Trackpoint>
          <Trackpoint>
            <Time>2018-09-14T14:08:09.000Z</Time>
            <Position>
              <LatitudeDegrees>37.72214971482753753662109375</LatitudeDegrees>
              <LongitudeDegrees>-8.0878115259110927581787109375</LongitudeDegrees>
            </Position>
            <AltitudeMeters>203.8000030517578125</AltitudeMeters>
            <DistanceMeters>294830.93710048</DistanceMeters>
          </Trackpoint>
          <Trackpoint>
            <Time>2018-09-14T14:08:10.000Z</Time>
            <Position>
              <LatitudeDegrees>37.7220788039267063140869140625</LatitudeDegrees>
              <LongitudeDegrees>-8.0877950973808765411376953125</LongitudeDegrees>
            </Position>
            <AltitudeMeters>203.8000030517578125</AltitudeMeters>
            <DistanceMeters>294838.96109232</DistanceMeters>
          </Trackpoint>
          <Trackpoint>
            <Time>2018-09-14T14:08:11.000Z</Time>
            <Position>
              <LatitudeDegrees>37.7220080606639385223388671875</LatitudeDegrees>
              <LongitudeDegrees>-8.08777741156518459320068359375</LongitudeDegrees>
            </Position>
            <AltitudeMeters>203.8000030517578125</AltitudeMeters>
            <DistanceMeters>294846.98733462</DistanceMeters>
          </Trackpoint>
          <Trackpoint>
            <Time>2018-09-14T14:08:12.000Z</Time>
            <Position>
              <LatitudeDegrees>37.7219373174011707305908203125</LatitudeDegrees>
              <LongitudeDegrees>-8.087760396301746368408203125</LongitudeDegrees>
            </Position>
            <AltitudeMeters>204</AltitudeMeters>
            <DistanceMeters>294855.00175498</DistanceMeters>
          </Trackpoint>
          <Trackpoint>
            <Time>2018-09-14T14:08:13.000Z</Time>
            <Position>
              <LatitudeDegrees>37.7218659035861492156982421875</LatitudeDegrees>
              <LongitudeDegrees>-8.08774329721927642822265625</LongitudeDegrees>
            </Position>
            <AltitudeMeters>204</AltitudeMeters>
            <DistanceMeters>294863.09187204</DistanceMeters>
          </Trackpoint>
          <Trackpoint>
            <Time>2018-09-14T14:08:14.000Z</Time>
            <Position>
              <LatitudeDegrees>37.721794657409191131591796875</LatitudeDegrees>
              <LongitudeDegrees>-8.087726198136806488037109375</LongitudeDegrees>
            </Position>
            <AltitudeMeters>204</AltitudeMeters>
            <DistanceMeters>294871.16299163</DistanceMeters>
          </Trackpoint>
          <Trackpoint>
            <Time>2018-09-14T14:08:15.000Z</Time>
            <Position>
              <LatitudeDegrees>37.72172366268932819366455078125</LatitudeDegrees>
              <LongitudeDegrees>-8.087710104882717132568359375</LongitudeDegrees>
            </Position>
            <AltitudeMeters>204.1999969482421875</AltitudeMeters>
            <DistanceMeters>294879.19092135</DistanceMeters>
          </Trackpoint>
          <Trackpoint>
            <Time>2018-09-14T14:08:16.000Z</Time>
            <Position>
              <LatitudeDegrees>37.7216543443500995635986328125</LatitudeDegrees>
              <LongitudeDegrees>-8.08769443072378635406494140625</LongitudeDegrees>
            </Position>
            <AltitudeMeters>204.1999969482421875</AltitudeMeters>
            <DistanceMeters>294887.02932936</DistanceMeters>
          </Trackpoint>
          <Trackpoint>
            <Time>2018-09-14T14:08:17.000Z</Time>
            <Position>
              <LatitudeDegrees>37.721586115658283233642578125</LatitudeDegrees>
              <LongitudeDegrees>-8.08767884038388729095458984375</LongitudeDegrees>
            </Position>
            <AltitudeMeters>204</AltitudeMeters>
            <DistanceMeters>294894.74582624</DistanceMeters>
          </Trackpoint>
          <Trackpoint>
            <Time>2018-09-14T14:08:18.000Z</Time>
            <Position>
              <LatitudeDegrees>37.7215192280709743499755859375</LatitudeDegrees>
              <LongitudeDegrees>-8.08766224421560764312744140625</LongitudeDegrees>
            </Position>
            <AltitudeMeters>204</AltitudeMeters>
            <DistanceMeters>294902.33250583</DistanceMeters>
          </Trackpoint>
          <Trackpoint>
            <Time>2018-09-14T14:08:19.000Z</Time>
            <Position>
              <LatitudeDegrees>37.7214531786739826202392578125</LatitudeDegrees>
              <LongitudeDegrees>-8.08764447458088397979736328125</LongitudeDegrees>
            </Position>
            <AltitudeMeters>204</AltitudeMeters>
            <DistanceMeters>294909.84863238</DistanceMeters>
          </Trackpoint>
          <Trackpoint>
            <Time>2018-09-14T14:08:20.000Z</Time>
            <Position>
              <LatitudeDegrees>37.72138654254376888275146484375</LatitudeDegrees>
              <LongitudeDegrees>-8.08762854896485805511474609375</LongitudeDegrees>
            </Position>
            <AltitudeMeters>204</AltitudeMeters>
            <DistanceMeters>294917.39652959</DistanceMeters>
          </Trackpoint>
          <Trackpoint>
            <Time>2018-09-14T14:08:21.000Z</Time>
            <Position>
              <LatitudeDegrees>37.72131831385195255279541015625</LatitudeDegrees>
              <LongitudeDegrees>-8.08761379681527614593505859375</LongitudeDegrees>
            </Position>
            <AltitudeMeters>204</AltitudeMeters>
            <DistanceMeters>294925.10131528</DistanceMeters>
          </Trackpoint>
          <Trackpoint>
            <Time>2018-09-14T14:08:22.000Z</Time>
            <Position>
              <LatitudeDegrees>37.7212489955127239227294921875</LatitudeDegrees>
              <LongitudeDegrees>-8.08759820647537708282470703125</LongitudeDegrees>
            </Position>
            <AltitudeMeters>204</AltitudeMeters>
            <DistanceMeters>294932.93741889</DistanceMeters>
          </Trackpoint>
          <Trackpoint>
            <Time>2018-09-14T14:08:23.000Z</Time>
            <Position>
              <LatitudeDegrees>37.72117900662124156951904296875</LatitudeDegrees>
              <LongitudeDegrees>-8.0875815264880657196044921875</LongitudeDegrees>
            </Position>
            <AltitudeMeters>204</AltitudeMeters>
            <DistanceMeters>294940.86517595</DistanceMeters>
          </Trackpoint>
          <Trackpoint>
            <Time>2018-09-14T14:08:24.000Z</Time>
            <Position>
              <LatitudeDegrees>37.72110977210104465484619140625</LatitudeDegrees>
              <LongitudeDegrees>-8.08756534941494464874267578125</LongitudeDegrees>
            </Position>
            <AltitudeMeters>203.8000030517578125</AltitudeMeters>
            <DistanceMeters>294948.70185573</DistanceMeters>
          </Trackpoint>
          <Trackpoint>
            <Time>2018-09-14T14:08:25.000Z</Time>
            <Position>
              <LatitudeDegrees>37.72104070521891117095947265625</LatitudeDegrees>
              <LongitudeDegrees>-8.0875481665134429931640625</LongitudeDegrees>
            </Position>
            <AltitudeMeters>203.8000030517578125</AltitudeMeters>
            <DistanceMeters>294956.53565427</DistanceMeters>
          </Trackpoint>
          <Trackpoint>
            <Time>2018-09-14T14:08:26.000Z</Time>
            <Position>
              <LatitudeDegrees>37.72097180597484111785888671875</LatitudeDegrees>
              <LongitudeDegrees>-8.08753073215484619140625</LongitudeDegrees>
            </Position>
            <AltitudeMeters>203.8000030517578125</AltitudeMeters>
            <DistanceMeters>294964.35618543</DistanceMeters>
          </Trackpoint>
          <Trackpoint>
            <Time>2018-09-14T14:08:27.000Z</Time>
            <Position>
              <LatitudeDegrees>37.72090273909270763397216796875</LatitudeDegrees>
              <LongitudeDegrees>-8.08751438744366168975830078125</LongitudeDegrees>
            </Position>
            <AltitudeMeters>203.8000030517578125</AltitudeMeters>
            <DistanceMeters>294972.1767166</DistanceMeters>
          </Trackpoint>
          <Trackpoint>
            <Time>2018-09-14T14:08:28.000Z</Time>
            <Position>
              <LatitudeDegrees>37.72083333693444728851318359375</LatitudeDegrees>
              <LongitudeDegrees>-8.08749745599925518035888671875</LongitudeDegrees>
            </Position>
            <AltitudeMeters>204</AltitudeMeters>
            <DistanceMeters>294980.04387263</DistanceMeters>
          </Trackpoint>
          <Trackpoint>
            <Time>2018-09-14T14:08:29.000Z</Time>
            <Position>
              <LatitudeDegrees>37.72076410241425037384033203125</LatitudeDegrees>
              <LongitudeDegrees>-8.087480105459690093994140625</LongitudeDegrees>
            </Position>
            <AltitudeMeters>204.1999969482421875</AltitudeMeters>
            <DistanceMeters>294987.8989673</DistanceMeters>
          </Trackpoint>
          <Trackpoint>
            <Time>2018-09-14T14:08:30.000Z</Time>
            <Position>
              <LatitudeDegrees>37.7206951193511486053466796875</LatitudeDegrees>
              <LongitudeDegrees>-8.0874631740152835845947265625</LongitudeDegrees>
            </Position>
            <AltitudeMeters>204.1999969482421875</AltitudeMeters>
            <DistanceMeters>294995.72007578</DistanceMeters>
          </Trackpoint>
          <Trackpoint>
            <Time>2018-09-14T14:08:31.000Z</Time>
            <Position>
              <LatitudeDegrees>37.72062647156417369842529296875</LatitudeDegrees>
              <LongitudeDegrees>-8.087447248399257659912109375</LongitudeDegrees>
            </Position>
            <AltitudeMeters>204.1999969482421875</AltitudeMeters>
            <DistanceMeters>295003.48905454</DistanceMeters>
          </Trackpoint>
          <Trackpoint>
            <Time>2018-09-14T14:08:32.000Z</Time>
            <Position>
              <LatitudeDegrees>37.7205579914152622222900390625</LatitudeDegrees>
              <LongitudeDegrees>-8.08743258006870746612548828125</LongitudeDegrees>
            </Position>
            <AltitudeMeters>204.399993896484375</AltitudeMeters>
            <DistanceMeters>295011.22016546</DistanceMeters>
          </Trackpoint>
          <Trackpoint>
            <Time>2018-09-14T14:08:33.000Z</Time>
            <Position>
              <LatitudeDegrees>37.72048967890441417694091796875</LatitudeDegrees>
              <LongitudeDegrees>-8.0874182470142841339111328125</LongitudeDegrees>
            </Position>
            <AltitudeMeters>204.399993896484375</AltitudeMeters>
            <DistanceMeters>295018.92729481</DistanceMeters>
          </Trackpoint>
          <Trackpoint>
            <Time>2018-09-14T14:08:34.000Z</Time>
            <Position>
              <LatitudeDegrees>37.72042094729840755462646484375</LatitudeDegrees>
              <LongitudeDegrees>-8.08740324340760707855224609375</LongitudeDegrees>
            </Position>
            <AltitudeMeters>204.600006103515625</AltitudeMeters>
            <DistanceMeters>295026.69045977</DistanceMeters>
          </Trackpoint>
          <Trackpoint>
            <Time>2018-09-14T14:08:35.000Z</Time>
            <Position>
              <LatitudeDegrees>37.7203528024256229400634765625</LatitudeDegrees>
              <LongitudeDegrees>-8.08738798834383487701416015625</LongitudeDegrees>
            </Position>
            <AltitudeMeters>204.600006103515625</AltitudeMeters>
            <DistanceMeters>295034.39348724</DistanceMeters>
          </Trackpoint>
          <Trackpoint>
            <Time>2018-09-14T14:08:36.000Z</Time>
            <Position>
              <LatitudeDegrees>37.7202850766479969024658203125</LatitudeDegrees>
              <LongitudeDegrees>-8.08737206272780895233154296875</LongitudeDegrees>
            </Position>
            <AltitudeMeters>204.8000030517578125</AltitudeMeters>
            <DistanceMeters>295042.06126578</DistanceMeters>
          </Trackpoint>
          <Trackpoint>
            <Time>2018-09-14T14:08:37.000Z</Time>
            <Position>
              <LatitudeDegrees>37.72021743468940258026123046875</LatitudeDegrees>
              <LongitudeDegrees>-8.087356053292751312255859375</LongitudeDegrees>
            </Position>
            <AltitudeMeters>204.8000030517578125</AltitudeMeters>
            <DistanceMeters>295049.72079623</DistanceMeters>
          </Trackpoint>
          <Trackpoint>
            <Time>2018-09-14T14:08:38.000Z</Time>
            <Position>
              <LatitudeDegrees>37.72015037946403026580810546875</LatitudeDegrees>
              <LongitudeDegrees>-8.0873389542102813720703125</LongitudeDegrees>
            </Position>
            <AltitudeMeters>204.8000030517578125</AltitudeMeters>
            <DistanceMeters>295057.33480245</DistanceMeters>
          </Trackpoint>
          <Trackpoint>
            <Time>2018-09-14T14:08:39.000Z</Time>
            <Position>
              <LatitudeDegrees>37.72008315660059452056884765625</LatitudeDegrees>
              <LongitudeDegrees>-8.0873201787471771240234375</LongitudeDegrees>
            </Position>
            <AltitudeMeters>205</AltitudeMeters>
            <DistanceMeters>295064.99786888</DistanceMeters>
          </Trackpoint>
          <Trackpoint>
            <Time>2018-09-14T14:08:40.000Z</Time>
            <Position>
              <LatitudeDegrees>37.72001610137522220611572265625</LatitudeDegrees>
              <LongitudeDegrees>-8.0873014032840728759765625</LongitudeDegrees>
            </Position>
            <AltitudeMeters>205</AltitudeMeters>
            <DistanceMeters>295072.64146716</DistanceMeters>
          </Trackpoint>
          <Trackpoint>
            <Time>2018-09-14T14:08:41.000Z</Time>
            <Position>
              <LatitudeDegrees>37.71995021961629390716552734375</LatitudeDegrees>
              <LongitudeDegrees>-8.0872834660112857818603515625</LongitudeDegrees>
            </Position>
            <AltitudeMeters>205.1999969482421875</AltitudeMeters>
            <DistanceMeters>295080.14195889</DistanceMeters>
          </Trackpoint>
          <Trackpoint>
            <Time>2018-09-14T14:08:42.000Z</Time>
            <Position>
              <LatitudeDegrees>37.7198852598667144775390625</LatitudeDegrees>
              <LongitudeDegrees>-8.08726661838591098785400390625</LongitudeDegrees>
            </Position>
            <AltitudeMeters>205.1999969482421875</AltitudeMeters>
            <DistanceMeters>295087.52229907</DistanceMeters>
          </Trackpoint>
          <Trackpoint>
            <Time>2018-09-14T14:08:43.000Z</Time>
            <Position>
              <LatitudeDegrees>37.7198210544884204864501953125</LatitudeDegrees>
              <LongitudeDegrees>-8.08725153096020221710205078125</LongitudeDegrees>
            </Position>
            <AltitudeMeters>205.1999969482421875</AltitudeMeters>
            <DistanceMeters>295094.79044513</DistanceMeters>
          </Trackpoint>
          <Trackpoint>
            <Time>2018-09-14T14:08:44.000Z</Time>
            <Position>
              <LatitudeDegrees>37.719758860766887664794921875</LatitudeDegrees>
              <LongitudeDegrees>-8.0872358568012714385986328125</LongitudeDegrees>
            </Position>
            <AltitudeMeters>205.399993896484375</AltitudeMeters>
            <DistanceMeters>295101.84933752</DistanceMeters>
          </Trackpoint>
          <Trackpoint>
            <Time>2018-09-14T14:08:45.000Z</Time>
            <Position>
              <LatitudeDegrees>37.71969817578792572021484375</LatitudeDegrees>
              <LongitudeDegrees>-8.0872204340994358062744140625</LongitudeDegrees>
            </Position>
            <AltitudeMeters>205.399993896484375</AltitudeMeters>
            <DistanceMeters>295108.73861047</DistanceMeters>
          </Trackpoint>
          <Trackpoint>
            <Time>2018-09-14T14:08:46.000Z</Time>
            <Position>
              <LatitudeDegrees>37.71963874809443950653076171875</LatitudeDegrees>
              <LongitudeDegrees>-8.08720559813082218170166015625</LongitudeDegrees>
            </Position>
            <AltitudeMeters>205.399993896484375</AltitudeMeters>
            <DistanceMeters>295115.48082115</DistanceMeters>
          </Trackpoint>
          <Trackpoint>
            <Time>2018-09-14T14:08:47.000Z</Time>
            <Position>
              <LatitudeDegrees>37.71958015859127044677734375</LatitudeDegrees>
              <LongitudeDegrees>-8.08719084598124027252197265625</LongitudeDegrees>
            </Position>
            <AltitudeMeters>205.399993896484375</AltitudeMeters>
            <DistanceMeters>295122.12997555</DistanceMeters>
          </Trackpoint>
          <Trackpoint>
            <Time>2018-09-14T14:08:48.000Z</Time>
            <Position>
              <LatitudeDegrees>37.71952173672616481781005859375</LatitudeDegrees>
              <LongitudeDegrees>-8.08717735111713409423828125</LongitudeDegrees>
            </Position>
            <AltitudeMeters>205.399993896484375</AltitudeMeters>
            <DistanceMeters>295128.73962833</DistanceMeters>
          </Trackpoint>
          <Trackpoint>
            <Time>2018-09-14T14:08:49.000Z</Time>
            <Position>
              <LatitudeDegrees>37.7194633148610591888427734375</LatitudeDegrees>
              <LongitudeDegrees>-8.08716502971947193145751953125</LongitudeDegrees>
            </Position>
            <AltitudeMeters>205.1999969482421875</AltitudeMeters>
            <DistanceMeters>295135.33149664</DistanceMeters>
          </Trackpoint>
          <Trackpoint>
            <Time>2018-09-14T14:08:50.000Z</Time>
            <Position>
              <LatitudeDegrees>37.71940522827208042144775390625</LatitudeDegrees>
              <LongitudeDegrees>-8.0871520377695560455322265625</LongitudeDegrees>
            </Position>
            <AltitudeMeters>205.1999969482421875</AltitudeMeters>
            <DistanceMeters>295141.89728563</DistanceMeters>
          </Trackpoint>
          <Trackpoint>
            <Time>2018-09-14T14:08:51.000Z</Time>
            <Position>
              <LatitudeDegrees>37.7193476445972919464111328125</LatitudeDegrees>
              <LongitudeDegrees>-8.087138123810291290283203125</LongitudeDegrees>
            </Position>
            <AltitudeMeters>205</AltitudeMeters>
            <DistanceMeters>295148.42237646</DistanceMeters>
          </Trackpoint>
          <Trackpoint>
            <Time>2018-09-14T14:08:52.000Z</Time>
            <Position>
              <LatitudeDegrees>37.719290144741535186767578125</LatitudeDegrees>
              <LongitudeDegrees>-8.08712504804134368896484375</LongitudeDegrees>
            </Position>
            <AltitudeMeters>205</AltitudeMeters>
            <DistanceMeters>295154.92459285</DistanceMeters>
          </Trackpoint>
          <Trackpoint>
            <Time>2018-09-14T14:08:53.000Z</Time>
            <Position>
              <LatitudeDegrees>37.7192326448857784271240234375</LatitudeDegrees>
              <LongitudeDegrees>-8.08711230754852294921875</LongitudeDegrees>
            </Position>
            <AltitudeMeters>204.8000030517578125</AltitudeMeters>
            <DistanceMeters>295161.42194672</DistanceMeters>
          </Trackpoint>
          <Trackpoint>
            <Time>2018-09-14T14:08:54.000Z</Time>
            <Position>
              <LatitudeDegrees>37.71917514503002166748046875</LatitudeDegrees>
              <LongitudeDegrees>-8.0870997346937656402587890625</LongitudeDegrees>
            </Position>
            <AltitudeMeters>205</AltitudeMeters>
            <DistanceMeters>295167.91721555</DistanceMeters>
          </Trackpoint>
          <Trackpoint>
            <Time>2018-09-14T14:08:55.000Z</Time>
            <Position>
              <LatitudeDegrees>37.71911772899329662322998046875</LatitudeDegrees>
              <LongitudeDegrees>-8.08708749711513519287109375</LongitudeDegrees>
            </Position>
            <AltitudeMeters>205.1999969482421875</AltitudeMeters>
            <DistanceMeters>295174.39856692</DistanceMeters>
          </Trackpoint>
          <Trackpoint>
            <Time>2018-09-14T14:08:56.000Z</Time>
            <Position>
              <LatitudeDegrees>37.71905989386141300201416015625</LatitudeDegrees>
              <LongitudeDegrees>-8.087075762450695037841796875</LongitudeDegrees>
            </Position>
            <AltitudeMeters>205.399993896484375</AltitudeMeters>
            <DistanceMeters>295180.91742723</DistanceMeters>
          </Trackpoint>
          <Trackpoint>
            <Time>2018-09-14T14:08:57.000Z</Time>
            <Position>
              <LatitudeDegrees>37.719002477824687957763671875</LatitudeDegrees>
              <LongitudeDegrees>-8.08706545270979404449462890625</LongitudeDegrees>
            </Position>
            <AltitudeMeters>205.600006103515625</AltitudeMeters>
            <DistanceMeters>295187.37155325</DistanceMeters>
          </Trackpoint>
          <Trackpoint>
            <Time>2018-09-14T14:08:58.000Z</Time>
            <Position>
              <LatitudeDegrees>37.718944810330867767333984375</LatitudeDegrees>
              <LongitudeDegrees>-8.0870538018643856048583984375</LongitudeDegrees>
            </Position>
            <AltitudeMeters>206</AltitudeMeters>
            <DistanceMeters>295193.8709915</DistanceMeters>
          </Trackpoint>
          <Trackpoint>
            <Time>2018-09-14T14:08:59.000Z</Time>
            <Position>
              <LatitudeDegrees>37.71888772957026958465576171875</LatitudeDegrees>
              <LongitudeDegrees>-8.08704030700027942657470703125</LongitudeDegrees>
            </Position>
            <AltitudeMeters>206</AltitudeMeters>
            <DistanceMeters>295200.33420538</DistanceMeters>
          </Trackpoint>
          <Trackpoint>
            <Time>2018-09-14T14:09:00.000Z</Time>
            <Position>
              <LatitudeDegrees>37.71883022971451282501220703125</LatitudeDegrees>
              <LongitudeDegrees>-8.087026141583919525146484375</LongitudeDegrees>
            </Position>
            <AltitudeMeters>206</AltitudeMeters>
            <DistanceMeters>295206.85445077</DistanceMeters>
          </Trackpoint>
          <Trackpoint>
            <Time>2018-09-14T14:09:01.000Z</Time>
            <Position>
              <LatitudeDegrees>37.7187723107635974884033203125</LatitudeDegrees>
              <LongitudeDegrees>-8.087013065814971923828125</LongitudeDegrees>
            </Position>
            <AltitudeMeters>206</AltitudeMeters>
            <DistanceMeters>295213.40302565</DistanceMeters>
          </Trackpoint>
          <Trackpoint>
            <Time>2018-09-14T14:09:02.000Z</Time>
            <Position>
              <LatitudeDegrees>37.7187144756317138671875</LatitudeDegrees>
              <LongitudeDegrees>-8.0870001576840877532958984375</LongitudeDegrees>
            </Position>
            <AltitudeMeters>206</AltitudeMeters>
            <DistanceMeters>295219.93986906</DistanceMeters>
          </Trackpoint>
          <Trackpoint>
            <Time>2018-09-14T14:09:03.000Z</Time>
            <Position>
              <LatitudeDegrees>37.7186573110520839691162109375</LatitudeDegrees>
              <LongitudeDegrees>-8.08698599226772785186767578125</LongitudeDegrees>
            </Position>
            <AltitudeMeters>206</AltitudeMeters>
            <DistanceMeters>295226.42261352</DistanceMeters>
          </Trackpoint>
          <Trackpoint>
            <Time>2018-09-14T14:09:04.000Z</Time>
            <Position>
              <LatitudeDegrees>37.7186009846627712249755859375</LatitudeDegrees>
              <LongitudeDegrees>-8.0869723297655582427978515625</LongitudeDegrees>
            </Position>
            <AltitudeMeters>206</AltitudeMeters>
            <DistanceMeters>295232.8056931</DistanceMeters>
          </Trackpoint>
          <Trackpoint>
            <Time>2018-09-14T14:09:05.000Z</Time>
            <Position>
              <LatitudeDegrees>37.71854440681636333465576171875</LatitudeDegrees>
              <LongitudeDegrees>-8.08695917017757892608642578125</LongitudeDegrees>
            </Position>
            <AltitudeMeters>206</AltitudeMeters>
            <DistanceMeters>295239.20925282</DistanceMeters>
          </Trackpoint>
          <Trackpoint>
            <Time>2018-09-14T14:09:06.000Z</Time>
            <Position>
              <LatitudeDegrees>37.7184883318841457366943359375</LatitudeDegrees>
              <LongitudeDegrees>-8.0869461782276630401611328125</LongitudeDegrees>
            </Position>
            <AltitudeMeters>206</AltitudeMeters>
            <DistanceMeters>295245.55402081</DistanceMeters>
          </Trackpoint>
          <Trackpoint>
            <Time>2018-09-14T14:09:07.000Z</Time>
            <Position>
              <LatitudeDegrees>37.7184316702187061309814453125</LatitudeDegrees>
              <LongitudeDegrees>-8.08693218044936656951904296875</LongitudeDegrees>
            </Position>
            <AltitudeMeters>206</AltitudeMeters>
            <DistanceMeters>295251.97940092</DistanceMeters>
          </Trackpoint>
          <Trackpoint>
            <Time>2018-09-14T14:09:08.000Z</Time>
            <Position>
              <LatitudeDegrees>37.7183750085532665252685546875</LatitudeDegrees>
              <LongitudeDegrees>-8.08691742829978466033935546875</LongitudeDegrees>
            </Position>
            <AltitudeMeters>206</AltitudeMeters>
            <DistanceMeters>295258.41741698</DistanceMeters>
          </Trackpoint>
          <Trackpoint>
            <Time>2018-09-14T14:09:09.000Z</Time>
            <Position>
              <LatitudeDegrees>37.718317508697509765625</LatitudeDegrees>
              <LongitudeDegrees>-8.08690376579761505126953125</LongitudeDegrees>
            </Position>
            <AltitudeMeters>206</AltitudeMeters>
            <DistanceMeters>295264.92934749</DistanceMeters>
          </Trackpoint>
          <Trackpoint>
            <Time>2018-09-14T14:09:10.000Z</Time>
            <Position>
              <LatitudeDegrees>37.71825942210853099822998046875</LatitudeDegrees>
              <LongitudeDegrees>-8.08689035475254058837890625</LongitudeDegrees>
            </Position>
            <AltitudeMeters>206.1999969482421875</AltitudeMeters>
            <DistanceMeters>295271.50132251</DistanceMeters>
          </Trackpoint>
          <Trackpoint>
            <Time>2018-09-14T14:09:11.000Z</Time>
            <Position>
              <LatitudeDegrees>37.71820125170052051544189453125</LatitudeDegrees>
              <LongitudeDegrees>-8.08687669225037097930908203125</LongitudeDegrees>
            </Position>
            <AltitudeMeters>206.1999969482421875</AltitudeMeters>
            <DistanceMeters>295278.08633786</DistanceMeters>
          </Trackpoint>
          <Trackpoint>
            <Time>2018-09-14T14:09:12.000Z</Time>
            <Position>
              <LatitudeDegrees>37.71814341656863689422607421875</LatitudeDegrees>
              <LongitudeDegrees>-8.08686311356723308563232421875</LongitudeDegrees>
            </Position>
            <AltitudeMeters>206.399993896484375</AltitudeMeters>
            <DistanceMeters>295284.63284401</DistanceMeters>
          </Trackpoint>
          <Trackpoint>
            <Time>2018-09-14T14:09:13.000Z</Time>
            <Position>
              <LatitudeDegrees>37.7180860005319118499755859375</LatitudeDegrees>
              <LongitudeDegrees>-8.086849786341190338134765625</LongitudeDegrees>
            </Position>
            <AltitudeMeters>206.600006103515625</AltitudeMeters>
            <DistanceMeters>295291.12950294</DistanceMeters>
          </Trackpoint>
          <Trackpoint>
            <Time>2018-09-14T14:09:14.000Z</Time>
            <Position>
              <LatitudeDegrees>37.7180293388664722442626953125</LatitudeDegrees>
              <LongitudeDegrees>-8.0868362076580524444580078125</LongitudeDegrees>
            </Position>
            <AltitudeMeters>206.600006103515625</AltitudeMeters>
            <DistanceMeters>295297.54785232</DistanceMeters>
          </Trackpoint>
          <Trackpoint>
            <Time>2018-09-14T14:09:15.000Z</Time>
            <Position>
              <LatitudeDegrees>37.71797259338200092315673828125</LatitudeDegrees>
              <LongitudeDegrees>-8.08682254515588283538818359375</LongitudeDegrees>
            </Position>
            <AltitudeMeters>206.8000030517578125</AltitudeMeters>
            <DistanceMeters>295303.97744717</DistanceMeters>
          </Trackpoint>
          <Trackpoint>
            <Time>2018-09-14T14:09:16.000Z</Time>
            <Position>
              <LatitudeDegrees>37.7179160155355930328369140625</LatitudeDegrees>
              <LongitudeDegrees>-8.08680946938693523406982421875</LongitudeDegrees>
            </Position>
            <AltitudeMeters>207</AltitudeMeters>
            <DistanceMeters>295310.3788913</DistanceMeters>
          </Trackpoint>
          <Trackpoint>
            <Time>2018-09-14T14:09:17.000Z</Time>
            <Position>
              <LatitudeDegrees>37.71785943768918514251708984375</LatitudeDegrees>
              <LongitudeDegrees>-8.086795806884765625</LongitudeDegrees>
            </Position>
            <AltitudeMeters>207</AltitudeMeters>
            <DistanceMeters>295316.78949797</DistanceMeters>
          </Trackpoint>
          <Trackpoint>
            <Time>2018-09-14T14:09:18.000Z</Time>
            <Position>
              <LatitudeDegrees>37.717802859842777252197265625</LatitudeDegrees>
              <LongitudeDegrees>-8.08678164146840572357177734375</LongitudeDegrees>
            </Position>
            <AltitudeMeters>207.1999969482421875</AltitudeMeters>
            <DistanceMeters>295323.20925411</DistanceMeters>
          </Trackpoint>
          <Trackpoint>
            <Time>2018-09-14T14:09:19.000Z</Time>
            <Position>
              <LatitudeDegrees>37.71774712018668651580810546875</LatitudeDegrees>
              <LongitudeDegrees>-8.0867676436901092529296875</LongitudeDegrees>
            </Position>
            <AltitudeMeters>207.1999969482421875</AltitudeMeters>
            <DistanceMeters>295329.53406546</DistanceMeters>
          </Trackpoint>
          <Trackpoint>
            <Time>2018-09-14T14:09:20.000Z</Time>
            <Position>
              <LatitudeDegrees>37.7176920510828495025634765625</LatitudeDegrees>
              <LongitudeDegrees>-8.08675414882600307464599609375</LongitudeDegrees>
            </Position>
            <AltitudeMeters>207.399993896484375</AltitudeMeters>
            <DistanceMeters>295335.77696622</DistanceMeters>
          </Trackpoint>
          <Trackpoint>
            <Time>2018-09-14T14:09:21.000Z</Time>
            <Position>
              <LatitudeDegrees>37.71763782016932964324951171875</LatitudeDegrees>
              <LongitudeDegrees>-8.0867408215999603271484375</LongitudeDegrees>
            </Position>
            <AltitudeMeters>207.600006103515625</AltitudeMeters>
            <DistanceMeters>295341.92659712</DistanceMeters>
          </Trackpoint>
          <Trackpoint>
            <Time>2018-09-14T14:09:22.000Z</Time>
            <Position>
              <LatitudeDegrees>37.71758417598903179168701171875</LatitudeDegrees>
              <LongitudeDegrees>-8.08672732673585414886474609375</LongitudeDegrees>
            </Position>
            <AltitudeMeters>207.8000030517578125</AltitudeMeters>
            <DistanceMeters>295348.01424311</DistanceMeters>
          </Trackpoint>
          <Trackpoint>
            <Time>2018-09-14T14:09:23.000Z</Time>
            <Position>
              <LatitudeDegrees>37.71752986125648021697998046875</LatitudeDegrees>
              <LongitudeDegrees>-8.0867138318717479705810546875</LongitudeDegrees>
            </Position>
            <AltitudeMeters>207.8000030517578125</AltitudeMeters>
            <DistanceMeters>295354.17560995</DistanceMeters>
          </Trackpoint>
          <Trackpoint>
            <Time>2018-09-14T14:09:24.000Z</Time>
            <Position>
              <LatitudeDegrees>37.71747529506683349609375</LatitudeDegrees>
              <LongitudeDegrees>-8.0867017619311809539794921875</LongitudeDegrees>
            </Position>
            <AltitudeMeters>208</AltitudeMeters>
            <DistanceMeters>295360.34137202</DistanceMeters>
          </Trackpoint>
          <Trackpoint>
            <Time>2018-09-14T14:09:25.000Z</Time>
            <Position>
              <LatitudeDegrees>37.7174194715917110443115234375</LatitudeDegrees>
              <LongitudeDegrees>-8.086689524352550506591796875</LongitudeDegrees>
            </Position>
            <AltitudeMeters>208.1999969482421875</AltitudeMeters>
            <DistanceMeters>295366.64759566</DistanceMeters>
          </Trackpoint>
          <Trackpoint>
            <Time>2018-09-14T14:09:26.000Z</Time>
            <Position>
              <LatitudeDegrees>37.7173641510307788848876953125</LatitudeDegrees>
              <LongitudeDegrees>-8.08667686767876148223876953125</LongitudeDegrees>
            </Position>
            <AltitudeMeters>208.600006103515625</AltitudeMeters>
            <DistanceMeters>295372.90566578</DistanceMeters>
          </Trackpoint>
          <Trackpoint>
            <Time>2018-09-14T14:09:27.000Z</Time>
            <Position>
              <LatitudeDegrees>37.71730841137468814849853515625</LatitudeDegrees>
              <LongitudeDegrees>-8.08666370809078216552734375</LongitudeDegrees>
            </Position>
            <AltitudeMeters>208.8000030517578125</AltitudeMeters>
            <DistanceMeters>295379.21761454</DistanceMeters>
          </Trackpoint>
          <Trackpoint>
            <Time>2018-09-14T14:09:28.000Z</Time>
            <Position>
              <LatitudeDegrees>37.7172525040805339813232421875</LatitudeDegrees>
              <LongitudeDegrees>-8.0866504646837711334228515625</LongitudeDegrees>
            </Position>
            <AltitudeMeters>209</AltitudeMeters>
            <DistanceMeters>295385.54813421</DistanceMeters>
          </Trackpoint>
          <Trackpoint>
            <Time>2018-09-14T14:09:29.000Z</Time>
            <Position>
              <LatitudeDegrees>37.7171965129673480987548828125</LatitudeDegrees>
              <LongitudeDegrees>-8.08663730509579181671142578125</LongitudeDegrees>
            </Position>
            <AltitudeMeters>209.1999969482421875</AltitudeMeters>
            <DistanceMeters>295391.88720671</DistanceMeters>
          </Trackpoint>
          <Trackpoint>
            <Time>2018-09-14T14:09:30.000Z</Time>
            <Position>
              <LatitudeDegrees>37.71714077331125736236572265625</LatitudeDegrees>
              <LongitudeDegrees>-8.0866236425936222076416015625</LongitudeDegrees>
            </Position>
            <AltitudeMeters>209.399993896484375</AltitudeMeters>
            <DistanceMeters>295398.20630459</DistanceMeters>
          </Trackpoint>
          <Trackpoint>
            <Time>2018-09-14T14:09:31.000Z</Time>
            <Position>
              <LatitudeDegrees>37.717085368931293487548828125</LatitudeDegrees>
              <LongitudeDegrees>-8.08661006391048431396484375</LongitudeDegrees>
            </Position>
            <AltitudeMeters>209.600006103515625</AltitudeMeters>
            <DistanceMeters>295404.48741946</DistanceMeters>
          </Trackpoint>
          <Trackpoint>
            <Time>2018-09-14T14:09:32.000Z</Time>
            <Position>
              <LatitudeDegrees>37.71703029982745647430419921875</LatitudeDegrees>
              <LongitudeDegrees>-8.08659690432250499725341796875</LongitudeDegrees>
            </Position>
            <AltitudeMeters>209.8000030517578125</AltitudeMeters>
            <DistanceMeters>295410.72453172</DistanceMeters>
          </Trackpoint>
          <Trackpoint>
            <Time>2018-09-14T14:09:33.000Z</Time>
            <Position>
              <LatitudeDegrees>37.7169752307236194610595703125</LatitudeDegrees>
              <LongitudeDegrees>-8.0865837447345256805419921875</LongitudeDegrees>
            </Position>
            <AltitudeMeters>210</AltitudeMeters>
            <DistanceMeters>295416.96164398</DistanceMeters>
          </Trackpoint>
          <Trackpoint>
            <Time>2018-09-14T14:09:34.000Z</Time>
            <Position>
              <LatitudeDegrees>37.71691999398171901702880859375</LatitudeDegrees>
              <LongitudeDegrees>-8.0865703336894512176513671875</LongitudeDegrees>
            </Position>
            <AltitudeMeters>210.1999969482421875</AltitudeMeters>
            <DistanceMeters>295423.22187814</DistanceMeters>
          </Trackpoint>
          <Trackpoint>
            <Time>2018-09-14T14:09:35.000Z</Time>
            <Position>
              <LatitudeDegrees>37.71686517633497714996337890625</LatitudeDegrees>
              <LongitudeDegrees>-8.08655767701566219329833984375</LongitudeDegrees>
            </Position>
            <AltitudeMeters>210.399993896484375</AltitudeMeters>
            <DistanceMeters>295429.42414592</DistanceMeters>
          </Trackpoint>
          <Trackpoint>
            <Time>2018-09-14T14:09:36.000Z</Time>
            <Position>
              <LatitudeDegrees>37.716809771955013275146484375</LatitudeDegrees>
              <LongitudeDegrees>-8.08654443360865116119384765625</LongitudeDegrees>
            </Position>
            <AltitudeMeters>210.600006103515625</AltitudeMeters>
            <DistanceMeters>295435.70022698</DistanceMeters>
          </Trackpoint>
          <Trackpoint>
            <Time>2018-09-14T14:09:37.000Z</Time>
            <Position>
              <LatitudeDegrees>37.71675311028957366943359375</LatitudeDegrees>
              <LongitudeDegrees>-8.08653018437325954437255859375</LongitudeDegrees>
            </Position>
            <AltitudeMeters>211</AltitudeMeters>
            <DistanceMeters>295442.13122614</DistanceMeters>
          </Trackpoint>
          <Trackpoint>
            <Time>2018-09-14T14:09:38.000Z</Time>
            <Position>
              <LatitudeDegrees>37.71669686771929264068603515625</LatitudeDegrees>
              <LongitudeDegrees>-8.0865166895091533660888671875</LongitudeDegrees>
            </Position>
            <AltitudeMeters>211.1999969482421875</AltitudeMeters>
            <DistanceMeters>295448.50297815</DistanceMeters>
          </Trackpoint>
          <Trackpoint>
            <Time>2018-09-14T14:09:39.000Z</Time>
            <Position>
              <LatitudeDegrees>37.71664070896804332733154296875</LatitudeDegrees>
              <LongitudeDegrees>-8.086503446102142333984375</LongitudeDegrees>
            </Position>
            <AltitudeMeters>211</AltitudeMeters>
            <DistanceMeters>295454.86196252</DistanceMeters>
          </Trackpoint>
          <Trackpoint>
            <Time>2018-09-14T14:09:40.000Z</Time>
            <Position>
              <LatitudeDegrees>37.71658555604517459869384765625</LatitudeDegrees>
              <LongitudeDegrees>-8.08649129234254360198974609375</LongitudeDegrees>
            </Position>
            <AltitudeMeters>210.8000030517578125</AltitudeMeters>
            <DistanceMeters>295461.0932809</DistanceMeters>
          </Trackpoint>
          <Trackpoint>
            <Time>2018-09-14T14:09:41.000Z</Time>
            <Position>
              <LatitudeDegrees>37.71653048694133758544921875</LatitudeDegrees>
              <LongitudeDegrees>-8.08647905476391315460205078125</LongitudeDegrees>
            </Position>
            <AltitudeMeters>210.8000030517578125</AltitudeMeters>
            <DistanceMeters>295467.31589834</DistanceMeters>
          </Trackpoint>
          <Trackpoint>
            <Time>2018-09-14T14:09:42.000Z</Time>
            <Position>
              <LatitudeDegrees>37.71647525019943714141845703125</LatitudeDegrees>
              <LongitudeDegrees>-8.08646664954721927642822265625</LongitudeDegrees>
            </Position>
            <AltitudeMeters>210.600006103515625</AltitudeMeters>
            <DistanceMeters>295473.56024539</DistanceMeters>
          </Trackpoint>
          <Trackpoint>
            <Time>2018-09-14T14:09:43.000Z</Time>
            <Position>
              <LatitudeDegrees>37.716420181095600128173828125</LatitudeDegrees>
              <LongitudeDegrees>-8.086453489959239959716796875</LongitudeDegrees>
            </Position>
            <AltitudeMeters>210.600006103515625</AltitudeMeters>
            <DistanceMeters>295479.79880528</DistanceMeters>
          </Trackpoint>
          <Trackpoint>
            <Time>2018-09-14T14:09:44.000Z</Time>
            <Position>
              <LatitudeDegrees>37.7163660340011119842529296875</LatitudeDegrees>
              <LongitudeDegrees>-8.08643974363803863525390625</LongitudeDegrees>
            </Position>
            <AltitudeMeters>210.399993896484375</AltitudeMeters>
            <DistanceMeters>295485.94549869</DistanceMeters>
          </Trackpoint>
          <Trackpoint>
            <Time>2018-09-14T14:09:45.000Z</Time>
            <Position>
              <LatitudeDegrees>37.71631197072565555572509765625</LatitudeDegrees>
              <LongitudeDegrees>-8.0864270031452178955078125</LongitudeDegrees>
            </Position>
            <AltitudeMeters>210.399993896484375</AltitudeMeters>
            <DistanceMeters>295492.06716653</DistanceMeters>
          </Trackpoint>
          <Trackpoint>
            <Time>2018-09-14T14:09:46.000Z</Time>
            <Position>
              <LatitudeDegrees>37.71625799126923084259033203125</LatitudeDegrees>
              <LongitudeDegrees>-8.0864147655665874481201171875</LongitudeDegrees>
            </Position>
            <AltitudeMeters>210.1999969482421875</AltitudeMeters>
            <DistanceMeters>295498.17110751</DistanceMeters>
          </Trackpoint>
          <Trackpoint>
            <Time>2018-09-14T14:09:47.000Z</Time>
            <Position>
              <LatitudeDegrees>37.71620417945086956024169921875</LatitudeDegrees>
              <LongitudeDegrees>-8.0864020250737667083740234375</LongitudeDegrees>
            </Position>
            <AltitudeMeters>210.1999969482421875</AltitudeMeters>
            <DistanceMeters>295504.26468399</DistanceMeters>
          </Trackpoint>
          <Trackpoint>
            <Time>2018-09-14T14:09:48.000Z</Time>
            <Position>
              <LatitudeDegrees>37.7161504514515399932861328125</LatitudeDegrees>
              <LongitudeDegrees>-8.08638769201934337615966796875</LongitudeDegrees>
            </Position>
            <AltitudeMeters>210.399993896484375</AltitudeMeters>
            <DistanceMeters>295510.37601741</DistanceMeters>
          </Trackpoint>
          <Trackpoint>
            <Time>2018-09-14T14:09:49.000Z</Time>
            <Position>
              <LatitudeDegrees>37.71609705872833728790283203125</LatitudeDegrees>
              <LongitudeDegrees>-8.08637361042201519012451171875</LongitudeDegrees>
            </Position>
            <AltitudeMeters>210.399993896484375</AltitudeMeters>
            <DistanceMeters>295516.44583717</DistanceMeters>
          </Trackpoint>
          <Trackpoint>
            <Time>2018-09-14T14:09:50.000Z</Time>
            <Position>
              <LatitudeDegrees>37.71604341454803943634033203125</LatitudeDegrees>
              <LongitudeDegrees>-8.08636003173887729644775390625</LongitudeDegrees>
            </Position>
            <AltitudeMeters>210.600006103515625</AltitudeMeters>
            <DistanceMeters>295522.53496632</DistanceMeters>
          </Trackpoint>
          <Trackpoint>
            <Time>2018-09-14T14:09:51.000Z</Time>
            <Position>
              <LatitudeDegrees>37.71598977036774158477783203125</LatitudeDegrees>
              <LongitudeDegrees>-8.08634494431316852569580078125</LongitudeDegrees>
            </Position>
            <AltitudeMeters>210.8000030517578125</AltitudeMeters>
            <DistanceMeters>295528.65146914</DistanceMeters>
          </Trackpoint>
          <Trackpoint>
            <Time>2018-09-14T14:09:52.000Z</Time>
            <Position>
              <LatitudeDegrees>37.71593637764453887939453125</LatitudeDegrees>
              <LongitudeDegrees>-8.0863299407064914703369140625</LongitudeDegrees>
            </Position>
            <AltitudeMeters>210.8000030517578125</AltitudeMeters>
            <DistanceMeters>295534.73837341</DistanceMeters>
          </Trackpoint>
          <Trackpoint>
            <Time>2018-09-14T14:09:53.000Z</Time>
            <Position>
              <LatitudeDegrees>37.71588264964520931243896484375</LatitudeDegrees>
              <LongitudeDegrees>-8.08631644584238529205322265625</LongitudeDegrees>
            </Position>
            <AltitudeMeters>211</AltitudeMeters>
            <DistanceMeters>295540.83491298</DistanceMeters>
          </Trackpoint>
          <Trackpoint>
            <Time>2018-09-14T14:09:54.000Z</Time>
            <Position>
              <LatitudeDegrees>37.71582934074103832244873046875</LatitudeDegrees>
              <LongitudeDegrees>-8.086303286254405975341796875</LongitudeDegrees>
            </Position>
            <AltitudeMeters>211</AltitudeMeters>
            <DistanceMeters>295546.88088266</DistanceMeters>
          </Trackpoint>
          <Trackpoint>
            <Time>2018-09-14T14:09:55.000Z</Time>
            <Position>
              <LatitudeDegrees>37.71577603183686733245849609375</LatitudeDegrees>
              <LongitudeDegrees>-8.0862910486757755279541015625</LongitudeDegrees>
            </Position>
            <AltitudeMeters>211.1999969482421875</AltitudeMeters>
            <DistanceMeters>295552.91189816</DistanceMeters>
          </Trackpoint>
          <Trackpoint>
            <Time>2018-09-14T14:09:56.000Z</Time>
            <Position>
              <LatitudeDegrees>37.7157226391136646270751953125</LatitudeDegrees>
              <LongitudeDegrees>-8.08627956546843051910400390625</LongitudeDegrees>
            </Position>
            <AltitudeMeters>211.1999969482421875</AltitudeMeters>
            <DistanceMeters>295558.93991837</DistanceMeters>
          </Trackpoint>
          <Trackpoint>
            <Time>2018-09-14T14:09:57.000Z</Time>
            <Position>
              <LatitudeDegrees>37.7156693302094936370849609375</LatitudeDegrees>
              <LongitudeDegrees>-8.08626766316592693328857421875</LongitudeDegrees>
            </Position>
            <AltitudeMeters>211.1999969482421875</AltitudeMeters>
            <DistanceMeters>295564.96494179</DistanceMeters>
          </Trackpoint>
          <Trackpoint>
            <Time>2018-09-14T14:09:58.000Z</Time>
            <Position>
              <LatitudeDegrees>37.71561644040048122406005859375</LatitudeDegrees>
              <LongitudeDegrees>-8.0862553417682647705078125</LongitudeDegrees>
            </Position>
            <AltitudeMeters>211.399993896484375</AltitudeMeters>
            <DistanceMeters>295570.95087057</DistanceMeters>
          </Trackpoint>
          <Trackpoint>
            <Time>2018-09-14T14:09:59.000Z</Time>
            <Position>
              <LatitudeDegrees>37.715562880039215087890625</LatitudeDegrees>
              <LongitudeDegrees>-8.0862437747418880462646484375</LongitudeDegrees>
            </Position>
            <AltitudeMeters>211.399993896484375</AltitudeMeters>
            <DistanceMeters>295576.99833364</DistanceMeters>
          </Trackpoint>
          <Trackpoint>
            <Time>2018-09-14T14:10:00.000Z</Time>
            <Position>
              <LatitudeDegrees>37.71550948731601238250732421875</LatitudeDegrees>
              <LongitudeDegrees>-8.08623229153454303741455078125</LongitudeDegrees>
            </Position>
            <AltitudeMeters>211.399993896484375</AltitudeMeters>
            <DistanceMeters>295583.02635385</DistanceMeters>
          </Trackpoint>
          <Trackpoint>
            <Time>2018-09-14T14:10:01.000Z</Time>
            <Position>
              <LatitudeDegrees>37.7154560945928096771240234375</LatitudeDegrees>
              <LongitudeDegrees>-8.0862199701368808746337890625</LongitudeDegrees>
            </Position>
            <AltitudeMeters>211.399993896484375</AltitudeMeters>
            <DistanceMeters>295589.06709378</DistanceMeters>
          </Trackpoint>
          <Trackpoint>
            <Time>2018-09-14T14:10:02.000Z</Time>
            <Position>
              <LatitudeDegrees>37.7154027856886386871337890625</LatitudeDegrees>
              <LongitudeDegrees>-8.0862068943679332733154296875</LongitudeDegrees>
            </Position>
            <AltitudeMeters>211.600006103515625</AltitudeMeters>
            <DistanceMeters>295595.11156971</DistanceMeters>
          </Trackpoint>
          <Trackpoint>
            <Time>2018-09-14T14:10:03.000Z</Time>
            <Position>
              <LatitudeDegrees>37.71534956060349941253662109375</LatitudeDegrees>
              <LongitudeDegrees>-8.08619390241801738739013671875</LongitudeDegrees>
            </Position>
            <AltitudeMeters>211.600006103515625</AltitudeMeters>
            <DistanceMeters>295601.1448307</DistanceMeters>
          </Trackpoint>
          <Trackpoint>
            <Time>2018-09-14T14:10:04.000Z</Time>
            <Position>
              <LatitudeDegrees>37.7152961678802967071533203125</LatitudeDegrees>
              <LongitudeDegrees>-8.08618216775357723236083984375</LongitudeDegrees>
            </Position>
            <AltitudeMeters>211.600006103515625</AltitudeMeters>
            <DistanceMeters>295607.17659479</DistanceMeters>
          </Trackpoint>
          <Trackpoint>
            <Time>2018-09-14T14:10:05.000Z</Time>
            <Position>
              <LatitudeDegrees>37.71524302661418914794921875</LatitudeDegrees>
              <LongitudeDegrees>-8.0861700139939785003662109375</LongitudeDegrees>
            </Position>
            <AltitudeMeters>211.8000030517578125</AltitudeMeters>
            <DistanceMeters>295613.18736311</DistanceMeters>
          </Trackpoint>
          <Trackpoint>
            <Time>2018-09-14T14:10:06.000Z</Time>
            <Position>
              <LatitudeDegrees>37.71519047208130359649658203125</LatitudeDegrees>
              <LongitudeDegrees>-8.08615702204406261444091796875</LongitudeDegrees>
            </Position>
            <AltitudeMeters>211.8000030517578125</AltitudeMeters>
            <DistanceMeters>295619.14759136</DistanceMeters>
          </Trackpoint>
          <Trackpoint>
            <Time>2018-09-14T14:10:07.000Z</Time>
            <Position>
              <LatitudeDegrees>37.7151382528245449066162109375</LatitudeDegrees>
              <LongitudeDegrees>-8.08614377863705158233642578125</LongitudeDegrees>
            </Position>
            <AltitudeMeters>211.8000030517578125</AltitudeMeters>
            <DistanceMeters>295625.07591806</DistanceMeters>
          </Trackpoint>
          <Trackpoint>
            <Time>2018-09-14T14:10:08.000Z</Time>
            <Position>
              <LatitudeDegrees>37.71508703939616680145263671875</LatitudeDegrees>
              <LongitudeDegrees>-8.08612994849681854248046875</LongitudeDegrees>
            </Position>
            <AltitudeMeters>212</AltitudeMeters>
            <DistanceMeters>295630.90439536</DistanceMeters>
          </Trackpoint>
          <Trackpoint>
            <Time>2018-09-14T14:10:09.000Z</Time>
            <Position>
              <LatitudeDegrees>37.71503624506294727325439453125</LatitudeDegrees>
              <LongitudeDegrees>-8.08611477725207805633544921875</LongitudeDegrees>
            </Position>
            <AltitudeMeters>212</AltitudeMeters>
            <DistanceMeters>295636.71425127</DistanceMeters>
          </Trackpoint>
          <Trackpoint>
            <Time>2018-09-14T14:10:10.000Z</Time>
            <Position>
              <LatitudeDegrees>37.7149863727390766143798828125</LatitudeDegrees>
              <LongitudeDegrees>-8.08609952218830585479736328125</LongitudeDegrees>
            </Position>
            <AltitudeMeters>212</AltitudeMeters>
            <DistanceMeters>295642.4253489</DistanceMeters>
          </Trackpoint>
          <Trackpoint>
            <Time>2018-09-14T14:10:11.000Z</Time>
            <Position>
              <LatitudeDegrees>37.71493599750101566314697265625</LatitudeDegrees>
              <LongitudeDegrees>-8.0860855244100093841552734375</LongitudeDegrees>
            </Position>
            <AltitudeMeters>212.1999969482421875</AltitudeMeters>
            <DistanceMeters>295648.16562319</DistanceMeters>
          </Trackpoint>
          <Trackpoint>
            <Time>2018-09-14T14:10:12.000Z</Time>
            <Position>
              <LatitudeDegrees>37.71488436497747898101806640625</LatitudeDegrees>
              <LongitudeDegrees>-8.0860731191933155059814453125</LongitudeDegrees>
            </Position>
            <AltitudeMeters>212.1999969482421875</AltitudeMeters>
            <DistanceMeters>295654.01575051</DistanceMeters>
          </Trackpoint>
          <Trackpoint>
            <Time>2018-09-14T14:10:13.000Z</Time>
            <Position>
              <LatitudeDegrees>37.71483105607330799102783203125</LatitudeDegrees>
              <LongitudeDegrees>-8.08606289327144622802734375</LongitudeDegrees>
            </Position>
            <AltitudeMeters>212.399993896484375</AltitudeMeters>
            <DistanceMeters>295660.01674584</DistanceMeters>
          </Trackpoint>
          <Trackpoint>
            <Time>2018-09-14T14:10:14.000Z</Time>
            <Position>
              <LatitudeDegrees>37.714777328073978424072265625</LatitudeDegrees>
              <LongitudeDegrees>-8.08605308644473552703857421875</LongitudeDegrees>
            </Position>
            <AltitudeMeters>212.600006103515625</AltitudeMeters>
            <DistanceMeters>295666.05898045</DistanceMeters>
          </Trackpoint>
          <Trackpoint>
            <Time>2018-09-14T14:10:15.000Z</Time>
            <Position>
              <LatitudeDegrees>37.714723683893680572509765625</LatitudeDegrees>
              <LongitudeDegrees>-8.086042106151580810546875</LongitudeDegrees>
            </Position>
            <AltitudeMeters>212.8000030517578125</AltitudeMeters>
            <DistanceMeters>295672.10719007</DistanceMeters>
          </Trackpoint>
          <Trackpoint>
            <Time>2018-09-14T14:10:16.000Z</Time>
            <Position>
              <LatitudeDegrees>37.71467029117047786712646484375</LatitudeDegrees>
              <LongitudeDegrees>-8.086030371487140655517578125</LongitudeDegrees>
            </Position>
            <AltitudeMeters>213</AltitudeMeters>
            <DistanceMeters>295678.13970265</DistanceMeters>
          </Trackpoint>
          <Trackpoint>
            <Time>2018-09-14T14:10:17.000Z</Time>
            <Position>
              <LatitudeDegrees>37.71461748518049716949462890625</LatitudeDegrees>
              <LongitudeDegrees>-8.08601838536560535430908203125</LongitudeDegrees>
            </Position>
            <AltitudeMeters>213.1999969482421875</AltitudeMeters>
            <DistanceMeters>295684.111283</DistanceMeters>
          </Trackpoint>
          <Trackpoint>
            <Time>2018-09-14T14:10:18.000Z</Time>
            <Position>
              <LatitudeDegrees>37.71456484682857990264892578125</LatitudeDegrees>
              <LongitudeDegrees>-8.0860067345201969146728515625</LongitudeDegrees>
            </Position>
            <AltitudeMeters>213.600006103515625</AltitudeMeters>
            <DistanceMeters>295690.05937846</DistanceMeters>
          </Trackpoint>
          <Trackpoint>
            <Time>2018-09-14T14:10:19.000Z</Time>
            <Position>
              <LatitudeDegrees>37.71451254375278949737548828125</LatitudeDegrees>
              <LongitudeDegrees>-8.0859946645796298980712890625</LongitudeDegrees>
            </Position>
            <AltitudeMeters>213.8000030517578125</AltitudeMeters>
            <DistanceMeters>295695.9770331</DistanceMeters>
          </Trackpoint>
          <Trackpoint>
            <Time>2018-09-14T14:10:20.000Z</Time>
            <Position>
              <LatitudeDegrees>37.71446107886731624603271484375</LatitudeDegrees>
              <LongitudeDegrees>-8.08598376810550689697265625</LongitudeDegrees>
            </Position>
            <AltitudeMeters>214</AltitudeMeters>
            <DistanceMeters>295701.78533454</DistanceMeters>
          </Trackpoint>
          <Trackpoint>
            <Time>2018-09-14T14:10:21.000Z</Time>
            <Position>
              <LatitudeDegrees>37.714409865438938140869140625</LatitudeDegrees>
              <LongitudeDegrees>-8.0859722010791301727294921875</LongitudeDegrees>
            </Position>
            <AltitudeMeters>214.1999969482421875</AltitudeMeters>
            <DistanceMeters>295707.5757295</DistanceMeters>
          </Trackpoint>
          <Trackpoint>
            <Time>2018-09-14T14:10:22.000Z</Time>
            <Position>
              <LatitudeDegrees>37.71435949020087718963623046875</LatitudeDegrees>
              <LongitudeDegrees>-8.0859581194818019866943359375</LongitudeDegrees>
            </Position>
            <AltitudeMeters>214.399993896484375</AltitudeMeters>
            <DistanceMeters>295713.31836297</DistanceMeters>
          </Trackpoint>
          <Trackpoint>
            <Time>2018-09-14T14:10:23.000Z</Time>
            <Position>
              <LatitudeDegrees>37.71430986933410167694091796875</LatitudeDegrees>
              <LongitudeDegrees>-8.08594445697963237762451171875</LongitudeDegrees>
            </Position>
            <AltitudeMeters>214.600006103515625</AltitudeMeters>
            <DistanceMeters>295718.97065547</DistanceMeters>
          </Trackpoint>
          <Trackpoint>
            <Time>2018-09-14T14:10:24.000Z</Time>
            <Position>
              <LatitudeDegrees>37.71426058374345302581787109375</LatitudeDegrees>
              <LongitudeDegrees>-8.0859333090484142303466796875</LongitudeDegrees>
            </Position>
            <AltitudeMeters>214.8000030517578125</AltitudeMeters>
            <DistanceMeters>295724.54249563</DistanceMeters>
          </Trackpoint>
          <Trackpoint>
            <Time>2018-09-14T14:10:25.000Z</Time>
            <Position>
              <LatitudeDegrees>37.71421129815280437469482421875</LatitudeDegrees>
              <LongitudeDegrees>-8.0859232507646083831787109375</LongitudeDegrees>
            </Position>
            <AltitudeMeters>215</AltitudeMeters>
            <DistanceMeters>295730.09973068</DistanceMeters>
          </Trackpoint>
          <Trackpoint>
            <Time>2018-09-14T14:10:26.000Z</Time>
            <Position>
              <LatitudeDegrees>37.71416218020021915435791015625</LatitudeDegrees>
              <LongitudeDegrees>-8.0859128572046756744384765625</LongitudeDegrees>
            </Position>
            <AltitudeMeters>215</AltitudeMeters>
            <DistanceMeters>295735.64395112</DistanceMeters>
          </Trackpoint>
          <Trackpoint>
            <Time>2018-09-14T14:10:27.000Z</Time>
            <Position>
              <LatitudeDegrees>37.71411373279988765716552734375</LatitudeDegrees>
              <LongitudeDegrees>-8.08590103872120380401611328125</LongitudeDegrees>
            </Position>
            <AltitudeMeters>215</AltitudeMeters>
            <DistanceMeters>295741.13580466</DistanceMeters>
          </Trackpoint>
          <Trackpoint>
            <Time>2018-09-14T14:10:28.000Z</Time>
            <Position>
              <LatitudeDegrees>37.71406629122793674468994140625</LatitudeDegrees>
              <LongitudeDegrees>-8.08588846586644649505615234375</LongitudeDegrees>
            </Position>
            <AltitudeMeters>214.8000030517578125</AltitudeMeters>
            <DistanceMeters>295746.53144794</DistanceMeters>
          </Trackpoint>
          <Trackpoint>
            <Time>2018-09-14T14:10:29.000Z</Time>
            <Position>
              <LatitudeDegrees>37.7140187658369541168212890625</LatitudeDegrees>
              <LongitudeDegrees>-8.08587622828781604766845703125</LongitudeDegrees>
            </Position>
            <AltitudeMeters>214.8000030517578125</AltitudeMeters>
            <DistanceMeters>295751.92876455</DistanceMeters>
          </Trackpoint>
          <Trackpoint>
            <Time>2018-09-14T14:10:30.000Z</Time>
            <Position>
              <LatitudeDegrees>37.71397107280790805816650390625</LatitudeDegrees>
              <LongitudeDegrees>-8.085864074528217315673828125</LongitudeDegrees>
            </Position>
            <AltitudeMeters>214.8000030517578125</AltitudeMeters>
            <DistanceMeters>295757.34445364</DistanceMeters>
          </Trackpoint>
          <Trackpoint>
            <Time>2018-09-14T14:10:31.000Z</Time>
            <Position>
              <LatitudeDegrees>37.71392346359789371490478515625</LatitudeDegrees>
              <LongitudeDegrees>-8.08585158549249172210693359375</LongitudeDegrees>
            </Position>
            <AltitudeMeters>214.8000030517578125</AltitudeMeters>
            <DistanceMeters>295762.75597264</DistanceMeters>
          </Trackpoint>
          <Trackpoint>
            <Time>2018-09-14T14:10:32.000Z</Time>
            <Position>
              <LatitudeDegrees>37.7138752676546573638916015625</LatitudeDegrees>
              <LongitudeDegrees>-8.08583985082805156707763671875</LongitudeDegrees>
            </Position>
            <AltitudeMeters>214.600006103515625</AltitudeMeters>
            <DistanceMeters>295768.21814919</DistanceMeters>
          </Trackpoint>
          <Trackpoint>
            <Time>2018-09-14T14:10:33.000Z</Time>
            <Position>
              <LatitudeDegrees>37.71382656879723072052001953125</LatitudeDegrees>
              <LongitudeDegrees>-8.0858303792774677276611328125</LongitudeDegrees>
            </Position>
            <AltitudeMeters>214.600006103515625</AltitudeMeters>
            <DistanceMeters>295773.70177523</DistanceMeters>
          </Trackpoint>
          <Trackpoint>
            <Time>2018-09-14T14:10:34.000Z</Time>
            <Position>
              <LatitudeDegrees>37.71377778612077236175537109375</LatitudeDegrees>
              <LongitudeDegrees>-8.08582040481269359588623046875</LongitudeDegrees>
            </Position>
            <AltitudeMeters>214.600006103515625</AltitudeMeters>
            <DistanceMeters>295779.20102299</DistanceMeters>
          </Trackpoint>
          <Trackpoint>
            <Time>2018-09-14T14:10:35.000Z</Time>
            <Position>
              <LatitudeDegrees>37.71372967399656772613525390625</LatitudeDegrees>
              <LongitudeDegrees>-8.08580749668180942535400390625</LongitudeDegrees>
            </Position>
            <AltitudeMeters>214.399993896484375</AltitudeMeters>
            <DistanceMeters>295784.67475971</DistanceMeters>
          </Trackpoint>
          <Trackpoint>
            <Time>2018-09-14T14:10:36.000Z</Time>
            <Position>
              <LatitudeDegrees>37.713681645691394805908203125</LatitudeDegrees>
              <LongitudeDegrees>-8.08579467236995697021484375</LongitudeDegrees>
            </Position>
            <AltitudeMeters>214.399993896484375</AltitudeMeters>
            <DistanceMeters>295790.1385892</DistanceMeters>
          </Trackpoint>
          <Trackpoint>
            <Time>2018-09-14T14:10:37.000Z</Time>
            <Position>
              <LatitudeDegrees>37.71363344974815845489501953125</LatitudeDegrees>
              <LongitudeDegrees>-8.08578520081937313079833984375</LongitudeDegrees>
            </Position>
            <AltitudeMeters>214.399993896484375</AltitudeMeters>
            <DistanceMeters>295795.56760104</DistanceMeters>
          </Trackpoint>
          <Trackpoint>
            <Time>2018-09-14T14:10:38.000Z</Time>
            <Position>
              <LatitudeDegrees>37.7135852538049221038818359375</LatitudeDegrees>
              <LongitudeDegrees>-8.085775561630725860595703125</LongitudeDegrees>
            </Position>
            <AltitudeMeters>214.1999969482421875</AltitudeMeters>
            <DistanceMeters>295800.99827592</DistanceMeters>
          </Trackpoint>
          <Trackpoint>
            <Time>2018-09-14T14:10:39.000Z</Time>
            <Position>
              <LatitudeDegrees>37.71353781223297119140625</LatitudeDegrees>
              <LongitudeDegrees>-8.08576391078531742095947265625</LongitudeDegrees>
            </Position>
            <AltitudeMeters>214.1999969482421875</AltitudeMeters>
            <DistanceMeters>295806.3771573</DistanceMeters>
          </Trackpoint>
          <Trackpoint>
            <Time>2018-09-14T14:10:40.000Z</Time>
            <Position>
              <LatitudeDegrees>37.7134900353848934173583984375</LatitudeDegrees>
              <LongitudeDegrees>-8.08575049974024295806884765625</LongitudeDegrees>
            </Position>
            <AltitudeMeters>214.1999969482421875</AltitudeMeters>
            <DistanceMeters>295811.82443471</DistanceMeters>
          </Trackpoint>
          <Trackpoint>
            <Time>2018-09-14T14:10:41.000Z</Time>
            <Position>
              <LatitudeDegrees>37.71344250999391078948974609375</LatitudeDegrees>
              <LongitudeDegrees>-8.08573775924742221832275390625</LongitudeDegrees>
            </Position>
            <AltitudeMeters>214.1999969482421875</AltitudeMeters>
            <DistanceMeters>295817.23178041</DistanceMeters>
          </Trackpoint>
          <Trackpoint>
            <Time>2018-09-14T14:10:42.000Z</Time>
            <Position>
              <LatitudeDegrees>37.71339389495551586151123046875</LatitudeDegrees>
              <LongitudeDegrees>-8.08572669513523578643798828125</LongitudeDegrees>
            </Position>
            <AltitudeMeters>214</AltitudeMeters>
            <DistanceMeters>295822.72938588</DistanceMeters>
          </Trackpoint>
          <Trackpoint>
            <Time>2018-09-14T14:10:43.000Z</Time>
            <Position>
              <LatitudeDegrees>37.71334527991712093353271484375</LatitudeDegrees>
              <LongitudeDegrees>-8.0857157148420810699462890625</LongitudeDegrees>
            </Position>
            <AltitudeMeters>214</AltitudeMeters>
            <DistanceMeters>295828.22617001</DistanceMeters>
          </Trackpoint>
          <Trackpoint>
            <Time>2018-09-14T14:10:44.000Z</Time>
            <Position>
              <LatitudeDegrees>37.713297419250011444091796875</LatitudeDegrees>
              <LongitudeDegrees>-8.0857029743492603302001953125</LongitudeDegrees>
            </Position>
            <AltitudeMeters>214.1999969482421875</AltitudeMeters>
            <DistanceMeters>295833.67013097</DistanceMeters>
          </Trackpoint>
          <Trackpoint>
            <Time>2018-09-14T14:10:45.000Z</Time>
            <Position>
              <LatitudeDegrees>37.71325006149709224700927734375</LatitudeDegrees>
              <LongitudeDegrees>-8.08569048531353473663330078125</LongitudeDegrees>
            </Position>
            <AltitudeMeters>214.1999969482421875</AltitudeMeters>
            <DistanceMeters>295839.0540464</DistanceMeters>
          </Trackpoint>
          <Trackpoint>
            <Time>2018-09-14T14:10:46.000Z</Time>
            <Position>
              <LatitudeDegrees>37.7132033742964267730712890625</LatitudeDegrees>
              <LongitudeDegrees>-8.08567908592522144317626953125</LongitudeDegrees>
            </Position>
            <AltitudeMeters>214.399993896484375</AltitudeMeters>
            <DistanceMeters>295844.34490994</DistanceMeters>
          </Trackpoint>
          <Trackpoint>
            <Time>2018-09-14T14:10:47.000Z</Time>
            <Position>
              <LatitudeDegrees>37.71315702237188816070556640625</LatitudeDegrees>
              <LongitudeDegrees>-8.08566735126078128814697265625</LongitudeDegrees>
            </Position>
            <AltitudeMeters>214.600006103515625</AltitudeMeters>
            <DistanceMeters>295849.60496262</DistanceMeters>
          </Trackpoint>
          <Trackpoint>
            <Time>2018-09-14T14:10:48.000Z</Time>
            <Position>
              <LatitudeDegrees>37.71311201155185699462890625</LatitudeDegrees>
              <LongitudeDegrees>-8.0856545269489288330078125</LongitudeDegrees>
            </Position>
            <AltitudeMeters>214.600006103515625</AltitudeMeters>
            <DistanceMeters>295854.7399235</DistanceMeters>
          </Trackpoint>
          <Trackpoint>
            <Time>2018-09-14T14:10:49.000Z</Time>
            <Position>
              <LatitudeDegrees>37.71306700073182582855224609375</LatitudeDegrees>
              <LongitudeDegrees>-8.0856436304748058319091796875</LongitudeDegrees>
            </Position>
            <AltitudeMeters>214.8000030517578125</AltitudeMeters>
            <DistanceMeters>295859.84136254</DistanceMeters>
          </Trackpoint>
          <Trackpoint>
            <Time>2018-09-14T14:10:50.000Z</Time>
            <Position>
              <LatitudeDegrees>37.7130223251879215240478515625</LatitudeDegrees>
              <LongitudeDegrees>-8.0856342427432537078857421875</LongitudeDegrees>
            </Position>
            <AltitudeMeters>214.8000030517578125</AltitudeMeters>
            <DistanceMeters>295864.8822588</DistanceMeters>
          </Trackpoint>
          <Trackpoint>
            <Time>2018-09-14T14:10:51.000Z</Time>
            <Position>
              <LatitudeDegrees>37.71297790110111236572265625</LatitudeDegrees>
              <LongitudeDegrees>-8.085624016821384429931640625</LongitudeDegrees>
            </Position>
            <AltitudeMeters>215</AltitudeMeters>
            <DistanceMeters>295869.90700693</DistanceMeters>
          </Trackpoint>
          <Trackpoint>
            <Time>2018-09-14T14:10:52.000Z</Time>
            <Position>
              <LatitudeDegrees>37.7129348181188106536865234375</LatitudeDegrees>
              <LongitudeDegrees>-8.085612617433071136474609375</LongitudeDegrees>
            </Position>
            <AltitudeMeters>215</AltitudeMeters>
            <DistanceMeters>295874.80618474</DistanceMeters>
          </Trackpoint>
          <Trackpoint>
            <Time>2018-09-14T14:10:53.000Z</Time>
            <Position>
              <LatitudeDegrees>37.712891064584255218505859375</LatitudeDegrees>
              <LongitudeDegrees>-8.08560415171086788177490234375</LongitudeDegrees>
            </Position>
            <AltitudeMeters>215.1999969482421875</AltitudeMeters>
            <DistanceMeters>295879.73201618</DistanceMeters>
          </Trackpoint>
          <Trackpoint>
            <Time>2018-09-14T14:10:54.000Z</Time>
            <Position>
              <LatitudeDegrees>37.7128479816019535064697265625</LatitudeDegrees>
              <LongitudeDegrees>-8.08559576980769634246826171875</LongitudeDegrees>
            </Position>
            <AltitudeMeters>215.1999969482421875</AltitudeMeters>
            <DistanceMeters>295884.58303455</DistanceMeters>
          </Trackpoint>
          <Trackpoint>
            <Time>2018-09-14T14:10:55.000Z</Time>
            <Position>
              <LatitudeDegrees>37.71280582062900066375732421875</LatitudeDegrees>
              <LongitudeDegrees>-8.08558487333357334136962890625</LongitudeDegrees>
            </Position>
            <AltitudeMeters>215</AltitudeMeters>
            <DistanceMeters>295889.37223011</DistanceMeters>
          </Trackpoint>
          <Trackpoint>
            <Time>2018-09-14T14:10:56.000Z</Time>
            <Position>
              <LatitudeDegrees>37.7127644978463649749755859375</LatitudeDegrees>
              <LongitudeDegrees>-8.08557473123073577880859375</LongitudeDegrees>
            </Position>
            <AltitudeMeters>215</AltitudeMeters>
            <DistanceMeters>295894.05657487</DistanceMeters>
          </Trackpoint>
          <Trackpoint>
            <Time>2018-09-14T14:10:57.000Z</Time>
            <Position>
              <LatitudeDegrees>37.7127235941588878631591796875</LatitudeDegrees>
              <LongitudeDegrees>-8.08556660078465938568115234375</LongitudeDegrees>
            </Position>
            <AltitudeMeters>214.8000030517578125</AltitudeMeters>
            <DistanceMeters>295898.66512559</DistanceMeters>
          </Trackpoint>
          <Trackpoint>
            <Time>2018-09-14T14:10:58.000Z</Time>
            <Position>
              <LatitudeDegrees>37.71268344484269618988037109375</LatitudeDegrees>
              <LongitudeDegrees>-8.0855588056147098541259765625</LongitudeDegrees>
            </Position>
            <AltitudeMeters>214.8000030517578125</AltitudeMeters>
            <DistanceMeters>295903.18564138</DistanceMeters>
          </Trackpoint>
          <Trackpoint>
            <Time>2018-09-14T14:10:59.000Z</Time>
            <Position>
              <LatitudeDegrees>37.712644301354885101318359375</LatitudeDegrees>
              <LongitudeDegrees>-8.08554966934025287628173828125</LongitudeDegrees>
            </Position>
            <AltitudeMeters>214.8000030517578125</AltitudeMeters>
            <DistanceMeters>295907.6163734</DistanceMeters>
          </Trackpoint>
          <Trackpoint>
            <Time>2018-09-14T14:11:00.000Z</Time>
            <Position>
              <LatitudeDegrees>37.71260649897158145904541015625</LatitudeDegrees>
              <LongitudeDegrees>-8.08553852140903472900390625</LongitudeDegrees>
            </Position>
            <AltitudeMeters>214.600006103515625</AltitudeMeters>
            <DistanceMeters>295911.93669376</DistanceMeters>
          </Trackpoint>
          <Trackpoint>
            <Time>2018-09-14T14:11:01.000Z</Time>
            <Position>
              <LatitudeDegrees>37.71256894804537296295166015625</LatitudeDegrees>
              <LongitudeDegrees>-8.0855282954871654510498046875</LongitudeDegrees>
            </Position>
            <AltitudeMeters>214.600006103515625</AltitudeMeters>
            <DistanceMeters>295916.21183992</DistanceMeters>
          </Trackpoint>
          <Trackpoint>
            <Time>2018-09-14T14:11:02.000Z</Time>
            <Position>
              <LatitudeDegrees>37.71253089420497417449951171875</LatitudeDegrees>
              <LongitudeDegrees>-8.08551966212689876556396484375</LongitudeDegrees>
            </Position>
            <AltitudeMeters>214.600006103515625</AltitudeMeters>
            <DistanceMeters>295920.5143574</DistanceMeters>
          </Trackpoint>
          <Trackpoint>
            <Time>2018-09-14T14:11:03.000Z</Time>
            <Position>
              <LatitudeDegrees>37.71249216981232166290283203125</LatitudeDegrees>
              <LongitudeDegrees>-8.0855115316808223724365234375</LongitudeDegrees>
            </Position>
            <AltitudeMeters>215</AltitudeMeters>
            <DistanceMeters>295924.88351998</DistanceMeters>
          </Trackpoint>
          <Trackpoint>
            <Time>2018-09-14T14:11:04.000Z</Time>
            <Position>
              <LatitudeDegrees>37.7124530263245105743408203125</LatitudeDegrees>
              <LongitudeDegrees>-8.08550356887280941009521484375</LongitudeDegrees>
            </Position>
            <AltitudeMeters>215.399993896484375</AltitudeMeters>
            <DistanceMeters>295929.29689453</DistanceMeters>
          </Trackpoint>
          <Trackpoint>
            <Time>2018-09-14T14:11:05.000Z</Time>
            <Position>
              <LatitudeDegrees>37.712413631379604339599609375</LatitudeDegrees>
              <LongitudeDegrees>-8.08549468405544757843017578125</LongitudeDegrees>
            </Position>
            <AltitudeMeters>215.600006103515625</AltitudeMeters>
            <DistanceMeters>295933.75201608</DistanceMeters>
          </Trackpoint>
          <Trackpoint>
            <Time>2018-09-14T14:11:06.000Z</Time>
            <Position>
              <LatitudeDegrees>37.71237432025372982025146484375</LatitudeDegrees>
              <LongitudeDegrees>-8.0854855477809906005859375</LongitudeDegrees>
            </Position>
            <AltitudeMeters>216</AltitudeMeters>
            <DistanceMeters>295938.20105278</DistanceMeters>
          </Trackpoint>
          <Trackpoint>
            <Time>2018-09-14T14:11:07.000Z</Time>
            <Position>
              <LatitudeDegrees>37.71233475767076015472412109375</LatitudeDegrees>
              <LongitudeDegrees>-8.08547657914459705352783203125</LongitudeDegrees>
            </Position>
            <AltitudeMeters>216.399993896484375</AltitudeMeters>
            <DistanceMeters>295942.67437921</DistanceMeters>
          </Trackpoint>
          <Trackpoint>
            <Time>2018-09-14T14:11:08.000Z</Time>
            <Position>
              <LatitudeDegrees>37.71229569800198078155517578125</LatitudeDegrees>
              <LongitudeDegrees>-8.08546668849885463714599609375</LongitudeDegrees>
            </Position>
            <AltitudeMeters>216.8000030517578125</AltitudeMeters>
            <DistanceMeters>295947.10714881</DistanceMeters>
          </Trackpoint>
          <Trackpoint>
            <Time>2018-09-14T14:11:09.000Z</Time>
            <Position>
              <LatitudeDegrees>37.71225747652351856231689453125</LatitudeDegrees>
              <LongitudeDegrees>-8.085453696548938751220703125</LongitudeDegrees>
            </Position>
            <AltitudeMeters>217.1999969482421875</AltitudeMeters>
            <DistanceMeters>295951.51130642</DistanceMeters>
          </Trackpoint>
          <Trackpoint>
            <Time>2018-09-14T14:11:10.000Z</Time>
            <Position>
              <LatitudeDegrees>37.71221959032118320465087890625</LatitudeDegrees>
              <LongitudeDegrees>-8.08543886058032512664794921875</LongitudeDegrees>
            </Position>
            <AltitudeMeters>217.600006103515625</AltitudeMeters>
            <DistanceMeters>295955.92672656</DistanceMeters>
          </Trackpoint>
          <Trackpoint>
            <Time>2018-09-14T14:11:11.000Z</Time>
            <Position>
              <LatitudeDegrees>37.7121814526617527008056640625</LatitudeDegrees>
              <LongitudeDegrees>-8.08542729355394840240478515625</LongitudeDegrees>
            </Position>
            <AltitudeMeters>218</AltitudeMeters>
            <DistanceMeters>295960.29278787</DistanceMeters>
          </Trackpoint>
          <Trackpoint>
            <Time>2018-09-14T14:11:12.000Z</Time>
            <Position>
              <LatitudeDegrees>37.71214297972619533538818359375</LatitudeDegrees>
              <LongitudeDegrees>-8.085420839488506317138671875</LongitudeDegrees>
            </Position>
            <AltitudeMeters>218.1999969482421875</AltitudeMeters>
            <DistanceMeters>295964.61206304</DistanceMeters>
          </Trackpoint>
          <Trackpoint>
            <Time>2018-09-14T14:11:13.000Z</Time>
            <Position>
              <LatitudeDegrees>37.712104506790637969970703125</LatitudeDegrees>
              <LongitudeDegrees>-8.08541648089885711669921875</LongitudeDegrees>
            </Position>
            <AltitudeMeters>218.600006103515625</AltitudeMeters>
            <DistanceMeters>295968.91038089</DistanceMeters>
          </Trackpoint>
          <Trackpoint>
            <Time>2018-09-14T14:11:14.000Z</Time>
            <Position>
              <LatitudeDegrees>37.71206586621701717376708984375</LatitudeDegrees>
              <LongitudeDegrees>-8.08541388250887393951416015625</LongitudeDegrees>
            </Position>
            <AltitudeMeters>219</AltitudeMeters>
            <DistanceMeters>295973.21709391</DistanceMeters>
          </Trackpoint>
          <Trackpoint>
            <Time>2018-09-14T14:11:15.000Z</Time>
            <Position>
              <LatitudeDegrees>37.712028063833713531494140625</LatitudeDegrees>
              <LongitudeDegrees>-8.08540969155728816986083984375</LongitudeDegrees>
            </Position>
            <AltitudeMeters>219.1999969482421875</AltitudeMeters>
            <DistanceMeters>295977.44017347</DistanceMeters>
          </Trackpoint>
          <Trackpoint>
            <Time>2018-09-14T14:11:16.000Z</Time>
            <Position>
              <LatitudeDegrees>37.711990177631378173828125</LatitudeDegrees>
              <LongitudeDegrees>-8.085402064025402069091796875</LongitudeDegrees>
            </Position>
            <AltitudeMeters>219.600006103515625</AltitudeMeters>
            <DistanceMeters>295981.70897825</DistanceMeters>
          </Trackpoint>
          <Trackpoint>
            <Time>2018-09-14T14:11:17.000Z</Time>
            <Position>
              <LatitudeDegrees>37.711951620876789093017578125</LatitudeDegrees>
              <LongitudeDegrees>-8.0853948555886745452880859375</LongitudeDegrees>
            </Position>
            <AltitudeMeters>220</AltitudeMeters>
            <DistanceMeters>295986.0459875</DistanceMeters>
          </Trackpoint>
          <Trackpoint>
            <Time>2018-09-14T14:11:18.000Z</Time>
            <Position>
              <LatitudeDegrees>37.71191298030316829681396484375</LatitudeDegrees>
              <LongitudeDegrees>-8.085387311875820159912109375</LongitudeDegrees>
            </Position>
            <AltitudeMeters>220.1999969482421875</AltitudeMeters>
            <DistanceMeters>295990.39650934</DistanceMeters>
          </Trackpoint>
          <Trackpoint>
            <Time>2018-09-14T14:11:19.000Z</Time>
            <Position>
              <LatitudeDegrees>37.7118750102818012237548828125</LatitudeDegrees>
              <LongitudeDegrees>-8.0853787623345851898193359375</LongitudeDegrees>
            </Position>
            <AltitudeMeters>220.600006103515625</AltitudeMeters>
            <DistanceMeters>295994.68852005</DistanceMeters>
          </Trackpoint>
          <Trackpoint>
            <Time>2018-09-14T14:11:20.000Z</Time>
            <Position>
              <LatitudeDegrees>37.7118377946317195892333984375</LatitudeDegrees>
              <LongitudeDegrees>-8.0853688716888427734375</LongitudeDegrees>
            </Position>
            <AltitudeMeters>220.8000030517578125</AltitudeMeters>
            <DistanceMeters>295998.92121088</DistanceMeters>
          </Trackpoint>
          <Trackpoint>
            <Time>2018-09-14T14:11:21.000Z</Time>
            <Position>
              <LatitudeDegrees>37.7118002437055110931396484375</LatitudeDegrees>
              <LongitudeDegrees>-8.0853586457669734954833984375</LongitudeDegrees>
            </Position>
            <AltitudeMeters>221.1999969482421875</AltitudeMeters>
            <DistanceMeters>296003.19424429</DistanceMeters>
          </Trackpoint>
          <Trackpoint>
            <Time>2018-09-14T14:11:22.000Z</Time>
            <Position>
              <LatitudeDegrees>37.711762525141239166259765625</LatitudeDegrees>
              <LongitudeDegrees>-8.08534950949251651763916015625</LongitudeDegrees>
            </Position>
            <AltitudeMeters>221.399993896484375</AltitudeMeters>
            <DistanceMeters>296007.46833421</DistanceMeters>
          </Trackpoint>
          <Trackpoint>
            <Time>2018-09-14T14:11:23.000Z</Time>
            <Position>
              <LatitudeDegrees>37.7117248065769672393798828125</LatitudeDegrees>
              <LongitudeDegrees>-8.08534112758934497833251953125</LongitudeDegrees>
            </Position>
            <AltitudeMeters>221.8000030517578125</AltitudeMeters>
            <DistanceMeters>296011.73078818</DistanceMeters>
          </Trackpoint>
          <Trackpoint>
            <Time>2018-09-14T14:11:24.000Z</Time>
            <Position>
              <LatitudeDegrees>37.71168750710785388946533203125</LatitudeDegrees>
              <LongitudeDegrees>-8.08533190749585628509521484375</LongitudeDegrees>
            </Position>
            <AltitudeMeters>222.1999969482421875</AltitudeMeters>
            <DistanceMeters>296015.96134506</DistanceMeters>
          </Trackpoint>
          <Trackpoint>
            <Time>2018-09-14T14:11:25.000Z</Time>
            <Position>
              <LatitudeDegrees>37.7116500400006771087646484375</LatitudeDegrees>
              <LongitudeDegrees>-8.08532302267849445343017578125</LongitudeDegrees>
            </Position>
            <AltitudeMeters>222.399993896484375</AltitudeMeters>
            <DistanceMeters>296020.20468954</DistanceMeters>
          </Trackpoint>
          <Trackpoint>
            <Time>2018-09-14T14:11:26.000Z</Time>
            <Position>
              <LatitudeDegrees>37.71161274053156375885009765625</LatitudeDegrees>
              <LongitudeDegrees>-8.0853150598704814910888671875</LongitudeDegrees>
            </Position>
            <AltitudeMeters>222.600006103515625</AltitudeMeters>
            <DistanceMeters>296024.41491995</DistanceMeters>
          </Trackpoint>
          <Trackpoint>
            <Time>2018-09-14T14:11:27.000Z</Time>
            <Position>
              <LatitudeDegrees>37.71157653070986270904541015625</LatitudeDegrees>
              <LongitudeDegrees>-8.08530692942440509796142578125</LongitudeDegrees>
            </Position>
            <AltitudeMeters>223</AltitudeMeters>
            <DistanceMeters>296028.50879609</DistanceMeters>
          </Trackpoint>
          <Trackpoint>
            <Time>2018-09-14T14:11:28.000Z</Time>
            <Position>
              <LatitudeDegrees>37.71154115907847881317138671875</LatitudeDegrees>
              <LongitudeDegrees>-8.08529821224510669708251953125</LongitudeDegrees>
            </Position>
            <AltitudeMeters>223.1999969482421875</AltitudeMeters>
            <DistanceMeters>296032.51910358</DistanceMeters>
          </Trackpoint>
          <Trackpoint>
            <Time>2018-09-14T14:11:29.000Z</Time>
            <Position>
              <LatitudeDegrees>37.71150545217096805572509765625</LatitudeDegrees>
              <LongitudeDegrees>-8.08528949506580829620361328125</LongitudeDegrees>
            </Position>
            <AltitudeMeters>223.399993896484375</AltitudeMeters>
            <DistanceMeters>296036.56639387</DistanceMeters>
          </Trackpoint>
          <Trackpoint>
            <Time>2018-09-14T14:11:30.000Z</Time>
            <Position>
              <LatitudeDegrees>37.71146957762539386749267578125</LatitudeDegrees>
              <LongitudeDegrees>-8.08528144843876361846923828125</LongitudeDegrees>
            </Position>
            <AltitudeMeters>223.600006103515625</AltitudeMeters>
            <DistanceMeters>296040.62148563</DistanceMeters>
          </Trackpoint>
          <Trackpoint>
            <Time>2018-09-14T14:11:31.000Z</Time>
            <Position>
              <LatitudeDegrees>37.71143437363207340240478515625</LatitudeDegrees>
              <LongitudeDegrees>-8.0852734856307506561279296875</LongitudeDegrees>
            </Position>
            <AltitudeMeters>223.8000030517578125</AltitudeMeters>
            <DistanceMeters>296044.60127885</DistanceMeters>
          </Trackpoint>
          <Trackpoint>
            <Time>2018-09-14T14:11:32.000Z</Time>
            <Position>
              <LatitudeDegrees>37.7113982476294040679931640625</LatitudeDegrees>
              <LongitudeDegrees>-8.0852661095559597015380859375</LongitudeDegrees>
            </Position>
            <AltitudeMeters>223.8000030517578125</AltitudeMeters>
            <DistanceMeters>296048.67525486</DistanceMeters>
          </Trackpoint>
          <Trackpoint>
            <Time>2018-09-14T14:11:33.000Z</Time>
            <Position>
              <LatitudeDegrees>37.71136187016963958740234375</LatitudeDegrees>
              <LongitudeDegrees>-8.085258565843105316162109375</LongitudeDegrees>
            </Position>
            <AltitudeMeters>224</AltitudeMeters>
            <DistanceMeters>296052.77794452</DistanceMeters>
          </Trackpoint>
          <Trackpoint>
            <Time>2018-09-14T14:11:34.000Z</Time>
            <Position>
              <LatitudeDegrees>37.7113254927098751068115234375</LatitudeDegrees>
              <LongitudeDegrees>-8.08525018393993377685546875</LongitudeDegrees>
            </Position>
            <AltitudeMeters>224.1999969482421875</AltitudeMeters>
            <DistanceMeters>296056.89381909</DistanceMeters>
          </Trackpoint>
          <Trackpoint>
            <Time>2018-09-14T14:11:35.000Z</Time>
            <Position>
              <LatitudeDegrees>37.71128936670720577239990234375</LatitudeDegrees>
              <LongitudeDegrees>-8.08524155057966709136962890625</LongitudeDegrees>
            </Position>
            <AltitudeMeters>224.399993896484375</AltitudeMeters>
            <DistanceMeters>296060.98548888</DistanceMeters>
          </Trackpoint>
          <Trackpoint>
            <Time>2018-09-14T14:11:36.000Z</Time>
            <Position>
              <LatitudeDegrees>37.7112534083425998687744140625</LatitudeDegrees>
              <LongitudeDegrees>-8.08523300103843212127685546875</LongitudeDegrees>
            </Position>
            <AltitudeMeters>224.399993896484375</AltitudeMeters>
            <DistanceMeters>296065.05835648</DistanceMeters>
          </Trackpoint>
          <Trackpoint>
            <Time>2018-09-14T14:11:37.000Z</Time>
            <Position>
              <LatitudeDegrees>37.7112178690731525421142578125</LatitudeDegrees>
              <LongitudeDegrees>-8.085224367678165435791015625</LongitudeDegrees>
            </Position>
            <AltitudeMeters>224.600006103515625</AltitudeMeters>
            <DistanceMeters>296069.08663742</DistanceMeters>
          </Trackpoint>
          <Trackpoint>
            <Time>2018-09-14T14:11:38.000Z</Time>
            <Position>
              <LatitudeDegrees>37.711182497441768646240234375</LatitudeDegrees>
              <LongitudeDegrees>-8.0852164886891841888427734375</LongitudeDegrees>
            </Position>
            <AltitudeMeters>224.8000030517578125</AltitudeMeters>
            <DistanceMeters>296073.08454128</DistanceMeters>
          </Trackpoint>
          <Trackpoint>
            <Time>2018-09-14T14:11:39.000Z</Time>
            <Position>
              <LatitudeDegrees>37.71114687435328960418701171875</LatitudeDegrees>
              <LongitudeDegrees>-8.0852084420621395111083984375</LongitudeDegrees>
            </Position>
            <AltitudeMeters>225</AltitudeMeters>
            <DistanceMeters>296077.11170124</DistanceMeters>
          </Trackpoint>
          <Trackpoint>
            <Time>2018-09-14T14:11:40.000Z</Time>
            <Position>
              <LatitudeDegrees>37.7111122570931911468505859375</LatitudeDegrees>
              <LongitudeDegrees>-8.08520064689218997955322265625</LongitudeDegrees>
            </Position>
            <AltitudeMeters>225</AltitudeMeters>
            <DistanceMeters>296081.02514086</DistanceMeters>
          </Trackpoint>
          <Trackpoint>
            <Time>2018-09-14T14:11:41.000Z</Time>
            <Position>
              <LatitudeDegrees>37.7110790647566318511962890625</LatitudeDegrees>
              <LongitudeDegrees>-8.08519251644611358642578125</LongitudeDegrees>
            </Position>
            <AltitudeMeters>225.1999969482421875</AltitudeMeters>
            <DistanceMeters>296084.78800677</DistanceMeters>
          </Trackpoint>
          <Trackpoint>
            <Time>2018-09-14T14:11:42.000Z</Time>
            <Position>
              <LatitudeDegrees>37.7110472135245800018310546875</LatitudeDegrees>
              <LongitudeDegrees>-8.085184805095195770263671875</LongitudeDegrees>
            </Position>
            <AltitudeMeters>225.399993896484375</AltitudeMeters>
            <DistanceMeters>296088.39777135</DistanceMeters>
          </Trackpoint>
          <Trackpoint>
            <Time>2018-09-14T14:11:43.000Z</Time>
            <Position>
              <LatitudeDegrees>37.71101561374962329864501953125</LatitudeDegrees>
              <LongitudeDegrees>-8.0851797759532928466796875</LongitudeDegrees>
            </Position>
            <AltitudeMeters>225.399993896484375</AltitudeMeters>
            <DistanceMeters>296091.94317209</DistanceMeters>
          </Trackpoint>
          <Trackpoint>
            <Time>2018-09-14T14:11:44.000Z</Time>
            <Position>
              <LatitudeDegrees>37.710984013974666595458984375</LatitudeDegrees>
              <LongitudeDegrees>-8.08517466299235820770263671875</LongitudeDegrees>
            </Position>
            <AltitudeMeters>225.600006103515625</AltitudeMeters>
            <DistanceMeters>296095.4911189</DistanceMeters>
          </Trackpoint>
          <Trackpoint>
            <Time>2018-09-14T14:11:45.000Z</Time>
            <Position>
              <LatitudeDegrees>37.71095274947583675384521484375</LatitudeDegrees>
              <LongitudeDegrees>-8.08516913093626499176025390625</LongitudeDegrees>
            </Position>
            <AltitudeMeters>225.8000030517578125</AltitudeMeters>
            <DistanceMeters>296099.0045381</DistanceMeters>
          </Trackpoint>
          <Trackpoint>
            <Time>2018-09-14T14:11:46.000Z</Time>
            <Position>
              <LatitudeDegrees>37.71092073060572147369384765625</LatitudeDegrees>
              <LongitudeDegrees>-8.08516359888017177581787109375</LongitudeDegrees>
            </Position>
            <AltitudeMeters>226</AltitudeMeters>
            <DistanceMeters>296102.60177308</DistanceMeters>
          </Trackpoint>
          <Trackpoint>
            <Time>2018-09-14T14:11:47.000Z</Time>
            <Position>
              <LatitudeDegrees>37.7108882926404476165771484375</LatitudeDegrees>
              <LongitudeDegrees>-8.08515873737633228302001953125</LongitudeDegrees>
            </Position>
            <AltitudeMeters>226</AltitudeMeters>
            <DistanceMeters>296106.23770927</DistanceMeters>
          </Trackpoint>
          <Trackpoint>
            <Time>2018-09-14T14:11:48.000Z</Time>
            <Position>
              <LatitudeDegrees>37.71085535176098346710205078125</LatitudeDegrees>
              <LongitudeDegrees>-8.0851544626057147979736328125</LongitudeDegrees>
            </Position>
            <AltitudeMeters>226.1999969482421875</AltitudeMeters>
            <DistanceMeters>296109.92298198</DistanceMeters>
          </Trackpoint>
          <Trackpoint>
            <Time>2018-09-14T14:11:49.000Z</Time>
            <Position>
              <LatitudeDegrees>37.7108229137957096099853515625</LatitudeDegrees>
              <LongitudeDegrees>-8.085147254168987274169921875</LongitudeDegrees>
            </Position>
            <AltitudeMeters>226.399993896484375</AltitudeMeters>
            <DistanceMeters>296113.58736783</DistanceMeters>
          </Trackpoint>
          <Trackpoint>
            <Time>2018-09-14T14:11:50.000Z</Time>
            <Position>
              <LatitudeDegrees>37.7107910625636577606201171875</LatitudeDegrees>
              <LongitudeDegrees>-8.08513828553259372711181640625</LongitudeDegrees>
            </Position>
            <AltitudeMeters>226.600006103515625</AltitudeMeters>
            <DistanceMeters>296117.21833349</DistanceMeters>
          </Trackpoint>
          <Trackpoint>
            <Time>2018-09-14T14:11:51.000Z</Time>
            <Position>
              <LatitudeDegrees>37.7107598818838596343994140625</LatitudeDegrees>
              <LongitudeDegrees>-8.08512856252491474151611328125</LongitudeDegrees>
            </Position>
            <AltitudeMeters>227</AltitudeMeters>
            <DistanceMeters>296120.79164121</DistanceMeters>
          </Trackpoint>
          <Trackpoint>
            <Time>2018-09-14T14:11:52.000Z</Time>
            <Position>
              <LatitudeDegrees>37.71072878502309322357177734375</LatitudeDegrees>
              <LongitudeDegrees>-8.0851182527840137481689453125</LongitudeDegrees>
            </Position>
            <AltitudeMeters>227.1999969482421875</AltitudeMeters>
            <DistanceMeters>296124.36873757</DistanceMeters>
          </Trackpoint>
          <Trackpoint>
            <Time>2018-09-14T14:11:53.000Z</Time>
            <Position>
              <LatitudeDegrees>37.7106975205242633819580078125</LatitudeDegrees>
              <LongitudeDegrees>-8.08510911650955677032470703125</LongitudeDegrees>
            </Position>
            <AltitudeMeters>227.399993896484375</AltitudeMeters>
            <DistanceMeters>296127.94204529</DistanceMeters>
          </Trackpoint>
          <Trackpoint>
            <Time>2018-09-14T14:11:54.000Z</Time>
            <Position>
              <LatitudeDegrees>37.7106656692922115325927734375</LatitudeDegrees>
              <LongitudeDegrees>-8.08510073460638523101806640625</LongitudeDegrees>
            </Position>
            <AltitudeMeters>227.8000030517578125</AltitudeMeters>
            <DistanceMeters>296131.56304943</DistanceMeters>
          </Trackpoint>
          <Trackpoint>
            <Time>2018-09-14T14:11:55.000Z</Time>
            <Position>
              <LatitudeDegrees>37.7106338180601596832275390625</LatitudeDegrees>
              <LongitudeDegrees>-8.085092268884181976318359375</LongitudeDegrees>
            </Position>
            <AltitudeMeters>228</AltitudeMeters>
            <DistanceMeters>296135.18530026</DistanceMeters>
          </Trackpoint>
          <Trackpoint>
            <Time>2018-09-14T14:11:56.000Z</Time>
            <Position>
              <LatitudeDegrees>37.71060154773294925689697265625</LatitudeDegrees>
              <LongitudeDegrees>-8.08508522808551788330078125</LongitudeDegrees>
            </Position>
            <AltitudeMeters>228.1999969482421875</AltitudeMeters>
            <DistanceMeters>296138.83115716</DistanceMeters>
          </Trackpoint>
          <Trackpoint>
            <Time>2018-09-14T14:11:57.000Z</Time>
            <Position>
              <LatitudeDegrees>37.71056885831058025360107421875</LatitudeDegrees>
              <LongitudeDegrees>-8.08508112095296382904052734375</LongitudeDegrees>
            </Position>
            <AltitudeMeters>228.399993896484375</AltitudeMeters>
            <DistanceMeters>296142.4856726</DistanceMeters>
          </Trackpoint>
          <Trackpoint>
            <Time>2018-09-14T14:11:58.000Z</Time>
            <Position>
              <LatitudeDegrees>37.71053616888821125030517578125</LatitudeDegrees>
              <LongitudeDegrees>-8.0850770138204097747802734375</LongitudeDegrees>
            </Position>
            <AltitudeMeters>228.600006103515625</AltitudeMeters>
            <DistanceMeters>296146.14142329</DistanceMeters>
          </Trackpoint>
          <Trackpoint>
            <Time>2018-09-14T14:11:59.000Z</Time>
            <Position>
              <LatitudeDegrees>37.71050381474196910858154296875</LatitudeDegrees>
              <LongitudeDegrees>-8.08507408015429973602294921875</LongitudeDegrees>
            </Position>
            <AltitudeMeters>229</AltitudeMeters>
            <DistanceMeters>296149.75243844</DistanceMeters>
          </Trackpoint>
          <Trackpoint>
            <Time>2018-09-14T14:12:00.000Z</Time>
            <Position>
              <LatitudeDegrees>37.7104722149670124053955078125</LatitudeDegrees>
              <LongitudeDegrees>-8.0850733257830142974853515625</LongitudeDegrees>
            </Position>
            <AltitudeMeters>229.1999969482421875</AltitudeMeters>
            <DistanceMeters>296153.27227719</DistanceMeters>
          </Trackpoint>
          <Trackpoint>
            <Time>2018-09-14T14:12:01.000Z</Time>
            <Position>
              <LatitudeDegrees>37.71044111810624599456787109375</LatitudeDegrees>
              <LongitudeDegrees>-8.08507190085947513580322265625</LongitudeDegrees>
            </Position>
            <AltitudeMeters>229.399993896484375</AltitudeMeters>
            <DistanceMeters>296156.73391141</DistanceMeters>
          </Trackpoint>
          <Trackpoint>
            <Time>2018-09-14T14:12:02.000Z</Time>
            <Position>
              <LatitudeDegrees>37.710410691797733306884765625</LatitudeDegrees>
              <LongitudeDegrees>-8.08506821282207965850830078125</LongitudeDegrees>
            </Position>
            <AltitudeMeters>229.8000030517578125</AltitudeMeters>
            <DistanceMeters>296160.13634554</DistanceMeters>
          </Trackpoint>
          <Trackpoint>
            <Time>2018-09-14T14:12:03.000Z</Time>
            <Position>
              <LatitudeDegrees>37.71038026548922061920166015625</LatitudeDegrees>
              <LongitudeDegrees>-8.08506335131824016571044921875</LongitudeDegrees>
            </Position>
            <AltitudeMeters>230</AltitudeMeters>
            <DistanceMeters>296163.54937918</DistanceMeters>
          </Trackpoint>
          <Trackpoint>
            <Time>2018-09-14T14:12:04.000Z</Time>
            <Position>
              <LatitudeDegrees>37.71035025827586650848388671875</LatitudeDegrees>
              <LongitudeDegrees>-8.0850595794618129730224609375</LongitudeDegrees>
            </Position>
            <AltitudeMeters>230.1999969482421875</AltitudeMeters>
            <DistanceMeters>296166.90639204</DistanceMeters>
          </Trackpoint>
          <Trackpoint>
            <Time>2018-09-14T14:12:05.000Z</Time>
            <Position>
              <LatitudeDegrees>37.71032025106251239776611328125</LatitudeDegrees>
              <LongitudeDegrees>-8.0850555561482906341552734375</LongitudeDegrees>
            </Position>
            <AltitudeMeters>230.399993896484375</AltitudeMeters>
            <DistanceMeters>296170.26609375</DistanceMeters>
          </Trackpoint>
          <Trackpoint>
            <Time>2018-09-14T14:12:06.000Z</Time>
            <Position>
              <LatitudeDegrees>37.71029032766819000244140625</LatitudeDegrees>
              <LongitudeDegrees>-8.0850510299205780029296875</LongitudeDegrees>
            </Position>
            <AltitudeMeters>230.600006103515625</AltitudeMeters>
            <DistanceMeters>296173.62176139</DistanceMeters>
          </Trackpoint>
          <Trackpoint>
            <Time>2018-09-14T14:12:07.000Z</Time>
            <Position>
              <LatitudeDegrees>37.71026023663580417633056640625</LatitudeDegrees>
              <LongitudeDegrees>-8.08504591695964336395263671875</LongitudeDegrees>
            </Position>
            <AltitudeMeters>230.8000030517578125</AltitudeMeters>
            <DistanceMeters>296177.00022504</DistanceMeters>
          </Trackpoint>
          <Trackpoint>
            <Time>2018-09-14T14:12:08.000Z</Time>
            <Position>
              <LatitudeDegrees>37.71023039706051349639892578125</LatitudeDegrees>
              <LongitudeDegrees>-8.08504122309386730194091796875</LongitudeDegrees>
            </Position>
            <AltitudeMeters>231</AltitudeMeters>
            <DistanceMeters>296180.34646096</DistanceMeters>
          </Trackpoint>
          <Trackpoint>
            <Time>2018-09-14T14:12:09.000Z</Time>
            <Position>
              <LatitudeDegrees>37.71020047366619110107421875</LatitudeDegrees>
              <LongitudeDegrees>-8.08503736741840839385986328125</LongitudeDegrees>
            </Position>
            <AltitudeMeters>231.399993896484375</AltitudeMeters>
            <DistanceMeters>296183.69539436</DistanceMeters>
          </Trackpoint>
          <Trackpoint>
            <Time>2018-09-14T14:12:10.000Z</Time>
            <Position>
              <LatitudeDegrees>37.7101704664528369903564453125</LatitudeDegrees>
              <LongitudeDegrees>-8.085033260285854339599609375</LongitudeDegrees>
            </Position>
            <AltitudeMeters>231.600006103515625</AltitudeMeters>
            <DistanceMeters>296187.05375192</DistanceMeters>
          </Trackpoint>
          <Trackpoint>
            <Time>2018-09-14T14:12:11.000Z</Time>
            <Position>
              <LatitudeDegrees>37.71014020778238773345947265625</LatitudeDegrees>
              <LongitudeDegrees>-8.08502848260104656219482421875</LongitudeDegrees>
            </Position>
            <AltitudeMeters>231.8000030517578125</AltitudeMeters>
            <DistanceMeters>296190.44688431</DistanceMeters>
          </Trackpoint>
          <Trackpoint>
            <Time>2018-09-14T14:12:12.000Z</Time>
            <Position>
              <LatitudeDegrees>37.71010927855968475341796875</LatitudeDegrees>
              <LongitudeDegrees>-8.08502362109720706939697265625</LongitudeDegrees>
            </Position>
            <AltitudeMeters>232</AltitudeMeters>
            <DistanceMeters>296193.91633555</DistanceMeters>
          </Trackpoint>
          <Trackpoint>
            <Time>2018-09-14T14:12:13.000Z</Time>
            <Position>
              <LatitudeDegrees>37.71007784642279148101806640625</LatitudeDegrees>
              <LongitudeDegrees>-8.08501959778368473052978515625</LongitudeDegrees>
            </Position>
            <AltitudeMeters>232.1999969482421875</AltitudeMeters>
            <DistanceMeters>296197.43360789</DistanceMeters>
          </Trackpoint>
          <Trackpoint>
            <Time>2018-09-14T14:12:14.000Z</Time>
            <Position>
              <LatitudeDegrees>37.710046581923961639404296875</LatitudeDegrees>
              <LongitudeDegrees>-8.08501557447016239166259765625</LongitudeDegrees>
            </Position>
            <AltitudeMeters>232.399993896484375</AltitudeMeters>
            <DistanceMeters>296200.9315721</DistanceMeters>
          </Trackpoint>
          <Trackpoint>
            <Time>2018-09-14T14:12:15.000Z</Time>
            <Position>
              <LatitudeDegrees>37.71001531742513179779052734375</LatitudeDegrees>
              <LongitudeDegrees>-8.0850126408040523529052734375</LongitudeDegrees>
            </Position>
            <AltitudeMeters>232.399993896484375</AltitudeMeters>
            <DistanceMeters>296204.42048927</DistanceMeters>
          </Trackpoint>
          <Trackpoint>
            <Time>2018-09-14T14:12:16.000Z</Time>
            <Position>
              <LatitudeDegrees>37.709983885288238525390625</LatitudeDegrees>
              <LongitudeDegrees>-8.08501054532825946807861328125</LongitudeDegrees>
            </Position>
            <AltitudeMeters>232.399993896484375</AltitudeMeters>
            <DistanceMeters>296207.92490134</DistanceMeters>
          </Trackpoint>
          <Trackpoint>
            <Time>2018-09-14T14:12:17.000Z</Time>
            <Position>
              <LatitudeDegrees>37.7099528722465038299560546875</LatitudeDegrees>
              <LongitudeDegrees>-8.0850089527666568756103515625</LongitudeDegrees>
            </Position>
            <AltitudeMeters>232.399993896484375</AltitudeMeters>
            <DistanceMeters>296211.37870084</DistanceMeters>
          </Trackpoint>
          <Trackpoint>
            <Time>2018-09-14T14:12:18.000Z</Time>
            <Position>
              <LatitudeDegrees>37.7099216915667057037353515625</LatitudeDegrees>
              <LongitudeDegrees>-8.0850102938711643218994140625</LongitudeDegrees>
            </Position>
            <AltitudeMeters>232.600006103515625</AltitudeMeters>
            <DistanceMeters>296214.84945321</DistanceMeters>
          </Trackpoint>
          <Trackpoint>
            <Time>2018-09-14T14:12:19.000Z</Time>
            <Position>
              <LatitudeDegrees>37.70988992415368556976318359375</LatitudeDegrees>
              <LongitudeDegrees>-8.0850129760801792144775390625</LongitudeDegrees>
            </Position>
            <AltitudeMeters>232.600006103515625</AltitudeMeters>
            <DistanceMeters>296218.39230605</DistanceMeters>
          </Trackpoint>
          <Trackpoint>
            <Time>2018-09-14T14:12:20.000Z</Time>
            <Position>
              <LatitudeDegrees>37.709857486188411712646484375</LatitudeDegrees>
              <LongitudeDegrees>-8.085014820098876953125</LongitudeDegrees>
            </Position>
            <AltitudeMeters>232.600006103515625</AltitudeMeters>
            <DistanceMeters>296222.0070703</DistanceMeters>
          </Trackpoint>
          <Trackpoint>
            <Time>2018-09-14T14:12:21.000Z</Time>
            <Position>
              <LatitudeDegrees>37.7098247967660427093505859375</LatitudeDegrees>
              <LongitudeDegrees>-8.0850166641175746917724609375</LongitudeDegrees>
            </Position>
            <AltitudeMeters>232.600006103515625</AltitudeMeters>
            <DistanceMeters>296225.6492101</DistanceMeters>
          </Trackpoint>
          <Trackpoint>
            <Time>2018-09-14T14:12:22.000Z</Time>
            <Position>
              <LatitudeDegrees>37.70979202352464199066162109375</LatitudeDegrees>
              <LongitudeDegrees>-8.0850176699459552764892578125</LongitudeDegrees>
            </Position>
            <AltitudeMeters>232.8000030517578125</AltitudeMeters>
            <DistanceMeters>296229.29754296</DistanceMeters>
          </Trackpoint>
          <Trackpoint>
            <Time>2018-09-14T14:12:23.000Z</Time>
            <Position>
              <LatitudeDegrees>37.70975933410227298736572265625</LatitudeDegrees>
              <LongitudeDegrees>-8.0850169993937015533447265625</LongitudeDegrees>
            </Position>
            <AltitudeMeters>232.8000030517578125</AltitudeMeters>
            <DistanceMeters>296232.93596186</DistanceMeters>
          </Trackpoint>
          <Trackpoint>
            <Time>2018-09-14T14:12:24.000Z</Time>
            <Position>
              <LatitudeDegrees>37.70972647704184055328369140625</LatitudeDegrees>
              <LongitudeDegrees>-8.08501507155597209930419921875</LongitudeDegrees>
            </Position>
            <AltitudeMeters>232.8000030517578125</AltitudeMeters>
            <DistanceMeters>296236.59664942</DistanceMeters>
          </Trackpoint>
          <Trackpoint>
            <Time>2018-09-14T14:12:25.000Z</Time>
            <Position>
              <LatitudeDegrees>37.70969294942915439605712890625</LatitudeDegrees>
              <LongitudeDegrees>-8.08501406572759151458740234375</LongitudeDegrees>
            </Position>
            <AltitudeMeters>232.8000030517578125</AltitudeMeters>
            <DistanceMeters>296240.33060685</DistanceMeters>
          </Trackpoint>
          <Trackpoint>
            <Time>2018-09-14T14:12:26.000Z</Time>
            <Position>
              <LatitudeDegrees>37.70965942181646823883056640625</LatitudeDegrees>
              <LongitudeDegrees>-8.085014820098876953125</LongitudeDegrees>
            </Position>
            <AltitudeMeters>232.8000030517578125</AltitudeMeters>
            <DistanceMeters>296244.06456427</DistanceMeters>
          </Trackpoint>
          <Trackpoint>
            <Time>2018-09-14T14:12:27.000Z</Time>
            <Position>
              <LatitudeDegrees>37.70962690003216266632080078125</LatitudeDegrees>
              <LongitudeDegrees>-8.08501658029854297637939453125</LongitudeDegrees>
            </Position>
            <AltitudeMeters>233</AltitudeMeters>
            <DistanceMeters>296247.68806136</DistanceMeters>
          </Trackpoint>
          <Trackpoint>
            <Time>2018-09-14T14:12:28.000Z</Time>
            <Position>
              <LatitudeDegrees>37.70959538407623767852783203125</LatitudeDegrees>
              <LongitudeDegrees>-8.08501875959336757659912109375</LongitudeDegrees>
            </Position>
            <AltitudeMeters>233</AltitudeMeters>
            <DistanceMeters>296251.20019524</DistanceMeters>
          </Trackpoint>
          <Trackpoint>
            <Time>2018-09-14T14:12:29.000Z</Time>
            <Position>
              <LatitudeDegrees>37.70956319756805896759033203125</LatitudeDegrees>
              <LongitudeDegrees>-8.08502278290688991546630859375</LongitudeDegrees>
            </Position>
            <AltitudeMeters>233</AltitudeMeters>
            <DistanceMeters>296254.79868515</DistanceMeters>
          </Trackpoint>
          <Trackpoint>
            <Time>2018-09-14T14:12:30.000Z</Time>
            <Position>
              <LatitudeDegrees>37.70953050814568996429443359375</LatitudeDegrees>
              <LongitudeDegrees>-8.08502881787717342376708984375</LongitudeDegrees>
            </Position>
            <AltitudeMeters>233.1999969482421875</AltitudeMeters>
            <DistanceMeters>296258.47537176</DistanceMeters>
          </Trackpoint>
          <Trackpoint>
            <Time>2018-09-14T14:12:31.000Z</Time>
            <Position>
              <LatitudeDegrees>37.7094992436468601226806640625</LatitudeDegrees>
              <LongitudeDegrees>-8.0850374512374401092529296875</LongitudeDegrees>
            </Position>
            <AltitudeMeters>233.1999969482421875</AltitudeMeters>
            <DistanceMeters>296262.03602161</DistanceMeters>
          </Trackpoint>
          <Trackpoint>
            <Time>2018-09-14T14:12:32.000Z</Time>
            <Position>
              <LatitudeDegrees>37.7094694040715694427490234375</LatitudeDegrees>
              <LongitudeDegrees>-8.08504440821707248687744140625</LongitudeDegrees>
            </Position>
            <AltitudeMeters>233.1999969482421875</AltitudeMeters>
            <DistanceMeters>296265.41314857</DistanceMeters>
          </Trackpoint>
          <Trackpoint>
            <Time>2018-09-14T14:12:33.000Z</Time>
            <Position>
              <LatitudeDegrees>37.70944115705788135528564453125</LatitudeDegrees>
              <LongitudeDegrees>-8.08504725806415081024169921875</LongitudeDegrees>
            </Position>
            <AltitudeMeters>233.399993896484375</AltitudeMeters>
            <DistanceMeters>296268.567692</DistanceMeters>
          </Trackpoint>
          <Trackpoint>
            <Time>2018-09-14T14:12:34.000Z</Time>
            <Position>
              <LatitudeDegrees>37.70941592752933502197265625</LatitudeDegrees>
              <LongitudeDegrees>-8.08504558168351650238037109375</LongitudeDegrees>
            </Position>
            <AltitudeMeters>233.399993896484375</AltitudeMeters>
            <DistanceMeters>296271.38022591</DistanceMeters>
          </Trackpoint>
          <Trackpoint>
            <Time>2018-09-14T14:12:35.000Z</Time>
            <Position>
              <LatitudeDegrees>37.70939170382916927337646484375</LatitudeDegrees>
              <LongitudeDegrees>-8.085041306912899017333984375</LongitudeDegrees>
            </Position>
            <AltitudeMeters>233.399993896484375</AltitudeMeters>
            <DistanceMeters>296274.10303563</DistanceMeters>
          </Trackpoint>
          <Trackpoint>
            <Time>2018-09-14T14:12:36.000Z</Time>
            <Position>
              <LatitudeDegrees>37.70936421118676662445068359375</LatitudeDegrees>
              <LongitudeDegrees>-8.0850397981703281402587890625</LongitudeDegrees>
            </Position>
            <AltitudeMeters>233.399993896484375</AltitudeMeters>
            <DistanceMeters>296277.16755508</DistanceMeters>
          </Trackpoint>
          <Trackpoint>
            <Time>2018-09-14T14:12:37.000Z</Time>
            <Position>
              <LatitudeDegrees>37.70933210849761962890625</LatitudeDegrees>
              <LongitudeDegrees>-8.085038624703884124755859375</LongitudeDegrees>
            </Position>
            <AltitudeMeters>233.399993896484375</AltitudeMeters>
            <DistanceMeters>296280.74212613</DistanceMeters>
          </Trackpoint>
          <Trackpoint>
            <Time>2018-09-14T14:12:38.000Z</Time>
            <Position>
              <LatitudeDegrees>37.7092967368662357330322265625</LatitudeDegrees>
              <LongitudeDegrees>-8.08503619395196437835693359375</LongitudeDegrees>
            </Position>
            <AltitudeMeters>233.399993896484375</AltitudeMeters>
            <DistanceMeters>296284.68430339</DistanceMeters>
          </Trackpoint>
          <Trackpoint>
            <Time>2018-09-14T14:12:39.000Z</Time>
            <Position>
              <LatitudeDegrees>37.709259688854217529296875</LatitudeDegrees>
              <LongitudeDegrees>-8.08503032661974430084228515625</LongitudeDegrees>
            </Position>
            <AltitudeMeters>233.399993896484375</AltitudeMeters>
            <DistanceMeters>296288.83948162</DistanceMeters>
          </Trackpoint>
          <Trackpoint>
            <Time>2018-09-14T14:12:40.000Z</Time>
            <Position>
              <LatitudeDegrees>37.7092209644615650177001953125</LatitudeDegrees>
              <LongitudeDegrees>-8.08502010069787502288818359375</LongitudeDegrees>
            </Position>
            <AltitudeMeters>233.600006103515625</AltitudeMeters>
            <DistanceMeters>296293.24261393</DistanceMeters>
          </Trackpoint>
          <Trackpoint>
            <Time>2018-09-14T14:12:41.000Z</Time>
            <Position>
              <LatitudeDegrees>37.70918190479278564453125</LatitudeDegrees>
              <LongitudeDegrees>-8.0850081145763397216796875</LongitudeDegrees>
            </Position>
            <AltitudeMeters>234</AltitudeMeters>
            <DistanceMeters>296297.71594037</DistanceMeters>
          </Trackpoint>
          <Trackpoint>
            <Time>2018-09-14T14:12:42.000Z</Time>
            <Position>
              <LatitudeDegrees>37.70914276130497455596923828125</LatitudeDegrees>
              <LongitudeDegrees>-8.084997050464153289794921875</LongitudeDegrees>
            </Position>
            <AltitudeMeters>234.1999969482421875</AltitudeMeters>
            <DistanceMeters>296302.18118491</DistanceMeters>
          </Trackpoint>
          <Trackpoint>
            <Time>2018-09-14T14:12:43.000Z</Time>
            <Position>
              <LatitudeDegrees>37.70910303108394145965576171875</LatitudeDegrees>
              <LongitudeDegrees>-8.0849915184080600738525390625</LongitudeDegrees>
            </Position>
            <AltitudeMeters>234.399993896484375</AltitudeMeters>
            <DistanceMeters>296306.63022161</DistanceMeters>
          </Trackpoint>
          <Trackpoint>
            <Time>2018-09-14T14:12:44.000Z</Time>
            <Position>
              <LatitudeDegrees>37.70906263031065464019775390625</LatitudeDegrees>
              <LongitudeDegrees>-8.08499026112258434295654296875</LongitudeDegrees>
            </Position>
            <AltitudeMeters>234.8000030517578125</AltitudeMeters>
            <DistanceMeters>296311.1277066</DistanceMeters>
          </Trackpoint>
          <Trackpoint>
            <Time>2018-09-14T14:12:45.000Z</Time>
            <Position>
              <LatitudeDegrees>37.70902239717543125152587890625</LatitudeDegrees>
              <LongitudeDegrees>-8.08498925529420375823974609375</LongitudeDegrees>
            </Position>
            <AltitudeMeters>235</AltitudeMeters>
            <DistanceMeters>296315.60708489</DistanceMeters>
          </Trackpoint>
          <Trackpoint>
            <Time>2018-09-14T14:12:46.000Z</Time>
            <Position>
              <LatitudeDegrees>37.708981744945049285888671875</LatitudeDegrees>
              <LongitudeDegrees>-8.0849868245422840118408203125</LongitudeDegrees>
            </Position>
            <AltitudeMeters>235.399993896484375</AltitudeMeters>
            <DistanceMeters>296320.13658085</DistanceMeters>
          </Trackpoint>
          <Trackpoint>
            <Time>2018-09-14T14:12:47.000Z</Time>
            <Position>
              <LatitudeDegrees>37.708940841257572174072265625</LatitudeDegrees>
              <LongitudeDegrees>-8.0849824659526348114013671875</LongitudeDegrees>
            </Position>
            <AltitudeMeters>235.600006103515625</AltitudeMeters>
            <DistanceMeters>296324.70478692</DistanceMeters>
          </Trackpoint>
          <Trackpoint>
            <Time>2018-09-14T14:12:48.000Z</Time>
            <Position>
              <LatitudeDegrees>37.70889935083687305450439453125</LatitudeDegrees>
              <LongitudeDegrees>-8.08497634716331958770751953125</LongitudeDegrees>
            </Position>
            <AltitudeMeters>235.8000030517578125</AltitudeMeters>
            <DistanceMeters>296329.35430334</DistanceMeters>
          </Trackpoint>
          <Trackpoint>
            <Time>2018-09-14T14:12:49.000Z</Time>
            <Position>
              <LatitudeDegrees>37.70885760895907878875732421875</LatitudeDegrees>
              <LongitudeDegrees>-8.0849703960120677947998046875</LongitudeDegrees>
            </Position>
            <AltitudeMeters>236.1999969482421875</AltitudeMeters>
            <DistanceMeters>296334.03093088</DistanceMeters>
          </Trackpoint>
          <Trackpoint>
            <Time>2018-09-14T14:12:50.000Z</Time>
            <Position>
              <LatitudeDegrees>37.70881536416709423065185546875</LatitudeDegrees>
              <LongitudeDegrees>-8.08496612124145030975341796875</LongitudeDegrees>
            </Position>
            <AltitudeMeters>236.399993896484375</AltitudeMeters>
            <DistanceMeters>296338.74793294</DistanceMeters>
          </Trackpoint>
          <Trackpoint>
            <Time>2018-09-14T14:12:51.000Z</Time>
            <Position>
              <LatitudeDegrees>37.70877261646091938018798828125</LatitudeDegrees>
              <LongitudeDegrees>-8.08496327139437198638916015625</LongitudeDegrees>
            </Position>
            <AltitudeMeters>236.8000030517578125</AltitudeMeters>
            <DistanceMeters>296343.51255382</DistanceMeters>
          </Trackpoint>
          <Trackpoint>
            <Time>2018-09-14T14:12:52.000Z</Time>
            <Position>
              <LatitudeDegrees>37.70872928202152252197265625</LatitudeDegrees>
              <LongitudeDegrees>-8.08496125973761081695556640625</LongitudeDegrees>
            </Position>
            <AltitudeMeters>237</AltitudeMeters>
            <DistanceMeters>296348.33931228</DistanceMeters>
          </Trackpoint>
          <Trackpoint>
            <Time>2018-09-14T14:12:53.000Z</Time>
            <Position>
              <LatitudeDegrees>37.7086858637630939483642578125</LatitudeDegrees>
              <LongitudeDegrees>-8.0849593318998813629150390625</LongitudeDegrees>
            </Position>
            <AltitudeMeters>237.399993896484375</AltitudeMeters>
            <DistanceMeters>296353.17354829</DistanceMeters>
          </Trackpoint>
          <Trackpoint>
            <Time>2018-09-14T14:12:54.000Z</Time>
            <Position>
              <LatitudeDegrees>37.708642780780792236328125</LatitudeDegrees>
              <LongitudeDegrees>-8.08495421893894672393798828125</LongitudeDegrees>
            </Position>
            <AltitudeMeters>237.600006103515625</AltitudeMeters>
            <DistanceMeters>296357.98906865</DistanceMeters>
          </Trackpoint>
          <Trackpoint>
            <Time>2018-09-14T14:12:55.000Z</Time>
            <Position>
              <LatitudeDegrees>37.708599865436553955078125</LatitudeDegrees>
              <LongitudeDegrees>-8.084948770701885223388671875</LongitudeDegrees>
            </Position>
            <AltitudeMeters>238</AltitudeMeters>
            <DistanceMeters>296362.78956395</DistanceMeters>
          </Trackpoint>
          <Trackpoint>
            <Time>2018-09-14T14:12:56.000Z</Time>
            <Position>
              <LatitudeDegrees>37.7085554413497447967529296875</LatitudeDegrees>
              <LongitudeDegrees>-8.08494248427450656890869140625</LongitudeDegrees>
            </Position>
            <AltitudeMeters>238.1999969482421875</AltitudeMeters>
            <DistanceMeters>296367.76555326</DistanceMeters>
          </Trackpoint>
          <Trackpoint>
            <Time>2018-09-14T14:12:57.000Z</Time>
            <Position>
              <LatitudeDegrees>37.70851277746260166168212890625</LatitudeDegrees>
              <LongitudeDegrees>-8.08493443764746189117431640625</LongitudeDegrees>
            </Position>
            <AltitudeMeters>238.600006103515625</AltitudeMeters>
            <DistanceMeters>296372.56792926</DistanceMeters>
          </Trackpoint>
          <Trackpoint>
            <Time>2018-09-14T14:12:58.000Z</Time>
            <Position>
              <LatitudeDegrees>37.70847070030868053436279296875</LatitudeDegrees>
              <LongitudeDegrees>-8.0849274806678295135498046875</LongitudeDegrees>
            </Position>
            <AltitudeMeters>238.8000030517578125</AltitudeMeters>
            <DistanceMeters>296377.29067092</DistanceMeters>
          </Trackpoint>
          <Trackpoint>
            <Time>2018-09-14T14:12:59.000Z</Time>
            <Position>
              <LatitudeDegrees>37.70843063481152057647705078125</LatitudeDegrees>
              <LongitudeDegrees>-8.08492689393460750579833984375</LongitudeDegrees>
            </Position>
            <AltitudeMeters>239.1999969482421875</AltitudeMeters>
            <DistanceMeters>296381.75085683</DistanceMeters>
          </Trackpoint>
          <Trackpoint>
            <Time>2018-09-14T14:13:00.000Z</Time>
            <Position>
              <LatitudeDegrees>37.708385623991489410400390625</LatitudeDegrees>
              <LongitudeDegrees>-8.084923960268497467041015625</LongitudeDegrees>
            </Position>
            <AltitudeMeters>239.399993896484375</AltitudeMeters>
            <DistanceMeters>296386.76841133</DistanceMeters>
          </Trackpoint>
          <Trackpoint>
            <Time>2018-09-14T14:13:01.000Z</Time>
            <Position>
              <LatitudeDegrees>37.70833625458180904388427734375</LatitudeDegrees>
              <LongitudeDegrees>-8.0849201045930385589599609375</LongitudeDegrees>
            </Position>
            <AltitudeMeters>239.600006103515625</AltitudeMeters>
            <DistanceMeters>296392.2734033</DistanceMeters>
          </Trackpoint>
          <Trackpoint>
            <Time>2018-09-14T14:13:02.000Z</Time>
            <Position>
              <LatitudeDegrees>37.708289064466953277587890625</LatitudeDegrees>
              <LongitudeDegrees>-8.08491700328886508941650390625</LongitudeDegrees>
            </Position>
            <AltitudeMeters>239.600006103515625</AltitudeMeters>
            <DistanceMeters>296397.53259755</DistanceMeters>
          </Trackpoint>
          <Trackpoint>
            <Time>2018-09-14T14:13:03.000Z</Time>
            <Position>
              <LatitudeDegrees>37.70824053324759006500244140625</LatitudeDegrees>
              <LongitudeDegrees>-8.0849133990705013275146484375</LongitudeDegrees>
            </Position>
            <AltitudeMeters>239.600006103515625</AltitudeMeters>
            <DistanceMeters>296402.94328215</DistanceMeters>
          </Trackpoint>
          <Trackpoint>
            <Time>2018-09-14T14:13:04.000Z</Time>
            <Position>
              <LatitudeDegrees>37.70819141529500484466552734375</LatitudeDegrees>
              <LongitudeDegrees>-8.0849107168614864349365234375</LongitudeDegrees>
            </Position>
            <AltitudeMeters>239.600006103515625</AltitudeMeters>
            <DistanceMeters>296408.4153689</DistanceMeters>
          </Trackpoint>
          <Trackpoint>
            <Time>2018-09-14T14:13:05.000Z</Time>
            <Position>
              <LatitudeDegrees>37.7081420458853244781494140625</LatitudeDegrees>
              <LongitudeDegrees>-8.08490627445280551910400390625</LongitudeDegrees>
            </Position>
            <AltitudeMeters>239.600006103515625</AltitudeMeters>
            <DistanceMeters>296413.92364058</DistanceMeters>
          </Trackpoint>
          <Trackpoint>
            <Time>2018-09-14T14:13:06.000Z</Time>
            <Position>
              <LatitudeDegrees>37.7080934308469295501708984375</LatitudeDegrees>
              <LongitudeDegrees>-8.08490158058702945709228515625</LongitudeDegrees>
            </Position>
            <AltitudeMeters>239.600006103515625</AltitudeMeters>
            <DistanceMeters>296419.35098886</DistanceMeters>
          </Trackpoint>
          <Trackpoint>
            <Time>2018-09-14T14:13:07.000Z</Time>
            <Position>
              <LatitudeDegrees>37.708045653998851776123046875</LatitudeDegrees>
              <LongitudeDegrees>-8.08489789254963397979736328125</LongitudeDegrees>
            </Position>
            <AltitudeMeters>239.600006103515625</AltitudeMeters>
            <DistanceMeters>296424.67842072</DistanceMeters>
          </Trackpoint>
          <Trackpoint>
            <Time>2018-09-14T14:13:08.000Z</Time>
            <Position>
              <LatitudeDegrees>37.70799963735044002532958984375</LatitudeDegrees>
              <LongitudeDegrees>-8.084892444312572479248046875</LongitudeDegrees>
            </Position>
            <AltitudeMeters>239.600006103515625</AltitudeMeters>
            <DistanceMeters>296429.82216683</DistanceMeters>
          </Trackpoint>
          <Trackpoint>
            <Time>2018-09-14T14:13:09.000Z</Time>
            <Position>
              <LatitudeDegrees>37.7079542912542819976806640625</LatitudeDegrees>
              <LongitudeDegrees>-8.084884397685527801513671875</LongitudeDegrees>
            </Position>
            <AltitudeMeters>239.399993896484375</AltitudeMeters>
            <DistanceMeters>296434.91917869</DistanceMeters>
          </Trackpoint>
          <Trackpoint>
            <Time>2018-09-14T14:13:10.000Z</Time>
            <Position>
              <LatitudeDegrees>37.70790852606296539306640625</LatitudeDegrees>
              <LongitudeDegrees>-8.08487643487751483917236328125</LongitudeDegrees>
            </Position>
            <AltitudeMeters>239.399993896484375</AltitudeMeters>
            <DistanceMeters>296440.06116895</DistanceMeters>
          </Trackpoint>
          <Trackpoint>
            <Time>2018-09-14T14:13:11.000Z</Time>
            <Position>
              <LatitudeDegrees>37.7078624255955219268798828125</LatitudeDegrees>
              <LongitudeDegrees>-8.084869645535945892333984375</LongitudeDegrees>
            </Position>
            <AltitudeMeters>239.399993896484375</AltitudeMeters>
            <DistanceMeters>296445.22593863</DistanceMeters>
          </Trackpoint>
          <Trackpoint>
            <Time>2018-09-14T14:13:12.000Z</Time>
            <Position>
              <LatitudeDegrees>37.7078171633183956146240234375</LatitudeDegrees>
              <LongitudeDegrees>-8.0848657898604869842529296875</LongitudeDegrees>
            </Position>
            <AltitudeMeters>239.399993896484375</AltitudeMeters>
            <DistanceMeters>296450.27578376</DistanceMeters>
          </Trackpoint>
          <Trackpoint>
            <Time>2018-09-14T14:13:13.000Z</Time>
            <Position>
              <LatitudeDegrees>37.70777282305061817169189453125</LatitudeDegrees>
              <LongitudeDegrees>-8.0848617665469646453857421875</LongitudeDegrees>
            </Position>
            <AltitudeMeters>239.399993896484375</AltitudeMeters>
            <DistanceMeters>296455.2235648</DistanceMeters>
          </Trackpoint>
          <Trackpoint>
            <Time>2018-09-14T14:13:14.000Z</Time>
            <Position>
              <LatitudeDegrees>37.7077289856970310211181640625</LatitudeDegrees>
              <LongitudeDegrees>-8.0848584137856960296630859375</LongitudeDegrees>
            </Position>
            <AltitudeMeters>239.600006103515625</AltitudeMeters>
            <DistanceMeters>296460.1098233</DistanceMeters>
          </Trackpoint>
          <Trackpoint>
            <Time>2018-09-14T14:13:15.000Z</Time>
            <Position>
              <LatitudeDegrees>37.70768548361957073211669921875</LatitudeDegrees>
              <LongitudeDegrees>-8.0848547257483005523681640625</LongitudeDegrees>
            </Position>
            <AltitudeMeters>239.600006103515625</AltitudeMeters>
            <DistanceMeters>296464.96270279</DistanceMeters>
          </Trackpoint>
          <Trackpoint>
            <Time>2018-09-14T14:13:16.000Z</Time>
            <Position>
              <LatitudeDegrees>37.70764307118952274322509765625</LatitudeDegrees>
              <LongitudeDegrees>-8.084850199520587921142578125</LongitudeDegrees>
            </Position>
            <AltitudeMeters>239.8000030517578125</AltitudeMeters>
            <DistanceMeters>296469.70071609</DistanceMeters>
          </Trackpoint>
          <Trackpoint>
            <Time>2018-09-14T14:13:17.000Z</Time>
            <Position>
              <LatitudeDegrees>37.70760199986398220062255859375</LatitudeDegrees>
              <LongitudeDegrees>-8.0848439969122409820556640625</LongitudeDegrees>
            </Position>
            <AltitudeMeters>239.8000030517578125</AltitudeMeters>
            <DistanceMeters>296474.30534632</DistanceMeters>
          </Trackpoint>
          <Trackpoint>
            <Time>2018-09-14T14:13:18.000Z</Time>
            <Position>
              <LatitudeDegrees>37.707562185823917388916015625</LatitudeDegrees>
              <LongitudeDegrees>-8.08483938686549663543701171875</LongitudeDegrees>
            </Position>
            <AltitudeMeters>240</AltitudeMeters>
            <DistanceMeters>296478.75539774</DistanceMeters>
          </Trackpoint>
          <Trackpoint>
            <Time>2018-09-14T14:13:19.000Z</Time>
            <Position>
              <LatitudeDegrees>37.70752270705997943878173828125</LatitudeDegrees>
              <LongitudeDegrees>-8.0848369561135768890380859375</LongitudeDegrees>
            </Position>
            <AltitudeMeters>240</AltitudeMeters>
            <DistanceMeters>296483.15545273</DistanceMeters>
          </Trackpoint>
          <Trackpoint>
            <Time>2018-09-14T14:13:20.000Z</Time>
            <Position>
              <LatitudeDegrees>37.70748364739120006561279296875</LatitudeDegrees>
              <LongitudeDegrees>-8.084834106266498565673828125</LongitudeDegrees>
            </Position>
            <AltitudeMeters>240.1999969482421875</AltitudeMeters>
            <DistanceMeters>296487.51012384</DistanceMeters>
          </Trackpoint>
          <Trackpoint>
            <Time>2018-09-14T14:13:21.000Z</Time>
            <Position>
              <LatitudeDegrees>37.70744559355080127716064453125</LatitudeDegrees>
              <LongitudeDegrees>-8.08483041822910308837890625</LongitudeDegrees>
            </Position>
            <AltitudeMeters>240.399993896484375</AltitudeMeters>
            <DistanceMeters>296491.75878514</DistanceMeters>
          </Trackpoint>
          <Trackpoint>
            <Time>2018-09-14T14:13:22.000Z</Time>
            <Position>
              <LatitudeDegrees>37.70740804262459278106689453125</LatitudeDegrees>
              <LongitudeDegrees>-8.08482480235397815704345703125</LongitudeDegrees>
            </Position>
            <AltitudeMeters>240.600006103515625</AltitudeMeters>
            <DistanceMeters>296495.96794301</DistanceMeters>
          </Trackpoint>
          <Trackpoint>
            <Time>2018-09-14T14:13:23.000Z</Time>
            <Position>
              <LatitudeDegrees>37.70737149752676486968994140625</LatitudeDegrees>
              <LongitudeDegrees>-8.08481776155531406402587890625</LongitudeDegrees>
            </Position>
            <AltitudeMeters>240.8000030517578125</AltitudeMeters>
            <DistanceMeters>296500.08272044</DistanceMeters>
          </Trackpoint>
          <Trackpoint>
            <Time>2018-09-14T14:13:24.000Z</Time>
            <Position>
              <LatitudeDegrees>37.7073370479047298431396484375</LatitudeDegrees>
              <LongitudeDegrees>-8.084810636937618255615234375</LongitudeDegrees>
            </Position>
            <AltitudeMeters>241</AltitudeMeters>
            <DistanceMeters>296503.96837197</DistanceMeters>
          </Trackpoint>
          <Trackpoint>
            <Time>2018-09-14T14:13:25.000Z</Time>
            <Position>
              <LatitudeDegrees>37.70730259828269481658935546875</LatitudeDegrees>
              <LongitudeDegrees>-8.08480652980506420135498046875</LongitudeDegrees>
            </Position>
            <AltitudeMeters>241.1999969482421875</AltitudeMeters>
            <DistanceMeters>296507.8190064</DistanceMeters>
          </Trackpoint>
          <Trackpoint>
            <Time>2018-09-14T14:13:26.000Z</Time>
            <Position>
              <LatitudeDegrees>37.70726840011775493621826171875</LatitudeDegrees>
              <LongitudeDegrees>-8.08480468578636646270751953125</LongitudeDegrees>
            </Position>
            <AltitudeMeters>241.1999969482421875</AltitudeMeters>
            <DistanceMeters>296511.62838074</DistanceMeters>
          </Trackpoint>
          <Trackpoint>
            <Time>2018-09-14T14:13:27.000Z</Time>
            <Position>
              <LatitudeDegrees>37.7072344534099102020263671875</LatitudeDegrees>
              <LongitudeDegrees>-8.08480359613895416259765625</LongitudeDegrees>
            </Position>
            <AltitudeMeters>241.399993896484375</AltitudeMeters>
            <DistanceMeters>296515.40800783</DistanceMeters>
          </Trackpoint>
          <Trackpoint>
            <Time>2018-09-14T14:13:28.000Z</Time>
            <Position>
              <LatitudeDegrees>37.70720084197819232940673828125</LatitudeDegrees>
              <LongitudeDegrees>-8.0848017521202564239501953125</LongitudeDegrees>
            </Position>
            <AltitudeMeters>241.600006103515625</AltitudeMeters>
            <DistanceMeters>296519.15162622</DistanceMeters>
          </Trackpoint>
          <Trackpoint>
            <Time>2018-09-14T14:13:29.000Z</Time>
            <Position>
              <LatitudeDegrees>37.70716823637485504150390625</LatitudeDegrees>
              <LongitudeDegrees>-8.0847989022731781005859375</LongitudeDegrees>
            </Position>
            <AltitudeMeters>241.8000030517578125</AltitudeMeters>
            <DistanceMeters>296522.79004512</DistanceMeters>
          </Trackpoint>
          <Trackpoint>
            <Time>2018-09-14T14:13:30.000Z</Time>
            <Position>
              <LatitudeDegrees>37.7071358822286128997802734375</LatitudeDegrees>
              <LongitudeDegrees>-8.0847960524260997772216796875</LongitudeDegrees>
            </Position>
            <AltitudeMeters>242</AltitudeMeters>
            <DistanceMeters>296526.39855869</DistanceMeters>
          </Trackpoint>
          <Trackpoint>
            <Time>2018-09-14T14:13:31.000Z</Time>
            <Position>
              <LatitudeDegrees>37.70710361190140247344970703125</LatitudeDegrees>
              <LongitudeDegrees>-8.084792532026767730712890625</LongitudeDegrees>
            </Position>
            <AltitudeMeters>242</AltitudeMeters>
            <DistanceMeters>296530.00456896</DistanceMeters>
          </Trackpoint>
          <Trackpoint>
            <Time>2018-09-14T14:13:32.000Z</Time>
            <Position>
              <LatitudeDegrees>37.707071341574192047119140625</LatitudeDegrees>
              <LongitudeDegrees>-8.08478892780840396881103515625</LongitudeDegrees>
            </Position>
            <AltitudeMeters>242.1999969482421875</AltitudeMeters>
            <DistanceMeters>296533.60932693</DistanceMeters>
          </Trackpoint>
          <Trackpoint>
            <Time>2018-09-14T14:13:33.000Z</Time>
            <Position>
              <LatitudeDegrees>37.70703840069472789764404296875</LatitudeDegrees>
              <LongitudeDegrees>-8.084784485399723052978515625</LongitudeDegrees>
            </Position>
            <AltitudeMeters>242.399993896484375</AltitudeMeters>
            <DistanceMeters>296537.29704915</DistanceMeters>
          </Trackpoint>
          <Trackpoint>
            <Time>2018-09-14T14:13:34.000Z</Time>
            <Position>
              <LatitudeDegrees>37.7070054598152637481689453125</LatitudeDegrees>
              <LongitudeDegrees>-8.0847776122391223907470703125</LongitudeDegrees>
            </Position>
            <AltitudeMeters>242.600006103515625</AltitudeMeters>
            <DistanceMeters>296541.01403946</DistanceMeters>
          </Trackpoint>
          <Trackpoint>
            <Time>2018-09-14T14:13:35.000Z</Time>
            <Position>
              <LatitudeDegrees>37.70697243511676788330078125</LatitudeDegrees>
              <LongitudeDegrees>-8.0847709067165851593017578125</LongitudeDegrees>
            </Position>
            <AltitudeMeters>242.600006103515625</AltitudeMeters>
            <DistanceMeters>296544.73831085</DistanceMeters>
          </Trackpoint>
          <Trackpoint>
            <Time>2018-09-14T14:13:36.000Z</Time>
            <Position>
              <LatitudeDegrees>37.70693982951343059539794921875</LatitudeDegrees>
              <LongitudeDegrees>-8.08476445265114307403564453125</LongitudeDegrees>
            </Position>
            <AltitudeMeters>242.600006103515625</AltitudeMeters>
            <DistanceMeters>296548.41131156</DistanceMeters>
          </Trackpoint>
          <Trackpoint>
            <Time>2018-09-14T14:13:37.000Z</Time>
            <Position>
              <LatitudeDegrees>37.70690730772912502288818359375</LatitudeDegrees>
              <LongitudeDegrees>-8.08475774712860584259033203125</LongitudeDegrees>
            </Position>
            <AltitudeMeters>242.600006103515625</AltitudeMeters>
            <DistanceMeters>296552.07939197</DistanceMeters>
          </Trackpoint>
          <Trackpoint>
            <Time>2018-09-14T14:13:38.000Z</Time>
            <Position>
              <LatitudeDegrees>37.70687461830675601959228515625</LatitudeDegrees>
              <LongitudeDegrees>-8.08475221507251262664794921875</LongitudeDegrees>
            </Position>
            <AltitudeMeters>242.8000030517578125</AltitudeMeters>
            <DistanceMeters>296555.74993335</DistanceMeters>
          </Trackpoint>
          <Trackpoint>
            <Time>2018-09-14T14:13:39.000Z</Time>
            <Position>
              <LatitudeDegrees>37.7068416774272918701171875</LatitudeDegrees>
              <LongitudeDegrees>-8.08474886231124401092529296875</LongitudeDegrees>
            </Position>
            <AltitudeMeters>242.8000030517578125</AltitudeMeters>
            <DistanceMeters>296559.42784778</DistanceMeters>
          </Trackpoint>
          <Trackpoint>
            <Time>2018-09-14T14:13:40.000Z</Time>
            <Position>
              <LatitudeDegrees>37.70680856890976428985595703125</LatitudeDegrees>
              <LongitudeDegrees>-8.084748946130275726318359375</LongitudeDegrees>
            </Position>
            <AltitudeMeters>243</AltitudeMeters>
            <DistanceMeters>296563.11434544</DistanceMeters>
          </Trackpoint>
          <Trackpoint>
            <Time>2018-09-14T14:13:41.000Z</Time>
            <Position>
              <LatitudeDegrees>37.70677520893514156341552734375</LatitudeDegrees>
              <LongitudeDegrees>-8.08474995195865631103515625</LongitudeDegrees>
            </Position>
            <AltitudeMeters>243</AltitudeMeters>
            <DistanceMeters>296566.82890555</DistanceMeters>
          </Trackpoint>
          <Trackpoint>
            <Time>2018-09-14T14:13:42.000Z</Time>
            <Position>
              <LatitudeDegrees>37.70674176514148712158203125</LatitudeDegrees>
              <LongitudeDegrees>-8.0847497843205928802490234375</LongitudeDegrees>
            </Position>
            <AltitudeMeters>243</AltitudeMeters>
            <DistanceMeters>296570.55196442</DistanceMeters>
          </Trackpoint>
          <Trackpoint>
            <Time>2018-09-14T14:13:43.000Z</Time>
            <Position>
              <LatitudeDegrees>37.706707902252674102783203125</LatitudeDegrees>
              <LongitudeDegrees>-8.0847479403018951416015625</LongitudeDegrees>
            </Position>
            <AltitudeMeters>243.1999969482421875</AltitudeMeters>
            <DistanceMeters>296574.32441727</DistanceMeters>
          </Trackpoint>
          <Trackpoint>
            <Time>2018-09-14T14:13:44.000Z</Time>
            <Position>
              <LatitudeDegrees>37.706673704087734222412109375</LatitudeDegrees>
              <LongitudeDegrees>-8.0847477726638317108154296875</LongitudeDegrees>
            </Position>
            <AltitudeMeters>243</AltitudeMeters>
            <DistanceMeters>296578.13023421</DistanceMeters>
          </Trackpoint>
          <Trackpoint>
            <Time>2018-09-14T14:13:45.000Z</Time>
            <Position>
              <LatitudeDegrees>37.706638835370540618896484375</LatitudeDegrees>
              <LongitudeDegrees>-8.0847494490444660186767578125</LongitudeDegrees>
            </Position>
            <AltitudeMeters>243</AltitudeMeters>
            <DistanceMeters>296582.01472359</DistanceMeters>
          </Trackpoint>
          <Trackpoint>
            <Time>2018-09-14T14:13:46.000Z</Time>
            <Position>
              <LatitudeDegrees>37.70660337992012500762939453125</LatitudeDegrees>
              <LongitudeDegrees>-8.084752298891544342041015625</LongitudeDegrees>
            </Position>
            <AltitudeMeters>243</AltitudeMeters>
            <DistanceMeters>296585.96833742</DistanceMeters>
          </Trackpoint>
          <Trackpoint>
            <Time>2018-09-14T14:13:47.000Z</Time>
            <Position>
              <LatitudeDegrees>37.7065669186413288116455078125</LatitudeDegrees>
              <LongitudeDegrees>-8.08475288562476634979248046875</LongitudeDegrees>
            </Position>
            <AltitudeMeters>242.8000030517578125</AltitudeMeters>
            <DistanceMeters>296590.02676809</DistanceMeters>
          </Trackpoint>
          <Trackpoint>
            <Time>2018-09-14T14:13:48.000Z</Time>
            <Position>
              <LatitudeDegrees>37.7065300382673740386962890625</LatitudeDegrees>
              <LongitudeDegrees>-8.0847514607012271881103515625</LongitudeDegrees>
            </Position>
            <AltitudeMeters>242.8000030517578125</AltitudeMeters>
            <DistanceMeters>296594.13385742</DistanceMeters>
          </Trackpoint>
          <Trackpoint>
            <Time>2018-09-14T14:13:49.000Z</Time>
            <Position>
              <LatitudeDegrees>37.706492654979228973388671875</LatitudeDegrees>
              <LongitudeDegrees>-8.08475221507251262664794921875</LongitudeDegrees>
            </Position>
            <AltitudeMeters>242.600006103515625</AltitudeMeters>
            <DistanceMeters>296598.29771942</DistanceMeters>
          </Trackpoint>
          <Trackpoint>
            <Time>2018-09-14T14:13:50.000Z</Time>
            <Position>
              <LatitudeDegrees>37.7064549364149570465087890625</LatitudeDegrees>
              <LongitudeDegrees>-8.084756322205066680908203125</LongitudeDegrees>
            </Position>
            <AltitudeMeters>242.600006103515625</AltitudeMeters>
            <DistanceMeters>296602.51116579</DistanceMeters>
          </Trackpoint>
          <Trackpoint>
            <Time>2018-09-14T14:13:51.000Z</Time>
            <Position>
              <LatitudeDegrees>37.70641646347939968109130859375</LatitudeDegrees>
              <LongitudeDegrees>-8.08475858531892299652099609375</LongitudeDegrees>
            </Position>
            <AltitudeMeters>242.600006103515625</AltitudeMeters>
            <DistanceMeters>296606.79686007</DistanceMeters>
          </Trackpoint>
          <Trackpoint>
            <Time>2018-09-14T14:13:52.000Z</Time>
            <Position>
              <LatitudeDegrees>37.70637723617255687713623046875</LatitudeDegrees>
              <LongitudeDegrees>-8.08475799858570098876953125</LongitudeDegrees>
            </Position>
            <AltitudeMeters>242.399993896484375</AltitudeMeters>
            <DistanceMeters>296611.16395538</DistanceMeters>
          </Trackpoint>
          <Trackpoint>
            <Time>2018-09-14T14:13:53.000Z</Time>
            <Position>
              <LatitudeDegrees>37.70633800886571407318115234375</LatitudeDegrees>
              <LongitudeDegrees>-8.08475841768085956573486328125</LongitudeDegrees>
            </Position>
            <AltitudeMeters>242.399993896484375</AltitudeMeters>
            <DistanceMeters>296615.53105069</DistanceMeters>
          </Trackpoint>
          <Trackpoint>
            <Time>2018-09-14T14:13:54.000Z</Time>
            <Position>
              <LatitudeDegrees>37.70629844628274440765380859375</LatitudeDegrees>
              <LongitudeDegrees>-8.08476093225181102752685546875</LongitudeDegrees>
            </Position>
            <AltitudeMeters>242.1999969482421875</AltitudeMeters>
            <DistanceMeters>296619.9403312</DistanceMeters>
          </Trackpoint>
          <Trackpoint>
            <Time>2018-09-14T14:13:55.000Z</Time>
            <Position>
              <LatitudeDegrees>37.70625888369977474212646484375</LatitudeDegrees>
              <LongitudeDegrees>-8.08476411737501621246337890625</LongitudeDegrees>
            </Position>
            <AltitudeMeters>242.1999969482421875</AltitudeMeters>
            <DistanceMeters>296624.35268259</DistanceMeters>
          </Trackpoint>
          <Trackpoint>
            <Time>2018-09-14T14:13:56.000Z</Time>
            <Position>
              <LatitudeDegrees>37.70621915347874164581298828125</LatitudeDegrees>
              <LongitudeDegrees>-8.0847680568695068359375</LongitudeDegrees>
            </Position>
            <AltitudeMeters>242</AltitudeMeters>
            <DistanceMeters>296628.78952456</DistanceMeters>
          </Trackpoint>
          <Trackpoint>
            <Time>2018-09-14T14:13:57.000Z</Time>
            <Position>
              <LatitudeDegrees>37.70617984235286712646484375</LatitudeDegrees>
              <LongitudeDegrees>-8.08477752842009067535400390625</LongitudeDegrees>
            </Position>
            <AltitudeMeters>242</AltitudeMeters>
            <DistanceMeters>296633.24363255</DistanceMeters>
          </Trackpoint>
          <Trackpoint>
            <Time>2018-09-14T14:13:58.000Z</Time>
            <Position>
              <LatitudeDegrees>37.70614304579794406890869140625</LatitudeDegrees>
              <LongitudeDegrees>-8.084799237549304962158203125</LongitudeDegrees>
            </Position>
            <AltitudeMeters>242</AltitudeMeters>
            <DistanceMeters>296637.76314943</DistanceMeters>
          </Trackpoint>
          <Trackpoint>
            <Time>2018-09-14T14:13:59.000Z</Time>
            <Position>
              <LatitudeDegrees>37.7061102725565433502197265625</LatitudeDegrees>
              <LongitudeDegrees>-8.08483150787651538848876953125</LongitudeDegrees>
            </Position>
            <AltitudeMeters>242</AltitudeMeters>
            <DistanceMeters>296642.38734894</DistanceMeters>
          </Trackpoint>
          <Trackpoint>
            <Time>2018-09-14T14:14:00.000Z</Time>
            <Position>
              <LatitudeDegrees>37.706080265343189239501953125</LatitudeDegrees>
              <LongitudeDegrees>-8.084869645535945892333984375</LongitudeDegrees>
            </Position>
            <AltitudeMeters>242</AltitudeMeters>
            <DistanceMeters>296647.12345597</DistanceMeters>
          </Trackpoint>
          <Trackpoint>
            <Time>2018-09-14T14:14:01.000Z</Time>
            <Position>
              <LatitudeDegrees>37.7060495875775814056396484375</LatitudeDegrees>
              <LongitudeDegrees>-8.08491046540439128875732421875</LongitudeDegrees>
            </Position>
            <AltitudeMeters>242</AltitudeMeters>
            <DistanceMeters>296652.08126477</DistanceMeters>
          </Trackpoint>
          <Trackpoint>
            <Time>2018-09-14T14:14:02.000Z</Time>
            <Position>
              <LatitudeDegrees>37.70601480267941951751708984375</LatitudeDegrees>
              <LongitudeDegrees>-8.08494801633059978485107421875</LongitudeDegrees>
            </Position>
            <AltitudeMeters>242</AltitudeMeters>
            <DistanceMeters>296657.17295894</DistanceMeters>
          </Trackpoint>
          <Trackpoint>
            <Time>2018-09-14T14:14:03.000Z</Time>
            <Position>
              <LatitudeDegrees>37.70597465336322784423828125</LatitudeDegrees>
              <LongitudeDegrees>-8.084976263344287872314453125</LongitudeDegrees>
            </Position>
            <AltitudeMeters>242</AltitudeMeters>
            <DistanceMeters>296662.2867737</DistanceMeters>
          </Trackpoint>
          <Trackpoint>
            <Time>2018-09-14T14:14:04.000Z</Time>
            <Position>
              <LatitudeDegrees>37.70592981018126010894775390625</LatitudeDegrees>
              <LongitudeDegrees>-8.08498774655163288116455078125</LongitudeDegrees>
            </Position>
            <AltitudeMeters>242.1999969482421875</AltitudeMeters>
            <DistanceMeters>296667.37935453</DistanceMeters>
          </Trackpoint>
          <Trackpoint>
            <Time>2018-09-14T14:14:05.000Z</Time>
            <Position>
              <LatitudeDegrees>37.7058856375515460968017578125</LatitudeDegrees>
              <LongitudeDegrees>-8.08497819118201732635498046875</LongitudeDegrees>
            </Position>
            <AltitudeMeters>242.1999969482421875</AltitudeMeters>
            <DistanceMeters>296672.36622033</DistanceMeters>
          </Trackpoint>
          <Trackpoint>
            <Time>2018-09-14T14:14:06.000Z</Time>
            <Position>
              <LatitudeDegrees>37.7058454044163227081298828125</LatitudeDegrees>
              <LongitudeDegrees>-8.08495488949120044708251953125</LongitudeDegrees>
            </Position>
            <AltitudeMeters>242.399993896484375</AltitudeMeters>
            <DistanceMeters>296677.29113508</DistanceMeters>
          </Trackpoint>
          <Trackpoint>
            <Time>2018-09-14T14:14:07.000Z</Time>
            <Position>
              <LatitudeDegrees>37.70580776967108249664306640625</LatitudeDegrees>
              <LongitudeDegrees>-8.08492354117333889007568359375</LongitudeDegrees>
            </Position>
            <AltitudeMeters>242.399993896484375</AltitudeMeters>
            <DistanceMeters>296682.30778965</DistanceMeters>
          </Trackpoint>
          <Trackpoint>
            <Time>2018-09-14T14:14:08.000Z</Time>
            <Position>
              <LatitudeDegrees>37.70577256567776203155517578125</LatitudeDegrees>
              <LongitudeDegrees>-8.0848872475326061248779296875</LongitudeDegrees>
            </Position>
            <AltitudeMeters>242.600006103515625</AltitudeMeters>
            <DistanceMeters>296687.36478248</DistanceMeters>
          </Trackpoint>
          <Trackpoint>
            <Time>2018-09-14T14:14:09.000Z</Time>
            <Position>
              <LatitudeDegrees>37.705735266208648681640625</LatitudeDegrees>
              <LongitudeDegrees>-8.08485464192926883697509765625</LongitudeDegrees>
            </Position>
            <AltitudeMeters>242.8000030517578125</AltitudeMeters>
            <DistanceMeters>296692.41283911</DistanceMeters>
          </Trackpoint>
          <Trackpoint>
            <Time>2018-09-14T14:14:10.000Z</Time>
            <Position>
              <LatitudeDegrees>37.705692686140537261962890625</LatitudeDegrees>
              <LongitudeDegrees>-8.084832765161991119384765625</LongitudeDegrees>
            </Position>
            <AltitudeMeters>242.8000030517578125</AltitudeMeters>
            <DistanceMeters>296697.52841938</DistanceMeters>
          </Trackpoint>
          <Trackpoint>
            <Time>2018-09-14T14:14:11.000Z</Time>
            <Position>
              <LatitudeDegrees>37.70564650185406208038330078125</LatitudeDegrees>
              <LongitudeDegrees>-8.08482094667851924896240234375</LongitudeDegrees>
            </Position>
            <AltitudeMeters>243</AltitudeMeters>
            <DistanceMeters>296702.77299876</DistanceMeters>
          </Trackpoint>
          <Trackpoint>
            <Time>2018-09-14T14:14:12.000Z</Time>
            <Position>
              <LatitudeDegrees>37.7055989764630794525146484375</LatitudeDegrees>
              <LongitudeDegrees>-8.08481491170823574066162109375</LongitudeDegrees>
            </Position>
            <AltitudeMeters>243</AltitudeMeters>
            <DistanceMeters>296708.08940161</DistanceMeters>
          </Trackpoint>
          <Trackpoint>
            <Time>2018-09-14T14:14:13.000Z</Time>
            <Position>
              <LatitudeDegrees>37.70555111579596996307373046875</LatitudeDegrees>
              <LongitudeDegrees>-8.08481222949922084808349609375</LongitudeDegrees>
            </Position>
            <AltitudeMeters>243</AltitudeMeters>
            <DistanceMeters>296713.4219161</DistanceMeters>
          </Trackpoint>
          <Trackpoint>
            <Time>2018-09-14T14:14:14.000Z</Time>
            <Position>
              <LatitudeDegrees>37.705504260957241058349609375</LatitudeDegrees>
              <LongitudeDegrees>-8.084813654422760009765625</LongitudeDegrees>
            </Position>
            <AltitudeMeters>243.1999969482421875</AltitudeMeters>
            <DistanceMeters>296718.63887406</DistanceMeters>
          </Trackpoint>
          <Trackpoint>
            <Time>2018-09-14T14:14:15.000Z</Time>
            <Position>
              <LatitudeDegrees>37.70545841194689273834228515625</LatitudeDegrees>
              <LongitudeDegrees>-8.08481725864112377166748046875</LongitudeDegrees>
            </Position>
            <AltitudeMeters>243.1999969482421875</AltitudeMeters>
            <DistanceMeters>296723.75092269</DistanceMeters>
          </Trackpoint>
          <Trackpoint>
            <Time>2018-09-14T14:14:16.000Z</Time>
            <Position>
              <LatitudeDegrees>37.7054132334887981414794921875</LatitudeDegrees>
              <LongitudeDegrees>-8.0848211981356143951416015625</LongitudeDegrees>
            </Position>
            <AltitudeMeters>243.1999969482421875</AltitudeMeters>
            <DistanceMeters>296728.79092319</DistanceMeters>
          </Trackpoint>
          <Trackpoint>
            <Time>2018-09-14T14:14:17.000Z</Time>
            <Position>
              <LatitudeDegrees>37.7053673006594181060791015625</LatitudeDegrees>
              <LongitudeDegrees>-8.08482647873461246490478515625</LongitudeDegrees>
            </Position>
            <AltitudeMeters>243.1999969482421875</AltitudeMeters>
            <DistanceMeters>296733.92412522</DistanceMeters>
          </Trackpoint>
          <Trackpoint>
            <Time>2018-09-14T14:14:18.000Z</Time>
            <Position>
              <LatitudeDegrees>37.70531952381134033203125</LatitudeDegrees>
              <LongitudeDegrees>-8.08483167551457881927490234375</LongitudeDegrees>
            </Position>
            <AltitudeMeters>243.1999969482421875</AltitudeMeters>
            <DistanceMeters>296739.26087153</DistanceMeters>
          </Trackpoint>
          <Trackpoint>
            <Time>2018-09-14T14:14:19.000Z</Time>
            <Position>
              <LatitudeDegrees>37.705270238220691680908203125</LatitudeDegrees>
              <LongitudeDegrees>-8.08483553119003772735595703125</LongitudeDegrees>
            </Position>
            <AltitudeMeters>243.399993896484375</AltitudeMeters>
            <DistanceMeters>296744.7568342</DistanceMeters>
          </Trackpoint>
          <Trackpoint>
            <Time>2018-09-14T14:14:20.000Z</Time>
            <Position>
              <LatitudeDegrees>37.70522053353488445281982421875</LatitudeDegrees>
              <LongitudeDegrees>-8.084838800132274627685546875</LongitudeDegrees>
            </Position>
            <AltitudeMeters>243.399993896484375</AltitudeMeters>
            <DistanceMeters>296750.29616627</DistanceMeters>
          </Trackpoint>
          <Trackpoint>
            <Time>2018-09-14T14:14:21.000Z</Time>
            <Position>
              <LatitudeDegrees>37.70517108030617237091064453125</LatitudeDegrees>
              <LongitudeDegrees>-8.084840476512908935546875</LongitudeDegrees>
            </Position>
            <AltitudeMeters>243.399993896484375</AltitudeMeters>
            <DistanceMeters>296755.8036182</DistanceMeters>
          </Trackpoint>
          <Trackpoint>
            <Time>2018-09-14T14:14:22.000Z</Time>
            <Position>
              <LatitudeDegrees>37.70512145943939685821533203125</LatitudeDegrees>
              <LongitudeDegrees>-8.08484173379838466644287109375</LongitudeDegrees>
            </Position>
            <AltitudeMeters>243.399993896484375</AltitudeMeters>
            <DistanceMeters>296761.32825922</DistanceMeters>
          </Trackpoint>
          <Trackpoint>
            <Time>2018-09-14T14:14:23.000Z</Time>
            <Position>
              <LatitudeDegrees>37.70507234148681163787841796875</LatitudeDegrees>
              <LongitudeDegrees>-8.08484382927417755126953125</LongitudeDegrees>
            </Position>
            <AltitudeMeters>243.399993896484375</AltitudeMeters>
            <DistanceMeters>296766.79869552</DistanceMeters>
          </Trackpoint>
          <Trackpoint>
            <Time>2018-09-14T14:14:24.000Z</Time>
            <Position>
              <LatitudeDegrees>37.70502255298197269439697265625</LatitudeDegrees>
              <LongitudeDegrees>-8.0848456732928752899169921875</LongitudeDegrees>
            </Position>
            <AltitudeMeters>243.399993896484375</AltitudeMeters>
            <DistanceMeters>296772.34291595</DistanceMeters>
          </Trackpoint>
          <Trackpoint>
            <Time>2018-09-14T14:14:25.000Z</Time>
            <Position>
              <LatitudeDegrees>37.7049723453819751739501953125</LatitudeDegrees>
              <LongitudeDegrees>-8.08484810404479503631591796875</LongitudeDegrees>
            </Position>
            <AltitudeMeters>243.399993896484375</AltitudeMeters>
            <DistanceMeters>296777.93497771</DistanceMeters>
          </Trackpoint>
          <Trackpoint>
            <Time>2018-09-14T14:14:26.000Z</Time>
            <Position>
              <LatitudeDegrees>37.70492188632488250732421875</LatitudeDegrees>
              <LongitudeDegrees>-8.0848507024347782135009765625</LongitudeDegrees>
            </Position>
            <AltitudeMeters>243.600006103515625</AltitudeMeters>
            <DistanceMeters>296783.55522748</DistanceMeters>
          </Trackpoint>
          <Trackpoint>
            <Time>2018-09-14T14:14:27.000Z</Time>
            <Position>
              <LatitudeDegrees>37.70487134344875812530517578125</LatitudeDegrees>
              <LongitudeDegrees>-8.0848552286624908447265625</LongitudeDegrees>
            </Position>
            <AltitudeMeters>243.600006103515625</AltitudeMeters>
            <DistanceMeters>296789.19472473</DistanceMeters>
          </Trackpoint>
          <Trackpoint>
            <Time>2018-09-14T14:14:28.000Z</Time>
            <Position>
              <LatitudeDegrees>37.704820297658443450927734375</LatitudeDegrees>
              <LongitudeDegrees>-8.08486134745180606842041015625</LongitudeDegrees>
            </Position>
            <AltitudeMeters>243.8000030517578125</AltitudeMeters>
            <DistanceMeters>296794.90107695</DistanceMeters>
          </Trackpoint>
          <Trackpoint>
            <Time>2018-09-14T14:14:29.000Z</Time>
            <Position>
              <LatitudeDegrees>37.70476908423006534576416015625</LatitudeDegrees>
              <LongitudeDegrees>-8.08486738242208957672119140625</LongitudeDegrees>
            </Position>
            <AltitudeMeters>244</AltitudeMeters>
            <DistanceMeters>296800.62559853</DistanceMeters>
          </Trackpoint>
          <Trackpoint>
            <Time>2018-09-14T14:14:30.000Z</Time>
            <Position>
              <LatitudeDegrees>37.7047178708016872406005859375</LatitudeDegrees>
              <LongitudeDegrees>-8.08487341739237308502197265625</LongitudeDegrees>
            </Position>
            <AltitudeMeters>244</AltitudeMeters>
            <DistanceMeters>296806.35012012</DistanceMeters>
          </Trackpoint>
          <Trackpoint>
            <Time>2018-09-14T14:14:31.000Z</Time>
            <Position>
              <LatitudeDegrees>37.70466682501137256622314453125</LatitudeDegrees>
              <LongitudeDegrees>-8.08487878181040287017822265625</LongitudeDegrees>
            </Position>
            <AltitudeMeters>244.1999969482421875</AltitudeMeters>
            <DistanceMeters>296812.05013899</DistanceMeters>
          </Trackpoint>
          <Trackpoint>
            <Time>2018-09-14T14:14:32.000Z</Time>
            <Position>
              <LatitudeDegrees>37.7046166174113750457763671875</LatitudeDegrees>
              <LongitudeDegrees>-8.08488230220973491668701171875</LongitudeDegrees>
            </Position>
            <AltitudeMeters>244.1999969482421875</AltitudeMeters>
            <DistanceMeters>296817.64704306</DistanceMeters>
          </Trackpoint>
          <Trackpoint>
            <Time>2018-09-14T14:14:33.000Z</Time>
            <Position>
              <LatitudeDegrees>37.7045686729252338409423828125</LatitudeDegrees>
              <LongitudeDegrees>-8.08488406240940093994140625</LongitudeDegrees>
            </Position>
            <AltitudeMeters>244.399993896484375</AltitudeMeters>
            <DistanceMeters>296822.98548115</DistanceMeters>
          </Trackpoint>
          <Trackpoint>
            <Time>2018-09-14T14:14:34.000Z</Time>
            <Position>
              <LatitudeDegrees>37.704521901905536651611328125</LatitudeDegrees>
              <LongitudeDegrees>-8.0848847329616546630859375</LongitudeDegrees>
            </Position>
            <AltitudeMeters>244.399993896484375</AltitudeMeters>
            <DistanceMeters>296828.1920433</DistanceMeters>
          </Trackpoint>
          <Trackpoint>
            <Time>2018-09-14T14:14:35.000Z</Time>
            <Position>
              <LatitudeDegrees>37.704474292695522308349609375</LatitudeDegrees>
              <LongitudeDegrees>-8.0848865769803524017333984375</LongitudeDegrees>
            </Position>
            <AltitudeMeters>244.600006103515625</AltitudeMeters>
            <DistanceMeters>296833.49313733</DistanceMeters>
          </Trackpoint>
          <Trackpoint>
            <Time>2018-09-14T14:14:36.000Z</Time>
            <Position>
              <LatitudeDegrees>37.70442567765712738037109375</LatitudeDegrees>
              <LongitudeDegrees>-8.08488900773227214813232421875</LongitudeDegrees>
            </Position>
            <AltitudeMeters>244.8000030517578125</AltitudeMeters>
            <DistanceMeters>296838.90882642</DistanceMeters>
          </Trackpoint>
          <Trackpoint>
            <Time>2018-09-14T14:14:37.000Z</Time>
            <Position>
              <LatitudeDegrees>37.70437764935195446014404296875</LatitudeDegrees>
              <LongitudeDegrees>-8.08489135466516017913818359375</LongitudeDegrees>
            </Position>
            <AltitudeMeters>244.8000030517578125</AltitudeMeters>
            <DistanceMeters>296844.25909205</DistanceMeters>
          </Trackpoint>
          <Trackpoint>
            <Time>2018-09-14T14:14:38.000Z</Time>
            <Position>
              <LatitudeDegrees>37.70433188416063785552978515625</LatitudeDegrees>
              <LongitudeDegrees>-8.08489386923611164093017578125</LongitudeDegrees>
            </Position>
            <AltitudeMeters>244.8000030517578125</AltitudeMeters>
            <DistanceMeters>296849.35876068</DistanceMeters>
          </Trackpoint>
          <Trackpoint>
            <Time>2018-09-14T14:14:39.000Z</Time>
            <Position>
              <LatitudeDegrees>37.70428829826414585113525390625</LatitudeDegrees>
              <LongitudeDegrees>-8.08489479124546051025390625</LongitudeDegrees>
            </Position>
            <AltitudeMeters>244.8000030517578125</AltitudeMeters>
            <DistanceMeters>296854.2107097</DistanceMeters>
          </Trackpoint>
          <Trackpoint>
            <Time>2018-09-14T14:14:40.000Z</Time>
            <Position>
              <LatitudeDegrees>37.70424538291990756988525390625</LatitudeDegrees>
              <LongitudeDegrees>-8.0848989821970462799072265625</LongitudeDegrees>
            </Position>
            <AltitudeMeters>245</AltitudeMeters>
            <DistanceMeters>296858.99990527</DistanceMeters>
          </Trackpoint>
          <Trackpoint>
            <Time>2018-09-14T14:14:41.000Z</Time>
            <Position>
              <LatitudeDegrees>37.70420146174728870391845703125</LatitudeDegrees>
              <LongitudeDegrees>-8.08490225113928318023681640625</LongitudeDegrees>
            </Position>
            <AltitudeMeters>245</AltitudeMeters>
            <DistanceMeters>296863.89723955</DistanceMeters>
          </Trackpoint>
          <Trackpoint>
            <Time>2018-09-14T14:14:42.000Z</Time>
            <Position>
              <LatitudeDegrees>37.7041576243937015533447265625</LatitudeDegrees>
              <LongitudeDegrees>-8.084903173148632049560546875</LongitudeDegrees>
            </Position>
            <AltitudeMeters>245.1999969482421875</AltitudeMeters>
            <DistanceMeters>296868.77702557</DistanceMeters>
          </Trackpoint>
          <Trackpoint>
            <Time>2018-09-14T14:14:43.000Z</Time>
            <Position>
              <LatitudeDegrees>37.7041147090494632720947265625</LatitudeDegrees>
              <LongitudeDegrees>-8.08490610681474208831787109375</LongitudeDegrees>
            </Position>
            <AltitudeMeters>245.1999969482421875</AltitudeMeters>
            <DistanceMeters>296873.56150503</DistanceMeters>
          </Trackpoint>
          <Trackpoint>
            <Time>2018-09-14T14:14:44.000Z</Time>
            <Position>
              <LatitudeDegrees>37.7040734700858592987060546875</LatitudeDegrees>
              <LongitudeDegrees>-8.0849090404808521270751953125</LongitudeDegrees>
            </Position>
            <AltitudeMeters>245.399993896484375</AltitudeMeters>
            <DistanceMeters>296878.16024824</DistanceMeters>
          </Trackpoint>
          <Trackpoint>
            <Time>2018-09-14T14:14:45.000Z</Time>
            <Position>
              <LatitudeDegrees>37.7040305547416210174560546875</LatitudeDegrees>
              <LongitudeDegrees>-8.0849137343466281890869140625</LongitudeDegrees>
            </Position>
            <AltitudeMeters>245.399993896484375</AltitudeMeters>
            <DistanceMeters>296882.95509699</DistanceMeters>
          </Trackpoint>
          <Trackpoint>
            <Time>2018-09-14T14:14:46.000Z</Time>
            <Position>
              <LatitudeDegrees>37.7039866335690021514892578125</LatitudeDegrees>
              <LongitudeDegrees>-8.0849194340407848358154296875</LongitudeDegrees>
            </Position>
            <AltitudeMeters>245.600006103515625</AltitudeMeters>
            <DistanceMeters>296887.86899813</DistanceMeters>
          </Trackpoint>
          <Trackpoint>
            <Time>2018-09-14T14:14:47.000Z</Time>
            <Position>
              <LatitudeDegrees>37.7039437182247638702392578125</LatitudeDegrees>
              <LongitudeDegrees>-8.08492563664913177490234375</LongitudeDegrees>
            </Position>
            <AltitudeMeters>245.600006103515625</AltitudeMeters>
            <DistanceMeters>296892.67701183</DistanceMeters>
          </Trackpoint>
          <Trackpoint>
            <Time>2018-09-14T14:14:48.000Z</Time>
            <Position>
              <LatitudeDegrees>37.70389921031892299652099609375</LatitudeDegrees>
              <LongitudeDegrees>-8.0849308334290981292724609375</LongitudeDegrees>
            </Position>
            <AltitudeMeters>245.8000030517578125</AltitudeMeters>
            <DistanceMeters>296897.65118608</DistanceMeters>
          </Trackpoint>
          <Trackpoint>
            <Time>2018-09-14T14:14:49.000Z</Time>
            <Position>
              <LatitudeDegrees>37.703855372965335845947265625</LatitudeDegrees>
              <LongitudeDegrees>-8.0849368683993816375732421875</LongitudeDegrees>
            </Position>
            <AltitudeMeters>245.8000030517578125</AltitudeMeters>
            <DistanceMeters>296902.55773107</DistanceMeters>
          </Trackpoint>
          <Trackpoint>
            <Time>2018-09-14T14:14:50.000Z</Time>
            <Position>
              <LatitudeDegrees>37.70381220616400241851806640625</LatitudeDegrees>
              <LongitudeDegrees>-8.08494198136031627655029296875</LongitudeDegrees>
            </Position>
            <AltitudeMeters>246</AltitudeMeters>
            <DistanceMeters>296907.38355403</DistanceMeters>
          </Trackpoint>
          <Trackpoint>
            <Time>2018-09-14T14:14:51.000Z</Time>
            <Position>
              <LatitudeDegrees>37.70376979373395442962646484375</LatitudeDegrees>
              <LongitudeDegrees>-8.08494416065514087677001953125</LongitudeDegrees>
            </Position>
            <AltitudeMeters>246</AltitudeMeters>
            <DistanceMeters>296912.10820734</DistanceMeters>
          </Trackpoint>
          <Trackpoint>
            <Time>2018-09-14T14:14:52.000Z</Time>
            <Position>
              <LatitudeDegrees>37.7037291415035724639892578125</LatitudeDegrees>
              <LongitudeDegrees>-8.0849472619593143463134765625</LongitudeDegrees>
            </Position>
            <AltitudeMeters>246.1999969482421875</AltitudeMeters>
            <DistanceMeters>296916.64069274</DistanceMeters>
          </Trackpoint>
          <Trackpoint>
            <Time>2018-09-14T14:14:53.000Z</Time>
            <Position>
              <LatitudeDegrees>37.70369301550090312957763671875</LatitudeDegrees>
              <LongitudeDegrees>-8.0849482677876949310302734375</LongitudeDegrees>
            </Position>
            <AltitudeMeters>246.1999969482421875</AltitudeMeters>
            <DistanceMeters>296920.66336561</DistanceMeters>
          </Trackpoint>
          <Trackpoint>
            <Time>2018-09-14T14:14:54.000Z</Time>
            <Position>
              <LatitudeDegrees>37.70366434939205646514892578125</LatitudeDegrees>
              <LongitudeDegrees>-8.08494600467383861541748046875</LongitudeDegrees>
            </Position>
            <AltitudeMeters>246.1999969482421875</AltitudeMeters>
            <DistanceMeters>296923.85914665</DistanceMeters>
          </Trackpoint>
          <Trackpoint>
            <Time>2018-09-14T14:14:55.000Z</Time>
            <Position>
              <LatitudeDegrees>37.70364808849990367889404296875</LatitudeDegrees>
              <LongitudeDegrees>-8.08493644930422306060791015625</LongitudeDegrees>
            </Position>
            <AltitudeMeters>246.399993896484375</AltitudeMeters>
            <DistanceMeters>296925.85244383</DistanceMeters>
          </Trackpoint>
          <Trackpoint>
            <Time>2018-09-14T14:14:56.000Z</Time>
            <Position>
              <LatitudeDegrees>37.70364942960441112518310546875</LatitudeDegrees>
              <LongitudeDegrees>-8.0849204398691654205322265625</LongitudeDegrees>
            </Position>
            <AltitudeMeters>246.399993896484375</AltitudeMeters>
            <DistanceMeters>296927.26830998</DistanceMeters>
          </Trackpoint>
          <Trackpoint>
            <Time>2018-09-14T14:14:57.000Z</Time>
            <Position>
              <LatitudeDegrees>37.70366527140140533447265625</LatitudeDegrees>
              <LongitudeDegrees>-8.084907867014408111572265625</LongitudeDegrees>
            </Position>
            <AltitudeMeters>246.1999969482421875</AltitudeMeters>
            <DistanceMeters>296929.35024098</DistanceMeters>
          </Trackpoint>
          <Trackpoint>
            <Time>2018-09-14T14:14:58.000Z</Time>
            <Position>
              <LatitudeDegrees>37.70368714816868305206298828125</LatitudeDegrees>
              <LongitudeDegrees>-8.08490225113928318023681640625</LongitudeDegrees>
            </Position>
            <AltitudeMeters>246.1999969482421875</AltitudeMeters>
            <DistanceMeters>296931.83551205</DistanceMeters>
          </Trackpoint>
          <Trackpoint>
            <Time>2018-09-14T14:14:59.000Z</Time>
            <Position>
              <LatitudeDegrees>37.70371279679238796234130859375</LatitudeDegrees>
              <LongitudeDegrees>-8.0849016644060611724853515625</LongitudeDegrees>
            </Position>
            <AltitudeMeters>246.1999969482421875</AltitudeMeters>
            <DistanceMeters>296934.69264157</DistanceMeters>
          </Trackpoint>
          <Trackpoint>
            <Time>2018-09-14T14:15:00.000Z</Time>
            <Position>
              <LatitudeDegrees>37.7037358470261096954345703125</LatitudeDegrees>
              <LongitudeDegrees>-8.0848936177790164947509765625</LongitudeDegrees>
            </Position>
            <AltitudeMeters>246.1999969482421875</AltitudeMeters>
            <DistanceMeters>296937.35678123</DistanceMeters>
          </Trackpoint>
          <Trackpoint>
            <Time>2018-09-14T14:15:01.000Z</Time>
            <Position>
              <LatitudeDegrees>37.7037516050040721893310546875</LatitudeDegrees>
              <LongitudeDegrees>-8.08487392030656337738037109375</LongitudeDegrees>
            </Position>
            <AltitudeMeters>246</AltitudeMeters>
            <DistanceMeters>296939.82381822</DistanceMeters>
          </Trackpoint>
          <Trackpoint>
            <Time>2018-09-14T14:15:02.000Z</Time>
            <Position>
              <LatitudeDegrees>37.70375906489789485931396484375</LatitudeDegrees>
              <LongitudeDegrees>-8.08484592474997043609619140625</LongitudeDegrees>
            </Position>
            <AltitudeMeters>246</AltitudeMeters>
            <DistanceMeters>296942.42623197</DistanceMeters>
          </Trackpoint>
          <Trackpoint>
            <Time>2018-09-14T14:15:03.000Z</Time>
            <Position>
              <LatitudeDegrees>37.7037542872130870819091796875</LatitudeDegrees>
              <LongitudeDegrees>-8.0848171748220920562744140625</LongitudeDegrees>
            </Position>
            <AltitudeMeters>246</AltitudeMeters>
            <DistanceMeters>296945.01472897</DistanceMeters>
          </Trackpoint>
          <Trackpoint>
            <Time>2018-09-14T14:15:04.000Z</Time>
            <Position>
              <LatitudeDegrees>37.70373769104480743408203125</LatitudeDegrees>
              <LongitudeDegrees>-8.08479487895965576171875</LongitudeDegrees>
            </Position>
            <AltitudeMeters>246.1999969482421875</AltitudeMeters>
            <DistanceMeters>296947.71255061</DistanceMeters>
          </Trackpoint>
          <Trackpoint>
            <Time>2018-09-14T14:15:05.000Z</Time>
            <Position>
              <LatitudeDegrees>37.7037214301526546478271484375</LatitudeDegrees>
              <LongitudeDegrees>-8.08477342128753662109375</LongitudeDegrees>
            </Position>
            <AltitudeMeters>246.1999969482421875</AltitudeMeters>
            <DistanceMeters>296950.33053228</DistanceMeters>
          </Trackpoint>
          <Trackpoint>
            <Time>2018-09-14T14:15:06.000Z</Time>
            <Position>
              <LatitudeDegrees>37.70371019840240478515625</LatitudeDegrees>
              <LongitudeDegrees>-8.08475556783378124237060546875</LongitudeDegrees>
            </Position>
            <AltitudeMeters>246.1999969482421875</AltitudeMeters>
            <DistanceMeters>296952.34186872</DistanceMeters>
          </Trackpoint>
          <Trackpoint>
            <Time>2018-09-14T14:15:07.000Z</Time>
            <Position>
              <LatitudeDegrees>37.70370709709823131561279296875</LatitudeDegrees>
              <LongitudeDegrees>-8.08473863638937473297119140625</LongitudeDegrees>
            </Position>
            <AltitudeMeters>246.1999969482421875</AltitudeMeters>
            <DistanceMeters>296953.87412844</DistanceMeters>
          </Trackpoint>
          <Trackpoint>
            <Time>2018-09-14T14:15:08.000Z</Time>
            <Position>
              <LatitudeDegrees>37.7037076838314533233642578125</LatitudeDegrees>
              <LongitudeDegrees>-8.08472338132560253143310546875</LongitudeDegrees>
            </Position>
            <AltitudeMeters>246.1999969482421875</AltitudeMeters>
            <DistanceMeters>296955.22136464</DistanceMeters>
          </Trackpoint>
          <Trackpoint>
            <Time>2018-09-14T14:15:09.000Z</Time>
            <Position>
              <LatitudeDegrees>37.7037103660404682159423828125</LatitudeDegrees>
              <LongitudeDegrees>-8.08471449650824069976806640625</LongitudeDegrees>
            </Position>
            <AltitudeMeters>246.1999969482421875</AltitudeMeters>
            <DistanceMeters>296956.06061786</DistanceMeters>
          </Trackpoint>
          <Trackpoint>
            <Time>2018-09-14T14:15:10.000Z</Time>
            <Position>
              <LatitudeDegrees>37.7037120424211025238037109375</LatitudeDegrees>
              <LongitudeDegrees>-8.08470879681408405303955078125</LongitudeDegrees>
            </Position>
            <AltitudeMeters>246.1999969482421875</AltitudeMeters>
            <DistanceMeters>296956.59817013</DistanceMeters>
          </Trackpoint>
          <Trackpoint>
            <Time>2018-09-14T14:15:11.000Z</Time>
            <Position>
              <LatitudeDegrees>37.70371497608721256256103515625</LatitudeDegrees>
              <LongitudeDegrees>-8.0847075395286083221435546875</LongitudeDegrees>
            </Position>
            <AltitudeMeters>246.1999969482421875</AltitudeMeters>
            <DistanceMeters>296956.94079382</DistanceMeters>
          </Trackpoint>
          <Trackpoint>
            <Time>2018-09-14T14:16:43.000Z</Time>
            <Position>
              <LatitudeDegrees>37.70370684564113616943359375</LatitudeDegrees>
              <LongitudeDegrees>-8.084863610565662384033203125</LongitudeDegrees>
            </Position>
            <AltitudeMeters>246.1999969482421875</AltitudeMeters>
            <DistanceMeters>296970.71409575</DistanceMeters>
          </Trackpoint>
          <Trackpoint>
            <Time>2018-09-14T14:16:44.000Z</Time>
            <Position>
              <LatitudeDegrees>37.70368698053061962127685546875</LatitudeDegrees>
              <LongitudeDegrees>-8.08487928472459316253662109375</LongitudeDegrees>
            </Position>
            <AltitudeMeters>246.1999969482421875</AltitudeMeters>
            <DistanceMeters>296973.31997707</DistanceMeters>
          </Trackpoint>
          <Trackpoint>
            <Time>2018-09-14T14:16:46.000Z</Time>
            <Position>
              <LatitudeDegrees>37.70363601855933666229248046875</LatitudeDegrees>
              <LongitudeDegrees>-8.08489772491157054901123046875</LongitudeDegrees>
            </Position>
            <AltitudeMeters>246.399993896484375</AltitudeMeters>
            <DistanceMeters>296979.22082233</DistanceMeters>
          </Trackpoint>
          <Trackpoint>
            <Time>2018-09-14T14:16:47.000Z</Time>
            <Position>
              <LatitudeDegrees>37.70361087284982204437255859375</LatitudeDegrees>
              <LongitudeDegrees>-8.08490107767283916473388671875</LongitudeDegrees>
            </Position>
            <AltitudeMeters>246.399993896484375</AltitudeMeters>
            <DistanceMeters>296982.03496111</DistanceMeters>
          </Trackpoint>
          <Trackpoint>
            <Time>2018-09-14T14:16:48.000Z</Time>
            <Position>
              <LatitudeDegrees>37.703584134578704833984375</LatitudeDegrees>
              <LongitudeDegrees>-8.084905855357646942138671875</LongitudeDegrees>
            </Position>
            <AltitudeMeters>246.399993896484375</AltitudeMeters>
            <DistanceMeters>296985.03996967</DistanceMeters>
          </Trackpoint>
          <Trackpoint>
            <Time>2018-09-14T14:16:49.000Z</Time>
            <Position>
              <LatitudeDegrees>37.7035558037459850311279296875</LatitudeDegrees>
              <LongitudeDegrees>-8.08491356670856475830078125</LongitudeDegrees>
            </Position>
            <AltitudeMeters>246.600006103515625</AltitudeMeters>
            <DistanceMeters>296988.2652833</DistanceMeters>
          </Trackpoint>
          <Trackpoint>
            <Time>2018-09-14T14:16:50.000Z</Time>
            <Position>
              <LatitudeDegrees>37.70352839492261409759521484375</LatitudeDegrees>
              <LongitudeDegrees>-8.0849222838878631591796875</LongitudeDegrees>
            </Position>
            <AltitudeMeters>246.600006103515625</AltitudeMeters>
            <DistanceMeters>296991.4097918</DistanceMeters>
          </Trackpoint>
          <Trackpoint>
            <Time>2018-09-14T14:16:51.000Z</Time>
            <Position>
              <LatitudeDegrees>37.70350106991827487945556640625</LatitudeDegrees>
              <LongitudeDegrees>-8.0849281512200832366943359375</LongitudeDegrees>
            </Position>
            <AltitudeMeters>246.600006103515625</AltitudeMeters>
            <DistanceMeters>296994.49194047</DistanceMeters>
          </Trackpoint>
          <Trackpoint>
            <Time>2018-09-14T14:16:52.000Z</Time>
            <Position>
              <LatitudeDegrees>37.70347156561911106109619140625</LatitudeDegrees>
              <LongitudeDegrees>-8.08493460528552532196044921875</LongitudeDegrees>
            </Position>
            <AltitudeMeters>246.8000030517578125</AltitudeMeters>
            <DistanceMeters>296997.82465619</DistanceMeters>
          </Trackpoint>
          <Trackpoint>
            <Time>2018-09-14T14:16:53.000Z</Time>
            <Position>
              <LatitudeDegrees>37.70344256423413753509521484375</LatitudeDegrees>
              <LongitudeDegrees>-8.08493980206549167633056640625</LongitudeDegrees>
            </Position>
            <AltitudeMeters>246.8000030517578125</AltitudeMeters>
            <DistanceMeters>297001.08339366</DistanceMeters>
          </Trackpoint>
          <Trackpoint>
            <Time>2018-09-14T14:16:54.000Z</Time>
            <Position>
              <LatitudeDegrees>37.70341272465884685516357421875</LatitudeDegrees>
              <LongitudeDegrees>-8.08494449593126773834228515625</LongitudeDegrees>
            </Position>
            <AltitudeMeters>246.8000030517578125</AltitudeMeters>
            <DistanceMeters>297004.42962957</DistanceMeters>
          </Trackpoint>
          <Trackpoint>
            <Time>2018-09-14T14:16:55.000Z</Time>
            <Position>
              <LatitudeDegrees>37.70338154397904872894287109375</LatitudeDegrees>
              <LongitudeDegrees>-8.08495086617767810821533203125</LongitudeDegrees>
            </Position>
            <AltitudeMeters>247</AltitudeMeters>
            <DistanceMeters>297007.945618</DistanceMeters>
          </Trackpoint>
          <Trackpoint>
            <Time>2018-09-14T14:16:56.000Z</Time>
            <Position>
              <LatitudeDegrees>37.70334885455667972564697265625</LatitudeDegrees>
              <LongitudeDegrees>-8.08495656587183475494384765625</LongitudeDegrees>
            </Position>
            <AltitudeMeters>247</AltitudeMeters>
            <DistanceMeters>297011.61861871</DistanceMeters>
          </Trackpoint>
          <Trackpoint>
            <Time>2018-09-14T14:16:57.000Z</Time>
            <Position>
              <LatitudeDegrees>37.70331566222012042999267578125</LatitudeDegrees>
              <LongitudeDegrees>-8.08496050536632537841796875</LongitudeDegrees>
            </Position>
            <AltitudeMeters>247</AltitudeMeters>
            <DistanceMeters>297015.32831364</DistanceMeters>
          </Trackpoint>
          <Trackpoint>
            <Time>2018-09-14T14:16:58.000Z</Time>
            <Position>
              <LatitudeDegrees>37.7032822184264659881591796875</LatitudeDegrees>
              <LongitudeDegrees>-8.08496511541306972503662109375</LongitudeDegrees>
            </Position>
            <AltitudeMeters>246.8000030517578125</AltitudeMeters>
            <DistanceMeters>297019.07193203</DistanceMeters>
          </Trackpoint>
          <Trackpoint>
            <Time>2018-09-14T14:16:59.000Z</Time>
            <Position>
              <LatitudeDegrees>37.703250534832477569580078125</LatitudeDegrees>
              <LongitudeDegrees>-8.08496310375630855560302734375</LongitudeDegrees>
            </Position>
            <AltitudeMeters>246.8000030517578125</AltitudeMeters>
            <DistanceMeters>297022.6020178</DistanceMeters>
          </Trackpoint>
          <Trackpoint>
            <Time>2018-09-14T14:17:00.000Z</Time>
            <Position>
              <LatitudeDegrees>37.70321859978139400482177734375</LatitudeDegrees>
              <LongitudeDegrees>-8.0849576555192470550537109375</LongitudeDegrees>
            </Position>
            <AltitudeMeters>246.8000030517578125</AltitudeMeters>
            <DistanceMeters>297026.18793872</DistanceMeters>
          </Trackpoint>
          <Trackpoint>
            <Time>2018-09-14T14:17:01.000Z</Time>
            <Position>
              <LatitudeDegrees>37.703186161816120147705078125</LatitudeDegrees>
              <LongitudeDegrees>-8.084959499537944793701171875</LongitudeDegrees>
            </Position>
            <AltitudeMeters>246.8000030517578125</AltitudeMeters>
            <DistanceMeters>297029.8014537</DistanceMeters>
          </Trackpoint>
          <Trackpoint>
            <Time>2018-09-14T14:17:02.000Z</Time>
            <Position>
              <LatitudeDegrees>37.7031536400318145751953125</LatitudeDegrees>
              <LongitudeDegrees>-8.08496595360338687896728515625</LongitudeDegrees>
            </Position>
            <AltitudeMeters>246.8000030517578125</AltitudeMeters>
            <DistanceMeters>297033.46460721</DistanceMeters>
          </Trackpoint>
          <Trackpoint>
            <Time>2018-09-14T14:17:03.000Z</Time>
            <Position>
              <LatitudeDegrees>37.70312086679041385650634765625</LatitudeDegrees>
              <LongitudeDegrees>-8.08497098274528980255126953125</LongitudeDegrees>
            </Position>
            <AltitudeMeters>246.8000030517578125</AltitudeMeters>
            <DistanceMeters>297037.13760791</DistanceMeters>
          </Trackpoint>
          <Trackpoint>
            <Time>2018-09-14T14:17:04.000Z</Time>
            <Position>
              <LatitudeDegrees>37.703087590634822845458984375</LatitudeDegrees>
              <LongitudeDegrees>-8.08497467078268527984619140625</LongitudeDegrees>
            </Position>
            <AltitudeMeters>246.600006103515625</AltitudeMeters>
            <DistanceMeters>297040.85459822</DistanceMeters>
          </Trackpoint>
          <Trackpoint>
            <Time>2018-09-14T14:17:05.000Z</Time>
            <Position>
              <LatitudeDegrees>37.70305498503148555755615234375</LatitudeDegrees>
              <LongitudeDegrees>-8.08497718535363674163818359375</LongitudeDegrees>
            </Position>
            <AltitudeMeters>246.600006103515625</AltitudeMeters>
            <DistanceMeters>297044.4905344</DistanceMeters>
          </Trackpoint>
          <Trackpoint>
            <Time>2018-09-14T14:17:06.000Z</Time>
            <Position>
              <LatitudeDegrees>37.7030220441520214080810546875</LatitudeDegrees>
              <LongitudeDegrees>-8.0849791131913661956787109375</LongitudeDegrees>
            </Position>
            <AltitudeMeters>246.600006103515625</AltitudeMeters>
            <DistanceMeters>297048.16107579</DistanceMeters>
          </Trackpoint>
          <Trackpoint>
            <Time>2018-09-14T14:17:07.000Z</Time>
            <Position>
              <LatitudeDegrees>37.7029885165393352508544921875</LatitudeDegrees>
              <LongitudeDegrees>-8.0849801190197467803955078125</LongitudeDegrees>
            </Position>
            <AltitudeMeters>246.600006103515625</AltitudeMeters>
            <DistanceMeters>297051.89382383</DistanceMeters>
          </Trackpoint>
          <Trackpoint>
            <Time>2018-09-14T14:17:08.000Z</Time>
            <Position>
              <LatitudeDegrees>37.7029551565647125244140625</LatitudeDegrees>
              <LongitudeDegrees>-8.0849801190197467803955078125</LongitudeDegrees>
            </Position>
            <AltitudeMeters>246.600006103515625</AltitudeMeters>
            <DistanceMeters>297055.60716824</DistanceMeters>
          </Trackpoint>
          <Trackpoint>
            <Time>2018-09-14T14:17:09.000Z</Time>
            <Position>
              <LatitudeDegrees>37.702921964228153228759765625</LatitudeDegrees>
              <LongitudeDegrees>-8.08498196303844451904296875</LongitudeDegrees>
            </Position>
            <AltitudeMeters>246.399993896484375</AltitudeMeters>
            <DistanceMeters>297059.30589313</DistanceMeters>
          </Trackpoint>
          <Trackpoint>
            <Time>2018-09-14T14:17:10.000Z</Time>
            <Position>
              <LatitudeDegrees>37.7028889395296573638916015625</LatitudeDegrees>
              <LongitudeDegrees>-8.0849838070571422576904296875</LongitudeDegrees>
            </Position>
            <AltitudeMeters>246.399993896484375</AltitudeMeters>
            <DistanceMeters>297062.98503496</DistanceMeters>
          </Trackpoint>
          <Trackpoint>
            <Time>2018-09-14T14:17:11.000Z</Time>
            <Position>
              <LatitudeDegrees>37.70285650156438350677490234375</LatitudeDegrees>
              <LongitudeDegrees>-8.08498422615230083465576171875</LongitudeDegrees>
            </Position>
            <AltitudeMeters>246.399993896484375</AltitudeMeters>
            <DistanceMeters>297066.59605011</DistanceMeters>
          </Trackpoint>
          <Trackpoint>
            <Time>2018-09-14T14:17:12.000Z</Time>
            <Position>
              <LatitudeDegrees>37.70282439887523651123046875</LatitudeDegrees>
              <LongitudeDegrees>-8.08497835882008075714111328125</LongitudeDegrees>
            </Position>
            <AltitudeMeters>246.399993896484375</AltitudeMeters>
            <DistanceMeters>297070.20456369</DistanceMeters>
          </Trackpoint>
          <Trackpoint>
            <Time>2018-09-14T14:17:13.000Z</Time>
            <Position>
              <LatitudeDegrees>37.70279363729059696197509765625</LatitudeDegrees>
              <LongitudeDegrees>-8.0849651992321014404296875</LongitudeDegrees>
            </Position>
            <AltitudeMeters>246.399993896484375</AltitudeMeters>
            <DistanceMeters>297073.81932794</DistanceMeters>
          </Trackpoint>
          <Trackpoint>
            <Time>2018-09-14T14:17:14.000Z</Time>
            <Position>
              <LatitudeDegrees>37.7027652226388454437255859375</LatitudeDegrees>
              <LongitudeDegrees>-8.08494633994996547698974609375</LongitudeDegrees>
            </Position>
            <AltitudeMeters>246.1999969482421875</AltitudeMeters>
            <DistanceMeters>297077.39010768</DistanceMeters>
          </Trackpoint>
          <Trackpoint>
            <Time>2018-09-14T14:17:15.000Z</Time>
            <Position>
              <LatitudeDegrees>37.70274099893867969512939453125</LatitudeDegrees>
              <LongitudeDegrees>-8.08492161333560943603515625</LongitudeDegrees>
            </Position>
            <AltitudeMeters>246.1999969482421875</AltitudeMeters>
            <DistanceMeters>297080.85565261</DistanceMeters>
          </Trackpoint>
          <Trackpoint>
            <Time>2018-09-14T14:17:16.000Z</Time>
            <Position>
              <LatitudeDegrees>37.70272825844585895538330078125</LatitudeDegrees>
              <LongitudeDegrees>-8.084887079894542694091796875</LongitudeDegrees>
            </Position>
            <AltitudeMeters>246.1999969482421875</AltitudeMeters>
            <DistanceMeters>297084.20997449</DistanceMeters>
          </Trackpoint>
          <Trackpoint>
            <Time>2018-09-14T14:17:17.000Z</Time>
            <Position>
              <LatitudeDegrees>37.70272457040846347808837890625</LatitudeDegrees>
              <LongitudeDegrees>-8.08485053479671478271484375</LongitudeDegrees>
            </Position>
            <AltitudeMeters>246.1999969482421875</AltitudeMeters>
            <DistanceMeters>297087.45343545</DistanceMeters>
          </Trackpoint>
          <Trackpoint>
            <Time>2018-09-14T14:17:18.000Z</Time>
            <Position>
              <LatitudeDegrees>37.70272205583751201629638671875</LatitudeDegrees>
              <LongitudeDegrees>-8.0848252214491367340087890625</LongitudeDegrees>
            </Position>
            <AltitudeMeters>246.1999969482421875</AltitudeMeters>
            <DistanceMeters>297089.70016925</DistanceMeters>
          </Trackpoint>
          <Trackpoint>
            <Time>2018-09-14T14:17:19.000Z</Time>
            <Position>
              <LatitudeDegrees>37.7027172781527042388916015625</LatitudeDegrees>
              <LongitudeDegrees>-8.08481038548052310943603515625</LongitudeDegrees>
            </Position>
            <AltitudeMeters>246</AltitudeMeters>
            <DistanceMeters>297091.1096432</DistanceMeters>
          </Trackpoint>
          <Trackpoint>
            <Time>2018-09-14T14:17:20.000Z</Time>
            <Position>
              <LatitudeDegrees>37.70270981825888156890869140625</LatitudeDegrees>
              <LongitudeDegrees>-8.08479965664446353912353515625</LongitudeDegrees>
            </Position>
            <AltitudeMeters>246</AltitudeMeters>
            <DistanceMeters>297092.36313165</DistanceMeters>
          </Trackpoint>
          <Trackpoint>
            <Time>2018-09-14T14:17:21.000Z</Time>
            <Position>
              <LatitudeDegrees>37.7026995085179805755615234375</LatitudeDegrees>
              <LongitudeDegrees>-8.0847903527319431304931640625</LongitudeDegrees>
            </Position>
            <AltitudeMeters>246</AltitudeMeters>
            <DistanceMeters>297093.7693986</DistanceMeters>
          </Trackpoint>
          <Trackpoint>
            <Time>2018-09-14T14:17:22.000Z</Time>
            <Position>
              <LatitudeDegrees>37.7026857621967792510986328125</LatitudeDegrees>
              <LongitudeDegrees>-8.0847823061048984527587890625</LongitudeDegrees>
            </Position>
            <AltitudeMeters>246</AltitudeMeters>
            <DistanceMeters>297095.45327627</DistanceMeters>
          </Trackpoint>
          <Trackpoint>
            <Time>2018-09-14T14:17:23.000Z</Time>
            <Position>
              <LatitudeDegrees>37.70266572944819927215576171875</LatitudeDegrees>
              <LongitudeDegrees>-8.08477551676332950592041015625</LongitudeDegrees>
            </Position>
            <AltitudeMeters>246</AltitudeMeters>
            <DistanceMeters>297097.76146714</DistanceMeters>
          </Trackpoint>
          <Trackpoint>
            <Time>2018-09-14T14:17:24.000Z</Time>
            <Position>
              <LatitudeDegrees>37.7026441879570484161376953125</LatitudeDegrees>
              <LongitudeDegrees>-8.084770403802394866943359375</LongitudeDegrees>
            </Position>
            <AltitudeMeters>245.8000030517578125</AltitudeMeters>
            <DistanceMeters>297100.20089748</DistanceMeters>
          </Trackpoint>
          <Trackpoint>
            <Time>2018-09-14T14:17:25.000Z</Time>
            <Position>
              <LatitudeDegrees>37.70262449048459529876708984375</LatitudeDegrees>
              <LongitudeDegrees>-8.0847645364701747894287109375</LongitudeDegrees>
            </Position>
            <AltitudeMeters>245.8000030517578125</AltitudeMeters>
            <DistanceMeters>297102.45164689</DistanceMeters>
          </Trackpoint>
          <Trackpoint>
            <Time>2018-09-14T14:17:26.000Z</Time>
            <Position>
              <LatitudeDegrees>37.7026069723069667816162109375</LatitudeDegrees>
              <LongitudeDegrees>-8.08475405909121036529541015625</LongitudeDegrees>
            </Position>
            <AltitudeMeters>245.8000030517578125</AltitudeMeters>
            <DistanceMeters>297104.61023889</DistanceMeters>
          </Trackpoint>
          <Trackpoint>
            <Time>2018-09-14T14:17:27.000Z</Time>
            <Position>
              <LatitudeDegrees>37.70259439945220947265625</LatitudeDegrees>
              <LongitudeDegrees>-8.08474031277000904083251953125</LongitudeDegrees>
            </Position>
            <AltitudeMeters>245.8000030517578125</AltitudeMeters>
            <DistanceMeters>297106.45776938</DistanceMeters>
          </Trackpoint>
          <Trackpoint>
            <Time>2018-09-14T14:17:28.000Z</Time>
            <Position>
              <LatitudeDegrees>37.7025885321199893951416015625</LatitudeDegrees>
              <LongitudeDegrees>-8.08472170494496822357177734375</LongitudeDegrees>
            </Position>
            <AltitudeMeters>245.600006103515625</AltitudeMeters>
            <DistanceMeters>297108.22025237</DistanceMeters>
          </Trackpoint>
          <Trackpoint>
            <Time>2018-09-14T14:17:29.000Z</Time>
            <Position>
              <LatitudeDegrees>37.70258727483451366424560546875</LatitudeDegrees>
              <LongitudeDegrees>-8.08469739742577075958251953125</LongitudeDegrees>
            </Position>
            <AltitudeMeters>245.600006103515625</AltitudeMeters>
            <DistanceMeters>297110.36625773</DistanceMeters>
          </Trackpoint>
          <Trackpoint>
            <Time>2018-09-14T14:17:30.000Z</Time>
            <Position>
              <LatitudeDegrees>37.7025905437767505645751953125</LatitudeDegrees>
              <LongitudeDegrees>-8.084675185382366180419921875</LongitudeDegrees>
            </Position>
            <AltitudeMeters>245.600006103515625</AltitudeMeters>
            <DistanceMeters>297112.3572885</DistanceMeters>
          </Trackpoint>
          <Trackpoint>
            <Time>2018-09-14T14:17:31.000Z</Time>
            <Position>
              <LatitudeDegrees>37.702598087489604949951171875</LatitudeDegrees>
              <LongitudeDegrees>-8.08464802801609039306640625</LongitudeDegrees>
            </Position>
            <AltitudeMeters>245.600006103515625</AltitudeMeters>
            <DistanceMeters>297114.8929175</DistanceMeters>
          </Trackpoint>
          <Trackpoint>
            <Time>2018-09-14T14:17:32.000Z</Time>
            <Position>
              <LatitudeDegrees>37.70260705612599849700927734375</LatitudeDegrees>
              <LongitudeDegrees>-8.08461718261241912841796875</LongitudeDegrees>
            </Position>
            <AltitudeMeters>245.600006103515625</AltitudeMeters>
            <DistanceMeters>297117.78772509</DistanceMeters>
          </Trackpoint>
          <Trackpoint>
            <Time>2018-09-14T14:17:33.000Z</Time>
            <Position>
              <LatitudeDegrees>37.70261728204786777496337890625</LatitudeDegrees>
              <LongitudeDegrees>-8.084585666656494140625</LongitudeDegrees>
            </Position>
            <AltitudeMeters>245.600006103515625</AltitudeMeters>
            <DistanceMeters>297120.78822275</DistanceMeters>
          </Trackpoint>
          <Trackpoint>
            <Time>2018-09-14T14:17:34.000Z</Time>
            <Position>
              <LatitudeDegrees>37.702628932893276214599609375</LatitudeDegrees>
              <LongitudeDegrees>-8.08455574326217174530029296875</LongitudeDegrees>
            </Position>
            <AltitudeMeters>245.600006103515625</AltitudeMeters>
            <DistanceMeters>297123.72484036</DistanceMeters>
          </Trackpoint>
          <Trackpoint>
            <Time>2018-09-14T14:17:35.000Z</Time>
            <Position>
              <LatitudeDegrees>37.70263873971998691558837890625</LatitudeDegrees>
              <LongitudeDegrees>-8.0845291726291179656982421875</LongitudeDegrees>
            </Position>
            <AltitudeMeters>245.600006103515625</AltitudeMeters>
            <DistanceMeters>297126.30984647</DistanceMeters>
          </Trackpoint>
          <Trackpoint>
            <Time>2018-09-14T14:17:36.000Z</Time>
            <Position>
              <LatitudeDegrees>37.70264192484319210052490234375</LatitudeDegrees>
              <LongitudeDegrees>-8.0845063738524913787841796875</LongitudeDegrees>
            </Position>
            <AltitudeMeters>245.600006103515625</AltitudeMeters>
            <DistanceMeters>297128.34794243</DistanceMeters>
          </Trackpoint>
          <Trackpoint>
            <Time>2018-09-14T14:17:37.000Z</Time>
            <Position>
              <LatitudeDegrees>37.70264226011931896209716796875</LatitudeDegrees>
              <LongitudeDegrees>-8.0844869278371334075927734375</LongitudeDegrees>
            </Position>
            <AltitudeMeters>245.600006103515625</AltitudeMeters>
            <DistanceMeters>297130.06106089</DistanceMeters>
          </Trackpoint>
          <Trackpoint>
            <Time>2018-09-14T14:17:38.000Z</Time>
            <Position>
              <LatitudeDegrees>37.70264594815671443939208984375</LatitudeDegrees>
              <LongitudeDegrees>-8.0844701640307903289794921875</LongitudeDegrees>
            </Position>
            <AltitudeMeters>245.600006103515625</AltitudeMeters>
            <DistanceMeters>297131.59920263</DistanceMeters>
          </Trackpoint>
          <Trackpoint>
            <Time>2018-09-14T14:17:39.000Z</Time>
            <Position>
              <LatitudeDegrees>37.70264913327991962432861328125</LatitudeDegrees>
              <LongitudeDegrees>-8.0844590999186038970947265625</LongitudeDegrees>
            </Position>
            <AltitudeMeters>245.600006103515625</AltitudeMeters>
            <DistanceMeters>297132.64016813</DistanceMeters>
          </Trackpoint>
          <Trackpoint>
            <Time>2018-09-14T14:17:40.000Z</Time>
            <Position>
              <LatitudeDegrees>37.70265139639377593994140625</LatitudeDegrees>
              <LongitudeDegrees>-8.08445222675800323486328125</LongitudeDegrees>
            </Position>
            <AltitudeMeters>245.600006103515625</AltitudeMeters>
            <DistanceMeters>297133.29853252</DistanceMeters>
          </Trackpoint>
          <Trackpoint>
            <Time>2018-09-14T14:31:43.000Z</Time>
            <Position>
              <LatitudeDegrees>37.70263354294002056121826171875</LatitudeDegrees>
              <LongitudeDegrees>-8.08451584540307521820068359375</LongitudeDegrees>
            </Position>
            <AltitudeMeters>245.600006103515625</AltitudeMeters>
            <DistanceMeters>297139.24207179</DistanceMeters>
          </Trackpoint>
          <Trackpoint>
            <Time>2018-09-14T14:31:44.000Z</Time>
            <Position>
              <LatitudeDegrees>37.70262851379811763763427734375</LatitudeDegrees>
              <LongitudeDegrees>-8.0845311842858791351318359375</LongitudeDegrees>
            </Position>
            <AltitudeMeters>245.600006103515625</AltitudeMeters>
            <DistanceMeters>297140.70498947</DistanceMeters>
          </Trackpoint>
          <Trackpoint>
            <Time>2018-09-14T14:31:45.000Z</Time>
            <Position>
              <LatitudeDegrees>37.7026187069714069366455078125</LatitudeDegrees>
              <LongitudeDegrees>-8.08454367332160472869873046875</LongitudeDegrees>
            </Position>
            <AltitudeMeters>245.600006103515625</AltitudeMeters>
            <DistanceMeters>297142.2519123</DistanceMeters>
          </Trackpoint>
          <Trackpoint>
            <Time>2018-09-14T14:31:46.000Z</Time>
            <Position>
              <LatitudeDegrees>37.7026046253740787506103515625</LatitudeDegrees>
              <LongitudeDegrees>-8.084553815424442291259765625</LongitudeDegrees>
            </Position>
            <AltitudeMeters>245.600006103515625</AltitudeMeters>
            <DistanceMeters>297144.05491744</DistanceMeters>
          </Trackpoint>
          <Trackpoint>
            <Time>2018-09-14T14:31:47.000Z</Time>
            <Position>
              <LatitudeDegrees>37.702586017549037933349609375</LatitudeDegrees>
              <LongitudeDegrees>-8.08456462807953357696533203125</LongitudeDegrees>
            </Position>
            <AltitudeMeters>245.399993896484375</AltitudeMeters>
            <DistanceMeters>297146.33555858</DistanceMeters>
          </Trackpoint>
          <Trackpoint>
            <Time>2018-09-14T14:31:48.000Z</Time>
            <Position>
              <LatitudeDegrees>37.70256715826690196990966796875</LatitudeDegrees>
              <LongitudeDegrees>-8.084577620029449462890625</LongitudeDegrees>
            </Position>
            <AltitudeMeters>245.399993896484375</AltitudeMeters>
            <DistanceMeters>297148.72449314</DistanceMeters>
          </Trackpoint>
          <Trackpoint>
            <Time>2018-09-14T14:31:49.000Z</Time>
            <Position>
              <LatitudeDegrees>37.70255056209862232208251953125</LatitudeDegrees>
              <LongitudeDegrees>-8.084589354693889617919921875</LongitudeDegrees>
            </Position>
            <AltitudeMeters>245.399993896484375</AltitudeMeters>
            <DistanceMeters>297150.84297089</DistanceMeters>
          </Trackpoint>
          <Trackpoint>
            <Time>2018-09-14T14:31:50.000Z</Time>
            <Position>
              <LatitudeDegrees>37.70253606140613555908203125</LatitudeDegrees>
              <LongitudeDegrees>-8.0846004188060760498046875</LongitudeDegrees>
            </Position>
            <AltitudeMeters>245.399993896484375</AltitudeMeters>
            <DistanceMeters>297152.72919731</DistanceMeters>
          </Trackpoint>
          <Trackpoint>
            <Time>2018-09-14T14:31:51.000Z</Time>
            <Position>
              <LatitudeDegrees>37.70251804031431674957275390625</LatitudeDegrees>
              <LongitudeDegrees>-8.08461458422243595123291015625</LongitudeDegrees>
            </Position>
            <AltitudeMeters>245.399993896484375</AltitudeMeters>
            <DistanceMeters>297155.09152397</DistanceMeters>
          </Trackpoint>
          <Trackpoint>
            <Time>2018-09-14T14:31:52.000Z</Time>
            <Position>
              <LatitudeDegrees>37.7024980075657367706298828125</LatitudeDegrees>
              <LongitudeDegrees>-8.0846299231052398681640625</LongitudeDegrees>
            </Position>
            <AltitudeMeters>245.399993896484375</AltitudeMeters>
            <DistanceMeters>297157.69913736</DistanceMeters>
          </Trackpoint>
          <Trackpoint>
            <Time>2018-09-14T14:31:53.000Z</Time>
            <Position>
              <LatitudeDegrees>37.70248065702617168426513671875</LatitudeDegrees>
              <LongitudeDegrees>-8.08464559726417064666748046875</LongitudeDegrees>
            </Position>
            <AltitudeMeters>245.399993896484375</AltitudeMeters>
            <DistanceMeters>297160.07290392</DistanceMeters>
          </Trackpoint>
          <Trackpoint>
            <Time>2018-09-14T14:31:54.000Z</Time>
            <Position>
              <LatitudeDegrees>37.702465318143367767333984375</LatitudeDegrees>
              <LongitudeDegrees>-8.0846609361469745635986328125</LongitudeDegrees>
            </Position>
            <AltitudeMeters>245.399993896484375</AltitudeMeters>
            <DistanceMeters>297162.25023948</DistanceMeters>
          </Trackpoint>
          <Trackpoint>
            <Time>2018-09-14T14:31:55.000Z</Time>
            <Position>
              <LatitudeDegrees>37.70244947634637355804443359375</LatitudeDegrees>
              <LongitudeDegrees>-8.08467258699238300323486328125</LongitudeDegrees>
            </Position>
            <AltitudeMeters>245.399993896484375</AltitudeMeters>
            <DistanceMeters>297164.28833544</DistanceMeters>
          </Trackpoint>
          <Trackpoint>
            <Time>2018-09-14T14:31:56.000Z</Time>
            <Position>
              <LatitudeDegrees>37.70243388600647449493408203125</LatitudeDegrees>
              <LongitudeDegrees>-8.0846844054758548736572265625</LongitudeDegrees>
            </Position>
            <AltitudeMeters>245.399993896484375</AltitudeMeters>
            <DistanceMeters>297166.31086471</DistanceMeters>
          </Trackpoint>
          <Trackpoint>
            <Time>2018-09-14T14:31:57.000Z</Time>
            <Position>
              <LatitudeDegrees>37.70242206752300262451171875</LatitudeDegrees>
              <LongitudeDegrees>-8.08470108546316623687744140625</LongitudeDegrees>
            </Position>
            <AltitudeMeters>245.399993896484375</AltitudeMeters>
            <DistanceMeters>297168.28367057</DistanceMeters>
          </Trackpoint>
          <Trackpoint>
            <Time>2018-09-14T14:31:58.000Z</Time>
            <Position>
              <LatitudeDegrees>37.7024173736572265625</LatitudeDegrees>
              <LongitudeDegrees>-8.0847209505736827850341796875</LongitudeDegrees>
            </Position>
            <AltitudeMeters>245.399993896484375</AltitudeMeters>
            <DistanceMeters>297170.10907414</DistanceMeters>
          </Trackpoint>
          <Trackpoint>
            <Time>2018-09-14T14:31:59.000Z</Time>
            <Position>
              <LatitudeDegrees>37.7024108357727527618408203125</LatitudeDegrees>
              <LongitudeDegrees>-8.0847403965890407562255859375</LongitudeDegrees>
            </Position>
            <AltitudeMeters>245.399993896484375</AltitudeMeters>
            <DistanceMeters>297171.97120984</DistanceMeters>
          </Trackpoint>
          <Trackpoint>
            <Time>2018-09-14T14:32:00.000Z</Time>
            <Position>
              <LatitudeDegrees>37.702402286231517791748046875</LatitudeDegrees>
              <LongitudeDegrees>-8.08475808240473270416259765625</LongitudeDegrees>
            </Position>
            <AltitudeMeters>245.399993896484375</AltitudeMeters>
            <DistanceMeters>297173.79661341</DistanceMeters>
          </Trackpoint>
          <Trackpoint>
            <Time>2018-09-14T14:32:01.000Z</Time>
            <Position>
              <LatitudeDegrees>37.7023937366902828216552734375</LatitudeDegrees>
              <LongitudeDegrees>-8.0847749300301074981689453125</LongitudeDegrees>
            </Position>
            <AltitudeMeters>245.399993896484375</AltitudeMeters>
            <DistanceMeters>297175.5590964</DistanceMeters>
          </Trackpoint>
          <Trackpoint>
            <Time>2018-09-14T14:32:02.000Z</Time>
            <Position>
              <LatitudeDegrees>37.70238946191966533660888671875</LatitudeDegrees>
              <LongitudeDegrees>-8.084790520370006561279296875</LongitudeDegrees>
            </Position>
            <AltitudeMeters>245.399993896484375</AltitudeMeters>
            <DistanceMeters>297177.00961625</DistanceMeters>
          </Trackpoint>
          <Trackpoint>
            <Time>2018-09-14T14:32:03.000Z</Time>
            <Position>
              <LatitudeDegrees>37.70238778553903102874755859375</LatitudeDegrees>
              <LongitudeDegrees>-8.08480585925281047821044921875</LongitudeDegrees>
            </Position>
            <AltitudeMeters>245.399993896484375</AltitudeMeters>
            <DistanceMeters>297178.37350618</DistanceMeters>
          </Trackpoint>
          <Trackpoint>
            <Time>2018-09-14T14:32:04.000Z</Time>
            <Position>
              <LatitudeDegrees>37.70238460041582584381103515625</LatitudeDegrees>
              <LongitudeDegrees>-8.0848262272775173187255859375</LongitudeDegrees>
            </Position>
            <AltitudeMeters>245.399993896484375</AltitudeMeters>
            <DistanceMeters>297180.20138152</DistanceMeters>
          </Trackpoint>
          <Trackpoint>
            <Time>2018-09-14T14:32:05.000Z</Time>
            <Position>
              <LatitudeDegrees>37.7023830078542232513427734375</LatitudeDegrees>
              <LongitudeDegrees>-8.08484843932092189788818359375</LongitudeDegrees>
            </Position>
            <AltitudeMeters>245.600006103515625</AltitudeMeters>
            <DistanceMeters>297182.16730948</DistanceMeters>
          </Trackpoint>
          <Trackpoint>
            <Time>2018-09-14T14:32:06.000Z</Time>
            <Position>
              <LatitudeDegrees>37.702386863529682159423828125</LatitudeDegrees>
              <LongitudeDegrees>-8.0848721601068973541259765625</LongitudeDegrees>
            </Position>
            <AltitudeMeters>245.600006103515625</AltitudeMeters>
            <DistanceMeters>297184.29853646</DistanceMeters>
          </Trackpoint>
          <Trackpoint>
            <Time>2018-09-14T14:32:07.000Z</Time>
            <Position>
              <LatitudeDegrees>37.70239197649061679840087890625</LatitudeDegrees>
              <LongitudeDegrees>-8.0848976410925388336181640625</LongitudeDegrees>
            </Position>
            <AltitudeMeters>245.600006103515625</AltitudeMeters>
            <DistanceMeters>297186.61453849</DistanceMeters>
          </Trackpoint>
          <Trackpoint>
            <Time>2018-09-14T14:32:08.000Z</Time>
            <Position>
              <LatitudeDegrees>37.70239935256540775299072265625</LatitudeDegrees>
              <LongitudeDegrees>-8.08492287062108516693115234375</LongitudeDegrees>
            </Position>
            <AltitudeMeters>245.600006103515625</AltitudeMeters>
            <DistanceMeters>297188.98449789</DistanceMeters>
          </Trackpoint>
          <Trackpoint>
            <Time>2018-09-14T14:32:09.000Z</Time>
            <Position>
              <LatitudeDegrees>37.70240404643118381500244140625</LatitudeDegrees>
              <LongitudeDegrees>-8.084948100149631500244140625</LongitudeDegrees>
            </Position>
            <AltitudeMeters>245.600006103515625</AltitudeMeters>
            <DistanceMeters>297191.2671179</DistanceMeters>
          </Trackpoint>
          <Trackpoint>
            <Time>2018-09-14T14:32:10.000Z</Time>
            <Position>
              <LatitudeDegrees>37.7024053037166595458984375</LatitudeDegrees>
              <LongitudeDegrees>-8.08497902937233448028564453125</LongitudeDegrees>
            </Position>
            <AltitudeMeters>245.8000030517578125</AltitudeMeters>
            <DistanceMeters>297193.99324206</DistanceMeters>
          </Trackpoint>
          <Trackpoint>
            <Time>2018-09-14T14:32:11.000Z</Time>
            <Position>
              <LatitudeDegrees>37.70240756683051586151123046875</LatitudeDegrees>
              <LongitudeDegrees>-8.0850119702517986297607421875</LongitudeDegrees>
            </Position>
            <AltitudeMeters>245.8000030517578125</AltitudeMeters>
            <DistanceMeters>297196.90515582</DistanceMeters>
          </Trackpoint>
          <Trackpoint>
            <Time>2018-09-14T14:32:12.000Z</Time>
            <Position>
              <LatitudeDegrees>37.70240572281181812286376953125</LatitudeDegrees>
              <LongitudeDegrees>-8.085047341883182525634765625</LongitudeDegrees>
            </Position>
            <AltitudeMeters>245.8000030517578125</AltitudeMeters>
            <DistanceMeters>297200.02515941</DistanceMeters>
          </Trackpoint>
          <Trackpoint>
            <Time>2018-09-14T14:32:13.000Z</Time>
            <Position>
              <LatitudeDegrees>37.7023970894515514373779296875</LatitudeDegrees>
              <LongitudeDegrees>-8.0850813724100589752197265625</LongitudeDegrees>
            </Position>
            <AltitudeMeters>245.8000030517578125</AltitudeMeters>
            <DistanceMeters>297203.17110343</DistanceMeters>
          </Trackpoint>
          <Trackpoint>
            <Time>2018-09-14T14:32:14.000Z</Time>
            <Position>
              <LatitudeDegrees>37.7023820020258426666259765625</LatitudeDegrees>
              <LongitudeDegrees>-8.0851113796234130859375</LongitudeDegrees>
            </Position>
            <AltitudeMeters>245.8000030517578125</AltitudeMeters>
            <DistanceMeters>297206.30122051</DistanceMeters>
          </Trackpoint>
          <Trackpoint>
            <Time>2018-09-14T14:32:15.000Z</Time>
            <Position>
              <LatitudeDegrees>37.7023632265627384185791015625</LatitudeDegrees>
              <LongitudeDegrees>-8.08513895608484745025634765625</LongitudeDegrees>
            </Position>
            <AltitudeMeters>246</AltitudeMeters>
            <DistanceMeters>297209.50546721</DistanceMeters>
          </Trackpoint>
          <Trackpoint>
            <Time>2018-09-14T14:32:16.000Z</Time>
            <Position>
              <LatitudeDegrees>37.7023417688906192779541015625</LatitudeDegrees>
              <LongitudeDegrees>-8.08516041375696659088134765625</LongitudeDegrees>
            </Position>
            <AltitudeMeters>246</AltitudeMeters>
            <DistanceMeters>297212.55225546</DistanceMeters>
          </Trackpoint>
          <Trackpoint>
            <Time>2018-09-14T14:32:17.000Z</Time>
            <Position>
              <LatitudeDegrees>37.70231612026691436767578125</LatitudeDegrees>
              <LongitudeDegrees>-8.08517382480204105377197265625</LongitudeDegrees>
            </Position>
            <AltitudeMeters>246</AltitudeMeters>
            <DistanceMeters>297215.64318102</DistanceMeters>
          </Trackpoint>
          <Trackpoint>
            <Time>2018-09-14T14:32:18.000Z</Time>
            <Position>
              <LatitudeDegrees>37.7022864483296871185302734375</LatitudeDegrees>
              <LongitudeDegrees>-8.08517910540103912353515625</LongitudeDegrees>
            </Position>
            <AltitudeMeters>246</AltitudeMeters>
            <DistanceMeters>297218.97860516</DistanceMeters>
          </Trackpoint>
          <Trackpoint>
            <Time>2018-09-14T14:32:19.000Z</Time>
            <Position>
              <LatitudeDegrees>37.7022549323737621307373046875</LatitudeDegrees>
              <LongitudeDegrees>-8.085175417363643646240234375</LongitudeDegrees>
            </Position>
            <AltitudeMeters>246</AltitudeMeters>
            <DistanceMeters>297222.50100847</DistanceMeters>
          </Trackpoint>
          <Trackpoint>
            <Time>2018-09-14T14:32:20.000Z</Time>
            <Position>
              <LatitudeDegrees>37.7022224105894565582275390625</LatitudeDegrees>
              <LongitudeDegrees>-8.08516326360404491424560546875</LongitudeDegrees>
            </Position>
            <AltitudeMeters>245.8000030517578125</AltitudeMeters>
            <DistanceMeters>297226.27585424</DistanceMeters>
          </Trackpoint>
          <Trackpoint>
            <Time>2018-09-14T14:32:21.000Z</Time>
            <Position>
              <LatitudeDegrees>37.7021905593574047088623046875</LatitudeDegrees>
              <LongitudeDegrees>-8.08514423668384552001953125</LongitudeDegrees>
            </Position>
            <AltitudeMeters>245.8000030517578125</AltitudeMeters>
            <DistanceMeters>297230.19851281</DistanceMeters>
          </Trackpoint>
          <Trackpoint>
            <Time>2018-09-14T14:32:22.000Z</Time>
            <Position>
              <LatitudeDegrees>37.70215728320181369781494140625</LatitudeDegrees>
              <LongitudeDegrees>-8.08512210845947265625</LongitudeDegrees>
            </Position>
            <AltitudeMeters>245.600006103515625</AltitudeMeters>
            <DistanceMeters>297234.38508401</DistanceMeters>
          </Trackpoint>
          <Trackpoint>
            <Time>2018-09-14T14:32:23.000Z</Time>
            <Position>
              <LatitudeDegrees>37.7021208219230175018310546875</LatitudeDegrees>
              <LongitudeDegrees>-8.08510400354862213134765625</LongitudeDegrees>
            </Position>
            <AltitudeMeters>245.600006103515625</AltitudeMeters>
            <DistanceMeters>297238.74597165</DistanceMeters>
          </Trackpoint>
          <Trackpoint>
            <Time>2018-09-14T14:32:24.000Z</Time>
            <Position>
              <LatitudeDegrees>37.70208201371133327484130859375</LatitudeDegrees>
              <LongitudeDegrees>-8.08509101159870624542236328125</LongitudeDegrees>
            </Position>
            <AltitudeMeters>245.399993896484375</AltitudeMeters>
            <DistanceMeters>297243.21424861</DistanceMeters>
          </Trackpoint>
          <Trackpoint>
            <Time>2018-09-14T14:32:25.000Z</Time>
            <Position>
              <LatitudeDegrees>37.70204060710966587066650390625</LatitudeDegrees>
              <LongitudeDegrees>-8.0850857309997081756591796875</LongitudeDegrees>
            </Position>
            <AltitudeMeters>245.399993896484375</AltitudeMeters>
            <DistanceMeters>297247.84625267</DistanceMeters>
          </Trackpoint>
          <Trackpoint>
            <Time>2018-09-14T14:32:26.000Z</Time>
            <Position>
              <LatitudeDegrees>37.70199852995574474334716796875</LatitudeDegrees>
              <LongitudeDegrees>-8.08508682064712047576904296875</LongitudeDegrees>
            </Position>
            <AltitudeMeters>245.399993896484375</AltitudeMeters>
            <DistanceMeters>297252.53059742</DistanceMeters>
          </Trackpoint>
          <Trackpoint>
            <Time>2018-09-14T14:32:27.000Z</Time>
            <Position>
              <LatitudeDegrees>37.701957039535045623779296875</LatitudeDegrees>
              <LongitudeDegrees>-8.08508967049419879913330078125</LongitudeDegrees>
            </Position>
            <AltitudeMeters>245.1999969482421875</AltitudeMeters>
            <DistanceMeters>297257.15577321</DistanceMeters>
          </Trackpoint>
          <Trackpoint>
            <Time>2018-09-14T14:32:28.000Z</Time>
            <Position>
              <LatitudeDegrees>37.7019152976572513580322265625</LatitudeDegrees>
              <LongitudeDegrees>-8.085092268884181976318359375</LongitudeDegrees>
            </Position>
            <AltitudeMeters>245.1999969482421875</AltitudeMeters>
            <DistanceMeters>297261.80723139</DistanceMeters>
          </Trackpoint>
          <Trackpoint>
            <Time>2018-09-14T14:32:29.000Z</Time>
            <Position>
              <LatitudeDegrees>37.7018742263317108154296875</LatitudeDegrees>
              <LongitudeDegrees>-8.0850939452648162841796875</LongitudeDegrees>
            </Position>
            <AltitudeMeters>245.1999969482421875</AltitudeMeters>
            <DistanceMeters>297266.38136378</DistanceMeters>
          </Trackpoint>
          <Trackpoint>
            <Time>2018-09-14T14:32:30.000Z</Time>
            <Position>
              <LatitudeDegrees>37.701833657920360565185546875</LatitudeDegrees>
              <LongitudeDegrees>-8.08509537018835544586181640625</LongitudeDegrees>
            </Position>
            <AltitudeMeters>245.1999969482421875</AltitudeMeters>
            <DistanceMeters>297270.89888221</DistanceMeters>
          </Trackpoint>
          <Trackpoint>
            <Time>2018-09-14T14:32:31.000Z</Time>
            <Position>
              <LatitudeDegrees>37.7017935924232006072998046875</LatitudeDegrees>
              <LongitudeDegrees>-8.08509872294962406158447265625</LongitudeDegrees>
            </Position>
            <AltitudeMeters>245.1999969482421875</AltitudeMeters>
            <DistanceMeters>297275.36715917</DistanceMeters>
          </Trackpoint>
          <Trackpoint>
            <Time>2018-09-14T14:32:32.000Z</Time>
            <Position>
              <LatitudeDegrees>37.70175277255475521087646484375</LatitudeDegrees>
              <LongitudeDegrees>-8.08510266244411468505859375</LongitudeDegrees>
            </Position>
            <AltitudeMeters>245</AltitudeMeters>
            <DistanceMeters>297279.9244803</DistanceMeters>
          </Trackpoint>
          <Trackpoint>
            <Time>2018-09-14T14:32:33.000Z</Time>
            <Position>
              <LatitudeDegrees>37.7017097733914852142333984375</LatitudeDegrees>
              <LongitudeDegrees>-8.08510777540504932403564453125</LongitudeDegrees>
            </Position>
            <AltitudeMeters>245</AltitudeMeters>
            <DistanceMeters>297284.73249399</DistanceMeters>
          </Trackpoint>
          <Trackpoint>
            <Time>2018-09-14T14:32:34.000Z</Time>
            <Position>
              <LatitudeDegrees>37.701665349304676055908203125</LatitudeDegrees>
              <LongitudeDegrees>-8.08511230163276195526123046875</LongitudeDegrees>
            </Position>
            <AltitudeMeters>245.1999969482421875</AltitudeMeters>
            <DistanceMeters>297289.69394422</DistanceMeters>
          </Trackpoint>
          <Trackpoint>
            <Time>2018-09-14T14:32:35.000Z</Time>
            <Position>
              <LatitudeDegrees>37.7016192488372325897216796875</LatitudeDegrees>
              <LongitudeDegrees>-8.08511749841272830963134765625</LongitudeDegrees>
            </Position>
            <AltitudeMeters>245.1999969482421875</AltitudeMeters>
            <DistanceMeters>297294.84470772</DistanceMeters>
          </Trackpoint>
          <Trackpoint>
            <Time>2018-09-14T14:32:36.000Z</Time>
            <Position>
              <LatitudeDegrees>37.70157222636044025421142578125</LatitudeDegrees>
              <LongitudeDegrees>-8.0851229466497898101806640625</LongitudeDegrees>
            </Position>
            <AltitudeMeters>245.399993896484375</AltitudeMeters>
            <DistanceMeters>297300.10132582</DistanceMeters>
          </Trackpoint>
          <Trackpoint>
            <Time>2018-09-14T14:32:37.000Z</Time>
            <Position>
              <LatitudeDegrees>37.7015255391597747802734375</LatitudeDegrees>
              <LongitudeDegrees>-8.08512688614428043365478515625</LongitudeDegrees>
            </Position>
            <AltitudeMeters>245.399993896484375</AltitudeMeters>
            <DistanceMeters>297305.30962206</DistanceMeters>
          </Trackpoint>
          <Trackpoint>
            <Time>2018-09-14T14:32:38.000Z</Time>
            <Position>
              <LatitudeDegrees>37.70147818140685558319091796875</LatitudeDegrees>
              <LongitudeDegrees>-8.08512889780104160308837890625</LongitudeDegrees>
            </Position>
            <AltitudeMeters>245.600006103515625</AltitudeMeters>
            <DistanceMeters>297310.58424674</DistanceMeters>
          </Trackpoint>
          <Trackpoint>
            <Time>2018-09-14T14:32:39.000Z</Time>
            <Position>
              <LatitudeDegrees>37.70143040455877780914306640625</LatitudeDegrees>
              <LongitudeDegrees>-8.08513074181973934173583984375</LongitudeDegrees>
            </Position>
            <AltitudeMeters>245.8000030517578125</AltitudeMeters>
            <DistanceMeters>297315.90404557</DistanceMeters>
          </Trackpoint>
          <Trackpoint>
            <Time>2018-09-14T14:32:40.000Z</Time>
            <Position>
              <LatitudeDegrees>37.70138346590101718902587890625</LatitudeDegrees>
              <LongitudeDegrees>-8.08513627387583255767822265625</LongitudeDegrees>
            </Position>
            <AltitudeMeters>245.8000030517578125</AltitudeMeters>
            <DistanceMeters>297321.15034645</DistanceMeters>
          </Trackpoint>
          <Trackpoint>
            <Time>2018-09-14T14:32:41.000Z</Time>
            <Position>
              <LatitudeDegrees>37.70133577287197113037109375</LatitudeDegrees>
              <LongitudeDegrees>-8.0851420573890209197998046875</LongitudeDegrees>
            </Position>
            <AltitudeMeters>246</AltitudeMeters>
            <DistanceMeters>297326.48286094</DistanceMeters>
          </Trackpoint>
          <Trackpoint>
            <Time>2018-09-14T14:32:42.000Z</Time>
            <Position>
              <LatitudeDegrees>37.70128875039517879486083984375</LatitudeDegrees>
              <LongitudeDegrees>-8.0851437337696552276611328125</LongitudeDegrees>
            </Position>
            <AltitudeMeters>246</AltitudeMeters>
            <DistanceMeters>297331.71882428</DistanceMeters>
          </Trackpoint>
          <Trackpoint>
            <Time>2018-09-14T14:32:43.000Z</Time>
            <Position>
              <LatitudeDegrees>37.7012412250041961669921875</LatitudeDegrees>
              <LongitudeDegrees>-8.08514557778835296630859375</LongitudeDegrees>
            </Position>
            <AltitudeMeters>246.1999969482421875</AltitudeMeters>
            <DistanceMeters>297337.01139427</DistanceMeters>
          </Trackpoint>
          <Trackpoint>
            <Time>2018-09-14T14:32:44.000Z</Time>
            <Position>
              <LatitudeDegrees>37.7011944539844989776611328125</LatitudeDegrees>
              <LongitudeDegrees>-8.085149936378002166748046875</LongitudeDegrees>
            </Position>
            <AltitudeMeters>246.399993896484375</AltitudeMeters>
            <DistanceMeters>297342.2318129</DistanceMeters>
          </Trackpoint>
          <Trackpoint>
            <Time>2018-09-14T14:32:45.000Z</Time>
            <Position>
              <LatitudeDegrees>37.70114801824092864990234375</LatitudeDegrees>
              <LongitudeDegrees>-8.08515496551990509033203125</LongitudeDegrees>
            </Position>
            <AltitudeMeters>246.399993896484375</AltitudeMeters>
            <DistanceMeters>297347.41926197</DistanceMeters>
          </Trackpoint>
          <Trackpoint>
            <Time>2018-09-14T14:32:46.000Z</Time>
            <Position>
              <LatitudeDegrees>37.70110242068767547607421875</LatitudeDegrees>
              <LongitudeDegrees>-8.08515991084277629852294921875</LongitudeDegrees>
            </Position>
            <AltitudeMeters>246.600006103515625</AltitudeMeters>
            <DistanceMeters>297352.51361567</DistanceMeters>
          </Trackpoint>
          <Trackpoint>
            <Time>2018-09-14T14:32:47.000Z</Time>
            <Position>
              <LatitudeDegrees>37.7010563202202320098876953125</LatitudeDegrees>
              <LongitudeDegrees>-8.08516301214694976806640625</LongitudeDegrees>
            </Position>
            <AltitudeMeters>246.8000030517578125</AltitudeMeters>
            <DistanceMeters>297357.65209244</DistanceMeters>
          </Trackpoint>
          <Trackpoint>
            <Time>2018-09-14T14:32:48.000Z</Time>
            <Position>
              <LatitudeDegrees>37.701010219752788543701171875</LatitudeDegrees>
              <LongitudeDegrees>-8.0851655267179012298583984375</LongitudeDegrees>
            </Position>
            <AltitudeMeters>246.8000030517578125</AltitudeMeters>
            <DistanceMeters>297362.78793252</DistanceMeters>
          </Trackpoint>
          <Trackpoint>
            <Time>2018-09-14T14:32:49.000Z</Time>
            <Position>
              <LatitudeDegrees>37.7009644545614719390869140625</LatitudeDegrees>
              <LongitudeDegrees>-8.0851685442030429840087890625</LongitudeDegrees>
            </Position>
            <AltitudeMeters>247</AltitudeMeters>
            <DistanceMeters>297367.88937156</DistanceMeters>
          </Trackpoint>
          <Trackpoint>
            <Time>2018-09-14T14:32:50.000Z</Time>
            <Position>
              <LatitudeDegrees>37.70091894082725048065185546875</LatitudeDegrees>
              <LongitudeDegrees>-8.08517239987850189208984375</LongitudeDegrees>
            </Position>
            <AltitudeMeters>247</AltitudeMeters>
            <DistanceMeters>297372.96685798</DistanceMeters>
          </Trackpoint>
          <Trackpoint>
            <Time>2018-09-14T14:32:51.000Z</Time>
            <Position>
              <LatitudeDegrees>37.7008739300072193145751953125</LatitudeDegrees>
              <LongitudeDegrees>-8.0851757526397705078125</LongitudeDegrees>
            </Position>
            <AltitudeMeters>247.1999969482421875</AltitudeMeters>
            <DistanceMeters>297377.98441247</DistanceMeters>
          </Trackpoint>
          <Trackpoint>
            <Time>2018-09-14T14:32:52.000Z</Time>
            <Position>
              <LatitudeDegrees>37.70082942210137844085693359375</LatitudeDegrees>
              <LongitudeDegrees>-8.085177429020404815673828125</LongitudeDegrees>
            </Position>
            <AltitudeMeters>247.1999969482421875</AltitudeMeters>
            <DistanceMeters>297382.94039955</DistanceMeters>
          </Trackpoint>
          <Trackpoint>
            <Time>2018-09-14T14:32:53.000Z</Time>
            <Position>
              <LatitudeDegrees>37.70078583620488643646240234375</LatitudeDegrees>
              <LongitudeDegrees>-8.085180111229419708251953125</LongitudeDegrees>
            </Position>
            <AltitudeMeters>247</AltitudeMeters>
            <DistanceMeters>297387.79699915</DistanceMeters>
          </Trackpoint>
          <Trackpoint>
            <Time>2018-09-14T14:32:54.000Z</Time>
            <Position>
              <LatitudeDegrees>37.70074367523193359375</LatitudeDegrees>
              <LongitudeDegrees>-8.0851824581623077392578125</LongitudeDegrees>
            </Position>
            <AltitudeMeters>247</AltitudeMeters>
            <DistanceMeters>297392.49481852</DistanceMeters>
          </Trackpoint>
          <Trackpoint>
            <Time>2018-09-14T14:32:55.000Z</Time>
            <Position>
              <LatitudeDegrees>37.70070352591574192047119140625</LatitudeDegrees>
              <LongitudeDegrees>-8.08518539182841777801513671875</LongitudeDegrees>
            </Position>
            <AltitudeMeters>247</AltitudeMeters>
            <DistanceMeters>297396.97117191</DistanceMeters>
          </Trackpoint>
          <Trackpoint>
            <Time>2018-09-14T14:32:56.000Z</Time>
            <Position>
              <LatitudeDegrees>37.70066329278051853179931640625</LatitudeDegrees>
              <LongitudeDegrees>-8.0851905047893524169921875</LongitudeDegrees>
            </Position>
            <AltitudeMeters>247</AltitudeMeters>
            <DistanceMeters>297401.47267072</DistanceMeters>
          </Trackpoint>
          <Trackpoint>
            <Time>2018-09-14T14:32:57.000Z</Time>
            <Position>
              <LatitudeDegrees>37.7006231434643268585205078125</LatitudeDegrees>
              <LongitudeDegrees>-8.08519612066447734832763671875</LongitudeDegrees>
            </Position>
            <AltitudeMeters>247</AltitudeMeters>
            <DistanceMeters>297405.96814745</DistanceMeters>
          </Trackpoint>
          <Trackpoint>
            <Time>2018-09-14T14:32:58.000Z</Time>
            <Position>
              <LatitudeDegrees>37.70058399997651576995849609375</LatitudeDegrees>
              <LongitudeDegrees>-8.0851987190544605255126953125</LongitudeDegrees>
            </Position>
            <AltitudeMeters>247</AltitudeMeters>
            <DistanceMeters>297410.33110529</DistanceMeters>
          </Trackpoint>
          <Trackpoint>
            <Time>2018-09-14T14:32:59.000Z</Time>
            <Position>
              <LatitudeDegrees>37.700546197593212127685546875</LatitudeDegrees>
              <LongitudeDegrees>-8.0852007307112216949462890625</LongitudeDegrees>
            </Position>
            <AltitudeMeters>247</AltitudeMeters>
            <DistanceMeters>297414.54240796</DistanceMeters>
          </Trackpoint>
          <Trackpoint>
            <Time>2018-09-14T14:33:00.000Z</Time>
            <Position>
              <LatitudeDegrees>37.70050940103828907012939453125</LatitudeDegrees>
              <LongitudeDegrees>-8.085209615528583526611328125</LongitudeDegrees>
            </Position>
            <AltitudeMeters>247</AltitudeMeters>
            <DistanceMeters>297418.71168813</DistanceMeters>
          </Trackpoint>
          <Trackpoint>
            <Time>2018-09-14T14:33:01.000Z</Time>
            <Position>
              <LatitudeDegrees>37.700474448502063751220703125</LatitudeDegrees>
              <LongitudeDegrees>-8.08522470295429229736328125</LongitudeDegrees>
            </Position>
            <AltitudeMeters>247</AltitudeMeters>
            <DistanceMeters>297422.82097553</DistanceMeters>
          </Trackpoint>
          <Trackpoint>
            <Time>2018-09-14T14:33:02.000Z</Time>
            <Position>
              <LatitudeDegrees>37.70043991506099700927734375</LatitudeDegrees>
              <LongitudeDegrees>-8.085242472589015960693359375</LongitudeDegrees>
            </Position>
            <AltitudeMeters>247</AltitudeMeters>
            <DistanceMeters>297426.96962901</DistanceMeters>
          </Trackpoint>
          <Trackpoint>
            <Time>2018-09-14T14:33:03.000Z</Time>
            <Position>
              <LatitudeDegrees>37.70040714181959629058837890625</LatitudeDegrees>
              <LongitudeDegrees>-8.08526267297565937042236328125</LongitudeDegrees>
            </Position>
            <AltitudeMeters>247</AltitudeMeters>
            <DistanceMeters>297431.02805968</DistanceMeters>
          </Trackpoint>
          <Trackpoint>
            <Time>2018-09-14T14:33:04.000Z</Time>
            <Position>
              <LatitudeDegrees>37.70037730224430561065673828125</LatitudeDegrees>
              <LongitudeDegrees>-8.08528765104711055755615234375</LongitudeDegrees>
            </Position>
            <AltitudeMeters>247</AltitudeMeters>
            <DistanceMeters>297435.01238828</DistanceMeters>
          </Trackpoint>
          <Trackpoint>
            <Time>2018-09-14T14:33:05.000Z</Time>
            <Position>
              <LatitudeDegrees>37.70035232417285442352294921875</LatitudeDegrees>
              <LongitudeDegrees>-8.08531363494694232940673828125</LongitudeDegrees>
            </Position>
            <AltitudeMeters>247</AltitudeMeters>
            <DistanceMeters>297438.61338672</DistanceMeters>
          </Trackpoint>
          <Trackpoint>
            <Time>2018-09-14T14:33:06.000Z</Time>
            <Position>
              <LatitudeDegrees>37.700328268110752105712890625</LatitudeDegrees>
              <LongitudeDegrees>-8.0853398703038692474365234375</LongitudeDegrees>
            </Position>
            <AltitudeMeters>247</AltitudeMeters>
            <DistanceMeters>297442.14986178</DistanceMeters>
          </Trackpoint>
          <Trackpoint>
            <Time>2018-09-14T14:33:07.000Z</Time>
            <Position>
              <LatitudeDegrees>37.700306139886379241943359375</LatitudeDegrees>
              <LongitudeDegrees>-8.08536493219435214996337890625</LongitudeDegrees>
            </Position>
            <AltitudeMeters>247</AltitudeMeters>
            <DistanceMeters>297445.45810189</DistanceMeters>
          </Trackpoint>
          <Trackpoint>
            <Time>2018-09-14T14:33:08.000Z</Time>
            <Position>
              <LatitudeDegrees>37.7002831734716892242431640625</LatitudeDegrees>
              <LongitudeDegrees>-8.08539074845612049102783203125</LongitudeDegrees>
            </Position>
            <AltitudeMeters>247</AltitudeMeters>
            <DistanceMeters>297448.87906361</DistanceMeters>
          </Trackpoint>
          <Trackpoint>
            <Time>2018-09-14T14:33:09.000Z</Time>
            <Position>
              <LatitudeDegrees>37.70025626756250858306884765625</LatitudeDegrees>
              <LongitudeDegrees>-8.0854158103466033935546875</LongitudeDegrees>
            </Position>
            <AltitudeMeters>247</AltitudeMeters>
            <DistanceMeters>297452.59969624</DistanceMeters>
          </Trackpoint>
          <Trackpoint>
            <Time>2018-09-14T14:33:10.000Z</Time>
            <Position>
              <LatitudeDegrees>37.70022575743496417999267578125</LatitudeDegrees>
              <LongitudeDegrees>-8.0854372680187225341796875</LongitudeDegrees>
            </Position>
            <AltitudeMeters>247</AltitudeMeters>
            <DistanceMeters>297456.48534777</DistanceMeters>
          </Trackpoint>
          <Trackpoint>
            <Time>2018-09-14T14:33:11.000Z</Time>
            <Position>
              <LatitudeDegrees>37.700192816555500030517578125</LatitudeDegrees>
              <LongitudeDegrees>-8.0854501761496067047119140625</LongitudeDegrees>
            </Position>
            <AltitudeMeters>247</AltitudeMeters>
            <DistanceMeters>297460.32423886</DistanceMeters>
          </Trackpoint>
          <Trackpoint>
            <Time>2018-09-14T14:33:12.000Z</Time>
            <Position>
              <LatitudeDegrees>37.7001581154763698577880859375</LatitudeDegrees>
              <LongitudeDegrees>-8.0854525230824947357177734375</LongitudeDegrees>
            </Position>
            <AltitudeMeters>247</AltitudeMeters>
            <DistanceMeters>297464.19358851</DistanceMeters>
          </Trackpoint>
          <Trackpoint>
            <Time>2018-09-14T14:33:13.000Z</Time>
            <Position>
              <LatitudeDegrees>37.7001255936920642852783203125</LatitudeDegrees>
              <LongitudeDegrees>-8.08543819002807140350341796875</LongitudeDegrees>
            </Position>
            <AltitudeMeters>247</AltitudeMeters>
            <DistanceMeters>297468.02777219</DistanceMeters>
          </Trackpoint>
          <Trackpoint>
            <Time>2018-09-14T14:33:14.000Z</Time>
            <Position>
              <LatitudeDegrees>37.7000977657735347747802734375</LatitudeDegrees>
              <LongitudeDegrees>-8.08540642261505126953125</LongitudeDegrees>
            </Position>
            <AltitudeMeters>247</AltitudeMeters>
            <DistanceMeters>297472.20138183</DistanceMeters>
          </Trackpoint>
          <Trackpoint>
            <Time>2018-09-14T14:33:15.000Z</Time>
            <Position>
              <LatitudeDegrees>37.7000749669969081878662109375</LatitudeDegrees>
              <LongitudeDegrees>-8.08536476455628871917724609375</LongitudeDegrees>
            </Position>
            <AltitudeMeters>247</AltitudeMeters>
            <DistanceMeters>297476.66257993</DistanceMeters>
          </Trackpoint>
          <Trackpoint>
            <Time>2018-09-14T14:33:16.000Z</Time>
            <Position>
              <LatitudeDegrees>37.700054347515106201171875</LatitudeDegrees>
              <LongitudeDegrees>-8.08531849645078182220458984375</LongitudeDegrees>
            </Position>
            <AltitudeMeters>247</AltitudeMeters>
            <DistanceMeters>297481.33920747</DistanceMeters>
          </Trackpoint>
          <Trackpoint>
            <Time>2018-09-14T14:33:17.000Z</Time>
            <Position>
              <LatitudeDegrees>37.70003180019557476043701171875</LatitudeDegrees>
              <LongitudeDegrees>-8.08527239598333835601806640625</LongitudeDegrees>
            </Position>
            <AltitudeMeters>247</AltitudeMeters>
            <DistanceMeters>297486.11234929</DistanceMeters>
          </Trackpoint>
          <Trackpoint>
            <Time>2018-09-14T14:33:18.000Z</Time>
            <Position>
              <LatitudeDegrees>37.700005732476711273193359375</LatitudeDegrees>
              <LongitudeDegrees>-8.08522914536297321319580078125</LongitudeDegrees>
            </Position>
            <AltitudeMeters>247</AltitudeMeters>
            <DistanceMeters>297490.89965898</DistanceMeters>
          </Trackpoint>
          <Trackpoint>
            <Time>2018-09-14T14:33:19.000Z</Time>
            <Position>
              <LatitudeDegrees>37.699975557625293731689453125</LatitudeDegrees>
              <LongitudeDegrees>-8.08518941514194011688232421875</LongitudeDegrees>
            </Position>
            <AltitudeMeters>246.8000030517578125</AltitudeMeters>
            <DistanceMeters>297495.74881551</DistanceMeters>
          </Trackpoint>
          <Trackpoint>
            <Time>2018-09-14T14:33:20.000Z</Time>
            <Position>
              <LatitudeDegrees>37.6999445445835590362548828125</LatitudeDegrees>
              <LongitudeDegrees>-8.0851521156728267669677734375</LongitudeDegrees>
            </Position>
            <AltitudeMeters>246.8000030517578125</AltitudeMeters>
            <DistanceMeters>297500.51343639</DistanceMeters>
          </Trackpoint>
          <Trackpoint>
            <Time>2018-09-14T14:33:21.000Z</Time>
            <Position>
              <LatitudeDegrees>37.69991378299891948699951171875</LatitudeDegrees>
              <LongitudeDegrees>-8.08511464856564998626708984375</LongitudeDegrees>
            </Position>
            <AltitudeMeters>247</AltitudeMeters>
            <DistanceMeters>297505.26952108</DistanceMeters>
          </Trackpoint>
          <Trackpoint>
            <Time>2018-09-14T14:33:22.000Z</Time>
            <Position>
              <LatitudeDegrees>37.69988335669040679931640625</LatitudeDegrees>
              <LongitudeDegrees>-8.08507793582975864410400390625</LongitudeDegrees>
            </Position>
            <AltitudeMeters>247.1999969482421875</AltitudeMeters>
            <DistanceMeters>297509.95193772</DistanceMeters>
          </Trackpoint>
          <Trackpoint>
            <Time>2018-09-14T14:33:23.000Z</Time>
            <Position>
              <LatitudeDegrees>37.6998530142009258270263671875</LatitudeDegrees>
              <LongitudeDegrees>-8.08504390530288219451904296875</LongitudeDegrees>
            </Position>
            <AltitudeMeters>247</AltitudeMeters>
            <DistanceMeters>297514.4674568</DistanceMeters>
          </Trackpoint>
          <Trackpoint>
            <Time>2018-09-14T14:33:24.000Z</Time>
            <Position>
              <LatitudeDegrees>37.69982208497822284698486328125</LatitudeDegrees>
              <LongitudeDegrees>-8.08501205407083034515380859375</LongitudeDegrees>
            </Position>
            <AltitudeMeters>247</AltitudeMeters>
            <DistanceMeters>297518.9083674</DistanceMeters>
          </Trackpoint>
          <Trackpoint>
            <Time>2018-09-14T14:33:25.000Z</Time>
            <Position>
              <LatitudeDegrees>37.69979123957455158233642578125</LatitudeDegrees>
              <LongitudeDegrees>-8.08498003520071506500244140625</LongitudeDegrees>
            </Position>
            <AltitudeMeters>246.8000030517578125</AltitudeMeters>
            <DistanceMeters>297523.35029458</DistanceMeters>
          </Trackpoint>
          <Trackpoint>
            <Time>2018-09-14T14:33:26.000Z</Time>
            <Position>
              <LatitudeDegrees>37.6997608132660388946533203125</LatitudeDegrees>
              <LongitudeDegrees>-8.0849475972354412078857421875</LongitudeDegrees>
            </Position>
            <AltitudeMeters>246.8000030517578125</AltitudeMeters>
            <DistanceMeters>297527.78102659</DistanceMeters>
          </Trackpoint>
          <Trackpoint>
            <Time>2018-09-14T14:33:27.000Z</Time>
            <Position>
              <LatitudeDegrees>37.69973105750977993011474609375</LatitudeDegrees>
              <LongitudeDegrees>-8.0849157460033893585205078125</LongitudeDegrees>
            </Position>
            <AltitudeMeters>246.8000030517578125</AltitudeMeters>
            <DistanceMeters>297532.12115786</DistanceMeters>
          </Trackpoint>
          <Trackpoint>
            <Time>2018-09-14T14:33:28.000Z</Time>
            <Position>
              <LatitudeDegrees>37.69970205612480640411376953125</LatitudeDegrees>
              <LongitudeDegrees>-8.0848835594952106475830078125</LongitudeDegrees>
            </Position>
            <AltitudeMeters>246.600006103515625</AltitudeMeters>
            <DistanceMeters>297536.41737437</DistanceMeters>
          </Trackpoint>
          <Trackpoint>
            <Time>2018-09-14T14:33:29.000Z</Time>
            <Position>
              <LatitudeDegrees>37.6996743120253086090087890625</LatitudeDegrees>
              <LongitudeDegrees>-8.0848525464534759521484375</LongitudeDegrees>
            </Position>
            <AltitudeMeters>246.600006103515625</AltitudeMeters>
            <DistanceMeters>297540.53982557</DistanceMeters>
          </Trackpoint>
          <Trackpoint>
            <Time>2018-09-14T14:33:30.000Z</Time>
            <Position>
              <LatitudeDegrees>37.69964774139225482940673828125</LatitudeDegrees>
              <LongitudeDegrees>-8.08482371270656585693359375</LongitudeDegrees>
            </Position>
            <AltitudeMeters>246.399993896484375</AltitudeMeters>
            <DistanceMeters>297544.43939589</DistanceMeters>
          </Trackpoint>
          <Trackpoint>
            <Time>2018-09-14T14:33:31.000Z</Time>
            <Position>
              <LatitudeDegrees>37.69962251186370849609375</LatitudeDegrees>
              <LongitudeDegrees>-8.0847970582544803619384765625</LongitudeDegrees>
            </Position>
            <AltitudeMeters>246.399993896484375</AltitudeMeters>
            <DistanceMeters>297548.10008346</DistanceMeters>
          </Trackpoint>
          <Trackpoint>
            <Time>2018-09-14T14:33:32.000Z</Time>
            <Position>
              <LatitudeDegrees>37.69959862343966960906982421875</LatitudeDegrees>
              <LongitudeDegrees>-8.0847747623920440673828125</LongitudeDegrees>
            </Position>
            <AltitudeMeters>246.399993896484375</AltitudeMeters>
            <DistanceMeters>297551.40559287</DistanceMeters>
          </Trackpoint>
          <Trackpoint>
            <Time>2018-09-14T14:33:33.000Z</Time>
            <Position>
              <LatitudeDegrees>37.699574567377567291259765625</LatitudeDegrees>
              <LongitudeDegrees>-8.08476244099438190460205078125</LongitudeDegrees>
            </Position>
            <AltitudeMeters>246.399993896484375</AltitudeMeters>
            <DistanceMeters>297554.29415491</DistanceMeters>
          </Trackpoint>
          <Trackpoint>
            <Time>2018-09-14T14:33:34.000Z</Time>
            <Position>
              <LatitudeDegrees>37.6995532773435115814208984375</LatitudeDegrees>
              <LongitudeDegrees>-8.08475397527217864990234375</LongitudeDegrees>
            </Position>
            <AltitudeMeters>246.399993896484375</AltitudeMeters>
            <DistanceMeters>297556.77578988</DistanceMeters>
          </Trackpoint>
          <Trackpoint>
            <Time>2018-09-14T14:33:35.000Z</Time>
            <Position>
              <LatitudeDegrees>37.69953743554651737213134765625</LatitudeDegrees>
              <LongitudeDegrees>-8.08474567718803882598876953125</LongitudeDegrees>
            </Position>
            <AltitudeMeters>246.399993896484375</AltitudeMeters>
            <DistanceMeters>297558.68343786</DistanceMeters>
          </Trackpoint>
          <Trackpoint>
            <Time>2018-09-14T14:33:36.000Z</Time>
            <Position>
              <LatitudeDegrees>37.699528969824314117431640625</LatitudeDegrees>
              <LongitudeDegrees>-8.084742240607738494873046875</LongitudeDegrees>
            </Position>
            <AltitudeMeters>246.399993896484375</AltitudeMeters>
            <DistanceMeters>297559.67554588</DistanceMeters>
          </Trackpoint>
          <Trackpoint>
            <Time>2018-09-14T14:33:37.000Z</Time>
            <Position>
              <LatitudeDegrees>37.6995288021862506866455078125</LatitudeDegrees>
              <LongitudeDegrees>-8.08474098332226276397705078125</LongitudeDegrees>
            </Position>
            <AltitudeMeters>246.399993896484375</AltitudeMeters>
            <DistanceMeters>297559.80993395</DistanceMeters>
          </Trackpoint>
          <Trackpoint>
            <Time>2018-09-14T14:34:48.000Z</Time>
            <Position>
              <LatitudeDegrees>37.69951849244534969329833984375</LatitudeDegrees>
              <LongitudeDegrees>-8.08470175601541996002197265625</LongitudeDegrees>
            </Position>
            <AltitudeMeters>246.399993896484375</AltitudeMeters>
            <DistanceMeters>297563.45083387</DistanceMeters>
          </Trackpoint>
          <Trackpoint>
            <Time>2018-09-14T14:34:49.000Z</Time>
            <Position>
              <LatitudeDegrees>37.69950323738157749176025390625</LatitudeDegrees>
              <LongitudeDegrees>-8.08468289673328399658203125</LongitudeDegrees>
            </Position>
            <AltitudeMeters>246.600006103515625</AltitudeMeters>
            <DistanceMeters>297565.8284015</DistanceMeters>
          </Trackpoint>
          <Trackpoint>
            <Time>2018-09-14T14:34:50.000Z</Time>
            <Position>
              <LatitudeDegrees>37.69948546774685382843017578125</LatitudeDegrees>
              <LongitudeDegrees>-8.08466286398470401763916015625</LongitudeDegrees>
            </Position>
            <AltitudeMeters>246.600006103515625</AltitudeMeters>
            <DistanceMeters>297568.47894852</DistanceMeters>
          </Trackpoint>
          <Trackpoint>
            <Time>2018-09-14T14:34:52.000Z</Time>
            <Position>
              <LatitudeDegrees>37.6994416303932666778564453125</LatitudeDegrees>
              <LongitudeDegrees>-8.08462380431592464447021484375</LongitudeDegrees>
            </Position>
            <AltitudeMeters>246.8000030517578125</AltitudeMeters>
            <DistanceMeters>297574.44826017</DistanceMeters>
          </Trackpoint>
          <Trackpoint>
            <Time>2018-09-14T14:34:53.000Z</Time>
            <Position>
              <LatitudeDegrees>37.69941665232181549072265625</LatitudeDegrees>
              <LongitudeDegrees>-8.08460134081542491912841796875</LongitudeDegrees>
            </Position>
            <AltitudeMeters>247</AltitudeMeters>
            <DistanceMeters>297577.85997067</DistanceMeters>
          </Trackpoint>
          <Trackpoint>
            <Time>2018-09-14T14:34:54.000Z</Time>
            <Position>
              <LatitudeDegrees>37.69939091987907886505126953125</LatitudeDegrees>
              <LongitudeDegrees>-8.08457569219172000885009765625</LongitudeDegrees>
            </Position>
            <AltitudeMeters>247</AltitudeMeters>
            <DistanceMeters>297581.50706576</DistanceMeters>
          </Trackpoint>
          <Trackpoint>
            <Time>2018-09-14T14:34:55.000Z</Time>
            <Position>
              <LatitudeDegrees>37.69936434924602508544921875</LatitudeDegrees>
              <LongitudeDegrees>-8.084547780454158782958984375</LongitudeDegrees>
            </Position>
            <AltitudeMeters>247.1999969482421875</AltitudeMeters>
            <DistanceMeters>297585.35065849</DistanceMeters>
          </Trackpoint>
          <Trackpoint>
            <Time>2018-09-14T14:34:56.000Z</Time>
            <Position>
              <LatitudeDegrees>37.69933861680328845977783203125</LatitudeDegrees>
              <LongitudeDegrees>-8.084517605602741241455078125</LongitudeDegrees>
            </Position>
            <AltitudeMeters>247.399993896484375</AltitudeMeters>
            <DistanceMeters>297589.25716962</DistanceMeters>
          </Trackpoint>
          <Trackpoint>
            <Time>2018-09-14T14:34:57.000Z</Time>
            <Position>
              <LatitudeDegrees>37.699313722550868988037109375</LatitudeDegrees>
              <LongitudeDegrees>-8.08448516763746738433837890625</LongitudeDegrees>
            </Position>
            <AltitudeMeters>247.399993896484375</AltitudeMeters>
            <DistanceMeters>297593.23696284</DistanceMeters>
          </Trackpoint>
          <Trackpoint>
            <Time>2018-09-14T14:34:58.000Z</Time>
            <Position>
              <LatitudeDegrees>37.6992887444794178009033203125</LatitudeDegrees>
              <LongitudeDegrees>-8.0844534002244472503662109375</LongitudeDegrees>
            </Position>
            <AltitudeMeters>247.600006103515625</AltitudeMeters>
            <DistanceMeters>297597.18028525</DistanceMeters>
          </Trackpoint>
          <Trackpoint>
            <Time>2018-09-14T14:34:59.000Z</Time>
            <Position>
              <LatitudeDegrees>37.6992642693221569061279296875</LatitudeDegrees>
              <LongitudeDegrees>-8.084422387182712554931640625</LongitudeDegrees>
            </Position>
            <AltitudeMeters>247.600006103515625</AltitudeMeters>
            <DistanceMeters>297601.03794853</DistanceMeters>
          </Trackpoint>
          <Trackpoint>
            <Time>2018-09-14T14:35:00.000Z</Time>
            <Position>
              <LatitudeDegrees>37.69924096763134002685546875</LatitudeDegrees>
              <LongitudeDegrees>-8.08438776992261409759521484375</LongitudeDegrees>
            </Position>
            <AltitudeMeters>247.8000030517578125</AltitudeMeters>
            <DistanceMeters>297605.03923902</DistanceMeters>
          </Trackpoint>
          <Trackpoint>
            <Time>2018-09-14T14:35:01.000Z</Time>
            <Position>
              <LatitudeDegrees>37.6992183364927768707275390625</LatitudeDegrees>
              <LongitudeDegrees>-8.0843477882444858551025390625</LongitudeDegrees>
            </Position>
            <AltitudeMeters>248</AltitudeMeters>
            <DistanceMeters>297609.36895479</DistanceMeters>
          </Trackpoint>
          <Trackpoint>
            <Time>2018-09-14T14:35:02.000Z</Time>
            <Position>
              <LatitudeDegrees>37.69919578917324542999267578125</LatitudeDegrees>
              <LongitudeDegrees>-8.08430579490959644317626953125</LongitudeDegrees>
            </Position>
            <AltitudeMeters>248</AltitudeMeters>
            <DistanceMeters>297613.8382421</DistanceMeters>
          </Trackpoint>
          <Trackpoint>
            <Time>2018-09-14T14:35:03.000Z</Time>
            <Position>
              <LatitudeDegrees>37.6991690509021282196044921875</LatitudeDegrees>
              <LongitudeDegrees>-8.08426422066986560821533203125</LongitudeDegrees>
            </Position>
            <AltitudeMeters>248</AltitudeMeters>
            <DistanceMeters>297618.55620124</DistanceMeters>
          </Trackpoint>
          <Trackpoint>
            <Time>2018-09-14T14:35:04.000Z</Time>
            <Position>
              <LatitudeDegrees>37.69913912750780582427978515625</LatitudeDegrees>
              <LongitudeDegrees>-8.0842277593910694122314453125</LongitudeDegrees>
            </Position>
            <AltitudeMeters>247.8000030517578125</AltitudeMeters>
            <DistanceMeters>297623.18235312</DistanceMeters>
          </Trackpoint>
          <Trackpoint>
            <Time>2018-09-14T14:35:05.000Z</Time>
            <Position>
              <LatitudeDegrees>37.69910551607608795166015625</LatitudeDegrees>
              <LongitudeDegrees>-8.0842046253383159637451171875</LongitudeDegrees>
            </Position>
            <AltitudeMeters>247.600006103515625</AltitudeMeters>
            <DistanceMeters>297627.44268804</DistanceMeters>
          </Trackpoint>
          <Trackpoint>
            <Time>2018-09-14T14:35:06.000Z</Time>
            <Position>
              <LatitudeDegrees>37.69906855188310146331787109375</LatitudeDegrees>
              <LongitudeDegrees>-8.08420118875801563262939453125</LongitudeDegrees>
            </Position>
            <AltitudeMeters>247.399993896484375</AltitudeMeters>
            <DistanceMeters>297631.56732912</DistanceMeters>
          </Trackpoint>
          <Trackpoint>
            <Time>2018-09-14T14:35:07.000Z</Time>
            <Position>
              <LatitudeDegrees>37.6990329287946224212646484375</LatitudeDegrees>
              <LongitudeDegrees>-8.08421392925083637237548828125</LongitudeDegrees>
            </Position>
            <AltitudeMeters>247.600006103515625</AltitudeMeters>
            <DistanceMeters>297635.68868494</DistanceMeters>
          </Trackpoint>
          <Trackpoint>
            <Time>2018-09-14T14:35:08.000Z</Time>
            <Position>
              <LatitudeDegrees>37.69900116138160228729248046875</LatitudeDegrees>
              <LongitudeDegrees>-8.08423622511327266693115234375</LongitudeDegrees>
            </Position>
            <AltitudeMeters>247.600006103515625</AltitudeMeters>
            <DistanceMeters>297639.73262713</DistanceMeters>
          </Trackpoint>
          <Trackpoint>
            <Time>2018-09-14T14:35:09.000Z</Time>
            <Position>
              <LatitudeDegrees>37.69897450692951679229736328125</LatitudeDegrees>
              <LongitudeDegrees>-8.08426522649824619293212890625</LongitudeDegrees>
            </Position>
            <AltitudeMeters>247.8000030517578125</AltitudeMeters>
            <DistanceMeters>297643.64606675</DistanceMeters>
          </Trackpoint>
          <Trackpoint>
            <Time>2018-09-14T14:35:10.000Z</Time>
            <Position>
              <LatitudeDegrees>37.6989487744867801666259765625</LatitudeDegrees>
              <LongitudeDegrees>-8.0842968262732028961181640625</LongitudeDegrees>
            </Position>
            <AltitudeMeters>247.8000030517578125</AltitudeMeters>
            <DistanceMeters>297647.63945065</DistanceMeters>
          </Trackpoint>
          <Trackpoint>
            <Time>2018-09-14T14:35:11.000Z</Time>
            <Position>
              <LatitudeDegrees>37.69891985692083835601806640625</LatitudeDegrees>
              <LongitudeDegrees>-8.08432607911527156829833984375</LongitudeDegrees>
            </Position>
            <AltitudeMeters>247.8000030517578125</AltitudeMeters>
            <DistanceMeters>297651.76190185</DistanceMeters>
          </Trackpoint>
          <Trackpoint>
            <Time>2018-09-14T14:35:12.000Z</Time>
            <Position>
              <LatitudeDegrees>37.69888699986040592193603515625</LatitudeDegrees>
              <LongitudeDegrees>-8.0843509733676910400390625</LongitudeDegrees>
            </Position>
            <AltitudeMeters>247.8000030517578125</AltitudeMeters>
            <DistanceMeters>297656.02435581</DistanceMeters>
          </Trackpoint>
          <Trackpoint>
            <Time>2018-09-14T14:35:13.000Z</Time>
            <Position>
              <LatitudeDegrees>37.6988585852086544036865234375</LatitudeDegrees>
              <LongitudeDegrees>-8.08438240550458431243896484375</LongitudeDegrees>
            </Position>
            <AltitudeMeters>247.8000030517578125</AltitudeMeters>
            <DistanceMeters>297660.22599828</DistanceMeters>
          </Trackpoint>
          <Trackpoint>
            <Time>2018-09-14T14:35:14.000Z</Time>
            <Position>
              <LatitudeDegrees>37.69882857799530029296875</LatitudeDegrees>
              <LongitudeDegrees>-8.0844104848802089691162109375</LongitudeDegrees>
            </Position>
            <AltitudeMeters>247.8000030517578125</AltitudeMeters>
            <DistanceMeters>297664.38117652</DistanceMeters>
          </Trackpoint>
          <Trackpoint>
            <Time>2018-09-14T14:35:15.000Z</Time>
            <Position>
              <LatitudeDegrees>37.69879748113453388214111328125</LatitudeDegrees>
              <LongitudeDegrees>-8.08443839661777019500732421875</LongitudeDegrees>
            </Position>
            <AltitudeMeters>247.8000030517578125</AltitudeMeters>
            <DistanceMeters>297668.62664853</DistanceMeters>
          </Trackpoint>
          <Trackpoint>
            <Time>2018-09-14T14:35:16.000Z</Time>
            <Position>
              <LatitudeDegrees>37.698766551911830902099609375</LatitudeDegrees>
              <LongitudeDegrees>-8.084468655288219451904296875</LongitudeDegrees>
            </Position>
            <AltitudeMeters>247.8000030517578125</AltitudeMeters>
            <DistanceMeters>297672.98131964</DistanceMeters>
          </Trackpoint>
          <Trackpoint>
            <Time>2018-09-14T14:35:17.000Z</Time>
            <Position>
              <LatitudeDegrees>37.69873537123203277587890625</LatitudeDegrees>
              <LongitudeDegrees>-8.0844996683299541473388671875</LongitudeDegrees>
            </Position>
            <AltitudeMeters>247.8000030517578125</AltitudeMeters>
            <DistanceMeters>297677.39776223</DistanceMeters>
          </Trackpoint>
          <Trackpoint>
            <Time>2018-09-14T14:35:18.000Z</Time>
            <Position>
              <LatitudeDegrees>37.69870595075190067291259765625</LatitudeDegrees>
              <LongitudeDegrees>-8.08453110046684741973876953125</LongitudeDegrees>
            </Position>
            <AltitudeMeters>247.8000030517578125</AltitudeMeters>
            <DistanceMeters>297681.68556302</DistanceMeters>
          </Trackpoint>
          <Trackpoint>
            <Time>2018-09-14T14:35:19.000Z</Time>
            <Position>
              <LatitudeDegrees>37.69867376424372196197509765625</LatitudeDegrees>
              <LongitudeDegrees>-8.08455876074731349945068359375</LongitudeDegrees>
            </Position>
            <AltitudeMeters>247.8000030517578125</AltitudeMeters>
            <DistanceMeters>297686.0173639</DistanceMeters>
          </Trackpoint>
          <Trackpoint>
            <Time>2018-09-14T14:35:20.000Z</Time>
            <Position>
              <LatitudeDegrees>37.69864040426909923553466796875</LatitudeDegrees>
              <LongitudeDegrees>-8.08458809740841388702392578125</LongitudeDegrees>
            </Position>
            <AltitudeMeters>247.8000030517578125</AltitudeMeters>
            <DistanceMeters>297690.54087506</DistanceMeters>
          </Trackpoint>
          <Trackpoint>
            <Time>2018-09-14T14:35:21.000Z</Time>
            <Position>
              <LatitudeDegrees>37.69860637374222278594970703125</LatitudeDegrees>
              <LongitudeDegrees>-8.0846200324594974517822265625</LongitudeDegrees>
            </Position>
            <AltitudeMeters>247.8000030517578125</AltitudeMeters>
            <DistanceMeters>297695.25787711</DistanceMeters>
          </Trackpoint>
          <Trackpoint>
            <Time>2018-09-14T14:35:22.000Z</Time>
            <Position>
              <LatitudeDegrees>37.6985709182918071746826171875</LatitudeDegrees>
              <LongitudeDegrees>-8.08465481735765933990478515625</LongitudeDegrees>
            </Position>
            <AltitudeMeters>247.8000030517578125</AltitudeMeters>
            <DistanceMeters>297700.25378857</DistanceMeters>
          </Trackpoint>
          <Trackpoint>
            <Time>2018-09-14T14:35:23.000Z</Time>
            <Position>
              <LatitudeDegrees>37.69853546284139156341552734375</LatitudeDegrees>
              <LongitudeDegrees>-8.08468960225582122802734375</LongitudeDegrees>
            </Position>
            <AltitudeMeters>247.8000030517578125</AltitudeMeters>
            <DistanceMeters>297705.24970003</DistanceMeters>
          </Trackpoint>
          <Trackpoint>
            <Time>2018-09-14T14:35:24.000Z</Time>
            <Position>
              <LatitudeDegrees>37.69850009121000766754150390625</LatitudeDegrees>
              <LongitudeDegrees>-8.0847249738872051239013671875</LongitudeDegrees>
            </Position>
            <AltitudeMeters>247.8000030517578125</AltitudeMeters>
            <DistanceMeters>297710.2690539</DistanceMeters>
          </Trackpoint>
          <Trackpoint>
            <Time>2018-09-14T14:35:25.000Z</Time>
            <Position>
              <LatitudeDegrees>37.69846438430249691009521484375</LatitudeDegrees>
              <LongitudeDegrees>-8.08476193808019161224365234375</LongitudeDegrees>
            </Position>
            <AltitudeMeters>247.8000030517578125</AltitudeMeters>
            <DistanceMeters>297715.40577302</DistanceMeters>
          </Trackpoint>
          <Trackpoint>
            <Time>2018-09-14T14:35:26.000Z</Time>
            <Position>
              <LatitudeDegrees>37.6984254084527492523193359375</LatitudeDegrees>
              <LongitudeDegrees>-8.08480217121541500091552734375</LongitudeDegrees>
            </Position>
            <AltitudeMeters>247.8000030517578125</AltitudeMeters>
            <DistanceMeters>297721.00670916</DistanceMeters>
          </Trackpoint>
          <Trackpoint>
            <Time>2018-09-14T14:35:27.000Z</Time>
            <Position>
              <LatitudeDegrees>37.69838626496493816375732421875</LatitudeDegrees>
              <LongitudeDegrees>-8.08484458364546298980712890625</LongitudeDegrees>
            </Position>
            <AltitudeMeters>247.8000030517578125</AltitudeMeters>
            <DistanceMeters>297726.74541012</DistanceMeters>
          </Trackpoint>
          <Trackpoint>
            <Time>2018-09-14T14:35:28.000Z</Time>
            <Position>
              <LatitudeDegrees>37.6983486302196979522705078125</LatitudeDegrees>
              <LongitudeDegrees>-8.08488666079938411712646484375</LongitudeDegrees>
            </Position>
            <AltitudeMeters>247.600006103515625</AltitudeMeters>
            <DistanceMeters>297732.33827923</DistanceMeters>
          </Trackpoint>
          <Trackpoint>
            <Time>2018-09-14T14:35:29.000Z</Time>
            <Position>
              <LatitudeDegrees>37.69830948673188686370849609375</LatitudeDegrees>
              <LongitudeDegrees>-8.08492773212492465972900390625</LongitudeDegrees>
            </Position>
            <AltitudeMeters>247.600006103515625</AltitudeMeters>
            <DistanceMeters>297738.00014918</DistanceMeters>
          </Trackpoint>
          <Trackpoint>
            <Time>2018-09-14T14:35:30.000Z</Time>
            <Position>
              <LatitudeDegrees>37.6982693374156951904296875</LatitudeDegrees>
              <LongitudeDegrees>-8.08496997691690921783447265625</LongitudeDegrees>
            </Position>
            <AltitudeMeters>247.399993896484375</AltitudeMeters>
            <DistanceMeters>297743.81388947</DistanceMeters>
          </Trackpoint>
          <Trackpoint>
            <Time>2018-09-14T14:35:31.000Z</Time>
            <Position>
              <LatitudeDegrees>37.698229439556598663330078125</LatitudeDegrees>
              <LongitudeDegrees>-8.08501146733760833740234375</LongitudeDegrees>
            </Position>
            <AltitudeMeters>247.1999969482421875</AltitudeMeters>
            <DistanceMeters>297749.56437988</DistanceMeters>
          </Trackpoint>
          <Trackpoint>
            <Time>2018-09-14T14:35:32.000Z</Time>
            <Position>
              <LatitudeDegrees>37.6981900446116924285888671875</LatitudeDegrees>
              <LongitudeDegrees>-8.08505413122475147247314453125</LongitudeDegrees>
            </Position>
            <AltitudeMeters>247.1999969482421875</AltitudeMeters>
            <DistanceMeters>297755.33837695</DistanceMeters>
          </Trackpoint>
          <Trackpoint>
            <Time>2018-09-14T14:35:33.000Z</Time>
            <Position>
              <LatitudeDegrees>37.6981498114764690399169921875</LatitudeDegrees>
              <LongitudeDegrees>-8.08509637601673603057861328125</LongitudeDegrees>
            </Position>
            <AltitudeMeters>247</AltitudeMeters>
            <DistanceMeters>297761.16065374</DistanceMeters>
          </Trackpoint>
          <Trackpoint>
            <Time>2018-09-14T14:35:34.000Z</Time>
            <Position>
              <LatitudeDegrees>37.69810773432254791259765625</LatitudeDegrees>
              <LongitudeDegrees>-8.08513828553259372711181640625</LongitudeDegrees>
            </Position>
            <AltitudeMeters>246.600006103515625</AltitudeMeters>
            <DistanceMeters>297767.12391133</DistanceMeters>
          </Trackpoint>
          <Trackpoint>
            <Time>2018-09-14T14:35:35.000Z</Time>
            <Position>
              <LatitudeDegrees>37.698066495358943939208984375</LatitudeDegrees>
              <LongitudeDegrees>-8.08518002741038799285888671875</LongitudeDegrees>
            </Position>
            <AltitudeMeters>246.1999969482421875</AltitudeMeters>
            <DistanceMeters>297773.00329332</DistanceMeters>
          </Trackpoint>
          <Trackpoint>
            <Time>2018-09-14T14:35:36.000Z</Time>
            <Position>
              <LatitudeDegrees>37.69802366383373737335205078125</LatitudeDegrees>
              <LongitudeDegrees>-8.08522411622107028961181640625</LongitudeDegrees>
            </Position>
            <AltitudeMeters>245.8000030517578125</AltitudeMeters>
            <DistanceMeters>297779.15292421</DistanceMeters>
          </Trackpoint>
          <Trackpoint>
            <Time>2018-09-14T14:35:37.000Z</Time>
            <Position>
              <LatitudeDegrees>37.69798032939434051513671875</LatitudeDegrees>
              <LongitudeDegrees>-8.08527021668851375579833984375</LongitudeDegrees>
            </Position>
            <AltitudeMeters>245.600006103515625</AltitudeMeters>
            <DistanceMeters>297785.45771577</DistanceMeters>
          </Trackpoint>
          <Trackpoint>
            <Time>2018-09-14T14:35:38.000Z</Time>
            <Position>
              <LatitudeDegrees>37.697935067117214202880859375</LatitudeDegrees>
              <LongitudeDegrees>-8.08531966991722583770751953125</LongitudeDegrees>
            </Position>
            <AltitudeMeters>245.1999969482421875</AltitudeMeters>
            <DistanceMeters>297792.11636993</DistanceMeters>
          </Trackpoint>
          <Trackpoint>
            <Time>2018-09-14T14:35:39.000Z</Time>
            <Position>
              <LatitudeDegrees>37.6978893019258975982666015625</LatitudeDegrees>
              <LongitudeDegrees>-8.0853676982223987579345703125</LongitudeDegrees>
            </Position>
            <AltitudeMeters>244.8000030517578125</AltitudeMeters>
            <DistanceMeters>297798.73694325</DistanceMeters>
          </Trackpoint>
          <Trackpoint>
            <Time>2018-09-14T14:35:40.000Z</Time>
            <Position>
              <LatitudeDegrees>37.69784395582973957061767578125</LatitudeDegrees>
              <LongitudeDegrees>-8.0854159779846668243408203125</LongitudeDegrees>
            </Position>
            <AltitudeMeters>244.399993896484375</AltitudeMeters>
            <DistanceMeters>297805.33565742</DistanceMeters>
          </Trackpoint>
          <Trackpoint>
            <Time>2018-09-14T14:35:41.000Z</Time>
            <Position>
              <LatitudeDegrees>37.6978004537522792816162109375</LatitudeDegrees>
              <LongitudeDegrees>-8.08546333573758602142333984375</LongitudeDegrees>
            </Position>
            <AltitudeMeters>244</AltitudeMeters>
            <DistanceMeters>297811.72580653</DistanceMeters>
          </Trackpoint>
          <Trackpoint>
            <Time>2018-09-14T14:35:42.000Z</Time>
            <Position>
              <LatitudeDegrees>37.6977612264454364776611328125</LatitudeDegrees>
              <LongitudeDegrees>-8.0855088494718074798583984375</LongitudeDegrees>
            </Position>
            <AltitudeMeters>243.600006103515625</AltitudeMeters>
            <DistanceMeters>297817.65260983</DistanceMeters>
          </Trackpoint>
          <Trackpoint>
            <Time>2018-09-14T14:35:43.000Z</Time>
            <Position>
              <LatitudeDegrees>37.69772593863308429718017578125</LatitudeDegrees>
              <LongitudeDegrees>-8.0855487473309040069580078125</LongitudeDegrees>
            </Position>
            <AltitudeMeters>243.399993896484375</AltitudeMeters>
            <DistanceMeters>297822.92295281</DistanceMeters>
          </Trackpoint>
          <Trackpoint>
            <Time>2018-09-14T14:35:44.000Z</Time>
            <Position>
              <LatitudeDegrees>37.69769710488617420196533203125</LatitudeDegrees>
              <LongitudeDegrees>-8.08558143675327301025390625</LongitudeDegrees>
            </Position>
            <AltitudeMeters>243</AltitudeMeters>
            <DistanceMeters>297827.23385728</DistanceMeters>
          </Trackpoint>
          <Trackpoint>
            <Time>2018-09-14T14:35:45.000Z</Time>
            <Position>
              <LatitudeDegrees>37.69767665304243564605712890625</LatitudeDegrees>
              <LongitudeDegrees>-8.08560700155794620513916015625</LongitudeDegrees>
            </Position>
            <AltitudeMeters>242.8000030517578125</AltitudeMeters>
            <DistanceMeters>297830.43669459</DistanceMeters>
          </Trackpoint>
          <Trackpoint>
            <Time>2018-09-14T14:35:46.000Z</Time>
            <Position>
              <LatitudeDegrees>37.69765569828450679779052734375</LatitudeDegrees>
              <LongitudeDegrees>-8.0856292136013507843017578125</LongitudeDegrees>
            </Position>
            <AltitudeMeters>242.600006103515625</AltitudeMeters>
            <DistanceMeters>297833.48051758</DistanceMeters>
          </Trackpoint>
          <Trackpoint>
            <Time>2018-09-14T14:35:47.000Z</Time>
            <Position>
              <LatitudeDegrees>37.69763004966080188751220703125</LatitudeDegrees>
              <LongitudeDegrees>-8.08565519750118255615234375</LongitudeDegrees>
            </Position>
            <AltitudeMeters>242.399993896484375</AltitudeMeters>
            <DistanceMeters>297837.13873755</DistanceMeters>
          </Trackpoint>
          <Trackpoint>
            <Time>2018-09-14T14:35:48.000Z</Time>
            <Position>
              <LatitudeDegrees>37.6975989528000354766845703125</LatitudeDegrees>
              <LongitudeDegrees>-8.08568595908582210540771484375</LongitudeDegrees>
            </Position>
            <AltitudeMeters>242.1999969482421875</AltitudeMeters>
            <DistanceMeters>297841.53468609</DistanceMeters>
          </Trackpoint>
          <Trackpoint>
            <Time>2018-09-14T14:35:49.000Z</Time>
            <Position>
              <LatitudeDegrees>37.69756383262574672698974609375</LatitudeDegrees>
              <LongitudeDegrees>-8.08572183363139629364013671875</LongitudeDegrees>
            </Position>
            <AltitudeMeters>241.8000030517578125</AltitudeMeters>
            <DistanceMeters>297846.56123101</DistanceMeters>
          </Trackpoint>
          <Trackpoint>
            <Time>2018-09-14T14:35:50.000Z</Time>
            <Position>
              <LatitudeDegrees>37.69752661697566509246826171875</LatitudeDegrees>
              <LongitudeDegrees>-8.085761480033397674560546875</LongitudeDegrees>
            </Position>
            <AltitudeMeters>241.600006103515625</AltitudeMeters>
            <DistanceMeters>297851.97858724</DistanceMeters>
          </Trackpoint>
          <Trackpoint>
            <Time>2018-09-14T14:35:51.000Z</Time>
            <Position>
              <LatitudeDegrees>37.6974903233349323272705078125</LatitudeDegrees>
              <LongitudeDegrees>-8.08580112643539905548095703125</LongitudeDegrees>
            </Position>
            <AltitudeMeters>241</AltitudeMeters>
            <DistanceMeters>297857.31787102</DistanceMeters>
          </Trackpoint>
          <Trackpoint>
            <Time>2018-09-14T14:35:52.000Z</Time>
            <Position>
              <LatitudeDegrees>37.69745268858969211578369140625</LatitudeDegrees>
              <LongitudeDegrees>-8.085841946303844451904296875</LongitudeDegrees>
            </Position>
            <AltitudeMeters>240.600006103515625</AltitudeMeters>
            <DistanceMeters>297862.83760633</DistanceMeters>
          </Trackpoint>
          <Trackpoint>
            <Time>2018-09-14T14:35:53.000Z</Time>
            <Position>
              <LatitudeDegrees>37.69741580821573734283447265625</LatitudeDegrees>
              <LongitudeDegrees>-8.0858816765248775482177734375</LongitudeDegrees>
            </Position>
            <AltitudeMeters>240</AltitudeMeters>
            <DistanceMeters>297868.22990141</DistanceMeters>
          </Trackpoint>
          <Trackpoint>
            <Time>2018-09-14T14:35:54.000Z</Time>
            <Position>
              <LatitudeDegrees>37.69738144241273403167724609375</LatitudeDegrees>
              <LongitudeDegrees>-8.08591880835592746734619140625</LongitudeDegrees>
            </Position>
            <AltitudeMeters>239.600006103515625</AltitudeMeters>
            <DistanceMeters>297873.26183288</DistanceMeters>
          </Trackpoint>
          <Trackpoint>
            <Time>2018-09-14T14:35:55.000Z</Time>
            <Position>
              <LatitudeDegrees>37.69734791480004787445068359375</LatitudeDegrees>
              <LongitudeDegrees>-8.08595367707312107086181640625</LongitudeDegrees>
            </Position>
            <AltitudeMeters>239.1999969482421875</AltitudeMeters>
            <DistanceMeters>297878.09420059</DistanceMeters>
          </Trackpoint>
          <Trackpoint>
            <Time>2018-09-14T14:35:56.000Z</Time>
            <Position>
              <LatitudeDegrees>37.697314135730266571044921875</LatitudeDegrees>
              <LongitudeDegrees>-8.08598921634256839752197265625</LongitudeDegrees>
            </Position>
            <AltitudeMeters>238.8000030517578125</AltitudeMeters>
            <DistanceMeters>297882.98600011</DistanceMeters>
          </Trackpoint>
          <Trackpoint>
            <Time>2018-09-14T14:35:57.000Z</Time>
            <Position>
              <LatitudeDegrees>37.6972801052033901214599609375</LatitudeDegrees>
              <LongitudeDegrees>-8.0860273540019989013671875</LongitudeDegrees>
            </Position>
            <AltitudeMeters>238.399993896484375</AltitudeMeters>
            <DistanceMeters>297888.04745513</DistanceMeters>
          </Trackpoint>
          <Trackpoint>
            <Time>2018-09-14T14:35:58.000Z</Time>
            <Position>
              <LatitudeDegrees>37.6972469128668308258056640625</LatitudeDegrees>
              <LongitudeDegrees>-8.0860647372901439666748046875</LongitudeDegrees>
            </Position>
            <AltitudeMeters>238</AltitudeMeters>
            <DistanceMeters>297892.99614862</DistanceMeters>
          </Trackpoint>
          <Trackpoint>
            <Time>2018-09-14T14:35:59.000Z</Time>
            <Position>
              <LatitudeDegrees>37.6972123794257640838623046875</LatitudeDegrees>
              <LongitudeDegrees>-8.0861024558544158935546875</LongitudeDegrees>
            </Position>
            <AltitudeMeters>237.600006103515625</AltitudeMeters>
            <DistanceMeters>297898.07630202</DistanceMeters>
          </Trackpoint>
          <Trackpoint>
            <Time>2018-09-14T14:36:00.000Z</Time>
            <Position>
              <LatitudeDegrees>37.69717524759471416473388671875</LatitudeDegrees>
              <LongitudeDegrees>-8.08614076115190982818603515625</LongitudeDegrees>
            </Position>
            <AltitudeMeters>237</AltitudeMeters>
            <DistanceMeters>297903.41220222</DistanceMeters>
          </Trackpoint>
          <Trackpoint>
            <Time>2018-09-14T14:36:01.000Z</Time>
            <Position>
              <LatitudeDegrees>37.6971325837075710296630859375</LatitudeDegrees>
              <LongitudeDegrees>-8.08618518523871898651123046875</LongitudeDegrees>
            </Position>
            <AltitudeMeters>236.600006103515625</AltitudeMeters>
            <DistanceMeters>297909.5647692</DistanceMeters>
          </Trackpoint>
          <Trackpoint>
            <Time>2018-09-14T14:36:02.000Z</Time>
            <Position>
              <LatitudeDegrees>37.697087489068508148193359375</LatitudeDegrees>
              <LongitudeDegrees>-8.086232207715511322021484375</LongitudeDegrees>
            </Position>
            <AltitudeMeters>236</AltitudeMeters>
            <DistanceMeters>297916.07115056</DistanceMeters>
          </Trackpoint>
          <Trackpoint>
            <Time>2018-09-14T14:36:03.000Z</Time>
            <Position>
              <LatitudeDegrees>37.69704046659171581268310546875</LatitudeDegrees>
              <LongitudeDegrees>-8.08628140948712825775146484375</LongitudeDegrees>
            </Position>
            <AltitudeMeters>235.399993896484375</AltitudeMeters>
            <DistanceMeters>297922.86539451</DistanceMeters>
          </Trackpoint>
          <Trackpoint>
            <Time>2018-09-14T14:36:04.000Z</Time>
            <Position>
              <LatitudeDegrees>37.696992941200733184814453125</LatitudeDegrees>
              <LongitudeDegrees>-8.08633069507777690887451171875</LongitudeDegrees>
            </Position>
            <AltitudeMeters>234.8000030517578125</AltitudeMeters>
            <DistanceMeters>297929.70731794</DistanceMeters>
          </Trackpoint>
          <Trackpoint>
            <Time>2018-09-14T14:36:05.000Z</Time>
            <Position>
              <LatitudeDegrees>37.69694692455232143402099609375</LatitudeDegrees>
              <LongitudeDegrees>-8.08637939393520355224609375</LongitudeDegrees>
            </Position>
            <AltitudeMeters>234.1999969482421875</AltitudeMeters>
            <DistanceMeters>297936.38763513</DistanceMeters>
          </Trackpoint>
          <Trackpoint>
            <Time>2018-09-14T14:36:06.000Z</Time>
            <Position>
              <LatitudeDegrees>37.696905769407749176025390625</LatitudeDegrees>
              <LongitudeDegrees>-8.086427338421344757080078125</LongitudeDegrees>
            </Position>
            <AltitudeMeters>233.8000030517578125</AltitudeMeters>
            <DistanceMeters>297942.6175042</DistanceMeters>
          </Trackpoint>
          <Trackpoint>
            <Time>2018-09-14T14:36:07.000Z</Time>
            <Position>
              <LatitudeDegrees>37.69687199033796787261962890625</LatitudeDegrees>
              <LongitudeDegrees>-8.08646849356591701507568359375</LongitudeDegrees>
            </Position>
            <AltitudeMeters>233.399993896484375</AltitudeMeters>
            <DistanceMeters>297947.83965231</DistanceMeters>
          </Trackpoint>
          <Trackpoint>
            <Time>2018-09-14T14:36:08.000Z</Time>
            <Position>
              <LatitudeDegrees>37.6968465931713581085205078125</LatitudeDegrees>
              <LongitudeDegrees>-8.08649933896958827972412109375</LongitudeDegrees>
            </Position>
            <AltitudeMeters>233</AltitudeMeters>
            <DistanceMeters>297951.76000817</DistanceMeters>
          </Trackpoint>
          <Trackpoint>
            <Time>2018-09-14T14:36:09.000Z</Time>
            <Position>
              <LatitudeDegrees>37.6968271471560001373291015625</LatitudeDegrees>
              <LongitudeDegrees>-8.08652155101299285888671875</LongitudeDegrees>
            </Position>
            <AltitudeMeters>232.8000030517578125</AltitudeMeters>
            <DistanceMeters>297954.67656985</DistanceMeters>
          </Trackpoint>
          <Trackpoint>
            <Time>2018-09-14T14:36:10.000Z</Time>
            <Position>
              <LatitudeDegrees>37.6968127302825450897216796875</LatitudeDegrees>
              <LongitudeDegrees>-8.08653504587709903717041015625</LongitudeDegrees>
            </Position>
            <AltitudeMeters>232.600006103515625</AltitudeMeters>
            <DistanceMeters>297956.67439211</DistanceMeters>
          </Trackpoint>
          <Trackpoint>
            <Time>2018-09-14T14:36:11.000Z</Time>
            <Position>
              <LatitudeDegrees>37.6967976428568363189697265625</LatitudeDegrees>
              <LongitudeDegrees>-8.08654275722801685333251953125</LongitudeDegrees>
            </Position>
            <AltitudeMeters>232.399993896484375</AltitudeMeters>
            <DistanceMeters>297958.48738627</DistanceMeters>
          </Trackpoint>
          <Trackpoint>
            <Time>2018-09-14T14:36:12.000Z</Time>
            <Position>
              <LatitudeDegrees>37.69677911885082721710205078125</LatitudeDegrees>
              <LongitudeDegrees>-8.08654108084738254547119140625</LongitudeDegrees>
            </Position>
            <AltitudeMeters>232.1999969482421875</AltitudeMeters>
            <DistanceMeters>297960.55626428</DistanceMeters>
          </Trackpoint>
          <Trackpoint>
            <Time>2018-09-14T14:36:13.000Z</Time>
            <Position>
              <LatitudeDegrees>37.6967574097216129302978515625</LatitudeDegrees>
              <LongitudeDegrees>-8.086527250707149505615234375</LongitudeDegrees>
            </Position>
            <AltitudeMeters>232.1999969482421875</AltitudeMeters>
            <DistanceMeters>297963.26077199</DistanceMeters>
          </Trackpoint>
          <Trackpoint>
            <Time>2018-09-14T14:36:14.000Z</Time>
            <Position>
              <LatitudeDegrees>37.6967372931540012359619140625</LatitudeDegrees>
              <LongitudeDegrees>-8.0864995904266834259033203125</LongitudeDegrees>
            </Position>
            <AltitudeMeters>232</AltitudeMeters>
            <DistanceMeters>297966.5703766</DistanceMeters>
          </Trackpoint>
          <Trackpoint>
            <Time>2018-09-14T14:36:15.000Z</Time>
            <Position>
              <LatitudeDegrees>37.696720026433467864990234375</LatitudeDegrees>
              <LongitudeDegrees>-8.08645910583436489105224609375</LongitudeDegrees>
            </Position>
            <AltitudeMeters>232</AltitudeMeters>
            <DistanceMeters>297970.61989742</DistanceMeters>
          </Trackpoint>
          <Trackpoint>
            <Time>2018-09-14T14:36:16.000Z</Time>
            <Position>
              <LatitudeDegrees>37.69670485518872737884521484375</LatitudeDegrees>
              <LongitudeDegrees>-8.08641166426241397857666015625</LongitudeDegrees>
            </Position>
            <AltitudeMeters>231.8000030517578125</AltitudeMeters>
            <DistanceMeters>297975.12540647</DistanceMeters>
          </Trackpoint>
          <Trackpoint>
            <Time>2018-09-14T14:36:17.000Z</Time>
            <Position>
              <LatitudeDegrees>37.6966910250484943389892578125</LatitudeDegrees>
              <LongitudeDegrees>-8.08635902591049671173095703125</LongitudeDegrees>
            </Position>
            <AltitudeMeters>232</AltitudeMeters>
            <DistanceMeters>297980.01074086</DistanceMeters>
          </Trackpoint>
          <Trackpoint>
            <Time>2018-09-14T14:36:18.000Z</Time>
            <Position>
              <LatitudeDegrees>37.6966786198318004608154296875</LatitudeDegrees>
              <LongitudeDegrees>-8.08630337007343769073486328125</LongitudeDegrees>
            </Position>
            <AltitudeMeters>232</AltitudeMeters>
            <DistanceMeters>297985.10332169</DistanceMeters>
          </Trackpoint>
          <Trackpoint>
            <Time>2018-09-14T14:36:19.000Z</Time>
            <Position>
              <LatitudeDegrees>37.696670405566692352294921875</LatitudeDegrees>
              <LongitudeDegrees>-8.08624419383704662322998046875</LongitudeDegrees>
            </Position>
            <AltitudeMeters>232.1999969482421875</AltitudeMeters>
            <DistanceMeters>297990.39503852</DistanceMeters>
          </Trackpoint>
          <Trackpoint>
            <Time>2018-09-14T14:36:20.000Z</Time>
            <Position>
              <LatitudeDegrees>37.69666965119540691375732421875</LatitudeDegrees>
              <LongitudeDegrees>-8.08618451468646526336669921875</LongitudeDegrees>
            </Position>
            <AltitudeMeters>232.1999969482421875</AltitudeMeters>
            <DistanceMeters>297995.65165663</DistanceMeters>
          </Trackpoint>
          <Trackpoint>
            <Time>2018-09-14T14:36:21.000Z</Time>
            <Position>
              <LatitudeDegrees>37.69667702727019786834716796875</LatitudeDegrees>
              <LongitudeDegrees>-8.086125589907169342041015625</LongitudeDegrees>
            </Position>
            <AltitudeMeters>232.399993896484375</AltitudeMeters>
            <DistanceMeters>298000.90483792</DistanceMeters>
          </Trackpoint>
          <Trackpoint>
            <Time>2018-09-14T14:36:22.000Z</Time>
            <Position>
              <LatitudeDegrees>37.69669060595333576202392578125</LatitudeDegrees>
              <LongitudeDegrees>-8.08606683276593685150146484375</LongitudeDegrees>
            </Position>
            <AltitudeMeters>232.600006103515625</AltitudeMeters>
            <DistanceMeters>298006.29713299</DistanceMeters>
          </Trackpoint>
          <Trackpoint>
            <Time>2018-09-14T14:36:23.000Z</Time>
            <Position>
              <LatitudeDegrees>37.6967057771980762481689453125</LatitudeDegrees>
              <LongitudeDegrees>-8.08600849471986293792724609375</LongitudeDegrees>
            </Position>
            <AltitudeMeters>232.8000030517578125</AltitudeMeters>
            <DistanceMeters>298011.7061484</DistanceMeters>
          </Trackpoint>
          <Trackpoint>
            <Time>2018-09-14T14:36:24.000Z</Time>
            <Position>
              <LatitudeDegrees>37.69672078080475330352783203125</LatitudeDegrees>
              <LongitudeDegrees>-8.0859480611979961395263671875</LongitudeDegrees>
            </Position>
            <AltitudeMeters>233.1999969482421875</AltitudeMeters>
            <DistanceMeters>298017.283658</DistanceMeters>
          </Trackpoint>
          <Trackpoint>
            <Time>2018-09-14T14:36:25.000Z</Time>
            <Position>
              <LatitudeDegrees>37.69673385657370090484619140625</LatitudeDegrees>
              <LongitudeDegrees>-8.08588511310517787933349609375</LongitudeDegrees>
            </Position>
            <AltitudeMeters>233.399993896484375</AltitudeMeters>
            <DistanceMeters>298023.01448586</DistanceMeters>
          </Trackpoint>
          <Trackpoint>
            <Time>2018-09-14T14:36:26.000Z</Time>
            <Position>
              <LatitudeDegrees>37.69674508832395076751708984375</LatitudeDegrees>
              <LongitudeDegrees>-8.08581973426043987274169921875</LongitudeDegrees>
            </Position>
            <AltitudeMeters>233.8000030517578125</AltitudeMeters>
            <DistanceMeters>298028.90614215</DistanceMeters>
          </Trackpoint>
          <Trackpoint>
            <Time>2018-09-14T14:36:27.000Z</Time>
            <Position>
              <LatitudeDegrees>37.696754895150661468505859375</LatitudeDegrees>
              <LongitudeDegrees>-8.08575251139700412750244140625</LongitudeDegrees>
            </Position>
            <AltitudeMeters>234</AltitudeMeters>
            <DistanceMeters>298034.92666762</DistanceMeters>
          </Trackpoint>
          <Trackpoint>
            <Time>2018-09-14T14:36:28.000Z</Time>
            <Position>
              <LatitudeDegrees>37.6967644505202770233154296875</LatitudeDegrees>
              <LongitudeDegrees>-8.0856848694384098052978515625</LongitudeDegrees>
            </Position>
            <AltitudeMeters>234.1999969482421875</AltitudeMeters>
            <DistanceMeters>298040.97860863</DistanceMeters>
          </Trackpoint>
          <Trackpoint>
            <Time>2018-09-14T14:36:29.000Z</Time>
            <Position>
              <LatitudeDegrees>37.69677333533763885498046875</LatitudeDegrees>
              <LongitudeDegrees>-8.08561773039400577545166015625</LongitudeDegrees>
            </Position>
            <AltitudeMeters>234.600006103515625</AltitudeMeters>
            <DistanceMeters>298046.97508797</DistanceMeters>
          </Trackpoint>
          <Trackpoint>
            <Time>2018-09-14T14:36:30.000Z</Time>
            <Position>
              <LatitudeDegrees>37.6967795379459857940673828125</LatitudeDegrees>
              <LongitudeDegrees>-8.08555067516863346099853515625</LongitudeDegrees>
            </Position>
            <AltitudeMeters>234.8000030517578125</AltitudeMeters>
            <DistanceMeters>298052.92014635</DistanceMeters>
          </Trackpoint>
          <Trackpoint>
            <Time>2018-09-14T14:36:31.000Z</Time>
            <Position>
              <LatitudeDegrees>37.69678029231727123260498046875</LatitudeDegrees>
              <LongitudeDegrees>-8.0854855477809906005859375</LongitudeDegrees>
            </Position>
            <AltitudeMeters>235</AltitudeMeters>
            <DistanceMeters>298058.65648652</DistanceMeters>
          </Trackpoint>
          <Trackpoint>
            <Time>2018-09-14T14:36:32.000Z</Time>
            <Position>
              <LatitudeDegrees>37.696776688098907470703125</LatitudeDegrees>
              <LongitudeDegrees>-8.085424192249774932861328125</LongitudeDegrees>
            </Position>
            <AltitudeMeters>235</AltitudeMeters>
            <DistanceMeters>298064.07384274</DistanceMeters>
          </Trackpoint>
          <Trackpoint>
            <Time>2018-09-14T14:36:33.000Z</Time>
            <Position>
              <LatitudeDegrees>37.6967718265950679779052734375</LatitudeDegrees>
              <LongitudeDegrees>-8.0853673629462718963623046875</LongitudeDegrees>
            </Position>
            <AltitudeMeters>235.1999969482421875</AltitudeMeters>
            <DistanceMeters>298069.10756845</DistanceMeters>
          </Trackpoint>
          <Trackpoint>
            <Time>2018-09-14T14:36:34.000Z</Time>
            <Position>
              <LatitudeDegrees>37.69676671363413333892822265625</LatitudeDegrees>
              <LongitudeDegrees>-8.0853138864040374755859375</LongitudeDegrees>
            </Position>
            <AltitudeMeters>235.1999969482421875</AltitudeMeters>
            <DistanceMeters>298073.85129594</DistanceMeters>
          </Trackpoint>
          <Trackpoint>
            <Time>2018-09-14T14:36:35.000Z</Time>
            <Position>
              <LatitudeDegrees>37.6967614330351352691650390625</LatitudeDegrees>
              <LongitudeDegrees>-8.08526501990854740142822265625</LongitudeDegrees>
            </Position>
            <AltitudeMeters>235.1999969482421875</AltitudeMeters>
            <DistanceMeters>298078.19454699</DistanceMeters>
          </Trackpoint>
          <Trackpoint>
            <Time>2018-09-14T14:36:36.000Z</Time>
            <Position>
              <LatitudeDegrees>37.69675699062645435333251953125</LatitudeDegrees>
              <LongitudeDegrees>-8.08522026054561138153076171875</LongitudeDegrees>
            </Position>
            <AltitudeMeters>235.399993896484375</AltitudeMeters>
            <DistanceMeters>298082.16639084</DistanceMeters>
          </Trackpoint>
          <Trackpoint>
            <Time>2018-09-14T14:36:37.000Z</Time>
            <Position>
              <LatitudeDegrees>37.6967533864080905914306640625</LatitudeDegrees>
              <LongitudeDegrees>-8.08517776429653167724609375</LongitudeDegrees>
            </Position>
            <AltitudeMeters>235.399993896484375</AltitudeMeters>
            <DistanceMeters>298085.93165577</DistanceMeters>
          </Trackpoint>
          <Trackpoint>
            <Time>2018-09-14T14:36:38.000Z</Time>
            <Position>
              <LatitudeDegrees>37.69674944691359996795654296875</LatitudeDegrees>
              <LongitudeDegrees>-8.085136525332927703857421875</LongitudeDegrees>
            </Position>
            <AltitudeMeters>235.399993896484375</AltitudeMeters>
            <DistanceMeters>298089.58987574</DistanceMeters>
          </Trackpoint>
          <Trackpoint>
            <Time>2018-09-14T14:36:39.000Z</Time>
            <Position>
              <LatitudeDegrees>37.69674492068588733673095703125</LatitudeDegrees>
              <LongitudeDegrees>-8.0850964598357677459716796875</LongitudeDegrees>
            </Position>
            <AltitudeMeters>235.399993896484375</AltitudeMeters>
            <DistanceMeters>298093.15306075</DistanceMeters>
          </Trackpoint>
          <Trackpoint>
            <Time>2018-09-14T14:36:40.000Z</Time>
            <Position>
              <LatitudeDegrees>37.6967416517436504364013671875</LatitudeDegrees>
              <LongitudeDegrees>-8.0850568972527980804443359375</LongitudeDegrees>
            </Position>
            <AltitudeMeters>235.399993896484375</AltitudeMeters>
            <DistanceMeters>298096.6548951</DistanceMeters>
          </Trackpoint>
          <Trackpoint>
            <Time>2018-09-14T14:36:41.000Z</Time>
            <Position>
              <LatitudeDegrees>37.696741484105587005615234375</LatitudeDegrees>
              <LongitudeDegrees>-8.085017502307891845703125</LongitudeDegrees>
            </Position>
            <AltitudeMeters>235.399993896484375</AltitudeMeters>
            <DistanceMeters>298100.12434634</DistanceMeters>
          </Trackpoint>
          <Trackpoint>
            <Time>2018-09-14T14:36:42.000Z</Time>
            <Position>
              <LatitudeDegrees>37.69673955626785755157470703125</LatitudeDegrees>
              <LongitudeDegrees>-8.08497752062976360321044921875</LongitudeDegrees>
            </Position>
            <AltitudeMeters>235.399993896484375</AltitudeMeters>
            <DistanceMeters>298103.65187314</DistanceMeters>
          </Trackpoint>
          <Trackpoint>
            <Time>2018-09-14T14:36:43.000Z</Time>
            <Position>
              <LatitudeDegrees>37.6967351138591766357421875</LatitudeDegrees>
              <LongitudeDegrees>-8.08493678458034992218017578125</LongitudeDegrees>
            </Position>
            <AltitudeMeters>235.399993896484375</AltitudeMeters>
            <DistanceMeters>298107.27537023</DistanceMeters>
          </Trackpoint>
          <Trackpoint>
            <Time>2018-09-14T14:36:44.000Z</Time>
            <Position>
              <LatitudeDegrees>37.696732096374034881591796875</LatitudeDegrees>
              <LongitudeDegrees>-8.08489604853093624114990234375</LongitudeDegrees>
            </Position>
            <AltitudeMeters>235.399993896484375</AltitudeMeters>
            <DistanceMeters>298110.8801282</DistanceMeters>
          </Trackpoint>
          <Trackpoint>
            <Time>2018-09-14T14:36:45.000Z</Time>
            <Position>
              <LatitudeDegrees>37.6967312581837177276611328125</LatitudeDegrees>
              <LongitudeDegrees>-8.0848552286624908447265625</LongitudeDegrees>
            </Position>
            <AltitudeMeters>235.399993896484375</AltitudeMeters>
            <DistanceMeters>298114.47610783</DistanceMeters>
          </Trackpoint>
          <Trackpoint>
            <Time>2018-09-14T14:36:46.000Z</Time>
            <Position>
              <LatitudeDegrees>37.69673150964081287384033203125</LatitudeDegrees>
              <LongitudeDegrees>-8.0848158337175846099853515625</LongitudeDegrees>
            </Position>
            <AltitudeMeters>235.399993896484375</AltitudeMeters>
            <DistanceMeters>298117.94686019</DistanceMeters>
          </Trackpoint>
          <Trackpoint>
            <Time>2018-09-14T14:36:47.000Z</Time>
            <Position>
              <LatitudeDegrees>37.6967332698404788970947265625</LatitudeDegrees>
              <LongitudeDegrees>-8.0847772769629955291748046875</LongitudeDegrees>
            </Position>
            <AltitudeMeters>235.399993896484375</AltitudeMeters>
            <DistanceMeters>298121.34663928</DistanceMeters>
          </Trackpoint>
          <Trackpoint>
            <Time>2018-09-14T14:36:48.000Z</Time>
            <Position>
              <LatitudeDegrees>37.69673553295433521270751953125</LatitudeDegrees>
              <LongitudeDegrees>-8.08474064804613590240478515625</LongitudeDegrees>
            </Position>
            <AltitudeMeters>235.399993896484375</AltitudeMeters>
            <DistanceMeters>298124.58313255</DistanceMeters>
          </Trackpoint>
          <Trackpoint>
            <Time>2018-09-14T14:36:49.000Z</Time>
            <Position>
              <LatitudeDegrees>37.6967389695346355438232421875</LatitudeDegrees>
              <LongitudeDegrees>-8.0847045220434665679931640625</LongitudeDegrees>
            </Position>
            <AltitudeMeters>235.399993896484375</AltitudeMeters>
            <DistanceMeters>298127.78596986</DistanceMeters>
          </Trackpoint>
          <Trackpoint>
            <Time>2018-09-14T14:36:50.000Z</Time>
            <Position>
              <LatitudeDegrees>37.69674114882946014404296875</LatitudeDegrees>
              <LongitudeDegrees>-8.084669820964336395263671875</LongitudeDegrees>
            </Position>
            <AltitudeMeters>235.399993896484375</AltitudeMeters>
            <DistanceMeters>298130.85196229</DistanceMeters>
          </Trackpoint>
          <Trackpoint>
            <Time>2018-09-14T14:36:51.000Z</Time>
            <Position>
              <LatitudeDegrees>37.696738801896572113037109375</LatitudeDegrees>
              <LongitudeDegrees>-8.084635622799396514892578125</LongitudeDegrees>
            </Position>
            <AltitudeMeters>235.399993896484375</AltitudeMeters>
            <DistanceMeters>298133.87494713</DistanceMeters>
          </Trackpoint>
          <Trackpoint>
            <Time>2018-09-14T14:36:52.000Z</Time>
            <Position>
              <LatitudeDegrees>37.6967258937656879425048828125</LatitudeDegrees>
              <LongitudeDegrees>-8.084602095186710357666015625</LongitudeDegrees>
            </Position>
            <AltitudeMeters>235.1999969482421875</AltitudeMeters>
            <DistanceMeters>298137.15852921</DistanceMeters>
          </Trackpoint>
          <Trackpoint>
            <Time>2018-09-14T14:36:53.000Z</Time>
            <Position>
              <LatitudeDegrees>37.6967000775039196014404296875</LatitudeDegrees>
              <LongitudeDegrees>-8.0845749378204345703125</LongitudeDegrees>
            </Position>
            <AltitudeMeters>235</AltitudeMeters>
            <DistanceMeters>298140.89732024</DistanceMeters>
          </Trackpoint>
          <Trackpoint>
            <Time>2018-09-14T14:36:54.000Z</Time>
            <Position>
              <LatitudeDegrees>37.69666562788188457489013671875</LatitudeDegrees>
              <LongitudeDegrees>-8.0845533125102519989013671875</LongitudeDegrees>
            </Position>
            <AltitudeMeters>234.600006103515625</AltitudeMeters>
            <DistanceMeters>298145.17879839</DistanceMeters>
          </Trackpoint>
          <Trackpoint>
            <Time>2018-09-14T14:36:55.000Z</Time>
            <Position>
              <LatitudeDegrees>37.6966243050992488861083984375</LatitudeDegrees>
              <LongitudeDegrees>-8.0845331959426403045654296875</LongitudeDegrees>
            </Position>
            <AltitudeMeters>234.1999969482421875</AltitudeMeters>
            <DistanceMeters>298150.10737888</DistanceMeters>
          </Trackpoint>
          <Trackpoint>
            <Time>2018-09-14T14:36:56.000Z</Time>
            <Position>
              <LatitudeDegrees>37.69657795317471027374267578125</LatitudeDegrees>
              <LongitudeDegrees>-8.08451215736567974090576171875</LongitudeDegrees>
            </Position>
            <AltitudeMeters>233.8000030517578125</AltitudeMeters>
            <DistanceMeters>298155.58935794</DistanceMeters>
          </Trackpoint>
          <Trackpoint>
            <Time>2018-09-14T14:36:57.000Z</Time>
            <Position>
              <LatitudeDegrees>37.696526907384395599365234375</LatitudeDegrees>
              <LongitudeDegrees>-8.08448986150324344635009765625</LongitudeDegrees>
            </Position>
            <AltitudeMeters>233.399993896484375</AltitudeMeters>
            <DistanceMeters>298161.60087737</DistanceMeters>
          </Trackpoint>
          <Trackpoint>
            <Time>2018-09-14T14:36:58.000Z</Time>
            <Position>
              <LatitudeDegrees>37.69647066481411457061767578125</LatitudeDegrees>
              <LongitudeDegrees>-8.08446563780307769775390625</LongitudeDegrees>
            </Position>
            <AltitudeMeters>232.8000030517578125</AltitudeMeters>
            <DistanceMeters>298168.21462747</DistanceMeters>
          </Trackpoint>
          <Trackpoint>
            <Time>2018-09-14T14:36:59.000Z</Time>
            <Position>
              <LatitudeDegrees>37.69640989601612091064453125</LatitudeDegrees>
              <LongitudeDegrees>-8.0844394862651824951171875</LongitudeDegrees>
            </Position>
            <AltitudeMeters>232.399993896484375</AltitudeMeters>
            <DistanceMeters>298175.35997926</DistanceMeters>
          </Trackpoint>
          <Trackpoint>
            <Time>2018-09-14T14:37:00.000Z</Time>
            <Position>
              <LatitudeDegrees>37.69634476862847805023193359375</LatitudeDegrees>
              <LongitudeDegrees>-8.0844111554324626922607421875</LongitudeDegrees>
            </Position>
            <AltitudeMeters>232</AltitudeMeters>
            <DistanceMeters>298183.0259911</DistanceMeters>
          </Trackpoint>
          <Trackpoint>
            <Time>2018-09-14T14:37:01.000Z</Time>
            <Position>
              <LatitudeDegrees>37.69627637229859828948974609375</LatitudeDegrees>
              <LongitudeDegrees>-8.08437771163880825042724609375</LongitudeDegrees>
            </Position>
            <AltitudeMeters>231.600006103515625</AltitudeMeters>
            <DistanceMeters>298191.18778464</DistanceMeters>
          </Trackpoint>
          <Trackpoint>
            <Time>2018-09-14T14:37:02.000Z</Time>
            <Position>
              <LatitudeDegrees>37.69620470702648162841796875</LatitudeDegrees>
              <LongitudeDegrees>-8.08434016071259975433349609375</LongitudeDegrees>
            </Position>
            <AltitudeMeters>231.1999969482421875</AltitudeMeters>
            <DistanceMeters>298199.82215267</DistanceMeters>
          </Trackpoint>
          <Trackpoint>
            <Time>2018-09-14T14:37:03.000Z</Time>
            <Position>
              <LatitudeDegrees>37.6961289346218109130859375</LatitudeDegrees>
              <LongitudeDegrees>-8.0843025259673595428466796875</LongitudeDegrees>
            </Position>
            <AltitudeMeters>230.8000030517578125</AltitudeMeters>
            <DistanceMeters>298208.88413452</DistanceMeters>
          </Trackpoint>
          <Trackpoint>
            <Time>2018-09-14T14:37:04.000Z</Time>
            <Position>
              <LatitudeDegrees>37.69604905508458614349365234375</LatitudeDegrees>
              <LongitudeDegrees>-8.08426522649824619293212890625</LongitudeDegrees>
            </Position>
            <AltitudeMeters>230.399993896484375</AltitudeMeters>
            <DistanceMeters>298218.36206681</DistanceMeters>
          </Trackpoint>
          <Trackpoint>
            <Time>2018-09-14T14:37:05.000Z</Time>
            <Position>
              <LatitudeDegrees>37.69596657715737819671630859375</LatitudeDegrees>
              <LongitudeDegrees>-8.0842254124581813812255859375</LongitudeDegrees>
            </Position>
            <AltitudeMeters>229.600006103515625</AltitudeMeters>
            <DistanceMeters>298228.18940966</DistanceMeters>
          </Trackpoint>
          <Trackpoint>
            <Time>2018-09-14T14:37:06.000Z</Time>
            <Position>
              <LatitudeDegrees>37.69588191993534564971923828125</LatitudeDegrees>
              <LongitudeDegrees>-8.08418207801878452301025390625</LongitudeDegrees>
            </Position>
            <AltitudeMeters>229</AltitudeMeters>
            <DistanceMeters>298238.35593586</DistanceMeters>
          </Trackpoint>
          <Trackpoint>
            <Time>2018-09-14T14:37:07.000Z</Time>
            <Position>
              <LatitudeDegrees>37.6957948319613933563232421875</LatitudeDegrees>
              <LongitudeDegrees>-8.08413882739841938018798828125</LongitudeDegrees>
            </Position>
            <AltitudeMeters>228.399993896484375</AltitudeMeters>
            <DistanceMeters>298248.7707944</DistanceMeters>
          </Trackpoint>
          <Trackpoint>
            <Time>2018-09-14T14:37:08.000Z</Time>
            <Position>
              <LatitudeDegrees>37.69570573233067989349365234375</LatitudeDegrees>
              <LongitudeDegrees>-8.0840943194925785064697265625</LongitudeDegrees>
            </Position>
            <AltitudeMeters>227.600006103515625</AltitudeMeters>
            <DistanceMeters>298259.43412983</DistanceMeters>
          </Trackpoint>
          <Trackpoint>
            <Time>2018-09-14T14:37:09.000Z</Time>
            <Position>
              <LatitudeDegrees>37.69561520777642726898193359375</LatitudeDegrees>
              <LongitudeDegrees>-8.08404855430126190185546875</LongitudeDegrees>
            </Position>
            <AltitudeMeters>227</AltitudeMeters>
            <DistanceMeters>298270.28591433</DistanceMeters>
          </Trackpoint>
          <Trackpoint>
            <Time>2018-09-14T14:37:10.000Z</Time>
            <Position>
              <LatitudeDegrees>37.6955222524702548980712890625</LatitudeDegrees>
              <LongitudeDegrees>-8.08400387875735759735107421875</LongitudeDegrees>
            </Position>
            <AltitudeMeters>226.1999969482421875</AltitudeMeters>
            <DistanceMeters>298281.3547931</DistanceMeters>
          </Trackpoint>
          <Trackpoint>
            <Time>2018-09-14T14:37:11.000Z</Time>
            <Position>
              <LatitudeDegrees>37.6954270340502262115478515625</LatitudeDegrees>
              <LongitudeDegrees>-8.08396079577505588531494140625</LongitudeDegrees>
            </Position>
            <AltitudeMeters>225.399993896484375</AltitudeMeters>
            <DistanceMeters>298292.6113482</DistanceMeters>
          </Trackpoint>
          <Trackpoint>
            <Time>2018-09-14T14:37:12.000Z</Time>
            <Position>
              <LatitudeDegrees>37.69532988779246807098388671875</LatitudeDegrees>
              <LongitudeDegrees>-8.08391519822180271148681640625</LongitudeDegrees>
            </Position>
            <AltitudeMeters>224.8000030517578125</AltitudeMeters>
            <DistanceMeters>298304.14564992</DistanceMeters>
          </Trackpoint>
          <Trackpoint>
            <Time>2018-09-14T14:37:13.000Z</Time>
            <Position>
              <LatitudeDegrees>37.69523047842085361480712890625</LatitudeDegrees>
              <LongitudeDegrees>-8.08386675082147121429443359375</LongitudeDegrees>
            </Position>
            <AltitudeMeters>224.1999969482421875</AltitudeMeters>
            <DistanceMeters>298316.00458793</DistanceMeters>
          </Trackpoint>
          <Trackpoint>
            <Time>2018-09-14T14:37:14.000Z</Time>
            <Position>
              <LatitudeDegrees>37.69512838684022426605224609375</LatitudeDegrees>
              <LongitudeDegrees>-8.0838172137737274169921875</LongitudeDegrees>
            </Position>
            <AltitudeMeters>223.600006103515625</AltitudeMeters>
            <DistanceMeters>298328.17617098</DistanceMeters>
          </Trackpoint>
          <Trackpoint>
            <Time>2018-09-14T14:37:15.000Z</Time>
            <Position>
              <LatitudeDegrees>37.69502378068864345550537109375</LatitudeDegrees>
              <LongitudeDegrees>-8.08376633562147617340087890625</LongitudeDegrees>
            </Position>
            <AltitudeMeters>222.8000030517578125</AltitudeMeters>
            <DistanceMeters>298340.6514813</DistanceMeters>
          </Trackpoint>
          <Trackpoint>
            <Time>2018-09-14T14:37:16.000Z</Time>
            <Position>
              <LatitudeDegrees>37.69491649232804775238037109375</LatitudeDegrees>
              <LongitudeDegrees>-8.0837137810885906219482421875</LongitudeDegrees>
            </Position>
            <AltitudeMeters>221.600006103515625</AltitudeMeters>
            <DistanceMeters>298353.4582482</DistanceMeters>
          </Trackpoint>
          <Trackpoint>
            <Time>2018-09-14T14:37:17.000Z</Time>
            <Position>
              <LatitudeDegrees>37.6948066055774688720703125</LatitudeDegrees>
              <LongitudeDegrees>-8.08366273529827594757080078125</LongitudeDegrees>
            </Position>
            <AltitudeMeters>220.1999969482421875</AltitudeMeters>
            <DistanceMeters>298366.48869437</DistanceMeters>
          </Trackpoint>
          <Trackpoint>
            <Time>2018-09-14T14:37:18.000Z</Time>
            <Position>
              <LatitudeDegrees>37.69469462335109710693359375</LatitudeDegrees>
              <LongitudeDegrees>-8.08361127041280269622802734375</LongitudeDegrees>
            </Position>
            <AltitudeMeters>219.600006103515625</AltitudeMeters>
            <DistanceMeters>298379.75096525</DistanceMeters>
          </Trackpoint>
          <Trackpoint>
            <Time>2018-09-14T14:37:19.000Z</Time>
            <Position>
              <LatitudeDegrees>37.69458222202956676483154296875</LatitudeDegrees>
              <LongitudeDegrees>-8.0835597217082977294921875</LongitudeDegrees>
            </Position>
            <AltitudeMeters>218.8000030517578125</AltitudeMeters>
            <DistanceMeters>298393.05945575</DistanceMeters>
          </Trackpoint>
          <Trackpoint>
            <Time>2018-09-14T14:37:20.000Z</Time>
            <Position>
              <LatitudeDegrees>37.6944704912602901458740234375</LatitudeDegrees>
              <LongitudeDegrees>-8.08351135812699794769287109375</LongitudeDegrees>
            </Position>
            <AltitudeMeters>218</AltitudeMeters>
            <DistanceMeters>298406.20443627</DistanceMeters>
          </Trackpoint>
          <Trackpoint>
            <Time>2018-09-14T14:37:21.000Z</Time>
            <Position>
              <LatitudeDegrees>37.69435934722423553466796875</LatitudeDegrees>
              <LongitudeDegrees>-8.08346291072666645050048828125</LongitudeDegrees>
            </Position>
            <AltitudeMeters>217.1999969482421875</AltitudeMeters>
            <DistanceMeters>298419.29054989</DistanceMeters>
          </Trackpoint>
          <Trackpoint>
            <Time>2018-09-14T14:37:22.000Z</Time>
            <Position>
              <LatitudeDegrees>37.69425197504460811614990234375</LatitudeDegrees>
              <LongitudeDegrees>-8.0834137089550495147705078125</LongitudeDegrees>
            </Position>
            <AltitudeMeters>216.399993896484375</AltitudeMeters>
            <DistanceMeters>298432.00283718</DistanceMeters>
          </Trackpoint>
          <Trackpoint>
            <Time>2018-09-14T14:37:23.000Z</Time>
            <Position>
              <LatitudeDegrees>37.6941521465778350830078125</LatitudeDegrees>
              <LongitudeDegrees>-8.0833666026592254638671875</LongitudeDegrees>
            </Position>
            <AltitudeMeters>216</AltitudeMeters>
            <DistanceMeters>298443.863298</DistanceMeters>
          </Trackpoint>
          <Trackpoint>
            <Time>2018-09-14T14:37:24.000Z</Time>
            <Position>
              <LatitudeDegrees>37.6940621249377727508544921875</LatitudeDegrees>
              <LongitudeDegrees>-8.0833211727440357208251953125</LongitudeDegrees>
            </Position>
            <AltitudeMeters>215.600006103515625</AltitudeMeters>
            <DistanceMeters>298454.65207389</DistanceMeters>
          </Trackpoint>
          <Trackpoint>
            <Time>2018-09-14T14:37:25.000Z</Time>
            <Position>
              <LatitudeDegrees>37.69398408941924571990966796875</LatitudeDegrees>
              <LongitudeDegrees>-8.0832767486572265625</LongitudeDegrees>
            </Position>
            <AltitudeMeters>215.399993896484375</AltitudeMeters>
            <DistanceMeters>298464.17752444</DistanceMeters>
          </Trackpoint>
          <Trackpoint>
            <Time>2018-09-14T14:37:26.000Z</Time>
            <Position>
              <LatitudeDegrees>37.69391275942325592041015625</LatitudeDegrees>
              <LongitudeDegrees>-8.08323861099779605865478515625</LongitudeDegrees>
            </Position>
            <AltitudeMeters>215</AltitudeMeters>
            <DistanceMeters>298472.79723841</DistanceMeters>
          </Trackpoint>
          <Trackpoint>
            <Time>2018-09-14T14:37:27.000Z</Time>
            <Position>
              <LatitudeDegrees>37.6938383281230926513671875</LatitudeDegrees>
              <LongitudeDegrees>-8.08321706950664520263671875</LongitudeDegrees>
            </Position>
            <AltitudeMeters>214.8000030517578125</AltitudeMeters>
            <DistanceMeters>298481.29668613</DistanceMeters>
          </Trackpoint>
          <Trackpoint>
            <Time>2018-09-14T14:37:28.000Z</Time>
            <Position>
              <LatitudeDegrees>37.69375945441424846649169921875</LatitudeDegrees>
              <LongitudeDegrees>-8.0832199193537235260009765625</LongitudeDegrees>
            </Position>
            <AltitudeMeters>214.399993896484375</AltitudeMeters>
            <DistanceMeters>298490.07933454</DistanceMeters>
          </Trackpoint>
          <Trackpoint>
            <Time>2018-09-14T14:37:29.000Z</Time>
            <Position>
              <LatitudeDegrees>37.6936802454292774200439453125</LatitudeDegrees>
              <LongitudeDegrees>-8.08324498124420642852783203125</LongitudeDegrees>
            </Position>
            <AltitudeMeters>214</AltitudeMeters>
            <DistanceMeters>298499.16718792</DistanceMeters>
          </Trackpoint>
          <Trackpoint>
            <Time>2018-09-14T14:37:30.000Z</Time>
            <Position>
              <LatitudeDegrees>37.693601958453655242919921875</LatitudeDegrees>
              <LongitudeDegrees>-8.0832809396088123321533203125</LongitudeDegrees>
            </Position>
            <AltitudeMeters>213.399993896484375</AltitudeMeters>
            <DistanceMeters>298508.43850378</DistanceMeters>
          </Trackpoint>
          <Trackpoint>
            <Time>2018-09-14T14:37:31.000Z</Time>
            <Position>
              <LatitudeDegrees>37.69352249801158905029296875</LatitudeDegrees>
              <LongitudeDegrees>-8.083324022591114044189453125</LongitudeDegrees>
            </Position>
            <AltitudeMeters>213</AltitudeMeters>
            <DistanceMeters>298518.06204076</DistanceMeters>
          </Trackpoint>
          <Trackpoint>
            <Time>2018-09-14T14:37:32.000Z</Time>
            <Position>
              <LatitudeDegrees>37.693441696465015411376953125</LatitudeDegrees>
              <LongitudeDegrees>-8.083366267383098602294921875</LongitudeDegrees>
            </Position>
            <AltitudeMeters>212.600006103515625</AltitudeMeters>
            <DistanceMeters>298527.79474346</DistanceMeters>
          </Trackpoint>
          <Trackpoint>
            <Time>2018-09-14T14:37:33.000Z</Time>
            <Position>
              <LatitudeDegrees>37.69335963763296604156494140625</LatitudeDegrees>
              <LongitudeDegrees>-8.08340826071798801422119140625</LongitudeDegrees>
            </Position>
            <AltitudeMeters>212</AltitudeMeters>
            <DistanceMeters>298537.64823938</DistanceMeters>
          </Trackpoint>
          <Trackpoint>
            <Time>2018-09-14T14:37:34.000Z</Time>
            <Position>
              <LatitudeDegrees>37.69327531568706035614013671875</LatitudeDegrees>
              <LongitudeDegrees>-8.0834482423961162567138671875</LongitudeDegrees>
            </Position>
            <AltitudeMeters>211.600006103515625</AltitudeMeters>
            <DistanceMeters>298547.67254438</DistanceMeters>
          </Trackpoint>
          <Trackpoint>
            <Time>2018-09-14T14:37:35.000Z</Time>
            <Position>
              <LatitudeDegrees>37.6931907422840595245361328125</LatitudeDegrees>
              <LongitudeDegrees>-8.08348956517875194549560546875</LongitudeDegrees>
            </Position>
            <AltitudeMeters>211.1999969482421875</AltitudeMeters>
            <DistanceMeters>298557.76507936</DistanceMeters>
          </Trackpoint>
          <Trackpoint>
            <Time>2018-09-14T14:37:36.000Z</Time>
            <Position>
              <LatitudeDegrees>37.6931062527000904083251953125</LatitudeDegrees>
              <LongitudeDegrees>-8.08353415690362453460693359375</LongitudeDegrees>
            </Position>
            <AltitudeMeters>210.8000030517578125</AltitudeMeters>
            <DistanceMeters>298567.95644527</DistanceMeters>
          </Trackpoint>
          <Trackpoint>
            <Time>2018-09-14T14:37:37.000Z</Time>
            <Position>
              <LatitudeDegrees>37.69302084110677242279052734375</LatitudeDegrees>
              <LongitudeDegrees>-8.0835786648094654083251953125</LongitudeDegrees>
            </Position>
            <AltitudeMeters>210.399993896484375</AltitudeMeters>
            <DistanceMeters>298578.23954768</DistanceMeters>
          </Trackpoint>
          <Trackpoint>
            <Time>2018-09-14T14:37:38.000Z</Time>
            <Position>
              <LatitudeDegrees>37.69293467514216899871826171875</LatitudeDegrees>
              <LongitudeDegrees>-8.08362074196338653564453125</LongitudeDegrees>
            </Position>
            <AltitudeMeters>210</AltitudeMeters>
            <DistanceMeters>298588.52089365</DistanceMeters>
          </Trackpoint>
          <Trackpoint>
            <Time>2018-09-14T14:37:39.000Z</Time>
            <Position>
              <LatitudeDegrees>37.6928480900824069976806640625</LatitudeDegrees>
              <LongitudeDegrees>-8.08366390876471996307373046875</LongitudeDegrees>
            </Position>
            <AltitudeMeters>209.600006103515625</AltitudeMeters>
            <DistanceMeters>298598.88011314</DistanceMeters>
          </Trackpoint>
          <Trackpoint>
            <Time>2018-09-14T14:37:40.000Z</Time>
            <Position>
              <LatitudeDegrees>37.69276301376521587371826171875</LatitudeDegrees>
              <LongitudeDegrees>-8.0837104283273220062255859375</LongitudeDegrees>
            </Position>
            <AltitudeMeters>209.1999969482421875</AltitudeMeters>
            <DistanceMeters>298609.19784405</DistanceMeters>
          </Trackpoint>
          <Trackpoint>
            <Time>2018-09-14T14:37:41.000Z</Time>
            <Position>
              <LatitudeDegrees>37.69267885945737361907958984375</LatitudeDegrees>
              <LongitudeDegrees>-8.0837577022612094879150390625</LongitudeDegrees>
            </Position>
            <AltitudeMeters>208.8000030517578125</AltitudeMeters>
            <DistanceMeters>298619.44840353</DistanceMeters>
          </Trackpoint>
          <Trackpoint>
            <Time>2018-09-14T14:37:42.000Z</Time>
            <Position>
              <LatitudeDegrees>37.69259520806372165679931640625</LatitudeDegrees>
              <LongitudeDegrees>-8.08380371890962123870849609375</LongitudeDegrees>
            </Position>
            <AltitudeMeters>208.399993896484375</AltitudeMeters>
            <DistanceMeters>298629.60293172</DistanceMeters>
          </Trackpoint>
          <Trackpoint>
            <Time>2018-09-14T14:37:43.000Z</Time>
            <Position>
              <LatitudeDegrees>37.69251172430813312530517578125</LatitudeDegrees>
              <LongitudeDegrees>-8.0838485620915889739990234375</LongitudeDegrees>
            </Position>
            <AltitudeMeters>208</AltitudeMeters>
            <DistanceMeters>298639.69993935</DistanceMeters>
          </Trackpoint>
          <Trackpoint>
            <Time>2018-09-14T14:37:44.000Z</Time>
            <Position>
              <LatitudeDegrees>37.69242723472416400909423828125</LatitudeDegrees>
              <LongitudeDegrees>-8.08388871140778064727783203125</LongitudeDegrees>
            </Position>
            <AltitudeMeters>207.8000030517578125</AltitudeMeters>
            <DistanceMeters>298649.74673956</DistanceMeters>
          </Trackpoint>
          <Trackpoint>
            <Time>2018-09-14T14:37:45.000Z</Time>
            <Position>
              <LatitudeDegrees>37.692340314388275146484375</LatitudeDegrees>
              <LongitudeDegrees>-8.08391637168824672698974609375</LongitudeDegrees>
            </Position>
            <AltitudeMeters>207.600006103515625</AltitudeMeters>
            <DistanceMeters>298659.72318696</DistanceMeters>
          </Trackpoint>
          <Trackpoint>
            <Time>2018-09-14T14:37:46.000Z</Time>
            <Position>
              <LatitudeDegrees>37.69225087948143482208251953125</LatitudeDegrees>
              <LongitudeDegrees>-8.083931542932987213134765625</LongitudeDegrees>
            </Position>
            <AltitudeMeters>207.600006103515625</AltitudeMeters>
            <DistanceMeters>298669.76639132</DistanceMeters>
          </Trackpoint>
          <Trackpoint>
            <Time>2018-09-14T14:37:47.000Z</Time>
            <Position>
              <LatitudeDegrees>37.692160941660404205322265625</LatitudeDegrees>
              <LongitudeDegrees>-8.08393866755068302154541015625</LongitudeDegrees>
            </Position>
            <AltitudeMeters>207.600006103515625</AltitudeMeters>
            <DistanceMeters>298679.79609977</DistanceMeters>
          </Trackpoint>
          <Trackpoint>
            <Time>2018-09-14T14:37:48.000Z</Time>
            <Position>
              <LatitudeDegrees>37.69206932745873928070068359375</LatitudeDegrees>
              <LongitudeDegrees>-8.083940260112285614013671875</LongitudeDegrees>
            </Position>
            <AltitudeMeters>207.600006103515625</AltitudeMeters>
            <DistanceMeters>298689.99366616</DistanceMeters>
          </Trackpoint>
          <Trackpoint>
            <Time>2018-09-14T14:37:49.000Z</Time>
            <Position>
              <LatitudeDegrees>37.69197913818061351776123046875</LatitudeDegrees>
              <LongitudeDegrees>-8.08394151739776134490966796875</LongitudeDegrees>
            </Position>
            <AltitudeMeters>207.399993896484375</AltitudeMeters>
            <DistanceMeters>298700.0323739</DistanceMeters>
          </Trackpoint>
          <Trackpoint>
            <Time>2018-09-14T14:37:50.000Z</Time>
            <Position>
              <LatitudeDegrees>37.6918895356357097625732421875</LatitudeDegrees>
              <LongitudeDegrees>-8.0839434452354907989501953125</LongitudeDegrees>
            </Position>
            <AltitudeMeters>207</AltitudeMeters>
            <DistanceMeters>298710.00655819</DistanceMeters>
          </Trackpoint>
          <Trackpoint>
            <Time>2018-09-14T14:37:51.000Z</Time>
            <Position>
              <LatitudeDegrees>37.6917996816337108612060546875</LatitudeDegrees>
              <LongitudeDegrees>-8.0839464627206325531005859375</LongitudeDegrees>
            </Position>
            <AltitudeMeters>206.399993896484375</AltitudeMeters>
            <DistanceMeters>298720.01102556</DistanceMeters>
          </Trackpoint>
          <Trackpoint>
            <Time>2018-09-14T14:37:52.000Z</Time>
            <Position>
              <LatitudeDegrees>37.69170940853655338287353515625</LatitudeDegrees>
              <LongitudeDegrees>-8.0839481391012668609619140625</LongitudeDegrees>
            </Position>
            <AltitudeMeters>206</AltitudeMeters>
            <DistanceMeters>298730.06007252</DistanceMeters>
          </Trackpoint>
          <Trackpoint>
            <Time>2018-09-14T14:37:53.000Z</Time>
            <Position>
              <LatitudeDegrees>37.691620476543903350830078125</LatitudeDegrees>
              <LongitudeDegrees>-8.0839501507580280303955078125</LongitudeDegrees>
            </Position>
            <AltitudeMeters>205.600006103515625</AltitudeMeters>
            <DistanceMeters>298739.96019624</DistanceMeters>
          </Trackpoint>
          <Trackpoint>
            <Time>2018-09-14T14:37:54.000Z</Time>
            <Position>
              <LatitudeDegrees>37.6915311254560947418212890625</LatitudeDegrees>
              <LongitudeDegrees>-8.08394855819642543792724609375</LongitudeDegrees>
            </Position>
            <AltitudeMeters>205.1999969482421875</AltitudeMeters>
            <DistanceMeters>298749.90582128</DistanceMeters>
          </Trackpoint>
          <Trackpoint>
            <Time>2018-09-14T14:37:55.000Z</Time>
            <Position>
              <LatitudeDegrees>37.6914417743682861328125</LatitudeDegrees>
              <LongitudeDegrees>-8.08394755236804485321044921875</LongitudeDegrees>
            </Position>
            <AltitudeMeters>204.8000030517578125</AltitudeMeters>
            <DistanceMeters>298759.85099233</DistanceMeters>
          </Trackpoint>
          <Trackpoint>
            <Time>2018-09-14T14:37:56.000Z</Time>
            <Position>
              <LatitudeDegrees>37.69135217182338237762451171875</LatitudeDegrees>
              <LongitudeDegrees>-8.08395258150994777679443359375</LongitudeDegrees>
            </Position>
            <AltitudeMeters>204.399993896484375</AltitudeMeters>
            <DistanceMeters>298769.83377369</DistanceMeters>
          </Trackpoint>
          <Trackpoint>
            <Time>2018-09-14T14:37:57.000Z</Time>
            <Position>
              <LatitudeDegrees>37.6912612281739711761474609375</LatitudeDegrees>
              <LongitudeDegrees>-8.08395911939442157745361328125</LongitudeDegrees>
            </Position>
            <AltitudeMeters>204</AltitudeMeters>
            <DistanceMeters>298779.97272779</DistanceMeters>
          </Trackpoint>
          <Trackpoint>
            <Time>2018-09-14T14:37:58.000Z</Time>
            <Position>
              <LatitudeDegrees>37.69116860814392566680908203125</LatitudeDegrees>
              <LongitudeDegrees>-8.08396540582180023193359375</LongitudeDegrees>
            </Position>
            <AltitudeMeters>203.399993896484375</AltitudeMeters>
            <DistanceMeters>298790.29658328</DistanceMeters>
          </Trackpoint>
          <Trackpoint>
            <Time>2018-09-14T14:37:59.000Z</Time>
            <Position>
              <LatitudeDegrees>37.6910748146474361419677734375</LatitudeDegrees>
              <LongitudeDegrees>-8.0839726142585277557373046875</LongitudeDegrees>
            </Position>
            <AltitudeMeters>202.8000030517578125</AltitudeMeters>
            <DistanceMeters>298800.75513557</DistanceMeters>
          </Trackpoint>
          <Trackpoint>
            <Time>2018-09-14T14:38:00.000Z</Time>
            <Position>
              <LatitudeDegrees>37.69097934477031230926513671875</LatitudeDegrees>
              <LongitudeDegrees>-8.08397973887622356414794921875</LongitudeDegrees>
            </Position>
            <AltitudeMeters>202.1999969482421875</AltitudeMeters>
            <DistanceMeters>298811.39982435</DistanceMeters>
          </Trackpoint>
          <Trackpoint>
            <Time>2018-09-14T14:38:01.000Z</Time>
            <Position>
              <LatitudeDegrees>37.69088211469352245330810546875</LatitudeDegrees>
              <LongitudeDegrees>-8.0839861929416656494140625</LongitudeDegrees>
            </Position>
            <AltitudeMeters>201.399993896484375</AltitudeMeters>
            <DistanceMeters>298822.23620355</DistanceMeters>
          </Trackpoint>
          <Trackpoint>
            <Time>2018-09-14T14:38:02.000Z</Time>
            <Position>
              <LatitudeDegrees>37.69078237004578113555908203125</LatitudeDegrees>
              <LongitudeDegrees>-8.08399113826453685760498046875</LongitudeDegrees>
            </Position>
            <AltitudeMeters>200.600006103515625</AltitudeMeters>
            <DistanceMeters>298833.34661061</DistanceMeters>
          </Trackpoint>
          <Trackpoint>
            <Time>2018-09-14T14:38:03.000Z</Time>
            <Position>
              <LatitudeDegrees>37.69068195484578609466552734375</LatitudeDegrees>
              <LongitudeDegrees>-8.08399549685418605804443359375</LongitudeDegrees>
            </Position>
            <AltitudeMeters>199.600006103515625</AltitudeMeters>
            <DistanceMeters>298844.52992669</DistanceMeters>
          </Trackpoint>
          <Trackpoint>
            <Time>2018-09-14T14:38:04.000Z</Time>
            <Position>
              <LatitudeDegrees>37.6905794441699981689453125</LatitudeDegrees>
              <LongitudeDegrees>-8.0839984305202960968017578125</LongitudeDegrees>
            </Position>
            <AltitudeMeters>198.600006103515625</AltitudeMeters>
            <DistanceMeters>298855.94263113</DistanceMeters>
          </Trackpoint>
          <Trackpoint>
            <Time>2018-09-14T14:38:05.000Z</Time>
            <Position>
              <LatitudeDegrees>37.69047542475163936614990234375</LatitudeDegrees>
              <LongitudeDegrees>-8.083999268710613250732421875</LongitudeDegrees>
            </Position>
            <AltitudeMeters>197.600006103515625</AltitudeMeters>
            <DistanceMeters>298867.52030166</DistanceMeters>
          </Trackpoint>
          <Trackpoint>
            <Time>2018-09-14T14:38:06.000Z</Time>
            <Position>
              <LatitudeDegrees>37.69037048332393169403076171875</LatitudeDegrees>
              <LongitudeDegrees>-8.08400035835802555084228515625</LongitudeDegrees>
            </Position>
            <AltitudeMeters>196.600006103515625</AltitudeMeters>
            <DistanceMeters>298879.20047267</DistanceMeters>
          </Trackpoint>
          <Trackpoint>
            <Time>2018-09-14T14:38:07.000Z</Time>
            <Position>
              <LatitudeDegrees>37.690264284610748291015625</LatitudeDegrees>
              <LongitudeDegrees>-8.084003627300262451171875</LongitudeDegrees>
            </Position>
            <AltitudeMeters>195.600006103515625</AltitudeMeters>
            <DistanceMeters>298891.02356801</DistanceMeters>
          </Trackpoint>
          <Trackpoint>
            <Time>2018-09-14T14:38:08.000Z</Time>
            <Position>
              <LatitudeDegrees>37.69015741534531116485595703125</LatitudeDegrees>
              <LongitudeDegrees>-8.084008656442165374755859375</LongitudeDegrees>
            </Position>
            <AltitudeMeters>194.8000030517578125</AltitudeMeters>
            <DistanceMeters>298902.92658861</DistanceMeters>
          </Trackpoint>
          <Trackpoint>
            <Time>2018-09-14T14:38:09.000Z</Time>
            <Position>
              <LatitudeDegrees>37.6900502108037471771240234375</LatitudeDegrees>
              <LongitudeDegrees>-8.0840128473937511444091796875</LongitudeDegrees>
            </Position>
            <AltitudeMeters>193.8000030517578125</AltitudeMeters>
            <DistanceMeters>298914.8640773</DistanceMeters>
          </Trackpoint>
          <Trackpoint>
            <Time>2018-09-14T14:38:10.000Z</Time>
            <Position>
              <LatitudeDegrees>37.68994719721376895904541015625</LatitudeDegrees>
              <LongitudeDegrees>-8.08401360176503658294677734375</LongitudeDegrees>
            </Position>
            <AltitudeMeters>193.399993896484375</AltitudeMeters>
            <DistanceMeters>298926.32967161</DistanceMeters>
          </Trackpoint>
          <Trackpoint>
            <Time>2018-09-14T14:38:11.000Z</Time>
            <Position>
              <LatitudeDegrees>37.68984812311828136444091796875</LatitudeDegrees>
              <LongitudeDegrees>-8.08401628397405147552490234375</LongitudeDegrees>
            </Position>
            <AltitudeMeters>193.1999969482421875</AltitudeMeters>
            <DistanceMeters>298937.3593221</DistanceMeters>
          </Trackpoint>
          <Trackpoint>
            <Time>2018-09-14T14:38:12.000Z</Time>
            <Position>
              <LatitudeDegrees>37.689751647412776947021484375</LatitudeDegrees>
              <LongitudeDegrees>-8.0840198881924152374267578125</LongitudeDegrees>
            </Position>
            <AltitudeMeters>193</AltitudeMeters>
            <DistanceMeters>298948.10196502</DistanceMeters>
          </Trackpoint>
          <Trackpoint>
            <Time>2018-09-14T14:38:13.000Z</Time>
            <Position>
              <LatitudeDegrees>37.68965517170727252960205078125</LatitudeDegrees>
              <LongitudeDegrees>-8.084023408591747283935546875</LongitudeDegrees>
            </Position>
            <AltitudeMeters>192.8000030517578125</AltitudeMeters>
            <DistanceMeters>298958.84460794</DistanceMeters>
          </Trackpoint>
          <Trackpoint>
            <Time>2018-09-14T14:38:14.000Z</Time>
            <Position>
              <LatitudeDegrees>37.68956129439175128936767578125</LatitudeDegrees>
              <LongitudeDegrees>-8.08402977883815765380859375</LongitudeDegrees>
            </Position>
            <AltitudeMeters>192.600006103515625</AltitudeMeters>
            <DistanceMeters>298969.30833944</DistanceMeters>
          </Trackpoint>
          <Trackpoint>
            <Time>2018-09-14T14:38:15.000Z</Time>
            <Position>
              <LatitudeDegrees>37.68947328440845012664794921875</LatitudeDegrees>
              <LongitudeDegrees>-8.08403656817972660064697265625</LongitudeDegrees>
            </Position>
            <AltitudeMeters>192.399993896484375</AltitudeMeters>
            <DistanceMeters>298979.1223496</DistanceMeters>
          </Trackpoint>
          <Trackpoint>
            <Time>2018-09-14T14:38:16.000Z</Time>
            <Position>
              <LatitudeDegrees>37.68938678316771984100341796875</LatitudeDegrees>
              <LongitudeDegrees>-8.0840400047600269317626953125</LongitudeDegrees>
            </Position>
            <AltitudeMeters>192.1999969482421875</AltitudeMeters>
            <DistanceMeters>298988.75479661</DistanceMeters>
          </Trackpoint>
          <Trackpoint>
            <Time>2018-09-14T14:38:17.000Z</Time>
            <Position>
              <LatitudeDegrees>37.68930061720311641693115234375</LatitudeDegrees>
              <LongitudeDegrees>-8.0840433575212955474853515625</LongitudeDegrees>
            </Position>
            <AltitudeMeters>192</AltitudeMeters>
            <DistanceMeters>298998.34920119</DistanceMeters>
          </Trackpoint>
          <Trackpoint>
            <Time>2018-09-14T14:38:18.000Z</Time>
            <Position>
              <LatitudeDegrees>37.68921260721981525421142578125</LatitudeDegrees>
              <LongitudeDegrees>-8.084043525159358978271484375</LongitudeDegrees>
            </Position>
            <AltitudeMeters>191.8000030517578125</AltitudeMeters>
            <DistanceMeters>299008.14479165</DistanceMeters>
          </Trackpoint>
          <Trackpoint>
            <Time>2018-09-14T14:38:19.000Z</Time>
            <Position>
              <LatitudeDegrees>37.6891248486936092376708984375</LatitudeDegrees>
              <LongitudeDegrees>-8.0840463750064373016357421875</LongitudeDegrees>
            </Position>
            <AltitudeMeters>192</AltitudeMeters>
            <DistanceMeters>299017.91546041</DistanceMeters>
          </Trackpoint>
          <Trackpoint>
            <Time>2018-09-14T14:38:20.000Z</Time>
            <Position>
              <LatitudeDegrees>37.68903759308159351348876953125</LatitudeDegrees>
              <LongitudeDegrees>-8.08405064977705478668212890625</LongitudeDegrees>
            </Position>
            <AltitudeMeters>192.1999969482421875</AltitudeMeters>
            <DistanceMeters>299027.63423604</DistanceMeters>
          </Trackpoint>
          <Trackpoint>
            <Time>2018-09-14T14:38:21.000Z</Time>
            <Position>
              <LatitudeDegrees>37.688951008021831512451171875</LatitudeDegrees>
              <LongitudeDegrees>-8.0840554274618625640869140625</LongitudeDegrees>
            </Position>
            <AltitudeMeters>192.399993896484375</AltitudeMeters>
            <DistanceMeters>299037.28026671</DistanceMeters>
          </Trackpoint>
          <Trackpoint>
            <Time>2018-09-14T14:38:22.000Z</Time>
            <Position>
              <LatitudeDegrees>37.6888646744191646575927734375</LatitudeDegrees>
              <LongitudeDegrees>-8.08405852876603603363037109375</LongitudeDegrees>
            </Position>
            <AltitudeMeters>192.600006103515625</AltitudeMeters>
            <DistanceMeters>299046.89347649</DistanceMeters>
          </Trackpoint>
          <Trackpoint>
            <Time>2018-09-14T14:38:23.000Z</Time>
            <Position>
              <LatitudeDegrees>37.68877909518778324127197265625</LatitudeDegrees>
              <LongitudeDegrees>-8.084061630070209503173828125</LongitudeDegrees>
            </Position>
            <AltitudeMeters>192.8000030517578125</AltitudeMeters>
            <DistanceMeters>299056.42271826</DistanceMeters>
          </Trackpoint>
          <Trackpoint>
            <Time>2018-09-14T14:38:24.000Z</Time>
            <Position>
              <LatitudeDegrees>37.6886946894228458404541015625</LatitudeDegrees>
              <LongitudeDegrees>-8.08406724594533443450927734375</LongitudeDegrees>
            </Position>
            <AltitudeMeters>193</AltitudeMeters>
            <DistanceMeters>299065.83036298</DistanceMeters>
          </Trackpoint>
          <Trackpoint>
            <Time>2018-09-14T14:38:25.000Z</Time>
            <Position>
              <LatitudeDegrees>37.6886105351150035858154296875</LatitudeDegrees>
              <LongitudeDegrees>-8.08407294563949108123779296875</LongitudeDegrees>
            </Position>
            <AltitudeMeters>193.1999969482421875</AltitudeMeters>
            <DistanceMeters>299075.21061164</DistanceMeters>
          </Trackpoint>
          <Trackpoint>
            <Time>2018-09-14T14:38:26.000Z</Time>
            <Position>
              <LatitudeDegrees>37.68852730281651020050048828125</LatitudeDegrees>
              <LongitudeDegrees>-8.08407763950526714324951171875</LongitudeDegrees>
            </Position>
            <AltitudeMeters>193.399993896484375</AltitudeMeters>
            <DistanceMeters>299084.48338835</DistanceMeters>
          </Trackpoint>
          <Trackpoint>
            <Time>2018-09-14T14:38:27.000Z</Time>
            <Position>
              <LatitudeDegrees>37.688446082174777984619140625</LatitudeDegrees>
              <LongitudeDegrees>-8.08408233337104320526123046875</LongitudeDegrees>
            </Position>
            <AltitudeMeters>193.399993896484375</AltitudeMeters>
            <DistanceMeters>299093.53290564</DistanceMeters>
          </Trackpoint>
          <Trackpoint>
            <Time>2018-09-14T14:38:28.000Z</Time>
            <Position>
              <LatitudeDegrees>37.688366957008838653564453125</LatitudeDegrees>
              <LongitudeDegrees>-8.0840862728655338287353515625</LongitudeDegrees>
            </Position>
            <AltitudeMeters>193.399993896484375</AltitudeMeters>
            <DistanceMeters>299102.34634524</DistanceMeters>
          </Trackpoint>
          <Trackpoint>
            <Time>2018-09-14T14:38:29.000Z</Time>
            <Position>
              <LatitudeDegrees>37.6882893405854701995849609375</LatitudeDegrees>
              <LongitudeDegrees>-8.08408987708389759063720703125</LongitudeDegrees>
            </Position>
            <AltitudeMeters>192.8000030517578125</AltitudeMeters>
            <DistanceMeters>299110.99116523</DistanceMeters>
          </Trackpoint>
          <Trackpoint>
            <Time>2018-09-14T14:38:30.000Z</Time>
            <Position>
              <LatitudeDegrees>37.68821231089532375335693359375</LatitudeDegrees>
              <LongitudeDegrees>-8.08409214019775390625</LongitudeDegrees>
            </Position>
            <AltitudeMeters>192.1999969482421875</AltitudeMeters>
            <DistanceMeters>299119.56676682</DistanceMeters>
          </Trackpoint>
          <Trackpoint>
            <Time>2018-09-14T14:38:31.000Z</Time>
            <Position>
              <LatitudeDegrees>37.68813586793839931488037109375</LatitudeDegrees>
              <LongitudeDegrees>-8.0840913020074367523193359375</LongitudeDegrees>
            </Position>
            <AltitudeMeters>191.8000030517578125</AltitudeMeters>
            <DistanceMeters>299128.07577104</DistanceMeters>
          </Trackpoint>
          <Trackpoint>
            <Time>2018-09-14T14:38:32.000Z</Time>
            <Position>
              <LatitudeDegrees>37.68805976025760173797607421875</LatitudeDegrees>
              <LongitudeDegrees>-8.08408836834132671356201171875</LongitudeDegrees>
            </Position>
            <AltitudeMeters>191.1999969482421875</AltitudeMeters>
            <DistanceMeters>299136.55074762</DistanceMeters>
          </Trackpoint>
          <Trackpoint>
            <Time>2018-09-14T14:38:33.000Z</Time>
            <Position>
              <LatitudeDegrees>37.68798382021486759185791015625</LatitudeDegrees>
              <LongitudeDegrees>-8.0840829201042652130126953125</LongitudeDegrees>
            </Position>
            <AltitudeMeters>190.600006103515625</AltitudeMeters>
            <DistanceMeters>299145.01666262</DistanceMeters>
          </Trackpoint>
          <Trackpoint>
            <Time>2018-09-14T14:38:34.000Z</Time>
            <Position>
              <LatitudeDegrees>37.68790720961987972259521484375</LatitudeDegrees>
              <LongitudeDegrees>-8.0840748734772205352783203125</LongitudeDegrees>
            </Position>
            <AltitudeMeters>190</AltitudeMeters>
            <DistanceMeters>299153.5727616</DistanceMeters>
          </Trackpoint>
          <Trackpoint>
            <Time>2018-09-14T14:38:35.000Z</Time>
            <Position>
              <LatitudeDegrees>37.6878306828439235687255859375</LatitudeDegrees>
              <LongitudeDegrees>-8.084065653383731842041015625</LongitudeDegrees>
            </Position>
            <AltitudeMeters>189.399993896484375</AltitudeMeters>
            <DistanceMeters>299162.12886058</DistanceMeters>
          </Trackpoint>
          <Trackpoint>
            <Time>2018-09-14T14:38:36.000Z</Time>
            <Position>
              <LatitudeDegrees>37.68775348551571369171142578125</LatitudeDegrees>
              <LongitudeDegrees>-8.08405534364283084869384765625</LongitudeDegrees>
            </Position>
            <AltitudeMeters>188.8000030517578125</AltitudeMeters>
            <DistanceMeters>299170.76845616</DistanceMeters>
          </Trackpoint>
          <Trackpoint>
            <Time>2018-09-14T14:38:37.000Z</Time>
            <Position>
              <LatitudeDegrees>37.6876757852733135223388671875</LatitudeDegrees>
              <LongitudeDegrees>-8.08404318988323211669921875</LongitudeDegrees>
            </Position>
            <AltitudeMeters>188.600006103515625</AltitudeMeters>
            <DistanceMeters>299179.48194472</DistanceMeters>
          </Trackpoint>
          <Trackpoint>
            <Time>2018-09-14T14:38:38.000Z</Time>
            <Position>
              <LatitudeDegrees>37.687597163021564483642578125</LatitudeDegrees>
              <LongitudeDegrees>-8.08403103612363338470458984375</LongitudeDegrees>
            </Position>
            <AltitudeMeters>188.1999969482421875</AltitudeMeters>
            <DistanceMeters>299188.29743324</DistanceMeters>
          </Trackpoint>
          <Trackpoint>
            <Time>2018-09-14T14:38:39.000Z</Time>
            <Position>
              <LatitudeDegrees>37.6875185407698154449462890625</LatitudeDegrees>
              <LongitudeDegrees>-8.0840210616588592529296875</LongitudeDegrees>
            </Position>
            <AltitudeMeters>188</AltitudeMeters>
            <DistanceMeters>299197.09241106</DistanceMeters>
          </Trackpoint>
          <Trackpoint>
            <Time>2018-09-14T14:38:40.000Z</Time>
            <Position>
              <LatitudeDegrees>37.68743924796581268310546875</LatitudeDegrees>
              <LongitudeDegrees>-8.0840135179460048675537109375</LongitudeDegrees>
            </Position>
            <AltitudeMeters>188</AltitudeMeters>
            <DistanceMeters>299205.94265868</DistanceMeters>
          </Trackpoint>
          <Trackpoint>
            <Time>2018-09-14T14:38:41.000Z</Time>
            <Position>
              <LatitudeDegrees>37.68735936842858791351318359375</LatitudeDegrees>
              <LongitudeDegrees>-8.08400790207087993621826171875</LongitudeDegrees>
            </Position>
            <AltitudeMeters>188</AltitudeMeters>
            <DistanceMeters>299214.84732607</DistanceMeters>
          </Trackpoint>
          <Trackpoint>
            <Time>2018-09-14T14:38:42.000Z</Time>
            <Position>
              <LatitudeDegrees>37.687278650701045989990234375</LatitudeDegrees>
              <LongitudeDegrees>-8.08400488458573818206787109375</LongitudeDegrees>
            </Position>
            <AltitudeMeters>188</AltitudeMeters>
            <DistanceMeters>299223.83576831</DistanceMeters>
          </Trackpoint>
          <Trackpoint>
            <Time>2018-09-14T14:38:43.000Z</Time>
            <Position>
              <LatitudeDegrees>37.68719726242125034332275390625</LatitudeDegrees>
              <LongitudeDegrees>-8.08400429785251617431640625</LongitudeDegrees>
            </Position>
            <AltitudeMeters>188</AltitudeMeters>
            <DistanceMeters>299232.89476024</DistanceMeters>
          </Trackpoint>
          <Trackpoint>
            <Time>2018-09-14T14:38:44.000Z</Time>
            <Position>
              <LatitudeDegrees>37.68711562268435955047607421875</LatitudeDegrees>
              <LongitudeDegrees>-8.0840064771473407745361328125</LongitudeDegrees>
            </Position>
            <AltitudeMeters>188</AltitudeMeters>
            <DistanceMeters>299241.98311043</DistanceMeters>
          </Trackpoint>
          <Trackpoint>
            <Time>2018-09-14T14:38:45.000Z</Time>
            <Position>
              <LatitudeDegrees>37.6870337314903736114501953125</LatitudeDegrees>
              <LongitudeDegrees>-8.084008991718292236328125</LongitudeDegrees>
            </Position>
            <AltitudeMeters>188</AltitudeMeters>
            <DistanceMeters>299251.10072436</DistanceMeters>
          </Trackpoint>
          <Trackpoint>
            <Time>2018-09-14T14:38:46.000Z</Time>
            <Position>
              <LatitudeDegrees>37.6869519241154193878173828125</LatitudeDegrees>
              <LongitudeDegrees>-8.0840125121176242828369140625</LongitudeDegrees>
            </Position>
            <AltitudeMeters>188</AltitudeMeters>
            <DistanceMeters>299260.21140286</DistanceMeters>
          </Trackpoint>
          <Trackpoint>
            <Time>2018-09-14T14:38:47.000Z</Time>
            <Position>
              <LatitudeDegrees>37.6868697814643383026123046875</LatitudeDegrees>
              <LongitudeDegrees>-8.0840168707072734832763671875</LongitudeDegrees>
            </Position>
            <AltitudeMeters>188</AltitudeMeters>
            <DistanceMeters>299269.3626284</DistanceMeters>
          </Trackpoint>
          <Trackpoint>
            <Time>2018-09-14T14:38:48.000Z</Time>
            <Position>
              <LatitudeDegrees>37.68678772263228893280029296875</LatitudeDegrees>
              <LongitudeDegrees>-8.08402064256370067596435546875</LongitudeDegrees>
            </Position>
            <AltitudeMeters>188</AltitudeMeters>
            <DistanceMeters>299278.50200513</DistanceMeters>
          </Trackpoint>
          <Trackpoint>
            <Time>2018-09-14T14:38:49.000Z</Time>
            <Position>
              <LatitudeDegrees>37.68670566380023956298828125</LatitudeDegrees>
              <LongitudeDegrees>-8.084025084972381591796875</LongitudeDegrees>
            </Position>
            <AltitudeMeters>188</AltitudeMeters>
            <DistanceMeters>299287.64335774</DistanceMeters>
          </Trackpoint>
          <Trackpoint>
            <Time>2018-09-14T14:38:50.000Z</Time>
            <Position>
              <LatitudeDegrees>37.68662394024431705474853515625</LatitudeDegrees>
              <LongitudeDegrees>-8.0840289406478404998779296875</LongitudeDegrees>
            </Position>
            <AltitudeMeters>187.8000030517578125</AltitudeMeters>
            <DistanceMeters>299296.74511149</DistanceMeters>
          </Trackpoint>
          <Trackpoint>
            <Time>2018-09-14T14:38:51.000Z</Time>
            <Position>
              <LatitudeDegrees>37.686543054878711700439453125</LatitudeDegrees>
              <LongitudeDegrees>-8.0840322934091091156005859375</LongitudeDegrees>
            </Position>
            <AltitudeMeters>187.600006103515625</AltitudeMeters>
            <DistanceMeters>299305.75212024</DistanceMeters>
          </Trackpoint>
          <Trackpoint>
            <Time>2018-09-14T14:38:52.000Z</Time>
            <Position>
              <LatitudeDegrees>37.6864617504179477691650390625</LatitudeDegrees>
              <LongitudeDegrees>-8.08403489179909229278564453125</LongitudeDegrees>
            </Position>
            <AltitudeMeters>187.399993896484375</AltitudeMeters>
            <DistanceMeters>299314.80413182</DistanceMeters>
          </Trackpoint>
          <Trackpoint>
            <Time>2018-09-14T14:38:53.000Z</Time>
            <Position>
              <LatitudeDegrees>37.6863806135952472686767578125</LatitudeDegrees>
              <LongitudeDegrees>-8.08403572998940944671630859375</LongitudeDegrees>
            </Position>
            <AltitudeMeters>187.1999969482421875</AltitudeMeters>
            <DistanceMeters>299323.83517</DistanceMeters>
          </Trackpoint>
          <Trackpoint>
            <Time>2018-09-14T14:38:54.000Z</Time>
            <Position>
              <LatitudeDegrees>37.6862994767725467681884765625</LatitudeDegrees>
              <LongitudeDegrees>-8.08403556235134601593017578125</LongitudeDegrees>
            </Position>
            <AltitudeMeters>187</AltitudeMeters>
            <DistanceMeters>299332.86570821</DistanceMeters>
          </Trackpoint>
          <Trackpoint>
            <Time>2018-09-14T14:38:55.000Z</Time>
            <Position>
              <LatitudeDegrees>37.68621825613081455230712890625</LatitudeDegrees>
              <LongitudeDegrees>-8.0840363167226314544677734375</LongitudeDegrees>
            </Position>
            <AltitudeMeters>186.8000030517578125</AltitudeMeters>
            <DistanceMeters>299341.90624037</DistanceMeters>
          </Trackpoint>
          <Trackpoint>
            <Time>2018-09-14T14:38:56.000Z</Time>
            <Position>
              <LatitudeDegrees>37.68613661639392375946044921875</LatitudeDegrees>
              <LongitudeDegrees>-8.08403824456036090850830078125</LongitudeDegrees>
            </Position>
            <AltitudeMeters>186.600006103515625</AltitudeMeters>
            <DistanceMeters>299350.99459057</DistanceMeters>
          </Trackpoint>
          <Trackpoint>
            <Time>2018-09-14T14:38:57.000Z</Time>
            <Position>
              <LatitudeDegrees>37.68605531193315982818603515625</LatitudeDegrees>
              <LongitudeDegrees>-8.084041178226470947265625</LongitudeDegrees>
            </Position>
            <AltitudeMeters>186.399993896484375</AltitudeMeters>
            <DistanceMeters>299360.04859708</DistanceMeters>
          </Trackpoint>
          <Trackpoint>
            <Time>2018-09-14T14:38:58.000Z</Time>
            <Position>
              <LatitudeDegrees>37.6859739236533641815185546875</LatitudeDegrees>
              <LongitudeDegrees>-8.084044866263866424560546875</LongitudeDegrees>
            </Position>
            <AltitudeMeters>186.399993896484375</AltitudeMeters>
            <DistanceMeters>299369.11356788</DistanceMeters>
          </Trackpoint>
          <Trackpoint>
            <Time>2018-09-14T14:38:59.000Z</Time>
            <Position>
              <LatitudeDegrees>37.68589295446872711181640625</LatitudeDegrees>
              <LongitudeDegrees>-8.084048889577388763427734375</LongitudeDegrees>
            </Position>
            <AltitudeMeters>186.1999969482421875</AltitudeMeters>
            <DistanceMeters>299378.13259935</DistanceMeters>
          </Trackpoint>
          <Trackpoint>
            <Time>2018-09-14T14:39:00.000Z</Time>
            <Position>
              <LatitudeDegrees>37.68581240437924861907958984375</LatitudeDegrees>
              <LongitudeDegrees>-8.08405299670994281768798828125</LongitudeDegrees>
            </Position>
            <AltitudeMeters>186.1999969482421875</AltitudeMeters>
            <DistanceMeters>299387.10444985</DistanceMeters>
          </Trackpoint>
          <Trackpoint>
            <Time>2018-09-14T14:39:01.000Z</Time>
            <Position>
              <LatitudeDegrees>37.6857345364987850189208984375</LatitudeDegrees>
              <LongitudeDegrees>-8.08405450545251369476318359375</LongitudeDegrees>
            </Position>
            <AltitudeMeters>186</AltitudeMeters>
            <DistanceMeters>299395.77221981</DistanceMeters>
          </Trackpoint>
          <Trackpoint>
            <Time>2018-09-14T14:39:02.000Z</Time>
            <Position>
              <LatitudeDegrees>37.68565935082733631134033203125</LatitudeDegrees>
              <LongitudeDegrees>-8.08405484072864055633544921875</LongitudeDegrees>
            </Position>
            <AltitudeMeters>186</AltitudeMeters>
            <DistanceMeters>299404.14050774</DistanceMeters>
          </Trackpoint>
          <Trackpoint>
            <Time>2018-09-14T14:39:03.000Z</Time>
            <Position>
              <LatitudeDegrees>37.6855853386223316192626953125</LatitudeDegrees>
              <LongitudeDegrees>-8.084054253995418548583984375</LongitudeDegrees>
            </Position>
            <AltitudeMeters>186</AltitudeMeters>
            <DistanceMeters>299412.37883612</DistanceMeters>
          </Trackpoint>
          <Trackpoint>
            <Time>2018-09-14T14:39:04.000Z</Time>
            <Position>
              <LatitudeDegrees>37.68551317043602466583251953125</LatitudeDegrees>
              <LongitudeDegrees>-8.08405282907187938690185546875</LongitudeDegrees>
            </Position>
            <AltitudeMeters>185.8000030517578125</AltitudeMeters>
            <DistanceMeters>299420.41182599</DistanceMeters>
          </Trackpoint>
          <Trackpoint>
            <Time>2018-09-14T14:39:05.000Z</Time>
            <Position>
              <LatitudeDegrees>37.68544645048677921295166015625</LatitudeDegrees>
              <LongitudeDegrees>-8.08405148796737194061279296875</LongitudeDegrees>
            </Position>
            <AltitudeMeters>185.8000030517578125</AltitudeMeters>
            <DistanceMeters>299427.83851482</DistanceMeters>
          </Trackpoint>
          <Trackpoint>
            <Time>2018-09-14T14:39:06.000Z</Time>
            <Position>
              <LatitudeDegrees>37.6853895373642444610595703125</LatitudeDegrees>
              <LongitudeDegrees>-8.08405400253832340240478515625</LongitudeDegrees>
            </Position>
            <AltitudeMeters>185.600006103515625</AltitudeMeters>
            <DistanceMeters>299434.17758732</DistanceMeters>
          </Trackpoint>
          <Trackpoint>
            <Time>2018-09-14T14:39:07.000Z</Time>
            <Position>
              <LatitudeDegrees>37.68534469418227672576904296875</LatitudeDegrees>
              <LongitudeDegrees>-8.08406607247889041900634765625</LongitudeDegrees>
            </Position>
            <AltitudeMeters>185.600006103515625</AltitudeMeters>
            <DistanceMeters>299439.27991134</DistanceMeters>
          </Trackpoint>
          <Trackpoint>
            <Time>2018-09-14T14:39:08.000Z</Time>
            <Position>
              <LatitudeDegrees>37.68531083129346370697021484375</LatitudeDegrees>
              <LongitudeDegrees>-8.0840896256268024444580078125</LongitudeDegrees>
            </Position>
            <AltitudeMeters>185.600006103515625</AltitudeMeters>
            <DistanceMeters>299443.58242882</DistanceMeters>
          </Trackpoint>
          <Trackpoint>
            <Time>2018-09-14T14:39:09.000Z</Time>
            <Position>
              <LatitudeDegrees>37.68528182990849018096923828125</LatitudeDegrees>
              <LongitudeDegrees>-8.0841164477169513702392578125</LongitudeDegrees>
            </Position>
            <AltitudeMeters>185.399993896484375</AltitudeMeters>
            <DistanceMeters>299447.58259075</DistanceMeters>
          </Trackpoint>
          <Trackpoint>
            <Time>2018-09-14T14:39:10.000Z</Time>
            <Position>
              <LatitudeDegrees>37.68525014631450176239013671875</LatitudeDegrees>
              <LongitudeDegrees>-8.0841405875980854034423828125</LongitudeDegrees>
            </Position>
            <AltitudeMeters>185.399993896484375</AltitudeMeters>
            <DistanceMeters>299451.70065869</DistanceMeters>
          </Trackpoint>
          <Trackpoint>
            <Time>2018-09-14T14:39:11.000Z</Time>
            <Position>
              <LatitudeDegrees>37.68521578051149845123291015625</LatitudeDegrees>
              <LongitudeDegrees>-8.084166906774044036865234375</LongitudeDegrees>
            </Position>
            <AltitudeMeters>185.399993896484375</AltitudeMeters>
            <DistanceMeters>299456.17398513</DistanceMeters>
          </Trackpoint>
          <Trackpoint>
            <Time>2018-09-14T14:39:12.000Z</Time>
            <Position>
              <LatitudeDegrees>37.68517890013754367828369140625</LatitudeDegrees>
              <LongitudeDegrees>-8.08419247157871723175048828125</LongitudeDegrees>
            </Position>
            <AltitudeMeters>185.1999969482421875</AltitudeMeters>
            <DistanceMeters>299460.85640177</DistanceMeters>
          </Trackpoint>
          <Trackpoint>
            <Time>2018-09-14T14:39:13.000Z</Time>
            <Position>
              <LatitudeDegrees>37.68513715825974941253662109375</LatitudeDegrees>
              <LongitudeDegrees>-8.08421242050826549530029296875</LongitudeDegrees>
            </Position>
            <AltitudeMeters>185.1999969482421875</AltitudeMeters>
            <DistanceMeters>299465.82421808</DistanceMeters>
          </Trackpoint>
          <Trackpoint>
            <Time>2018-09-14T14:39:14.000Z</Time>
            <Position>
              <LatitudeDegrees>37.68509097397327423095703125</LatitudeDegrees>
              <LongitudeDegrees>-8.0842294357717037200927734375</LongitudeDegrees>
            </Position>
            <AltitudeMeters>185.1999969482421875</AltitudeMeters>
            <DistanceMeters>299471.1787015</DistanceMeters>
          </Trackpoint>
          <Trackpoint>
            <Time>2018-09-14T14:39:15.000Z</Time>
            <Position>
              <LatitudeDegrees>37.68504143692553043365478515625</LatitudeDegrees>
              <LongitudeDegrees>-8.08424293063580989837646484375</LongitudeDegrees>
            </Position>
            <AltitudeMeters>185</AltitudeMeters>
            <DistanceMeters>299476.81979974</DistanceMeters>
          </Trackpoint>
          <Trackpoint>
            <Time>2018-09-14T14:39:16.000Z</Time>
            <Position>
              <LatitudeDegrees>37.68498905003070831298828125</LatitudeDegrees>
              <LongitudeDegrees>-8.08425181545317173004150390625</LongitudeDegrees>
            </Position>
            <AltitudeMeters>185</AltitudeMeters>
            <DistanceMeters>299482.7037876</DistanceMeters>
          </Trackpoint>
          <Trackpoint>
            <Time>2018-09-14T14:39:17.000Z</Time>
            <Position>
              <LatitudeDegrees>37.6849349029362201690673828125</LatitudeDegrees>
              <LongitudeDegrees>-8.0842589400708675384521484375</LongitudeDegrees>
            </Position>
            <AltitudeMeters>184.8000030517578125</AltitudeMeters>
            <DistanceMeters>299488.76392959</DistanceMeters>
          </Trackpoint>
          <Trackpoint>
            <Time>2018-09-14T14:39:18.000Z</Time>
            <Position>
              <LatitudeDegrees>37.6848792470991611480712890625</LatitudeDegrees>
              <LongitudeDegrees>-8.0842653103172779083251953125</LongitudeDegrees>
            </Position>
            <AltitudeMeters>184.8000030517578125</AltitudeMeters>
            <DistanceMeters>299494.98436989</DistanceMeters>
          </Trackpoint>
          <Trackpoint>
            <Time>2018-09-14T14:39:19.000Z</Time>
            <Position>
              <LatitudeDegrees>37.68482132814824581146240234375</LatitudeDegrees>
              <LongitudeDegrees>-8.0842679925262928009033203125</LongitudeDegrees>
            </Position>
            <AltitudeMeters>184.8000030517578125</AltitudeMeters>
            <DistanceMeters>299501.43569707</DistanceMeters>
          </Trackpoint>
          <Trackpoint>
            <Time>2018-09-14T14:39:20.000Z</Time>
            <Position>
              <LatitudeDegrees>37.68476148135960102081298828125</LatitudeDegrees>
              <LongitudeDegrees>-8.0842686630785465240478515625</LongitudeDegrees>
            </Position>
            <AltitudeMeters>184.600006103515625</AltitudeMeters>
            <DistanceMeters>299508.09706297</DistanceMeters>
          </Trackpoint>
          <Trackpoint>
            <Time>2018-09-14T14:39:21.000Z</Time>
            <Position>
              <LatitudeDegrees>37.6846998743712902069091796875</LatitudeDegrees>
              <LongitudeDegrees>-8.084269501268863677978515625</LongitudeDegrees>
            </Position>
            <AltitudeMeters>184.600006103515625</AltitudeMeters>
            <DistanceMeters>299514.9548059</DistanceMeters>
          </Trackpoint>
          <Trackpoint>
            <Time>2018-09-14T14:39:22.000Z</Time>
            <Position>
              <LatitudeDegrees>37.68463633954524993896484375</LatitudeDegrees>
              <LongitudeDegrees>-8.08427117764949798583984375</LongitudeDegrees>
            </Position>
            <AltitudeMeters>184.600006103515625</AltitudeMeters>
            <DistanceMeters>299522.02775602</DistanceMeters>
          </Trackpoint>
          <Trackpoint>
            <Time>2018-09-14T14:39:23.000Z</Time>
            <Position>
              <LatitudeDegrees>37.68457154743373394012451171875</LatitudeDegrees>
              <LongitudeDegrees>-8.08427243493497371673583984375</LongitudeDegrees>
            </Position>
            <AltitudeMeters>184.399993896484375</AltitudeMeters>
            <DistanceMeters>299529.2391505</DistanceMeters>
          </Trackpoint>
          <Trackpoint>
            <Time>2018-09-14T14:39:24.000Z</Time>
            <Position>
              <LatitudeDegrees>37.68450566567480564117431640625</LatitudeDegrees>
              <LongitudeDegrees>-8.0842730216681957244873046875</LongitudeDegrees>
            </Position>
            <AltitudeMeters>184.399993896484375</AltitudeMeters>
            <DistanceMeters>299536.57161769</DistanceMeters>
          </Trackpoint>
          <Trackpoint>
            <Time>2018-09-14T14:39:25.000Z</Time>
            <Position>
              <LatitudeDegrees>37.684438861906528472900390625</LatitudeDegrees>
              <LongitudeDegrees>-8.084274195134639739990234375</LongitudeDegrees>
            </Position>
            <AltitudeMeters>184.1999969482421875</AltitudeMeters>
            <DistanceMeters>299544.00802732</DistanceMeters>
          </Trackpoint>
          <Trackpoint>
            <Time>2018-09-14T14:39:26.000Z</Time>
            <Position>
              <LatitudeDegrees>37.68437205813825130462646484375</LatitudeDegrees>
              <LongitudeDegrees>-8.08427746407687664031982421875</LongitudeDegrees>
            </Position>
            <AltitudeMeters>184.1999969482421875</AltitudeMeters>
            <DistanceMeters>299551.4486858</DistanceMeters>
          </Trackpoint>
          <Trackpoint>
            <Time>2018-09-14T14:39:27.000Z</Time>
            <Position>
              <LatitudeDegrees>37.68430533818900585174560546875</LatitudeDegrees>
              <LongitudeDegrees>-8.084281571209430694580078125</LongitudeDegrees>
            </Position>
            <AltitudeMeters>184.1999969482421875</AltitudeMeters>
            <DistanceMeters>299558.88327375</DistanceMeters>
          </Trackpoint>
          <Trackpoint>
            <Time>2018-09-14T14:39:28.000Z</Time>
            <Position>
              <LatitudeDegrees>37.684238366782665252685546875</LatitudeDegrees>
              <LongitudeDegrees>-8.08428433723747730255126953125</LongitudeDegrees>
            </Position>
            <AltitudeMeters>184</AltitudeMeters>
            <DistanceMeters>299566.340298</DistanceMeters>
          </Trackpoint>
          <Trackpoint>
            <Time>2018-09-14T14:39:29.000Z</Time>
            <Position>
              <LatitudeDegrees>37.68417106010019779205322265625</LatitudeDegrees>
              <LongitudeDegrees>-8.08428551070392131805419921875</LongitudeDegrees>
            </Position>
            <AltitudeMeters>184</AltitudeMeters>
            <DistanceMeters>299573.83235748</DistanceMeters>
          </Trackpoint>
          <Trackpoint>
            <Time>2018-09-14T14:39:30.000Z</Time>
            <Position>
              <LatitudeDegrees>37.6841040886938571929931640625</LatitudeDegrees>
              <LongitudeDegrees>-8.08428618125617504119873046875</LongitudeDegrees>
            </Position>
            <AltitudeMeters>183.8000030517578125</AltitudeMeters>
            <DistanceMeters>299581.28695944</DistanceMeters>
          </Trackpoint>
          <Trackpoint>
            <Time>2018-09-14T14:39:31.000Z</Time>
            <Position>
              <LatitudeDegrees>37.68403778783977031707763671875</LatitudeDegrees>
              <LongitudeDegrees>-8.084286935627460479736328125</LongitudeDegrees>
            </Position>
            <AltitudeMeters>183.600006103515625</AltitudeMeters>
            <DistanceMeters>299588.66729962</DistanceMeters>
          </Trackpoint>
          <Trackpoint>
            <Time>2018-09-14T14:39:32.000Z</Time>
            <Position>
              <LatitudeDegrees>37.68397173844277858734130859375</LatitudeDegrees>
              <LongitudeDegrees>-8.08428701944649219512939453125</LongitudeDegrees>
            </Position>
            <AltitudeMeters>183.600006103515625</AltitudeMeters>
            <DistanceMeters>299596.01821639</DistanceMeters>
          </Trackpoint>
          <Trackpoint>
            <Time>2018-09-14T14:39:33.000Z</Time>
            <Position>
              <LatitudeDegrees>37.6839059405028820037841796875</LatitudeDegrees>
              <LongitudeDegrees>-8.084285259246826171875</LongitudeDegrees>
            </Position>
            <AltitudeMeters>183.399993896484375</AltitudeMeters>
            <DistanceMeters>299603.34329074</DistanceMeters>
          </Trackpoint>
          <Trackpoint>
            <Time>2018-09-14T14:39:34.000Z</Time>
            <Position>
              <LatitudeDegrees>37.6838405616581439971923828125</LatitudeDegrees>
              <LongitudeDegrees>-8.08428182266652584075927734375</LongitudeDegrees>
            </Position>
            <AltitudeMeters>183.1999969482421875</AltitudeMeters>
            <DistanceMeters>299610.62633056</DistanceMeters>
          </Trackpoint>
          <Trackpoint>
            <Time>2018-09-14T14:39:35.000Z</Time>
            <Position>
              <LatitudeDegrees>37.6837755180895328521728515625</LatitudeDegrees>
              <LongitudeDegrees>-8.08427897281944751739501953125</LongitudeDegrees>
            </Position>
            <AltitudeMeters>183</AltitudeMeters>
            <DistanceMeters>299617.86958564</DistanceMeters>
          </Trackpoint>
          <Trackpoint>
            <Time>2018-09-14T14:39:36.000Z</Time>
            <Position>
              <LatitudeDegrees>37.68371022306382656097412109375</LatitudeDegrees>
              <LongitudeDegrees>-8.08427385985851287841796875</LongitudeDegrees>
            </Position>
            <AltitudeMeters>182.8000030517578125</AltitudeMeters>
            <DistanceMeters>299625.15138548</DistanceMeters>
          </Trackpoint>
          <Trackpoint>
            <Time>2018-09-14T14:39:37.000Z</Time>
            <Position>
              <LatitudeDegrees>37.6836447604000568389892578125</LatitudeDegrees>
              <LongitudeDegrees>-8.08426380157470703125</LongitudeDegrees>
            </Position>
            <AltitudeMeters>182.600006103515625</AltitudeMeters>
            <DistanceMeters>299632.49123807</DistanceMeters>
          </Trackpoint>
          <Trackpoint>
            <Time>2018-09-14T14:39:38.000Z</Time>
            <Position>
              <LatitudeDegrees>37.68357913009822368621826171875</LatitudeDegrees>
              <LongitudeDegrees>-8.0842525698244571685791015625</LongitudeDegrees>
            </Position>
            <AltitudeMeters>182.399993896484375</AltitudeMeters>
            <DistanceMeters>299639.86300855</DistanceMeters>
          </Trackpoint>
          <Trackpoint>
            <Time>2018-09-14T14:39:39.000Z</Time>
            <Position>
              <LatitudeDegrees>37.68351257778704166412353515625</LatitudeDegrees>
              <LongitudeDegrees>-8.0842421762645244598388671875</LongitudeDegrees>
            </Position>
            <AltitudeMeters>182.1999969482421875</AltitudeMeters>
            <DistanceMeters>299647.32669006</DistanceMeters>
          </Trackpoint>
          <Trackpoint>
            <Time>2018-09-14T14:39:40.000Z</Time>
            <Position>
              <LatitudeDegrees>37.6834456063807010650634765625</LatitudeDegrees>
              <LongitudeDegrees>-8.0842314474284648895263671875</LongitudeDegrees>
            </Position>
            <AltitudeMeters>182</AltitudeMeters>
            <DistanceMeters>299654.84041336</DistanceMeters>
          </Trackpoint>
          <Trackpoint>
            <Time>2018-09-14T14:39:41.000Z</Time>
            <Position>
              <LatitudeDegrees>37.68337829969823360443115234375</LatitudeDegrees>
              <LongitudeDegrees>-8.08421862311661243438720703125</LongitudeDegrees>
            </Position>
            <AltitudeMeters>182</AltitudeMeters>
            <DistanceMeters>299662.4163731</DistanceMeters>
          </Trackpoint>
          <Trackpoint>
            <Time>2018-09-14T14:39:42.000Z</Time>
            <Position>
              <LatitudeDegrees>37.683310322463512420654296875</LatitudeDegrees>
              <LongitudeDegrees>-8.0842039547860622406005859375</LongitudeDegrees>
            </Position>
            <AltitudeMeters>181.8000030517578125</AltitudeMeters>
            <DistanceMeters>299670.09180264</DistanceMeters>
          </Trackpoint>
          <Trackpoint>
            <Time>2018-09-14T14:39:43.000Z</Time>
            <Position>
              <LatitudeDegrees>37.68324200995266437530517578125</LatitudeDegrees>
              <LongitudeDegrees>-8.084188364446163177490234375</LongitudeDegrees>
            </Position>
            <AltitudeMeters>181.600006103515625</AltitudeMeters>
            <DistanceMeters>299677.81882441</DistanceMeters>
          </Trackpoint>
          <Trackpoint>
            <Time>2018-09-14T14:39:44.000Z</Time>
            <Position>
              <LatitudeDegrees>37.68317294307053089141845703125</LatitudeDegrees>
              <LongitudeDegrees>-8.08417285792529582977294921875</LongitudeDegrees>
            </Position>
            <AltitudeMeters>181.399993896484375</AltitudeMeters>
            <DistanceMeters>299685.62722221</DistanceMeters>
          </Trackpoint>
          <Trackpoint>
            <Time>2018-09-14T14:39:45.000Z</Time>
            <Position>
              <LatitudeDegrees>37.68310370855033397674560546875</LatitudeDegrees>
              <LongitudeDegrees>-8.08415844105184078216552734375</LongitudeDegrees>
            </Position>
            <AltitudeMeters>181.1999969482421875</AltitudeMeters>
            <DistanceMeters>299693.4373545</DistanceMeters>
          </Trackpoint>
          <Trackpoint>
            <Time>2018-09-14T14:39:46.000Z</Time>
            <Position>
              <LatitudeDegrees>37.6830348931252956390380859375</LatitudeDegrees>
              <LongitudeDegrees>-8.0841444432735443115234375</LongitudeDegrees>
            </Position>
            <AltitudeMeters>181</AltitudeMeters>
            <DistanceMeters>299701.1947013</DistanceMeters>
          </Trackpoint>
          <Trackpoint>
            <Time>2018-09-14T14:39:47.000Z</Time>
            <Position>
              <LatitudeDegrees>37.6829668320715427398681640625</LatitudeDegrees>
              <LongitudeDegrees>-8.08413078077137470245361328125</LongitudeDegrees>
            </Position>
            <AltitudeMeters>180.8000030517578125</AltitudeMeters>
            <DistanceMeters>299708.86542344</DistanceMeters>
          </Trackpoint>
          <Trackpoint>
            <Time>2018-09-14T14:39:48.000Z</Time>
            <Position>
              <LatitudeDegrees>37.68289952538907527923583984375</LatitudeDegrees>
              <LongitudeDegrees>-8.08411770500242710113525390625</LongitudeDegrees>
            </Position>
            <AltitudeMeters>180.600006103515625</AltitudeMeters>
            <DistanceMeters>299716.44495814</DistanceMeters>
          </Trackpoint>
          <Trackpoint>
            <Time>2018-09-14T14:39:49.000Z</Time>
            <Position>
              <LatitudeDegrees>37.6828333921730518341064453125</LatitudeDegrees>
              <LongitudeDegrees>-8.08410429395735263824462890625</LongitudeDegrees>
            </Position>
            <AltitudeMeters>180.399993896484375</AltitudeMeters>
            <DistanceMeters>299723.90016575</DistanceMeters>
          </Trackpoint>
          <Trackpoint>
            <Time>2018-09-14T14:39:50.000Z</Time>
            <Position>
              <LatitudeDegrees>37.68276792950928211212158203125</LatitudeDegrees>
              <LongitudeDegrees>-8.084091134369373321533203125</LongitudeDegrees>
            </Position>
            <AltitudeMeters>180.1999969482421875</AltitudeMeters>
            <DistanceMeters>299731.27867041</DistanceMeters>
          </Trackpoint>
          <Trackpoint>
            <Time>2018-09-14T14:39:51.000Z</Time>
            <Position>
              <LatitudeDegrees>37.68270255066454410552978515625</LatitudeDegrees>
              <LongitudeDegrees>-8.08407864533364772796630859375</LongitudeDegrees>
            </Position>
            <AltitudeMeters>180</AltitudeMeters>
            <DistanceMeters>299738.63818116</DistanceMeters>
          </Trackpoint>
          <Trackpoint>
            <Time>2018-09-14T14:39:52.000Z</Time>
            <Position>
              <LatitudeDegrees>37.68263784237205982208251953125</LatitudeDegrees>
              <LongitudeDegrees>-8.08406456373631954193115234375</LongitudeDegrees>
            </Position>
            <AltitudeMeters>180</AltitudeMeters>
            <DistanceMeters>299745.94597645</DistanceMeters>
          </Trackpoint>
          <Trackpoint>
            <Time>2018-09-14T14:39:53.000Z</Time>
            <Position>
              <LatitudeDegrees>37.6825735531747341156005859375</LatitudeDegrees>
              <LongitudeDegrees>-8.084049224853515625</LongitudeDegrees>
            </Position>
            <AltitudeMeters>180</AltitudeMeters>
            <DistanceMeters>299753.22715622</DistanceMeters>
          </Trackpoint>
          <Trackpoint>
            <Time>2018-09-14T14:39:54.000Z</Time>
            <Position>
              <LatitudeDegrees>37.68250976689159870147705078125</LatitudeDegrees>
              <LongitudeDegrees>-8.0840343050658702850341796875</LongitudeDegrees>
            </Position>
            <AltitudeMeters>180</AltitudeMeters>
            <DistanceMeters>299760.44668538</DistanceMeters>
          </Trackpoint>
          <Trackpoint>
            <Time>2018-09-14T14:39:55.000Z</Time>
            <Position>
              <LatitudeDegrees>37.68244631588459014892578125</LatitudeDegrees>
              <LongitudeDegrees>-8.08401913382112979888916015625</LongitudeDegrees>
            </Position>
            <AltitudeMeters>180.1999969482421875</AltitudeMeters>
            <DistanceMeters>299767.63362056</DistanceMeters>
          </Trackpoint>
          <Trackpoint>
            <Time>2018-09-14T14:39:56.000Z</Time>
            <Position>
              <LatitudeDegrees>37.6823841221630573272705078125</LatitudeDegrees>
              <LongitudeDegrees>-8.084002621471881866455078125</LongitudeDegrees>
            </Position>
            <AltitudeMeters>180.1999969482421875</AltitudeMeters>
            <DistanceMeters>299774.70657068</DistanceMeters>
          </Trackpoint>
          <Trackpoint>
            <Time>2018-09-14T14:39:57.000Z</Time>
            <Position>
              <LatitudeDegrees>37.68232268281280994415283203125</LatitudeDegrees>
              <LongitudeDegrees>-8.0839877016842365264892578125</LongitudeDegrees>
            </Position>
            <AltitudeMeters>180.1999969482421875</AltitudeMeters>
            <DistanceMeters>299781.66950688</DistanceMeters>
          </Trackpoint>
          <Trackpoint>
            <Time>2018-09-14T14:39:58.000Z</Time>
            <Position>
              <LatitudeDegrees>37.68226283602416515350341796875</LatitudeDegrees>
              <LongitudeDegrees>-8.08397320099174976348876953125</LongitudeDegrees>
            </Position>
            <AltitudeMeters>180.399993896484375</AltitudeMeters>
            <DistanceMeters>299788.45177857</DistanceMeters>
          </Trackpoint>
          <Trackpoint>
            <Time>2018-09-14T14:39:59.000Z</Time>
            <Position>
              <LatitudeDegrees>37.68220399506390094757080078125</LatitudeDegrees>
              <LongitudeDegrees>-8.0839588679373264312744140625</LongitudeDegrees>
            </Position>
            <AltitudeMeters>180.399993896484375</AltitudeMeters>
            <DistanceMeters>299795.12127305</DistanceMeters>
          </Trackpoint>
          <Trackpoint>
            <Time>2018-09-14T14:40:00.000Z</Time>
            <Position>
              <LatitudeDegrees>37.68214565701782703399658203125</LatitudeDegrees>
              <LongitudeDegrees>-8.08394587598741054534912109375</LongitudeDegrees>
            </Position>
            <AltitudeMeters>180.399993896484375</AltitudeMeters>
            <DistanceMeters>299801.71382627</DistanceMeters>
          </Trackpoint>
          <Trackpoint>
            <Time>2018-09-14T14:40:01.000Z</Time>
            <Position>
              <LatitudeDegrees>37.682087235152721405029296875</LatitudeDegrees>
              <LongitudeDegrees>-8.08393456041812896728515625</LongitudeDegrees>
            </Position>
            <AltitudeMeters>180.600006103515625</AltitudeMeters>
            <DistanceMeters>299808.2919815</DistanceMeters>
          </Trackpoint>
          <Trackpoint>
            <Time>2018-09-14T14:40:02.000Z</Time>
            <Position>
              <LatitudeDegrees>37.68202847801148891448974609375</LatitudeDegrees>
              <LongitudeDegrees>-8.08392223902046680450439453125</LongitudeDegrees>
            </Position>
            <AltitudeMeters>180.600006103515625</AltitudeMeters>
            <DistanceMeters>299814.92073342</DistanceMeters>
          </Trackpoint>
          <Trackpoint>
            <Time>2018-09-14T14:40:03.000Z</Time>
            <Position>
              <LatitudeDegrees>37.68196930177509784698486328125</LatitudeDegrees>
              <LongitudeDegrees>-8.0839097499847412109375</LongitudeDegrees>
            </Position>
            <AltitudeMeters>180.600006103515625</AltitudeMeters>
            <DistanceMeters>299821.59834658</DistanceMeters>
          </Trackpoint>
          <Trackpoint>
            <Time>2018-09-14T14:40:04.000Z</Time>
            <Position>
              <LatitudeDegrees>37.68191029317677021026611328125</LatitudeDegrees>
              <LongitudeDegrees>-8.0838971771299839019775390625</LongitudeDegrees>
            </Position>
            <AltitudeMeters>180.600006103515625</AltitudeMeters>
            <DistanceMeters>299828.25835675</DistanceMeters>
          </Trackpoint>
          <Trackpoint>
            <Time>2018-09-14T14:40:05.000Z</Time>
            <Position>
              <LatitudeDegrees>37.6818515360355377197265625</LatitudeDegrees>
              <LongitudeDegrees>-8.08388452045619487762451171875</LongitudeDegrees>
            </Position>
            <AltitudeMeters>180.600006103515625</AltitudeMeters>
            <DistanceMeters>299834.89391647</DistanceMeters>
          </Trackpoint>
          <Trackpoint>
            <Time>2018-09-14T14:40:06.000Z</Time>
            <Position>
              <LatitudeDegrees>37.68179227598011493682861328125</LatitudeDegrees>
              <LongitudeDegrees>-8.08387245051562786102294921875</LongitudeDegrees>
            </Position>
            <AltitudeMeters>180.600006103515625</AltitudeMeters>
            <DistanceMeters>299841.57558527</DistanceMeters>
          </Trackpoint>
          <Trackpoint>
            <Time>2018-09-14T14:40:07.000Z</Time>
            <Position>
              <LatitudeDegrees>37.68173326738178730010986328125</LatitudeDegrees>
              <LongitudeDegrees>-8.08385870419442653656005859375</LongitudeDegrees>
            </Position>
            <AltitudeMeters>180.600006103515625</AltitudeMeters>
            <DistanceMeters>299848.25387453</DistanceMeters>
          </Trackpoint>
          <Trackpoint>
            <Time>2018-09-14T14:40:08.000Z</Time>
            <Position>
              <LatitudeDegrees>37.68167409114539623260498046875</LatitudeDegrees>
              <LongitudeDegrees>-8.08384629897773265838623046875</LongitudeDegrees>
            </Position>
            <AltitudeMeters>180.399993896484375</AltitudeMeters>
            <DistanceMeters>299854.93013526</DistanceMeters>
          </Trackpoint>
          <Trackpoint>
            <Time>2018-09-14T14:40:09.000Z</Time>
            <Position>
              <LatitudeDegrees>37.6816146634519100189208984375</LatitudeDegrees>
              <LongitudeDegrees>-8.083834983408451080322265625</LongitudeDegrees>
            </Position>
            <AltitudeMeters>180.399993896484375</AltitudeMeters>
            <DistanceMeters>299861.618558</DistanceMeters>
          </Trackpoint>
          <Trackpoint>
            <Time>2018-09-14T14:40:10.000Z</Time>
            <Position>
              <LatitudeDegrees>37.681555487215518951416015625</LatitudeDegrees>
              <LongitudeDegrees>-8.08382115326821804046630859375</LongitudeDegrees>
            </Position>
            <AltitudeMeters>180.399993896484375</AltitudeMeters>
            <DistanceMeters>299868.31575067</DistanceMeters>
          </Trackpoint>
          <Trackpoint>
            <Time>2018-09-14T14:40:11.000Z</Time>
            <Position>
              <LatitudeDegrees>37.68149639479815959930419921875</LatitudeDegrees>
              <LongitudeDegrees>-8.08380556292831897735595703125</LongitudeDegrees>
            </Position>
            <AltitudeMeters>180.399993896484375</AltitudeMeters>
            <DistanceMeters>299875.03448211</DistanceMeters>
          </Trackpoint>
          <Trackpoint>
            <Time>2018-09-14T14:40:12.000Z</Time>
            <Position>
              <LatitudeDegrees>37.681437470018863677978515625</LatitudeDegrees>
              <LongitudeDegrees>-8.0837912298738956451416015625</LongitudeDegrees>
            </Position>
            <AltitudeMeters>180.399993896484375</AltitudeMeters>
            <DistanceMeters>299881.71344742</DistanceMeters>
          </Trackpoint>
          <Trackpoint>
            <Time>2018-09-14T14:40:13.000Z</Time>
            <Position>
              <LatitudeDegrees>37.68137879669666290283203125</LatitudeDegrees>
              <LongitudeDegrees>-8.08377765119075775146484375</LongitudeDegrees>
            </Position>
            <AltitudeMeters>180.399993896484375</AltitudeMeters>
            <DistanceMeters>299888.35308847</DistanceMeters>
          </Trackpoint>
          <Trackpoint>
            <Time>2018-09-14T14:40:14.000Z</Time>
            <Position>
              <LatitudeDegrees>37.68132071010768413543701171875</LatitudeDegrees>
              <LongitudeDegrees>-8.08376382105052471160888671875</LongitudeDegrees>
            </Position>
            <AltitudeMeters>180.600006103515625</AltitudeMeters>
            <DistanceMeters>299894.93193004</DistanceMeters>
          </Trackpoint>
          <Trackpoint>
            <Time>2018-09-14T14:40:15.000Z</Time>
            <Position>
              <LatitudeDegrees>37.681262455880641937255859375</LatitudeDegrees>
              <LongitudeDegrees>-8.083751834928989410400390625</LongitudeDegrees>
            </Position>
            <AltitudeMeters>180.600006103515625</AltitudeMeters>
            <DistanceMeters>299901.50046909</DistanceMeters>
          </Trackpoint>
          <Trackpoint>
            <Time>2018-09-14T14:40:16.000Z</Time>
            <Position>
              <LatitudeDegrees>37.6812046207487583160400390625</LatitudeDegrees>
              <LongitudeDegrees>-8.08374068699777126312255859375</LongitudeDegrees>
            </Position>
            <AltitudeMeters>180.8000030517578125</AltitudeMeters>
            <DistanceMeters>299908.01101275</DistanceMeters>
          </Trackpoint>
          <Trackpoint>
            <Time>2018-09-14T14:40:17.000Z</Time>
            <Position>
              <LatitudeDegrees>37.681146450340747833251953125</LatitudeDegrees>
              <LongitudeDegrees>-8.08372911997139453887939453125</LongitudeDegrees>
            </Position>
            <AltitudeMeters>181</AltitudeMeters>
            <DistanceMeters>299914.56578992</DistanceMeters>
          </Trackpoint>
          <Trackpoint>
            <Time>2018-09-14T14:40:18.000Z</Time>
            <Position>
              <LatitudeDegrees>37.68108836375176906585693359375</LatitudeDegrees>
              <LongitudeDegrees>-8.0837174691259860992431640625</LongitudeDegrees>
            </Position>
            <AltitudeMeters>181.1999969482421875</AltitudeMeters>
            <DistanceMeters>299921.11229607</DistanceMeters>
          </Trackpoint>
          <Trackpoint>
            <Time>2018-09-14T14:40:19.000Z</Time>
            <Position>
              <LatitudeDegrees>37.68103010952472686767578125</LatitudeDegrees>
              <LongitudeDegrees>-8.0837053991854190826416015625</LongitudeDegrees>
            </Position>
            <AltitudeMeters>181.1999969482421875</AltitudeMeters>
            <DistanceMeters>299927.68220973</DistanceMeters>
          </Trackpoint>
          <Trackpoint>
            <Time>2018-09-14T14:40:20.000Z</Time>
            <Position>
              <LatitudeDegrees>37.68097202293574810028076171875</LatitudeDegrees>
              <LongitudeDegrees>-8.0836933292448520660400390625</LongitudeDegrees>
            </Position>
            <AltitudeMeters>181.399993896484375</AltitudeMeters>
            <DistanceMeters>299934.23423105</DistanceMeters>
          </Trackpoint>
          <Trackpoint>
            <Time>2018-09-14T14:40:21.000Z</Time>
            <Position>
              <LatitudeDegrees>37.6809146068990230560302734375</LatitudeDegrees>
              <LongitudeDegrees>-8.08368243277072906494140625</LongitudeDegrees>
            </Position>
            <AltitudeMeters>181.600006103515625</AltitudeMeters>
            <DistanceMeters>299940.69604763</DistanceMeters>
          </Trackpoint>
          <Trackpoint>
            <Time>2018-09-14T14:40:22.000Z</Time>
            <Position>
              <LatitudeDegrees>37.68085752613842487335205078125</LatitudeDegrees>
              <LongitudeDegrees>-8.083670698106288909912109375</LongitudeDegrees>
            </Position>
            <AltitudeMeters>181.600006103515625</AltitudeMeters>
            <DistanceMeters>299947.13266092</DistanceMeters>
          </Trackpoint>
          <Trackpoint>
            <Time>2018-09-14T14:40:23.000Z</Time>
            <Position>
              <LatitudeDegrees>37.68080086447298526763916015625</LatitudeDegrees>
              <LongitudeDegrees>-8.08365871198475360870361328125</LongitudeDegrees>
            </Position>
            <AltitudeMeters>181.600006103515625</AltitudeMeters>
            <DistanceMeters>299953.527048</DistanceMeters>
          </Trackpoint>
          <Trackpoint>
            <Time>2018-09-14T14:40:24.000Z</Time>
            <Position>
              <LatitudeDegrees>37.6807446219027042388916015625</LatitudeDegrees>
              <LongitudeDegrees>-8.0836460553109645843505859375</LongitudeDegrees>
            </Position>
            <AltitudeMeters>181.399993896484375</AltitudeMeters>
            <DistanceMeters>299959.88461217</DistanceMeters>
          </Trackpoint>
          <Trackpoint>
            <Time>2018-09-14T14:40:25.000Z</Time>
            <Position>
              <LatitudeDegrees>37.68068871460855007171630859375</LatitudeDegrees>
              <LongitudeDegrees>-8.08363440446555614471435546875</LongitudeDegrees>
            </Position>
            <AltitudeMeters>181.1999969482421875</AltitudeMeters>
            <DistanceMeters>299966.19083582</DistanceMeters>
          </Trackpoint>
          <Trackpoint>
            <Time>2018-09-14T14:40:26.000Z</Time>
            <Position>
              <LatitudeDegrees>37.68063255585730075836181640625</LatitudeDegrees>
              <LongitudeDegrees>-8.08362250216305255889892578125</LongitudeDegrees>
            </Position>
            <AltitudeMeters>181</AltitudeMeters>
            <DistanceMeters>299972.52848365</DistanceMeters>
          </Trackpoint>
          <Trackpoint>
            <Time>2018-09-14T14:40:27.000Z</Time>
            <Position>
              <LatitudeDegrees>37.68057572655379772186279296875</LatitudeDegrees>
              <LongitudeDegrees>-8.083610348403453826904296875</LongitudeDegrees>
            </Position>
            <AltitudeMeters>181.1999969482421875</AltitudeMeters>
            <DistanceMeters>299978.94331477</DistanceMeters>
          </Trackpoint>
          <Trackpoint>
            <Time>2018-09-14T14:40:28.000Z</Time>
            <Position>
              <LatitudeDegrees>37.680518142879009246826171875</LatitudeDegrees>
              <LongitudeDegrees>-8.08359802700579166412353515625</LongitudeDegrees>
            </Position>
            <AltitudeMeters>181.1999969482421875</AltitudeMeters>
            <DistanceMeters>299985.44414224</DistanceMeters>
          </Trackpoint>
          <Trackpoint>
            <Time>2018-09-14T14:40:29.000Z</Time>
            <Position>
              <LatitudeDegrees>37.680460475385189056396484375</LatitudeDegrees>
              <LongitudeDegrees>-8.08358511887490749359130859375</LongitudeDegrees>
            </Position>
            <AltitudeMeters>181.1999969482421875</AltitudeMeters>
            <DistanceMeters>299991.9623099</DistanceMeters>
          </Trackpoint>
          <Trackpoint>
            <Time>2018-09-14T14:40:30.000Z</Time>
            <Position>
              <LatitudeDegrees>37.68040247261524200439453125</LatitudeDegrees>
              <LongitudeDegrees>-8.08357179164886474609375</LongitudeDegrees>
            </Position>
            <AltitudeMeters>181.399993896484375</AltitudeMeters>
            <DistanceMeters>299998.52397162</DistanceMeters>
          </Trackpoint>
          <Trackpoint>
            <Time>2018-09-14T14:40:31.000Z</Time>
            <Position>
              <LatitudeDegrees>37.68034472130239009857177734375</LatitudeDegrees>
              <LongitudeDegrees>-8.083558380603790283203125</LongitudeDegrees>
            </Position>
            <AltitudeMeters>181.399993896484375</AltitudeMeters>
            <DistanceMeters>300005.06012428</DistanceMeters>
          </Trackpoint>
          <Trackpoint>
            <Time>2018-09-14T14:40:32.000Z</Time>
            <Position>
              <LatitudeDegrees>37.68028705380856990814208984375</LatitudeDegrees>
              <LongitudeDegrees>-8.08354605920612812042236328125</LongitudeDegrees>
            </Position>
            <AltitudeMeters>181.399993896484375</AltitudeMeters>
            <DistanceMeters>300011.56928081</DistanceMeters>
          </Trackpoint>
          <Trackpoint>
            <Time>2018-09-14T14:40:33.000Z</Time>
            <Position>
              <LatitudeDegrees>37.6802296377718448638916015625</LatitudeDegrees>
              <LongitudeDegrees>-8.08353365398943424224853515625</LongitudeDegrees>
            </Position>
            <AltitudeMeters>181.600006103515625</AltitudeMeters>
            <DistanceMeters>300018.05202527</DistanceMeters>
          </Trackpoint>
          <Trackpoint>
            <Time>2018-09-14T14:40:34.000Z</Time>
            <Position>
              <LatitudeDegrees>37.68017322756350040435791015625</LatitudeDegrees>
              <LongitudeDegrees>-8.0835203267633914947509765625</LongitudeDegrees>
            </Position>
            <AltitudeMeters>181.600006103515625</AltitudeMeters>
            <DistanceMeters>300024.43934751</DistanceMeters>
          </Trackpoint>
          <Trackpoint>
            <Time>2018-09-14T14:40:35.000Z</Time>
            <Position>
              <LatitudeDegrees>37.68011757172644138336181640625</LatitudeDegrees>
              <LongitudeDegrees>-8.0835065804421901702880859375</LongitudeDegrees>
            </Position>
            <AltitudeMeters>181.600006103515625</AltitudeMeters>
            <DistanceMeters>300030.74986548</DistanceMeters>
          </Trackpoint>
          <Trackpoint>
            <Time>2018-09-14T14:40:36.000Z</Time>
            <Position>
              <LatitudeDegrees>37.680062167346477508544921875</LatitudeDegrees>
              <LongitudeDegrees>-8.08349358849227428436279296875</LongitudeDegrees>
            </Position>
            <AltitudeMeters>181.600006103515625</AltitudeMeters>
            <DistanceMeters>300037.02162863</DistanceMeters>
          </Trackpoint>
          <Trackpoint>
            <Time>2018-09-14T14:40:37.000Z</Time>
            <Position>
              <LatitudeDegrees>37.6800070144236087799072265625</LatitudeDegrees>
              <LongitudeDegrees>-8.0834810994565486907958984375</LongitudeDegrees>
            </Position>
            <AltitudeMeters>181.8000030517578125</AltitudeMeters>
            <DistanceMeters>300043.25801695</DistanceMeters>
          </Trackpoint>
          <Trackpoint>
            <Time>2018-09-14T14:40:38.000Z</Time>
            <Position>
              <LatitudeDegrees>37.6799523644149303436279296875</LatitudeDegrees>
              <LongitudeDegrees>-8.08346995152533054351806640625</LongitudeDegrees>
            </Position>
            <AltitudeMeters>182.1999969482421875</AltitudeMeters>
            <DistanceMeters>300049.41865095</DistanceMeters>
          </Trackpoint>
          <Trackpoint>
            <Time>2018-09-14T14:40:39.000Z</Time>
            <Position>
              <LatitudeDegrees>37.67989796586334705352783203125</LatitudeDegrees>
              <LongitudeDegrees>-8.08345871977508068084716796875</LongitudeDegrees>
            </Position>
            <AltitudeMeters>182.600006103515625</AltitudeMeters>
            <DistanceMeters>300055.55358034</DistanceMeters>
          </Trackpoint>
          <Trackpoint>
            <Time>2018-09-14T14:40:40.000Z</Time>
            <Position>
              <LatitudeDegrees>37.6798437349498271942138671875</LatitudeDegrees>
              <LongitudeDegrees>-8.08344815857708454132080078125</LongitudeDegrees>
            </Position>
            <AltitudeMeters>183</AltitudeMeters>
            <DistanceMeters>300061.66047937</DistanceMeters>
          </Trackpoint>
          <Trackpoint>
            <Time>2018-09-14T14:40:41.000Z</Time>
            <Position>
              <LatitudeDegrees>37.67978950403630733489990234375</LatitudeDegrees>
              <LongitudeDegrees>-8.08343709446489810943603515625</LongitudeDegrees>
            </Position>
            <AltitudeMeters>183.399993896484375</AltitudeMeters>
            <DistanceMeters>300067.7732902</DistanceMeters>
          </Trackpoint>
          <Trackpoint>
            <Time>2018-09-14T14:40:42.000Z</Time>
            <Position>
              <LatitudeDegrees>37.6797351054847240447998046875</LatitudeDegrees>
              <LongitudeDegrees>-8.08342452161014080047607421875</LongitudeDegrees>
            </Position>
            <AltitudeMeters>183.8000030517578125</AltitudeMeters>
            <DistanceMeters>300073.92879187</DistanceMeters>
          </Trackpoint>
          <Trackpoint>
            <Time>2018-09-14T14:40:43.000Z</Time>
            <Position>
              <LatitudeDegrees>37.67968053929507732391357421875</LatitudeDegrees>
              <LongitudeDegrees>-8.08341161347925662994384765625</LongitudeDegrees>
            </Position>
            <AltitudeMeters>184.1999969482421875</AltitudeMeters>
            <DistanceMeters>300080.10845151</DistanceMeters>
          </Trackpoint>
          <Trackpoint>
            <Time>2018-09-14T14:40:44.000Z</Time>
            <Position>
              <LatitudeDegrees>37.67962622456252574920654296875</LatitudeDegrees>
              <LongitudeDegrees>-8.0833996273577213287353515625</LongitudeDegrees>
            </Position>
            <AltitudeMeters>184.600006103515625</AltitudeMeters>
            <DistanceMeters>300086.24485264</DistanceMeters>
          </Trackpoint>
          <Trackpoint>
            <Time>2018-09-14T14:40:45.000Z</Time>
            <Position>
              <LatitudeDegrees>37.6795721612870693206787109375</LatitudeDegrees>
              <LongitudeDegrees>-8.08338780887424945831298828125</LongitudeDegrees>
            </Position>
            <AltitudeMeters>185</AltitudeMeters>
            <DistanceMeters>300092.35175166</DistanceMeters>
          </Trackpoint>
          <Trackpoint>
            <Time>2018-09-14T14:40:46.000Z</Time>
            <Position>
              <LatitudeDegrees>37.6795181818306446075439453125</LatitudeDegrees>
              <LongitudeDegrees>-8.08337523601949214935302734375</LongitudeDegrees>
            </Position>
            <AltitudeMeters>185.399993896484375</AltitudeMeters>
            <DistanceMeters>300098.46086829</DistanceMeters>
          </Trackpoint>
          <Trackpoint>
            <Time>2018-09-14T14:40:47.000Z</Time>
            <Position>
              <LatitudeDegrees>37.679464034736156463623046875</LatitudeDegrees>
              <LongitudeDegrees>-8.0833637528121471405029296875</LongitudeDegrees>
            </Position>
            <AltitudeMeters>185.8000030517578125</AltitudeMeters>
            <DistanceMeters>300104.57072393</DistanceMeters>
          </Trackpoint>
          <Trackpoint>
            <Time>2018-09-14T14:40:48.000Z</Time>
            <Position>
              <LatitudeDegrees>37.67940938472747802734375</LatitudeDegrees>
              <LongitudeDegrees>-8.08335294015705585479736328125</LongitudeDegrees>
            </Position>
            <AltitudeMeters>186</AltitudeMeters>
            <DistanceMeters>300110.7262256</DistanceMeters>
          </Trackpoint>
          <Trackpoint>
            <Time>2018-09-14T14:40:49.000Z</Time>
            <Position>
              <LatitudeDegrees>37.67935372889041900634765625</LatitudeDegrees>
              <LongitudeDegrees>-8.0833406187593936920166015625</LongitudeDegrees>
            </Position>
            <AltitudeMeters>186.399993896484375</AltitudeMeters>
            <DistanceMeters>300117.0152426</DistanceMeters>
          </Trackpoint>
          <Trackpoint>
            <Time>2018-09-14T14:40:50.000Z</Time>
            <Position>
              <LatitudeDegrees>37.67929740250110626220703125</LatitudeDegrees>
              <LongitudeDegrees>-8.08332863263785839080810546875</LongitudeDegrees>
            </Position>
            <AltitudeMeters>186.8000030517578125</AltitudeMeters>
            <DistanceMeters>300123.37280677</DistanceMeters>
          </Trackpoint>
          <Trackpoint>
            <Time>2018-09-14T14:40:51.000Z</Time>
            <Position>
              <LatitudeDegrees>37.6792402379214763641357421875</LatitudeDegrees>
              <LongitudeDegrees>-8.08331723324954509735107421875</LongitudeDegrees>
            </Position>
            <AltitudeMeters>187.399993896484375</AltitudeMeters>
            <DistanceMeters>300129.81362746</DistanceMeters>
          </Trackpoint>
          <Trackpoint>
            <Time>2018-09-14T14:40:52.000Z</Time>
            <Position>
              <LatitudeDegrees>37.67918298952281475067138671875</LatitudeDegrees>
              <LongitudeDegrees>-8.08330533094704151153564453125</LongitudeDegrees>
            </Position>
            <AltitudeMeters>187.600006103515625</AltitudeMeters>
            <DistanceMeters>300136.27125032</DistanceMeters>
          </Trackpoint>
          <Trackpoint>
            <Time>2018-09-14T14:40:53.000Z</Time>
            <Position>
              <LatitudeDegrees>37.679125405848026275634765625</LatitudeDegrees>
              <LongitudeDegrees>-8.08329351246356964111328125</LongitudeDegrees>
            </Position>
            <AltitudeMeters>187.399993896484375</AltitudeMeters>
            <DistanceMeters>300142.76373805</DistanceMeters>
          </Trackpoint>
          <Trackpoint>
            <Time>2018-09-14T14:40:54.000Z</Time>
            <Position>
              <LatitudeDegrees>37.6790675707161426544189453125</LatitudeDegrees>
              <LongitudeDegrees>-8.08328286744654178619384765625</LongitudeDegrees>
            </Position>
            <AltitudeMeters>187</AltitudeMeters>
            <DistanceMeters>300149.26873137</DistanceMeters>
          </Trackpoint>
          <Trackpoint>
            <Time>2018-09-14T14:40:55.000Z</Time>
            <Position>
              <LatitudeDegrees>37.67900981940329074859619140625</LatitudeDegrees>
              <LongitudeDegrees>-8.08327264152467250823974609375</LongitudeDegrees>
            </Position>
            <AltitudeMeters>186.600006103515625</AltitudeMeters>
            <DistanceMeters>300155.7598281</DistanceMeters>
          </Trackpoint>
          <Trackpoint>
            <Time>2018-09-14T14:40:56.000Z</Time>
            <Position>
              <LatitudeDegrees>37.6789520680904388427734375</LatitudeDegrees>
              <LongitudeDegrees>-8.08326073922216892242431640625</LongitudeDegrees>
            </Position>
            <AltitudeMeters>186.1999969482421875</AltitudeMeters>
            <DistanceMeters>300162.27314516</DistanceMeters>
          </Trackpoint>
          <Trackpoint>
            <Time>2018-09-14T14:40:57.000Z</Time>
            <Position>
              <LatitudeDegrees>37.67889440059661865234375</LatitudeDegrees>
              <LongitudeDegrees>-8.08324716053903102874755859375</LongitudeDegrees>
            </Position>
            <AltitudeMeters>186</AltitudeMeters>
            <DistanceMeters>300168.80169483</DistanceMeters>
          </Trackpoint>
          <Trackpoint>
            <Time>2018-09-14T14:40:58.000Z</Time>
            <Position>
              <LatitudeDegrees>37.67883698455989360809326171875</LatitudeDegrees>
              <LongitudeDegrees>-8.0832329951226711273193359375</LongitudeDegrees>
            </Position>
            <AltitudeMeters>185.600006103515625</AltitudeMeters>
            <DistanceMeters>300175.3122385</DistanceMeters>
          </Trackpoint>
          <Trackpoint>
            <Time>2018-09-14T14:40:59.000Z</Time>
            <Position>
              <LatitudeDegrees>37.67877948470413684844970703125</LatitudeDegrees>
              <LongitudeDegrees>-8.083218745887279510498046875</LongitudeDegrees>
            </Position>
            <AltitudeMeters>185.1999969482421875</AltitudeMeters>
            <DistanceMeters>300181.83456095</DistanceMeters>
          </Trackpoint>
          <Trackpoint>
            <Time>2018-09-14T14:41:00.000Z</Time>
            <Position>
              <LatitudeDegrees>37.6787213981151580810546875</LatitudeDegrees>
              <LongitudeDegrees>-8.083204664289951324462890625</LongitudeDegrees>
            </Position>
            <AltitudeMeters>185</AltitudeMeters>
            <DistanceMeters>300188.41820484</DistanceMeters>
          </Trackpoint>
          <Trackpoint>
            <Time>2018-09-14T14:41:01.000Z</Time>
            <Position>
              <LatitudeDegrees>37.67866247333586215972900390625</LatitudeDegrees>
              <LongitudeDegrees>-8.08319033123552799224853515625</LongitudeDegrees>
            </Position>
            <AltitudeMeters>184.600006103515625</AltitudeMeters>
            <DistanceMeters>300195.09784613</DistanceMeters>
          </Trackpoint>
          <Trackpoint>
            <Time>2018-09-14T14:41:02.000Z</Time>
            <Position>
              <LatitudeDegrees>37.67860296182334423065185546875</LatitudeDegrees>
              <LongitudeDegrees>-8.0831749923527240753173828125</LongitudeDegrees>
            </Position>
            <AltitudeMeters>184.399993896484375</AltitudeMeters>
            <DistanceMeters>300201.85878149</DistanceMeters>
          </Trackpoint>
          <Trackpoint>
            <Time>2018-09-14T14:41:03.000Z</Time>
            <Position>
              <LatitudeDegrees>37.67854261212050914764404296875</LatitudeDegrees>
              <LongitudeDegrees>-8.083161748945713043212890625</LongitudeDegrees>
            </Position>
            <AltitudeMeters>184.600006103515625</AltitudeMeters>
            <DistanceMeters>300208.67690686</DistanceMeters>
          </Trackpoint>
          <Trackpoint>
            <Time>2018-09-14T14:41:04.000Z</Time>
            <Position>
              <LatitudeDegrees>37.6784821785986423492431640625</LatitudeDegrees>
              <LongitudeDegrees>-8.0831498466432094573974609375</LongitudeDegrees>
            </Position>
            <AltitudeMeters>184.600006103515625</AltitudeMeters>
            <DistanceMeters>300215.4844286</DistanceMeters>
          </Trackpoint>
          <Trackpoint>
            <Time>2018-09-14T14:41:05.000Z</Time>
            <Position>
              <LatitudeDegrees>37.6784218288958072662353515625</LatitudeDegrees>
              <LongitudeDegrees>-8.0831367708742618560791015625</LongitudeDegrees>
            </Position>
            <AltitudeMeters>184.8000030517578125</AltitudeMeters>
            <DistanceMeters>300222.29990461</DistanceMeters>
          </Trackpoint>
          <Trackpoint>
            <Time>2018-09-14T14:41:06.000Z</Time>
            <Position>
              <LatitudeDegrees>37.67836156301200389862060546875</LatitudeDegrees>
              <LongitudeDegrees>-8.083122856914997100830078125</LongitudeDegrees>
            </Position>
            <AltitudeMeters>185</AltitudeMeters>
            <DistanceMeters>300229.11869216</DistanceMeters>
          </Trackpoint>
          <Trackpoint>
            <Time>2018-09-14T14:41:07.000Z</Time>
            <Position>
              <LatitudeDegrees>37.67830154858529567718505859375</LatitudeDegrees>
              <LongitudeDegrees>-8.0831082724034786224365234375</LongitudeDegrees>
            </Position>
            <AltitudeMeters>185.399993896484375</AltitudeMeters>
            <DistanceMeters>300235.92090589</DistanceMeters>
          </Trackpoint>
          <Trackpoint>
            <Time>2018-09-14T14:41:08.000Z</Time>
            <Position>
              <LatitudeDegrees>37.6782412827014923095703125</LatitudeDegrees>
              <LongitudeDegrees>-8.08309444226324558258056640625</LongitudeDegrees>
            </Position>
            <AltitudeMeters>185.600006103515625</AltitudeMeters>
            <DistanceMeters>300242.73836902</DistanceMeters>
          </Trackpoint>
          <Trackpoint>
            <Time>2018-09-14T14:41:09.000Z</Time>
            <Position>
              <LatitudeDegrees>37.67818051390349864959716796875</LatitudeDegrees>
              <LongitudeDegrees>-8.08308052830398082733154296875</LongitudeDegrees>
            </Position>
            <AltitudeMeters>185.8000030517578125</AltitudeMeters>
            <DistanceMeters>300249.61320866</DistanceMeters>
          </Trackpoint>
          <Trackpoint>
            <Time>2018-09-14T14:41:10.000Z</Time>
            <Position>
              <LatitudeDegrees>37.67811899073421955108642578125</LatitudeDegrees>
              <LongitudeDegrees>-8.0830663628876209259033203125</LongitudeDegrees>
            </Position>
            <AltitudeMeters>186</AltitudeMeters>
            <DistanceMeters>300256.57419926</DistanceMeters>
          </Trackpoint>
          <Trackpoint>
            <Time>2018-09-14T14:41:11.000Z</Time>
            <Position>
              <LatitudeDegrees>37.67805688083171844482421875</LatitudeDegrees>
              <LongitudeDegrees>-8.08305337093770503997802734375</LongitudeDegrees>
            </Position>
            <AltitudeMeters>186.399993896484375</AltitudeMeters>
            <DistanceMeters>300263.5817349</DistanceMeters>
          </Trackpoint>
          <Trackpoint>
            <Time>2018-09-14T14:41:12.000Z</Time>
            <Position>
              <LatitudeDegrees>37.67799426801502704620361328125</LatitudeDegrees>
              <LongitudeDegrees>-8.0830398760735988616943359375</LongitudeDegrees>
            </Position>
            <AltitudeMeters>186.600006103515625</AltitudeMeters>
            <DistanceMeters>300270.65149254</DistanceMeters>
          </Trackpoint>
          <Trackpoint>
            <Time>2018-09-14T14:41:13.000Z</Time>
            <Position>
              <LatitudeDegrees>37.67793207429349422454833984375</LatitudeDegrees>
              <LongitudeDegrees>-8.08302688412368297576904296875</LongitudeDegrees>
            </Position>
            <AltitudeMeters>186.8000030517578125</AltitudeMeters>
            <DistanceMeters>300277.66804275</DistanceMeters>
          </Trackpoint>
          <Trackpoint>
            <Time>2018-09-14T14:41:14.000Z</Time>
            <Position>
              <LatitudeDegrees>37.67786912620067596435546875</LatitudeDegrees>
              <LongitudeDegrees>-8.08301380835473537445068359375</LongitudeDegrees>
            </Position>
            <AltitudeMeters>186.8000030517578125</AltitudeMeters>
            <DistanceMeters>300284.76775307</DistanceMeters>
          </Trackpoint>
          <Trackpoint>
            <Time>2018-09-14T14:41:15.000Z</Time>
            <Position>
              <LatitudeDegrees>37.67780651338398456573486328125</LatitudeDegrees>
              <LongitudeDegrees>-8.08300123549997806549072265625</LongitudeDegrees>
            </Position>
            <AltitudeMeters>186.600006103515625</AltitudeMeters>
            <DistanceMeters>300291.82408651</DistanceMeters>
          </Trackpoint>
          <Trackpoint>
            <Time>2018-09-14T14:41:16.000Z</Time>
            <Position>
              <LatitudeDegrees>37.67774415202438831329345703125</LatitudeDegrees>
              <LongitudeDegrees>-8.08298866264522075653076171875</LongitudeDegrees>
            </Position>
            <AltitudeMeters>186.399993896484375</AltitudeMeters>
            <DistanceMeters>300298.85349461</DistanceMeters>
          </Trackpoint>
          <Trackpoint>
            <Time>2018-09-14T14:41:17.000Z</Time>
            <Position>
              <LatitudeDegrees>37.6776815392076969146728515625</LatitudeDegrees>
              <LongitudeDegrees>-8.08297491632401943206787109375</LongitudeDegrees>
            </Position>
            <AltitudeMeters>186.399993896484375</AltitudeMeters>
            <DistanceMeters>300305.92644474</DistanceMeters>
          </Trackpoint>
          <Trackpoint>
            <Time>2018-09-14T14:41:18.000Z</Time>
            <Position>
              <LatitudeDegrees>37.6776188425719738006591796875</LatitudeDegrees>
              <LongitudeDegrees>-8.082961924374103546142578125</LongitudeDegrees>
            </Position>
            <AltitudeMeters>186.1999969482421875</AltitudeMeters>
            <DistanceMeters>300312.99811804</DistanceMeters>
          </Trackpoint>
          <Trackpoint>
            <Time>2018-09-14T14:41:19.000Z</Time>
            <Position>
              <LatitudeDegrees>37.67755656503140926361083984375</LatitudeDegrees>
              <LongitudeDegrees>-8.08295010589063167572021484375</LongitudeDegrees>
            </Position>
            <AltitudeMeters>186.1999969482421875</AltitudeMeters>
            <DistanceMeters>300320.00694219</DistanceMeters>
          </Trackpoint>
          <Trackpoint>
            <Time>2018-09-14T14:41:20.000Z</Time>
            <Position>
              <LatitudeDegrees>37.67749453894793987274169921875</LatitudeDegrees>
              <LongitudeDegrees>-8.08293669484555721282958984375</LongitudeDegrees>
            </Position>
            <AltitudeMeters>186.1999969482421875</AltitudeMeters>
            <DistanceMeters>300327.0119001</DistanceMeters>
          </Trackpoint>
          <Trackpoint>
            <Time>2018-09-14T14:41:21.000Z</Time>
            <Position>
              <LatitudeDegrees>37.67743284814059734344482421875</LatitudeDegrees>
              <LongitudeDegrees>-8.08292412199079990386962890625</LongitudeDegrees>
            </Position>
            <AltitudeMeters>186.399993896484375</AltitudeMeters>
            <DistanceMeters>300333.96640148</DistanceMeters>
          </Trackpoint>
          <Trackpoint>
            <Time>2018-09-14T14:41:22.000Z</Time>
            <Position>
              <LatitudeDegrees>37.67737166024744510650634765625</LatitudeDegrees>
              <LongitudeDegrees>-8.08291087858378887176513671875</LongitudeDegrees>
            </Position>
            <AltitudeMeters>186.600006103515625</AltitudeMeters>
            <DistanceMeters>300340.8759611</DistanceMeters>
          </Trackpoint>
          <Trackpoint>
            <Time>2018-09-14T14:41:23.000Z</Time>
            <Position>
              <LatitudeDegrees>37.67731047235429286956787109375</LatitudeDegrees>
              <LongitudeDegrees>-8.08289780281484127044677734375</LongitudeDegrees>
            </Position>
            <AltitudeMeters>186.8000030517578125</AltitudeMeters>
            <DistanceMeters>300347.7835601</DistanceMeters>
          </Trackpoint>
          <Trackpoint>
            <Time>2018-09-14T14:41:24.000Z</Time>
            <Position>
              <LatitudeDegrees>37.67724928446114063262939453125</LatitudeDegrees>
              <LongitudeDegrees>-8.08288506232202053070068359375</LongitudeDegrees>
            </Position>
            <AltitudeMeters>187</AltitudeMeters>
            <DistanceMeters>300354.68592805</DistanceMeters>
          </Trackpoint>
          <Trackpoint>
            <Time>2018-09-14T14:41:25.000Z</Time>
            <Position>
              <LatitudeDegrees>37.67718859948217868804931640625</LatitudeDegrees>
              <LongitudeDegrees>-8.08287181891500949859619140625</LongitudeDegrees>
            </Position>
            <AltitudeMeters>187</AltitudeMeters>
            <DistanceMeters>300361.53971953</DistanceMeters>
          </Trackpoint>
          <Trackpoint>
            <Time>2018-09-14T14:41:26.000Z</Time>
            <Position>
              <LatitudeDegrees>37.67712875269353389739990234375</LatitudeDegrees>
              <LongitudeDegrees>-8.08285807259380817413330078125</LongitudeDegrees>
            </Position>
            <AltitudeMeters>187</AltitudeMeters>
            <DistanceMeters>300368.30999781</DistanceMeters>
          </Trackpoint>
          <Trackpoint>
            <Time>2018-09-14T14:41:27.000Z</Time>
            <Position>
              <LatitudeDegrees>37.67707007937133312225341796875</LatitudeDegrees>
              <LongitudeDegrees>-8.08284348808228969573974609375</LongitudeDegrees>
            </Position>
            <AltitudeMeters>187</AltitudeMeters>
            <DistanceMeters>300374.96593915</DistanceMeters>
          </Trackpoint>
          <Trackpoint>
            <Time>2018-09-14T14:41:28.000Z</Time>
            <Position>
              <LatitudeDegrees>37.67701241187751293182373046875</LatitudeDegrees>
              <LongitudeDegrees>-8.08282957412302494049072265625</LongitudeDegrees>
            </Position>
            <AltitudeMeters>187</AltitudeMeters>
            <DistanceMeters>300381.50071011</DistanceMeters>
          </Trackpoint>
          <Trackpoint>
            <Time>2018-09-14T14:41:29.000Z</Time>
            <Position>
              <LatitudeDegrees>37.67695524729788303375244140625</LatitudeDegrees>
              <LongitudeDegrees>-8.082816414535045623779296875</LongitudeDegrees>
            </Position>
            <AltitudeMeters>187</AltitudeMeters>
            <DistanceMeters>300387.96811408</DistanceMeters>
          </Trackpoint>
          <Trackpoint>
            <Time>2018-09-14T14:41:30.000Z</Time>
            <Position>
              <LatitudeDegrees>37.6768979988992214202880859375</LatitudeDegrees>
              <LongitudeDegrees>-8.082803674042224884033203125</LongitudeDegrees>
            </Position>
            <AltitudeMeters>187</AltitudeMeters>
            <DistanceMeters>300394.43830993</DistanceMeters>
          </Trackpoint>
          <Trackpoint>
            <Time>2018-09-14T14:41:31.000Z</Time>
            <Position>
              <LatitudeDegrees>37.67684091813862323760986328125</LatitudeDegrees>
              <LongitudeDegrees>-8.08279068209230899810791015625</LongitudeDegrees>
            </Position>
            <AltitudeMeters>187</AltitudeMeters>
            <DistanceMeters>300400.89383491</DistanceMeters>
          </Trackpoint>
          <Trackpoint>
            <Time>2018-09-14T14:41:32.000Z</Time>
            <Position>
              <LatitudeDegrees>37.676784507930278778076171875</LatitudeDegrees>
              <LongitudeDegrees>-8.0827763490378856658935546875</LongitudeDegrees>
            </Position>
            <AltitudeMeters>187</AltitudeMeters>
            <DistanceMeters>300407.29880465</DistanceMeters>
          </Trackpoint>
          <Trackpoint>
            <Time>2018-09-14T14:41:33.000Z</Time>
            <Position>
              <LatitudeDegrees>37.67672860063612461090087890625</LatitudeDegrees>
              <LongitudeDegrees>-8.08276218362152576446533203125</LongitudeDegrees>
            </Position>
            <AltitudeMeters>187</AltitudeMeters>
            <DistanceMeters>300413.6449957</DistanceMeters>
          </Trackpoint>
          <Trackpoint>
            <Time>2018-09-14T14:41:34.000Z</Time>
            <Position>
              <LatitudeDegrees>37.67667160369455814361572265625</LatitudeDegrees>
              <LongitudeDegrees>-8.082748018205165863037109375</LongitudeDegrees>
            </Position>
            <AltitudeMeters>187.1999969482421875</AltitudeMeters>
            <DistanceMeters>300420.11030497</DistanceMeters>
          </Trackpoint>
          <Trackpoint>
            <Time>2018-09-14T14:41:35.000Z</Time>
            <Position>
              <LatitudeDegrees>37.67661427147686481475830078125</LatitudeDegrees>
              <LongitudeDegrees>-8.08273636735975742340087890625</LongitudeDegrees>
            </Position>
            <AltitudeMeters>187.600006103515625</AltitudeMeters>
            <DistanceMeters>300426.57351884</DistanceMeters>
          </Trackpoint>
          <Trackpoint>
            <Time>2018-09-14T14:41:36.000Z</Time>
            <Position>
              <LatitudeDegrees>37.67655760981142520904541015625</LatitudeDegrees>
              <LongitudeDegrees>-8.08272379450500011444091796875</LongitudeDegrees>
            </Position>
            <AltitudeMeters>187.8000030517578125</AltitudeMeters>
            <DistanceMeters>300432.97707857</DistanceMeters>
          </Trackpoint>
          <Trackpoint>
            <Time>2018-09-14T14:41:37.000Z</Time>
            <Position>
              <LatitudeDegrees>37.67650119960308074951171875</LatitudeDegrees>
              <LongitudeDegrees>-8.0827102996408939361572265625</LongitudeDegrees>
            </Position>
            <AltitudeMeters>188</AltitudeMeters>
            <DistanceMeters>300439.3679342</DistanceMeters>
          </Trackpoint>
          <Trackpoint>
            <Time>2018-09-14T14:41:38.000Z</Time>
            <Position>
              <LatitudeDegrees>37.676445543766021728515625</LatitudeDegrees>
              <LongitudeDegrees>-8.08269764296710491180419921875</LongitudeDegrees>
            </Position>
            <AltitudeMeters>188</AltitudeMeters>
            <DistanceMeters>300445.66269198</DistanceMeters>
          </Trackpoint>
          <Trackpoint>
            <Time>2018-09-14T14:41:39.000Z</Time>
            <Position>
              <LatitudeDegrees>37.67638988792896270751953125</LatitudeDegrees>
              <LongitudeDegrees>-8.082685656845569610595703125</LongitudeDegrees>
            </Position>
            <AltitudeMeters>188.1999969482421875</AltitudeMeters>
            <DistanceMeters>300451.9466815</DistanceMeters>
          </Trackpoint>
          <Trackpoint>
            <Time>2018-09-14T14:41:40.000Z</Time>
            <Position>
              <LatitudeDegrees>37.67633515410125255584716796875</LatitudeDegrees>
              <LongitudeDegrees>-8.08267434127628803253173828125</LongitudeDegrees>
            </Position>
            <AltitudeMeters>188.1999969482421875</AltitudeMeters>
            <DistanceMeters>300458.11976198</DistanceMeters>
          </Trackpoint>
          <Trackpoint>
            <Time>2018-09-14T14:41:41.000Z</Time>
            <Position>
              <LatitudeDegrees>37.676279582083225250244140625</LatitudeDegrees>
              <LongitudeDegrees>-8.0826611816883087158203125</LongitudeDegrees>
            </Position>
            <AltitudeMeters>188.399993896484375</AltitudeMeters>
            <DistanceMeters>300464.41236757</DistanceMeters>
          </Trackpoint>
          <Trackpoint>
            <Time>2018-09-14T14:41:42.000Z</Time>
            <Position>
              <LatitudeDegrees>37.67622484825551509857177734375</LatitudeDegrees>
              <LongitudeDegrees>-8.08264844119548797607421875</LongitudeDegrees>
            </Position>
            <AltitudeMeters>188.399993896484375</AltitudeMeters>
            <DistanceMeters>300470.60662256</DistanceMeters>
          </Trackpoint>
          <Trackpoint>
            <Time>2018-09-14T14:41:43.000Z</Time>
            <Position>
              <LatitudeDegrees>37.67617003060877323150634765625</LatitudeDegrees>
              <LongitudeDegrees>-8.08263679035007953643798828125</LongitudeDegrees>
            </Position>
            <AltitudeMeters>188.600006103515625</AltitudeMeters>
            <DistanceMeters>300476.7943139</DistanceMeters>
          </Trackpoint>
          <Trackpoint>
            <Time>2018-09-14T14:41:44.000Z</Time>
            <Position>
              <LatitudeDegrees>37.6761147938668727874755859375</LatitudeDegrees>
              <LongitudeDegrees>-8.08262656442821025848388671875</LongitudeDegrees>
            </Position>
            <AltitudeMeters>188.600006103515625</AltitudeMeters>
            <DistanceMeters>300483.00821822</DistanceMeters>
          </Trackpoint>
          <Trackpoint>
            <Time>2018-09-14T14:41:45.000Z</Time>
            <Position>
              <LatitudeDegrees>37.67605972476303577423095703125</LatitudeDegrees>
              <LongitudeDegrees>-8.08261516503989696502685546875</LongitudeDegrees>
            </Position>
            <AltitudeMeters>188.8000030517578125</AltitudeMeters>
            <DistanceMeters>300489.21921544</DistanceMeters>
          </Trackpoint>
          <Trackpoint>
            <Time>2018-09-14T14:41:46.000Z</Time>
            <Position>
              <LatitudeDegrees>37.6760044880211353302001953125</LatitudeDegrees>
              <LongitudeDegrees>-8.08260309509932994842529296875</LongitudeDegrees>
            </Position>
            <AltitudeMeters>188.8000030517578125</AltitudeMeters>
            <DistanceMeters>300495.45777533</DistanceMeters>
          </Trackpoint>
          <Trackpoint>
            <Time>2018-09-14T14:41:47.000Z</Time>
            <Position>
              <LatitudeDegrees>37.67594841308891773223876953125</LatitudeDegrees>
              <LongitudeDegrees>-8.0825906060636043548583984375</LongitudeDegrees>
            </Position>
            <AltitudeMeters>189</AltitudeMeters>
            <DistanceMeters>300501.79542316</DistanceMeters>
          </Trackpoint>
          <Trackpoint>
            <Time>2018-09-14T14:41:48.000Z</Time>
            <Position>
              <LatitudeDegrees>37.67589242197573184967041015625</LatitudeDegrees>
              <LongitudeDegrees>-8.0825778655707836151123046875</LongitudeDegrees>
            </Position>
            <AltitudeMeters>189</AltitudeMeters>
            <DistanceMeters>300508.1273691</DistanceMeters>
          </Trackpoint>
          <Trackpoint>
            <Time>2018-09-14T14:41:49.000Z</Time>
            <Position>
              <LatitudeDegrees>37.675836347043514251708984375</LatitudeDegrees>
              <LongitudeDegrees>-8.08256621472537517547607421875</LongitudeDegrees>
            </Position>
            <AltitudeMeters>189</AltitudeMeters>
            <DistanceMeters>300514.45218046</DistanceMeters>
          </Trackpoint>
          <Trackpoint>
            <Time>2018-09-14T14:41:50.000Z</Time>
            <Position>
              <LatitudeDegrees>37.67578010447323322296142578125</LatitudeDegrees>
              <LongitudeDegrees>-8.08255364187061786651611328125</LongitudeDegrees>
            </Position>
            <AltitudeMeters>189</AltitudeMeters>
            <DistanceMeters>300520.8083241</DistanceMeters>
          </Trackpoint>
          <Trackpoint>
            <Time>2018-09-14T14:41:51.000Z</Time>
            <Position>
              <LatitudeDegrees>37.67572461627423763275146484375</LatitudeDegrees>
              <LongitudeDegrees>-8.08254073373973369598388671875</LongitudeDegrees>
            </Position>
            <AltitudeMeters>188.8000030517578125</AltitudeMeters>
            <DistanceMeters>300527.08728212</DistanceMeters>
          </Trackpoint>
          <Trackpoint>
            <Time>2018-09-14T14:41:52.000Z</Time>
            <Position>
              <LatitudeDegrees>37.67566963098943233489990234375</LatitudeDegrees>
              <LongitudeDegrees>-8.0825282447040081024169921875</LongitudeDegrees>
            </Position>
            <AltitudeMeters>188.8000030517578125</AltitudeMeters>
            <DistanceMeters>300533.30554452</DistanceMeters>
          </Trackpoint>
          <Trackpoint>
            <Time>2018-09-14T14:41:53.000Z</Time>
            <Position>
              <LatitudeDegrees>37.67561464570462703704833984375</LatitudeDegrees>
              <LongitudeDegrees>-8.08251592330634593963623046875</LongitudeDegrees>
            </Position>
            <AltitudeMeters>188.8000030517578125</AltitudeMeters>
            <DistanceMeters>300539.52090187</DistanceMeters>
          </Trackpoint>
          <Trackpoint>
            <Time>2018-09-14T14:41:54.000Z</Time>
            <Position>
              <LatitudeDegrees>37.67556049861013889312744140625</LatitudeDegrees>
              <LongitudeDegrees>-8.0825029313564300537109375</LongitudeDegrees>
            </Position>
            <AltitudeMeters>188.600006103515625</AltitudeMeters>
            <DistanceMeters>300545.65509526</DistanceMeters>
          </Trackpoint>
          <Trackpoint>
            <Time>2018-09-14T14:41:55.000Z</Time>
            <Position>
              <LatitudeDegrees>37.6755066029727458953857421875</LatitudeDegrees>
              <LongitudeDegrees>-8.0824895203113555908203125</LongitudeDegrees>
            </Position>
            <AltitudeMeters>188.600006103515625</AltitudeMeters>
            <DistanceMeters>300551.76938316</DistanceMeters>
          </Trackpoint>
          <Trackpoint>
            <Time>2018-09-14T14:41:56.000Z</Time>
            <Position>
              <LatitudeDegrees>37.6754522882401943206787109375</LatitudeDegrees>
              <LongitudeDegrees>-8.082478456199169158935546875</LongitudeDegrees>
            </Position>
            <AltitudeMeters>188.600006103515625</AltitudeMeters>
            <DistanceMeters>300557.89252593</DistanceMeters>
          </Trackpoint>
          <Trackpoint>
            <Time>2018-09-14T14:41:57.000Z</Time>
            <Position>
              <LatitudeDegrees>37.6753979735076427459716796875</LatitudeDegrees>
              <LongitudeDegrees>-8.08246831409633159637451171875</LongitudeDegrees>
            </Position>
            <AltitudeMeters>188.399993896484375</AltitudeMeters>
            <DistanceMeters>300564.00238158</DistanceMeters>
          </Trackpoint>
          <Trackpoint>
            <Time>2018-09-14T14:41:58.000Z</Time>
            <Position>
              <LatitudeDegrees>37.6753439940512180328369140625</LatitudeDegrees>
              <LongitudeDegrees>-8.08245590887963771820068359375</LongitudeDegrees>
            </Position>
            <AltitudeMeters>188.399993896484375</AltitudeMeters>
            <DistanceMeters>300570.1092806</DistanceMeters>
          </Trackpoint>
          <Trackpoint>
            <Time>2018-09-14T14:41:59.000Z</Time>
            <Position>
              <LatitudeDegrees>37.67528976313769817352294921875</LatitudeDegrees>
              <LongitudeDegrees>-8.0824440903961658477783203125</LongitudeDegrees>
            </Position>
            <AltitudeMeters>188.399993896484375</AltitudeMeters>
            <DistanceMeters>300576.23537215</DistanceMeters>
          </Trackpoint>
          <Trackpoint>
            <Time>2018-09-14T14:42:00.000Z</Time>
            <Position>
              <LatitudeDegrees>37.67523528076708316802978515625</LatitudeDegrees>
              <LongitudeDegrees>-8.0824336968362331390380859375</LongitudeDegrees>
            </Position>
            <AltitudeMeters>188.1999969482421875</AltitudeMeters>
            <DistanceMeters>300582.36809328</DistanceMeters>
          </Trackpoint>
          <Trackpoint>
            <Time>2018-09-14T14:42:01.000Z</Time>
            <Position>
              <LatitudeDegrees>37.6751808822154998779296875</LatitudeDegrees>
              <LongitudeDegrees>-8.0824233032763004302978515625</LongitudeDegrees>
            </Position>
            <AltitudeMeters>188.1999969482421875</AltitudeMeters>
            <DistanceMeters>300588.49123605</DistanceMeters>
          </Trackpoint>
          <Trackpoint>
            <Time>2018-09-14T14:42:02.000Z</Time>
            <Position>
              <LatitudeDegrees>37.67512631602585315704345703125</LatitudeDegrees>
              <LongitudeDegrees>-8.08241215534508228302001953125</LongitudeDegrees>
            </Position>
            <AltitudeMeters>188.600006103515625</AltitudeMeters>
            <DistanceMeters>300594.64306914</DistanceMeters>
          </Trackpoint>
          <Trackpoint>
            <Time>2018-09-14T14:42:03.000Z</Time>
            <Position>
              <LatitudeDegrees>37.6750717498362064361572265625</LatitudeDegrees>
              <LongitudeDegrees>-8.08240176178514957427978515625</LongitudeDegrees>
            </Position>
            <AltitudeMeters>188.8000030517578125</AltitudeMeters>
            <DistanceMeters>300600.78535368</DistanceMeters>
          </Trackpoint>
          <Trackpoint>
            <Time>2018-09-14T14:42:04.000Z</Time>
            <Position>
              <LatitudeDegrees>37.6750174351036548614501953125</LatitudeDegrees>
              <LongitudeDegrees>-8.08239053003489971160888671875</LongitudeDegrees>
            </Position>
            <AltitudeMeters>189</AltitudeMeters>
            <DistanceMeters>300606.91144523</DistanceMeters>
          </Trackpoint>
          <Trackpoint>
            <Time>2018-09-14T14:42:05.000Z</Time>
            <Position>
              <LatitudeDegrees>37.67496303655207157135009765625</LatitudeDegrees>
              <LongitudeDegrees>-8.08237980119884014129638671875</LongitudeDegrees>
            </Position>
            <AltitudeMeters>189.1999969482421875</AltitudeMeters>
            <DistanceMeters>300613.04048415</DistanceMeters>
          </Trackpoint>
          <Trackpoint>
            <Time>2018-09-14T14:42:06.000Z</Time>
            <Position>
              <LatitudeDegrees>37.6749081350862979888916015625</LatitudeDegrees>
              <LongitudeDegrees>-8.08236815035343170166015625</LongitudeDegrees>
            </Position>
            <AltitudeMeters>189.399993896484375</AltitudeMeters>
            <DistanceMeters>300619.23692547</DistanceMeters>
          </Trackpoint>
          <Trackpoint>
            <Time>2018-09-14T14:42:07.000Z</Time>
            <Position>
              <LatitudeDegrees>37.674853987991809844970703125</LatitudeDegrees>
              <LongitudeDegrees>-8.08235608041286468505859375</LongitudeDegrees>
            </Position>
            <AltitudeMeters>189.600006103515625</AltitudeMeters>
            <DistanceMeters>300625.35638026</DistanceMeters>
          </Trackpoint>
          <Trackpoint>
            <Time>2018-09-14T14:42:08.000Z</Time>
            <Position>
              <LatitudeDegrees>37.67479908652603626251220703125</LatitudeDegrees>
              <LongitudeDegrees>-8.0823445133864879608154296875</LongitudeDegrees>
            </Position>
            <AltitudeMeters>189.8000030517578125</AltitudeMeters>
            <DistanceMeters>300631.55136411</DistanceMeters>
          </Trackpoint>
          <Trackpoint>
            <Time>2018-09-14T14:42:09.000Z</Time>
            <Position>
              <LatitudeDegrees>37.6747435145080089569091796875</LatitudeDegrees>
              <LongitudeDegrees>-8.08233269490301609039306640625</LongitudeDegrees>
            </Position>
            <AltitudeMeters>190</AltitudeMeters>
            <DistanceMeters>300637.82312726</DistanceMeters>
          </Trackpoint>
          <Trackpoint>
            <Time>2018-09-14T14:42:10.000Z</Time>
            <Position>
              <LatitudeDegrees>37.67468802630901336669921875</LatitudeDegrees>
              <LongitudeDegrees>-8.082321546971797943115234375</LongitudeDegrees>
            </Position>
            <AltitudeMeters>190.1999969482421875</AltitudeMeters>
            <DistanceMeters>300644.07614501</DistanceMeters>
          </Trackpoint>
          <Trackpoint>
            <Time>2018-09-14T14:42:11.000Z</Time>
            <Position>
              <LatitudeDegrees>37.674632035195827484130859375</LatitudeDegrees>
              <LongitudeDegrees>-8.0823106504976749420166015625</LongitudeDegrees>
            </Position>
            <AltitudeMeters>190.399993896484375</AltitudeMeters>
            <DistanceMeters>300650.38165265</DistanceMeters>
          </Trackpoint>
          <Trackpoint>
            <Time>2018-09-14T14:42:12.000Z</Time>
            <Position>
              <LatitudeDegrees>37.6745765469968318939208984375</LatitudeDegrees>
              <LongitudeDegrees>-8.08229983784258365631103515625</LongitudeDegrees>
            </Position>
            <AltitudeMeters>190.600006103515625</AltitudeMeters>
            <DistanceMeters>300656.63033656</DistanceMeters>
          </Trackpoint>
          <Trackpoint>
            <Time>2018-09-14T14:42:13.000Z</Time>
            <Position>
              <LatitudeDegrees>37.6745222322642803192138671875</LatitudeDegrees>
              <LongitudeDegrees>-8.08228969573974609375</LongitudeDegrees>
            </Position>
            <AltitudeMeters>190.600006103515625</AltitudeMeters>
            <DistanceMeters>300662.74093113</DistanceMeters>
          </Trackpoint>
          <Trackpoint>
            <Time>2018-09-14T14:42:14.000Z</Time>
            <Position>
              <LatitudeDegrees>37.67446984536945819854736328125</LatitudeDegrees>
              <LongitudeDegrees>-8.08227829635143280029296875</LongitudeDegrees>
            </Position>
            <AltitudeMeters>191</AltitudeMeters>
            <DistanceMeters>300668.65705962</DistanceMeters>
          </Trackpoint>
          <Trackpoint>
            <Time>2018-09-14T14:42:15.000Z</Time>
            <Position>
              <LatitudeDegrees>37.67441980540752410888671875</LatitudeDegrees>
              <LongitudeDegrees>-8.0822663940489292144775390625</LongitudeDegrees>
            </Position>
            <AltitudeMeters>191.399993896484375</AltitudeMeters>
            <DistanceMeters>300674.32530556</DistanceMeters>
          </Trackpoint>
          <Trackpoint>
            <Time>2018-09-14T14:42:16.000Z</Time>
            <Position>
              <LatitudeDegrees>37.6743708550930023193359375</LatitudeDegrees>
              <LongitudeDegrees>-8.082255832850933074951171875</LongitudeDegrees>
            </Position>
            <AltitudeMeters>191.600006103515625</AltitudeMeters>
            <DistanceMeters>300679.85321463</DistanceMeters>
          </Trackpoint>
          <Trackpoint>
            <Time>2018-09-14T14:42:17.000Z</Time>
            <Position>
              <LatitudeDegrees>37.6743237487971782684326171875</LatitudeDegrees>
              <LongitudeDegrees>-8.082247786223888397216796875</LongitudeDegrees>
            </Position>
            <AltitudeMeters>191.8000030517578125</AltitudeMeters>
            <DistanceMeters>300685.14407817</DistanceMeters>
          </Trackpoint>
          <Trackpoint>
            <Time>2018-09-14T14:42:18.000Z</Time>
            <Position>
              <LatitudeDegrees>37.6742774806916713714599609375</LatitudeDegrees>
              <LongitudeDegrees>-8.08223797939717769622802734375</LongitudeDegrees>
            </Position>
            <AltitudeMeters>192.1999969482421875</AltitudeMeters>
            <DistanceMeters>300690.36622628</DistanceMeters>
          </Trackpoint>
          <Trackpoint>
            <Time>2018-09-14T14:42:19.000Z</Time>
            <Position>
              <LatitudeDegrees>37.67423029057681560516357421875</LatitudeDegrees>
              <LongitudeDegrees>-8.0822301842272281646728515625</LongitudeDegrees>
            </Position>
            <AltitudeMeters>192.399993896484375</AltitudeMeters>
            <DistanceMeters>300695.66220753</DistanceMeters>
          </Trackpoint>
          <Trackpoint>
            <Time>2018-09-14T14:42:20.000Z</Time>
            <Position>
              <LatitudeDegrees>37.6741812564432621002197265625</LatitudeDegrees>
              <LongitudeDegrees>-8.08222222141921520233154296875</LongitudeDegrees>
            </Position>
            <AltitudeMeters>192.600006103515625</AltitudeMeters>
            <DistanceMeters>300701.16555891</DistanceMeters>
          </Trackpoint>
          <Trackpoint>
            <Time>2018-09-14T14:42:21.000Z</Time>
            <Position>
              <LatitudeDegrees>37.67413104884326457977294921875</LatitudeDegrees>
              <LongitudeDegrees>-8.082214929163455963134765625</LongitudeDegrees>
            </Position>
            <AltitudeMeters>192.8000030517578125</AltitudeMeters>
            <DistanceMeters>300706.79062672</DistanceMeters>
          </Trackpoint>
          <Trackpoint>
            <Time>2018-09-14T14:42:22.000Z</Time>
            <Position>
              <LatitudeDegrees>37.674080841243267059326171875</LatitudeDegrees>
              <LongitudeDegrees>-8.0822050385177135467529296875</LongitudeDegrees>
            </Position>
            <AltitudeMeters>192.8000030517578125</AltitudeMeters>
            <DistanceMeters>300712.4453151</DistanceMeters>
          </Trackpoint>
          <Trackpoint>
            <Time>2018-09-14T14:42:23.000Z</Time>
            <Position>
              <LatitudeDegrees>37.67403029836714267730712890625</LatitudeDegrees>
              <LongitudeDegrees>-8.0821931362152099609375</LongitudeDegrees>
            </Position>
            <AltitudeMeters>193</AltitudeMeters>
            <DistanceMeters>300718.16747004</DistanceMeters>
          </Trackpoint>
          <Trackpoint>
            <Time>2018-09-14T14:42:24.000Z</Time>
            <Position>
              <LatitudeDegrees>37.673979587852954864501953125</LatitudeDegrees>
              <LongitudeDegrees>-8.08218383230268955230712890625</LongitudeDegrees>
            </Position>
            <AltitudeMeters>193</AltitudeMeters>
            <DistanceMeters>300723.87144808</DistanceMeters>
          </Trackpoint>
          <Trackpoint>
            <Time>2018-09-14T14:42:25.000Z</Time>
            <Position>
              <LatitudeDegrees>37.6739291287958621978759765625</LatitudeDegrees>
              <LongitudeDegrees>-8.0821725167334079742431640625</LongitudeDegrees>
            </Position>
            <AltitudeMeters>193</AltitudeMeters>
            <DistanceMeters>300729.5746345</DistanceMeters>
          </Trackpoint>
          <Trackpoint>
            <Time>2018-09-14T14:42:26.000Z</Time>
            <Position>
              <LatitudeDegrees>37.67387908883392810821533203125</LatitudeDegrees>
              <LongitudeDegrees>-8.08216094970703125</LongitudeDegrees>
            </Position>
            <AltitudeMeters>193.1999969482421875</AltitudeMeters>
            <DistanceMeters>300735.23650445</DistanceMeters>
          </Trackpoint>
          <Trackpoint>
            <Time>2018-09-14T14:42:27.000Z</Time>
            <Position>
              <LatitudeDegrees>37.6738288812339305877685546875</LatitudeDegrees>
              <LongitudeDegrees>-8.08214913122355937957763671875</LongitudeDegrees>
            </Position>
            <AltitudeMeters>193.1999969482421875</AltitudeMeters>
            <DistanceMeters>300740.92065905</DistanceMeters>
          </Trackpoint>
          <Trackpoint>
            <Time>2018-09-14T14:42:28.000Z</Time>
            <Position>
              <LatitudeDegrees>37.6737785898149013519287109375</LatitudeDegrees>
              <LongitudeDegrees>-8.08213773183524608612060546875</LongitudeDegrees>
            </Position>
            <AltitudeMeters>193.399993896484375</AltitudeMeters>
            <DistanceMeters>300746.60799004</DistanceMeters>
          </Trackpoint>
          <Trackpoint>
            <Time>2018-09-14T14:42:29.000Z</Time>
            <Position>
              <LatitudeDegrees>37.67372871749103069305419921875</LatitudeDegrees>
              <LongitudeDegrees>-8.08212515898048877716064453125</LongitudeDegrees>
            </Position>
            <AltitudeMeters>193.600006103515625</AltitudeMeters>
            <DistanceMeters>300752.26826488</DistanceMeters>
          </Trackpoint>
          <Trackpoint>
            <Time>2018-09-14T14:42:30.000Z</Time>
            <Position>
              <LatitudeDegrees>37.67367926426231861114501953125</LatitudeDegrees>
              <LongitudeDegrees>-8.0821131728589534759521484375</LongitudeDegrees>
            </Position>
            <AltitudeMeters>193.600006103515625</AltitudeMeters>
            <DistanceMeters>300757.87323017</DistanceMeters>
          </Trackpoint>
          <Trackpoint>
            <Time>2018-09-14T14:42:31.000Z</Time>
            <Position>
              <LatitudeDegrees>37.67362964339554309844970703125</LatitudeDegrees>
              <LongitudeDegrees>-8.08210319839417934417724609375</LongitudeDegrees>
            </Position>
            <AltitudeMeters>193.8000030517578125</AltitudeMeters>
            <DistanceMeters>300763.46609928</DistanceMeters>
          </Trackpoint>
          <Trackpoint>
            <Time>2018-09-14T14:42:32.000Z</Time>
            <Position>
              <LatitudeDegrees>37.6735804416239261627197265625</LatitudeDegrees>
              <LongitudeDegrees>-8.082093559205532073974609375</LongitudeDegrees>
            </Position>
            <AltitudeMeters>194</AltitudeMeters>
            <DistanceMeters>300769.00787607</DistanceMeters>
          </Trackpoint>
          <Trackpoint>
            <Time>2018-09-14T14:42:33.000Z</Time>
            <Position>
              <LatitudeDegrees>37.673531658947467803955078125</LatitudeDegrees>
              <LongitudeDegrees>-8.08208308182656764984130859375</LongitudeDegrees>
            </Position>
            <AltitudeMeters>194.1999969482421875</AltitudeMeters>
            <DistanceMeters>300774.51614774</DistanceMeters>
          </Trackpoint>
          <Trackpoint>
            <Time>2018-09-14T14:42:34.000Z</Time>
            <Position>
              <LatitudeDegrees>37.67348346300423145294189453125</LatitudeDegrees>
              <LongitudeDegrees>-8.08207235299050807952880859375</LongitudeDegrees>
            </Position>
            <AltitudeMeters>194.1999969482421875</AltitudeMeters>
            <DistanceMeters>300779.96342515</DistanceMeters>
          </Trackpoint>
          <Trackpoint>
            <Time>2018-09-14T14:42:35.000Z</Time>
            <Position>
              <LatitudeDegrees>37.6734356023371219635009765625</LatitudeDegrees>
              <LongitudeDegrees>-8.08206237852573394775390625</LongitudeDegrees>
            </Position>
            <AltitudeMeters>194.399993896484375</AltitudeMeters>
            <DistanceMeters>300785.36241457</DistanceMeters>
          </Trackpoint>
          <Trackpoint>
            <Time>2018-09-14T14:42:36.000Z</Time>
            <Position>
              <LatitudeDegrees>37.673387825489044189453125</LatitudeDegrees>
              <LongitudeDegrees>-8.082051984965801239013671875</LongitudeDegrees>
            </Position>
            <AltitudeMeters>194.600006103515625</AltitudeMeters>
            <DistanceMeters>300790.75805786</DistanceMeters>
          </Trackpoint>
          <Trackpoint>
            <Time>2018-09-14T14:42:37.000Z</Time>
            <Position>
              <LatitudeDegrees>37.67334080301225185394287109375</LatitudeDegrees>
              <LongitudeDegrees>-8.08204226195812225341796875</LongitudeDegrees>
            </Position>
            <AltitudeMeters>194.8000030517578125</AltitudeMeters>
            <DistanceMeters>300796.06085505</DistanceMeters>
          </Trackpoint>
          <Trackpoint>
            <Time>2018-09-14T14:42:38.000Z</Time>
            <Position>
              <LatitudeDegrees>37.673294283449649810791015625</LatitudeDegrees>
              <LongitudeDegrees>-8.08203094638884067535400390625</LongitudeDegrees>
            </Position>
            <AltitudeMeters>195</AltitudeMeters>
            <DistanceMeters>300801.33462367</DistanceMeters>
          </Trackpoint>
          <Trackpoint>
            <Time>2018-09-14T14:42:39.000Z</Time>
            <Position>
              <LatitudeDegrees>37.67324759624898433685302734375</LatitudeDegrees>
              <LongitudeDegrees>-8.08202072046697139739990234375</LongitudeDegrees>
            </Position>
            <AltitudeMeters>195.399993896484375</AltitudeMeters>
            <DistanceMeters>300806.60924835</DistanceMeters>
          </Trackpoint>
          <Trackpoint>
            <Time>2018-09-14T14:42:40.000Z</Time>
            <Position>
              <LatitudeDegrees>37.67320082522928714752197265625</LatitudeDegrees>
              <LongitudeDegrees>-8.0820099078118801116943359375</LongitudeDegrees>
            </Position>
            <AltitudeMeters>195.8000030517578125</AltitudeMeters>
            <DistanceMeters>300811.90096518</DistanceMeters>
          </Trackpoint>
          <Trackpoint>
            <Time>2018-09-14T14:42:41.000Z</Time>
            <Position>
              <LatitudeDegrees>37.67315447330474853515625</LatitudeDegrees>
              <LongitudeDegrees>-8.08200068771839141845703125</LongitudeDegrees>
            </Position>
            <AltitudeMeters>196</AltitudeMeters>
            <DistanceMeters>300817.12311329</DistanceMeters>
          </Trackpoint>
          <Trackpoint>
            <Time>2018-09-14T14:42:42.000Z</Time>
            <Position>
              <LatitudeDegrees>37.67310828901827335357666015625</LatitudeDegrees>
              <LongitudeDegrees>-8.08198995888233184814453125</LongitudeDegrees>
            </Position>
            <AltitudeMeters>196.1999969482421875</AltitudeMeters>
            <DistanceMeters>300822.34871863</DistanceMeters>
          </Trackpoint>
          <Trackpoint>
            <Time>2018-09-14T14:42:43.000Z</Time>
            <Position>
              <LatitudeDegrees>37.67306185327470302581787109375</LatitudeDegrees>
              <LongitudeDegrees>-8.08197830803692340850830078125</LongitudeDegrees>
            </Position>
            <AltitudeMeters>196.1999969482421875</AltitudeMeters>
            <DistanceMeters>300827.61820485</DistanceMeters>
          </Trackpoint>
          <Trackpoint>
            <Time>2018-09-14T14:42:44.000Z</Time>
            <Position>
              <LatitudeDegrees>37.67301566898822784423828125</LatitudeDegrees>
              <LongitudeDegrees>-8.08196741156280040740966796875</LongitudeDegrees>
            </Position>
            <AltitudeMeters>196</AltitudeMeters>
            <DistanceMeters>300832.84726514</DistanceMeters>
          </Trackpoint>
          <Trackpoint>
            <Time>2018-09-14T14:42:45.000Z</Time>
            <Position>
              <LatitudeDegrees>37.672969400882720947265625</LatitudeDegrees>
              <LongitudeDegrees>-8.08195701800286769866943359375</LongitudeDegrees>
            </Position>
            <AltitudeMeters>196</AltitudeMeters>
            <DistanceMeters>300838.07805204</DistanceMeters>
          </Trackpoint>
          <Trackpoint>
            <Time>2018-09-14T14:42:46.000Z</Time>
            <Position>
              <LatitudeDegrees>37.6729238033294677734375</LatitudeDegrees>
              <LongitudeDegrees>-8.0819458700716495513916015625</LongitudeDegrees>
            </Position>
            <AltitudeMeters>196</AltitudeMeters>
            <DistanceMeters>300843.24806426</DistanceMeters>
          </Trackpoint>
          <Trackpoint>
            <Time>2018-09-14T14:42:47.000Z</Time>
            <Position>
              <LatitudeDegrees>37.672877870500087738037109375</LatitudeDegrees>
              <LongitudeDegrees>-8.081934638321399688720703125</LongitudeDegrees>
            </Position>
            <AltitudeMeters>196</AltitudeMeters>
            <DistanceMeters>300848.45549352</DistanceMeters>
          </Trackpoint>
          <Trackpoint>
            <Time>2018-09-14T14:42:48.000Z</Time>
            <Position>
              <LatitudeDegrees>37.6728317700326442718505859375</LatitudeDegrees>
              <LongitudeDegrees>-8.0819237418472766876220703125</LongitudeDegrees>
            </Position>
            <AltitudeMeters>196</AltitudeMeters>
            <DistanceMeters>300853.67677696</DistanceMeters>
          </Trackpoint>
          <Trackpoint>
            <Time>2018-09-14T14:42:49.000Z</Time>
            <Position>
              <LatitudeDegrees>37.67278508283197879791259765625</LatitudeDegrees>
              <LongitudeDegrees>-8.0819110013544559478759765625</LongitudeDegrees>
            </Position>
            <AltitudeMeters>196</AltitudeMeters>
            <DistanceMeters>300858.99402901</DistanceMeters>
          </Trackpoint>
          <Trackpoint>
            <Time>2018-09-14T14:42:50.000Z</Time>
            <Position>
              <LatitudeDegrees>37.67273831181228160858154296875</LatitudeDegrees>
              <LongitudeDegrees>-8.08189809322357177734375</LongitudeDegrees>
            </Position>
            <AltitudeMeters>196</AltitudeMeters>
            <DistanceMeters>300864.32230832</DistanceMeters>
          </Trackpoint>
          <Trackpoint>
            <Time>2018-09-14T14:42:51.000Z</Time>
            <Position>
              <LatitudeDegrees>37.672691456973552703857421875</LatitudeDegrees>
              <LongitudeDegrees>-8.0818868614733219146728515625</LongitudeDegrees>
            </Position>
            <AltitudeMeters>195.8000030517578125</AltitudeMeters>
            <DistanceMeters>300869.63021172</DistanceMeters>
          </Trackpoint>
          <Trackpoint>
            <Time>2018-09-14T14:42:52.000Z</Time>
            <Position>
              <LatitudeDegrees>37.6726443506777286529541015625</LatitudeDegrees>
              <LongitudeDegrees>-8.08187521062791347503662109375</LongitudeDegrees>
            </Position>
            <AltitudeMeters>195.8000030517578125</AltitudeMeters>
            <DistanceMeters>300874.97287693</DistanceMeters>
          </Trackpoint>
          <Trackpoint>
            <Time>2018-09-14T14:42:53.000Z</Time>
            <Position>
              <LatitudeDegrees>37.672596909105777740478515625</LatitudeDegrees>
              <LongitudeDegrees>-8.08186448179185390472412109375</LongitudeDegrees>
            </Position>
            <AltitudeMeters>195.8000030517578125</AltitudeMeters>
            <DistanceMeters>300880.33662782</DistanceMeters>
          </Trackpoint>
          <Trackpoint>
            <Time>2018-09-14T14:42:54.000Z</Time>
            <Position>
              <LatitudeDegrees>37.6725487969815731048583984375</LatitudeDegrees>
              <LongitudeDegrees>-8.08185274712741374969482421875</LongitudeDegrees>
            </Position>
            <AltitudeMeters>195.8000030517578125</AltitudeMeters>
            <DistanceMeters>300885.79053209</DistanceMeters>
          </Trackpoint>
          <Trackpoint>
            <Time>2018-09-14T14:42:55.000Z</Time>
            <Position>
              <LatitudeDegrees>37.6725005172193050384521484375</LatitudeDegrees>
              <LongitudeDegrees>-8.08184168301522731781005859375</LongitudeDegrees>
            </Position>
            <AltitudeMeters>195.8000030517578125</AltitudeMeters>
            <DistanceMeters>300891.25105518</DistanceMeters>
          </Trackpoint>
          <Trackpoint>
            <Time>2018-09-14T14:42:56.000Z</Time>
            <Position>
              <LatitudeDegrees>37.67245198599994182586669921875</LatitudeDegrees>
              <LongitudeDegrees>-8.08183162473142147064208984375</LongitudeDegrees>
            </Position>
            <AltitudeMeters>195.8000030517578125</AltitudeMeters>
            <DistanceMeters>300896.7247919</DistanceMeters>
          </Trackpoint>
          <Trackpoint>
            <Time>2018-09-14T14:42:57.000Z</Time>
            <Position>
              <LatitudeDegrees>37.67240345478057861328125</LatitudeDegrees>
              <LongitudeDegrees>-8.08182123117148876190185546875</LongitudeDegrees>
            </Position>
            <AltitudeMeters>195.8000030517578125</AltitudeMeters>
            <DistanceMeters>300902.20347551</DistanceMeters>
          </Trackpoint>
          <Trackpoint>
            <Time>2018-09-14T14:42:58.000Z</Time>
            <Position>
              <LatitudeDegrees>37.67235475592315196990966796875</LatitudeDegrees>
              <LongitudeDegrees>-8.08181050233542919158935546875</LongitudeDegrees>
            </Position>
            <AltitudeMeters>196</AltitudeMeters>
            <DistanceMeters>300907.70518581</DistanceMeters>
          </Trackpoint>
          <Trackpoint>
            <Time>2018-09-14T14:42:59.000Z</Time>
            <Position>
              <LatitudeDegrees>37.67230597324669361114501953125</LatitudeDegrees>
              <LongitudeDegrees>-8.081798851490020751953125</LongitudeDegrees>
            </Position>
            <AltitudeMeters>196</AltitudeMeters>
            <DistanceMeters>300913.23146109</DistanceMeters>
          </Trackpoint>
          <Trackpoint>
            <Time>2018-09-14T14:43:00.000Z</Time>
            <Position>
              <LatitudeDegrees>37.6722571067512035369873046875</LatitudeDegrees>
              <LongitudeDegrees>-8.08178669773042201995849609375</LongitudeDegrees>
            </Position>
            <AltitudeMeters>196.1999969482421875</AltitudeMeters>
            <DistanceMeters>300918.7748671</DistanceMeters>
          </Trackpoint>
          <Trackpoint>
            <Time>2018-09-14T14:43:01.000Z</Time>
            <Position>
              <LatitudeDegrees>37.67220807261765003204345703125</LatitudeDegrees>
              <LongitudeDegrees>-8.08177479542791843414306640625</LongitudeDegrees>
            </Position>
            <AltitudeMeters>196.399993896484375</AltitudeMeters>
            <DistanceMeters>300924.33210215</DistanceMeters>
          </Trackpoint>
          <Trackpoint>
            <Time>2018-09-14T14:43:02.000Z</Time>
            <Position>
              <LatitudeDegrees>37.672159038484096527099609375</LatitudeDegrees>
              <LongitudeDegrees>-8.08176423422992229461669921875</LongitudeDegrees>
            </Position>
            <AltitudeMeters>196.399993896484375</AltitudeMeters>
            <DistanceMeters>300929.86817291</DistanceMeters>
          </Trackpoint>
          <Trackpoint>
            <Time>2018-09-14T14:43:03.000Z</Time>
            <Position>
              <LatitudeDegrees>37.67210950143635272979736328125</LatitudeDegrees>
              <LongitudeDegrees>-8.08175317011773586273193359375</LongitudeDegrees>
            </Position>
            <AltitudeMeters>196.600006103515625</AltitudeMeters>
            <DistanceMeters>300935.46588363</DistanceMeters>
          </Trackpoint>
          <Trackpoint>
            <Time>2018-09-14T14:43:04.000Z</Time>
            <Position>
              <LatitudeDegrees>37.67205971293151378631591796875</LatitudeDegrees>
              <LongitudeDegrees>-8.0817413516342639923095703125</LongitudeDegrees>
            </Position>
            <AltitudeMeters>196.8000030517578125</AltitudeMeters>
            <DistanceMeters>300941.10458021</DistanceMeters>
          </Trackpoint>
          <Trackpoint>
            <Time>2018-09-14T14:43:05.000Z</Time>
            <Position>
              <LatitudeDegrees>37.6720096729695796966552734375</LatitudeDegrees>
              <LongitudeDegrees>-8.081730790436267852783203125</LongitudeDegrees>
            </Position>
            <AltitudeMeters>196.8000030517578125</AltitudeMeters>
            <DistanceMeters>300946.75207789</DistanceMeters>
          </Trackpoint>
          <Trackpoint>
            <Time>2018-09-14T14:43:06.000Z</Time>
            <Position>
              <LatitudeDegrees>37.6719597168266773223876953125</LatitudeDegrees>
              <LongitudeDegrees>-8.08172182179987430572509765625</LongitudeDegrees>
            </Position>
            <AltitudeMeters>197</AltitudeMeters>
            <DistanceMeters>300952.36750547</DistanceMeters>
          </Trackpoint>
          <Trackpoint>
            <Time>2018-09-14T14:43:07.000Z</Time>
            <Position>
              <LatitudeDegrees>37.67191001214087009429931640625</LatitudeDegrees>
              <LongitudeDegrees>-8.0817125178873538970947265625</LongitudeDegrees>
            </Position>
            <AltitudeMeters>197.1999969482421875</AltitudeMeters>
            <DistanceMeters>300957.95956723</DistanceMeters>
          </Trackpoint>
          <Trackpoint>
            <Time>2018-09-14T14:43:08.000Z</Time>
            <Position>
              <LatitudeDegrees>37.6718608103692531585693359375</LatitudeDegrees>
              <LongitudeDegrees>-8.081702291965484619140625</LongitudeDegrees>
            </Position>
            <AltitudeMeters>197.1999969482421875</AltitudeMeters>
            <DistanceMeters>300963.50867172</DistanceMeters>
          </Trackpoint>
          <Trackpoint>
            <Time>2018-09-14T14:43:09.000Z</Time>
            <Position>
              <LatitudeDegrees>37.67181177623569965362548828125</LatitudeDegrees>
              <LongitudeDegrees>-8.0816920660436153411865234375</LongitudeDegrees>
            </Position>
            <AltitudeMeters>197.399993896484375</AltitudeMeters>
            <DistanceMeters>300969.03984691</DistanceMeters>
          </Trackpoint>
          <Trackpoint>
            <Time>2018-09-14T14:43:10.000Z</Time>
            <Position>
              <LatitudeDegrees>37.6717625744640827178955078125</LatitudeDegrees>
              <LongitudeDegrees>-8.08168108575046062469482421875</LongitudeDegrees>
            </Position>
            <AltitudeMeters>197.600006103515625</AltitudeMeters>
            <DistanceMeters>300974.60033086</DistanceMeters>
          </Trackpoint>
          <Trackpoint>
            <Time>2018-09-14T14:43:11.000Z</Time>
            <Position>
              <LatitudeDegrees>37.671713791787624359130859375</LatitudeDegrees>
              <LongitudeDegrees>-8.0816699378192424774169921875</LongitudeDegrees>
            </Position>
            <AltitudeMeters>197.8000030517578125</AltitudeMeters>
            <DistanceMeters>300980.11842997</DistanceMeters>
          </Trackpoint>
          <Trackpoint>
            <Time>2018-09-14T14:43:12.000Z</Time>
            <Position>
              <LatitudeDegrees>37.67166509293019771575927734375</LatitudeDegrees>
              <LongitudeDegrees>-8.08165878988802433013916015625</LongitudeDegrees>
            </Position>
            <AltitudeMeters>198</AltitudeMeters>
            <DistanceMeters>300985.62752127</DistanceMeters>
          </Trackpoint>
          <Trackpoint>
            <Time>2018-09-14T14:43:13.000Z</Time>
            <Position>
              <LatitudeDegrees>37.6716170646250247955322265625</LatitudeDegrees>
              <LongitudeDegrees>-8.08164604939520359039306640625</LongitudeDegrees>
            </Position>
            <AltitudeMeters>198.399993896484375</AltitudeMeters>
            <DistanceMeters>300991.08969781</DistanceMeters>
          </Trackpoint>
          <Trackpoint>
            <Time>2018-09-14T14:43:14.000Z</Time>
            <Position>
              <LatitudeDegrees>37.67156870104372501373291015625</LatitudeDegrees>
              <LongitudeDegrees>-8.0816330574452877044677734375</LongitudeDegrees>
            </Position>
            <AltitudeMeters>198.8000030517578125</AltitudeMeters>
            <DistanceMeters>300996.59304919</DistanceMeters>
          </Trackpoint>
          <Trackpoint>
            <Time>2018-09-14T14:43:15.000Z</Time>
            <Position>
              <LatitudeDegrees>37.67151941545307636260986328125</LatitudeDegrees>
              <LongitudeDegrees>-8.08162375353276729583740234375</LongitudeDegrees>
            </Position>
            <AltitudeMeters>199</AltitudeMeters>
            <DistanceMeters>301002.13971219</DistanceMeters>
          </Trackpoint>
          <Trackpoint>
            <Time>2018-09-14T14:43:16.000Z</Time>
            <Position>
              <LatitudeDegrees>37.6714698784053325653076171875</LatitudeDegrees>
              <LongitudeDegrees>-8.08161553926765918731689453125</LongitudeDegrees>
            </Position>
            <AltitudeMeters>199.399993896484375</AltitudeMeters>
            <DistanceMeters>301007.70019614</DistanceMeters>
          </Trackpoint>
          <Trackpoint>
            <Time>2018-09-14T14:43:17.000Z</Time>
            <Position>
              <LatitudeDegrees>37.67142067663371562957763671875</LatitudeDegrees>
              <LongitudeDegrees>-8.081605397164821624755859375</LongitudeDegrees>
            </Position>
            <AltitudeMeters>199.600006103515625</AltitudeMeters>
            <DistanceMeters>301013.24848692</DistanceMeters>
          </Trackpoint>
          <Trackpoint>
            <Time>2018-09-14T14:43:18.000Z</Time>
            <Position>
              <LatitudeDegrees>37.6713721454143524169921875</LatitudeDegrees>
              <LongitudeDegrees>-8.08159424923360347747802734375</LongitudeDegrees>
            </Position>
            <AltitudeMeters>200</AltitudeMeters>
            <DistanceMeters>301018.73869595</DistanceMeters>
          </Trackpoint>
          <Trackpoint>
            <Time>2018-09-14T14:43:19.000Z</Time>
            <Position>
              <LatitudeDegrees>37.6713238656520843505859375</LatitudeDegrees>
              <LongitudeDegrees>-8.081584610044956207275390625</LongitudeDegrees>
            </Position>
            <AltitudeMeters>200.1999969482421875</AltitudeMeters>
            <DistanceMeters>301024.17933843</DistanceMeters>
          </Trackpoint>
          <Trackpoint>
            <Time>2018-09-14T14:43:20.000Z</Time>
            <Position>
              <LatitudeDegrees>37.67127617262303829193115234375</LatitudeDegrees>
              <LongitudeDegrees>-8.08157547377049922943115234375</LongitudeDegrees>
            </Position>
            <AltitudeMeters>200.600006103515625</AltitudeMeters>
            <DistanceMeters>301029.54813755</DistanceMeters>
          </Trackpoint>
          <Trackpoint>
            <Time>2018-09-14T14:43:21.000Z</Time>
            <Position>
              <LatitudeDegrees>37.67122889868915081024169921875</LatitudeDegrees>
              <LongitudeDegrees>-8.08156491257250308990478515625</LongitudeDegrees>
            </Position>
            <AltitudeMeters>201</AltitudeMeters>
            <DistanceMeters>301034.89164779</DistanceMeters>
          </Trackpoint>
          <Trackpoint>
            <Time>2018-09-14T14:43:22.000Z</Time>
            <Position>
              <LatitudeDegrees>37.671182043850421905517578125</LatitudeDegrees>
              <LongitudeDegrees>-8.08155451901257038116455078125</LongitudeDegrees>
            </Position>
            <AltitudeMeters>201.1999969482421875</AltitudeMeters>
            <DistanceMeters>301040.18592369</DistanceMeters>
          </Trackpoint>
          <Trackpoint>
            <Time>2018-09-14T14:43:23.000Z</Time>
            <Position>
              <LatitudeDegrees>37.67113585956394672393798828125</LatitudeDegrees>
              <LongitudeDegrees>-8.0815455503761768341064453125</LongitudeDegrees>
            </Position>
            <AltitudeMeters>201.600006103515625</AltitudeMeters>
            <DistanceMeters>301045.38641203</DistanceMeters>
          </Trackpoint>
          <Trackpoint>
            <Time>2018-09-14T14:43:24.000Z</Time>
            <Position>
              <LatitudeDegrees>37.67108975909650325775146484375</LatitudeDegrees>
              <LongitudeDegrees>-8.081536330282688140869140625</LongitudeDegrees>
            </Position>
            <AltitudeMeters>201.8000030517578125</AltitudeMeters>
            <DistanceMeters>301050.58081944</DistanceMeters>
          </Trackpoint>
          <Trackpoint>
            <Time>2018-09-14T14:43:25.000Z</Time>
            <Position>
              <LatitudeDegrees>37.6710444130003452301025390625</LatitudeDegrees>
              <LongitudeDegrees>-8.08152484707534313201904296875</LongitudeDegrees>
            </Position>
            <AltitudeMeters>201.8000030517578125</AltitudeMeters>
            <DistanceMeters>301055.72807544</DistanceMeters>
          </Trackpoint>
          <Trackpoint>
            <Time>2018-09-14T14:43:26.000Z</Time>
            <Position>
              <LatitudeDegrees>37.6709998212754726409912109375</LatitudeDegrees>
              <LongitudeDegrees>-8.0815113522112369537353515625</LongitudeDegrees>
            </Position>
            <AltitudeMeters>201.8000030517578125</AltitudeMeters>
            <DistanceMeters>301060.83216895</DistanceMeters>
          </Trackpoint>
          <Trackpoint>
            <Time>2018-09-14T14:43:27.000Z</Time>
            <Position>
              <LatitudeDegrees>37.67095430754125118255615234375</LatitudeDegrees>
              <LongitudeDegrees>-8.0814997851848602294921875</LongitudeDegrees>
            </Position>
            <AltitudeMeters>201.8000030517578125</AltitudeMeters>
            <DistanceMeters>301065.99868673</DistanceMeters>
          </Trackpoint>
          <Trackpoint>
            <Time>2018-09-14T14:43:28.000Z</Time>
            <Position>
              <LatitudeDegrees>37.67090803943574428558349609375</LatitudeDegrees>
              <LongitudeDegrees>-8.08149098418653011322021484375</LongitudeDegrees>
            </Position>
            <AltitudeMeters>201.8000030517578125</AltitudeMeters>
            <DistanceMeters>301071.20524888</DistanceMeters>
          </Trackpoint>
          <Trackpoint>
            <Time>2018-09-14T14:43:29.000Z</Time>
            <Position>
              <LatitudeDegrees>37.6708623580634593963623046875</LatitudeDegrees>
              <LongitudeDegrees>-8.0814825184643268585205078125</LongitudeDegrees>
            </Position>
            <AltitudeMeters>201.600006103515625</AltitudeMeters>
            <DistanceMeters>301076.34372565</DistanceMeters>
          </Trackpoint>
          <Trackpoint>
            <Time>2018-09-14T14:43:30.000Z</Time>
            <Position>
              <LatitudeDegrees>37.6708167605102062225341796875</LatitudeDegrees>
              <LongitudeDegrees>-8.08147321455180644989013671875</LongitudeDegrees>
            </Position>
            <AltitudeMeters>201.8000030517578125</AltitudeMeters>
            <DistanceMeters>301081.48483777</DistanceMeters>
          </Trackpoint>
          <Trackpoint>
            <Time>2018-09-14T14:43:31.000Z</Time>
            <Position>
              <LatitudeDegrees>37.6707728393375873565673828125</LatitudeDegrees>
              <LongitudeDegrees>-8.081466257572174072265625</LongitudeDegrees>
            </Position>
            <AltitudeMeters>202</AltitudeMeters>
            <DistanceMeters>301086.40975252</DistanceMeters>
          </Trackpoint>
          <Trackpoint>
            <Time>2018-09-14T14:43:32.000Z</Time>
            <Position>
              <LatitudeDegrees>37.67072975635528564453125</LatitudeDegrees>
              <LongitudeDegrees>-8.08145963586866855621337890625</LongitudeDegrees>
            </Position>
            <AltitudeMeters>202</AltitudeMeters>
            <DistanceMeters>301091.24212023</DistanceMeters>
          </Trackpoint>
          <Trackpoint>
            <Time>2018-09-14T14:43:33.000Z</Time>
            <Position>
              <LatitudeDegrees>37.67068558372557163238525390625</LatitudeDegrees>
              <LongitudeDegrees>-8.0814520083367824554443359375</LongitudeDegrees>
            </Position>
            <AltitudeMeters>202.1999969482421875</AltitudeMeters>
            <DistanceMeters>301096.20539017</DistanceMeters>
          </Trackpoint>
          <Trackpoint>
            <Time>2018-09-14T14:43:34.000Z</Time>
            <Position>
              <LatitudeDegrees>37.6706410758197307586669921875</LatitudeDegrees>
              <LongitudeDegrees>-8.08144438080489635467529296875</LongitudeDegrees>
            </Position>
            <AltitudeMeters>202.1999969482421875</AltitudeMeters>
            <DistanceMeters>301101.20491531</DistanceMeters>
          </Trackpoint>
          <Trackpoint>
            <Time>2018-09-14T14:43:35.000Z</Time>
            <Position>
              <LatitudeDegrees>37.67059690319001674652099609375</LatitudeDegrees>
              <LongitudeDegrees>-8.081434406340122222900390625</LongitudeDegrees>
            </Position>
            <AltitudeMeters>202.399993896484375</AltitudeMeters>
            <DistanceMeters>301106.19901895</DistanceMeters>
          </Trackpoint>
          <Trackpoint>
            <Time>2018-09-14T14:43:36.000Z</Time>
            <Position>
              <LatitudeDegrees>37.670552730560302734375</LatitudeDegrees>
              <LongitudeDegrees>-8.0814248509705066680908203125</LongitudeDegrees>
            </Position>
            <AltitudeMeters>202.600006103515625</AltitudeMeters>
            <DistanceMeters>301111.18588475</DistanceMeters>
          </Trackpoint>
          <Trackpoint>
            <Time>2018-09-14T14:43:37.000Z</Time>
            <Position>
              <LatitudeDegrees>37.670508809387683868408203125</LatitudeDegrees>
              <LongitudeDegrees>-8.0814166367053985595703125</LongitudeDegrees>
            </Position>
            <AltitudeMeters>202.600006103515625</AltitudeMeters>
            <DistanceMeters>301116.1272739</DistanceMeters>
          </Trackpoint>
          <Trackpoint>
            <Time>2018-09-14T14:43:38.000Z</Time>
            <Position>
              <LatitudeDegrees>37.6704650558531284332275390625</LatitudeDegrees>
              <LongitudeDegrees>-8.08140833862125873565673828125</LongitudeDegrees>
            </Position>
            <AltitudeMeters>202.8000030517578125</AltitudeMeters>
            <DistanceMeters>301121.05218865</DistanceMeters>
          </Trackpoint>
          <Trackpoint>
            <Time>2018-09-14T14:43:39.000Z</Time>
            <Position>
              <LatitudeDegrees>37.6704226434230804443359375</LatitudeDegrees>
              <LongitudeDegrees>-8.0813976936042308807373046875</LongitudeDegrees>
            </Position>
            <AltitudeMeters>203</AltitudeMeters>
            <DistanceMeters>301125.86489538</DistanceMeters>
          </Trackpoint>
          <Trackpoint>
            <Time>2018-09-14T14:43:40.000Z</Time>
            <Position>
              <LatitudeDegrees>37.67038031481206417083740234375</LatitudeDegrees>
              <LongitudeDegrees>-8.081390820443630218505859375</LongitudeDegrees>
            </Position>
            <AltitudeMeters>203</AltitudeMeters>
            <DistanceMeters>301130.61528074</DistanceMeters>
          </Trackpoint>
          <Trackpoint>
            <Time>2018-09-14T14:43:41.000Z</Time>
            <Position>
              <LatitudeDegrees>37.6703386567533016204833984375</LatitudeDegrees>
              <LongitudeDegrees>-8.08138512074947357177734375</LongitudeDegrees>
            </Position>
            <AltitudeMeters>203</AltitudeMeters>
            <DistanceMeters>301135.28030852</DistanceMeters>
          </Trackpoint>
          <Trackpoint>
            <Time>2018-09-14T14:43:42.000Z</Time>
            <Position>
              <LatitudeDegrees>37.67029699869453907012939453125</LatitudeDegrees>
              <LongitudeDegrees>-8.0813779123127460479736328125</LongitudeDegrees>
            </Position>
            <AltitudeMeters>203</AltitudeMeters>
            <DistanceMeters>301139.95983151</DistanceMeters>
          </Trackpoint>
          <Trackpoint>
            <Time>2018-09-14T14:43:43.000Z</Time>
            <Position>
              <LatitudeDegrees>37.67025626264512538909912109375</LatitudeDegrees>
              <LongitudeDegrees>-8.0813678540289402008056640625</LongitudeDegrees>
            </Position>
            <AltitudeMeters>203</AltitudeMeters>
            <DistanceMeters>301144.57816893</DistanceMeters>
          </Trackpoint>
          <Trackpoint>
            <Time>2018-09-14T14:43:44.000Z</Time>
            <Position>
              <LatitudeDegrees>37.670215778052806854248046875</LatitudeDegrees>
              <LongitudeDegrees>-8.08135720901191234588623046875</LongitudeDegrees>
            </Position>
            <AltitudeMeters>203</AltitudeMeters>
            <DistanceMeters>301149.17985659</DistanceMeters>
          </Trackpoint>
          <Trackpoint>
            <Time>2018-09-14T14:43:45.000Z</Time>
            <Position>
              <LatitudeDegrees>37.67017520964145660400390625</LatitudeDegrees>
              <LongitudeDegrees>-8.0813480727374553680419921875</LongitudeDegrees>
            </Position>
            <AltitudeMeters>203</AltitudeMeters>
            <DistanceMeters>301153.76581865</DistanceMeters>
          </Trackpoint>
          <Trackpoint>
            <Time>2018-09-14T14:43:46.000Z</Time>
            <Position>
              <LatitudeDegrees>37.67013573087751865386962890625</LatitudeDegrees>
              <LongitudeDegrees>-8.08134027756750583648681640625</LongitudeDegrees>
            </Position>
            <AltitudeMeters>203</AltitudeMeters>
            <DistanceMeters>301158.21282522</DistanceMeters>
          </Trackpoint>
          <Trackpoint>
            <Time>2018-09-14T14:43:47.000Z</Time>
            <Position>
              <LatitudeDegrees>37.67009700648486614227294921875</LatitudeDegrees>
              <LongitudeDegrees>-8.08133323676884174346923828125</LongitudeDegrees>
            </Position>
            <AltitudeMeters>203</AltitudeMeters>
            <DistanceMeters>301162.56749633</DistanceMeters>
          </Trackpoint>
          <Trackpoint>
            <Time>2018-09-14T14:43:48.000Z</Time>
            <Position>
              <LatitudeDegrees>37.67005710862576961517333984375</LatitudeDegrees>
              <LongitudeDegrees>-8.08132535777986049652099609375</LongitudeDegrees>
            </Position>
            <AltitudeMeters>203</AltitudeMeters>
            <DistanceMeters>301167.06096392</DistanceMeters>
          </Trackpoint>
          <Trackpoint>
            <Time>2018-09-14T14:43:49.000Z</Time>
            <Position>
              <LatitudeDegrees>37.67001804895699024200439453125</LatitudeDegrees>
              <LongitudeDegrees>-8.08131781406700611114501953125</LongitudeDegrees>
            </Position>
            <AltitudeMeters>203</AltitudeMeters>
            <DistanceMeters>301171.45896616</DistanceMeters>
          </Trackpoint>
          <Trackpoint>
            <Time>2018-09-14T14:43:50.000Z</Time>
            <Position>
              <LatitudeDegrees>37.66997940838336944580078125</LatitudeDegrees>
              <LongitudeDegrees>-8.081309013068675994873046875</LongitudeDegrees>
            </Position>
            <AltitudeMeters>203.1999969482421875</AltitudeMeters>
            <DistanceMeters>301175.829162</DistanceMeters>
          </Trackpoint>
          <Trackpoint>
            <Time>2018-09-14T14:43:51.000Z</Time>
            <Position>
              <LatitudeDegrees>37.669940851628780364990234375</LatitudeDegrees>
              <LongitudeDegrees>-8.08130004443228244781494140625</LongitudeDegrees>
            </Position>
            <AltitudeMeters>203.399993896484375</AltitudeMeters>
            <DistanceMeters>301180.19211985</DistanceMeters>
          </Trackpoint>
          <Trackpoint>
            <Time>2018-09-14T14:43:52.000Z</Time>
            <Position>
              <LatitudeDegrees>37.66990254633128643035888671875</LatitudeDegrees>
              <LongitudeDegrees>-8.0812917463481426239013671875</LongitudeDegrees>
            </Position>
            <AltitudeMeters>203.399993896484375</AltitudeMeters>
            <DistanceMeters>301184.5176624</DistanceMeters>
          </Trackpoint>
          <Trackpoint>
            <Time>2018-09-14T14:43:53.000Z</Time>
            <Position>
              <LatitudeDegrees>37.66986449249088764190673828125</LatitudeDegrees>
              <LongitudeDegrees>-8.0812816880643367767333984375</LongitudeDegrees>
            </Position>
            <AltitudeMeters>203.600006103515625</AltitudeMeters>
            <DistanceMeters>301188.84424864</DistanceMeters>
          </Trackpoint>
          <Trackpoint>
            <Time>2018-09-14T14:43:54.000Z</Time>
            <Position>
              <LatitudeDegrees>37.66982677392661571502685546875</LatitudeDegrees>
              <LongitudeDegrees>-8.08127221651375293731689453125</LongitudeDegrees>
            </Position>
            <AltitudeMeters>203.8000030517578125</AltitudeMeters>
            <DistanceMeters>301193.12361717</DistanceMeters>
          </Trackpoint>
          <Trackpoint>
            <Time>2018-09-14T14:43:55.000Z</Time>
            <Position>
              <LatitudeDegrees>37.6697896420955657958984375</LatitudeDegrees>
              <LongitudeDegrees>-8.0812645889818668365478515625</LongitudeDegrees>
            </Position>
            <AltitudeMeters>203.8000030517578125</AltitudeMeters>
            <DistanceMeters>301197.31126668</DistanceMeters>
          </Trackpoint>
          <Trackpoint>
            <Time>2018-09-14T14:43:56.000Z</Time>
            <Position>
              <LatitudeDegrees>37.66975343227386474609375</LatitudeDegrees>
              <LongitudeDegrees>-8.08125645853579044342041015625</LongitudeDegrees>
            </Position>
            <AltitudeMeters>204</AltitudeMeters>
            <DistanceMeters>301201.4040398</DistanceMeters>
          </Trackpoint>
          <Trackpoint>
            <Time>2018-09-14T14:43:57.000Z</Time>
            <Position>
              <LatitudeDegrees>37.669717557728290557861328125</LatitudeDegrees>
              <LongitudeDegrees>-8.08124774135649204254150390625</LongitudeDegrees>
            </Position>
            <AltitudeMeters>204.1999969482421875</AltitudeMeters>
            <DistanceMeters>301205.46914003</DistanceMeters>
          </Trackpoint>
          <Trackpoint>
            <Time>2018-09-14T14:43:58.000Z</Time>
            <Position>
              <LatitudeDegrees>37.66968159936368465423583984375</LatitudeDegrees>
              <LongitudeDegrees>-8.08123852126300334930419921875</LongitudeDegrees>
            </Position>
            <AltitudeMeters>204.1999969482421875</AltitudeMeters>
            <DistanceMeters>301209.55418364</DistanceMeters>
          </Trackpoint>
          <Trackpoint>
            <Time>2018-09-14T14:43:59.000Z</Time>
            <Position>
              <LatitudeDegrees>37.669645808637142181396484375</LatitudeDegrees>
              <LongitudeDegrees>-8.08123047463595867156982421875</LongitudeDegrees>
            </Position>
            <AltitudeMeters>204.399993896484375</AltitudeMeters>
            <DistanceMeters>301213.60147393</DistanceMeters>
          </Trackpoint>
          <Trackpoint>
            <Time>2018-09-14T14:44:00.000Z</Time>
            <Position>
              <LatitudeDegrees>37.669610269367694854736328125</LatitudeDegrees>
              <LongitudeDegrees>-8.08122410438954830169677734375</LongitudeDegrees>
            </Position>
            <AltitudeMeters>204.600006103515625</AltitudeMeters>
            <DistanceMeters>301217.5959883</DistanceMeters>
          </Trackpoint>
          <Trackpoint>
            <Time>2018-09-14T14:44:01.000Z</Time>
            <Position>
              <LatitudeDegrees>37.669574730098247528076171875</LatitudeDegrees>
              <LongitudeDegrees>-8.0812168121337890625</LongitudeDegrees>
            </Position>
            <AltitudeMeters>204.600006103515625</AltitudeMeters>
            <DistanceMeters>301221.60291679</DistanceMeters>
          </Trackpoint>
          <Trackpoint>
            <Time>2018-09-14T14:44:02.000Z</Time>
            <Position>
              <LatitudeDegrees>37.66953944228589534759521484375</LatitudeDegrees>
              <LongitudeDegrees>-8.0812079273164272308349609375</LongitudeDegrees>
            </Position>
            <AltitudeMeters>204.8000030517578125</AltitudeMeters>
            <DistanceMeters>301225.60871831</DistanceMeters>
          </Trackpoint>
          <Trackpoint>
            <Time>2018-09-14T14:44:03.000Z</Time>
            <Position>
              <LatitudeDegrees>37.6695041544735431671142578125</LatitudeDegrees>
              <LongitudeDegrees>-8.081199713051319122314453125</LongitudeDegrees>
            </Position>
            <AltitudeMeters>204.8000030517578125</AltitudeMeters>
            <DistanceMeters>301229.60436284</DistanceMeters>
          </Trackpoint>
          <Trackpoint>
            <Time>2018-09-14T14:44:04.000Z</Time>
            <Position>
              <LatitudeDegrees>37.6694691181182861328125</LatitudeDegrees>
              <LongitudeDegrees>-8.081192672252655029296875</LongitudeDegrees>
            </Position>
            <AltitudeMeters>205</AltitudeMeters>
            <DistanceMeters>301233.55454917</DistanceMeters>
          </Trackpoint>
          <Trackpoint>
            <Time>2018-09-14T14:44:05.000Z</Time>
            <Position>
              <LatitudeDegrees>37.6694337464869022369384765625</LatitudeDegrees>
              <LongitudeDegrees>-8.081184960901737213134765625</LongitudeDegrees>
            </Position>
            <AltitudeMeters>205.1999969482421875</AltitudeMeters>
            <DistanceMeters>301237.55019369</DistanceMeters>
          </Trackpoint>
          <Trackpoint>
            <Time>2018-09-14T14:44:06.000Z</Time>
            <Position>
              <LatitudeDegrees>37.66939879395067691802978515625</LatitudeDegrees>
              <LongitudeDegrees>-8.08117615990340709686279296875</LongitudeDegrees>
            </Position>
            <AltitudeMeters>205.1999969482421875</AltitudeMeters>
            <DistanceMeters>301241.51634966</DistanceMeters>
          </Trackpoint>
          <Trackpoint>
            <Time>2018-09-14T14:44:07.000Z</Time>
            <Position>
              <LatitudeDegrees>37.669364511966705322265625</LatitudeDegrees>
              <LongitudeDegrees>-8.0811671912670135498046875</LongitudeDegrees>
            </Position>
            <AltitudeMeters>205.399993896484375</AltitudeMeters>
            <DistanceMeters>301245.41244495</DistanceMeters>
          </Trackpoint>
          <Trackpoint>
            <Time>2018-09-14T14:44:08.000Z</Time>
            <Position>
              <LatitudeDegrees>37.66933006234467029571533203125</LatitudeDegrees>
              <LongitudeDegrees>-8.08115973137319087982177734375</LongitudeDegrees>
            </Position>
            <AltitudeMeters>205.600006103515625</AltitudeMeters>
            <DistanceMeters>301249.30158085</DistanceMeters>
          </Trackpoint>
          <Trackpoint>
            <Time>2018-09-14T14:44:09.000Z</Time>
            <Position>
              <LatitudeDegrees>37.6692956127226352691650390625</LatitudeDegrees>
              <LongitudeDegrees>-8.08115269057452678680419921875</LongitudeDegrees>
            </Position>
            <AltitudeMeters>205.600006103515625</AltitudeMeters>
            <DistanceMeters>301253.18490773</DistanceMeters>
          </Trackpoint>
          <Trackpoint>
            <Time>2018-09-14T14:44:10.000Z</Time>
            <Position>
              <LatitudeDegrees>37.6692614145576953887939453125</LatitudeDegrees>
              <LongitudeDegrees>-8.0811445601284503936767578125</LongitudeDegrees>
            </Position>
            <AltitudeMeters>205.8000030517578125</AltitudeMeters>
            <DistanceMeters>301257.05775642</DistanceMeters>
          </Trackpoint>
          <Trackpoint>
            <Time>2018-09-14T14:44:11.000Z</Time>
            <Position>
              <LatitudeDegrees>37.669227384030818939208984375</LatitudeDegrees>
              <LongitudeDegrees>-8.0811361782252788543701171875</LongitudeDegrees>
            </Position>
            <AltitudeMeters>205.8000030517578125</AltitudeMeters>
            <DistanceMeters>301260.9154197</DistanceMeters>
          </Trackpoint>
          <Trackpoint>
            <Time>2018-09-14T14:44:12.000Z</Time>
            <Position>
              <LatitudeDegrees>37.66919352114200592041015625</LatitudeDegrees>
              <LongitudeDegrees>-8.08112989179790019989013671875</LongitudeDegrees>
            </Position>
            <AltitudeMeters>206</AltitudeMeters>
            <DistanceMeters>301264.72360861</DistanceMeters>
          </Trackpoint>
          <Trackpoint>
            <Time>2018-09-14T14:44:13.000Z</Time>
            <Position>
              <LatitudeDegrees>37.66915974207222461700439453125</LatitudeDegrees>
              <LongitudeDegrees>-8.08112435974180698394775390625</LongitudeDegrees>
            </Position>
            <AltitudeMeters>206.399993896484375</AltitudeMeters>
            <DistanceMeters>301268.51516261</DistanceMeters>
          </Trackpoint>
          <Trackpoint>
            <Time>2018-09-14T14:44:14.000Z</Time>
            <Position>
              <LatitudeDegrees>37.66912646591663360595703125</LatitudeDegrees>
              <LongitudeDegrees>-8.0811180733144283294677734375</LongitudeDegrees>
            </Position>
            <AltitudeMeters>206.8000030517578125</AltitudeMeters>
            <DistanceMeters>301272.25998686</DistanceMeters>
          </Trackpoint>
          <Trackpoint>
            <Time>2018-09-14T14:44:15.000Z</Time>
            <Position>
              <LatitudeDegrees>37.66909402795135974884033203125</LatitudeDegrees>
              <LongitudeDegrees>-8.0811110325157642364501953125</LongitudeDegrees>
            </Position>
            <AltitudeMeters>207</AltitudeMeters>
            <DistanceMeters>301275.92314037</DistanceMeters>
          </Trackpoint>
          <Trackpoint>
            <Time>2018-09-14T14:44:16.000Z</Time>
            <Position>
              <LatitudeDegrees>37.66906234435737133026123046875</LatitudeDegrees>
              <LongitudeDegrees>-8.08110340498387813568115234375</LongitudeDegrees>
            </Position>
            <AltitudeMeters>207.399993896484375</AltitudeMeters>
            <DistanceMeters>301279.51409416</DistanceMeters>
          </Trackpoint>
          <Trackpoint>
            <Time>2018-09-14T14:44:17.000Z</Time>
            <Position>
              <LatitudeDegrees>37.6690314151346683502197265625</LatitudeDegrees>
              <LongitudeDegrees>-8.08109535835683345794677734375</LongitudeDegrees>
            </Position>
            <AltitudeMeters>207.8000030517578125</AltitudeMeters>
            <DistanceMeters>301283.02879822</DistanceMeters>
          </Trackpoint>
          <Trackpoint>
            <Time>2018-09-14T14:44:18.000Z</Time>
            <Position>
              <LatitudeDegrees>37.66900048591196537017822265625</LatitudeDegrees>
              <LongitudeDegrees>-8.08108848519623279571533203125</LongitudeDegrees>
            </Position>
            <AltitudeMeters>208</AltitudeMeters>
            <DistanceMeters>301286.52547142</DistanceMeters>
          </Trackpoint>
          <Trackpoint>
            <Time>2018-09-14T14:44:19.000Z</Time>
            <Position>
              <LatitudeDegrees>37.6689697243273258209228515625</LatitudeDegrees>
              <LongitudeDegrees>-8.08108211494982242584228515625</LongitudeDegrees>
            </Position>
            <AltitudeMeters>208.1999969482421875</AltitudeMeters>
            <DistanceMeters>301289.99622379</DistanceMeters>
          </Trackpoint>
          <Trackpoint>
            <Time>2018-09-14T14:44:20.000Z</Time>
            <Position>
              <LatitudeDegrees>37.6689385436475276947021484375</LatitudeDegrees>
              <LongitudeDegrees>-8.0810751579701900482177734375</LongitudeDegrees>
            </Position>
            <AltitudeMeters>208.399993896484375</AltitudeMeters>
            <DistanceMeters>301293.51862709</DistanceMeters>
          </Trackpoint>
          <Trackpoint>
            <Time>2018-09-14T14:44:21.000Z</Time>
            <Position>
              <LatitudeDegrees>37.66890711151063442230224609375</LatitudeDegrees>
              <LongitudeDegrees>-8.0810679495334625244140625</LongitudeDegrees>
            </Position>
            <AltitudeMeters>208.600006103515625</AltitudeMeters>
            <DistanceMeters>301297.07293109</DistanceMeters>
          </Trackpoint>
          <Trackpoint>
            <Time>2018-09-14T14:44:22.000Z</Time>
            <Position>
              <LatitudeDegrees>37.6688755117356777191162109375</LatitudeDegrees>
              <LongitudeDegrees>-8.08106199838221073150634765625</LongitudeDegrees>
            </Position>
            <AltitudeMeters>208.8000030517578125</AltitudeMeters>
            <DistanceMeters>301300.62977479</DistanceMeters>
          </Trackpoint>
          <Trackpoint>
            <Time>2018-09-14T14:44:23.000Z</Time>
            <Position>
              <LatitudeDegrees>37.6688433252274990081787109375</LatitudeDegrees>
              <LongitudeDegrees>-8.08105713687837123870849609375</LongitudeDegrees>
            </Position>
            <AltitudeMeters>209</AltitudeMeters>
            <DistanceMeters>301304.23828837</DistanceMeters>
          </Trackpoint>
          <Trackpoint>
            <Time>2018-09-14T14:44:24.000Z</Time>
            <Position>
              <LatitudeDegrees>37.66881105490028858184814453125</LatitudeDegrees>
              <LongitudeDegrees>-8.0810496769845485687255859375</LongitudeDegrees>
            </Position>
            <AltitudeMeters>209.1999969482421875</AltitudeMeters>
            <DistanceMeters>301307.89156812</DistanceMeters>
          </Trackpoint>
          <Trackpoint>
            <Time>2018-09-14T14:44:25.000Z</Time>
            <Position>
              <LatitudeDegrees>37.668778784573078155517578125</LatitudeDegrees>
              <LongitudeDegrees>-8.0810409598052501678466796875</LongitudeDegrees>
            </Position>
            <AltitudeMeters>209.399993896484375</AltitudeMeters>
            <DistanceMeters>301311.56456883</DistanceMeters>
          </Trackpoint>
          <Trackpoint>
            <Time>2018-09-14T14:44:26.000Z</Time>
            <Position>
              <LatitudeDegrees>37.6687462627887725830078125</LatitudeDegrees>
              <LongitudeDegrees>-8.08103241026401519775390625</LongitudeDegrees>
            </Position>
            <AltitudeMeters>209.600006103515625</AltitudeMeters>
            <DistanceMeters>301315.26207282</DistanceMeters>
          </Trackpoint>
          <Trackpoint>
            <Time>2018-09-14T14:44:27.000Z</Time>
            <Position>
              <LatitudeDegrees>37.668713070452213287353515625</LatitudeDegrees>
              <LongitudeDegrees>-8.08102495037019252777099609375</LongitudeDegrees>
            </Position>
            <AltitudeMeters>209.8000030517578125</AltitudeMeters>
            <DistanceMeters>301319.01412415</DistanceMeters>
          </Trackpoint>
          <Trackpoint>
            <Time>2018-09-14T14:44:28.000Z</Time>
            <Position>
              <LatitudeDegrees>37.66867945902049541473388671875</LatitudeDegrees>
              <LongitudeDegrees>-8.081016652286052703857421875</LongitudeDegrees>
            </Position>
            <AltitudeMeters>210</AltitudeMeters>
            <DistanceMeters>301322.82586824</DistanceMeters>
          </Trackpoint>
          <Trackpoint>
            <Time>2018-09-14T14:44:29.000Z</Time>
            <Position>
              <LatitudeDegrees>37.66864609904587268829345703125</LatitudeDegrees>
              <LongitudeDegrees>-8.08100852183997631072998046875</LongitudeDegrees>
            </Position>
            <AltitudeMeters>210.1999969482421875</AltitudeMeters>
            <DistanceMeters>301326.60788372</DistanceMeters>
          </Trackpoint>
          <Trackpoint>
            <Time>2018-09-14T14:44:30.000Z</Time>
            <Position>
              <LatitudeDegrees>37.66861240379512310028076171875</LatitudeDegrees>
              <LongitudeDegrees>-8.08100131340324878692626953125</LongitudeDegrees>
            </Position>
            <AltitudeMeters>210.399993896484375</AltitudeMeters>
            <DistanceMeters>301330.41132722</DistanceMeters>
          </Trackpoint>
          <Trackpoint>
            <Time>2018-09-14T14:44:31.000Z</Time>
            <Position>
              <LatitudeDegrees>37.66857795417308807373046875</LatitudeDegrees>
              <LongitudeDegrees>-8.08099376969039440155029296875</LongitudeDegrees>
            </Position>
            <AltitudeMeters>210.600006103515625</AltitudeMeters>
            <DistanceMeters>301334.3027843</DistanceMeters>
          </Trackpoint>
          <Trackpoint>
            <Time>2018-09-14T14:44:32.000Z</Time>
            <Position>
              <LatitudeDegrees>37.668542079627513885498046875</LatitudeDegrees>
              <LongitudeDegrees>-8.0809883214533329010009765625</LongitudeDegrees>
            </Position>
            <AltitudeMeters>211</AltitudeMeters>
            <DistanceMeters>301338.32545716</DistanceMeters>
          </Trackpoint>
          <Trackpoint>
            <Time>2018-09-14T14:44:33.000Z</Time>
            <Position>
              <LatitudeDegrees>37.66850578598678112030029296875</LatitudeDegrees>
              <LongitudeDegrees>-8.08098253794014453887939453125</LongitudeDegrees>
            </Position>
            <AltitudeMeters>211.1999969482421875</AltitudeMeters>
            <DistanceMeters>301342.39721604</DistanceMeters>
          </Trackpoint>
          <Trackpoint>
            <Time>2018-09-14T14:44:34.000Z</Time>
            <Position>
              <LatitudeDegrees>37.66846924088895320892333984375</LatitudeDegrees>
              <LongitudeDegrees>-8.08097474277019500732421875</LongitudeDegrees>
            </Position>
            <AltitudeMeters>211.399993896484375</AltitudeMeters>
            <DistanceMeters>301346.52185712</DistanceMeters>
          </Trackpoint>
          <Trackpoint>
            <Time>2018-09-14T14:44:35.000Z</Time>
            <Position>
              <LatitudeDegrees>37.66843236051499843597412109375</LatitudeDegrees>
              <LongitudeDegrees>-8.08096677996218204498291015625</LongitudeDegrees>
            </Position>
            <AltitudeMeters>211.600006103515625</AltitudeMeters>
            <DistanceMeters>301350.68571912</DistanceMeters>
          </Trackpoint>
          <Trackpoint>
            <Time>2018-09-14T14:44:36.000Z</Time>
            <Position>
              <LatitudeDegrees>37.66839581541717052459716796875</LatitudeDegrees>
              <LongitudeDegrees>-8.0809591524302959442138671875</LongitudeDegrees>
            </Position>
            <AltitudeMeters>211.8000030517578125</AltitudeMeters>
            <DistanceMeters>301354.80817032</DistanceMeters>
          </Trackpoint>
          <Trackpoint>
            <Time>2018-09-14T14:44:37.000Z</Time>
            <Position>
              <LatitudeDegrees>37.6683591865003108978271484375</LatitudeDegrees>
              <LongitudeDegrees>-8.080950938165187835693359375</LongitudeDegrees>
            </Position>
            <AltitudeMeters>212</AltitudeMeters>
            <DistanceMeters>301358.94810813</DistanceMeters>
          </Trackpoint>
          <Trackpoint>
            <Time>2018-09-14T14:44:38.000Z</Time>
            <Position>
              <LatitudeDegrees>37.66832255758345127105712890625</LatitudeDegrees>
              <LongitudeDegrees>-8.08094389736652374267578125</LongitudeDegrees>
            </Position>
            <AltitudeMeters>212</AltitudeMeters>
            <DistanceMeters>301363.07165441</DistanceMeters>
          </Trackpoint>
          <Trackpoint>
            <Time>2018-09-14T14:44:39.000Z</Time>
            <Position>
              <LatitudeDegrees>37.6682857610285282135009765625</LatitudeDegrees>
              <LongitudeDegrees>-8.08093761093914508819580078125</LongitudeDegrees>
            </Position>
            <AltitudeMeters>212.1999969482421875</AltitudeMeters>
            <DistanceMeters>301367.20395094</DistanceMeters>
          </Trackpoint>
          <Trackpoint>
            <Time>2018-09-14T14:44:40.000Z</Time>
            <Position>
              <LatitudeDegrees>37.66824896447360515594482421875</LatitudeDegrees>
              <LongitudeDegrees>-8.08093057014048099517822265625</LongitudeDegrees>
            </Position>
            <AltitudeMeters>212.1999969482421875</AltitudeMeters>
            <DistanceMeters>301371.34606938</DistanceMeters>
          </Trackpoint>
          <Trackpoint>
            <Time>2018-09-14T14:44:41.000Z</Time>
            <Position>
              <LatitudeDegrees>37.6682123355567455291748046875</LatitudeDegrees>
              <LongitudeDegrees>-8.0809229426085948944091796875</LongitudeDegrees>
            </Position>
            <AltitudeMeters>212.1999969482421875</AltitudeMeters>
            <DistanceMeters>301375.47727314</DistanceMeters>
          </Trackpoint>
          <Trackpoint>
            <Time>2018-09-14T14:44:42.000Z</Time>
            <Position>
              <LatitudeDegrees>37.66817486844956874847412109375</LatitudeDegrees>
              <LongitudeDegrees>-8.0809162370860576629638671875</LongitudeDegrees>
            </Position>
            <AltitudeMeters>212.1999969482421875</AltitudeMeters>
            <DistanceMeters>301379.68857581</DistanceMeters>
          </Trackpoint>
          <Trackpoint>
            <Time>2018-09-14T14:44:43.000Z</Time>
            <Position>
              <LatitudeDegrees>37.66813664697110652923583984375</LatitudeDegrees>
              <LongitudeDegrees>-8.0809112079441547393798828125</LongitudeDegrees>
            </Position>
            <AltitudeMeters>212.1999969482421875</AltitudeMeters>
            <DistanceMeters>301383.96583367</DistanceMeters>
          </Trackpoint>
          <Trackpoint>
            <Time>2018-09-14T14:44:44.000Z</Time>
            <Position>
              <LatitudeDegrees>37.66809783875942230224609375</LatitudeDegrees>
              <LongitudeDegrees>-8.0809065140783786773681640625</LongitudeDegrees>
            </Position>
            <AltitudeMeters>212.1999969482421875</AltitudeMeters>
            <DistanceMeters>301388.30492452</DistanceMeters>
          </Trackpoint>
          <Trackpoint>
            <Time>2018-09-14T14:44:45.000Z</Time>
            <Position>
              <LatitudeDegrees>37.6680587790906429290771484375</LatitudeDegrees>
              <LongitudeDegrees>-8.0809014849364757537841796875</LongitudeDegrees>
            </Position>
            <AltitudeMeters>212.1999969482421875</AltitudeMeters>
            <DistanceMeters>301392.67512036</DistanceMeters>
          </Trackpoint>
          <Trackpoint>
            <Time>2018-09-14T14:44:46.000Z</Time>
            <Position>
              <LatitudeDegrees>37.66801946796476840972900390625</LatitudeDegrees>
              <LongitudeDegrees>-8.08089570142328739166259765625</LongitudeDegrees>
            </Position>
            <AltitudeMeters>212.1999969482421875</AltitudeMeters>
            <DistanceMeters>301397.08132784</DistanceMeters>
          </Trackpoint>
          <Trackpoint>
            <Time>2018-09-14T14:44:47.000Z</Time>
            <Position>
              <LatitudeDegrees>37.66797923482954502105712890625</LatitudeDegrees>
              <LongitudeDegrees>-8.080891259014606475830078125</LongitudeDegrees>
            </Position>
            <AltitudeMeters>212.1999969482421875</AltitudeMeters>
            <DistanceMeters>301401.57680458</DistanceMeters>
          </Trackpoint>
          <Trackpoint>
            <Time>2018-09-14T14:44:48.000Z</Time>
            <Position>
              <LatitudeDegrees>37.66793799586594104766845703125</LatitudeDegrees>
              <LongitudeDegrees>-8.0808870680630207061767578125</LongitudeDegrees>
            </Position>
            <AltitudeMeters>212.399993896484375</AltitudeMeters>
            <DistanceMeters>301406.1814348</DistanceMeters>
          </Trackpoint>
          <Trackpoint>
            <Time>2018-09-14T14:44:49.000Z</Time>
            <Position>
              <LatitudeDegrees>37.66789625398814678192138671875</LatitudeDegrees>
              <LongitudeDegrees>-8.0808817036449909210205078125</LongitudeDegrees>
            </Position>
            <AltitudeMeters>212.399993896484375</AltitudeMeters>
            <DistanceMeters>301410.85033237</DistanceMeters>
          </Trackpoint>
          <Trackpoint>
            <Time>2018-09-14T14:44:50.000Z</Time>
            <Position>
              <LatitudeDegrees>37.6678542606532573699951171875</LatitudeDegrees>
              <LongitudeDegrees>-8.0808786861598491668701171875</LongitudeDegrees>
            </Position>
            <AltitudeMeters>212.399993896484375</AltitudeMeters>
            <DistanceMeters>301415.53082011</DistanceMeters>
          </Trackpoint>
          <Trackpoint>
            <Time>2018-09-14T14:44:51.000Z</Time>
            <Position>
              <LatitudeDegrees>37.66781209968030452728271484375</LatitudeDegrees>
              <LongitudeDegrees>-8.08087793178856372833251953125</LongitudeDegrees>
            </Position>
            <AltitudeMeters>212.399993896484375</AltitudeMeters>
            <DistanceMeters>301420.22479353</DistanceMeters>
          </Trackpoint>
          <Trackpoint>
            <Time>2018-09-14T14:44:52.000Z</Time>
            <Position>
              <LatitudeDegrees>37.6677699387073516845703125</LatitudeDegrees>
              <LongitudeDegrees>-8.0808776803314685821533203125</LongitudeDegrees>
            </Position>
            <AltitudeMeters>212.399993896484375</AltitudeMeters>
            <DistanceMeters>301424.91684281</DistanceMeters>
          </Trackpoint>
          <Trackpoint>
            <Time>2018-09-14T14:44:53.000Z</Time>
            <Position>
              <LatitudeDegrees>37.6677281968295574188232421875</LatitudeDegrees>
              <LongitudeDegrees>-8.080876171588897705078125</LongitudeDegrees>
            </Position>
            <AltitudeMeters>212.600006103515625</AltitudeMeters>
            <DistanceMeters>301429.56538806</DistanceMeters>
          </Trackpoint>
          <Trackpoint>
            <Time>2018-09-14T14:44:54.000Z</Time>
            <Position>
              <LatitudeDegrees>37.667686454951763153076171875</LatitudeDegrees>
              <LongitudeDegrees>-8.08087415993213653564453125</LongitudeDegrees>
            </Position>
            <AltitudeMeters>212.600006103515625</AltitudeMeters>
            <DistanceMeters>301434.21587546</DistanceMeters>
          </Trackpoint>
          <Trackpoint>
            <Time>2018-09-14T14:44:55.000Z</Time>
            <Position>
              <LatitudeDegrees>37.66764479689300060272216796875</LatitudeDegrees>
              <LongitudeDegrees>-8.0808719806373119354248046875</LongitudeDegrees>
            </Position>
            <AltitudeMeters>212.600006103515625</AltitudeMeters>
            <DistanceMeters>301438.85761677</DistanceMeters>
          </Trackpoint>
          <Trackpoint>
            <Time>2018-09-14T14:44:56.000Z</Time>
            <Position>
              <LatitudeDegrees>37.66760154627263545989990234375</LatitudeDegrees>
              <LongitudeDegrees>-8.0808689631521701812744140625</LongitudeDegrees>
            </Position>
            <AltitudeMeters>212.600006103515625</AltitudeMeters>
            <DistanceMeters>301443.67875945</DistanceMeters>
          </Trackpoint>
          <Trackpoint>
            <Time>2018-09-14T14:44:57.000Z</Time>
            <Position>
              <LatitudeDegrees>37.6675565354526042938232421875</LatitudeDegrees>
              <LongitudeDegrees>-8.080868460237979888916015625</LongitudeDegrees>
            </Position>
            <AltitudeMeters>212.8000030517578125</AltitudeMeters>
            <DistanceMeters>301448.68910999</DistanceMeters>
          </Trackpoint>
          <Trackpoint>
            <Time>2018-09-14T14:44:58.000Z</Time>
            <Position>
              <LatitudeDegrees>37.6675102673470973968505859375</LatitudeDegrees>
              <LongitudeDegrees>-8.080869801342487335205078125</LongitudeDegrees>
            </Position>
            <AltitudeMeters>212.8000030517578125</AltitudeMeters>
            <DistanceMeters>301453.84074999</DistanceMeters>
          </Trackpoint>
          <Trackpoint>
            <Time>2018-09-14T14:44:59.000Z</Time>
            <Position>
              <LatitudeDegrees>37.6674633286893367767333984375</LatitudeDegrees>
              <LongitudeDegrees>-8.0808719806373119354248046875</LongitudeDegrees>
            </Position>
            <AltitudeMeters>212.8000030517578125</AltitudeMeters>
            <DistanceMeters>301459.06981027</DistanceMeters>
          </Trackpoint>
          <Trackpoint>
            <Time>2018-09-14T14:45:00.000Z</Time>
            <Position>
              <LatitudeDegrees>37.6674158871173858642578125</LatitudeDegrees>
              <LongitudeDegrees>-8.08087357319891452789306640625</LongitudeDegrees>
            </Position>
            <AltitudeMeters>212.600006103515625</AltitudeMeters>
            <DistanceMeters>301464.35213327</DistanceMeters>
          </Trackpoint>
          <Trackpoint>
            <Time>2018-09-14T14:45:01.000Z</Time>
            <Position>
              <LatitudeDegrees>37.6673676073551177978515625</LatitudeDegrees>
              <LongitudeDegrees>-8.08087550103664398193359375</LongitudeDegrees>
            </Position>
            <AltitudeMeters>212.600006103515625</AltitudeMeters>
            <DistanceMeters>301469.727656</DistanceMeters>
          </Trackpoint>
          <Trackpoint>
            <Time>2018-09-14T14:45:02.000Z</Time>
            <Position>
              <LatitudeDegrees>37.66731957904994487762451171875</LatitudeDegrees>
              <LongitudeDegrees>-8.080877177417278289794921875</LongitudeDegrees>
            </Position>
            <AltitudeMeters>212.399993896484375</AltitudeMeters>
            <DistanceMeters>301475.07623358</DistanceMeters>
          </Trackpoint>
          <Trackpoint>
            <Time>2018-09-14T14:45:03.000Z</Time>
            <Position>
              <LatitudeDegrees>37.667271383106708526611328125</LatitudeDegrees>
              <LongitudeDegrees>-8.08087675832211971282958984375</LongitudeDegrees>
            </Position>
            <AltitudeMeters>212.399993896484375</AltitudeMeters>
            <DistanceMeters>301480.43998447</DistanceMeters>
          </Trackpoint>
          <Trackpoint>
            <Time>2018-09-14T14:45:04.000Z</Time>
            <Position>
              <LatitudeDegrees>37.66722285188734531402587890625</LatitudeDegrees>
              <LongitudeDegrees>-8.0808773450553417205810546875</LongitudeDegrees>
            </Position>
            <AltitudeMeters>212.1999969482421875</AltitudeMeters>
            <DistanceMeters>301485.84064618</DistanceMeters>
          </Trackpoint>
          <Trackpoint>
            <Time>2018-09-14T14:45:05.000Z</Time>
            <Position>
              <LatitudeDegrees>37.66717373393476009368896484375</LatitudeDegrees>
              <LongitudeDegrees>-8.080879189074039459228515625</LongitudeDegrees>
            </Position>
            <AltitudeMeters>212</AltitudeMeters>
            <DistanceMeters>301491.30943152</DistanceMeters>
          </Trackpoint>
          <Trackpoint>
            <Time>2018-09-14T14:45:06.000Z</Time>
            <Position>
              <LatitudeDegrees>37.66712394542992115020751953125</LatitudeDegrees>
              <LongitudeDegrees>-8.08088011108338832855224609375</LongitudeDegrees>
            </Position>
            <AltitudeMeters>212</AltitudeMeters>
            <DistanceMeters>301496.85202298</DistanceMeters>
          </Trackpoint>
          <Trackpoint>
            <Time>2018-09-14T14:45:07.000Z</Time>
            <Position>
              <LatitudeDegrees>37.66707415692508220672607421875</LatitudeDegrees>
              <LongitudeDegrees>-8.080881200730800628662109375</LongitudeDegrees>
            </Position>
            <AltitudeMeters>211.8000030517578125</AltitudeMeters>
            <DistanceMeters>301502.39379977</DistanceMeters>
          </Trackpoint>
          <Trackpoint>
            <Time>2018-09-14T14:45:08.000Z</Time>
            <Position>
              <LatitudeDegrees>37.6670241169631481170654296875</LatitudeDegrees>
              <LongitudeDegrees>-8.08088086545467376708984375</LongitudeDegrees>
            </Position>
            <AltitudeMeters>211.8000030517578125</AltitudeMeters>
            <DistanceMeters>301507.96401904</DistanceMeters>
          </Trackpoint>
          <Trackpoint>
            <Time>2018-09-14T14:45:09.000Z</Time>
            <Position>
              <LatitudeDegrees>37.66697424463927745819091796875</LatitudeDegrees>
              <LongitudeDegrees>-8.08088044635951519012451171875</LongitudeDegrees>
            </Position>
            <AltitudeMeters>211.600006103515625</AltitudeMeters>
            <DistanceMeters>301513.51556395</DistanceMeters>
          </Trackpoint>
          <Trackpoint>
            <Time>2018-09-14T14:45:10.000Z</Time>
            <Position>
              <LatitudeDegrees>37.66692395322024822235107421875</LatitudeDegrees>
              <LongitudeDegrees>-8.08088245801627635955810546875</LongitudeDegrees>
            </Position>
            <AltitudeMeters>211.399993896484375</AltitudeMeters>
            <DistanceMeters>301519.11650008</DistanceMeters>
          </Trackpoint>
          <Trackpoint>
            <Time>2018-09-14T14:45:11.000Z</Time>
            <Position>
              <LatitudeDegrees>37.66687332652509212493896484375</LatitudeDegrees>
              <LongitudeDegrees>-8.080884553492069244384765625</LongitudeDegrees>
            </Position>
            <AltitudeMeters>211.399993896484375</AltitudeMeters>
            <DistanceMeters>301524.75439588</DistanceMeters>
          </Trackpoint>
          <Trackpoint>
            <Time>2018-09-14T14:45:12.000Z</Time>
            <Position>
              <LatitudeDegrees>37.6668229512870311737060546875</LatitudeDegrees>
              <LongitudeDegrees>-8.08088530786335468292236328125</LongitudeDegrees>
            </Position>
            <AltitudeMeters>211.1999969482421875</AltitudeMeters>
            <DistanceMeters>301530.36258242</DistanceMeters>
          </Trackpoint>
          <Trackpoint>
            <Time>2018-09-14T14:45:13.000Z</Time>
            <Position>
              <LatitudeDegrees>37.6667721569538116455078125</LatitudeDegrees>
              <LongitudeDegrees>-8.0808870680630207061767578125</LongitudeDegrees>
            </Position>
            <AltitudeMeters>211.1999969482421875</AltitudeMeters>
            <DistanceMeters>301536.01806921</DistanceMeters>
          </Trackpoint>
          <Trackpoint>
            <Time>2018-09-14T14:45:14.000Z</Time>
            <Position>
              <LatitudeDegrees>37.666720859706401824951171875</LatitudeDegrees>
              <LongitudeDegrees>-8.08088916353881359100341796875</LongitudeDegrees>
            </Position>
            <AltitudeMeters>211</AltitudeMeters>
            <DistanceMeters>301541.72995735</DistanceMeters>
          </Trackpoint>
          <Trackpoint>
            <Time>2018-09-14T14:45:15.000Z</Time>
            <Position>
              <LatitudeDegrees>37.66666964627802371978759765625</LatitudeDegrees>
              <LongitudeDegrees>-8.08089050464332103729248046875</LongitudeDegrees>
            </Position>
            <AltitudeMeters>211.1999969482421875</AltitudeMeters>
            <DistanceMeters>301547.43076827</DistanceMeters>
          </Trackpoint>
          <Trackpoint>
            <Time>2018-09-14T14:45:16.000Z</Time>
            <Position>
              <LatitudeDegrees>37.66661901958286762237548828125</LatitudeDegrees>
              <LongitudeDegrees>-8.0808917619287967681884765625</LongitudeDegrees>
            </Position>
            <AltitudeMeters>211.1999969482421875</AltitudeMeters>
            <DistanceMeters>301553.06626105</DistanceMeters>
          </Trackpoint>
          <Trackpoint>
            <Time>2018-09-14T14:45:17.000Z</Time>
            <Position>
              <LatitudeDegrees>37.66656822524964809417724609375</LatitudeDegrees>
              <LongitudeDegrees>-8.080892264842987060546875</LongitudeDegrees>
            </Position>
            <AltitudeMeters>211.1999969482421875</AltitudeMeters>
            <DistanceMeters>301558.72015091</DistanceMeters>
          </Trackpoint>
          <Trackpoint>
            <Time>2018-09-14T14:45:18.000Z</Time>
            <Position>
              <LatitudeDegrees>37.66651801764965057373046875</LatitudeDegrees>
              <LongitudeDegrees>-8.08089301921427249908447265625</LongitudeDegrees>
            </Position>
            <AltitudeMeters>211.1999969482421875</AltitudeMeters>
            <DistanceMeters>301564.30978995</DistanceMeters>
          </Trackpoint>
          <Trackpoint>
            <Time>2018-09-14T14:45:19.000Z</Time>
            <Position>
              <LatitudeDegrees>37.666468061506748199462890625</LatitudeDegrees>
              <LongitudeDegrees>-8.08089536614716053009033203125</LongitudeDegrees>
            </Position>
            <AltitudeMeters>211.1999969482421875</AltitudeMeters>
            <DistanceMeters>301569.87352089</DistanceMeters>
          </Trackpoint>
          <Trackpoint>
            <Time>2018-09-14T14:45:20.000Z</Time>
            <Position>
              <LatitudeDegrees>37.66641617752611637115478515625</LatitudeDegrees>
              <LongitudeDegrees>-8.08089704252779483795166015625</LongitudeDegrees>
            </Position>
            <AltitudeMeters>211.1999969482421875</AltitudeMeters>
            <DistanceMeters>301575.65142645</DistanceMeters>
          </Trackpoint>
          <Trackpoint>
            <Time>2018-09-14T14:45:21.000Z</Time>
            <Position>
              <LatitudeDegrees>37.66636353917419910430908203125</LatitudeDegrees>
              <LongitudeDegrees>-8.080899976193904876708984375</LongitudeDegrees>
            </Position>
            <AltitudeMeters>211.1999969482421875</AltitudeMeters>
            <DistanceMeters>301581.51696916</DistanceMeters>
          </Trackpoint>
          <Trackpoint>
            <Time>2018-09-14T14:45:22.000Z</Time>
            <Position>
              <LatitudeDegrees>37.666311152279376983642578125</LatitudeDegrees>
              <LongitudeDegrees>-8.080903328955173492431640625</LongitudeDegrees>
            </Position>
            <AltitudeMeters>211.1999969482421875</AltitudeMeters>
            <DistanceMeters>301587.35473487</DistanceMeters>
          </Trackpoint>
          <Trackpoint>
            <Time>2018-09-14T14:45:23.000Z</Time>
            <Position>
              <LatitudeDegrees>37.666258849203586578369140625</LatitudeDegrees>
              <LongitudeDegrees>-8.08090441860258579254150390625</LongitudeDegrees>
            </Position>
            <AltitudeMeters>211.1999969482421875</AltitudeMeters>
            <DistanceMeters>301593.17701165</DistanceMeters>
          </Trackpoint>
          <Trackpoint>
            <Time>2018-09-14T14:45:24.000Z</Time>
            <Position>
              <LatitudeDegrees>37.66620646230876445770263671875</LatitudeDegrees>
              <LongitudeDegrees>-8.080904670059680938720703125</LongitudeDegrees>
            </Position>
            <AltitudeMeters>211.1999969482421875</AltitudeMeters>
            <DistanceMeters>301599.00781244</DistanceMeters>
          </Trackpoint>
          <Trackpoint>
            <Time>2018-09-14T14:45:25.000Z</Time>
            <Position>
              <LatitudeDegrees>37.66615390777587890625</LatitudeDegrees>
              <LongitudeDegrees>-8.080904670059680938720703125</LongitudeDegrees>
            </Position>
            <AltitudeMeters>211.1999969482421875</AltitudeMeters>
            <DistanceMeters>301604.85793976</DistanceMeters>
          </Trackpoint>
          <Trackpoint>
            <Time>2018-09-14T14:45:26.000Z</Time>
            <Position>
              <LatitudeDegrees>37.66610252670943737030029296875</LatitudeDegrees>
              <LongitudeDegrees>-8.08090676553547382354736328125</LongitudeDegrees>
            </Position>
            <AltitudeMeters>211.1999969482421875</AltitudeMeters>
            <DistanceMeters>301610.58009471</DistanceMeters>
          </Trackpoint>
          <Trackpoint>
            <Time>2018-09-14T14:45:27.000Z</Time>
            <Position>
              <LatitudeDegrees>37.666050978004932403564453125</LatitudeDegrees>
              <LongitudeDegrees>-8.0809095315635204315185546875</LongitudeDegrees>
            </Position>
            <AltitudeMeters>211</AltitudeMeters>
            <DistanceMeters>301616.32272818</DistanceMeters>
          </Trackpoint>
          <Trackpoint>
            <Time>2018-09-14T14:45:28.000Z</Time>
            <Position>
              <LatitudeDegrees>37.6659996807575225830078125</LatitudeDegrees>
              <LongitudeDegrees>-8.08091246522963047027587890625</LongitudeDegrees>
            </Position>
            <AltitudeMeters>211</AltitudeMeters>
            <DistanceMeters>301622.0377773</DistanceMeters>
          </Trackpoint>
          <Trackpoint>
            <Time>2018-09-14T14:45:29.000Z</Time>
            <Position>
              <LatitudeDegrees>37.665949054062366485595703125</LatitudeDegrees>
              <LongitudeDegrees>-8.0809150636196136474609375</LongitudeDegrees>
            </Position>
            <AltitudeMeters>211</AltitudeMeters>
            <DistanceMeters>301627.67727455</DistanceMeters>
          </Trackpoint>
          <Trackpoint>
            <Time>2018-09-14T14:45:30.000Z</Time>
            <Position>
              <LatitudeDegrees>37.66589901410043239593505859375</LatitudeDegrees>
              <LongitudeDegrees>-8.08091598562896251678466796875</LongitudeDegrees>
            </Position>
            <AltitudeMeters>211</AltitudeMeters>
            <DistanceMeters>301633.24749382</DistanceMeters>
          </Trackpoint>
          <Trackpoint>
            <Time>2018-09-14T14:45:31.000Z</Time>
            <Position>
              <LatitudeDegrees>37.6658486388623714447021484375</LatitudeDegrees>
              <LongitudeDegrees>-8.0809169076383113861083984375</LongitudeDegrees>
            </Position>
            <AltitudeMeters>211</AltitudeMeters>
            <DistanceMeters>301638.85487522</DistanceMeters>
          </Trackpoint>
          <Trackpoint>
            <Time>2018-09-14T14:45:32.000Z</Time>
            <Position>
              <LatitudeDegrees>37.66579792834818363189697265625</LatitudeDegrees>
              <LongitudeDegrees>-8.08091782964766025543212890625</LongitudeDegrees>
            </Position>
            <AltitudeMeters>211</AltitudeMeters>
            <DistanceMeters>301644.49917408</DistanceMeters>
          </Trackpoint>
          <Trackpoint>
            <Time>2018-09-14T14:45:33.000Z</Time>
            <Position>
              <LatitudeDegrees>37.66574730165302753448486328125</LatitudeDegrees>
              <LongitudeDegrees>-8.0809185840189456939697265625</LongitudeDegrees>
            </Position>
            <AltitudeMeters>211</AltitudeMeters>
            <DistanceMeters>301650.13386563</DistanceMeters>
          </Trackpoint>
          <Trackpoint>
            <Time>2018-09-14T14:45:34.000Z</Time>
            <Position>
              <LatitudeDegrees>37.6656967587769031524658203125</LatitudeDegrees>
              <LongitudeDegrees>-8.0809199251234531402587890625</LongitudeDegrees>
            </Position>
            <AltitudeMeters>211</AltitudeMeters>
            <DistanceMeters>301655.75973604</DistanceMeters>
          </Trackpoint>
          <Trackpoint>
            <Time>2018-09-14T14:45:35.000Z</Time>
            <Position>
              <LatitudeDegrees>37.665646634995937347412109375</LatitudeDegrees>
              <LongitudeDegrees>-8.08092101477086544036865234375</LongitudeDegrees>
            </Position>
            <AltitudeMeters>211</AltitudeMeters>
            <DistanceMeters>301661.33886443</DistanceMeters>
          </Trackpoint>
          <Trackpoint>
            <Time>2018-09-14T14:45:36.000Z</Time>
            <Position>
              <LatitudeDegrees>37.66559659503400325775146484375</LatitudeDegrees>
              <LongitudeDegrees>-8.08092017658054828643798828125</LongitudeDegrees>
            </Position>
            <AltitudeMeters>211</AltitudeMeters>
            <DistanceMeters>301666.90908369</DistanceMeters>
          </Trackpoint>
          <Trackpoint>
            <Time>2018-09-14T14:45:37.000Z</Time>
            <Position>
              <LatitudeDegrees>37.66554714180529117584228515625</LatitudeDegrees>
              <LongitudeDegrees>-8.08091883547604084014892578125</LongitudeDegrees>
            </Position>
            <AltitudeMeters>211</AltitudeMeters>
            <DistanceMeters>301672.41407566</DistanceMeters>
          </Trackpoint>
          <Trackpoint>
            <Time>2018-09-14T14:45:38.000Z</Time>
            <Position>
              <LatitudeDegrees>37.6654981076717376708984375</LatitudeDegrees>
              <LongitudeDegrees>-8.08091816492378711700439453125</LongitudeDegrees>
            </Position>
            <AltitudeMeters>211</AltitudeMeters>
            <DistanceMeters>301677.87294479</DistanceMeters>
          </Trackpoint>
          <Trackpoint>
            <Time>2018-09-14T14:45:39.000Z</Time>
            <Position>
              <LatitudeDegrees>37.6654489897191524505615234375</LatitudeDegrees>
              <LongitudeDegrees>-8.080919086933135986328125</LongitudeDegrees>
            </Position>
            <AltitudeMeters>211</AltitudeMeters>
            <DistanceMeters>301683.34173014</DistanceMeters>
          </Trackpoint>
          <Trackpoint>
            <Time>2018-09-14T14:45:40.000Z</Time>
            <Position>
              <LatitudeDegrees>37.665399871766567230224609375</LatitudeDegrees>
              <LongitudeDegrees>-8.0809204280376434326171875</LongitudeDegrees>
            </Position>
            <AltitudeMeters>211</AltitudeMeters>
            <DistanceMeters>301688.81051549</DistanceMeters>
          </Trackpoint>
          <Trackpoint>
            <Time>2018-09-14T14:45:41.000Z</Time>
            <Position>
              <LatitudeDegrees>37.66535100527107715606689453125</LatitudeDegrees>
              <LongitudeDegrees>-8.080921433866024017333984375</LongitudeDegrees>
            </Position>
            <AltitudeMeters>211</AltitudeMeters>
            <DistanceMeters>301694.25115797</DistanceMeters>
          </Trackpoint>
          <Trackpoint>
            <Time>2018-09-14T14:45:42.000Z</Time>
            <Position>
              <LatitudeDegrees>37.66530297696590423583984375</LatitudeDegrees>
              <LongitudeDegrees>-8.0809242837131023406982421875</LongitudeDegrees>
            </Position>
            <AltitudeMeters>211</AltitudeMeters>
            <DistanceMeters>301699.60311112</DistanceMeters>
          </Trackpoint>
          <Trackpoint>
            <Time>2018-09-14T14:45:43.000Z</Time>
            <Position>
              <LatitudeDegrees>37.66525427810847759246826171875</LatitudeDegrees>
              <LongitudeDegrees>-8.08092839084565639495849609375</LongitudeDegrees>
            </Position>
            <AltitudeMeters>211</AltitudeMeters>
            <DistanceMeters>301705.03461733</DistanceMeters>
          </Trackpoint>
          <Trackpoint>
            <Time>2018-09-14T14:45:44.000Z</Time>
            <Position>
              <LatitudeDegrees>37.66520566307008266448974609375</LatitudeDegrees>
              <LongitudeDegrees>-8.08093107305467128753662109375</LongitudeDegrees>
            </Position>
            <AltitudeMeters>211</AltitudeMeters>
            <DistanceMeters>301710.45030642</DistanceMeters>
          </Trackpoint>
          <Trackpoint>
            <Time>2018-09-14T14:45:45.000Z</Time>
            <Position>
              <LatitudeDegrees>37.66515654511749744415283203125</LatitudeDegrees>
              <LongitudeDegrees>-8.08093274943530559539794921875</LongitudeDegrees>
            </Position>
            <AltitudeMeters>211</AltitudeMeters>
            <DistanceMeters>301715.91909176</DistanceMeters>
          </Trackpoint>
          <Trackpoint>
            <Time>2018-09-14T14:45:46.000Z</Time>
            <Position>
              <LatitudeDegrees>37.66510725952684879302978515625</LatitudeDegrees>
              <LongitudeDegrees>-8.080934174358844757080078125</LongitudeDegrees>
            </Position>
            <AltitudeMeters>211</AltitudeMeters>
            <DistanceMeters>301721.4068331</DistanceMeters>
          </Trackpoint>
          <Trackpoint>
            <Time>2018-09-14T14:45:47.000Z</Time>
            <Position>
              <LatitudeDegrees>37.66505830921232700347900390625</LatitudeDegrees>
              <LongitudeDegrees>-8.0809350125491619110107421875</LongitudeDegrees>
            </Position>
            <AltitudeMeters>211</AltitudeMeters>
            <DistanceMeters>301726.85576798</DistanceMeters>
          </Trackpoint>
          <Trackpoint>
            <Time>2018-09-14T14:45:48.000Z</Time>
            <Position>
              <LatitudeDegrees>37.66501002945005893707275390625</LatitudeDegrees>
              <LongitudeDegrees>-8.080936186015605926513671875</LongitudeDegrees>
            </Position>
            <AltitudeMeters>211.1999969482421875</AltitudeMeters>
            <DistanceMeters>301732.2296106</DistanceMeters>
          </Trackpoint>
          <Trackpoint>
            <Time>2018-09-14T14:45:49.000Z</Time>
            <Position>
              <LatitudeDegrees>37.66496233642101287841796875</LatitudeDegrees>
              <LongitudeDegrees>-8.08093761093914508819580078125</LongitudeDegrees>
            </Position>
            <AltitudeMeters>211.600006103515625</AltitudeMeters>
            <DistanceMeters>301737.53921497</DistanceMeters>
          </Trackpoint>
          <Trackpoint>
            <Time>2018-09-14T14:45:50.000Z</Time>
            <Position>
              <LatitudeDegrees>37.66491531394422054290771484375</LatitudeDegrees>
              <LongitudeDegrees>-8.08093844912946224212646484375</LongitudeDegrees>
            </Position>
            <AltitudeMeters>212</AltitudeMeters>
            <DistanceMeters>301742.7734534</DistanceMeters>
          </Trackpoint>
          <Trackpoint>
            <Time>2018-09-14T14:45:51.000Z</Time>
            <Position>
              <LatitudeDegrees>37.6648692972958087921142578125</LatitudeDegrees>
              <LongitudeDegrees>-8.08093861676752567291259765625</LongitudeDegrees>
            </Position>
            <AltitudeMeters>212.399993896484375</AltitudeMeters>
            <DistanceMeters>301747.89520819</DistanceMeters>
          </Trackpoint>
          <Trackpoint>
            <Time>2018-09-14T14:45:52.000Z</Time>
            <Position>
              <LatitudeDegrees>37.6648236997425556182861328125</LatitudeDegrees>
              <LongitudeDegrees>-8.08093945495784282684326171875</LongitudeDegrees>
            </Position>
            <AltitudeMeters>212.8000030517578125</AltitudeMeters>
            <DistanceMeters>301752.97180529</DistanceMeters>
          </Trackpoint>
          <Trackpoint>
            <Time>2018-09-14T14:45:53.000Z</Time>
            <Position>
              <LatitudeDegrees>37.6647784374654293060302734375</LatitudeDegrees>
              <LongitudeDegrees>-8.08094213716685771942138671875</LongitudeDegrees>
            </Position>
            <AltitudeMeters>213</AltitudeMeters>
            <DistanceMeters>301758.0144926</DistanceMeters>
          </Trackpoint>
          <Trackpoint>
            <Time>2018-09-14T14:45:54.000Z</Time>
            <Position>
              <LatitudeDegrees>37.66473376192152500152587890625</LatitudeDegrees>
              <LongitudeDegrees>-8.0809447355568408966064453125</LongitudeDegrees>
            </Position>
            <AltitudeMeters>213.399993896484375</AltitudeMeters>
            <DistanceMeters>301762.99229631</DistanceMeters>
          </Trackpoint>
          <Trackpoint>
            <Time>2018-09-14T14:45:55.000Z</Time>
            <Position>
              <LatitudeDegrees>37.664689756929874420166015625</LatitudeDegrees>
              <LongitudeDegrees>-8.080945909023284912109375</LongitudeDegrees>
            </Position>
            <AltitudeMeters>213.8000030517578125</AltitudeMeters>
            <DistanceMeters>301767.89147411</DistanceMeters>
          </Trackpoint>
          <Trackpoint>
            <Time>2018-09-14T14:45:56.000Z</Time>
            <Position>
              <LatitudeDegrees>37.6646460033953189849853515625</LatitudeDegrees>
              <LongitudeDegrees>-8.08094783686101436614990234375</LongitudeDegrees>
            </Position>
            <AltitudeMeters>214.1999969482421875</AltitudeMeters>
            <DistanceMeters>301772.76385248</DistanceMeters>
          </Trackpoint>
          <Trackpoint>
            <Time>2018-09-14T14:45:57.000Z</Time>
            <Position>
              <LatitudeDegrees>37.6646022498607635498046875</LatitudeDegrees>
              <LongitudeDegrees>-8.08094884268939495086669921875</LongitudeDegrees>
            </Position>
            <AltitudeMeters>214.600006103515625</AltitudeMeters>
            <DistanceMeters>301777.6353041</DistanceMeters>
          </Trackpoint>
          <Trackpoint>
            <Time>2018-09-14T14:45:58.000Z</Time>
            <Position>
              <LatitudeDegrees>37.664558999240398406982421875</LatitudeDegrees>
              <LongitudeDegrees>-8.08094901032745838165283203125</LongitudeDegrees>
            </Position>
            <AltitudeMeters>215</AltitudeMeters>
            <DistanceMeters>301782.44894889</DistanceMeters>
          </Trackpoint>
          <Trackpoint>
            <Time>2018-09-14T14:45:59.000Z</Time>
            <Position>
              <LatitudeDegrees>37.66451667062938213348388671875</LatitudeDegrees>
              <LongitudeDegrees>-8.080950938165187835693359375</LongitudeDegrees>
            </Position>
            <AltitudeMeters>215.1999969482421875</AltitudeMeters>
            <DistanceMeters>301787.16403619</DistanceMeters>
          </Trackpoint>
          <Trackpoint>
            <Time>2018-09-14T14:46:00.000Z</Time>
            <Position>
              <LatitudeDegrees>37.66447375528514385223388671875</LatitudeDegrees>
              <LongitudeDegrees>-8.08095336891710758209228515625</LongitudeDegrees>
            </Position>
            <AltitudeMeters>215.600006103515625</AltitudeMeters>
            <DistanceMeters>301791.94568377</DistanceMeters>
          </Trackpoint>
          <Trackpoint>
            <Time>2018-09-14T14:46:01.000Z</Time>
            <Position>
              <LatitudeDegrees>37.6644317619502544403076171875</LatitudeDegrees>
              <LongitudeDegrees>-8.08095471002161502838134765625</LongitudeDegrees>
            </Position>
            <AltitudeMeters>216</AltitudeMeters>
            <DistanceMeters>301796.62038001</DistanceMeters>
          </Trackpoint>
          <Trackpoint>
            <Time>2018-09-14T14:46:02.000Z</Time>
            <Position>
              <LatitudeDegrees>37.66439043916761875152587890625</LatitudeDegrees>
              <LongitudeDegrees>-8.0809552967548370361328125</LongitudeDegrees>
            </Position>
            <AltitudeMeters>216.399993896484375</AltitudeMeters>
            <DistanceMeters>301801.21912321</DistanceMeters>
          </Trackpoint>
          <Trackpoint>
            <Time>2018-09-14T14:46:03.000Z</Time>
            <Position>
              <LatitudeDegrees>37.66434936784207820892333984375</LatitudeDegrees>
              <LongitudeDegrees>-8.080956637859344482421875</LongitudeDegrees>
            </Position>
            <AltitudeMeters>216.600006103515625</AltitudeMeters>
            <DistanceMeters>301805.79128102</DistanceMeters>
          </Trackpoint>
          <Trackpoint>
            <Time>2018-09-14T14:46:04.000Z</Time>
            <Position>
              <LatitudeDegrees>37.6643085479736328125</LatitudeDegrees>
              <LongitudeDegrees>-8.08095789514482021331787109375</LongitudeDegrees>
            </Position>
            <AltitudeMeters>217</AltitudeMeters>
            <DistanceMeters>301810.33669793</DistanceMeters>
          </Trackpoint>
          <Trackpoint>
            <Time>2018-09-14T14:46:05.000Z</Time>
            <Position>
              <LatitudeDegrees>37.66426722519099712371826171875</LatitudeDegrees>
              <LongitudeDegrees>-8.0809578113257884979248046875</LongitudeDegrees>
            </Position>
            <AltitudeMeters>217.399993896484375</AltitudeMeters>
            <DistanceMeters>301814.93642282</DistanceMeters>
          </Trackpoint>
          <Trackpoint>
            <Time>2018-09-14T14:46:06.000Z</Time>
            <Position>
              <LatitudeDegrees>37.664226405322551727294921875</LatitudeDegrees>
              <LongitudeDegrees>-8.080957643687725067138671875</LongitudeDegrees>
            </Position>
            <AltitudeMeters>217.8000030517578125</AltitudeMeters>
            <DistanceMeters>301819.47985267</DistanceMeters>
          </Trackpoint>
          <Trackpoint>
            <Time>2018-09-14T14:46:07.000Z</Time>
            <Position>
              <LatitudeDegrees>37.66418625600636005401611328125</LatitudeDegrees>
              <LongitudeDegrees>-8.08095823042094707489013671875</LongitudeDegrees>
            </Position>
            <AltitudeMeters>218</AltitudeMeters>
            <DistanceMeters>301823.94812963</DistanceMeters>
          </Trackpoint>
          <Trackpoint>
            <Time>2018-09-14T14:46:08.000Z</Time>
            <Position>
              <LatitudeDegrees>37.66414702869951725006103515625</LatitudeDegrees>
              <LongitudeDegrees>-8.08095655404031276702880859375</LongitudeDegrees>
            </Position>
            <AltitudeMeters>218.1999969482421875</AltitudeMeters>
            <DistanceMeters>301828.31729221</DistanceMeters>
          </Trackpoint>
          <Trackpoint>
            <Time>2018-09-14T14:46:09.000Z</Time>
            <Position>
              <LatitudeDegrees>37.6641085557639598846435546875</LatitudeDegrees>
              <LongitudeDegrees>-8.08095638640224933624267578125</LongitudeDegrees>
            </Position>
            <AltitudeMeters>218.399993896484375</AltitudeMeters>
            <DistanceMeters>301832.59982478</DistanceMeters>
          </Trackpoint>
          <Trackpoint>
            <Time>2018-09-14T14:46:10.000Z</Time>
            <Position>
              <LatitudeDegrees>37.6640706695616245269775390625</LatitudeDegrees>
              <LongitudeDegrees>-8.08095655404031276702880859375</LongitudeDegrees>
            </Position>
            <AltitudeMeters>218.399993896484375</AltitudeMeters>
            <DistanceMeters>301836.81541376</DistanceMeters>
          </Trackpoint>
          <Trackpoint>
            <Time>2018-09-14T14:46:11.000Z</Time>
            <Position>
              <LatitudeDegrees>37.6640336215496063232421875</LatitudeDegrees>
              <LongitudeDegrees>-8.08095605112612247467041015625</LongitudeDegrees>
            </Position>
            <AltitudeMeters>218.600006103515625</AltitudeMeters>
            <DistanceMeters>301840.93896004</DistanceMeters>
          </Trackpoint>
          <Trackpoint>
            <Time>2018-09-14T14:46:12.000Z</Time>
            <Position>
              <LatitudeDegrees>37.6639975793659687042236328125</LatitudeDegrees>
              <LongitudeDegrees>-8.080958314239978790283203125</LongitudeDegrees>
            </Position>
            <AltitudeMeters>218.600006103515625</AltitudeMeters>
            <DistanceMeters>301844.95489288</DistanceMeters>
          </Trackpoint>
          <Trackpoint>
            <Time>2018-09-14T14:46:13.000Z</Time>
            <Position>
              <LatitudeDegrees>37.6639623753726482391357421875</LatitudeDegrees>
              <LongitudeDegrees>-8.08095705695450305938720703125</LongitudeDegrees>
            </Position>
            <AltitudeMeters>218.8000030517578125</AltitudeMeters>
            <DistanceMeters>301848.87409688</DistanceMeters>
          </Trackpoint>
          <Trackpoint>
            <Time>2018-09-14T14:46:14.000Z</Time>
            <Position>
              <LatitudeDegrees>37.66392742283642292022705078125</LatitudeDegrees>
              <LongitudeDegrees>-8.08095806278288364410400390625</LongitudeDegrees>
            </Position>
            <AltitudeMeters>218.8000030517578125</AltitudeMeters>
            <DistanceMeters>301852.76439354</DistanceMeters>
          </Trackpoint>
          <Trackpoint>
            <Time>2018-09-14T14:46:15.000Z</Time>
            <Position>
              <LatitudeDegrees>37.66389272175729274749755859375</LatitudeDegrees>
              <LongitudeDegrees>-8.080960325896739959716796875</LongitudeDegrees>
            </Position>
            <AltitudeMeters>219</AltitudeMeters>
            <DistanceMeters>301856.63140875</DistanceMeters>
          </Trackpoint>
          <Trackpoint>
            <Time>2018-09-14T14:46:16.000Z</Time>
            <Position>
              <LatitudeDegrees>37.66385852359235286712646484375</LatitudeDegrees>
              <LongitudeDegrees>-8.08096267282962799072265625</LongitudeDegrees>
            </Position>
            <AltitudeMeters>219</AltitudeMeters>
            <DistanceMeters>301860.44196815</DistanceMeters>
          </Trackpoint>
          <Trackpoint>
            <Time>2018-09-14T14:46:17.000Z</Time>
            <Position>
              <LatitudeDegrees>37.663824744522571563720703125</LatitudeDegrees>
              <LongitudeDegrees>-8.08096476830542087554931640625</LongitudeDegrees>
            </Position>
            <AltitudeMeters>219</AltitudeMeters>
            <DistanceMeters>301864.20603376</DistanceMeters>
          </Trackpoint>
          <Trackpoint>
            <Time>2018-09-14T14:46:18.000Z</Time>
            <Position>
              <LatitudeDegrees>37.66379063017666339874267578125</LatitudeDegrees>
              <LongitudeDegrees>-8.08096669614315032958984375</LongitudeDegrees>
            </Position>
            <AltitudeMeters>219.1999969482421875</AltitudeMeters>
            <DistanceMeters>301868.00710233</DistanceMeters>
          </Trackpoint>
          <Trackpoint>
            <Time>2018-09-14T14:46:19.000Z</Time>
            <Position>
              <LatitudeDegrees>37.66375609673559665679931640625</LatitudeDegrees>
              <LongitudeDegrees>-8.08096761815249919891357421875</LongitudeDegrees>
            </Position>
            <AltitudeMeters>219.1999969482421875</AltitudeMeters>
            <DistanceMeters>301871.85304373</DistanceMeters>
          </Trackpoint>
          <Trackpoint>
            <Time>2018-09-14T14:46:20.000Z</Time>
            <Position>
              <LatitudeDegrees>37.66372181475162506103515625</LatitudeDegrees>
              <LongitudeDegrees>-8.0809700489044189453125</LongitudeDegrees>
            </Position>
            <AltitudeMeters>219.399993896484375</AltitudeMeters>
            <DistanceMeters>301875.67543352</DistanceMeters>
          </Trackpoint>
          <Trackpoint>
            <Time>2018-09-14T14:46:21.000Z</Time>
            <Position>
              <LatitudeDegrees>37.66368694603443145751953125</LatitudeDegrees>
              <LongitudeDegrees>-8.080971725285053253173828125</LongitudeDegrees>
            </Position>
            <AltitudeMeters>219.399993896484375</AltitudeMeters>
            <DistanceMeters>301879.5599229</DistanceMeters>
          </Trackpoint>
          <Trackpoint>
            <Time>2018-09-14T14:46:22.000Z</Time>
            <Position>
              <LatitudeDegrees>37.66365132294595241546630859375</LatitudeDegrees>
              <LongitudeDegrees>-8.08097231201827526092529296875</LongitudeDegrees>
            </Position>
            <AltitudeMeters>219.600006103515625</AltitudeMeters>
            <DistanceMeters>301883.52380143</DistanceMeters>
          </Trackpoint>
          <Trackpoint>
            <Time>2018-09-14T14:46:23.000Z</Time>
            <Position>
              <LatitudeDegrees>37.663616202771663665771484375</LatitudeDegrees>
              <LongitudeDegrees>-8.08097206056118011474609375</LongitudeDegrees>
            </Position>
            <AltitudeMeters>219.600006103515625</AltitudeMeters>
            <DistanceMeters>301887.43262342</DistanceMeters>
          </Trackpoint>
          <Trackpoint>
            <Time>2018-09-14T14:46:24.000Z</Time>
            <Position>
              <LatitudeDegrees>37.6635811664164066314697265625</LatitudeDegrees>
              <LongitudeDegrees>-8.08097331784665584564208984375</LongitudeDegrees>
            </Position>
            <AltitudeMeters>219.8000030517578125</AltitudeMeters>
            <DistanceMeters>301891.3333514</DistanceMeters>
          </Trackpoint>
          <Trackpoint>
            <Time>2018-09-14T14:46:25.000Z</Time>
            <Position>
              <LatitudeDegrees>37.66354621388018131256103515625</LatitudeDegrees>
              <LongitudeDegrees>-8.08097499422729015350341796875</LongitudeDegrees>
            </Position>
            <AltitudeMeters>219.8000030517578125</AltitudeMeters>
            <DistanceMeters>301895.22596855</DistanceMeters>
          </Trackpoint>
          <Trackpoint>
            <Time>2018-09-14T14:46:26.000Z</Time>
            <Position>
              <LatitudeDegrees>37.66351126134395599365234375</LatitudeDegrees>
              <LongitudeDegrees>-8.080975078046321868896484375</LongitudeDegrees>
            </Position>
            <AltitudeMeters>220</AltitudeMeters>
            <DistanceMeters>301899.11626521</DistanceMeters>
          </Trackpoint>
          <Trackpoint>
            <Time>2018-09-14T14:46:27.000Z</Time>
            <Position>
              <LatitudeDegrees>37.6634765602648258209228515625</LatitudeDegrees>
              <LongitudeDegrees>-8.08097600005567073822021484375</LongitudeDegrees>
            </Position>
            <AltitudeMeters>220</AltitudeMeters>
            <DistanceMeters>301902.98094456</DistanceMeters>
          </Trackpoint>
          <Trackpoint>
            <Time>2018-09-14T14:46:28.000Z</Time>
            <Position>
              <LatitudeDegrees>37.6634420268237590789794921875</LatitudeDegrees>
              <LongitudeDegrees>-8.08097742497920989990234375</LongitudeDegrees>
            </Position>
            <AltitudeMeters>220</AltitudeMeters>
            <DistanceMeters>301906.82688595</DistanceMeters>
          </Trackpoint>
          <Trackpoint>
            <Time>2018-09-14T14:46:29.000Z</Time>
            <Position>
              <LatitudeDegrees>37.6634078286588191986083984375</LatitudeDegrees>
              <LongitudeDegrees>-8.08097901754081249237060546875</LongitudeDegrees>
            </Position>
            <AltitudeMeters>220.1999969482421875</AltitudeMeters>
            <DistanceMeters>301910.63507486</DistanceMeters>
          </Trackpoint>
          <Trackpoint>
            <Time>2018-09-14T14:46:30.000Z</Time>
            <Position>
              <LatitudeDegrees>37.663373462855815887451171875</LatitudeDegrees>
              <LongitudeDegrees>-8.0809806101024150848388671875</LongitudeDegrees>
            </Position>
            <AltitudeMeters>220.1999969482421875</AltitudeMeters>
            <DistanceMeters>301914.46218656</DistanceMeters>
          </Trackpoint>
          <Trackpoint>
            <Time>2018-09-14T14:46:31.000Z</Time>
            <Position>
              <LatitudeDegrees>37.6633389294147491455078125</LatitudeDegrees>
              <LongitudeDegrees>-8.080981113016605377197265625</LongitudeDegrees>
            </Position>
            <AltitudeMeters>220.399993896484375</AltitudeMeters>
            <DistanceMeters>301918.30577929</DistanceMeters>
          </Trackpoint>
          <Trackpoint>
            <Time>2018-09-14T14:46:32.000Z</Time>
            <Position>
              <LatitudeDegrees>37.6633042283356189727783203125</LatitudeDegrees>
              <LongitudeDegrees>-8.08098253794014453887939453125</LongitudeDegrees>
            </Position>
            <AltitudeMeters>220.600006103515625</AltitudeMeters>
            <DistanceMeters>301922.17045864</DistanceMeters>
          </Trackpoint>
          <Trackpoint>
            <Time>2018-09-14T14:46:33.000Z</Time>
            <Position>
              <LatitudeDegrees>37.6632691919803619384765625</LatitudeDegrees>
              <LongitudeDegrees>-8.0809839628636837005615234375</LongitudeDegrees>
            </Position>
            <AltitudeMeters>220.600006103515625</AltitudeMeters>
            <DistanceMeters>301926.07234394</DistanceMeters>
          </Trackpoint>
          <Trackpoint>
            <Time>2018-09-14T14:46:34.000Z</Time>
            <Position>
              <LatitudeDegrees>37.6632344909012317657470703125</LatitudeDegrees>
              <LongitudeDegrees>-8.08098454959690570831298828125</LongitudeDegrees>
            </Position>
            <AltitudeMeters>220.600006103515625</AltitudeMeters>
            <DistanceMeters>301929.93468601</DistanceMeters>
          </Trackpoint>
          <Trackpoint>
            <Time>2018-09-14T14:46:35.000Z</Time>
            <Position>
              <LatitudeDegrees>37.663200460374355316162109375</LatitudeDegrees>
              <LongitudeDegrees>-8.0809853039681911468505859375</LongitudeDegrees>
            </Position>
            <AltitudeMeters>220.600006103515625</AltitudeMeters>
            <DistanceMeters>301933.72266588</DistanceMeters>
          </Trackpoint>
          <Trackpoint>
            <Time>2018-09-14T14:46:36.000Z</Time>
            <Position>
              <LatitudeDegrees>37.66316525638103485107421875</LatitudeDegrees>
              <LongitudeDegrees>-8.080985806882381439208984375</LongitudeDegrees>
            </Position>
            <AltitudeMeters>220.600006103515625</AltitudeMeters>
            <DistanceMeters>301937.64071768</DistanceMeters>
          </Trackpoint>
          <Trackpoint>
            <Time>2018-09-14T14:46:37.000Z</Time>
            <Position>
              <LatitudeDegrees>37.6631298847496509552001953125</LatitudeDegrees>
              <LongitudeDegrees>-8.08098639361560344696044921875</LongitudeDegrees>
            </Position>
            <AltitudeMeters>220.600006103515625</AltitudeMeters>
            <DistanceMeters>301941.57831101</DistanceMeters>
          </Trackpoint>
          <Trackpoint>
            <Time>2018-09-14T14:46:38.000Z</Time>
            <Position>
              <LatitudeDegrees>37.66309409402310848236083984375</LatitudeDegrees>
              <LongitudeDegrees>-8.0809863097965717315673828125</LongitudeDegrees>
            </Position>
            <AltitudeMeters>220.600006103515625</AltitudeMeters>
            <DistanceMeters>301945.56263961</DistanceMeters>
          </Trackpoint>
          <Trackpoint>
            <Time>2018-09-14T14:46:39.000Z</Time>
            <Position>
              <LatitudeDegrees>37.66305796802043914794921875</LatitudeDegrees>
              <LongitudeDegrees>-8.0809869803488254547119140625</LongitudeDegrees>
            </Position>
            <AltitudeMeters>220.600006103515625</AltitudeMeters>
            <DistanceMeters>301949.58418993</DistanceMeters>
          </Trackpoint>
          <Trackpoint>
            <Time>2018-09-14T14:46:40.000Z</Time>
            <Position>
              <LatitudeDegrees>37.66302234493196010589599609375</LatitudeDegrees>
              <LongitudeDegrees>-8.08098890818655490875244140625</LongitudeDegrees>
            </Position>
            <AltitudeMeters>220.600006103515625</AltitudeMeters>
            <DistanceMeters>301953.55262202</DistanceMeters>
          </Trackpoint>
          <Trackpoint>
            <Time>2018-09-14T14:46:41.000Z</Time>
            <Position>
              <LatitudeDegrees>37.66298596747219562530517578125</LatitudeDegrees>
              <LongitudeDegrees>-8.08098907582461833953857421875</LongitudeDegrees>
            </Position>
            <AltitudeMeters>220.600006103515625</AltitudeMeters>
            <DistanceMeters>301957.59991231</DistanceMeters>
          </Trackpoint>
          <Trackpoint>
            <Time>2018-09-14T14:46:42.000Z</Time>
            <Position>
              <LatitudeDegrees>37.66294908709824085235595703125</LatitudeDegrees>
              <LongitudeDegrees>-8.08098907582461833953857421875</LongitudeDegrees>
            </Position>
            <AltitudeMeters>220.600006103515625</AltitudeMeters>
            <DistanceMeters>301961.7048024</DistanceMeters>
          </Trackpoint>
          <Trackpoint>
            <Time>2018-09-14T14:46:43.000Z</Time>
            <Position>
              <LatitudeDegrees>37.66291187144815921783447265625</LatitudeDegrees>
              <LongitudeDegrees>-8.08099075220525264739990234375</LongitudeDegrees>
            </Position>
            <AltitudeMeters>220.600006103515625</AltitudeMeters>
            <DistanceMeters>301965.85127868</DistanceMeters>
          </Trackpoint>
          <Trackpoint>
            <Time>2018-09-14T14:46:44.000Z</Time>
            <Position>
              <LatitudeDegrees>37.6628737337887287139892578125</LatitudeDegrees>
              <LongitudeDegrees>-8.0809923447668552398681640625</LongitudeDegrees>
            </Position>
            <AltitudeMeters>220.600006103515625</AltitudeMeters>
            <DistanceMeters>301970.09781405</DistanceMeters>
          </Trackpoint>
          <Trackpoint>
            <Time>2018-09-14T14:46:45.000Z</Time>
            <Position>
              <LatitudeDegrees>37.66283509321510791778564453125</LatitudeDegrees>
              <LongitudeDegrees>-8.08099326677620410919189453125</LongitudeDegrees>
            </Position>
            <AltitudeMeters>220.600006103515625</AltitudeMeters>
            <DistanceMeters>301974.39928202</DistanceMeters>
          </Trackpoint>
          <Trackpoint>
            <Time>2018-09-14T14:46:46.000Z</Time>
            <Position>
              <LatitudeDegrees>37.66279586590826511383056640625</LatitudeDegrees>
              <LongitudeDegrees>-8.08099410496652126312255859375</LongitudeDegrees>
            </Position>
            <AltitudeMeters>220.600006103515625</AltitudeMeters>
            <DistanceMeters>301978.76637733</DistanceMeters>
          </Trackpoint>
          <Trackpoint>
            <Time>2018-09-14T14:46:47.000Z</Time>
            <Position>
              <LatitudeDegrees>37.66275621950626373291015625</LatitudeDegrees>
              <LongitudeDegrees>-8.08099485933780670166015625</LongitudeDegrees>
            </Position>
            <AltitudeMeters>220.600006103515625</AltitudeMeters>
            <DistanceMeters>301983.18077479</DistanceMeters>
          </Trackpoint>
          <Trackpoint>
            <Time>2018-09-14T14:46:48.000Z</Time>
            <Position>
              <LatitudeDegrees>37.66271598637104034423828125</LatitudeDegrees>
              <LongitudeDegrees>-8.08099611662328243255615234375</LongitudeDegrees>
            </Position>
            <AltitudeMeters>220.600006103515625</AltitudeMeters>
            <DistanceMeters>301987.66015308</DistanceMeters>
          </Trackpoint>
          <Trackpoint>
            <Time>2018-09-14T14:46:49.000Z</Time>
            <Position>
              <LatitudeDegrees>37.662675417959690093994140625</LatitudeDegrees>
              <LongitudeDegrees>-8.0809990502893924713134765625</LongitudeDegrees>
            </Position>
            <AltitudeMeters>220.600006103515625</AltitudeMeters>
            <DistanceMeters>301992.18366424</DistanceMeters>
          </Trackpoint>
          <Trackpoint>
            <Time>2018-09-14T14:46:50.000Z</Time>
            <Position>
              <LatitudeDegrees>37.66263417899608612060546875</LatitudeDegrees>
              <LongitudeDegrees>-8.08100198395550251007080078125</LongitudeDegrees>
            </Position>
            <AltitudeMeters>220.600006103515625</AltitudeMeters>
            <DistanceMeters>301996.78142554</DistanceMeters>
          </Trackpoint>
          <Trackpoint>
            <Time>2018-09-14T14:46:51.000Z</Time>
            <Position>
              <LatitudeDegrees>37.66259218566119670867919921875</LatitudeDegrees>
              <LongitudeDegrees>-8.081002570688724517822265625</LongitudeDegrees>
            </Position>
            <AltitudeMeters>220.600006103515625</AltitudeMeters>
            <DistanceMeters>302001.45418969</DistanceMeters>
          </Trackpoint>
          <Trackpoint>
            <Time>2018-09-14T14:46:52.000Z</Time>
            <Position>
              <LatitudeDegrees>37.662550024688243865966796875</LatitudeDegrees>
              <LongitudeDegrees>-8.08100265450775623321533203125</LongitudeDegrees>
            </Position>
            <AltitudeMeters>220.8000030517578125</AltitudeMeters>
            <DistanceMeters>302006.14623896</DistanceMeters>
          </Trackpoint>
          <Trackpoint>
            <Time>2018-09-14T14:46:53.000Z</Time>
            <Position>
              <LatitudeDegrees>37.66250769607722759246826171875</LatitudeDegrees>
              <LongitudeDegrees>-8.08100290596485137939453125</LongitudeDegrees>
            </Position>
            <AltitudeMeters>220.8000030517578125</AltitudeMeters>
            <DistanceMeters>302010.85749441</DistanceMeters>
          </Trackpoint>
          <Trackpoint>
            <Time>2018-09-14T14:46:54.000Z</Time>
            <Position>
              <LatitudeDegrees>37.66246578656136989593505859375</LatitudeDegrees>
              <LongitudeDegrees>-8.08100449852645397186279296875</LongitudeDegrees>
            </Position>
            <AltitudeMeters>221</AltitudeMeters>
            <DistanceMeters>302015.52348994</DistanceMeters>
          </Trackpoint>
          <Trackpoint>
            <Time>2018-09-14T14:46:55.000Z</Time>
            <Position>
              <LatitudeDegrees>37.66242303885519504547119140625</LatitudeDegrees>
              <LongitudeDegrees>-8.0810064263641834259033203125</LongitudeDegrees>
            </Position>
            <AltitudeMeters>221.1999969482421875</AltitudeMeters>
            <DistanceMeters>302020.28337038</DistanceMeters>
          </Trackpoint>
          <Trackpoint>
            <Time>2018-09-14T14:46:56.000Z</Time>
            <Position>
              <LatitudeDegrees>37.66237945295870304107666015625</LatitudeDegrees>
              <LongitudeDegrees>-8.08100734837353229522705078125</LongitudeDegrees>
            </Position>
            <AltitudeMeters>221.1999969482421875</AltitudeMeters>
            <DistanceMeters>302025.1353194</DistanceMeters>
          </Trackpoint>
          <Trackpoint>
            <Time>2018-09-14T14:46:57.000Z</Time>
            <Position>
              <LatitudeDegrees>37.66233519650995731353759765625</LatitudeDegrees>
              <LongitudeDegrees>-8.08100827038288116455078125</LongitudeDegrees>
            </Position>
            <AltitudeMeters>221.399993896484375</AltitudeMeters>
            <DistanceMeters>302030.06206737</DistanceMeters>
          </Trackpoint>
          <Trackpoint>
            <Time>2018-09-14T14:46:58.000Z</Time>
            <Position>
              <LatitudeDegrees>37.66229152679443359375</LatitudeDegrees>
              <LongitudeDegrees>-8.08100986294448375701904296875</LongitudeDegrees>
            </Position>
            <AltitudeMeters>221.600006103515625</AltitudeMeters>
            <DistanceMeters>302034.92517031</DistanceMeters>
          </Trackpoint>
          <Trackpoint>
            <Time>2018-09-14T14:46:59.000Z</Time>
            <Position>
              <LatitudeDegrees>37.6622474379837512969970703125</LatitudeDegrees>
              <LongitudeDegrees>-8.08101271279156208038330078125</LongitudeDegrees>
            </Position>
            <AltitudeMeters>221.8000030517578125</AltitudeMeters>
            <DistanceMeters>302039.83907145</DistanceMeters>
          </Trackpoint>
          <Trackpoint>
            <Time>2018-09-14T14:47:00.000Z</Time>
            <Position>
              <LatitudeDegrees>37.66220276243984699249267578125</LatitudeDegrees>
              <LongitudeDegrees>-8.0810141377151012420654296875</LongitudeDegrees>
            </Position>
            <AltitudeMeters>222</AltitudeMeters>
            <DistanceMeters>302044.81324569</DistanceMeters>
          </Trackpoint>
          <Trackpoint>
            <Time>2018-09-14T14:47:01.000Z</Time>
            <Position>
              <LatitudeDegrees>37.66215817071497440338134765625</LatitudeDegrees>
              <LongitudeDegrees>-8.08101589791476726531982421875</LongitudeDegrees>
            </Position>
            <AltitudeMeters>222.1999969482421875</AltitudeMeters>
            <DistanceMeters>302049.77924396</DistanceMeters>
          </Trackpoint>
          <Trackpoint>
            <Time>2018-09-14T14:47:02.000Z</Time>
            <Position>
              <LatitudeDegrees>37.6621136628091335296630859375</LatitudeDegrees>
              <LongitudeDegrees>-8.0810181610286235809326171875</LongitudeDegrees>
            </Position>
            <AltitudeMeters>222.399993896484375</AltitudeMeters>
            <DistanceMeters>302054.73705276</DistanceMeters>
          </Trackpoint>
          <Trackpoint>
            <Time>2018-09-14T14:47:03.000Z</Time>
            <Position>
              <LatitudeDegrees>37.66206932254135608673095703125</LatitudeDegrees>
              <LongitudeDegrees>-8.08101958595216274261474609375</LongitudeDegrees>
            </Position>
            <AltitudeMeters>222.600006103515625</AltitudeMeters>
            <DistanceMeters>302059.67478568</DistanceMeters>
          </Trackpoint>
          <Trackpoint>
            <Time>2018-09-14T14:47:04.000Z</Time>
            <Position>
              <LatitudeDegrees>37.66202422790229320526123046875</LatitudeDegrees>
              <LongitudeDegrees>-8.0810208432376384735107421875</LongitudeDegrees>
            </Position>
            <AltitudeMeters>222.600006103515625</AltitudeMeters>
            <DistanceMeters>302064.69593828</DistanceMeters>
          </Trackpoint>
          <Trackpoint>
            <Time>2018-09-14T14:47:05.000Z</Time>
            <Position>
              <LatitudeDegrees>37.66197930090129375457763671875</LatitudeDegrees>
              <LongitudeDegrees>-8.081021346151828765869140625</LongitudeDegrees>
            </Position>
            <AltitudeMeters>222.8000030517578125</AltitudeMeters>
            <DistanceMeters>302069.69726928</DistanceMeters>
          </Trackpoint>
          <Trackpoint>
            <Time>2018-09-14T14:47:06.000Z</Time>
            <Position>
              <LatitudeDegrees>37.66193370334804058074951171875</LatitudeDegrees>
              <LongitudeDegrees>-8.08102059178054332733154296875</LongitudeDegrees>
            </Position>
            <AltitudeMeters>223</AltitudeMeters>
            <DistanceMeters>302074.77297692</DistanceMeters>
          </Trackpoint>
          <Trackpoint>
            <Time>2018-09-14T14:47:07.000Z</Time>
            <Position>
              <LatitudeDegrees>37.66188793815672397613525390625</LatitudeDegrees>
              <LongitudeDegrees>-8.08101925067603588104248046875</LongitudeDegrees>
            </Position>
            <AltitudeMeters>223.1999969482421875</AltitudeMeters>
            <DistanceMeters>302079.86821683</DistanceMeters>
          </Trackpoint>
          <Trackpoint>
            <Time>2018-09-14T14:47:08.000Z</Time>
            <Position>
              <LatitudeDegrees>37.66184158623218536376953125</LatitudeDegrees>
              <LongitudeDegrees>-8.0810196697711944580078125</LongitudeDegrees>
            </Position>
            <AltitudeMeters>223.399993896484375</AltitudeMeters>
            <DistanceMeters>302085.02773865</DistanceMeters>
          </Trackpoint>
          <Trackpoint>
            <Time>2018-09-14T14:47:09.000Z</Time>
            <Position>
              <LatitudeDegrees>37.6617951504886150360107421875</LatitudeDegrees>
              <LongitudeDegrees>-8.08102159760892391204833984375</LongitudeDegrees>
            </Position>
            <AltitudeMeters>223.600006103515625</AltitudeMeters>
            <DistanceMeters>302090.1986241</DistanceMeters>
          </Trackpoint>
          <Trackpoint>
            <Time>2018-09-14T14:47:10.000Z</Time>
            <Position>
              <LatitudeDegrees>37.661748044192790985107421875</LatitudeDegrees>
              <LongitudeDegrees>-8.0810238607227802276611328125</LongitudeDegrees>
            </Position>
            <AltitudeMeters>223.8000030517578125</AltitudeMeters>
            <DistanceMeters>302095.44492499</DistanceMeters>
          </Trackpoint>
          <Trackpoint>
            <Time>2018-09-14T14:47:11.000Z</Time>
            <Position>
              <LatitudeDegrees>37.66170001588761806488037109375</LatitudeDegrees>
              <LongitudeDegrees>-8.08102570474147796630859375</LongitudeDegrees>
            </Position>
            <AltitudeMeters>223.8000030517578125</AltitudeMeters>
            <DistanceMeters>302100.79350257</DistanceMeters>
          </Trackpoint>
          <Trackpoint>
            <Time>2018-09-14T14:47:12.000Z</Time>
            <Position>
              <LatitudeDegrees>37.661652155220508575439453125</LatitudeDegrees>
              <LongitudeDegrees>-8.081028051674365997314453125</LongitudeDegrees>
            </Position>
            <AltitudeMeters>223.600006103515625</AltitudeMeters>
            <DistanceMeters>302106.12432339</DistanceMeters>
          </Trackpoint>
          <Trackpoint>
            <Time>2018-09-14T14:47:13.000Z</Time>
            <Position>
              <LatitudeDegrees>37.661604546010494232177734375</LatitudeDegrees>
              <LongitudeDegrees>-8.0810303986072540283203125</LongitudeDegrees>
            </Position>
            <AltitudeMeters>223.399993896484375</AltitudeMeters>
            <DistanceMeters>302111.42712058</DistanceMeters>
          </Trackpoint>
          <Trackpoint>
            <Time>2018-09-14T14:47:14.000Z</Time>
            <Position>
              <LatitudeDegrees>37.66155735589563846588134765625</LatitudeDegrees>
              <LongitudeDegrees>-8.0810319073498249053955078125</LongitudeDegrees>
            </Position>
            <AltitudeMeters>223.399993896484375</AltitudeMeters>
            <DistanceMeters>302116.68202056</DistanceMeters>
          </Trackpoint>
          <Trackpoint>
            <Time>2018-09-14T14:47:15.000Z</Time>
            <Position>
              <LatitudeDegrees>37.6615096628665924072265625</LatitudeDegrees>
              <LongitudeDegrees>-8.08103182353079319000244140625</LongitudeDegrees>
            </Position>
            <AltitudeMeters>223.600006103515625</AltitudeMeters>
            <DistanceMeters>302121.98992396</DistanceMeters>
          </Trackpoint>
          <Trackpoint>
            <Time>2018-09-14T14:47:16.000Z</Time>
            <Position>
              <LatitudeDegrees>37.6614618860185146331787109375</LatitudeDegrees>
              <LongitudeDegrees>-8.0810322426259517669677734375</LongitudeDegrees>
            </Position>
            <AltitudeMeters>223.600006103515625</AltitudeMeters>
            <DistanceMeters>302127.307176</DistanceMeters>
          </Trackpoint>
          <Trackpoint>
            <Time>2018-09-14T14:47:17.000Z</Time>
            <Position>
              <LatitudeDegrees>37.66141377389430999755859375</LatitudeDegrees>
              <LongitudeDegrees>-8.08103299699723720550537109375</LongitudeDegrees>
            </Position>
            <AltitudeMeters>223.8000030517578125</AltitudeMeters>
            <DistanceMeters>302132.66250258</DistanceMeters>
          </Trackpoint>
          <Trackpoint>
            <Time>2018-09-14T14:47:18.000Z</Time>
            <Position>
              <LatitudeDegrees>37.66136457212269306182861328125</LatitudeDegrees>
              <LongitudeDegrees>-8.08103400282561779022216796875</LongitudeDegrees>
            </Position>
            <AltitudeMeters>224</AltitudeMeters>
            <DistanceMeters>302138.13953773</DistanceMeters>
          </Trackpoint>
          <Trackpoint>
            <Time>2018-09-14T14:47:19.000Z</Time>
            <Position>
              <LatitudeDegrees>37.66131495125591754913330078125</LatitudeDegrees>
              <LongitudeDegrees>-8.08103500865399837493896484375</LongitudeDegrees>
            </Position>
            <AltitudeMeters>224</AltitudeMeters>
            <DistanceMeters>302143.66336143</DistanceMeters>
          </Trackpoint>
          <Trackpoint>
            <Time>2018-09-14T14:47:20.000Z</Time>
            <Position>
              <LatitudeDegrees>37.66126491129398345947265625</LatitudeDegrees>
              <LongitudeDegrees>-8.08103500865399837493896484375</LongitudeDegrees>
            </Position>
            <AltitudeMeters>224.1999969482421875</AltitudeMeters>
            <DistanceMeters>302149.2335807</DistanceMeters>
          </Trackpoint>
          <Trackpoint>
            <Time>2018-09-14T14:47:21.000Z</Time>
            <Position>
              <LatitudeDegrees>37.661214955151081085205078125</LatitudeDegrees>
              <LongitudeDegrees>-8.08103500865399837493896484375</LongitudeDegrees>
            </Position>
            <AltitudeMeters>224.1999969482421875</AltitudeMeters>
            <DistanceMeters>302154.79406464</DistanceMeters>
          </Trackpoint>
          <Trackpoint>
            <Time>2018-09-14T14:47:22.000Z</Time>
            <Position>
              <LatitudeDegrees>37.6611636579036712646484375</LatitudeDegrees>
              <LongitudeDegrees>-8.08103551156818866729736328125</LongitudeDegrees>
            </Position>
            <AltitudeMeters>224.399993896484375</AltitudeMeters>
            <DistanceMeters>302160.50358091</DistanceMeters>
          </Trackpoint>
          <Trackpoint>
            <Time>2018-09-14T14:47:23.000Z</Time>
            <Position>
              <LatitudeDegrees>37.661111690104007720947265625</LatitudeDegrees>
              <LongitudeDegrees>-8.08103651739656925201416015625</LongitudeDegrees>
            </Position>
            <AltitudeMeters>224.600006103515625</AltitudeMeters>
            <DistanceMeters>302166.28851507</DistanceMeters>
          </Trackpoint>
          <Trackpoint>
            <Time>2018-09-14T14:47:24.000Z</Time>
            <Position>
              <LatitudeDegrees>37.66105863265693187713623046875</LatitudeDegrees>
              <LongitudeDegrees>-8.08103869669139385223388671875</LongitudeDegrees>
            </Position>
            <AltitudeMeters>224.600006103515625</AltitudeMeters>
            <DistanceMeters>302172.19624268</DistanceMeters>
          </Trackpoint>
          <Trackpoint>
            <Time>2018-09-14T14:47:25.000Z</Time>
            <Position>
              <LatitudeDegrees>37.66100448556244373321533203125</LatitudeDegrees>
              <LongitudeDegrees>-8.0810411274433135986328125</LongitudeDegrees>
            </Position>
            <AltitudeMeters>224.8000030517578125</AltitudeMeters>
            <DistanceMeters>302178.22650949</DistanceMeters>
          </Trackpoint>
          <Trackpoint>
            <Time>2018-09-14T14:47:26.000Z</Time>
            <Position>
              <LatitudeDegrees>37.66094882972538471221923828125</LatitudeDegrees>
              <LongitudeDegrees>-8.0810433067381381988525390625</LongitudeDegrees>
            </Position>
            <AltitudeMeters>225</AltitudeMeters>
            <DistanceMeters>302184.42367942</DistanceMeters>
          </Trackpoint>
          <Trackpoint>
            <Time>2018-09-14T14:47:27.000Z</Time>
            <Position>
              <LatitudeDegrees>37.66089200042188167572021484375</LatitudeDegrees>
              <LongitudeDegrees>-8.0810459889471530914306640625</LongitudeDegrees>
            </Position>
            <AltitudeMeters>225</AltitudeMeters>
            <DistanceMeters>302190.75277249</DistanceMeters>
          </Trackpoint>
          <Trackpoint>
            <Time>2018-09-14T14:47:28.000Z</Time>
            <Position>
              <LatitudeDegrees>37.66083416528999805450439453125</LatitudeDegrees>
              <LongitudeDegrees>-8.0810476653277873992919921875</LongitudeDegrees>
            </Position>
            <AltitudeMeters>225</AltitudeMeters>
            <DistanceMeters>302197.19219102</DistanceMeters>
          </Trackpoint>
          <Trackpoint>
            <Time>2018-09-14T14:47:29.000Z</Time>
            <Position>
              <LatitudeDegrees>37.6607755757868289947509765625</LatitudeDegrees>
              <LongitudeDegrees>-8.08104925788938999176025390625</LongitudeDegrees>
            </Position>
            <AltitudeMeters>224.600006103515625</AltitudeMeters>
            <DistanceMeters>302203.71451347</DistanceMeters>
          </Trackpoint>
          <Trackpoint>
            <Time>2018-09-14T14:47:30.000Z</Time>
            <Position>
              <LatitudeDegrees>37.6607165671885013580322265625</LatitudeDegrees>
              <LongitudeDegrees>-8.08105210773646831512451171875</LongitudeDegrees>
            </Position>
            <AltitudeMeters>224.1999969482421875</AltitudeMeters>
            <DistanceMeters>302210.28717547</DistanceMeters>
          </Trackpoint>
          <Trackpoint>
            <Time>2018-09-14T14:47:31.000Z</Time>
            <Position>
              <LatitudeDegrees>37.660657055675983428955078125</LatitudeDegrees>
              <LongitudeDegrees>-8.08105529285967350006103515625</LongitudeDegrees>
            </Position>
            <AltitudeMeters>224.1999969482421875</AltitudeMeters>
            <DistanceMeters>302216.9172895</DistanceMeters>
          </Trackpoint>
          <Trackpoint>
            <Time>2018-09-14T14:47:32.000Z</Time>
            <Position>
              <LatitudeDegrees>37.660596370697021484375</LatitudeDegrees>
              <LongitudeDegrees>-8.081056214869022369384765625</LongitudeDegrees>
            </Position>
            <AltitudeMeters>224</AltitudeMeters>
            <DistanceMeters>302223.67288025</DistanceMeters>
          </Trackpoint>
          <Trackpoint>
            <Time>2018-09-14T14:47:33.000Z</Time>
            <Position>
              <LatitudeDegrees>37.660535015165805816650390625</LatitudeDegrees>
              <LongitudeDegrees>-8.0810557119548320770263671875</LongitudeDegrees>
            </Position>
            <AltitudeMeters>224</AltitudeMeters>
            <DistanceMeters>302230.50225393</DistanceMeters>
          </Trackpoint>
          <Trackpoint>
            <Time>2018-09-14T14:47:34.000Z</Time>
            <Position>
              <LatitudeDegrees>37.6604728214442729949951171875</LatitudeDegrees>
              <LongitudeDegrees>-8.081057555973529815673828125</LongitudeDegrees>
            </Position>
            <AltitudeMeters>224</AltitudeMeters>
            <DistanceMeters>302237.42682654</DistanceMeters>
          </Trackpoint>
          <Trackpoint>
            <Time>2018-09-14T14:47:35.000Z</Time>
            <Position>
              <LatitudeDegrees>37.66040970571339130401611328125</LatitudeDegrees>
              <LongitudeDegrees>-8.08106065727770328521728515625</LongitudeDegrees>
            </Position>
            <AltitudeMeters>223.8000030517578125</AltitudeMeters>
            <DistanceMeters>302244.45623465</DistanceMeters>
          </Trackpoint>
          <Trackpoint>
            <Time>2018-09-14T14:47:36.000Z</Time>
            <Position>
              <LatitudeDegrees>37.66034625470638275146484375</LatitudeDegrees>
              <LongitudeDegrees>-8.081061579287052154541015625</LongitudeDegrees>
            </Position>
            <AltitudeMeters>223.8000030517578125</AltitudeMeters>
            <DistanceMeters>302251.51960299</DistanceMeters>
          </Trackpoint>
          <Trackpoint>
            <Time>2018-09-14T14:47:37.000Z</Time>
            <Position>
              <LatitudeDegrees>37.6602833904325962066650390625</LatitudeDegrees>
              <LongitudeDegrees>-8.08106124401092529296875</LongitudeDegrees>
            </Position>
            <AltitudeMeters>223.600006103515625</AltitudeMeters>
            <DistanceMeters>302258.51617675</DistanceMeters>
          </Trackpoint>
          <Trackpoint>
            <Time>2018-09-14T14:47:38.000Z</Time>
            <Position>
              <LatitudeDegrees>37.66022027470171451568603515625</LatitudeDegrees>
              <LongitudeDegrees>-8.081062920391559600830078125</LongitudeDegrees>
            </Position>
            <AltitudeMeters>223.600006103515625</AltitudeMeters>
            <DistanceMeters>302265.54237259</DistanceMeters>
          </Trackpoint>
          <Trackpoint>
            <Time>2018-09-14T14:47:39.000Z</Time>
            <Position>
              <LatitudeDegrees>37.66015640459954738616943359375</LatitudeDegrees>
              <LongitudeDegrees>-8.08106593787670135498046875</LongitudeDegrees>
            </Position>
            <AltitudeMeters>223.600006103515625</AltitudeMeters>
            <DistanceMeters>302272.65605999</DistanceMeters>
          </Trackpoint>
          <Trackpoint>
            <Time>2018-09-14T14:47:40.000Z</Time>
            <Position>
              <LatitudeDegrees>37.6600919477641582489013671875</LatitudeDegrees>
              <LongitudeDegrees>-8.081068284809589385986328125</LongitudeDegrees>
            </Position>
            <AltitudeMeters>223.399993896484375</AltitudeMeters>
            <DistanceMeters>302279.83293647</DistanceMeters>
          </Trackpoint>
          <Trackpoint>
            <Time>2018-09-14T14:47:41.000Z</Time>
            <Position>
              <LatitudeDegrees>37.66002698801457881927490234375</LatitudeDegrees>
              <LongitudeDegrees>-8.08107071556150913238525390625</LongitudeDegrees>
            </Position>
            <AltitudeMeters>223.399993896484375</AltitudeMeters>
            <DistanceMeters>302287.06621117</DistanceMeters>
          </Trackpoint>
          <Trackpoint>
            <Time>2018-09-14T14:47:42.000Z</Time>
            <Position>
              <LatitudeDegrees>37.65996211208403110504150390625</LatitudeDegrees>
              <LongitudeDegrees>-8.081074319779872894287109375</LongitudeDegrees>
            </Position>
            <AltitudeMeters>223.1999969482421875</AltitudeMeters>
            <DistanceMeters>302294.29324114</DistanceMeters>
          </Trackpoint>
          <Trackpoint>
            <Time>2018-09-14T14:47:43.000Z</Time>
            <Position>
              <LatitudeDegrees>37.65989706851541996002197265625</LatitudeDegrees>
              <LongitudeDegrees>-8.0810773372650146484375</LongitudeDegrees>
            </Position>
            <AltitudeMeters>223.1999969482421875</AltitudeMeters>
            <DistanceMeters>302301.5377428</DistanceMeters>
          </Trackpoint>
          <Trackpoint>
            <Time>2018-09-14T14:47:44.000Z</Time>
            <Position>
              <LatitudeDegrees>37.659831941127777099609375</LatitudeDegrees>
              <LongitudeDegrees>-8.0810808576643466949462890625</LongitudeDegrees>
            </Position>
            <AltitudeMeters>223</AltitudeMeters>
            <DistanceMeters>302308.79345404</DistanceMeters>
          </Trackpoint>
          <Trackpoint>
            <Time>2018-09-14T14:47:45.000Z</Time>
            <Position>
              <LatitudeDegrees>37.6597657240927219390869140625</LatitudeDegrees>
              <LongitudeDegrees>-8.08108337223529815673828125</LongitudeDegrees>
            </Position>
            <AltitudeMeters>223</AltitudeMeters>
            <DistanceMeters>302316.16767403</DistanceMeters>
          </Trackpoint>
          <Trackpoint>
            <Time>2018-09-14T14:47:46.000Z</Time>
            <Position>
              <LatitudeDegrees>37.65969975851476192474365234375</LatitudeDegrees>
              <LongitudeDegrees>-8.0810848809778690338134765625</LongitudeDegrees>
            </Position>
            <AltitudeMeters>222.8000030517578125</AltitudeMeters>
            <DistanceMeters>302323.51121653</DistanceMeters>
          </Trackpoint>
          <Trackpoint>
            <Time>2018-09-14T14:47:47.000Z</Time>
            <Position>
              <LatitudeDegrees>37.65963437967002391815185546875</LatitudeDegrees>
              <LongitudeDegrees>-8.0810878984630107879638671875</LongitudeDegrees>
            </Position>
            <AltitudeMeters>222.8000030517578125</AltitudeMeters>
            <DistanceMeters>302330.79301637</DistanceMeters>
          </Trackpoint>
          <Trackpoint>
            <Time>2018-09-14T14:47:48.000Z</Time>
            <Position>
              <LatitudeDegrees>37.6595699228346347808837890625</LatitudeDegrees>
              <LongitudeDegrees>-8.08109049685299396514892578125</LongitudeDegrees>
            </Position>
            <AltitudeMeters>222.600006103515625</AltitudeMeters>
            <DistanceMeters>302337.97115096</DistanceMeters>
          </Trackpoint>
          <Trackpoint>
            <Time>2018-09-14T14:47:49.000Z</Time>
            <Position>
              <LatitudeDegrees>37.65950647182762622833251953125</LatitudeDegrees>
              <LongitudeDegrees>-8.08109384961426258087158203125</LongitudeDegrees>
            </Position>
            <AltitudeMeters>222.600006103515625</AltitudeMeters>
            <DistanceMeters>302345.03899242</DistanceMeters>
          </Trackpoint>
          <Trackpoint>
            <Time>2018-09-14T14:47:50.000Z</Time>
            <Position>
              <LatitudeDegrees>37.65944243408739566802978515625</LatitudeDegrees>
              <LongitudeDegrees>-8.081096112728118896484375</LongitudeDegrees>
            </Position>
            <AltitudeMeters>222.600006103515625</AltitudeMeters>
            <DistanceMeters>302352.16916285</DistanceMeters>
          </Trackpoint>
          <Trackpoint>
            <Time>2018-09-14T14:47:51.000Z</Time>
            <Position>
              <LatitudeDegrees>37.659378312528133392333984375</LatitudeDegrees>
              <LongitudeDegrees>-8.081097118556499481201171875</LongitudeDegrees>
            </Position>
            <AltitudeMeters>222.399993896484375</AltitudeMeters>
            <DistanceMeters>302359.306928</DistanceMeters>
          </Trackpoint>
          <Trackpoint>
            <Time>2018-09-14T14:47:52.000Z</Time>
            <Position>
              <LatitudeDegrees>37.65931486152112483978271484375</LatitudeDegrees>
              <LongitudeDegrees>-8.08109737001359462738037109375</LongitudeDegrees>
            </Position>
            <AltitudeMeters>222.399993896484375</AltitudeMeters>
            <DistanceMeters>302366.36837842</DistanceMeters>
          </Trackpoint>
          <Trackpoint>
            <Time>2018-09-14T14:47:53.000Z</Time>
            <Position>
              <LatitudeDegrees>37.65925166197121143341064453125</LatitudeDegrees>
              <LongitudeDegrees>-8.0810972861945629119873046875</LongitudeDegrees>
            </Position>
            <AltitudeMeters>222.1999969482421875</AltitudeMeters>
            <DistanceMeters>302373.40292311</DistanceMeters>
          </Trackpoint>
          <Trackpoint>
            <Time>2018-09-14T14:47:54.000Z</Time>
            <Position>
              <LatitudeDegrees>37.65918795950710773468017578125</LatitudeDegrees>
              <LongitudeDegrees>-8.0810986272990703582763671875</LongitudeDegrees>
            </Position>
            <AltitudeMeters>222.1999969482421875</AltitudeMeters>
            <DistanceMeters>302380.49372459</DistanceMeters>
          </Trackpoint>
          <Trackpoint>
            <Time>2018-09-14T14:47:55.000Z</Time>
            <Position>
              <LatitudeDegrees>37.65912358649075031280517578125</LatitudeDegrees>
              <LongitudeDegrees>-8.0811009742319583892822265625</LongitudeDegrees>
            </Position>
            <AltitudeMeters>222.1999969482421875</AltitudeMeters>
            <DistanceMeters>302387.66178813</DistanceMeters>
          </Trackpoint>
          <Trackpoint>
            <Time>2018-09-14T14:47:56.000Z</Time>
            <Position>
              <LatitudeDegrees>37.65905871056020259857177734375</LatitudeDegrees>
              <LongitudeDegrees>-8.0811028182506561279296875</LongitudeDegrees>
            </Position>
            <AltitudeMeters>222.399993896484375</AltitudeMeters>
            <DistanceMeters>302394.88506867</DistanceMeters>
          </Trackpoint>
          <Trackpoint>
            <Time>2018-09-14T14:47:57.000Z</Time>
            <Position>
              <LatitudeDegrees>37.658993415534496307373046875</LatitudeDegrees>
              <LongitudeDegrees>-8.08110457845032215118408203125</LongitudeDegrees>
            </Position>
            <AltitudeMeters>222.399993896484375</AltitudeMeters>
            <DistanceMeters>302402.15445704</DistanceMeters>
          </Trackpoint>
          <Trackpoint>
            <Time>2018-09-14T14:47:58.000Z</Time>
            <Position>
              <LatitudeDegrees>37.65892803668975830078125</LatitudeDegrees>
              <LongitudeDegrees>-8.08110608719289302825927734375</LongitudeDegrees>
            </Position>
            <AltitudeMeters>222.399993896484375</AltitudeMeters>
            <DistanceMeters>302409.43253566</DistanceMeters>
          </Trackpoint>
          <Trackpoint>
            <Time>2018-09-14T14:47:59.000Z</Time>
            <Position>
              <LatitudeDegrees>37.658862657845020294189453125</LatitudeDegrees>
              <LongitudeDegrees>-8.08110843412578105926513671875</LongitudeDegrees>
            </Position>
            <AltitudeMeters>222.399993896484375</AltitudeMeters>
            <DistanceMeters>302416.7118549</DistanceMeters>
          </Trackpoint>
          <Trackpoint>
            <Time>2018-09-14T14:48:00.000Z</Time>
            <Position>
              <LatitudeDegrees>37.65879753045737743377685546875</LatitudeDegrees>
              <LongitudeDegrees>-8.0811108648777008056640625</LongitudeDegrees>
            </Position>
            <AltitudeMeters>222.399993896484375</AltitudeMeters>
            <DistanceMeters>302423.96383154</DistanceMeters>
          </Trackpoint>
          <Trackpoint>
            <Time>2018-09-14T14:48:01.000Z</Time>
            <Position>
              <LatitudeDegrees>37.6587324030697345733642578125</LatitudeDegrees>
              <LongitudeDegrees>-8.08111287653446197509765625</LongitudeDegrees>
            </Position>
            <AltitudeMeters>222.399993896484375</AltitudeMeters>
            <DistanceMeters>302431.21518556</DistanceMeters>
          </Trackpoint>
          <Trackpoint>
            <Time>2018-09-14T14:48:02.000Z</Time>
            <Position>
              <LatitudeDegrees>37.658667527139186859130859375</LatitudeDegrees>
              <LongitudeDegrees>-8.0811160616576671600341796875</LongitudeDegrees>
            </Position>
            <AltitudeMeters>222.399993896484375</AltitudeMeters>
            <DistanceMeters>302438.44221553</DistanceMeters>
          </Trackpoint>
          <Trackpoint>
            <Time>2018-09-14T14:48:03.000Z</Time>
            <Position>
              <LatitudeDegrees>37.658602483570575714111328125</LatitudeDegrees>
              <LongitudeDegrees>-8.08111899532377719879150390625</LongitudeDegrees>
            </Position>
            <AltitudeMeters>222.399993896484375</AltitudeMeters>
            <DistanceMeters>302445.68671719</DistanceMeters>
          </Trackpoint>
          <Trackpoint>
            <Time>2018-09-14T14:48:04.000Z</Time>
            <Position>
              <LatitudeDegrees>37.6585366018116474151611328125</LatitudeDegrees>
              <LongitudeDegrees>-8.0811204202473163604736328125</LongitudeDegrees>
            </Position>
            <AltitudeMeters>222.399993896484375</AltitudeMeters>
            <DistanceMeters>302453.0204158</DistanceMeters>
          </Trackpoint>
          <Trackpoint>
            <Time>2018-09-14T14:48:05.000Z</Time>
            <Position>
              <LatitudeDegrees>37.65847004950046539306640625</LatitudeDegrees>
              <LongitudeDegrees>-8.081121258437633514404296875</LongitudeDegrees>
            </Position>
            <AltitudeMeters>222.399993896484375</AltitudeMeters>
            <DistanceMeters>302460.42823427</DistanceMeters>
          </Trackpoint>
          <Trackpoint>
            <Time>2018-09-14T14:48:06.000Z</Time>
            <Position>
              <LatitudeDegrees>37.6584034971892833709716796875</LatitudeDegrees>
              <LongitudeDegrees>-8.0811215937137603759765625</LongitudeDegrees>
            </Position>
            <AltitudeMeters>222.399993896484375</AltitudeMeters>
            <DistanceMeters>302467.83544323</DistanceMeters>
          </Trackpoint>
          <Trackpoint>
            <Time>2018-09-14T14:48:07.000Z</Time>
            <Position>
              <LatitudeDegrees>37.658336944878101348876953125</LatitudeDegrees>
              <LongitudeDegrees>-8.08112268336117267608642578125</LongitudeDegrees>
            </Position>
            <AltitudeMeters>222.1999969482421875</AltitudeMeters>
            <DistanceMeters>302475.24387117</DistanceMeters>
          </Trackpoint>
          <Trackpoint>
            <Time>2018-09-14T14:48:08.000Z</Time>
            <Position>
              <LatitudeDegrees>37.6582697220146656036376953125</LatitudeDegrees>
              <LongitudeDegrees>-8.0811237730085849761962890625</LongitudeDegrees>
            </Position>
            <AltitudeMeters>222</AltitudeMeters>
            <DistanceMeters>302482.72688554</DistanceMeters>
          </Trackpoint>
          <Trackpoint>
            <Time>2018-09-14T14:48:09.000Z</Time>
            <Position>
              <LatitudeDegrees>37.65820291824638843536376953125</LatitudeDegrees>
              <LongitudeDegrees>-8.0811247788369655609130859375</LongitudeDegrees>
            </Position>
            <AltitudeMeters>221.8000030517578125</AltitudeMeters>
            <DistanceMeters>302490.16329517</DistanceMeters>
          </Trackpoint>
          <Trackpoint>
            <Time>2018-09-14T14:48:10.000Z</Time>
            <Position>
              <LatitudeDegrees>37.65813636593520641326904296875</LatitudeDegrees>
              <LongitudeDegrees>-8.08112670667469501495361328125</LongitudeDegrees>
            </Position>
            <AltitudeMeters>221.399993896484375</AltitudeMeters>
            <DistanceMeters>302497.57294191</DistanceMeters>
          </Trackpoint>
          <Trackpoint>
            <Time>2018-09-14T14:48:11.000Z</Time>
            <Position>
              <LatitudeDegrees>37.6580698974430561065673828125</LatitudeDegrees>
              <LongitudeDegrees>-8.08112922124564647674560546875</LongitudeDegrees>
            </Position>
            <AltitudeMeters>221.1999969482421875</AltitudeMeters>
            <DistanceMeters>302504.97405288</DistanceMeters>
          </Trackpoint>
          <Trackpoint>
            <Time>2018-09-14T14:48:12.000Z</Time>
            <Position>
              <LatitudeDegrees>37.65800409950315952301025390625</LatitudeDegrees>
              <LongitudeDegrees>-8.08113140054047107696533203125</LongitudeDegrees>
            </Position>
            <AltitudeMeters>221</AltitudeMeters>
            <DistanceMeters>302512.29974359</DistanceMeters>
          </Trackpoint>
          <Trackpoint>
            <Time>2018-09-14T14:48:13.000Z</Time>
            <Position>
              <LatitudeDegrees>37.6579381339251995086669921875</LatitudeDegrees>
              <LongitudeDegrees>-8.0811328254640102386474609375</LongitudeDegrees>
            </Position>
            <AltitudeMeters>220.8000030517578125</AltitudeMeters>
            <DistanceMeters>302519.64328609</DistanceMeters>
          </Trackpoint>
          <Trackpoint>
            <Time>2018-09-14T14:48:14.000Z</Time>
            <Position>
              <LatitudeDegrees>37.65787183307111263275146484375</LatitudeDegrees>
              <LongitudeDegrees>-8.081133663654327392578125</LongitudeDegrees>
            </Position>
            <AltitudeMeters>220.600006103515625</AltitudeMeters>
            <DistanceMeters>302527.02362627</DistanceMeters>
          </Trackpoint>
          <Trackpoint>
            <Time>2018-09-14T14:48:15.000Z</Time>
            <Position>
              <LatitudeDegrees>37.6578050293028354644775390625</LatitudeDegrees>
              <LongitudeDegrees>-8.081133663654327392578125</LongitudeDegrees>
            </Position>
            <AltitudeMeters>220.1999969482421875</AltitudeMeters>
            <DistanceMeters>302534.45882149</DistanceMeters>
          </Trackpoint>
          <Trackpoint>
            <Time>2018-09-14T14:48:16.000Z</Time>
            <Position>
              <LatitudeDegrees>37.6577373035252094268798828125</LatitudeDegrees>
              <LongitudeDegrees>-8.08113374747335910797119140625</LongitudeDegrees>
            </Position>
            <AltitudeMeters>220</AltitudeMeters>
            <DistanceMeters>302541.9965427</DistanceMeters>
          </Trackpoint>
          <Trackpoint>
            <Time>2018-09-14T14:48:17.000Z</Time>
            <Position>
              <LatitudeDegrees>37.65766941010951995849609375</LatitudeDegrees>
              <LongitudeDegrees>-8.0811361782252788543701171875</LongitudeDegrees>
            </Position>
            <AltitudeMeters>219.8000030517578125</AltitudeMeters>
            <DistanceMeters>302549.55579688</DistanceMeters>
          </Trackpoint>
          <Trackpoint>
            <Time>2018-09-14T14:48:18.000Z</Time>
            <Position>
              <LatitudeDegrees>37.65760160051286220550537109375</LatitudeDegrees>
              <LongitudeDegrees>-8.08113978244364261627197265625</LongitudeDegrees>
            </Position>
            <AltitudeMeters>219.600006103515625</AltitudeMeters>
            <DistanceMeters>302557.10967357</DistanceMeters>
          </Trackpoint>
          <Trackpoint>
            <Time>2018-09-14T14:48:19.000Z</Time>
            <Position>
              <LatitudeDegrees>37.65753387473523616790771484375</LatitudeDegrees>
              <LongitudeDegrees>-8.08114414103329181671142578125</LongitudeDegrees>
            </Position>
            <AltitudeMeters>219.1999969482421875</AltitudeMeters>
            <DistanceMeters>302564.65697257</DistanceMeters>
          </Trackpoint>
          <Trackpoint>
            <Time>2018-09-14T14:48:20.000Z</Time>
            <Position>
              <LatitudeDegrees>37.65746564604341983795166015625</LatitudeDegrees>
              <LongitudeDegrees>-8.08114917017519474029541015625</LongitudeDegrees>
            </Position>
            <AltitudeMeters>219.1999969482421875</AltitudeMeters>
            <DistanceMeters>302572.26385957</DistanceMeters>
          </Trackpoint>
          <Trackpoint>
            <Time>2018-09-14T14:48:21.000Z</Time>
            <Position>
              <LatitudeDegrees>37.657397501170635223388671875</LatitudeDegrees>
              <LongitudeDegrees>-8.0811522714793682098388671875</LongitudeDegrees>
            </Position>
            <AltitudeMeters>219.399993896484375</AltitudeMeters>
            <DistanceMeters>302579.85351421</DistanceMeters>
          </Trackpoint>
          <Trackpoint>
            <Time>2018-09-14T14:48:22.000Z</Time>
            <Position>
              <LatitudeDegrees>37.65732952393591403961181640625</LatitudeDegrees>
              <LongitudeDegrees>-8.0811537802219390869140625</LongitudeDegrees>
            </Position>
            <AltitudeMeters>219.399993896484375</AltitudeMeters>
            <DistanceMeters>302587.42112578</DistanceMeters>
          </Trackpoint>
          <Trackpoint>
            <Time>2018-09-14T14:48:23.000Z</Time>
            <Position>
              <LatitudeDegrees>37.65726171433925628662109375</LatitudeDegrees>
              <LongitudeDegrees>-8.08115537278354167938232421875</LongitudeDegrees>
            </Position>
            <AltitudeMeters>219.399993896484375</AltitudeMeters>
            <DistanceMeters>302594.96962115</DistanceMeters>
          </Trackpoint>
          <Trackpoint>
            <Time>2018-09-14T14:48:24.000Z</Time>
            <Position>
              <LatitudeDegrees>37.6571944914758205413818359375</LatitudeDegrees>
              <LongitudeDegrees>-8.08115654624998569488525390625</LongitudeDegrees>
            </Position>
            <AltitudeMeters>219.399993896484375</AltitudeMeters>
            <DistanceMeters>302602.45203212</DistanceMeters>
          </Trackpoint>
          <Trackpoint>
            <Time>2018-09-14T14:48:25.000Z</Time>
            <Position>
              <LatitudeDegrees>37.65712701715528964996337890625</LatitudeDegrees>
              <LongitudeDegrees>-8.081156797707080841064453125</LongitudeDegrees>
            </Position>
            <AltitudeMeters>219.1999969482421875</AltitudeMeters>
            <DistanceMeters>302609.96214913</DistanceMeters>
          </Trackpoint>
          <Trackpoint>
            <Time>2018-09-14T14:48:26.000Z</Time>
            <Position>
              <LatitudeDegrees>37.65705912373960018157958984375</LatitudeDegrees>
              <LongitudeDegrees>-8.08115713298320770263671875</LongitudeDegrees>
            </Position>
            <AltitudeMeters>219.1999969482421875</AltitudeMeters>
            <DistanceMeters>302617.51901379</DistanceMeters>
          </Trackpoint>
          <Trackpoint>
            <Time>2018-09-14T14:48:27.000Z</Time>
            <Position>
              <LatitudeDegrees>37.65699055977165699005126953125</LatitudeDegrees>
              <LongitudeDegrees>-8.08115637861192226409912109375</LongitudeDegrees>
            </Position>
            <AltitudeMeters>219</AltitudeMeters>
            <DistanceMeters>302625.15078901</DistanceMeters>
          </Trackpoint>
          <Trackpoint>
            <Time>2018-09-14T14:48:28.000Z</Time>
            <Position>
              <LatitudeDegrees>37.65692098997533321380615234375</LatitudeDegrees>
              <LongitudeDegrees>-8.081155456602573394775390625</LongitudeDegrees>
            </Position>
            <AltitudeMeters>219</AltitudeMeters>
            <DistanceMeters>302632.89473746</DistanceMeters>
          </Trackpoint>
          <Trackpoint>
            <Time>2018-09-14T14:48:29.000Z</Time>
            <Position>
              <LatitudeDegrees>37.65685091726481914520263671875</LatitudeDegrees>
              <LongitudeDegrees>-8.081156127154827117919921875</LongitudeDegrees>
            </Position>
            <AltitudeMeters>219</AltitudeMeters>
            <DistanceMeters>302640.69387812</DistanceMeters>
          </Trackpoint>
          <Trackpoint>
            <Time>2018-09-14T14:48:30.000Z</Time>
            <Position>
              <LatitudeDegrees>37.65678000636398792266845703125</LatitudeDegrees>
              <LongitudeDegrees>-8.0811579711735248565673828125</LongitudeDegrees>
            </Position>
            <AltitudeMeters>218.8000030517578125</AltitudeMeters>
            <DistanceMeters>302648.58796182</DistanceMeters>
          </Trackpoint>
          <Trackpoint>
            <Time>2018-09-14T14:48:31.000Z</Time>
            <Position>
              <LatitudeDegrees>37.65670993365347385406494140625</LatitudeDegrees>
              <LongitudeDegrees>-8.0811596475541591644287109375</LongitudeDegrees>
            </Position>
            <AltitudeMeters>218.8000030517578125</AltitudeMeters>
            <DistanceMeters>302656.38941779</DistanceMeters>
          </Trackpoint>
          <Trackpoint>
            <Time>2018-09-14T14:48:32.000Z</Time>
            <Position>
              <LatitudeDegrees>37.65664078295230865478515625</LatitudeDegrees>
              <LongitudeDegrees>-8.081160485744476318359375</LongitudeDegrees>
            </Position>
            <AltitudeMeters>218.8000030517578125</AltitudeMeters>
            <DistanceMeters>302664.08716822</DistanceMeters>
          </Trackpoint>
          <Trackpoint>
            <Time>2018-09-14T14:48:33.000Z</Time>
            <Position>
              <LatitudeDegrees>37.6565717160701751708984375</LatitudeDegrees>
              <LongitudeDegrees>-8.08116140775382518768310546875</LongitudeDegrees>
            </Position>
            <AltitudeMeters>218.8000030517578125</AltitudeMeters>
            <DistanceMeters>302671.77435367</DistanceMeters>
          </Trackpoint>
          <Trackpoint>
            <Time>2018-09-14T14:48:34.000Z</Time>
            <Position>
              <LatitudeDegrees>37.65650223009288311004638671875</LatitudeDegrees>
              <LongitudeDegrees>-8.0811619944870471954345703125</LongitudeDegrees>
            </Position>
            <AltitudeMeters>219</AltitudeMeters>
            <DistanceMeters>302679.50780027</DistanceMeters>
          </Trackpoint>
          <Trackpoint>
            <Time>2018-09-14T14:48:35.000Z</Time>
            <Position>
              <LatitudeDegrees>37.6564340852200984954833984375</LatitudeDegrees>
              <LongitudeDegrees>-8.0811646766960620880126953125</LongitudeDegrees>
            </Position>
            <AltitudeMeters>219</AltitudeMeters>
            <DistanceMeters>302687.09567003</DistanceMeters>
          </Trackpoint>
          <Trackpoint>
            <Time>2018-09-14T14:48:36.000Z</Time>
            <Position>
              <LatitudeDegrees>37.65636694617569446563720703125</LatitudeDegrees>
              <LongitudeDegrees>-8.0811676941812038421630859375</LongitudeDegrees>
            </Position>
            <AltitudeMeters>218.8000030517578125</AltitudeMeters>
            <DistanceMeters>302694.57325208</DistanceMeters>
          </Trackpoint>
          <Trackpoint>
            <Time>2018-09-14T14:48:37.000Z</Time>
            <Position>
              <LatitudeDegrees>37.65630106441676616668701171875</LatitudeDegrees>
              <LongitudeDegrees>-8.08117146603763103485107421875</LongitudeDegrees>
            </Position>
            <AltitudeMeters>218.600006103515625</AltitudeMeters>
            <DistanceMeters>302701.91433485</DistanceMeters>
          </Trackpoint>
          <Trackpoint>
            <Time>2018-09-14T14:48:38.000Z</Time>
            <Position>
              <LatitudeDegrees>37.6562359370291233062744140625</LatitudeDegrees>
              <LongitudeDegrees>-8.08117448352277278900146484375</LongitudeDegrees>
            </Position>
            <AltitudeMeters>218.399993896484375</AltitudeMeters>
            <DistanceMeters>302709.16755657</DistanceMeters>
          </Trackpoint>
          <Trackpoint>
            <Time>2018-09-14T14:48:39.000Z</Time>
            <Position>
              <LatitudeDegrees>37.6561712287366390228271484375</LatitudeDegrees>
              <LongitudeDegrees>-8.08117590844631195068359375</LongitudeDegrees>
            </Position>
            <AltitudeMeters>218.399993896484375</AltitudeMeters>
            <DistanceMeters>302716.37080717</DistanceMeters>
          </Trackpoint>
          <Trackpoint>
            <Time>2018-09-14T14:48:40.000Z</Time>
            <Position>
              <LatitudeDegrees>37.6561068557202816009521484375</LatitudeDegrees>
              <LongitudeDegrees>-8.08117666281759738922119140625</LongitudeDegrees>
            </Position>
            <AltitudeMeters>218.1999969482421875</AltitudeMeters>
            <DistanceMeters>302723.53635074</DistanceMeters>
          </Trackpoint>
          <Trackpoint>
            <Time>2018-09-14T14:48:41.000Z</Time>
            <Position>
              <LatitudeDegrees>37.65604265034198760986328125</LatitudeDegrees>
              <LongitudeDegrees>-8.08117783628404140472412109375</LongitudeDegrees>
            </Position>
            <AltitudeMeters>218</AltitudeMeters>
            <DistanceMeters>302730.68296619</DistanceMeters>
          </Trackpoint>
          <Trackpoint>
            <Time>2018-09-14T14:48:42.000Z</Time>
            <Position>
              <LatitudeDegrees>37.655979283154010772705078125</LatitudeDegrees>
              <LongitudeDegrees>-8.08117917738854885101318359375</LongitudeDegrees>
            </Position>
            <AltitudeMeters>217.8000030517578125</AltitudeMeters>
            <DistanceMeters>302737.73609962</DistanceMeters>
          </Trackpoint>
          <Trackpoint>
            <Time>2018-09-14T14:48:43.000Z</Time>
            <Position>
              <LatitudeDegrees>37.65591633506119251251220703125</LatitudeDegrees>
              <LongitudeDegrees>-8.08118068613111972808837890625</LongitudeDegrees>
            </Position>
            <AltitudeMeters>217.8000030517578125</AltitudeMeters>
            <DistanceMeters>302744.74363526</DistanceMeters>
          </Trackpoint>
          <Trackpoint>
            <Time>2018-09-14T14:48:44.000Z</Time>
            <Position>
              <LatitudeDegrees>37.65585363842546939849853515625</LatitudeDegrees>
              <LongitudeDegrees>-8.0811817757785320281982421875</LongitudeDegrees>
            </Position>
            <AltitudeMeters>217.600006103515625</AltitudeMeters>
            <DistanceMeters>302751.72276359</DistanceMeters>
          </Trackpoint>
          <Trackpoint>
            <Time>2018-09-14T14:48:45.000Z</Time>
            <Position>
              <LatitudeDegrees>37.65579186379909515380859375</LatitudeDegrees>
              <LongitudeDegrees>-8.0811841227114200592041015625</LongitudeDegrees>
            </Position>
            <AltitudeMeters>217.8000030517578125</AltitudeMeters>
            <DistanceMeters>302758.60219894</DistanceMeters>
          </Trackpoint>
          <Trackpoint>
            <Time>2018-09-14T14:48:46.000Z</Time>
            <Position>
              <LatitudeDegrees>37.65573159791529178619384765625</LatitudeDegrees>
              <LongitudeDegrees>-8.0811881460249423980712890625</LongitudeDegrees>
            </Position>
            <AltitudeMeters>218</AltitudeMeters>
            <DistanceMeters>302765.31891405</DistanceMeters>
          </Trackpoint>
          <Trackpoint>
            <Time>2018-09-14T14:48:47.000Z</Time>
            <Position>
              <LatitudeDegrees>37.655671499669551849365234375</LatitudeDegrees>
              <LongitudeDegrees>-8.081190995872020721435546875</LongitudeDegrees>
            </Position>
            <AltitudeMeters>218.399993896484375</AltitudeMeters>
            <DistanceMeters>302772.01273503</DistanceMeters>
          </Trackpoint>
          <Trackpoint>
            <Time>2018-09-14T14:48:48.000Z</Time>
            <Position>
              <LatitudeDegrees>37.6556119881570339202880859375</LatitudeDegrees>
              <LongitudeDegrees>-8.0811940133571624755859375</LongitudeDegrees>
            </Position>
            <AltitudeMeters>218.600006103515625</AltitudeMeters>
            <DistanceMeters>302778.64148695</DistanceMeters>
          </Trackpoint>
          <Trackpoint>
            <Time>2018-09-14T14:48:49.000Z</Time>
            <Position>
              <LatitudeDegrees>37.6555523090064525604248046875</LatitudeDegrees>
              <LongitudeDegrees>-8.08119577355682849884033203125</LongitudeDegrees>
            </Position>
            <AltitudeMeters>218.8000030517578125</AltitudeMeters>
            <DistanceMeters>302785.28656586</DistanceMeters>
          </Trackpoint>
          <Trackpoint>
            <Time>2018-09-14T14:48:50.000Z</Time>
            <Position>
              <LatitudeDegrees>37.6554926298558712005615234375</LatitudeDegrees>
              <LongitudeDegrees>-8.08119744993746280670166015625</LongitudeDegrees>
            </Position>
            <AltitudeMeters>219</AltitudeMeters>
            <DistanceMeters>302791.93164478</DistanceMeters>
          </Trackpoint>
          <Trackpoint>
            <Time>2018-09-14T14:48:51.000Z</Time>
            <Position>
              <LatitudeDegrees>37.655434124171733856201171875</LatitudeDegrees>
              <LongitudeDegrees>-8.081200383603572845458984375</LongitudeDegrees>
            </Position>
            <AltitudeMeters>219.1999969482421875</AltitudeMeters>
            <DistanceMeters>302798.44911972</DistanceMeters>
          </Trackpoint>
          <Trackpoint>
            <Time>2018-09-14T14:48:52.000Z</Time>
            <Position>
              <LatitudeDegrees>37.655375786125659942626953125</LatitudeDegrees>
              <LongitudeDegrees>-8.08120314963161945343017578125</LongitudeDegrees>
            </Position>
            <AltitudeMeters>219.399993896484375</AltitudeMeters>
            <DistanceMeters>302804.94716846</DistanceMeters>
          </Trackpoint>
          <Trackpoint>
            <Time>2018-09-14T14:48:53.000Z</Time>
            <Position>
              <LatitudeDegrees>37.6553176157176494598388671875</LatitudeDegrees>
              <LongitudeDegrees>-8.08120382018387317657470703125</LongitudeDegrees>
            </Position>
            <AltitudeMeters>219.600006103515625</AltitudeMeters>
            <DistanceMeters>302811.42294448</DistanceMeters>
          </Trackpoint>
          <Trackpoint>
            <Time>2018-09-14T14:48:54.000Z</Time>
            <Position>
              <LatitudeDegrees>37.655259110033512115478515625</LatitudeDegrees>
              <LongitudeDegrees>-8.08120415546000003814697265625</LongitudeDegrees>
            </Position>
            <AltitudeMeters>219.8000030517578125</AltitudeMeters>
            <DistanceMeters>302817.93487499</DistanceMeters>
          </Trackpoint>
          <Trackpoint>
            <Time>2018-09-14T14:48:55.000Z</Time>
            <Position>
              <LatitudeDegrees>37.655201442539691925048828125</LatitudeDegrees>
              <LongitudeDegrees>-8.0812072567641735076904296875</LongitudeDegrees>
            </Position>
            <AltitudeMeters>220</AltitudeMeters>
            <DistanceMeters>302824.35884956</DistanceMeters>
          </Trackpoint>
          <Trackpoint>
            <Time>2018-09-14T14:48:56.000Z</Time>
            <Position>
              <LatitudeDegrees>37.655143775045871734619140625</LatitudeDegrees>
              <LongitudeDegrees>-8.081211112439632415771484375</LongitudeDegrees>
            </Position>
            <AltitudeMeters>220.1999969482421875</AltitudeMeters>
            <DistanceMeters>302830.78563489</DistanceMeters>
          </Trackpoint>
          <Trackpoint>
            <Time>2018-09-14T14:48:57.000Z</Time>
            <Position>
              <LatitudeDegrees>37.65508568845689296722412109375</LatitudeDegrees>
              <LongitudeDegrees>-8.081214465200901031494140625</LongitudeDegrees>
            </Position>
            <AltitudeMeters>220.399993896484375</AltitudeMeters>
            <DistanceMeters>302837.25722624</DistanceMeters>
          </Trackpoint>
          <Trackpoint>
            <Time>2018-09-14T14:48:58.000Z</Time>
            <Position>
              <LatitudeDegrees>37.65502743422985076904296875</LatitudeDegrees>
              <LongitudeDegrees>-8.08121672831475734710693359375</LongitudeDegrees>
            </Position>
            <AltitudeMeters>220.600006103515625</AltitudeMeters>
            <DistanceMeters>302843.74345212</DistanceMeters>
          </Trackpoint>
          <Trackpoint>
            <Time>2018-09-14T14:48:59.000Z</Time>
            <Position>
              <LatitudeDegrees>37.65496951527893543243408203125</LatitudeDegrees>
              <LongitudeDegrees>-8.08121991343796253204345703125</LongitudeDegrees>
            </Position>
            <AltitudeMeters>220.8000030517578125</AltitudeMeters>
            <DistanceMeters>302850.19687854</DistanceMeters>
          </Trackpoint>
          <Trackpoint>
            <Time>2018-09-14T14:49:00.000Z</Time>
            <Position>
              <LatitudeDegrees>37.65491151250898838043212890625</LatitudeDegrees>
              <LongitudeDegrees>-8.08122284710407257080078125</LongitudeDegrees>
            </Position>
            <AltitudeMeters>220.8000030517578125</AltitudeMeters>
            <DistanceMeters>302856.65869511</DistanceMeters>
          </Trackpoint>
          <Trackpoint>
            <Time>2018-09-14T14:49:01.000Z</Time>
            <Position>
              <LatitudeDegrees>37.6548539288341999053955078125</LatitudeDegrees>
              <LongitudeDegrees>-8.081225194036960601806640625</LongitudeDegrees>
            </Position>
            <AltitudeMeters>221</AltitudeMeters>
            <DistanceMeters>302863.07141436</DistanceMeters>
          </Trackpoint>
          <Trackpoint>
            <Time>2018-09-14T14:49:02.000Z</Time>
            <Position>
              <LatitudeDegrees>37.654797099530696868896484375</LatitudeDegrees>
              <LongitudeDegrees>-8.0812293849885463714599609375</LongitudeDegrees>
            </Position>
            <AltitudeMeters>221</AltitudeMeters>
            <DistanceMeters>302869.4076372</DistanceMeters>
          </Trackpoint>
          <Trackpoint>
            <Time>2018-09-14T14:49:03.000Z</Time>
            <Position>
              <LatitudeDegrees>37.6547402702271938323974609375</LatitudeDegrees>
              <LongitudeDegrees>-8.08123349212110042572021484375</LongitudeDegrees>
            </Position>
            <AltitudeMeters>221</AltitudeMeters>
            <DistanceMeters>302875.74243473</DistanceMeters>
          </Trackpoint>
          <Trackpoint>
            <Time>2018-09-14T14:49:04.000Z</Time>
            <Position>
              <LatitudeDegrees>37.65468369238078594207763671875</LatitudeDegrees>
              <LongitudeDegrees>-8.0812354199588298797607421875</LongitudeDegrees>
            </Position>
            <AltitudeMeters>221.1999969482421875</AltitudeMeters>
            <DistanceMeters>302882.04149465</DistanceMeters>
          </Trackpoint>
          <Trackpoint>
            <Time>2018-09-14T14:49:05.000Z</Time>
            <Position>
              <LatitudeDegrees>37.6546276174485683441162109375</LatitudeDegrees>
              <LongitudeDegrees>-8.08123701252043247222900390625</LongitudeDegrees>
            </Position>
            <AltitudeMeters>221.600006103515625</AltitudeMeters>
            <DistanceMeters>302888.28439541</DistanceMeters>
          </Trackpoint>
          <Trackpoint>
            <Time>2018-09-14T14:49:06.000Z</Time>
            <Position>
              <LatitudeDegrees>37.65457145869731903076171875</LatitudeDegrees>
              <LongitudeDegrees>-8.08123868890106678009033203125</LongitudeDegrees>
            </Position>
            <AltitudeMeters>221.8000030517578125</AltitudeMeters>
            <DistanceMeters>302894.53669106</DistanceMeters>
          </Trackpoint>
          <Trackpoint>
            <Time>2018-09-14T14:49:07.000Z</Time>
            <Position>
              <LatitudeDegrees>37.65451571904122829437255859375</LatitudeDegrees>
              <LongitudeDegrees>-8.08124070055782794952392578125</LongitudeDegrees>
            </Position>
            <AltitudeMeters>222</AltitudeMeters>
            <DistanceMeters>302900.7433251</DistanceMeters>
          </Trackpoint>
          <Trackpoint>
            <Time>2018-09-14T14:49:08.000Z</Time>
            <Position>
              <LatitudeDegrees>37.65446023084223270416259765625</LatitudeDegrees>
              <LongitudeDegrees>-8.08124187402427196502685546875</LongitudeDegrees>
            </Position>
            <AltitudeMeters>222.399993896484375</AltitudeMeters>
            <DistanceMeters>302906.91933052</DistanceMeters>
          </Trackpoint>
          <Trackpoint>
            <Time>2018-09-14T14:49:09.000Z</Time>
            <Position>
              <LatitudeDegrees>37.65440524555742740631103515625</LatitudeDegrees>
              <LongitudeDegrees>-8.081242628395557403564453125</LongitudeDegrees>
            </Position>
            <AltitudeMeters>222.600006103515625</AltitudeMeters>
            <DistanceMeters>302913.03952309</DistanceMeters>
          </Trackpoint>
          <Trackpoint>
            <Time>2018-09-14T14:49:10.000Z</Time>
            <Position>
              <LatitudeDegrees>37.6543510146439075469970703125</LatitudeDegrees>
              <LongitudeDegrees>-8.0812441371381282806396484375</LongitudeDegrees>
            </Position>
            <AltitudeMeters>222.8000030517578125</AltitudeMeters>
            <DistanceMeters>302919.07652471</DistanceMeters>
          </Trackpoint>
          <Trackpoint>
            <Time>2018-09-14T14:49:11.000Z</Time>
            <Position>
              <LatitudeDegrees>37.654296867549419403076171875</LatitudeDegrees>
              <LongitudeDegrees>-8.08124656789004802703857421875</LongitudeDegrees>
            </Position>
            <AltitudeMeters>223.1999969482421875</AltitudeMeters>
            <DistanceMeters>302925.10679152</DistanceMeters>
          </Trackpoint>
          <Trackpoint>
            <Time>2018-09-14T14:49:12.000Z</Time>
            <Position>
              <LatitudeDegrees>37.6542435586452484130859375</LatitudeDegrees>
              <LongitudeDegrees>-8.0812503397464752197265625</LongitudeDegrees>
            </Position>
            <AltitudeMeters>223.399993896484375</AltitudeMeters>
            <DistanceMeters>302931.05033079</DistanceMeters>
          </Trackpoint>
          <Trackpoint>
            <Time>2018-09-14T14:49:13.000Z</Time>
            <Position>
              <LatitudeDegrees>37.65419016592204570770263671875</LatitudeDegrees>
              <LongitudeDegrees>-8.08125394396483898162841796875</LongitudeDegrees>
            </Position>
            <AltitudeMeters>223.600006103515625</AltitudeMeters>
            <DistanceMeters>302937.00146176</DistanceMeters>
          </Trackpoint>
          <Trackpoint>
            <Time>2018-09-14T14:49:14.000Z</Time>
            <Position>
              <LatitudeDegrees>37.6541374437510967254638671875</LatitudeDegrees>
              <LongitudeDegrees>-8.08125494979321956634521484375</LongitudeDegrees>
            </Position>
            <AltitudeMeters>223.8000030517578125</AltitudeMeters>
            <DistanceMeters>302942.87008268</DistanceMeters>
          </Trackpoint>
          <Trackpoint>
            <Time>2018-09-14T14:49:15.000Z</Time>
            <Position>
              <LatitudeDegrees>37.65408597886562347412109375</LatitudeDegrees>
              <LongitudeDegrees>-8.08125427924096584320068359375</LongitudeDegrees>
            </Position>
            <AltitudeMeters>224</AltitudeMeters>
            <DistanceMeters>302948.59854651</DistanceMeters>
          </Trackpoint>
          <Trackpoint>
            <Time>2018-09-14T14:49:16.000Z</Time>
            <Position>
              <LatitudeDegrees>37.6540355198085308074951171875</LatitudeDegrees>
              <LongitudeDegrees>-8.08125503361225128173828125</LongitudeDegrees>
            </Position>
            <AltitudeMeters>224.1999969482421875</AltitudeMeters>
            <DistanceMeters>302954.21558195</DistanceMeters>
          </Trackpoint>
          <Trackpoint>
            <Time>2018-09-14T14:49:17.000Z</Time>
            <Position>
              <LatitudeDegrees>37.65398531220853328704833984375</LatitudeDegrees>
              <LongitudeDegrees>-8.08125796727836132049560546875</LongitudeDegrees>
            </Position>
            <AltitudeMeters>224.399993896484375</AltitudeMeters>
            <DistanceMeters>302959.81006538</DistanceMeters>
          </Trackpoint>
          <Trackpoint>
            <Time>2018-09-14T14:49:18.000Z</Time>
            <Position>
              <LatitudeDegrees>37.6539346016943454742431640625</LatitudeDegrees>
              <LongitudeDegrees>-8.0812615714967250823974609375</LongitudeDegrees>
            </Position>
            <AltitudeMeters>224.600006103515625</AltitudeMeters>
            <DistanceMeters>302965.46395525</DistanceMeters>
          </Trackpoint>
          <Trackpoint>
            <Time>2018-09-14T14:49:19.000Z</Time>
            <Position>
              <LatitudeDegrees>37.6538829691708087921142578125</LatitudeDegrees>
              <LongitudeDegrees>-8.08126567862927913665771484375</LongitudeDegrees>
            </Position>
            <AltitudeMeters>224.8000030517578125</AltitudeMeters>
            <DistanceMeters>302971.22229188</DistanceMeters>
          </Trackpoint>
          <Trackpoint>
            <Time>2018-09-14T14:49:20.000Z</Time>
            <Position>
              <LatitudeDegrees>37.65383091755211353302001953125</LatitudeDegrees>
              <LongitudeDegrees>-8.0812682770192623138427734375</LongitudeDegrees>
            </Position>
            <AltitudeMeters>224.8000030517578125</AltitudeMeters>
            <DistanceMeters>302977.01970031</DistanceMeters>
          </Trackpoint>
          <Trackpoint>
            <Time>2018-09-14T14:49:21.000Z</Time>
            <Position>
              <LatitudeDegrees>37.65377894975244998931884765625</LatitudeDegrees>
              <LongitudeDegrees>-8.08127154596149921417236328125</LongitudeDegrees>
            </Position>
            <AltitudeMeters>225</AltitudeMeters>
            <DistanceMeters>302982.81009527</DistanceMeters>
          </Trackpoint>
          <Trackpoint>
            <Time>2018-09-14T14:49:22.000Z</Time>
            <Position>
              <LatitudeDegrees>37.65372631140053272247314453125</LatitudeDegrees>
              <LongitudeDegrees>-8.0812739767134189605712890625</LongitudeDegrees>
            </Position>
            <AltitudeMeters>225.1999969482421875</AltitudeMeters>
            <DistanceMeters>302988.67255815</DistanceMeters>
          </Trackpoint>
          <Trackpoint>
            <Time>2018-09-14T14:49:23.000Z</Time>
            <Position>
              <LatitudeDegrees>37.65367400832474231719970703125</LatitudeDegrees>
              <LongitudeDegrees>-8.08127556927502155303955078125</LongitudeDegrees>
            </Position>
            <AltitudeMeters>225.1999969482421875</AltitudeMeters>
            <DistanceMeters>302994.49561036</DistanceMeters>
          </Trackpoint>
          <Trackpoint>
            <Time>2018-09-14T14:49:24.000Z</Time>
            <Position>
              <LatitudeDegrees>37.65362103469669818878173828125</LatitudeDegrees>
              <LongitudeDegrees>-8.08127691037952899932861328125</LongitudeDegrees>
            </Position>
            <AltitudeMeters>225.399993896484375</AltitudeMeters>
            <DistanceMeters>303000.39339422</DistanceMeters>
          </Trackpoint>
          <Trackpoint>
            <Time>2018-09-14T14:49:25.000Z</Time>
            <Position>
              <LatitudeDegrees>37.6535678096115589141845703125</LatitudeDegrees>
              <LongitudeDegrees>-8.08127942495048046112060546875</LongitudeDegrees>
            </Position>
            <AltitudeMeters>225.399993896484375</AltitudeMeters>
            <DistanceMeters>303006.32172092</DistanceMeters>
          </Trackpoint>
          <Trackpoint>
            <Time>2018-09-14T14:49:26.000Z</Time>
            <Position>
              <LatitudeDegrees>37.6535148359835147857666015625</LatitudeDegrees>
              <LongitudeDegrees>-8.08128244243562221527099609375</LongitudeDegrees>
            </Position>
            <AltitudeMeters>225.600006103515625</AltitudeMeters>
            <DistanceMeters>303012.22409628</DistanceMeters>
          </Trackpoint>
          <Trackpoint>
            <Time>2018-09-14T14:49:27.000Z</Time>
            <Position>
              <LatitudeDegrees>37.65346094034612178802490234375</LatitudeDegrees>
              <LongitudeDegrees>-8.081285543739795684814453125</LongitudeDegrees>
            </Position>
            <AltitudeMeters>225.8000030517578125</AltitudeMeters>
            <DistanceMeters>303018.2296042</DistanceMeters>
          </Trackpoint>
          <Trackpoint>
            <Time>2018-09-14T14:49:28.000Z</Time>
            <Position>
              <LatitudeDegrees>37.65340729616582393646240234375</LatitudeDegrees>
              <LongitudeDegrees>-8.08128856122493743896484375</LongitudeDegrees>
            </Position>
            <AltitudeMeters>225.8000030517578125</AltitudeMeters>
            <DistanceMeters>303024.20647482</DistanceMeters>
          </Trackpoint>
          <Trackpoint>
            <Time>2018-09-14T14:49:29.000Z</Time>
            <Position>
              <LatitudeDegrees>37.653352729976177215576171875</LatitudeDegrees>
              <LongitudeDegrees>-8.08128981851041316986083984375</LongitudeDegrees>
            </Position>
            <AltitudeMeters>226</AltitudeMeters>
            <DistanceMeters>303030.28001269</DistanceMeters>
          </Trackpoint>
          <Trackpoint>
            <Time>2018-09-14T14:49:30.000Z</Time>
            <Position>
              <LatitudeDegrees>37.653298415243625640869140625</LatitudeDegrees>
              <LongitudeDegrees>-8.08129132725298404693603515625</LongitudeDegrees>
            </Position>
            <AltitudeMeters>226</AltitudeMeters>
            <DistanceMeters>303036.32747576</DistanceMeters>
          </Trackpoint>
          <Trackpoint>
            <Time>2018-09-14T14:49:31.000Z</Time>
            <Position>
              <LatitudeDegrees>37.65324384905397891998291015625</LatitudeDegrees>
              <LongitudeDegrees>-8.08129400946199893951416015625</LongitudeDegrees>
            </Position>
            <AltitudeMeters>226.1999969482421875</AltitudeMeters>
            <DistanceMeters>303042.40621517</DistanceMeters>
          </Trackpoint>
          <Trackpoint>
            <Time>2018-09-14T14:49:32.000Z</Time>
            <Position>
              <LatitudeDegrees>37.653189115226268768310546875</LatitudeDegrees>
              <LongitudeDegrees>-8.0812954343855381011962890625</LongitudeDegrees>
            </Position>
            <AltitudeMeters>226.1999969482421875</AltitudeMeters>
            <DistanceMeters>303048.49979165</DistanceMeters>
          </Trackpoint>
          <Trackpoint>
            <Time>2018-09-14T14:49:33.000Z</Time>
            <Position>
              <LatitudeDegrees>37.653134129941463470458984375</LatitudeDegrees>
              <LongitudeDegrees>-8.0812954343855381011962890625</LongitudeDegrees>
            </Position>
            <AltitudeMeters>226.1999969482421875</AltitudeMeters>
            <DistanceMeters>303054.61924645</DistanceMeters>
          </Trackpoint>
          <Trackpoint>
            <Time>2018-09-14T14:49:34.000Z</Time>
            <Position>
              <LatitudeDegrees>37.6530789770185947418212890625</LatitudeDegrees>
              <LongitudeDegrees>-8.08129652403295040130615234375</LongitudeDegrees>
            </Position>
            <AltitudeMeters>226.399993896484375</AltitudeMeters>
            <DistanceMeters>303060.75858999</DistanceMeters>
          </Trackpoint>
          <Trackpoint>
            <Time>2018-09-14T14:49:35.000Z</Time>
            <Position>
              <LatitudeDegrees>37.653023488819599151611328125</LatitudeDegrees>
              <LongitudeDegrees>-8.08129794895648956298828125</LongitudeDegrees>
            </Position>
            <AltitudeMeters>226.399993896484375</AltitudeMeters>
            <DistanceMeters>303066.9367882</DistanceMeters>
          </Trackpoint>
          <Trackpoint>
            <Time>2018-09-14T14:49:36.000Z</Time>
            <Position>
              <LatitudeDegrees>37.6529681682586669921875</LatitudeDegrees>
              <LongitudeDegrees>-8.08129970915615558624267578125</LongitudeDegrees>
            </Position>
            <AltitudeMeters>226.399993896484375</AltitudeMeters>
            <DistanceMeters>303073.09668927</DistanceMeters>
          </Trackpoint>
          <Trackpoint>
            <Time>2018-09-14T14:49:37.000Z</Time>
            <Position>
              <LatitudeDegrees>37.65291251242160797119140625</LatitudeDegrees>
              <LongitudeDegrees>-8.08130138553678989410400390625</LongitudeDegrees>
            </Position>
            <AltitudeMeters>226.399993896484375</AltitudeMeters>
            <DistanceMeters>303079.29313059</DistanceMeters>
          </Trackpoint>
          <Trackpoint>
            <Time>2018-09-14T14:49:38.000Z</Time>
            <Position>
              <LatitudeDegrees>37.65285710804164409637451171875</LatitudeDegrees>
              <LongitudeDegrees>-8.0813024751842021942138671875</LongitudeDegrees>
            </Position>
            <AltitudeMeters>226.1999969482421875</AltitudeMeters>
            <DistanceMeters>303085.46035703</DistanceMeters>
          </Trackpoint>
          <Trackpoint>
            <Time>2018-09-14T14:49:39.000Z</Time>
            <Position>
              <LatitudeDegrees>37.65280128456652164459228515625</LatitudeDegrees>
              <LongitudeDegrees>-8.08130373246967792510986328125</LongitudeDegrees>
            </Position>
            <AltitudeMeters>226.1999969482421875</AltitudeMeters>
            <DistanceMeters>303091.67426135</DistanceMeters>
          </Trackpoint>
          <Trackpoint>
            <Time>2018-09-14T14:49:40.000Z</Time>
            <Position>
              <LatitudeDegrees>37.65274529345333576202392578125</LatitudeDegrees>
              <LongitudeDegrees>-8.08130423538386821746826171875</LongitudeDegrees>
            </Position>
            <AltitudeMeters>226.1999969482421875</AltitudeMeters>
            <DistanceMeters>303097.90557973</DistanceMeters>
          </Trackpoint>
          <Trackpoint>
            <Time>2018-09-14T14:49:41.000Z</Time>
            <Position>
              <LatitudeDegrees>37.652688883244991302490234375</LatitudeDegrees>
              <LongitudeDegrees>-8.08130373246967792510986328125</LongitudeDegrees>
            </Position>
            <AltitudeMeters>226</AltitudeMeters>
            <DistanceMeters>303104.18453774</DistanceMeters>
          </Trackpoint>
          <Trackpoint>
            <Time>2018-09-14T14:49:42.000Z</Time>
            <Position>
              <LatitudeDegrees>37.6526310481131076812744140625</LatitudeDegrees>
              <LongitudeDegrees>-8.08130289427936077117919921875</LongitudeDegrees>
            </Position>
            <AltitudeMeters>226</AltitudeMeters>
            <DistanceMeters>303110.62255381</DistanceMeters>
          </Trackpoint>
          <Trackpoint>
            <Time>2018-09-14T14:49:43.000Z</Time>
            <Position>
              <LatitudeDegrees>37.65257245860993862152099609375</LatitudeDegrees>
              <LongitudeDegrees>-8.08130172081291675567626953125</LongitudeDegrees>
            </Position>
            <AltitudeMeters>226</AltitudeMeters>
            <DistanceMeters>303117.14418398</DistanceMeters>
          </Trackpoint>
          <Trackpoint>
            <Time>2018-09-14T14:49:44.000Z</Time>
            <Position>
              <LatitudeDegrees>37.65251328237354755401611328125</LatitudeDegrees>
              <LongitudeDegrees>-8.081300295889377593994140625</LongitudeDegrees>
            </Position>
            <AltitudeMeters>226</AltitudeMeters>
            <DistanceMeters>303123.73194136</DistanceMeters>
          </Trackpoint>
          <Trackpoint>
            <Time>2018-09-14T14:49:45.000Z</Time>
            <Position>
              <LatitudeDegrees>37.65245377086102962493896484375</LatitudeDegrees>
              <LongitudeDegrees>-8.081299625337123870849609375</LongitudeDegrees>
            </Position>
            <AltitudeMeters>226</AltitudeMeters>
            <DistanceMeters>303130.35660524</DistanceMeters>
          </Trackpoint>
          <Trackpoint>
            <Time>2018-09-14T14:49:46.000Z</Time>
            <Position>
              <LatitudeDegrees>37.65239375643432140350341796875</LatitudeDegrees>
              <LongitudeDegrees>-8.08130021207034587860107421875</LongitudeDegrees>
            </Position>
            <AltitudeMeters>226</AltitudeMeters>
            <DistanceMeters>303137.03557056</DistanceMeters>
          </Trackpoint>
          <Trackpoint>
            <Time>2018-09-14T14:49:47.000Z</Time>
            <Position>
              <LatitudeDegrees>37.65233390964567661285400390625</LatitudeDegrees>
              <LongitudeDegrees>-8.08130105026066303253173828125</LongitudeDegrees>
            </Position>
            <AltitudeMeters>226.1999969482421875</AltitudeMeters>
            <DistanceMeters>303143.69693645</DistanceMeters>
          </Trackpoint>
          <Trackpoint>
            <Time>2018-09-14T14:49:48.000Z</Time>
            <Position>
              <LatitudeDegrees>37.6522743143141269683837890625</LatitudeDegrees>
              <LongitudeDegrees>-8.08130306191742420196533203125</LongitudeDegrees>
            </Position>
            <AltitudeMeters>226.1999969482421875</AltitudeMeters>
            <DistanceMeters>303150.33249617</DistanceMeters>
          </Trackpoint>
          <Trackpoint>
            <Time>2018-09-14T14:49:49.000Z</Time>
            <Position>
              <LatitudeDegrees>37.6522158086299896240234375</LatitudeDegrees>
              <LongitudeDegrees>-8.081305660307407379150390625</LongitudeDegrees>
            </Position>
            <AltitudeMeters>226.1999969482421875</AltitudeMeters>
            <DistanceMeters>303156.8478925</DistanceMeters>
          </Trackpoint>
          <Trackpoint>
            <Time>2018-09-14T14:49:50.000Z</Time>
            <Position>
              <LatitudeDegrees>37.65215755440294742584228515625</LatitudeDegrees>
              <LongitudeDegrees>-8.081309013068675994873046875</LongitudeDegrees>
            </Position>
            <AltitudeMeters>226.399993896484375</AltitudeMeters>
            <DistanceMeters>303163.33759793</DistanceMeters>
          </Trackpoint>
          <Trackpoint>
            <Time>2018-09-14T14:49:51.000Z</Time>
            <Position>
              <LatitudeDegrees>37.65210022218525409698486328125</LatitudeDegrees>
              <LongitudeDegrees>-8.0813115276396274566650390625</LongitudeDegrees>
            </Position>
            <AltitudeMeters>226.399993896484375</AltitudeMeters>
            <DistanceMeters>303169.72350626</DistanceMeters>
          </Trackpoint>
          <Trackpoint>
            <Time>2018-09-14T14:49:52.000Z</Time>
            <Position>
              <LatitudeDegrees>37.65204221941530704498291015625</LatitudeDegrees>
              <LongitudeDegrees>-8.08131328783929347991943359375</LongitudeDegrees>
            </Position>
            <AltitudeMeters>226.1999969482421875</AltitudeMeters>
            <DistanceMeters>303176.18112912</DistanceMeters>
          </Trackpoint>
          <Trackpoint>
            <Time>2018-09-14T14:49:53.000Z</Time>
            <Position>
              <LatitudeDegrees>37.651983797550201416015625</LatitudeDegrees>
              <LongitudeDegrees>-8.08131538331508636474609375</LongitudeDegrees>
            </Position>
            <AltitudeMeters>226.1999969482421875</AltitudeMeters>
            <DistanceMeters>303182.68612245</DistanceMeters>
          </Trackpoint>
          <Trackpoint>
            <Time>2018-09-14T14:49:54.000Z</Time>
            <Position>
              <LatitudeDegrees>37.65192520804703235626220703125</LatitudeDegrees>
              <LongitudeDegrees>-8.0813182331621646881103515625</LongitudeDegrees>
            </Position>
            <AltitudeMeters>226.1999969482421875</AltitudeMeters>
            <DistanceMeters>303189.2119052</DistanceMeters>
          </Trackpoint>
          <Trackpoint>
            <Time>2018-09-14T14:49:55.000Z</Time>
            <Position>
              <LatitudeDegrees>37.6518662832677364349365234375</LatitudeDegrees>
              <LongitudeDegrees>-8.0813215859234333038330078125</LongitudeDegrees>
            </Position>
            <AltitudeMeters>226</AltitudeMeters>
            <DistanceMeters>303195.77631872</DistanceMeters>
          </Trackpoint>
          <Trackpoint>
            <Time>2018-09-14T14:49:56.000Z</Time>
            <Position>
              <LatitudeDegrees>37.6518072746694087982177734375</LatitudeDegrees>
              <LongitudeDegrees>-8.08132502250373363494873046875</LongitudeDegrees>
            </Position>
            <AltitudeMeters>226</AltitudeMeters>
            <DistanceMeters>303202.35172791</DistanceMeters>
          </Trackpoint>
          <Trackpoint>
            <Time>2018-09-14T14:49:57.000Z</Time>
            <Position>
              <LatitudeDegrees>37.65174784697592258453369140625</LatitudeDegrees>
              <LongitudeDegrees>-8.08132686652243137359619140625</LongitudeDegrees>
            </Position>
            <AltitudeMeters>226</AltitudeMeters>
            <DistanceMeters>303208.96820814</DistanceMeters>
          </Trackpoint>
          <Trackpoint>
            <Time>2018-09-14T14:49:58.000Z</Time>
            <Position>
              <LatitudeDegrees>37.65168816782534122467041015625</LatitudeDegrees>
              <LongitudeDegrees>-8.08132854290306568145751953125</LongitudeDegrees>
            </Position>
            <AltitudeMeters>226</AltitudeMeters>
            <DistanceMeters>303215.61260756</DistanceMeters>
          </Trackpoint>
          <Trackpoint>
            <Time>2018-09-14T14:49:59.000Z</Time>
            <Position>
              <LatitudeDegrees>37.6516284048557281494140625</LatitudeDegrees>
              <LongitudeDegrees>-8.08133021928369998931884765625</LongitudeDegrees>
            </Position>
            <AltitudeMeters>226</AltitudeMeters>
            <DistanceMeters>303222.26583495</DistanceMeters>
          </Trackpoint>
          <Trackpoint>
            <Time>2018-09-14T14:50:00.000Z</Time>
            <Position>
              <LatitudeDegrees>37.65156847424805164337158203125</LatitudeDegrees>
              <LongitudeDegrees>-8.08133122511208057403564453125</LongitudeDegrees>
            </Position>
            <AltitudeMeters>226</AltitudeMeters>
            <DistanceMeters>303228.93668323</DistanceMeters>
          </Trackpoint>
          <Trackpoint>
            <Time>2018-09-14T14:50:01.000Z</Time>
            <Position>
              <LatitudeDegrees>37.6515088789165019989013671875</LatitudeDegrees>
              <LongitudeDegrees>-8.08133223094046115875244140625</LongitudeDegrees>
            </Position>
            <AltitudeMeters>226.1999969482421875</AltitudeMeters>
            <DistanceMeters>303235.57088194</DistanceMeters>
          </Trackpoint>
          <Trackpoint>
            <Time>2018-09-14T14:50:02.000Z</Time>
            <Position>
              <LatitudeDegrees>37.65144945122301578521728515625</LatitudeDegrees>
              <LongitudeDegrees>-8.0813334882259368896484375</LongitudeDegrees>
            </Position>
            <AltitudeMeters>226.1999969482421875</AltitudeMeters>
            <DistanceMeters>303242.18599724</DistanceMeters>
          </Trackpoint>
          <Trackpoint>
            <Time>2018-09-14T14:50:03.000Z</Time>
            <Position>
              <LatitudeDegrees>37.65139010734856128692626953125</LatitudeDegrees>
              <LongitudeDegrees>-8.0813349969685077667236328125</LongitudeDegrees>
            </Position>
            <AltitudeMeters>226.399993896484375</AltitudeMeters>
            <DistanceMeters>303248.79223365</DistanceMeters>
          </Trackpoint>
          <Trackpoint>
            <Time>2018-09-14T14:50:04.000Z</Time>
            <Position>
              <LatitudeDegrees>37.65133135020732879638671875</LatitudeDegrees>
              <LongitudeDegrees>-8.081336505711078643798828125</LongitudeDegrees>
            </Position>
            <AltitudeMeters>226.399993896484375</AltitudeMeters>
            <DistanceMeters>303255.33321998</DistanceMeters>
          </Trackpoint>
          <Trackpoint>
            <Time>2018-09-14T14:50:05.000Z</Time>
            <Position>
              <LatitudeDegrees>37.6512725092470645904541015625</LatitudeDegrees>
              <LongitudeDegrees>-8.08133818209171295166015625</LongitudeDegrees>
            </Position>
            <AltitudeMeters>226.600006103515625</AltitudeMeters>
            <DistanceMeters>303261.88524131</DistanceMeters>
          </Trackpoint>
          <Trackpoint>
            <Time>2018-09-14T14:50:06.000Z</Time>
            <Position>
              <LatitudeDegrees>37.65121341682970523834228515625</LatitudeDegrees>
              <LongitudeDegrees>-8.08133943937718868255615234375</LongitudeDegrees>
            </Position>
            <AltitudeMeters>226.8000030517578125</AltitudeMeters>
            <DistanceMeters>303268.46339654</DistanceMeters>
          </Trackpoint>
          <Trackpoint>
            <Time>2018-09-14T14:50:07.000Z</Time>
            <Position>
              <LatitudeDegrees>37.651154659688472747802734375</LatitudeDegrees>
              <LongitudeDegrees>-8.0813415348529815673828125</LongitudeDegrees>
            </Position>
            <AltitudeMeters>227</AltitudeMeters>
            <DistanceMeters>303275.00576327</DistanceMeters>
          </Trackpoint>
          <Trackpoint>
            <Time>2018-09-14T14:50:08.000Z</Time>
            <Position>
              <LatitudeDegrees>37.65109623782336711883544921875</LatitudeDegrees>
              <LongitudeDegrees>-8.08134446851909160614013671875</LongitudeDegrees>
            </Position>
            <AltitudeMeters>227.399993896484375</AltitudeMeters>
            <DistanceMeters>303281.51353236</DistanceMeters>
          </Trackpoint>
          <Trackpoint>
            <Time>2018-09-14T14:50:09.000Z</Time>
            <Position>
              <LatitudeDegrees>37.65103764832019805908203125</LatitudeDegrees>
              <LongitudeDegrees>-8.081347234547138214111328125</LongitudeDegrees>
            </Position>
            <AltitudeMeters>227.600006103515625</AltitudeMeters>
            <DistanceMeters>303288.03931511</DistanceMeters>
          </Trackpoint>
          <Trackpoint>
            <Time>2018-09-14T14:50:10.000Z</Time>
            <Position>
              <LatitudeDegrees>37.65097889117896556854248046875</LatitudeDegrees>
              <LongitudeDegrees>-8.08134891092777252197265625</LongitudeDegrees>
            </Position>
            <AltitudeMeters>228</AltitudeMeters>
            <DistanceMeters>303294.58099167</DistanceMeters>
          </Trackpoint>
          <Trackpoint>
            <Time>2018-09-14T14:50:11.000Z</Time>
            <Position>
              <LatitudeDegrees>37.65092105604708194732666015625</LatitudeDegrees>
              <LongitudeDegrees>-8.08134882710874080657958984375</LongitudeDegrees>
            </Position>
            <AltitudeMeters>228.1999969482421875</AltitudeMeters>
            <DistanceMeters>303301.01760497</DistanceMeters>
          </Trackpoint>
          <Trackpoint>
            <Time>2018-09-14T14:50:12.000Z</Time>
            <Position>
              <LatitudeDegrees>37.65086355619132518768310546875</LatitudeDegrees>
              <LongitudeDegrees>-8.08134756982326507568359375</LongitudeDegrees>
            </Position>
            <AltitudeMeters>228.399993896484375</AltitudeMeters>
            <DistanceMeters>303307.41904909</DistanceMeters>
          </Trackpoint>
          <Trackpoint>
            <Time>2018-09-14T14:50:13.000Z</Time>
            <Position>
              <LatitudeDegrees>37.65080605633556842803955078125</LatitudeDegrees>
              <LongitudeDegrees>-8.0813470669090747833251953125</LongitudeDegrees>
            </Position>
            <AltitudeMeters>228.8000030517578125</AltitudeMeters>
            <DistanceMeters>303313.81908243</DistanceMeters>
          </Trackpoint>
          <Trackpoint>
            <Time>2018-09-14T14:50:14.000Z</Time>
            <Position>
              <LatitudeDegrees>37.65074872411787509918212890625</LatitudeDegrees>
              <LongitudeDegrees>-8.08134756982326507568359375</LongitudeDegrees>
            </Position>
            <AltitudeMeters>229.1999969482421875</AltitudeMeters>
            <DistanceMeters>303320.20003962</DistanceMeters>
          </Trackpoint>
          <Trackpoint>
            <Time>2018-09-14T14:50:15.000Z</Time>
            <Position>
              <LatitudeDegrees>37.6506921462714672088623046875</LatitudeDegrees>
              <LongitudeDegrees>-8.08134832419455051422119140625</LongitudeDegrees>
            </Position>
            <AltitudeMeters>229.8000030517578125</AltitudeMeters>
            <DistanceMeters>303326.49766582</DistanceMeters>
          </Trackpoint>
          <Trackpoint>
            <Time>2018-09-14T14:50:16.000Z</Time>
            <Position>
              <LatitudeDegrees>37.65063640661537647247314453125</LatitudeDegrees>
              <LongitudeDegrees>-8.08135016821324825286865234375</LongitudeDegrees>
            </Position>
            <AltitudeMeters>230.1999969482421875</AltitudeMeters>
            <DistanceMeters>303332.70284479</DistanceMeters>
          </Trackpoint>
          <Trackpoint>
            <Time>2018-09-14T14:50:17.000Z</Time>
            <Position>
              <LatitudeDegrees>37.6505808345973491668701171875</LatitudeDegrees>
              <LongitudeDegrees>-8.0813524313271045684814453125</LongitudeDegrees>
            </Position>
            <AltitudeMeters>230.600006103515625</AltitudeMeters>
            <DistanceMeters>303338.89053613</DistanceMeters>
          </Trackpoint>
          <Trackpoint>
            <Time>2018-09-14T14:50:18.000Z</Time>
            <Position>
              <LatitudeDegrees>37.650525681674480438232421875</LatitudeDegrees>
              <LongitudeDegrees>-8.08135502971708774566650390625</LongitudeDegrees>
            </Position>
            <AltitudeMeters>231</AltitudeMeters>
            <DistanceMeters>303345.0335557</DistanceMeters>
          </Trackpoint>
          <Trackpoint>
            <Time>2018-09-14T14:50:19.000Z</Time>
            <Position>
              <LatitudeDegrees>37.6504708640277385711669921875</LatitudeDegrees>
              <LongitudeDegrees>-8.081357963383197784423828125</LongitudeDegrees>
            </Position>
            <AltitudeMeters>231.399993896484375</AltitudeMeters>
            <DistanceMeters>303351.14045472</DistanceMeters>
          </Trackpoint>
          <Trackpoint>
            <Time>2018-09-14T14:50:20.000Z</Time>
            <Position>
              <LatitudeDegrees>37.6504148729145526885986328125</LatitudeDegrees>
              <LongitudeDegrees>-8.08136089704930782318115234375</LongitudeDegrees>
            </Position>
            <AltitudeMeters>231.600006103515625</AltitudeMeters>
            <DistanceMeters>303357.37756698</DistanceMeters>
          </Trackpoint>
          <Trackpoint>
            <Time>2018-09-14T14:50:21.000Z</Time>
            <Position>
              <LatitudeDegrees>37.65035879798233509063720703125</LatitudeDegrees>
              <LongitudeDegrees>-8.08136290870606899261474609375</LongitudeDegrees>
            </Position>
            <AltitudeMeters>231.600006103515625</AltitudeMeters>
            <DistanceMeters>303363.62191403</DistanceMeters>
          </Trackpoint>
          <Trackpoint>
            <Time>2018-09-14T14:50:22.000Z</Time>
            <Position>
              <LatitudeDegrees>37.6503025554120540618896484375</LatitudeDegrees>
              <LongitudeDegrees>-8.081363998353481292724609375</LongitudeDegrees>
            </Position>
            <AltitudeMeters>231.600006103515625</AltitudeMeters>
            <DistanceMeters>303369.88214819</DistanceMeters>
          </Trackpoint>
          <Trackpoint>
            <Time>2018-09-14T14:50:23.000Z</Time>
            <Position>
              <LatitudeDegrees>37.65024698339402675628662109375</LatitudeDegrees>
              <LongitudeDegrees>-8.08136492036283016204833984375</LongitudeDegrees>
            </Position>
            <AltitudeMeters>231.600006103515625</AltitudeMeters>
            <DistanceMeters>303376.06765011</DistanceMeters>
          </Trackpoint>
          <Trackpoint>
            <Time>2018-09-14T14:50:24.000Z</Time>
            <Position>
              <LatitudeDegrees>37.65019082464277744293212890625</LatitudeDegrees>
              <LongitudeDegrees>-8.08136492036283016204833984375</LongitudeDegrees>
            </Position>
            <AltitudeMeters>231.600006103515625</AltitudeMeters>
            <DistanceMeters>303382.31777896</DistanceMeters>
          </Trackpoint>
          <Trackpoint>
            <Time>2018-09-14T14:50:25.000Z</Time>
            <Position>
              <LatitudeDegrees>37.65013416297733783721923828125</LatitudeDegrees>
              <LongitudeDegrees>-8.08136408217251300811767578125</LongitudeDegrees>
            </Position>
            <AltitudeMeters>231.600006103515625</AltitudeMeters>
            <DistanceMeters>303388.62543437</DistanceMeters>
          </Trackpoint>
          <Trackpoint>
            <Time>2018-09-14T14:50:26.000Z</Time>
            <Position>
              <LatitudeDegrees>37.65007733367383480072021484375</LatitudeDegrees>
              <LongitudeDegrees>-8.081364668905735015869140625</LongitudeDegrees>
            </Position>
            <AltitudeMeters>231.600006103515625</AltitudeMeters>
            <DistanceMeters>303394.95024573</DistanceMeters>
          </Trackpoint>
          <Trackpoint>
            <Time>2018-09-14T14:50:27.000Z</Time>
            <Position>
              <LatitudeDegrees>37.65002067200839519500732421875</LatitudeDegrees>
              <LongitudeDegrees>-8.08136575855314731597900390625</LongitudeDegrees>
            </Position>
            <AltitudeMeters>231.600006103515625</AltitudeMeters>
            <DistanceMeters>303401.25790114</DistanceMeters>
          </Trackpoint>
          <Trackpoint>
            <Time>2018-09-14T14:50:28.000Z</Time>
            <Position>
              <LatitudeDegrees>37.6499640941619873046875</LatitudeDegrees>
              <LongitudeDegrees>-8.08136760257184505462646484375</LongitudeDegrees>
            </Position>
            <AltitudeMeters>231.600006103515625</AltitudeMeters>
            <DistanceMeters>303407.55839446</DistanceMeters>
          </Trackpoint>
          <Trackpoint>
            <Time>2018-09-14T14:50:29.000Z</Time>
            <Position>
              <LatitudeDegrees>37.6499076001346111297607421875</LatitudeDegrees>
              <LongitudeDegrees>-8.08136961422860622406005859375</LongitudeDegrees>
            </Position>
            <AltitudeMeters>231.600006103515625</AltitudeMeters>
            <DistanceMeters>303413.8502825</DistanceMeters>
          </Trackpoint>
          <Trackpoint>
            <Time>2018-09-14T14:50:30.000Z</Time>
            <Position>
              <LatitudeDegrees>37.64985144138336181640625</LatitudeDegrees>
              <LongitudeDegrees>-8.0813710391521453857421875</LongitudeDegrees>
            </Position>
            <AltitudeMeters>231.399993896484375</AltitudeMeters>
            <DistanceMeters>303420.10330025</DistanceMeters>
          </Trackpoint>
          <Trackpoint>
            <Time>2018-09-14T14:50:31.000Z</Time>
            <Position>
              <LatitudeDegrees>37.649794779717922210693359375</LatitudeDegrees>
              <LongitudeDegrees>-8.0813728831708431243896484375</LongitudeDegrees>
            </Position>
            <AltitudeMeters>231.399993896484375</AltitudeMeters>
            <DistanceMeters>303426.41238711</DistanceMeters>
          </Trackpoint>
          <Trackpoint>
            <Time>2018-09-14T14:50:32.000Z</Time>
            <Position>
              <LatitudeDegrees>37.64973769895732402801513671875</LatitudeDegrees>
              <LongitudeDegrees>-8.08137531392276287078857421875</LongitudeDegrees>
            </Position>
            <AltitudeMeters>231.399993896484375</AltitudeMeters>
            <DistanceMeters>303432.76853075</DistanceMeters>
          </Trackpoint>
          <Trackpoint>
            <Time>2018-09-14T14:50:33.000Z</Time>
            <Position>
              <LatitudeDegrees>37.6496802829205989837646484375</LatitudeDegrees>
              <LongitudeDegrees>-8.08137841522693634033203125</LongitudeDegrees>
            </Position>
            <AltitudeMeters>231.399993896484375</AltitudeMeters>
            <DistanceMeters>303439.16432986</DistanceMeters>
          </Trackpoint>
          <Trackpoint>
            <Time>2018-09-14T14:50:34.000Z</Time>
            <Position>
              <LatitudeDegrees>37.64962286688387393951416015625</LatitudeDegrees>
              <LongitudeDegrees>-8.081380762159824371337890625</LongitudeDegrees>
            </Position>
            <AltitudeMeters>231.399993896484375</AltitudeMeters>
            <DistanceMeters>303445.55801081</DistanceMeters>
          </Trackpoint>
          <Trackpoint>
            <Time>2018-09-14T14:50:35.000Z</Time>
            <Position>
              <LatitudeDegrees>37.649566791951656341552734375</LatitudeDegrees>
              <LongitudeDegrees>-8.08138310909271240234375</LongitudeDegrees>
            </Position>
            <AltitudeMeters>231.1999969482421875</AltitudeMeters>
            <DistanceMeters>303451.80235786</DistanceMeters>
          </Trackpoint>
          <Trackpoint>
            <Time>2018-09-14T14:50:36.000Z</Time>
            <Position>
              <LatitudeDegrees>37.649511136114597320556640625</LatitudeDegrees>
              <LongitudeDegrees>-8.08138621039688587188720703125</LongitudeDegrees>
            </Position>
            <AltitudeMeters>231.399993896484375</AltitudeMeters>
            <DistanceMeters>303458.00316954</DistanceMeters>
          </Trackpoint>
          <Trackpoint>
            <Time>2018-09-14T14:50:37.000Z</Time>
            <Position>
              <LatitudeDegrees>37.64945522882044315338134765625</LatitudeDegrees>
              <LongitudeDegrees>-8.0813903175294399261474609375</LongitudeDegrees>
            </Position>
            <AltitudeMeters>231.600006103515625</AltitudeMeters>
            <DistanceMeters>303464.23593689</DistanceMeters>
          </Trackpoint>
          <Trackpoint>
            <Time>2018-09-14T14:50:38.000Z</Time>
            <Position>
              <LatitudeDegrees>37.6493994891643524169921875</LatitudeDegrees>
              <LongitudeDegrees>-8.08139316737651824951171875</LongitudeDegrees>
            </Position>
            <AltitudeMeters>231.8000030517578125</AltitudeMeters>
            <DistanceMeters>303470.44475291</DistanceMeters>
          </Trackpoint>
          <Trackpoint>
            <Time>2018-09-14T14:50:39.000Z</Time>
            <Position>
              <LatitudeDegrees>37.64934374950826168060302734375</LatitudeDegrees>
              <LongitudeDegrees>-8.0813950113952159881591796875</LongitudeDegrees>
            </Position>
            <AltitudeMeters>231.8000030517578125</AltitudeMeters>
            <DistanceMeters>303476.65138695</DistanceMeters>
          </Trackpoint>
          <Trackpoint>
            <Time>2018-09-14T14:50:40.000Z</Time>
            <Position>
              <LatitudeDegrees>37.649287842214107513427734375</LatitudeDegrees>
              <LongitudeDegrees>-8.081396520137786865234375</LongitudeDegrees>
            </Position>
            <AltitudeMeters>232</AltitudeMeters>
            <DistanceMeters>303482.87545539</DistanceMeters>
          </Trackpoint>
          <Trackpoint>
            <Time>2018-09-14T14:50:41.000Z</Time>
            <Position>
              <LatitudeDegrees>37.64923210255801677703857421875</LatitudeDegrees>
              <LongitudeDegrees>-8.08139794506132602691650390625</LongitudeDegrees>
            </Position>
            <AltitudeMeters>232.1999969482421875</AltitudeMeters>
            <DistanceMeters>303489.08063435</DistanceMeters>
          </Trackpoint>
          <Trackpoint>
            <Time>2018-09-14T14:50:42.000Z</Time>
            <Position>
              <LatitudeDegrees>37.6491763629019260406494140625</LatitudeDegrees>
              <LongitudeDegrees>-8.0813983641564846038818359375</LongitudeDegrees>
            </Position>
            <AltitudeMeters>232.1999969482421875</AltitudeMeters>
            <DistanceMeters>303495.2843579</DistanceMeters>
          </Trackpoint>
          <Trackpoint>
            <Time>2018-09-14T14:50:43.000Z</Time>
            <Position>
              <LatitudeDegrees>37.649120874702930450439453125</LatitudeDegrees>
              <LongitudeDegrees>-8.08139987289905548095703125</LongitudeDegrees>
            </Position>
            <AltitudeMeters>232</AltitudeMeters>
            <DistanceMeters>303501.46182526</DistanceMeters>
          </Trackpoint>
          <Trackpoint>
            <Time>2018-09-14T14:50:44.000Z</Time>
            <Position>
              <LatitudeDegrees>37.6490647159516811370849609375</LatitudeDegrees>
              <LongitudeDegrees>-8.081402219831943511962890625</LongitudeDegrees>
            </Position>
            <AltitudeMeters>231.600006103515625</AltitudeMeters>
            <DistanceMeters>303507.71556503</DistanceMeters>
          </Trackpoint>
          <Trackpoint>
            <Time>2018-09-14T14:50:45.000Z</Time>
            <Position>
              <LatitudeDegrees>37.64900864101946353912353515625</LatitudeDegrees>
              <LongitudeDegrees>-8.081406913697719573974609375</LongitudeDegrees>
            </Position>
            <AltitudeMeters>231.399993896484375</AltitudeMeters>
            <DistanceMeters>303513.97002673</DistanceMeters>
          </Trackpoint>
          <Trackpoint>
            <Time>2018-09-14T14:50:46.000Z</Time>
            <Position>
              <LatitudeDegrees>37.64895197935402393341064453125</LatitudeDegrees>
              <LongitudeDegrees>-8.08141051791608333587646484375</LongitudeDegrees>
            </Position>
            <AltitudeMeters>231.1999969482421875</AltitudeMeters>
            <DistanceMeters>303520.28412108</DistanceMeters>
          </Trackpoint>
          <Trackpoint>
            <Time>2018-09-14T14:50:47.000Z</Time>
            <Position>
              <LatitudeDegrees>37.64889464713633060455322265625</LatitudeDegrees>
              <LongitudeDegrees>-8.08141185902059078216552734375</LongitudeDegrees>
            </Position>
            <AltitudeMeters>230.8000030517578125</AltitudeMeters>
            <DistanceMeters>303526.66578582</DistanceMeters>
          </Trackpoint>
          <Trackpoint>
            <Time>2018-09-14T14:50:48.000Z</Time>
            <Position>
              <LatitudeDegrees>37.64883681200444698333740234375</LatitudeDegrees>
              <LongitudeDegrees>-8.08141370303928852081298828125</LongitudeDegrees>
            </Position>
            <AltitudeMeters>230.600006103515625</AltitudeMeters>
            <DistanceMeters>303533.10520435</DistanceMeters>
          </Trackpoint>
          <Trackpoint>
            <Time>2018-09-14T14:50:49.000Z</Time>
            <Position>
              <LatitudeDegrees>37.64877813868224620819091796875</LatitudeDegrees>
              <LongitudeDegrees>-8.081415630877017974853515625</LongitudeDegrees>
            </Position>
            <AltitudeMeters>230.399993896484375</AltitudeMeters>
            <DistanceMeters>303539.63721102</DistanceMeters>
          </Trackpoint>
          <Trackpoint>
            <Time>2018-09-14T14:50:50.000Z</Time>
            <Position>
              <LatitudeDegrees>37.6487177051603794097900390625</LatitudeDegrees>
              <LongitudeDegrees>-8.081417977809906005859375</LongitudeDegrees>
            </Position>
            <AltitudeMeters>230</AltitudeMeters>
            <DistanceMeters>303546.36735689</DistanceMeters>
          </Trackpoint>
          <Trackpoint>
            <Time>2018-09-14T14:50:51.000Z</Time>
            <Position>
              <LatitudeDegrees>37.6486565172672271728515625</LatitudeDegrees>
              <LongitudeDegrees>-8.081420995295047760009765625</LongitudeDegrees>
            </Position>
            <AltitudeMeters>230.1999969482421875</AltitudeMeters>
            <DistanceMeters>303553.1828329</DistanceMeters>
          </Trackpoint>
          <Trackpoint>
            <Time>2018-09-14T14:50:52.000Z</Time>
            <Position>
              <LatitudeDegrees>37.6485943235456943511962890625</LatitudeDegrees>
              <LongitudeDegrees>-8.08142342604696750640869140625</LongitudeDegrees>
            </Position>
            <AltitudeMeters>230.399993896484375</AltitudeMeters>
            <DistanceMeters>303560.10805752</DistanceMeters>
          </Trackpoint>
          <Trackpoint>
            <Time>2018-09-14T14:50:53.000Z</Time>
            <Position>
              <LatitudeDegrees>37.64853137545287609100341796875</LatitudeDegrees>
              <LongitudeDegrees>-8.081425018608570098876953125</LongitudeDegrees>
            </Position>
            <AltitudeMeters>230.600006103515625</AltitudeMeters>
            <DistanceMeters>303567.11559316</DistanceMeters>
          </Trackpoint>
          <Trackpoint>
            <Time>2018-09-14T14:50:54.000Z</Time>
            <Position>
              <LatitudeDegrees>37.64846700243651866912841796875</LatitudeDegrees>
              <LongitudeDegrees>-8.08142694644629955291748046875</LongitudeDegrees>
            </Position>
            <AltitudeMeters>230.8000030517578125</AltitudeMeters>
            <DistanceMeters>303574.28239682</DistanceMeters>
          </Trackpoint>
          <Trackpoint>
            <Time>2018-09-14T14:50:55.000Z</Time>
            <Position>
              <LatitudeDegrees>37.64840095303952693939208984375</LatitudeDegrees>
              <LongitudeDegrees>-8.0814288742840290069580078125</LongitudeDegrees>
            </Position>
            <AltitudeMeters>231</AltitudeMeters>
            <DistanceMeters>303581.63577005</DistanceMeters>
          </Trackpoint>
          <Trackpoint>
            <Time>2018-09-14T14:50:56.000Z</Time>
            <Position>
              <LatitudeDegrees>37.6483341492712497711181640625</LatitudeDegrees>
              <LongitudeDegrees>-8.0814315564930438995361328125</LongitudeDegrees>
            </Position>
            <AltitudeMeters>231.1999969482421875</AltitudeMeters>
            <DistanceMeters>303589.07460789</DistanceMeters>
          </Trackpoint>
          <Trackpoint>
            <Time>2018-09-14T14:50:57.000Z</Time>
            <Position>
              <LatitudeDegrees>37.6482660882174968719482421875</LatitudeDegrees>
              <LongitudeDegrees>-8.08143398724496364593505859375</LongitudeDegrees>
            </Position>
            <AltitudeMeters>231</AltitudeMeters>
            <DistanceMeters>303596.65295112</DistanceMeters>
          </Trackpoint>
          <Trackpoint>
            <Time>2018-09-14T14:50:58.000Z</Time>
            <Position>
              <LatitudeDegrees>37.64819660224020481109619140625</LatitudeDegrees>
              <LongitudeDegrees>-8.08143516071140766143798828125</LongitudeDegrees>
            </Position>
            <AltitudeMeters>230.8000030517578125</AltitudeMeters>
            <DistanceMeters>303604.38814902</DistanceMeters>
          </Trackpoint>
          <Trackpoint>
            <Time>2018-09-14T14:50:59.000Z</Time>
            <Position>
              <LatitudeDegrees>37.648125775158405303955078125</LatitudeDegrees>
              <LongitudeDegrees>-8.0814355798065662384033203125</LongitudeDegrees>
            </Position>
            <AltitudeMeters>230.600006103515625</AltitudeMeters>
            <DistanceMeters>303612.27135815</DistanceMeters>
          </Trackpoint>
          <Trackpoint>
            <Time>2018-09-14T14:51:00.000Z</Time>
            <Position>
              <LatitudeDegrees>37.64805310405790805816650390625</LatitudeDegrees>
              <LongitudeDegrees>-8.08143616653978824615478515625</LongitudeDegrees>
            </Position>
            <AltitudeMeters>230.399993896484375</AltitudeMeters>
            <DistanceMeters>303620.35980075</DistanceMeters>
          </Trackpoint>
          <Trackpoint>
            <Time>2018-09-14T14:51:01.000Z</Time>
            <Position>
              <LatitudeDegrees>37.64797850511968135833740234375</LatitudeDegrees>
              <LongitudeDegrees>-8.08143817819654941558837890625</LongitudeDegrees>
            </Position>
            <AltitudeMeters>230.1999969482421875</AltitudeMeters>
            <DistanceMeters>303628.66472242</DistanceMeters>
          </Trackpoint>
          <Trackpoint>
            <Time>2018-09-14T14:51:02.000Z</Time>
            <Position>
              <LatitudeDegrees>37.64790222980082035064697265625</LatitudeDegrees>
              <LongitudeDegrees>-8.08144052512943744659423828125</LongitudeDegrees>
            </Position>
            <AltitudeMeters>230</AltitudeMeters>
            <DistanceMeters>303637.15726153</DistanceMeters>
          </Trackpoint>
          <Trackpoint>
            <Time>2018-09-14T14:51:03.000Z</Time>
            <Position>
              <LatitudeDegrees>37.64782436192035675048828125</LatitudeDegrees>
              <LongitudeDegrees>-8.0814421176910400390625</LongitudeDegrees>
            </Position>
            <AltitudeMeters>229.8000030517578125</AltitudeMeters>
            <DistanceMeters>303645.82503149</DistanceMeters>
          </Trackpoint>
          <Trackpoint>
            <Time>2018-09-14T14:51:04.000Z</Time>
            <Position>
              <LatitudeDegrees>37.64774515293538570404052734375</LatitudeDegrees>
              <LongitudeDegrees>-8.08144404552876949310302734375</LongitudeDegrees>
            </Position>
            <AltitudeMeters>229</AltitudeMeters>
            <DistanceMeters>303654.64256846</DistanceMeters>
          </Trackpoint>
          <Trackpoint>
            <Time>2018-09-14T14:51:05.000Z</Time>
            <Position>
              <LatitudeDegrees>37.64766384847462177276611328125</LatitudeDegrees>
              <LongitudeDegrees>-8.08144723065197467803955078125</LongitudeDegrees>
            </Position>
            <AltitudeMeters>228.399993896484375</AltitudeMeters>
            <DistanceMeters>303663.69607628</DistanceMeters>
          </Trackpoint>
          <Trackpoint>
            <Time>2018-09-14T14:51:06.000Z</Time>
            <Position>
              <LatitudeDegrees>37.647579275071620941162109375</LatitudeDegrees>
              <LongitudeDegrees>-8.08144924230873584747314453125</LongitudeDegrees>
            </Position>
            <AltitudeMeters>227.8000030517578125</AltitudeMeters>
            <DistanceMeters>303673.1113968</DistanceMeters>
          </Trackpoint>
          <Trackpoint>
            <Time>2018-09-14T14:51:07.000Z</Time>
            <Position>
              <LatitudeDegrees>37.64749302528798580169677734375</LatitudeDegrees>
              <LongitudeDegrees>-8.0814515054225921630859375</LongitudeDegrees>
            </Position>
            <AltitudeMeters>227</AltitudeMeters>
            <DistanceMeters>303682.71285764</DistanceMeters>
          </Trackpoint>
          <Trackpoint>
            <Time>2018-09-14T14:51:08.000Z</Time>
            <Position>
              <LatitudeDegrees>37.64740484766662120819091796875</LatitudeDegrees>
              <LongitudeDegrees>-8.0814550258219242095947265625</LongitudeDegrees>
            </Position>
            <AltitudeMeters>226.600006103515625</AltitudeMeters>
            <DistanceMeters>303692.53238697</DistanceMeters>
          </Trackpoint>
          <Trackpoint>
            <Time>2018-09-14T14:51:09.000Z</Time>
            <Position>
              <LatitudeDegrees>37.64731532894074916839599609375</LatitudeDegrees>
              <LongitudeDegrees>-8.08145946823060512542724609375</LongitudeDegrees>
            </Position>
            <AltitudeMeters>226</AltitudeMeters>
            <DistanceMeters>303702.50340205</DistanceMeters>
          </Trackpoint>
          <Trackpoint>
            <Time>2018-09-14T14:51:10.000Z</Time>
            <Position>
              <LatitudeDegrees>37.647224552929401397705078125</LatitudeDegrees>
              <LongitudeDegrees>-8.08146365918219089508056640625</LongitudeDegrees>
            </Position>
            <AltitudeMeters>225.399993896484375</AltitudeMeters>
            <DistanceMeters>303712.61381576</DistanceMeters>
          </Trackpoint>
          <Trackpoint>
            <Time>2018-09-14T14:51:11.000Z</Time>
            <Position>
              <LatitudeDegrees>37.6471325196325778961181640625</LatitudeDegrees>
              <LongitudeDegrees>-8.0814660899341106414794921875</LongitudeDegrees>
            </Position>
            <AltitudeMeters>225</AltitudeMeters>
            <DistanceMeters>303722.85996961</DistanceMeters>
          </Trackpoint>
          <Trackpoint>
            <Time>2018-09-14T14:51:12.000Z</Time>
            <Position>
              <LatitudeDegrees>37.6470379717648029327392578125</LatitudeDegrees>
              <LongitudeDegrees>-8.08146818540990352630615234375</LongitudeDegrees>
            </Position>
            <AltitudeMeters>224.399993896484375</AltitudeMeters>
            <DistanceMeters>303733.3852239</DistanceMeters>
          </Trackpoint>
          <Trackpoint>
            <Time>2018-09-14T14:51:13.000Z</Time>
            <Position>
              <LatitudeDegrees>37.6469427533447742462158203125</LatitudeDegrees>
              <LongitudeDegrees>-8.08147120289504528045654296875</LongitudeDegrees>
            </Position>
            <AltitudeMeters>223.8000030517578125</AltitudeMeters>
            <DistanceMeters>303743.98698608</DistanceMeters>
          </Trackpoint>
          <Trackpoint>
            <Time>2018-09-14T14:51:14.000Z</Time>
            <Position>
              <LatitudeDegrees>37.64684669673442840576171875</LatitudeDegrees>
              <LongitudeDegrees>-8.08147371746599674224853515625</LongitudeDegrees>
            </Position>
            <AltitudeMeters>223.1999969482421875</AltitudeMeters>
            <DistanceMeters>303754.68076409</DistanceMeters>
          </Trackpoint>
          <Trackpoint>
            <Time>2018-09-14T14:51:15.000Z</Time>
            <Position>
              <LatitudeDegrees>37.64674938283860683441162109375</LatitudeDegrees>
              <LongitudeDegrees>-8.08147472329437732696533203125</LongitudeDegrees>
            </Position>
            <AltitudeMeters>222.600006103515625</AltitudeMeters>
            <DistanceMeters>303765.51214227</DistanceMeters>
          </Trackpoint>
          <Trackpoint>
            <Time>2018-09-14T14:51:16.000Z</Time>
            <Position>
              <LatitudeDegrees>37.6466517336666584014892578125</LatitudeDegrees>
              <LongitudeDegrees>-8.08147623203694820404052734375</LongitudeDegrees>
            </Position>
            <AltitudeMeters>222.399993896484375</AltitudeMeters>
            <DistanceMeters>303776.38138742</DistanceMeters>
          </Trackpoint>
          <Trackpoint>
            <Time>2018-09-14T14:51:17.000Z</Time>
            <Position>
              <LatitudeDegrees>37.64655433595180511474609375</LatitudeDegrees>
              <LongitudeDegrees>-8.081477992236614227294921875</LongitudeDegrees>
            </Position>
            <AltitudeMeters>222.8000030517578125</AltitudeMeters>
            <DistanceMeters>303787.22318178</DistanceMeters>
          </Trackpoint>
          <Trackpoint>
            <Time>2018-09-14T14:51:18.000Z</Time>
            <Position>
              <LatitudeDegrees>37.646456770598888397216796875</LatitudeDegrees>
              <LongitudeDegrees>-8.0814815126359462738037109375</LongitudeDegrees>
            </Position>
            <AltitudeMeters>223.1999969482421875</AltitudeMeters>
            <DistanceMeters>303798.08702544</DistanceMeters>
          </Trackpoint>
          <Trackpoint>
            <Time>2018-09-14T14:51:19.000Z</Time>
            <Position>
              <LatitudeDegrees>37.6463597081601619720458984375</LatitudeDegrees>
              <LongitudeDegrees>-8.08148511685431003570556640625</LongitudeDegrees>
            </Position>
            <AltitudeMeters>223.600006103515625</AltitudeMeters>
            <DistanceMeters>303808.89503492</DistanceMeters>
          </Trackpoint>
          <Trackpoint>
            <Time>2018-09-14T14:51:20.000Z</Time>
            <Position>
              <LatitudeDegrees>37.64626356773078441619873046875</LatitudeDegrees>
              <LongitudeDegrees>-8.08148838579654693603515625</LongitudeDegrees>
            </Position>
            <AltitudeMeters>223.8000030517578125</AltitudeMeters>
            <DistanceMeters>303819.59936302</DistanceMeters>
          </Trackpoint>
          <Trackpoint>
            <Time>2018-09-14T14:51:21.000Z</Time>
            <Position>
              <LatitudeDegrees>37.64616868458688259124755859375</LatitudeDegrees>
              <LongitudeDegrees>-8.081491403281688690185546875</LongitudeDegrees>
            </Position>
            <AltitudeMeters>224.1999969482421875</AltitudeMeters>
            <DistanceMeters>303830.16315423</DistanceMeters>
          </Trackpoint>
          <Trackpoint>
            <Time>2018-09-14T14:51:22.000Z</Time>
            <Position>
              <LatitudeDegrees>37.6460757292807102203369140625</LatitudeDegrees>
              <LongitudeDegrees>-8.08149517513811588287353515625</LongitudeDegrees>
            </Position>
            <AltitudeMeters>224.600006103515625</AltitudeMeters>
            <DistanceMeters>303840.51496166</DistanceMeters>
          </Trackpoint>
          <Trackpoint>
            <Time>2018-09-14T14:51:23.000Z</Time>
            <Position>
              <LatitudeDegrees>37.64598436653614044189453125</LatitudeDegrees>
              <LongitudeDegrees>-8.0814996175467967987060546875</LongitudeDegrees>
            </Position>
            <AltitudeMeters>225</AltitudeMeters>
            <DistanceMeters>303850.69125355</DistanceMeters>
          </Trackpoint>
          <Trackpoint>
            <Time>2018-09-14T14:51:24.000Z</Time>
            <Position>
              <LatitudeDegrees>37.64589543454349040985107421875</LatitudeDegrees>
              <LongitudeDegrees>-8.08150305412709712982177734375</LongitudeDegrees>
            </Position>
            <AltitudeMeters>225.1999969482421875</AltitudeMeters>
            <DistanceMeters>303860.59411325</DistanceMeters>
          </Trackpoint>
          <Trackpoint>
            <Time>2018-09-14T14:51:25.000Z</Time>
            <Position>
              <LatitudeDegrees>37.64580759219825267791748046875</LatitudeDegrees>
              <LongitudeDegrees>-8.08150473050773143768310546875</LongitudeDegrees>
            </Position>
            <AltitudeMeters>225.399993896484375</AltitudeMeters>
            <DistanceMeters>303870.3730963</DistanceMeters>
          </Trackpoint>
          <Trackpoint>
            <Time>2018-09-14T14:51:26.000Z</Time>
            <Position>
              <LatitudeDegrees>37.64572243206202983856201171875</LatitudeDegrees>
              <LongitudeDegrees>-8.08150716125965118408203125</LongitudeDegrees>
            </Position>
            <AltitudeMeters>225.600006103515625</AltitudeMeters>
            <DistanceMeters>303879.8538864</DistanceMeters>
          </Trackpoint>
          <Trackpoint>
            <Time>2018-09-14T14:51:27.000Z</Time>
            <Position>
              <LatitudeDegrees>37.6456375233829021453857421875</LatitudeDegrees>
              <LongitudeDegrees>-8.0815110169351100921630859375</LongitudeDegrees>
            </Position>
            <AltitudeMeters>225.600006103515625</AltitudeMeters>
            <DistanceMeters>303889.31083502</DistanceMeters>
          </Trackpoint>
          <Trackpoint>
            <Time>2018-09-14T14:51:28.000Z</Time>
            <Position>
              <LatitudeDegrees>37.64555144123733043670654296875</LatitudeDegrees>
              <LongitudeDegrees>-8.081514202058315277099609375</LongitudeDegrees>
            </Position>
            <AltitudeMeters>225.8000030517578125</AltitudeMeters>
            <DistanceMeters>303898.89582316</DistanceMeters>
          </Trackpoint>
          <Trackpoint>
            <Time>2018-09-14T14:51:29.000Z</Time>
            <Position>
              <LatitudeDegrees>37.64546544291079044342041015625</LatitudeDegrees>
              <LongitudeDegrees>-8.08151680044829845428466796875</LongitudeDegrees>
            </Position>
            <AltitudeMeters>225.8000030517578125</AltitudeMeters>
            <DistanceMeters>303908.47044253</DistanceMeters>
          </Trackpoint>
          <Trackpoint>
            <Time>2018-09-14T14:51:30.000Z</Time>
            <Position>
              <LatitudeDegrees>37.64538128860294818878173828125</LatitudeDegrees>
              <LongitudeDegrees>-8.08151981793344020843505859375</LongitudeDegrees>
            </Position>
            <AltitudeMeters>226</AltitudeMeters>
            <DistanceMeters>303917.84105955</DistanceMeters>
          </Trackpoint>
          <Trackpoint>
            <Time>2018-09-14T14:51:31.000Z</Time>
            <Position>
              <LatitudeDegrees>37.64529797248542308807373046875</LatitudeDegrees>
              <LongitudeDegrees>-8.08152216486632823944091796875</LongitudeDegrees>
            </Position>
            <AltitudeMeters>226</AltitudeMeters>
            <DistanceMeters>303927.11675728</DistanceMeters>
          </Trackpoint>
          <Trackpoint>
            <Time>2018-09-14T14:51:32.000Z</Time>
            <Position>
              <LatitudeDegrees>37.64521633274853229522705078125</LatitudeDegrees>
              <LongitudeDegrees>-8.0815247632563114166259765625</LongitudeDegrees>
            </Position>
            <AltitudeMeters>226</AltitudeMeters>
            <DistanceMeters>303936.20610101</DistanceMeters>
          </Trackpoint>
          <Trackpoint>
            <Time>2018-09-14T14:51:33.000Z</Time>
            <Position>
              <LatitudeDegrees>37.64513720758259296417236328125</LatitudeDegrees>
              <LongitudeDegrees>-8.08152786456048488616943359375</LongitudeDegrees>
            </Position>
            <AltitudeMeters>225.8000030517578125</AltitudeMeters>
            <DistanceMeters>303945.01749121</DistanceMeters>
          </Trackpoint>
          <Trackpoint>
            <Time>2018-09-14T14:51:34.000Z</Time>
            <Position>
              <LatitudeDegrees>37.645060010254383087158203125</LatitudeDegrees>
              <LongitudeDegrees>-8.0815324746072292327880859375</LongitudeDegrees>
            </Position>
            <AltitudeMeters>225.8000030517578125</AltitudeMeters>
            <DistanceMeters>303953.61937742</DistanceMeters>
          </Trackpoint>
          <Trackpoint>
            <Time>2018-09-14T14:51:35.000Z</Time>
            <Position>
              <LatitudeDegrees>37.64498415403068065643310546875</LatitudeDegrees>
              <LongitudeDegrees>-8.081535995006561279296875</LongitudeDegrees>
            </Position>
            <AltitudeMeters>225.600006103515625</AltitudeMeters>
            <DistanceMeters>303962.06767454</DistanceMeters>
          </Trackpoint>
          <Trackpoint>
            <Time>2018-09-14T14:51:36.000Z</Time>
            <Position>
              <LatitudeDegrees>37.64490905217826366424560546875</LatitudeDegrees>
              <LongitudeDegrees>-8.0815388448536396026611328125</LongitudeDegrees>
            </Position>
            <AltitudeMeters>225.8000030517578125</AltitudeMeters>
            <DistanceMeters>303970.4300254</DistanceMeters>
          </Trackpoint>
          <Trackpoint>
            <Time>2018-09-14T14:51:37.000Z</Time>
            <Position>
              <LatitudeDegrees>37.64483529143035411834716796875</LatitudeDegrees>
              <LongitudeDegrees>-8.08154211379587650299072265625</LongitudeDegrees>
            </Position>
            <AltitudeMeters>226</AltitudeMeters>
            <DistanceMeters>303978.64475372</DistanceMeters>
          </Trackpoint>
          <Trackpoint>
            <Time>2018-09-14T14:51:38.000Z</Time>
            <Position>
              <LatitudeDegrees>37.64476354233920574188232421875</LatitudeDegrees>
              <LongitudeDegrees>-8.08154596947133541107177734375</LongitudeDegrees>
            </Position>
            <AltitudeMeters>226</AltitudeMeters>
            <DistanceMeters>303986.63830242</DistanceMeters>
          </Trackpoint>
          <Trackpoint>
            <Time>2018-09-14T14:51:39.000Z</Time>
            <Position>
              <LatitudeDegrees>37.64469263143837451934814453125</LatitudeDegrees>
              <LongitudeDegrees>-8.08154865168035030364990234375</LongitudeDegrees>
            </Position>
            <AltitudeMeters>226.1999969482421875</AltitudeMeters>
            <DistanceMeters>303994.5341018</DistanceMeters>
          </Trackpoint>
          <Trackpoint>
            <Time>2018-09-14T14:51:40.000Z</Time>
            <Position>
              <LatitudeDegrees>37.64462322928011417388916015625</LatitudeDegrees>
              <LongitudeDegrees>-8.081549070775508880615234375</LongitudeDegrees>
            </Position>
            <AltitudeMeters>226.1999969482421875</AltitudeMeters>
            <DistanceMeters>304002.25878594</DistanceMeters>
          </Trackpoint>
          <Trackpoint>
            <Time>2018-09-14T14:51:41.000Z</Time>
            <Position>
              <LatitudeDegrees>37.64455340802669525146484375</LatitudeDegrees>
              <LongitudeDegrees>-8.0815494060516357421875</LongitudeDegrees>
            </Position>
            <AltitudeMeters>226.1999969482421875</AltitudeMeters>
            <DistanceMeters>304010.030089</DistanceMeters>
          </Trackpoint>
          <Trackpoint>
            <Time>2018-09-14T14:51:42.000Z</Time>
            <Position>
              <LatitudeDegrees>37.644484676420688629150390625</LatitudeDegrees>
              <LongitudeDegrees>-8.0815522558987140655517578125</LongitudeDegrees>
            </Position>
            <AltitudeMeters>226.399993896484375</AltitudeMeters>
            <DistanceMeters>304017.68431241</DistanceMeters>
          </Trackpoint>
          <Trackpoint>
            <Time>2018-09-14T14:51:43.000Z</Time>
            <Position>
              <LatitudeDegrees>37.64441636390984058380126953125</LatitudeDegrees>
              <LongitudeDegrees>-8.0815552733838558197021484375</LongitudeDegrees>
            </Position>
            <AltitudeMeters>226.399993896484375</AltitudeMeters>
            <DistanceMeters>304025.29238641</DistanceMeters>
          </Trackpoint>
          <Trackpoint>
            <Time>2018-09-14T14:51:44.000Z</Time>
            <Position>
              <LatitudeDegrees>37.64434880577027797698974609375</LatitudeDegrees>
              <LongitudeDegrees>-8.0815576203167438507080078125</LongitudeDegrees>
            </Position>
            <AltitudeMeters>226.600006103515625</AltitudeMeters>
            <DistanceMeters>304032.8151179</DistanceMeters>
          </Trackpoint>
          <Trackpoint>
            <Time>2018-09-14T14:51:45.000Z</Time>
            <Position>
              <LatitudeDegrees>37.6442816667258739471435546875</LatitudeDegrees>
              <LongitudeDegrees>-8.0815606378018856048583984375</LongitudeDegrees>
            </Position>
            <AltitudeMeters>226.600006103515625</AltitudeMeters>
            <DistanceMeters>304040.29269995</DistanceMeters>
          </Trackpoint>
          <Trackpoint>
            <Time>2018-09-14T14:51:46.000Z</Time>
            <Position>
              <LatitudeDegrees>37.6442149467766284942626953125</LatitudeDegrees>
              <LongitudeDegrees>-8.081563152372837066650390625</LongitudeDegrees>
            </Position>
            <AltitudeMeters>226.8000030517578125</AltitudeMeters>
            <DistanceMeters>304047.72182017</DistanceMeters>
          </Trackpoint>
          <Trackpoint>
            <Time>2018-09-14T14:51:47.000Z</Time>
            <Position>
              <LatitudeDegrees>37.6441488973796367645263671875</LatitudeDegrees>
              <LongitudeDegrees>-8.08156323619186878204345703125</LongitudeDegrees>
            </Position>
            <AltitudeMeters>227</AltitudeMeters>
            <DistanceMeters>304055.07273695</DistanceMeters>
          </Trackpoint>
          <Trackpoint>
            <Time>2018-09-14T14:51:48.000Z</Time>
            <Position>
              <LatitudeDegrees>37.64408276416361331939697265625</LatitudeDegrees>
              <LongitudeDegrees>-8.0815626494586467742919921875</LongitudeDegrees>
            </Position>
            <AltitudeMeters>227.1999969482421875</AltitudeMeters>
            <DistanceMeters>304062.43286117</DistanceMeters>
          </Trackpoint>
          <Trackpoint>
            <Time>2018-09-14T14:51:49.000Z</Time>
            <Position>
              <LatitudeDegrees>37.64401688240468502044677734375</LatitudeDegrees>
              <LongitudeDegrees>-8.0815636552870273590087890625</LongitudeDegrees>
            </Position>
            <AltitudeMeters>227.399993896484375</AltitudeMeters>
            <DistanceMeters>304069.7659441</DistanceMeters>
          </Trackpoint>
          <Trackpoint>
            <Time>2018-09-14T14:51:50.000Z</Time>
            <Position>
              <LatitudeDegrees>37.64395183883607387542724609375</LatitudeDegrees>
              <LongitudeDegrees>-8.0815663374960422515869140625</LongitudeDegrees>
            </Position>
            <AltitudeMeters>227.600006103515625</AltitudeMeters>
            <DistanceMeters>304077.00857581</DistanceMeters>
          </Trackpoint>
          <Trackpoint>
            <Time>2018-09-14T14:51:51.000Z</Time>
            <Position>
              <LatitudeDegrees>37.64388687908649444580078125</LatitudeDegrees>
              <LongitudeDegrees>-8.0815693549811840057373046875</LongitudeDegrees>
            </Position>
            <AltitudeMeters>228</AltitudeMeters>
            <DistanceMeters>304084.24309881</DistanceMeters>
          </Trackpoint>
          <Trackpoint>
            <Time>2018-09-14T14:51:52.000Z</Time>
            <Position>
              <LatitudeDegrees>37.643822170794010162353515625</LatitudeDegrees>
              <LongitudeDegrees>-8.08157145045697689056396484375</LongitudeDegrees>
            </Position>
            <AltitudeMeters>228.1999969482421875</AltitudeMeters>
            <DistanceMeters>304091.44822958</DistanceMeters>
          </Trackpoint>
          <Trackpoint>
            <Time>2018-09-14T14:51:53.000Z</Time>
            <Position>
              <LatitudeDegrees>37.64375721104443073272705078125</LatitudeDegrees>
              <LongitudeDegrees>-8.0815720371901988983154296875</LongitudeDegrees>
            </Position>
            <AltitudeMeters>228.399993896484375</AltitudeMeters>
            <DistanceMeters>304098.67838259</DistanceMeters>
          </Trackpoint>
          <Trackpoint>
            <Time>2018-09-14T14:51:54.000Z</Time>
            <Position>
              <LatitudeDegrees>37.64369308948516845703125</LatitudeDegrees>
              <LongitudeDegrees>-8.0815722048282623291015625</LongitudeDegrees>
            </Position>
            <AltitudeMeters>228.600006103515625</AltitudeMeters>
            <DistanceMeters>304105.81488252</DistanceMeters>
          </Trackpoint>
          <Trackpoint>
            <Time>2018-09-14T14:51:55.000Z</Time>
            <Position>
              <LatitudeDegrees>37.64362871646881103515625</LatitudeDegrees>
              <LongitudeDegrees>-8.081571869552135467529296875</LongitudeDegrees>
            </Position>
            <AltitudeMeters>228.8000030517578125</AltitudeMeters>
            <DistanceMeters>304112.97916577</DistanceMeters>
          </Trackpoint>
          <Trackpoint>
            <Time>2018-09-14T14:51:56.000Z</Time>
            <Position>
              <LatitudeDegrees>37.64356425963342189788818359375</LatitudeDegrees>
              <LongitudeDegrees>-8.08157329447567462921142578125</LongitudeDegrees>
            </Position>
            <AltitudeMeters>229.1999969482421875</AltitudeMeters>
            <DistanceMeters>304120.15478392</DistanceMeters>
          </Trackpoint>
          <Trackpoint>
            <Time>2018-09-14T14:51:57.000Z</Time>
            <Position>
              <LatitudeDegrees>37.6434994675219058990478515625</LatitudeDegrees>
              <LongitudeDegrees>-8.08157681487500667572021484375</LongitudeDegrees>
            </Position>
            <AltitudeMeters>229.1999969482421875</AltitudeMeters>
            <DistanceMeters>304127.37306218</DistanceMeters>
          </Trackpoint>
          <Trackpoint>
            <Time>2018-09-14T14:51:58.000Z</Time>
            <Position>
              <LatitudeDegrees>37.6434347592294216156005859375</LatitudeDegrees>
              <LongitudeDegrees>-8.08158150874078273773193359375</LongitudeDegrees>
            </Position>
            <AltitudeMeters>229.399993896484375</AltitudeMeters>
            <DistanceMeters>304134.5863347</DistanceMeters>
          </Trackpoint>
          <Trackpoint>
            <Time>2018-09-14T14:51:59.000Z</Time>
            <Position>
              <LatitudeDegrees>37.64337030239403247833251953125</LatitudeDegrees>
              <LongitudeDegrees>-8.081584610044956207275390625</LongitudeDegrees>
            </Position>
            <AltitudeMeters>229.399993896484375</AltitudeMeters>
            <DistanceMeters>304141.76509827</DistanceMeters>
          </Trackpoint>
          <Trackpoint>
            <Time>2018-09-14T14:52:00.000Z</Time>
            <Position>
              <LatitudeDegrees>37.643305845558643341064453125</LatitudeDegrees>
              <LongitudeDegrees>-8.08158637024462223052978515625</LongitudeDegrees>
            </Position>
            <AltitudeMeters>229.1999969482421875</AltitudeMeters>
            <DistanceMeters>304148.94071642</DistanceMeters>
          </Trackpoint>
          <Trackpoint>
            <Time>2018-09-14T14:52:01.000Z</Time>
            <Position>
              <LatitudeDegrees>37.6432409696280956268310546875</LatitudeDegrees>
              <LongitudeDegrees>-8.081587962806224822998046875</LongitudeDegrees>
            </Position>
            <AltitudeMeters>229</AltitudeMeters>
            <DistanceMeters>304156.16274671</DistanceMeters>
          </Trackpoint>
          <Trackpoint>
            <Time>2018-09-14T14:52:02.000Z</Time>
            <Position>
              <LatitudeDegrees>37.64317600987851619720458984375</LatitudeDegrees>
              <LongitudeDegrees>-8.08158989064395427703857421875</LongitudeDegrees>
            </Position>
            <AltitudeMeters>228.600006103515625</AltitudeMeters>
            <DistanceMeters>304163.3947729</DistanceMeters>
          </Trackpoint>
          <Trackpoint>
            <Time>2018-09-14T14:52:03.000Z</Time>
            <Position>
              <LatitudeDegrees>37.64311113394796848297119140625</LatitudeDegrees>
              <LongitudeDegrees>-8.08159206993877887725830078125</LongitudeDegrees>
            </Position>
            <AltitudeMeters>228.399993896484375</AltitudeMeters>
            <DistanceMeters>304170.61805343</DistanceMeters>
          </Trackpoint>
          <Trackpoint>
            <Time>2018-09-14T14:52:04.000Z</Time>
            <Position>
              <LatitudeDegrees>37.64304558746516704559326171875</LatitudeDegrees>
              <LongitudeDegrees>-8.0815938301384449005126953125</LongitudeDegrees>
            </Position>
            <AltitudeMeters>228</AltitudeMeters>
            <DistanceMeters>304177.91471916</DistanceMeters>
          </Trackpoint>
          <Trackpoint>
            <Time>2018-09-14T14:52:05.000Z</Time>
            <Position>
              <LatitudeDegrees>37.6429791189730167388916015625</LatitudeDegrees>
              <LongitudeDegrees>-8.0815958417952060699462890625</LongitudeDegrees>
            </Position>
            <AltitudeMeters>227.8000030517578125</AltitudeMeters>
            <DistanceMeters>304185.31522006</DistanceMeters>
          </Trackpoint>
          <Trackpoint>
            <Time>2018-09-14T14:52:06.000Z</Time>
            <Position>
              <LatitudeDegrees>37.6429123990237712860107421875</LatitudeDegrees>
              <LongitudeDegrees>-8.0815971828997135162353515625</LongitudeDegrees>
            </Position>
            <AltitudeMeters>227.399993896484375</AltitudeMeters>
            <DistanceMeters>304192.74251681</DistanceMeters>
          </Trackpoint>
          <Trackpoint>
            <Time>2018-09-14T14:52:07.000Z</Time>
            <Position>
              <LatitudeDegrees>37.642845176160335540771484375</LatitudeDegrees>
              <LongitudeDegrees>-8.08159743435680866241455078125</LongitudeDegrees>
            </Position>
            <AltitudeMeters>227.1999969482421875</AltitudeMeters>
            <DistanceMeters>304200.22492778</DistanceMeters>
          </Trackpoint>
          <Trackpoint>
            <Time>2018-09-14T14:52:08.000Z</Time>
            <Position>
              <LatitudeDegrees>37.6427776180207729339599609375</LatitudeDegrees>
              <LongitudeDegrees>-8.081598021090030670166015625</LongitudeDegrees>
            </Position>
            <AltitudeMeters>226.8000030517578125</AltitudeMeters>
            <DistanceMeters>304207.74465775</DistanceMeters>
          </Trackpoint>
          <Trackpoint>
            <Time>2018-09-14T14:52:09.000Z</Time>
            <Position>
              <LatitudeDegrees>37.64270913787186145782470703125</LatitudeDegrees>
              <LongitudeDegrees>-8.0815990269184112548828125</LongitudeDegrees>
            </Position>
            <AltitudeMeters>226.600006103515625</AltitudeMeters>
            <DistanceMeters>304215.36814592</DistanceMeters>
          </Trackpoint>
          <Trackpoint>
            <Time>2018-09-14T14:52:10.000Z</Time>
            <Position>
              <LatitudeDegrees>37.642641328275203704833984375</LatitudeDegrees>
              <LongitudeDegrees>-8.08160045184195041656494140625</LongitudeDegrees>
            </Position>
            <AltitudeMeters>226.399993896484375</AltitudeMeters>
            <DistanceMeters>304222.91664129</DistanceMeters>
          </Trackpoint>
          <Trackpoint>
            <Time>2018-09-14T14:52:11.000Z</Time>
            <Position>
              <LatitudeDegrees>37.64257301576435565948486328125</LatitudeDegrees>
              <LongitudeDegrees>-8.08160296641290187835693359375</LongitudeDegrees>
            </Position>
            <AltitudeMeters>226.600006103515625</AltitudeMeters>
            <DistanceMeters>304230.5235283</DistanceMeters>
          </Trackpoint>
          <Trackpoint>
            <Time>2018-09-14T14:52:12.000Z</Time>
            <Position>
              <LatitudeDegrees>37.64250445179641246795654296875</LatitudeDegrees>
              <LongitudeDegrees>-8.08160447515547275543212890625</LongitudeDegrees>
            </Position>
            <AltitudeMeters>226.600006103515625</AltitudeMeters>
            <DistanceMeters>304238.15648665</DistanceMeters>
          </Trackpoint>
          <Trackpoint>
            <Time>2018-09-14T14:52:13.000Z</Time>
            <Position>
              <LatitudeDegrees>37.64243504963815212249755859375</LatitudeDegrees>
              <LongitudeDegrees>-8.0816069059073925018310546875</LongitudeDegrees>
            </Position>
            <AltitudeMeters>226.600006103515625</AltitudeMeters>
            <DistanceMeters>304245.88409271</DistanceMeters>
          </Trackpoint>
          <Trackpoint>
            <Time>2018-09-14T14:52:14.000Z</Time>
            <Position>
              <LatitudeDegrees>37.6423645578324794769287109375</LatitudeDegrees>
              <LongitudeDegrees>-8.08160841464996337890625</LongitudeDegrees>
            </Position>
            <AltitudeMeters>226.399993896484375</AltitudeMeters>
            <DistanceMeters>304253.73056079</DistanceMeters>
          </Trackpoint>
          <Trackpoint>
            <Time>2018-09-14T14:52:15.000Z</Time>
            <Position>
              <LatitudeDegrees>37.6422938145697116851806640625</LatitudeDegrees>
              <LongitudeDegrees>-8.08160900138318538665771484375</LongitudeDegrees>
            </Position>
            <AltitudeMeters>226.399993896484375</AltitudeMeters>
            <DistanceMeters>304261.60460072</DistanceMeters>
          </Trackpoint>
          <Trackpoint>
            <Time>2018-09-14T14:52:16.000Z</Time>
            <Position>
              <LatitudeDegrees>37.642222903668880462646484375</LatitudeDegrees>
              <LongitudeDegrees>-8.08161051012575626373291015625</LongitudeDegrees>
            </Position>
            <AltitudeMeters>226.1999969482421875</AltitudeMeters>
            <DistanceMeters>304269.49811245</DistanceMeters>
          </Trackpoint>
          <Trackpoint>
            <Time>2018-09-14T14:52:17.000Z</Time>
            <Position>
              <LatitudeDegrees>37.64215174131095409393310546875</LatitudeDegrees>
              <LongitudeDegrees>-8.08161352761089801788330078125</LongitudeDegrees>
            </Position>
            <AltitudeMeters>226.1999969482421875</AltitudeMeters>
            <DistanceMeters>304277.42302139</DistanceMeters>
          </Trackpoint>
          <Trackpoint>
            <Time>2018-09-14T14:52:18.000Z</Time>
            <Position>
              <LatitudeDegrees>37.64207915402948856353759765625</LatitudeDegrees>
              <LongitudeDegrees>-8.08161671273410320281982421875</LongitudeDegrees>
            </Position>
            <AltitudeMeters>226.1999969482421875</AltitudeMeters>
            <DistanceMeters>304285.5069971</DistanceMeters>
          </Trackpoint>
          <Trackpoint>
            <Time>2018-09-14T14:52:19.000Z</Time>
            <Position>
              <LatitudeDegrees>37.64200606383383274078369140625</LatitudeDegrees>
              <LongitudeDegrees>-8.08161922730505466461181640625</LongitudeDegrees>
            </Position>
            <AltitudeMeters>226</AltitudeMeters>
            <DistanceMeters>304293.64496863</DistanceMeters>
          </Trackpoint>
          <Trackpoint>
            <Time>2018-09-14T14:52:20.000Z</Time>
            <Position>
              <LatitudeDegrees>37.64193297363817691802978515625</LatitudeDegrees>
              <LongitudeDegrees>-8.08162174187600612640380859375</LongitudeDegrees>
            </Position>
            <AltitudeMeters>226</AltitudeMeters>
            <DistanceMeters>304301.78349495</DistanceMeters>
          </Trackpoint>
          <Trackpoint>
            <Time>2018-09-14T14:52:21.000Z</Time>
            <Position>
              <LatitudeDegrees>37.6418597996234893798828125</LatitudeDegrees>
              <LongitudeDegrees>-8.081624172627925872802734375</LongitudeDegrees>
            </Position>
            <AltitudeMeters>225.8000030517578125</AltitudeMeters>
            <DistanceMeters>304309.93033862</DistanceMeters>
          </Trackpoint>
          <Trackpoint>
            <Time>2018-09-14T14:52:22.000Z</Time>
            <Position>
              <LatitudeDegrees>37.6417858712375164031982421875</LatitudeDegrees>
              <LongitudeDegrees>-8.08162559755146503448486328125</LongitudeDegrees>
            </Position>
            <AltitudeMeters>225.8000030517578125</AltitudeMeters>
            <DistanceMeters>304318.15934484</DistanceMeters>
          </Trackpoint>
          <Trackpoint>
            <Time>2018-09-14T14:52:23.000Z</Time>
            <Position>
              <LatitudeDegrees>37.64171202667057514190673828125</LatitudeDegrees>
              <LongitudeDegrees>-8.0816256813704967498779296875</LongitudeDegrees>
            </Position>
            <AltitudeMeters>225.600006103515625</AltitudeMeters>
            <DistanceMeters>304326.37791964</DistanceMeters>
          </Trackpoint>
          <Trackpoint>
            <Time>2018-09-14T14:52:24.000Z</Time>
            <Position>
              <LatitudeDegrees>37.64163893647491931915283203125</LatitudeDegrees>
              <LongitudeDegrees>-8.0816250108182430267333984375</LongitudeDegrees>
            </Position>
            <AltitudeMeters>225.8000030517578125</AltitudeMeters>
            <DistanceMeters>304334.51422657</DistanceMeters>
          </Trackpoint>
          <Trackpoint>
            <Time>2018-09-14T14:52:25.000Z</Time>
            <Position>
              <LatitudeDegrees>37.6415662653744220733642578125</LatitudeDegrees>
              <LongitudeDegrees>-8.08162811212241649627685546875</LongitudeDegrees>
            </Position>
            <AltitudeMeters>226.1999969482421875</AltitudeMeters>
            <DistanceMeters>304342.60769149</DistanceMeters>
          </Trackpoint>
          <Trackpoint>
            <Time>2018-09-14T14:52:26.000Z</Time>
            <Position>
              <LatitudeDegrees>37.6414935104548931121826171875</LatitudeDegrees>
              <LongitudeDegrees>-8.08162978850305080413818359375</LongitudeDegrees>
            </Position>
            <AltitudeMeters>226.399993896484375</AltitudeMeters>
            <DistanceMeters>304350.707848</DistanceMeters>
          </Trackpoint>
          <Trackpoint>
            <Time>2018-09-14T14:52:27.000Z</Time>
            <Position>
              <LatitudeDegrees>37.64142100699245929718017578125</LatitudeDegrees>
              <LongitudeDegrees>-8.0816320516169071197509765625</LongitudeDegrees>
            </Position>
            <AltitudeMeters>226.600006103515625</AltitudeMeters>
            <DistanceMeters>304358.77952698</DistanceMeters>
          </Trackpoint>
          <Trackpoint>
            <Time>2018-09-14T14:52:28.000Z</Time>
            <Position>
              <LatitudeDegrees>37.64134825207293033599853515625</LatitudeDegrees>
              <LongitudeDegrees>-8.08163515292108058929443359375</LongitudeDegrees>
            </Position>
            <AltitudeMeters>227</AltitudeMeters>
            <DistanceMeters>304366.88191279</DistanceMeters>
          </Trackpoint>
          <Trackpoint>
            <Time>2018-09-14T14:52:29.000Z</Time>
            <Position>
              <LatitudeDegrees>37.6412749104201793670654296875</LatitudeDegrees>
              <LongitudeDegrees>-8.08163817040622234344482421875</LongitudeDegrees>
            </Position>
            <AltitudeMeters>227.1999969482421875</AltitudeMeters>
            <DistanceMeters>304375.04978918</DistanceMeters>
          </Trackpoint>
          <Trackpoint>
            <Time>2018-09-14T14:52:30.000Z</Time>
            <Position>
              <LatitudeDegrees>37.64120173640549182891845703125</LatitudeDegrees>
              <LongitudeDegrees>-8.081640936434268951416015625</LongitudeDegrees>
            </Position>
            <AltitudeMeters>227.399993896484375</AltitudeMeters>
            <DistanceMeters>304383.19774119</DistanceMeters>
          </Trackpoint>
          <Trackpoint>
            <Time>2018-09-14T14:52:31.000Z</Time>
            <Position>
              <LatitudeDegrees>37.64112797565758228302001953125</LatitudeDegrees>
              <LongitudeDegrees>-8.08164252899587154388427734375</LongitudeDegrees>
            </Position>
            <AltitudeMeters>227.8000030517578125</AltitudeMeters>
            <DistanceMeters>304391.40862122</DistanceMeters>
          </Trackpoint>
          <Trackpoint>
            <Time>2018-09-14T14:52:32.000Z</Time>
            <Position>
              <LatitudeDegrees>37.6410532929003238677978515625</LatitudeDegrees>
              <LongitudeDegrees>-8.08164504356682300567626953125</LongitudeDegrees>
            </Position>
            <AltitudeMeters>228</AltitudeMeters>
            <DistanceMeters>304399.72440894</DistanceMeters>
          </Trackpoint>
          <Trackpoint>
            <Time>2018-09-14T14:52:33.000Z</Time>
            <Position>
              <LatitudeDegrees>37.64097894541919231414794921875</LatitudeDegrees>
              <LongitudeDegrees>-8.08164789341390132904052734375</LongitudeDegrees>
            </Position>
            <AltitudeMeters>228.1999969482421875</AltitudeMeters>
            <DistanceMeters>304408.00319388</DistanceMeters>
          </Trackpoint>
          <Trackpoint>
            <Time>2018-09-14T14:52:34.000Z</Time>
            <Position>
              <LatitudeDegrees>37.6409049332141876220703125</LatitudeDegrees>
              <LongitudeDegrees>-8.081649653613567352294921875</LongitudeDegrees>
            </Position>
            <AltitudeMeters>228.399993896484375</AltitudeMeters>
            <DistanceMeters>304416.2426183</DistanceMeters>
          </Trackpoint>
          <Trackpoint>
            <Time>2018-09-14T14:52:35.000Z</Time>
            <Position>
              <LatitudeDegrees>37.640831172466278076171875</LatitudeDegrees>
              <LongitudeDegrees>-8.08165091089904308319091796875</LongitudeDegrees>
            </Position>
            <AltitudeMeters>228.600006103515625</AltitudeMeters>
            <DistanceMeters>304424.45349832</DistanceMeters>
          </Trackpoint>
          <Trackpoint>
            <Time>2018-09-14T14:52:36.000Z</Time>
            <Position>
              <LatitudeDegrees>37.64075732789933681488037109375</LatitudeDegrees>
              <LongitudeDegrees>-8.08165334165096282958984375</LongitudeDegrees>
            </Position>
            <AltitudeMeters>228.399993896484375</AltitudeMeters>
            <DistanceMeters>304432.67536868</DistanceMeters>
          </Trackpoint>
          <Trackpoint>
            <Time>2018-09-14T14:52:37.000Z</Time>
            <Position>
              <LatitudeDegrees>37.64068373478949069976806640625</LatitudeDegrees>
              <LongitudeDegrees>-8.0816568620502948760986328125</LongitudeDegrees>
            </Position>
            <AltitudeMeters>228.1999969482421875</AltitudeMeters>
            <DistanceMeters>304440.87249006</DistanceMeters>
          </Trackpoint>
          <Trackpoint>
            <Time>2018-09-14T14:52:38.000Z</Time>
            <Position>
              <LatitudeDegrees>37.64060947112739086151123046875</LatitudeDegrees>
              <LongitudeDegrees>-8.08166013099253177642822265625</LongitudeDegrees>
            </Position>
            <AltitudeMeters>228</AltitudeMeters>
            <DistanceMeters>304449.14309034</DistanceMeters>
          </Trackpoint>
          <Trackpoint>
            <Time>2018-09-14T14:52:39.000Z</Time>
            <Position>
              <LatitudeDegrees>37.640534453094005584716796875</LatitudeDegrees>
              <LongitudeDegrees>-8.0816628970205783843994140625</LongitudeDegrees>
            </Position>
            <AltitudeMeters>227.8000030517578125</AltitudeMeters>
            <DistanceMeters>304457.49571691</DistanceMeters>
          </Trackpoint>
          <Trackpoint>
            <Time>2018-09-14T14:52:40.000Z</Time>
            <Position>
              <LatitudeDegrees>37.640458680689334869384765625</LatitudeDegrees>
              <LongitudeDegrees>-8.08166683651506900787353515625</LongitudeDegrees>
            </Position>
            <AltitudeMeters>227.600006103515625</AltitudeMeters>
            <DistanceMeters>304465.93652867</DistanceMeters>
          </Trackpoint>
          <Trackpoint>
            <Time>2018-09-14T14:52:41.000Z</Time>
            <Position>
              <LatitudeDegrees>37.64038265682756900787353515625</LatitudeDegrees>
              <LongitudeDegrees>-8.08166918344795703887939453125</LongitudeDegrees>
            </Position>
            <AltitudeMeters>227.600006103515625</AltitudeMeters>
            <DistanceMeters>304474.40137696</DistanceMeters>
          </Trackpoint>
          <Trackpoint>
            <Time>2018-09-14T14:52:42.000Z</Time>
            <Position>
              <LatitudeDegrees>37.64030638150870800018310546875</LatitudeDegrees>
              <LongitudeDegrees>-8.0816706083714962005615234375</LongitudeDegrees>
            </Position>
            <AltitudeMeters>227.399993896484375</AltitudeMeters>
            <DistanceMeters>304482.89232098</DistanceMeters>
          </Trackpoint>
          <Trackpoint>
            <Time>2018-09-14T14:52:43.000Z</Time>
            <Position>
              <LatitudeDegrees>37.640230692923069000244140625</LatitudeDegrees>
              <LongitudeDegrees>-8.08167337439954280853271484375</LongitudeDegrees>
            </Position>
            <AltitudeMeters>227.1999969482421875</AltitudeMeters>
            <DistanceMeters>304491.31921371</DistanceMeters>
          </Trackpoint>
          <Trackpoint>
            <Time>2018-09-14T14:52:44.000Z</Time>
            <Position>
              <LatitudeDegrees>37.64015450142323970794677734375</LatitudeDegrees>
              <LongitudeDegrees>-8.081676475703716278076171875</LongitudeDegrees>
            </Position>
            <AltitudeMeters>227</AltitudeMeters>
            <DistanceMeters>304499.80377436</DistanceMeters>
          </Trackpoint>
          <Trackpoint>
            <Time>2018-09-14T14:52:45.000Z</Time>
            <Position>
              <LatitudeDegrees>37.6400779746472835540771484375</LatitudeDegrees>
              <LongitudeDegrees>-8.08168024756014347076416015625</LongitudeDegrees>
            </Position>
            <AltitudeMeters>226.8000030517578125</AltitudeMeters>
            <DistanceMeters>304508.32762297</DistanceMeters>
          </Trackpoint>
          <Trackpoint>
            <Time>2018-09-14T14:52:46.000Z</Time>
            <Position>
              <LatitudeDegrees>37.64000144787132740020751953125</LatitudeDegrees>
              <LongitudeDegrees>-8.08168393559753894805908203125</LongitudeDegrees>
            </Position>
            <AltitudeMeters>226.8000030517578125</AltitudeMeters>
            <DistanceMeters>304516.85147158</DistanceMeters>
          </Trackpoint>
          <Trackpoint>
            <Time>2018-09-14T14:52:47.000Z</Time>
            <Position>
              <LatitudeDegrees>37.6399247534573078155517578125</LatitudeDegrees>
              <LongitudeDegrees>-8.08168661780655384063720703125</LongitudeDegrees>
            </Position>
            <AltitudeMeters>226.8000030517578125</AltitudeMeters>
            <DistanceMeters>304525.39119624</DistanceMeters>
          </Trackpoint>
          <Trackpoint>
            <Time>2018-09-14T14:52:48.000Z</Time>
            <Position>
              <LatitudeDegrees>37.63984881341457366943359375</LatitudeDegrees>
              <LongitudeDegrees>-8.08168930001556873321533203125</LongitudeDegrees>
            </Position>
            <AltitudeMeters>226.8000030517578125</AltitudeMeters>
            <DistanceMeters>304533.84697209</DistanceMeters>
          </Trackpoint>
          <Trackpoint>
            <Time>2018-09-14T14:52:49.000Z</Time>
            <Position>
              <LatitudeDegrees>37.63977379538118839263916015625</LatitudeDegrees>
              <LongitudeDegrees>-8.081691898405551910400390625</LongitudeDegrees>
            </Position>
            <AltitudeMeters>226.8000030517578125</AltitudeMeters>
            <DistanceMeters>304542.2001392</DistanceMeters>
          </Trackpoint>
          <Trackpoint>
            <Time>2018-09-14T14:52:50.000Z</Time>
            <Position>
              <LatitudeDegrees>37.63969986699521541595458984375</LatitudeDegrees>
              <LongitudeDegrees>-8.0816934071481227874755859375</LongitudeDegrees>
            </Position>
            <AltitudeMeters>226.8000030517578125</AltitudeMeters>
            <DistanceMeters>304550.42969407</DistanceMeters>
          </Trackpoint>
          <Trackpoint>
            <Time>2018-09-14T14:52:51.000Z</Time>
            <Position>
              <LatitudeDegrees>37.63962744735181331634521484375</LatitudeDegrees>
              <LongitudeDegrees>-8.0816944129765033721923828125</LongitudeDegrees>
            </Position>
            <AltitudeMeters>226.8000030517578125</AltitudeMeters>
            <DistanceMeters>304558.49073805</DistanceMeters>
          </Trackpoint>
          <Trackpoint>
            <Time>2018-09-14T14:52:52.000Z</Time>
            <Position>
              <LatitudeDegrees>37.639556787908077239990234375</LatitudeDegrees>
              <LongitudeDegrees>-8.0816960893571376800537109375</LongitudeDegrees>
            </Position>
            <AltitudeMeters>226.8000030517578125</AltitudeMeters>
            <DistanceMeters>304566.35674617</DistanceMeters>
          </Trackpoint>
          <Trackpoint>
            <Time>2018-09-14T14:52:53.000Z</Time>
            <Position>
              <LatitudeDegrees>37.639485709369182586669921875</LatitudeDegrees>
              <LongitudeDegrees>-8.08169935829937458038330078125</LongitudeDegrees>
            </Position>
            <AltitudeMeters>226.8000030517578125</AltitudeMeters>
            <DistanceMeters>304574.27310459</DistanceMeters>
          </Trackpoint>
          <Trackpoint>
            <Time>2018-09-14T14:52:54.000Z</Time>
            <Position>
              <LatitudeDegrees>37.639414966106414794921875</LatitudeDegrees>
              <LongitudeDegrees>-8.08170296251773834228515625</LongitudeDegrees>
            </Position>
            <AltitudeMeters>226.8000030517578125</AltitudeMeters>
            <DistanceMeters>304582.15402241</DistanceMeters>
          </Trackpoint>
          <Trackpoint>
            <Time>2018-09-14T14:52:55.000Z</Time>
            <Position>
              <LatitudeDegrees>37.63934447430074214935302734375</LatitudeDegrees>
              <LongitudeDegrees>-8.08170497417449951171875</LongitudeDegrees>
            </Position>
            <AltitudeMeters>226.8000030517578125</AltitudeMeters>
            <DistanceMeters>304590.00279184</DistanceMeters>
          </Trackpoint>
          <Trackpoint>
            <Time>2018-09-14T14:52:56.000Z</Time>
            <Position>
              <LatitudeDegrees>37.63927423395216464996337890625</LatitudeDegrees>
              <LongitudeDegrees>-8.08170623145997524261474609375</LongitudeDegrees>
            </Position>
            <AltitudeMeters>226.8000030517578125</AltitudeMeters>
            <DistanceMeters>304597.82159082</DistanceMeters>
          </Trackpoint>
          <Trackpoint>
            <Time>2018-09-14T14:52:57.000Z</Time>
            <Position>
              <LatitudeDegrees>37.63920449651777744293212890625</LatitudeDegrees>
              <LongitudeDegrees>-8.081707656383514404296875</LongitudeDegrees>
            </Position>
            <AltitudeMeters>226.8000030517578125</AltitudeMeters>
            <DistanceMeters>304605.58475578</DistanceMeters>
          </Trackpoint>
          <Trackpoint>
            <Time>2018-09-14T14:52:58.000Z</Time>
            <Position>
              <LatitudeDegrees>37.63913509435951709747314453125</LatitudeDegrees>
              <LongitudeDegrees>-8.08170832693576812744140625</LongitudeDegrees>
            </Position>
            <AltitudeMeters>227</AltitudeMeters>
            <DistanceMeters>304613.30943993</DistanceMeters>
          </Trackpoint>
          <Trackpoint>
            <Time>2018-09-14T14:52:59.000Z</Time>
            <Position>
              <LatitudeDegrees>37.6390661112964153289794921875</LatitudeDegrees>
              <LongitudeDegrees>-8.08170874603092670440673828125</LongitudeDegrees>
            </Position>
            <AltitudeMeters>227.1999969482421875</AltitudeMeters>
            <DistanceMeters>304620.98722209</DistanceMeters>
          </Trackpoint>
          <Trackpoint>
            <Time>2018-09-14T14:53:00.000Z</Time>
            <Position>
              <LatitudeDegrees>37.638997547328472137451171875</LatitudeDegrees>
              <LongitudeDegrees>-8.0817128531634807586669921875</LongitudeDegrees>
            </Position>
            <AltitudeMeters>227.1999969482421875</AltitudeMeters>
            <DistanceMeters>304628.62668438</DistanceMeters>
          </Trackpoint>
          <Trackpoint>
            <Time>2018-09-14T14:53:01.000Z</Time>
            <Position>
              <LatitudeDegrees>37.63892940245568752288818359375</LatitudeDegrees>
              <LongitudeDegrees>-8.08171796612441539764404296875</LongitudeDegrees>
            </Position>
            <AltitudeMeters>227.399993896484375</AltitudeMeters>
            <DistanceMeters>304636.22466298</DistanceMeters>
          </Trackpoint>
          <Trackpoint>
            <Time>2018-09-14T14:53:02.000Z</Time>
            <Position>
              <LatitudeDegrees>37.63886184431612491607666015625</LatitudeDegrees>
              <LongitudeDegrees>-8.08172232471406459808349609375</LongitudeDegrees>
            </Position>
            <AltitudeMeters>227.600006103515625</AltitudeMeters>
            <DistanceMeters>304643.75399362</DistanceMeters>
          </Trackpoint>
          <Trackpoint>
            <Time>2018-09-14T14:53:03.000Z</Time>
            <Position>
              <LatitudeDegrees>37.63879470527172088623046875</LatitudeDegrees>
              <LongitudeDegrees>-8.0817276053130626678466796875</LongitudeDegrees>
            </Position>
            <AltitudeMeters>227.8000030517578125</AltitudeMeters>
            <DistanceMeters>304651.24002424</DistanceMeters>
          </Trackpoint>
          <Trackpoint>
            <Time>2018-09-14T14:53:04.000Z</Time>
            <Position>
              <LatitudeDegrees>37.6387278176844120025634765625</LatitudeDegrees>
              <LongitudeDegrees>-8.08173120953142642974853515625</LongitudeDegrees>
            </Position>
            <AltitudeMeters>228</AltitudeMeters>
            <DistanceMeters>304658.69099129</DistanceMeters>
          </Trackpoint>
          <Trackpoint>
            <Time>2018-09-14T14:53:05.000Z</Time>
            <Position>
              <LatitudeDegrees>37.63866034336388111114501953125</LatitudeDegrees>
              <LongitudeDegrees>-8.08173271827399730682373046875</LongitudeDegrees>
            </Position>
            <AltitudeMeters>228.1999969482421875</AltitudeMeters>
            <DistanceMeters>304666.20231058</DistanceMeters>
          </Trackpoint>
          <Trackpoint>
            <Time>2018-09-14T14:53:06.000Z</Time>
            <Position>
              <LatitudeDegrees>37.63859312050044536590576171875</LatitudeDegrees>
              <LongitudeDegrees>-8.0817339755594730377197265625</LongitudeDegrees>
            </Position>
            <AltitudeMeters>228.399993896484375</AltitudeMeters>
            <DistanceMeters>304673.68472156</DistanceMeters>
          </Trackpoint>
          <Trackpoint>
            <Time>2018-09-14T14:53:07.000Z</Time>
            <Position>
              <LatitudeDegrees>37.6385263167321681976318359375</LatitudeDegrees>
              <LongitudeDegrees>-8.0817343108355998992919921875</LongitudeDegrees>
            </Position>
            <AltitudeMeters>228.399993896484375</AltitudeMeters>
            <DistanceMeters>304681.11991678</DistanceMeters>
          </Trackpoint>
          <Trackpoint>
            <Time>2018-09-14T14:53:08.000Z</Time>
            <Position>
              <LatitudeDegrees>37.6384595967829227447509765625</LatitudeDegrees>
              <LongitudeDegrees>-8.0817336402833461761474609375</LongitudeDegrees>
            </Position>
            <AltitudeMeters>228.600006103515625</AltitudeMeters>
            <DistanceMeters>304688.5466056</DistanceMeters>
          </Trackpoint>
          <Trackpoint>
            <Time>2018-09-14T14:53:09.000Z</Time>
            <Position>
              <LatitudeDegrees>37.63839413411915302276611328125</LatitudeDegrees>
              <LongitudeDegrees>-8.08173271827399730682373046875</LongitudeDegrees>
            </Position>
            <AltitudeMeters>228.8000030517578125</AltitudeMeters>
            <DistanceMeters>304695.83336411</DistanceMeters>
          </Trackpoint>
          <Trackpoint>
            <Time>2018-09-14T14:53:10.000Z</Time>
            <Position>
              <LatitudeDegrees>37.63832892291247844696044921875</LatitudeDegrees>
              <LongitudeDegrees>-8.0817331373691558837890625</LongitudeDegrees>
            </Position>
            <AltitudeMeters>229</AltitudeMeters>
            <DistanceMeters>304703.09156402</DistanceMeters>
          </Trackpoint>
          <Trackpoint>
            <Time>2018-09-14T14:53:11.000Z</Time>
            <Position>
              <LatitudeDegrees>37.6382644660770893096923828125</LatitudeDegrees>
              <LongitudeDegrees>-8.0817346461117267608642578125</LongitudeDegrees>
            </Position>
            <AltitudeMeters>229.1999969482421875</AltitudeMeters>
            <DistanceMeters>304710.26655293</DistanceMeters>
          </Trackpoint>
          <Trackpoint>
            <Time>2018-09-14T14:53:12.000Z</Time>
            <Position>
              <LatitudeDegrees>37.63820059597492218017578125</LatitudeDegrees>
              <LongitudeDegrees>-8.0817366577684879302978515625</LongitudeDegrees>
            </Position>
            <AltitudeMeters>229.399993896484375</AltitudeMeters>
            <DistanceMeters>304717.37770108</DistanceMeters>
          </Trackpoint>
          <Trackpoint>
            <Time>2018-09-14T14:53:13.000Z</Time>
            <Position>
              <LatitudeDegrees>37.6381368935108184814453125</LatitudeDegrees>
              <LongitudeDegrees>-8.0817383341491222381591796875</LongitudeDegrees>
            </Position>
            <AltitudeMeters>229.8000030517578125</AltitudeMeters>
            <DistanceMeters>304724.46977594</DistanceMeters>
          </Trackpoint>
          <Trackpoint>
            <Time>2018-09-14T14:53:14.000Z</Time>
            <Position>
              <LatitudeDegrees>37.6380730234086513519287109375</LatitudeDegrees>
              <LongitudeDegrees>-8.081740848720073699951171875</LongitudeDegrees>
            </Position>
            <AltitudeMeters>230</AltitudeMeters>
            <DistanceMeters>304731.58219383</DistanceMeters>
          </Trackpoint>
          <Trackpoint>
            <Time>2018-09-14T14:53:15.000Z</Time>
            <Position>
              <LatitudeDegrees>37.638009153306484222412109375</LatitudeDegrees>
              <LongitudeDegrees>-8.08174411766231060028076171875</LongitudeDegrees>
            </Position>
            <AltitudeMeters>230.1999969482421875</AltitudeMeters>
            <DistanceMeters>304738.6965159</DistanceMeters>
          </Trackpoint>
          <Trackpoint>
            <Time>2018-09-14T14:53:16.000Z</Time>
            <Position>
              <LatitudeDegrees>37.63794553466141223907470703125</LatitudeDegrees>
              <LongitudeDegrees>-8.08174713514745235443115234375</LongitudeDegrees>
            </Position>
            <AltitudeMeters>230.399993896484375</AltitudeMeters>
            <DistanceMeters>304745.78222158</DistanceMeters>
          </Trackpoint>
          <Trackpoint>
            <Time>2018-09-14T14:53:17.000Z</Time>
            <Position>
              <LatitudeDegrees>37.63788183219730854034423828125</LatitudeDegrees>
              <LongitudeDegrees>-8.0817500688135623931884765625</LongitudeDegrees>
            </Position>
            <AltitudeMeters>230.600006103515625</AltitudeMeters>
            <DistanceMeters>304752.8781152</DistanceMeters>
          </Trackpoint>
          <Trackpoint>
            <Time>2018-09-14T14:53:18.000Z</Time>
            <Position>
              <LatitudeDegrees>37.63781779445707798004150390625</LatitudeDegrees>
              <LongitudeDegrees>-8.0817540921270847320556640625</LongitudeDegrees>
            </Position>
            <AltitudeMeters>231</AltitudeMeters>
            <DistanceMeters>304760.01461512</DistanceMeters>
          </Trackpoint>
          <Trackpoint>
            <Time>2018-09-14T14:53:19.000Z</Time>
            <Position>
              <LatitudeDegrees>37.6377533376216888427734375</LatitudeDegrees>
              <LongitudeDegrees>-8.081758283078670501708984375</LongitudeDegrees>
            </Position>
            <AltitudeMeters>231.1999969482421875</AltitudeMeters>
            <DistanceMeters>304767.19777994</DistanceMeters>
          </Trackpoint>
          <Trackpoint>
            <Time>2018-09-14T14:53:20.000Z</Time>
            <Position>
              <LatitudeDegrees>37.637688629329204559326171875</LatitudeDegrees>
              <LongitudeDegrees>-8.08176197111606597900390625</LongitudeDegrees>
            </Position>
            <AltitudeMeters>231.399993896484375</AltitudeMeters>
            <DistanceMeters>304774.40729587</DistanceMeters>
          </Trackpoint>
          <Trackpoint>
            <Time>2018-09-14T14:53:21.000Z</Time>
            <Position>
              <LatitudeDegrees>37.637622915208339691162109375</LatitudeDegrees>
              <LongitudeDegrees>-8.08176507242023944854736328125</LongitudeDegrees>
            </Position>
            <AltitudeMeters>231.600006103515625</AltitudeMeters>
            <DistanceMeters>304781.72620382</DistanceMeters>
          </Trackpoint>
          <Trackpoint>
            <Time>2018-09-14T14:53:22.000Z</Time>
            <Position>
              <LatitudeDegrees>37.6375566981732845306396484375</LatitudeDegrees>
              <LongitudeDegrees>-8.081767670810222625732421875</LongitudeDegrees>
            </Position>
            <AltitudeMeters>231.8000030517578125</AltitudeMeters>
            <DistanceMeters>304789.09919915</DistanceMeters>
          </Trackpoint>
          <Trackpoint>
            <Time>2018-09-14T14:53:23.000Z</Time>
            <Position>
              <LatitudeDegrees>37.637490145862102508544921875</LatitudeDegrees>
              <LongitudeDegrees>-8.08176959864795207977294921875</LongitudeDegrees>
            </Position>
            <AltitudeMeters>232</AltitudeMeters>
            <DistanceMeters>304796.50884589</DistanceMeters>
          </Trackpoint>
          <Trackpoint>
            <Time>2018-09-14T14:53:24.000Z</Time>
            <Position>
              <LatitudeDegrees>37.63742317445576190948486328125</LatitudeDegrees>
              <LongitudeDegrees>-8.08177026920020580291748046875</LongitudeDegrees>
            </Position>
            <AltitudeMeters>232</AltitudeMeters>
            <DistanceMeters>304803.96344785</DistanceMeters>
          </Trackpoint>
          <Trackpoint>
            <Time>2018-09-14T14:53:25.000Z</Time>
            <Position>
              <LatitudeDegrees>37.63735578395426273345947265625</LatitudeDegrees>
              <LongitudeDegrees>-8.0817711912095546722412109375</LongitudeDegrees>
            </Position>
            <AltitudeMeters>232</AltitudeMeters>
            <DistanceMeters>304811.46514342</DistanceMeters>
          </Trackpoint>
          <Trackpoint>
            <Time>2018-09-14T14:53:26.000Z</Time>
            <Position>
              <LatitudeDegrees>37.63728805817663669586181640625</LatitudeDegrees>
              <LongitudeDegrees>-8.08177269995212554931640625</LongitudeDegrees>
            </Position>
            <AltitudeMeters>232</AltitudeMeters>
            <DistanceMeters>304819.00406252</DistanceMeters>
          </Trackpoint>
          <Trackpoint>
            <Time>2018-09-14T14:53:27.000Z</Time>
            <Position>
              <LatitudeDegrees>37.6372197456657886505126953125</LatitudeDegrees>
              <LongitudeDegrees>-8.0817742086946964263916015625</LongitudeDegrees>
            </Position>
            <AltitudeMeters>232</AltitudeMeters>
            <DistanceMeters>304826.60857496</DistanceMeters>
          </Trackpoint>
          <Trackpoint>
            <Time>2018-09-14T14:53:28.000Z</Time>
            <Position>
              <LatitudeDegrees>37.6371510140597820281982421875</LatitudeDegrees>
              <LongitudeDegrees>-8.08177647180855274200439453125</LongitudeDegrees>
            </Position>
            <AltitudeMeters>232</AltitudeMeters>
            <DistanceMeters>304834.26102854</DistanceMeters>
          </Trackpoint>
          <Trackpoint>
            <Time>2018-09-14T14:53:29.000Z</Time>
            <Position>
              <LatitudeDegrees>37.63708203099668025970458984375</LatitudeDegrees>
              <LongitudeDegrees>-8.08177798055112361907958984375</LongitudeDegrees>
            </Position>
            <AltitudeMeters>232</AltitudeMeters>
            <DistanceMeters>304841.93998675</DistanceMeters>
          </Trackpoint>
          <Trackpoint>
            <Time>2018-09-14T14:53:30.000Z</Time>
            <Position>
              <LatitudeDegrees>37.63701296411454677581787109375</LatitudeDegrees>
              <LongitudeDegrees>-8.081779740750789642333984375</LongitudeDegrees>
            </Position>
            <AltitudeMeters>232</AltitudeMeters>
            <DistanceMeters>304849.62893404</DistanceMeters>
          </Trackpoint>
          <Trackpoint>
            <Time>2018-09-14T14:53:31.000Z</Time>
            <Position>
              <LatitudeDegrees>37.636944316327571868896484375</LatitudeDegrees>
              <LongitudeDegrees>-8.08178267441689968109130859375</LongitudeDegrees>
            </Position>
            <AltitudeMeters>232</AltitudeMeters>
            <DistanceMeters>304857.2743042</DistanceMeters>
          </Trackpoint>
          <Trackpoint>
            <Time>2018-09-14T14:53:32.000Z</Time>
            <Position>
              <LatitudeDegrees>37.636875249445438385009765625</LatitudeDegrees>
              <LongitudeDegrees>-8.081785775721073150634765625</LongitudeDegrees>
            </Position>
            <AltitudeMeters>232</AltitudeMeters>
            <DistanceMeters>304864.96559998</DistanceMeters>
          </Trackpoint>
          <Trackpoint>
            <Time>2018-09-14T14:53:33.000Z</Time>
            <Position>
              <LatitudeDegrees>37.6368065178394317626953125</LatitudeDegrees>
              <LongitudeDegrees>-8.08178854174911975860595703125</LongitudeDegrees>
            </Position>
            <AltitudeMeters>232</AltitudeMeters>
            <DistanceMeters>304872.61864354</DistanceMeters>
          </Trackpoint>
          <Trackpoint>
            <Time>2018-09-14T14:53:34.000Z</Time>
            <Position>
              <LatitudeDegrees>37.63673787005245685577392578125</LatitudeDegrees>
              <LongitudeDegrees>-8.08179105632007122039794921875</LongitudeDegrees>
            </Position>
            <AltitudeMeters>232</AltitudeMeters>
            <DistanceMeters>304880.26283249</DistanceMeters>
          </Trackpoint>
          <Trackpoint>
            <Time>2018-09-14T14:53:35.000Z</Time>
            <Position>
              <LatitudeDegrees>37.63666930608451366424560546875</LatitudeDegrees>
              <LongitudeDegrees>-8.081793487071990966796875</LongitudeDegrees>
            </Position>
            <AltitudeMeters>232</AltitudeMeters>
            <DistanceMeters>304887.89697379</DistanceMeters>
          </Trackpoint>
          <Trackpoint>
            <Time>2018-09-14T14:53:36.000Z</Time>
            <Position>
              <LatitudeDegrees>37.6365998201072216033935546875</LatitudeDegrees>
              <LongitudeDegrees>-8.081796169281005859375</LongitudeDegrees>
            </Position>
            <AltitudeMeters>232.1999969482421875</AltitudeMeters>
            <DistanceMeters>304895.63450614</DistanceMeters>
          </Trackpoint>
          <Trackpoint>
            <Time>2018-09-14T14:53:37.000Z</Time>
            <Position>
              <LatitudeDegrees>37.63652999885380268096923828125</LatitudeDegrees>
              <LongitudeDegrees>-8.081798516213893890380859375</LongitudeDegrees>
            </Position>
            <AltitudeMeters>232.1999969482421875</AltitudeMeters>
            <DistanceMeters>304903.4087136</DistanceMeters>
          </Trackpoint>
          <Trackpoint>
            <Time>2018-09-14T14:53:38.000Z</Time>
            <Position>
              <LatitudeDegrees>37.63646059669554233551025390625</LatitudeDegrees>
              <LongitudeDegrees>-8.08179994113743305206298828125</LongitudeDegrees>
            </Position>
            <AltitudeMeters>232.399993896484375</AltitudeMeters>
            <DistanceMeters>304911.13456664</DistanceMeters>
          </Trackpoint>
          <Trackpoint>
            <Time>2018-09-14T14:53:39.000Z</Time>
            <Position>
              <LatitudeDegrees>37.636391110718250274658203125</LatitudeDegrees>
              <LongitudeDegrees>-8.0818001925945281982421875</LongitudeDegrees>
            </Position>
            <AltitudeMeters>232.600006103515625</AltitudeMeters>
            <DistanceMeters>304918.86859705</DistanceMeters>
          </Trackpoint>
          <Trackpoint>
            <Time>2018-09-14T14:53:40.000Z</Time>
            <Position>
              <LatitudeDegrees>37.6363222114741802215576171875</LatitudeDegrees>
              <LongitudeDegrees>-8.08180111460387706756591796875</LongitudeDegrees>
            </Position>
            <AltitudeMeters>232.8000030517578125</AltitudeMeters>
            <DistanceMeters>304926.53814189</DistanceMeters>
          </Trackpoint>
          <Trackpoint>
            <Time>2018-09-14T14:53:41.000Z</Time>
            <Position>
              <LatitudeDegrees>37.6362539827823638916015625</LatitudeDegrees>
              <LongitudeDegrees>-8.08180312626063823699951171875</LongitudeDegrees>
            </Position>
            <AltitudeMeters>233</AltitudeMeters>
            <DistanceMeters>304934.13433755</DistanceMeters>
          </Trackpoint>
          <Trackpoint>
            <Time>2018-09-14T14:53:42.000Z</Time>
            <Position>
              <LatitudeDegrees>37.63618634082376956939697265625</LatitudeDegrees>
              <LongitudeDegrees>-8.08180429972708225250244140625</LongitudeDegrees>
            </Position>
            <AltitudeMeters>233.1999969482421875</AltitudeMeters>
            <DistanceMeters>304941.66366819</DistanceMeters>
          </Trackpoint>
          <Trackpoint>
            <Time>2018-09-14T14:53:43.000Z</Time>
            <Position>
              <LatitudeDegrees>37.63611853122711181640625</LatitudeDegrees>
              <LongitudeDegrees>-8.081806562840938568115234375</LongitudeDegrees>
            </Position>
            <AltitudeMeters>233.1999969482421875</AltitudeMeters>
            <DistanceMeters>304949.21335974</DistanceMeters>
          </Trackpoint>
          <Trackpoint>
            <Time>2018-09-14T14:53:44.000Z</Time>
            <Position>
              <LatitudeDegrees>37.63605155982077121734619140625</LatitudeDegrees>
              <LongitudeDegrees>-8.0818090774118900299072265625</LongitudeDegrees>
            </Position>
            <AltitudeMeters>233.399993896484375</AltitudeMeters>
            <DistanceMeters>304956.67098944</DistanceMeters>
          </Trackpoint>
          <Trackpoint>
            <Time>2018-09-14T14:53:45.000Z</Time>
            <Position>
              <LatitudeDegrees>37.63598517514765262603759765625</LatitudeDegrees>
              <LongitudeDegrees>-8.0818104185163974761962890625</LongitudeDegrees>
            </Position>
            <AltitudeMeters>233.600006103515625</AltitudeMeters>
            <DistanceMeters>304964.05988937</DistanceMeters>
          </Trackpoint>
          <Trackpoint>
            <Time>2018-09-14T14:53:46.000Z</Time>
            <Position>
              <LatitudeDegrees>37.63591895811259746551513671875</LatitudeDegrees>
              <LongitudeDegrees>-8.08181117288768291473388671875</LongitudeDegrees>
            </Position>
            <AltitudeMeters>233.8000030517578125</AltitudeMeters>
            <DistanceMeters>304971.4304348</DistanceMeters>
          </Trackpoint>
          <Trackpoint>
            <Time>2018-09-14T14:53:47.000Z</Time>
            <Position>
              <LatitudeDegrees>37.63585257343947887420654296875</LatitudeDegrees>
              <LongitudeDegrees>-8.0818136036396026611328125</LongitudeDegrees>
            </Position>
            <AltitudeMeters>233.8000030517578125</AltitudeMeters>
            <DistanceMeters>304978.82238938</DistanceMeters>
          </Trackpoint>
          <Trackpoint>
            <Time>2018-09-14T14:53:48.000Z</Time>
            <Position>
              <LatitudeDegrees>37.635786272585391998291015625</LatitudeDegrees>
              <LongitudeDegrees>-8.0818177945911884307861328125</LongitudeDegrees>
            </Position>
            <AltitudeMeters>234</AltitudeMeters>
            <DistanceMeters>304986.21067823</DistanceMeters>
          </Trackpoint>
          <Trackpoint>
            <Time>2018-09-14T14:53:49.000Z</Time>
            <Position>
              <LatitudeDegrees>37.6357202231884002685546875</LatitudeDegrees>
              <LongitudeDegrees>-8.0818211473524570465087890625</LongitudeDegrees>
            </Position>
            <AltitudeMeters>233.8000030517578125</AltitudeMeters>
            <DistanceMeters>304993.56773459</DistanceMeters>
          </Trackpoint>
          <Trackpoint>
            <Time>2018-09-14T14:53:50.000Z</Time>
            <Position>
              <LatitudeDegrees>37.635654173791408538818359375</LatitudeDegrees>
              <LongitudeDegrees>-8.08182374574244022369384765625</LongitudeDegrees>
            </Position>
            <AltitudeMeters>233.8000030517578125</AltitudeMeters>
            <DistanceMeters>305000.92356343</DistanceMeters>
          </Trackpoint>
          <Trackpoint>
            <Time>2018-09-14T14:53:51.000Z</Time>
            <Position>
              <LatitudeDegrees>37.63558820821344852447509765625</LatitudeDegrees>
              <LongitudeDegrees>-8.0818275175988674163818359375</LongitudeDegrees>
            </Position>
            <AltitudeMeters>233.600006103515625</AltitudeMeters>
            <DistanceMeters>305008.27325168</DistanceMeters>
          </Trackpoint>
          <Trackpoint>
            <Time>2018-09-14T14:53:52.000Z</Time>
            <Position>
              <LatitudeDegrees>37.6355222426354885101318359375</LatitudeDegrees>
              <LongitudeDegrees>-8.0818312056362628936767578125</LongitudeDegrees>
            </Position>
            <AltitudeMeters>233.600006103515625</AltitudeMeters>
            <DistanceMeters>305015.62293992</DistanceMeters>
          </Trackpoint>
          <Trackpoint>
            <Time>2018-09-14T14:53:53.000Z</Time>
            <Position>
              <LatitudeDegrees>37.635456025600433349609375</LatitudeDegrees>
              <LongitudeDegrees>-8.0818355642259120941162109375</LongitudeDegrees>
            </Position>
            <AltitudeMeters>233.600006103515625</AltitudeMeters>
            <DistanceMeters>305023.0032801</DistanceMeters>
          </Trackpoint>
          <Trackpoint>
            <Time>2018-09-14T14:53:54.000Z</Time>
            <Position>
              <LatitudeDegrees>37.63538972474634647369384765625</LatitudeDegrees>
              <LongitudeDegrees>-8.08183841407299041748046875</LongitudeDegrees>
            </Position>
            <AltitudeMeters>233.399993896484375</AltitudeMeters>
            <DistanceMeters>305030.38667847</DistanceMeters>
          </Trackpoint>
          <Trackpoint>
            <Time>2018-09-14T14:53:55.000Z</Time>
            <Position>
              <LatitudeDegrees>37.6353232562541961669921875</LatitudeDegrees>
              <LongitudeDegrees>-8.081841431558132171630859375</LongitudeDegrees>
            </Position>
            <AltitudeMeters>233.399993896484375</AltitudeMeters>
            <DistanceMeters>305037.78900944</DistanceMeters>
          </Trackpoint>
          <Trackpoint>
            <Time>2018-09-14T14:53:56.000Z</Time>
            <Position>
              <LatitudeDegrees>37.63525687158107757568359375</LatitudeDegrees>
              <LongitudeDegrees>-8.081844113767147064208984375</LongitudeDegrees>
            </Position>
            <AltitudeMeters>233.1999969482421875</AltitudeMeters>
            <DistanceMeters>305045.18157481</DistanceMeters>
          </Trackpoint>
          <Trackpoint>
            <Time>2018-09-14T14:53:57.000Z</Time>
            <Position>
              <LatitudeDegrees>37.6351899839937686920166015625</LatitudeDegrees>
              <LongitudeDegrees>-8.0818459577858448028564453125</LongitudeDegrees>
            </Position>
            <AltitudeMeters>233.1999969482421875</AltitudeMeters>
            <DistanceMeters>305052.62829888</DistanceMeters>
          </Trackpoint>
          <Trackpoint>
            <Time>2018-09-14T14:53:58.000Z</Time>
            <Position>
              <LatitudeDegrees>37.635123096406459808349609375</LatitudeDegrees>
              <LongitudeDegrees>-8.08184704743325710296630859375</LongitudeDegrees>
            </Position>
            <AltitudeMeters>233.1999969482421875</AltitudeMeters>
            <DistanceMeters>305060.07441662</DistanceMeters>
          </Trackpoint>
          <Trackpoint>
            <Time>2018-09-14T14:53:59.000Z</Time>
            <Position>
              <LatitudeDegrees>37.6350558735430240631103515625</LatitudeDegrees>
              <LongitudeDegrees>-8.08184788562357425689697265625</LongitudeDegrees>
            </Position>
            <AltitudeMeters>233</AltitudeMeters>
            <DistanceMeters>305067.55682759</DistanceMeters>
          </Trackpoint>
          <Trackpoint>
            <Time>2018-09-14T14:54:00.000Z</Time>
            <Position>
              <LatitudeDegrees>37.634988315403461456298828125</LatitudeDegrees>
              <LongitudeDegrees>-8.08185023255646228790283203125</LongitudeDegrees>
            </Position>
            <AltitudeMeters>233</AltitudeMeters>
            <DistanceMeters>305075.07955908</DistanceMeters>
          </Trackpoint>
          <Trackpoint>
            <Time>2018-09-14T14:54:01.000Z</Time>
            <Position>
              <LatitudeDegrees>37.63492000289261341094970703125</LatitudeDegrees>
              <LongitudeDegrees>-8.08185392059385776519775390625</LongitudeDegrees>
            </Position>
            <AltitudeMeters>233.1999969482421875</AltitudeMeters>
            <DistanceMeters>305082.69059977</DistanceMeters>
          </Trackpoint>
          <Trackpoint>
            <Time>2018-09-14T14:54:02.000Z</Time>
            <Position>
              <LatitudeDegrees>37.63485194183886051177978515625</LatitudeDegrees>
              <LongitudeDegrees>-8.08185827918350696563720703125</LongitudeDegrees>
            </Position>
            <AltitudeMeters>233.1999969482421875</AltitudeMeters>
            <DistanceMeters>305090.27549377</DistanceMeters>
          </Trackpoint>
          <Trackpoint>
            <Time>2018-09-14T14:54:03.000Z</Time>
            <Position>
              <LatitudeDegrees>37.63478404842317104339599609375</LatitudeDegrees>
              <LongitudeDegrees>-8.081861548125743865966796875</LongitudeDegrees>
            </Position>
            <AltitudeMeters>233.1999969482421875</AltitudeMeters>
            <DistanceMeters>305097.83773379</DistanceMeters>
          </Trackpoint>
          <Trackpoint>
            <Time>2018-09-14T14:54:04.000Z</Time>
            <Position>
              <LatitudeDegrees>37.63471598736941814422607421875</LatitudeDegrees>
              <LongitudeDegrees>-8.08186364360153675079345703125</LongitudeDegrees>
            </Position>
            <AltitudeMeters>233.399993896484375</AltitudeMeters>
            <DistanceMeters>305105.41548122</DistanceMeters>
          </Trackpoint>
          <Trackpoint>
            <Time>2018-09-14T14:54:05.000Z</Time>
            <Position>
              <LatitudeDegrees>37.63464775867760181427001953125</LatitudeDegrees>
              <LongitudeDegrees>-8.0818640626966953277587890625</LongitudeDegrees>
            </Position>
            <AltitudeMeters>233.399993896484375</AltitudeMeters>
            <DistanceMeters>305113.00929898</DistanceMeters>
          </Trackpoint>
          <Trackpoint>
            <Time>2018-09-14T14:54:06.000Z</Time>
            <Position>
              <LatitudeDegrees>37.63457969762384891510009765625</LatitudeDegrees>
              <LongitudeDegrees>-8.081864900887012481689453125</LongitudeDegrees>
            </Position>
            <AltitudeMeters>233.600006103515625</AltitudeMeters>
            <DistanceMeters>305120.58525872</DistanceMeters>
          </Trackpoint>
          <Trackpoint>
            <Time>2018-09-14T14:54:07.000Z</Time>
            <Position>
              <LatitudeDegrees>37.63451213948428630828857421875</LatitudeDegrees>
              <LongitudeDegrees>-8.08186716400086879730224609375</LongitudeDegrees>
            </Position>
            <AltitudeMeters>233.600006103515625</AltitudeMeters>
            <DistanceMeters>305128.10739</DistanceMeters>
          </Trackpoint>
          <Trackpoint>
            <Time>2018-09-14T14:54:08.000Z</Time>
            <Position>
              <LatitudeDegrees>37.6344443298876285552978515625</LatitudeDegrees>
              <LongitudeDegrees>-8.08187101967632770538330078125</LongitudeDegrees>
            </Position>
            <AltitudeMeters>233.600006103515625</AltitudeMeters>
            <DistanceMeters>305135.66305961</DistanceMeters>
          </Trackpoint>
          <Trackpoint>
            <Time>2018-09-14T14:54:09.000Z</Time>
            <Position>
              <LatitudeDegrees>37.6343762688338756561279296875</LatitudeDegrees>
              <LongitudeDegrees>-8.08187462389469146728515625</LongitudeDegrees>
            </Position>
            <AltitudeMeters>233.8000030517578125</AltitudeMeters>
            <DistanceMeters>305143.24497669</DistanceMeters>
          </Trackpoint>
          <Trackpoint>
            <Time>2018-09-14T14:54:10.000Z</Time>
            <Position>
              <LatitudeDegrees>37.634308040142059326171875</LatitudeDegrees>
              <LongitudeDegrees>-8.08187663555145263671875</LongitudeDegrees>
            </Position>
            <AltitudeMeters>233.8000030517578125</AltitudeMeters>
            <DistanceMeters>305150.84117235</DistanceMeters>
          </Trackpoint>
          <Trackpoint>
            <Time>2018-09-14T14:54:11.000Z</Time>
            <Position>
              <LatitudeDegrees>37.634239979088306427001953125</LatitudeDegrees>
              <LongitudeDegrees>-8.08187906630337238311767578125</LongitudeDegrees>
            </Position>
            <AltitudeMeters>234</AltitudeMeters>
            <DistanceMeters>305158.41951558</DistanceMeters>
          </Trackpoint>
          <Trackpoint>
            <Time>2018-09-14T14:54:12.000Z</Time>
            <Position>
              <LatitudeDegrees>37.6341717503964900970458984375</LatitudeDegrees>
              <LongitudeDegrees>-8.081880994141101837158203125</LongitudeDegrees>
            </Position>
            <AltitudeMeters>234</AltitudeMeters>
            <DistanceMeters>305166.01571124</DistanceMeters>
          </Trackpoint>
          <Trackpoint>
            <Time>2018-09-14T14:54:13.000Z</Time>
            <Position>
              <LatitudeDegrees>37.634103186428546905517578125</LatitudeDegrees>
              <LongitudeDegrees>-8.08188208378851413726806640625</LongitudeDegrees>
            </Position>
            <AltitudeMeters>234.1999969482421875</AltitudeMeters>
            <DistanceMeters>305173.64748646</DistanceMeters>
          </Trackpoint>
          <Trackpoint>
            <Time>2018-09-14T14:54:14.000Z</Time>
            <Position>
              <LatitudeDegrees>37.63403504155576229095458984375</LatitudeDegrees>
              <LongitudeDegrees>-8.08188292197883129119873046875</LongitudeDegrees>
            </Position>
            <AltitudeMeters>234.1999969482421875</AltitudeMeters>
            <DistanceMeters>305181.23297571</DistanceMeters>
          </Trackpoint>
          <Trackpoint>
            <Time>2018-09-14T14:54:15.000Z</Time>
            <Position>
              <LatitudeDegrees>37.63396765105426311492919921875</LatitudeDegrees>
              <LongitudeDegrees>-8.08188401162624359130859375</LongitudeDegrees>
            </Position>
            <AltitudeMeters>234.1999969482421875</AltitudeMeters>
            <DistanceMeters>305188.73467128</DistanceMeters>
          </Trackpoint>
          <Trackpoint>
            <Time>2018-09-14T14:54:16.000Z</Time>
            <Position>
              <LatitudeDegrees>37.633900679647922515869140625</LatitudeDegrees>
              <LongitudeDegrees>-8.08188543654978275299072265625</LongitudeDegrees>
            </Position>
            <AltitudeMeters>234.1999969482421875</AltitudeMeters>
            <DistanceMeters>305196.18987889</DistanceMeters>
          </Trackpoint>
          <Trackpoint>
            <Time>2018-09-14T14:54:17.000Z</Time>
            <Position>
              <LatitudeDegrees>37.63383370824158191680908203125</LatitudeDegrees>
              <LongitudeDegrees>-8.0818878673017024993896484375</LongitudeDegrees>
            </Position>
            <AltitudeMeters>234.1999969482421875</AltitudeMeters>
            <DistanceMeters>305203.64690314</DistanceMeters>
          </Trackpoint>
          <Trackpoint>
            <Time>2018-09-14T14:54:18.000Z</Time>
            <Position>
              <LatitudeDegrees>37.63376682065427303314208984375</LatitudeDegrees>
              <LongitudeDegrees>-8.081890381872653961181640625</LongitudeDegrees>
            </Position>
            <AltitudeMeters>234.1999969482421875</AltitudeMeters>
            <DistanceMeters>305211.09483974</DistanceMeters>
          </Trackpoint>
          <Trackpoint>
            <Time>2018-09-14T14:54:19.000Z</Time>
            <Position>
              <LatitudeDegrees>37.6336996816098690032958984375</LatitudeDegrees>
              <LongitudeDegrees>-8.08189298026263713836669921875</LongitudeDegrees>
            </Position>
            <AltitudeMeters>234.1999969482421875</AltitudeMeters>
            <DistanceMeters>305218.57121408</DistanceMeters>
          </Trackpoint>
          <Trackpoint>
            <Time>2018-09-14T14:54:20.000Z</Time>
            <Position>
              <LatitudeDegrees>37.6336329616606235504150390625</LatitudeDegrees>
              <LongitudeDegrees>-8.08189381845295429229736328125</LongitudeDegrees>
            </Position>
            <AltitudeMeters>234.1999969482421875</AltitudeMeters>
            <DistanceMeters>305225.9979029</DistanceMeters>
          </Trackpoint>
          <Trackpoint>
            <Time>2018-09-14T14:54:21.000Z</Time>
            <Position>
              <LatitudeDegrees>37.6335669122636318206787109375</LatitudeDegrees>
              <LongitudeDegrees>-8.0818949081003665924072265625</LongitudeDegrees>
            </Position>
            <AltitudeMeters>234.1999969482421875</AltitudeMeters>
            <DistanceMeters>305233.35004801</DistanceMeters>
          </Trackpoint>
          <Trackpoint>
            <Time>2018-09-14T14:54:22.000Z</Time>
            <Position>
              <LatitudeDegrees>37.63350161723792552947998046875</LatitudeDegrees>
              <LongitudeDegrees>-8.08189767412841320037841796875</LongitudeDegrees>
            </Position>
            <AltitudeMeters>234.1999969482421875</AltitudeMeters>
            <DistanceMeters>305240.62129945</DistanceMeters>
          </Trackpoint>
          <Trackpoint>
            <Time>2018-09-14T14:54:23.000Z</Time>
            <Position>
              <LatitudeDegrees>37.633435986936092376708984375</LatitudeDegrees>
              <LongitudeDegrees>-8.0819012783467769622802734375</LongitudeDegrees>
            </Position>
            <AltitudeMeters>234.1999969482421875</AltitudeMeters>
            <DistanceMeters>305247.93280084</DistanceMeters>
          </Trackpoint>
          <Trackpoint>
            <Time>2018-09-14T14:54:24.000Z</Time>
            <Position>
              <LatitudeDegrees>37.63336993753910064697265625</LatitudeDegrees>
              <LongitudeDegrees>-8.0819039605557918548583984375</LongitudeDegrees>
            </Position>
            <AltitudeMeters>234.1999969482421875</AltitudeMeters>
            <DistanceMeters>305255.28801586</DistanceMeters>
          </Trackpoint>
          <Trackpoint>
            <Time>2018-09-14T14:54:25.000Z</Time>
            <Position>
              <LatitudeDegrees>37.6333037205040454864501953125</LatitudeDegrees>
              <LongitudeDegrees>-8.0819053016602993011474609375</LongitudeDegrees>
            </Position>
            <AltitudeMeters>234.399993896484375</AltitudeMeters>
            <DistanceMeters>305262.65856129</DistanceMeters>
          </Trackpoint>
          <Trackpoint>
            <Time>2018-09-14T14:54:26.000Z</Time>
            <Position>
              <LatitudeDegrees>37.63323809020221233367919921875</LatitudeDegrees>
              <LongitudeDegrees>-8.08190672658383846282958984375</LongitudeDegrees>
            </Position>
            <AltitudeMeters>234.600006103515625</AltitudeMeters>
            <DistanceMeters>305269.9651208</DistanceMeters>
          </Trackpoint>
          <Trackpoint>
            <Time>2018-09-14T14:54:27.000Z</Time>
            <Position>
              <LatitudeDegrees>37.6331719569861888885498046875</LatitudeDegrees>
              <LongitudeDegrees>-8.0819086544215679168701171875</LongitudeDegrees>
            </Position>
            <AltitudeMeters>234.8000030517578125</AltitudeMeters>
            <DistanceMeters>305277.32708513</DistanceMeters>
          </Trackpoint>
          <Trackpoint>
            <Time>2018-09-14T14:54:28.000Z</Time>
            <Position>
              <LatitudeDegrees>37.6331059075891971588134765625</LatitudeDegrees>
              <LongitudeDegrees>-8.08191058225929737091064453125</LongitudeDegrees>
            </Position>
            <AltitudeMeters>234.8000030517578125</AltitudeMeters>
            <DistanceMeters>305284.68045835</DistanceMeters>
          </Trackpoint>
          <Trackpoint>
            <Time>2018-09-14T14:54:29.000Z</Time>
            <Position>
              <LatitudeDegrees>37.63303927145898342132568359375</LatitudeDegrees>
              <LongitudeDegrees>-8.08191292919218540191650390625</LongitudeDegrees>
            </Position>
            <AltitudeMeters>235</AltitudeMeters>
            <DistanceMeters>305292.09984822</DistanceMeters>
          </Trackpoint>
          <Trackpoint>
            <Time>2018-09-14T14:54:30.000Z</Time>
            <Position>
              <LatitudeDegrees>37.63297271914780139923095703125</LatitudeDegrees>
              <LongitudeDegrees>-8.08191619813442230224609375</LongitudeDegrees>
            </Position>
            <AltitudeMeters>235</AltitudeMeters>
            <DistanceMeters>305299.51315013</DistanceMeters>
          </Trackpoint>
          <Trackpoint>
            <Time>2018-09-14T14:54:31.000Z</Time>
            <Position>
              <LatitudeDegrees>37.63290549628436565399169921875</LatitudeDegrees>
              <LongitudeDegrees>-8.0819193832576274871826171875</LongitudeDegrees>
            </Position>
            <AltitudeMeters>235.1999969482421875</AltitudeMeters>
            <DistanceMeters>305307.00038691</DistanceMeters>
          </Trackpoint>
          <Trackpoint>
            <Time>2018-09-14T14:54:32.000Z</Time>
            <Position>
              <LatitudeDegrees>37.6328383572399616241455078125</LatitudeDegrees>
              <LongitudeDegrees>-8.0819227360188961029052734375</LongitudeDegrees>
            </Position>
            <AltitudeMeters>235.1999969482421875</AltitudeMeters>
            <DistanceMeters>305314.47796896</DistanceMeters>
          </Trackpoint>
          <Trackpoint>
            <Time>2018-09-14T14:54:33.000Z</Time>
            <Position>
              <LatitudeDegrees>37.63277105055749416351318359375</LatitudeDegrees>
              <LongitudeDegrees>-8.081925250589847564697265625</LongitudeDegrees>
            </Position>
            <AltitudeMeters>235.1999969482421875</AltitudeMeters>
            <DistanceMeters>305321.97304105</DistanceMeters>
          </Trackpoint>
          <Trackpoint>
            <Time>2018-09-14T14:54:34.000Z</Time>
            <Position>
              <LatitudeDegrees>37.63270366005599498748779296875</LatitudeDegrees>
              <LongitudeDegrees>-8.08192667551338672637939453125</LongitudeDegrees>
            </Position>
            <AltitudeMeters>235.399993896484375</AltitudeMeters>
            <DistanceMeters>305329.47473662</DistanceMeters>
          </Trackpoint>
          <Trackpoint>
            <Time>2018-09-14T14:54:35.000Z</Time>
            <Position>
              <LatitudeDegrees>37.6326361857354640960693359375</LatitudeDegrees>
              <LongitudeDegrees>-8.08192784897983074188232421875</LongitudeDegrees>
            </Position>
            <AltitudeMeters>235.399993896484375</AltitudeMeters>
            <DistanceMeters>305336.98545479</DistanceMeters>
          </Trackpoint>
          <Trackpoint>
            <Time>2018-09-14T14:54:36.000Z</Time>
            <Position>
              <LatitudeDegrees>37.63256871141493320465087890625</LatitudeDegrees>
              <LongitudeDegrees>-8.081929944455623626708984375</LongitudeDegrees>
            </Position>
            <AltitudeMeters>235.600006103515625</AltitudeMeters>
            <DistanceMeters>305344.49857717</DistanceMeters>
          </Trackpoint>
          <Trackpoint>
            <Time>2018-09-14T14:54:37.000Z</Time>
            <Position>
              <LatitudeDegrees>37.6325014047324657440185546875</LatitudeDegrees>
              <LongitudeDegrees>-8.081932961940765380859375</LongitudeDegrees>
            </Position>
            <AltitudeMeters>235.600006103515625</AltitudeMeters>
            <DistanceMeters>305351.99545624</DistanceMeters>
          </Trackpoint>
          <Trackpoint>
            <Time>2018-09-14T14:54:38.000Z</Time>
            <Position>
              <LatitudeDegrees>37.63243393041193485260009765625</LatitudeDegrees>
              <LongitudeDegrees>-8.08193572796881198883056640625</LongitudeDegrees>
            </Position>
            <AltitudeMeters>235.600006103515625</AltitudeMeters>
            <DistanceMeters>305359.50978043</DistanceMeters>
          </Trackpoint>
          <Trackpoint>
            <Time>2018-09-14T14:54:39.000Z</Time>
            <Position>
              <LatitudeDegrees>37.6323669590055942535400390625</LatitudeDegrees>
              <LongitudeDegrees>-8.08193757198750972747802734375</LongitudeDegrees>
            </Position>
            <AltitudeMeters>235.600006103515625</AltitudeMeters>
            <DistanceMeters>305366.96559364</DistanceMeters>
          </Trackpoint>
          <Trackpoint>
            <Time>2018-09-14T14:54:40.000Z</Time>
            <Position>
              <LatitudeDegrees>37.632300071418285369873046875</LatitudeDegrees>
              <LongitudeDegrees>-8.081940002739429473876953125</LongitudeDegrees>
            </Position>
            <AltitudeMeters>235.8000030517578125</AltitudeMeters>
            <DistanceMeters>305374.41413642</DistanceMeters>
          </Trackpoint>
          <Trackpoint>
            <Time>2018-09-14T14:54:41.000Z</Time>
            <Position>
              <LatitudeDegrees>37.6322333514690399169921875</LatitudeDegrees>
              <LongitudeDegrees>-8.0819425173103809356689453125</LongitudeDegrees>
            </Position>
            <AltitudeMeters>236</AltitudeMeters>
            <DistanceMeters>305381.84386437</DistanceMeters>
          </Trackpoint>
          <Trackpoint>
            <Time>2018-09-14T14:54:42.000Z</Time>
            <Position>
              <LatitudeDegrees>37.632167302072048187255859375</LatitudeDegrees>
              <LongitudeDegrees>-8.08194444514811038970947265625</LongitudeDegrees>
            </Position>
            <AltitudeMeters>236</AltitudeMeters>
            <DistanceMeters>305389.19723759</DistanceMeters>
          </Trackpoint>
          <Trackpoint>
            <Time>2018-09-14T14:54:43.000Z</Time>
            <Position>
              <LatitudeDegrees>37.6321014203131198883056640625</LatitudeDegrees>
              <LongitudeDegrees>-8.08194679208099842071533203125</LongitudeDegrees>
            </Position>
            <AltitudeMeters>236.1999969482421875</AltitudeMeters>
            <DistanceMeters>305396.53339841</DistanceMeters>
          </Trackpoint>
          <Trackpoint>
            <Time>2018-09-14T14:54:44.000Z</Time>
            <Position>
              <LatitudeDegrees>37.63203545473515987396240234375</LatitudeDegrees>
              <LongitudeDegrees>-8.0819492228329181671142578125</LongitudeDegrees>
            </Position>
            <AltitudeMeters>236.399993896484375</AltitudeMeters>
            <DistanceMeters>305403.87878518</DistanceMeters>
          </Trackpoint>
          <Trackpoint>
            <Time>2018-09-14T14:54:45.000Z</Time>
            <Position>
              <LatitudeDegrees>37.63196957297623157501220703125</LatitudeDegrees>
              <LongitudeDegrees>-8.0819522403180599212646484375</LongitudeDegrees>
            </Position>
            <AltitudeMeters>236.600006103515625</AltitudeMeters>
            <DistanceMeters>305411.21679212</DistanceMeters>
          </Trackpoint>
          <Trackpoint>
            <Time>2018-09-14T14:54:46.000Z</Time>
            <Position>
              <LatitudeDegrees>37.63190352357923984527587890625</LatitudeDegrees>
              <LongitudeDegrees>-8.081954084336757659912109375</LongitudeDegrees>
            </Position>
            <AltitudeMeters>236.8000030517578125</AltitudeMeters>
            <DistanceMeters>305418.57016534</DistanceMeters>
          </Trackpoint>
          <Trackpoint>
            <Time>2018-09-14T14:54:47.000Z</Time>
            <Position>
              <LatitudeDegrees>37.6318382285535335540771484375</LatitudeDegrees>
              <LongitudeDegrees>-8.0819557607173919677734375</LongitudeDegrees>
            </Position>
            <AltitudeMeters>236.8000030517578125</AltitudeMeters>
            <DistanceMeters>305425.83955371</DistanceMeters>
          </Trackpoint>
          <Trackpoint>
            <Time>2018-09-14T14:54:48.000Z</Time>
            <Position>
              <LatitudeDegrees>37.6317746937274932861328125</LatitudeDegrees>
              <LongitudeDegrees>-8.08195869438350200653076171875</LongitudeDegrees>
            </Position>
            <AltitudeMeters>237</AltitudeMeters>
            <DistanceMeters>305432.91569489</DistanceMeters>
          </Trackpoint>
          <Trackpoint>
            <Time>2018-09-14T14:54:49.000Z</Time>
            <Position>
              <LatitudeDegrees>37.6317094825208187103271484375</LatitudeDegrees>
              <LongitudeDegrees>-8.0819616280496120452880859375</LongitudeDegrees>
            </Position>
            <AltitudeMeters>237.1999969482421875</AltitudeMeters>
            <DistanceMeters>305440.17886958</DistanceMeters>
          </Trackpoint>
          <Trackpoint>
            <Time>2018-09-14T14:54:50.000Z</Time>
            <Position>
              <LatitudeDegrees>37.63164452277123928070068359375</LatitudeDegrees>
              <LongitudeDegrees>-8.08196506462991237640380859375</LongitudeDegrees>
            </Position>
            <AltitudeMeters>237.1999969482421875</AltitudeMeters>
            <DistanceMeters>305447.41526462</DistanceMeters>
          </Trackpoint>
          <Trackpoint>
            <Time>2018-09-14T14:54:51.000Z</Time>
            <Position>
              <LatitudeDegrees>37.6315790601074695587158203125</LatitudeDegrees>
              <LongitudeDegrees>-8.08196975849568843841552734375</LongitudeDegrees>
            </Position>
            <AltitudeMeters>237.1999969482421875</AltitudeMeters>
            <DistanceMeters>305454.71316781</DistanceMeters>
          </Trackpoint>
          <Trackpoint>
            <Time>2018-09-14T14:54:52.000Z</Time>
            <Position>
              <LatitudeDegrees>37.631516195833683013916015625</LatitudeDegrees>
              <LongitudeDegrees>-8.081972859799861907958984375</LongitudeDegrees>
            </Position>
            <AltitudeMeters>237.1999969482421875</AltitudeMeters>
            <DistanceMeters>305461.71554705</DistanceMeters>
          </Trackpoint>
          <Trackpoint>
            <Time>2018-09-14T14:54:53.000Z</Time>
            <Position>
              <LatitudeDegrees>37.63145257718861103057861328125</LatitudeDegrees>
              <LongitudeDegrees>-8.08197612874209880828857421875</LongitudeDegrees>
            </Position>
            <AltitudeMeters>237.1999969482421875</AltitudeMeters>
            <DistanceMeters>305468.80252703</DistanceMeters>
          </Trackpoint>
          <Trackpoint>
            <Time>2018-09-14T14:54:54.000Z</Time>
            <Position>
              <LatitudeDegrees>37.6313876174390316009521484375</LatitudeDegrees>
              <LongitudeDegrees>-8.0819773860275745391845703125</LongitudeDegrees>
            </Position>
            <AltitudeMeters>237.1999969482421875</AltitudeMeters>
            <DistanceMeters>305476.03330448</DistanceMeters>
          </Trackpoint>
          <Trackpoint>
            <Time>2018-09-14T14:54:55.000Z</Time>
            <Position>
              <LatitudeDegrees>37.631323076784610748291015625</LatitudeDegrees>
              <LongitudeDegrees>-8.0819772183895111083984375</LongitudeDegrees>
            </Position>
            <AltitudeMeters>237.1999969482421875</AltitudeMeters>
            <DistanceMeters>305483.21709783</DistanceMeters>
          </Trackpoint>
          <Trackpoint>
            <Time>2018-09-14T14:54:56.000Z</Time>
            <Position>
              <LatitudeDegrees>37.6312592066824436187744140625</LatitudeDegrees>
              <LongitudeDegrees>-8.0819799005985260009765625</LongitudeDegrees>
            </Position>
            <AltitudeMeters>237.1999969482421875</AltitudeMeters>
            <DistanceMeters>305490.32951572</DistanceMeters>
          </Trackpoint>
          <Trackpoint>
            <Time>2018-09-14T14:54:57.000Z</Time>
            <Position>
              <LatitudeDegrees>37.63119642622768878936767578125</LatitudeDegrees>
              <LongitudeDegrees>-8.08198392391204833984375</LongitudeDegrees>
            </Position>
            <AltitudeMeters>237.1999969482421875</AltitudeMeters>
            <DistanceMeters>305497.32608948</DistanceMeters>
          </Trackpoint>
          <Trackpoint>
            <Time>2018-09-14T14:54:58.000Z</Time>
            <Position>
              <LatitudeDegrees>37.63113423250615596771240234375</LatitudeDegrees>
              <LongitudeDegrees>-8.0819877795875072479248046875</LongitudeDegrees>
            </Position>
            <AltitudeMeters>237.1999969482421875</AltitudeMeters>
            <DistanceMeters>305504.25717935</DistanceMeters>
          </Trackpoint>
          <Trackpoint>
            <Time>2018-09-14T14:54:59.000Z</Time>
            <Position>
              <LatitudeDegrees>37.63107321225106716156005859375</LatitudeDegrees>
              <LongitudeDegrees>-8.08199121616780757904052734375</LongitudeDegrees>
            </Position>
            <AltitudeMeters>237.1999969482421875</AltitudeMeters>
            <DistanceMeters>305511.05540935</DistanceMeters>
          </Trackpoint>
          <Trackpoint>
            <Time>2018-09-14T14:55:00.000Z</Time>
            <Position>
              <LatitudeDegrees>37.63101093471050262451171875</LatitudeDegrees>
              <LongitudeDegrees>-8.08199532330036163330078125</LongitudeDegrees>
            </Position>
            <AltitudeMeters>237.1999969482421875</AltitudeMeters>
            <DistanceMeters>305517.99561308</DistanceMeters>
          </Trackpoint>
          <Trackpoint>
            <Time>2018-09-14T14:55:01.000Z</Time>
            <Position>
              <LatitudeDegrees>37.6309485733509063720703125</LatitudeDegrees>
              <LongitudeDegrees>-8.08199875988066196441650390625</LongitudeDegrees>
            </Position>
            <AltitudeMeters>237.1999969482421875</AltitudeMeters>
            <DistanceMeters>305524.94296931</DistanceMeters>
          </Trackpoint>
          <Trackpoint>
            <Time>2018-09-14T14:55:02.000Z</Time>
            <Position>
              <LatitudeDegrees>37.6308857090771198272705078125</LatitudeDegrees>
              <LongitudeDegrees>-8.08200077153742313385009765625</LongitudeDegrees>
            </Position>
            <AltitudeMeters>237.1999969482421875</AltitudeMeters>
            <DistanceMeters>305531.94276894</DistanceMeters>
          </Trackpoint>
          <Trackpoint>
            <Time>2018-09-14T14:55:03.000Z</Time>
            <Position>
              <LatitudeDegrees>37.63082309626042842864990234375</LatitudeDegrees>
              <LongitudeDegrees>-8.08200328610837459564208984375</LongitudeDegrees>
            </Position>
            <AltitudeMeters>237.1999969482421875</AltitudeMeters>
            <DistanceMeters>305538.91542493</DistanceMeters>
          </Trackpoint>
          <Trackpoint>
            <Time>2018-09-14T14:55:04.000Z</Time>
            <Position>
              <LatitudeDegrees>37.63076090253889560699462890625</LatitudeDegrees>
              <LongitudeDegrees>-8.08200747705996036529541015625</LongitudeDegrees>
            </Position>
            <AltitudeMeters>237.1999969482421875</AltitudeMeters>
            <DistanceMeters>305545.8478175</DistanceMeters>
          </Trackpoint>
          <Trackpoint>
            <Time>2018-09-14T14:55:05.000Z</Time>
            <Position>
              <LatitudeDegrees>37.63069937936961650848388671875</LatitudeDegrees>
              <LongitudeDegrees>-8.08201007544994354248046875</LongitudeDegrees>
            </Position>
            <AltitudeMeters>237.1999969482421875</AltitudeMeters>
            <DistanceMeters>305552.70029133</DistanceMeters>
          </Trackpoint>
          <Trackpoint>
            <Time>2018-09-14T14:55:06.000Z</Time>
            <Position>
              <LatitudeDegrees>37.63063768856227397918701171875</LatitudeDegrees>
              <LongitudeDegrees>-8.0820122547447681427001953125</LongitudeDegrees>
            </Position>
            <AltitudeMeters>237.1999969482421875</AltitudeMeters>
            <DistanceMeters>305559.56987498</DistanceMeters>
          </Trackpoint>
          <Trackpoint>
            <Time>2018-09-14T14:55:07.000Z</Time>
            <Position>
              <LatitudeDegrees>37.6305759139358997344970703125</LatitudeDegrees>
              <LongitudeDegrees>-8.082013763487339019775390625</LongitudeDegrees>
            </Position>
            <AltitudeMeters>237.399993896484375</AltitudeMeters>
            <DistanceMeters>305566.44668458</DistanceMeters>
          </Trackpoint>
          <Trackpoint>
            <Time>2018-09-14T14:55:08.000Z</Time>
            <Position>
              <LatitudeDegrees>37.6305145584046840667724609375</LatitudeDegrees>
              <LongitudeDegrees>-8.08201518841087818145751953125</LongitudeDegrees>
            </Position>
            <AltitudeMeters>237.8000030517578125</AltitudeMeters>
            <DistanceMeters>305573.27671935</DistanceMeters>
          </Trackpoint>
          <Trackpoint>
            <Time>2018-09-14T14:55:09.000Z</Time>
            <Position>
              <LatitudeDegrees>37.6304538734257221221923828125</LatitudeDegrees>
              <LongitudeDegrees>-8.08201686479151248931884765625</LongitudeDegrees>
            </Position>
            <AltitudeMeters>238</AltitudeMeters>
            <DistanceMeters>305580.03231009</DistanceMeters>
          </Trackpoint>
          <Trackpoint>
            <Time>2018-09-14T14:55:10.000Z</Time>
            <Position>
              <LatitudeDegrees>37.63039444573223590850830078125</LatitudeDegrees>
              <LongitudeDegrees>-8.082019127905368804931640625</LongitudeDegrees>
            </Position>
            <AltitudeMeters>238.1999969482421875</AltitudeMeters>
            <DistanceMeters>305586.64879032</DistanceMeters>
          </Trackpoint>
          <Trackpoint>
            <Time>2018-09-14T14:55:11.000Z</Time>
            <Position>
              <LatitudeDegrees>37.63033568859100341796875</LatitudeDegrees>
              <LongitudeDegrees>-8.0820199660956859588623046875</LongitudeDegrees>
            </Position>
            <AltitudeMeters>238.600006103515625</AltitudeMeters>
            <DistanceMeters>305593.18839597</DistanceMeters>
          </Trackpoint>
          <Trackpoint>
            <Time>2018-09-14T14:55:12.000Z</Time>
            <Position>
              <LatitudeDegrees>37.6302781887352466583251953125</LatitudeDegrees>
              <LongitudeDegrees>-8.08202155865728855133056640625</LongitudeDegrees>
            </Position>
            <AltitudeMeters>238.8000030517578125</AltitudeMeters>
            <DistanceMeters>305599.5898401</DistanceMeters>
          </Trackpoint>
          <Trackpoint>
            <Time>2018-09-14T14:55:13.000Z</Time>
            <Position>
              <LatitudeDegrees>37.6302218623459339141845703125</LatitudeDegrees>
              <LongitudeDegrees>-8.08202558197081089019775390625</LongitudeDegrees>
            </Position>
            <AltitudeMeters>239</AltitudeMeters>
            <DistanceMeters>305605.86951714</DistanceMeters>
          </Trackpoint>
          <Trackpoint>
            <Time>2018-09-14T14:55:14.000Z</Time>
            <Position>
              <LatitudeDegrees>37.63016603887081146240234375</LatitudeDegrees>
              <LongitudeDegrees>-8.08202750980854034423828125</LongitudeDegrees>
            </Position>
            <AltitudeMeters>239.399993896484375</AltitudeMeters>
            <DistanceMeters>305612.08560089</DistanceMeters>
          </Trackpoint>
          <Trackpoint>
            <Time>2018-09-14T14:55:15.000Z</Time>
            <Position>
              <LatitudeDegrees>37.63011147268116474151611328125</LatitudeDegrees>
              <LongitudeDegrees>-8.0820283479988574981689453125</LongitudeDegrees>
            </Position>
            <AltitudeMeters>239.600006103515625</AltitudeMeters>
            <DistanceMeters>305618.15913876</DistanceMeters>
          </Trackpoint>
          <Trackpoint>
            <Time>2018-09-14T14:55:16.000Z</Time>
            <Position>
              <LatitudeDegrees>37.63005782850086688995361328125</LatitudeDegrees>
              <LongitudeDegrees>-8.08203195221722126007080078125</LongitudeDegrees>
            </Position>
            <AltitudeMeters>239.8000030517578125</AltitudeMeters>
            <DistanceMeters>305624.13752003</DistanceMeters>
          </Trackpoint>
          <Trackpoint>
            <Time>2018-09-14T14:55:17.000Z</Time>
            <Position>
              <LatitudeDegrees>37.63000418432056903839111328125</LatitudeDegrees>
              <LongitudeDegrees>-8.08203396387398242950439453125</LongitudeDegrees>
            </Position>
            <AltitudeMeters>240</AltitudeMeters>
            <DistanceMeters>305630.11136821</DistanceMeters>
          </Trackpoint>
          <Trackpoint>
            <Time>2018-09-14T14:55:18.000Z</Time>
            <Position>
              <LatitudeDegrees>37.62995137833058834075927734375</LatitudeDegrees>
              <LongitudeDegrees>-8.0820380710065364837646484375</LongitudeDegrees>
            </Position>
            <AltitudeMeters>240</AltitudeMeters>
            <DistanceMeters>305635.99995832</DistanceMeters>
          </Trackpoint>
          <Trackpoint>
            <Time>2018-09-14T14:55:19.000Z</Time>
            <Position>
              <LatitudeDegrees>37.62989941053092479705810546875</LatitudeDegrees>
              <LongitudeDegrees>-8.08204092085361480712890625</LongitudeDegrees>
            </Position>
            <AltitudeMeters>240.1999969482421875</AltitudeMeters>
            <DistanceMeters>305641.78957349</DistanceMeters>
          </Trackpoint>
          <Trackpoint>
            <Time>2018-09-14T14:55:20.000Z</Time>
            <Position>
              <LatitudeDegrees>37.6298507116734981536865234375</LatitudeDegrees>
              <LongitudeDegrees>-8.082044608891010284423828125</LongitudeDegrees>
            </Position>
            <AltitudeMeters>240.1999969482421875</AltitudeMeters>
            <DistanceMeters>305647.22024837</DistanceMeters>
          </Trackpoint>
          <Trackpoint>
            <Time>2018-09-14T14:55:21.000Z</Time>
            <Position>
              <LatitudeDegrees>37.62980419211089611053466796875</LatitudeDegrees>
              <LongitudeDegrees>-8.08204804547131061553955078125</LongitudeDegrees>
            </Position>
            <AltitudeMeters>240.1999969482421875</AltitudeMeters>
            <DistanceMeters>305652.40682698</DistanceMeters>
          </Trackpoint>
          <Trackpoint>
            <Time>2018-09-14T14:55:22.000Z</Time>
            <Position>
              <LatitudeDegrees>37.6297564990818500518798828125</LatitudeDegrees>
              <LongitudeDegrees>-8.08204972185194492340087890625</LongitudeDegrees>
            </Position>
            <AltitudeMeters>240.1999969482421875</AltitudeMeters>
            <DistanceMeters>305657.71728165</DistanceMeters>
          </Trackpoint>
          <Trackpoint>
            <Time>2018-09-14T14:55:23.000Z</Time>
            <Position>
              <LatitudeDegrees>37.6297095604240894317626953125</LatitudeDegrees>
              <LongitudeDegrees>-8.08205257169902324676513671875</LongitudeDegrees>
            </Position>
            <AltitudeMeters>240.399993896484375</AltitudeMeters>
            <DistanceMeters>305662.94720531</DistanceMeters>
          </Trackpoint>
          <Trackpoint>
            <Time>2018-09-14T14:55:24.000Z</Time>
            <Position>
              <LatitudeDegrees>37.6296639628708362579345703125</LatitudeDegrees>
              <LongitudeDegrees>-8.08205575682222843170166015625</LongitudeDegrees>
            </Position>
            <AltitudeMeters>240.399993896484375</AltitudeMeters>
            <DistanceMeters>305668.02913591</DistanceMeters>
          </Trackpoint>
          <Trackpoint>
            <Time>2018-09-14T14:55:25.000Z</Time>
            <Position>
              <LatitudeDegrees>37.62961828149855136871337890625</LatitudeDegrees>
              <LongitudeDegrees>-8.08205776847898960113525390625</LongitudeDegrees>
            </Position>
            <AltitudeMeters>240.399993896484375</AltitudeMeters>
            <DistanceMeters>305673.11639442</DistanceMeters>
          </Trackpoint>
          <Trackpoint>
            <Time>2018-09-14T14:55:26.000Z</Time>
            <Position>
              <LatitudeDegrees>37.629572264850139617919921875</LatitudeDegrees>
              <LongitudeDegrees>-8.08205701410770416259765625</LongitudeDegrees>
            </Position>
            <AltitudeMeters>240.399993896484375</AltitudeMeters>
            <DistanceMeters>305678.23903067</DistanceMeters>
          </Trackpoint>
          <Trackpoint>
            <Time>2018-09-14T14:55:27.000Z</Time>
            <Position>
              <LatitudeDegrees>37.62952725403010845184326171875</LatitudeDegrees>
              <LongitudeDegrees>-8.08205843903124332427978515625</LongitudeDegrees>
            </Position>
            <AltitudeMeters>240.600006103515625</AltitudeMeters>
            <DistanceMeters>305683.25118317</DistanceMeters>
          </Trackpoint>
          <Trackpoint>
            <Time>2018-09-14T14:55:28.000Z</Time>
            <Position>
              <LatitudeDegrees>37.6294819079339504241943359375</LatitudeDegrees>
              <LongitudeDegrees>-8.0820595286786556243896484375</LongitudeDegrees>
            </Position>
            <AltitudeMeters>240.600006103515625</AltitudeMeters>
            <DistanceMeters>305688.29923979</DistanceMeters>
          </Trackpoint>
          <Trackpoint>
            <Time>2018-09-14T14:55:29.000Z</Time>
            <Position>
              <LatitudeDegrees>37.62943672947585582733154296875</LatitudeDegrees>
              <LongitudeDegrees>-8.082056343555450439453125</LongitudeDegrees>
            </Position>
            <AltitudeMeters>240.600006103515625</AltitudeMeters>
            <DistanceMeters>305693.33565566</DistanceMeters>
          </Trackpoint>
          <Trackpoint>
            <Time>2018-09-14T14:55:30.000Z</Time>
            <Position>
              <LatitudeDegrees>37.62939180247485637664794921875</LatitudeDegrees>
              <LongitudeDegrees>-8.082052655518054962158203125</LongitudeDegrees>
            </Position>
            <AltitudeMeters>240.8000030517578125</AltitudeMeters>
            <DistanceMeters>305698.34690726</DistanceMeters>
          </Trackpoint>
          <Trackpoint>
            <Time>2018-09-14T14:55:31.000Z</Time>
            <Position>
              <LatitudeDegrees>37.62934637255966663360595703125</LatitudeDegrees>
              <LongitudeDegrees>-8.08205433189868927001953125</LongitudeDegrees>
            </Position>
            <AltitudeMeters>240.8000030517578125</AltitudeMeters>
            <DistanceMeters>305703.40568543</DistanceMeters>
          </Trackpoint>
          <Trackpoint>
            <Time>2018-09-14T14:55:32.000Z</Time>
            <Position>
              <LatitudeDegrees>37.62930161319673061370849609375</LatitudeDegrees>
              <LongitudeDegrees>-8.08205961249768733978271484375</LongitudeDegrees>
            </Position>
            <AltitudeMeters>240.8000030517578125</AltitudeMeters>
            <DistanceMeters>305708.40882164</DistanceMeters>
          </Trackpoint>
          <Trackpoint>
            <Time>2018-09-14T14:55:33.000Z</Time>
            <Position>
              <LatitudeDegrees>37.62925853021442890167236328125</LatitudeDegrees>
              <LongitudeDegrees>-8.082064054906368255615234375</LongitudeDegrees>
            </Position>
            <AltitudeMeters>240.8000030517578125</AltitudeMeters>
            <DistanceMeters>305713.22059013</DistanceMeters>
          </Trackpoint>
          <Trackpoint>
            <Time>2018-09-14T14:55:34.000Z</Time>
            <Position>
              <LatitudeDegrees>37.62921595014631748199462890625</LatitudeDegrees>
              <LongitudeDegrees>-8.08206665329635143280029296875</LongitudeDegrees>
            </Position>
            <AltitudeMeters>240.8000030517578125</AltitudeMeters>
            <DistanceMeters>305717.96622082</DistanceMeters>
          </Trackpoint>
          <Trackpoint>
            <Time>2018-09-14T14:55:35.000Z</Time>
            <Position>
              <LatitudeDegrees>37.62917404063045978546142578125</LatitudeDegrees>
              <LongitudeDegrees>-8.08206866495311260223388671875</LongitudeDegrees>
            </Position>
            <AltitudeMeters>241</AltitudeMeters>
            <DistanceMeters>305722.6331839</DistanceMeters>
          </Trackpoint>
          <Trackpoint>
            <Time>2018-09-14T14:55:36.000Z</Time>
            <Position>
              <LatitudeDegrees>37.6291327178478240966796875</LatitudeDegrees>
              <LongitudeDegrees>-8.0820702575147151947021484375</LongitudeDegrees>
            </Position>
            <AltitudeMeters>241.1999969482421875</AltitudeMeters>
            <DistanceMeters>305727.23487155</DistanceMeters>
          </Trackpoint>
          <Trackpoint>
            <Time>2018-09-14T14:55:37.000Z</Time>
            <Position>
              <LatitudeDegrees>37.6290916465222835540771484375</LatitudeDegrees>
              <LongitudeDegrees>-8.08207335881888866424560546875</LongitudeDegrees>
            </Position>
            <AltitudeMeters>241.399993896484375</AltitudeMeters>
            <DistanceMeters>305731.81393669</DistanceMeters>
          </Trackpoint>
          <Trackpoint>
            <Time>2018-09-14T14:55:38.000Z</Time>
            <Position>
              <LatitudeDegrees>37.62905183248221874237060546875</LatitudeDegrees>
              <LongitudeDegrees>-8.08207620866596698760986328125</LongitudeDegrees>
            </Position>
            <AltitudeMeters>241.600006103515625</AltitudeMeters>
            <DistanceMeters>305736.25281344</DistanceMeters>
          </Trackpoint>
          <Trackpoint>
            <Time>2018-09-14T14:55:39.000Z</Time>
            <Position>
              <LatitudeDegrees>37.62901294045150279998779296875</LatitudeDegrees>
              <LongitudeDegrees>-8.08207604102790355682373046875</LongitudeDegrees>
            </Position>
            <AltitudeMeters>241.8000030517578125</AltitudeMeters>
            <DistanceMeters>305740.58148628</DistanceMeters>
          </Trackpoint>
          <Trackpoint>
            <Time>2018-09-14T14:55:40.000Z</Time>
            <Position>
              <LatitudeDegrees>37.62897513806819915771484375</LatitudeDegrees>
              <LongitudeDegrees>-8.08207369409501552581787109375</LongitudeDegrees>
            </Position>
            <AltitudeMeters>242</AltitudeMeters>
            <DistanceMeters>305744.79493265</DistanceMeters>
          </Trackpoint>
          <Trackpoint>
            <Time>2018-09-14T14:55:41.000Z</Time>
            <Position>
              <LatitudeDegrees>37.6289377547800540924072265625</LatitudeDegrees>
              <LongitudeDegrees>-8.08207218535244464874267578125</LongitudeDegrees>
            </Position>
            <AltitudeMeters>242</AltitudeMeters>
            <DistanceMeters>305748.95662541</DistanceMeters>
          </Trackpoint>
          <Trackpoint>
            <Time>2018-09-14T14:55:42.000Z</Time>
            <Position>
              <LatitudeDegrees>37.62889978475868701934814453125</LatitudeDegrees>
              <LongitudeDegrees>-8.08207352645695209503173828125</LongitudeDegrees>
            </Position>
            <AltitudeMeters>242.1999969482421875</AltitudeMeters>
            <DistanceMeters>305753.18291116</DistanceMeters>
          </Trackpoint>
          <Trackpoint>
            <Time>2018-09-14T14:55:43.000Z</Time>
            <Position>
              <LatitudeDegrees>37.62886173091828823089599609375</LatitudeDegrees>
              <LongitudeDegrees>-8.0820752866566181182861328125</LongitudeDegrees>
            </Position>
            <AltitudeMeters>242.399993896484375</AltitudeMeters>
            <DistanceMeters>305757.42093216</DistanceMeters>
          </Trackpoint>
          <Trackpoint>
            <Time>2018-09-14T14:55:44.000Z</Time>
            <Position>
              <LatitudeDegrees>37.62882350943982601165771484375</LatitudeDegrees>
              <LongitudeDegrees>-8.08207721449434757232666015625</LongitudeDegrees>
            </Position>
            <AltitudeMeters>242.600006103515625</AltitudeMeters>
            <DistanceMeters>305761.67702583</DistanceMeters>
          </Trackpoint>
          <Trackpoint>
            <Time>2018-09-14T14:55:45.000Z</Time>
            <Position>
              <LatitudeDegrees>37.6287858746945858001708984375</LatitudeDegrees>
              <LongitudeDegrees>-8.0820786394178867340087890625</LongitudeDegrees>
            </Position>
            <AltitudeMeters>243</AltitudeMeters>
            <DistanceMeters>305765.86790864</DistanceMeters>
          </Trackpoint>
          <Trackpoint>
            <Time>2018-09-14T14:55:46.000Z</Time>
            <Position>
              <LatitudeDegrees>37.6287486590445041656494140625</LatitudeDegrees>
              <LongitudeDegrees>-8.08207889087498188018798828125</LongitudeDegrees>
            </Position>
            <AltitudeMeters>243.1999969482421875</AltitudeMeters>
            <DistanceMeters>305770.01002709</DistanceMeters>
          </Trackpoint>
          <Trackpoint>
            <Time>2018-09-14T14:55:47.000Z</Time>
            <Position>
              <LatitudeDegrees>37.6287117786705493927001953125</LatitudeDegrees>
              <LongitudeDegrees>-8.0820803157985210418701171875</LongitudeDegrees>
            </Position>
            <AltitudeMeters>243.399993896484375</AltitudeMeters>
            <DistanceMeters>305774.11711642</DistanceMeters>
          </Trackpoint>
          <Trackpoint>
            <Time>2018-09-14T14:55:48.000Z</Time>
            <Position>
              <LatitudeDegrees>37.62867531739175319671630859375</LatitudeDegrees>
              <LongitudeDegrees>-8.08208207599818706512451171875</LongitudeDegrees>
            </Position>
            <AltitudeMeters>243.600006103515625</AltitudeMeters>
            <DistanceMeters>305778.17999468</DistanceMeters>
          </Trackpoint>
          <Trackpoint>
            <Time>2018-09-14T14:55:49.000Z</Time>
            <Position>
              <LatitudeDegrees>37.6286386884748935699462890625</LatitudeDegrees>
              <LongitudeDegrees>-8.08208324946463108062744140625</LongitudeDegrees>
            </Position>
            <AltitudeMeters>243.8000030517578125</AltitudeMeters>
            <DistanceMeters>305782.25840133</DistanceMeters>
          </Trackpoint>
          <Trackpoint>
            <Time>2018-09-14T14:55:50.000Z</Time>
            <Position>
              <LatitudeDegrees>37.62860239483416080474853515625</LatitudeDegrees>
              <LongitudeDegrees>-8.0820856802165508270263671875</LongitudeDegrees>
            </Position>
            <AltitudeMeters>244</AltitudeMeters>
            <DistanceMeters>305786.30345986</DistanceMeters>
          </Trackpoint>
          <Trackpoint>
            <Time>2018-09-14T14:55:51.000Z</Time>
            <Position>
              <LatitudeDegrees>37.62856652028858661651611328125</LatitudeDegrees>
              <LongitudeDegrees>-8.08208894915878772735595703125</LongitudeDegrees>
            </Position>
            <AltitudeMeters>244.1999969482421875</AltitudeMeters>
            <DistanceMeters>305790.30587858</DistanceMeters>
          </Trackpoint>
          <Trackpoint>
            <Time>2018-09-14T14:55:52.000Z</Time>
            <Position>
              <LatitudeDegrees>37.6285310648381710052490234375</LatitudeDegrees>
              <LongitudeDegrees>-8.08209230192005634307861328125</LongitudeDegrees>
            </Position>
            <AltitudeMeters>244.399993896484375</AltitudeMeters>
            <DistanceMeters>305794.26177576</DistanceMeters>
          </Trackpoint>
          <Trackpoint>
            <Time>2018-09-14T14:55:53.000Z</Time>
            <Position>
              <LatitudeDegrees>37.62849594466388225555419921875</LatitudeDegrees>
              <LongitudeDegrees>-8.08209498412907123565673828125</LongitudeDegrees>
            </Position>
            <AltitudeMeters>244.600006103515625</AltitudeMeters>
            <DistanceMeters>305798.17752215</DistanceMeters>
          </Trackpoint>
          <Trackpoint>
            <Time>2018-09-14T14:55:54.000Z</Time>
            <Position>
              <LatitudeDegrees>37.62846057303249835968017578125</LatitudeDegrees>
              <LongitudeDegrees>-8.082096576690673828125</LongitudeDegrees>
            </Position>
            <AltitudeMeters>244.8000030517578125</AltitudeMeters>
            <DistanceMeters>305802.11626196</DistanceMeters>
          </Trackpoint>
          <Trackpoint>
            <Time>2018-09-14T14:55:55.000Z</Time>
            <Position>
              <LatitudeDegrees>37.62842486612498760223388671875</LatitudeDegrees>
              <LongitudeDegrees>-8.0820979177951812744140625</LongitudeDegrees>
            </Position>
            <AltitudeMeters>245</AltitudeMeters>
            <DistanceMeters>305806.09151463</DistanceMeters>
          </Trackpoint>
          <Trackpoint>
            <Time>2018-09-14T14:55:56.000Z</Time>
            <Position>
              <LatitudeDegrees>37.62838899157941341400146484375</LatitudeDegrees>
              <LongitudeDegrees>-8.0820994265377521514892578125</LongitudeDegrees>
            </Position>
            <AltitudeMeters>245.1999969482421875</AltitudeMeters>
            <DistanceMeters>305810.08715916</DistanceMeters>
          </Trackpoint>
          <Trackpoint>
            <Time>2018-09-14T14:55:57.000Z</Time>
            <Position>
              <LatitudeDegrees>37.62835294939577579498291015625</LatitudeDegrees>
              <LongitudeDegrees>-8.08210018090903759002685546875</LongitudeDegrees>
            </Position>
            <AltitudeMeters>245.399993896484375</AltitudeMeters>
            <DistanceMeters>305814.1008428</DistanceMeters>
          </Trackpoint>
          <Trackpoint>
            <Time>2018-09-14T14:55:58.000Z</Time>
            <Position>
              <LatitudeDegrees>37.6283168233931064605712890625</LatitudeDegrees>
              <LongitudeDegrees>-8.0821000970900058746337890625</LongitudeDegrees>
            </Position>
            <AltitudeMeters>245.600006103515625</AltitudeMeters>
            <DistanceMeters>305818.12127024</DistanceMeters>
          </Trackpoint>
          <Trackpoint>
            <Time>2018-09-14T14:55:59.000Z</Time>
            <Position>
              <LatitudeDegrees>37.62828086502850055694580078125</LatitudeDegrees>
              <LongitudeDegrees>-8.0820994265377521514892578125</LongitudeDegrees>
            </Position>
            <AltitudeMeters>245.8000030517578125</AltitudeMeters>
            <DistanceMeters>305822.12368896</DistanceMeters>
          </Trackpoint>
          <Trackpoint>
            <Time>2018-09-14T14:56:00.000Z</Time>
            <Position>
              <LatitudeDegrees>37.6282447390258312225341796875</LatitudeDegrees>
              <LongitudeDegrees>-8.082099258899688720703125</LongitudeDegrees>
            </Position>
            <AltitudeMeters>246</AltitudeMeters>
            <DistanceMeters>305826.14411641</DistanceMeters>
          </Trackpoint>
          <Trackpoint>
            <Time>2018-09-14T14:56:01.000Z</Time>
            <Position>
              <LatitudeDegrees>37.62820894829928874969482421875</LatitudeDegrees>
              <LongitudeDegrees>-8.08210001327097415924072265625</LongitudeDegrees>
            </Position>
            <AltitudeMeters>246</AltitudeMeters>
            <DistanceMeters>305830.12844501</DistanceMeters>
          </Trackpoint>
          <Trackpoint>
            <Time>2018-09-14T14:56:02.000Z</Time>
            <Position>
              <LatitudeDegrees>37.62817257083952426910400390625</LatitudeDegrees>
              <LongitudeDegrees>-8.0821011029183864593505859375</LongitudeDegrees>
            </Position>
            <AltitudeMeters>246.1999969482421875</AltitudeMeters>
            <DistanceMeters>305834.17796582</DistanceMeters>
          </Trackpoint>
          <Trackpoint>
            <Time>2018-09-14T14:56:03.000Z</Time>
            <Position>
              <LatitudeDegrees>37.628137283027172088623046875</LatitudeDegrees>
              <LongitudeDegrees>-8.08210185728967189788818359375</LongitudeDegrees>
            </Position>
            <AltitudeMeters>246.399993896484375</AltitudeMeters>
            <DistanceMeters>305838.10637525</DistanceMeters>
          </Trackpoint>
          <Trackpoint>
            <Time>2018-09-14T14:56:04.000Z</Time>
            <Position>
              <LatitudeDegrees>37.628101743757724761962890625</LatitudeDegrees>
              <LongitudeDegrees>-8.08210236020386219024658203125</LongitudeDegrees>
            </Position>
            <AltitudeMeters>246.600006103515625</AltitudeMeters>
            <DistanceMeters>305842.06227243</DistanceMeters>
          </Trackpoint>
          <Trackpoint>
            <Time>2018-09-14T14:56:05.000Z</Time>
            <Position>
              <LatitudeDegrees>37.62806628830730915069580078125</LatitudeDegrees>
              <LongitudeDegrees>-8.08210437186062335968017578125</LongitudeDegrees>
            </Position>
            <AltitudeMeters>246.8000030517578125</AltitudeMeters>
            <DistanceMeters>305846.01474409</DistanceMeters>
          </Trackpoint>
          <Trackpoint>
            <Time>2018-09-14T14:56:06.000Z</Time>
            <Position>
              <LatitudeDegrees>37.62803108431398868560791015625</LatitudeDegrees>
              <LongitudeDegrees>-8.082106970250606536865234375</LongitudeDegrees>
            </Position>
            <AltitudeMeters>247</AltitudeMeters>
            <DistanceMeters>305849.93970401</DistanceMeters>
          </Trackpoint>
          <Trackpoint>
            <Time>2018-09-14T14:56:07.000Z</Time>
            <Position>
              <LatitudeDegrees>37.62799537740647792816162109375</LatitudeDegrees>
              <LongitudeDegrees>-8.0821094848215579986572265625</LongitudeDegrees>
            </Position>
            <AltitudeMeters>247</AltitudeMeters>
            <DistanceMeters>305853.91949724</DistanceMeters>
          </Trackpoint>
          <Trackpoint>
            <Time>2018-09-14T14:56:08.000Z</Time>
            <Position>
              <LatitudeDegrees>37.627959586679935455322265625</LatitudeDegrees>
              <LongitudeDegrees>-8.08211191557347774505615234375</LongitudeDegrees>
            </Position>
            <AltitudeMeters>247.1999969482421875</AltitudeMeters>
            <DistanceMeters>305857.90835606</DistanceMeters>
          </Trackpoint>
          <Trackpoint>
            <Time>2018-09-14T14:56:09.000Z</Time>
            <Position>
              <LatitudeDegrees>37.62792295776307582855224609375</LatitudeDegrees>
              <LongitudeDegrees>-8.08211334049701690673828125</LongitudeDegrees>
            </Position>
            <AltitudeMeters>247.399993896484375</AltitudeMeters>
            <DistanceMeters>305861.98676271</DistanceMeters>
          </Trackpoint>
          <Trackpoint>
            <Time>2018-09-14T14:56:10.000Z</Time>
            <Position>
              <LatitudeDegrees>37.62788624502718448638916015625</LatitudeDegrees>
              <LongitudeDegrees>-8.08211459778249263763427734375</LongitudeDegrees>
            </Position>
            <AltitudeMeters>247.600006103515625</AltitudeMeters>
            <DistanceMeters>305866.07401624</DistanceMeters>
          </Trackpoint>
          <Trackpoint>
            <Time>2018-09-14T14:56:11.000Z</Time>
            <Position>
              <LatitudeDegrees>37.627849616110324859619140625</LatitudeDegrees>
              <LongitudeDegrees>-8.08211526833474636077880859375</LongitudeDegrees>
            </Position>
            <AltitudeMeters>247.8000030517578125</AltitudeMeters>
            <DistanceMeters>305870.15242289</DistanceMeters>
          </Trackpoint>
          <Trackpoint>
            <Time>2018-09-14T14:56:12.000Z</Time>
            <Position>
              <LatitudeDegrees>37.627813406288623809814453125</LatitudeDegrees>
              <LongitudeDegrees>-8.082115687429904937744140625</LongitudeDegrees>
            </Position>
            <AltitudeMeters>248</AltitudeMeters>
            <DistanceMeters>305874.18182451</DistanceMeters>
          </Trackpoint>
          <Trackpoint>
            <Time>2018-09-14T14:56:13.000Z</Time>
            <Position>
              <LatitudeDegrees>37.6277773641049861907958984375</LatitudeDegrees>
              <LongitudeDegrees>-8.08211577124893665313720703125</LongitudeDegrees>
            </Position>
            <AltitudeMeters>248</AltitudeMeters>
            <DistanceMeters>305878.1932577</DistanceMeters>
          </Trackpoint>
          <Trackpoint>
            <Time>2018-09-14T14:56:14.000Z</Time>
            <Position>
              <LatitudeDegrees>37.62774207629263401031494140625</LatitudeDegrees>
              <LongitudeDegrees>-8.0821158550679683685302734375</LongitudeDegrees>
            </Position>
            <AltitudeMeters>248.1999969482421875</AltitudeMeters>
            <DistanceMeters>305882.12166713</DistanceMeters>
          </Trackpoint>
          <Trackpoint>
            <Time>2018-09-14T14:56:15.000Z</Time>
            <Position>
              <LatitudeDegrees>37.62770720757544040679931640625</LatitudeDegrees>
              <LongitudeDegrees>-8.0821165256202220916748046875</LongitudeDegrees>
            </Position>
            <AltitudeMeters>248.399993896484375</AltitudeMeters>
            <DistanceMeters>305886.00266797</DistanceMeters>
          </Trackpoint>
          <Trackpoint>
            <Time>2018-09-14T14:56:16.000Z</Time>
            <Position>
              <LatitudeDegrees>37.62767250649631023406982421875</LatitudeDegrees>
              <LongitudeDegrees>-8.08211878873407840728759765625</LongitudeDegrees>
            </Position>
            <AltitudeMeters>248.600006103515625</AltitudeMeters>
            <DistanceMeters>305889.86968317</DistanceMeters>
          </Trackpoint>
          <Trackpoint>
            <Time>2018-09-14T14:56:17.000Z</Time>
            <Position>
              <LatitudeDegrees>37.6276372186839580535888671875</LatitudeDegrees>
              <LongitudeDegrees>-8.08212163858115673065185546875</LongitudeDegrees>
            </Position>
            <AltitudeMeters>248.8000030517578125</AltitudeMeters>
            <DistanceMeters>305893.80498254</DistanceMeters>
          </Trackpoint>
          <Trackpoint>
            <Time>2018-09-14T14:56:18.000Z</Time>
            <Position>
              <LatitudeDegrees>37.62760126031935214996337890625</LatitudeDegrees>
              <LongitudeDegrees>-8.0821228958666324615478515625</LongitudeDegrees>
            </Position>
            <AltitudeMeters>248.8000030517578125</AltitudeMeters>
            <DistanceMeters>305897.80740126</DistanceMeters>
          </Trackpoint>
          <Trackpoint>
            <Time>2018-09-14T14:56:19.000Z</Time>
            <Position>
              <LatitudeDegrees>37.627564966678619384765625</LatitudeDegrees>
              <LongitudeDegrees>-8.08212448842823505401611328125</LongitudeDegrees>
            </Position>
            <AltitudeMeters>249</AltitudeMeters>
            <DistanceMeters>305901.84799258</DistanceMeters>
          </Trackpoint>
          <Trackpoint>
            <Time>2018-09-14T14:56:20.000Z</Time>
            <Position>
              <LatitudeDegrees>37.62752833776175975799560546875</LatitudeDegrees>
              <LongitudeDegrees>-8.08212675154209136962890625</LongitudeDegrees>
            </Position>
            <AltitudeMeters>249.1999969482421875</AltitudeMeters>
            <DistanceMeters>305905.92861275</DistanceMeters>
          </Trackpoint>
          <Trackpoint>
            <Time>2018-09-14T14:56:21.000Z</Time>
            <Position>
              <LatitudeDegrees>37.62749162502586841583251953125</LatitudeDegrees>
              <LongitudeDegrees>-8.08212750591337680816650390625</LongitudeDegrees>
            </Position>
            <AltitudeMeters>249.399993896484375</AltitudeMeters>
            <DistanceMeters>305910.01586628</DistanceMeters>
          </Trackpoint>
          <Trackpoint>
            <Time>2018-09-14T14:56:22.000Z</Time>
            <Position>
              <LatitudeDegrees>37.62745507992804050445556640625</LatitudeDegrees>
              <LongitudeDegrees>-8.08212934993207454681396484375</LongitudeDegrees>
            </Position>
            <AltitudeMeters>249.600006103515625</AltitudeMeters>
            <DistanceMeters>305914.08651614</DistanceMeters>
          </Trackpoint>
          <Trackpoint>
            <Time>2018-09-14T14:56:23.000Z</Time>
            <Position>
              <LatitudeDegrees>37.62741903774440288543701171875</LatitudeDegrees>
              <LongitudeDegrees>-8.082131780683994293212890625</LongitudeDegrees>
            </Position>
            <AltitudeMeters>249.8000030517578125</AltitudeMeters>
            <DistanceMeters>305918.1046969</DistanceMeters>
          </Trackpoint>
          <Trackpoint>
            <Time>2018-09-14T14:56:24.000Z</Time>
            <Position>
              <LatitudeDegrees>37.6273824088275432586669921875</LatitudeDegrees>
              <LongitudeDegrees>-8.08213370852172374725341796875</LongitudeDegrees>
            </Position>
            <AltitudeMeters>250</AltitudeMeters>
            <DistanceMeters>305922.18531707</DistanceMeters>
          </Trackpoint>
          <Trackpoint>
            <Time>2018-09-14T14:56:25.000Z</Time>
            <Position>
              <LatitudeDegrees>37.6273455284535884857177734375</LatitudeDegrees>
              <LongitudeDegrees>-8.08213471435010433197021484375</LongitudeDegrees>
            </Position>
            <AltitudeMeters>250.1999969482421875</AltitudeMeters>
            <DistanceMeters>305926.29130693</DistanceMeters>
          </Trackpoint>
          <Trackpoint>
            <Time>2018-09-14T14:56:26.000Z</Time>
            <Position>
              <LatitudeDegrees>37.62730822898447513580322265625</LatitudeDegrees>
              <LongitudeDegrees>-8.08213672600686550140380859375</LongitudeDegrees>
            </Position>
            <AltitudeMeters>250.399993896484375</AltitudeMeters>
            <DistanceMeters>305930.44648517</DistanceMeters>
          </Trackpoint>
          <Trackpoint>
            <Time>2018-09-14T14:56:27.000Z</Time>
            <Position>
              <LatitudeDegrees>37.62727084569633007049560546875</LatitudeDegrees>
              <LongitudeDegrees>-8.08213907293975353240966796875</LongitudeDegrees>
            </Position>
            <AltitudeMeters>250.600006103515625</AltitudeMeters>
            <DistanceMeters>305934.61359892</DistanceMeters>
          </Trackpoint>
          <Trackpoint>
            <Time>2018-09-14T14:56:28.000Z</Time>
            <Position>
              <LatitudeDegrees>37.62723379768431186676025390625</LatitudeDegrees>
              <LongitudeDegrees>-8.0821413360536098480224609375</LongitudeDegrees>
            </Position>
            <AltitudeMeters>251</AltitudeMeters>
            <DistanceMeters>305938.74152264</DistanceMeters>
          </Trackpoint>
          <Trackpoint>
            <Time>2018-09-14T14:56:29.000Z</Time>
            <Position>
              <LatitudeDegrees>37.62719708494842052459716796875</LatitudeDegrees>
              <LongitudeDegrees>-8.08214326389133930206298828125</LongitudeDegrees>
            </Position>
            <AltitudeMeters>251.1999969482421875</AltitudeMeters>
            <DistanceMeters>305942.8309849</DistanceMeters>
          </Trackpoint>
          <Trackpoint>
            <Time>2018-09-14T14:56:30.000Z</Time>
            <Position>
              <LatitudeDegrees>37.62716070748865604400634765625</LatitudeDegrees>
              <LongitudeDegrees>-8.08214410208165645599365234375</LongitudeDegrees>
            </Position>
            <AltitudeMeters>251.399993896484375</AltitudeMeters>
            <DistanceMeters>305946.88162051</DistanceMeters>
          </Trackpoint>
          <Trackpoint>
            <Time>2018-09-14T14:56:31.000Z</Time>
            <Position>
              <LatitudeDegrees>37.6271252520382404327392578125</LatitudeDegrees>
              <LongitudeDegrees>-8.0821460299193859100341796875</LongitudeDegrees>
            </Position>
            <AltitudeMeters>251.399993896484375</AltitudeMeters>
            <DistanceMeters>305950.83180685</DistanceMeters>
          </Trackpoint>
          <Trackpoint>
            <Time>2018-09-14T14:56:32.000Z</Time>
            <Position>
              <LatitudeDegrees>37.627091221511363983154296875</LatitudeDegrees>
              <LongitudeDegrees>-8.0821480415761470794677734375</LongitudeDegrees>
            </Position>
            <AltitudeMeters>251.600006103515625</AltitudeMeters>
            <DistanceMeters>305954.62455147</DistanceMeters>
          </Trackpoint>
          <Trackpoint>
            <Time>2018-09-14T14:56:33.000Z</Time>
            <Position>
              <LatitudeDegrees>37.62705643661320209503173828125</LatitudeDegrees>
              <LongitudeDegrees>-8.0821483768522739410400390625</LongitudeDegrees>
            </Position>
            <AltitudeMeters>251.600006103515625</AltitudeMeters>
            <DistanceMeters>305958.49623417</DistanceMeters>
          </Trackpoint>
          <Trackpoint>
            <Time>2018-09-14T14:56:34.000Z</Time>
            <Position>
              <LatitudeDegrees>37.62702123261988162994384765625</LatitudeDegrees>
              <LongitudeDegrees>-8.0821490474045276641845703125</LongitudeDegrees>
            </Position>
            <AltitudeMeters>251.8000030517578125</AltitudeMeters>
            <DistanceMeters>305962.41543817</DistanceMeters>
          </Trackpoint>
          <Trackpoint>
            <Time>2018-09-14T14:56:35.000Z</Time>
            <Position>
              <LatitudeDegrees>37.626985609531402587890625</LatitudeDegrees>
              <LongitudeDegrees>-8.08215047232806682586669921875</LongitudeDegrees>
            </Position>
            <AltitudeMeters>251.8000030517578125</AltitudeMeters>
            <DistanceMeters>305966.38273237</DistanceMeters>
          </Trackpoint>
          <Trackpoint>
            <Time>2018-09-14T14:56:36.000Z</Time>
            <Position>
              <LatitudeDegrees>37.6269502379000186920166015625</LatitudeDegrees>
              <LongitudeDegrees>-8.08215265162289142608642578125</LongitudeDegrees>
            </Position>
            <AltitudeMeters>252</AltitudeMeters>
            <DistanceMeters>305970.32376415</DistanceMeters>
          </Trackpoint>
          <Trackpoint>
            <Time>2018-09-14T14:56:37.000Z</Time>
            <Position>
              <LatitudeDegrees>37.6269150339066982269287109375</LatitudeDegrees>
              <LongitudeDegrees>-8.0821534059941768646240234375</LongitudeDegrees>
            </Position>
            <AltitudeMeters>252</AltitudeMeters>
            <DistanceMeters>305974.24412002</DistanceMeters>
          </Trackpoint>
          <Trackpoint>
            <Time>2018-09-14T14:56:38.000Z</Time>
            <Position>
              <LatitudeDegrees>37.62688041664659976959228515625</LatitudeDegrees>
              <LongitudeDegrees>-8.08215265162289142608642578125</LongitudeDegrees>
            </Position>
            <AltitudeMeters>252</AltitudeMeters>
            <DistanceMeters>305978.09944177</DistanceMeters>
          </Trackpoint>
          <Trackpoint>
            <Time>2018-09-14T14:56:39.000Z</Time>
            <Position>
              <LatitudeDegrees>37.6268463023006916046142578125</LatitudeDegrees>
              <LongitudeDegrees>-8.08215198107063770294189453125</LongitudeDegrees>
            </Position>
            <AltitudeMeters>252.1999969482421875</AltitudeMeters>
            <DistanceMeters>305981.89813393</DistanceMeters>
          </Trackpoint>
          <Trackpoint>
            <Time>2018-09-14T14:56:40.000Z</Time>
            <Position>
              <LatitudeDegrees>37.6268131099641323089599609375</LatitudeDegrees>
              <LongitudeDegrees>-8.082151897251605987548828125</LongitudeDegrees>
            </Position>
            <AltitudeMeters>252.1999969482421875</AltitudeMeters>
            <DistanceMeters>305985.5931949</DistanceMeters>
          </Trackpoint>
          <Trackpoint>
            <Time>2018-09-14T14:56:41.000Z</Time>
            <Position>
              <LatitudeDegrees>37.62678016908466815948486328125</LatitudeDegrees>
              <LongitudeDegrees>-8.0821515619754791259765625</LongitudeDegrees>
            </Position>
            <AltitudeMeters>252.399993896484375</AltitudeMeters>
            <DistanceMeters>305989.26127532</DistanceMeters>
          </Trackpoint>
          <Trackpoint>
            <Time>2018-09-14T14:56:42.000Z</Time>
            <Position>
              <LatitudeDegrees>37.626746557652950286865234375</LatitudeDegrees>
              <LongitudeDegrees>-8.0821524001657962799072265625</LongitudeDegrees>
            </Position>
            <AltitudeMeters>252.399993896484375</AltitudeMeters>
            <DistanceMeters>305993.0048937</DistanceMeters>
          </Trackpoint>
          <Trackpoint>
            <Time>2018-09-14T14:56:43.000Z</Time>
            <Position>
              <LatitudeDegrees>37.6267121918499469757080078125</LatitudeDegrees>
              <LongitudeDegrees>-8.08215449564158916473388671875</LongitudeDegrees>
            </Position>
            <AltitudeMeters>252.399993896484375</AltitudeMeters>
            <DistanceMeters>305996.83554303</DistanceMeters>
          </Trackpoint>
          <Trackpoint>
            <Time>2018-09-14T14:56:44.000Z</Time>
            <Position>
              <LatitudeDegrees>37.6266773231327533721923828125</LatitudeDegrees>
              <LongitudeDegrees>-8.082157261669635772705078125</LongitudeDegrees>
            </Position>
            <AltitudeMeters>252.600006103515625</AltitudeMeters>
            <DistanceMeters>306000.72351782</DistanceMeters>
          </Trackpoint>
          <Trackpoint>
            <Time>2018-09-14T14:56:45.000Z</Time>
            <Position>
              <LatitudeDegrees>37.626641951501369476318359375</LatitudeDegrees>
              <LongitudeDegrees>-8.08215893805027008056640625</LongitudeDegrees>
            </Position>
            <AltitudeMeters>252.8000030517578125</AltitudeMeters>
            <DistanceMeters>306004.66454959</DistanceMeters>
          </Trackpoint>
          <Trackpoint>
            <Time>2018-09-14T14:56:46.000Z</Time>
            <Position>
              <LatitudeDegrees>37.6266059093177318572998046875</LatitudeDegrees>
              <LongitudeDegrees>-8.0821597762405872344970703125</LongitudeDegrees>
            </Position>
            <AltitudeMeters>253.1999969482421875</AltitudeMeters>
            <DistanceMeters>306008.67710817</DistanceMeters>
          </Trackpoint>
          <Trackpoint>
            <Time>2018-09-14T14:56:47.000Z</Time>
            <Position>
              <LatitudeDegrees>37.62656961567699909210205078125</LatitudeDegrees>
              <LongitudeDegrees>-8.08216136880218982696533203125</LongitudeDegrees>
            </Position>
            <AltitudeMeters>253.399993896484375</AltitudeMeters>
            <DistanceMeters>306012.71881675</DistanceMeters>
          </Trackpoint>
          <Trackpoint>
            <Time>2018-09-14T14:56:48.000Z</Time>
            <Position>
              <LatitudeDegrees>37.62653307057917118072509765625</LatitudeDegrees>
              <LongitudeDegrees>-8.08216296136379241943359375</LongitudeDegrees>
            </Position>
            <AltitudeMeters>253.600006103515625</AltitudeMeters>
            <DistanceMeters>306016.78835729</DistanceMeters>
          </Trackpoint>
          <Trackpoint>
            <Time>2018-09-14T14:56:49.000Z</Time>
            <Position>
              <LatitudeDegrees>37.626495771110057830810546875</LatitudeDegrees>
              <LongitudeDegrees>-8.08216472156345844268798828125</LongitudeDegrees>
            </Position>
            <AltitudeMeters>254</AltitudeMeters>
            <DistanceMeters>306020.94353553</DistanceMeters>
          </Trackpoint>
          <Trackpoint>
            <Time>2018-09-14T14:56:50.000Z</Time>
            <Position>
              <LatitudeDegrees>37.62645780108869075775146484375</LatitudeDegrees>
              <LongitudeDegrees>-8.0821651406586170196533203125</LongitudeDegrees>
            </Position>
            <AltitudeMeters>254.1999969482421875</AltitudeMeters>
            <DistanceMeters>306025.16982127</DistanceMeters>
          </Trackpoint>
          <Trackpoint>
            <Time>2018-09-14T14:56:51.000Z</Time>
            <Position>
              <LatitudeDegrees>37.62641957961022853851318359375</LatitudeDegrees>
              <LongitudeDegrees>-8.082163967192173004150390625</LongitudeDegrees>
            </Position>
            <AltitudeMeters>254.399993896484375</AltitudeMeters>
            <DistanceMeters>306029.42379273</DistanceMeters>
          </Trackpoint>
          <Trackpoint>
            <Time>2018-09-14T14:56:52.000Z</Time>
            <Position>
              <LatitudeDegrees>37.62638144195079803466796875</LatitudeDegrees>
              <LongitudeDegrees>-8.08216296136379241943359375</LongitudeDegrees>
            </Position>
            <AltitudeMeters>254.8000030517578125</AltitudeMeters>
            <DistanceMeters>306033.66926474</DistanceMeters>
          </Trackpoint>
          <Trackpoint>
            <Time>2018-09-14T14:56:53.000Z</Time>
            <Position>
              <LatitudeDegrees>37.62634313665330410003662109375</LatitudeDegrees>
              <LongitudeDegrees>-8.0821648053824901580810546875</LongitudeDegrees>
            </Position>
            <AltitudeMeters>255</AltitudeMeters>
            <DistanceMeters>306037.93595364</DistanceMeters>
          </Trackpoint>
          <Trackpoint>
            <Time>2018-09-14T14:56:54.000Z</Time>
            <Position>
              <LatitudeDegrees>37.626305334270000457763671875</LatitudeDegrees>
              <LongitudeDegrees>-8.082169331610202789306640625</LongitudeDegrees>
            </Position>
            <AltitudeMeters>255.1999969482421875</AltitudeMeters>
            <DistanceMeters>306042.16223938</DistanceMeters>
          </Trackpoint>
          <Trackpoint>
            <Time>2018-09-14T14:56:55.000Z</Time>
            <Position>
              <LatitudeDegrees>37.626267783343791961669921875</LatitudeDegrees>
              <LongitudeDegrees>-8.08217276819050312042236328125</LongitudeDegrees>
            </Position>
            <AltitudeMeters>255.399993896484375</AltitudeMeters>
            <DistanceMeters>306046.3520447</DistanceMeters>
          </Trackpoint>
          <Trackpoint>
            <Time>2018-09-14T14:56:56.000Z</Time>
            <Position>
              <LatitudeDegrees>37.62623014859855175018310546875</LatitudeDegrees>
              <LongitudeDegrees>-8.0821751989424228668212890625</LongitudeDegrees>
            </Position>
            <AltitudeMeters>255.399993896484375</AltitudeMeters>
            <DistanceMeters>306050.5461583</DistanceMeters>
          </Trackpoint>
          <Trackpoint>
            <Time>2018-09-14T14:56:57.000Z</Time>
            <Position>
              <LatitudeDegrees>37.62619234621524810791015625</LatitudeDegrees>
              <LongitudeDegrees>-8.08217679150402545928955078125</LongitudeDegrees>
            </Position>
            <AltitudeMeters>255.399993896484375</AltitudeMeters>
            <DistanceMeters>306054.75531617</DistanceMeters>
          </Trackpoint>
          <Trackpoint>
            <Time>2018-09-14T14:56:58.000Z</Time>
            <Position>
              <LatitudeDegrees>37.62615420855581760406494140625</LatitudeDegrees>
              <LongitudeDegrees>-8.08217729441821575164794921875</LongitudeDegrees>
            </Position>
            <AltitudeMeters>255.399993896484375</AltitudeMeters>
            <DistanceMeters>306059.00078818</DistanceMeters>
          </Trackpoint>
          <Trackpoint>
            <Time>2018-09-14T14:56:59.000Z</Time>
            <Position>
              <LatitudeDegrees>37.626115567982196807861328125</LatitudeDegrees>
              <LongitudeDegrees>-8.0821788869798183441162109375</LongitudeDegrees>
            </Position>
            <AltitudeMeters>255.399993896484375</AltitudeMeters>
            <DistanceMeters>306063.30330567</DistanceMeters>
          </Trackpoint>
          <Trackpoint>
            <Time>2018-09-14T14:57:00.000Z</Time>
            <Position>
              <LatitudeDegrees>37.62607701122760772705078125</LatitudeDegrees>
              <LongitudeDegrees>-8.0821802280843257904052734375</LongitudeDegrees>
            </Position>
            <AltitudeMeters>255.600006103515625</AltitudeMeters>
            <DistanceMeters>306067.59531638</DistanceMeters>
          </Trackpoint>
          <Trackpoint>
            <Time>2018-09-14T14:57:01.000Z</Time>
            <Position>
              <LatitudeDegrees>37.6260379515588283538818359375</LatitudeDegrees>
              <LongitudeDegrees>-8.08218131773173809051513671875</LongitudeDegrees>
            </Position>
            <AltitudeMeters>255.600006103515625</AltitudeMeters>
            <DistanceMeters>306071.94376209</DistanceMeters>
          </Trackpoint>
          <Trackpoint>
            <Time>2018-09-14T14:57:02.000Z</Time>
            <Position>
              <LatitudeDegrees>37.62599864043295383453369140625</LatitudeDegrees>
              <LongitudeDegrees>-8.0821822397410869598388671875</LongitudeDegrees>
            </Position>
            <AltitudeMeters>255.600006103515625</AltitudeMeters>
            <DistanceMeters>306076.3201524</DistanceMeters>
          </Trackpoint>
          <Trackpoint>
            <Time>2018-09-14T14:57:03.000Z</Time>
            <Position>
              <LatitudeDegrees>37.6259584911167621612548828125</LatitudeDegrees>
              <LongitudeDegrees>-8.08218332938849925994873046875</LongitudeDegrees>
            </Position>
            <AltitudeMeters>255.600006103515625</AltitudeMeters>
            <DistanceMeters>306080.78943971</DistanceMeters>
          </Trackpoint>
          <Trackpoint>
            <Time>2018-09-14T14:57:04.000Z</Time>
            <Position>
              <LatitudeDegrees>37.6259182579815387725830078125</LatitudeDegrees>
              <LongitudeDegrees>-8.08218416757881641387939453125</LongitudeDegrees>
            </Position>
            <AltitudeMeters>255.600006103515625</AltitudeMeters>
            <DistanceMeters>306085.26780993</DistanceMeters>
          </Trackpoint>
          <Trackpoint>
            <Time>2018-09-14T14:57:05.000Z</Time>
            <Position>
              <LatitudeDegrees>37.625877857208251953125</LatitudeDegrees>
              <LongitudeDegrees>-8.08218483813107013702392578125</LongitudeDegrees>
            </Position>
            <AltitudeMeters>255.600006103515625</AltitudeMeters>
            <DistanceMeters>306089.7642909</DistanceMeters>
          </Trackpoint>
          <Trackpoint>
            <Time>2018-09-14T14:57:06.000Z</Time>
            <Position>
              <LatitudeDegrees>37.62583695352077484130859375</LatitudeDegrees>
              <LongitudeDegrees>-8.082186095416545867919921875</LongitudeDegrees>
            </Position>
            <AltitudeMeters>255.600006103515625</AltitudeMeters>
            <DistanceMeters>306094.31764741</DistanceMeters>
          </Trackpoint>
          <Trackpoint>
            <Time>2018-09-14T14:57:07.000Z</Time>
            <Position>
              <LatitudeDegrees>37.62579563073813915252685546875</LatitudeDegrees>
              <LongitudeDegrees>-8.082187436521053314208984375</LongitudeDegrees>
            </Position>
            <AltitudeMeters>255.600006103515625</AltitudeMeters>
            <DistanceMeters>306098.91835379</DistanceMeters>
          </Trackpoint>
          <Trackpoint>
            <Time>2018-09-14T14:57:08.000Z</Time>
            <Position>
              <LatitudeDegrees>37.62575439177453517913818359375</LatitudeDegrees>
              <LongitudeDegrees>-8.08219020254909992218017578125</LongitudeDegrees>
            </Position>
            <AltitudeMeters>255.600006103515625</AltitudeMeters>
            <DistanceMeters>306103.51415065</DistanceMeters>
          </Trackpoint>
          <Trackpoint>
            <Time>2018-09-14T14:57:09.000Z</Time>
            <Position>
              <LatitudeDegrees>37.6257129013538360595703125</LatitudeDegrees>
              <LongitudeDegrees>-8.0821931362152099609375</LongitudeDegrees>
            </Position>
            <AltitudeMeters>255.600006103515625</AltitudeMeters>
            <DistanceMeters>306108.14030253</DistanceMeters>
          </Trackpoint>
          <Trackpoint>
            <Time>2018-09-14T14:57:10.000Z</Time>
            <Position>
              <LatitudeDegrees>37.62567065656185150146484375</LatitudeDegrees>
              <LongitudeDegrees>-8.08219690807163715362548828125</LongitudeDegrees>
            </Position>
            <AltitudeMeters>255.600006103515625</AltitudeMeters>
            <DistanceMeters>306112.85538982</DistanceMeters>
          </Trackpoint>
          <Trackpoint>
            <Time>2018-09-14T14:57:11.000Z</Time>
            <Position>
              <LatitudeDegrees>37.62562748976051807403564453125</LatitudeDegrees>
              <LongitudeDegrees>-8.08220026083290576934814453125</LongitudeDegrees>
            </Position>
            <AltitudeMeters>255.600006103515625</AltitudeMeters>
            <DistanceMeters>306117.66903461</DistanceMeters>
          </Trackpoint>
          <Trackpoint>
            <Time>2018-09-14T14:57:12.000Z</Time>
            <Position>
              <LatitudeDegrees>37.625583820044994354248046875</LatitudeDegrees>
              <LongitudeDegrees>-8.0822025239467620849609375</LongitudeDegrees>
            </Position>
            <AltitudeMeters>255.600006103515625</AltitudeMeters>
            <DistanceMeters>306122.53399405</DistanceMeters>
          </Trackpoint>
          <Trackpoint>
            <Time>2018-09-14T14:57:13.000Z</Time>
            <Position>
              <LatitudeDegrees>37.62553947977721691131591796875</LatitudeDegrees>
              <LongitudeDegrees>-8.082203529775142669677734375</LongitudeDegrees>
            </Position>
            <AltitudeMeters>255.600006103515625</AltitudeMeters>
            <DistanceMeters>306127.47081249</DistanceMeters>
          </Trackpoint>
          <Trackpoint>
            <Time>2018-09-14T14:57:14.000Z</Time>
            <Position>
              <LatitudeDegrees>37.62549421750009059906005859375</LatitudeDegrees>
              <LongitudeDegrees>-8.08220478706061840057373046875</LongitudeDegrees>
            </Position>
            <AltitudeMeters>255.600006103515625</AltitudeMeters>
            <DistanceMeters>306132.50991707</DistanceMeters>
          </Trackpoint>
          <Trackpoint>
            <Time>2018-09-14T14:57:15.000Z</Time>
            <Position>
              <LatitudeDegrees>37.62544861994683742523193359375</LatitudeDegrees>
              <LongitudeDegrees>-8.082205541431903839111328125</LongitudeDegrees>
            </Position>
            <AltitudeMeters>255.600006103515625</AltitudeMeters>
            <DistanceMeters>306137.58651418</DistanceMeters>
          </Trackpoint>
          <Trackpoint>
            <Time>2018-09-14T14:57:16.000Z</Time>
            <Position>
              <LatitudeDegrees>37.62540218420326709747314453125</LatitudeDegrees>
              <LongitudeDegrees>-8.08220730163156986236572265625</LongitudeDegrees>
            </Position>
            <AltitudeMeters>255.600006103515625</AltitudeMeters>
            <DistanceMeters>306142.75739963</DistanceMeters>
          </Trackpoint>
          <Trackpoint>
            <Time>2018-09-14T14:57:17.000Z</Time>
            <Position>
              <LatitudeDegrees>37.625354491174221038818359375</LatitudeDegrees>
              <LongitudeDegrees>-8.082210235297679901123046875</LongitudeDegrees>
            </Position>
            <AltitudeMeters>255.8000030517578125</AltitudeMeters>
            <DistanceMeters>306148.07210368</DistanceMeters>
          </Trackpoint>
          <Trackpoint>
            <Time>2018-09-14T14:57:18.000Z</Time>
            <Position>
              <LatitudeDegrees>37.6253063790500164031982421875</LatitudeDegrees>
              <LongitudeDegrees>-8.08221258223056793212890625</LongitudeDegrees>
            </Position>
            <AltitudeMeters>255.8000030517578125</AltitudeMeters>
            <DistanceMeters>306153.43080157</DistanceMeters>
          </Trackpoint>
          <Trackpoint>
            <Time>2018-09-14T14:57:19.000Z</Time>
            <Position>
              <LatitudeDegrees>37.625257931649684906005859375</LatitudeDegrees>
              <LongitudeDegrees>-8.08221501298248767852783203125</LongitudeDegrees>
            </Position>
            <AltitudeMeters>255.8000030517578125</AltitudeMeters>
            <DistanceMeters>306158.82728158</DistanceMeters>
          </Trackpoint>
          <Trackpoint>
            <Time>2018-09-14T14:57:20.000Z</Time>
            <Position>
              <LatitudeDegrees>37.625209987163543701171875</LatitudeDegrees>
              <LongitudeDegrees>-8.0822174437344074249267578125</LongitudeDegrees>
            </Position>
            <AltitudeMeters>256</AltitudeMeters>
            <DistanceMeters>306164.16741093</DistanceMeters>
          </Trackpoint>
          <Trackpoint>
            <Time>2018-09-14T14:57:21.000Z</Time>
            <Position>
              <LatitudeDegrees>37.625162713229656219482421875</LatitudeDegrees>
              <LongitudeDegrees>-8.08221819810569286346435546875</LongitudeDegrees>
            </Position>
            <AltitudeMeters>256</AltitudeMeters>
            <DistanceMeters>306169.43003807</DistanceMeters>
          </Trackpoint>
          <Trackpoint>
            <Time>2018-09-14T14:57:22.000Z</Time>
            <Position>
              <LatitudeDegrees>37.625115104019641876220703125</LatitudeDegrees>
              <LongitudeDegrees>-8.08221937157213687896728515625</LongitudeDegrees>
            </Position>
            <AltitudeMeters>256</AltitudeMeters>
            <DistanceMeters>306174.73028031</DistanceMeters>
          </Trackpoint>
          <Trackpoint>
            <Time>2018-09-14T14:57:23.000Z</Time>
            <Position>
              <LatitudeDegrees>37.625068165361881256103515625</LatitudeDegrees>
              <LongitudeDegrees>-8.082221634685993194580078125</LongitudeDegrees>
            </Position>
            <AltitudeMeters>256.20001220703125</AltitudeMeters>
            <DistanceMeters>306179.95761341</DistanceMeters>
          </Trackpoint>
          <Trackpoint>
            <Time>2018-09-14T14:57:24.000Z</Time>
            <Position>
              <LatitudeDegrees>37.62502198107540607452392578125</LatitudeDegrees>
              <LongitudeDegrees>-8.08222465217113494873046875</LongitudeDegrees>
            </Position>
            <AltitudeMeters>256.20001220703125</AltitudeMeters>
            <DistanceMeters>306185.10486941</DistanceMeters>
          </Trackpoint>
          <Trackpoint>
            <Time>2018-09-14T14:57:25.000Z</Time>
            <Position>
              <LatitudeDegrees>37.6249754615128040313720703125</LatitudeDegrees>
              <LongitudeDegrees>-8.0822268314659595489501953125</LongitudeDegrees>
            </Position>
            <AltitudeMeters>256.399993896484375</AltitudeMeters>
            <DistanceMeters>306190.28709358</DistanceMeters>
          </Trackpoint>
          <Trackpoint>
            <Time>2018-09-14T14:57:26.000Z</Time>
            <Position>
              <LatitudeDegrees>37.62492910958826541900634765625</LatitudeDegrees>
              <LongitudeDegrees>-8.0822281725704669952392578125</LongitudeDegrees>
            </Position>
            <AltitudeMeters>256.600006103515625</AltitudeMeters>
            <DistanceMeters>306195.4474904</DistanceMeters>
          </Trackpoint>
          <Trackpoint>
            <Time>2018-09-14T14:57:27.000Z</Time>
            <Position>
              <LatitudeDegrees>37.62488267384469509124755859375</LatitudeDegrees>
              <LongitudeDegrees>-8.08222892694175243377685546875</LongitudeDegrees>
            </Position>
            <AltitudeMeters>256.79998779296875</AltitudeMeters>
            <DistanceMeters>306200.61750262</DistanceMeters>
          </Trackpoint>
          <Trackpoint>
            <Time>2018-09-14T14:57:28.000Z</Time>
            <Position>
              <LatitudeDegrees>37.62483556754887104034423828125</LatitudeDegrees>
              <LongitudeDegrees>-8.0822308547794818878173828125</LongitudeDegrees>
            </Position>
            <AltitudeMeters>257</AltitudeMeters>
            <DistanceMeters>306205.86294282</DistanceMeters>
          </Trackpoint>
          <Trackpoint>
            <Time>2018-09-14T14:57:29.000Z</Time>
            <Position>
              <LatitudeDegrees>37.624787874519824981689453125</LatitudeDegrees>
              <LongitudeDegrees>-8.08223244734108448028564453125</LongitudeDegrees>
            </Position>
            <AltitudeMeters>257</AltitudeMeters>
            <DistanceMeters>306211.1725472</DistanceMeters>
          </Trackpoint>
          <Trackpoint>
            <Time>2018-09-14T14:57:30.000Z</Time>
            <Position>
              <LatitudeDegrees>37.6247397623956203460693359375</LatitudeDegrees>
              <LongitudeDegrees>-8.08223403990268707275390625</LongitudeDegrees>
            </Position>
            <AltitudeMeters>257.20001220703125</AltitudeMeters>
            <DistanceMeters>306216.5295597</DistanceMeters>
          </Trackpoint>
          <Trackpoint>
            <Time>2018-09-14T14:57:31.000Z</Time>
            <Position>
              <LatitudeDegrees>37.62469190172851085662841796875</LatitudeDegrees>
              <LongitudeDegrees>-8.08223546482622623443603515625</LongitudeDegrees>
            </Position>
            <AltitudeMeters>257.399993896484375</AltitudeMeters>
            <DistanceMeters>306221.857839</DistanceMeters>
          </Trackpoint>
          <Trackpoint>
            <Time>2018-09-14T14:57:32.000Z</Time>
            <Position>
              <LatitudeDegrees>37.62464446015655994415283203125</LatitudeDegrees>
              <LongitudeDegrees>-8.082238398492336273193359375</LongitudeDegrees>
            </Position>
            <AltitudeMeters>257.600006103515625</AltitudeMeters>
            <DistanceMeters>306227.14528798</DistanceMeters>
          </Trackpoint>
          <Trackpoint>
            <Time>2018-09-14T14:57:33.000Z</Time>
            <Position>
              <LatitudeDegrees>37.62459634803235530853271484375</LatitudeDegrees>
              <LongitudeDegrees>-8.08224116452038288116455078125</LongitudeDegrees>
            </Position>
            <AltitudeMeters>257.79998779296875</AltitudeMeters>
            <DistanceMeters>306232.50567073</DistanceMeters>
          </Trackpoint>
          <Trackpoint>
            <Time>2018-09-14T14:57:34.000Z</Time>
            <Position>
              <LatitudeDegrees>37.62454890646040439605712890625</LatitudeDegrees>
              <LongitudeDegrees>-8.0822425894439220428466796875</LongitudeDegrees>
            </Position>
            <AltitudeMeters>258</AltitudeMeters>
            <DistanceMeters>306237.78799373</DistanceMeters>
          </Trackpoint>
          <Trackpoint>
            <Time>2018-09-14T14:57:35.000Z</Time>
            <Position>
              <LatitudeDegrees>37.624502219259738922119140625</LatitudeDegrees>
              <LongitudeDegrees>-8.08224518783390522003173828125</LongitudeDegrees>
            </Position>
            <AltitudeMeters>258.20001220703125</AltitudeMeters>
            <DistanceMeters>306242.98848206</DistanceMeters>
          </Trackpoint>
          <Trackpoint>
            <Time>2018-09-14T14:57:36.000Z</Time>
            <Position>
              <LatitudeDegrees>37.6244547776877880096435546875</LatitudeDegrees>
              <LongitudeDegrees>-8.0822466127574443817138671875</LongitudeDegrees>
            </Position>
            <AltitudeMeters>258.399993896484375</AltitudeMeters>
            <DistanceMeters>306248.27080506</DistanceMeters>
          </Trackpoint>
          <Trackpoint>
            <Time>2018-09-14T14:57:37.000Z</Time>
            <Position>
              <LatitudeDegrees>37.6244078390300273895263671875</LatitudeDegrees>
              <LongitudeDegrees>-8.08224854059517383575439453125</LongitudeDegrees>
            </Position>
            <AltitudeMeters>258.600006103515625</AltitudeMeters>
            <DistanceMeters>306253.49813815</DistanceMeters>
          </Trackpoint>
          <Trackpoint>
            <Time>2018-09-14T14:57:38.000Z</Time>
            <Position>
              <LatitudeDegrees>37.62436148710548877716064453125</LatitudeDegrees>
              <LongitudeDegrees>-8.0822508037090301513671875</LongitudeDegrees>
            </Position>
            <AltitudeMeters>259</AltitudeMeters>
            <DistanceMeters>306258.66115914</DistanceMeters>
          </Trackpoint>
          <Trackpoint>
            <Time>2018-09-14T14:57:39.000Z</Time>
            <Position>
              <LatitudeDegrees>37.624315135180950164794921875</LatitudeDegrees>
              <LongitudeDegrees>-8.082252480089664459228515625</LongitudeDegrees>
            </Position>
            <AltitudeMeters>259.20001220703125</AltitudeMeters>
            <DistanceMeters>306263.82330555</DistanceMeters>
          </Trackpoint>
          <Trackpoint>
            <Time>2018-09-14T14:57:40.000Z</Time>
            <Position>
              <LatitudeDegrees>37.624269537627696990966796875</LatitudeDegrees>
              <LongitudeDegrees>-8.08225415647029876708984375</LongitudeDegrees>
            </Position>
            <AltitudeMeters>259.399993896484375</AltitudeMeters>
            <DistanceMeters>306268.90168111</DistanceMeters>
          </Trackpoint>
          <Trackpoint>
            <Time>2018-09-14T14:57:41.000Z</Time>
            <Position>
              <LatitudeDegrees>37.6242234371602535247802734375</LatitudeDegrees>
              <LongitudeDegrees>-8.08225608430802822113037109375</LongitudeDegrees>
            </Position>
            <AltitudeMeters>259.600006103515625</AltitudeMeters>
            <DistanceMeters>306274.03664199</DistanceMeters>
          </Trackpoint>
          <Trackpoint>
            <Time>2018-09-14T14:57:42.000Z</Time>
            <Position>
              <LatitudeDegrees>37.62417658232152462005615234375</LatitudeDegrees>
              <LongitudeDegrees>-8.082256503403186798095703125</LongitudeDegrees>
            </Position>
            <AltitudeMeters>259.79998779296875</AltitudeMeters>
            <DistanceMeters>306279.25186876</DistanceMeters>
          </Trackpoint>
          <Trackpoint>
            <Time>2018-09-14T14:57:43.000Z</Time>
            <Position>
              <LatitudeDegrees>37.624130062758922576904296875</LatitudeDegrees>
              <LongitudeDegrees>-8.0822583474218845367431640625</LongitudeDegrees>
            </Position>
            <AltitudeMeters>259.79998779296875</AltitudeMeters>
            <DistanceMeters>306284.43235012</DistanceMeters>
          </Trackpoint>
          <Trackpoint>
            <Time>2018-09-14T14:57:44.000Z</Time>
            <Position>
              <LatitudeDegrees>37.62408354319632053375244140625</LatitudeDegrees>
              <LongitudeDegrees>-8.08226061053574085235595703125</LongitudeDegrees>
            </Position>
            <AltitudeMeters>259.600006103515625</AltitudeMeters>
            <DistanceMeters>306289.61283149</DistanceMeters>
          </Trackpoint>
          <Trackpoint>
            <Time>2018-09-14T14:57:45.000Z</Time>
            <Position>
              <LatitudeDegrees>37.6240365207195281982421875</LatitudeDegrees>
              <LongitudeDegrees>-8.08226245455443859100341796875</LongitudeDegrees>
            </Position>
            <AltitudeMeters>259.600006103515625</AltitudeMeters>
            <DistanceMeters>306294.84879483</DistanceMeters>
          </Trackpoint>
          <Trackpoint>
            <Time>2018-09-14T14:57:46.000Z</Time>
            <Position>
              <LatitudeDegrees>37.6239900849759578704833984375</LatitudeDegrees>
              <LongitudeDegrees>-8.08226396329700946807861328125</LongitudeDegrees>
            </Position>
            <AltitudeMeters>259.600006103515625</AltitudeMeters>
            <DistanceMeters>306300.01880704</DistanceMeters>
          </Trackpoint>
          <Trackpoint>
            <Time>2018-09-14T14:57:47.000Z</Time>
            <Position>
              <LatitudeDegrees>37.62394356541335582733154296875</LatitudeDegrees>
              <LongitudeDegrees>-8.08226488530635833740234375</LongitudeDegrees>
            </Position>
            <AltitudeMeters>259.600006103515625</AltitudeMeters>
            <DistanceMeters>306305.19754502</DistanceMeters>
          </Trackpoint>
          <Trackpoint>
            <Time>2018-09-14T14:57:48.000Z</Time>
            <Position>
              <LatitudeDegrees>37.6238968782126903533935546875</LatitudeDegrees>
              <LongitudeDegrees>-8.08226580731570720672607421875</LongitudeDegrees>
            </Position>
            <AltitudeMeters>259.399993896484375</AltitudeMeters>
            <DistanceMeters>306310.39542812</DistanceMeters>
          </Trackpoint>
          <Trackpoint>
            <Time>2018-09-14T14:57:49.000Z</Time>
            <Position>
              <LatitudeDegrees>37.623850442469120025634765625</LatitudeDegrees>
              <LongitudeDegrees>-8.082269243896007537841796875</LongitudeDegrees>
            </Position>
            <AltitudeMeters>259.399993896484375</AltitudeMeters>
            <DistanceMeters>306315.57242212</DistanceMeters>
          </Trackpoint>
          <Trackpoint>
            <Time>2018-09-14T14:57:50.000Z</Time>
            <Position>
              <LatitudeDegrees>37.62380392290651798248291015625</LatitudeDegrees>
              <LongitudeDegrees>-8.08227184228599071502685546875</LongitudeDegrees>
            </Position>
            <AltitudeMeters>259.399993896484375</AltitudeMeters>
            <DistanceMeters>306320.75551747</DistanceMeters>
          </Trackpoint>
          <Trackpoint>
            <Time>2018-09-14T14:57:51.000Z</Time>
            <Position>
              <LatitudeDegrees>37.62375690042972564697265625</LatitudeDegrees>
              <LongitudeDegrees>-8.08227184228599071502685546875</LongitudeDegrees>
            </Position>
            <AltitudeMeters>259.399993896484375</AltitudeMeters>
            <DistanceMeters>306325.98889323</DistanceMeters>
          </Trackpoint>
          <Trackpoint>
            <Time>2018-09-14T14:57:52.000Z</Time>
            <Position>
              <LatitudeDegrees>37.62371004559099674224853515625</LatitudeDegrees>
              <LongitudeDegrees>-8.082273267209529876708984375</LongitudeDegrees>
            </Position>
            <AltitudeMeters>259.20001220703125</AltitudeMeters>
            <DistanceMeters>306331.2058512</DistanceMeters>
          </Trackpoint>
          <Trackpoint>
            <Time>2018-09-14T14:57:53.000Z</Time>
            <Position>
              <LatitudeDegrees>37.62366310693323612213134765625</LatitudeDegrees>
              <LongitudeDegrees>-8.08227586559951305389404296875</LongitudeDegrees>
            </Position>
            <AltitudeMeters>259.20001220703125</AltitudeMeters>
            <DistanceMeters>306336.43491148</DistanceMeters>
          </Trackpoint>
          <Trackpoint>
            <Time>2018-09-14T14:57:54.000Z</Time>
            <Position>
              <LatitudeDegrees>37.62361533008515834808349609375</LatitudeDegrees>
              <LongitudeDegrees>-8.08227687142789363861083984375</LongitudeDegrees>
            </Position>
            <AltitudeMeters>259.399993896484375</AltitudeMeters>
            <DistanceMeters>306341.75386152</DistanceMeters>
          </Trackpoint>
          <Trackpoint>
            <Time>2018-09-14T14:57:55.000Z</Time>
            <Position>
              <LatitudeDegrees>37.6235673017799854278564453125</LatitudeDegrees>
              <LongitudeDegrees>-8.0822781287133693695068359375</LongitudeDegrees>
            </Position>
            <AltitudeMeters>259.399993896484375</AltitudeMeters>
            <DistanceMeters>306347.10075052</DistanceMeters>
          </Trackpoint>
          <Trackpoint>
            <Time>2018-09-14T14:57:56.000Z</Time>
            <Position>
              <LatitudeDegrees>37.62351927347481250762939453125</LatitudeDegrees>
              <LongitudeDegrees>-8.082279302179813385009765625</LongitudeDegrees>
            </Position>
            <AltitudeMeters>259.399993896484375</AltitudeMeters>
            <DistanceMeters>306352.44763953</DistanceMeters>
          </Trackpoint>
          <Trackpoint>
            <Time>2018-09-14T14:57:57.000Z</Time>
            <Position>
              <LatitudeDegrees>37.62347116135060787200927734375</LatitudeDegrees>
              <LongitudeDegrees>-8.082279972732067108154296875</LongitudeDegrees>
            </Position>
            <AltitudeMeters>259.399993896484375</AltitudeMeters>
            <DistanceMeters>306357.80296611</DistanceMeters>
          </Trackpoint>
          <Trackpoint>
            <Time>2018-09-14T14:57:58.000Z</Time>
            <Position>
              <LatitudeDegrees>37.62342296540737152099609375</LatitudeDegrees>
              <LongitudeDegrees>-8.082281649112701416015625</LongitudeDegrees>
            </Position>
            <AltitudeMeters>259.600006103515625</AltitudeMeters>
            <DistanceMeters>306363.17008301</DistanceMeters>
          </Trackpoint>
          <Trackpoint>
            <Time>2018-09-14T14:57:59.000Z</Time>
            <Position>
              <LatitudeDegrees>37.62337468564510345458984375</LatitudeDegrees>
              <LongitudeDegrees>-8.08228366076946258544921875</LongitudeDegrees>
            </Position>
            <AltitudeMeters>259.600006103515625</AltitudeMeters>
            <DistanceMeters>306368.54728533</DistanceMeters>
          </Trackpoint>
          <Trackpoint>
            <Time>2018-09-14T14:58:00.000Z</Time>
            <Position>
              <LatitudeDegrees>37.62332632206380367279052734375</LatitudeDegrees>
              <LongitudeDegrees>-8.0822865106165409088134765625</LongitudeDegrees>
            </Position>
            <AltitudeMeters>259.600006103515625</AltitudeMeters>
            <DistanceMeters>306373.93623011</DistanceMeters>
          </Trackpoint>
          <Trackpoint>
            <Time>2018-09-14T14:58:01.000Z</Time>
            <Position>
              <LatitudeDegrees>37.62327787466347217559814453125</LatitudeDegrees>
              <LongitudeDegrees>-8.08228961192071437835693359375</LongitudeDegrees>
            </Position>
            <AltitudeMeters>259.79998779296875</AltitudeMeters>
            <DistanceMeters>306379.33521953</DistanceMeters>
          </Trackpoint>
          <Trackpoint>
            <Time>2018-09-14T14:58:02.000Z</Time>
            <Position>
              <LatitudeDegrees>37.62322892434895038604736328125</LatitudeDegrees>
              <LongitudeDegrees>-8.08229078538715839385986328125</LongitudeDegrees>
            </Position>
            <AltitudeMeters>259.79998779296875</AltitudeMeters>
            <DistanceMeters>306384.78415441</DistanceMeters>
          </Trackpoint>
          <Trackpoint>
            <Time>2018-09-14T14:58:03.000Z</Time>
            <Position>
              <LatitudeDegrees>37.6231790520250797271728515625</LatitudeDegrees>
              <LongitudeDegrees>-8.08229195885360240936279296875</LongitudeDegrees>
            </Position>
            <AltitudeMeters>259.79998779296875</AltitudeMeters>
            <DistanceMeters>306390.33651256</DistanceMeters>
          </Trackpoint>
          <Trackpoint>
            <Time>2018-09-14T14:58:04.000Z</Time>
            <Position>
              <LatitudeDegrees>37.623128928244113922119140625</LatitudeDegrees>
              <LongitudeDegrees>-8.08229363523423671722412109375</LongitudeDegrees>
            </Position>
            <AltitudeMeters>260</AltitudeMeters>
            <DistanceMeters>306395.91806823</DistanceMeters>
          </Trackpoint>
          <Trackpoint>
            <Time>2018-09-14T14:58:05.000Z</Time>
            <Position>
              <LatitudeDegrees>37.623077966272830963134765625</LatitudeDegrees>
              <LongitudeDegrees>-8.08229531161487102508544921875</LongitudeDegrees>
            </Position>
            <AltitudeMeters>260</AltitudeMeters>
            <DistanceMeters>306401.59268298</DistanceMeters>
          </Trackpoint>
          <Trackpoint>
            <Time>2018-09-14T14:58:06.000Z</Time>
            <Position>
              <LatitudeDegrees>37.6230271719396114349365234375</LatitudeDegrees>
              <LongitudeDegrees>-8.08229849673807621002197265625</LongitudeDegrees>
            </Position>
            <AltitudeMeters>260</AltitudeMeters>
            <DistanceMeters>306407.25375544</DistanceMeters>
          </Trackpoint>
          <Trackpoint>
            <Time>2018-09-14T14:58:07.000Z</Time>
            <Position>
              <LatitudeDegrees>37.62297495268285274505615234375</LatitudeDegrees>
              <LongitudeDegrees>-8.08230134658515453338623046875</LongitudeDegrees>
            </Position>
            <AltitudeMeters>260.20001220703125</AltitudeMeters>
            <DistanceMeters>306413.0713775</DistanceMeters>
          </Trackpoint>
          <Trackpoint>
            <Time>2018-09-14T14:58:08.000Z</Time>
            <Position>
              <LatitudeDegrees>37.62292248196899890899658203125</LatitudeDegrees>
              <LongitudeDegrees>-8.0823029391467571258544921875</LongitudeDegrees>
            </Position>
            <AltitudeMeters>260.20001220703125</AltitudeMeters>
            <DistanceMeters>306418.91300903</DistanceMeters>
          </Trackpoint>
          <Trackpoint>
            <Time>2018-09-14T14:58:09.000Z</Time>
            <Position>
              <LatitudeDegrees>37.62286833487451076507568359375</LatitudeDegrees>
              <LongitudeDegrees>-8.08230536989867687225341796875</LongitudeDegrees>
            </Position>
            <AltitudeMeters>260.20001220703125</AltitudeMeters>
            <DistanceMeters>306424.94402452</DistanceMeters>
          </Trackpoint>
          <Trackpoint>
            <Time>2018-09-14T14:58:10.000Z</Time>
            <Position>
              <LatitudeDegrees>37.6228125952184200286865234375</LatitudeDegrees>
              <LongitudeDegrees>-8.08230738155543804168701171875</LongitudeDegrees>
            </Position>
            <AltitudeMeters>260.399993896484375</AltitudeMeters>
            <DistanceMeters>306431.15065856</DistanceMeters>
          </Trackpoint>
          <Trackpoint>
            <Time>2018-09-14T14:58:11.000Z</Time>
            <Position>
              <LatitudeDegrees>37.62275601737201213836669921875</LatitudeDegrees>
              <LongitudeDegrees>-8.08230956085026264190673828125</LongitudeDegrees>
            </Position>
            <AltitudeMeters>260.20001220703125</AltitudeMeters>
            <DistanceMeters>306437.45115188</DistanceMeters>
          </Trackpoint>
          <Trackpoint>
            <Time>2018-09-14T14:58:12.000Z</Time>
            <Position>
              <LatitudeDegrees>37.622698433697223663330078125</LatitudeDegrees>
              <LongitudeDegrees>-8.0823119916021823883056640625</LongitudeDegrees>
            </Position>
            <AltitudeMeters>260</AltitudeMeters>
            <DistanceMeters>306443.86387113</DistanceMeters>
          </Trackpoint>
          <Trackpoint>
            <Time>2018-09-14T14:58:13.000Z</Time>
            <Position>
              <LatitudeDegrees>37.6226402632892131805419921875</LatitudeDegrees>
              <LongitudeDegrees>-8.082313835620880126953125</LongitudeDegrees>
            </Position>
            <AltitudeMeters>260</AltitudeMeters>
            <DistanceMeters>306450.34104143</DistanceMeters>
          </Trackpoint>
          <Trackpoint>
            <Time>2018-09-14T14:58:14.000Z</Time>
            <Position>
              <LatitudeDegrees>37.6225812546908855438232421875</LatitudeDegrees>
              <LongitudeDegrees>-8.08231458999216556549072265625</LongitudeDegrees>
            </Position>
            <AltitudeMeters>259.79998779296875</AltitudeMeters>
            <DistanceMeters>306456.90958048</DistanceMeters>
          </Trackpoint>
          <Trackpoint>
            <Time>2018-09-14T14:58:15.000Z</Time>
            <Position>
              <LatitudeDegrees>37.62252199463546276092529296875</LatitudeDegrees>
              <LongitudeDegrees>-8.08231584727764129638671875</LongitudeDegrees>
            </Position>
            <AltitudeMeters>259.600006103515625</AltitudeMeters>
            <DistanceMeters>306463.50555716</DistanceMeters>
          </Trackpoint>
          <Trackpoint>
            <Time>2018-09-14T14:58:16.000Z</Time>
            <Position>
              <LatitudeDegrees>37.6224629022181034088134765625</LatitudeDegrees>
              <LongitudeDegrees>-8.08231844566762447357177734375</LongitudeDegrees>
            </Position>
            <AltitudeMeters>259.600006103515625</AltitudeMeters>
            <DistanceMeters>306470.0864573</DistanceMeters>
          </Trackpoint>
          <Trackpoint>
            <Time>2018-09-14T14:58:17.000Z</Time>
            <Position>
              <LatitudeDegrees>37.62240380980074405670166015625</LatitudeDegrees>
              <LongitudeDegrees>-8.08231987059116363525390625</LongitudeDegrees>
            </Position>
            <AltitudeMeters>259.399993896484375</AltitudeMeters>
            <DistanceMeters>306476.66461253</DistanceMeters>
          </Trackpoint>
          <Trackpoint>
            <Time>2018-09-14T14:58:18.000Z</Time>
            <Position>
              <LatitudeDegrees>37.62234362773597240447998046875</LatitudeDegrees>
              <LongitudeDegrees>-8.082321546971797943115234375</LongitudeDegrees>
            </Position>
            <AltitudeMeters>259.20001220703125</AltitudeMeters>
            <DistanceMeters>306483.3651752</DistanceMeters>
          </Trackpoint>
          <Trackpoint>
            <Time>2018-09-14T14:58:19.000Z</Time>
            <Position>
              <LatitudeDegrees>37.62228311039507389068603515625</LatitudeDegrees>
              <LongitudeDegrees>-8.08232464827597141265869140625</LongitudeDegrees>
            </Position>
            <AltitudeMeters>259.20001220703125</AltitudeMeters>
            <DistanceMeters>306490.10671618</DistanceMeters>
          </Trackpoint>
          <Trackpoint>
            <Time>2018-09-14T14:58:20.000Z</Time>
            <Position>
              <LatitudeDegrees>37.62222058139741420745849609375</LatitudeDegrees>
              <LongitudeDegrees>-8.0823274143040180206298828125</LongitudeDegrees>
            </Position>
            <AltitudeMeters>259</AltitudeMeters>
            <DistanceMeters>306497.07030078</DistanceMeters>
          </Trackpoint>
          <Trackpoint>
            <Time>2018-09-14T14:58:21.000Z</Time>
            <Position>
              <LatitudeDegrees>37.62215687893331050872802734375</LatitudeDegrees>
              <LongitudeDegrees>-8.082329593598842620849609375</LongitudeDegrees>
            </Position>
            <AltitudeMeters>258.79998779296875</AltitudeMeters>
            <DistanceMeters>306504.16364879</DistanceMeters>
          </Trackpoint>
          <Trackpoint>
            <Time>2018-09-14T14:58:22.000Z</Time>
            <Position>
              <LatitudeDegrees>37.62209267355501651763916015625</LatitudeDegrees>
              <LongitudeDegrees>-8.0823317728936672210693359375</LongitudeDegrees>
            </Position>
            <AltitudeMeters>258.79998779296875</AltitudeMeters>
            <DistanceMeters>306511.3121593</DistanceMeters>
          </Trackpoint>
          <Trackpoint>
            <Time>2018-09-14T14:58:23.000Z</Time>
            <Position>
              <LatitudeDegrees>37.622027881443500518798828125</LatitudeDegrees>
              <LongitudeDegrees>-8.08233437128365039825439453125</LongitudeDegrees>
            </Position>
            <AltitudeMeters>258.600006103515625</AltitudeMeters>
            <DistanceMeters>306518.52668359</DistanceMeters>
          </Trackpoint>
          <Trackpoint>
            <Time>2018-09-14T14:58:24.000Z</Time>
            <Position>
              <LatitudeDegrees>37.621961496770381927490234375</LatitudeDegrees>
              <LongitudeDegrees>-8.08233722113072872161865234375</LongitudeDegrees>
            </Position>
            <AltitudeMeters>258.399993896484375</AltitudeMeters>
            <DistanceMeters>306525.91924895</DistanceMeters>
          </Trackpoint>
          <Trackpoint>
            <Time>2018-09-14T14:58:25.000Z</Time>
            <Position>
              <LatitudeDegrees>37.62189419008791446685791015625</LatitudeDegrees>
              <LongitudeDegrees>-8.08233906514942646026611328125</LongitudeDegrees>
            </Position>
            <AltitudeMeters>258.399993896484375</AltitudeMeters>
            <DistanceMeters>306533.41251361</DistanceMeters>
          </Trackpoint>
          <Trackpoint>
            <Time>2018-09-14T14:58:26.000Z</Time>
            <Position>
              <LatitudeDegrees>37.62182570993900299072265625</LatitudeDegrees>
              <LongitudeDegrees>-8.0823414959013462066650390625</LongitudeDegrees>
            </Position>
            <AltitudeMeters>258.20001220703125</AltitudeMeters>
            <DistanceMeters>306541.03777834</DistanceMeters>
          </Trackpoint>
          <Trackpoint>
            <Time>2018-09-14T14:58:27.000Z</Time>
            <Position>
              <LatitudeDegrees>37.62175605632364749908447265625</LatitudeDegrees>
              <LongitudeDegrees>-8.08234493248164653778076171875</LongitudeDegrees>
            </Position>
            <AltitudeMeters>258.20001220703125</AltitudeMeters>
            <DistanceMeters>306548.79628913</DistanceMeters>
          </Trackpoint>
          <Trackpoint>
            <Time>2018-09-14T14:58:28.000Z</Time>
            <Position>
              <LatitudeDegrees>37.62168531306087970733642578125</LatitudeDegrees>
              <LongitudeDegrees>-8.0823485367000102996826171875</LongitudeDegrees>
            </Position>
            <AltitudeMeters>258</AltitudeMeters>
            <DistanceMeters>306556.67606105</DistanceMeters>
          </Trackpoint>
          <Trackpoint>
            <Time>2018-09-14T14:58:29.000Z</Time>
            <Position>
              <LatitudeDegrees>37.62161339633166790008544921875</LatitudeDegrees>
              <LongitudeDegrees>-8.08235230855643749237060546875</LongitudeDegrees>
            </Position>
            <AltitudeMeters>257.79998779296875</AltitudeMeters>
            <DistanceMeters>306564.6876641</DistanceMeters>
          </Trackpoint>
          <Trackpoint>
            <Time>2018-09-14T14:58:30.000Z</Time>
            <Position>
              <LatitudeDegrees>37.6215405575931072235107421875</LatitudeDegrees>
              <LongitudeDegrees>-8.0823554098606109619140625</LongitudeDegrees>
            </Position>
            <AltitudeMeters>257.399993896484375</AltitudeMeters>
            <DistanceMeters>306572.79896097</DistanceMeters>
          </Trackpoint>
          <Trackpoint>
            <Time>2018-09-14T14:58:31.000Z</Time>
            <Position>
              <LatitudeDegrees>37.621467299759387969970703125</LatitudeDegrees>
              <LongitudeDegrees>-8.0823585949838161468505859375</LongitudeDegrees>
            </Position>
            <AltitudeMeters>257</AltitudeMeters>
            <DistanceMeters>306580.9574347</DistanceMeters>
          </Trackpoint>
          <Trackpoint>
            <Time>2018-09-14T14:58:32.000Z</Time>
            <Position>
              <LatitudeDegrees>37.621392868459224700927734375</LatitudeDegrees>
              <LongitudeDegrees>-8.082361109554767608642578125</LongitudeDegrees>
            </Position>
            <AltitudeMeters>256.79998779296875</AltitudeMeters>
            <DistanceMeters>306589.24494104</DistanceMeters>
          </Trackpoint>
          <Trackpoint>
            <Time>2018-09-14T14:58:33.000Z</Time>
            <Position>
              <LatitudeDegrees>37.62131684459745883941650390625</LatitudeDegrees>
              <LongitudeDegrees>-8.0823642946779727935791015625</LongitudeDegrees>
            </Position>
            <AltitudeMeters>256.399993896484375</AltitudeMeters>
            <DistanceMeters>306597.71138934</DistanceMeters>
          </Trackpoint>
          <Trackpoint>
            <Time>2018-09-14T14:58:34.000Z</Time>
            <Position>
              <LatitudeDegrees>37.6212398149073123931884765625</LatitudeDegrees>
              <LongitudeDegrees>-8.08236840181052684783935546875</LongitudeDegrees>
            </Position>
            <AltitudeMeters>256</AltitudeMeters>
            <DistanceMeters>306606.29278045</DistanceMeters>
          </Trackpoint>
          <Trackpoint>
            <Time>2018-09-14T14:58:35.000Z</Time>
            <Position>
              <LatitudeDegrees>37.62116177938878536224365234375</LatitudeDegrees>
              <LongitudeDegrees>-8.0823713354766368865966796875</LongitudeDegrees>
            </Position>
            <AltitudeMeters>255.600006103515625</AltitudeMeters>
            <DistanceMeters>306614.98292023</DistanceMeters>
          </Trackpoint>
          <Trackpoint>
            <Time>2018-09-14T14:58:36.000Z</Time>
            <Position>
              <LatitudeDegrees>37.62108315713703632354736328125</LatitudeDegrees>
              <LongitudeDegrees>-8.0823736824095249176025390625</LongitudeDegrees>
            </Position>
            <AltitudeMeters>255.1999969482421875</AltitudeMeters>
            <DistanceMeters>306623.73673246</DistanceMeters>
          </Trackpoint>
          <Trackpoint>
            <Time>2018-09-14T14:58:37.000Z</Time>
            <Position>
              <LatitudeDegrees>37.6210037805140018463134765625</LatitudeDegrees>
              <LongitudeDegrees>-8.08237552642822265625</LongitudeDegrees>
            </Position>
            <AltitudeMeters>254.8000030517578125</AltitudeMeters>
            <DistanceMeters>306632.57319505</DistanceMeters>
          </Trackpoint>
          <Trackpoint>
            <Time>2018-09-14T14:58:38.000Z</Time>
            <Position>
              <LatitudeDegrees>37.6209233142435550689697265625</LatitudeDegrees>
              <LongitudeDegrees>-8.08237762190401554107666015625</LongitudeDegrees>
            </Position>
            <AltitudeMeters>254.399993896484375</AltitudeMeters>
            <DistanceMeters>306641.53094361</DistanceMeters>
          </Trackpoint>
          <Trackpoint>
            <Time>2018-09-14T14:58:39.000Z</Time>
            <Position>
              <LatitudeDegrees>37.62084192596375942230224609375</LatitudeDegrees>
              <LongitudeDegrees>-8.08237946592271327972412109375</LongitudeDegrees>
            </Position>
            <AltitudeMeters>254</AltitudeMeters>
            <DistanceMeters>306650.59093229</DistanceMeters>
          </Trackpoint>
          <Trackpoint>
            <Time>2018-09-14T14:58:40.000Z</Time>
            <Position>
              <LatitudeDegrees>37.62075953185558319091796875</LatitudeDegrees>
              <LongitudeDegrees>-8.082380555570125579833984375</LongitudeDegrees>
            </Position>
            <AltitudeMeters>253.8000030517578125</AltitudeMeters>
            <DistanceMeters>306659.76187183</DistanceMeters>
          </Trackpoint>
          <Trackpoint>
            <Time>2018-09-14T14:58:41.000Z</Time>
            <Position>
              <LatitudeDegrees>37.62067629955708980560302734375</LatitudeDegrees>
              <LongitudeDegrees>-8.082382567226886749267578125</LongitudeDegrees>
            </Position>
            <AltitudeMeters>253.600006103515625</AltitudeMeters>
            <DistanceMeters>306669.02782924</DistanceMeters>
          </Trackpoint>
          <Trackpoint>
            <Time>2018-09-14T14:58:42.000Z</Time>
            <Position>
              <LatitudeDegrees>37.6205913908779621124267578125</LatitudeDegrees>
              <LongitudeDegrees>-8.0823847465217113494873046875</LongitudeDegrees>
            </Position>
            <AltitudeMeters>253.399993896484375</AltitudeMeters>
            <DistanceMeters>306678.48048</DistanceMeters>
          </Trackpoint>
          <Trackpoint>
            <Time>2018-09-14T14:58:43.000Z</Time>
            <Position>
              <LatitudeDegrees>37.62050514109432697296142578125</LatitudeDegrees>
              <LongitudeDegrees>-8.08238692581653594970703125</LongitudeDegrees>
            </Position>
            <AltitudeMeters>253.1999969482421875</AltitudeMeters>
            <DistanceMeters>306688.08194085</DistanceMeters>
          </Trackpoint>
          <Trackpoint>
            <Time>2018-09-14T14:58:44.000Z</Time>
            <Position>
              <LatitudeDegrees>37.62041780166327953338623046875</LatitudeDegrees>
              <LongitudeDegrees>-8.08238969184458255767822265625</LongitudeDegrees>
            </Position>
            <AltitudeMeters>253</AltitudeMeters>
            <DistanceMeters>306697.80536105</DistanceMeters>
          </Trackpoint>
          <Trackpoint>
            <Time>2018-09-14T14:58:45.000Z</Time>
            <Position>
              <LatitudeDegrees>37.6203292049467563629150390625</LatitudeDegrees>
              <LongitudeDegrees>-8.08239170350134372711181640625</LongitudeDegrees>
            </Position>
            <AltitudeMeters>252.8000030517578125</AltitudeMeters>
            <DistanceMeters>306707.66801706</DistanceMeters>
          </Trackpoint>
          <Trackpoint>
            <Time>2018-09-14T14:58:46.000Z</Time>
            <Position>
              <LatitudeDegrees>37.6202411949634552001953125</LatitudeDegrees>
              <LongitudeDegrees>-8.0823927931487560272216796875</LongitudeDegrees>
            </Position>
            <AltitudeMeters>252.600006103515625</AltitudeMeters>
            <DistanceMeters>306717.46406842</DistanceMeters>
          </Trackpoint>
          <Trackpoint>
            <Time>2018-09-14T14:58:47.000Z</Time>
            <Position>
              <LatitudeDegrees>37.6201526820659637451171875</LatitudeDegrees>
              <LongitudeDegrees>-8.082394637167453765869140625</LongitudeDegrees>
            </Position>
            <AltitudeMeters>252.399993896484375</AltitudeMeters>
            <DistanceMeters>306727.31756435</DistanceMeters>
          </Trackpoint>
          <Trackpoint>
            <Time>2018-09-14T14:58:48.000Z</Time>
            <Position>
              <LatitudeDegrees>37.62006442062556743621826171875</LatitudeDegrees>
              <LongitudeDegrees>-8.0823978222906589508056640625</LongitudeDegrees>
            </Position>
            <AltitudeMeters>252.399993896484375</AltitudeMeters>
            <DistanceMeters>306737.14536663</DistanceMeters>
          </Trackpoint>
          <Trackpoint>
            <Time>2018-09-14T14:58:49.000Z</Time>
            <Position>
              <LatitudeDegrees>37.61997632682323455810546875</LatitudeDegrees>
              <LongitudeDegrees>-8.0824048630893230438232421875</LongitudeDegrees>
            </Position>
            <AltitudeMeters>252.600006103515625</AltitudeMeters>
            <DistanceMeters>306746.97041203</DistanceMeters>
          </Trackpoint>
          <Trackpoint>
            <Time>2018-09-14T14:58:50.000Z</Time>
            <Position>
              <LatitudeDegrees>37.619888484477996826171875</LatitudeDegrees>
              <LongitudeDegrees>-8.08241081424057483673095703125</LongitudeDegrees>
            </Position>
            <AltitudeMeters>253</AltitudeMeters>
            <DistanceMeters>306756.76139214</DistanceMeters>
          </Trackpoint>
          <Trackpoint>
            <Time>2018-09-14T14:58:51.000Z</Time>
            <Position>
              <LatitudeDegrees>37.619800306856632232666015625</LatitudeDegrees>
              <LongitudeDegrees>-8.0824172683060169219970703125</LongitudeDegrees>
            </Position>
            <AltitudeMeters>253.399993896484375</AltitudeMeters>
            <DistanceMeters>306766.5924098</DistanceMeters>
          </Trackpoint>
          <Trackpoint>
            <Time>2018-09-14T14:58:52.000Z</Time>
            <Position>
              <LatitudeDegrees>37.6197126321494579315185546875</LatitudeDegrees>
              <LongitudeDegrees>-8.0824219621717929840087890625</LongitudeDegrees>
            </Position>
            <AltitudeMeters>253.8000030517578125</AltitudeMeters>
            <DistanceMeters>306776.35938106</DistanceMeters>
          </Trackpoint>
          <Trackpoint>
            <Time>2018-09-14T14:58:53.000Z</Time>
            <Position>
              <LatitudeDegrees>37.61962571181356906890869140625</LatitudeDegrees>
              <LongitudeDegrees>-8.0824266560375690460205078125</LongitudeDegrees>
            </Position>
            <AltitudeMeters>254.1999969482421875</AltitudeMeters>
            <DistanceMeters>306786.04278509</DistanceMeters>
          </Trackpoint>
          <Trackpoint>
            <Time>2018-09-14T14:58:54.000Z</Time>
            <Position>
              <LatitudeDegrees>37.61954021640121936798095703125</LatitudeDegrees>
              <LongitudeDegrees>-8.08243059553205966949462890625</LongitudeDegrees>
            </Position>
            <AltitudeMeters>254.8000030517578125</AltitudeMeters>
            <DistanceMeters>306795.56444291</DistanceMeters>
          </Trackpoint>
          <Trackpoint>
            <Time>2018-09-14T14:58:55.000Z</Time>
            <Position>
              <LatitudeDegrees>37.619456313550472259521484375</LatitudeDegrees>
              <LongitudeDegrees>-8.0824350379407405853271484375</LongitudeDegrees>
            </Position>
            <AltitudeMeters>255.1999969482421875</AltitudeMeters>
            <DistanceMeters>306804.91093741</DistanceMeters>
          </Trackpoint>
          <Trackpoint>
            <Time>2018-09-14T14:58:56.000Z</Time>
            <Position>
              <LatitudeDegrees>37.61937417089939117431640625</LatitudeDegrees>
              <LongitudeDegrees>-8.08243864215910434722900390625</LongitudeDegrees>
            </Position>
            <AltitudeMeters>255.600006103515625</AltitudeMeters>
            <DistanceMeters>306814.05920219</DistanceMeters>
          </Trackpoint>
          <Trackpoint>
            <Time>2018-09-14T14:58:57.000Z</Time>
            <Position>
              <LatitudeDegrees>37.61929395608603954315185546875</LatitudeDegrees>
              <LongitudeDegrees>-8.0824420787394046783447265625</LongitudeDegrees>
            </Position>
            <AltitudeMeters>255.8000030517578125</AltitudeMeters>
            <DistanceMeters>306822.99272421</DistanceMeters>
          </Trackpoint>
          <Trackpoint>
            <Time>2018-09-14T14:58:58.000Z</Time>
            <Position>
              <LatitudeDegrees>37.61921483092010021209716796875</LatitudeDegrees>
              <LongitudeDegrees>-8.08244618587195873260498046875</LongitudeDegrees>
            </Position>
            <AltitudeMeters>256.20001220703125</AltitudeMeters>
            <DistanceMeters>306831.80718833</DistanceMeters>
          </Trackpoint>
          <Trackpoint>
            <Time>2018-09-14T14:58:59.000Z</Time>
            <Position>
              <LatitudeDegrees>37.61913687922060489654541015625</LatitudeDegrees>
              <LongitudeDegrees>-8.08245171792805194854736328125</LongitudeDegrees>
            </Position>
            <AltitudeMeters>256.399993896484375</AltitudeMeters>
            <DistanceMeters>306840.49680853</DistanceMeters>
          </Trackpoint>
          <Trackpoint>
            <Time>2018-09-14T14:59:00.000Z</Time>
            <Position>
              <LatitudeDegrees>37.6190605200827121734619140625</LatitudeDegrees>
              <LongitudeDegrees>-8.0824561603367328643798828125</LongitudeDegrees>
            </Position>
            <AltitudeMeters>256.600006103515625</AltitudeMeters>
            <DistanceMeters>306849.00475145</DistanceMeters>
          </Trackpoint>
          <Trackpoint>
            <Time>2018-09-14T14:59:01.000Z</Time>
            <Position>
              <LatitudeDegrees>37.618984244763851165771484375</LatitudeDegrees>
              <LongitudeDegrees>-8.08245674706995487213134765625</LongitudeDegrees>
            </Position>
            <AltitudeMeters>256.79998779296875</AltitudeMeters>
            <DistanceMeters>306857.49356821</DistanceMeters>
          </Trackpoint>
          <Trackpoint>
            <Time>2018-09-14T14:59:02.000Z</Time>
            <Position>
              <LatitudeDegrees>37.618911154568195343017578125</LatitudeDegrees>
              <LongitudeDegrees>-8.082459010183811187744140625</LongitudeDegrees>
            </Position>
            <AltitudeMeters>257</AltitudeMeters>
            <DistanceMeters>306865.63098491</DistanceMeters>
          </Trackpoint>
          <Trackpoint>
            <Time>2018-09-14T14:59:03.000Z</Time>
            <Position>
              <LatitudeDegrees>37.6188392378389835357666015625</LatitudeDegrees>
              <LongitudeDegrees>-8.0824608542025089263916015625</LongitudeDegrees>
            </Position>
            <AltitudeMeters>257.20001220703125</AltitudeMeters>
            <DistanceMeters>306873.63751429</DistanceMeters>
          </Trackpoint>
          <Trackpoint>
            <Time>2018-09-14T14:59:04.000Z</Time>
            <Position>
              <LatitudeDegrees>37.6187684945762157440185546875</LatitudeDegrees>
              <LongitudeDegrees>-8.08246412314474582672119140625</LongitudeDegrees>
            </Position>
            <AltitudeMeters>257.399993896484375</AltitudeMeters>
            <DistanceMeters>306881.51614015</DistanceMeters>
          </Trackpoint>
          <Trackpoint>
            <Time>2018-09-14T14:59:05.000Z</Time>
            <Position>
              <LatitudeDegrees>37.6186989247798919677734375</LatitudeDegrees>
              <LongitudeDegrees>-8.0824662186205387115478515625</LongitudeDegrees>
            </Position>
            <AltitudeMeters>257.600006103515625</AltitudeMeters>
            <DistanceMeters>306889.26183753</DistanceMeters>
          </Trackpoint>
          <Trackpoint>
            <Time>2018-09-14T14:59:06.000Z</Time>
            <Position>
              <LatitudeDegrees>37.61863128282129764556884765625</LatitudeDegrees>
              <LongitudeDegrees>-8.0824678950011730194091796875</LongitudeDegrees>
            </Position>
            <AltitudeMeters>257.79998779296875</AltitudeMeters>
            <DistanceMeters>306896.7923674</DistanceMeters>
          </Trackpoint>
          <Trackpoint>
            <Time>2018-09-14T14:59:07.000Z</Time>
            <Position>
              <LatitudeDegrees>37.618565149605274200439453125</LatitudeDegrees>
              <LongitudeDegrees>-8.08247007429599761962890625</LongitudeDegrees>
            </Position>
            <AltitudeMeters>257.79998779296875</AltitudeMeters>
            <DistanceMeters>306904.15555821</DistanceMeters>
          </Trackpoint>
          <Trackpoint>
            <Time>2018-09-14T14:59:08.000Z</Time>
            <Position>
              <LatitudeDegrees>37.618499100208282470703125</LatitudeDegrees>
              <LongitudeDegrees>-8.08247275650501251220703125</LongitudeDegrees>
            </Position>
            <AltitudeMeters>258</AltitudeMeters>
            <DistanceMeters>306911.51015935</DistanceMeters>
          </Trackpoint>
          <Trackpoint>
            <Time>2018-09-14T14:59:09.000Z</Time>
            <Position>
              <LatitudeDegrees>37.61843363754451274871826171875</LatitudeDegrees>
              <LongitudeDegrees>-8.08247501961886882781982421875</LongitudeDegrees>
            </Position>
            <AltitudeMeters>258.20001220703125</AltitudeMeters>
            <DistanceMeters>306918.79815699</DistanceMeters>
          </Trackpoint>
          <Trackpoint>
            <Time>2018-09-14T14:59:10.000Z</Time>
            <Position>
              <LatitudeDegrees>37.61836926452815532684326171875</LatitudeDegrees>
              <LongitudeDegrees>-8.08247636072337627410888671875</LongitudeDegrees>
            </Position>
            <AltitudeMeters>258.399993896484375</AltitudeMeters>
            <DistanceMeters>306925.96370057</DistanceMeters>
          </Trackpoint>
          <Trackpoint>
            <Time>2018-09-14T14:59:11.000Z</Time>
            <Position>
              <LatitudeDegrees>37.6183068193495273590087890625</LatitudeDegrees>
              <LongitudeDegrees>-8.0824762769043445587158203125</LongitudeDegrees>
            </Position>
            <AltitudeMeters>258.600006103515625</AltitudeMeters>
            <DistanceMeters>306932.9143055</DistanceMeters>
          </Trackpoint>
          <Trackpoint>
            <Time>2018-09-14T14:59:12.000Z</Time>
            <Position>
              <LatitudeDegrees>37.61824554763734340667724609375</LatitudeDegrees>
              <LongitudeDegrees>-8.08247719891369342803955078125</LongitudeDegrees>
            </Position>
            <AltitudeMeters>258.79998779296875</AltitudeMeters>
            <DistanceMeters>306939.73441721</DistanceMeters>
          </Trackpoint>
          <Trackpoint>
            <Time>2018-09-14T14:59:13.000Z</Time>
            <Position>
              <LatitudeDegrees>37.61818570084869861602783203125</LatitudeDegrees>
              <LongitudeDegrees>-8.082479797303676605224609375</LongitudeDegrees>
            </Position>
            <AltitudeMeters>259</AltitudeMeters>
            <DistanceMeters>306946.39984864</DistanceMeters>
          </Trackpoint>
          <Trackpoint>
            <Time>2018-09-14T14:59:14.000Z</Time>
            <Position>
              <LatitudeDegrees>37.61812702752649784088134765625</LatitudeDegrees>
              <LongitudeDegrees>-8.082483150064945220947265625</LongitudeDegrees>
            </Position>
            <AltitudeMeters>259.20001220703125</AltitudeMeters>
            <DistanceMeters>306952.93669205</DistanceMeters>
          </Trackpoint>
          <Trackpoint>
            <Time>2018-09-14T14:59:15.000Z</Time>
            <Position>
              <LatitudeDegrees>37.61806885711848735809326171875</LatitudeDegrees>
              <LongitudeDegrees>-8.0824863351881504058837890625</LongitudeDegrees>
            </Position>
            <AltitudeMeters>259.399993896484375</AltitudeMeters>
            <DistanceMeters>306959.41804342</DistanceMeters>
          </Trackpoint>
          <Trackpoint>
            <Time>2018-09-14T14:59:16.000Z</Time>
            <Position>
              <LatitudeDegrees>37.61801102198660373687744140625</LatitudeDegrees>
              <LongitudeDegrees>-8.0824893526732921600341796875</LongitudeDegrees>
            </Position>
            <AltitudeMeters>259.79998779296875</AltitudeMeters>
            <DistanceMeters>306965.86026597</DistanceMeters>
          </Trackpoint>
          <Trackpoint>
            <Time>2018-09-14T14:59:17.000Z</Time>
            <Position>
              <LatitudeDegrees>37.61795368976891040802001953125</LatitudeDegrees>
              <LongitudeDegrees>-8.08249278925359249114990234375</LongitudeDegrees>
            </Position>
            <AltitudeMeters>260</AltitudeMeters>
            <DistanceMeters>306972.24829504</DistanceMeters>
          </Trackpoint>
          <Trackpoint>
            <Time>2018-09-14T14:59:18.000Z</Time>
            <Position>
              <LatitudeDegrees>37.61789736337959766387939453125</LatitudeDegrees>
              <LongitudeDegrees>-8.0824960581958293914794921875</LongitudeDegrees>
            </Position>
            <AltitudeMeters>260.20001220703125</AltitudeMeters>
            <DistanceMeters>306978.52365665</DistanceMeters>
          </Trackpoint>
          <Trackpoint>
            <Time>2018-09-14T14:59:19.000Z</Time>
            <Position>
              <LatitudeDegrees>37.61784120462834835052490234375</LatitudeDegrees>
              <LongitudeDegrees>-8.082499243319034576416015625</LongitudeDegrees>
            </Position>
            <AltitudeMeters>260.399993896484375</AltitudeMeters>
            <DistanceMeters>306984.78028365</DistanceMeters>
          </Trackpoint>
          <Trackpoint>
            <Time>2018-09-14T14:59:20.000Z</Time>
            <Position>
              <LatitudeDegrees>37.61778521351516246795654296875</LatitudeDegrees>
              <LongitudeDegrees>-8.08250226080417633056640625</LongitudeDegrees>
            </Position>
            <AltitudeMeters>260.600006103515625</AltitudeMeters>
            <DistanceMeters>306991.01811977</DistanceMeters>
          </Trackpoint>
          <Trackpoint>
            <Time>2018-09-14T14:59:21.000Z</Time>
            <Position>
              <LatitudeDegrees>37.6177298091351985931396484375</LatitudeDegrees>
              <LongitudeDegrees>-8.0825051106512546539306640625</LongitudeDegrees>
            </Position>
            <AltitudeMeters>260.79998779296875</AltitudeMeters>
            <DistanceMeters>306997.18973726</DistanceMeters>
          </Trackpoint>
          <Trackpoint>
            <Time>2018-09-14T14:59:22.000Z</Time>
            <Position>
              <LatitudeDegrees>37.61767406947910785675048828125</LatitudeDegrees>
              <LongitudeDegrees>-8.082507960498332977294921875</LongitudeDegrees>
            </Position>
            <AltitudeMeters>261</AltitudeMeters>
            <DistanceMeters>307003.39928043</DistanceMeters>
          </Trackpoint>
          <Trackpoint>
            <Time>2018-09-14T14:59:23.000Z</Time>
            <Position>
              <LatitudeDegrees>37.61761807836592197418212890625</LatitudeDegrees>
              <LongitudeDegrees>-8.08251039125025272369384765625</LongitudeDegrees>
            </Position>
            <AltitudeMeters>261.20001220703125</AltitudeMeters>
            <DistanceMeters>307009.63494472</DistanceMeters>
          </Trackpoint>
          <Trackpoint>
            <Time>2018-09-14T14:59:24.000Z</Time>
            <Position>
              <LatitudeDegrees>37.617562003433704376220703125</LatitudeDegrees>
              <LongitudeDegrees>-8.08251206763088703155517578125</LongitudeDegrees>
            </Position>
            <AltitudeMeters>261.600006103515625</AltitudeMeters>
            <DistanceMeters>307015.87784548</DistanceMeters>
          </Trackpoint>
          <Trackpoint>
            <Time>2018-09-14T14:59:25.000Z</Time>
            <Position>
              <LatitudeDegrees>37.6175055094063282012939453125</LatitudeDegrees>
              <LongitudeDegrees>-8.08251491747796535491943359375</LongitudeDegrees>
            </Position>
            <AltitudeMeters>262</AltitudeMeters>
            <DistanceMeters>307022.17116855</DistanceMeters>
          </Trackpoint>
          <Trackpoint>
            <Time>2018-09-14T14:59:26.000Z</Time>
            <Position>
              <LatitudeDegrees>37.6174485124647617340087890625</LatitudeDegrees>
              <LongitudeDegrees>-8.08251894079148769378662109375</LongitudeDegrees>
            </Position>
            <AltitudeMeters>262</AltitudeMeters>
            <DistanceMeters>307028.52589135</DistanceMeters>
          </Trackpoint>
          <Trackpoint>
            <Time>2018-09-14T14:59:27.000Z</Time>
            <Position>
              <LatitudeDegrees>37.617391012609004974365234375</LatitudeDegrees>
              <LongitudeDegrees>-8.0825235508382320404052734375</LongitudeDegrees>
            </Position>
            <AltitudeMeters>262</AltitudeMeters>
            <DistanceMeters>307034.9386106</DistanceMeters>
          </Trackpoint>
          <Trackpoint>
            <Time>2018-09-14T14:59:28.000Z</Time>
            <Position>
              <LatitudeDegrees>37.61733326129615306854248046875</LatitudeDegrees>
              <LongitudeDegrees>-8.08252832852303981781005859375</LongitudeDegrees>
            </Position>
            <AltitudeMeters>261.79998779296875</AltitudeMeters>
            <DistanceMeters>307041.38013226</DistanceMeters>
          </Trackpoint>
          <Trackpoint>
            <Time>2018-09-14T14:59:29.000Z</Time>
            <Position>
              <LatitudeDegrees>37.61727475561201572418212890625</LatitudeDegrees>
              <LongitudeDegrees>-8.08253184892237186431884765625</LongitudeDegrees>
            </Position>
            <AltitudeMeters>261.79998779296875</AltitudeMeters>
            <DistanceMeters>307047.90037764</DistanceMeters>
          </Trackpoint>
          <Trackpoint>
            <Time>2018-09-14T14:59:30.000Z</Time>
            <Position>
              <LatitudeDegrees>37.617215998470783233642578125</LatitudeDegrees>
              <LongitudeDegrees>-8.0825369618833065032958984375</LongitudeDegrees>
            </Position>
            <AltitudeMeters>261.79998779296875</AltitudeMeters>
            <DistanceMeters>307054.45584359</DistanceMeters>
          </Trackpoint>
          <Trackpoint>
            <Time>2018-09-14T14:59:31.000Z</Time>
            <Position>
              <LatitudeDegrees>37.61715774424374103546142578125</LatitudeDegrees>
              <LongitudeDegrees>-8.08254492469131946563720703125</LongitudeDegrees>
            </Position>
            <AltitudeMeters>261.600006103515625</AltitudeMeters>
            <DistanceMeters>307060.97747376</DistanceMeters>
          </Trackpoint>
          <Trackpoint>
            <Time>2018-09-14T14:59:32.000Z</Time>
            <Position>
              <LatitudeDegrees>37.61709873564541339874267578125</LatitudeDegrees>
              <LongitudeDegrees>-8.0825540609657764434814453125</LongitudeDegrees>
            </Position>
            <AltitudeMeters>261.600006103515625</AltitudeMeters>
            <DistanceMeters>307067.59531863</DistanceMeters>
          </Trackpoint>
          <Trackpoint>
            <Time>2018-09-14T14:59:33.000Z</Time>
            <Position>
              <LatitudeDegrees>37.61703788302838802337646484375</LatitudeDegrees>
              <LongitudeDegrees>-8.082562945783138275146484375</LongitudeDegrees>
            </Position>
            <AltitudeMeters>261.399993896484375</AltitudeMeters>
            <DistanceMeters>307074.413444</DistanceMeters>
          </Trackpoint>
          <Trackpoint>
            <Time>2018-09-14T14:59:34.000Z</Time>
            <Position>
              <LatitudeDegrees>37.61697518639266490936279296875</LatitudeDegrees>
              <LongitudeDegrees>-8.0825714953243732452392578125</LongitudeDegrees>
            </Position>
            <AltitudeMeters>261.399993896484375</AltitudeMeters>
            <DistanceMeters>307081.43256767</DistanceMeters>
          </Trackpoint>
          <Trackpoint>
            <Time>2018-09-14T14:59:35.000Z</Time>
            <Position>
              <LatitudeDegrees>37.6169110648334026336669921875</LatitudeDegrees>
              <LongitudeDegrees>-8.08258046396076679229736328125</LongitudeDegrees>
            </Position>
            <AltitudeMeters>261.20001220703125</AltitudeMeters>
            <DistanceMeters>307088.61321781</DistanceMeters>
          </Trackpoint>
          <Trackpoint>
            <Time>2018-09-14T14:59:36.000Z</Time>
            <Position>
              <LatitudeDegrees>37.61684593744575977325439453125</LatitudeDegrees>
              <LongitudeDegrees>-8.08259077370166778564453125</LongitudeDegrees>
            </Position>
            <AltitudeMeters>261.20001220703125</AltitudeMeters>
            <DistanceMeters>307095.91915936</DistanceMeters>
          </Trackpoint>
          <Trackpoint>
            <Time>2018-09-14T14:59:37.000Z</Time>
            <Position>
              <LatitudeDegrees>37.61677921749651432037353515625</LatitudeDegrees>
              <LongitudeDegrees>-8.08260242454707622528076171875</LongitudeDegrees>
            </Position>
            <AltitudeMeters>261.20001220703125</AltitudeMeters>
            <DistanceMeters>307103.41603843</DistanceMeters>
          </Trackpoint>
          <Trackpoint>
            <Time>2018-09-14T14:59:38.000Z</Time>
            <Position>
              <LatitudeDegrees>37.61671132408082485198974609375</LatitudeDegrees>
              <LongitudeDegrees>-8.08261499740183353424072265625</LongitudeDegrees>
            </Position>
            <AltitudeMeters>261</AltitudeMeters>
            <DistanceMeters>307111.05372747</DistanceMeters>
          </Trackpoint>
          <Trackpoint>
            <Time>2018-09-14T14:59:39.000Z</Time>
            <Position>
              <LatitudeDegrees>37.6166425086557865142822265625</LatitudeDegrees>
              <LongitudeDegrees>-8.08262790553271770477294921875</LongitudeDegrees>
            </Position>
            <AltitudeMeters>260.79998779296875</AltitudeMeters>
            <DistanceMeters>307118.79767592</DistanceMeters>
          </Trackpoint>
          <Trackpoint>
            <Time>2018-09-14T14:59:40.000Z</Time>
            <Position>
              <LatitudeDegrees>37.616572268307209014892578125</LatitudeDegrees>
              <LongitudeDegrees>-8.082641400396823883056640625</LongitudeDegrees>
            </Position>
            <AltitudeMeters>260.600006103515625</AltitudeMeters>
            <DistanceMeters>307126.7060455</DistanceMeters>
          </Trackpoint>
          <Trackpoint>
            <Time>2018-09-14T14:59:41.000Z</Time>
            <Position>
              <LatitudeDegrees>37.6165008544921875</LatitudeDegrees>
              <LongitudeDegrees>-8.0826563201844692230224609375</LongitudeDegrees>
            </Position>
            <AltitudeMeters>260.399993896484375</AltitudeMeters>
            <DistanceMeters>307134.76204695</DistanceMeters>
          </Trackpoint>
          <Trackpoint>
            <Time>2018-09-14T14:59:42.000Z</Time>
            <Position>
              <LatitudeDegrees>37.61642910540103912353515625</LatitudeDegrees>
              <LongitudeDegrees>-8.082671575248241424560546875</LongitudeDegrees>
            </Position>
            <AltitudeMeters>260.20001220703125</AltitudeMeters>
            <DistanceMeters>307142.85997355</DistanceMeters>
          </Trackpoint>
          <Trackpoint>
            <Time>2018-09-14T14:59:43.000Z</Time>
            <Position>
              <LatitudeDegrees>37.61635676957666873931884765625</LatitudeDegrees>
              <LongitudeDegrees>-8.08268691413104534149169921875</LongitudeDegrees>
            </Position>
            <AltitudeMeters>260</AltitudeMeters>
            <DistanceMeters>307151.02397957</DistanceMeters>
          </Trackpoint>
          <Trackpoint>
            <Time>2018-09-14T14:59:44.000Z</Time>
            <Position>
              <LatitudeDegrees>37.61628334410488605499267578125</LatitudeDegrees>
              <LongitudeDegrees>-8.0827035941183567047119140625</LongitudeDegrees>
            </Position>
            <AltitudeMeters>259.79998779296875</AltitudeMeters>
            <DistanceMeters>307159.32781384</DistanceMeters>
          </Trackpoint>
          <Trackpoint>
            <Time>2018-09-14T14:59:45.000Z</Time>
            <Position>
              <LatitudeDegrees>37.61620916426181793212890625</LatitudeDegrees>
              <LongitudeDegrees>-8.0827220343053340911865234375</LongitudeDegrees>
            </Position>
            <AltitudeMeters>259.600006103515625</AltitudeMeters>
            <DistanceMeters>307167.74183781</DistanceMeters>
          </Trackpoint>
          <Trackpoint>
            <Time>2018-09-14T14:59:46.000Z</Time>
            <Position>
              <LatitudeDegrees>37.61613481678068637847900390625</LatitudeDegrees>
              <LongitudeDegrees>-8.08274173177778720855712890625</LongitudeDegrees>
            </Position>
            <AltitudeMeters>259.399993896484375</AltitudeMeters>
            <DistanceMeters>307176.19707969</DistanceMeters>
          </Trackpoint>
          <Trackpoint>
            <Time>2018-09-14T14:59:47.000Z</Time>
            <Position>
              <LatitudeDegrees>37.6160597987473011016845703125</LatitudeDegrees>
              <LongitudeDegrees>-8.0827605910599231719970703125</LongitudeDegrees>
            </Position>
            <AltitudeMeters>259.20001220703125</AltitudeMeters>
            <DistanceMeters>307184.71032781</DistanceMeters>
          </Trackpoint>
          <Trackpoint>
            <Time>2018-09-14T14:59:48.000Z</Time>
            <Position>
              <LatitudeDegrees>37.61598411016166210174560546875</LatitudeDegrees>
              <LongitudeDegrees>-8.08277810923755168914794921875</LongitudeDegrees>
            </Position>
            <AltitudeMeters>258.79998779296875</AltitudeMeters>
            <DistanceMeters>307193.2743386</DistanceMeters>
          </Trackpoint>
          <Trackpoint>
            <Time>2018-09-14T14:59:49.000Z</Time>
            <Position>
              <LatitudeDegrees>37.615908086299896240234375</LatitudeDegrees>
              <LongitudeDegrees>-8.0827968008816242218017578125</LongitudeDegrees>
            </Position>
            <AltitudeMeters>258.600006103515625</AltitudeMeters>
            <DistanceMeters>307201.89457636</DistanceMeters>
          </Trackpoint>
          <Trackpoint>
            <Time>2018-09-14T14:59:50.000Z</Time>
            <Position>
              <LatitudeDegrees>37.61583223007619380950927734375</LatitudeDegrees>
              <LongitudeDegrees>-8.08281750418245792388916015625</LongitudeDegrees>
            </Position>
            <AltitudeMeters>258.399993896484375</AltitudeMeters>
            <DistanceMeters>307210.5320813</DistanceMeters>
          </Trackpoint>
          <Trackpoint>
            <Time>2018-09-14T14:59:51.000Z</Time>
            <Position>
              <LatitudeDegrees>37.61575612239539623260498046875</LatitudeDegrees>
              <LongitudeDegrees>-8.0828390456736087799072265625</LongitudeDegrees>
            </Position>
            <AltitudeMeters>258</AltitudeMeters>
            <DistanceMeters>307219.21338408</DistanceMeters>
          </Trackpoint>
          <Trackpoint>
            <Time>2018-09-14T14:59:52.000Z</Time>
            <Position>
              <LatitudeDegrees>37.6156789250671863555908203125</LatitudeDegrees>
              <LongitudeDegrees>-8.08285958133637905120849609375</LongitudeDegrees>
            </Position>
            <AltitudeMeters>257.600006103515625</AltitudeMeters>
            <DistanceMeters>307227.99449009</DistanceMeters>
          </Trackpoint>
          <Trackpoint>
            <Time>2018-09-14T14:59:53.000Z</Time>
            <Position>
              <LatitudeDegrees>37.61560038663446903228759765625</LatitudeDegrees>
              <LongitudeDegrees>-8.082879446446895599365234375</LongitudeDegrees>
            </Position>
            <AltitudeMeters>257.20001220703125</AltitudeMeters>
            <DistanceMeters>307236.90929255</DistanceMeters>
          </Trackpoint>
          <Trackpoint>
            <Time>2018-09-14T14:59:54.000Z</Time>
            <Position>
              <LatitudeDegrees>37.6155216805636882781982421875</LatitudeDegrees>
              <LongitudeDegrees>-8.08289813809096813201904296875</LongitudeDegrees>
            </Position>
            <AltitudeMeters>256.79998779296875</AltitudeMeters>
            <DistanceMeters>307245.82308201</DistanceMeters>
          </Trackpoint>
          <Trackpoint>
            <Time>2018-09-14T14:59:55.000Z</Time>
            <Position>
              <LatitudeDegrees>37.6154428906738758087158203125</LatitudeDegrees>
              <LongitudeDegrees>-8.08291733264923095703125</LongitudeDegrees>
            </Position>
            <AltitudeMeters>256.79998779296875</AltitudeMeters>
            <DistanceMeters>307254.75458218</DistanceMeters>
          </Trackpoint>
          <Trackpoint>
            <Time>2018-09-14T14:59:56.000Z</Time>
            <Position>
              <LatitudeDegrees>37.61536560952663421630859375</LatitudeDegrees>
              <LongitudeDegrees>-8.082936443388462066650390625</LongitudeDegrees>
            </Position>
            <AltitudeMeters>256.79998779296875</AltitudeMeters>
            <DistanceMeters>307263.51973423</DistanceMeters>
          </Trackpoint>
          <Trackpoint>
            <Time>2018-09-14T14:59:57.000Z</Time>
            <Position>
              <LatitudeDegrees>37.6152884960174560546875</LatitudeDegrees>
              <LongitudeDegrees>-8.082956559956073760986328125</LongitudeDegrees>
            </Position>
            <AltitudeMeters>256.600006103515625</AltitudeMeters>
            <DistanceMeters>307272.28385599</DistanceMeters>
          </Trackpoint>
          <Trackpoint>
            <Time>2018-09-14T14:59:58.000Z</Time>
            <Position>
              <LatitudeDegrees>37.61521113105118274688720703125</LatitudeDegrees>
              <LongitudeDegrees>-8.082979023456573486328125</LongitudeDegrees>
            </Position>
            <AltitudeMeters>256.600006103515625</AltitudeMeters>
            <DistanceMeters>307281.11929661</DistanceMeters>
          </Trackpoint>
          <Trackpoint>
            <Time>2018-09-14T14:59:59.000Z</Time>
            <Position>
              <LatitudeDegrees>37.6151327602565288543701171875</LatitudeDegrees>
              <LongitudeDegrees>-8.08300115168094635009765625</LongitudeDegrees>
            </Position>
            <AltitudeMeters>256.399993896484375</AltitudeMeters>
            <DistanceMeters>307290.05787123</DistanceMeters>
          </Trackpoint>
          <Trackpoint>
            <Time>2018-09-14T15:00:00.000Z</Time>
            <Position>
              <LatitudeDegrees>37.61505338363349437713623046875</LatitudeDegrees>
              <LongitudeDegrees>-8.0830221064388751983642578125</LongitudeDegrees>
            </Position>
            <AltitudeMeters>256.399993896484375</AltitudeMeters>
            <DistanceMeters>307299.08340831</DistanceMeters>
          </Trackpoint>
          <Trackpoint>
            <Time>2018-09-14T15:00:01.000Z</Time>
            <Position>
              <LatitudeDegrees>37.614974342286586761474609375</LatitudeDegrees>
              <LongitudeDegrees>-8.0830418877303600311279296875</LongitudeDegrees>
            </Position>
            <AltitudeMeters>256.20001220703125</AltitudeMeters>
            <DistanceMeters>307308.05223884</DistanceMeters>
          </Trackpoint>
          <Trackpoint>
            <Time>2018-09-14T15:00:02.000Z</Time>
            <Position>
              <LatitudeDegrees>37.61489530093967914581298828125</LatitudeDegrees>
              <LongitudeDegrees>-8.083059154450893402099609375</LongitudeDegrees>
            </Position>
            <AltitudeMeters>256</AltitudeMeters>
            <DistanceMeters>307316.98070538</DistanceMeters>
          </Trackpoint>
          <Trackpoint>
            <Time>2018-09-14T15:00:03.000Z</Time>
            <Position>
              <LatitudeDegrees>37.61481651104986667633056640625</LatitudeDegrees>
              <LongitudeDegrees>-8.0830750800669193267822265625</LongitudeDegrees>
            </Position>
            <AltitudeMeters>255.8000030517578125</AltitudeMeters>
            <DistanceMeters>307325.86150983</DistanceMeters>
          </Trackpoint>
          <Trackpoint>
            <Time>2018-09-14T15:00:04.000Z</Time>
            <Position>
              <LatitudeDegrees>37.6147374697029590606689453125</LatitudeDegrees>
              <LongitudeDegrees>-8.08308840729296207427978515625</LongitudeDegrees>
            </Position>
            <AltitudeMeters>255.600006103515625</AltitudeMeters>
            <DistanceMeters>307334.73722878</DistanceMeters>
          </Trackpoint>
          <Trackpoint>
            <Time>2018-09-14T15:00:05.000Z</Time>
            <Position>
              <LatitudeDegrees>37.61466111056506633758544921875</LatitudeDegrees>
              <LongitudeDegrees>-8.0831015668809413909912109375</LongitudeDegrees>
            </Position>
            <AltitudeMeters>255.399993896484375</AltitudeMeters>
            <DistanceMeters>307343.3149361</DistanceMeters>
          </Trackpoint>
          <Trackpoint>
            <Time>2018-09-14T15:00:06.000Z</Time>
            <Position>
              <LatitudeDegrees>37.61458617635071277618408203125</LatitudeDegrees>
              <LongitudeDegrees>-8.08311204425990581512451171875</LongitudeDegrees>
            </Position>
            <AltitudeMeters>255.1999969482421875</AltitudeMeters>
            <DistanceMeters>307351.70639224</DistanceMeters>
          </Trackpoint>
          <Trackpoint>
            <Time>2018-09-14T15:00:07.000Z</Time>
            <Position>
              <LatitudeDegrees>37.6145124994218349456787109375</LatitudeDegrees>
              <LongitudeDegrees>-8.083118498325347900390625</LongitudeDegrees>
            </Position>
            <AltitudeMeters>255</AltitudeMeters>
            <DistanceMeters>307359.92661499</DistanceMeters>
          </Trackpoint>
          <Trackpoint>
            <Time>2018-09-14T15:00:08.000Z</Time>
            <Position>
              <LatitudeDegrees>37.6144397445023059844970703125</LatitudeDegrees>
              <LongitudeDegrees>-8.08312327601015567779541015625</LongitudeDegrees>
            </Position>
            <AltitudeMeters>255</AltitudeMeters>
            <DistanceMeters>307368.03512821</DistanceMeters>
          </Trackpoint>
          <Trackpoint>
            <Time>2018-09-14T15:00:09.000Z</Time>
            <Position>
              <LatitudeDegrees>37.61436824686825275421142578125</LatitudeDegrees>
              <LongitudeDegrees>-8.0831267125904560089111328125</LongitudeDegrees>
            </Position>
            <AltitudeMeters>255</AltitudeMeters>
            <DistanceMeters>307375.99925132</DistanceMeters>
          </Trackpoint>
          <Trackpoint>
            <Time>2018-09-14T15:00:10.000Z</Time>
            <Position>
              <LatitudeDegrees>37.614297755062580108642578125</LatitudeDegrees>
              <LongitudeDegrees>-8.08312662877142429351806640625</LongitudeDegrees>
            </Position>
            <AltitudeMeters>255.1999969482421875</AltitudeMeters>
            <DistanceMeters>307383.84571939</DistanceMeters>
          </Trackpoint>
          <Trackpoint>
            <Time>2018-09-14T15:00:11.000Z</Time>
            <Position>
              <LatitudeDegrees>37.6142268441617488861083984375</LatitudeDegrees>
              <LongitudeDegrees>-8.0831226892769336700439453125</LongitudeDegrees>
            </Position>
            <AltitudeMeters>255.1999969482421875</AltitudeMeters>
            <DistanceMeters>307391.74609206</DistanceMeters>
          </Trackpoint>
          <Trackpoint>
            <Time>2018-09-14T15:00:12.000Z</Time>
            <Position>
              <LatitudeDegrees>37.61415618471801280975341796875</LatitudeDegrees>
              <LongitudeDegrees>-8.08311556465923786163330078125</LongitudeDegrees>
            </Position>
            <AltitudeMeters>255.1999969482421875</AltitudeMeters>
            <DistanceMeters>307399.63617109</DistanceMeters>
          </Trackpoint>
          <Trackpoint>
            <Time>2018-09-14T15:00:13.000Z</Time>
            <Position>
              <LatitudeDegrees>37.6140855252742767333984375</LatitudeDegrees>
              <LongitudeDegrees>-8.08310617692768573760986328125</LongitudeDegrees>
            </Position>
            <AltitudeMeters>255.1999969482421875</AltitudeMeters>
            <DistanceMeters>307407.54396973</DistanceMeters>
          </Trackpoint>
          <Trackpoint>
            <Time>2018-09-14T15:00:14.000Z</Time>
            <Position>
              <LatitudeDegrees>37.61401536874473094940185546875</LatitudeDegrees>
              <LongitudeDegrees>-8.0830965377390384674072265625</LongitudeDegrees>
            </Position>
            <AltitudeMeters>255</AltitudeMeters>
            <DistanceMeters>307415.39848959</DistanceMeters>
          </Trackpoint>
          <Trackpoint>
            <Time>2018-09-14T15:00:15.000Z</Time>
            <Position>
              <LatitudeDegrees>37.61394403874874114990234375</LatitudeDegrees>
              <LongitudeDegrees>-8.0830858089029788970947265625</LongitudeDegrees>
            </Position>
            <AltitudeMeters>254.8000030517578125</AltitudeMeters>
            <DistanceMeters>307423.39373262</DistanceMeters>
          </Trackpoint>
          <Trackpoint>
            <Time>2018-09-14T15:00:16.000Z</Time>
            <Position>
              <LatitudeDegrees>37.61387337930500507354736328125</LatitudeDegrees>
              <LongitudeDegrees>-8.0830723978579044342041015625</LongitudeDegrees>
            </Position>
            <AltitudeMeters>254.8000030517578125</AltitudeMeters>
            <DistanceMeters>307431.34650921</DistanceMeters>
          </Trackpoint>
          <Trackpoint>
            <Time>2018-09-14T15:00:17.000Z</Time>
            <Position>
              <LatitudeDegrees>37.61380313895642757415771484375</LatitudeDegrees>
              <LongitudeDegrees>-8.08305705897510051727294921875</LongitudeDegrees>
            </Position>
            <AltitudeMeters>254.600006103515625</AltitudeMeters>
            <DistanceMeters>307439.2810976</DistanceMeters>
          </Trackpoint>
          <Trackpoint>
            <Time>2018-09-14T15:00:18.000Z</Time>
            <Position>
              <LatitudeDegrees>37.613732814788818359375</LatitudeDegrees>
              <LongitudeDegrees>-8.08303928934037685394287109375</LongitudeDegrees>
            </Position>
            <AltitudeMeters>254.600006103515625</AltitudeMeters>
            <DistanceMeters>307447.26334161</DistanceMeters>
          </Trackpoint>
          <Trackpoint>
            <Time>2018-09-14T15:00:19.000Z</Time>
            <Position>
              <LatitudeDegrees>37.61366332881152629852294921875</LatitudeDegrees>
              <LongitudeDegrees>-8.0830197595059871673583984375</LongitudeDegrees>
            </Position>
            <AltitudeMeters>254</AltitudeMeters>
            <DistanceMeters>307455.18597131</DistanceMeters>
          </Trackpoint>
          <Trackpoint>
            <Time>2018-09-14T15:00:20.000Z</Time>
            <Position>
              <LatitudeDegrees>37.61359342373907566070556640625</LatitudeDegrees>
              <LongitudeDegrees>-8.08299888856709003448486328125</LongitudeDegrees>
            </Position>
            <AltitudeMeters>253.600006103515625</AltitudeMeters>
            <DistanceMeters>307463.18064961</DistanceMeters>
          </Trackpoint>
          <Trackpoint>
            <Time>2018-09-14T15:00:21.000Z</Time>
            <Position>
              <LatitudeDegrees>37.6135227642953395843505859375</LatitudeDegrees>
              <LongitudeDegrees>-8.08297541923820972442626953125</LongitudeDegrees>
            </Position>
            <AltitudeMeters>253.1999969482421875</AltitudeMeters>
            <DistanceMeters>307471.31251592</DistanceMeters>
          </Trackpoint>
          <Trackpoint>
            <Time>2018-09-14T15:00:22.000Z</Time>
            <Position>
              <LatitudeDegrees>37.6134516857564449310302734375</LatitudeDegrees>
              <LongitudeDegrees>-8.08294876478612422943115234375</LongitudeDegrees>
            </Position>
            <AltitudeMeters>252.8000030517578125</AltitudeMeters>
            <DistanceMeters>307479.56562846</DistanceMeters>
          </Trackpoint>
          <Trackpoint>
            <Time>2018-09-14T15:00:23.000Z</Time>
            <Position>
              <LatitudeDegrees>37.61337934993207454681396484375</LatitudeDegrees>
              <LongitudeDegrees>-8.08291842229664325714111328125</LongitudeDegrees>
            </Position>
            <AltitudeMeters>252.1999969482421875</AltitudeMeters>
            <DistanceMeters>307488.04912475</DistanceMeters>
          </Trackpoint>
          <Trackpoint>
            <Time>2018-09-14T15:00:24.000Z</Time>
            <Position>
              <LatitudeDegrees>37.6133055053651332855224609375</LatitudeDegrees>
              <LongitudeDegrees>-8.0828863196074962615966796875</LongitudeDegrees>
            </Position>
            <AltitudeMeters>252</AltitudeMeters>
            <DistanceMeters>307496.74134251</DistanceMeters>
          </Trackpoint>
          <Trackpoint>
            <Time>2018-09-14T15:00:25.000Z</Time>
            <Position>
              <LatitudeDegrees>37.61322881095111370086669921875</LatitudeDegrees>
              <LongitudeDegrees>-8.0828537978231906890869140625</LongitudeDegrees>
            </Position>
            <AltitudeMeters>251.8000030517578125</AltitudeMeters>
            <DistanceMeters>307505.74634593</DistanceMeters>
          </Trackpoint>
          <Trackpoint>
            <Time>2018-09-14T15:00:26.000Z</Time>
            <Position>
              <LatitudeDegrees>37.61314985342323780059814453125</LatitudeDegrees>
              <LongitudeDegrees>-8.082821108400821685791015625</LongitudeDegrees>
            </Position>
            <AltitudeMeters>251.399993896484375</AltitudeMeters>
            <DistanceMeters>307514.99474493</DistanceMeters>
          </Trackpoint>
          <Trackpoint>
            <Time>2018-09-14T15:00:27.000Z</Time>
            <Position>
              <LatitudeDegrees>37.6130691356956958770751953125</LatitudeDegrees>
              <LongitudeDegrees>-8.0827884189784526824951171875</LongitudeDegrees>
            </Position>
            <AltitudeMeters>250.8000030517578125</AltitudeMeters>
            <DistanceMeters>307524.42970617</DistanceMeters>
          </Trackpoint>
          <Trackpoint>
            <Time>2018-09-14T15:00:28.000Z</Time>
            <Position>
              <LatitudeDegrees>37.6129885017871856689453125</LatitudeDegrees>
              <LongitudeDegrees>-8.08275447227060794830322265625</LongitudeDegrees>
            </Position>
            <AltitudeMeters>250.1999969482421875</AltitudeMeters>
            <DistanceMeters>307533.89047346</DistanceMeters>
          </Trackpoint>
          <Trackpoint>
            <Time>2018-09-14T15:00:29.000Z</Time>
            <Position>
              <LatitudeDegrees>37.612906359136104583740234375</LatitudeDegrees>
              <LongitudeDegrees>-8.0827196873724460601806640625</LongitudeDegrees>
            </Position>
            <AltitudeMeters>249.399993896484375</AltitudeMeters>
            <DistanceMeters>307543.53369528</DistanceMeters>
          </Trackpoint>
          <Trackpoint>
            <Time>2018-09-14T15:00:30.000Z</Time>
            <Position>
              <LatitudeDegrees>37.6128227077424526214599609375</LatitudeDegrees>
              <LongitudeDegrees>-8.0826854892075061798095703125</LongitudeDegrees>
            </Position>
            <AltitudeMeters>248.8000030517578125</AltitudeMeters>
            <DistanceMeters>307553.32098556</DistanceMeters>
          </Trackpoint>
          <Trackpoint>
            <Time>2018-09-14T15:00:31.000Z</Time>
            <Position>
              <LatitudeDegrees>37.61273830197751522064208984375</LatitudeDegrees>
              <LongitudeDegrees>-8.0826502852141857147216796875</LongitudeDegrees>
            </Position>
            <AltitudeMeters>248</AltitudeMeters>
            <DistanceMeters>307563.21563506</DistanceMeters>
          </Trackpoint>
          <Trackpoint>
            <Time>2018-09-14T15:00:32.000Z</Time>
            <Position>
              <LatitudeDegrees>37.61265280656516551971435546875</LatitudeDegrees>
              <LongitudeDegrees>-8.0826144106686115264892578125</LongitudeDegrees>
            </Position>
            <AltitudeMeters>247.1999969482421875</AltitudeMeters>
            <DistanceMeters>307573.24354268</DistanceMeters>
          </Trackpoint>
          <Trackpoint>
            <Time>2018-09-14T15:00:33.000Z</Time>
            <Position>
              <LatitudeDegrees>37.61256546713411808013916015625</LatitudeDegrees>
              <LongitudeDegrees>-8.08257912285625934600830078125</LongitudeDegrees>
            </Position>
            <AltitudeMeters>246.600006103515625</AltitudeMeters>
            <DistanceMeters>307583.44996036</DistanceMeters>
          </Trackpoint>
          <Trackpoint>
            <Time>2018-09-14T15:00:34.000Z</Time>
            <Position>
              <LatitudeDegrees>37.61247712187469005584716796875</LatitudeDegrees>
              <LongitudeDegrees>-8.0825433321297168731689453125</LongitudeDegrees>
            </Position>
            <AltitudeMeters>246.1999969482421875</AltitudeMeters>
            <DistanceMeters>307593.77687679</DistanceMeters>
          </Trackpoint>
          <Trackpoint>
            <Time>2018-09-14T15:00:35.000Z</Time>
            <Position>
              <LatitudeDegrees>37.6123868487775325775146484375</LatitudeDegrees>
              <LongitudeDegrees>-8.0825071223080158233642578125</LongitudeDegrees>
            </Position>
            <AltitudeMeters>246</AltitudeMeters>
            <DistanceMeters>307604.31970425</DistanceMeters>
          </Trackpoint>
          <Trackpoint>
            <Time>2018-09-14T15:00:36.000Z</Time>
            <Position>
              <LatitudeDegrees>37.612296156585216522216796875</LatitudeDegrees>
              <LongitudeDegrees>-8.0824695713818073272705078125</LongitudeDegrees>
            </Position>
            <AltitudeMeters>245.8000030517578125</AltitudeMeters>
            <DistanceMeters>307614.94316392</DistanceMeters>
          </Trackpoint>
          <Trackpoint>
            <Time>2018-09-14T15:00:37.000Z</Time>
            <Position>
              <LatitudeDegrees>37.61220487765967845916748046875</LatitudeDegrees>
              <LongitudeDegrees>-8.08243260718882083892822265625</LongitudeDegrees>
            </Position>
            <AltitudeMeters>245.600006103515625</AltitudeMeters>
            <DistanceMeters>307625.61242555</DistanceMeters>
          </Trackpoint>
          <Trackpoint>
            <Time>2018-09-14T15:00:38.000Z</Time>
            <Position>
              <LatitudeDegrees>37.61211401782929897308349609375</LatitudeDegrees>
              <LongitudeDegrees>-8.0823971517384052276611328125</LongitudeDegrees>
            </Position>
            <AltitudeMeters>245.600006103515625</AltitudeMeters>
            <DistanceMeters>307636.19713898</DistanceMeters>
          </Trackpoint>
          <Trackpoint>
            <Time>2018-09-14T15:00:39.000Z</Time>
            <Position>
              <LatitudeDegrees>37.61202357709407806396484375</LatitudeDegrees>
              <LongitudeDegrees>-8.08236169628798961639404296875</LongitudeDegrees>
            </Position>
            <AltitudeMeters>245.399993896484375</AltitudeMeters>
            <DistanceMeters>307646.73739659</DistanceMeters>
          </Trackpoint>
          <Trackpoint>
            <Time>2018-09-14T15:00:40.000Z</Time>
            <Position>
              <LatitudeDegrees>37.611932046711444854736328125</LatitudeDegrees>
              <LongitudeDegrees>-8.0823270790278911590576171875</LongitudeDegrees>
            </Position>
            <AltitudeMeters>245.1999969482421875</AltitudeMeters>
            <DistanceMeters>307657.37232524</DistanceMeters>
          </Trackpoint>
          <Trackpoint>
            <Time>2018-09-14T15:00:41.000Z</Time>
            <Position>
              <LatitudeDegrees>37.611838839948177337646484375</LatitudeDegrees>
              <LongitudeDegrees>-8.08229145593941211700439453125</LongitudeDegrees>
            </Position>
            <AltitudeMeters>245.1999969482421875</AltitudeMeters>
            <DistanceMeters>307668.21162064</DistanceMeters>
          </Trackpoint>
          <Trackpoint>
            <Time>2018-09-14T15:00:42.000Z</Time>
            <Position>
              <LatitudeDegrees>37.6117437891662120819091796875</LatitudeDegrees>
              <LongitudeDegrees>-8.082251809537410736083984375</LongitudeDegrees>
            </Position>
            <AltitudeMeters>245.1999969482421875</AltitudeMeters>
            <DistanceMeters>307679.35286971</DistanceMeters>
          </Trackpoint>
          <Trackpoint>
            <Time>2018-09-14T15:00:43.000Z</Time>
            <Position>
              <LatitudeDegrees>37.6116475649178028106689453125</LatitudeDegrees>
              <LongitudeDegrees>-8.08221149258315563201904296875</LongitudeDegrees>
            </Position>
            <AltitudeMeters>245.1999969482421875</AltitudeMeters>
            <DistanceMeters>307690.63706697</DistanceMeters>
          </Trackpoint>
          <Trackpoint>
            <Time>2018-09-14T15:00:44.000Z</Time>
            <Position>
              <LatitudeDegrees>37.6115510053932666778564453125</LatitudeDegrees>
              <LongitudeDegrees>-8.0821721814572811126708984375</LongitudeDegrees>
            </Position>
            <AltitudeMeters>245</AltitudeMeters>
            <DistanceMeters>307701.92966364</DistanceMeters>
          </Trackpoint>
          <Trackpoint>
            <Time>2018-09-14T15:00:45.000Z</Time>
            <Position>
              <LatitudeDegrees>37.6114531047642230987548828125</LatitudeDegrees>
              <LongitudeDegrees>-8.082131780683994293212890625</LongitudeDegrees>
            </Position>
            <AltitudeMeters>244.600006103515625</AltitudeMeters>
            <DistanceMeters>307713.39368268</DistanceMeters>
          </Trackpoint>
          <Trackpoint>
            <Time>2018-09-14T15:00:46.000Z</Time>
            <Position>
              <LatitudeDegrees>37.6113555394113063812255859375</LatitudeDegrees>
              <LongitudeDegrees>-8.0820903740823268890380859375</LongitudeDegrees>
            </Position>
            <AltitudeMeters>244.399993896484375</AltitudeMeters>
            <DistanceMeters>307724.84982213</DistanceMeters>
          </Trackpoint>
          <Trackpoint>
            <Time>2018-09-14T15:00:47.000Z</Time>
            <Position>
              <LatitudeDegrees>37.61125839315354824066162109375</LatitudeDegrees>
              <LongitudeDegrees>-8.08204938657581806182861328125</LongitudeDegrees>
            </Position>
            <AltitudeMeters>244.1999969482421875</AltitudeMeters>
            <DistanceMeters>307736.2502559</DistanceMeters>
          </Trackpoint>
          <Trackpoint>
            <Time>2018-09-14T15:00:48.000Z</Time>
            <Position>
              <LatitudeDegrees>37.61116267181932926177978515625</LatitudeDegrees>
              <LongitudeDegrees>-8.0820099078118801116943359375</LongitudeDegrees>
            </Position>
            <AltitudeMeters>244</AltitudeMeters>
            <DistanceMeters>307747.45857529</DistanceMeters>
          </Trackpoint>
          <Trackpoint>
            <Time>2018-09-14T15:00:49.000Z</Time>
            <Position>
              <LatitudeDegrees>37.61106812395155429840087890625</LatitudeDegrees>
              <LongitudeDegrees>-8.0819716863334178924560546875</LongitudeDegrees>
            </Position>
            <AltitudeMeters>243.8000030517578125</AltitudeMeters>
            <DistanceMeters>307758.50826595</DistanceMeters>
          </Trackpoint>
          <Trackpoint>
            <Time>2018-09-14T15:00:50.000Z</Time>
            <Position>
              <LatitudeDegrees>37.61097474955022335052490234375</LatitudeDegrees>
              <LongitudeDegrees>-8.0819348059594631195068359375</LongitudeDegrees>
            </Position>
            <AltitudeMeters>243.600006103515625</AltitudeMeters>
            <DistanceMeters>307769.39784647</DistanceMeters>
          </Trackpoint>
          <Trackpoint>
            <Time>2018-09-14T15:00:51.000Z</Time>
            <Position>
              <LatitudeDegrees>37.610883302986621856689453125</LatitudeDegrees>
              <LongitudeDegrees>-8.08189867995679378509521484375</LongitudeDegrees>
            </Position>
            <AltitudeMeters>243.399993896484375</AltitudeMeters>
            <DistanceMeters>307780.06287543</DistanceMeters>
          </Trackpoint>
          <Trackpoint>
            <Time>2018-09-14T15:00:52.000Z</Time>
            <Position>
              <LatitudeDegrees>37.6107936166226863861083984375</LatitudeDegrees>
              <LongitudeDegrees>-8.0818633921444416046142578125</LongitudeDegrees>
            </Position>
            <AltitudeMeters>243.399993896484375</AltitudeMeters>
            <DistanceMeters>307790.51840533</DistanceMeters>
          </Trackpoint>
          <Trackpoint>
            <Time>2018-09-14T15:00:53.000Z</Time>
            <Position>
              <LatitudeDegrees>37.6107057742774486541748046875</LatitudeDegrees>
              <LongitudeDegrees>-8.0818281881511211395263671875</LongitudeDegrees>
            </Position>
            <AltitudeMeters>243.399993896484375</AltitudeMeters>
            <DistanceMeters>307800.77689016</DistanceMeters>
          </Trackpoint>
          <Trackpoint>
            <Time>2018-09-14T15:00:54.000Z</Time>
            <Position>
              <LatitudeDegrees>37.61062019504606723785400390625</LatitudeDegrees>
              <LongitudeDegrees>-8.0817939899861812591552734375</LongitudeDegrees>
            </Position>
            <AltitudeMeters>243.1999969482421875</AltitudeMeters>
            <DistanceMeters>307810.76780928</DistanceMeters>
          </Trackpoint>
          <Trackpoint>
            <Time>2018-09-14T15:00:55.000Z</Time>
            <Position>
              <LatitudeDegrees>37.61053495109081268310546875</LatitudeDegrees>
              <LongitudeDegrees>-8.08176465332508087158203125</LongitudeDegrees>
            </Position>
            <AltitudeMeters>243.1999969482421875</AltitudeMeters>
            <DistanceMeters>307820.60204127</DistanceMeters>
          </Trackpoint>
          <Trackpoint>
            <Time>2018-09-14T15:00:56.000Z</Time>
            <Position>
              <LatitudeDegrees>37.6104512996971607208251953125</LatitudeDegrees>
              <LongitudeDegrees>-8.08173674158751964569091796875</LongitudeDegrees>
            </Position>
            <AltitudeMeters>243.1999969482421875</AltitudeMeters>
            <DistanceMeters>307830.23214433</DistanceMeters>
          </Trackpoint>
          <Trackpoint>
            <Time>2018-09-14T15:00:57.000Z</Time>
            <Position>
              <LatitudeDegrees>37.6103691570460796356201171875</LatitudeDegrees>
              <LongitudeDegrees>-8.08170656673610210418701171875</LongitudeDegrees>
            </Position>
            <AltitudeMeters>243</AltitudeMeters>
            <DistanceMeters>307839.75380215</DistanceMeters>
          </Trackpoint>
          <Trackpoint>
            <Time>2018-09-14T15:00:58.000Z</Time>
            <Position>
              <LatitudeDegrees>37.61028961278498172760009765625</LatitudeDegrees>
              <LongitudeDegrees>-8.08167454786598682403564453125</LongitudeDegrees>
            </Position>
            <AltitudeMeters>243</AltitudeMeters>
            <DistanceMeters>307849.04652086</DistanceMeters>
          </Trackpoint>
          <Trackpoint>
            <Time>2018-09-14T15:00:59.000Z</Time>
            <Position>
              <LatitudeDegrees>37.6102119125425815582275390625</LatitudeDegrees>
              <LongitudeDegrees>-8.08164152316749095916748046875</LongitudeDegrees>
            </Position>
            <AltitudeMeters>243</AltitudeMeters>
            <DistanceMeters>307858.17205454</DistanceMeters>
          </Trackpoint>
          <Trackpoint>
            <Time>2018-09-14T15:01:00.000Z</Time>
            <Position>
              <LatitudeDegrees>37.61013572104275226593017578125</LatitudeDegrees>
              <LongitudeDegrees>-8.081611432135105133056640625</LongitudeDegrees>
            </Position>
            <AltitudeMeters>242.8000030517578125</AltitudeMeters>
            <DistanceMeters>307867.05743345</DistanceMeters>
          </Trackpoint>
          <Trackpoint>
            <Time>2018-09-14T15:01:01.000Z</Time>
            <Position>
              <LatitudeDegrees>37.610059864819049835205078125</LatitudeDegrees>
              <LongitudeDegrees>-8.0815817601978778839111328125</LongitudeDegrees>
            </Position>
            <AltitudeMeters>242.8000030517578125</AltitudeMeters>
            <DistanceMeters>307875.89645044</DistanceMeters>
          </Trackpoint>
          <Trackpoint>
            <Time>2018-09-14T15:01:02.000Z</Time>
            <Position>
              <LatitudeDegrees>37.609984092414379119873046875</LatitudeDegrees>
              <LongitudeDegrees>-8.08155083097517490386962890625</LongitudeDegrees>
            </Position>
            <AltitudeMeters>242.600006103515625</AltitudeMeters>
            <DistanceMeters>307884.75944288</DistanceMeters>
          </Trackpoint>
          <Trackpoint>
            <Time>2018-09-14T15:01:03.000Z</Time>
            <Position>
              <LatitudeDegrees>37.60990739800035953521728515625</LatitudeDegrees>
              <LongitudeDegrees>-8.08152032084763050079345703125</LongitudeDegrees>
            </Position>
            <AltitudeMeters>242.600006103515625</AltitudeMeters>
            <DistanceMeters>307893.70912321</DistanceMeters>
          </Trackpoint>
          <Trackpoint>
            <Time>2018-09-14T15:01:04.000Z</Time>
            <Position>
              <LatitudeDegrees>37.6098307035863399505615234375</LatitudeDegrees>
              <LongitudeDegrees>-8.08148914016783237457275390625</LongitudeDegrees>
            </Position>
            <AltitudeMeters>242.600006103515625</AltitudeMeters>
            <DistanceMeters>307902.67795373</DistanceMeters>
          </Trackpoint>
          <Trackpoint>
            <Time>2018-09-14T15:01:05.000Z</Time>
            <Position>
              <LatitudeDegrees>37.60975417681038379669189453125</LatitudeDegrees>
              <LongitudeDegrees>-8.08145745657384395599365234375</LongitudeDegrees>
            </Position>
            <AltitudeMeters>242.399993896484375</AltitudeMeters>
            <DistanceMeters>307911.6417487</DistanceMeters>
          </Trackpoint>
          <Trackpoint>
            <Time>2018-09-14T15:01:06.000Z</Time>
            <Position>
              <LatitudeDegrees>37.60967798531055450439453125</LatitudeDegrees>
              <LongitudeDegrees>-8.08142510242760181427001953125</LongitudeDegrees>
            </Position>
            <AltitudeMeters>242.399993896484375</AltitudeMeters>
            <DistanceMeters>307920.58840157</DistanceMeters>
          </Trackpoint>
          <Trackpoint>
            <Time>2018-09-14T15:01:07.000Z</Time>
            <Position>
              <LatitudeDegrees>37.60960129089653491973876953125</LatitudeDegrees>
              <LongitudeDegrees>-8.08139341883361339569091796875</LongitudeDegrees>
            </Position>
            <AltitudeMeters>242.399993896484375</AltitudeMeters>
            <DistanceMeters>307929.56980864</DistanceMeters>
          </Trackpoint>
          <Trackpoint>
            <Time>2018-09-14T15:01:08.000Z</Time>
            <Position>
              <LatitudeDegrees>37.60952417738735675811767578125</LatitudeDegrees>
              <LongitudeDegrees>-8.08136232197284698486328125</LongitudeDegrees>
            </Position>
            <AltitudeMeters>242.1999969482421875</AltitudeMeters>
            <DistanceMeters>307938.57982458</DistanceMeters>
          </Trackpoint>
          <Trackpoint>
            <Time>2018-09-14T15:01:09.000Z</Time>
            <Position>
              <LatitudeDegrees>37.6094468124210834503173828125</LatitudeDegrees>
              <LongitudeDegrees>-8.08133139275014400482177734375</LongitudeDegrees>
            </Position>
            <AltitudeMeters>242</AltitudeMeters>
            <DistanceMeters>307947.61186259</DistanceMeters>
          </Trackpoint>
          <Trackpoint>
            <Time>2018-09-14T15:01:10.000Z</Time>
            <Position>
              <LatitudeDegrees>37.60936995036900043487548828125</LatitudeDegrees>
              <LongitudeDegrees>-8.0813021399080753326416015625</LongitudeDegrees>
            </Position>
            <AltitudeMeters>241.8000030517578125</AltitudeMeters>
            <DistanceMeters>307956.54740599</DistanceMeters>
          </Trackpoint>
          <Trackpoint>
            <Time>2018-09-14T15:01:11.000Z</Time>
            <Position>
              <LatitudeDegrees>37.609292082488536834716796875</LatitudeDegrees>
              <LongitudeDegrees>-8.08127741329371929168701171875</LongitudeDegrees>
            </Position>
            <AltitudeMeters>241.600006103515625</AltitudeMeters>
            <DistanceMeters>307965.48395992</DistanceMeters>
          </Trackpoint>
          <Trackpoint>
            <Time>2018-09-14T15:01:12.000Z</Time>
            <Position>
              <LatitudeDegrees>37.60921396315097808837890625</LatitudeDegrees>
              <LongitudeDegrees>-8.0812562070786952972412109375</LongitudeDegrees>
            </Position>
            <AltitudeMeters>241.399993896484375</AltitudeMeters>
            <DistanceMeters>307974.37797305</DistanceMeters>
          </Trackpoint>
          <Trackpoint>
            <Time>2018-09-14T15:01:13.000Z</Time>
            <Position>
              <LatitudeDegrees>37.609135173261165618896484375</LatitudeDegrees>
              <LongitudeDegrees>-8.08123759925365447998046875</LongitudeDegrees>
            </Position>
            <AltitudeMeters>241.1999969482421875</AltitudeMeters>
            <DistanceMeters>307983.30036925</DistanceMeters>
          </Trackpoint>
          <Trackpoint>
            <Time>2018-09-14T15:01:14.000Z</Time>
            <Position>
              <LatitudeDegrees>37.60905571281909942626953125</LatitudeDegrees>
              <LongitudeDegrees>-8.08122259564697742462158203125</LongitudeDegrees>
            </Position>
            <AltitudeMeters>241.1999969482421875</AltitudeMeters>
            <DistanceMeters>307992.24298391</DistanceMeters>
          </Trackpoint>
          <Trackpoint>
            <Time>2018-09-14T15:01:15.000Z</Time>
            <Position>
              <LatitudeDegrees>37.60897683911025524139404296875</LatitudeDegrees>
              <LongitudeDegrees>-8.0812102742493152618408203125</LongitudeDegrees>
            </Position>
            <AltitudeMeters>241.399993896484375</AltitudeMeters>
            <DistanceMeters>308001.08914932</DistanceMeters>
          </Trackpoint>
          <Trackpoint>
            <Time>2018-09-14T15:01:16.000Z</Time>
            <Position>
              <LatitudeDegrees>37.60889788158237934112548828125</LatitudeDegrees>
              <LongitudeDegrees>-8.081199713051319122314453125</LongitudeDegrees>
            </Position>
            <AltitudeMeters>241.399993896484375</AltitudeMeters>
            <DistanceMeters>308009.92663376</DistanceMeters>
          </Trackpoint>
          <Trackpoint>
            <Time>2018-09-14T15:01:17.000Z</Time>
            <Position>
              <LatitudeDegrees>37.60881959460675716400146484375</LatitudeDegrees>
              <LongitudeDegrees>-8.0811913311481475830078125</LongitudeDegrees>
            </Position>
            <AltitudeMeters>241.1999969482421875</AltitudeMeters>
            <DistanceMeters>308018.67115703</DistanceMeters>
          </Trackpoint>
          <Trackpoint>
            <Time>2018-09-14T15:01:18.000Z</Time>
            <Position>
              <LatitudeDegrees>37.60874147526919841766357421875</LatitudeDegrees>
              <LongitudeDegrees>-8.08118663728237152099609375</LongitudeDegrees>
            </Position>
            <AltitudeMeters>241.1999969482421875</AltitudeMeters>
            <DistanceMeters>308027.37531359</DistanceMeters>
          </Trackpoint>
          <Trackpoint>
            <Time>2018-09-14T15:01:19.000Z</Time>
            <Position>
              <LatitudeDegrees>37.6086636073887348175048828125</LatitudeDegrees>
              <LongitudeDegrees>-8.08118403889238834381103515625</LongitudeDegrees>
            </Position>
            <AltitudeMeters>241</AltitudeMeters>
            <DistanceMeters>308036.0451669</DistanceMeters>
          </Trackpoint>
          <Trackpoint>
            <Time>2018-09-14T15:01:20.000Z</Time>
            <Position>
              <LatitudeDegrees>37.608585990965366363525390625</LatitudeDegrees>
              <LongitudeDegrees>-8.081182949244976043701171875</LongitudeDegrees>
            </Position>
            <AltitudeMeters>241</AltitudeMeters>
            <DistanceMeters>308044.68423987</DistanceMeters>
          </Trackpoint>
          <Trackpoint>
            <Time>2018-09-14T15:01:21.000Z</Time>
            <Position>
              <LatitudeDegrees>37.6085083745419979095458984375</LatitudeDegrees>
              <LongitudeDegrees>-8.0811847932636737823486328125</LongitudeDegrees>
            </Position>
            <AltitudeMeters>240.8000030517578125</AltitudeMeters>
            <DistanceMeters>308053.32435804</DistanceMeters>
          </Trackpoint>
          <Trackpoint>
            <Time>2018-09-14T15:01:22.000Z</Time>
            <Position>
              <LatitudeDegrees>37.6084302552044391632080078125</LatitudeDegrees>
              <LongitudeDegrees>-8.08118999004364013671875</LongitudeDegrees>
            </Position>
            <AltitudeMeters>240.8000030517578125</AltitudeMeters>
            <DistanceMeters>308062.03058923</DistanceMeters>
          </Trackpoint>
          <Trackpoint>
            <Time>2018-09-14T15:01:23.000Z</Time>
            <Position>
              <LatitudeDegrees>37.60835171677172183990478515625</LatitudeDegrees>
              <LongitudeDegrees>-8.081195019185543060302734375</LongitudeDegrees>
            </Position>
            <AltitudeMeters>240.600006103515625</AltitudeMeters>
            <DistanceMeters>308070.78336985</DistanceMeters>
          </Trackpoint>
          <Trackpoint>
            <Time>2018-09-14T15:01:24.000Z</Time>
            <Position>
              <LatitudeDegrees>37.6082726754248142242431640625</LatitudeDegrees>
              <LongitudeDegrees>-8.08119962923228740692138671875</LongitudeDegrees>
            </Position>
            <AltitudeMeters>240.399993896484375</AltitudeMeters>
            <DistanceMeters>308079.59014716</DistanceMeters>
          </Trackpoint>
          <Trackpoint>
            <Time>2018-09-14T15:01:25.000Z</Time>
            <Position>
              <LatitudeDegrees>37.60819396935403347015380859375</LatitudeDegrees>
              <LongitudeDegrees>-8.08120532892644405364990234375</LongitudeDegrees>
            </Position>
            <AltitudeMeters>240.1999969482421875</AltitudeMeters>
            <DistanceMeters>308088.36456633</DistanceMeters>
          </Trackpoint>
          <Trackpoint>
            <Time>2018-09-14T15:01:26.000Z</Time>
            <Position>
              <LatitudeDegrees>37.6081150956451892852783203125</LatitudeDegrees>
              <LongitudeDegrees>-8.08121253736317157745361328125</LongitudeDegrees>
            </Position>
            <AltitudeMeters>240</AltitudeMeters>
            <DistanceMeters>308097.16672833</DistanceMeters>
          </Trackpoint>
          <Trackpoint>
            <Time>2018-09-14T15:01:27.000Z</Time>
            <Position>
              <LatitudeDegrees>37.6080369763076305389404296875</LatitudeDegrees>
              <LongitudeDegrees>-8.0812213383615016937255859375</LongitudeDegrees>
            </Position>
            <AltitudeMeters>239.8000030517578125</AltitudeMeters>
            <DistanceMeters>308105.89678247</DistanceMeters>
          </Trackpoint>
          <Trackpoint>
            <Time>2018-09-14T15:01:28.000Z</Time>
            <Position>
              <LatitudeDegrees>37.6079588569700717926025390625</LatitudeDegrees>
              <LongitudeDegrees>-8.08122946880757808685302734375</LongitudeDegrees>
            </Position>
            <AltitudeMeters>239.600006103515625</AltitudeMeters>
            <DistanceMeters>308114.62062819</DistanceMeters>
          </Trackpoint>
          <Trackpoint>
            <Time>2018-09-14T15:01:29.000Z</Time>
            <Position>
              <LatitudeDegrees>37.607881240546703338623046875</LatitudeDegrees>
              <LongitudeDegrees>-8.08123550377786159515380859375</LongitudeDegrees>
            </Position>
            <AltitudeMeters>239.600006103515625</AltitudeMeters>
            <DistanceMeters>308123.27536586</DistanceMeters>
          </Trackpoint>
          <Trackpoint>
            <Time>2018-09-14T15:01:30.000Z</Time>
            <Position>
              <LatitudeDegrees>37.60780404321849346160888671875</LatitudeDegrees>
              <LongitudeDegrees>-8.08124086819589138031005859375</LongitudeDegrees>
            </Position>
            <AltitudeMeters>239.399993896484375</AltitudeMeters>
            <DistanceMeters>308131.87987612</DistanceMeters>
          </Trackpoint>
          <Trackpoint>
            <Time>2018-09-14T15:01:31.000Z</Time>
            <Position>
              <LatitudeDegrees>37.60772793553769588470458984375</LatitudeDegrees>
              <LongitudeDegrees>-8.08124707080423831939697265625</LongitudeDegrees>
            </Position>
            <AltitudeMeters>239.1999969482421875</AltitudeMeters>
            <DistanceMeters>308140.36869288</DistanceMeters>
          </Trackpoint>
          <Trackpoint>
            <Time>2018-09-14T15:01:32.000Z</Time>
            <Position>
              <LatitudeDegrees>37.607652246952056884765625</LatitudeDegrees>
              <LongitudeDegrees>-8.08125243522226810455322265625</LongitudeDegrees>
            </Position>
            <AltitudeMeters>239</AltitudeMeters>
            <DistanceMeters>308148.80629459</DistanceMeters>
          </Trackpoint>
          <Trackpoint>
            <Time>2018-09-14T15:01:33.000Z</Time>
            <Position>
              <LatitudeDegrees>37.60757739655673503875732421875</LatitudeDegrees>
              <LongitudeDegrees>-8.0812588892877101898193359375</LongitudeDegrees>
            </Position>
            <AltitudeMeters>238.8000030517578125</AltitudeMeters>
            <DistanceMeters>308157.15783999</DistanceMeters>
          </Trackpoint>
          <Trackpoint>
            <Time>2018-09-14T15:01:34.000Z</Time>
            <Position>
              <LatitudeDegrees>37.6075032167136669158935546875</LatitudeDegrees>
              <LongitudeDegrees>-8.08126576244831085205078125</LongitudeDegrees>
            </Position>
            <AltitudeMeters>238.600006103515625</AltitudeMeters>
            <DistanceMeters>308165.43717029</DistanceMeters>
          </Trackpoint>
          <Trackpoint>
            <Time>2018-09-14T15:01:35.000Z</Time>
            <Position>
              <LatitudeDegrees>37.60742895305156707763671875</LatitudeDegrees>
              <LongitudeDegrees>-8.08127121068537235260009765625</LongitudeDegrees>
            </Position>
            <AltitudeMeters>238.8000030517578125</AltitudeMeters>
            <DistanceMeters>308173.71704592</DistanceMeters>
          </Trackpoint>
          <Trackpoint>
            <Time>2018-09-14T15:01:36.000Z</Time>
            <Position>
              <LatitudeDegrees>37.60735477320849895477294921875</LatitudeDegrees>
              <LongitudeDegrees>-8.08127724565565586090087890625</LongitudeDegrees>
            </Position>
            <AltitudeMeters>239</AltitudeMeters>
            <DistanceMeters>308181.99037532</DistanceMeters>
          </Trackpoint>
          <Trackpoint>
            <Time>2018-09-14T15:01:37.000Z</Time>
            <Position>
              <LatitudeDegrees>37.6072819344699382781982421875</LatitudeDegrees>
              <LongitudeDegrees>-8.08128378354012966156005859375</LongitudeDegrees>
            </Position>
            <AltitudeMeters>239.1999969482421875</AltitudeMeters>
            <DistanceMeters>308190.11835411</DistanceMeters>
          </Trackpoint>
          <Trackpoint>
            <Time>2018-09-14T15:01:38.000Z</Time>
            <Position>
              <LatitudeDegrees>37.60720909573137760162353515625</LatitudeDegrees>
              <LongitudeDegrees>-8.08128965087234973907470703125</LongitudeDegrees>
            </Position>
            <AltitudeMeters>239.399993896484375</AltitudeMeters>
            <DistanceMeters>308198.24188774</DistanceMeters>
          </Trackpoint>
          <Trackpoint>
            <Time>2018-09-14T15:01:39.000Z</Time>
            <Position>
              <LatitudeDegrees>37.607137598097324371337890625</LatitudeDegrees>
              <LongitudeDegrees>-8.0812927521765232086181640625</LongitudeDegrees>
            </Position>
            <AltitudeMeters>239.399993896484375</AltitudeMeters>
            <DistanceMeters>308206.20374285</DistanceMeters>
          </Trackpoint>
          <Trackpoint>
            <Time>2018-09-14T15:01:40.000Z</Time>
            <Position>
              <LatitudeDegrees>37.60706844739615917205810546875</LatitudeDegrees>
              <LongitudeDegrees>-8.081296272575855255126953125</LongitudeDegrees>
            </Position>
            <AltitudeMeters>239.399993896484375</AltitudeMeters>
            <DistanceMeters>308213.90618416</DistanceMeters>
          </Trackpoint>
          <Trackpoint>
            <Time>2018-09-14T15:01:41.000Z</Time>
            <Position>
              <LatitudeDegrees>37.60700114071369171142578125</LatitudeDegrees>
              <LongitudeDegrees>-8.08129853568971157073974609375</LongitudeDegrees>
            </Position>
            <AltitudeMeters>239.399993896484375</AltitudeMeters>
            <DistanceMeters>308221.39944883</DistanceMeters>
          </Trackpoint>
          <Trackpoint>
            <Time>2018-09-14T15:01:42.000Z</Time>
            <Position>
              <LatitudeDegrees>37.6069349236786365509033203125</LatitudeDegrees>
              <LongitudeDegrees>-8.08130021207034587860107421875</LongitudeDegrees>
            </Position>
            <AltitudeMeters>239.399993896484375</AltitudeMeters>
            <DistanceMeters>308228.77121931</DistanceMeters>
          </Trackpoint>
          <Trackpoint>
            <Time>2018-09-14T15:01:43.000Z</Time>
            <Position>
              <LatitudeDegrees>37.6068703830242156982421875</LatitudeDegrees>
              <LongitudeDegrees>-8.08130390010774135589599609375</LongitudeDegrees>
            </Position>
            <AltitudeMeters>239.399993896484375</AltitudeMeters>
            <DistanceMeters>308235.96255074</DistanceMeters>
          </Trackpoint>
          <Trackpoint>
            <Time>2018-09-14T15:01:44.000Z</Time>
            <Position>
              <LatitudeDegrees>37.6068075187504291534423828125</LatitudeDegrees>
              <LongitudeDegrees>-8.0813081748783588409423828125</LongitudeDegrees>
            </Position>
            <AltitudeMeters>239.399993896484375</AltitudeMeters>
            <DistanceMeters>308242.97008638</DistanceMeters>
          </Trackpoint>
          <Trackpoint>
            <Time>2018-09-14T15:01:45.000Z</Time>
            <Position>
              <LatitudeDegrees>37.60674767196178436279296875</LatitudeDegrees>
              <LongitudeDegrees>-8.081313036382198333740234375</LongitudeDegrees>
            </Position>
            <AltitudeMeters>239.399993896484375</AltitudeMeters>
            <DistanceMeters>308249.64499441</DistanceMeters>
          </Trackpoint>
          <Trackpoint>
            <Time>2018-09-14T15:01:46.000Z</Time>
            <Position>
              <LatitudeDegrees>37.60668933391571044921875</LatitudeDegrees>
              <LongitudeDegrees>-8.0813232623040676116943359375</LongitudeDegrees>
            </Position>
            <AltitudeMeters>239.399993896484375</AltitudeMeters>
            <DistanceMeters>308256.19977157</DistanceMeters>
          </Trackpoint>
          <Trackpoint>
            <Time>2018-09-14T15:01:47.000Z</Time>
            <Position>
              <LatitudeDegrees>37.606632001698017120361328125</LatitudeDegrees>
              <LongitudeDegrees>-8.0813380144536495208740234375</LongitudeDegrees>
            </Position>
            <AltitudeMeters>239.8000030517578125</AltitudeMeters>
            <DistanceMeters>308262.7123954</DistanceMeters>
          </Trackpoint>
          <Trackpoint>
            <Time>2018-09-14T15:01:48.000Z</Time>
            <Position>
              <LatitudeDegrees>37.60657492093741893768310546875</LatitudeDegrees>
              <LongitudeDegrees>-8.0813581310212612152099609375</LongitudeDegrees>
            </Position>
            <AltitudeMeters>240.399993896484375</AltitudeMeters>
            <DistanceMeters>308269.30837207</DistanceMeters>
          </Trackpoint>
          <Trackpoint>
            <Time>2018-09-14T15:01:49.000Z</Time>
            <Position>
              <LatitudeDegrees>37.60651976801455020904541015625</LatitudeDegrees>
              <LongitudeDegrees>-8.08138084597885608673095703125</LongitudeDegrees>
            </Position>
            <AltitudeMeters>240.8000030517578125</AltitudeMeters>
            <DistanceMeters>308275.76459642</DistanceMeters>
          </Trackpoint>
          <Trackpoint>
            <Time>2018-09-14T15:01:50.000Z</Time>
            <Position>
              <LatitudeDegrees>37.60646511800587177276611328125</LatitudeDegrees>
              <LongitudeDegrees>-8.08139878325164318084716796875</LongitudeDegrees>
            </Position>
            <AltitudeMeters>241.1999969482421875</AltitudeMeters>
            <DistanceMeters>308282.0493044</DistanceMeters>
          </Trackpoint>
          <Trackpoint>
            <Time>2018-09-14T15:01:51.000Z</Time>
            <Position>
              <LatitudeDegrees>37.6064095459878444671630859375</LatitudeDegrees>
              <LongitudeDegrees>-8.0814070813357830047607421875</LongitudeDegrees>
            </Position>
            <AltitudeMeters>241.600006103515625</AltitudeMeters>
            <DistanceMeters>308288.27772382</DistanceMeters>
          </Trackpoint>
          <Trackpoint>
            <Time>2018-09-14T15:01:52.000Z</Time>
            <Position>
              <LatitudeDegrees>37.606354393064975738525390625</LatitudeDegrees>
              <LongitudeDegrees>-8.08140515349805355072021484375</LongitudeDegrees>
            </Position>
            <AltitudeMeters>242</AltitudeMeters>
            <DistanceMeters>308294.41853803</DistanceMeters>
          </Trackpoint>
          <Trackpoint>
            <Time>2018-09-14T15:01:53.000Z</Time>
            <Position>
              <LatitudeDegrees>37.606300078332424163818359375</LatitudeDegrees>
              <LongitudeDegrees>-8.08139559812843799591064453125</LongitudeDegrees>
            </Position>
            <AltitudeMeters>242.399993896484375</AltitudeMeters>
            <DistanceMeters>308300.52099944</DistanceMeters>
          </Trackpoint>
          <Trackpoint>
            <Time>2018-09-14T15:01:54.000Z</Time>
            <Position>
              <LatitudeDegrees>37.6062462665140628814697265625</LatitudeDegrees>
              <LongitudeDegrees>-8.08138302527368068695068359375</LongitudeDegrees>
            </Position>
            <AltitudeMeters>242.600006103515625</AltitudeMeters>
            <DistanceMeters>308306.6116114</DistanceMeters>
          </Trackpoint>
          <Trackpoint>
            <Time>2018-09-14T15:01:55.000Z</Time>
            <Position>
              <LatitudeDegrees>37.60619455017149448394775390625</LatitudeDegrees>
              <LongitudeDegrees>-8.0813732184469699859619140625</LongitudeDegrees>
            </Position>
            <AltitudeMeters>243</AltitudeMeters>
            <DistanceMeters>308312.43233703</DistanceMeters>
          </Trackpoint>
          <Trackpoint>
            <Time>2018-09-14T15:01:56.000Z</Time>
            <Position>
              <LatitudeDegrees>37.60614492930471897125244140625</LatitudeDegrees>
              <LongitudeDegrees>-8.08136877603828907012939453125</LongitudeDegrees>
            </Position>
            <AltitudeMeters>243.399993896484375</AltitudeMeters>
            <DistanceMeters>308317.96922329</DistanceMeters>
          </Trackpoint>
          <Trackpoint>
            <Time>2018-09-14T15:01:57.000Z</Time>
            <Position>
              <LatitudeDegrees>37.60609648190438747406005859375</LatitudeDegrees>
              <LongitudeDegrees>-8.0813712067902088165283203125</LongitudeDegrees>
            </Position>
            <AltitudeMeters>243.8000030517578125</AltitudeMeters>
            <DistanceMeters>308323.36486658</DistanceMeters>
          </Trackpoint>
          <Trackpoint>
            <Time>2018-09-14T15:01:58.000Z</Time>
            <Position>
              <LatitudeDegrees>37.60604836978018283843994140625</LatitudeDegrees>
              <LongitudeDegrees>-8.08137732557952404022216796875</LongitudeDegrees>
            </Position>
            <AltitudeMeters>244.1999969482421875</AltitudeMeters>
            <DistanceMeters>308328.74626557</DistanceMeters>
          </Trackpoint>
          <Trackpoint>
            <Time>2018-09-14T15:01:59.000Z</Time>
            <Position>
              <LatitudeDegrees>37.605999670922756195068359375</LatitudeDegrees>
              <LongitudeDegrees>-8.08138252235949039459228515625</LongitudeDegrees>
            </Position>
            <AltitudeMeters>244.399993896484375</AltitudeMeters>
            <DistanceMeters>308334.18524805</DistanceMeters>
          </Trackpoint>
          <Trackpoint>
            <Time>2018-09-14T15:02:00.000Z</Time>
            <Position>
              <LatitudeDegrees>37.60595130734145641326904296875</LatitudeDegrees>
              <LongitudeDegrees>-8.08138520456850528717041015625</LongitudeDegrees>
            </Position>
            <AltitudeMeters>244.8000030517578125</AltitudeMeters>
            <DistanceMeters>308339.57335494</DistanceMeters>
          </Trackpoint>
          <Trackpoint>
            <Time>2018-09-14T15:02:01.000Z</Time>
            <Position>
              <LatitudeDegrees>37.60590285994112491607666015625</LatitudeDegrees>
              <LongitudeDegrees>-8.0813879705965518951416015625</LongitudeDegrees>
            </Position>
            <AltitudeMeters>245.1999969482421875</AltitudeMeters>
            <DistanceMeters>308344.96983495</DistanceMeters>
          </Trackpoint>
          <Trackpoint>
            <Time>2018-09-14T15:02:02.000Z</Time>
            <Position>
              <LatitudeDegrees>37.60585458017885684967041015625</LatitudeDegrees>
              <LongitudeDegrees>-8.0813898146152496337890625</LongitudeDegrees>
            </Position>
            <AltitudeMeters>245.600006103515625</AltitudeMeters>
            <DistanceMeters>308350.34535768</DistanceMeters>
          </Trackpoint>
          <Trackpoint>
            <Time>2018-09-14T15:02:03.000Z</Time>
            <Position>
              <LatitudeDegrees>37.60580630041658878326416015625</LatitudeDegrees>
              <LongitudeDegrees>-8.08139174245297908782958984375</LongitudeDegrees>
            </Position>
            <AltitudeMeters>245.8000030517578125</AltitudeMeters>
            <DistanceMeters>308355.72172027</DistanceMeters>
          </Trackpoint>
          <Trackpoint>
            <Time>2018-09-14T15:02:04.000Z</Time>
            <Position>
              <LatitudeDegrees>37.605758272111415863037109375</LatitudeDegrees>
              <LongitudeDegrees>-8.08139408938586711883544921875</LongitudeDegrees>
            </Position>
            <AltitudeMeters>246.1999969482421875</AltitudeMeters>
            <DistanceMeters>308361.07114194</DistanceMeters>
          </Trackpoint>
          <Trackpoint>
            <Time>2018-09-14T15:02:05.000Z</Time>
            <Position>
              <LatitudeDegrees>37.6057104952633380889892578125</LatitudeDegrees>
              <LongitudeDegrees>-8.08139626868069171905517578125</LongitudeDegrees>
            </Position>
            <AltitudeMeters>246.399993896484375</AltitudeMeters>
            <DistanceMeters>308366.39263795</DistanceMeters>
          </Trackpoint>
          <Trackpoint>
            <Time>2018-09-14T15:02:06.000Z</Time>
            <Position>
              <LatitudeDegrees>37.60566263459622859954833984375</LatitudeDegrees>
              <LongitudeDegrees>-8.08139945380389690399169921875</LongitudeDegrees>
            </Position>
            <AltitudeMeters>246.600006103515625</AltitudeMeters>
            <DistanceMeters>308371.72769193</DistanceMeters>
          </Trackpoint>
          <Trackpoint>
            <Time>2018-09-14T15:02:07.000Z</Time>
            <Position>
              <LatitudeDegrees>37.60561469011008739471435546875</LatitudeDegrees>
              <LongitudeDegrees>-8.08140163309872150421142578125</LongitudeDegrees>
            </Position>
            <AltitudeMeters>247</AltitudeMeters>
            <DistanceMeters>308377.06782127</DistanceMeters>
          </Trackpoint>
          <Trackpoint>
            <Time>2018-09-14T15:02:08.000Z</Time>
            <Position>
              <LatitudeDegrees>37.6055666618049144744873046875</LatitudeDegrees>
              <LongitudeDegrees>-8.0814020521938800811767578125</LongitudeDegrees>
            </Position>
            <AltitudeMeters>247.1999969482421875</AltitudeMeters>
            <DistanceMeters>308382.41386578</DistanceMeters>
          </Trackpoint>
          <Trackpoint>
            <Time>2018-09-14T15:02:09.000Z</Time>
            <Position>
              <LatitudeDegrees>37.6055193878710269927978515625</LatitudeDegrees>
              <LongitudeDegrees>-8.08140414766967296600341796875</LongitudeDegrees>
            </Position>
            <AltitudeMeters>247.600006103515625</AltitudeMeters>
            <DistanceMeters>308387.67906613</DistanceMeters>
          </Trackpoint>
          <Trackpoint>
            <Time>2018-09-14T15:02:10.000Z</Time>
            <Position>
              <LatitudeDegrees>37.60547370649874210357666015625</LatitudeDegrees>
              <LongitudeDegrees>-8.0814084224402904510498046875</LongitudeDegrees>
            </Position>
            <AltitudeMeters>247.8000030517578125</AltitudeMeters>
            <DistanceMeters>308392.77696374</DistanceMeters>
          </Trackpoint>
          <Trackpoint>
            <Time>2018-09-14T15:02:11.000Z</Time>
            <Position>
              <LatitudeDegrees>37.60542877949774265289306640625</LatitudeDegrees>
              <LongitudeDegrees>-8.081412948668003082275390625</LongitudeDegrees>
            </Position>
            <AltitudeMeters>248.1999969482421875</AltitudeMeters>
            <DistanceMeters>308397.79451823</DistanceMeters>
          </Trackpoint>
          <Trackpoint>
            <Time>2018-09-14T15:02:12.000Z</Time>
            <Position>
              <LatitudeDegrees>37.6053849421441555023193359375</LatitudeDegrees>
              <LongitudeDegrees>-8.08141537941992282867431640625</LongitudeDegrees>
            </Position>
            <AltitudeMeters>248.399993896484375</AltitudeMeters>
            <DistanceMeters>308402.67800386</DistanceMeters>
          </Trackpoint>
          <Trackpoint>
            <Time>2018-09-14T15:02:13.000Z</Time>
            <Position>
              <LatitudeDegrees>37.6053415238857269287109375</LatitudeDegrees>
              <LongitudeDegrees>-8.08141571469604969024658203125</LongitudeDegrees>
            </Position>
            <AltitudeMeters>248.600006103515625</AltitudeMeters>
            <DistanceMeters>308407.51037157</DistanceMeters>
          </Trackpoint>
          <Trackpoint>
            <Time>2018-09-14T15:02:14.000Z</Time>
            <Position>
              <LatitudeDegrees>37.60529785417020320892333984375</LatitudeDegrees>
              <LongitudeDegrees>-8.08141822926700115203857421875</LongitudeDegrees>
            </Position>
            <AltitudeMeters>248.600006103515625</AltitudeMeters>
            <DistanceMeters>308412.37811444</DistanceMeters>
          </Trackpoint>
          <Trackpoint>
            <Time>2018-09-14T15:02:15.000Z</Time>
            <Position>
              <LatitudeDegrees>37.6052538491785526275634765625</LatitudeDegrees>
              <LongitudeDegrees>-8.08142325840890407562255859375</LongitudeDegrees>
            </Position>
            <AltitudeMeters>248.8000030517578125</AltitudeMeters>
            <DistanceMeters>308417.29568952</DistanceMeters>
          </Trackpoint>
          <Trackpoint>
            <Time>2018-09-14T15:02:16.000Z</Time>
            <Position>
              <LatitudeDegrees>37.60520950891077518463134765625</LatitudeDegrees>
              <LongitudeDegrees>-8.0814265273511409759521484375</LongitudeDegrees>
            </Position>
            <AltitudeMeters>249</AltitudeMeters>
            <DistanceMeters>308422.23890577</DistanceMeters>
          </Trackpoint>
          <Trackpoint>
            <Time>2018-09-14T15:02:17.000Z</Time>
            <Position>
              <LatitudeDegrees>37.6051650010049343109130859375</LatitudeDegrees>
              <LongitudeDegrees>-8.0814295448362827301025390625</LongitudeDegrees>
            </Position>
            <AltitudeMeters>249</AltitudeMeters>
            <DistanceMeters>308427.19944589</DistanceMeters>
          </Trackpoint>
          <Trackpoint>
            <Time>2018-09-14T15:02:18.000Z</Time>
            <Position>
              <LatitudeDegrees>37.60512032546103000640869140625</LatitudeDegrees>
              <LongitudeDegrees>-8.0814342387020587921142578125</LongitudeDegrees>
            </Position>
            <AltitudeMeters>249.1999969482421875</AltitudeMeters>
            <DistanceMeters>308432.18902711</DistanceMeters>
          </Trackpoint>
          <Trackpoint>
            <Time>2018-09-14T15:02:19.000Z</Time>
            <Position>
              <LatitudeDegrees>37.60507489554584026336669921875</LatitudeDegrees>
              <LongitudeDegrees>-8.08143968693912029266357421875</LongitudeDegrees>
            </Position>
            <AltitudeMeters>249.399993896484375</AltitudeMeters>
            <DistanceMeters>308437.2691805</DistanceMeters>
          </Trackpoint>
          <Trackpoint>
            <Time>2018-09-14T15:02:20.000Z</Time>
            <Position>
              <LatitudeDegrees>37.60502913035452365875244140625</LatitudeDegrees>
              <LongitudeDegrees>-8.08144387789070606231689453125</LongitudeDegrees>
            </Position>
            <AltitudeMeters>249.399993896484375</AltitudeMeters>
            <DistanceMeters>308442.3759271</DistanceMeters>
          </Trackpoint>
          <Trackpoint>
            <Time>2018-09-14T15:02:21.000Z</Time>
            <Position>
              <LatitudeDegrees>37.604983113706111907958984375</LatitudeDegrees>
              <LongitudeDegrees>-8.0814473144710063934326171875</LongitudeDegrees>
            </Position>
            <AltitudeMeters>249.399993896484375</AltitudeMeters>
            <DistanceMeters>308447.50560962</DistanceMeters>
          </Trackpoint>
          <Trackpoint>
            <Time>2018-09-14T15:02:22.000Z</Time>
            <Position>
              <LatitudeDegrees>37.60493726469576358795166015625</LatitudeDegrees>
              <LongitudeDegrees>-8.081450164318084716796875</LongitudeDegrees>
            </Position>
            <AltitudeMeters>249.399993896484375</AltitudeMeters>
            <DistanceMeters>308452.61412417</DistanceMeters>
          </Trackpoint>
          <Trackpoint>
            <Time>2018-09-14T15:02:23.000Z</Time>
            <Position>
              <LatitudeDegrees>37.60489133186638355255126953125</LatitudeDegrees>
              <LongitudeDegrees>-8.0814530141651630401611328125</LongitudeDegrees>
            </Position>
            <AltitudeMeters>249.399993896484375</AltitudeMeters>
            <DistanceMeters>308457.73323364</DistanceMeters>
          </Trackpoint>
          <Trackpoint>
            <Time>2018-09-14T15:02:24.000Z</Time>
            <Position>
              <LatitudeDegrees>37.60484640486538410186767578125</LatitudeDegrees>
              <LongitudeDegrees>-8.0814553610980510711669921875</LongitudeDegrees>
            </Position>
            <AltitudeMeters>249.399993896484375</AltitudeMeters>
            <DistanceMeters>308462.73817441</DistanceMeters>
          </Trackpoint>
          <Trackpoint>
            <Time>2018-09-14T15:02:25.000Z</Time>
            <Position>
              <LatitudeDegrees>37.60480214841663837432861328125</LatitudeDegrees>
              <LongitudeDegrees>-8.08145645074546337127685546875</LongitudeDegrees>
            </Position>
            <AltitudeMeters>249.1999969482421875</AltitudeMeters>
            <DistanceMeters>308467.66492237</DistanceMeters>
          </Trackpoint>
          <Trackpoint>
            <Time>2018-09-14T15:02:26.000Z</Time>
            <Position>
              <LatitudeDegrees>37.60475805960595607757568359375</LatitudeDegrees>
              <LongitudeDegrees>-8.08145695365965366363525390625</LongitudeDegrees>
            </Position>
            <AltitudeMeters>249.1999969482421875</AltitudeMeters>
            <DistanceMeters>308472.57146737</DistanceMeters>
          </Trackpoint>
          <Trackpoint>
            <Time>2018-09-14T15:02:27.000Z</Time>
            <Position>
              <LatitudeDegrees>37.604712545871734619140625</LatitudeDegrees>
              <LongitudeDegrees>-8.081459216773509979248046875</LongitudeDegrees>
            </Position>
            <AltitudeMeters>249.1999969482421875</AltitudeMeters>
            <DistanceMeters>308477.64094442</DistanceMeters>
          </Trackpoint>
          <Trackpoint>
            <Time>2018-09-14T15:02:28.000Z</Time>
            <Position>
              <LatitudeDegrees>37.60466619394719600677490234375</LatitudeDegrees>
              <LongitudeDegrees>-8.0814613960683345794677734375</LongitudeDegrees>
            </Position>
            <AltitudeMeters>249.1999969482421875</AltitudeMeters>
            <DistanceMeters>308482.8039654</DistanceMeters>
          </Trackpoint>
          <Trackpoint>
            <Time>2018-09-14T15:02:29.000Z</Time>
            <Position>
              <LatitudeDegrees>37.6046181656420230865478515625</LatitudeDegrees>
              <LongitudeDegrees>-8.0814630724489688873291015625</LongitudeDegrees>
            </Position>
            <AltitudeMeters>249</AltitudeMeters>
            <DistanceMeters>308488.15254298</DistanceMeters>
          </Trackpoint>
          <Trackpoint>
            <Time>2018-09-14T15:02:30.000Z</Time>
            <Position>
              <LatitudeDegrees>37.6045688800513744354248046875</LatitudeDegrees>
              <LongitudeDegrees>-8.0814644135534763336181640625</LongitudeDegrees>
            </Position>
            <AltitudeMeters>249</AltitudeMeters>
            <DistanceMeters>308493.6394615</DistanceMeters>
          </Trackpoint>
          <Trackpoint>
            <Time>2018-09-14T15:02:31.000Z</Time>
            <Position>
              <LatitudeDegrees>37.6045185886323451995849609375</LatitudeDegrees>
              <LongitudeDegrees>-8.08146650902926921844482421875</LongitudeDegrees>
            </Position>
            <AltitudeMeters>249</AltitudeMeters>
            <DistanceMeters>308499.24039764</DistanceMeters>
          </Trackpoint>
          <Trackpoint>
            <Time>2018-09-14T15:02:32.000Z</Time>
            <Position>
              <LatitudeDegrees>37.60446687228977680206298828125</LatitudeDegrees>
              <LongitudeDegrees>-8.08146952651441097259521484375</LongitudeDegrees>
            </Position>
            <AltitudeMeters>249</AltitudeMeters>
            <DistanceMeters>308505.00343687</DistanceMeters>
          </Trackpoint>
          <Trackpoint>
            <Time>2018-09-14T15:02:33.000Z</Time>
            <Position>
              <LatitudeDegrees>37.6044133119285106658935546875</LatitudeDegrees>
              <LongitudeDegrees>-8.0814738012850284576416015625</LongitudeDegrees>
            </Position>
            <AltitudeMeters>249.1999969482421875</AltitudeMeters>
            <DistanceMeters>308510.97728505</DistanceMeters>
          </Trackpoint>
          <Trackpoint>
            <Time>2018-09-14T15:02:35.000Z</Time>
            <Position>
              <LatitudeDegrees>37.60430124588310718536376953125</LatitudeDegrees>
              <LongitudeDegrees>-8.08148260228335857391357421875</LongitudeDegrees>
            </Position>
            <AltitudeMeters>249.600006103515625</AltitudeMeters>
            <DistanceMeters>308523.47465286</DistanceMeters>
          </Trackpoint>
          <Trackpoint>
            <Time>2018-09-14T15:02:37.000Z</Time>
            <Position>
              <LatitudeDegrees>37.604181468486785888671875</LatitudeDegrees>
              <LongitudeDegrees>-8.0814890563488006591796875</LongitudeDegrees>
            </Position>
            <AltitudeMeters>250</AltitudeMeters>
            <DistanceMeters>308536.81804138</DistanceMeters>
          </Trackpoint>
          <Trackpoint>
            <Time>2018-09-14T15:02:38.000Z</Time>
            <Position>
              <LatitudeDegrees>37.60411986149847507476806640625</LatitudeDegrees>
              <LongitudeDegrees>-8.081495761871337890625</LongitudeDegrees>
            </Position>
            <AltitudeMeters>249.600006103515625</AltitudeMeters>
            <DistanceMeters>308543.70075749</DistanceMeters>
          </Trackpoint>
          <Trackpoint>
            <Time>2018-09-14T15:02:39.000Z</Time>
            <Position>
              <LatitudeDegrees>37.60405733250081539154052734375</LatitudeDegrees>
              <LongitudeDegrees>-8.08150171302258968353271484375</LongitudeDegrees>
            </Position>
            <AltitudeMeters>249.399993896484375</AltitudeMeters>
            <DistanceMeters>308550.67988583</DistanceMeters>
          </Trackpoint>
          <Trackpoint>
            <Time>2018-09-14T15:02:40.000Z</Time>
            <Position>
              <LatitudeDegrees>37.60399329476058483123779296875</LatitudeDegrees>
              <LongitudeDegrees>-8.08150623925030231475830078125</LongitudeDegrees>
            </Position>
            <AltitudeMeters>249</AltitudeMeters>
            <DistanceMeters>308557.81891597</DistanceMeters>
          </Trackpoint>
          <Trackpoint>
            <Time>2018-09-14T15:02:41.000Z</Time>
            <Position>
              <LatitudeDegrees>37.60392774827778339385986328125</LatitudeDegrees>
              <LongitudeDegrees>-8.08151118457317352294921875</LongitudeDegrees>
            </Position>
            <AltitudeMeters>248.8000030517578125</AltitudeMeters>
            <DistanceMeters>308565.12794684</DistanceMeters>
          </Trackpoint>
          <Trackpoint>
            <Time>2018-09-14T15:02:42.000Z</Time>
            <Position>
              <LatitudeDegrees>37.6038607768714427947998046875</LatitudeDegrees>
              <LongitudeDegrees>-8.081516884267330169677734375</LongitudeDegrees>
            </Position>
            <AltitudeMeters>248.399993896484375</AltitudeMeters>
            <DistanceMeters>308572.59948836</DistanceMeters>
          </Trackpoint>
          <Trackpoint>
            <Time>2018-09-14T15:02:43.000Z</Time>
            <Position>
              <LatitudeDegrees>37.603792212903499603271484375</LatitudeDegrees>
              <LongitudeDegrees>-8.08152266778051853179931640625</LongitudeDegrees>
            </Position>
            <AltitudeMeters>248.1999969482421875</AltitudeMeters>
            <DistanceMeters>308580.24781073</DistanceMeters>
          </Trackpoint>
          <Trackpoint>
            <Time>2018-09-14T15:02:44.000Z</Time>
            <Position>
              <LatitudeDegrees>37.60372188873589038848876953125</LatitudeDegrees>
              <LongitudeDegrees>-8.08152853511273860931396484375</LongitudeDegrees>
            </Position>
            <AltitudeMeters>247.8000030517578125</AltitudeMeters>
            <DistanceMeters>308588.09140116</DistanceMeters>
          </Trackpoint>
          <Trackpoint>
            <Time>2018-09-14T15:02:45.000Z</Time>
            <Position>
              <LatitudeDegrees>37.60364963673055171966552734375</LatitudeDegrees>
              <LongitudeDegrees>-8.0815338157117366790771484375</LongitudeDegrees>
            </Position>
            <AltitudeMeters>247.399993896484375</AltitudeMeters>
            <DistanceMeters>308596.14684214</DistanceMeters>
          </Trackpoint>
          <Trackpoint>
            <Time>2018-09-14T15:02:46.000Z</Time>
            <Position>
              <LatitudeDegrees>37.60357554070651531219482421875</LatitudeDegrees>
              <LongitudeDegrees>-8.0815381743013858795166015625</LongitudeDegrees>
            </Position>
            <AltitudeMeters>247</AltitudeMeters>
            <DistanceMeters>308604.40268958</DistanceMeters>
          </Trackpoint>
          <Trackpoint>
            <Time>2018-09-14T15:02:47.000Z</Time>
            <Position>
              <LatitudeDegrees>37.6035003550350666046142578125</LatitudeDegrees>
              <LongitudeDegrees>-8.08154177851974964141845703125</LongitudeDegrees>
            </Position>
            <AltitudeMeters>247</AltitudeMeters>
            <DistanceMeters>308612.77691036</DistanceMeters>
          </Trackpoint>
          <Trackpoint>
            <Time>2018-09-14T15:02:48.000Z</Time>
            <Position>
              <LatitudeDegrees>37.60342382825911045074462890625</LatitudeDegrees>
              <LongitudeDegrees>-8.08154680766165256500244140625</LongitudeDegrees>
            </Position>
            <AltitudeMeters>247</AltitudeMeters>
            <DistanceMeters>308621.30605427</DistanceMeters>
          </Trackpoint>
          <Trackpoint>
            <Time>2018-09-14T15:02:49.000Z</Time>
            <Position>
              <LatitudeDegrees>37.60334570892155170440673828125</LatitudeDegrees>
              <LongitudeDegrees>-8.08155267499387264251708984375</LongitudeDegrees>
            </Position>
            <AltitudeMeters>247</AltitudeMeters>
            <DistanceMeters>308630.01643327</DistanceMeters>
          </Trackpoint>
          <Trackpoint>
            <Time>2018-09-14T15:02:50.000Z</Time>
            <Position>
              <LatitudeDegrees>37.60326591320335865020751953125</LatitudeDegrees>
              <LongitudeDegrees>-8.08155854232609272003173828125</LongitudeDegrees>
            </Position>
            <AltitudeMeters>246.600006103515625</AltitudeMeters>
            <DistanceMeters>308638.91298429</DistanceMeters>
          </Trackpoint>
          <Trackpoint>
            <Time>2018-09-14T15:02:51.000Z</Time>
            <Position>
              <LatitudeDegrees>37.60318444110453128814697265625</LatitudeDegrees>
              <LongitudeDegrees>-8.0815641582012176513671875</LongitudeDegrees>
            </Position>
            <AltitudeMeters>246.1999969482421875</AltitudeMeters>
            <DistanceMeters>308647.99387951</DistanceMeters>
          </Trackpoint>
          <Trackpoint>
            <Time>2018-09-14T15:02:52.000Z</Time>
            <Position>
              <LatitudeDegrees>37.6031013764441013336181640625</LatitudeDegrees>
              <LongitudeDegrees>-8.081569187343120574951171875</LongitudeDegrees>
            </Position>
            <AltitudeMeters>245.8000030517578125</AltitudeMeters>
            <DistanceMeters>308657.24959857</DistanceMeters>
          </Trackpoint>
          <Trackpoint>
            <Time>2018-09-14T15:02:53.000Z</Time>
            <Position>
              <LatitudeDegrees>37.60301713831722736358642578125</LatitudeDegrees>
              <LongitudeDegrees>-8.08157564140856266021728515625</LongitudeDegrees>
            </Position>
            <AltitudeMeters>245.1999969482421875</AltitudeMeters>
            <DistanceMeters>308666.64235359</DistanceMeters>
          </Trackpoint>
          <Trackpoint>
            <Time>2018-09-14T15:02:54.000Z</Time>
            <Position>
              <LatitudeDegrees>37.602931894361972808837890625</LatitudeDegrees>
              <LongitudeDegrees>-8.0815827660262584686279296875</LongitudeDegrees>
            </Position>
            <AltitudeMeters>244.8000030517578125</AltitudeMeters>
            <DistanceMeters>308676.15072492</DistanceMeters>
          </Trackpoint>
          <Trackpoint>
            <Time>2018-09-14T15:02:55.000Z</Time>
            <Position>
              <LatitudeDegrees>37.6028458960354328155517578125</LatitudeDegrees>
              <LongitudeDegrees>-8.0815898068249225616455078125</LongitudeDegrees>
            </Position>
            <AltitudeMeters>244.399993896484375</AltitudeMeters>
            <DistanceMeters>308685.74277626</DistanceMeters>
          </Trackpoint>
          <Trackpoint>
            <Time>2018-09-14T15:02:56.000Z</Time>
            <Position>
              <LatitudeDegrees>37.60275847278535366058349609375</LatitudeDegrees>
              <LongitudeDegrees>-8.08159844018518924713134765625</LongitudeDegrees>
            </Position>
            <AltitudeMeters>244</AltitudeMeters>
            <DistanceMeters>308695.50281091</DistanceMeters>
          </Trackpoint>
          <Trackpoint>
            <Time>2018-09-14T15:02:57.000Z</Time>
            <Position>
              <LatitudeDegrees>37.60267012752592563629150390625</LatitudeDegrees>
              <LongitudeDegrees>-8.081605732440948486328125</LongitudeDegrees>
            </Position>
            <AltitudeMeters>243.399993896484375</AltitudeMeters>
            <DistanceMeters>308705.35722322</DistanceMeters>
          </Trackpoint>
          <Trackpoint>
            <Time>2018-09-14T15:02:58.000Z</Time>
            <Position>
              <LatitudeDegrees>37.60258144699037075042724609375</LatitudeDegrees>
              <LongitudeDegrees>-8.08161176741123199462890625</LongitudeDegrees>
            </Position>
            <AltitudeMeters>242.8000030517578125</AltitudeMeters>
            <DistanceMeters>308715.24182879</DistanceMeters>
          </Trackpoint>
          <Trackpoint>
            <Time>2018-09-14T15:02:59.000Z</Time>
            <Position>
              <LatitudeDegrees>37.60249326936900615692138671875</LatitudeDegrees>
              <LongitudeDegrees>-8.08161587454378604888916015625</LongitudeDegrees>
            </Position>
            <AltitudeMeters>242.1999969482421875</AltitudeMeters>
            <DistanceMeters>308725.06273742</DistanceMeters>
          </Trackpoint>
          <Trackpoint>
            <Time>2018-09-14T15:03:00.000Z</Time>
            <Position>
              <LatitudeDegrees>37.60240651667118072509765625</LatitudeDegrees>
              <LongitudeDegrees>-8.08161981403827667236328125</LongitudeDegrees>
            </Position>
            <AltitudeMeters>242.8000030517578125</AltitudeMeters>
            <DistanceMeters>308734.72466944</DistanceMeters>
          </Trackpoint>
          <Trackpoint>
            <Time>2018-09-14T15:03:01.000Z</Time>
            <Position>
              <LatitudeDegrees>37.60232068598270416259765625</LatitudeDegrees>
              <LongitudeDegrees>-8.08162643574178218841552734375</LongitudeDegrees>
            </Position>
            <AltitudeMeters>243.1999969482421875</AltitudeMeters>
            <DistanceMeters>308744.29551556</DistanceMeters>
          </Trackpoint>
          <Trackpoint>
            <Time>2018-09-14T15:03:02.000Z</Time>
            <Position>
              <LatitudeDegrees>37.6022363640367984771728515625</LatitudeDegrees>
              <LongitudeDegrees>-8.0816303752362728118896484375</LongitudeDegrees>
            </Position>
            <AltitudeMeters>243.600006103515625</AltitudeMeters>
            <DistanceMeters>308753.68682839</DistanceMeters>
          </Trackpoint>
          <Trackpoint>
            <Time>2018-09-14T15:03:03.000Z</Time>
            <Position>
              <LatitudeDegrees>37.60215430520474910736083984375</LatitudeDegrees>
              <LongitudeDegrees>-8.0816347338259220123291015625</LongitudeDegrees>
            </Position>
            <AltitudeMeters>243.8000030517578125</AltitudeMeters>
            <DistanceMeters>308762.82818099</DistanceMeters>
          </Trackpoint>
          <Trackpoint>
            <Time>2018-09-14T15:03:04.000Z</Time>
            <Position>
              <LatitudeDegrees>37.60207417421042919158935546875</LatitudeDegrees>
              <LongitudeDegrees>-8.0816397629678249359130859375</LongitudeDegrees>
            </Position>
            <AltitudeMeters>244.1999969482421875</AltitudeMeters>
            <DistanceMeters>308771.75816448</DistanceMeters>
          </Trackpoint>
          <Trackpoint>
            <Time>2018-09-14T15:03:05.000Z</Time>
            <Position>
              <LatitudeDegrees>37.601995803415775299072265625</LatitudeDegrees>
              <LongitudeDegrees>-8.0816461332142353057861328125</LongitudeDegrees>
            </Position>
            <AltitudeMeters>244.600006103515625</AltitudeMeters>
            <DistanceMeters>308780.49855616</DistanceMeters>
          </Trackpoint>
          <Trackpoint>
            <Time>2018-09-14T15:03:06.000Z</Time>
            <Position>
              <LatitudeDegrees>37.6019185222685337066650390625</LatitudeDegrees>
              <LongitudeDegrees>-8.0816545151174068450927734375</LongitudeDegrees>
            </Position>
            <AltitudeMeters>245</AltitudeMeters>
            <DistanceMeters>308789.13187829</DistanceMeters>
          </Trackpoint>
          <Trackpoint>
            <Time>2018-09-14T15:03:07.000Z</Time>
            <Position>
              <LatitudeDegrees>37.6018427498638629913330078125</LatitudeDegrees>
              <LongitudeDegrees>-8.0816615559160709381103515625</LongitudeDegrees>
            </Position>
            <AltitudeMeters>245.399993896484375</AltitudeMeters>
            <DistanceMeters>308797.58872199</DistanceMeters>
          </Trackpoint>
          <Trackpoint>
            <Time>2018-09-14T15:03:08.000Z</Time>
            <Position>
              <LatitudeDegrees>37.6017688214778900146484375</LatitudeDegrees>
              <LongitudeDegrees>-8.08166583068668842315673828125</LongitudeDegrees>
            </Position>
            <AltitudeMeters>245.600006103515625</AltitudeMeters>
            <DistanceMeters>308805.82540605</DistanceMeters>
          </Trackpoint>
          <Trackpoint>
            <Time>2018-09-14T15:03:09.000Z</Time>
            <Position>
              <LatitudeDegrees>37.60169682092964649200439453125</LatitudeDegrees>
              <LongitudeDegrees>-8.0816702730953693389892578125</LongitudeDegrees>
            </Position>
            <AltitudeMeters>245.8000030517578125</AltitudeMeters>
            <DistanceMeters>308813.84827243</DistanceMeters>
          </Trackpoint>
          <Trackpoint>
            <Time>2018-09-14T15:03:10.000Z</Time>
            <Position>
              <LatitudeDegrees>37.60162758640944957733154296875</LatitudeDegrees>
              <LongitudeDegrees>-8.08167723007500171661376953125</LongitudeDegrees>
            </Position>
            <AltitudeMeters>246.1999969482421875</AltitudeMeters>
            <DistanceMeters>308821.57763112</DistanceMeters>
          </Trackpoint>
          <Trackpoint>
            <Time>2018-09-14T15:03:11.000Z</Time>
            <Position>
              <LatitudeDegrees>37.60156069882214069366455078125</LatitudeDegrees>
              <LongitudeDegrees>-8.081683181226253509521484375</LongitudeDegrees>
            </Position>
            <AltitudeMeters>246.600006103515625</AltitudeMeters>
            <DistanceMeters>308829.04070766</DistanceMeters>
          </Trackpoint>
          <Trackpoint>
            <Time>2018-09-14T15:03:12.000Z</Time>
            <Position>
              <LatitudeDegrees>37.60149565525352954864501953125</LatitudeDegrees>
              <LongitudeDegrees>-8.08168544434010982513427734375</LongitudeDegrees>
            </Position>
            <AltitudeMeters>247</AltitudeMeters>
            <DistanceMeters>308836.28271595</DistanceMeters>
          </Trackpoint>
          <Trackpoint>
            <Time>2018-09-14T15:03:13.000Z</Time>
            <Position>
              <LatitudeDegrees>37.6014323718845844268798828125</LatitudeDegrees>
              <LongitudeDegrees>-8.0816867016255855560302734375</LongitudeDegrees>
            </Position>
            <AltitudeMeters>247.399993896484375</AltitudeMeters>
            <DistanceMeters>308843.32624063</DistanceMeters>
          </Trackpoint>
          <Trackpoint>
            <Time>2018-09-14T15:03:14.000Z</Time>
            <Position>
              <LatitudeDegrees>37.60137093253433704376220703125</LatitudeDegrees>
              <LongitudeDegrees>-8.081690557301044464111328125</LongitudeDegrees>
            </Position>
            <AltitudeMeters>247.8000030517578125</AltitudeMeters>
            <DistanceMeters>308850.17278186</DistanceMeters>
          </Trackpoint>
          <Trackpoint>
            <Time>2018-09-14T15:03:15.000Z</Time>
            <Position>
              <LatitudeDegrees>37.6013106666505336761474609375</LatitudeDegrees>
              <LongitudeDegrees>-8.08169600553810596466064453125</LongitudeDegrees>
            </Position>
            <AltitudeMeters>248</AltitudeMeters>
            <DistanceMeters>308856.89755865</DistanceMeters>
          </Trackpoint>
          <Trackpoint>
            <Time>2018-09-14T15:03:16.000Z</Time>
            <Position>
              <LatitudeDegrees>37.60125182569026947021484375</LatitudeDegrees>
              <LongitudeDegrees>-8.08169986121356487274169921875</LongitudeDegrees>
            </Position>
            <AltitudeMeters>248.399993896484375</AltitudeMeters>
            <DistanceMeters>308863.45577899</DistanceMeters>
          </Trackpoint>
          <Trackpoint>
            <Time>2018-09-14T15:03:17.000Z</Time>
            <Position>
              <LatitudeDegrees>37.6011956669390201568603515625</LatitudeDegrees>
              <LongitudeDegrees>-8.081705309450626373291015625</LongitudeDegrees>
            </Position>
            <AltitudeMeters>248.8000030517578125</AltitudeMeters>
            <DistanceMeters>308869.72466188</DistanceMeters>
          </Trackpoint>
          <Trackpoint>
            <Time>2018-09-14T15:03:18.000Z</Time>
            <Position>
              <LatitudeDegrees>37.601140849292278289794921875</LatitudeDegrees>
              <LongitudeDegrees>-8.0817118473351001739501953125</LongitudeDegrees>
            </Position>
            <AltitudeMeters>249.1999969482421875</AltitudeMeters>
            <DistanceMeters>308875.85222729</DistanceMeters>
          </Trackpoint>
          <Trackpoint>
            <Time>2018-09-14T15:03:19.000Z</Time>
            <Position>
              <LatitudeDegrees>37.601087205111980438232421875</LatitudeDegrees>
              <LongitudeDegrees>-8.08171696029603481292724609375</LongitudeDegrees>
            </Position>
            <AltitudeMeters>249.399993896484375</AltitudeMeters>
            <DistanceMeters>308881.83966443</DistanceMeters>
          </Trackpoint>
          <Trackpoint>
            <Time>2018-09-14T15:03:20.000Z</Time>
            <Position>
              <LatitudeDegrees>37.60103532113134860992431640625</LatitudeDegrees>
              <LongitudeDegrees>-8.081722743809223175048828125</LongitudeDegrees>
            </Position>
            <AltitudeMeters>249.8000030517578125</AltitudeMeters>
            <DistanceMeters>308887.63707286</DistanceMeters>
          </Trackpoint>
          <Trackpoint>
            <Time>2018-09-14T15:03:21.000Z</Time>
            <Position>
              <LatitudeDegrees>37.6009837724268436431884765625</LatitudeDegrees>
              <LongitudeDegrees>-8.081727437674999237060546875</LongitudeDegrees>
            </Position>
            <AltitudeMeters>250.1999969482421875</AltitudeMeters>
            <DistanceMeters>308893.38913337</DistanceMeters>
          </Trackpoint>
          <Trackpoint>
            <Time>2018-09-14T15:03:22.000Z</Time>
            <Position>
              <LatitudeDegrees>37.60093264281749725341796875</LatitudeDegrees>
              <LongitudeDegrees>-8.08173204772174358367919921875</LongitudeDegrees>
            </Position>
            <AltitudeMeters>250.399993896484375</AltitudeMeters>
            <DistanceMeters>308899.09390291</DistanceMeters>
          </Trackpoint>
          <Trackpoint>
            <Time>2018-09-14T15:03:23.000Z</Time>
            <Position>
              <LatitudeDegrees>37.60088260285556316375732421875</LatitudeDegrees>
              <LongitudeDegrees>-8.08173657394945621490478515625</LongitudeDegrees>
            </Position>
            <AltitudeMeters>250.8000030517578125</AltitudeMeters>
            <DistanceMeters>308904.67707619</DistanceMeters>
          </Trackpoint>
          <Trackpoint>
            <Time>2018-09-14T15:03:24.000Z</Time>
            <Position>
              <LatitudeDegrees>37.60083340108394622802734375</LatitudeDegrees>
              <LongitudeDegrees>-8.08174110017716884613037109375</LongitudeDegrees>
            </Position>
            <AltitudeMeters>251</AltitudeMeters>
            <DistanceMeters>308910.16892973</DistanceMeters>
          </Trackpoint>
          <Trackpoint>
            <Time>2018-09-14T15:03:25.000Z</Time>
            <Position>
              <LatitudeDegrees>37.6007849536836147308349609375</LatitudeDegrees>
              <LongitudeDegrees>-8.08174445293843746185302734375</LongitudeDegrees>
            </Position>
            <AltitudeMeters>251</AltitudeMeters>
            <DistanceMeters>308915.56959144</DistanceMeters>
          </Trackpoint>
          <Trackpoint>
            <Time>2018-09-14T15:03:26.000Z</Time>
            <Position>
              <LatitudeDegrees>37.6007356680929660797119140625</LatitudeDegrees>
              <LongitudeDegrees>-8.08174696750938892364501953125</LongitudeDegrees>
            </Position>
            <AltitudeMeters>251</AltitudeMeters>
            <DistanceMeters>308921.05980047</DistanceMeters>
          </Trackpoint>
          <Trackpoint>
            <Time>2018-09-14T15:03:27.000Z</Time>
            <Position>
              <LatitudeDegrees>37.60068730451166629791259765625</LatitudeDegrees>
              <LongitudeDegrees>-8.0817497335374355316162109375</LongitudeDegrees>
            </Position>
            <AltitudeMeters>251.1999969482421875</AltitudeMeters>
            <DistanceMeters>308926.44874525</DistanceMeters>
          </Trackpoint>
          <Trackpoint>
            <Time>2018-09-14T15:03:28.000Z</Time>
            <Position>
              <LatitudeDegrees>37.6006394438445568084716796875</LatitudeDegrees>
              <LongitudeDegrees>-8.081753589212894439697265625</LongitudeDegrees>
            </Position>
            <AltitudeMeters>251.1999969482421875</AltitudeMeters>
            <DistanceMeters>308931.78718334</DistanceMeters>
          </Trackpoint>
          <Trackpoint>
            <Time>2018-09-14T15:03:29.000Z</Time>
            <Position>
              <LatitudeDegrees>37.6005911640822887420654296875</LatitudeDegrees>
              <LongitudeDegrees>-8.08175669051706790924072265625</LongitudeDegrees>
            </Position>
            <AltitudeMeters>251.1999969482421875</AltitudeMeters>
            <DistanceMeters>308937.16774327</DistanceMeters>
          </Trackpoint>
          <Trackpoint>
            <Time>2018-09-14T15:03:30.000Z</Time>
            <Position>
              <LatitudeDegrees>37.6005448959767818450927734375</LatitudeDegrees>
              <LongitudeDegrees>-8.0817594565451145172119140625</LongitudeDegrees>
            </Position>
            <AltitudeMeters>251.399993896484375</AltitudeMeters>
            <DistanceMeters>308942.32201188</DistanceMeters>
          </Trackpoint>
          <Trackpoint>
            <Time>2018-09-14T15:03:31.000Z</Time>
            <Position>
              <LatitudeDegrees>37.60050156153738498687744140625</LatitudeDegrees>
              <LongitudeDegrees>-8.08176088146865367889404296875</LongitudeDegrees>
            </Position>
            <AltitudeMeters>251.399993896484375</AltitudeMeters>
            <DistanceMeters>308947.14689914</DistanceMeters>
          </Trackpoint>
          <Trackpoint>
            <Time>2018-09-14T15:03:32.000Z</Time>
            <Position>
              <LatitudeDegrees>37.60046099312603473663330078125</LatitudeDegrees>
              <LongitudeDegrees>-8.08176373131573200225830078125</LongitudeDegrees>
            </Position>
            <AltitudeMeters>251.399993896484375</AltitudeMeters>
            <DistanceMeters>308951.6684136</DistanceMeters>
          </Trackpoint>
          <Trackpoint>
            <Time>2018-09-14T15:03:33.000Z</Time>
            <Position>
              <LatitudeDegrees>37.60042168200016021728515625</LatitudeDegrees>
              <LongitudeDegrees>-8.08176733553409576416015625</LongitudeDegrees>
            </Position>
            <AltitudeMeters>251.399993896484375</AltitudeMeters>
            <DistanceMeters>308956.05613772</DistanceMeters>
          </Trackpoint>
          <Trackpoint>
            <Time>2018-09-14T15:03:34.000Z</Time>
            <Position>
              <LatitudeDegrees>37.6003812812268733978271484375</LatitudeDegrees>
              <LongitudeDegrees>-8.081772364675998687744140625</LongitudeDegrees>
            </Position>
            <AltitudeMeters>251.600006103515625</AltitudeMeters>
            <DistanceMeters>308960.5746555</DistanceMeters>
          </Trackpoint>
          <Trackpoint>
            <Time>2018-09-14T15:03:35.000Z</Time>
            <Position>
              <LatitudeDegrees>37.60034146718680858612060546875</LatitudeDegrees>
              <LongitudeDegrees>-8.081779070198535919189453125</LongitudeDegrees>
            </Position>
            <AltitudeMeters>251.600006103515625</AltitudeMeters>
            <DistanceMeters>308965.04596283</DistanceMeters>
          </Trackpoint>
          <Trackpoint>
            <Time>2018-09-14T15:03:36.000Z</Time>
            <Position>
              <LatitudeDegrees>37.60029838420450687408447265625</LatitudeDegrees>
              <LongitudeDegrees>-8.081783093512058258056640625</LongitudeDegrees>
            </Position>
            <AltitudeMeters>251.600006103515625</AltitudeMeters>
            <DistanceMeters>308969.85397652</DistanceMeters>
          </Trackpoint>
          <Trackpoint>
            <Time>2018-09-14T15:03:37.000Z</Time>
            <Position>
              <LatitudeDegrees>37.6002542115747928619384765625</LatitudeDegrees>
              <LongitudeDegrees>-8.08178653009235858917236328125</LongitudeDegrees>
            </Position>
            <AltitudeMeters>251.600006103515625</AltitudeMeters>
            <DistanceMeters>308974.77980796</DistanceMeters>
          </Trackpoint>
          <Trackpoint>
            <Time>2018-09-14T15:03:38.000Z</Time>
            <Position>
              <LatitudeDegrees>37.600209452211856842041015625</LatitudeDegrees>
              <LongitudeDegrees>-8.08178887702524662017822265625</LongitudeDegrees>
            </Position>
            <AltitudeMeters>251.600006103515625</AltitudeMeters>
            <DistanceMeters>308979.76486267</DistanceMeters>
          </Trackpoint>
          <Trackpoint>
            <Time>2018-09-14T15:03:39.000Z</Time>
            <Position>
              <LatitudeDegrees>37.60016511194407939910888671875</LatitudeDegrees>
              <LongitudeDegrees>-8.08179256506264209747314453125</LongitudeDegrees>
            </Position>
            <AltitudeMeters>251.600006103515625</AltitudeMeters>
            <DistanceMeters>308984.71173109</DistanceMeters>
          </Trackpoint>
          <Trackpoint>
            <Time>2018-09-14T15:03:40.000Z</Time>
            <Position>
              <LatitudeDegrees>37.6001207716763019561767578125</LatitudeDegrees>
              <LongitudeDegrees>-8.0817980132997035980224609375</LongitudeDegrees>
            </Position>
            <AltitudeMeters>251.8000030517578125</AltitudeMeters>
            <DistanceMeters>308989.66953988</DistanceMeters>
          </Trackpoint>
          <Trackpoint>
            <Time>2018-09-14T15:03:41.000Z</Time>
            <Position>
              <LatitudeDegrees>37.60007701814174652099609375</LatitudeDegrees>
              <LongitudeDegrees>-8.081798516213893890380859375</LongitudeDegrees>
            </Position>
            <AltitudeMeters>251.8000030517578125</AltitudeMeters>
            <DistanceMeters>308994.53913748</DistanceMeters>
          </Trackpoint>
          <Trackpoint>
            <Time>2018-09-14T15:03:42.000Z</Time>
            <Position>
              <LatitudeDegrees>37.60003435425460338592529296875</LatitudeDegrees>
              <LongitudeDegrees>-8.08180077932775020599365234375</LongitudeDegrees>
            </Position>
            <AltitudeMeters>251.8000030517578125</AltitudeMeters>
            <DistanceMeters>308999.29142337</DistanceMeters>
          </Trackpoint>
          <Trackpoint>
            <Time>2018-09-14T15:03:43.000Z</Time>
            <Position>
              <LatitudeDegrees>37.59999252855777740478515625</LatitudeDegrees>
              <LongitudeDegrees>-8.08180262334644794464111328125</LongitudeDegrees>
            </Position>
            <AltitudeMeters>252</AltitudeMeters>
            <DistanceMeters>309003.94967129</DistanceMeters>
          </Trackpoint>
          <Trackpoint>
            <Time>2018-09-14T15:03:44.000Z</Time>
            <Position>
              <LatitudeDegrees>37.59995187632739543914794921875</LatitudeDegrees>
              <LongitudeDegrees>-8.081805221736431121826171875</LongitudeDegrees>
            </Position>
            <AltitudeMeters>252.1999969482421875</AltitudeMeters>
            <DistanceMeters>309008.48116043</DistanceMeters>
          </Trackpoint>
          <Trackpoint>
            <Time>2018-09-14T15:03:45.000Z</Time>
            <Position>
              <LatitudeDegrees>37.59991114027798175811767578125</LatitudeDegrees>
              <LongitudeDegrees>-8.08180681429803371429443359375</LongitudeDegrees>
            </Position>
            <AltitudeMeters>252.1999969482421875</AltitudeMeters>
            <DistanceMeters>309013.01762869</DistanceMeters>
          </Trackpoint>
          <Trackpoint>
            <Time>2018-09-14T15:03:46.000Z</Time>
            <Position>
              <LatitudeDegrees>37.59987040422856807708740234375</LatitudeDegrees>
              <LongitudeDegrees>-8.081807903945446014404296875</LongitudeDegrees>
            </Position>
            <AltitudeMeters>252.399993896484375</AltitudeMeters>
            <DistanceMeters>309017.55310155</DistanceMeters>
          </Trackpoint>
          <Trackpoint>
            <Time>2018-09-14T15:03:47.000Z</Time>
            <Position>
              <LatitudeDegrees>37.5998310931026935577392578125</LatitudeDegrees>
              <LongitudeDegrees>-8.081807903945446014404296875</LongitudeDegrees>
            </Position>
            <AltitudeMeters>252.600006103515625</AltitudeMeters>
            <DistanceMeters>309021.92846006</DistanceMeters>
          </Trackpoint>
          <Trackpoint>
            <Time>2018-09-14T15:03:48.000Z</Time>
            <Position>
              <LatitudeDegrees>37.59979044087231159210205078125</LatitudeDegrees>
              <LongitudeDegrees>-8.0818077363073825836181640625</LongitudeDegrees>
            </Position>
            <AltitudeMeters>252.8000030517578125</AltitudeMeters>
            <DistanceMeters>309026.45296924</DistanceMeters>
          </Trackpoint>
          <Trackpoint>
            <Time>2018-09-14T15:03:49.000Z</Time>
            <Position>
              <LatitudeDegrees>37.59975138120353221893310546875</LatitudeDegrees>
              <LongitudeDegrees>-8.081811256706714630126953125</LongitudeDegrees>
            </Position>
            <AltitudeMeters>252.8000030517578125</AltitudeMeters>
            <DistanceMeters>309030.81178569</DistanceMeters>
          </Trackpoint>
          <Trackpoint>
            <Time>2018-09-14T15:03:50.000Z</Time>
            <Position>
              <LatitudeDegrees>37.5997113995254039764404296875</LatitudeDegrees>
              <LongitudeDegrees>-8.08181586675345897674560546875</LongitudeDegrees>
            </Position>
            <AltitudeMeters>253</AltitudeMeters>
            <DistanceMeters>309035.281073</DistanceMeters>
          </Trackpoint>
          <Trackpoint>
            <Time>2018-09-14T15:03:51.000Z</Time>
            <Position>
              <LatitudeDegrees>37.5996715016663074493408203125</LatitudeDegrees>
              <LongitudeDegrees>-8.0818191356956958770751953125</LongitudeDegrees>
            </Position>
            <AltitudeMeters>253.1999969482421875</AltitudeMeters>
            <DistanceMeters>309039.7301097</DistanceMeters>
          </Trackpoint>
          <Trackpoint>
            <Time>2018-09-14T15:03:52.000Z</Time>
            <Position>
              <LatitudeDegrees>37.59963168762624263763427734375</LatitudeDegrees>
              <LongitudeDegrees>-8.08182139880955219268798828125</LongitudeDegrees>
            </Position>
            <AltitudeMeters>253.1999969482421875</AltitudeMeters>
            <DistanceMeters>309044.16593393</DistanceMeters>
          </Trackpoint>
          <Trackpoint>
            <Time>2018-09-14T15:03:53.000Z</Time>
            <Position>
              <LatitudeDegrees>37.599591203033924102783203125</LatitudeDegrees>
              <LongitudeDegrees>-8.08182324282824993133544921875</LongitudeDegrees>
            </Position>
            <AltitudeMeters>253.399993896484375</AltitudeMeters>
            <DistanceMeters>309048.67544966</DistanceMeters>
          </Trackpoint>
          <Trackpoint>
            <Time>2018-09-14T15:03:54.000Z</Time>
            <Position>
              <LatitudeDegrees>37.5995514728128910064697265625</LatitudeDegrees>
              <LongitudeDegrees>-8.08182508684694766998291015625</LongitudeDegrees>
            </Position>
            <AltitudeMeters>253.600006103515625</AltitudeMeters>
            <DistanceMeters>309053.10108361</DistanceMeters>
          </Trackpoint>
          <Trackpoint>
            <Time>2018-09-14T15:03:55.000Z</Time>
            <Position>
              <LatitudeDegrees>37.5995112396776676177978515625</LatitudeDegrees>
              <LongitudeDegrees>-8.0818288587033748626708984375</LongitudeDegrees>
            </Position>
            <AltitudeMeters>253.600006103515625</AltitudeMeters>
            <DistanceMeters>309057.59254114</DistanceMeters>
          </Trackpoint>
          <Trackpoint>
            <Time>2018-09-14T15:03:56.000Z</Time>
            <Position>
              <LatitudeDegrees>37.5994713418185710906982421875</LatitudeDegrees>
              <LongitudeDegrees>-8.08183279819786548614501953125</LongitudeDegrees>
            </Position>
            <AltitudeMeters>253.8000030517578125</AltitudeMeters>
            <DistanceMeters>309062.04664913</DistanceMeters>
          </Trackpoint>
          <Trackpoint>
            <Time>2018-09-14T15:03:57.000Z</Time>
            <Position>
              <LatitudeDegrees>37.59943169541656970977783203125</LatitudeDegrees>
              <LongitudeDegrees>-8.08183548040688037872314453125</LongitudeDegrees>
            </Position>
            <AltitudeMeters>254</AltitudeMeters>
            <DistanceMeters>309066.46615762</DistanceMeters>
          </Trackpoint>
          <Trackpoint>
            <Time>2018-09-14T15:03:58.000Z</Time>
            <Position>
              <LatitudeDegrees>37.599392049014568328857421875</LatitudeDegrees>
              <LongitudeDegrees>-8.0818375758826732635498046875</LongitudeDegrees>
            </Position>
            <AltitudeMeters>254</AltitudeMeters>
            <DistanceMeters>309070.88260021</DistanceMeters>
          </Trackpoint>
          <Trackpoint>
            <Time>2018-09-14T15:03:59.000Z</Time>
            <Position>
              <LatitudeDegrees>37.59935273788869380950927734375</LatitudeDegrees>
              <LongitudeDegrees>-8.081839084625244140625</LongitudeDegrees>
            </Position>
            <AltitudeMeters>254.1999969482421875</AltitudeMeters>
            <DistanceMeters>309075.26002208</DistanceMeters>
          </Trackpoint>
          <Trackpoint>
            <Time>2018-09-14T15:04:00.000Z</Time>
            <Position>
              <LatitudeDegrees>37.59931300766766071319580078125</LatitudeDegrees>
              <LongitudeDegrees>-8.08184118010103702545166015625</LongitudeDegrees>
            </Position>
            <AltitudeMeters>254.399993896484375</AltitudeMeters>
            <DistanceMeters>309079.6866761</DistanceMeters>
          </Trackpoint>
          <Trackpoint>
            <Time>2018-09-14T15:04:01.000Z</Time>
            <Position>
              <LatitudeDegrees>37.59927310980856418609619140625</LatitudeDegrees>
              <LongitudeDegrees>-8.08184235356748104095458984375</LongitudeDegrees>
            </Position>
            <AltitudeMeters>254.399993896484375</AltitudeMeters>
            <DistanceMeters>309084.1275867</DistanceMeters>
          </Trackpoint>
          <Trackpoint>
            <Time>2018-09-14T15:04:02.000Z</Time>
            <Position>
              <LatitudeDegrees>37.59923354722559452056884765625</LatitudeDegrees>
              <LongitudeDegrees>-8.0818431079387664794921875</LongitudeDegrees>
            </Position>
            <AltitudeMeters>254.600006103515625</AltitudeMeters>
            <DistanceMeters>309088.53174431</DistanceMeters>
          </Trackpoint>
          <Trackpoint>
            <Time>2018-09-14T15:04:03.000Z</Time>
            <Position>
              <LatitudeDegrees>37.59919348172843456268310546875</LatitudeDegrees>
              <LongitudeDegrees>-8.08184453286230564117431640625</LongitudeDegrees>
            </Position>
            <AltitudeMeters>254.8000030517578125</AltitudeMeters>
            <DistanceMeters>309092.99193022</DistanceMeters>
          </Trackpoint>
          <Trackpoint>
            <Time>2018-09-14T15:04:04.000Z</Time>
            <Position>
              <LatitudeDegrees>37.5991536676883697509765625</LatitudeDegrees>
              <LongitudeDegrees>-8.08184503577649593353271484375</LongitudeDegrees>
            </Position>
            <AltitudeMeters>254.8000030517578125</AltitudeMeters>
            <DistanceMeters>309097.42266224</DistanceMeters>
          </Trackpoint>
          <Trackpoint>
            <Time>2018-09-14T15:04:05.000Z</Time>
            <Position>
              <LatitudeDegrees>37.59911335073411464691162109375</LatitudeDegrees>
              <LongitudeDegrees>-8.081843443214893341064453125</LongitudeDegrees>
            </Position>
            <AltitudeMeters>254.600006103515625</AltitudeMeters>
            <DistanceMeters>309101.91210882</DistanceMeters>
          </Trackpoint>
          <Trackpoint>
            <Time>2018-09-14T15:04:06.000Z</Time>
            <Position>
              <LatitudeDegrees>37.5990723632276058197021484375</LatitudeDegrees>
              <LongitudeDegrees>-8.08184109628200531005859375</LongitudeDegrees>
            </Position>
            <AltitudeMeters>254.600006103515625</AltitudeMeters>
            <DistanceMeters>309106.47932642</DistanceMeters>
          </Trackpoint>
          <Trackpoint>
            <Time>2018-09-14T15:04:07.000Z</Time>
            <Position>
              <LatitudeDegrees>37.59903120808303356170654296875</LatitudeDegrees>
              <LongitudeDegrees>-8.08183782733976840972900390625</LongitudeDegrees>
            </Position>
            <AltitudeMeters>254.8000030517578125</AltitudeMeters>
            <DistanceMeters>309111.06824114</DistanceMeters>
          </Trackpoint>
          <Trackpoint>
            <Time>2018-09-14T15:04:08.000Z</Time>
            <Position>
              <LatitudeDegrees>37.59898963384330272674560546875</LatitudeDegrees>
              <LongitudeDegrees>-8.08183497749269008636474609375</LongitudeDegrees>
            </Position>
            <AltitudeMeters>254.8000030517578125</AltitudeMeters>
            <DistanceMeters>309115.70121984</DistanceMeters>
          </Trackpoint>
          <Trackpoint>
            <Time>2018-09-14T15:04:09.000Z</Time>
            <Position>
              <LatitudeDegrees>37.59894805960357189178466796875</LatitudeDegrees>
              <LongitudeDegrees>-8.08183372020721435546875</LongitudeDegrees>
            </Position>
            <AltitudeMeters>254.8000030517578125</AltitudeMeters>
            <DistanceMeters>309120.32932327</DistanceMeters>
          </Trackpoint>
          <Trackpoint>
            <Time>2018-09-14T15:04:10.000Z</Time>
            <Position>
              <LatitudeDegrees>37.59890623390674591064453125</LatitudeDegrees>
              <LongitudeDegrees>-8.0818298645317554473876953125</LongitudeDegrees>
            </Position>
            <AltitudeMeters>255</AltitudeMeters>
            <DistanceMeters>309124.99822084</DistanceMeters>
          </Trackpoint>
          <Trackpoint>
            <Time>2018-09-14T15:04:11.000Z</Time>
            <Position>
              <LatitudeDegrees>37.59886256419122219085693359375</LatitudeDegrees>
              <LongitudeDegrees>-8.0818234942853450775146484375</LongitudeDegrees>
            </Position>
            <AltitudeMeters>255</AltitudeMeters>
            <DistanceMeters>309129.89186598</DistanceMeters>
          </Trackpoint>
          <Trackpoint>
            <Time>2018-09-14T15:04:12.000Z</Time>
            <Position>
              <LatitudeDegrees>37.598818056285381317138671875</LatitudeDegrees>
              <LongitudeDegrees>-8.0818174593150615692138671875</LongitudeDegrees>
            </Position>
            <AltitudeMeters>255.1999969482421875</AltitudeMeters>
            <DistanceMeters>309134.8732965</DistanceMeters>
          </Trackpoint>
          <Trackpoint>
            <Time>2018-09-14T15:04:13.000Z</Time>
            <Position>
              <LatitudeDegrees>37.5987732969224452972412109375</LatitudeDegrees>
              <LongitudeDegrees>-8.0818127654492855072021484375</LongitudeDegrees>
            </Position>
            <AltitudeMeters>255.1999969482421875</AltitudeMeters>
            <DistanceMeters>309139.87191847</DistanceMeters>
          </Trackpoint>
          <Trackpoint>
            <Time>2018-09-14T15:04:14.000Z</Time>
            <Position>
              <LatitudeDegrees>37.5987276993691921234130859375</LatitudeDegrees>
              <LongitudeDegrees>-8.0818055570125579833984375</LongitudeDegrees>
            </Position>
            <AltitudeMeters>255.1999969482421875</AltitudeMeters>
            <DistanceMeters>309144.98573322</DistanceMeters>
          </Trackpoint>
          <Trackpoint>
            <Time>2018-09-14T15:04:15.000Z</Time>
            <Position>
              <LatitudeDegrees>37.59868050925433635711669921875</LatitudeDegrees>
              <LongitudeDegrees>-8.08179558254778385162353515625</LongitudeDegrees>
            </Position>
            <AltitudeMeters>255.399993896484375</AltitudeMeters>
            <DistanceMeters>309150.30977398</DistanceMeters>
          </Trackpoint>
          <Trackpoint>
            <Time>2018-09-14T15:04:16.000Z</Time>
            <Position>
              <LatitudeDegrees>37.59863222949206829071044921875</LatitudeDegrees>
              <LongitudeDegrees>-8.08178585954010486602783203125</LongitudeDegrees>
            </Position>
            <AltitudeMeters>255.600006103515625</AltitudeMeters>
            <DistanceMeters>309155.75207595</DistanceMeters>
          </Trackpoint>
          <Trackpoint>
            <Time>2018-09-14T15:04:17.000Z</Time>
            <Position>
              <LatitudeDegrees>37.59858361445367336273193359375</LatitudeDegrees>
              <LongitudeDegrees>-8.0817758850753307342529296875</LongitudeDegrees>
            </Position>
            <AltitudeMeters>255.600006103515625</AltitudeMeters>
            <DistanceMeters>309161.23323133</DistanceMeters>
          </Trackpoint>
          <Trackpoint>
            <Time>2018-09-14T15:04:18.000Z</Time>
            <Position>
              <LatitudeDegrees>37.59853550232946872711181640625</LatitudeDegrees>
              <LongitudeDegrees>-8.08176456950604915618896484375</LongitudeDegrees>
            </Position>
            <AltitudeMeters>255.8000030517578125</AltitudeMeters>
            <DistanceMeters>309166.68050874</DistanceMeters>
          </Trackpoint>
          <Trackpoint>
            <Time>2018-09-14T15:04:19.000Z</Time>
            <Position>
              <LatitudeDegrees>37.59848638437688350677490234375</LatitudeDegrees>
              <LongitudeDegrees>-8.08175199665129184722900390625</LongitudeDegrees>
            </Position>
            <AltitudeMeters>256</AltitudeMeters>
            <DistanceMeters>309172.25882779</DistanceMeters>
          </Trackpoint>
          <Trackpoint>
            <Time>2018-09-14T15:04:20.000Z</Time>
            <Position>
              <LatitudeDegrees>37.598436176776885986328125</LatitudeDegrees>
              <LongitudeDegrees>-8.0817393399775028228759765625</LongitudeDegrees>
            </Position>
            <AltitudeMeters>256</AltitudeMeters>
            <DistanceMeters>309177.95726222</DistanceMeters>
          </Trackpoint>
          <Trackpoint>
            <Time>2018-09-14T15:04:21.000Z</Time>
            <Position>
              <LatitudeDegrees>37.59838446043431758880615234375</LatitudeDegrees>
              <LongitudeDegrees>-8.08172618038952350616455078125</LongitudeDegrees>
            </Position>
            <AltitudeMeters>256.20001220703125</AltitudeMeters>
            <DistanceMeters>309183.82895975</DistanceMeters>
          </Trackpoint>
          <Trackpoint>
            <Time>2018-09-14T15:04:22.000Z</Time>
            <Position>
              <LatitudeDegrees>37.59833157062530517578125</LatitudeDegrees>
              <LongitudeDegrees>-8.08171235024929046630859375</LongitudeDegrees>
            </Position>
            <AltitudeMeters>256.20001220703125</AltitudeMeters>
            <DistanceMeters>309189.83897687</DistanceMeters>
          </Trackpoint>
          <Trackpoint>
            <Time>2018-09-14T15:04:23.000Z</Time>
            <Position>
              <LatitudeDegrees>37.59827868081629276275634765625</LatitudeDegrees>
              <LongitudeDegrees>-8.08169868774712085723876953125</LongitudeDegrees>
            </Position>
            <AltitudeMeters>256.20001220703125</AltitudeMeters>
            <DistanceMeters>309195.84749129</DistanceMeters>
          </Trackpoint>
          <Trackpoint>
            <Time>2018-09-14T15:04:24.000Z</Time>
            <Position>
              <LatitudeDegrees>37.59822553955018520355224609375</LatitudeDegrees>
              <LongitudeDegrees>-8.08168494142591953277587890625</LongitudeDegrees>
            </Position>
            <AltitudeMeters>256</AltitudeMeters>
            <DistanceMeters>309201.88449291</DistanceMeters>
          </Trackpoint>
          <Trackpoint>
            <Time>2018-09-14T15:04:25.000Z</Time>
            <Position>
              <LatitudeDegrees>37.598171643912792205810546875</LatitudeDegrees>
              <LongitudeDegrees>-8.08167069219052791595458984375</LongitudeDegrees>
            </Position>
            <AltitudeMeters>256</AltitudeMeters>
            <DistanceMeters>309208.01353182</DistanceMeters>
          </Trackpoint>
          <Trackpoint>
            <Time>2018-09-14T15:04:26.000Z</Time>
            <Position>
              <LatitudeDegrees>37.5981171615421772003173828125</LatitudeDegrees>
              <LongitudeDegrees>-8.08165594004094600677490234375</LongitudeDegrees>
            </Position>
            <AltitudeMeters>256</AltitudeMeters>
            <DistanceMeters>309214.21579961</DistanceMeters>
          </Trackpoint>
          <Trackpoint>
            <Time>2018-09-14T15:04:27.000Z</Time>
            <Position>
              <LatitudeDegrees>37.59806175716221332550048828125</LatitudeDegrees>
              <LongitudeDegrees>-8.0816419422626495361328125</LongitudeDegrees>
            </Position>
            <AltitudeMeters>255.8000030517578125</AltitudeMeters>
            <DistanceMeters>309220.50625229</DistanceMeters>
          </Trackpoint>
          <Trackpoint>
            <Time>2018-09-14T15:04:28.000Z</Time>
            <Position>
              <LatitudeDegrees>37.5980056822299957275390625</LatitudeDegrees>
              <LongitudeDegrees>-8.08162844739854335784912109375</LongitudeDegrees>
            </Position>
            <AltitudeMeters>255.8000030517578125</AltitudeMeters>
            <DistanceMeters>309226.86097509</DistanceMeters>
          </Trackpoint>
          <Trackpoint>
            <Time>2018-09-14T15:04:29.000Z</Time>
            <Position>
              <LatitudeDegrees>37.59794994257390499114990234375</LatitudeDegrees>
              <LongitudeDegrees>-8.0816142819821834564208984375</LongitudeDegrees>
            </Position>
            <AltitudeMeters>255.8000030517578125</AltitudeMeters>
            <DistanceMeters>309233.19006816</DistanceMeters>
          </Trackpoint>
          <Trackpoint>
            <Time>2018-09-14T15:04:30.000Z</Time>
            <Position>
              <LatitudeDegrees>37.59789504110813140869140625</LatitudeDegrees>
              <LongitudeDegrees>-8.08160045184195041656494140625</LongitudeDegrees>
            </Position>
            <AltitudeMeters>255.600006103515625</AltitudeMeters>
            <DistanceMeters>309239.42066192</DistanceMeters>
          </Trackpoint>
          <Trackpoint>
            <Time>2018-09-14T15:04:31.000Z</Time>
            <Position>
              <LatitudeDegrees>37.5978392176330089569091796875</LatitudeDegrees>
              <LongitudeDegrees>-8.08158569969236850738525390625</LongitudeDegrees>
            </Position>
            <AltitudeMeters>255.600006103515625</AltitudeMeters>
            <DistanceMeters>309245.76969817</DistanceMeters>
          </Trackpoint>
          <Trackpoint>
            <Time>2018-09-14T15:04:32.000Z</Time>
            <Position>
              <LatitudeDegrees>37.5977828912436962127685546875</LatitudeDegrees>
              <LongitudeDegrees>-8.08157111518085002899169921875</LongitudeDegrees>
            </Position>
            <AltitudeMeters>255.600006103515625</AltitudeMeters>
            <DistanceMeters>309252.169026</DistanceMeters>
          </Trackpoint>
          <Trackpoint>
            <Time>2018-09-14T15:04:33.000Z</Time>
            <Position>
              <LatitudeDegrees>37.59772614575922489166259765625</LatitudeDegrees>
              <LongitudeDegrees>-8.08155720122158527374267578125</LongitudeDegrees>
            </Position>
            <AltitudeMeters>255.399993896484375</AltitudeMeters>
            <DistanceMeters>309258.60283284</DistanceMeters>
          </Trackpoint>
          <Trackpoint>
            <Time>2018-09-14T15:04:34.000Z</Time>
            <Position>
              <LatitudeDegrees>37.597669064998626708984375</LatitudeDegrees>
              <LongitudeDegrees>-8.081541359424591064453125</LongitudeDegrees>
            </Position>
            <AltitudeMeters>255.399993896484375</AltitudeMeters>
            <DistanceMeters>309265.10782617</DistanceMeters>
          </Trackpoint>
          <Trackpoint>
            <Time>2018-09-14T15:04:35.000Z</Time>
            <Position>
              <LatitudeDegrees>37.5976122356951236724853515625</LatitudeDegrees>
              <LongitudeDegrees>-8.0815264396369457244873046875</LongitudeDegrees>
            </Position>
            <AltitudeMeters>255.1999969482421875</AltitudeMeters>
            <DistanceMeters>309271.56824514</DistanceMeters>
          </Trackpoint>
          <Trackpoint>
            <Time>2018-09-14T15:04:36.000Z</Time>
            <Position>
              <LatitudeDegrees>37.5975542329251766204833984375</LatitudeDegrees>
              <LongitudeDegrees>-8.081510178744792938232421875</LongitudeDegrees>
            </Position>
            <AltitudeMeters>255</AltitudeMeters>
            <DistanceMeters>309278.18131252</DistanceMeters>
          </Trackpoint>
          <Trackpoint>
            <Time>2018-09-14T15:04:37.000Z</Time>
            <Position>
              <LatitudeDegrees>37.59749530814588069915771484375</LatitudeDegrees>
              <LongitudeDegrees>-8.08149416930973529815673828125</LongitudeDegrees>
            </Position>
            <AltitudeMeters>255</AltitudeMeters>
            <DistanceMeters>309284.88995628</DistanceMeters>
          </Trackpoint>
          <Trackpoint>
            <Time>2018-09-14T15:04:38.000Z</Time>
            <Position>
              <LatitudeDegrees>37.5974345393478870391845703125</LatitudeDegrees>
              <LongitudeDegrees>-8.08147690258920192718505859375</LongitudeDegrees>
            </Position>
            <AltitudeMeters>255</AltitudeMeters>
            <DistanceMeters>309291.82300012</DistanceMeters>
          </Trackpoint>
          <Trackpoint>
            <Time>2018-09-14T15:04:39.000Z</Time>
            <Position>
              <LatitudeDegrees>37.5973731838166713714599609375</LatitudeDegrees>
              <LongitudeDegrees>-8.0814597196877002716064453125</LongitudeDegrees>
            </Position>
            <AltitudeMeters>255</AltitudeMeters>
            <DistanceMeters>309298.81763765</DistanceMeters>
          </Trackpoint>
          <Trackpoint>
            <Time>2018-09-14T15:04:40.000Z</Time>
            <Position>
              <LatitudeDegrees>37.5973111577332019805908203125</LatitudeDegrees>
              <LongitudeDegrees>-8.08144371025264263153076171875</LongitudeDegrees>
            </Position>
            <AltitudeMeters>255</AltitudeMeters>
            <DistanceMeters>309305.8643667</DistanceMeters>
          </Trackpoint>
          <Trackpoint>
            <Time>2018-09-14T15:04:41.000Z</Time>
            <Position>
              <LatitudeDegrees>37.5972487963736057281494140625</LatitudeDegrees>
              <LongitudeDegrees>-8.08142778463661670684814453125</LongitudeDegrees>
            </Position>
            <AltitudeMeters>254.8000030517578125</AltitudeMeters>
            <DistanceMeters>309312.94624813</DistanceMeters>
          </Trackpoint>
          <Trackpoint>
            <Time>2018-09-14T15:04:42.000Z</Time>
            <Position>
              <LatitudeDegrees>37.59718618355691432952880859375</LatitudeDegrees>
              <LongitudeDegrees>-8.08141118846833705902099609375</LongitudeDegrees>
            </Position>
            <AltitudeMeters>254.8000030517578125</AltitudeMeters>
            <DistanceMeters>309320.06691378</DistanceMeters>
          </Trackpoint>
          <Trackpoint>
            <Time>2018-09-14T15:04:43.000Z</Time>
            <Position>
              <LatitudeDegrees>37.5971232354640960693359375</LatitudeDegrees>
              <LongitudeDegrees>-8.08139442466199398040771484375</LongitudeDegrees>
            </Position>
            <AltitudeMeters>254.8000030517578125</AltitudeMeters>
            <DistanceMeters>309327.22741474</DistanceMeters>
          </Trackpoint>
          <Trackpoint>
            <Time>2018-09-14T15:04:44.000Z</Time>
            <Position>
              <LatitudeDegrees>37.5970603711903095245361328125</LatitudeDegrees>
              <LongitudeDegrees>-8.081379421055316925048828125</LongitudeDegrees>
            </Position>
            <AltitudeMeters>254.8000030517578125</AltitudeMeters>
            <DistanceMeters>309334.34871443</DistanceMeters>
          </Trackpoint>
          <Trackpoint>
            <Time>2018-09-14T15:04:45.000Z</Time>
            <Position>
              <LatitudeDegrees>37.59699591435492038726806640625</LatitudeDegrees>
              <LongitudeDegrees>-8.08136223815381526947021484375</LongitudeDegrees>
            </Position>
            <AltitudeMeters>254.8000030517578125</AltitudeMeters>
            <DistanceMeters>309341.68118163</DistanceMeters>
          </Trackpoint>
          <Trackpoint>
            <Time>2018-09-14T15:04:46.000Z</Time>
            <Position>
              <LatitudeDegrees>37.5969316251575946807861328125</LatitudeDegrees>
              <LongitudeDegrees>-8.0813457258045673370361328125</LongitudeDegrees>
            </Position>
            <AltitudeMeters>254.8000030517578125</AltitudeMeters>
            <DistanceMeters>309348.98403254</DistanceMeters>
          </Trackpoint>
          <Trackpoint>
            <Time>2018-09-14T15:04:47.000Z</Time>
            <Position>
              <LatitudeDegrees>37.5968672521412372589111328125</LatitudeDegrees>
              <LongitudeDegrees>-8.08132854290306568145751953125</LongitudeDegrees>
            </Position>
            <AltitudeMeters>254.8000030517578125</AltitudeMeters>
            <DistanceMeters>309356.30787402</DistanceMeters>
          </Trackpoint>
          <Trackpoint>
            <Time>2018-09-14T15:04:48.000Z</Time>
            <Position>
              <LatitudeDegrees>37.5968035496771335601806640625</LatitudeDegrees>
              <LongitudeDegrees>-8.0813093483448028564453125</LongitudeDegrees>
            </Position>
            <AltitudeMeters>254.8000030517578125</AltitudeMeters>
            <DistanceMeters>309363.5971106</DistanceMeters>
          </Trackpoint>
          <Trackpoint>
            <Time>2018-09-14T15:04:49.000Z</Time>
            <Position>
              <LatitudeDegrees>37.59673976339399814605712890625</LatitudeDegrees>
              <LongitudeDegrees>-8.08128998614847660064697265625</LongitudeDegrees>
            </Position>
            <AltitudeMeters>254.8000030517578125</AltitudeMeters>
            <DistanceMeters>309370.89872489</DistanceMeters>
          </Trackpoint>
          <Trackpoint>
            <Time>2018-09-14T15:04:50.000Z</Time>
            <Position>
              <LatitudeDegrees>37.59667958132922649383544921875</LatitudeDegrees>
              <LongitudeDegrees>-8.0812691152095794677734375</LongitudeDegrees>
            </Position>
            <AltitudeMeters>254.8000030517578125</AltitudeMeters>
            <DistanceMeters>309377.8454312</DistanceMeters>
          </Trackpoint>
          <Trackpoint>
            <Time>2018-09-14T15:04:51.000Z</Time>
            <Position>
              <LatitudeDegrees>37.5966171361505985260009765625</LatitudeDegrees>
              <LongitudeDegrees>-8.08125092647969722747802734375</LongitudeDegrees>
            </Position>
            <AltitudeMeters>254.8000030517578125</AltitudeMeters>
            <DistanceMeters>309384.9781341</DistanceMeters>
          </Trackpoint>
          <Trackpoint>
            <Time>2018-09-14T15:04:52.000Z</Time>
            <Position>
              <LatitudeDegrees>37.5965541042387485504150390625</LatitudeDegrees>
              <LongitudeDegrees>-8.08123332448303699493408203125</LongitudeDegrees>
            </Position>
            <AltitudeMeters>254.8000030517578125</AltitudeMeters>
            <DistanceMeters>309392.16318435</DistanceMeters>
          </Trackpoint>
          <Trackpoint>
            <Time>2018-09-14T15:04:53.000Z</Time>
            <Position>
              <LatitudeDegrees>37.59648947976529598236083984375</LatitudeDegrees>
              <LongitudeDegrees>-8.08121521957218647003173828125</LongitudeDegrees>
            </Position>
            <AltitudeMeters>254.8000030517578125</AltitudeMeters>
            <DistanceMeters>309399.53127905</DistanceMeters>
          </Trackpoint>
          <Trackpoint>
            <Time>2018-09-14T15:04:54.000Z</Time>
            <Position>
              <LatitudeDegrees>37.59642426855862140655517578125</LatitudeDegrees>
              <LongitudeDegrees>-8.08119761757552623748779296875</LongitudeDegrees>
            </Position>
            <AltitudeMeters>254.8000030517578125</AltitudeMeters>
            <DistanceMeters>309406.9531027</DistanceMeters>
          </Trackpoint>
          <Trackpoint>
            <Time>2018-09-14T15:04:55.000Z</Time>
            <Position>
              <LatitudeDegrees>37.59635721333324909210205078125</LatitudeDegrees>
              <LongitudeDegrees>-8.08118152432143688201904296875</LongitudeDegrees>
            </Position>
            <AltitudeMeters>254.8000030517578125</AltitudeMeters>
            <DistanceMeters>309414.55048703</DistanceMeters>
          </Trackpoint>
          <Trackpoint>
            <Time>2018-09-14T15:04:56.000Z</Time>
            <Position>
              <LatitudeDegrees>37.59629066102206707000732421875</LatitudeDegrees>
              <LongitudeDegrees>-8.08116442523896694183349609375</LongitudeDegrees>
            </Position>
            <AltitudeMeters>255</AltitudeMeters>
            <DistanceMeters>309422.10974121</DistanceMeters>
          </Trackpoint>
          <Trackpoint>
            <Time>2018-09-14T15:04:57.000Z</Time>
            <Position>
              <LatitudeDegrees>37.59622402489185333251953125</LatitudeDegrees>
              <LongitudeDegrees>-8.0811479128897190093994140625</LongitudeDegrees>
            </Position>
            <AltitudeMeters>255.1999969482421875</AltitudeMeters>
            <DistanceMeters>309429.66839808</DistanceMeters>
          </Trackpoint>
          <Trackpoint>
            <Time>2018-09-14T15:04:58.000Z</Time>
            <Position>
              <LatitudeDegrees>37.59615688584744930267333984375</LatitudeDegrees>
              <LongitudeDegrees>-8.08112972415983676910400390625</LongitudeDegrees>
            </Position>
            <AltitudeMeters>255.399993896484375</AltitudeMeters>
            <DistanceMeters>309437.31140563</DistanceMeters>
          </Trackpoint>
          <Trackpoint>
            <Time>2018-09-14T15:04:59.000Z</Time>
            <Position>
              <LatitudeDegrees>37.59609083645045757293701171875</LatitudeDegrees>
              <LongitudeDegrees>-8.08111245743930339813232421875</LongitudeDegrees>
            </Position>
            <AltitudeMeters>255.600006103515625</AltitudeMeters>
            <DistanceMeters>309444.81911748</DistanceMeters>
          </Trackpoint>
          <Trackpoint>
            <Time>2018-09-14T15:05:00.000Z</Time>
            <Position>
              <LatitudeDegrees>37.5960243679583072662353515625</LatitudeDegrees>
              <LongitudeDegrees>-8.081095106899738311767578125</LongitudeDegrees>
            </Position>
            <AltitudeMeters>255.8000030517578125</AltitudeMeters>
            <DistanceMeters>309452.37359186</DistanceMeters>
          </Trackpoint>
          <Trackpoint>
            <Time>2018-09-14T15:05:01.000Z</Time>
            <Position>
              <LatitudeDegrees>37.59595639072358608245849609375</LatitudeDegrees>
              <LongitudeDegrees>-8.081077672541141510009765625</LongitudeDegrees>
            </Position>
            <AltitudeMeters>256</AltitudeMeters>
            <DistanceMeters>309460.09476824</DistanceMeters>
          </Trackpoint>
          <Trackpoint>
            <Time>2018-09-14T15:05:02.000Z</Time>
            <Position>
              <LatitudeDegrees>37.59589000605046749114990234375</LatitudeDegrees>
              <LongitudeDegrees>-8.08105965144932270050048828125</LongitudeDegrees>
            </Position>
            <AltitudeMeters>256.20001220703125</AltitudeMeters>
            <DistanceMeters>309467.65282775</DistanceMeters>
          </Trackpoint>
          <Trackpoint>
            <Time>2018-09-14T15:05:03.000Z</Time>
            <Position>
              <LatitudeDegrees>37.5958215259015560150146484375</LatitudeDegrees>
              <LongitudeDegrees>-8.081041462719440460205078125</LongitudeDegrees>
            </Position>
            <AltitudeMeters>256.399993896484375</AltitudeMeters>
            <DistanceMeters>309475.44154097</DistanceMeters>
          </Trackpoint>
          <Trackpoint>
            <Time>2018-09-14T15:05:04.000Z</Time>
            <Position>
              <LatitudeDegrees>37.59575388394296169281005859375</LatitudeDegrees>
              <LongitudeDegrees>-8.0810238607227802276611328125</LongitudeDegrees>
            </Position>
            <AltitudeMeters>256.399993896484375</AltitudeMeters>
            <DistanceMeters>309483.12872642</DistanceMeters>
          </Trackpoint>
          <Trackpoint>
            <Time>2018-09-14T15:05:05.000Z</Time>
            <Position>
              <LatitudeDegrees>37.59568599052727222442626953125</LatitudeDegrees>
              <LongitudeDegrees>-8.081006594002246856689453125</LongitudeDegrees>
            </Position>
            <AltitudeMeters>256.399993896484375</AltitudeMeters>
            <DistanceMeters>309490.83819872</DistanceMeters>
          </Trackpoint>
          <Trackpoint>
            <Time>2018-09-14T15:05:06.000Z</Time>
            <Position>
              <LatitudeDegrees>37.59561642073094844818115234375</LatitudeDegrees>
              <LongitudeDegrees>-8.08098974637687206268310546875</LongitudeDegrees>
            </Position>
            <AltitudeMeters>256.399993896484375</AltitudeMeters>
            <DistanceMeters>309498.72255325</DistanceMeters>
          </Trackpoint>
          <Trackpoint>
            <Time>2018-09-14T15:05:07.000Z</Time>
            <Position>
              <LatitudeDegrees>37.59554886259138584136962890625</LatitudeDegrees>
              <LongitudeDegrees>-8.08097398839890956878662109375</LongitudeDegrees>
            </Position>
            <AltitudeMeters>256.399993896484375</AltitudeMeters>
            <DistanceMeters>309506.36910443</DistanceMeters>
          </Trackpoint>
          <Trackpoint>
            <Time>2018-09-14T15:05:08.000Z</Time>
            <Position>
              <LatitudeDegrees>37.59548239409923553466796875</LatitudeDegrees>
              <LongitudeDegrees>-8.0809544585645198822021484375</LongitudeDegrees>
            </Position>
            <AltitudeMeters>256.399993896484375</AltitudeMeters>
            <DistanceMeters>309513.96411123</DistanceMeters>
          </Trackpoint>
          <Trackpoint>
            <Time>2018-09-14T15:05:09.000Z</Time>
            <Position>
              <LatitudeDegrees>37.59541609324514865875244140625</LatitudeDegrees>
              <LongitudeDegrees>-8.08093585073947906494140625</LongitudeDegrees>
            </Position>
            <AltitudeMeters>256.399993896484375</AltitudeMeters>
            <DistanceMeters>309521.52336541</DistanceMeters>
          </Trackpoint>
          <Trackpoint>
            <Time>2018-09-14T15:05:10.000Z</Time>
            <Position>
              <LatitudeDegrees>37.5953504629433155059814453125</LatitudeDegrees>
              <LongitudeDegrees>-8.08091950602829456329345703125</LongitudeDegrees>
            </Position>
            <AltitudeMeters>256.399993896484375</AltitudeMeters>
            <DistanceMeters>309528.96948315</DistanceMeters>
          </Trackpoint>
          <Trackpoint>
            <Time>2018-09-14T15:05:11.000Z</Time>
            <Position>
              <LatitudeDegrees>37.59528458118438720703125</LatitudeDegrees>
              <LongitudeDegrees>-8.08090324513614177703857421875</LongitudeDegrees>
            </Position>
            <AltitudeMeters>256.399993896484375</AltitudeMeters>
            <DistanceMeters>309536.44102466</DistanceMeters>
          </Trackpoint>
          <Trackpoint>
            <Time>2018-09-14T15:05:12.000Z</Time>
            <Position>
              <LatitudeDegrees>37.59521878324449062347412109375</LatitudeDegrees>
              <LongitudeDegrees>-8.08088614605367183685302734375</LongitudeDegrees>
            </Position>
            <AltitudeMeters>256.399993896484375</AltitudeMeters>
            <DistanceMeters>309543.91739899</DistanceMeters>
          </Trackpoint>
          <Trackpoint>
            <Time>2018-09-14T15:05:13.000Z</Time>
            <Position>
              <LatitudeDegrees>37.5951539911329746246337890625</LatitudeDegrees>
              <LongitudeDegrees>-8.080869801342487335205078125</LongitudeDegrees>
            </Position>
            <AltitudeMeters>256.399993896484375</AltitudeMeters>
            <DistanceMeters>309551.27200013</DistanceMeters>
          </Trackpoint>
          <Trackpoint>
            <Time>2018-09-14T15:05:14.000Z</Time>
            <Position>
              <LatitudeDegrees>37.5950889475643634796142578125</LatitudeDegrees>
              <LongitudeDegrees>-8.08085270226001739501953125</LongitudeDegrees>
            </Position>
            <AltitudeMeters>256.20001220703125</AltitudeMeters>
            <DistanceMeters>309558.66639753</DistanceMeters>
          </Trackpoint>
          <Trackpoint>
            <Time>2018-09-14T15:05:15.000Z</Time>
            <Position>
              <LatitudeDegrees>37.59502365253865718841552734375</LatitudeDegrees>
              <LongitudeDegrees>-8.08083669282495975494384765625</LongitudeDegrees>
            </Position>
            <AltitudeMeters>256</AltitudeMeters>
            <DistanceMeters>309566.06933843</DistanceMeters>
          </Trackpoint>
          <Trackpoint>
            <Time>2018-09-14T15:05:16.000Z</Time>
            <Position>
              <LatitudeDegrees>37.5949588604271411895751953125</LatitudeDegrees>
              <LongitudeDegrees>-8.0808211863040924072265625</LongitudeDegrees>
            </Position>
            <AltitudeMeters>256</AltitudeMeters>
            <DistanceMeters>309573.40919102</DistanceMeters>
          </Trackpoint>
          <Trackpoint>
            <Time>2018-09-14T15:05:17.000Z</Time>
            <Position>
              <LatitudeDegrees>37.59489473886787891387939453125</LatitudeDegrees>
              <LongitudeDegrees>-8.0808042548596858978271484375</LongitudeDegrees>
            </Position>
            <AltitudeMeters>255.8000030517578125</AltitudeMeters>
            <DistanceMeters>309580.70090482</DistanceMeters>
          </Trackpoint>
          <Trackpoint>
            <Time>2018-09-14T15:05:18.000Z</Time>
            <Position>
              <LatitudeDegrees>37.59482936002314090728759765625</LatitudeDegrees>
              <LongitudeDegrees>-8.0807874910533428192138671875</LongitudeDegrees>
            </Position>
            <AltitudeMeters>255.8000030517578125</AltitudeMeters>
            <DistanceMeters>309588.12637765</DistanceMeters>
          </Trackpoint>
          <Trackpoint>
            <Time>2018-09-14T15:05:19.000Z</Time>
            <Position>
              <LatitudeDegrees>37.594764232635498046875</LatitudeDegrees>
              <LongitudeDegrees>-8.0807707272469997406005859375</LongitudeDegrees>
            </Position>
            <AltitudeMeters>255.600006103515625</AltitudeMeters>
            <DistanceMeters>309595.52443775</DistanceMeters>
          </Trackpoint>
          <Trackpoint>
            <Time>2018-09-14T15:05:20.000Z</Time>
            <Position>
              <LatitudeDegrees>37.59469784796237945556640625</LatitudeDegrees>
              <LongitudeDegrees>-8.0807542987167835235595703125</LongitudeDegrees>
            </Position>
            <AltitudeMeters>255.600006103515625</AltitudeMeters>
            <DistanceMeters>309603.05376839</DistanceMeters>
          </Trackpoint>
          <Trackpoint>
            <Time>2018-09-14T15:05:21.000Z</Time>
            <Position>
              <LatitudeDegrees>37.5946309603750705718994140625</LatitudeDegrees>
              <LongitudeDegrees>-8.08073812164366245269775390625</LongitudeDegrees>
            </Position>
            <AltitudeMeters>255.600006103515625</AltitudeMeters>
            <DistanceMeters>309610.6333031</DistanceMeters>
          </Trackpoint>
          <Trackpoint>
            <Time>2018-09-14T15:05:22.000Z</Time>
            <Position>
              <LatitudeDegrees>37.5945635698735713958740234375</LatitudeDegrees>
              <LongitudeDegrees>-8.0807211063802242279052734375</LongitudeDegrees>
            </Position>
            <AltitudeMeters>255.399993896484375</AltitudeMeters>
            <DistanceMeters>309618.28162548</DistanceMeters>
          </Trackpoint>
          <Trackpoint>
            <Time>2018-09-14T15:05:23.000Z</Time>
            <Position>
              <LatitudeDegrees>37.59449492208659648895263671875</LatitudeDegrees>
              <LongitudeDegrees>-8.0807043425738811492919921875</LongitudeDegrees>
            </Position>
            <AltitudeMeters>255.399993896484375</AltitudeMeters>
            <DistanceMeters>309626.06395949</DistanceMeters>
          </Trackpoint>
          <Trackpoint>
            <Time>2018-09-14T15:05:24.000Z</Time>
            <Position>
              <LatitudeDegrees>37.59442451409995555877685546875</LatitudeDegrees>
              <LongitudeDegrees>-8.08068640530109405517578125</LongitudeDegrees>
            </Position>
            <AltitudeMeters>255.1999969482421875</AltitudeMeters>
            <DistanceMeters>309634.05863779</DistanceMeters>
          </Trackpoint>
          <Trackpoint>
            <Time>2018-09-14T15:05:25.000Z</Time>
            <Position>
              <LatitudeDegrees>37.59435159154236316680908203125</LatitudeDegrees>
              <LongitudeDegrees>-8.0806664563715457916259765625</LongitudeDegrees>
            </Position>
            <AltitudeMeters>255.1999969482421875</AltitudeMeters>
            <DistanceMeters>309642.36355945</DistanceMeters>
          </Trackpoint>
          <Trackpoint>
            <Time>2018-09-14T15:05:26.000Z</Time>
            <Position>
              <LatitudeDegrees>37.5942779146134853363037109375</LatitudeDegrees>
              <LongitudeDegrees>-8.080645166337490081787109375</LongitudeDegrees>
            </Position>
            <AltitudeMeters>255.1999969482421875</AltitudeMeters>
            <DistanceMeters>309650.77651014</DistanceMeters>
          </Trackpoint>
          <Trackpoint>
            <Time>2018-09-14T15:05:27.000Z</Time>
            <Position>
              <LatitudeDegrees>37.59420189075171947479248046875</LatitudeDegrees>
              <LongitudeDegrees>-8.08062479831278324127197265625</LongitudeDegrees>
            </Position>
            <AltitudeMeters>255</AltitudeMeters>
            <DistanceMeters>309659.42655137</DistanceMeters>
          </Trackpoint>
          <Trackpoint>
            <Time>2018-09-14T15:05:28.000Z</Time>
            <Position>
              <LatitudeDegrees>37.59412360377609729766845703125</LatitudeDegrees>
              <LongitudeDegrees>-8.0806054361164569854736328125</LongitudeDegrees>
            </Position>
            <AltitudeMeters>254.8000030517578125</AltitudeMeters>
            <DistanceMeters>309668.30583048</DistanceMeters>
          </Trackpoint>
          <Trackpoint>
            <Time>2018-09-14T15:05:29.000Z</Time>
            <Position>
              <LatitudeDegrees>37.5940435566008090972900390625</LatitudeDegrees>
              <LongitudeDegrees>-8.0805876664817333221435546875</LongitudeDegrees>
            </Position>
            <AltitudeMeters>254.600006103515625</AltitudeMeters>
            <DistanceMeters>309677.35185462</DistanceMeters>
          </Trackpoint>
          <Trackpoint>
            <Time>2018-09-14T15:05:30.000Z</Time>
            <Position>
              <LatitudeDegrees>37.59396166540682315826416015625</LatitudeDegrees>
              <LongitudeDegrees>-8.08056796900928020477294921875</LongitudeDegrees>
            </Position>
            <AltitudeMeters>254.399993896484375</AltitudeMeters>
            <DistanceMeters>309686.62998583</DistanceMeters>
          </Trackpoint>
          <Trackpoint>
            <Time>2018-09-14T15:05:31.000Z</Time>
            <Position>
              <LatitudeDegrees>37.59387868456542491912841796875</LatitudeDegrees>
              <LongitudeDegrees>-8.08054382912814617156982421875</LongitudeDegrees>
            </Position>
            <AltitudeMeters>254.1999969482421875</AltitudeMeters>
            <DistanceMeters>309696.10839448</DistanceMeters>
          </Trackpoint>
          <Trackpoint>
            <Time>2018-09-14T15:05:32.000Z</Time>
            <Position>
              <LatitudeDegrees>37.5937957875430583953857421875</LatitudeDegrees>
              <LongitudeDegrees>-8.08051885105669498443603515625</LongitudeDegrees>
            </Position>
            <AltitudeMeters>254</AltitudeMeters>
            <DistanceMeters>309705.59394568</DistanceMeters>
          </Trackpoint>
          <Trackpoint>
            <Time>2018-09-14T15:05:33.000Z</Time>
            <Position>
              <LatitudeDegrees>37.5937109626829624176025390625</LatitudeDegrees>
              <LongitudeDegrees>-8.08049521408975124359130859375</LongitudeDegrees>
            </Position>
            <AltitudeMeters>254</AltitudeMeters>
            <DistanceMeters>309715.26241771</DistanceMeters>
          </Trackpoint>
          <Trackpoint>
            <Time>2018-09-14T15:05:34.000Z</Time>
            <Position>
              <LatitudeDegrees>37.593623958528041839599609375</LatitudeDegrees>
              <LongitudeDegrees>-8.08047325350344181060791015625</LongitudeDegrees>
            </Position>
            <AltitudeMeters>254</AltitudeMeters>
            <DistanceMeters>309725.13834074</DistanceMeters>
          </Trackpoint>
          <Trackpoint>
            <Time>2018-09-14T15:05:35.000Z</Time>
            <Position>
              <LatitudeDegrees>37.59353569708764553070068359375</LatitudeDegrees>
              <LongitudeDegrees>-8.08045146055519580841064453125</LongitudeDegrees>
            </Position>
            <AltitudeMeters>254.1999969482421875</AltitudeMeters>
            <DistanceMeters>309735.14822227</DistanceMeters>
          </Trackpoint>
          <Trackpoint>
            <Time>2018-09-14T15:05:36.000Z</Time>
            <Position>
              <LatitudeDegrees>37.59344793856143951416015625</LatitudeDegrees>
              <LongitudeDegrees>-8.08043017052114009857177734375</LongitudeDegrees>
            </Position>
            <AltitudeMeters>254.1999969482421875</AltitudeMeters>
            <DistanceMeters>309745.09475521</DistanceMeters>
          </Trackpoint>
          <Trackpoint>
            <Time>2018-09-14T15:05:37.000Z</Time>
            <Position>
              <LatitudeDegrees>37.5933599285781383514404296875</LatitudeDegrees>
              <LongitudeDegrees>-8.08040921576321125030517578125</LongitudeDegrees>
            </Position>
            <AltitudeMeters>254.1999969482421875</AltitudeMeters>
            <DistanceMeters>309755.06305302</DistanceMeters>
          </Trackpoint>
          <Trackpoint>
            <Time>2018-09-14T15:05:38.000Z</Time>
            <Position>
              <LatitudeDegrees>37.59327317588031291961669921875</LatitudeDegrees>
              <LongitudeDegrees>-8.0803881771862506866455078125</LongitudeDegrees>
            </Position>
            <AltitudeMeters>254.399993896484375</AltitudeMeters>
            <DistanceMeters>309764.89544837</DistanceMeters>
          </Trackpoint>
          <Trackpoint>
            <Time>2018-09-14T15:05:39.000Z</Time>
            <Position>
              <LatitudeDegrees>37.59318600408732891082763671875</LatitudeDegrees>
              <LongitudeDegrees>-8.080366551876068115234375</LongitudeDegrees>
            </Position>
            <AltitudeMeters>254.8000030517578125</AltitudeMeters>
            <DistanceMeters>309774.78370746</DistanceMeters>
          </Trackpoint>
          <Trackpoint>
            <Time>2018-09-14T15:05:40.000Z</Time>
            <Position>
              <LatitudeDegrees>37.59309983812272548675537109375</LatitudeDegrees>
              <LongitudeDegrees>-8.08034551329910755157470703125</LongitudeDegrees>
            </Position>
            <AltitudeMeters>255</AltitudeMeters>
            <DistanceMeters>309784.55160322</DistanceMeters>
          </Trackpoint>
          <Trackpoint>
            <Time>2018-09-14T15:05:41.000Z</Time>
            <Position>
              <LatitudeDegrees>37.59301752783358097076416015625</LatitudeDegrees>
              <LongitudeDegrees>-8.0803241394460201263427734375</LongitudeDegrees>
            </Position>
            <AltitudeMeters>254.8000030517578125</AltitudeMeters>
            <DistanceMeters>309793.9048583</DistanceMeters>
          </Trackpoint>
          <Trackpoint>
            <Time>2018-09-14T15:05:42.000Z</Time>
            <Position>
              <LatitudeDegrees>37.59293639101088047027587890625</LatitudeDegrees>
              <LongitudeDegrees>-8.08030377142131328582763671875</LongitudeDegrees>
            </Position>
            <AltitudeMeters>254.8000030517578125</AltitudeMeters>
            <DistanceMeters>309803.11215745</DistanceMeters>
          </Trackpoint>
          <Trackpoint>
            <Time>2018-09-14T15:05:43.000Z</Time>
            <Position>
              <LatitudeDegrees>37.5928576849400997161865234375</LatitudeDegrees>
              <LongitudeDegrees>-8.08028533123433589935302734375</LongitudeDegrees>
            </Position>
            <AltitudeMeters>254.600006103515625</AltitudeMeters>
            <DistanceMeters>309812.02189382</DistanceMeters>
          </Trackpoint>
          <Trackpoint>
            <Time>2018-09-14T15:05:44.000Z</Time>
            <Position>
              <LatitudeDegrees>37.59277881123125553131103515625</LatitudeDegrees>
              <LongitudeDegrees>-8.08026932179927825927734375</LongitudeDegrees>
            </Position>
            <AltitudeMeters>254.600006103515625</AltitudeMeters>
            <DistanceMeters>309820.91387612</DistanceMeters>
          </Trackpoint>
          <Trackpoint>
            <Time>2018-09-14T15:05:45.000Z</Time>
            <Position>
              <LatitudeDegrees>37.5927011109888553619384765625</LatitudeDegrees>
              <LongitudeDegrees>-8.08025532402098178863525390625</LongitudeDegrees>
            </Position>
            <AltitudeMeters>254.399993896484375</AltitudeMeters>
            <DistanceMeters>309829.65013425</DistanceMeters>
          </Trackpoint>
          <Trackpoint>
            <Time>2018-09-14T15:05:46.000Z</Time>
            <Position>
              <LatitudeDegrees>37.592624835669994354248046875</LatitudeDegrees>
              <LongitudeDegrees>-8.08024090714752674102783203125</LongitudeDegrees>
            </Position>
            <AltitudeMeters>254.399993896484375</AltitudeMeters>
            <DistanceMeters>309838.23468164</DistanceMeters>
          </Trackpoint>
          <Trackpoint>
            <Time>2018-09-14T15:05:47.000Z</Time>
            <Position>
              <LatitudeDegrees>37.59254847653210163116455078125</LatitudeDegrees>
              <LongitudeDegrees>-8.08022447861731052398681640625</LongitudeDegrees>
            </Position>
            <AltitudeMeters>254.1999969482421875</AltitudeMeters>
            <DistanceMeters>309846.85596688</DistanceMeters>
          </Trackpoint>
          <Trackpoint>
            <Time>2018-09-14T15:05:48.000Z</Time>
            <Position>
              <LatitudeDegrees>37.5924711115658283233642578125</LatitudeDegrees>
              <LongitudeDegrees>-8.0802067928016185760498046875</LongitudeDegrees>
            </Position>
            <AltitudeMeters>254.1999969482421875</AltitudeMeters>
            <DistanceMeters>309855.60668389</DistanceMeters>
          </Trackpoint>
          <Trackpoint>
            <Time>2018-09-14T15:05:49.000Z</Time>
            <Position>
              <LatitudeDegrees>37.5923970155417919158935546875</LatitudeDegrees>
              <LongitudeDegrees>-8.0801906995475292205810546875</LongitudeDegrees>
            </Position>
            <AltitudeMeters>254.399993896484375</AltitudeMeters>
            <DistanceMeters>309863.97497182</DistanceMeters>
          </Trackpoint>
          <Trackpoint>
            <Time>2018-09-14T15:05:50.000Z</Time>
            <Position>
              <LatitudeDegrees>37.59232501499354839324951171875</LatitudeDegrees>
              <LongitudeDegrees>-8.08017410337924957275390625</LongitudeDegrees>
            </Position>
            <AltitudeMeters>254.600006103515625</AltitudeMeters>
            <DistanceMeters>309872.12126127</DistanceMeters>
          </Trackpoint>
          <Trackpoint>
            <Time>2018-09-14T15:05:51.000Z</Time>
            <Position>
              <LatitudeDegrees>37.5922541879117488861083984375</LatitudeDegrees>
              <LongitudeDegrees>-8.08015608228743076324462890625</LongitudeDegrees>
            </Position>
            <AltitudeMeters>255</AltitudeMeters>
            <DistanceMeters>309880.1632391</DistanceMeters>
          </Trackpoint>
          <Trackpoint>
            <Time>2018-09-14T15:05:52.000Z</Time>
            <Position>
              <LatitudeDegrees>37.59218503721058368682861328125</LatitudeDegrees>
              <LongitudeDegrees>-8.08013982139527797698974609375</LongitudeDegrees>
            </Position>
            <AltitudeMeters>255.1999969482421875</AltitudeMeters>
            <DistanceMeters>309887.99242545</DistanceMeters>
          </Trackpoint>
          <Trackpoint>
            <Time>2018-09-14T15:05:53.000Z</Time>
            <Position>
              <LatitudeDegrees>37.5921170599758625030517578125</LatitudeDegrees>
              <LongitudeDegrees>-8.08012439869344234466552734375</LongitudeDegrees>
            </Position>
            <AltitudeMeters>255.399993896484375</AltitudeMeters>
            <DistanceMeters>309895.67961091</DistanceMeters>
          </Trackpoint>
          <Trackpoint>
            <Time>2018-09-14T15:05:54.000Z</Time>
            <Position>
              <LatitudeDegrees>37.59205092675983905792236328125</LatitudeDegrees>
              <LongitudeDegrees>-8.080108053982257843017578125</LongitudeDegrees>
            </Position>
            <AltitudeMeters>255.600006103515625</AltitudeMeters>
            <DistanceMeters>309903.18010264</DistanceMeters>
          </Trackpoint>
          <Trackpoint>
            <Time>2018-09-14T15:05:55.000Z</Time>
            <Position>
              <LatitudeDegrees>37.591986469924449920654296875</LatitudeDegrees>
              <LongitudeDegrees>-8.08009305037558078765869140625</LongitudeDegrees>
            </Position>
            <AltitudeMeters>256</AltitudeMeters>
            <DistanceMeters>309910.4755307</DistanceMeters>
          </Trackpoint>
          <Trackpoint>
            <Time>2018-09-14T15:05:56.000Z</Time>
            <Position>
              <LatitudeDegrees>37.59192234836518764495849609375</LatitudeDegrees>
              <LongitudeDegrees>-8.08007980696856975555419921875</LongitudeDegrees>
            </Position>
            <AltitudeMeters>256.20001220703125</AltitudeMeters>
            <DistanceMeters>309917.70755689</DistanceMeters>
          </Trackpoint>
          <Trackpoint>
            <Time>2018-09-14T15:05:57.000Z</Time>
            <Position>
              <LatitudeDegrees>37.5918602384626865386962890625</LatitudeDegrees>
              <LongitudeDegrees>-8.08006572537124156951904296875</LongitudeDegrees>
            </Position>
            <AltitudeMeters>256.399993896484375</AltitudeMeters>
            <DistanceMeters>309924.73182466</DistanceMeters>
          </Trackpoint>
          <Trackpoint>
            <Time>2018-09-14T15:05:58.000Z</Time>
            <Position>
              <LatitudeDegrees>37.591800391674041748046875</LatitudeDegrees>
              <LongitudeDegrees>-8.08005114085972309112548828125</LongitudeDegrees>
            </Position>
            <AltitudeMeters>256.600006103515625</AltitudeMeters>
            <DistanceMeters>309931.51542765</DistanceMeters>
          </Trackpoint>
          <Trackpoint>
            <Time>2018-09-14T15:05:59.000Z</Time>
            <Position>
              <LatitudeDegrees>37.59174180217087268829345703125</LatitudeDegrees>
              <LongitudeDegrees>-8.08003722690045833587646484375</LongitudeDegrees>
            </Position>
            <AltitudeMeters>257</AltitudeMeters>
            <DistanceMeters>309938.15098737</DistanceMeters>
          </Trackpoint>
          <Trackpoint>
            <Time>2018-09-14T15:06:00.000Z</Time>
            <Position>
              <LatitudeDegrees>37.59168438613414764404296875</LatitudeDegrees>
              <LongitudeDegrees>-8.08002389967441558837890625</LongitudeDegrees>
            </Position>
            <AltitudeMeters>257</AltitudeMeters>
            <DistanceMeters>309944.64903611</DistanceMeters>
          </Trackpoint>
          <Trackpoint>
            <Time>2018-09-14T15:06:01.000Z</Time>
            <Position>
              <LatitudeDegrees>37.5916292332112789154052734375</LatitudeDegrees>
              <LongitudeDegrees>-8.08001141063868999481201171875</LongitudeDegrees>
            </Position>
            <AltitudeMeters>256.79998779296875</AltitudeMeters>
            <DistanceMeters>309950.88614837</DistanceMeters>
          </Trackpoint>
          <Trackpoint>
            <Time>2018-09-14T15:06:02.000Z</Time>
            <Position>
              <LatitudeDegrees>37.59157466702163219451904296875</LatitudeDegrees>
              <LongitudeDegrees>-8.07999883778393268585205078125</LongitudeDegrees>
            </Position>
            <AltitudeMeters>256.79998779296875</AltitudeMeters>
            <DistanceMeters>309957.06069149</DistanceMeters>
          </Trackpoint>
          <Trackpoint>
            <Time>2018-09-14T15:06:03.000Z</Time>
            <Position>
              <LatitudeDegrees>37.5915206037461757659912109375</LatitudeDegrees>
              <LongitudeDegrees>-8.0799848400056362152099609375</LongitudeDegrees>
            </Position>
            <AltitudeMeters>256.79998779296875</AltitudeMeters>
            <DistanceMeters>309963.20371106</DistanceMeters>
          </Trackpoint>
          <Trackpoint>
            <Time>2018-09-14T15:06:04.000Z</Time>
            <Position>
              <LatitudeDegrees>37.59146721102297306060791015625</LatitudeDegrees>
              <LongitudeDegrees>-8.07997151277959346771240234375</LongitudeDegrees>
            </Position>
            <AltitudeMeters>256.79998779296875</AltitudeMeters>
            <DistanceMeters>309969.26161752</DistanceMeters>
          </Trackpoint>
          <Trackpoint>
            <Time>2018-09-14T15:06:05.000Z</Time>
            <Position>
              <LatitudeDegrees>37.59141507558524608612060546875</LatitudeDegrees>
              <LongitudeDegrees>-8.07995893992483615875244140625</LongitudeDegrees>
            </Position>
            <AltitudeMeters>256.79998779296875</AltitudeMeters>
            <DistanceMeters>309975.16858081</DistanceMeters>
          </Trackpoint>
          <Trackpoint>
            <Time>2018-09-14T15:06:06.000Z</Time>
            <Position>
              <LatitudeDegrees>37.5913640297949314117431640625</LatitudeDegrees>
              <LongitudeDegrees>-8.07994686998426914215087890625</LongitudeDegrees>
            </Position>
            <AltitudeMeters>256.79998779296875</AltitudeMeters>
            <DistanceMeters>309980.94961125</DistanceMeters>
          </Trackpoint>
          <Trackpoint>
            <Time>2018-09-14T15:06:07.000Z</Time>
            <Position>
              <LatitudeDegrees>37.591313235461711883544921875</LatitudeDegrees>
              <LongitudeDegrees>-8.0799345485866069793701171875</LongitudeDegrees>
            </Position>
            <AltitudeMeters>256.79998779296875</AltitudeMeters>
            <DistanceMeters>309986.70637949</DistanceMeters>
          </Trackpoint>
          <Trackpoint>
            <Time>2018-09-14T15:06:08.000Z</Time>
            <Position>
              <LatitudeDegrees>37.59126319549977779388427734375</LatitudeDegrees>
              <LongitudeDegrees>-8.07992063462734222412109375</LongitudeDegrees>
            </Position>
            <AltitudeMeters>256.79998779296875</AltitudeMeters>
            <DistanceMeters>309992.40956591</DistanceMeters>
          </Trackpoint>
          <Trackpoint>
            <Time>2018-09-14T15:06:09.000Z</Time>
            <Position>
              <LatitudeDegrees>37.591214664280414581298828125</LatitudeDegrees>
              <LongitudeDegrees>-8.07990630157291889190673828125</LongitudeDegrees>
            </Position>
            <AltitudeMeters>256.79998779296875</AltitudeMeters>
            <DistanceMeters>309997.95785669</DistanceMeters>
          </Trackpoint>
          <Trackpoint>
            <Time>2018-09-14T15:06:10.000Z</Time>
            <Position>
              <LatitudeDegrees>37.5911662168800830841064453125</LatitudeDegrees>
              <LongitudeDegrees>-8.07989356108009815216064453125</LongitudeDegrees>
            </Position>
            <AltitudeMeters>256.79998779296875</AltitudeMeters>
            <DistanceMeters>310003.46612837</DistanceMeters>
          </Trackpoint>
          <Trackpoint>
            <Time>2018-09-14T15:06:11.000Z</Time>
            <Position>
              <LatitudeDegrees>37.59111751802265644073486328125</LatitudeDegrees>
              <LongitudeDegrees>-8.0798832513391971588134765625</LongitudeDegrees>
            </Position>
            <AltitudeMeters>256.79998779296875</AltitudeMeters>
            <DistanceMeters>310008.96209104</DistanceMeters>
          </Trackpoint>
          <Trackpoint>
            <Time>2018-09-14T15:06:12.000Z</Time>
            <Position>
              <LatitudeDegrees>37.5910696573555469512939453125</LatitudeDegrees>
              <LongitudeDegrees>-8.079872019588947296142578125</LongitudeDegrees>
            </Position>
            <AltitudeMeters>256.79998779296875</AltitudeMeters>
            <DistanceMeters>310014.38111389</DistanceMeters>
          </Trackpoint>
          <Trackpoint>
            <Time>2018-09-14T15:06:13.000Z</Time>
            <Position>
              <LatitudeDegrees>37.59102263487875461578369140625</LatitudeDegrees>
              <LongitudeDegrees>-8.07986103929579257965087890625</LongitudeDegrees>
            </Position>
            <AltitudeMeters>256.600006103515625</AltitudeMeters>
            <DistanceMeters>310019.70430653</DistanceMeters>
          </Trackpoint>
          <Trackpoint>
            <Time>2018-09-14T15:06:14.000Z</Time>
            <Position>
              <LatitudeDegrees>37.5909761153161525726318359375</LatitudeDegrees>
              <LongitudeDegrees>-8.0798517353832721710205078125</LongitudeDegrees>
            </Position>
            <AltitudeMeters>256.600006103515625</AltitudeMeters>
            <DistanceMeters>310024.94716383</DistanceMeters>
          </Trackpoint>
          <Trackpoint>
            <Time>2018-09-14T15:06:15.000Z</Time>
            <Position>
              <LatitudeDegrees>37.5909301824867725372314453125</LatitudeDegrees>
              <LongitudeDegrees>-8.07984075509011745452880859375</LongitudeDegrees>
            </Position>
            <AltitudeMeters>256.399993896484375</AltitudeMeters>
            <DistanceMeters>310030.1502561</DistanceMeters>
          </Trackpoint>
          <Trackpoint>
            <Time>2018-09-14T15:06:16.000Z</Time>
            <Position>
              <LatitudeDegrees>37.590884082019329071044921875</LatitudeDegrees>
              <LongitudeDegrees>-8.07982918806374073028564453125</LongitudeDegrees>
            </Position>
            <AltitudeMeters>256.399993896484375</AltitudeMeters>
            <DistanceMeters>310035.38276905</DistanceMeters>
          </Trackpoint>
          <Trackpoint>
            <Time>2018-09-14T15:06:17.000Z</Time>
            <Position>
              <LatitudeDegrees>37.59083907119929790496826171875</LatitudeDegrees>
              <LongitudeDegrees>-8.07981845922768115997314453125</LongitudeDegrees>
            </Position>
            <AltitudeMeters>256.399993896484375</AltitudeMeters>
            <DistanceMeters>310040.48066666</DistanceMeters>
          </Trackpoint>
          <Trackpoint>
            <Time>2018-09-14T15:06:18.000Z</Time>
            <Position>
              <LatitudeDegrees>37.590793557465076446533203125</LatitudeDegrees>
              <LongitudeDegrees>-8.0798074789345264434814453125</LongitudeDegrees>
            </Position>
            <AltitudeMeters>256.399993896484375</AltitudeMeters>
            <DistanceMeters>310045.638438</DistanceMeters>
          </Trackpoint>
          <Trackpoint>
            <Time>2018-09-14T15:06:19.000Z</Time>
            <Position>
              <LatitudeDegrees>37.59074804373085498809814453125</LatitudeDegrees>
              <LongitudeDegrees>-8.079795576632022857666015625</LongitudeDegrees>
            </Position>
            <AltitudeMeters>256.600006103515625</AltitudeMeters>
            <DistanceMeters>310050.81019654</DistanceMeters>
          </Trackpoint>
          <Trackpoint>
            <Time>2018-09-14T15:06:20.000Z</Time>
            <Position>
              <LatitudeDegrees>37.59070269763469696044921875</LatitudeDegrees>
              <LongitudeDegrees>-8.0797840096056461334228515625</LongitudeDegrees>
            </Position>
            <AltitudeMeters>256.600006103515625</AltitudeMeters>
            <DistanceMeters>310055.95920659</DistanceMeters>
          </Trackpoint>
          <Trackpoint>
            <Time>2018-09-14T15:06:21.000Z</Time>
            <Position>
              <LatitudeDegrees>37.59065718390047550201416015625</LatitudeDegrees>
              <LongitudeDegrees>-8.07977252639830112457275390625</LongitudeDegrees>
            </Position>
            <AltitudeMeters>256.600006103515625</AltitudeMeters>
            <DistanceMeters>310061.12572436</DistanceMeters>
          </Trackpoint>
          <Trackpoint>
            <Time>2018-09-14T15:06:22.000Z</Time>
            <Position>
              <LatitudeDegrees>37.59061108343303203582763671875</LatitudeDegrees>
              <LongitudeDegrees>-8.0797605402767658233642578125</LongitudeDegrees>
            </Position>
            <AltitudeMeters>256.79998779296875</AltitudeMeters>
            <DistanceMeters>310066.36513582</DistanceMeters>
          </Trackpoint>
          <Trackpoint>
            <Time>2018-09-14T15:06:23.000Z</Time>
            <Position>
              <LatitudeDegrees>37.59056565351784229278564453125</LatitudeDegrees>
              <LongitudeDegrees>-8.07974721305072307586669921875</LongitudeDegrees>
            </Position>
            <AltitudeMeters>256.79998779296875</AltitudeMeters>
            <DistanceMeters>310071.55606523</DistanceMeters>
          </Trackpoint>
          <Trackpoint>
            <Time>2018-09-14T15:06:24.000Z</Time>
            <Position>
              <LatitudeDegrees>37.5905196368694305419921875</LatitudeDegrees>
              <LongitudeDegrees>-8.0797343887388706207275390625</LongitudeDegrees>
            </Position>
            <AltitudeMeters>257</AltitudeMeters>
            <DistanceMeters>310076.8006446</DistanceMeters>
          </Trackpoint>
          <Trackpoint>
            <Time>2018-09-14T15:06:25.000Z</Time>
            <Position>
              <LatitudeDegrees>37.590472698211669921875</LatitudeDegrees>
              <LongitudeDegrees>-8.0797229893505573272705078125</LongitudeDegrees>
            </Position>
            <AltitudeMeters>257</AltitudeMeters>
            <DistanceMeters>310082.12044343</DistanceMeters>
          </Trackpoint>
          <Trackpoint>
            <Time>2018-09-14T15:06:26.000Z</Time>
            <Position>
              <LatitudeDegrees>37.5904257595539093017578125</LatitudeDegrees>
              <LongitudeDegrees>-8.07971184141933917999267578125</LongitudeDegrees>
            </Position>
            <AltitudeMeters>257</AltitudeMeters>
            <DistanceMeters>310087.43684628</DistanceMeters>
          </Trackpoint>
          <Trackpoint>
            <Time>2018-09-14T15:06:27.000Z</Time>
            <Position>
              <LatitudeDegrees>37.59037856943905353546142578125</LatitudeDegrees>
              <LongitudeDegrees>-8.07970077730715274810791015625</LongitudeDegrees>
            </Position>
            <AltitudeMeters>257.20001220703125</AltitudeMeters>
            <DistanceMeters>310092.77866634</DistanceMeters>
          </Trackpoint>
          <Trackpoint>
            <Time>2018-09-14T15:06:28.000Z</Time>
            <Position>
              <LatitudeDegrees>37.59033079259097576141357421875</LatitudeDegrees>
              <LongitudeDegrees>-8.07968954555690288543701171875</LongitudeDegrees>
            </Position>
            <AltitudeMeters>257.399993896484375</AltitudeMeters>
            <DistanceMeters>310098.18851641</DistanceMeters>
          </Trackpoint>
          <Trackpoint>
            <Time>2018-09-14T15:06:29.000Z</Time>
            <Position>
              <LatitudeDegrees>37.5902824290096759796142578125</LatitudeDegrees>
              <LongitudeDegrees>-8.07967814616858959197998046875</LongitudeDegrees>
            </Position>
            <AltitudeMeters>257.600006103515625</AltitudeMeters>
            <DistanceMeters>310103.66555155</DistanceMeters>
          </Trackpoint>
          <Trackpoint>
            <Time>2018-09-14T15:06:30.000Z</Time>
            <Position>
              <LatitudeDegrees>37.59023406542837619781494140625</LatitudeDegrees>
              <LongitudeDegrees>-8.07966792024672031402587890625</LongitudeDegrees>
            </Position>
            <AltitudeMeters>257.600006103515625</AltitudeMeters>
            <DistanceMeters>310109.12276624</DistanceMeters>
          </Trackpoint>
          <Trackpoint>
            <Time>2018-09-14T15:06:31.000Z</Time>
            <Position>
              <LatitudeDegrees>37.590186037123203277587890625</LatitudeDegrees>
              <LongitudeDegrees>-8.07965643703937530517578125</LongitudeDegrees>
            </Position>
            <AltitudeMeters>257.79998779296875</AltitudeMeters>
            <DistanceMeters>310114.56340872</DistanceMeters>
          </Trackpoint>
          <Trackpoint>
            <Time>2018-09-14T15:06:32.000Z</Time>
            <Position>
              <LatitudeDegrees>37.59013817645609378814697265625</LatitudeDegrees>
              <LongitudeDegrees>-8.0796441994607448577880859375</LongitudeDegrees>
            </Position>
            <AltitudeMeters>258</AltitudeMeters>
            <DistanceMeters>310119.99906968</DistanceMeters>
          </Trackpoint>
          <Trackpoint>
            <Time>2018-09-14T15:06:33.000Z</Time>
            <Position>
              <LatitudeDegrees>37.5900896452367305755615234375</LatitudeDegrees>
              <LongitudeDegrees>-8.07963171042501926422119140625</LongitudeDegrees>
            </Position>
            <AltitudeMeters>258.20001220703125</AltitudeMeters>
            <DistanceMeters>310125.51225726</DistanceMeters>
          </Trackpoint>
          <Trackpoint>
            <Time>2018-09-14T15:06:34.000Z</Time>
            <Position>
              <LatitudeDegrees>37.59004111401736736297607421875</LatitudeDegrees>
              <LongitudeDegrees>-8.07961964048445224761962890625</LongitudeDegrees>
            </Position>
            <AltitudeMeters>258.399993896484375</AltitudeMeters>
            <DistanceMeters>310131.01888933</DistanceMeters>
          </Trackpoint>
          <Trackpoint>
            <Time>2018-09-14T15:06:35.000Z</Time>
            <Position>
              <LatitudeDegrees>37.58999249897897243499755859375</LatitudeDegrees>
              <LongitudeDegrees>-8.079607486724853515625</LongitudeDegrees>
            </Position>
            <AltitudeMeters>258.399993896484375</AltitudeMeters>
            <DistanceMeters>310136.53535175</DistanceMeters>
          </Trackpoint>
          <Trackpoint>
            <Time>2018-09-14T15:06:36.000Z</Time>
            <Position>
              <LatitudeDegrees>37.58994405157864093780517578125</LatitudeDegrees>
              <LongitudeDegrees>-8.0795949138700962066650390625</LongitudeDegrees>
            </Position>
            <AltitudeMeters>258.399993896484375</AltitudeMeters>
            <DistanceMeters>310142.04034371</DistanceMeters>
          </Trackpoint>
          <Trackpoint>
            <Time>2018-09-14T15:06:37.000Z</Time>
            <Position>
              <LatitudeDegrees>37.589895687997341156005859375</LatitudeDegrees>
              <LongitudeDegrees>-8.07958359830081462860107421875</LongitudeDegrees>
            </Position>
            <AltitudeMeters>258.399993896484375</AltitudeMeters>
            <DistanceMeters>310147.51572989</DistanceMeters>
          </Trackpoint>
          <Trackpoint>
            <Time>2018-09-14T15:06:38.000Z</Time>
            <Position>
              <LatitudeDegrees>37.58984631858766078948974609375</LatitudeDegrees>
              <LongitudeDegrees>-8.079572282731533050537109375</LongitudeDegrees>
            </Position>
            <AltitudeMeters>258.399993896484375</AltitudeMeters>
            <DistanceMeters>310153.10052031</DistanceMeters>
          </Trackpoint>
          <Trackpoint>
            <Time>2018-09-14T15:06:39.000Z</Time>
            <Position>
              <LatitudeDegrees>37.58979611098766326904296875</LatitudeDegrees>
              <LongitudeDegrees>-8.0795600451529026031494140625</LongitudeDegrees>
            </Position>
            <AltitudeMeters>258.399993896484375</AltitudeMeters>
            <DistanceMeters>310158.7918193</DistanceMeters>
          </Trackpoint>
          <Trackpoint>
            <Time>2018-09-14T15:06:40.000Z</Time>
            <Position>
              <LatitudeDegrees>37.58974540047347545623779296875</LatitudeDegrees>
              <LongitudeDegrees>-8.07954655028879642486572265625</LongitudeDegrees>
            </Position>
            <AltitudeMeters>258.399993896484375</AltitudeMeters>
            <DistanceMeters>310164.56034006</DistanceMeters>
          </Trackpoint>
          <Trackpoint>
            <Time>2018-09-14T15:06:41.000Z</Time>
            <Position>
              <LatitudeDegrees>37.5896930135786533355712890625</LatitudeDegrees>
              <LongitudeDegrees>-8.0795355699956417083740234375</LongitudeDegrees>
            </Position>
            <AltitudeMeters>258.600006103515625</AltitudeMeters>
            <DistanceMeters>310170.47188772</DistanceMeters>
          </Trackpoint>
          <Trackpoint>
            <Time>2018-09-14T15:06:42.000Z</Time>
            <Position>
              <LatitudeDegrees>37.58963962085545063018798828125</LatitudeDegrees>
              <LongitudeDegrees>-8.07952425442636013031005859375</LongitudeDegrees>
            </Position>
            <AltitudeMeters>258.79998779296875</AltitudeMeters>
            <DistanceMeters>310176.49915888</DistanceMeters>
          </Trackpoint>
          <Trackpoint>
            <Time>2018-09-14T15:06:43.000Z</Time>
            <Position>
              <LatitudeDegrees>37.589586563408374786376953125</LatitudeDegrees>
              <LongitudeDegrees>-8.07951201684772968292236328125</LongitudeDegrees>
            </Position>
            <AltitudeMeters>259</AltitudeMeters>
            <DistanceMeters>310182.50241092</DistanceMeters>
          </Trackpoint>
          <Trackpoint>
            <Time>2018-09-14T15:06:44.000Z</Time>
            <Position>
              <LatitudeDegrees>37.58953283540904521942138671875</LatitudeDegrees>
              <LongitudeDegrees>-8.079498521983623504638671875</LongitudeDegrees>
            </Position>
            <AltitudeMeters>259.20001220703125</AltitudeMeters>
            <DistanceMeters>310188.60043148</DistanceMeters>
          </Trackpoint>
          <Trackpoint>
            <Time>2018-09-14T15:06:45.000Z</Time>
            <Position>
              <LatitudeDegrees>37.58947801776230335235595703125</LatitudeDegrees>
              <LongitudeDegrees>-8.0794836021959781646728515625</LongitudeDegrees>
            </Position>
            <AltitudeMeters>259.399993896484375</AltitudeMeters>
            <DistanceMeters>310194.84260898</DistanceMeters>
          </Trackpoint>
          <Trackpoint>
            <Time>2018-09-14T15:06:46.000Z</Time>
            <Position>
              <LatitudeDegrees>37.5894244574010372161865234375</LatitudeDegrees>
              <LongitudeDegrees>-8.079470358788967132568359375</LongitudeDegrees>
            </Position>
            <AltitudeMeters>259.600006103515625</AltitudeMeters>
            <DistanceMeters>310200.91763346</DistanceMeters>
          </Trackpoint>
          <Trackpoint>
            <Time>2018-09-14T15:06:47.000Z</Time>
            <Position>
              <LatitudeDegrees>37.589370645582675933837890625</LatitudeDegrees>
              <LongitudeDegrees>-8.07945619337260723114013671875</LongitudeDegrees>
            </Position>
            <AltitudeMeters>259.79998779296875</AltitudeMeters>
            <DistanceMeters>310207.03635039</DistanceMeters>
          </Trackpoint>
          <Trackpoint>
            <Time>2018-09-14T15:06:48.000Z</Time>
            <Position>
              <LatitudeDegrees>37.5893175043165683746337890625</LatitudeDegrees>
              <LongitudeDegrees>-8.07944010011851787567138671875</LongitudeDegrees>
            </Position>
            <AltitudeMeters>260</AltitudeMeters>
            <DistanceMeters>310213.11954472</DistanceMeters>
          </Trackpoint>
          <Trackpoint>
            <Time>2018-09-14T15:06:49.000Z</Time>
            <Position>
              <LatitudeDegrees>37.5892643630504608154296875</LatitudeDegrees>
              <LongitudeDegrees>-8.07942417450249195098876953125</LongitudeDegrees>
            </Position>
            <AltitudeMeters>260.399993896484375</AltitudeMeters>
            <DistanceMeters>310219.19828413</DistanceMeters>
          </Trackpoint>
          <Trackpoint>
            <Time>2018-09-14T15:06:50.000Z</Time>
            <Position>
              <LatitudeDegrees>37.58921138942241668701171875</LatitudeDegrees>
              <LongitudeDegrees>-8.0794091708958148956298828125</LongitudeDegrees>
            </Position>
            <AltitudeMeters>260.600006103515625</AltitudeMeters>
            <DistanceMeters>310225.24051874</DistanceMeters>
          </Trackpoint>
          <Trackpoint>
            <Time>2018-09-14T15:06:51.000Z</Time>
            <Position>
              <LatitudeDegrees>37.58915774524211883544921875</LatitudeDegrees>
              <LongitudeDegrees>-8.07939718477427959442138671875</LongitudeDegrees>
            </Position>
            <AltitudeMeters>260.79998779296875</AltitudeMeters>
            <DistanceMeters>310231.30438477</DistanceMeters>
          </Trackpoint>
          <Trackpoint>
            <Time>2018-09-14T15:06:52.000Z</Time>
            <Position>
              <LatitudeDegrees>37.589104436337947845458984375</LatitudeDegrees>
              <LongitudeDegrees>-8.07938829995691776275634765625</LongitudeDegrees>
            </Position>
            <AltitudeMeters>260.79998779296875</AltitudeMeters>
            <DistanceMeters>310237.28880481</DistanceMeters>
          </Trackpoint>
          <Trackpoint>
            <Time>2018-09-14T15:06:53.000Z</Time>
            <Position>
              <LatitudeDegrees>37.589052133262157440185546875</LatitudeDegrees>
              <LongitudeDegrees>-8.079379163682460784912109375</LongitudeDegrees>
            </Position>
            <AltitudeMeters>261</AltitudeMeters>
            <DistanceMeters>310243.16511422</DistanceMeters>
          </Trackpoint>
          <Trackpoint>
            <Time>2018-09-14T15:06:54.000Z</Time>
            <Position>
              <LatitudeDegrees>37.589001171290874481201171875</LatitudeDegrees>
              <LongitudeDegrees>-8.07936902157962322235107421875</LongitudeDegrees>
            </Position>
            <AltitudeMeters>261.20001220703125</AltitudeMeters>
            <DistanceMeters>310248.90774769</DistanceMeters>
          </Trackpoint>
          <Trackpoint>
            <Time>2018-09-14T15:06:55.000Z</Time>
            <Position>
              <LatitudeDegrees>37.5889513827860355377197265625</LatitudeDegrees>
              <LongitudeDegrees>-8.07935795746743679046630859375</LongitudeDegrees>
            </Position>
            <AltitudeMeters>261.399993896484375</AltitudeMeters>
            <DistanceMeters>310254.5344206</DistanceMeters>
          </Trackpoint>
          <Trackpoint>
            <Time>2018-09-14T15:06:56.000Z</Time>
            <Position>
              <LatitudeDegrees>37.588901259005069732666015625</LatitudeDegrees>
              <LongitudeDegrees>-8.0793461389839649200439453125</LongitudeDegrees>
            </Position>
            <AltitudeMeters>261.399993896484375</AltitudeMeters>
            <DistanceMeters>310260.21062644</DistanceMeters>
          </Trackpoint>
          <Trackpoint>
            <Time>2018-09-14T15:06:57.000Z</Time>
            <Position>
              <LatitudeDegrees>37.5888511352241039276123046875</LatitudeDegrees>
              <LongitudeDegrees>-8.079334236681461334228515625</LongitudeDegrees>
            </Position>
            <AltitudeMeters>261.600006103515625</AltitudeMeters>
            <DistanceMeters>310265.88762766</DistanceMeters>
          </Trackpoint>
          <Trackpoint>
            <Time>2018-09-14T15:06:58.000Z</Time>
            <Position>
              <LatitudeDegrees>37.5888001732528209686279296875</LatitudeDegrees>
              <LongitudeDegrees>-8.0793209932744503021240234375</LongitudeDegrees>
            </Position>
            <AltitudeMeters>261.79998779296875</AltitudeMeters>
            <DistanceMeters>310271.67880232</DistanceMeters>
          </Trackpoint>
          <Trackpoint>
            <Time>2018-09-14T15:06:59.000Z</Time>
            <Position>
              <LatitudeDegrees>37.58874828927218914031982421875</LatitudeDegrees>
              <LongitudeDegrees>-8.0793082527816295623779296875</LongitudeDegrees>
            </Position>
            <AltitudeMeters>262</AltitudeMeters>
            <DistanceMeters>310277.56125529</DistanceMeters>
          </Trackpoint>
          <Trackpoint>
            <Time>2018-09-14T15:07:00.000Z</Time>
            <Position>
              <LatitudeDegrees>37.58869598619639873504638671875</LatitudeDegrees>
              <LongitudeDegrees>-8.07929559610784053802490234375</LongitudeDegrees>
            </Position>
            <AltitudeMeters>262</AltitudeMeters>
            <DistanceMeters>310283.48882034</DistanceMeters>
          </Trackpoint>
          <Trackpoint>
            <Time>2018-09-14T15:07:01.000Z</Time>
            <Position>
              <LatitudeDegrees>37.58864234201610088348388671875</LatitudeDegrees>
              <LongitudeDegrees>-8.0792817659676074981689453125</LongitudeDegrees>
            </Position>
            <AltitudeMeters>262.20001220703125</AltitudeMeters>
            <DistanceMeters>310289.58313773</DistanceMeters>
          </Trackpoint>
          <Trackpoint>
            <Time>2018-09-14T15:07:02.000Z</Time>
            <Position>
              <LatitudeDegrees>37.5885876081883907318115234375</LatitudeDegrees>
              <LongitudeDegrees>-8.0792681872844696044921875</LongitudeDegrees>
            </Position>
            <AltitudeMeters>262.399993896484375</AltitudeMeters>
            <DistanceMeters>310295.7912265</DistanceMeters>
          </Trackpoint>
          <Trackpoint>
            <Time>2018-09-14T15:07:03.000Z</Time>
            <Position>
              <LatitudeDegrees>37.5885332934558391571044921875</LatitudeDegrees>
              <LongitudeDegrees>-8.07925318367779254913330078125</LongitudeDegrees>
            </Position>
            <AltitudeMeters>262.600006103515625</AltitudeMeters>
            <DistanceMeters>310301.98037703</DistanceMeters>
          </Trackpoint>
          <Trackpoint>
            <Time>2018-09-14T15:07:04.000Z</Time>
            <Position>
              <LatitudeDegrees>37.5884799845516681671142578125</LatitudeDegrees>
              <LongitudeDegrees>-8.07923373766243457794189453125</LongitudeDegrees>
            </Position>
            <AltitudeMeters>262.600006103515625</AltitudeMeters>
            <DistanceMeters>310308.15638245</DistanceMeters>
          </Trackpoint>
          <Trackpoint>
            <Time>2018-09-14T15:07:05.000Z</Time>
            <Position>
              <LatitudeDegrees>37.58842592127621173858642578125</LatitudeDegrees>
              <LongitudeDegrees>-8.07921496219933032989501953125</LongitudeDegrees>
            </Position>
            <AltitudeMeters>262.79998779296875</AltitudeMeters>
            <DistanceMeters>310314.39783659</DistanceMeters>
          </Trackpoint>
          <Trackpoint>
            <Time>2018-09-14T15:07:06.000Z</Time>
            <Position>
              <LatitudeDegrees>37.5883690081536769866943359375</LatitudeDegrees>
              <LongitudeDegrees>-8.07919937185943126678466796875</LongitudeDegrees>
            </Position>
            <AltitudeMeters>262.79998779296875</AltitudeMeters>
            <DistanceMeters>310320.87918796</DistanceMeters>
          </Trackpoint>
          <Trackpoint>
            <Time>2018-09-14T15:07:07.000Z</Time>
            <Position>
              <LatitudeDegrees>37.5883089937269687652587890625</LatitudeDegrees>
              <LongitudeDegrees>-8.0791850388050079345703125</LongitudeDegrees>
            </Position>
            <AltitudeMeters>262.79998779296875</AltitudeMeters>
            <DistanceMeters>310327.67741797</DistanceMeters>
          </Trackpoint>
          <Trackpoint>
            <Time>2018-09-14T15:07:08.000Z</Time>
            <Position>
              <LatitudeDegrees>37.58825073949992656707763671875</LatitudeDegrees>
              <LongitudeDegrees>-8.07916961610317230224609375</LongitudeDegrees>
            </Position>
            <AltitudeMeters>262.600006103515625</AltitudeMeters>
            <DistanceMeters>310334.30208185</DistanceMeters>
          </Trackpoint>
          <Trackpoint>
            <Time>2018-09-14T15:07:09.000Z</Time>
            <Position>
              <LatitudeDegrees>37.58819256909191608428955078125</LatitudeDegrees>
              <LongitudeDegrees>-8.0791555345058441162109375</LongitudeDegrees>
            </Position>
            <AltitudeMeters>262.399993896484375</AltitudeMeters>
            <DistanceMeters>310340.89463507</DistanceMeters>
          </Trackpoint>
          <Trackpoint>
            <Time>2018-09-14T15:07:10.000Z</Time>
            <Position>
              <LatitudeDegrees>37.5881323032081127166748046875</LatitudeDegrees>
              <LongitudeDegrees>-8.079141117632389068603515625</LongitudeDegrees>
            </Position>
            <AltitudeMeters>262.399993896484375</AltitudeMeters>
            <DistanceMeters>310347.7220251</DistanceMeters>
          </Trackpoint>
          <Trackpoint>
            <Time>2018-09-14T15:07:11.000Z</Time>
            <Position>
              <LatitudeDegrees>37.58807279169559478759765625</LatitudeDegrees>
              <LongitudeDegrees>-8.07912812568247318267822265625</LongitudeDegrees>
            </Position>
            <AltitudeMeters>262.20001220703125</AltitudeMeters>
            <DistanceMeters>310354.44411573</DistanceMeters>
          </Trackpoint>
          <Trackpoint>
            <Time>2018-09-14T15:07:12.000Z</Time>
            <Position>
              <LatitudeDegrees>37.588014118373394012451171875</LatitudeDegrees>
              <LongitudeDegrees>-8.07911722920835018157958984375</LongitudeDegrees>
            </Position>
            <AltitudeMeters>262</AltitudeMeters>
            <DistanceMeters>310361.04419821</DistanceMeters>
          </Trackpoint>
          <Trackpoint>
            <Time>2018-09-14T15:07:13.000Z</Time>
            <Position>
              <LatitudeDegrees>37.58795217610895633697509765625</LatitudeDegrees>
              <LongitudeDegrees>-8.07910415343940258026123046875</LongitudeDegrees>
            </Position>
            <AltitudeMeters>261.79998779296875</AltitudeMeters>
            <DistanceMeters>310368.03496167</DistanceMeters>
          </Trackpoint>
          <Trackpoint>
            <Time>2018-09-14T15:07:14.000Z</Time>
            <Position>
              <LatitudeDegrees>37.58788981474936008453369140625</LatitudeDegrees>
              <LongitudeDegrees>-8.0790911614894866943359375</LongitudeDegrees>
            </Position>
            <AltitudeMeters>261.600006103515625</AltitudeMeters>
            <DistanceMeters>310375.06950636</DistanceMeters>
          </Trackpoint>
          <Trackpoint>
            <Time>2018-09-14T15:07:15.000Z</Time>
            <Position>
              <LatitudeDegrees>37.5878275372087955474853515625</LatitudeDegrees>
              <LongitudeDegrees>-8.07907850481569766998291015625</LongitudeDegrees>
            </Position>
            <AltitudeMeters>261.600006103515625</AltitudeMeters>
            <DistanceMeters>310382.0905595</DistanceMeters>
          </Trackpoint>
          <Trackpoint>
            <Time>2018-09-14T15:07:16.000Z</Time>
            <Position>
              <LatitudeDegrees>37.58776559494435787200927734375</LatitudeDegrees>
              <LongitudeDegrees>-8.0790635012090206146240234375</LongitudeDegrees>
            </Position>
            <AltitudeMeters>261.399993896484375</AltitudeMeters>
            <DistanceMeters>310389.11032639</DistanceMeters>
          </Trackpoint>
          <Trackpoint>
            <Time>2018-09-14T15:07:17.000Z</Time>
            <Position>
              <LatitudeDegrees>37.587703652679920196533203125</LatitudeDegrees>
              <LongitudeDegrees>-8.07905117981135845184326171875</LongitudeDegrees>
            </Position>
            <AltitudeMeters>261.20001220703125</AltitudeMeters>
            <DistanceMeters>310396.08945473</DistanceMeters>
          </Trackpoint>
          <Trackpoint>
            <Time>2018-09-14T15:07:18.000Z</Time>
            <Position>
              <LatitudeDegrees>37.58764103986322879791259765625</LatitudeDegrees>
              <LongitudeDegrees>-8.079036511480808258056640625</LongitudeDegrees>
            </Position>
            <AltitudeMeters>261.20001220703125</AltitudeMeters>
            <DistanceMeters>310403.17770877</DistanceMeters>
          </Trackpoint>
          <Trackpoint>
            <Time>2018-09-14T15:07:19.000Z</Time>
            <Position>
              <LatitudeDegrees>37.58757834322750568389892578125</LatitudeDegrees>
              <LongitudeDegrees>-8.0790219269692897796630859375</LongitudeDegrees>
            </Position>
            <AltitudeMeters>261</AltitudeMeters>
            <DistanceMeters>310410.27360239</DistanceMeters>
          </Trackpoint>
          <Trackpoint>
            <Time>2018-09-14T15:07:20.000Z</Time>
            <Position>
              <LatitudeDegrees>37.5875157304108142852783203125</LatitudeDegrees>
              <LongitudeDegrees>-8.07900826446712017059326171875</LongitudeDegrees>
            </Position>
            <AltitudeMeters>261</AltitudeMeters>
            <DistanceMeters>310417.34591413</DistanceMeters>
          </Trackpoint>
          <Trackpoint>
            <Time>2018-09-14T15:07:21.000Z</Time>
            <Position>
              <LatitudeDegrees>37.58745345287024974822998046875</LatitudeDegrees>
              <LongitudeDegrees>-8.0789934284985065460205078125</LongitudeDegrees>
            </Position>
            <AltitudeMeters>260.79998779296875</AltitudeMeters>
            <DistanceMeters>310424.39968768</DistanceMeters>
          </Trackpoint>
          <Trackpoint>
            <Time>2018-09-14T15:07:22.000Z</Time>
            <Position>
              <LatitudeDegrees>37.58739293552935123443603515625</LatitudeDegrees>
              <LongitudeDegrees>-8.07897808961570262908935546875</LongitudeDegrees>
            </Position>
            <AltitudeMeters>260.79998779296875</AltitudeMeters>
            <DistanceMeters>310431.26992854</DistanceMeters>
          </Trackpoint>
          <Trackpoint>
            <Time>2018-09-14T15:07:23.000Z</Time>
            <Position>
              <LatitudeDegrees>37.58733141236007213592529296875</LatitudeDegrees>
              <LongitudeDegrees>-8.0789632536470890045166015625</LongitudeDegrees>
            </Position>
            <AltitudeMeters>260.600006103515625</AltitudeMeters>
            <DistanceMeters>310438.24128934</DistanceMeters>
          </Trackpoint>
          <Trackpoint>
            <Time>2018-09-14T15:07:24.000Z</Time>
            <Position>
              <LatitudeDegrees>37.58726905100047588348388671875</LatitudeDegrees>
              <LongitudeDegrees>-8.0789485014975070953369140625</LongitudeDegrees>
            </Position>
            <AltitudeMeters>260.399993896484375</AltitudeMeters>
            <DistanceMeters>310445.30337913</DistanceMeters>
          </Trackpoint>
          <Trackpoint>
            <Time>2018-09-14T15:07:25.000Z</Time>
            <Position>
              <LatitudeDegrees>37.587206102907657623291015625</LatitudeDegrees>
              <LongitudeDegrees>-8.07893265970051288604736328125</LongitudeDegrees>
            </Position>
            <AltitudeMeters>260.20001220703125</AltitudeMeters>
            <DistanceMeters>310452.44746704</DistanceMeters>
          </Trackpoint>
          <Trackpoint>
            <Time>2018-09-14T15:07:26.000Z</Time>
            <Position>
              <LatitudeDegrees>37.5871429033577442169189453125</LatitudeDegrees>
              <LongitudeDegrees>-8.07891740463674068450927734375</LongitudeDegrees>
            </Position>
            <AltitudeMeters>260.20001220703125</AltitudeMeters>
            <DistanceMeters>310459.60922899</DistanceMeters>
          </Trackpoint>
          <Trackpoint>
            <Time>2018-09-14T15:07:27.000Z</Time>
            <Position>
              <LatitudeDegrees>37.58708112873136997222900390625</LatitudeDegrees>
              <LongitudeDegrees>-8.07890298776328563690185546875</LongitudeDegrees>
            </Position>
            <AltitudeMeters>260</AltitudeMeters>
            <DistanceMeters>310466.60128404</DistanceMeters>
          </Trackpoint>
          <Trackpoint>
            <Time>2018-09-14T15:07:28.000Z</Time>
            <Position>
              <LatitudeDegrees>37.58701893500983715057373046875</LatitudeDegrees>
              <LongitudeDegrees>-8.0788874812424182891845703125</LongitudeDegrees>
            </Position>
            <AltitudeMeters>260</AltitudeMeters>
            <DistanceMeters>310473.65697759</DistanceMeters>
          </Trackpoint>
          <Trackpoint>
            <Time>2018-09-14T15:07:29.000Z</Time>
            <Position>
              <LatitudeDegrees>37.5869561545550823211669921875</LatitudeDegrees>
              <LongitudeDegrees>-8.07887214235961437225341796875</LongitudeDegrees>
            </Position>
            <AltitudeMeters>260.20001220703125</AltitudeMeters>
            <DistanceMeters>310480.77383777</DistanceMeters>
          </Trackpoint>
          <Trackpoint>
            <Time>2018-09-14T15:07:30.000Z</Time>
            <Position>
              <LatitudeDegrees>37.5868937931954860687255859375</LatitudeDegrees>
              <LongitudeDegrees>-8.0788573063910007476806640625</LongitudeDegrees>
            </Position>
            <AltitudeMeters>260.399993896484375</AltitudeMeters>
            <DistanceMeters>310487.83720611</DistanceMeters>
          </Trackpoint>
          <Trackpoint>
            <Time>2018-09-14T15:07:31.000Z</Time>
            <Position>
              <LatitudeDegrees>37.58683050982654094696044921875</LatitudeDegrees>
              <LongitudeDegrees>-8.0788422189652919769287109375</LongitudeDegrees>
            </Position>
            <AltitudeMeters>260.600006103515625</AltitudeMeters>
            <DistanceMeters>310495.00463975</DistanceMeters>
          </Trackpoint>
          <Trackpoint>
            <Time>2018-09-14T15:07:32.000Z</Time>
            <Position>
              <LatitudeDegrees>37.5867667235434055328369140625</LatitudeDegrees>
              <LongitudeDegrees>-8.078826628625392913818359375</LongitudeDegrees>
            </Position>
            <AltitudeMeters>260.79998779296875</AltitudeMeters>
            <DistanceMeters>310502.23604159</DistanceMeters>
          </Trackpoint>
          <Trackpoint>
            <Time>2018-09-14T15:07:33.000Z</Time>
            <Position>
              <LatitudeDegrees>37.58670444600284099578857421875</LatitudeDegrees>
              <LongitudeDegrees>-8.07881212793290615081787109375</LongitudeDegrees>
            </Position>
            <AltitudeMeters>261.20001220703125</AltitudeMeters>
            <DistanceMeters>310509.28533309</DistanceMeters>
          </Trackpoint>
          <Trackpoint>
            <Time>2018-09-14T15:07:34.000Z</Time>
            <Position>
              <LatitudeDegrees>37.58664141409099102020263671875</LatitudeDegrees>
              <LongitudeDegrees>-8.078797794878482818603515625</LongitudeDegrees>
            </Position>
            <AltitudeMeters>261.20001220703125</AltitudeMeters>
            <DistanceMeters>310516.41423695</DistanceMeters>
          </Trackpoint>
          <Trackpoint>
            <Time>2018-09-14T15:07:35.000Z</Time>
            <Position>
              <LatitudeDegrees>37.58657821454107761383056640625</LatitudeDegrees>
              <LongitudeDegrees>-8.0787827074527740478515625</LongitudeDegrees>
            </Position>
            <AltitudeMeters>261.20001220703125</AltitudeMeters>
            <DistanceMeters>310523.57347671</DistanceMeters>
          </Trackpoint>
          <Trackpoint>
            <Time>2018-09-14T15:07:36.000Z</Time>
            <Position>
              <LatitudeDegrees>37.58651442825794219970703125</LatitudeDegrees>
              <LongitudeDegrees>-8.0787674523890018463134765625</LongitudeDegrees>
            </Position>
            <AltitudeMeters>261.20001220703125</AltitudeMeters>
            <DistanceMeters>310530.7986322</DistanceMeters>
          </Trackpoint>
          <Trackpoint>
            <Time>2018-09-14T15:07:37.000Z</Time>
            <Position>
              <LatitudeDegrees>37.5864502228796482086181640625</LatitudeDegrees>
              <LongitudeDegrees>-8.07875261642038822174072265625</LongitudeDegrees>
            </Position>
            <AltitudeMeters>261.20001220703125</AltitudeMeters>
            <DistanceMeters>310538.06367156</DistanceMeters>
          </Trackpoint>
          <Trackpoint>
            <Time>2018-09-14T15:07:38.000Z</Time>
            <Position>
              <LatitudeDegrees>37.58638576604425907135009765625</LatitudeDegrees>
              <LongitudeDegrees>-8.07873635552823543548583984375</LongitudeDegrees>
            </Position>
            <AltitudeMeters>261.20001220703125</AltitudeMeters>
            <DistanceMeters>310545.38011148</DistanceMeters>
          </Trackpoint>
          <Trackpoint>
            <Time>2018-09-14T15:07:39.000Z</Time>
            <Position>
              <LatitudeDegrees>37.58632072247564792633056640625</LatitudeDegrees>
              <LongitudeDegrees>-8.078720010817050933837890625</LongitudeDegrees>
            </Position>
            <AltitudeMeters>261</AltitudeMeters>
            <DistanceMeters>310552.76167509</DistanceMeters>
          </Trackpoint>
          <Trackpoint>
            <Time>2018-09-14T15:07:40.000Z</Time>
            <Position>
              <LatitudeDegrees>37.5862550921738147735595703125</LatitudeDegrees>
              <LongitudeDegrees>-8.0787037499248981475830078125</LongitudeDegrees>
            </Position>
            <AltitudeMeters>260.79998779296875</AltitudeMeters>
            <DistanceMeters>310560.20597352</DistanceMeters>
          </Trackpoint>
          <Trackpoint>
            <Time>2018-09-14T15:07:41.000Z</Time>
            <Position>
              <LatitudeDegrees>37.58618988096714019775390625</LatitudeDegrees>
              <LongitudeDegrees>-8.07868757285177707672119140625</LongitudeDegrees>
            </Position>
            <AltitudeMeters>260.600006103515625</AltitudeMeters>
            <DistanceMeters>310567.60281292</DistanceMeters>
          </Trackpoint>
          <Trackpoint>
            <Time>2018-09-14T15:07:42.000Z</Time>
            <Position>
              <LatitudeDegrees>37.58612458594143390655517578125</LatitudeDegrees>
              <LongitudeDegrees>-8.07867147959768772125244140625</LongitudeDegrees>
            </Position>
            <AltitudeMeters>260.399993896484375</AltitudeMeters>
            <DistanceMeters>310575.00758329</DistanceMeters>
          </Trackpoint>
          <Trackpoint>
            <Time>2018-09-14T15:07:43.000Z</Time>
            <Position>
              <LatitudeDegrees>37.5860592909157276153564453125</LatitudeDegrees>
              <LongitudeDegrees>-8.0786554701626300811767578125</LongitudeDegrees>
            </Position>
            <AltitudeMeters>260.20001220703125</AltitudeMeters>
            <DistanceMeters>310582.41113406</DistanceMeters>
          </Trackpoint>
          <Trackpoint>
            <Time>2018-09-14T15:07:44.000Z</Time>
            <Position>
              <LatitudeDegrees>37.58599299006164073944091796875</LatitudeDegrees>
              <LongitudeDegrees>-8.07863828726112842559814453125</LongitudeDegrees>
            </Position>
            <AltitudeMeters>260</AltitudeMeters>
            <DistanceMeters>310589.9440618</DistanceMeters>
          </Trackpoint>
          <Trackpoint>
            <Time>2018-09-14T15:07:45.000Z</Time>
            <Position>
              <LatitudeDegrees>37.585927359759807586669921875</LatitudeDegrees>
              <LongitudeDegrees>-8.0786219425499439239501953125</LongitudeDegrees>
            </Position>
            <AltitudeMeters>259.79998779296875</AltitudeMeters>
            <DistanceMeters>310597.38896672</DistanceMeters>
          </Trackpoint>
          <Trackpoint>
            <Time>2018-09-14T15:07:46.000Z</Time>
            <Position>
              <LatitudeDegrees>37.58586156181991100311279296875</LatitudeDegrees>
              <LongitudeDegrees>-8.0786068551242351531982421875</LongitudeDegrees>
            </Position>
            <AltitudeMeters>259.600006103515625</AltitudeMeters>
            <DistanceMeters>310604.83205203</DistanceMeters>
          </Trackpoint>
          <Trackpoint>
            <Time>2018-09-14T15:07:47.000Z</Time>
            <Position>
              <LatitudeDegrees>37.58579618297517299652099609375</LatitudeDegrees>
              <LongitudeDegrees>-8.07859151624143123626708984375</LongitudeDegrees>
            </Position>
            <AltitudeMeters>259.600006103515625</AltitudeMeters>
            <DistanceMeters>310612.23377303</DistanceMeters>
          </Trackpoint>
          <Trackpoint>
            <Time>2018-09-14T15:07:48.000Z</Time>
            <Position>
              <LatitudeDegrees>37.58573130704462528228759765625</LatitudeDegrees>
              <LongitudeDegrees>-8.0785760097205638885498046875</LongitudeDegrees>
            </Position>
            <AltitudeMeters>259.600006103515625</AltitudeMeters>
            <DistanceMeters>310619.58284694</DistanceMeters>
          </Trackpoint>
          <Trackpoint>
            <Time>2018-09-14T15:07:49.000Z</Time>
            <Position>
              <LatitudeDegrees>37.5856670178472995758056640625</LatitudeDegrees>
              <LongitudeDegrees>-8.07856050319969654083251953125</LongitudeDegrees>
            </Position>
            <AltitudeMeters>259.600006103515625</AltitudeMeters>
            <DistanceMeters>310626.86836609</DistanceMeters>
          </Trackpoint>
          <Trackpoint>
            <Time>2018-09-14T15:07:50.000Z</Time>
            <Position>
              <LatitudeDegrees>37.58560289628803730010986328125</LatitudeDegrees>
              <LongitudeDegrees>-8.07854466140270233154296875</LongitudeDegrees>
            </Position>
            <AltitudeMeters>259.600006103515625</AltitudeMeters>
            <DistanceMeters>310634.14023845</DistanceMeters>
          </Trackpoint>
          <Trackpoint>
            <Time>2018-09-14T15:07:51.000Z</Time>
            <Position>
              <LatitudeDegrees>37.58553902618587017059326171875</LatitudeDegrees>
              <LongitudeDegrees>-8.078528232872486114501953125</LongitudeDegrees>
            </Position>
            <AltitudeMeters>259.600006103515625</AltitudeMeters>
            <DistanceMeters>310641.39470504</DistanceMeters>
          </Trackpoint>
          <Trackpoint>
            <Time>2018-09-14T15:07:52.000Z</Time>
            <Position>
              <LatitudeDegrees>37.5854749046266078948974609375</LatitudeDegrees>
              <LongitudeDegrees>-8.0785123072564601898193359375</LongitudeDegrees>
            </Position>
            <AltitudeMeters>259.79998779296875</AltitudeMeters>
            <DistanceMeters>310648.66906054</DistanceMeters>
          </Trackpoint>
          <Trackpoint>
            <Time>2018-09-14T15:07:53.000Z</Time>
            <Position>
              <LatitudeDegrees>37.58541069924831390380859375</LatitudeDegrees>
              <LongitudeDegrees>-8.07849596254527568817138671875</LongitudeDegrees>
            </Position>
            <AltitudeMeters>259.79998779296875</AltitudeMeters>
            <DistanceMeters>310655.95829712</DistanceMeters>
          </Trackpoint>
          <Trackpoint>
            <Time>2018-09-14T15:07:54.000Z</Time>
            <Position>
              <LatitudeDegrees>37.5853456556797027587890625</LatitudeDegrees>
              <LongitudeDegrees>-8.07847970165312290191650390625</LongitudeDegrees>
            </Position>
            <AltitudeMeters>259.79998779296875</AltitudeMeters>
            <DistanceMeters>310663.33863729</DistanceMeters>
          </Trackpoint>
          <Trackpoint>
            <Time>2018-09-14T15:07:55.000Z</Time>
            <Position>
              <LatitudeDegrees>37.5852794386446475982666015625</LatitudeDegrees>
              <LongitudeDegrees>-8.0784657038748264312744140625</LongitudeDegrees>
            </Position>
            <AltitudeMeters>259.79998779296875</AltitudeMeters>
            <DistanceMeters>310670.81199148</DistanceMeters>
          </Trackpoint>
          <Trackpoint>
            <Time>2018-09-14T15:07:56.000Z</Time>
            <Position>
              <LatitudeDegrees>37.5852113775908946990966796875</LatitudeDegrees>
              <LongitudeDegrees>-8.07845137082040309906005859375</LongitudeDegrees>
            </Position>
            <AltitudeMeters>260</AltitudeMeters>
            <DistanceMeters>310678.49212555</DistanceMeters>
          </Trackpoint>
          <Trackpoint>
            <Time>2018-09-14T15:07:57.000Z</Time>
            <Position>
              <LatitudeDegrees>37.58514423854649066925048828125</LatitudeDegrees>
              <LongitudeDegrees>-8.07843695394694805145263671875</LongitudeDegrees>
            </Position>
            <AltitudeMeters>260</AltitudeMeters>
            <DistanceMeters>310686.07285154</DistanceMeters>
          </Trackpoint>
          <Trackpoint>
            <Time>2018-09-14T15:07:58.000Z</Time>
            <Position>
              <LatitudeDegrees>37.5850776024162769317626953125</LatitudeDegrees>
              <LongitudeDegrees>-8.0784214474260807037353515625</LongitudeDegrees>
            </Position>
            <AltitudeMeters>260</AltitudeMeters>
            <DistanceMeters>310693.61416584</DistanceMeters>
          </Trackpoint>
          <Trackpoint>
            <Time>2018-09-14T15:07:59.000Z</Time>
            <Position>
              <LatitudeDegrees>37.585011385381221771240234375</LatitudeDegrees>
              <LongitudeDegrees>-8.078408204019069671630859375</LongitudeDegrees>
            </Position>
            <AltitudeMeters>260</AltitudeMeters>
            <DistanceMeters>310701.07603232</DistanceMeters>
          </Trackpoint>
          <Trackpoint>
            <Time>2018-09-14T15:08:00.000Z</Time>
            <Position>
              <LatitudeDegrees>37.5849460065364837646484375</LatitudeDegrees>
              <LongitudeDegrees>-8.07839387096464633941650390625</LongitudeDegrees>
            </Position>
            <AltitudeMeters>260</AltitudeMeters>
            <DistanceMeters>310708.46248762</DistanceMeters>
          </Trackpoint>
          <Trackpoint>
            <Time>2018-09-14T15:08:01.000Z</Time>
            <Position>
              <LatitudeDegrees>37.584881298243999481201171875</LatitudeDegrees>
              <LongitudeDegrees>-8.07837911881506443023681640625</LongitudeDegrees>
            </Position>
            <AltitudeMeters>260</AltitudeMeters>
            <DistanceMeters>310715.78201243</DistanceMeters>
          </Trackpoint>
          <Trackpoint>
            <Time>2018-09-14T15:08:02.000Z</Time>
            <Position>
              <LatitudeDegrees>37.58481793105602264404296875</LatitudeDegrees>
              <LongitudeDegrees>-8.078363947570323944091796875</LongitudeDegrees>
            </Position>
            <AltitudeMeters>260.20001220703125</AltitudeMeters>
            <DistanceMeters>310722.96140491</DistanceMeters>
          </Trackpoint>
          <Trackpoint>
            <Time>2018-09-14T15:08:03.000Z</Time>
            <Position>
              <LatitudeDegrees>37.58475565351545810699462890625</LatitudeDegrees>
              <LongitudeDegrees>-8.07834894396364688873291015625</LongitudeDegrees>
            </Position>
            <AltitudeMeters>260.20001220703125</AltitudeMeters>
            <DistanceMeters>310730.01773834</DistanceMeters>
          </Trackpoint>
          <Trackpoint>
            <Time>2018-09-14T15:08:04.000Z</Time>
            <Position>
              <LatitudeDegrees>37.58469245396554470062255859375</LatitudeDegrees>
              <LongitudeDegrees>-8.07833503000438213348388671875</LongitudeDegrees>
            </Position>
            <AltitudeMeters>260.20001220703125</AltitudeMeters>
            <DistanceMeters>310737.15803327</DistanceMeters>
          </Trackpoint>
          <Trackpoint>
            <Time>2018-09-14T15:08:05.000Z</Time>
            <Position>
              <LatitudeDegrees>37.58463009260594844818115234375</LatitudeDegrees>
              <LongitudeDegrees>-8.07832312770187854766845703125</LongitudeDegrees>
            </Position>
            <AltitudeMeters>260.399993896484375</AltitudeMeters>
            <DistanceMeters>310744.17844332</DistanceMeters>
          </Trackpoint>
          <Trackpoint>
            <Time>2018-09-14T15:08:06.000Z</Time>
            <Position>
              <LatitudeDegrees>37.58456706069409847259521484375</LatitudeDegrees>
              <LongitudeDegrees>-8.07830736972391605377197265625</LongitudeDegrees>
            </Position>
            <AltitudeMeters>260.399993896484375</AltitudeMeters>
            <DistanceMeters>310751.33011116</DistanceMeters>
          </Trackpoint>
          <Trackpoint>
            <Time>2018-09-14T15:08:07.000Z</Time>
            <Position>
              <LatitudeDegrees>37.584505118429660797119140625</LatitudeDegrees>
              <LongitudeDegrees>-8.0782953836023807525634765625</LongitudeDegrees>
            </Position>
            <AltitudeMeters>260.399993896484375</AltitudeMeters>
            <DistanceMeters>310758.30535681</DistanceMeters>
          </Trackpoint>
          <Trackpoint>
            <Time>2018-09-14T15:08:08.000Z</Time>
            <Position>
              <LatitudeDegrees>37.58444242179393768310546875</LatitudeDegrees>
              <LongitudeDegrees>-8.0782816372811794281005859375</LongitudeDegrees>
            </Position>
            <AltitudeMeters>260.600006103515625</AltitudeMeters>
            <DistanceMeters>310765.38851322</DistanceMeters>
          </Trackpoint>
          <Trackpoint>
            <Time>2018-09-14T15:08:09.000Z</Time>
            <Position>
              <LatitudeDegrees>37.5843788869678974151611328125</LatitudeDegrees>
              <LongitudeDegrees>-8.07826713658869266510009765625</LongitudeDegrees>
            </Position>
            <AltitudeMeters>260.600006103515625</AltitudeMeters>
            <DistanceMeters>310772.5754484</DistanceMeters>
          </Trackpoint>
          <Trackpoint>
            <Time>2018-09-14T15:08:10.000Z</Time>
            <Position>
              <LatitudeDegrees>37.58431644178926944732666015625</LatitudeDegrees>
              <LongitudeDegrees>-8.0782474391162395477294921875</LongitudeDegrees>
            </Position>
            <AltitudeMeters>260.600006103515625</AltitudeMeters>
            <DistanceMeters>310779.73910141</DistanceMeters>
          </Trackpoint>
          <Trackpoint>
            <Time>2018-09-14T15:08:11.000Z</Time>
            <Position>
              <LatitudeDegrees>37.58425475098192691802978515625</LatitudeDegrees>
              <LongitudeDegrees>-8.0782326869666576385498046875</LongitudeDegrees>
            </Position>
            <AltitudeMeters>260.600006103515625</AltitudeMeters>
            <DistanceMeters>310786.72792702</DistanceMeters>
          </Trackpoint>
          <Trackpoint>
            <Time>2018-09-14T15:08:12.000Z</Time>
            <Position>
              <LatitudeDegrees>37.58419423364102840423583984375</LatitudeDegrees>
              <LongitudeDegrees>-8.07821877300739288330078125</LongitudeDegrees>
            </Position>
            <AltitudeMeters>260.399993896484375</AltitudeMeters>
            <DistanceMeters>310793.57512769</DistanceMeters>
          </Trackpoint>
          <Trackpoint>
            <Time>2018-09-14T15:08:13.000Z</Time>
            <Position>
              <LatitudeDegrees>37.5841344706714153289794921875</LatitudeDegrees>
              <LongitudeDegrees>-8.0782041884958744049072265625</LongitudeDegrees>
            </Position>
            <AltitudeMeters>260.600006103515625</AltitudeMeters>
            <DistanceMeters>310800.3500726</DistanceMeters>
          </Trackpoint>
          <Trackpoint>
            <Time>2018-09-14T15:08:14.000Z</Time>
            <Position>
              <LatitudeDegrees>37.584076635539531707763671875</LatitudeDegrees>
              <LongitudeDegrees>-8.07819186709821224212646484375</LongitudeDegrees>
            </Position>
            <AltitudeMeters>260.79998779296875</AltitudeMeters>
            <DistanceMeters>310806.87862227</DistanceMeters>
          </Trackpoint>
          <Trackpoint>
            <Time>2018-09-14T15:08:15.000Z</Time>
            <Position>
              <LatitudeDegrees>37.58402039296925067901611328125</LatitudeDegrees>
              <LongitudeDegrees>-8.07817711494863033294677734375</LongitudeDegrees>
            </Position>
            <AltitudeMeters>261</AltitudeMeters>
            <DistanceMeters>310813.27300935</DistanceMeters>
          </Trackpoint>
          <Trackpoint>
            <Time>2018-09-14T15:08:16.000Z</Time>
            <Position>
              <LatitudeDegrees>37.58396498858928680419921875</LatitudeDegrees>
              <LongitudeDegrees>-8.07816253043711185455322265625</LongitudeDegrees>
            </Position>
            <AltitudeMeters>261.20001220703125</AltitudeMeters>
            <DistanceMeters>310819.57278601</DistanceMeters>
          </Trackpoint>
          <Trackpoint>
            <Time>2018-09-14T15:08:17.000Z</Time>
            <Position>
              <LatitudeDegrees>37.58391109295189380645751953125</LatitudeDegrees>
              <LongitudeDegrees>-8.07814978994429111480712890625</LongitudeDegrees>
            </Position>
            <AltitudeMeters>261.399993896484375</AltitudeMeters>
            <DistanceMeters>310825.67672698</DistanceMeters>
          </Trackpoint>
          <Trackpoint>
            <Time>2018-09-14T15:08:18.000Z</Time>
            <Position>
              <LatitudeDegrees>37.58385677821934223175048828125</LatitudeDegrees>
              <LongitudeDegrees>-8.0781354568898677825927734375</LongitudeDegrees>
            </Position>
            <AltitudeMeters>261.399993896484375</AltitudeMeters>
            <DistanceMeters>310831.8527324</DistanceMeters>
          </Trackpoint>
          <Trackpoint>
            <Time>2018-09-14T15:08:19.000Z</Time>
            <Position>
              <LatitudeDegrees>37.58380531333386898040771484375</LatitudeDegrees>
              <LongitudeDegrees>-8.07812221348285675048828125</LongitudeDegrees>
            </Position>
            <AltitudeMeters>261.600006103515625</AltitudeMeters>
            <DistanceMeters>310837.69899953</DistanceMeters>
          </Trackpoint>
          <Trackpoint>
            <Time>2018-09-14T15:08:20.000Z</Time>
            <Position>
              <LatitudeDegrees>37.58375451900064945220947265625</LatitudeDegrees>
              <LongitudeDegrees>-8.0781109817326068878173828125</LongitudeDegrees>
            </Position>
            <AltitudeMeters>261.79998779296875</AltitudeMeters>
            <DistanceMeters>310843.43848721</DistanceMeters>
          </Trackpoint>
          <Trackpoint>
            <Time>2018-09-14T15:08:21.000Z</Time>
            <Position>
              <LatitudeDegrees>37.58370338939130306243896484375</LatitudeDegrees>
              <LongitudeDegrees>-8.07809941470623016357421875</LongitudeDegrees>
            </Position>
            <AltitudeMeters>262</AltitudeMeters>
            <DistanceMeters>310849.22029861</DistanceMeters>
          </Trackpoint>
          <Trackpoint>
            <Time>2018-09-14T15:08:22.000Z</Time>
            <Position>
              <LatitudeDegrees>37.583653517067432403564453125</LatitudeDegrees>
              <LongitudeDegrees>-8.07808977551758289337158203125</LongitudeDegrees>
            </Position>
            <AltitudeMeters>262.20001220703125</AltitudeMeters>
            <DistanceMeters>310854.83572619</DistanceMeters>
          </Trackpoint>
          <Trackpoint>
            <Time>2018-09-14T15:08:23.000Z</Time>
            <Position>
              <LatitudeDegrees>37.58360289037227630615234375</LatitudeDegrees>
              <LongitudeDegrees>-8.0780808068811893463134765625</LongitudeDegrees>
            </Position>
            <AltitudeMeters>262.600006103515625</AltitudeMeters>
            <DistanceMeters>310860.52543831</DistanceMeters>
          </Trackpoint>
          <Trackpoint>
            <Time>2018-09-14T15:08:24.000Z</Time>
            <Position>
              <LatitudeDegrees>37.58355419151484966278076171875</LatitudeDegrees>
              <LongitudeDegrees>-8.078069575130939483642578125</LongitudeDegrees>
            </Position>
            <AltitudeMeters>263.20001220703125</AltitudeMeters>
            <DistanceMeters>310866.03534911</DistanceMeters>
          </Trackpoint>
          <Trackpoint>
            <Time>2018-09-14T15:08:25.000Z</Time>
            <Position>
              <LatitudeDegrees>37.58350674994289875030517578125</LatitudeDegrees>
              <LongitudeDegrees>-8.07805825956165790557861328125</LongitudeDegrees>
            </Position>
            <AltitudeMeters>263.600006103515625</AltitudeMeters>
            <DistanceMeters>310871.40919173</DistanceMeters>
          </Trackpoint>
          <Trackpoint>
            <Time>2018-09-14T15:08:26.000Z</Time>
            <Position>
              <LatitudeDegrees>37.58346048183739185333251953125</LatitudeDegrees>
              <LongitudeDegrees>-8.07804585434496402740478515625</LongitudeDegrees>
            </Position>
            <AltitudeMeters>264</AltitudeMeters>
            <DistanceMeters>310876.67439207</DistanceMeters>
          </Trackpoint>
          <Trackpoint>
            <Time>2018-09-14T15:08:27.000Z</Time>
            <Position>
              <LatitudeDegrees>37.5834149681031703948974609375</LatitudeDegrees>
              <LongitudeDegrees>-8.07803328149020671844482421875</LongitudeDegrees>
            </Position>
            <AltitudeMeters>264.399993896484375</AltitudeMeters>
            <DistanceMeters>310881.86010009</DistanceMeters>
          </Trackpoint>
          <Trackpoint>
            <Time>2018-09-14T15:08:28.000Z</Time>
            <Position>
              <LatitudeDegrees>37.58337012492120265960693359375</LatitudeDegrees>
              <LongitudeDegrees>-8.07802221737802028656005859375</LongitudeDegrees>
            </Position>
            <AltitudeMeters>264.79998779296875</AltitudeMeters>
            <DistanceMeters>310886.94558325</DistanceMeters>
          </Trackpoint>
          <Trackpoint>
            <Time>2018-09-14T15:08:29.000Z</Time>
            <Position>
              <LatitudeDegrees>37.58332419209182262420654296875</LatitudeDegrees>
              <LongitudeDegrees>-8.07801358401775360107421875</LongitudeDegrees>
            </Position>
            <AltitudeMeters>265.20001220703125</AltitudeMeters>
            <DistanceMeters>310892.11384854</DistanceMeters>
          </Trackpoint>
          <Trackpoint>
            <Time>2018-09-14T15:08:30.000Z</Time>
            <Position>
              <LatitudeDegrees>37.58327876217663288116455078125</LatitudeDegrees>
              <LongitudeDegrees>-8.0780036933720111846923828125</LongitudeDegrees>
            </Position>
            <AltitudeMeters>265.399993896484375</AltitudeMeters>
            <DistanceMeters>310897.24529112</DistanceMeters>
          </Trackpoint>
          <Trackpoint>
            <Time>2018-09-14T15:08:31.000Z</Time>
            <Position>
              <LatitudeDegrees>37.58323282934725284576416015625</LatitudeDegrees>
              <LongitudeDegrees>-8.07799271307885646820068359375</LongitudeDegrees>
            </Position>
            <AltitudeMeters>265.600006103515625</AltitudeMeters>
            <DistanceMeters>310902.44838339</DistanceMeters>
          </Trackpoint>
          <Trackpoint>
            <Time>2018-09-14T15:08:32.000Z</Time>
            <Position>
              <LatitudeDegrees>37.58318714797496795654296875</LatitudeDegrees>
              <LongitudeDegrees>-8.07798014022409915924072265625</LongitudeDegrees>
            </Position>
            <AltitudeMeters>265.79998779296875</AltitudeMeters>
            <DistanceMeters>310907.65147566</DistanceMeters>
          </Trackpoint>
          <Trackpoint>
            <Time>2018-09-14T15:08:33.000Z</Time>
            <Position>
              <LatitudeDegrees>37.5831413827836513519287109375</LatitudeDegrees>
              <LongitudeDegrees>-8.0779678188264369964599609375</LongitudeDegrees>
            </Position>
            <AltitudeMeters>266</AltitudeMeters>
            <DistanceMeters>310912.85977189</DistanceMeters>
          </Trackpoint>
          <Trackpoint>
            <Time>2018-09-14T15:08:34.000Z</Time>
            <Position>
              <LatitudeDegrees>37.58309670723974704742431640625</LatitudeDegrees>
              <LongitudeDegrees>-8.077956922352313995361328125</LongitudeDegrees>
            </Position>
            <AltitudeMeters>266.399993896484375</AltitudeMeters>
            <DistanceMeters>310917.92390233</DistanceMeters>
          </Trackpoint>
          <Trackpoint>
            <Time>2018-09-14T15:08:35.000Z</Time>
            <Position>
              <LatitudeDegrees>37.58305228315293788909912109375</LatitudeDegrees>
              <LongitudeDegrees>-8.077947199344635009765625</LongitudeDegrees>
            </Position>
            <AltitudeMeters>266.600006103515625</AltitudeMeters>
            <DistanceMeters>310922.9432562</DistanceMeters>
          </Trackpoint>
          <Trackpoint>
            <Time>2018-09-14T15:08:36.000Z</Time>
            <Position>
              <LatitudeDegrees>37.58300769142806529998779296875</LatitudeDegrees>
              <LongitudeDegrees>-8.0779376439750194549560546875</LongitudeDegrees>
            </Position>
            <AltitudeMeters>266.79998779296875</AltitudeMeters>
            <DistanceMeters>310927.9787755</DistanceMeters>
          </Trackpoint>
          <Trackpoint>
            <Time>2018-09-14T15:08:37.000Z</Time>
            <Position>
              <LatitudeDegrees>37.5829633511602878570556640625</LatitudeDegrees>
              <LongitudeDegrees>-8.0779272504150867462158203125</LongitudeDegrees>
            </Position>
            <AltitudeMeters>267</AltitudeMeters>
            <DistanceMeters>310932.99812937</DistanceMeters>
          </Trackpoint>
          <Trackpoint>
            <Time>2018-09-14T15:08:38.000Z</Time>
            <Position>
              <LatitudeDegrees>37.58291917853057384490966796875</LatitudeDegrees>
              <LongitudeDegrees>-8.0779171921312808990478515625</LongitudeDegrees>
            </Position>
            <AltitudeMeters>267.20001220703125</AltitudeMeters>
            <DistanceMeters>310937.99404083</DistanceMeters>
          </Trackpoint>
          <Trackpoint>
            <Time>2018-09-14T15:08:39.000Z</Time>
            <Position>
              <LatitudeDegrees>37.5828751735389232635498046875</LatitudeDegrees>
              <LongitudeDegrees>-8.07790721766650676727294921875</LongitudeDegrees>
            </Position>
            <AltitudeMeters>267.399993896484375</AltitudeMeters>
            <DistanceMeters>310942.97003014</DistanceMeters>
          </Trackpoint>
          <Trackpoint>
            <Time>2018-09-14T15:08:40.000Z</Time>
            <Position>
              <LatitudeDegrees>37.5828305818140506744384765625</LatitudeDegrees>
              <LongitudeDegrees>-8.0778967402875423431396484375</LongitudeDegrees>
            </Position>
            <AltitudeMeters>267.399993896484375</AltitudeMeters>
            <DistanceMeters>310948.01808677</DistanceMeters>
          </Trackpoint>
          <Trackpoint>
            <Time>2018-09-14T15:08:41.000Z</Time>
            <Position>
              <LatitudeDegrees>37.5827859900891780853271484375</LatitudeDegrees>
              <LongitudeDegrees>-8.0778860114514827728271484375</LongitudeDegrees>
            </Position>
            <AltitudeMeters>267.600006103515625</AltitudeMeters>
            <DistanceMeters>310953.07061347</DistanceMeters>
          </Trackpoint>
          <Trackpoint>
            <Time>2018-09-14T15:08:42.000Z</Time>
            <Position>
              <LatitudeDegrees>37.582740895450115203857421875</LatitudeDegrees>
              <LongitudeDegrees>-8.07787545025348663330078125</LongitudeDegrees>
            </Position>
            <AltitudeMeters>267.79998779296875</AltitudeMeters>
            <DistanceMeters>310958.1755915</DistanceMeters>
          </Trackpoint>
          <Trackpoint>
            <Time>2018-09-14T15:08:43.000Z</Time>
            <Position>
              <LatitudeDegrees>37.5826944597065448760986328125</LatitudeDegrees>
              <LongitudeDegrees>-8.07786463759839534759521484375</LongitudeDegrees>
            </Position>
            <AltitudeMeters>268</AltitudeMeters>
            <DistanceMeters>310963.43049147</DistanceMeters>
          </Trackpoint>
          <Trackpoint>
            <Time>2018-09-14T15:08:44.000Z</Time>
            <Position>
              <LatitudeDegrees>37.58264802396297454833984375</LatitudeDegrees>
              <LongitudeDegrees>-8.077852316200733184814453125</LongitudeDegrees>
            </Position>
            <AltitudeMeters>268.20001220703125</AltitudeMeters>
            <DistanceMeters>310968.71195965</DistanceMeters>
          </Trackpoint>
          <Trackpoint>
            <Time>2018-09-14T15:08:45.000Z</Time>
            <Position>
              <LatitudeDegrees>37.582600414752960205078125</LatitudeDegrees>
              <LongitudeDegrees>-8.077840246260166168212890625</LongitudeDegrees>
            </Position>
            <AltitudeMeters>268.399993896484375</AltitudeMeters>
            <DistanceMeters>310974.11763513</DistanceMeters>
          </Trackpoint>
          <Trackpoint>
            <Time>2018-09-14T15:08:46.000Z</Time>
            <Position>
              <LatitudeDegrees>37.582552134990692138671875</LatitudeDegrees>
              <LongitudeDegrees>-8.07782976888120174407958984375</LongitudeDegrees>
            </Position>
            <AltitudeMeters>268.600006103515625</AltitudeMeters>
            <DistanceMeters>310979.57071149</DistanceMeters>
          </Trackpoint>
          <Trackpoint>
            <Time>2018-09-14T15:08:47.000Z</Time>
            <Position>
              <LatitudeDegrees>37.58250184357166290283203125</LatitudeDegrees>
              <LongitudeDegrees>-8.07781853713095188140869140625</LongitudeDegrees>
            </Position>
            <AltitudeMeters>268.600006103515625</AltitudeMeters>
            <DistanceMeters>310985.2564545</DistanceMeters>
          </Trackpoint>
          <Trackpoint>
            <Time>2018-09-14T15:08:48.000Z</Time>
            <Position>
              <LatitudeDegrees>37.58245046250522136688232421875</LatitudeDegrees>
              <LongitudeDegrees>-8.0778058804571628570556640625</LongitudeDegrees>
            </Position>
            <AltitudeMeters>268.600006103515625</AltitudeMeters>
            <DistanceMeters>310991.08338229</DistanceMeters>
          </Trackpoint>
          <Trackpoint>
            <Time>2018-09-14T15:08:49.000Z</Time>
            <Position>
              <LatitudeDegrees>37.58239899761974811553955078125</LatitudeDegrees>
              <LongitudeDegrees>-8.07779355905950069427490234375</LongitudeDegrees>
            </Position>
            <AltitudeMeters>268.399993896484375</AltitudeMeters>
            <DistanceMeters>310996.91418308</DistanceMeters>
          </Trackpoint>
          <Trackpoint>
            <Time>2018-09-14T15:08:50.000Z</Time>
            <Position>
              <LatitudeDegrees>37.58234837092459201812744140625</LatitudeDegrees>
              <LongitudeDegrees>-8.0777824111282825469970703125</LongitudeDegrees>
            </Position>
            <AltitudeMeters>268.20001220703125</AltitudeMeters>
            <DistanceMeters>311002.63318097</DistanceMeters>
          </Trackpoint>
          <Trackpoint>
            <Time>2018-09-14T15:08:51.000Z</Time>
            <Position>
              <LatitudeDegrees>37.5822964869439601898193359375</LatitudeDegrees>
              <LongitudeDegrees>-8.07777025736868381500244140625</LongitudeDegrees>
            </Position>
            <AltitudeMeters>268.20001220703125</AltitudeMeters>
            <DistanceMeters>311008.50641619</DistanceMeters>
          </Trackpoint>
          <Trackpoint>
            <Time>2018-09-14T15:08:52.000Z</Time>
            <Position>
              <LatitudeDegrees>37.5822431780397891998291015625</LatitudeDegrees>
              <LongitudeDegrees>-8.077757097780704498291015625</LongitudeDegrees>
            </Position>
            <AltitudeMeters>268.20001220703125</AltitudeMeters>
            <DistanceMeters>311014.55238588</DistanceMeters>
          </Trackpoint>
          <Trackpoint>
            <Time>2018-09-14T15:08:53.000Z</Time>
            <Position>
              <LatitudeDegrees>37.58218827657401561737060546875</LatitudeDegrees>
              <LongitudeDegrees>-8.0777451954782009124755859375</LongitudeDegrees>
            </Position>
            <AltitudeMeters>268.20001220703125</AltitudeMeters>
            <DistanceMeters>311020.75319756</DistanceMeters>
          </Trackpoint>
          <Trackpoint>
            <Time>2018-09-14T15:08:54.000Z</Time>
            <Position>
              <LatitudeDegrees>37.5821322016417980194091796875</LatitudeDegrees>
              <LongitudeDegrees>-8.077729605138301849365234375</LongitudeDegrees>
            </Position>
            <AltitudeMeters>268.399993896484375</AltitudeMeters>
            <DistanceMeters>311027.1440532</DistanceMeters>
          </Trackpoint>
          <Trackpoint>
            <Time>2018-09-14T15:08:55.000Z</Time>
            <Position>
              <LatitudeDegrees>37.58207612670958042144775390625</LatitudeDegrees>
              <LongitudeDegrees>-8.07771611027419567108154296875</LongitudeDegrees>
            </Position>
            <AltitudeMeters>268.399993896484375</AltitudeMeters>
            <DistanceMeters>311033.49806546</DistanceMeters>
          </Trackpoint>
          <Trackpoint>
            <Time>2018-09-14T15:08:56.000Z</Time>
            <Position>
              <LatitudeDegrees>37.58201996795833110809326171875</LatitudeDegrees>
              <LongitudeDegrees>-8.0777022801339626312255859375</LongitudeDegrees>
            </Position>
            <AltitudeMeters>268.399993896484375</AltitudeMeters>
            <DistanceMeters>311039.86556443</DistanceMeters>
          </Trackpoint>
          <Trackpoint>
            <Time>2018-09-14T15:08:57.000Z</Time>
            <Position>
              <LatitudeDegrees>37.5819642283022403717041015625</LatitudeDegrees>
              <LongitudeDegrees>-8.0776892043650150299072265625</LongitudeDegrees>
            </Position>
            <AltitudeMeters>268.600006103515625</AltitudeMeters>
            <DistanceMeters>311046.17608241</DistanceMeters>
          </Trackpoint>
          <Trackpoint>
            <Time>2018-09-14T15:08:58.000Z</Time>
            <Position>
              <LatitudeDegrees>37.5819089077413082122802734375</LatitudeDegrees>
              <LongitudeDegrees>-8.07767621241509914398193359375</LongitudeDegrees>
            </Position>
            <AltitudeMeters>268.600006103515625</AltitudeMeters>
            <DistanceMeters>311052.43920081</DistanceMeters>
          </Trackpoint>
          <Trackpoint>
            <Time>2018-09-14T15:08:59.000Z</Time>
            <Position>
              <LatitudeDegrees>37.58185232989490032196044921875</LatitudeDegrees>
              <LongitudeDegrees>-8.077661879360675811767578125</LongitudeDegrees>
            </Position>
            <AltitudeMeters>268.600006103515625</AltitudeMeters>
            <DistanceMeters>311058.86176954</DistanceMeters>
          </Trackpoint>
          <Trackpoint>
            <Time>2018-09-14T15:09:00.000Z</Time>
            <Position>
              <LatitudeDegrees>37.58179365657269954681396484375</LatitudeDegrees>
              <LongitudeDegrees>-8.07764570228755474090576171875</LongitudeDegrees>
            </Position>
            <AltitudeMeters>268.79998779296875</AltitudeMeters>
            <DistanceMeters>311065.54546524</DistanceMeters>
          </Trackpoint>
          <Trackpoint>
            <Time>2018-09-14T15:09:01.000Z</Time>
            <Position>
              <LatitudeDegrees>37.581735737621784210205078125</LatitudeDegrees>
              <LongitudeDegrees>-8.07763128541409969329833984375</LongitudeDegrees>
            </Position>
            <AltitudeMeters>268.79998779296875</AltitudeMeters>
            <DistanceMeters>311072.11537889</DistanceMeters>
          </Trackpoint>
          <Trackpoint>
            <Time>2018-09-14T15:09:02.000Z</Time>
            <Position>
              <LatitudeDegrees>37.58167899213731288909912109375</LatitudeDegrees>
              <LongitudeDegrees>-8.077616952359676361083984375</LongitudeDegrees>
            </Position>
            <AltitudeMeters>269</AltitudeMeters>
            <DistanceMeters>311078.55619959</DistanceMeters>
          </Trackpoint>
          <Trackpoint>
            <Time>2018-09-14T15:09:03.000Z</Time>
            <Position>
              <LatitudeDegrees>37.5816215761005878448486328125</LatitudeDegrees>
              <LongitudeDegrees>-8.07760245166718959808349609375</LongitudeDegrees>
            </Position>
            <AltitudeMeters>269</AltitudeMeters>
            <DistanceMeters>311085.07367453</DistanceMeters>
          </Trackpoint>
          <Trackpoint>
            <Time>2018-09-14T15:09:04.000Z</Time>
            <Position>
              <LatitudeDegrees>37.58156239986419677734375</LatitudeDegrees>
              <LongitudeDegrees>-8.077588118612766265869140625</LongitudeDegrees>
            </Position>
            <AltitudeMeters>269</AltitudeMeters>
            <DistanceMeters>311091.78097211</DistanceMeters>
          </Trackpoint>
          <Trackpoint>
            <Time>2018-09-14T15:09:05.000Z</Time>
            <Position>
              <LatitudeDegrees>37.58150565437972545623779296875</LatitudeDegrees>
              <LongitudeDegrees>-8.0775742046535015106201171875</LongitudeDegrees>
            </Position>
            <AltitudeMeters>269.20001220703125</AltitudeMeters>
            <DistanceMeters>311098.21477894</DistanceMeters>
          </Trackpoint>
          <Trackpoint>
            <Time>2018-09-14T15:09:06.000Z</Time>
            <Position>
              <LatitudeDegrees>37.58144907653331756591796875</LatitudeDegrees>
              <LongitudeDegrees>-8.07756473310291767120361328125</LongitudeDegrees>
            </Position>
            <AltitudeMeters>269.20001220703125</AltitudeMeters>
            <DistanceMeters>311104.5666591</DistanceMeters>
          </Trackpoint>
          <Trackpoint>
            <Time>2018-09-14T15:09:07.000Z</Time>
            <Position>
              <LatitudeDegrees>37.58139417506754398345947265625</LatitudeDegrees>
              <LongitudeDegrees>-8.077547550201416015625</LongitudeDegrees>
            </Position>
            <AltitudeMeters>269.20001220703125</AltitudeMeters>
            <DistanceMeters>311110.86141688</DistanceMeters>
          </Trackpoint>
          <Trackpoint>
            <Time>2018-09-14T15:09:08.000Z</Time>
            <Position>
              <LatitudeDegrees>37.58133910596370697021484375</LatitudeDegrees>
              <LongitudeDegrees>-8.07753204368054866790771484375</LongitudeDegrees>
            </Position>
            <AltitudeMeters>269.399993896484375</AltitudeMeters>
            <DistanceMeters>311117.14109393</DistanceMeters>
          </Trackpoint>
          <Trackpoint>
            <Time>2018-09-14T15:09:09.000Z</Time>
            <Position>
              <LatitudeDegrees>37.58128353394567966461181640625</LatitudeDegrees>
              <LongitudeDegrees>-8.07751829735934734344482421875</LongitudeDegrees>
            </Position>
            <AltitudeMeters>269.399993896484375</AltitudeMeters>
            <DistanceMeters>311123.44445306</DistanceMeters>
          </Trackpoint>
          <Trackpoint>
            <Time>2018-09-14T15:09:10.000Z</Time>
            <Position>
              <LatitudeDegrees>37.58122854866087436676025390625</LatitudeDegrees>
              <LongitudeDegrees>-8.07750287465751171112060546875</LongitudeDegrees>
            </Position>
            <AltitudeMeters>269.399993896484375</AltitudeMeters>
            <DistanceMeters>311129.71477624</DistanceMeters>
          </Trackpoint>
          <Trackpoint>
            <Time>2018-09-14T15:09:11.000Z</Time>
            <Position>
              <LatitudeDegrees>37.58117373101413249969482421875</LatitudeDegrees>
              <LongitudeDegrees>-8.077488876879215240478515625</LongitudeDegrees>
            </Position>
            <AltitudeMeters>269.600006103515625</AltitudeMeters>
            <DistanceMeters>311135.94029535</DistanceMeters>
          </Trackpoint>
          <Trackpoint>
            <Time>2018-09-14T15:09:12.000Z</Time>
            <Position>
              <LatitudeDegrees>37.58111916482448577880859375</LatitudeDegrees>
              <LongitudeDegrees>-8.07747605256736278533935546875</LongitudeDegrees>
            </Position>
            <AltitudeMeters>269.600006103515625</AltitudeMeters>
            <DistanceMeters>311142.11776271</DistanceMeters>
          </Trackpoint>
          <Trackpoint>
            <Time>2018-09-14T15:09:13.000Z</Time>
            <Position>
              <LatitudeDegrees>37.58106459863483905792236328125</LatitudeDegrees>
              <LongitudeDegrees>-8.07746431790292263031005859375</LongitudeDegrees>
            </Position>
            <AltitudeMeters>269.600006103515625</AltitudeMeters>
            <DistanceMeters>311148.27912955</DistanceMeters>
          </Trackpoint>
          <Trackpoint>
            <Time>2018-09-14T15:09:14.000Z</Time>
            <Position>
              <LatitudeDegrees>37.5810093618929386138916015625</LatitudeDegrees>
              <LongitudeDegrees>-8.077451996505260467529296875</LongitudeDegrees>
            </Position>
            <AltitudeMeters>269.600006103515625</AltitudeMeters>
            <DistanceMeters>311154.5234766</DistanceMeters>
          </Trackpoint>
          <Trackpoint>
            <Time>2018-09-14T15:09:15.000Z</Time>
            <Position>
              <LatitudeDegrees>37.5809543766081333160400390625</LatitudeDegrees>
              <LongitudeDegrees>-8.0774397589266300201416015625</LongitudeDegrees>
            </Position>
            <AltitudeMeters>269.79998779296875</AltitudeMeters>
            <DistanceMeters>311160.73883396</DistanceMeters>
          </Trackpoint>
          <Trackpoint>
            <Time>2018-09-14T15:09:16.000Z</Time>
            <Position>
              <LatitudeDegrees>37.58089997805655002593994140625</LatitudeDegrees>
              <LongitudeDegrees>-8.07742794044315814971923828125</LongitudeDegrees>
            </Position>
            <AltitudeMeters>269.79998779296875</AltitudeMeters>
            <DistanceMeters>311166.88258847</DistanceMeters>
          </Trackpoint>
          <Trackpoint>
            <Time>2018-09-14T15:09:17.000Z</Time>
            <Position>
              <LatitudeDegrees>37.5808457471430301666259765625</LatitudeDegrees>
              <LongitudeDegrees>-8.07741679251194000244140625</LongitudeDegrees>
            </Position>
            <AltitudeMeters>269.79998779296875</AltitudeMeters>
            <DistanceMeters>311172.99761476</DistanceMeters>
          </Trackpoint>
          <Trackpoint>
            <Time>2018-09-14T15:09:18.000Z</Time>
            <Position>
              <LatitudeDegrees>37.5807910971343517303466796875</LatitudeDegrees>
              <LongitudeDegrees>-8.07740338146686553955078125</LongitudeDegrees>
            </Position>
            <AltitudeMeters>270</AltitudeMeters>
            <DistanceMeters>311179.19405608</DistanceMeters>
          </Trackpoint>
          <Trackpoint>
            <Time>2018-09-14T15:09:19.000Z</Time>
            <Position>
              <LatitudeDegrees>37.5807377882301807403564453125</LatitudeDegrees>
              <LongitudeDegrees>-8.077390305697917938232421875</LongitudeDegrees>
            </Position>
            <AltitudeMeters>270.20001220703125</AltitudeMeters>
            <DistanceMeters>311185.23927894</DistanceMeters>
          </Trackpoint>
          <Trackpoint>
            <Time>2018-09-14T15:09:20.000Z</Time>
            <Position>
              <LatitudeDegrees>37.58068590424954891204833984375</LatitudeDegrees>
              <LongitudeDegrees>-8.0773770622909069061279296875</LongitudeDegrees>
            </Position>
            <AltitudeMeters>270.399993896484375</AltitudeMeters>
            <DistanceMeters>311191.13093523</DistanceMeters>
          </Trackpoint>
          <Trackpoint>
            <Time>2018-09-14T15:09:21.000Z</Time>
            <Position>
              <LatitudeDegrees>37.58063393644988536834716796875</LatitudeDegrees>
              <LongitudeDegrees>-8.077363483607769012451171875</LongitudeDegrees>
            </Position>
            <AltitudeMeters>270.600006103515625</AltitudeMeters>
            <DistanceMeters>311197.03789853</DistanceMeters>
          </Trackpoint>
          <Trackpoint>
            <Time>2018-09-14T15:09:22.000Z</Time>
            <Position>
              <LatitudeDegrees>37.58058146573603153228759765625</LatitudeDegrees>
              <LongitudeDegrees>-8.07735367678105831146240234375</LongitudeDegrees>
            </Position>
            <AltitudeMeters>270.79998779296875</AltitudeMeters>
            <DistanceMeters>311202.9418036</DistanceMeters>
          </Trackpoint>
          <Trackpoint>
            <Time>2018-09-14T15:09:23.000Z</Time>
            <Position>
              <LatitudeDegrees>37.580531425774097442626953125</LatitudeDegrees>
              <LongitudeDegrees>-8.0773438699543476104736328125</LongitudeDegrees>
            </Position>
            <AltitudeMeters>271</AltitudeMeters>
            <DistanceMeters>311208.5788985</DistanceMeters>
          </Trackpoint>
          <Trackpoint>
            <Time>2018-09-14T15:09:24.000Z</Time>
            <Position>
              <LatitudeDegrees>37.58048222400248050689697265625</LatitudeDegrees>
              <LongitudeDegrees>-8.0773328058421611785888671875</LongitudeDegrees>
            </Position>
            <AltitudeMeters>271.20001220703125</AltitudeMeters>
            <DistanceMeters>311214.14262945</DistanceMeters>
          </Trackpoint>
          <Trackpoint>
            <Time>2018-09-14T15:09:25.000Z</Time>
            <Position>
              <LatitudeDegrees>37.58043293841183185577392578125</LatitudeDegrees>
              <LongitudeDegrees>-8.07732031680643558502197265625</LongitudeDegrees>
            </Position>
            <AltitudeMeters>271.399993896484375</AltitudeMeters>
            <DistanceMeters>311219.73791988</DistanceMeters>
          </Trackpoint>
          <Trackpoint>
            <Time>2018-09-14T15:09:26.000Z</Time>
            <Position>
              <LatitudeDegrees>37.5803860835731029510498046875</LatitudeDegrees>
              <LongitudeDegrees>-8.077304475009441375732421875</LongitudeDegrees>
            </Position>
            <AltitudeMeters>271.600006103515625</AltitudeMeters>
            <DistanceMeters>311225.13607297</DistanceMeters>
          </Trackpoint>
          <Trackpoint>
            <Time>2018-09-14T15:09:27.000Z</Time>
            <Position>
              <LatitudeDegrees>37.58033537305891513824462890625</LatitudeDegrees>
              <LongitudeDegrees>-8.077287375926971435546875</LongitudeDegrees>
            </Position>
            <AltitudeMeters>271.79998779296875</AltitudeMeters>
            <DistanceMeters>311230.97847735</DistanceMeters>
          </Trackpoint>
          <Trackpoint>
            <Time>2018-09-14T15:09:28.000Z</Time>
            <Position>
              <LatitudeDegrees>37.58028223179280757904052734375</LatitudeDegrees>
              <LongitudeDegrees>-8.07727388106286525726318359375</LongitudeDegrees>
            </Position>
            <AltitudeMeters>271.79998779296875</AltitudeMeters>
            <DistanceMeters>311237.01173834</DistanceMeters>
          </Trackpoint>
          <Trackpoint>
            <Time>2018-09-14T15:09:29.000Z</Time>
            <Position>
              <LatitudeDegrees>37.5802266597747802734375</LatitudeDegrees>
              <LongitudeDegrees>-8.07725879363715648651123046875</LongitudeDegrees>
            </Position>
            <AltitudeMeters>271.600006103515625</AltitudeMeters>
            <DistanceMeters>311243.33797725</DistanceMeters>
          </Trackpoint>
          <Trackpoint>
            <Time>2018-09-14T15:09:30.000Z</Time>
            <Position>
              <LatitudeDegrees>37.58017410524189472198486328125</LatitudeDegrees>
              <LongitudeDegrees>-8.0772449634969234466552734375</LongitudeDegrees>
            </Position>
            <AltitudeMeters>271.600006103515625</AltitudeMeters>
            <DistanceMeters>311249.31333684</DistanceMeters>
          </Trackpoint>
          <Trackpoint>
            <Time>2018-09-14T15:09:31.000Z</Time>
            <Position>
              <LatitudeDegrees>37.58012230508029460906982421875</LatitudeDegrees>
              <LongitudeDegrees>-8.07722945697605609893798828125</LongitudeDegrees>
            </Position>
            <AltitudeMeters>271.600006103515625</AltitudeMeters>
            <DistanceMeters>311255.23861635</DistanceMeters>
          </Trackpoint>
          <Trackpoint>
            <Time>2018-09-14T15:09:32.000Z</Time>
            <Position>
              <LatitudeDegrees>37.5800697505474090576171875</LatitudeDegrees>
              <LongitudeDegrees>-8.07721537537872791290283203125</LongitudeDegrees>
            </Position>
            <AltitudeMeters>271.600006103515625</AltitudeMeters>
            <DistanceMeters>311261.21850788</DistanceMeters>
          </Trackpoint>
          <Trackpoint>
            <Time>2018-09-14T15:09:33.000Z</Time>
            <Position>
              <LatitudeDegrees>37.5800166092813014984130859375</LatitudeDegrees>
              <LongitudeDegrees>-8.0772030539810657501220703125</LongitudeDegrees>
            </Position>
            <AltitudeMeters>271.399993896484375</AltitudeMeters>
            <DistanceMeters>311267.23303082</DistanceMeters>
          </Trackpoint>
          <Trackpoint>
            <Time>2018-09-14T15:09:34.000Z</Time>
            <Position>
              <LatitudeDegrees>37.579963468015193939208984375</LatitudeDegrees>
              <LongitudeDegrees>-8.07719073258340358734130859375</LongitudeDegrees>
            </Position>
            <AltitudeMeters>271.600006103515625</AltitudeMeters>
            <DistanceMeters>311273.2460522</DistanceMeters>
          </Trackpoint>
          <Trackpoint>
            <Time>2018-09-14T15:09:35.000Z</Time>
            <Position>
              <LatitudeDegrees>37.57991108112037181854248046875</LatitudeDegrees>
              <LongitudeDegrees>-8.07717950083315372467041015625</LongitudeDegrees>
            </Position>
            <AltitudeMeters>271.600006103515625</AltitudeMeters>
            <DistanceMeters>311279.1591272</DistanceMeters>
          </Trackpoint>
          <Trackpoint>
            <Time>2018-09-14T15:09:36.000Z</Time>
            <Position>
              <LatitudeDegrees>37.57985777221620082855224609375</LatitudeDegrees>
              <LongitudeDegrees>-8.07716810144484043121337890625</LongitudeDegrees>
            </Position>
            <AltitudeMeters>271.600006103515625</AltitudeMeters>
            <DistanceMeters>311285.17590179</DistanceMeters>
          </Trackpoint>
          <Trackpoint>
            <Time>2018-09-14T15:09:37.000Z</Time>
            <Position>
              <LatitudeDegrees>37.57980429567396640777587890625</LatitudeDegrees>
              <LongitudeDegrees>-8.07715754024684429168701171875</LongitudeDegrees>
            </Position>
            <AltitudeMeters>271.79998779296875</AltitudeMeters>
            <DistanceMeters>311291.20017579</DistanceMeters>
          </Trackpoint>
          <Trackpoint>
            <Time>2018-09-14T15:09:38.000Z</Time>
            <Position>
              <LatitudeDegrees>37.5797510705888271331787109375</LatitudeDegrees>
              <LongitudeDegrees>-8.07714597322046756744384765625</LongitudeDegrees>
            </Position>
            <AltitudeMeters>271.79998779296875</AltitudeMeters>
            <DistanceMeters>311297.21169523</DistanceMeters>
          </Trackpoint>
          <Trackpoint>
            <Time>2018-09-14T15:09:39.000Z</Time>
            <Position>
              <LatitudeDegrees>37.5796987675130367279052734375</LatitudeDegrees>
              <LongitudeDegrees>-8.0771326459944248199462890625</LongitudeDegrees>
            </Position>
            <AltitudeMeters>272</AltitudeMeters>
            <DistanceMeters>311303.15067482</DistanceMeters>
          </Trackpoint>
          <Trackpoint>
            <Time>2018-09-14T15:09:40.000Z</Time>
            <Position>
              <LatitudeDegrees>37.579646296799182891845703125</LatitudeDegrees>
              <LongitudeDegrees>-8.07711898349225521087646484375</LongitudeDegrees>
            </Position>
            <AltitudeMeters>272</AltitudeMeters>
            <DistanceMeters>311309.1139324</DistanceMeters>
          </Trackpoint>
          <Trackpoint>
            <Time>2018-09-14T15:09:41.000Z</Time>
            <Position>
              <LatitudeDegrees>37.57959374226629734039306640625</LatitudeDegrees>
              <LongitudeDegrees>-8.0771058239042758941650390625</LongitudeDegrees>
            </Position>
            <AltitudeMeters>272.20001220703125</AltitudeMeters>
            <DistanceMeters>311315.07718999</DistanceMeters>
          </Trackpoint>
          <Trackpoint>
            <Time>2018-09-14T15:09:42.000Z</Time>
            <Position>
              <LatitudeDegrees>37.5795405171811580657958984375</LatitudeDegrees>
              <LongitudeDegrees>-8.07709350250661373138427734375</LongitudeDegrees>
            </Position>
            <AltitudeMeters>272.399993896484375</AltitudeMeters>
            <DistanceMeters>311321.10071447</DistanceMeters>
          </Trackpoint>
          <Trackpoint>
            <Time>2018-09-14T15:09:43.000Z</Time>
            <Position>
              <LatitudeDegrees>37.579486370086669921875</LatitudeDegrees>
              <LongitudeDegrees>-8.0770803429186344146728515625</LongitudeDegrees>
            </Position>
            <AltitudeMeters>272.600006103515625</AltitudeMeters>
            <DistanceMeters>311327.23858698</DistanceMeters>
          </Trackpoint>
          <Trackpoint>
            <Time>2018-09-14T15:09:44.000Z</Time>
            <Position>
              <LatitudeDegrees>37.57943205535411834716796875</LatitudeDegrees>
              <LongitudeDegrees>-8.07706651277840137481689453125</LongitudeDegrees>
            </Position>
            <AltitudeMeters>272.600006103515625</AltitudeMeters>
            <DistanceMeters>311333.40581342</DistanceMeters>
          </Trackpoint>
          <Trackpoint>
            <Time>2018-09-14T15:09:45.000Z</Time>
            <Position>
              <LatitudeDegrees>37.57937765680253505706787109375</LatitudeDegrees>
              <LongitudeDegrees>-8.07705360464751720428466796875</LongitudeDegrees>
            </Position>
            <AltitudeMeters>272.79998779296875</AltitudeMeters>
            <DistanceMeters>311339.56571449</DistanceMeters>
          </Trackpoint>
          <Trackpoint>
            <Time>2018-09-14T15:09:46.000Z</Time>
            <Position>
              <LatitudeDegrees>37.579323090612888336181640625</LatitudeDegrees>
              <LongitudeDegrees>-8.07704136706888675689697265625</LongitudeDegrees>
            </Position>
            <AltitudeMeters>273</AltitudeMeters>
            <DistanceMeters>311345.73440496</DistanceMeters>
          </Trackpoint>
          <Trackpoint>
            <Time>2018-09-14T15:09:47.000Z</Time>
            <Position>
              <LatitudeDegrees>37.5792682729661464691162109375</LatitudeDegrees>
              <LongitudeDegrees>-8.077029883861541748046875</LongitudeDegrees>
            </Position>
            <AltitudeMeters>273.20001220703125</AltitudeMeters>
            <DistanceMeters>311351.91990687</DistanceMeters>
          </Trackpoint>
          <Trackpoint>
            <Time>2018-09-14T15:09:48.000Z</Time>
            <Position>
              <LatitudeDegrees>37.57921286858618259429931640625</LatitudeDegrees>
              <LongitudeDegrees>-8.0770178139209747314453125</LongitudeDegrees>
            </Position>
            <AltitudeMeters>273.399993896484375</AltitudeMeters>
            <DistanceMeters>311358.17869842</DistanceMeters>
          </Trackpoint>
          <Trackpoint>
            <Time>2018-09-14T15:09:49.000Z</Time>
            <Position>
              <LatitudeDegrees>37.5791572965681552886962890625</LatitudeDegrees>
              <LongitudeDegrees>-8.077004738152027130126953125</LongitudeDegrees>
            </Position>
            <AltitudeMeters>273.399993896484375</AltitudeMeters>
            <DistanceMeters>311364.47130402</DistanceMeters>
          </Trackpoint>
          <Trackpoint>
            <Time>2018-09-14T15:09:50.000Z</Time>
            <Position>
              <LatitudeDegrees>37.5791013054549694061279296875</LatitudeDegrees>
              <LongitudeDegrees>-8.07699141092598438262939453125</LongitudeDegrees>
            </Position>
            <AltitudeMeters>273.399993896484375</AltitudeMeters>
            <DistanceMeters>311370.8132249</DistanceMeters>
          </Trackpoint>
          <Trackpoint>
            <Time>2018-09-14T15:09:51.000Z</Time>
            <Position>
              <LatitudeDegrees>37.5790446437895298004150390625</LatitudeDegrees>
              <LongitudeDegrees>-8.07697749696671962738037109375</LongitudeDegrees>
            </Position>
            <AltitudeMeters>273.399993896484375</AltitudeMeters>
            <DistanceMeters>311377.23860501</DistanceMeters>
          </Trackpoint>
          <Trackpoint>
            <Time>2018-09-14T15:09:52.000Z</Time>
            <Position>
              <LatitudeDegrees>37.5789879821240901947021484375</LatitudeDegrees>
              <LongitudeDegrees>-8.0769653432071208953857421875</LongitudeDegrees>
            </Position>
            <AltitudeMeters>273.20001220703125</AltitudeMeters>
            <DistanceMeters>311383.63581584</DistanceMeters>
          </Trackpoint>
          <Trackpoint>
            <Time>2018-09-14T15:09:53.000Z</Time>
            <Position>
              <LatitudeDegrees>37.57892939262092113494873046875</LatitudeDegrees>
              <LongitudeDegrees>-8.07695587165653705596923828125</LongitudeDegrees>
            </Position>
            <AltitudeMeters>273.20001220703125</AltitudeMeters>
            <DistanceMeters>311390.20985157</DistanceMeters>
          </Trackpoint>
          <Trackpoint>
            <Time>2018-09-14T15:09:54.000Z</Time>
            <Position>
              <LatitudeDegrees>37.57886904291808605194091796875</LatitudeDegrees>
              <LongitudeDegrees>-8.0769458971917629241943359375</LongitudeDegrees>
            </Position>
            <AltitudeMeters>273</AltitudeMeters>
            <DistanceMeters>311396.98413002</DistanceMeters>
          </Trackpoint>
          <Trackpoint>
            <Time>2018-09-14T15:09:55.000Z</Time>
            <Position>
              <LatitudeDegrees>37.57880634628236293792724609375</LatitudeDegrees>
              <LongitudeDegrees>-8.0769355036318302154541015625</LongitudeDegrees>
            </Position>
            <AltitudeMeters>272.79998779296875</AltitudeMeters>
            <DistanceMeters>311404.02252468</DistanceMeters>
          </Trackpoint>
          <Trackpoint>
            <Time>2018-09-14T15:09:56.000Z</Time>
            <Position>
              <LatitudeDegrees>37.57874163798987865447998046875</LatitudeDegrees>
              <LongitudeDegrees>-8.07692569680511951446533203125</LongitudeDegrees>
            </Position>
            <AltitudeMeters>272.79998779296875</AltitudeMeters>
            <DistanceMeters>311411.27699127</DistanceMeters>
          </Trackpoint>
          <Trackpoint>
            <Time>2018-09-14T15:09:57.000Z</Time>
            <Position>
              <LatitudeDegrees>37.5786765106022357940673828125</LatitudeDegrees>
              <LongitudeDegrees>-8.0769150517880916595458984375</LongitudeDegrees>
            </Position>
            <AltitudeMeters>272.600006103515625</AltitudeMeters>
            <DistanceMeters>311418.58540438</DistanceMeters>
          </Trackpoint>
          <Trackpoint>
            <Time>2018-09-14T15:09:58.000Z</Time>
            <Position>
              <LatitudeDegrees>37.5786114670336246490478515625</LatitudeDegrees>
              <LongitudeDegrees>-8.0769026465713977813720703125</LongitudeDegrees>
            </Position>
            <AltitudeMeters>272.399993896484375</AltitudeMeters>
            <DistanceMeters>311425.90739618</DistanceMeters>
          </Trackpoint>
          <Trackpoint>
            <Time>2018-09-14T15:09:59.000Z</Time>
            <Position>
              <LatitudeDegrees>37.57854684256017208099365234375</LatitudeDegrees>
              <LongitudeDegrees>-8.07688831351697444915771484375</LongitudeDegrees>
            </Position>
            <AltitudeMeters>272.399993896484375</AltitudeMeters>
            <DistanceMeters>311433.21024709</DistanceMeters>
          </Trackpoint>
          <Trackpoint>
            <Time>2018-09-14T15:10:00.000Z</Time>
            <Position>
              <LatitudeDegrees>37.578481547534465789794921875</LatitudeDegrees>
              <LongitudeDegrees>-8.07687356136739253997802734375</LongitudeDegrees>
            </Position>
            <AltitudeMeters>272.20001220703125</AltitudeMeters>
            <DistanceMeters>311440.59303392</DistanceMeters>
          </Trackpoint>
          <Trackpoint>
            <Time>2018-09-14T15:10:01.000Z</Time>
            <Position>
              <LatitudeDegrees>37.5784160010516643524169921875</LatitudeDegrees>
              <LongitudeDegrees>-8.0768568813800811767578125</LongitudeDegrees>
            </Position>
            <AltitudeMeters>272</AltitudeMeters>
            <DistanceMeters>311448.0355126</DistanceMeters>
          </Trackpoint>
          <Trackpoint>
            <Time>2018-09-14T15:10:02.000Z</Time>
            <Position>
              <LatitudeDegrees>37.57834953255951404571533203125</LatitudeDegrees>
              <LongitudeDegrees>-8.07683869265019893646240234375</LongitudeDegrees>
            </Position>
            <AltitudeMeters>272</AltitudeMeters>
            <DistanceMeters>311455.6055103</DistanceMeters>
          </Trackpoint>
          <Trackpoint>
            <Time>2018-09-14T15:10:03.000Z</Time>
            <Position>
              <LatitudeDegrees>37.5782818906009197235107421875</LatitudeDegrees>
              <LongitudeDegrees>-8.0768208391964435577392578125</LongitudeDegrees>
            </Position>
            <AltitudeMeters>271.79998779296875</AltitudeMeters>
            <DistanceMeters>311463.29680608</DistanceMeters>
          </Trackpoint>
          <Trackpoint>
            <Time>2018-09-14T15:10:04.000Z</Time>
            <Position>
              <LatitudeDegrees>37.5782138295471668243408203125</LatitudeDegrees>
              <LongitudeDegrees>-8.0768037401139736175537109375</LongitudeDegrees>
            </Position>
            <AltitudeMeters>271.600006103515625</AltitudeMeters>
            <DistanceMeters>311471.02032115</DistanceMeters>
          </Trackpoint>
          <Trackpoint>
            <Time>2018-09-14T15:10:05.000Z</Time>
            <Position>
              <LatitudeDegrees>37.5781450979411602020263671875</LatitudeDegrees>
              <LongitudeDegrees>-8.076787479221820831298828125</LongitudeDegrees>
            </Position>
            <AltitudeMeters>271.399993896484375</AltitudeMeters>
            <DistanceMeters>311478.8032353</DistanceMeters>
          </Trackpoint>
          <Trackpoint>
            <Time>2018-09-14T15:10:06.000Z</Time>
            <Position>
              <LatitudeDegrees>37.57807477377355098724365234375</LatitudeDegrees>
              <LongitudeDegrees>-8.07677012868225574493408203125</LongitudeDegrees>
            </Position>
            <AltitudeMeters>271</AltitudeMeters>
            <DistanceMeters>311486.7786888</DistanceMeters>
          </Trackpoint>
          <Trackpoint>
            <Time>2018-09-14T15:10:07.000Z</Time>
            <Position>
              <LatitudeDegrees>37.578003443777561187744140625</LatitudeDegrees>
              <LongitudeDegrees>-8.076751939952373504638671875</LongitudeDegrees>
            </Position>
            <AltitudeMeters>270.79998779296875</AltitudeMeters>
            <DistanceMeters>311494.87828789</DistanceMeters>
          </Trackpoint>
          <Trackpoint>
            <Time>2018-09-14T15:10:08.000Z</Time>
            <Position>
              <LatitudeDegrees>37.57793010212481021881103515625</LatitudeDegrees>
              <LongitudeDegrees>-8.07673358358442783355712890625</LongitudeDegrees>
            </Position>
            <AltitudeMeters>270.600006103515625</AltitudeMeters>
            <DistanceMeters>311503.20058843</DistanceMeters>
          </Trackpoint>
          <Trackpoint>
            <Time>2018-09-14T15:10:09.000Z</Time>
            <Position>
              <LatitudeDegrees>37.57785583846271038055419921875</LatitudeDegrees>
              <LongitudeDegrees>-8.07671464048326015472412109375</LongitudeDegrees>
            </Position>
            <AltitudeMeters>270.399993896484375</AltitudeMeters>
            <DistanceMeters>311511.63337279</DistanceMeters>
          </Trackpoint>
          <Trackpoint>
            <Time>2018-09-14T15:10:10.000Z</Time>
            <Position>
              <LatitudeDegrees>37.57778006605803966522216796875</LatitudeDegrees>
              <LongitudeDegrees>-8.076696284115314483642578125</LongitudeDegrees>
            </Position>
            <AltitudeMeters>270.20001220703125</AltitudeMeters>
            <DistanceMeters>311520.22160103</DistanceMeters>
          </Trackpoint>
          <Trackpoint>
            <Time>2018-09-14T15:10:11.000Z</Time>
            <Position>
              <LatitudeDegrees>37.57770295254886150360107421875</LatitudeDegrees>
              <LongitudeDegrees>-8.07667784392833709716796875</LongitudeDegrees>
            </Position>
            <AltitudeMeters>269.79998779296875</AltitudeMeters>
            <DistanceMeters>311528.95785916</DistanceMeters>
          </Trackpoint>
          <Trackpoint>
            <Time>2018-09-14T15:10:12.000Z</Time>
            <Position>
              <LatitudeDegrees>37.57762550376355648040771484375</LatitudeDegrees>
              <LongitudeDegrees>-8.07665831409394741058349609375</LongitudeDegrees>
            </Position>
            <AltitudeMeters>269.600006103515625</AltitudeMeters>
            <DistanceMeters>311537.7487291</DistanceMeters>
          </Trackpoint>
          <Trackpoint>
            <Time>2018-09-14T15:10:13.000Z</Time>
            <Position>
              <LatitudeDegrees>37.57754822261631488800048828125</LatitudeDegrees>
              <LongitudeDegrees>-8.0766384489834308624267578125</LongitudeDegrees>
            </Position>
            <AltitudeMeters>269.399993896484375</AltitudeMeters>
            <DistanceMeters>311546.52726385</DistanceMeters>
          </Trackpoint>
          <Trackpoint>
            <Time>2018-09-14T15:10:14.000Z</Time>
            <Position>
              <LatitudeDegrees>37.577471695840358734130859375</LatitudeDegrees>
              <LongitudeDegrees>-8.07661741040647029876708984375</LongitudeDegrees>
            </Position>
            <AltitudeMeters>269.399993896484375</AltitudeMeters>
            <DistanceMeters>311555.24437881</DistanceMeters>
          </Trackpoint>
          <Trackpoint>
            <Time>2018-09-14T15:10:15.000Z</Time>
            <Position>
              <LatitudeDegrees>37.57739625871181488037109375</LatitudeDegrees>
              <LongitudeDegrees>-8.07659612037241458892822265625</LongitudeDegrees>
            </Position>
            <AltitudeMeters>269.600006103515625</AltitudeMeters>
            <DistanceMeters>311563.84836432</DistanceMeters>
          </Trackpoint>
          <Trackpoint>
            <Time>2018-09-14T15:10:16.000Z</Time>
            <Position>
              <LatitudeDegrees>37.577321492135524749755859375</LatitudeDegrees>
              <LongitudeDegrees>-8.076574243605136871337890625</LongitudeDegrees>
            </Position>
            <AltitudeMeters>270</AltitudeMeters>
            <DistanceMeters>311572.39126066</DistanceMeters>
          </Trackpoint>
          <Trackpoint>
            <Time>2018-09-14T15:10:17.000Z</Time>
            <Position>
              <LatitudeDegrees>37.57724764756858348846435546875</LatitudeDegrees>
              <LongitudeDegrees>-8.07655052281916141510009765625</LongitudeDegrees>
            </Position>
            <AltitudeMeters>270.20001220703125</AltitudeMeters>
            <DistanceMeters>311580.87262782</DistanceMeters>
          </Trackpoint>
          <Trackpoint>
            <Time>2018-09-14T15:10:18.000Z</Time>
            <Position>
              <LatitudeDegrees>37.5771751441061496734619140625</LatitudeDegrees>
              <LongitudeDegrees>-8.076526634395122528076171875</LongitudeDegrees>
            </Position>
            <AltitudeMeters>270.399993896484375</AltitudeMeters>
            <DistanceMeters>311589.21335374</DistanceMeters>
          </Trackpoint>
          <Trackpoint>
            <Time>2018-09-14T15:10:19.000Z</Time>
            <Position>
              <LatitudeDegrees>37.57710255682468414306640625</LatitudeDegrees>
              <LongitudeDegrees>-8.0765060149133205413818359375</LongitudeDegrees>
            </Position>
            <AltitudeMeters>270.600006103515625</AltitudeMeters>
            <DistanceMeters>311597.4943199</DistanceMeters>
          </Trackpoint>
          <Trackpoint>
            <Time>2018-09-14T15:10:20.000Z</Time>
            <Position>
              <LatitudeDegrees>37.57702887989580631256103515625</LatitudeDegrees>
              <LongitudeDegrees>-8.07648765854537487030029296875</LongitudeDegrees>
            </Position>
            <AltitudeMeters>270.79998779296875</AltitudeMeters>
            <DistanceMeters>311605.85235025</DistanceMeters>
          </Trackpoint>
          <Trackpoint>
            <Time>2018-09-14T15:10:21.000Z</Time>
            <Position>
              <LatitudeDegrees>37.57695478387176990509033203125</LatitudeDegrees>
              <LongitudeDegrees>-8.07646720670163631439208984375</LongitudeDegrees>
            </Position>
            <AltitudeMeters>271</AltitudeMeters>
            <DistanceMeters>311614.29423176</DistanceMeters>
          </Trackpoint>
          <Trackpoint>
            <Time>2018-09-14T15:10:22.000Z</Time>
            <Position>
              <LatitudeDegrees>37.57688035257160663604736328125</LatitudeDegrees>
              <LongitudeDegrees>-8.07644658721983432769775390625</LongitudeDegrees>
            </Position>
            <AltitudeMeters>271</AltitudeMeters>
            <DistanceMeters>311622.77559892</DistanceMeters>
          </Trackpoint>
          <Trackpoint>
            <Time>2018-09-14T15:10:23.000Z</Time>
            <Position>
              <LatitudeDegrees>37.5768066756427288055419921875</LatitudeDegrees>
              <LongitudeDegrees>-8.0764277279376983642578125</LongitudeDegrees>
            </Position>
            <AltitudeMeters>271</AltitudeMeters>
            <DistanceMeters>311631.14334729</DistanceMeters>
          </Trackpoint>
          <Trackpoint>
            <Time>2018-09-14T15:10:24.000Z</Time>
            <Position>
              <LatitudeDegrees>37.5767332501709461212158203125</LatitudeDegrees>
              <LongitudeDegrees>-8.07640970684587955474853515625</LongitudeDegrees>
            </Position>
            <AltitudeMeters>271</AltitudeMeters>
            <DistanceMeters>311639.46890233</DistanceMeters>
          </Trackpoint>
          <Trackpoint>
            <Time>2018-09-14T15:10:25.000Z</Time>
            <Position>
              <LatitudeDegrees>37.57666057907044887542724609375</LatitudeDegrees>
              <LongitudeDegrees>-8.07639260776340961456298828125</LongitudeDegrees>
            </Position>
            <AltitudeMeters>271</AltitudeMeters>
            <DistanceMeters>311647.69681112</DistanceMeters>
          </Trackpoint>
          <Trackpoint>
            <Time>2018-09-14T15:10:26.000Z</Time>
            <Position>
              <LatitudeDegrees>37.5765887461602687835693359375</LatitudeDegrees>
              <LongitudeDegrees>-8.07637617923319339752197265625</LongitudeDegrees>
            </Position>
            <AltitudeMeters>271</AltitudeMeters>
            <DistanceMeters>311655.82201198</DistanceMeters>
          </Trackpoint>
          <Trackpoint>
            <Time>2018-09-14T15:10:27.000Z</Time>
            <Position>
              <LatitudeDegrees>37.5765169970691204071044921875</LatitudeDegrees>
              <LongitudeDegrees>-8.076358996331691741943359375</LongitudeDegrees>
            </Position>
            <AltitudeMeters>271</AltitudeMeters>
            <DistanceMeters>311663.94999077</DistanceMeters>
          </Trackpoint>
          <Trackpoint>
            <Time>2018-09-14T15:10:28.000Z</Time>
            <Position>
              <LatitudeDegrees>37.57644541561603546142578125</LatitudeDegrees>
              <LongitudeDegrees>-8.07634231634438037872314453125</LongitudeDegrees>
            </Position>
            <AltitudeMeters>271</AltitudeMeters>
            <DistanceMeters>311672.05181931</DistanceMeters>
          </Trackpoint>
          <Trackpoint>
            <Time>2018-09-14T15:10:29.000Z</Time>
            <Position>
              <LatitudeDegrees>37.576374672353267669677734375</LatitudeDegrees>
              <LongitudeDegrees>-8.0763229541480541229248046875</LongitudeDegrees>
            </Position>
            <AltitudeMeters>271</AltitudeMeters>
            <DistanceMeters>311680.1083812</DistanceMeters>
          </Trackpoint>
          <Trackpoint>
            <Time>2018-09-14T15:10:30.000Z</Time>
            <Position>
              <LatitudeDegrees>37.5763044320046901702880859375</LatitudeDegrees>
              <LongitudeDegrees>-8.0763048492372035980224609375</LongitudeDegrees>
            </Position>
            <AltitudeMeters>271</AltitudeMeters>
            <DistanceMeters>311688.08779653</DistanceMeters>
          </Trackpoint>
          <Trackpoint>
            <Time>2018-09-14T15:10:31.000Z</Time>
            <Position>
              <LatitudeDegrees>37.5762350298464298248291015625</LatitudeDegrees>
              <LongitudeDegrees>-8.07628883980214595794677734375</LongitudeDegrees>
            </Position>
            <AltitudeMeters>271.20001220703125</AltitudeMeters>
            <DistanceMeters>311695.9405917</DistanceMeters>
          </Trackpoint>
          <Trackpoint>
            <Time>2018-09-14T15:10:32.000Z</Time>
            <Position>
              <LatitudeDegrees>37.57616571150720119476318359375</LatitudeDegrees>
              <LongitudeDegrees>-8.07627257890999317169189453125</LongitudeDegrees>
            </Position>
            <AltitudeMeters>271.20001220703125</AltitudeMeters>
            <DistanceMeters>311703.78821053</DistanceMeters>
          </Trackpoint>
          <Trackpoint>
            <Time>2018-09-14T15:10:33.000Z</Time>
            <Position>
              <LatitudeDegrees>37.5760975666344165802001953125</LatitudeDegrees>
              <LongitudeDegrees>-8.07625682093203067779541015625</LongitudeDegrees>
            </Position>
            <AltitudeMeters>271.399993896484375</AltitudeMeters>
            <DistanceMeters>311711.49943958</DistanceMeters>
          </Trackpoint>
          <Trackpoint>
            <Time>2018-09-14T15:10:34.000Z</Time>
            <Position>
              <LatitudeDegrees>37.57603009231388568878173828125</LatitudeDegrees>
              <LongitudeDegrees>-8.076240979135036468505859375</LongitudeDegrees>
            </Position>
            <AltitudeMeters>271.399993896484375</AltitudeMeters>
            <DistanceMeters>311719.13831083</DistanceMeters>
          </Trackpoint>
          <Trackpoint>
            <Time>2018-09-14T15:10:35.000Z</Time>
            <Position>
              <LatitudeDegrees>37.5759632885456085205078125</LatitudeDegrees>
              <LongitudeDegrees>-8.076225221157073974609375</LongitudeDegrees>
            </Position>
            <AltitudeMeters>271.600006103515625</AltitudeMeters>
            <DistanceMeters>311726.70234179</DistanceMeters>
          </Trackpoint>
          <Trackpoint>
            <Time>2018-09-14T15:10:36.000Z</Time>
            <Position>
              <LatitudeDegrees>37.575896568596363067626953125</LatitudeDegrees>
              <LongitudeDegrees>-8.0762079544365406036376953125</LongitudeDegrees>
            </Position>
            <AltitudeMeters>271.600006103515625</AltitudeMeters>
            <DistanceMeters>311734.28306777</DistanceMeters>
          </Trackpoint>
          <Trackpoint>
            <Time>2018-09-14T15:10:37.000Z</Time>
            <Position>
              <LatitudeDegrees>37.57583026774227619171142578125</LatitudeDegrees>
              <LongitudeDegrees>-8.07619077153503894805908203125</LongitudeDegrees>
            </Position>
            <AltitudeMeters>271.79998779296875</AltitudeMeters>
            <DistanceMeters>311741.81599552</DistanceMeters>
          </Trackpoint>
          <Trackpoint>
            <Time>2018-09-14T15:10:38.000Z</Time>
            <Position>
              <LatitudeDegrees>37.57576421834528446197509765625</LatitudeDegrees>
              <LongitudeDegrees>-8.07617501355707645416259765625</LongitudeDegrees>
            </Position>
            <AltitudeMeters>272</AltitudeMeters>
            <DistanceMeters>311749.29719955</DistanceMeters>
          </Trackpoint>
          <Trackpoint>
            <Time>2018-09-14T15:10:39.000Z</Time>
            <Position>
              <LatitudeDegrees>37.57569842040538787841796875</LatitudeDegrees>
              <LongitudeDegrees>-8.0761586688458919525146484375</LongitudeDegrees>
            </Position>
            <AltitudeMeters>272</AltitudeMeters>
            <DistanceMeters>311756.76148596</DistanceMeters>
          </Trackpoint>
          <Trackpoint>
            <Time>2018-09-14T15:10:40.000Z</Time>
            <Position>
              <LatitudeDegrees>37.57563295774161815643310546875</LatitudeDegrees>
              <LongitudeDegrees>-8.07614400051534175872802734375</LongitudeDegrees>
            </Position>
            <AltitudeMeters>272.20001220703125</AltitudeMeters>
            <DistanceMeters>311764.16137674</DistanceMeters>
          </Trackpoint>
          <Trackpoint>
            <Time>2018-09-14T15:10:41.000Z</Time>
            <Position>
              <LatitudeDegrees>37.57556959055364131927490234375</LatitudeDegrees>
              <LongitudeDegrees>-8.07613209821283817291259765625</LongitudeDegrees>
            </Position>
            <AltitudeMeters>272.20001220703125</AltitudeMeters>
            <DistanceMeters>311771.29154718</DistanceMeters>
          </Trackpoint>
          <Trackpoint>
            <Time>2018-09-14T15:10:42.000Z</Time>
            <Position>
              <LatitudeDegrees>37.575506307184696197509765625</LatitudeDegrees>
              <LongitudeDegrees>-8.076118938624858856201171875</LongitudeDegrees>
            </Position>
            <AltitudeMeters>272.20001220703125</AltitudeMeters>
            <DistanceMeters>311778.43057732</DistanceMeters>
          </Trackpoint>
          <Trackpoint>
            <Time>2018-09-14T15:10:43.000Z</Time>
            <Position>
              <LatitudeDegrees>37.57544201798737049102783203125</LatitudeDegrees>
              <LongitudeDegrees>-8.07610309682786464691162109375</LongitudeDegrees>
            </Position>
            <AltitudeMeters>272.20001220703125</AltitudeMeters>
            <DistanceMeters>311785.72105261</DistanceMeters>
          </Trackpoint>
          <Trackpoint>
            <Time>2018-09-14T15:10:44.000Z</Time>
            <Position>
              <LatitudeDegrees>37.57537881843745708465576171875</LatitudeDegrees>
              <LongitudeDegrees>-8.076089434325695037841796875</LongitudeDegrees>
            </Position>
            <AltitudeMeters>272.20001220703125</AltitudeMeters>
            <DistanceMeters>311792.85755254</DistanceMeters>
          </Trackpoint>
          <Trackpoint>
            <Time>2018-09-14T15:10:45.000Z</Time>
            <Position>
              <LatitudeDegrees>37.57531159557402133941650390625</LatitudeDegrees>
              <LongitudeDegrees>-8.0760725028812885284423828125</LongitudeDegrees>
            </Position>
            <AltitudeMeters>272.20001220703125</AltitudeMeters>
            <DistanceMeters>311800.48696095</DistanceMeters>
          </Trackpoint>
          <Trackpoint>
            <Time>2018-09-14T15:10:46.000Z</Time>
            <Position>
              <LatitudeDegrees>37.57524638436734676361083984375</LatitudeDegrees>
              <LongitudeDegrees>-8.07605599053204059600830078125</LongitudeDegrees>
            </Position>
            <AltitudeMeters>272.20001220703125</AltitudeMeters>
            <DistanceMeters>311807.88990185</DistanceMeters>
          </Trackpoint>
          <Trackpoint>
            <Time>2018-09-14T15:10:47.000Z</Time>
            <Position>
              <LatitudeDegrees>37.5751815922558307647705078125</LatitudeDegrees>
              <LongitudeDegrees>-8.0760386399924755096435546875</LongitudeDegrees>
            </Position>
            <AltitudeMeters>272.20001220703125</AltitudeMeters>
            <DistanceMeters>311815.26167233</DistanceMeters>
          </Trackpoint>
          <Trackpoint>
            <Time>2018-09-14T15:10:48.000Z</Time>
            <Position>
              <LatitudeDegrees>37.57511663250625133514404296875</LatitudeDegrees>
              <LongitudeDegrees>-8.07602338492870330810546875</LongitudeDegrees>
            </Position>
            <AltitudeMeters>272.20001220703125</AltitudeMeters>
            <DistanceMeters>311822.61504555</DistanceMeters>
          </Trackpoint>
          <Trackpoint>
            <Time>2018-09-14T15:10:49.000Z</Time>
            <Position>
              <LatitudeDegrees>37.57505108602344989776611328125</LatitudeDegrees>
              <LongitudeDegrees>-8.07600854896008968353271484375</LongitudeDegrees>
            </Position>
            <AltitudeMeters>272</AltitudeMeters>
            <DistanceMeters>311830.02712927</DistanceMeters>
          </Trackpoint>
          <Trackpoint>
            <Time>2018-09-14T15:10:50.000Z</Time>
            <Position>
              <LatitudeDegrees>37.57498629391193389892578125</LatitudeDegrees>
              <LongitudeDegrees>-8.07599161751568317413330078125</LongitudeDegrees>
            </Position>
            <AltitudeMeters>272.20001220703125</AltitudeMeters>
            <DistanceMeters>311837.39154637</DistanceMeters>
          </Trackpoint>
          <Trackpoint>
            <Time>2018-09-14T15:10:51.000Z</Time>
            <Position>
              <LatitudeDegrees>37.5749214179813861846923828125</LatitudeDegrees>
              <LongitudeDegrees>-8.075974769890308380126953125</LongitudeDegrees>
            </Position>
            <AltitudeMeters>272.20001220703125</AltitudeMeters>
            <DistanceMeters>311844.76331685</DistanceMeters>
          </Trackpoint>
          <Trackpoint>
            <Time>2018-09-14T15:10:52.000Z</Time>
            <Position>
              <LatitudeDegrees>37.57485679350793361663818359375</LatitudeDegrees>
              <LongitudeDegrees>-8.0759595148265361785888671875</LongitudeDegrees>
            </Position>
            <AltitudeMeters>272.20001220703125</AltitudeMeters>
            <DistanceMeters>311852.08099089</DistanceMeters>
          </Trackpoint>
          <Trackpoint>
            <Time>2018-09-14T15:10:53.000Z</Time>
            <Position>
              <LatitudeDegrees>37.57479124702513217926025390625</LatitudeDegrees>
              <LongitudeDegrees>-8.075944595038890838623046875</LongitudeDegrees>
            </Position>
            <AltitudeMeters>272.20001220703125</AltitudeMeters>
            <DistanceMeters>311859.4942928</DistanceMeters>
          </Trackpoint>
          <Trackpoint>
            <Time>2018-09-14T15:10:54.000Z</Time>
            <Position>
              <LatitudeDegrees>37.5747256167232990264892578125</LatitudeDegrees>
              <LongitudeDegrees>-8.0759303458034992218017578125</LongitudeDegrees>
            </Position>
            <AltitudeMeters>272.399993896484375</AltitudeMeters>
            <DistanceMeters>311866.90576735</DistanceMeters>
          </Trackpoint>
          <Trackpoint>
            <Time>2018-09-14T15:10:55.000Z</Time>
            <Position>
              <LatitudeDegrees>37.57465898059308528900146484375</LatitudeDegrees>
              <LongitudeDegrees>-8.075917102396488189697265625</LongitudeDegrees>
            </Position>
            <AltitudeMeters>272.399993896484375</AltitudeMeters>
            <DistanceMeters>311874.41347919</DistanceMeters>
          </Trackpoint>
          <Trackpoint>
            <Time>2018-09-14T15:10:56.000Z</Time>
            <Position>
              <LatitudeDegrees>37.574591673910617828369140625</LatitudeDegrees>
              <LongitudeDegrees>-8.0759045295417308807373046875</LongitudeDegrees>
            </Position>
            <AltitudeMeters>272.600006103515625</AltitudeMeters>
            <DistanceMeters>311881.98586227</DistanceMeters>
          </Trackpoint>
          <Trackpoint>
            <Time>2018-09-14T15:10:57.000Z</Time>
            <Position>
              <LatitudeDegrees>37.57452419959008693695068359375</LatitudeDegrees>
              <LongitudeDegrees>-8.07589103467762470245361328125</LongitudeDegrees>
            </Position>
            <AltitudeMeters>272.600006103515625</AltitudeMeters>
            <DistanceMeters>311889.58918716</DistanceMeters>
          </Trackpoint>
          <Trackpoint>
            <Time>2018-09-14T15:10:58.000Z</Time>
            <Position>
              <LatitudeDegrees>37.57445655763149261474609375</LatitudeDegrees>
              <LongitudeDegrees>-8.0758751928806304931640625</LongitudeDegrees>
            </Position>
            <AltitudeMeters>272.600006103515625</AltitudeMeters>
            <DistanceMeters>311897.24635937</DistanceMeters>
          </Trackpoint>
          <Trackpoint>
            <Time>2018-09-14T15:10:59.000Z</Time>
            <Position>
              <LatitudeDegrees>37.5743879936635494232177734375</LatitudeDegrees>
              <LongitudeDegrees>-8.0758589319884777069091796875</LongitudeDegrees>
            </Position>
            <AltitudeMeters>272.79998779296875</AltitudeMeters>
            <DistanceMeters>311905.01126893</DistanceMeters>
          </Trackpoint>
          <Trackpoint>
            <Time>2018-09-14T15:11:00.000Z</Time>
            <Position>
              <LatitudeDegrees>37.57431901060044765472412109375</LatitudeDegrees>
              <LongitudeDegrees>-8.07584225200116634368896484375</LongitudeDegrees>
            </Position>
            <AltitudeMeters>272.79998779296875</AltitudeMeters>
            <DistanceMeters>311912.82891291</DistanceMeters>
          </Trackpoint>
          <Trackpoint>
            <Time>2018-09-14T15:11:01.000Z</Time>
            <Position>
              <LatitudeDegrees>37.57424960844218730926513671875</LatitudeDegrees>
              <LongitudeDegrees>-8.07582481764256954193115234375</LongitudeDegrees>
            </Position>
            <AltitudeMeters>272.79998779296875</AltitudeMeters>
            <DistanceMeters>311920.70524614</DistanceMeters>
          </Trackpoint>
          <Trackpoint>
            <Time>2018-09-14T15:11:02.000Z</Time>
            <Position>
              <LatitudeDegrees>37.57417953573167324066162109375</LatitudeDegrees>
              <LongitudeDegrees>-8.075806796550750732421875</LongitudeDegrees>
            </Position>
            <AltitudeMeters>272.79998779296875</AltitudeMeters>
            <DistanceMeters>311928.66483258</DistanceMeters>
          </Trackpoint>
          <Trackpoint>
            <Time>2018-09-14T15:11:03.000Z</Time>
            <Position>
              <LatitudeDegrees>37.574110217392444610595703125</LatitudeDegrees>
              <LongitudeDegrees>-8.075789026916027069091796875</LongitudeDegrees>
            </Position>
            <AltitudeMeters>273</AltitudeMeters>
            <DistanceMeters>311936.53772562</DistanceMeters>
          </Trackpoint>
          <Trackpoint>
            <Time>2018-09-14T15:11:04.000Z</Time>
            <Position>
              <LatitudeDegrees>37.57404089905321598052978515625</LatitudeDegrees>
              <LongitudeDegrees>-8.07577033527195453643798828125</LongitudeDegrees>
            </Position>
            <AltitudeMeters>273.20001220703125</AltitudeMeters>
            <DistanceMeters>311944.42666007</DistanceMeters>
          </Trackpoint>
          <Trackpoint>
            <Time>2018-09-14T15:11:05.000Z</Time>
            <Position>
              <LatitudeDegrees>37.57397149689495563507080078125</LatitudeDegrees>
              <LongitudeDegrees>-8.07575223036110401153564453125</LongitudeDegrees>
            </Position>
            <AltitudeMeters>273.20001220703125</AltitudeMeters>
            <DistanceMeters>311952.31502218</DistanceMeters>
          </Trackpoint>
          <Trackpoint>
            <Time>2018-09-14T15:11:06.000Z</Time>
            <Position>
              <LatitudeDegrees>37.5739011727273464202880859375</LatitudeDegrees>
              <LongitudeDegrees>-8.0757355503737926483154296875</LongitudeDegrees>
            </Position>
            <AltitudeMeters>273.399993896484375</AltitudeMeters>
            <DistanceMeters>311960.2797122</DistanceMeters>
          </Trackpoint>
          <Trackpoint>
            <Time>2018-09-14T15:11:07.000Z</Time>
            <Position>
              <LatitudeDegrees>37.57383001036942005157470703125</LatitudeDegrees>
              <LongitudeDegrees>-8.07571987621486186981201171875</LongitudeDegrees>
            </Position>
            <AltitudeMeters>273.600006103515625</AltitudeMeters>
            <DistanceMeters>311968.32056708</DistanceMeters>
          </Trackpoint>
          <Trackpoint>
            <Time>2018-09-14T15:11:08.000Z</Time>
            <Position>
              <LatitudeDegrees>37.5737583450973033905029296875</LatitudeDegrees>
              <LongitudeDegrees>-8.07570361532270908355712890625</LongitudeDegrees>
            </Position>
            <AltitudeMeters>273.79998779296875</AltitudeMeters>
            <DistanceMeters>311976.42518158</DistanceMeters>
          </Trackpoint>
          <Trackpoint>
            <Time>2018-09-14T15:11:09.000Z</Time>
            <Position>
              <LatitudeDegrees>37.57368684746325016021728515625</LatitudeDegrees>
              <LongitudeDegrees>-8.0756859295070171356201171875</LongitudeDegrees>
            </Position>
            <AltitudeMeters>273.79998779296875</AltitudeMeters>
            <DistanceMeters>311984.53480837</DistanceMeters>
          </Trackpoint>
          <Trackpoint>
            <Time>2018-09-14T15:11:10.000Z</Time>
            <Position>
              <LatitudeDegrees>37.5736151821911334991455078125</LatitudeDegrees>
              <LongitudeDegrees>-8.07566891424357891082763671875</LongitudeDegrees>
            </Position>
            <AltitudeMeters>274</AltitudeMeters>
            <DistanceMeters>311992.65111342</DistanceMeters>
          </Trackpoint>
          <Trackpoint>
            <Time>2018-09-14T15:11:11.000Z</Time>
            <Position>
              <LatitudeDegrees>37.57354301400482654571533203125</LatitudeDegrees>
              <LongitudeDegrees>-8.07565265335142612457275390625</LongitudeDegrees>
            </Position>
            <AltitudeMeters>274.20001220703125</AltitudeMeters>
            <DistanceMeters>312000.81124722</DistanceMeters>
          </Trackpoint>
          <Trackpoint>
            <Time>2018-09-14T15:11:12.000Z</Time>
            <Position>
              <LatitudeDegrees>37.57347076199948787689208984375</LatitudeDegrees>
              <LongitudeDegrees>-8.07563588954508304595947265625</LongitudeDegrees>
            </Position>
            <AltitudeMeters>274.20001220703125</AltitudeMeters>
            <DistanceMeters>312008.98796331</DistanceMeters>
          </Trackpoint>
          <Trackpoint>
            <Time>2018-09-14T15:11:13.000Z</Time>
            <Position>
              <LatitudeDegrees>37.57339934818446636199951171875</LatitudeDegrees>
              <LongitudeDegrees>-8.07561795227229595184326171875</LongitudeDegrees>
            </Position>
            <AltitudeMeters>274.20001220703125</AltitudeMeters>
            <DistanceMeters>312017.09202069</DistanceMeters>
          </Trackpoint>
          <Trackpoint>
            <Time>2018-09-14T15:11:14.000Z</Time>
            <Position>
              <LatitudeDegrees>37.57332877255976200103759765625</LatitudeDegrees>
              <LongitudeDegrees>-8.0756000988185405731201171875</LongitudeDegrees>
            </Position>
            <AltitudeMeters>274.20001220703125</AltitudeMeters>
            <DistanceMeters>312025.10362373</DistanceMeters>
          </Trackpoint>
          <Trackpoint>
            <Time>2018-09-14T15:11:15.000Z</Time>
            <Position>
              <LatitudeDegrees>37.5732594542205333709716796875</LatitudeDegrees>
              <LongitudeDegrees>-8.0755829997360706329345703125</LongitudeDegrees>
            </Position>
            <AltitudeMeters>274.20001220703125</AltitudeMeters>
            <DistanceMeters>312032.96503857</DistanceMeters>
          </Trackpoint>
          <Trackpoint>
            <Time>2018-09-14T15:11:16.000Z</Time>
            <Position>
              <LatitudeDegrees>37.57319114170968532562255859375</LatitudeDegrees>
              <LongitudeDegrees>-8.07556606829166412353515625</LongitudeDegrees>
            </Position>
            <AltitudeMeters>274.399993896484375</AltitudeMeters>
            <DistanceMeters>312040.71423261</DistanceMeters>
          </Trackpoint>
          <Trackpoint>
            <Time>2018-09-14T15:11:17.000Z</Time>
            <Position>
              <LatitudeDegrees>37.57312442176043987274169921875</LatitudeDegrees>
              <LongitudeDegrees>-8.07555039413273334503173828125</LongitudeDegrees>
            </Position>
            <AltitudeMeters>274.399993896484375</AltitudeMeters>
            <DistanceMeters>312048.2681093</DistanceMeters>
          </Trackpoint>
          <Trackpoint>
            <Time>2018-09-14T15:11:18.000Z</Time>
            <Position>
              <LatitudeDegrees>37.57305887527763843536376953125</LatitudeDegrees>
              <LongitudeDegrees>-8.0755345523357391357421875</LongitudeDegrees>
            </Position>
            <AltitudeMeters>274.399993896484375</AltitudeMeters>
            <DistanceMeters>312055.69540605</DistanceMeters>
          </Trackpoint>
          <Trackpoint>
            <Time>2018-09-14T15:11:19.000Z</Time>
            <Position>
              <LatitudeDegrees>37.57299383170902729034423828125</LatitudeDegrees>
              <LongitudeDegrees>-8.0755189619958400726318359375</LongitudeDegrees>
            </Position>
            <AltitudeMeters>274.399993896484375</AltitudeMeters>
            <DistanceMeters>312063.06350076</DistanceMeters>
          </Trackpoint>
          <Trackpoint>
            <Time>2018-09-14T15:11:20.000Z</Time>
            <Position>
              <LatitudeDegrees>37.572930045425891876220703125</LatitudeDegrees>
              <LongitudeDegrees>-8.0755038745701313018798828125</LongitudeDegrees>
            </Position>
            <AltitudeMeters>274.399993896484375</AltitudeMeters>
            <DistanceMeters>312070.28678129</DistanceMeters>
          </Trackpoint>
          <Trackpoint>
            <Time>2018-09-14T15:11:21.000Z</Time>
            <Position>
              <LatitudeDegrees>37.572866342961788177490234375</LatitudeDegrees>
              <LongitudeDegrees>-8.075488619506359100341796875</LongitudeDegrees>
            </Position>
            <AltitudeMeters>274.600006103515625</AltitudeMeters>
            <DistanceMeters>312077.50380845</DistanceMeters>
          </Trackpoint>
          <Trackpoint>
            <Time>2018-09-14T15:11:22.000Z</Time>
            <Position>
              <LatitudeDegrees>37.5728031434118747711181640625</LatitudeDegrees>
              <LongitudeDegrees>-8.075474202632904052734375</LongitudeDegrees>
            </Position>
            <AltitudeMeters>274.600006103515625</AltitudeMeters>
            <DistanceMeters>312084.65168733</DistanceMeters>
          </Trackpoint>
          <Trackpoint>
            <Time>2018-09-14T15:11:23.000Z</Time>
            <Position>
              <LatitudeDegrees>37.57274036295711994171142578125</LatitudeDegrees>
              <LongitudeDegrees>-8.0754596181213855743408203125</LongitudeDegrees>
            </Position>
            <AltitudeMeters>274.600006103515625</AltitudeMeters>
            <DistanceMeters>312091.75648341</DistanceMeters>
          </Trackpoint>
          <Trackpoint>
            <Time>2018-09-14T15:11:24.000Z</Time>
            <Position>
              <LatitudeDegrees>37.5726777501404285430908203125</LatitudeDegrees>
              <LongitudeDegrees>-8.0754465423524379730224609375</LongitudeDegrees>
            </Position>
            <AltitudeMeters>274.600006103515625</AltitudeMeters>
            <DistanceMeters>312098.82049094</DistanceMeters>
          </Trackpoint>
          <Trackpoint>
            <Time>2018-09-14T15:11:25.000Z</Time>
            <Position>
              <LatitudeDegrees>37.5726157240569591522216796875</LatitudeDegrees>
              <LongitudeDegrees>-8.0754339694976806640625</LongitudeDegrees>
            </Position>
            <AltitudeMeters>274.600006103515625</AltitudeMeters>
            <DistanceMeters>312105.81254599</DistanceMeters>
          </Trackpoint>
          <Trackpoint>
            <Time>2018-09-14T15:11:26.000Z</Time>
            <Position>
              <LatitudeDegrees>37.5725536979734897613525390625</LatitudeDegrees>
              <LongitudeDegrees>-8.0754213966429233551025390625</LongitudeDegrees>
            </Position>
            <AltitudeMeters>274.79998779296875</AltitudeMeters>
            <DistanceMeters>312112.80460105</DistanceMeters>
          </Trackpoint>
          <Trackpoint>
            <Time>2018-09-14T15:11:27.000Z</Time>
            <Position>
              <LatitudeDegrees>37.57249158807098865509033203125</LatitudeDegrees>
              <LongitudeDegrees>-8.075405471026897430419921875</LongitudeDegrees>
            </Position>
            <AltitudeMeters>274.79998779296875</AltitudeMeters>
            <DistanceMeters>312119.85965465</DistanceMeters>
          </Trackpoint>
          <Trackpoint>
            <Time>2018-09-14T15:11:28.000Z</Time>
            <Position>
              <LatitudeDegrees>37.5724309869110584259033203125</LatitudeDegrees>
              <LongitudeDegrees>-8.07538929395377635955810546875</LongitudeDegrees>
            </Position>
            <AltitudeMeters>274.600006103515625</AltitudeMeters>
            <DistanceMeters>312126.75416859</DistanceMeters>
          </Trackpoint>
          <Trackpoint>
            <Time>2018-09-14T15:11:29.000Z</Time>
            <Position>
              <LatitudeDegrees>37.572370134294033050537109375</LatitudeDegrees>
              <LongitudeDegrees>-8.07537403889000415802001953125</LongitudeDegrees>
            </Position>
            <AltitudeMeters>274.399993896484375</AltitudeMeters>
            <DistanceMeters>312133.65915256</DistanceMeters>
          </Trackpoint>
          <Trackpoint>
            <Time>2018-09-14T15:11:30.000Z</Time>
            <Position>
              <LatitudeDegrees>37.57230852730572223663330078125</LatitudeDegrees>
              <LongitudeDegrees>-8.075359202921390533447265625</LongitudeDegrees>
            </Position>
            <AltitudeMeters>274.399993896484375</AltitudeMeters>
            <DistanceMeters>312140.63957464</DistanceMeters>
          </Trackpoint>
          <Trackpoint>
            <Time>2018-09-14T15:11:31.000Z</Time>
            <Position>
              <LatitudeDegrees>37.57224700413644313812255859375</LatitudeDegrees>
              <LongitudeDegrees>-8.0753441154956817626953125</LongitudeDegrees>
            </Position>
            <AltitudeMeters>274.399993896484375</AltitudeMeters>
            <DistanceMeters>312147.61546756</DistanceMeters>
          </Trackpoint>
          <Trackpoint>
            <Time>2018-09-14T15:11:32.000Z</Time>
            <Position>
              <LatitudeDegrees>37.572185732424259185791015625</LatitudeDegrees>
              <LongitudeDegrees>-8.0753295309841632843017578125</LongitudeDegrees>
            </Position>
            <AltitudeMeters>274.399993896484375</AltitudeMeters>
            <DistanceMeters>312154.55502069</DistanceMeters>
          </Trackpoint>
          <Trackpoint>
            <Time>2018-09-14T15:11:33.000Z</Time>
            <Position>
              <LatitudeDegrees>37.57212437689304351806640625</LatitudeDegrees>
              <LongitudeDegrees>-8.0753141082823276519775390625</LongitudeDegrees>
            </Position>
            <AltitudeMeters>274.399993896484375</AltitudeMeters>
            <DistanceMeters>312161.51730841</DistanceMeters>
          </Trackpoint>
          <Trackpoint>
            <Time>2018-09-14T15:11:34.000Z</Time>
            <Position>
              <LatitudeDegrees>37.5720631889998912811279296875</LatitudeDegrees>
              <LongitudeDegrees>-8.07529876939952373504638671875</LongitudeDegrees>
            </Position>
            <AltitudeMeters>274.600006103515625</AltitudeMeters>
            <DistanceMeters>312168.46076419</DistanceMeters>
          </Trackpoint>
          <Trackpoint>
            <Time>2018-09-14T15:11:35.000Z</Time>
            <Position>
              <LatitudeDegrees>37.5720016658306121826171875</LatitudeDegrees>
              <LongitudeDegrees>-8.07528401724994182586669921875</LongitudeDegrees>
            </Position>
            <AltitudeMeters>274.600006103515625</AltitudeMeters>
            <DistanceMeters>312175.43147731</DistanceMeters>
          </Trackpoint>
          <Trackpoint>
            <Time>2018-09-14T15:11:36.000Z</Time>
            <Position>
              <LatitudeDegrees>37.571939639747142791748046875</LatitudeDegrees>
              <LongitudeDegrees>-8.07526775635778903961181640625</LongitudeDegrees>
            </Position>
            <AltitudeMeters>274.600006103515625</AltitudeMeters>
            <DistanceMeters>312182.48269003</DistanceMeters>
          </Trackpoint>
          <Trackpoint>
            <Time>2018-09-14T15:11:37.000Z</Time>
            <Position>
              <LatitudeDegrees>37.571876943111419677734375</LatitudeDegrees>
              <LongitudeDegrees>-8.0752504058182239532470703125</LongitudeDegrees>
            </Position>
            <AltitudeMeters>274.79998779296875</AltitudeMeters>
            <DistanceMeters>312189.62551384</DistanceMeters>
          </Trackpoint>
          <Trackpoint>
            <Time>2018-09-14T15:11:38.000Z</Time>
            <Position>
              <LatitudeDegrees>37.5718134082853794097900390625</LatitudeDegrees>
              <LongitudeDegrees>-8.07523406110703945159912109375</LongitudeDegrees>
            </Position>
            <AltitudeMeters>274.79998779296875</AltitudeMeters>
            <DistanceMeters>312196.84254099</DistanceMeters>
          </Trackpoint>
          <Trackpoint>
            <Time>2018-09-14T15:11:39.000Z</Time>
            <Position>
              <LatitudeDegrees>37.57174878381192684173583984375</LatitudeDegrees>
              <LongitudeDegrees>-8.075217716395854949951171875</LongitudeDegrees>
            </Position>
            <AltitudeMeters>275</AltitudeMeters>
            <DistanceMeters>312204.17870181</DistanceMeters>
          </Trackpoint>
          <Trackpoint>
            <Time>2018-09-14T15:11:40.000Z</Time>
            <Position>
              <LatitudeDegrees>37.571683488786220550537109375</LatitudeDegrees>
              <LongitudeDegrees>-8.07520187459886074066162109375</LongitudeDegrees>
            </Position>
            <AltitudeMeters>275</AltitudeMeters>
            <DistanceMeters>312211.57920272</DistanceMeters>
          </Trackpoint>
          <Trackpoint>
            <Time>2018-09-14T15:11:41.000Z</Time>
            <Position>
              <LatitudeDegrees>37.5716182775795459747314453125</LatitudeDegrees>
              <LongitudeDegrees>-8.07518695481121540069580078125</LongitudeDegrees>
            </Position>
            <AltitudeMeters>274.79998779296875</AltitudeMeters>
            <DistanceMeters>312218.95587138</DistanceMeters>
          </Trackpoint>
          <Trackpoint>
            <Time>2018-09-14T15:11:42.000Z</Time>
            <Position>
              <LatitudeDegrees>37.5715525634586811065673828125</LatitudeDegrees>
              <LongitudeDegrees>-8.07517354376614093780517578125</LongitudeDegrees>
            </Position>
            <AltitudeMeters>274.600006103515625</AltitudeMeters>
            <DistanceMeters>312226.36551812</DistanceMeters>
          </Trackpoint>
          <Trackpoint>
            <Time>2018-09-14T15:11:43.000Z</Time>
            <Position>
              <LatitudeDegrees>37.57148592732846736907958984375</LatitudeDegrees>
              <LongitudeDegrees>-8.07515795342624187469482421875</LongitudeDegrees>
            </Position>
            <AltitudeMeters>274.600006103515625</AltitudeMeters>
            <DistanceMeters>312233.90862833</DistanceMeters>
          </Trackpoint>
          <Trackpoint>
            <Time>2018-09-14T15:11:44.000Z</Time>
            <Position>
              <LatitudeDegrees>37.57141903974115848541259765625</LatitudeDegrees>
              <LongitudeDegrees>-8.07514051906764507293701171875</LongitudeDegrees>
            </Position>
            <AltitudeMeters>274.399993896484375</AltitudeMeters>
            <DistanceMeters>312241.51076548</DistanceMeters>
          </Trackpoint>
          <Trackpoint>
            <Time>2018-09-14T15:11:45.000Z</Time>
            <Position>
              <LatitudeDegrees>37.5713507272303104400634765625</LatitudeDegrees>
              <LongitudeDegrees>-8.07512258179485797882080078125</LongitudeDegrees>
            </Position>
            <AltitudeMeters>274.20001220703125</AltitudeMeters>
            <DistanceMeters>312249.27625649</DistanceMeters>
          </Trackpoint>
          <Trackpoint>
            <Time>2018-09-14T15:11:46.000Z</Time>
            <Position>
              <LatitudeDegrees>37.57128040306270122528076171875</LatitudeDegrees>
              <LongitudeDegrees>-8.0751062370836734771728515625</LongitudeDegrees>
            </Position>
            <AltitudeMeters>274</AltitudeMeters>
            <DistanceMeters>312257.23470836</DistanceMeters>
          </Trackpoint>
          <Trackpoint>
            <Time>2018-09-14T15:11:47.000Z</Time>
            <Position>
              <LatitudeDegrees>37.57120865397155284881591796875</LatitudeDegrees>
              <LongitudeDegrees>-8.075090311467647552490234375</LongitudeDegrees>
            </Position>
            <AltitudeMeters>273.79998779296875</AltitudeMeters>
            <DistanceMeters>312265.34322157</DistanceMeters>
          </Trackpoint>
          <Trackpoint>
            <Time>2018-09-14T15:11:48.000Z</Time>
            <Position>
              <LatitudeDegrees>37.5711364857852458953857421875</LatitudeDegrees>
              <LongitudeDegrees>-8.0750717036426067352294921875</LongitudeDegrees>
            </Position>
            <AltitudeMeters>273.600006103515625</AltitudeMeters>
            <DistanceMeters>312273.54144449</DistanceMeters>
          </Trackpoint>
          <Trackpoint>
            <Time>2018-09-14T15:11:49.000Z</Time>
            <Position>
              <LatitudeDegrees>37.57106414996087551116943359375</LatitudeDegrees>
              <LongitudeDegrees>-8.0750519223511219024658203125</LongitudeDegrees>
            </Position>
            <AltitudeMeters>273.399993896484375</AltitudeMeters>
            <DistanceMeters>312281.77977287</DistanceMeters>
          </Trackpoint>
          <Trackpoint>
            <Time>2018-09-14T15:11:50.000Z</Time>
            <Position>
              <LatitudeDegrees>37.57099122740328311920166015625</LatitudeDegrees>
              <LongitudeDegrees>-8.07503230869770050048828125</LongitudeDegrees>
            </Position>
            <AltitudeMeters>273.20001220703125</AltitudeMeters>
            <DistanceMeters>312290.07925618</DistanceMeters>
          </Trackpoint>
          <Trackpoint>
            <Time>2018-09-14T15:11:51.000Z</Time>
            <Position>
              <LatitudeDegrees>37.570917047560214996337890625</LatitudeDegrees>
              <LongitudeDegrees>-8.07501244358718395233154296875</LongitudeDegrees>
            </Position>
            <AltitudeMeters>273</AltitudeMeters>
            <DistanceMeters>312298.51953301</DistanceMeters>
          </Trackpoint>
          <Trackpoint>
            <Time>2018-09-14T15:11:52.000Z</Time>
            <Position>
              <LatitudeDegrees>37.570841610431671142578125</LatitudeDegrees>
              <LongitudeDegrees>-8.07499366812407970428466796875</LongitudeDegrees>
            </Position>
            <AltitudeMeters>273</AltitudeMeters>
            <DistanceMeters>312307.07774252</DistanceMeters>
          </Trackpoint>
          <Trackpoint>
            <Time>2018-09-14T15:11:53.000Z</Time>
            <Position>
              <LatitudeDegrees>37.57076583802700042724609375</LatitudeDegrees>
              <LongitudeDegrees>-8.07497640140354633331298828125</LongitudeDegrees>
            </Position>
            <AltitudeMeters>273</AltitudeMeters>
            <DistanceMeters>312315.64807751</DistanceMeters>
          </Trackpoint>
          <Trackpoint>
            <Time>2018-09-14T15:11:54.000Z</Time>
            <Position>
              <LatitudeDegrees>37.5706900656223297119140625</LatitudeDegrees>
              <LongitudeDegrees>-8.0749580450356006622314453125</LongitudeDegrees>
            </Position>
            <AltitudeMeters>272.79998779296875</AltitudeMeters>
            <DistanceMeters>312324.23578002</DistanceMeters>
          </Trackpoint>
          <Trackpoint>
            <Time>2018-09-14T15:11:55.000Z</Time>
            <Position>
              <LatitudeDegrees>37.57061337120831012725830078125</LatitudeDegrees>
              <LongitudeDegrees>-8.0749375931918621063232421875</LongitudeDegrees>
            </Position>
            <AltitudeMeters>272.79998779296875</AltitudeMeters>
            <DistanceMeters>312332.9616957</DistanceMeters>
          </Trackpoint>
          <Trackpoint>
            <Time>2018-09-14T15:11:56.000Z</Time>
            <Position>
              <LatitudeDegrees>37.57053609006106853485107421875</LatitudeDegrees>
              <LongitudeDegrees>-8.0749188177287578582763671875</LongitudeDegrees>
            </Position>
            <AltitudeMeters>272.600006103515625</AltitudeMeters>
            <DistanceMeters>312341.72169511</DistanceMeters>
          </Trackpoint>
          <Trackpoint>
            <Time>2018-09-14T15:11:57.000Z</Time>
            <Position>
              <LatitudeDegrees>37.57046031765639781951904296875</LatitudeDegrees>
              <LongitudeDegrees>-8.07490163482725620269775390625</LongitudeDegrees>
            </Position>
            <AltitudeMeters>272.600006103515625</AltitudeMeters>
            <DistanceMeters>312350.29097639</DistanceMeters>
          </Trackpoint>
          <Trackpoint>
            <Time>2018-09-14T15:11:58.000Z</Time>
            <Position>
              <LatitudeDegrees>37.5703854672610759735107421875</LatitudeDegrees>
              <LongitudeDegrees>-8.07488688267767429351806640625</LongitudeDegrees>
            </Position>
            <AltitudeMeters>272.399993896484375</AltitudeMeters>
            <DistanceMeters>312358.72322531</DistanceMeters>
          </Trackpoint>
          <Trackpoint>
            <Time>2018-09-14T15:11:59.000Z</Time>
            <Position>
              <LatitudeDegrees>37.57030944339931011199951171875</LatitudeDegrees>
              <LongitudeDegrees>-8.07487070560455322265625</LongitudeDegrees>
            </Position>
            <AltitudeMeters>272.399993896484375</AltitudeMeters>
            <DistanceMeters>312367.30461642</DistanceMeters>
          </Trackpoint>
          <Trackpoint>
            <Time>2018-09-14T15:12:00.000Z</Time>
            <Position>
              <LatitudeDegrees>37.57023316808044910430908203125</LatitudeDegrees>
              <LongitudeDegrees>-8.07485402561724185943603515625</LongitudeDegrees>
            </Position>
            <AltitudeMeters>272.399993896484375</AltitudeMeters>
            <DistanceMeters>312375.921187</DistanceMeters>
          </Trackpoint>
          <Trackpoint>
            <Time>2018-09-14T15:12:01.000Z</Time>
            <Position>
              <LatitudeDegrees>37.57015706039965152740478515625</LatitudeDegrees>
              <LongitudeDegrees>-8.0748370103538036346435546875</LongitudeDegrees>
            </Position>
            <AltitudeMeters>272.399993896484375</AltitudeMeters>
            <DistanceMeters>312384.52412293</DistanceMeters>
          </Trackpoint>
          <Trackpoint>
            <Time>2018-09-14T15:12:02.000Z</Time>
            <Position>
              <LatitudeDegrees>37.570080868899822235107421875</LatitudeDegrees>
              <LongitudeDegrees>-8.07481907308101654052734375</LongitudeDegrees>
            </Position>
            <AltitudeMeters>272.600006103515625</AltitudeMeters>
            <DistanceMeters>312393.15116704</DistanceMeters>
          </Trackpoint>
          <Trackpoint>
            <Time>2018-09-14T15:12:03.000Z</Time>
            <Position>
              <LatitudeDegrees>37.5700049288570880889892578125</LatitudeDegrees>
              <LongitudeDegrees>-8.074802644550800323486328125</LongitudeDegrees>
            </Position>
            <AltitudeMeters>272.79998779296875</AltitudeMeters>
            <DistanceMeters>312401.72676862</DistanceMeters>
          </Trackpoint>
          <Trackpoint>
            <Time>2018-09-14T15:12:04.000Z</Time>
            <Position>
              <LatitudeDegrees>37.569929994642734527587890625</LatitudeDegrees>
              <LongitudeDegrees>-8.07478487491607666015625</LongitudeDegrees>
            </Position>
            <AltitudeMeters>272.79998779296875</AltitudeMeters>
            <DistanceMeters>312410.21292556</DistanceMeters>
          </Trackpoint>
          <Trackpoint>
            <Time>2018-09-14T15:12:05.000Z</Time>
            <Position>
              <LatitudeDegrees>37.5698557309806346893310546875</LatitudeDegrees>
              <LongitudeDegrees>-8.074766434729099273681640625</LongitudeDegrees>
            </Position>
            <AltitudeMeters>273</AltitudeMeters>
            <DistanceMeters>312418.63713893</DistanceMeters>
          </Trackpoint>
          <Trackpoint>
            <Time>2018-09-14T15:12:06.000Z</Time>
            <Position>
              <LatitudeDegrees>37.5697816349565982818603515625</LatitudeDegrees>
              <LongitudeDegrees>-8.07474858127534389495849609375</LongitudeDegrees>
            </Position>
            <AltitudeMeters>273.20001220703125</AltitudeMeters>
            <DistanceMeters>312427.03397386</DistanceMeters>
          </Trackpoint>
          <Trackpoint>
            <Time>2018-09-14T15:12:07.000Z</Time>
            <Position>
              <LatitudeDegrees>37.56970846094191074371337890625</LatitudeDegrees>
              <LongitudeDegrees>-8.074732236564159393310546875</LongitudeDegrees>
            </Position>
            <AltitudeMeters>273.20001220703125</AltitudeMeters>
            <DistanceMeters>312435.30512004</DistanceMeters>
          </Trackpoint>
          <Trackpoint>
            <Time>2018-09-14T15:12:08.000Z</Time>
            <Position>
              <LatitudeDegrees>37.56963537074625492095947265625</LatitudeDegrees>
              <LongitudeDegrees>-8.07471572421491146087646484375</LongitudeDegrees>
            </Position>
            <AltitudeMeters>273.399993896484375</AltitudeMeters>
            <DistanceMeters>312443.56971309</DistanceMeters>
          </Trackpoint>
          <Trackpoint>
            <Time>2018-09-14T15:12:09.000Z</Time>
            <Position>
              <LatitudeDegrees>37.5695633701980113983154296875</LatitudeDegrees>
              <LongitudeDegrees>-8.0746975354850292205810546875</LongitudeDegrees>
            </Position>
            <AltitudeMeters>273.399993896484375</AltitudeMeters>
            <DistanceMeters>312451.74256298</DistanceMeters>
          </Trackpoint>
          <Trackpoint>
            <Time>2018-09-14T15:12:10.000Z</Time>
            <Position>
              <LatitudeDegrees>37.56949237547814846038818359375</LatitudeDegrees>
              <LongitudeDegrees>-8.0746797658503055572509765625</LongitudeDegrees>
            </Position>
            <AltitudeMeters>273.399993896484375</AltitudeMeters>
            <DistanceMeters>312459.79912487</DistanceMeters>
          </Trackpoint>
          <Trackpoint>
            <Time>2018-09-14T15:12:11.000Z</Time>
            <Position>
              <LatitudeDegrees>37.5694213807582855224609375</LatitudeDegrees>
              <LongitudeDegrees>-8.0746628344058990478515625</LongitudeDegrees>
            </Position>
            <AltitudeMeters>273.600006103515625</AltitudeMeters>
            <DistanceMeters>312467.84110271</DistanceMeters>
          </Trackpoint>
          <Trackpoint>
            <Time>2018-09-14T15:12:12.000Z</Time>
            <Position>
              <LatitudeDegrees>37.56935072131454944610595703125</LatitudeDegrees>
              <LongitudeDegrees>-8.07464607059955596923828125</LongitudeDegrees>
            </Position>
            <AltitudeMeters>273.600006103515625</AltitudeMeters>
            <DistanceMeters>312475.84424785</DistanceMeters>
          </Trackpoint>
          <Trackpoint>
            <Time>2018-09-14T15:12:13.000Z</Time>
            <Position>
              <LatitudeDegrees>37.569280900061130523681640625</LatitudeDegrees>
              <LongitudeDegrees>-8.074629306793212890625</LongitudeDegrees>
            </Position>
            <AltitudeMeters>273.600006103515625</AltitudeMeters>
            <DistanceMeters>312483.75604221</DistanceMeters>
          </Trackpoint>
          <Trackpoint>
            <Time>2018-09-14T15:12:14.000Z</Time>
            <Position>
              <LatitudeDegrees>37.5692113302648067474365234375</LatitudeDegrees>
              <LongitudeDegrees>-8.07461078278720378875732421875</LongitudeDegrees>
            </Position>
            <AltitudeMeters>273.600006103515625</AltitudeMeters>
            <DistanceMeters>312491.67011892</DistanceMeters>
          </Trackpoint>
          <Trackpoint>
            <Time>2018-09-14T15:12:15.000Z</Time>
            <Position>
              <LatitudeDegrees>37.56914268247783184051513671875</LatitudeDegrees>
              <LongitudeDegrees>-8.07459167204797267913818359375</LongitudeDegrees>
            </Position>
            <AltitudeMeters>273.79998779296875</AltitudeMeters>
            <DistanceMeters>312499.49469036</DistanceMeters>
          </Trackpoint>
          <Trackpoint>
            <Time>2018-09-14T15:12:16.000Z</Time>
            <Position>
              <LatitudeDegrees>37.569075040519237518310546875</LatitudeDegrees>
              <LongitudeDegrees>-8.0745751596987247467041015625</LongitudeDegrees>
            </Position>
            <AltitudeMeters>274</AltitudeMeters>
            <DistanceMeters>312507.16305771</DistanceMeters>
          </Trackpoint>
          <Trackpoint>
            <Time>2018-09-14T15:12:17.000Z</Time>
            <Position>
              <LatitudeDegrees>37.56900806911289691925048828125</LatitudeDegrees>
              <LongitudeDegrees>-8.07455898262560367584228515625</LongitudeDegrees>
            </Position>
            <AltitudeMeters>274.20001220703125</AltitudeMeters>
            <DistanceMeters>312514.75211744</DistanceMeters>
          </Trackpoint>
          <Trackpoint>
            <Time>2018-09-14T15:12:18.000Z</Time>
            <Position>
              <LatitudeDegrees>37.568942606449127197265625</LatitudeDegrees>
              <LongitudeDegrees>-8.074540458619594573974609375</LongitudeDegrees>
            </Position>
            <AltitudeMeters>274.600006103515625</AltitudeMeters>
            <DistanceMeters>312522.218823</DistanceMeters>
          </Trackpoint>
          <Trackpoint>
            <Time>2018-09-14T15:12:19.000Z</Time>
            <Position>
              <LatitudeDegrees>37.56887747906148433685302734375</LatitudeDegrees>
              <LongitudeDegrees>-8.074523694813251495361328125</LongitudeDegrees>
            </Position>
            <AltitudeMeters>274.79998779296875</AltitudeMeters>
            <DistanceMeters>312529.61749339</DistanceMeters>
          </Trackpoint>
          <Trackpoint>
            <Time>2018-09-14T15:12:20.000Z</Time>
            <Position>
              <LatitudeDegrees>37.56881427951157093048095703125</LatitudeDegrees>
              <LongitudeDegrees>-8.074510283768177032470703125</LongitudeDegrees>
            </Position>
            <AltitudeMeters>275.20001220703125</AltitudeMeters>
            <DistanceMeters>312536.75019629</DistanceMeters>
          </Trackpoint>
          <Trackpoint>
            <Time>2018-09-14T15:12:21.000Z</Time>
            <Position>
              <LatitudeDegrees>37.56875242106616497039794921875</LatitudeDegrees>
              <LongitudeDegrees>-8.07449611835181713104248046875</LongitudeDegrees>
            </Position>
            <AltitudeMeters>275.399993896484375</AltitudeMeters>
            <DistanceMeters>312543.74741534</DistanceMeters>
          </Trackpoint>
          <Trackpoint>
            <Time>2018-09-14T15:12:22.000Z</Time>
            <Position>
              <LatitudeDegrees>37.568689472973346710205078125</LatitudeDegrees>
              <LongitudeDegrees>-8.07447968982160091400146484375</LongitudeDegrees>
            </Position>
            <AltitudeMeters>275.79998779296875</AltitudeMeters>
            <DistanceMeters>312550.90160805</DistanceMeters>
          </Trackpoint>
          <Trackpoint>
            <Time>2018-09-14T15:12:23.000Z</Time>
            <Position>
              <LatitudeDegrees>37.56862602196633815765380859375</LatitudeDegrees>
              <LongitudeDegrees>-8.07446275837719440460205078125</LongitudeDegrees>
            </Position>
            <AltitudeMeters>276.20001220703125</AltitudeMeters>
            <DistanceMeters>312558.12051178</DistanceMeters>
          </Trackpoint>
          <Trackpoint>
            <Time>2018-09-14T15:12:24.000Z</Time>
            <Position>
              <LatitudeDegrees>37.5685642473399639129638671875</LatitudeDegrees>
              <LongitudeDegrees>-8.0744467489421367645263671875</LongitudeDegrees>
            </Position>
            <AltitudeMeters>276.600006103515625</AltitudeMeters>
            <DistanceMeters>312565.13963545</DistanceMeters>
          </Trackpoint>
          <Trackpoint>
            <Time>2018-09-14T15:12:25.000Z</Time>
            <Position>
              <LatitudeDegrees>37.56850465200841426849365234375</LatitudeDegrees>
              <LongitudeDegrees>-8.074430488049983978271484375</LongitudeDegrees>
            </Position>
            <AltitudeMeters>276.79998779296875</AltitudeMeters>
            <DistanceMeters>312571.92590025</DistanceMeters>
          </Trackpoint>
          <Trackpoint>
            <Time>2018-09-14T15:12:26.000Z</Time>
            <Position>
              <LatitudeDegrees>37.5684450566768646240234375</LatitudeDegrees>
              <LongitudeDegrees>-8.07441548444330692291259765625</LongitudeDegrees>
            </Position>
            <AltitudeMeters>277.20001220703125</AltitudeMeters>
            <DistanceMeters>312578.68950633</DistanceMeters>
          </Trackpoint>
          <Trackpoint>
            <Time>2018-09-14T15:12:27.000Z</Time>
            <Position>
              <LatitudeDegrees>37.568385042250156402587890625</LatitudeDegrees>
              <LongitudeDegrees>-8.07440190576016902923583984375</LongitudeDegrees>
            </Position>
            <AltitudeMeters>277.399993896484375</AltitudeMeters>
            <DistanceMeters>312585.47577113</DistanceMeters>
          </Trackpoint>
          <Trackpoint>
            <Time>2018-09-14T15:12:28.000Z</Time>
            <Position>
              <LatitudeDegrees>37.568326704204082489013671875</LatitudeDegrees>
              <LongitudeDegrees>-8.074389584362506866455078125</LongitudeDegrees>
            </Position>
            <AltitudeMeters>277.79998779296875</AltitudeMeters>
            <DistanceMeters>312592.05941502</DistanceMeters>
          </Trackpoint>
          <Trackpoint>
            <Time>2018-09-14T15:12:29.000Z</Time>
            <Position>
              <LatitudeDegrees>37.5682698749005794525146484375</LatitudeDegrees>
              <LongitudeDegrees>-8.0743793584406375885009765625</LongitudeDegrees>
            </Position>
            <AltitudeMeters>278</AltitudeMeters>
            <DistanceMeters>312598.44885753</DistanceMeters>
          </Trackpoint>
          <Trackpoint>
            <Time>2018-09-14T15:12:30.000Z</Time>
            <Position>
              <LatitudeDegrees>37.56821296177804470062255859375</LatitudeDegrees>
              <LongitudeDegrees>-8.0743649415671825408935546875</LongitudeDegrees>
            </Position>
            <AltitudeMeters>278.20001220703125</AltitudeMeters>
            <DistanceMeters>312604.91067411</DistanceMeters>
          </Trackpoint>
          <Trackpoint>
            <Time>2018-09-14T15:12:31.000Z</Time>
            <Position>
              <LatitudeDegrees>37.56815630011260509490966796875</LatitudeDegrees>
              <LongitudeDegrees>-8.07434809394180774688720703125</LongitudeDegrees>
            </Position>
            <AltitudeMeters>278.20001220703125</AltitudeMeters>
            <DistanceMeters>312611.39063209</DistanceMeters>
          </Trackpoint>
          <Trackpoint>
            <Time>2018-09-14T15:12:32.000Z</Time>
            <Position>
              <LatitudeDegrees>37.56809972226619720458984375</LatitudeDegrees>
              <LongitudeDegrees>-8.07433501817286014556884765625</LongitudeDegrees>
            </Position>
            <AltitudeMeters>278.20001220703125</AltitudeMeters>
            <DistanceMeters>312617.79348669</DistanceMeters>
          </Trackpoint>
          <Trackpoint>
            <Time>2018-09-14T15:12:33.000Z</Time>
            <Position>
              <LatitudeDegrees>37.56804364733397960662841796875</LatitudeDegrees>
              <LongitudeDegrees>-8.074318505823612213134765625</LongitudeDegrees>
            </Position>
            <AltitudeMeters>278.399993896484375</AltitudeMeters>
            <DistanceMeters>312624.2026846</DistanceMeters>
          </Trackpoint>
          <Trackpoint>
            <Time>2018-09-14T15:12:34.000Z</Time>
            <Position>
              <LatitudeDegrees>37.567987404763698577880859375</LatitudeDegrees>
              <LongitudeDegrees>-8.0743045918643474578857421875</LongitudeDegrees>
            </Position>
            <AltitudeMeters>278.399993896484375</AltitudeMeters>
            <DistanceMeters>312630.5815187</DistanceMeters>
          </Trackpoint>
          <Trackpoint>
            <Time>2018-09-14T15:12:35.000Z</Time>
            <Position>
              <LatitudeDegrees>37.56793032400310039520263671875</LatitudeDegrees>
              <LongitudeDegrees>-8.0742898397147655487060546875</LongitudeDegrees>
            </Position>
            <AltitudeMeters>278.399993896484375</AltitudeMeters>
            <DistanceMeters>312637.06635223</DistanceMeters>
          </Trackpoint>
          <Trackpoint>
            <Time>2018-09-14T15:12:36.000Z</Time>
            <Position>
              <LatitudeDegrees>37.56787232123315334320068359375</LatitudeDegrees>
              <LongitudeDegrees>-8.074276261031627655029296875</LongitudeDegrees>
            </Position>
            <AltitudeMeters>278.600006103515625</AltitudeMeters>
            <DistanceMeters>312643.63214121</DistanceMeters>
          </Trackpoint>
          <Trackpoint>
            <Time>2018-09-14T15:12:37.000Z</Time>
            <Position>
              <LatitudeDegrees>37.567816078662872314453125</LatitudeDegrees>
              <LongitudeDegrees>-8.074263520538806915283203125</LongitudeDegrees>
            </Position>
            <AltitudeMeters>278.600006103515625</AltitudeMeters>
            <DistanceMeters>312649.99254548</DistanceMeters>
          </Trackpoint>
          <Trackpoint>
            <Time>2018-09-14T15:12:38.000Z</Time>
            <Position>
              <LatitudeDegrees>37.56775933317840099334716796875</LatitudeDegrees>
              <LongitudeDegrees>-8.07424969039857387542724609375</LongitudeDegrees>
            </Position>
            <AltitudeMeters>278.600006103515625</AltitudeMeters>
            <DistanceMeters>312656.42565051</DistanceMeters>
          </Trackpoint>
          <Trackpoint>
            <Time>2018-09-14T15:12:39.000Z</Time>
            <Position>
              <LatitudeDegrees>37.5677039287984371185302734375</LatitudeDegrees>
              <LongitudeDegrees>-8.074234016239643096923828125</LongitudeDegrees>
            </Position>
            <AltitudeMeters>278.600006103515625</AltitudeMeters>
            <DistanceMeters>312662.74617725</DistanceMeters>
          </Trackpoint>
          <Trackpoint>
            <Time>2018-09-14T15:12:40.000Z</Time>
            <Position>
              <LatitudeDegrees>37.56764885969460010528564453125</LatitudeDegrees>
              <LongitudeDegrees>-8.07421817444264888763427734375</LongitudeDegrees>
            </Position>
            <AltitudeMeters>278.600006103515625</AltitudeMeters>
            <DistanceMeters>312669.03304011</DistanceMeters>
          </Trackpoint>
          <Trackpoint>
            <Time>2018-09-14T15:12:41.000Z</Time>
            <Position>
              <LatitudeDegrees>37.567595131695270538330078125</LatitudeDegrees>
              <LongitudeDegrees>-8.0742036737501621246337890625</LongitudeDegrees>
            </Position>
            <AltitudeMeters>278.600006103515625</AltitudeMeters>
            <DistanceMeters>312675.147328</DistanceMeters>
          </Trackpoint>
          <Trackpoint>
            <Time>2018-09-14T15:12:42.000Z</Time>
            <Position>
              <LatitudeDegrees>37.56754182279109954833984375</LatitudeDegrees>
              <LongitudeDegrees>-8.0741919390857219696044921875</LongitudeDegrees>
            </Position>
            <AltitudeMeters>278.600006103515625</AltitudeMeters>
            <DistanceMeters>312681.16935316</DistanceMeters>
          </Trackpoint>
          <Trackpoint>
            <Time>2018-09-14T15:12:43.000Z</Time>
            <Position>
              <LatitudeDegrees>37.567488849163055419921875</LatitudeDegrees>
              <LongitudeDegrees>-8.07418112643063068389892578125</LongitudeDegrees>
            </Position>
            <AltitudeMeters>278.600006103515625</AltitudeMeters>
            <DistanceMeters>312687.14168955</DistanceMeters>
          </Trackpoint>
          <Trackpoint>
            <Time>2018-09-14T15:12:44.000Z</Time>
            <Position>
              <LatitudeDegrees>37.567434869706630706787109375</LatitudeDegrees>
              <LongitudeDegrees>-8.07416855357587337493896484375</LongitudeDegrees>
            </Position>
            <AltitudeMeters>278.399993896484375</AltitudeMeters>
            <DistanceMeters>312693.25080617</DistanceMeters>
          </Trackpoint>
          <Trackpoint>
            <Time>2018-09-14T15:12:45.000Z</Time>
            <Position>
              <LatitudeDegrees>37.56738097406923770904541015625</LatitudeDegrees>
              <LongitudeDegrees>-8.07415648363530635833740234375</LongitudeDegrees>
            </Position>
            <AltitudeMeters>278.399993896484375</AltitudeMeters>
            <DistanceMeters>312699.34290057</DistanceMeters>
          </Trackpoint>
          <Trackpoint>
            <Time>2018-09-14T15:12:46.000Z</Time>
            <Position>
              <LatitudeDegrees>37.5673265755176544189453125</LatitudeDegrees>
              <LongitudeDegrees>-8.07414541952311992645263671875</LongitudeDegrees>
            </Position>
            <AltitudeMeters>278.20001220703125</AltitudeMeters>
            <DistanceMeters>312705.47635788</DistanceMeters>
          </Trackpoint>
          <Trackpoint>
            <Time>2018-09-14T15:12:47.000Z</Time>
            <Position>
              <LatitudeDegrees>37.5672720931470394134521484375</LatitudeDegrees>
              <LongitudeDegrees>-8.074133098125457763671875</LongitudeDegrees>
            </Position>
            <AltitudeMeters>278</AltitudeMeters>
            <DistanceMeters>312711.63699188</DistanceMeters>
          </Trackpoint>
          <Trackpoint>
            <Time>2018-09-14T15:12:48.000Z</Time>
            <Position>
              <LatitudeDegrees>37.56721727550029754638671875</LatitudeDegrees>
              <LongitudeDegrees>-8.07412111200392246246337890625</LongitudeDegrees>
            </Position>
            <AltitudeMeters>277.79998779296875</AltitudeMeters>
            <DistanceMeters>312717.82905975</DistanceMeters>
          </Trackpoint>
          <Trackpoint>
            <Time>2018-09-14T15:12:49.000Z</Time>
            <Position>
              <LatitudeDegrees>37.56716069765388965606689453125</LatitudeDegrees>
              <LongitudeDegrees>-8.07410887442529201507568359375</LongitudeDegrees>
            </Position>
            <AltitudeMeters>277.600006103515625</AltitudeMeters>
            <DistanceMeters>312724.21850226</DistanceMeters>
          </Trackpoint>
          <Trackpoint>
            <Time>2018-09-14T15:12:50.000Z</Time>
            <Position>
              <LatitudeDegrees>37.56710185669362545013427734375</LatitudeDegrees>
              <LongitudeDegrees>-8.07409747503697872161865234375</LongitudeDegrees>
            </Position>
            <AltitudeMeters>277.399993896484375</AltitudeMeters>
            <DistanceMeters>312730.8445291</DistanceMeters>
          </Trackpoint>
          <Trackpoint>
            <Time>2018-09-14T15:12:51.000Z</Time>
            <Position>
              <LatitudeDegrees>37.567041255533695220947265625</LatitudeDegrees>
              <LongitudeDegrees>-8.07408490218222141265869140625</LongitudeDegrees>
            </Position>
            <AltitudeMeters>277.20001220703125</AltitudeMeters>
            <DistanceMeters>312737.67985027</DistanceMeters>
          </Trackpoint>
          <Trackpoint>
            <Time>2018-09-14T15:12:52.000Z</Time>
            <Position>
              <LatitudeDegrees>37.566979229450225830078125</LatitudeDegrees>
              <LongitudeDegrees>-8.07407207787036895751953125</LongitudeDegrees>
            </Position>
            <AltitudeMeters>277</AltitudeMeters>
            <DistanceMeters>312744.67577869</DistanceMeters>
          </Trackpoint>
          <Trackpoint>
            <Time>2018-09-14T15:12:53.000Z</Time>
            <Position>
              <LatitudeDegrees>37.5669156946241855621337890625</LatitudeDegrees>
              <LongitudeDegrees>-8.07405808009207248687744140625</LongitudeDegrees>
            </Position>
            <AltitudeMeters>276.79998779296875</AltitudeMeters>
            <DistanceMeters>312751.85391328</DistanceMeters>
          </Trackpoint>
          <Trackpoint>
            <Time>2018-09-14T15:12:54.000Z</Time>
            <Position>
              <LatitudeDegrees>37.5668506510555744171142578125</LatitudeDegrees>
              <LongitudeDegrees>-8.07404366321861743927001953125</LongitudeDegrees>
            </Position>
            <AltitudeMeters>277</AltitudeMeters>
            <DistanceMeters>312759.20483005</DistanceMeters>
          </Trackpoint>
          <Trackpoint>
            <Time>2018-09-14T15:12:55.000Z</Time>
            <Position>
              <LatitudeDegrees>37.5667842663824558258056640625</LatitudeDegrees>
              <LongitudeDegrees>-8.0740293301641941070556640625</LongitudeDegrees>
            </Position>
            <AltitudeMeters>277.20001220703125</AltitudeMeters>
            <DistanceMeters>312766.70050451</DistanceMeters>
          </Trackpoint>
          <Trackpoint>
            <Time>2018-09-14T15:12:56.000Z</Time>
            <Position>
              <LatitudeDegrees>37.5667175464332103729248046875</LatitudeDegrees>
              <LongitudeDegrees>-8.0740132369101047515869140625</LongitudeDegrees>
            </Position>
            <AltitudeMeters>277.399993896484375</AltitudeMeters>
            <DistanceMeters>312774.26035595</DistanceMeters>
          </Trackpoint>
          <Trackpoint>
            <Time>2018-09-14T15:12:57.000Z</Time>
            <Position>
              <LatitudeDegrees>37.56665107794106006622314453125</LatitudeDegrees>
              <LongitudeDegrees>-8.07399722747504711151123046875</LongitudeDegrees>
            </Position>
            <AltitudeMeters>277.600006103515625</AltitudeMeters>
            <DistanceMeters>312781.79208485</DistanceMeters>
          </Trackpoint>
          <Trackpoint>
            <Time>2018-09-14T15:12:58.000Z</Time>
            <Position>
              <LatitudeDegrees>37.56658402271568775177001953125</LatitudeDegrees>
              <LongitudeDegrees>-8.07398063130676746368408203125</LongitudeDegrees>
            </Position>
            <AltitudeMeters>277.399993896484375</AltitudeMeters>
            <DistanceMeters>312789.39719101</DistanceMeters>
          </Trackpoint>
          <Trackpoint>
            <Time>2018-09-14T15:12:59.000Z</Time>
            <Position>
              <LatitudeDegrees>37.56651612929999828338623046875</LatitudeDegrees>
              <LongitudeDegrees>-8.07396386750042438507080078125</LongitudeDegrees>
            </Position>
            <AltitudeMeters>277.399993896484375</AltitudeMeters>
            <DistanceMeters>312797.09728724</DistanceMeters>
          </Trackpoint>
          <Trackpoint>
            <Time>2018-09-14T15:13:00.000Z</Time>
            <Position>
              <LatitudeDegrees>37.566447146236896514892578125</LatitudeDegrees>
              <LongitudeDegrees>-8.0739465169608592987060546875</LongitudeDegrees>
            </Position>
            <AltitudeMeters>277.20001220703125</AltitudeMeters>
            <DistanceMeters>312804.92647359</DistanceMeters>
          </Trackpoint>
          <Trackpoint>
            <Time>2018-09-14T15:13:01.000Z</Time>
            <Position>
              <LatitudeDegrees>37.56637698970735073089599609375</LatitudeDegrees>
              <LongitudeDegrees>-8.07392857968807220458984375</LongitudeDegrees>
            </Position>
            <AltitudeMeters>277</AltitudeMeters>
            <DistanceMeters>312812.89399751</DistanceMeters>
          </Trackpoint>
          <Trackpoint>
            <Time>2018-09-14T15:13:02.000Z</Time>
            <Position>
              <LatitudeDegrees>37.56630641408264636993408203125</LatitudeDegrees>
              <LongitudeDegrees>-8.07391072623431682586669921875</LongitudeDegrees>
            </Position>
            <AltitudeMeters>277</AltitudeMeters>
            <DistanceMeters>312820.90560055</DistanceMeters>
          </Trackpoint>
          <Trackpoint>
            <Time>2018-09-14T15:13:03.000Z</Time>
            <Position>
              <LatitudeDegrees>37.5662357546389102935791015625</LatitudeDegrees>
              <LongitudeDegrees>-8.0738922022283077239990234375</LongitudeDegrees>
            </Position>
            <AltitudeMeters>276.79998779296875</AltitudeMeters>
            <DistanceMeters>312828.93859042</DistanceMeters>
          </Trackpoint>
          <Trackpoint>
            <Time>2018-09-14T15:13:04.000Z</Time>
            <Position>
              <LatitudeDegrees>37.56616559810936450958251953125</LatitudeDegrees>
              <LongitudeDegrees>-8.0738751031458377838134765625</LongitudeDegrees>
            </Position>
            <AltitudeMeters>276.600006103515625</AltitudeMeters>
            <DistanceMeters>312836.89193472</DistanceMeters>
          </Trackpoint>
          <Trackpoint>
            <Time>2018-09-14T15:13:05.000Z</Time>
            <Position>
              <LatitudeDegrees>37.56609586067497730255126953125</LatitudeDegrees>
              <LongitudeDegrees>-8.0738581717014312744140625</LongitudeDegrees>
            </Position>
            <AltitudeMeters>276.600006103515625</AltitudeMeters>
            <DistanceMeters>312844.79687804</DistanceMeters>
          </Trackpoint>
          <Trackpoint>
            <Time>2018-09-14T15:13:06.000Z</Time>
            <Position>
              <LatitudeDegrees>37.56602595560252666473388671875</LatitudeDegrees>
              <LongitudeDegrees>-8.0738409049808979034423828125</LongitudeDegrees>
            </Position>
            <AltitudeMeters>276.399993896484375</AltitudeMeters>
            <DistanceMeters>312852.72577407</DistanceMeters>
          </Trackpoint>
          <Trackpoint>
            <Time>2018-09-14T15:13:07.000Z</Time>
            <Position>
              <LatitudeDegrees>37.565955631434917449951171875</LatitudeDegrees>
              <LongitudeDegrees>-8.0738231353461742401123046875</LongitudeDegrees>
            </Position>
            <AltitudeMeters>276.399993896484375</AltitudeMeters>
            <DistanceMeters>312860.70801808</DistanceMeters>
          </Trackpoint>
          <Trackpoint>
            <Time>2018-09-14T15:13:08.000Z</Time>
            <Position>
              <LatitudeDegrees>37.56588413380086421966552734375</LatitudeDegrees>
              <LongitudeDegrees>-8.07380511425435543060302734375</LongitudeDegrees>
            </Position>
            <AltitudeMeters>276.20001220703125</AltitudeMeters>
            <DistanceMeters>312868.82265408</DistanceMeters>
          </Trackpoint>
          <Trackpoint>
            <Time>2018-09-14T15:13:09.000Z</Time>
            <Position>
              <LatitudeDegrees>37.56581137888133525848388671875</LatitudeDegrees>
              <LongitudeDegrees>-8.07378709316253662109375</LongitudeDegrees>
            </Position>
            <AltitudeMeters>276</AltitudeMeters>
            <DistanceMeters>312877.07521953</DistanceMeters>
          </Trackpoint>
          <Trackpoint>
            <Time>2018-09-14T15:13:10.000Z</Time>
            <Position>
              <LatitudeDegrees>37.56573795340955257415771484375</LatitudeDegrees>
              <LongitudeDegrees>-8.0737698264420032501220703125</LongitudeDegrees>
            </Position>
            <AltitudeMeters>275.79998779296875</AltitudeMeters>
            <DistanceMeters>312885.38883518</DistanceMeters>
          </Trackpoint>
          <Trackpoint>
            <Time>2018-09-14T15:13:11.000Z</Time>
            <Position>
              <LatitudeDegrees>37.56566436029970645904541015625</LatitudeDegrees>
              <LongitudeDegrees>-8.07375247590243816375732421875</LongitudeDegrees>
            </Position>
            <AltitudeMeters>275.600006103515625</AltitudeMeters>
            <DistanceMeters>312893.72197911</DistanceMeters>
          </Trackpoint>
          <Trackpoint>
            <Time>2018-09-14T15:13:12.000Z</Time>
            <Position>
              <LatitudeDegrees>37.56559059955179691314697265625</LatitudeDegrees>
              <LongitudeDegrees>-8.07373437099158763885498046875</LongitudeDegrees>
            </Position>
            <AltitudeMeters>275.399993896484375</AltitudeMeters>
            <DistanceMeters>312902.0864894</DistanceMeters>
          </Trackpoint>
          <Trackpoint>
            <Time>2018-09-14T15:13:13.000Z</Time>
            <Position>
              <LatitudeDegrees>37.56551717408001422882080078125</LatitudeDegrees>
              <LongitudeDegrees>-8.07371668517589569091796875</LongitudeDegrees>
            </Position>
            <AltitudeMeters>275.20001220703125</AltitudeMeters>
            <DistanceMeters>312910.40716221</DistanceMeters>
          </Trackpoint>
          <Trackpoint>
            <Time>2018-09-14T15:13:14.000Z</Time>
            <Position>
              <LatitudeDegrees>37.56544433534145355224609375</LatitudeDegrees>
              <LongitudeDegrees>-8.07369899936020374298095703125</LongitudeDegrees>
            </Position>
            <AltitudeMeters>275</AltitudeMeters>
            <DistanceMeters>312918.66410336</DistanceMeters>
          </Trackpoint>
          <Trackpoint>
            <Time>2018-09-14T15:13:15.000Z</Time>
            <Position>
              <LatitudeDegrees>37.56537191569805145263671875</LatitudeDegrees>
              <LongitudeDegrees>-8.07368106208741664886474609375</LongitudeDegrees>
            </Position>
            <AltitudeMeters>275</AltitudeMeters>
            <DistanceMeters>312926.87828203</DistanceMeters>
          </Trackpoint>
          <Trackpoint>
            <Time>2018-09-14T15:13:16.000Z</Time>
            <Position>
              <LatitudeDegrees>37.56530025042593479156494140625</LatitudeDegrees>
              <LongitudeDegrees>-8.07366329245269298553466796875</LongitudeDegrees>
            </Position>
            <AltitudeMeters>274.79998779296875</AltitudeMeters>
            <DistanceMeters>312935.00737173</DistanceMeters>
          </Trackpoint>
          <Trackpoint>
            <Time>2018-09-14T15:13:17.000Z</Time>
            <Position>
              <LatitudeDegrees>37.5652289204299449920654296875</LatitudeDegrees>
              <LongitudeDegrees>-8.07364501990377902984619140625</LongitudeDegrees>
            </Position>
            <AltitudeMeters>274.79998779296875</AltitudeMeters>
            <DistanceMeters>312943.10864297</DistanceMeters>
          </Trackpoint>
          <Trackpoint>
            <Time>2018-09-14T15:13:18.000Z</Time>
            <Position>
              <LatitudeDegrees>37.56515826098620891571044921875</LatitudeDegrees>
              <LongitudeDegrees>-8.073625825345516204833984375</LongitudeDegrees>
            </Position>
            <AltitudeMeters>274.600006103515625</AltitudeMeters>
            <DistanceMeters>312951.15286622</DistanceMeters>
          </Trackpoint>
          <Trackpoint>
            <Time>2018-09-14T15:13:19.000Z</Time>
            <Position>
              <LatitudeDegrees>37.5650882720947265625</LatitudeDegrees>
              <LongitudeDegrees>-8.073607385158538818359375</LongitudeDegrees>
            </Position>
            <AltitudeMeters>274.600006103515625</AltitudeMeters>
            <DistanceMeters>312959.11018336</DistanceMeters>
          </Trackpoint>
          <Trackpoint>
            <Time>2018-09-14T15:13:20.000Z</Time>
            <Position>
              <LatitudeDegrees>37.5650193728506565093994140625</LatitudeDegrees>
              <LongitudeDegrees>-8.07358936406672000885009765625</LongitudeDegrees>
            </Position>
            <AltitudeMeters>274.399993896484375</AltitudeMeters>
            <DistanceMeters>312966.94167614</DistanceMeters>
          </Trackpoint>
          <Trackpoint>
            <Time>2018-09-14T15:13:21.000Z</Time>
            <Position>
              <LatitudeDegrees>37.56495038978755474090576171875</LatitudeDegrees>
              <LongitudeDegrees>-8.07357360608875751495361328125</LongitudeDegrees>
            </Position>
            <AltitudeMeters>274.600006103515625</AltitudeMeters>
            <DistanceMeters>312974.74486815</DistanceMeters>
          </Trackpoint>
          <Trackpoint>
            <Time>2018-09-14T15:13:22.000Z</Time>
            <Position>
              <LatitudeDegrees>37.5648812390863895416259765625</LatitudeDegrees>
              <LongitudeDegrees>-8.07355843484401702880859375</LongitudeDegrees>
            </Position>
            <AltitudeMeters>274.600006103515625</AltitudeMeters>
            <DistanceMeters>312982.5573125</DistanceMeters>
          </Trackpoint>
          <Trackpoint>
            <Time>2018-09-14T15:13:23.000Z</Time>
            <Position>
              <LatitudeDegrees>37.56481141783297061920166015625</LatitudeDegrees>
              <LongitudeDegrees>-8.07354443706572055816650390625</LongitudeDegrees>
            </Position>
            <AltitudeMeters>274.600006103515625</AltitudeMeters>
            <DistanceMeters>312990.42561626</DistanceMeters>
          </Trackpoint>
          <Trackpoint>
            <Time>2018-09-14T15:13:24.000Z</Time>
            <Position>
              <LatitudeDegrees>37.5647414289414882659912109375</LatitudeDegrees>
              <LongitudeDegrees>-8.07353069074451923370361328125</LongitudeDegrees>
            </Position>
            <AltitudeMeters>274.600006103515625</AltitudeMeters>
            <DistanceMeters>312998.3093981</DistanceMeters>
          </Trackpoint>
          <Trackpoint>
            <Time>2018-09-14T15:13:25.000Z</Time>
            <Position>
              <LatitudeDegrees>37.56467194296419620513916015625</LatitudeDegrees>
              <LongitudeDegrees>-8.0735156871378421783447265625</LongitudeDegrees>
            </Position>
            <AltitudeMeters>274.399993896484375</AltitudeMeters>
            <DistanceMeters>313006.15586617</DistanceMeters>
          </Trackpoint>
          <Trackpoint>
            <Time>2018-09-14T15:13:26.000Z</Time>
            <Position>
              <LatitudeDegrees>37.5646029599010944366455078125</LatitudeDegrees>
              <LongitudeDegrees>-8.073497749865055084228515625</LongitudeDegrees>
            </Position>
            <AltitudeMeters>274.399993896484375</AltitudeMeters>
            <DistanceMeters>313013.99542613</DistanceMeters>
          </Trackpoint>
          <Trackpoint>
            <Time>2018-09-14T15:13:27.000Z</Time>
            <Position>
              <LatitudeDegrees>37.56453414447605609893798828125</LatitudeDegrees>
              <LongitudeDegrees>-8.07348056696355342864990234375</LongitudeDegrees>
            </Position>
            <AltitudeMeters>274.399993896484375</AltitudeMeters>
            <DistanceMeters>313021.80382392</DistanceMeters>
          </Trackpoint>
          <Trackpoint>
            <Time>2018-09-14T15:13:28.000Z</Time>
            <Position>
              <LatitudeDegrees>37.56446507759392261505126953125</LatitudeDegrees>
              <LongitudeDegrees>-8.07346413843333721160888671875</LongitudeDegrees>
            </Position>
            <AltitudeMeters>274.399993896484375</AltitudeMeters>
            <DistanceMeters>313029.6260869</DistanceMeters>
          </Trackpoint>
          <Trackpoint>
            <Time>2018-09-14T15:13:29.000Z</Time>
            <Position>
              <LatitudeDegrees>37.56439617834985256195068359375</LatitudeDegrees>
              <LongitudeDegrees>-8.073447458446025848388671875</LongitudeDegrees>
            </Position>
            <AltitudeMeters>274.20001220703125</AltitudeMeters>
            <DistanceMeters>313037.4350629</DistanceMeters>
          </Trackpoint>
          <Trackpoint>
            <Time>2018-09-14T15:13:30.000Z</Time>
            <Position>
              <LatitudeDegrees>37.564327530562877655029296875</LatitudeDegrees>
              <LongitudeDegrees>-8.0734308622777462005615234375</LongitudeDegrees>
            </Position>
            <AltitudeMeters>274.20001220703125</AltitudeMeters>
            <DistanceMeters>313045.21449555</DistanceMeters>
          </Trackpoint>
          <Trackpoint>
            <Time>2018-09-14T15:13:31.000Z</Time>
            <Position>
              <LatitudeDegrees>37.5642593018710613250732421875</LatitudeDegrees>
              <LongitudeDegrees>-8.0734144337475299835205078125</LongitudeDegrees>
            </Position>
            <AltitudeMeters>274.20001220703125</AltitudeMeters>
            <DistanceMeters>313052.94502243</DistanceMeters>
          </Trackpoint>
          <Trackpoint>
            <Time>2018-09-14T15:13:32.000Z</Time>
            <Position>
              <LatitudeDegrees>37.56419115699827671051025390625</LatitudeDegrees>
              <LongitudeDegrees>-8.07339993305504322052001953125</LongitudeDegrees>
            </Position>
            <AltitudeMeters>274.20001220703125</AltitudeMeters>
            <DistanceMeters>313060.63631821</DistanceMeters>
          </Trackpoint>
          <Trackpoint>
            <Time>2018-09-14T15:13:33.000Z</Time>
            <Position>
              <LatitudeDegrees>37.564122341573238372802734375</LatitudeDegrees>
              <LongitudeDegrees>-8.0733866058290004730224609375</LongitudeDegrees>
            </Position>
            <AltitudeMeters>274.20001220703125</AltitudeMeters>
            <DistanceMeters>313068.38551226</DistanceMeters>
          </Trackpoint>
          <Trackpoint>
            <Time>2018-09-14T15:13:34.000Z</Time>
            <Position>
              <LatitudeDegrees>37.5640541128814220428466796875</LatitudeDegrees>
              <LongitudeDegrees>-8.073371686041355133056640625</LongitudeDegrees>
            </Position>
            <AltitudeMeters>274.399993896484375</AltitudeMeters>
            <DistanceMeters>313076.09264161</DistanceMeters>
          </Trackpoint>
          <Trackpoint>
            <Time>2018-09-14T15:13:35.000Z</Time>
            <Position>
              <LatitudeDegrees>37.56398596800863742828369140625</LatitudeDegrees>
              <LongitudeDegrees>-8.07335550896823406219482421875</LongitudeDegrees>
            </Position>
            <AltitudeMeters>274.600006103515625</AltitudeMeters>
            <DistanceMeters>313083.81147859</DistanceMeters>
          </Trackpoint>
          <Trackpoint>
            <Time>2018-09-14T15:13:36.000Z</Time>
            <Position>
              <LatitudeDegrees>37.56391824223101139068603515625</LatitudeDegrees>
              <LongitudeDegrees>-8.07333983480930328369140625</LongitudeDegrees>
            </Position>
            <AltitudeMeters>274.79998779296875</AltitudeMeters>
            <DistanceMeters>313091.47572332</DistanceMeters>
          </Trackpoint>
          <Trackpoint>
            <Time>2018-09-14T15:13:37.000Z</Time>
            <Position>
              <LatitudeDegrees>37.56385101936757564544677734375</LatitudeDegrees>
              <LongitudeDegrees>-8.07332374155521392822265625</LongitudeDegrees>
            </Position>
            <AltitudeMeters>275</AltitudeMeters>
            <DistanceMeters>313099.09091544</DistanceMeters>
          </Trackpoint>
          <Trackpoint>
            <Time>2018-09-14T15:13:38.000Z</Time>
            <Position>
              <LatitudeDegrees>37.56378530524671077728271484375</LatitudeDegrees>
              <LongitudeDegrees>-8.0733071453869342803955078125</LongitudeDegrees>
            </Position>
            <AltitudeMeters>275.20001220703125</AltitudeMeters>
            <DistanceMeters>313106.5503612</DistanceMeters>
          </Trackpoint>
          <Trackpoint>
            <Time>2018-09-14T15:13:39.000Z</Time>
            <Position>
              <LatitudeDegrees>37.5637211836874485015869140625</LatitudeDegrees>
              <LongitudeDegrees>-8.0732882022857666015625</LongitudeDegrees>
            </Position>
            <AltitudeMeters>275.399993896484375</AltitudeMeters>
            <DistanceMeters>313113.88036494</DistanceMeters>
          </Trackpoint>
          <Trackpoint>
            <Time>2018-09-14T15:13:40.000Z</Time>
            <Position>
              <LatitudeDegrees>37.56365790031850337982177734375</LatitudeDegrees>
              <LongitudeDegrees>-8.07326917536556720733642578125</LongitudeDegrees>
            </Position>
            <AltitudeMeters>275.600006103515625</AltitudeMeters>
            <DistanceMeters>313121.12112621</DistanceMeters>
          </Trackpoint>
          <Trackpoint>
            <Time>2018-09-14T15:13:41.000Z</Time>
            <Position>
              <LatitudeDegrees>37.563594616949558258056640625</LatitudeDegrees>
              <LongitudeDegrees>-8.073253668844699859619140625</LongitudeDegrees>
            </Position>
            <AltitudeMeters>275.79998779296875</AltitudeMeters>
            <DistanceMeters>313128.29674436</DistanceMeters>
          </Trackpoint>
          <Trackpoint>
            <Time>2018-09-14T15:13:42.000Z</Time>
            <Position>
              <LatitudeDegrees>37.56352848373353481292724609375</LatitudeDegrees>
              <LongitudeDegrees>-8.073240928351879119873046875</LongitudeDegrees>
            </Position>
            <AltitudeMeters>276</AltitudeMeters>
            <DistanceMeters>313135.7428621</DistanceMeters>
          </Trackpoint>
          <Trackpoint>
            <Time>2018-09-14T15:13:43.000Z</Time>
            <Position>
              <LatitudeDegrees>37.56346075795590877532958984375</LatitudeDegrees>
              <LongitudeDegrees>-8.07322910986840724945068359375</LongitudeDegrees>
            </Position>
            <AltitudeMeters>276</AltitudeMeters>
            <DistanceMeters>313143.35330955</DistanceMeters>
          </Trackpoint>
          <Trackpoint>
            <Time>2018-09-14T15:13:44.000Z</Time>
            <Position>
              <LatitudeDegrees>37.56339303217828273773193359375</LatitudeDegrees>
              <LongitudeDegrees>-8.07321779429912567138671875</LongitudeDegrees>
            </Position>
            <AltitudeMeters>276</AltitudeMeters>
            <DistanceMeters>313150.95782199</DistanceMeters>
          </Trackpoint>
          <Trackpoint>
            <Time>2018-09-14T15:13:45.000Z</Time>
            <Position>
              <LatitudeDegrees>37.56332614459097385406494140625</LatitudeDegrees>
              <LongitudeDegrees>-8.07320346124470233917236328125</LongitudeDegrees>
            </Position>
            <AltitudeMeters>276</AltitudeMeters>
            <DistanceMeters>313158.50870954</DistanceMeters>
          </Trackpoint>
          <Trackpoint>
            <Time>2018-09-14T15:13:46.000Z</Time>
            <Position>
              <LatitudeDegrees>37.56325975991785526275634765625</LatitudeDegrees>
              <LongitudeDegrees>-8.07318787090480327606201171875</LongitudeDegrees>
            </Position>
            <AltitudeMeters>276.399993896484375</AltitudeMeters>
            <DistanceMeters>313166.02363456</DistanceMeters>
          </Trackpoint>
          <Trackpoint>
            <Time>2018-09-14T15:13:47.000Z</Time>
            <Position>
              <LatitudeDegrees>37.56319454871118068695068359375</LatitudeDegrees>
              <LongitudeDegrees>-8.07317244820296764373779296875</LongitudeDegrees>
            </Position>
            <AltitudeMeters>276.79998779296875</AltitudeMeters>
            <DistanceMeters>313173.40764441</DistanceMeters>
          </Trackpoint>
          <Trackpoint>
            <Time>2018-09-14T15:13:48.000Z</Time>
            <Position>
              <LatitudeDegrees>37.56313017569482326507568359375</LatitudeDegrees>
              <LongitudeDegrees>-8.0731579475104808807373046875</LongitudeDegrees>
            </Position>
            <AltitudeMeters>277</AltitudeMeters>
            <DistanceMeters>313180.68572304</DistanceMeters>
          </Trackpoint>
          <Trackpoint>
            <Time>2018-09-14T15:13:49.000Z</Time>
            <Position>
              <LatitudeDegrees>37.56306714378297328948974609375</LatitudeDegrees>
              <LongitudeDegrees>-8.07314378209412097930908203125</LongitudeDegrees>
            </Position>
            <AltitudeMeters>277.399993896484375</AltitudeMeters>
            <DistanceMeters>313187.81145948</DistanceMeters>
          </Trackpoint>
          <Trackpoint>
            <Time>2018-09-14T15:13:50.000Z</Time>
            <Position>
              <LatitudeDegrees>37.56300478242337703704833984375</LatitudeDegrees>
              <LongitudeDegrees>-8.0731297843158245086669921875</LongitudeDegrees>
            </Position>
            <AltitudeMeters>277.600006103515625</AltitudeMeters>
            <DistanceMeters>313194.86203185</DistanceMeters>
          </Trackpoint>
          <Trackpoint>
            <Time>2018-09-14T15:13:51.000Z</Time>
            <Position>
              <LatitudeDegrees>37.56294426508247852325439453125</LatitudeDegrees>
              <LongitudeDegrees>-8.0731160379946231842041015625</LongitudeDegrees>
            </Position>
            <AltitudeMeters>278</AltitudeMeters>
            <DistanceMeters>313201.70659441</DistanceMeters>
          </Trackpoint>
          <Trackpoint>
            <Time>2018-09-14T15:13:52.000Z</Time>
            <Position>
              <LatitudeDegrees>37.5628848373889923095703125</LatitudeDegrees>
              <LongitudeDegrees>-8.07310254313051700592041015625</LongitudeDegrees>
            </Position>
            <AltitudeMeters>278.20001220703125</AltitudeMeters>
            <DistanceMeters>313208.42734157</DistanceMeters>
          </Trackpoint>
          <Trackpoint>
            <Time>2018-09-14T15:13:53.000Z</Time>
            <Position>
              <LatitudeDegrees>37.5628263317048549652099609375</LatitudeDegrees>
              <LongitudeDegrees>-8.07308879680931568145751953125</LongitudeDegrees>
            </Position>
            <AltitudeMeters>278.399993896484375</AltitudeMeters>
            <DistanceMeters>313215.05064221</DistanceMeters>
          </Trackpoint>
          <Trackpoint>
            <Time>2018-09-14T15:13:54.000Z</Time>
            <Position>
              <LatitudeDegrees>37.5627686642110347747802734375</LatitudeDegrees>
              <LongitudeDegrees>-8.0730754695832729339599609375</LongitudeDegrees>
            </Position>
            <AltitudeMeters>278.399993896484375</AltitudeMeters>
            <DistanceMeters>313221.57504106</DistanceMeters>
          </Trackpoint>
          <Trackpoint>
            <Time>2018-09-14T15:13:55.000Z</Time>
            <Position>
              <LatitudeDegrees>37.5627116672694683074951171875</LatitudeDegrees>
              <LongitudeDegrees>-8.0730615556240081787109375</LongitudeDegrees>
            </Position>
            <AltitudeMeters>278.399993896484375</AltitudeMeters>
            <DistanceMeters>313228.03685764</DistanceMeters>
          </Trackpoint>
          <Trackpoint>
            <Time>2018-09-14T15:13:56.000Z</Time>
            <Position>
              <LatitudeDegrees>37.56265575997531414031982421875</LatitudeDegrees>
              <LongitudeDegrees>-8.073047809302806854248046875</LongitudeDegrees>
            </Position>
            <AltitudeMeters>278.399993896484375</AltitudeMeters>
            <DistanceMeters>313234.37593014</DistanceMeters>
          </Trackpoint>
          <Trackpoint>
            <Time>2018-09-14T15:13:57.000Z</Time>
            <Position>
              <LatitudeDegrees>37.56260043941438198089599609375</LatitudeDegrees>
              <LongitudeDegrees>-8.07303414680063724517822265625</LongitudeDegrees>
            </Position>
            <AltitudeMeters>278.399993896484375</AltitudeMeters>
            <DistanceMeters>313240.64985261</DistanceMeters>
          </Trackpoint>
          <Trackpoint>
            <Time>2018-09-14T15:13:58.000Z</Time>
            <Position>
              <LatitudeDegrees>37.56254562176764011383056640625</LatitudeDegrees>
              <LongitudeDegrees>-8.07301998138427734375</LongitudeDegrees>
            </Position>
            <AltitudeMeters>278.399993896484375</AltitudeMeters>
            <DistanceMeters>313246.87827203</DistanceMeters>
          </Trackpoint>
          <Trackpoint>
            <Time>2018-09-14T15:13:59.000Z</Time>
            <Position>
              <LatitudeDegrees>37.5624903850257396697998046875</LatitudeDegrees>
              <LongitudeDegrees>-8.073006905615329742431640625</LongitudeDegrees>
            </Position>
            <AltitudeMeters>278.600006103515625</AltitudeMeters>
            <DistanceMeters>313253.13417734</DistanceMeters>
          </Trackpoint>
          <Trackpoint>
            <Time>2018-09-14T15:14:00.000Z</Time>
            <Position>
              <LatitudeDegrees>37.5624353997409343719482421875</LatitudeDegrees>
              <LongitudeDegrees>-8.07299408130347728729248046875</LongitudeDegrees>
            </Position>
            <AltitudeMeters>278.600006103515625</AltitudeMeters>
            <DistanceMeters>313259.35824578</DistanceMeters>
          </Trackpoint>
          <Trackpoint>
            <Time>2018-09-14T15:14:01.000Z</Time>
            <Position>
              <LatitudeDegrees>37.562380246818065643310546875</LatitudeDegrees>
              <LongitudeDegrees>-8.072980754077434539794921875</LongitudeDegrees>
            </Position>
            <AltitudeMeters>278.79998779296875</AltitudeMeters>
            <DistanceMeters>313265.60837464</DistanceMeters>
          </Trackpoint>
          <Trackpoint>
            <Time>2018-09-14T15:14:02.000Z</Time>
            <Position>
              <LatitudeDegrees>37.56232534535229206085205078125</LatitudeDegrees>
              <LongitudeDegrees>-8.0729676783084869384765625</LongitudeDegrees>
            </Position>
            <AltitudeMeters>278.79998779296875</AltitudeMeters>
            <DistanceMeters>313271.82736309</DistanceMeters>
          </Trackpoint>
          <Trackpoint>
            <Time>2018-09-14T15:14:03.000Z</Time>
            <Position>
              <LatitudeDegrees>37.562270946800708770751953125</LatitudeDegrees>
              <LongitudeDegrees>-8.0729547701776027679443359375</LongitudeDegrees>
            </Position>
            <AltitudeMeters>278.79998779296875</AltitudeMeters>
            <DistanceMeters>313277.98872993</DistanceMeters>
          </Trackpoint>
          <Trackpoint>
            <Time>2018-09-14T15:14:04.000Z</Time>
            <Position>
              <LatitudeDegrees>37.56221671588718891143798828125</LatitudeDegrees>
              <LongitudeDegrees>-8.07294228114187717437744140625</LongitudeDegrees>
            </Position>
            <AltitudeMeters>279</AltitudeMeters>
            <DistanceMeters>313284.12365932</DistanceMeters>
          </Trackpoint>
          <Trackpoint>
            <Time>2018-09-14T15:14:05.000Z</Time>
            <Position>
              <LatitudeDegrees>37.56216265261173248291015625</LatitudeDegrees>
              <LongitudeDegrees>-8.07292970828711986541748046875</LongitudeDegrees>
            </Position>
            <AltitudeMeters>279</AltitudeMeters>
            <DistanceMeters>313290.24163831</DistanceMeters>
          </Trackpoint>
          <Trackpoint>
            <Time>2018-09-14T15:14:06.000Z</Time>
            <Position>
              <LatitudeDegrees>37.5621088407933712005615234375</LatitudeDegrees>
              <LongitudeDegrees>-8.07291612960398197174072265625</LongitudeDegrees>
            </Position>
            <AltitudeMeters>279</AltitudeMeters>
            <DistanceMeters>313296.35001582</DistanceMeters>
          </Trackpoint>
          <Trackpoint>
            <Time>2018-09-14T15:14:07.000Z</Time>
            <Position>
              <LatitudeDegrees>37.56205511279404163360595703125</LatitudeDegrees>
              <LongitudeDegrees>-8.07290271855890750885009765625</LongitudeDegrees>
            </Position>
            <AltitudeMeters>279</AltitudeMeters>
            <DistanceMeters>313302.44655539</DistanceMeters>
          </Trackpoint>
          <Trackpoint>
            <Time>2018-09-14T15:14:08.000Z</Time>
            <Position>
              <LatitudeDegrees>37.56200079806149005889892578125</LatitudeDegrees>
              <LongitudeDegrees>-8.07288981042802333831787109375</LongitudeDegrees>
            </Position>
            <AltitudeMeters>279</AltitudeMeters>
            <DistanceMeters>313308.59838848</DistanceMeters>
          </Trackpoint>
          <Trackpoint>
            <Time>2018-09-14T15:14:09.000Z</Time>
            <Position>
              <LatitudeDegrees>37.56194648332893848419189453125</LatitudeDegrees>
              <LongitudeDegrees>-8.07287706993520259857177734375</LongitudeDegrees>
            </Position>
            <AltitudeMeters>279</AltitudeMeters>
            <DistanceMeters>313314.74801937</DistanceMeters>
          </Trackpoint>
          <Trackpoint>
            <Time>2018-09-14T15:14:10.000Z</Time>
            <Position>
              <LatitudeDegrees>37.56189183332026004791259765625</LatitudeDegrees>
              <LongitudeDegrees>-8.07286382652819156646728515625</LongitudeDegrees>
            </Position>
            <AltitudeMeters>279</AltitudeMeters>
            <DistanceMeters>313320.94154541</DistanceMeters>
          </Trackpoint>
          <Trackpoint>
            <Time>2018-09-14T15:14:11.000Z</Time>
            <Position>
              <LatitudeDegrees>37.56183668039739131927490234375</LatitudeDegrees>
              <LongitudeDegrees>-8.072849996387958526611328125</LongitudeDegrees>
            </Position>
            <AltitudeMeters>279</AltitudeMeters>
            <DistanceMeters>313327.20033695</DistanceMeters>
          </Trackpoint>
          <Trackpoint>
            <Time>2018-09-14T15:14:12.000Z</Time>
            <Position>
              <LatitudeDegrees>37.56178119219839572906494140625</LatitudeDegrees>
              <LongitudeDegrees>-8.0728364177048206329345703125</LongitudeDegrees>
            </Position>
            <AltitudeMeters>279</AltitudeMeters>
            <DistanceMeters>313333.49078964</DistanceMeters>
          </Trackpoint>
          <Trackpoint>
            <Time>2018-09-14T15:14:13.000Z</Time>
            <Position>
              <LatitudeDegrees>37.56172453053295612335205078125</LatitudeDegrees>
              <LongitudeDegrees>-8.07282292284071445465087890625</LongitudeDegrees>
            </Position>
            <AltitudeMeters>279</AltitudeMeters>
            <DistanceMeters>313339.90843552</DistanceMeters>
          </Trackpoint>
          <Trackpoint>
            <Time>2018-09-14T15:14:14.000Z</Time>
            <Position>
              <LatitudeDegrees>37.56166770122945308685302734375</LatitudeDegrees>
              <LongitudeDegrees>-8.0728089250624179840087890625</LongitudeDegrees>
            </Position>
            <AltitudeMeters>279</AltitudeMeters>
            <DistanceMeters>313346.35346086</DistanceMeters>
          </Trackpoint>
          <Trackpoint>
            <Time>2018-09-14T15:14:15.000Z</Time>
            <Position>
              <LatitudeDegrees>37.5616106204688549041748046875</LatitudeDegrees>
              <LongitudeDegrees>-8.07279341854155063629150390625</LongitudeDegrees>
            </Position>
            <AltitudeMeters>279</AltitudeMeters>
            <DistanceMeters>313352.85220439</DistanceMeters>
          </Trackpoint>
          <Trackpoint>
            <Time>2018-09-14T15:14:16.000Z</Time>
            <Position>
              <LatitudeDegrees>37.56155203096568584442138671875</LatitudeDegrees>
              <LongitudeDegrees>-8.07277883403003215789794921875</LongitudeDegrees>
            </Position>
            <AltitudeMeters>278.79998779296875</AltitudeMeters>
            <DistanceMeters>313359.49864208</DistanceMeters>
          </Trackpoint>
          <Trackpoint>
            <Time>2018-09-14T15:14:17.000Z</Time>
            <Position>
              <LatitudeDegrees>37.561491429805755615234375</LatitudeDegrees>
              <LongitudeDegrees>-8.0727650038897991180419921875</LongitudeDegrees>
            </Position>
            <AltitudeMeters>278.79998779296875</AltitudeMeters>
            <DistanceMeters>313366.35243356</DistanceMeters>
          </Trackpoint>
          <Trackpoint>
            <Time>2018-09-14T15:14:18.000Z</Time>
            <Position>
              <LatitudeDegrees>37.56142948754131793975830078125</LatitudeDegrees>
              <LongitudeDegrees>-8.0727499164640903472900390625</LongitudeDegrees>
            </Position>
            <AltitudeMeters>278.79998779296875</AltitudeMeters>
            <DistanceMeters>313373.37348671</DistanceMeters>
          </Trackpoint>
          <Trackpoint>
            <Time>2018-09-14T15:14:19.000Z</Time>
            <Position>
              <LatitudeDegrees>37.56136603653430938720703125</LatitudeDegrees>
              <LongitudeDegrees>-8.07273457758128643035888671875</LongitudeDegrees>
            </Position>
            <AltitudeMeters>278.79998779296875</AltitudeMeters>
            <DistanceMeters>313380.56544596</DistanceMeters>
          </Trackpoint>
          <Trackpoint>
            <Time>2018-09-14T15:14:20.000Z</Time>
            <Position>
              <LatitudeDegrees>37.5613014958798885345458984375</LatitudeDegrees>
              <LongitudeDegrees>-8.07271890342235565185546875</LongitudeDegrees>
            </Position>
            <AltitudeMeters>278.79998779296875</AltitudeMeters>
            <DistanceMeters>313387.88065157</DistanceMeters>
          </Trackpoint>
          <Trackpoint>
            <Time>2018-09-14T15:14:21.000Z</Time>
            <Position>
              <LatitudeDegrees>37.56123586557805538177490234375</LatitudeDegrees>
              <LongitudeDegrees>-8.07270322926342487335205078125</LongitudeDegrees>
            </Position>
            <AltitudeMeters>279</AltitudeMeters>
            <DistanceMeters>313395.31584679</DistanceMeters>
          </Trackpoint>
          <Trackpoint>
            <Time>2018-09-14T15:14:22.000Z</Time>
            <Position>
              <LatitudeDegrees>37.56116998381912708282470703125</LatitudeDegrees>
              <LongitudeDegrees>-8.07268805801868438720703125</LongitudeDegrees>
            </Position>
            <AltitudeMeters>279</AltitudeMeters>
            <DistanceMeters>313402.77044875</DistanceMeters>
          </Trackpoint>
          <Trackpoint>
            <Time>2018-09-14T15:14:23.000Z</Time>
            <Position>
              <LatitudeDegrees>37.56110393442213535308837890625</LatitudeDegrees>
              <LongitudeDegrees>-8.07267271913588047027587890625</LongitudeDegrees>
            </Position>
            <AltitudeMeters>279</AltitudeMeters>
            <DistanceMeters>313410.24561517</DistanceMeters>
          </Trackpoint>
          <Trackpoint>
            <Time>2018-09-14T15:14:24.000Z</Time>
            <Position>
              <LatitudeDegrees>37.56103813648223876953125</LatitudeDegrees>
              <LongitudeDegrees>-8.07265662588179111480712890625</LongitudeDegrees>
            </Position>
            <AltitudeMeters>279</AltitudeMeters>
            <DistanceMeters>313417.70506093</DistanceMeters>
          </Trackpoint>
          <Trackpoint>
            <Time>2018-09-14T15:14:25.000Z</Time>
            <Position>
              <LatitudeDegrees>37.56097284145653247833251953125</LatitudeDegrees>
              <LongitudeDegrees>-8.0726396106183528900146484375</LongitudeDegrees>
            </Position>
            <AltitudeMeters>279</AltitudeMeters>
            <DistanceMeters>313425.12566779</DistanceMeters>
          </Trackpoint>
          <Trackpoint>
            <Time>2018-09-14T15:14:26.000Z</Time>
            <Position>
              <LatitudeDegrees>37.56090779788792133331298828125</LatitudeDegrees>
              <LongitudeDegrees>-8.07262226007878780364990234375</LongitudeDegrees>
            </Position>
            <AltitudeMeters>279</AltitudeMeters>
            <DistanceMeters>313432.52555857</DistanceMeters>
          </Trackpoint>
          <Trackpoint>
            <Time>2018-09-14T15:14:27.000Z</Time>
            <Position>
              <LatitudeDegrees>37.56084292195737361907958984375</LatitudeDegrees>
              <LongitudeDegrees>-8.0726034007966518402099609375</LongitudeDegrees>
            </Position>
            <AltitudeMeters>279</AltitudeMeters>
            <DistanceMeters>313439.9364239</DistanceMeters>
          </Trackpoint>
          <Trackpoint>
            <Time>2018-09-14T15:14:28.000Z</Time>
            <Position>
              <LatitudeDegrees>37.56077821366488933563232421875</LatitudeDegrees>
              <LongitudeDegrees>-8.07258588261902332305908203125</LongitudeDegrees>
            </Position>
            <AltitudeMeters>279</AltitudeMeters>
            <DistanceMeters>313447.30329294</DistanceMeters>
          </Trackpoint>
          <Trackpoint>
            <Time>2018-09-14T15:14:29.000Z</Time>
            <Position>
              <LatitudeDegrees>37.56071400828659534454345703125</LatitudeDegrees>
              <LongitudeDegrees>-8.0725688673555850982666015625</LongitudeDegrees>
            </Position>
            <AltitudeMeters>278.79998779296875</AltitudeMeters>
            <DistanceMeters>313454.60490724</DistanceMeters>
          </Trackpoint>
          <Trackpoint>
            <Time>2018-09-14T15:14:30.000Z</Time>
            <Position>
              <LatitudeDegrees>37.56065047346055507659912109375</LatitudeDegrees>
              <LongitudeDegrees>-8.07255201973021030426025390625</LongitudeDegrees>
            </Position>
            <AltitudeMeters>278.79998779296875</AltitudeMeters>
            <DistanceMeters>313461.83068761</DistanceMeters>
          </Trackpoint>
          <Trackpoint>
            <Time>2018-09-14T15:14:31.000Z</Time>
            <Position>
              <LatitudeDegrees>37.56058710627257823944091796875</LatitudeDegrees>
              <LongitudeDegrees>-8.0725370161235332489013671875</LongitudeDegrees>
            </Position>
            <AltitudeMeters>278.600006103515625</AltitudeMeters>
            <DistanceMeters>313469.00630576</DistanceMeters>
          </Trackpoint>
          <Trackpoint>
            <Time>2018-09-14T15:14:32.000Z</Time>
            <Position>
              <LatitudeDegrees>37.5605236552655696868896484375</LatitudeDegrees>
              <LongitudeDegrees>-8.0725236050784587860107421875</LongitudeDegrees>
            </Position>
            <AltitudeMeters>278.600006103515625</AltitudeMeters>
            <DistanceMeters>313476.16680673</DistanceMeters>
          </Trackpoint>
          <Trackpoint>
            <Time>2018-09-14T15:14:33.000Z</Time>
            <Position>
              <LatitudeDegrees>37.56045944988727569580078125</LatitudeDegrees>
              <LongitudeDegrees>-8.07251061312854290008544921875</LongitudeDegrees>
            </Position>
            <AltitudeMeters>278.399993896484375</AltitudeMeters>
            <DistanceMeters>313483.40382568</DistanceMeters>
          </Trackpoint>
          <Trackpoint>
            <Time>2018-09-14T15:14:34.000Z</Time>
            <Position>
              <LatitudeDegrees>37.560394071042537689208984375</LatitudeDegrees>
              <LongitudeDegrees>-8.07249720208346843719482421875</LongitudeDegrees>
            </Position>
            <AltitudeMeters>278.399993896484375</AltitudeMeters>
            <DistanceMeters>313490.77682102</DistanceMeters>
          </Trackpoint>
          <Trackpoint>
            <Time>2018-09-14T15:14:35.000Z</Time>
            <Position>
              <LatitudeDegrees>37.56032642908394336700439453125</LatitudeDegrees>
              <LongitudeDegrees>-8.07248312048614025115966796875</LongitudeDegrees>
            </Position>
            <AltitudeMeters>278.20001220703125</AltitudeMeters>
            <DistanceMeters>313498.40741293</DistanceMeters>
          </Trackpoint>
          <Trackpoint>
            <Time>2018-09-14T15:14:36.000Z</Time>
            <Position>
              <LatitudeDegrees>37.560257278382778167724609375</LatitudeDegrees>
              <LongitudeDegrees>-8.072467781603336334228515625</LongitudeDegrees>
            </Position>
            <AltitudeMeters>278.20001220703125</AltitudeMeters>
            <DistanceMeters>313506.22216865</DistanceMeters>
          </Trackpoint>
          <Trackpoint>
            <Time>2018-09-14T15:14:37.000Z</Time>
            <Position>
              <LatitudeDegrees>37.56018678657710552215576171875</LatitudeDegrees>
              <LongitudeDegrees>-8.0724525265395641326904296875</LongitudeDegrees>
            </Position>
            <AltitudeMeters>278</AltitudeMeters>
            <DistanceMeters>313514.18232232</DistanceMeters>
          </Trackpoint>
          <Trackpoint>
            <Time>2018-09-14T15:14:38.000Z</Time>
            <Position>
              <LatitudeDegrees>37.56011587567627429962158203125</LatitudeDegrees>
              <LongitudeDegrees>-8.0724366009235382080078125</LongitudeDegrees>
            </Position>
            <AltitudeMeters>277.79998779296875</AltitudeMeters>
            <DistanceMeters>313522.19955901</DistanceMeters>
          </Trackpoint>
          <Trackpoint>
            <Time>2018-09-14T15:14:39.000Z</Time>
            <Position>
              <LatitudeDegrees>37.5600443780422210693359375</LatitudeDegrees>
              <LongitudeDegrees>-8.0724193342030048370361328125</LongitudeDegrees>
            </Position>
            <AltitudeMeters>277.600006103515625</AltitudeMeters>
            <DistanceMeters>313530.30194481</DistanceMeters>
          </Trackpoint>
          <Trackpoint>
            <Time>2018-09-14T15:14:40.000Z</Time>
            <Position>
              <LatitudeDegrees>37.55997262895107269287109375</LatitudeDegrees>
              <LongitudeDegrees>-8.072401396930217742919921875</LongitudeDegrees>
            </Position>
            <AltitudeMeters>277.600006103515625</AltitudeMeters>
            <DistanceMeters>313538.44268993</DistanceMeters>
          </Trackpoint>
          <Trackpoint>
            <Time>2018-09-14T15:14:41.000Z</Time>
            <Position>
              <LatitudeDegrees>37.55990087985992431640625</LatitudeDegrees>
              <LongitudeDegrees>-8.0723837949335575103759765625</LongitudeDegrees>
            </Position>
            <AltitudeMeters>277.600006103515625</AltitudeMeters>
            <DistanceMeters>313546.57788693</DistanceMeters>
          </Trackpoint>
          <Trackpoint>
            <Time>2018-09-14T15:14:42.000Z</Time>
            <Position>
              <LatitudeDegrees>37.55982887931168079376220703125</LatitudeDegrees>
              <LongitudeDegrees>-8.0723660252988338470458984375</LongitudeDegrees>
            </Position>
            <AltitudeMeters>277.600006103515625</AltitudeMeters>
            <DistanceMeters>313554.7435519</DistanceMeters>
          </Trackpoint>
          <Trackpoint>
            <Time>2018-09-14T15:14:43.000Z</Time>
            <Position>
              <LatitudeDegrees>37.55975746549665927886962890625</LatitudeDegrees>
              <LongitudeDegrees>-8.07234741747379302978515625</LongitudeDegrees>
            </Position>
            <AltitudeMeters>277.79998779296875</AltitudeMeters>
            <DistanceMeters>313562.85930064</DistanceMeters>
          </Trackpoint>
          <Trackpoint>
            <Time>2018-09-14T15:14:44.000Z</Time>
            <Position>
              <LatitudeDegrees>37.5596864707767963409423828125</LatitudeDegrees>
              <LongitudeDegrees>-8.072328977286815643310546875</LongitudeDegrees>
            </Position>
            <AltitudeMeters>277.79998779296875</AltitudeMeters>
            <DistanceMeters>313570.92706309</DistanceMeters>
          </Trackpoint>
          <Trackpoint>
            <Time>2018-09-14T15:14:45.000Z</Time>
            <Position>
              <LatitudeDegrees>37.55961581133306026458740234375</LatitudeDegrees>
              <LongitudeDegrees>-8.07231045328080654144287109375</LongitudeDegrees>
            </Position>
            <AltitudeMeters>277.79998779296875</AltitudeMeters>
            <DistanceMeters>313578.96005296</DistanceMeters>
          </Trackpoint>
          <Trackpoint>
            <Time>2018-09-14T15:14:46.000Z</Time>
            <Position>
              <LatitudeDegrees>37.55954473279416561126708984375</LatitudeDegrees>
              <LongitudeDegrees>-8.0722922645509243011474609375</LongitudeDegrees>
            </Position>
            <AltitudeMeters>277.79998779296875</AltitudeMeters>
            <DistanceMeters>313587.0328506</DistanceMeters>
          </Trackpoint>
          <Trackpoint>
            <Time>2018-09-14T15:14:47.000Z</Time>
            <Position>
              <LatitudeDegrees>37.55947298370301723480224609375</LatitudeDegrees>
              <LongitudeDegrees>-8.07227508164942264556884765625</LongitudeDegrees>
            </Position>
            <AltitudeMeters>277.79998779296875</AltitudeMeters>
            <DistanceMeters>313595.16194031</DistanceMeters>
          </Trackpoint>
          <Trackpoint>
            <Time>2018-09-14T15:14:48.000Z</Time>
            <Position>
              <LatitudeDegrees>37.55940073169767856597900390625</LatitudeDegrees>
              <LongitudeDegrees>-8.07225865311920642852783203125</LongitudeDegrees>
            </Position>
            <AltitudeMeters>277.600006103515625</AltitudeMeters>
            <DistanceMeters>313603.33368524</DistanceMeters>
          </Trackpoint>
          <Trackpoint>
            <Time>2018-09-14T15:14:49.000Z</Time>
            <Position>
              <LatitudeDegrees>37.5593280605971813201904296875</LatitudeDegrees>
              <LongitudeDegrees>-8.07224289514124393463134765625</LongitudeDegrees>
            </Position>
            <AltitudeMeters>277.20001220703125</AltitudeMeters>
            <DistanceMeters>313611.54016501</DistanceMeters>
          </Trackpoint>
          <Trackpoint>
            <Time>2018-09-14T15:14:50.000Z</Time>
            <Position>
              <LatitudeDegrees>37.55925488658249378204345703125</LatitudeDegrees>
              <LongitudeDegrees>-8.07222713716328144073486328125</LongitudeDegrees>
            </Position>
            <AltitudeMeters>277</AltitudeMeters>
            <DistanceMeters>313619.80257252</DistanceMeters>
          </Trackpoint>
          <Trackpoint>
            <Time>2018-09-14T15:14:51.000Z</Time>
            <Position>
              <LatitudeDegrees>37.5591818802058696746826171875</LatitudeDegrees>
              <LongitudeDegrees>-8.07221054099500179290771484375</LongitudeDegrees>
            </Position>
            <AltitudeMeters>276.79998779296875</AltitudeMeters>
            <DistanceMeters>313628.05951367</DistanceMeters>
          </Trackpoint>
          <Trackpoint>
            <Time>2018-09-14T15:14:52.000Z</Time>
            <Position>
              <LatitudeDegrees>37.5591094605624675750732421875</LatitudeDegrees>
              <LongitudeDegrees>-8.07219411246478557586669921875</LongitudeDegrees>
            </Position>
            <AltitudeMeters>276.600006103515625</AltitudeMeters>
            <DistanceMeters>313636.24947141</DistanceMeters>
          </Trackpoint>
          <Trackpoint>
            <Time>2018-09-14T15:14:53.000Z</Time>
            <Position>
              <LatitudeDegrees>37.55903779529035091400146484375</LatitudeDegrees>
              <LongitudeDegrees>-8.0721776001155376434326171875</LongitudeDegrees>
            </Position>
            <AltitudeMeters>276.399993896484375</AltitudeMeters>
            <DistanceMeters>313644.35854144</DistanceMeters>
          </Trackpoint>
          <Trackpoint>
            <Time>2018-09-14T15:14:54.000Z</Time>
            <Position>
              <LatitudeDegrees>37.558966465294361114501953125</LatitudeDegrees>
              <LongitudeDegrees>-8.072159998118877410888671875</LongitudeDegrees>
            </Position>
            <AltitudeMeters>276.20001220703125</AltitudeMeters>
            <DistanceMeters>313652.4486585</DistanceMeters>
          </Trackpoint>
          <Trackpoint>
            <Time>2018-09-14T15:14:55.000Z</Time>
            <Position>
              <LatitudeDegrees>37.558896727859973907470703125</LatitudeDegrees>
              <LongitudeDegrees>-8.07214088737964630126953125</LongitudeDegrees>
            </Position>
            <AltitudeMeters>276</AltitudeMeters>
            <DistanceMeters>313660.39177779</DistanceMeters>
          </Trackpoint>
          <Trackpoint>
            <Time>2018-09-14T15:14:56.000Z</Time>
            <Position>
              <LatitudeDegrees>37.55882791243493556976318359375</LatitudeDegrees>
              <LongitudeDegrees>-8.07212219573557376861572265625</LongitudeDegrees>
            </Position>
            <AltitudeMeters>275.79998779296875</AltitudeMeters>
            <DistanceMeters>313668.22672895</DistanceMeters>
          </Trackpoint>
          <Trackpoint>
            <Time>2018-09-14T15:14:57.000Z</Time>
            <Position>
              <LatitudeDegrees>37.55875892937183380126953125</LatitudeDegrees>
              <LongitudeDegrees>-8.07210576720535755157470703125</LongitudeDegrees>
            </Position>
            <AltitudeMeters>276</AltitudeMeters>
            <DistanceMeters>313676.04090689</DistanceMeters>
          </Trackpoint>
          <Trackpoint>
            <Time>2018-09-14T15:14:58.000Z</Time>
            <Position>
              <LatitudeDegrees>37.558689527213573455810546875</LatitudeDegrees>
              <LongitudeDegrees>-8.07209067977964878082275390625</LongitudeDegrees>
            </Position>
            <AltitudeMeters>276.600006103515625</AltitudeMeters>
            <DistanceMeters>313683.8793149</DistanceMeters>
          </Trackpoint>
          <Trackpoint>
            <Time>2018-09-14T15:14:59.000Z</Time>
            <Position>
              <LatitudeDegrees>37.558620460331439971923828125</LatitudeDegrees>
              <LongitudeDegrees>-8.0720756761729717254638671875</LongitudeDegrees>
            </Position>
            <AltitudeMeters>277</AltitudeMeters>
            <DistanceMeters>313691.6796133</DistanceMeters>
          </Trackpoint>
          <Trackpoint>
            <Time>2018-09-14T15:15:00.000Z</Time>
            <Position>
              <LatitudeDegrees>37.55855231545865535736083984375</LatitudeDegrees>
              <LongitudeDegrees>-8.0720592476427555084228515625</LongitudeDegrees>
            </Position>
            <AltitudeMeters>277.399993896484375</AltitudeMeters>
            <DistanceMeters>313699.40195911</DistanceMeters>
          </Trackpoint>
          <Trackpoint>
            <Time>2018-09-14T15:15:01.000Z</Time>
            <Position>
              <LatitudeDegrees>37.55848442204296588897705078125</LatitudeDegrees>
              <LongitudeDegrees>-8.0720434896647930145263671875</LongitudeDegrees>
            </Position>
            <AltitudeMeters>277.79998779296875</AltitudeMeters>
            <DistanceMeters>313707.08561968</DistanceMeters>
          </Trackpoint>
          <Trackpoint>
            <Time>2018-09-14T15:15:02.000Z</Time>
            <Position>
              <LatitudeDegrees>37.55841719917953014373779296875</LatitudeDegrees>
              <LongitudeDegrees>-8.072027899324893951416015625</LongitudeDegrees>
            </Position>
            <AltitudeMeters>278.20001220703125</AltitudeMeters>
            <DistanceMeters>313714.69250668</DistanceMeters>
          </Trackpoint>
          <Trackpoint>
            <Time>2018-09-14T15:15:03.000Z</Time>
            <Position>
              <LatitudeDegrees>37.55835047923028469085693359375</LatitudeDegrees>
              <LongitudeDegrees>-8.07201138697564601898193359375</LongitudeDegrees>
            </Position>
            <AltitudeMeters>278.600006103515625</AltitudeMeters>
            <DistanceMeters>313722.26011825</DistanceMeters>
          </Trackpoint>
          <Trackpoint>
            <Time>2018-09-14T15:15:04.000Z</Time>
            <Position>
              <LatitudeDegrees>37.5582843460142612457275390625</LatitudeDegrees>
              <LongitudeDegrees>-8.071995712816715240478515625</LongitudeDegrees>
            </Position>
            <AltitudeMeters>278.79998779296875</AltitudeMeters>
            <DistanceMeters>313729.74976676</DistanceMeters>
          </Trackpoint>
          <Trackpoint>
            <Time>2018-09-14T15:15:05.000Z</Time>
            <Position>
              <LatitudeDegrees>37.55821846425533294677734375</LatitudeDegrees>
              <LongitudeDegrees>-8.0719804577529430389404296875</LongitudeDegrees>
            </Position>
            <AltitudeMeters>279</AltitudeMeters>
            <DistanceMeters>313737.20436873</DistanceMeters>
          </Trackpoint>
          <Trackpoint>
            <Time>2018-09-14T15:15:06.000Z</Time>
            <Position>
              <LatitudeDegrees>37.55815266631543636322021484375</LatitudeDegrees>
              <LongitudeDegrees>-8.0719636939465999603271484375</LongitudeDegrees>
            </Position>
            <AltitudeMeters>279.20001220703125</AltitudeMeters>
            <DistanceMeters>313744.67591024</DistanceMeters>
          </Trackpoint>
          <Trackpoint>
            <Time>2018-09-14T15:15:07.000Z</Time>
            <Position>
              <LatitudeDegrees>37.55808644928038120269775390625</LatitudeDegrees>
              <LongitudeDegrees>-8.071946762502193450927734375</LongitudeDegrees>
            </Position>
            <AltitudeMeters>279.399993896484375</AltitudeMeters>
            <DistanceMeters>313752.1956402</DistanceMeters>
          </Trackpoint>
          <Trackpoint>
            <Time>2018-09-14T15:15:08.000Z</Time>
            <Position>
              <LatitudeDegrees>37.55801989696919918060302734375</LatitudeDegrees>
              <LongitudeDegrees>-8.07193033397197723388671875</LongitudeDegrees>
            </Position>
            <AltitudeMeters>279.399993896484375</AltitudeMeters>
            <DistanceMeters>313759.74413557</DistanceMeters>
          </Trackpoint>
          <Trackpoint>
            <Time>2018-09-14T15:15:09.000Z</Time>
            <Position>
              <LatitudeDegrees>37.557952590286731719970703125</LatitudeDegrees>
              <LongitudeDegrees>-8.0719144083559513092041015625</LongitudeDegrees>
            </Position>
            <AltitudeMeters>279.399993896484375</AltitudeMeters>
            <DistanceMeters>313767.36643915</DistanceMeters>
          </Trackpoint>
          <Trackpoint>
            <Time>2018-09-14T15:15:10.000Z</Time>
            <Position>
              <LatitudeDegrees>37.55788511596620082855224609375</LatitudeDegrees>
              <LongitudeDegrees>-8.0718989856541156768798828125</LongitudeDegrees>
            </Position>
            <AltitudeMeters>279.600006103515625</AltitudeMeters>
            <DistanceMeters>313774.99880596</DistanceMeters>
          </Trackpoint>
          <Trackpoint>
            <Time>2018-09-14T15:15:11.000Z</Time>
            <Position>
              <LatitudeDegrees>37.5578176416456699371337890625</LatitudeDegrees>
              <LongitudeDegrees>-8.07188381440937519073486328125</LongitudeDegrees>
            </Position>
            <AltitudeMeters>279.600006103515625</AltitudeMeters>
            <DistanceMeters>313782.62762256</DistanceMeters>
          </Trackpoint>
          <Trackpoint>
            <Time>2018-09-14T15:15:12.000Z</Time>
            <Position>
              <LatitudeDegrees>37.557750754058361053466796875</LatitudeDegrees>
              <LongitudeDegrees>-8.0718664638698101043701171875</LongitudeDegrees>
            </Position>
            <AltitudeMeters>279.79998779296875</AltitudeMeters>
            <DistanceMeters>313790.22857178</DistanceMeters>
          </Trackpoint>
          <Trackpoint>
            <Time>2018-09-14T15:15:13.000Z</Time>
            <Position>
              <LatitudeDegrees>37.55768411792814731597900390625</LatitudeDegrees>
              <LongitudeDegrees>-8.07184928096830844879150390625</LongitudeDegrees>
            </Position>
            <AltitudeMeters>279.79998779296875</AltitudeMeters>
            <DistanceMeters>313797.79916589</DistanceMeters>
          </Trackpoint>
          <Trackpoint>
            <Time>2018-09-14T15:15:14.000Z</Time>
            <Position>
              <LatitudeDegrees>37.55761773325502872467041015625</LatitudeDegrees>
              <LongitudeDegrees>-8.0718329362571239471435546875</LongitudeDegrees>
            </Position>
            <AltitudeMeters>279.79998779296875</AltitudeMeters>
            <DistanceMeters>313805.32669734</DistanceMeters>
          </Trackpoint>
          <Trackpoint>
            <Time>2018-09-14T15:15:15.000Z</Time>
            <Position>
              <LatitudeDegrees>37.55755185149610042572021484375</LatitudeDegrees>
              <LongitudeDegrees>-8.07181692682206630706787109375</LongitudeDegrees>
            </Position>
            <AltitudeMeters>280</AltitudeMeters>
            <DistanceMeters>313812.7934029</DistanceMeters>
          </Trackpoint>
          <Trackpoint>
            <Time>2018-09-14T15:15:16.000Z</Time>
            <Position>
              <LatitudeDegrees>37.55748714320361614227294921875</LatitudeDegrees>
              <LongitudeDegrees>-8.07180100120604038238525390625</LongitudeDegrees>
            </Position>
            <AltitudeMeters>280</AltitudeMeters>
            <DistanceMeters>313820.13202511</DistanceMeters>
          </Trackpoint>
          <Trackpoint>
            <Time>2018-09-14T15:15:17.000Z</Time>
            <Position>
              <LatitudeDegrees>37.55742327310144901275634765625</LatitudeDegrees>
              <LongitudeDegrees>-8.0717859975993633270263671875</LongitudeDegrees>
            </Position>
            <AltitudeMeters>280</AltitudeMeters>
            <DistanceMeters>313827.36280257</DistanceMeters>
          </Trackpoint>
          <Trackpoint>
            <Time>2018-09-14T15:15:18.000Z</Time>
            <Position>
              <LatitudeDegrees>37.55736015737056732177734375</LatitudeDegrees>
              <LongitudeDegrees>-8.07177250273525714874267578125</LongitudeDegrees>
            </Position>
            <AltitudeMeters>280</AltitudeMeters>
            <DistanceMeters>313834.48790536</DistanceMeters>
          </Trackpoint>
          <Trackpoint>
            <Time>2018-09-14T15:15:19.000Z</Time>
            <Position>
              <LatitudeDegrees>37.5572972930967807769775390625</LatitudeDegrees>
              <LongitudeDegrees>-8.07176001369953155517578125</LongitudeDegrees>
            </Position>
            <AltitudeMeters>280</AltitudeMeters>
            <DistanceMeters>313841.57106177</DistanceMeters>
          </Trackpoint>
          <Trackpoint>
            <Time>2018-09-14T15:15:20.000Z</Time>
            <Position>
              <LatitudeDegrees>37.55723551847040653228759765625</LatitudeDegrees>
              <LongitudeDegrees>-8.07174735702574253082275390625</LongitudeDegrees>
            </Position>
            <AltitudeMeters>280</AltitudeMeters>
            <DistanceMeters>313848.5372394</DistanceMeters>
          </Trackpoint>
          <Trackpoint>
            <Time>2018-09-14T15:15:21.000Z</Time>
            <Position>
              <LatitudeDegrees>37.5571749173104763031005859375</LatitudeDegrees>
              <LongitudeDegrees>-8.07173377834260463714599609375</LongitudeDegrees>
            </Position>
            <AltitudeMeters>280</AltitudeMeters>
            <DistanceMeters>313855.38839531</DistanceMeters>
          </Trackpoint>
          <Trackpoint>
            <Time>2018-09-14T15:15:22.000Z</Time>
            <Position>
              <LatitudeDegrees>37.557115070521831512451171875</LatitudeDegrees>
              <LongitudeDegrees>-8.07171978056430816650390625</LongitudeDegrees>
            </Position>
            <AltitudeMeters>280</AltitudeMeters>
            <DistanceMeters>313862.16334023</DistanceMeters>
          </Trackpoint>
          <Trackpoint>
            <Time>2018-09-14T15:15:23.000Z</Time>
            <Position>
              <LatitudeDegrees>37.5570562295615673065185546875</LatitudeDegrees>
              <LongitudeDegrees>-8.0717058666050434112548828125</LongitudeDegrees>
            </Position>
            <AltitudeMeters>280</AltitudeMeters>
            <DistanceMeters>313868.82741675</DistanceMeters>
          </Trackpoint>
          <Trackpoint>
            <Time>2018-09-14T15:15:24.000Z</Time>
            <Position>
              <LatitudeDegrees>37.55699805915355682373046875</LatitudeDegrees>
              <LongitudeDegrees>-8.07169220410287380218505859375</LongitudeDegrees>
            </Position>
            <AltitudeMeters>280</AltitudeMeters>
            <DistanceMeters>313875.41311771</DistanceMeters>
          </Trackpoint>
          <Trackpoint>
            <Time>2018-09-14T15:15:25.000Z</Time>
            <Position>
              <LatitudeDegrees>37.5569408945739269256591796875</LatitudeDegrees>
              <LongitudeDegrees>-8.07167795486748218536376953125</LongitudeDegrees>
            </Position>
            <AltitudeMeters>279.79998779296875</AltitudeMeters>
            <DistanceMeters>313881.89795125</DistanceMeters>
          </Trackpoint>
          <Trackpoint>
            <Time>2018-09-14T15:15:26.000Z</Time>
            <Position>
              <LatitudeDegrees>37.55688406527042388916015625</LatitudeDegrees>
              <LongitudeDegrees>-8.07166370563209056854248046875</LongitudeDegrees>
            </Position>
            <AltitudeMeters>279.79998779296875</AltitudeMeters>
            <DistanceMeters>313888.3471785</DistanceMeters>
          </Trackpoint>
          <Trackpoint>
            <Time>2018-09-14T15:15:27.000Z</Time>
            <Position>
              <LatitudeDegrees>37.5568269006907939910888671875</LatitudeDegrees>
              <LongitudeDegrees>-8.07165079750120639801025390625</LongitudeDegrees>
            </Position>
            <AltitudeMeters>279.79998779296875</AltitudeMeters>
            <DistanceMeters>313894.81109091</DistanceMeters>
          </Trackpoint>
          <Trackpoint>
            <Time>2018-09-14T15:15:28.000Z</Time>
            <Position>
              <LatitudeDegrees>37.556769065558910369873046875</LatitudeDegrees>
              <LongitudeDegrees>-8.0716384761035442352294921875</LongitudeDegrees>
            </Position>
            <AltitudeMeters>279.79998779296875</AltitudeMeters>
            <DistanceMeters>313901.33964059</DistanceMeters>
          </Trackpoint>
          <Trackpoint>
            <Time>2018-09-14T15:15:29.000Z</Time>
            <Position>
              <LatitudeDegrees>37.55671064369380474090576171875</LatitudeDegrees>
              <LongitudeDegrees>-8.07162615470588207244873046875</LongitudeDegrees>
            </Position>
            <AltitudeMeters>279.79998779296875</AltitudeMeters>
            <DistanceMeters>313907.93287864</DistanceMeters>
          </Trackpoint>
          <Trackpoint>
            <Time>2018-09-14T15:15:30.000Z</Time>
            <Position>
              <LatitudeDegrees>37.55665096454322338104248046875</LatitudeDegrees>
              <LongitudeDegrees>-8.0716136656701564788818359375</LongitudeDegrees>
            </Position>
            <AltitudeMeters>279.79998779296875</AltitudeMeters>
            <DistanceMeters>313914.66570744</DistanceMeters>
          </Trackpoint>
          <Trackpoint>
            <Time>2018-09-14T15:15:31.000Z</Time>
            <Position>
              <LatitudeDegrees>37.55659095011651515960693359375</LatitudeDegrees>
              <LongitudeDegrees>-8.07160134427249431610107421875</LongitudeDegrees>
            </Position>
            <AltitudeMeters>280</AltitudeMeters>
            <DistanceMeters>313921.43331764</DistanceMeters>
          </Trackpoint>
          <Trackpoint>
            <Time>2018-09-14T15:15:32.000Z</Time>
            <Position>
              <LatitudeDegrees>37.5565301813185214996337890625</LatitudeDegrees>
              <LongitudeDegrees>-8.07158810086548328399658203125</LongitudeDegrees>
            </Position>
            <AltitudeMeters>280</AltitudeMeters>
            <DistanceMeters>313928.29632563</DistanceMeters>
          </Trackpoint>
          <Trackpoint>
            <Time>2018-09-14T15:15:33.000Z</Time>
            <Position>
              <LatitudeDegrees>37.55646941252052783966064453125</LatitudeDegrees>
              <LongitudeDegrees>-8.071573935449123382568359375</LongitudeDegrees>
            </Position>
            <AltitudeMeters>280</AltitudeMeters>
            <DistanceMeters>313935.17510463</DistanceMeters>
          </Trackpoint>
          <Trackpoint>
            <Time>2018-09-14T15:15:34.000Z</Time>
            <Position>
              <LatitudeDegrees>37.5564086437225341796875</LatitudeDegrees>
              <LongitudeDegrees>-8.0715595185756683349609375</LongitudeDegrees>
            </Position>
            <AltitudeMeters>280</AltitudeMeters>
            <DistanceMeters>313942.05782074</DistanceMeters>
          </Trackpoint>
          <Trackpoint>
            <Time>2018-09-14T15:15:35.000Z</Time>
            <Position>
              <LatitudeDegrees>37.5563477911055088043212890625</LatitudeDegrees>
              <LongitudeDegrees>-8.07154619134962558746337890625</LongitudeDegrees>
            </Position>
            <AltitudeMeters>280.20001220703125</AltitudeMeters>
            <DistanceMeters>313948.93134676</DistanceMeters>
          </Trackpoint>
          <Trackpoint>
            <Time>2018-09-14T15:15:36.000Z</Time>
            <Position>
              <LatitudeDegrees>37.5562874414026737213134765625</LatitudeDegrees>
              <LongitudeDegrees>-8.07153261266648769378662109375</LongitudeDegrees>
            </Position>
            <AltitudeMeters>280.20001220703125</AltitudeMeters>
            <DistanceMeters>313955.75476776</DistanceMeters>
          </Trackpoint>
          <Trackpoint>
            <Time>2018-09-14T15:15:37.000Z</Time>
            <Position>
              <LatitudeDegrees>37.55622692406177520751953125</LatitudeDegrees>
              <LongitudeDegrees>-8.07151769287884235382080078125</LongitudeDegrees>
            </Position>
            <AltitudeMeters>280.20001220703125</AltitudeMeters>
            <DistanceMeters>313962.61777576</DistanceMeters>
          </Trackpoint>
          <Trackpoint>
            <Time>2018-09-14T15:15:38.000Z</Time>
            <Position>
              <LatitudeDegrees>37.55616632290184497833251953125</LatitudeDegrees>
              <LongitudeDegrees>-8.0715030245482921600341796875</LongitudeDegrees>
            </Position>
            <AltitudeMeters>280.399993896484375</AltitudeMeters>
            <DistanceMeters>313969.4847299</DistanceMeters>
          </Trackpoint>
          <Trackpoint>
            <Time>2018-09-14T15:15:39.000Z</Time>
            <Position>
              <LatitudeDegrees>37.55610463209450244903564453125</LatitudeDegrees>
              <LongitudeDegrees>-8.071487434208393096923828125</LongitudeDegrees>
            </Position>
            <AltitudeMeters>280.399993896484375</AltitudeMeters>
            <DistanceMeters>313976.48710914</DistanceMeters>
          </Trackpoint>
          <Trackpoint>
            <Time>2018-09-14T15:15:40.000Z</Time>
            <Position>
              <LatitudeDegrees>37.55604327656328678131103515625</LatitudeDegrees>
              <LongitudeDegrees>-8.0714721791446208953857421875</LongitudeDegrees>
            </Position>
            <AltitudeMeters>280</AltitudeMeters>
            <DistanceMeters>313983.44680239</DistanceMeters>
          </Trackpoint>
          <Trackpoint>
            <Time>2018-09-14T15:15:41.000Z</Time>
            <Position>
              <LatitudeDegrees>37.55598007701337337493896484375</LatitudeDegrees>
              <LongitudeDegrees>-8.071455918252468109130859375</LongitudeDegrees>
            </Position>
            <AltitudeMeters>279.79998779296875</AltitudeMeters>
            <DistanceMeters>313990.62556595</DistanceMeters>
          </Trackpoint>
          <Trackpoint>
            <Time>2018-09-14T15:15:42.000Z</Time>
            <Position>
              <LatitudeDegrees>37.5559156201779842376708984375</LatitudeDegrees>
              <LongitudeDegrees>-8.07143957354128360748291015625</LongitudeDegrees>
            </Position>
            <AltitudeMeters>279.600006103515625</AltitudeMeters>
            <DistanceMeters>313997.94323999</DistanceMeters>
          </Trackpoint>
          <Trackpoint>
            <Time>2018-09-14T15:15:43.000Z</Time>
            <Position>
              <LatitudeDegrees>37.55585099570453166961669921875</LatitudeDegrees>
              <LongitudeDegrees>-8.0714222230017185211181640625</LongitudeDegrees>
            </Position>
            <AltitudeMeters>279.399993896484375</AltitudeMeters>
            <DistanceMeters>314005.29784112</DistanceMeters>
          </Trackpoint>
          <Trackpoint>
            <Time>2018-09-14T15:15:44.000Z</Time>
            <Position>
              <LatitudeDegrees>37.5557862035930156707763671875</LatitudeDegrees>
              <LongitudeDegrees>-8.07140596210956573486328125</LongitudeDegrees>
            </Position>
            <AltitudeMeters>279.20001220703125</AltitudeMeters>
            <DistanceMeters>314012.65121435</DistanceMeters>
          </Trackpoint>
          <Trackpoint>
            <Time>2018-09-14T15:15:45.000Z</Time>
            <Position>
              <LatitudeDegrees>37.55572141148149967193603515625</LatitudeDegrees>
              <LongitudeDegrees>-8.071390204131603240966796875</LongitudeDegrees>
            </Position>
            <AltitudeMeters>279</AltitudeMeters>
            <DistanceMeters>314019.99475685</DistanceMeters>
          </Trackpoint>
          <Trackpoint>
            <Time>2018-09-14T15:15:46.000Z</Time>
            <Position>
              <LatitudeDegrees>37.5556562840938568115234375</LatitudeDegrees>
              <LongitudeDegrees>-8.07137436233460903167724609375</LongitudeDegrees>
            </Position>
            <AltitudeMeters>278.600006103515625</AltitudeMeters>
            <DistanceMeters>314027.37632046</DistanceMeters>
          </Trackpoint>
          <Trackpoint>
            <Time>2018-09-14T15:15:47.000Z</Time>
            <Position>
              <LatitudeDegrees>37.55559082143008708953857421875</LatitudeDegrees>
              <LongitudeDegrees>-8.07135927490890026092529296875</LongitudeDegrees>
            </Position>
            <AltitudeMeters>278.399993896484375</AltitudeMeters>
            <DistanceMeters>314034.78352941</DistanceMeters>
          </Trackpoint>
          <Trackpoint>
            <Time>2018-09-14T15:15:48.000Z</Time>
            <Position>
              <LatitudeDegrees>37.55552460439503192901611328125</LatitudeDegrees>
              <LongitudeDegrees>-8.071344606578350067138671875</LongitudeDegrees>
            </Position>
            <AltitudeMeters>278.20001220703125</AltitudeMeters>
            <DistanceMeters>314042.26594038</DistanceMeters>
          </Trackpoint>
          <Trackpoint>
            <Time>2018-09-14T15:15:49.000Z</Time>
            <Position>
              <LatitudeDegrees>37.555458135902881622314453125</LatitudeDegrees>
              <LongitudeDegrees>-8.07132951915264129638671875</LongitudeDegrees>
            </Position>
            <AltitudeMeters>278</AltitudeMeters>
            <DistanceMeters>314049.78326826</DistanceMeters>
          </Trackpoint>
          <Trackpoint>
            <Time>2018-09-14T15:15:50.000Z</Time>
            <Position>
              <LatitudeDegrees>37.55539141595363616943359375</LatitudeDegrees>
              <LongitudeDegrees>-8.07131317444145679473876953125</LongitudeDegrees>
            </Position>
            <AltitudeMeters>278</AltitudeMeters>
            <DistanceMeters>314057.3478961</DistanceMeters>
          </Trackpoint>
          <Trackpoint>
            <Time>2018-09-14T15:15:51.000Z</Time>
            <Position>
              <LatitudeDegrees>37.55532427690923213958740234375</LatitudeDegrees>
              <LongitudeDegrees>-8.07129657827317714691162109375</LongitudeDegrees>
            </Position>
            <AltitudeMeters>278.20001220703125</AltitudeMeters>
            <DistanceMeters>314064.96308822</DistanceMeters>
          </Trackpoint>
          <Trackpoint>
            <Time>2018-09-14T15:15:52.000Z</Time>
            <Position>
              <LatitudeDegrees>37.55525755695998668670654296875</LatitudeDegrees>
              <LongitudeDegrees>-8.0712804012000560760498046875</LongitudeDegrees>
            </Position>
            <AltitudeMeters>278.399993896484375</AltitudeMeters>
            <DistanceMeters>314072.52532824</DistanceMeters>
          </Trackpoint>
          <Trackpoint>
            <Time>2018-09-14T15:15:53.000Z</Time>
            <Position>
              <LatitudeDegrees>37.55519100464880466461181640625</LatitudeDegrees>
              <LongitudeDegrees>-8.0712643079459667205810546875</LongitudeDegrees>
            </Position>
            <AltitudeMeters>278.600006103515625</AltitudeMeters>
            <DistanceMeters>314080.06664254</DistanceMeters>
          </Trackpoint>
          <Trackpoint>
            <Time>2018-09-14T15:15:54.000Z</Time>
            <Position>
              <LatitudeDegrees>37.55512428469955921173095703125</LatitudeDegrees>
              <LongitudeDegrees>-8.07124863378703594207763671875</LongitudeDegrees>
            </Position>
            <AltitudeMeters>278.79998779296875</AltitudeMeters>
            <DistanceMeters>314087.62051923</DistanceMeters>
          </Trackpoint>
          <Trackpoint>
            <Time>2018-09-14T15:15:55.000Z</Time>
            <Position>
              <LatitudeDegrees>37.5550581514835357666015625</LatitudeDegrees>
              <LongitudeDegrees>-8.0712324567139148712158203125</LongitudeDegrees>
            </Position>
            <AltitudeMeters>278.79998779296875</AltitudeMeters>
            <DistanceMeters>314095.11860272</DistanceMeters>
          </Trackpoint>
          <Trackpoint>
            <Time>2018-09-14T15:15:56.000Z</Time>
            <Position>
              <LatitudeDegrees>37.55499134771525859832763671875</LatitudeDegrees>
              <LongitudeDegrees>-8.0712161958217620849609375</LongitudeDegrees>
            </Position>
            <AltitudeMeters>279</AltitudeMeters>
            <DistanceMeters>314102.69158202</DistanceMeters>
          </Trackpoint>
          <Trackpoint>
            <Time>2018-09-14T15:15:57.000Z</Time>
            <Position>
              <LatitudeDegrees>37.5549245439469814300537109375</LatitudeDegrees>
              <LongitudeDegrees>-8.0711995996534824371337890625</LongitudeDegrees>
            </Position>
            <AltitudeMeters>279</AltitudeMeters>
            <DistanceMeters>314110.27052101</DistanceMeters>
          </Trackpoint>
          <Trackpoint>
            <Time>2018-09-14T15:15:58.000Z</Time>
            <Position>
              <LatitudeDegrees>37.554857321083545684814453125</LatitudeDegrees>
              <LongitudeDegrees>-8.07118359021842479705810546875</LongitudeDegrees>
            </Position>
            <AltitudeMeters>279</AltitudeMeters>
            <DistanceMeters>314117.88452723</DistanceMeters>
          </Trackpoint>
          <Trackpoint>
            <Time>2018-09-14T15:15:59.000Z</Time>
            <Position>
              <LatitudeDegrees>37.554790265858173370361328125</LatitudeDegrees>
              <LongitudeDegrees>-8.07116766460239887237548828125</LongitudeDegrees>
            </Position>
            <AltitudeMeters>279</AltitudeMeters>
            <DistanceMeters>314125.47953403</DistanceMeters>
          </Trackpoint>
          <Trackpoint>
            <Time>2018-09-14T15:16:00.000Z</Time>
            <Position>
              <LatitudeDegrees>37.55472044460475444793701171875</LatitudeDegrees>
              <LongitudeDegrees>-8.07115207426249980926513671875</LongitudeDegrees>
            </Position>
            <AltitudeMeters>278.79998779296875</AltitudeMeters>
            <DistanceMeters>314133.37075746</DistanceMeters>
          </Trackpoint>
          <Trackpoint>
            <Time>2018-09-14T15:16:01.000Z</Time>
            <Position>
              <LatitudeDegrees>37.55465053953230381011962890625</LatitudeDegrees>
              <LongitudeDegrees>-8.07113614864647388458251953125</LongitudeDegrees>
            </Position>
            <AltitudeMeters>278.600006103515625</AltitudeMeters>
            <DistanceMeters>314141.2774141</DistanceMeters>
          </Trackpoint>
          <Trackpoint>
            <Time>2018-09-14T15:16:02.000Z</Time>
            <Position>
              <LatitudeDegrees>37.5545805506408214569091796875</LatitudeDegrees>
              <LongitudeDegrees>-8.0711196362972259521484375</LongitudeDegrees>
            </Position>
            <AltitudeMeters>278.399993896484375</AltitudeMeters>
            <DistanceMeters>314149.20175329</DistanceMeters>
          </Trackpoint>
          <Trackpoint>
            <Time>2018-09-14T15:16:03.000Z</Time>
            <Position>
              <LatitudeDegrees>37.554509304463863372802734375</LatitudeDegrees>
              <LongitudeDegrees>-8.0711043812334537506103515625</LongitudeDegrees>
            </Position>
            <AltitudeMeters>278.20001220703125</AltitudeMeters>
            <DistanceMeters>314157.24429254</DistanceMeters>
          </Trackpoint>
          <Trackpoint>
            <Time>2018-09-14T15:16:04.000Z</Time>
            <Position>
              <LatitudeDegrees>37.5544385612010955810546875</LatitudeDegrees>
              <LongitudeDegrees>-8.07108812034130096435546875</LongitudeDegrees>
            </Position>
            <AltitudeMeters>278</AltitudeMeters>
            <DistanceMeters>314165.24800182</DistanceMeters>
          </Trackpoint>
          <Trackpoint>
            <Time>2018-09-14T15:16:05.000Z</Time>
            <Position>
              <LatitudeDegrees>37.55436840467154979705810546875</LatitudeDegrees>
              <LongitudeDegrees>-8.07107127271592617034912109375</LongitudeDegrees>
            </Position>
            <AltitudeMeters>277.79998779296875</AltitudeMeters>
            <DistanceMeters>314173.1968033</DistanceMeters>
          </Trackpoint>
          <Trackpoint>
            <Time>2018-09-14T15:16:06.000Z</Time>
            <Position>
              <LatitudeDegrees>37.55429833196103572845458984375</LatitudeDegrees>
              <LongitudeDegrees>-8.0710552632808685302734375</LongitudeDegrees>
            </Position>
            <AltitudeMeters>277.600006103515625</AltitudeMeters>
            <DistanceMeters>314181.12342123</DistanceMeters>
          </Trackpoint>
          <Trackpoint>
            <Time>2018-09-14T15:16:07.000Z</Time>
            <Position>
              <LatitudeDegrees>37.5542285107076168060302734375</LatitudeDegrees>
              <LongitudeDegrees>-8.071040846407413482666015625</LongitudeDegrees>
            </Position>
            <AltitudeMeters>277.399993896484375</AltitudeMeters>
            <DistanceMeters>314188.99803455</DistanceMeters>
          </Trackpoint>
          <Trackpoint>
            <Time>2018-09-14T15:16:08.000Z</Time>
            <Position>
              <LatitudeDegrees>37.55415868945419788360595703125</LatitudeDegrees>
              <LongitudeDegrees>-8.07102818973362445831298828125</LongitudeDegrees>
            </Position>
            <AltitudeMeters>277.399993896484375</AltitudeMeters>
            <DistanceMeters>314196.84910466</DistanceMeters>
          </Trackpoint>
          <Trackpoint>
            <Time>2018-09-14T15:16:09.000Z</Time>
            <Position>
              <LatitudeDegrees>37.55408945493400096893310546875</LatitudeDegrees>
              <LongitudeDegrees>-8.07101511396467685699462890625</LongitudeDegrees>
            </Position>
            <AltitudeMeters>277.600006103515625</AltitudeMeters>
            <DistanceMeters>314204.64129524</DistanceMeters>
          </Trackpoint>
          <Trackpoint>
            <Time>2018-09-14T15:16:10.000Z</Time>
            <Position>
              <LatitudeDegrees>37.554020471870899200439453125</LatitudeDegrees>
              <LongitudeDegrees>-8.07099885307252407073974609375</LongitudeDegrees>
            </Position>
            <AltitudeMeters>277.79998779296875</AltitudeMeters>
            <DistanceMeters>314212.4520056</DistanceMeters>
          </Trackpoint>
          <Trackpoint>
            <Time>2018-09-14T15:16:11.000Z</Time>
            <Position>
              <LatitudeDegrees>37.55395165644586086273193359375</LatitudeDegrees>
              <LongitudeDegrees>-8.07098275981843471527099609375</LongitudeDegrees>
            </Position>
            <AltitudeMeters>278</AltitudeMeters>
            <DistanceMeters>314220.24187811</DistanceMeters>
          </Trackpoint>
          <Trackpoint>
            <Time>2018-09-14T15:16:12.000Z</Time>
            <Position>
              <LatitudeDegrees>37.553883679211139678955078125</LatitudeDegrees>
              <LongitudeDegrees>-8.0709667503833770751953125</LongitudeDegrees>
            </Position>
            <AltitudeMeters>278.20001220703125</AltitudeMeters>
            <DistanceMeters>314227.93904198</DistanceMeters>
          </Trackpoint>
          <Trackpoint>
            <Time>2018-09-14T15:16:13.000Z</Time>
            <Position>
              <LatitudeDegrees>37.55381788127124309539794921875</LatitudeDegrees>
              <LongitudeDegrees>-8.07095325551927089691162109375</LongitudeDegrees>
            </Position>
            <AltitudeMeters>278.399993896484375</AltitudeMeters>
            <DistanceMeters>314235.35843184</DistanceMeters>
          </Trackpoint>
          <Trackpoint>
            <Time>2018-09-14T15:16:14.000Z</Time>
            <Position>
              <LatitudeDegrees>37.5537504069507122039794921875</LatitudeDegrees>
              <LongitudeDegrees>-8.070938922464847564697265625</LongitudeDegrees>
            </Position>
            <AltitudeMeters>278.600006103515625</AltitudeMeters>
            <DistanceMeters>314242.97362396</DistanceMeters>
          </Trackpoint>
          <Trackpoint>
            <Time>2018-09-14T15:16:15.000Z</Time>
            <Position>
              <LatitudeDegrees>37.55368553102016448974609375</LatitudeDegrees>
              <LongitudeDegrees>-8.0709253437817096710205078125</LongitudeDegrees>
            </Position>
            <AltitudeMeters>278.79998779296875</AltitudeMeters>
            <DistanceMeters>314250.2937656</DistanceMeters>
          </Trackpoint>
          <Trackpoint>
            <Time>2018-09-14T15:16:16.000Z</Time>
            <Position>
              <LatitudeDegrees>37.5536203198134899139404296875</LatitudeDegrees>
              <LongitudeDegrees>-8.07091168127954006195068359375</LongitudeDegrees>
            </Position>
            <AltitudeMeters>279</AltitudeMeters>
            <DistanceMeters>314257.65143563</DistanceMeters>
          </Trackpoint>
          <Trackpoint>
            <Time>2018-09-14T15:16:17.000Z</Time>
            <Position>
              <LatitudeDegrees>37.5535542704164981842041015625</LatitudeDegrees>
              <LongitudeDegrees>-8.070896007120609283447265625</LongitudeDegrees>
            </Position>
            <AltitudeMeters>279.20001220703125</AltitudeMeters>
            <DistanceMeters>314265.13203612</DistanceMeters>
          </Trackpoint>
          <Trackpoint>
            <Time>2018-09-14T15:16:18.000Z</Time>
            <Position>
              <LatitudeDegrees>37.55349081940948963165283203125</LatitudeDegrees>
              <LongitudeDegrees>-8.0708800815045833587646484375</LongitudeDegrees>
            </Position>
            <AltitudeMeters>279.399993896484375</AltitudeMeters>
            <DistanceMeters>314272.33277906</DistanceMeters>
          </Trackpoint>
          <Trackpoint>
            <Time>2018-09-14T15:16:19.000Z</Time>
            <Position>
              <LatitudeDegrees>37.5534275360405445098876953125</LatitudeDegrees>
              <LongitudeDegrees>-8.0708623118698596954345703125</LongitudeDegrees>
            </Position>
            <AltitudeMeters>279.600006103515625</AltitudeMeters>
            <DistanceMeters>314279.54792915</DistanceMeters>
          </Trackpoint>
          <Trackpoint>
            <Time>2018-09-14T15:16:20.000Z</Time>
            <Position>
              <LatitudeDegrees>37.55336676724255084991455078125</LatitudeDegrees>
              <LongitudeDegrees>-8.070845715701580047607421875</LongitudeDegrees>
            </Position>
            <AltitudeMeters>279.79998779296875</AltitudeMeters>
            <DistanceMeters>314286.46858847</DistanceMeters>
          </Trackpoint>
          <Trackpoint>
            <Time>2018-09-14T15:16:21.000Z</Time>
            <Position>
              <LatitudeDegrees>37.553305663168430328369140625</LatitudeDegrees>
              <LongitudeDegrees>-8.07083171792328357696533203125</LongitudeDegrees>
            </Position>
            <AltitudeMeters>279.600006103515625</AltitudeMeters>
            <DistanceMeters>314293.38076139</DistanceMeters>
          </Trackpoint>
          <Trackpoint>
            <Time>2018-09-14T15:16:22.000Z</Time>
            <Position>
              <LatitudeDegrees>37.55324539728462696075439453125</LatitudeDegrees>
              <LongitudeDegrees>-8.07081981562077999114990234375</LongitudeDegrees>
            </Position>
            <AltitudeMeters>279.79998779296875</AltitudeMeters>
            <DistanceMeters>314300.16968694</DistanceMeters>
          </Trackpoint>
          <Trackpoint>
            <Time>2018-09-14T15:16:23.000Z</Time>
            <Position>
              <LatitudeDegrees>37.55318454466760158538818359375</LatitudeDegrees>
              <LongitudeDegrees>-8.0708069913089275360107421875</LongitudeDegrees>
            </Position>
            <AltitudeMeters>279.79998779296875</AltitudeMeters>
            <DistanceMeters>314307.03664108</DistanceMeters>
          </Trackpoint>
          <Trackpoint>
            <Time>2018-09-14T15:16:24.000Z</Time>
            <Position>
              <LatitudeDegrees>37.55312385968863964080810546875</LatitudeDegrees>
              <LongitudeDegrees>-8.0707939155399799346923828125</LongitudeDegrees>
            </Position>
            <AltitudeMeters>279.79998779296875</AltitudeMeters>
            <DistanceMeters>314313.88911491</DistanceMeters>
          </Trackpoint>
          <Trackpoint>
            <Time>2018-09-14T15:16:25.000Z</Time>
            <Position>
              <LatitudeDegrees>37.55306317470967769622802734375</LatitudeDegrees>
              <LongitudeDegrees>-8.0707805044949054718017578125</LongitudeDegrees>
            </Position>
            <AltitudeMeters>279.79998779296875</AltitudeMeters>
            <DistanceMeters>314320.74685784</DistanceMeters>
          </Trackpoint>
          <Trackpoint>
            <Time>2018-09-14T15:16:26.000Z</Time>
            <Position>
              <LatitudeDegrees>37.553002573549747467041015625</LatitudeDegrees>
              <LongitudeDegrees>-8.07076566852629184722900390625</LongitudeDegrees>
            </Position>
            <AltitudeMeters>279.79998779296875</AltitudeMeters>
            <DistanceMeters>314327.61775586</DistanceMeters>
          </Trackpoint>
          <Trackpoint>
            <Time>2018-09-14T15:16:27.000Z</Time>
            <Position>
              <LatitudeDegrees>37.5529410503804683685302734375</LatitudeDegrees>
              <LongitudeDegrees>-8.07075016200542449951171875</LongitudeDegrees>
            </Position>
            <AltitudeMeters>279.79998779296875</AltitudeMeters>
            <DistanceMeters>314334.60076473</DistanceMeters>
          </Trackpoint>
          <Trackpoint>
            <Time>2018-09-14T15:16:28.000Z</Time>
            <Position>
              <LatitudeDegrees>37.552878521382808685302734375</LatitudeDegrees>
              <LongitudeDegrees>-8.07073398493230342864990234375</LongitudeDegrees>
            </Position>
            <AltitudeMeters>279.79998779296875</AltitudeMeters>
            <DistanceMeters>314341.70428971</DistanceMeters>
          </Trackpoint>
          <Trackpoint>
            <Time>2018-09-14T15:16:29.000Z</Time>
            <Position>
              <LatitudeDegrees>37.55281607620418071746826171875</LatitudeDegrees>
              <LongitudeDegrees>-8.0707173049449920654296875</LongitudeDegrees>
            </Position>
            <AltitudeMeters>279.79998779296875</AltitudeMeters>
            <DistanceMeters>314348.80781469</DistanceMeters>
          </Trackpoint>
          <Trackpoint>
            <Time>2018-09-14T15:16:30.000Z</Time>
            <Position>
              <LatitudeDegrees>37.55275287665426731109619140625</LatitudeDegrees>
              <LongitudeDegrees>-8.07070213370025157928466796875</LongitudeDegrees>
            </Position>
            <AltitudeMeters>279.79998779296875</AltitudeMeters>
            <DistanceMeters>314355.96831565</DistanceMeters>
          </Trackpoint>
          <Trackpoint>
            <Time>2018-09-14T15:16:31.000Z</Time>
            <Position>
              <LatitudeDegrees>37.55268816836178302764892578125</LatitudeDegrees>
              <LongitudeDegrees>-8.070687465369701385498046875</LongitudeDegrees>
            </Position>
            <AltitudeMeters>280</AltitudeMeters>
            <DistanceMeters>314363.28598969</DistanceMeters>
          </Trackpoint>
          <Trackpoint>
            <Time>2018-09-14T15:16:32.000Z</Time>
            <Position>
              <LatitudeDegrees>37.55262211896479129791259765625</LatitudeDegrees>
              <LongitudeDegrees>-8.07067313231527805328369140625</LongitudeDegrees>
            </Position>
            <AltitudeMeters>280</AltitudeMeters>
            <DistanceMeters>314370.74543545</DistanceMeters>
          </Trackpoint>
          <Trackpoint>
            <Time>2018-09-14T15:16:33.000Z</Time>
            <Position>
              <LatitudeDegrees>37.55255523137748241424560546875</LatitudeDegrees>
              <LongitudeDegrees>-8.07065586559474468231201171875</LongitudeDegrees>
            </Position>
            <AltitudeMeters>280</AltitudeMeters>
            <DistanceMeters>314378.34400826</DistanceMeters>
          </Trackpoint>
          <Trackpoint>
            <Time>2018-09-14T15:16:34.000Z</Time>
            <Position>
              <LatitudeDegrees>37.55248792469501495361328125</LatitudeDegrees>
              <LongitudeDegrees>-8.07063859887421131134033203125</LongitudeDegrees>
            </Position>
            <AltitudeMeters>280</AltitudeMeters>
            <DistanceMeters>314385.98819721</DistanceMeters>
          </Trackpoint>
          <Trackpoint>
            <Time>2018-09-14T15:16:35.000Z</Time>
            <Position>
              <LatitudeDegrees>37.55241994746029376983642578125</LatitudeDegrees>
              <LongitudeDegrees>-8.070621751248836517333984375</LongitudeDegrees>
            </Position>
            <AltitudeMeters>279.79998779296875</AltitudeMeters>
            <DistanceMeters>314393.69766951</DistanceMeters>
          </Trackpoint>
          <Trackpoint>
            <Time>2018-09-14T15:16:36.000Z</Time>
            <Position>
              <LatitudeDegrees>37.55235104821622371673583984375</LatitudeDegrees>
              <LongitudeDegrees>-8.0706044845283031463623046875</LongitudeDegrees>
            </Position>
            <AltitudeMeters>279.79998779296875</AltitudeMeters>
            <DistanceMeters>314401.51589101</DistanceMeters>
          </Trackpoint>
          <Trackpoint>
            <Time>2018-09-14T15:16:37.000Z</Time>
            <Position>
              <LatitudeDegrees>37.55228164605796337127685546875</LatitudeDegrees>
              <LongitudeDegrees>-8.07058763690292835235595703125</LongitudeDegrees>
            </Position>
            <AltitudeMeters>279.79998779296875</AltitudeMeters>
            <DistanceMeters>314409.38132512</DistanceMeters>
          </Trackpoint>
          <Trackpoint>
            <Time>2018-09-14T15:16:38.000Z</Time>
            <Position>
              <LatitudeDegrees>37.55221165716648101806640625</LatitudeDegrees>
              <LongitudeDegrees>-8.07057120837271213531494140625</LongitudeDegrees>
            </Position>
            <AltitudeMeters>279.79998779296875</AltitudeMeters>
            <DistanceMeters>314417.30452469</DistanceMeters>
          </Trackpoint>
          <Trackpoint>
            <Time>2018-09-14T15:16:39.000Z</Time>
            <Position>
              <LatitudeDegrees>37.55214116536080837249755859375</LatitudeDegrees>
              <LongitudeDegrees>-8.07055427692830562591552734375</LongitudeDegrees>
            </Position>
            <AltitudeMeters>279.600006103515625</AltitudeMeters>
            <DistanceMeters>314425.29072716</DistanceMeters>
          </Trackpoint>
          <Trackpoint>
            <Time>2018-09-14T15:16:40.000Z</Time>
            <Position>
              <LatitudeDegrees>37.55206991918385028839111328125</LatitudeDegrees>
              <LongitudeDegrees>-8.07053768076002597808837890625</LongitudeDegrees>
            </Position>
            <AltitudeMeters>279.600006103515625</AltitudeMeters>
            <DistanceMeters>314433.35513108</DistanceMeters>
          </Trackpoint>
          <Trackpoint>
            <Time>2018-09-14T15:16:41.000Z</Time>
            <Position>
              <LatitudeDegrees>37.5519989244639873504638671875</LatitudeDegrees>
              <LongitudeDegrees>-8.07052108459174633026123046875</LongitudeDegrees>
            </Position>
            <AltitudeMeters>279.79998779296875</AltitudeMeters>
            <DistanceMeters>314441.39205442</DistanceMeters>
          </Trackpoint>
          <Trackpoint>
            <Time>2018-09-14T15:16:42.000Z</Time>
            <Position>
              <LatitudeDegrees>37.5519280135631561279296875</LatitudeDegrees>
              <LongitudeDegrees>-8.0705032311379909515380859375</LongitudeDegrees>
            </Position>
            <AltitudeMeters>279.79998779296875</AltitudeMeters>
            <DistanceMeters>314449.43964464</DistanceMeters>
          </Trackpoint>
          <Trackpoint>
            <Time>2018-09-14T15:16:43.000Z</Time>
            <Position>
              <LatitudeDegrees>37.55185752175748348236083984375</LatitudeDegrees>
              <LongitudeDegrees>-8.07048638351261615753173828125</LongitudeDegrees>
            </Position>
            <AltitudeMeters>280</AltitudeMeters>
            <DistanceMeters>314457.42415087</DistanceMeters>
          </Trackpoint>
          <Trackpoint>
            <Time>2018-09-14T15:16:44.000Z</Time>
            <Position>
              <LatitudeDegrees>37.551787197589874267578125</LatitudeDegrees>
              <LongitudeDegrees>-8.07046911679208278656005859375</LongitudeDegrees>
            </Position>
            <AltitudeMeters>280.20001220703125</AltitudeMeters>
            <DistanceMeters>314465.39790583</DistanceMeters>
          </Trackpoint>
          <Trackpoint>
            <Time>2018-09-14T15:16:45.000Z</Time>
            <Position>
              <LatitudeDegrees>37.5517162866890430450439453125</LatitudeDegrees>
              <LongitudeDegrees>-8.07045285589993000030517578125</LongitudeDegrees>
            </Position>
            <AltitudeMeters>280.399993896484375</AltitudeMeters>
            <DistanceMeters>314473.41964659</DistanceMeters>
          </Trackpoint>
          <Trackpoint>
            <Time>2018-09-14T15:16:46.000Z</Time>
            <Position>
              <LatitudeDegrees>37.55164495669305324554443359375</LatitudeDegrees>
              <LongitudeDegrees>-8.0704358406364917755126953125</LongitudeDegrees>
            </Position>
            <AltitudeMeters>280.399993896484375</AltitudeMeters>
            <DistanceMeters>314481.49915292</DistanceMeters>
          </Trackpoint>
          <Trackpoint>
            <Time>2018-09-14T15:16:47.000Z</Time>
            <Position>
              <LatitudeDegrees>37.551571615040302276611328125</LatitudeDegrees>
              <LongitudeDegrees>-8.0704190768301486968994140625</LongitudeDegrees>
            </Position>
            <AltitudeMeters>280.20001220703125</AltitudeMeters>
            <DistanceMeters>314489.7953715</DistanceMeters>
          </Trackpoint>
          <Trackpoint>
            <Time>2018-09-14T15:16:48.000Z</Time>
            <Position>
              <LatitudeDegrees>37.55149860866367816925048828125</LatitudeDegrees>
              <LongitudeDegrees>-8.0704034864902496337890625</LongitudeDegrees>
            </Position>
            <AltitudeMeters>280.20001220703125</AltitudeMeters>
            <DistanceMeters>314498.03698754</DistanceMeters>
          </Trackpoint>
          <Trackpoint>
            <Time>2018-09-14T15:16:49.000Z</Time>
            <Position>
              <LatitudeDegrees>37.551426105201244354248046875</LatitudeDegrees>
              <LongitudeDegrees>-8.07038714177906513214111328125</LongitudeDegrees>
            </Position>
            <AltitudeMeters>280</AltitudeMeters>
            <DistanceMeters>314506.2346597</DistanceMeters>
          </Trackpoint>
          <Trackpoint>
            <Time>2018-09-14T15:16:50.000Z</Time>
            <Position>
              <LatitudeDegrees>37.551354356110095977783203125</LatitudeDegrees>
              <LongitudeDegrees>-8.0703711323440074920654296875</LongitudeDegrees>
            </Position>
            <AltitudeMeters>280</AltitudeMeters>
            <DistanceMeters>314514.34484323</DistanceMeters>
          </Trackpoint>
          <Trackpoint>
            <Time>2018-09-14T15:16:51.000Z</Time>
            <Position>
              <LatitudeDegrees>37.55128361284732818603515625</LatitudeDegrees>
              <LongitudeDegrees>-8.0703540332615375518798828125</LongitudeDegrees>
            </Position>
            <AltitudeMeters>280.20001220703125</AltitudeMeters>
            <DistanceMeters>314522.36207992</DistanceMeters>
          </Trackpoint>
          <Trackpoint>
            <Time>2018-09-14T15:16:52.000Z</Time>
            <Position>
              <LatitudeDegrees>37.5512140430510044097900390625</LatitudeDegrees>
              <LongitudeDegrees>-8.07033710181713104248046875</LongitudeDegrees>
            </Position>
            <AltitudeMeters>280.20001220703125</AltitudeMeters>
            <DistanceMeters>314530.24757967</DistanceMeters>
          </Trackpoint>
          <Trackpoint>
            <Time>2018-09-14T15:16:53.000Z</Time>
            <Position>
              <LatitudeDegrees>37.55114606581628322601318359375</LatitudeDegrees>
              <LongitudeDegrees>-8.070320673286914825439453125</LongitudeDegrees>
            </Position>
            <AltitudeMeters>280.399993896484375</AltitudeMeters>
            <DistanceMeters>314537.95119327</DistanceMeters>
          </Trackpoint>
          <Trackpoint>
            <Time>2018-09-14T15:16:54.000Z</Time>
            <Position>
              <LatitudeDegrees>37.55107716657221317291259765625</LatitudeDegrees>
              <LongitudeDegrees>-8.07030416093766689300537109375</LongitudeDegrees>
            </Position>
            <AltitudeMeters>280.399993896484375</AltitudeMeters>
            <DistanceMeters>314545.75727781</DistanceMeters>
          </Trackpoint>
          <Trackpoint>
            <Time>2018-09-14T15:16:55.000Z</Time>
            <Position>
              <LatitudeDegrees>37.55100994370877742767333984375</LatitudeDegrees>
              <LongitudeDegrees>-8.0702889896929264068603515625</LongitudeDegrees>
            </Position>
            <AltitudeMeters>280.600006103515625</AltitudeMeters>
            <DistanceMeters>314553.35882102</DistanceMeters>
          </Trackpoint>
          <Trackpoint>
            <Time>2018-09-14T15:16:56.000Z</Time>
            <Position>
              <LatitudeDegrees>37.55094456486403942108154296875</LatitudeDegrees>
              <LongitudeDegrees>-8.07027733884751796722412109375</LongitudeDegrees>
            </Position>
            <AltitudeMeters>280.600006103515625</AltitudeMeters>
            <DistanceMeters>314560.70850926</DistanceMeters>
          </Trackpoint>
          <Trackpoint>
            <Time>2018-09-14T15:16:57.000Z</Time>
            <Position>
              <LatitudeDegrees>37.55088103003799915313720703125</LatitudeDegrees>
              <LongitudeDegrees>-8.07026392780244350433349609375</LongitudeDegrees>
            </Position>
            <AltitudeMeters>280.79998779296875</AltitudeMeters>
            <DistanceMeters>314567.87909189</DistanceMeters>
          </Trackpoint>
          <Trackpoint>
            <Time>2018-09-14T15:16:58.000Z</Time>
            <Position>
              <LatitudeDegrees>37.550819925963878631591796875</LatitudeDegrees>
              <LongitudeDegrees>-8.07025127112865447998046875</LongitudeDegrees>
            </Position>
            <AltitudeMeters>280.79998779296875</AltitudeMeters>
            <DistanceMeters>314574.77098583</DistanceMeters>
          </Trackpoint>
          <Trackpoint>
            <Time>2018-09-14T15:16:59.000Z</Time>
            <Position>
              <LatitudeDegrees>37.550762593746185302734375</LatitudeDegrees>
              <LongitudeDegrees>-8.0702356807887554168701171875</LongitudeDegrees>
            </Position>
            <AltitudeMeters>281</AltitudeMeters>
            <DistanceMeters>314581.29815219</DistanceMeters>
          </Trackpoint>
          <Trackpoint>
            <Time>2018-09-14T15:17:00.000Z</Time>
            <Position>
              <LatitudeDegrees>37.5507076084613800048828125</LatitudeDegrees>
              <LongitudeDegrees>-8.0702197551727294921875</LongitudeDegrees>
            </Position>
            <AltitudeMeters>281</AltitudeMeters>
            <DistanceMeters>314587.57711021</DistanceMeters>
          </Trackpoint>
          <Trackpoint>
            <Time>2018-09-14T15:17:01.000Z</Time>
            <Position>
              <LatitudeDegrees>37.55065488629043102264404296875</LatitudeDegrees>
              <LongitudeDegrees>-8.070205338299274444580078125</LongitudeDegrees>
            </Position>
            <AltitudeMeters>281</AltitudeMeters>
            <DistanceMeters>314593.5811143</DistanceMeters>
          </Trackpoint>
          <Trackpoint>
            <Time>2018-09-14T15:17:02.000Z</Time>
            <Position>
              <LatitudeDegrees>37.55060258321464061737060546875</LatitudeDegrees>
              <LongitudeDegrees>-8.07019100524485111236572265625</LongitudeDegrees>
            </Position>
            <AltitudeMeters>281.20001220703125</AltitudeMeters>
            <DistanceMeters>314599.53831166</DistanceMeters>
          </Trackpoint>
          <Trackpoint>
            <Time>2018-09-14T15:17:03.000Z</Time>
            <Position>
              <LatitudeDegrees>37.5505491904914379119873046875</LatitudeDegrees>
              <LongitudeDegrees>-8.070175163447856903076171875</LongitudeDegrees>
            </Position>
            <AltitudeMeters>281.20001220703125</AltitudeMeters>
            <DistanceMeters>314605.64225264</DistanceMeters>
          </Trackpoint>
          <Trackpoint>
            <Time>2018-09-14T15:17:04.000Z</Time>
            <Position>
              <LatitudeDegrees>37.55049529485404491424560546875</LatitudeDegrees>
              <LongitudeDegrees>-8.07016200385987758636474609375</LongitudeDegrees>
            </Position>
            <AltitudeMeters>281.399993896484375</AltitudeMeters>
            <DistanceMeters>314611.75210828</DistanceMeters>
          </Trackpoint>
          <Trackpoint>
            <Time>2018-09-14T15:17:05.000Z</Time>
            <Position>
              <LatitudeDegrees>37.55044114775955677032470703125</LatitudeDegrees>
              <LongitudeDegrees>-8.07014842517673969268798828125</LongitudeDegrees>
            </Position>
            <AltitudeMeters>281.399993896484375</AltitudeMeters>
            <DistanceMeters>314617.89733242</DistanceMeters>
          </Trackpoint>
          <Trackpoint>
            <Time>2018-09-14T15:17:06.000Z</Time>
            <Position>
              <LatitudeDegrees>37.5503875873982906341552734375</LatitudeDegrees>
              <LongitudeDegrees>-8.07013459503650665283203125</LongitudeDegrees>
            </Position>
            <AltitudeMeters>281.399993896484375</AltitudeMeters>
            <DistanceMeters>314623.982011</DistanceMeters>
          </Trackpoint>
          <Trackpoint>
            <Time>2018-09-14T15:17:07.000Z</Time>
            <Position>
              <LatitudeDegrees>37.5503339432179927825927734375</LatitudeDegrees>
              <LongitudeDegrees>-8.07012118399143218994140625</LongitudeDegrees>
            </Position>
            <AltitudeMeters>281.600006103515625</AltitudeMeters>
            <DistanceMeters>314630.06817347</DistanceMeters>
          </Trackpoint>
          <Trackpoint>
            <Time>2018-09-14T15:17:08.000Z</Time>
            <Position>
              <LatitudeDegrees>37.550280801951885223388671875</LatitudeDegrees>
              <LongitudeDegrees>-8.0701079405844211578369140625</LongitudeDegrees>
            </Position>
            <AltitudeMeters>281.600006103515625</AltitudeMeters>
            <DistanceMeters>314636.0976915</DistanceMeters>
          </Trackpoint>
          <Trackpoint>
            <Time>2018-09-14T15:17:09.000Z</Time>
            <Position>
              <LatitudeDegrees>37.550227157771587371826171875</LatitudeDegrees>
              <LongitudeDegrees>-8.07009494863450527191162109375</LongitudeDegrees>
            </Position>
            <AltitudeMeters>281.79998779296875</AltitudeMeters>
            <DistanceMeters>314642.17791625</DistanceMeters>
          </Trackpoint>
          <Trackpoint>
            <Time>2018-09-14T15:17:10.000Z</Time>
            <Position>
              <LatitudeDegrees>37.55017317831516265869140625</LatitudeDegrees>
              <LongitudeDegrees>-8.0700814537703990936279296875</LongitudeDegrees>
            </Position>
            <AltitudeMeters>281.79998779296875</AltitudeMeters>
            <DistanceMeters>314648.30253359</DistanceMeters>
          </Trackpoint>
          <Trackpoint>
            <Time>2018-09-14T15:17:11.000Z</Time>
            <Position>
              <LatitudeDegrees>37.55011861212551593780517578125</LatitudeDegrees>
              <LongitudeDegrees>-8.070067875087261199951171875</LongitudeDegrees>
            </Position>
            <AltitudeMeters>281.79998779296875</AltitudeMeters>
            <DistanceMeters>314654.49314296</DistanceMeters>
          </Trackpoint>
          <Trackpoint>
            <Time>2018-09-14T15:17:12.000Z</Time>
            <Position>
              <LatitudeDegrees>37.5500638782978057861328125</LatitudeDegrees>
              <LongitudeDegrees>-8.07005438022315502166748046875</LongitudeDegrees>
            </Position>
            <AltitudeMeters>281.600006103515625</AltitudeMeters>
            <DistanceMeters>314660.70050441</DistanceMeters>
          </Trackpoint>
          <Trackpoint>
            <Time>2018-09-14T15:17:13.000Z</Time>
            <Position>
              <LatitudeDegrees>37.55000847391784191131591796875</LatitudeDegrees>
              <LongitudeDegrees>-8.07004071772098541259765625</LongitudeDegrees>
            </Position>
            <AltitudeMeters>281.79998779296875</AltitudeMeters>
            <DistanceMeters>314666.98377539</DistanceMeters>
          </Trackpoint>
          <Trackpoint>
            <Time>2018-09-14T15:17:14.000Z</Time>
            <Position>
              <LatitudeDegrees>37.54995348863303661346435546875</LatitudeDegrees>
              <LongitudeDegrees>-8.07002722285687923431396484375</LongitudeDegrees>
            </Position>
            <AltitudeMeters>281.79998779296875</AltitudeMeters>
            <DistanceMeters>314673.21799138</DistanceMeters>
          </Trackpoint>
          <Trackpoint>
            <Time>2018-09-14T15:17:15.000Z</Time>
            <Position>
              <LatitudeDegrees>37.5498980842530727386474609375</LatitudeDegrees>
              <LongitudeDegrees>-8.07001381181180477142333984375</LongitudeDegrees>
            </Position>
            <AltitudeMeters>282</AltitudeMeters>
            <DistanceMeters>314679.4969494</DistanceMeters>
          </Trackpoint>
          <Trackpoint>
            <Time>2018-09-14T15:17:16.000Z</Time>
            <Position>
              <LatitudeDegrees>37.54984251223504543304443359375</LatitudeDegrees>
              <LongitudeDegrees>-8.0700003169476985931396484375</LongitudeDegrees>
            </Position>
            <AltitudeMeters>282</AltitudeMeters>
            <DistanceMeters>314685.79600932</DistanceMeters>
          </Trackpoint>
          <Trackpoint>
            <Time>2018-09-14T15:17:17.000Z</Time>
            <Position>
              <LatitudeDegrees>37.54978585056960582733154296875</LatitudeDegrees>
              <LongitudeDegrees>-8.06998732499778270721435546875</LongitudeDegrees>
            </Position>
            <AltitudeMeters>282.20001220703125</AltitudeMeters>
            <DistanceMeters>314692.20732026</DistanceMeters>
          </Trackpoint>
          <Trackpoint>
            <Time>2018-09-14T15:17:18.000Z</Time>
            <Position>
              <LatitudeDegrees>37.54972918890416622161865234375</LatitudeDegrees>
              <LongitudeDegrees>-8.0699748359620571136474609375</LongitudeDegrees>
            </Position>
            <AltitudeMeters>282.20001220703125</AltitudeMeters>
            <DistanceMeters>314698.61017486</DistanceMeters>
          </Trackpoint>
          <Trackpoint>
            <Time>2018-09-14T15:17:19.000Z</Time>
            <Position>
              <LatitudeDegrees>37.54967135377228260040283203125</LatitudeDegrees>
              <LongitudeDegrees>-8.06996234692633152008056640625</LongitudeDegrees>
            </Position>
            <AltitudeMeters>282.399993896484375</AltitudeMeters>
            <DistanceMeters>314705.14079896</DistanceMeters>
          </Trackpoint>
          <Trackpoint>
            <Time>2018-09-14T15:17:20.000Z</Time>
            <Position>
              <LatitudeDegrees>37.54961234517395496368408203125</LatitudeDegrees>
              <LongitudeDegrees>-8.06994809769093990325927734375</LongitudeDegrees>
            </Position>
            <AltitudeMeters>282.399993896484375</AltitudeMeters>
            <DistanceMeters>314711.82787145</DistanceMeters>
          </Trackpoint>
          <Trackpoint>
            <Time>2018-09-14T15:17:21.000Z</Time>
            <Position>
              <LatitudeDegrees>37.5495510734617710113525390625</LatitudeDegrees>
              <LongitudeDegrees>-8.06993351317942142486572265625</LongitudeDegrees>
            </Position>
            <AltitudeMeters>282.600006103515625</AltitudeMeters>
            <DistanceMeters>314718.76807518</DistanceMeters>
          </Trackpoint>
          <Trackpoint>
            <Time>2018-09-14T15:17:22.000Z</Time>
            <Position>
              <LatitudeDegrees>37.549487538635730743408203125</LatitudeDegrees>
              <LongitudeDegrees>-8.0699171684682369232177734375</LongitudeDegrees>
            </Position>
            <AltitudeMeters>282.600006103515625</AltitudeMeters>
            <DistanceMeters>314725.98510233</DistanceMeters>
          </Trackpoint>
          <Trackpoint>
            <Time>2018-09-14T15:17:23.000Z</Time>
            <Position>
              <LatitudeDegrees>37.54942308180034160614013671875</LatitudeDegrees>
              <LongitudeDegrees>-8.06989998556673526763916015625</LongitudeDegrees>
            </Position>
            <AltitudeMeters>282.79998779296875</AltitudeMeters>
            <DistanceMeters>314733.31818526</DistanceMeters>
          </Trackpoint>
          <Trackpoint>
            <Time>2018-09-14T15:17:24.000Z</Time>
            <Position>
              <LatitudeDegrees>37.54935736767947673797607421875</LatitudeDegrees>
              <LongitudeDegrees>-8.06988179683685302734375</LongitudeDegrees>
            </Position>
            <AltitudeMeters>282.79998779296875</AltitudeMeters>
            <DistanceMeters>314740.806628</DistanceMeters>
          </Trackpoint>
          <Trackpoint>
            <Time>2018-09-14T15:17:25.000Z</Time>
            <Position>
              <LatitudeDegrees>37.54929073154926300048828125</LatitudeDegrees>
              <LongitudeDegrees>-8.06986511684954166412353515625</LongitudeDegrees>
            </Position>
            <AltitudeMeters>282.79998779296875</AltitudeMeters>
            <DistanceMeters>314748.36827095</DistanceMeters>
          </Trackpoint>
          <Trackpoint>
            <Time>2018-09-14T15:17:26.000Z</Time>
            <Position>
              <LatitudeDegrees>37.54922275431454181671142578125</LatitudeDegrees>
              <LongitudeDegrees>-8.06984835304319858551025390625</LongitudeDegrees>
            </Position>
            <AltitudeMeters>282.79998779296875</AltitudeMeters>
            <DistanceMeters>314756.07774325</DistanceMeters>
          </Trackpoint>
          <Trackpoint>
            <Time>2018-09-14T15:17:27.000Z</Time>
            <Position>
              <LatitudeDegrees>37.5491531006991863250732421875</LatitudeDegrees>
              <LongitudeDegrees>-8.06983075104653835296630859375</LongitudeDegrees>
            </Position>
            <AltitudeMeters>282.600006103515625</AltitudeMeters>
            <DistanceMeters>314763.98382882</DistanceMeters>
          </Trackpoint>
          <Trackpoint>
            <Time>2018-09-14T15:17:28.000Z</Time>
            <Position>
              <LatitudeDegrees>37.54908210597932338714599609375</LatitudeDegrees>
              <LongitudeDegrees>-8.06981331668794155120849609375</LongitudeDegrees>
            </Position>
            <AltitudeMeters>282.399993896484375</AltitudeMeters>
            <DistanceMeters>314772.03366289</DistanceMeters>
          </Trackpoint>
          <Trackpoint>
            <Time>2018-09-14T15:17:29.000Z</Time>
            <Position>
              <LatitudeDegrees>37.54900951869785785675048828125</LatitudeDegrees>
              <LongitudeDegrees>-8.06979663670063018798828125</LongitudeDegrees>
            </Position>
            <AltitudeMeters>282</AltitudeMeters>
            <DistanceMeters>314780.2461924</DistanceMeters>
          </Trackpoint>
          <Trackpoint>
            <Time>2018-09-14T15:17:30.000Z</Time>
            <Position>
              <LatitudeDegrees>37.54893508739769458770751953125</LatitudeDegrees>
              <LongitudeDegrees>-8.069780208170413970947265625</LongitudeDegrees>
            </Position>
            <AltitudeMeters>281.600006103515625</AltitudeMeters>
            <DistanceMeters>314788.65645927</DistanceMeters>
          </Trackpoint>
          <Trackpoint>
            <Time>2018-09-14T15:17:31.000Z</Time>
            <Position>
              <LatitudeDegrees>37.54885897971689701080322265625</LatitudeDegrees>
              <LongitudeDegrees>-8.06976302526891231536865234375</LongitudeDegrees>
            </Position>
            <AltitudeMeters>281.20001220703125</AltitudeMeters>
            <DistanceMeters>314797.26254357</DistanceMeters>
          </Trackpoint>
          <Trackpoint>
            <Time>2018-09-14T15:17:32.000Z</Time>
            <Position>
              <LatitudeDegrees>37.54878236912190914154052734375</LatitudeDegrees>
              <LongitudeDegrees>-8.0697455070912837982177734375</LongitudeDegrees>
            </Position>
            <AltitudeMeters>281</AltitudeMeters>
            <DistanceMeters>314805.92927167</DistanceMeters>
          </Trackpoint>
          <Trackpoint>
            <Time>2018-09-14T15:17:33.000Z</Time>
            <Position>
              <LatitudeDegrees>37.54870542325079441070556640625</LatitudeDegrees>
              <LongitudeDegrees>-8.069727234542369842529296875</LongitudeDegrees>
            </Position>
            <AltitudeMeters>280.600006103515625</AltitudeMeters>
            <DistanceMeters>314814.64483264</DistanceMeters>
          </Trackpoint>
          <Trackpoint>
            <Time>2018-09-14T15:17:34.000Z</Time>
            <Position>
              <LatitudeDegrees>37.54862881265580654144287109375</LatitudeDegrees>
              <LongitudeDegrees>-8.069707788527011871337890625</LongitudeDegrees>
            </Position>
            <AltitudeMeters>280.600006103515625</AltitudeMeters>
            <DistanceMeters>314823.3427623</DistanceMeters>
          </Trackpoint>
          <Trackpoint>
            <Time>2018-09-14T15:17:35.000Z</Time>
            <Position>
              <LatitudeDegrees>37.548550777137279510498046875</LatitudeDegrees>
              <LongitudeDegrees>-8.06968934834003448486328125</LongitudeDegrees>
            </Position>
            <AltitudeMeters>280.600006103515625</AltitudeMeters>
            <DistanceMeters>314832.17871392</DistanceMeters>
          </Trackpoint>
          <Trackpoint>
            <Time>2018-09-14T15:17:36.000Z</Time>
            <Position>
              <LatitudeDegrees>37.548471651971340179443359375</LatitudeDegrees>
              <LongitudeDegrees>-8.0696707405149936676025390625</LongitudeDegrees>
            </Position>
            <AltitudeMeters>280.399993896484375</AltitudeMeters>
            <DistanceMeters>314841.1374705</DistanceMeters>
          </Trackpoint>
          <Trackpoint>
            <Time>2018-09-14T15:17:37.000Z</Time>
            <Position>
              <LatitudeDegrees>37.548391520977020263671875</LatitudeDegrees>
              <LongitudeDegrees>-8.06965137831866741180419921875</LongitudeDegrees>
            </Position>
            <AltitudeMeters>280.399993896484375</AltitudeMeters>
            <DistanceMeters>314850.21836572</DistanceMeters>
          </Trackpoint>
          <Trackpoint>
            <Time>2018-09-14T15:17:38.000Z</Time>
            <Position>
              <LatitudeDegrees>37.54831080324947834014892578125</LatitudeDegrees>
              <LongitudeDegrees>-8.06963176466524600982666015625</LongitudeDegrees>
            </Position>
            <AltitudeMeters>280.399993896484375</AltitudeMeters>
            <DistanceMeters>314859.36761753</DistanceMeters>
          </Trackpoint>
          <Trackpoint>
            <Time>2018-09-14T15:17:39.000Z</Time>
            <Position>
              <LatitudeDegrees>37.54822916351258754730224609375</LatitudeDegrees>
              <LongitudeDegrees>-8.06961248628795146942138671875</LongitudeDegrees>
            </Position>
            <AltitudeMeters>280.399993896484375</AltitudeMeters>
            <DistanceMeters>314868.61308689</DistanceMeters>
          </Trackpoint>
          <Trackpoint>
            <Time>2018-09-14T15:17:40.000Z</Time>
            <Position>
              <LatitudeDegrees>37.54814769141376018524169921875</LatitudeDegrees>
              <LongitudeDegrees>-8.06959371082484722137451171875</LongitudeDegrees>
            </Position>
            <AltitudeMeters>280.399993896484375</AltitudeMeters>
            <DistanceMeters>314877.83116799</DistanceMeters>
          </Trackpoint>
          <Trackpoint>
            <Time>2018-09-14T15:17:41.000Z</Time>
            <Position>
              <LatitudeDegrees>37.5480688177049160003662109375</LatitudeDegrees>
              <LongitudeDegrees>-8.06957560591399669647216796875</LongitudeDegrees>
            </Position>
            <AltitudeMeters>280.399993896484375</AltitudeMeters>
            <DistanceMeters>314886.7545762</DistanceMeters>
          </Trackpoint>
          <Trackpoint>
            <Time>2018-09-14T15:17:42.000Z</Time>
            <Position>
              <LatitudeDegrees>37.54799145273864269256591796875</LatitudeDegrees>
              <LongitudeDegrees>-8.06955783627927303314208984375</LongitudeDegrees>
            </Position>
            <AltitudeMeters>280.600006103515625</AltitudeMeters>
            <DistanceMeters>314895.50684097</DistanceMeters>
          </Trackpoint>
          <Trackpoint>
            <Time>2018-09-14T15:17:43.000Z</Time>
            <Position>
              <LatitudeDegrees>37.5479145906865596771240234375</LatitudeDegrees>
              <LongitudeDegrees>-8.06954006664454936981201171875</LongitudeDegrees>
            </Position>
            <AltitudeMeters>280.79998779296875</AltitudeMeters>
            <DistanceMeters>314904.20425152</DistanceMeters>
          </Trackpoint>
          <Trackpoint>
            <Time>2018-09-14T15:17:44.000Z</Time>
            <Position>
              <LatitudeDegrees>37.5478376448154449462890625</LatitudeDegrees>
              <LongitudeDegrees>-8.06952212937176227569580078125</LongitudeDegrees>
            </Position>
            <AltitudeMeters>281.20001220703125</AltitudeMeters>
            <DistanceMeters>314912.91307533</DistanceMeters>
          </Trackpoint>
          <Trackpoint>
            <Time>2018-09-14T15:17:45.000Z</Time>
            <Position>
              <LatitudeDegrees>37.5477612018585205078125</LatitudeDegrees>
              <LongitudeDegrees>-8.06950754486024379730224609375</LongitudeDegrees>
            </Position>
            <AltitudeMeters>281.399993896484375</AltitudeMeters>
            <DistanceMeters>314921.5181103</DistanceMeters>
          </Trackpoint>
          <Trackpoint>
            <Time>2018-09-14T15:17:46.000Z</Time>
            <Position>
              <LatitudeDegrees>37.54768635146319866180419921875</LatitudeDegrees>
              <LongitudeDegrees>-8.0694893561303615570068359375</LongitudeDegrees>
            </Position>
            <AltitudeMeters>281.79998779296875</AltitudeMeters>
            <DistanceMeters>314930.00213878</DistanceMeters>
          </Trackpoint>
          <Trackpoint>
            <Time>2018-09-14T15:17:47.000Z</Time>
            <Position>
              <LatitudeDegrees>37.54761225543916225433349609375</LatitudeDegrees>
              <LongitudeDegrees>-8.069472424685955047607421875</LongitudeDegrees>
            </Position>
            <AltitudeMeters>282.20001220703125</AltitudeMeters>
            <DistanceMeters>314938.38282697</DistanceMeters>
          </Trackpoint>
          <Trackpoint>
            <Time>2018-09-14T15:17:48.000Z</Time>
            <Position>
              <LatitudeDegrees>37.54753933288156986236572265625</LatitudeDegrees>
              <LongitudeDegrees>-8.0694558285176753997802734375</LongitudeDegrees>
            </Position>
            <AltitudeMeters>282.399993896484375</AltitudeMeters>
            <DistanceMeters>314946.63101441</DistanceMeters>
          </Trackpoint>
          <Trackpoint>
            <Time>2018-09-14T15:17:49.000Z</Time>
            <Position>
              <LatitudeDegrees>37.547467835247516632080078125</LatitudeDegrees>
              <LongitudeDegrees>-8.069440908730030059814453125</LongitudeDegrees>
            </Position>
            <AltitudeMeters>282.79998779296875</AltitudeMeters>
            <DistanceMeters>314954.69709777</DistanceMeters>
          </Trackpoint>
          <Trackpoint>
            <Time>2018-09-14T15:17:50.000Z</Time>
            <Position>
              <LatitudeDegrees>37.547397427260875701904296875</LatitudeDegrees>
              <LongitudeDegrees>-8.06942808441817760467529296875</LongitudeDegrees>
            </Position>
            <AltitudeMeters>283</AltitudeMeters>
            <DistanceMeters>314962.61516702</DistanceMeters>
          </Trackpoint>
          <Trackpoint>
            <Time>2018-09-14T15:17:51.000Z</Time>
            <Position>
              <LatitudeDegrees>37.54732592962682247161865234375</LatitudeDegrees>
              <LongitudeDegrees>-8.06941333226859569549560546875</LongitudeDegrees>
            </Position>
            <AltitudeMeters>283.20001220703125</AltitudeMeters>
            <DistanceMeters>314970.67901105</DistanceMeters>
          </Trackpoint>
          <Trackpoint>
            <Time>2018-09-14T15:17:52.000Z</Time>
            <Position>
              <LatitudeDegrees>37.5472540967166423797607421875</LatitudeDegrees>
              <LongitudeDegrees>-8.0693984962999820709228515625</LongitudeDegrees>
            </Position>
            <AltitudeMeters>283.399993896484375</AltitudeMeters>
            <DistanceMeters>314978.78028228</DistanceMeters>
          </Trackpoint>
          <Trackpoint>
            <Time>2018-09-14T15:17:53.000Z</Time>
            <Position>
              <LatitudeDegrees>37.5471850298345088958740234375</LatitudeDegrees>
              <LongitudeDegrees>-8.0693844147026538848876953125</LongitudeDegrees>
            </Position>
            <AltitudeMeters>283.600006103515625</AltitudeMeters>
            <DistanceMeters>314986.56667639</DistanceMeters>
          </Trackpoint>
          <Trackpoint>
            <Time>2018-09-14T15:17:54.000Z</Time>
            <Position>
              <LatitudeDegrees>37.54711671732366085052490234375</LatitudeDegrees>
              <LongitudeDegrees>-8.069369159638881683349609375</LongitudeDegrees>
            </Position>
            <AltitudeMeters>283.79998779296875</AltitudeMeters>
            <DistanceMeters>314994.28785277</DistanceMeters>
          </Trackpoint>
          <Trackpoint>
            <Time>2018-09-14T15:17:55.000Z</Time>
            <Position>
              <LatitudeDegrees>37.54704773426055908203125</LatitudeDegrees>
              <LongitudeDegrees>-8.06935365311801433563232421875</LongitudeDegrees>
            </Position>
            <AltitudeMeters>284</AltitudeMeters>
            <DistanceMeters>315002.08641449</DistanceMeters>
          </Trackpoint>
          <Trackpoint>
            <Time>2018-09-14T15:17:56.000Z</Time>
            <Position>
              <LatitudeDegrees>37.5469795055687427520751953125</LatitudeDegrees>
              <LongitudeDegrees>-8.06933705694973468780517578125</LongitudeDegrees>
            </Position>
            <AltitudeMeters>284.20001220703125</AltitudeMeters>
            <DistanceMeters>315009.8204449</DistanceMeters>
          </Trackpoint>
          <Trackpoint>
            <Time>2018-09-14T15:17:57.000Z</Time>
            <Position>
              <LatitudeDegrees>37.546911276876926422119140625</LatitudeDegrees>
              <LongitudeDegrees>-8.06931861676275730133056640625</LongitudeDegrees>
            </Position>
            <AltitudeMeters>284.399993896484375</AltitudeMeters>
            <DistanceMeters>315017.58709866</DistanceMeters>
          </Trackpoint>
          <Trackpoint>
            <Time>2018-09-14T15:17:58.000Z</Time>
            <Position>
              <LatitudeDegrees>37.5468452274799346923828125</LatitudeDegrees>
              <LongitudeDegrees>-8.0693037807941436767578125</LongitudeDegrees>
            </Position>
            <AltitudeMeters>284.600006103515625</AltitudeMeters>
            <DistanceMeters>315025.05380422</DistanceMeters>
          </Trackpoint>
          <Trackpoint>
            <Time>2018-09-14T15:17:59.000Z</Time>
            <Position>
              <LatitudeDegrees>37.54677959717810153961181640625</LatitudeDegrees>
              <LongitudeDegrees>-8.06928710080683231353759765625</LongitudeDegrees>
            </Position>
            <AltitudeMeters>284.79998779296875</AltitudeMeters>
            <DistanceMeters>315032.50537722</DistanceMeters>
          </Trackpoint>
          <Trackpoint>
            <Time>2018-09-14T15:18:00.000Z</Time>
            <Position>
              <LatitudeDegrees>37.54671472124755382537841796875</LatitudeDegrees>
              <LongitudeDegrees>-8.069269917905330657958984375</LongitudeDegrees>
            </Position>
            <AltitudeMeters>284.79998779296875</AltitudeMeters>
            <DistanceMeters>315039.88449376</DistanceMeters>
          </Trackpoint>
          <Trackpoint>
            <Time>2018-09-14T15:18:01.000Z</Time>
            <Position>
              <LatitudeDegrees>37.54665152169764041900634765625</LatitudeDegrees>
              <LongitudeDegrees>-8.06925374083220958709716796875</LongitudeDegrees>
            </Position>
            <AltitudeMeters>285</AltitudeMeters>
            <DistanceMeters>315047.06262835</DistanceMeters>
          </Trackpoint>
          <Trackpoint>
            <Time>2018-09-14T15:18:02.000Z</Time>
            <Position>
              <LatitudeDegrees>37.546588741242885589599609375</LatitudeDegrees>
              <LongitudeDegrees>-8.06923731230199337005615234375</LongitudeDegrees>
            </Position>
            <AltitudeMeters>285</AltitudeMeters>
            <DistanceMeters>315054.19912827</DistanceMeters>
          </Trackpoint>
          <Trackpoint>
            <Time>2018-09-14T15:18:03.000Z</Time>
            <Position>
              <LatitudeDegrees>37.54652579315006732940673828125</LatitudeDegrees>
              <LongitudeDegrees>-8.06922130286693572998046875</LongitudeDegrees>
            </Position>
            <AltitudeMeters>285</AltitudeMeters>
            <DistanceMeters>315061.34700715</DistanceMeters>
          </Trackpoint>
          <Trackpoint>
            <Time>2018-09-14T15:18:04.000Z</Time>
            <Position>
              <LatitudeDegrees>37.54646234214305877685546875</LatitudeDegrees>
              <LongitudeDegrees>-8.0692067183554172515869140625</LongitudeDegrees>
            </Position>
            <AltitudeMeters>284.79998779296875</AltitudeMeters>
            <DistanceMeters>315068.52639963</DistanceMeters>
          </Trackpoint>
          <Trackpoint>
            <Time>2018-09-14T15:18:05.000Z</Time>
            <Position>
              <LatitudeDegrees>37.546398304402828216552734375</LatitudeDegrees>
              <LongitudeDegrees>-8.06919121183454990386962890625</LongitudeDegrees>
            </Position>
            <AltitudeMeters>284.79998779296875</AltitudeMeters>
            <DistanceMeters>315075.78397746</DistanceMeters>
          </Trackpoint>
          <Trackpoint>
            <Time>2018-09-14T15:18:06.000Z</Time>
            <Position>
              <LatitudeDegrees>37.54633418284356594085693359375</LatitudeDegrees>
              <LongitudeDegrees>-8.06917545385658740997314453125</LongitudeDegrees>
            </Position>
            <AltitudeMeters>284.79998779296875</AltitudeMeters>
            <DistanceMeters>315083.0552289</DistanceMeters>
          </Trackpoint>
          <Trackpoint>
            <Time>2018-09-14T15:18:07.000Z</Time>
            <Position>
              <LatitudeDegrees>37.54626930691301822662353515625</LatitudeDegrees>
              <LongitudeDegrees>-8.06915902532637119293212890625</LongitudeDegrees>
            </Position>
            <AltitudeMeters>284.79998779296875</AltitudeMeters>
            <DistanceMeters>315090.42025906</DistanceMeters>
          </Trackpoint>
          <Trackpoint>
            <Time>2018-09-14T15:18:08.000Z</Time>
            <Position>
              <LatitudeDegrees>37.54620485007762908935546875</LatitudeDegrees>
              <LongitudeDegrees>-8.0691423453390598297119140625</LongitudeDegrees>
            </Position>
            <AltitudeMeters>284.79998779296875</AltitudeMeters>
            <DistanceMeters>315097.74286747</DistanceMeters>
          </Trackpoint>
          <Trackpoint>
            <Time>2018-09-14T15:18:09.000Z</Time>
            <Position>
              <LatitudeDegrees>37.5461409799754619598388671875</LatitudeDegrees>
              <LongitudeDegrees>-8.06912616826593875885009765625</LongitudeDegrees>
            </Position>
            <AltitudeMeters>284.600006103515625</AltitudeMeters>
            <DistanceMeters>315104.99359881</DistanceMeters>
          </Trackpoint>
          <Trackpoint>
            <Time>2018-09-14T15:18:10.000Z</Time>
            <Position>
              <LatitudeDegrees>37.546077780425548553466796875</LatitudeDegrees>
              <LongitudeDegrees>-8.06911041028797626495361328125</LongitudeDegrees>
            </Position>
            <AltitudeMeters>284.600006103515625</AltitudeMeters>
            <DistanceMeters>315112.16418145</DistanceMeters>
          </Trackpoint>
          <Trackpoint>
            <Time>2018-09-14T15:18:11.000Z</Time>
            <Position>
              <LatitudeDegrees>37.54601516760885715484619140625</LatitudeDegrees>
              <LongitudeDegrees>-8.06909481994807720184326171875</LongitudeDegrees>
            </Position>
            <AltitudeMeters>284.600006103515625</AltitudeMeters>
            <DistanceMeters>315119.26770643</DistanceMeters>
          </Trackpoint>
          <Trackpoint>
            <Time>2018-09-14T15:18:12.000Z</Time>
            <Position>
              <LatitudeDegrees>37.54595263861119747161865234375</LatitudeDegrees>
              <LongitudeDegrees>-8.06907906197011470794677734375</LongitudeDegrees>
            </Position>
            <AltitudeMeters>284.600006103515625</AltitudeMeters>
            <DistanceMeters>315126.36487251</DistanceMeters>
          </Trackpoint>
          <Trackpoint>
            <Time>2018-09-14T15:18:13.000Z</Time>
            <Position>
              <LatitudeDegrees>37.5458891876041889190673828125</LatitudeDegrees>
              <LongitudeDegrees>-8.0690635554492473602294921875</LongitudeDegrees>
            </Position>
            <AltitudeMeters>284.600006103515625</AltitudeMeters>
            <DistanceMeters>315133.55808723</DistanceMeters>
          </Trackpoint>
          <Trackpoint>
            <Time>2018-09-14T15:18:14.000Z</Time>
            <Position>
              <LatitudeDegrees>37.54582523368299007415771484375</LatitudeDegrees>
              <LongitudeDegrees>-8.06904838420450687408447265625</LongitudeDegrees>
            </Position>
            <AltitudeMeters>284.600006103515625</AltitudeMeters>
            <DistanceMeters>315140.80134231</DistanceMeters>
          </Trackpoint>
          <Trackpoint>
            <Time>2018-09-14T15:18:15.000Z</Time>
            <Position>
              <LatitudeDegrees>37.545761279761791229248046875</LatitudeDegrees>
              <LongitudeDegrees>-8.06903262622654438018798828125</LongitudeDegrees>
            </Position>
            <AltitudeMeters>284.79998779296875</AltitudeMeters>
            <DistanceMeters>315148.05456403</DistanceMeters>
          </Trackpoint>
          <Trackpoint>
            <Time>2018-09-14T15:18:16.000Z</Time>
            <Position>
              <LatitudeDegrees>37.54569766111671924591064453125</LatitudeDegrees>
              <LongitudeDegrees>-8.06901787407696247100830078125</LongitudeDegrees>
            </Position>
            <AltitudeMeters>285</AltitudeMeters>
            <DistanceMeters>315155.25405282</DistanceMeters>
          </Trackpoint>
          <Trackpoint>
            <Time>2018-09-14T15:18:17.000Z</Time>
            <Position>
              <LatitudeDegrees>37.5456337071955204010009765625</LatitudeDegrees>
              <LongitudeDegrees>-8.069003038108348846435546875</LongitudeDegrees>
            </Position>
            <AltitudeMeters>285.20001220703125</AltitudeMeters>
            <DistanceMeters>315162.49169563</DistanceMeters>
          </Trackpoint>
          <Trackpoint>
            <Time>2018-09-14T15:18:18.000Z</Time>
            <Position>
              <LatitudeDegrees>37.545569501817226409912109375</LatitudeDegrees>
              <LongitudeDegrees>-8.06898652575910091400146484375</LongitudeDegrees>
            </Position>
            <AltitudeMeters>285.399993896484375</AltitudeMeters>
            <DistanceMeters>315169.78464772</DistanceMeters>
          </Trackpoint>
          <Trackpoint>
            <Time>2018-09-14T15:18:19.000Z</Time>
            <Position>
              <LatitudeDegrees>37.54550538025796413421630859375</LatitudeDegrees>
              <LongitudeDegrees>-8.0689700134098529815673828125</LongitudeDegrees>
            </Position>
            <AltitudeMeters>285.600006103515625</AltitudeMeters>
            <DistanceMeters>315177.06768755</DistanceMeters>
          </Trackpoint>
          <Trackpoint>
            <Time>2018-09-14T15:18:20.000Z</Time>
            <Position>
              <LatitudeDegrees>37.54544083960354328155517578125</LatitudeDegrees>
              <LongitudeDegrees>-8.06895417161285877227783203125</LongitudeDegrees>
            </Position>
            <AltitudeMeters>285.79998779296875</AltitudeMeters>
            <DistanceMeters>315184.38536158</DistanceMeters>
          </Trackpoint>
          <Trackpoint>
            <Time>2018-09-14T15:18:21.000Z</Time>
            <Position>
              <LatitudeDegrees>37.5453765504062175750732421875</LatitudeDegrees>
              <LongitudeDegrees>-8.06893807835876941680908203125</LongitudeDegrees>
            </Position>
            <AltitudeMeters>285.79998779296875</AltitudeMeters>
            <DistanceMeters>315191.68017073</DistanceMeters>
          </Trackpoint>
          <Trackpoint>
            <Time>2018-09-14T15:18:22.000Z</Time>
            <Position>
              <LatitudeDegrees>37.545312009751796722412109375</LatitudeDegrees>
              <LongitudeDegrees>-8.06892232038080692291259765625</LongitudeDegrees>
            </Position>
            <AltitudeMeters>286.20001220703125</AltitudeMeters>
            <DistanceMeters>315198.99661065</DistanceMeters>
          </Trackpoint>
          <Trackpoint>
            <Time>2018-09-14T15:18:23.000Z</Time>
            <Position>
              <LatitudeDegrees>37.54524688236415386199951171875</LatitudeDegrees>
              <LongitudeDegrees>-8.06890656240284442901611328125</LongitudeDegrees>
            </Position>
            <AltitudeMeters>286.399993896484375</AltitudeMeters>
            <DistanceMeters>315206.37695083</DistanceMeters>
          </Trackpoint>
          <Trackpoint>
            <Time>2018-09-14T15:18:24.000Z</Time>
            <Position>
              <LatitudeDegrees>37.5451814197003841400146484375</LatitudeDegrees>
              <LongitudeDegrees>-8.068890385329723358154296875</LongitudeDegrees>
            </Position>
            <AltitudeMeters>286.79998779296875</AltitudeMeters>
            <DistanceMeters>315213.80120747</DistanceMeters>
          </Trackpoint>
          <Trackpoint>
            <Time>2018-09-14T15:18:25.000Z</Time>
            <Position>
              <LatitudeDegrees>37.54511612467467784881591796875</LatitudeDegrees>
              <LongitudeDegrees>-8.06887538172304630279541015625</LongitudeDegrees>
            </Position>
            <AltitudeMeters>287</AltitudeMeters>
            <DistanceMeters>315221.18888518</DistanceMeters>
          </Trackpoint>
          <Trackpoint>
            <Time>2018-09-14T15:18:26.000Z</Time>
            <Position>
              <LatitudeDegrees>37.54505074582993984222412109375</LatitudeDegrees>
              <LongitudeDegrees>-8.06886180303990840911865234375</LongitudeDegrees>
            </Position>
            <AltitudeMeters>287.399993896484375</AltitudeMeters>
            <DistanceMeters>315228.56432961</DistanceMeters>
          </Trackpoint>
          <Trackpoint>
            <Time>2018-09-14T15:18:27.000Z</Time>
            <Position>
              <LatitudeDegrees>37.54498737864196300506591796875</LatitudeDegrees>
              <LongitudeDegrees>-8.0688493140041828155517578125</LongitudeDegrees>
            </Position>
            <AltitudeMeters>287.399993896484375</AltitudeMeters>
            <DistanceMeters>315235.70335976</DistanceMeters>
          </Trackpoint>
          <Trackpoint>
            <Time>2018-09-14T15:18:28.000Z</Time>
            <Position>
              <LatitudeDegrees>37.5449219159781932830810546875</LatitudeDegrees>
              <LongitudeDegrees>-8.06883498094975948333740234375</LongitudeDegrees>
            </Position>
            <AltitudeMeters>287.399993896484375</AltitudeMeters>
            <DistanceMeters>315243.09836773</DistanceMeters>
          </Trackpoint>
          <Trackpoint>
            <Time>2018-09-14T15:18:29.000Z</Time>
            <Position>
              <LatitudeDegrees>37.5448558665812015533447265625</LatitudeDegrees>
              <LongitudeDegrees>-8.06882089935243129730224609375</LongitudeDegrees>
            </Position>
            <AltitudeMeters>287.20001220703125</AltitudeMeters>
            <DistanceMeters>315250.55418094</DistanceMeters>
          </Trackpoint>
          <Trackpoint>
            <Time>2018-09-14T15:18:30.000Z</Time>
            <Position>
              <LatitudeDegrees>37.54478998482227325439453125</LatitudeDegrees>
              <LongitudeDegrees>-8.06880748830735683441162109375</LongitudeDegrees>
            </Position>
            <AltitudeMeters>287.20001220703125</AltitudeMeters>
            <DistanceMeters>315257.98208556</DistanceMeters>
          </Trackpoint>
          <Trackpoint>
            <Time>2018-09-14T15:18:31.000Z</Time>
            <Position>
              <LatitudeDegrees>37.54472318105399608612060546875</LatitudeDegrees>
              <LongitudeDegrees>-8.0687916465103626251220703125</LongitudeDegrees>
            </Position>
            <AltitudeMeters>287</AltitudeMeters>
            <DistanceMeters>315265.54731024</DistanceMeters>
          </Trackpoint>
          <Trackpoint>
            <Time>2018-09-14T15:18:32.000Z</Time>
            <Position>
              <LatitudeDegrees>37.5446560420095920562744140625</LatitudeDegrees>
              <LongitudeDegrees>-8.0687765590846538543701171875</LongitudeDegrees>
            </Position>
            <AltitudeMeters>287</AltitudeMeters>
            <DistanceMeters>315273.13696489</DistanceMeters>
          </Trackpoint>
          <Trackpoint>
            <Time>2018-09-14T15:18:33.000Z</Time>
            <Position>
              <LatitudeDegrees>37.54458856768906116485595703125</LatitudeDegrees>
              <LongitudeDegrees>-8.06876205839216709136962890625</LongitudeDegrees>
            </Position>
            <AltitudeMeters>287.20001220703125</AltitudeMeters>
            <DistanceMeters>315280.75452823</DistanceMeters>
          </Trackpoint>
          <Trackpoint>
            <Time>2018-09-14T15:18:34.000Z</Time>
            <Position>
              <LatitudeDegrees>37.544521428644657135009765625</LatitudeDegrees>
              <LongitudeDegrees>-8.068746216595172882080078125</LongitudeDegrees>
            </Position>
            <AltitudeMeters>287.20001220703125</AltitudeMeters>
            <DistanceMeters>315288.35666538</DistanceMeters>
          </Trackpoint>
          <Trackpoint>
            <Time>2018-09-14T15:18:35.000Z</Time>
            <Position>
              <LatitudeDegrees>37.5444553792476654052734375</LatitudeDegrees>
              <LongitudeDegrees>-8.06872953660786151885986328125</LongitudeDegrees>
            </Position>
            <AltitudeMeters>287.399993896484375</AltitudeMeters>
            <DistanceMeters>315295.85354445</DistanceMeters>
          </Trackpoint>
          <Trackpoint>
            <Time>2018-09-14T15:18:36.000Z</Time>
            <Position>
              <LatitudeDegrees>37.54439041949808597564697265625</LatitudeDegrees>
              <LongitudeDegrees>-8.06871361099183559417724609375</LongitudeDegrees>
            </Position>
            <AltitudeMeters>287.399993896484375</AltitudeMeters>
            <DistanceMeters>315303.21918762</DistanceMeters>
          </Trackpoint>
          <Trackpoint>
            <Time>2018-09-14T15:18:37.000Z</Time>
            <Position>
              <LatitudeDegrees>37.5443261303007602691650390625</LatitudeDegrees>
              <LongitudeDegrees>-8.068697936832904815673828125</LongitudeDegrees>
            </Position>
            <AltitudeMeters>287.399993896484375</AltitudeMeters>
            <DistanceMeters>315310.50718526</DistanceMeters>
          </Trackpoint>
          <Trackpoint>
            <Time>2018-09-14T15:18:38.000Z</Time>
            <Position>
              <LatitudeDegrees>37.54426334984600543975830078125</LatitudeDegrees>
              <LongitudeDegrees>-8.06868310086429119110107421875</LongitudeDegrees>
            </Position>
            <AltitudeMeters>287.600006103515625</AltitudeMeters>
            <DistanceMeters>315317.61579326</DistanceMeters>
          </Trackpoint>
          <Trackpoint>
            <Time>2018-09-14T15:18:39.000Z</Time>
            <Position>
              <LatitudeDegrees>37.54419998265802860260009765625</LatitudeDegrees>
              <LongitudeDegrees>-8.0686655826866626739501953125</LongitudeDegrees>
            </Position>
            <AltitudeMeters>287.600006103515625</AltitudeMeters>
            <DistanceMeters>315324.8365731</DistanceMeters>
          </Trackpoint>
          <Trackpoint>
            <Time>2018-09-14T15:18:40.000Z</Time>
            <Position>
              <LatitudeDegrees>37.54413510672748088836669921875</LatitudeDegrees>
              <LongitudeDegrees>-8.06864907033741474151611328125</LongitudeDegrees>
            </Position>
            <AltitudeMeters>287.600006103515625</AltitudeMeters>
            <DistanceMeters>315332.20221626</DistanceMeters>
          </Trackpoint>
          <Trackpoint>
            <Time>2018-09-14T15:18:41.000Z</Time>
            <Position>
              <LatitudeDegrees>37.544072158634662628173828125</LatitudeDegrees>
              <LongitudeDegrees>-8.0686313845217227935791015625</LongitudeDegrees>
            </Position>
            <AltitudeMeters>287.600006103515625</AltitudeMeters>
            <DistanceMeters>315339.38035085</DistanceMeters>
          </Trackpoint>
          <Trackpoint>
            <Time>2018-09-14T15:18:42.000Z</Time>
            <Position>
              <LatitudeDegrees>37.544009126722812652587890625</LatitudeDegrees>
              <LongitudeDegrees>-8.0686146207153797149658203125</LongitudeDegrees>
            </Position>
            <AltitudeMeters>287.600006103515625</AltitudeMeters>
            <DistanceMeters>315346.55093349</DistanceMeters>
          </Trackpoint>
          <Trackpoint>
            <Time>2018-09-14T15:18:43.000Z</Time>
            <Position>
              <LatitudeDegrees>37.5439452566206455230712890625</LatitudeDegrees>
              <LongitudeDegrees>-8.06859676726162433624267578125</LongitudeDegrees>
            </Position>
            <AltitudeMeters>287.600006103515625</AltitudeMeters>
            <DistanceMeters>315353.83273332</DistanceMeters>
          </Trackpoint>
          <Trackpoint>
            <Time>2018-09-14T15:18:44.000Z</Time>
            <Position>
              <LatitudeDegrees>37.54388197325170040130615234375</LatitudeDegrees>
              <LongitudeDegrees>-8.06858134455978870391845703125</LongitudeDegrees>
            </Position>
            <AltitudeMeters>287.399993896484375</AltitudeMeters>
            <DistanceMeters>315361.00646357</DistanceMeters>
          </Trackpoint>
          <Trackpoint>
            <Time>2018-09-14T15:18:45.000Z</Time>
            <Position>
              <LatitudeDegrees>37.5438185222446918487548828125</LatitudeDegrees>
              <LongitudeDegrees>-8.0685675144195556640625</LongitudeDegrees>
            </Position>
            <AltitudeMeters>287.399993896484375</AltitudeMeters>
            <DistanceMeters>315368.17326724</DistanceMeters>
          </Trackpoint>
          <Trackpoint>
            <Time>2018-09-14T15:18:46.000Z</Time>
            <Position>
              <LatitudeDegrees>37.54375490359961986541748046875</LatitudeDegrees>
              <LongitudeDegrees>-8.06855301372706890106201171875</LongitudeDegrees>
            </Position>
            <AltitudeMeters>287.399993896484375</AltitudeMeters>
            <DistanceMeters>315375.36899224</DistanceMeters>
          </Trackpoint>
          <Trackpoint>
            <Time>2018-09-14T15:18:47.000Z</Time>
            <Position>
              <LatitudeDegrees>37.54369103349745273590087890625</LatitudeDegrees>
              <LongitudeDegrees>-8.06853960268199443817138671875</LongitudeDegrees>
            </Position>
            <AltitudeMeters>287.20001220703125</AltitudeMeters>
            <DistanceMeters>315382.5760027</DistanceMeters>
          </Trackpoint>
          <Trackpoint>
            <Time>2018-09-14T15:18:48.000Z</Time>
            <Position>
              <LatitudeDegrees>37.54362850449979305267333984375</LatitudeDegrees>
              <LongitudeDegrees>-8.06852485053241252899169921875</LongitudeDegrees>
            </Position>
            <AltitudeMeters>287.20001220703125</AltitudeMeters>
            <DistanceMeters>315389.65660891</DistanceMeters>
          </Trackpoint>
          <Trackpoint>
            <Time>2018-09-14T15:18:49.000Z</Time>
            <Position>
              <LatitudeDegrees>37.5435647182166576385498046875</LatitudeDegrees>
              <LongitudeDegrees>-8.068511188030242919921875</LongitudeDegrees>
            </Position>
            <AltitudeMeters>287.20001220703125</AltitudeMeters>
            <DistanceMeters>315396.85797886</DistanceMeters>
          </Trackpoint>
          <Trackpoint>
            <Time>2018-09-14T15:18:50.000Z</Time>
            <Position>
              <LatitudeDegrees>37.54349959082901477813720703125</LatitudeDegrees>
              <LongitudeDegrees>-8.068496771156787872314453125</LongitudeDegrees>
            </Position>
            <AltitudeMeters>287.20001220703125</AltitudeMeters>
            <DistanceMeters>315404.21687608</DistanceMeters>
          </Trackpoint>
          <Trackpoint>
            <Time>2018-09-14T15:18:51.000Z</Time>
            <Position>
              <LatitudeDegrees>37.5434349663555622100830078125</LatitudeDegrees>
              <LongitudeDegrees>-8.068481348454952239990234375</LongitudeDegrees>
            </Position>
            <AltitudeMeters>287</AltitudeMeters>
            <DistanceMeters>315411.53701772</DistanceMeters>
          </Trackpoint>
          <Trackpoint>
            <Time>2018-09-14T15:18:52.000Z</Time>
            <Position>
              <LatitudeDegrees>37.54337109625339508056640625</LatitudeDegrees>
              <LongitudeDegrees>-8.06846701540052890777587890625</LongitudeDegrees>
            </Position>
            <AltitudeMeters>287</AltitudeMeters>
            <DistanceMeters>315418.75717225</DistanceMeters>
          </Trackpoint>
          <Trackpoint>
            <Time>2018-09-14T15:18:53.000Z</Time>
            <Position>
              <LatitudeDegrees>37.54330529831349849700927734375</LatitudeDegrees>
              <LongitudeDegrees>-8.0684526823461055755615234375</LongitudeDegrees>
            </Position>
            <AltitudeMeters>287.20001220703125</AltitudeMeters>
            <DistanceMeters>315426.18872306</DistanceMeters>
          </Trackpoint>
          <Trackpoint>
            <Time>2018-09-14T15:18:54.000Z</Time>
            <Position>
              <LatitudeDegrees>37.5432388298213481903076171875</LatitudeDegrees>
              <LongitudeDegrees>-8.0684401094913482666015625</LongitudeDegrees>
            </Position>
            <AltitudeMeters>287.20001220703125</AltitudeMeters>
            <DistanceMeters>315433.66932355</DistanceMeters>
          </Trackpoint>
          <Trackpoint>
            <Time>2018-09-14T15:18:55.000Z</Time>
            <Position>
              <LatitudeDegrees>37.54317261278629302978515625</LatitudeDegrees>
              <LongitudeDegrees>-8.06842443533241748809814453125</LongitudeDegrees>
            </Position>
            <AltitudeMeters>287.399993896484375</AltitudeMeters>
            <DistanceMeters>315441.16861126</DistanceMeters>
          </Trackpoint>
          <Trackpoint>
            <Time>2018-09-14T15:18:56.000Z</Time>
            <Position>
              <LatitudeDegrees>37.5431070663034915924072265625</LatitudeDegrees>
              <LongitudeDegrees>-8.06840716861188411712646484375</LongitudeDegrees>
            </Position>
            <AltitudeMeters>287.600006103515625</AltitudeMeters>
            <DistanceMeters>315448.62200178</DistanceMeters>
          </Trackpoint>
          <Trackpoint>
            <Time>2018-09-14T15:18:57.000Z</Time>
            <Position>
              <LatitudeDegrees>37.5430416874587535858154296875</LatitudeDegrees>
              <LongitudeDegrees>-8.068391494452953338623046875</LongitudeDegrees>
            </Position>
            <AltitudeMeters>287.600006103515625</AltitudeMeters>
            <DistanceMeters>315456.02921073</DistanceMeters>
          </Trackpoint>
          <Trackpoint>
            <Time>2018-09-14T15:18:58.000Z</Time>
            <Position>
              <LatitudeDegrees>37.5429759733378887176513671875</LatitudeDegrees>
              <LongitudeDegrees>-8.06837531737983226776123046875</LongitudeDegrees>
            </Position>
            <AltitudeMeters>287.79998779296875</AltitudeMeters>
            <DistanceMeters>315463.48138962</DistanceMeters>
          </Trackpoint>
          <Trackpoint>
            <Time>2018-09-14T15:18:59.000Z</Time>
            <Position>
              <LatitudeDegrees>37.54290900193154811859130859375</LatitudeDegrees>
              <LongitudeDegrees>-8.06836031377315521240234375</LongitudeDegrees>
            </Position>
            <AltitudeMeters>288</AltitudeMeters>
            <DistanceMeters>315471.0525801</DistanceMeters>
          </Trackpoint>
          <Trackpoint>
            <Time>2018-09-14T15:19:00.000Z</Time>
            <Position>
              <LatitudeDegrees>37.54284135997295379638671875</LatitudeDegrees>
              <LongitudeDegrees>-8.0683450587093830108642578125</LongitudeDegrees>
            </Position>
            <AltitudeMeters>288</AltitudeMeters>
            <DistanceMeters>315478.70149278</DistanceMeters>
          </Trackpoint>
          <Trackpoint>
            <Time>2018-09-14T15:19:01.000Z</Time>
            <Position>
              <LatitudeDegrees>37.54277438856661319732666015625</LatitudeDegrees>
              <LongitudeDegrees>-8.06832988746464252471923828125</LongitudeDegrees>
            </Position>
            <AltitudeMeters>288.20001220703125</AltitudeMeters>
            <DistanceMeters>315486.27506827</DistanceMeters>
          </Trackpoint>
          <Trackpoint>
            <Time>2018-09-14T15:19:02.000Z</Time>
            <Position>
              <LatitudeDegrees>37.54270649515092372894287109375</LatitudeDegrees>
              <LongitudeDegrees>-8.06831396184861660003662109375</LongitudeDegrees>
            </Position>
            <AltitudeMeters>288.399993896484375</AltitudeMeters>
            <DistanceMeters>315493.96166635</DistanceMeters>
          </Trackpoint>
          <Trackpoint>
            <Time>2018-09-14T15:19:03.000Z</Time>
            <Position>
              <LatitudeDegrees>37.5426376797258853912353515625</LatitudeDegrees>
              <LongitudeDegrees>-8.0682979524135589599609375</LongitudeDegrees>
            </Position>
            <AltitudeMeters>288.600006103515625</AltitudeMeters>
            <DistanceMeters>315501.75037957</DistanceMeters>
          </Trackpoint>
          <Trackpoint>
            <Time>2018-09-14T15:19:04.000Z</Time>
            <Position>
              <LatitudeDegrees>37.542568780481815338134765625</LatitudeDegrees>
              <LongitudeDegrees>-8.0682853795588016510009765625</LongitudeDegrees>
            </Position>
            <AltitudeMeters>288.399993896484375</AltitudeMeters>
            <DistanceMeters>315509.49840824</DistanceMeters>
          </Trackpoint>
          <Trackpoint>
            <Time>2018-09-14T15:19:05.000Z</Time>
            <Position>
              <LatitudeDegrees>37.54250013269484043121337890625</LatitudeDegrees>
              <LongitudeDegrees>-8.068272136151790618896484375</LongitudeDegrees>
            </Position>
            <AltitudeMeters>288.399993896484375</AltitudeMeters>
            <DistanceMeters>315517.22893512</DistanceMeters>
          </Trackpoint>
          <Trackpoint>
            <Time>2018-09-14T15:19:06.000Z</Time>
            <Position>
              <LatitudeDegrees>37.54243223927915096282958984375</LatitudeDegrees>
              <LongitudeDegrees>-8.0682565458118915557861328125</LongitudeDegrees>
            </Position>
            <AltitudeMeters>288.20001220703125</AltitudeMeters>
            <DistanceMeters>315524.91024487</DistanceMeters>
          </Trackpoint>
          <Trackpoint>
            <Time>2018-09-14T15:19:07.000Z</Time>
            <Position>
              <LatitudeDegrees>37.5423632562160491943359375</LatitudeDegrees>
              <LongitudeDegrees>-8.0682362616062164306640625</LongitudeDegrees>
            </Position>
            <AltitudeMeters>288.20001220703125</AltitudeMeters>
            <DistanceMeters>315532.79345399</DistanceMeters>
          </Trackpoint>
          <Trackpoint>
            <Time>2018-09-14T15:19:08.000Z</Time>
            <Position>
              <LatitudeDegrees>37.54229544661939144134521484375</LatitudeDegrees>
              <LongitudeDegrees>-8.068219833076000213623046875</LongitudeDegrees>
            </Position>
            <AltitudeMeters>288</AltitudeMeters>
            <DistanceMeters>315540.47828971</DistanceMeters>
          </Trackpoint>
          <Trackpoint>
            <Time>2018-09-14T15:19:09.000Z</Time>
            <Position>
              <LatitudeDegrees>37.54222755320370197296142578125</LatitudeDegrees>
              <LongitudeDegrees>-8.06820348836481571197509765625</LongitudeDegrees>
            </Position>
            <AltitudeMeters>287.79998779296875</AltitudeMeters>
            <DistanceMeters>315548.1701725</DistanceMeters>
          </Trackpoint>
          <Trackpoint>
            <Time>2018-09-14T15:19:10.000Z</Time>
            <Position>
              <LatitudeDegrees>37.5421594083309173583984375</LatitudeDegrees>
              <LongitudeDegrees>-8.068187646567821502685546875</LongitudeDegrees>
            </Position>
            <AltitudeMeters>287.79998779296875</AltitudeMeters>
            <DistanceMeters>315555.88198703</DistanceMeters>
          </Trackpoint>
          <Trackpoint>
            <Time>2018-09-14T15:19:11.000Z</Time>
            <Position>
              <LatitudeDegrees>37.5420915149152278900146484375</LatitudeDegrees>
              <LongitudeDegrees>-8.06817046366631984710693359375</LongitudeDegrees>
            </Position>
            <AltitudeMeters>287.600006103515625</AltitudeMeters>
            <DistanceMeters>315563.58911639</DistanceMeters>
          </Trackpoint>
          <Trackpoint>
            <Time>2018-09-14T15:19:12.000Z</Time>
            <Position>
              <LatitudeDegrees>37.54202337004244327545166015625</LatitudeDegrees>
              <LongitudeDegrees>-8.06815403513610363006591796875</LongitudeDegrees>
            </Position>
            <AltitudeMeters>287.399993896484375</AltitudeMeters>
            <DistanceMeters>315571.31029277</DistanceMeters>
          </Trackpoint>
          <Trackpoint>
            <Time>2018-09-14T15:19:13.000Z</Time>
            <Position>
              <LatitudeDegrees>37.54195497371256351470947265625</LatitudeDegrees>
              <LongitudeDegrees>-8.06813693605363368988037109375</LongitudeDegrees>
            </Position>
            <AltitudeMeters>287.399993896484375</AltitudeMeters>
            <DistanceMeters>315579.07113099</DistanceMeters>
          </Trackpoint>
          <Trackpoint>
            <Time>2018-09-14T15:19:14.000Z</Time>
            <Position>
              <LatitudeDegrees>37.541886158287525177001953125</LatitudeDegrees>
              <LongitudeDegrees>-8.06811866350471973419189453125</LongitudeDegrees>
            </Position>
            <AltitudeMeters>287.399993896484375</AltitudeMeters>
            <DistanceMeters>315586.89801022</DistanceMeters>
          </Trackpoint>
          <Trackpoint>
            <Time>2018-09-14T15:19:15.000Z</Time>
            <Position>
              <LatitudeDegrees>37.54181600175797939300537109375</LatitudeDegrees>
              <LongitudeDegrees>-8.06810156442224979400634765625</LongitudeDegrees>
            </Position>
            <AltitudeMeters>287.399993896484375</AltitudeMeters>
            <DistanceMeters>315594.85078681</DistanceMeters>
          </Trackpoint>
          <Trackpoint>
            <Time>2018-09-14T15:19:16.000Z</Time>
            <Position>
              <LatitudeDegrees>37.54174592904746532440185546875</LatitudeDegrees>
              <LongitudeDegrees>-8.06808614172041416168212890625</LongitudeDegrees>
            </Position>
            <AltitudeMeters>287.600006103515625</AltitudeMeters>
            <DistanceMeters>315602.76771554</DistanceMeters>
          </Trackpoint>
          <Trackpoint>
            <Time>2018-09-14T15:19:17.000Z</Time>
            <Position>
              <LatitudeDegrees>37.54167619161307811737060546875</LatitudeDegrees>
              <LongitudeDegrees>-8.06807122193276882171630859375</LongitudeDegrees>
            </Position>
            <AltitudeMeters>287.600006103515625</AltitudeMeters>
            <DistanceMeters>315610.64060858</DistanceMeters>
          </Trackpoint>
          <Trackpoint>
            <Time>2018-09-14T15:19:18.000Z</Time>
            <Position>
              <LatitudeDegrees>37.5416067056357860565185546875</LatitudeDegrees>
              <LongitudeDegrees>-8.0680565536022186279296875</LongitudeDegrees>
            </Position>
            <AltitudeMeters>287.79998779296875</AltitudeMeters>
            <DistanceMeters>315618.48132031</DistanceMeters>
          </Trackpoint>
          <Trackpoint>
            <Time>2018-09-14T15:19:19.000Z</Time>
            <Position>
              <LatitudeDegrees>37.54153721965849399566650390625</LatitudeDegrees>
              <LongitudeDegrees>-8.0680412985384464263916015625</LongitudeDegrees>
            </Position>
            <AltitudeMeters>287.79998779296875</AltitudeMeters>
            <DistanceMeters>315626.33181531</DistanceMeters>
          </Trackpoint>
          <Trackpoint>
            <Time>2018-09-14T15:19:20.000Z</Time>
            <Position>
              <LatitudeDegrees>37.5414679013192653656005859375</LatitudeDegrees>
              <LongitudeDegrees>-8.06802495382726192474365234375</LongitudeDegrees>
            </Position>
            <AltitudeMeters>288</AltitudeMeters>
            <DistanceMeters>315634.18058473</DistanceMeters>
          </Trackpoint>
          <Trackpoint>
            <Time>2018-09-14T15:19:21.000Z</Time>
            <Position>
              <LatitudeDegrees>37.54139891825616359710693359375</LatitudeDegrees>
              <LongitudeDegrees>-8.06800902821123600006103515625</LongitudeDegrees>
            </Position>
            <AltitudeMeters>288.20001220703125</AltitudeMeters>
            <DistanceMeters>315641.98666927</DistanceMeters>
          </Trackpoint>
          <Trackpoint>
            <Time>2018-09-14T15:19:22.000Z</Time>
            <Position>
              <LatitudeDegrees>37.5413307733833789825439453125</LatitudeDegrees>
              <LongitudeDegrees>-8.06799243204295635223388671875</LongitudeDegrees>
            </Position>
            <AltitudeMeters>288.399993896484375</AltitudeMeters>
            <DistanceMeters>315649.71252232</DistanceMeters>
          </Trackpoint>
          <Trackpoint>
            <Time>2018-09-14T15:19:23.000Z</Time>
            <Position>
              <LatitudeDegrees>37.54126313142478466033935546875</LatitudeDegrees>
              <LongitudeDegrees>-8.067974746227264404296875</LongitudeDegrees>
            </Position>
            <AltitudeMeters>288.399993896484375</AltitudeMeters>
            <DistanceMeters>315657.4020568</DistanceMeters>
          </Trackpoint>
          <Trackpoint>
            <Time>2018-09-14T15:19:24.000Z</Time>
            <Position>
              <LatitudeDegrees>37.541194148361682891845703125</LatitudeDegrees>
              <LongitudeDegrees>-8.06795638985931873321533203125</LongitudeDegrees>
            </Position>
            <AltitudeMeters>288.600006103515625</AltitudeMeters>
            <DistanceMeters>315665.24852487</DistanceMeters>
          </Trackpoint>
          <Trackpoint>
            <Time>2018-09-14T15:19:25.000Z</Time>
            <Position>
              <LatitudeDegrees>37.54112399183213710784912109375</LatitudeDegrees>
              <LongitudeDegrees>-8.0679407157003879547119140625</LongitudeDegrees>
            </Position>
            <AltitudeMeters>288.79998779296875</AltitudeMeters>
            <DistanceMeters>315673.1785597</DistanceMeters>
          </Trackpoint>
          <Trackpoint>
            <Time>2018-09-14T15:19:26.000Z</Time>
            <Position>
              <LatitudeDegrees>37.54105366766452789306640625</LatitudeDegrees>
              <LongitudeDegrees>-8.06792587973177433013916015625</LongitudeDegrees>
            </Position>
            <AltitudeMeters>288.79998779296875</AltitudeMeters>
            <DistanceMeters>315681.11428608</DistanceMeters>
          </Trackpoint>
          <Trackpoint>
            <Time>2018-09-14T15:19:27.000Z</Time>
            <Position>
              <LatitudeDegrees>37.54098334349691867828369140625</LatitudeDegrees>
              <LongitudeDegrees>-8.067910708487033843994140625</LongitudeDegrees>
            </Position>
            <AltitudeMeters>289</AltitudeMeters>
            <DistanceMeters>315689.05569992</DistanceMeters>
          </Trackpoint>
          <Trackpoint>
            <Time>2018-09-14T15:19:28.000Z</Time>
            <Position>
              <LatitudeDegrees>37.540912516415119171142578125</LatitudeDegrees>
              <LongitudeDegrees>-8.0678941123187541961669921875</LongitudeDegrees>
            </Position>
            <AltitudeMeters>289.20001220703125</AltitudeMeters>
            <DistanceMeters>315697.07406286</DistanceMeters>
          </Trackpoint>
          <Trackpoint>
            <Time>2018-09-14T15:19:29.000Z</Time>
            <Position>
              <LatitudeDegrees>37.54084219224750995635986328125</LatitudeDegrees>
              <LongitudeDegrees>-8.06787743233144283294677734375</LongitudeDegrees>
            </Position>
            <AltitudeMeters>289.399993896484375</AltitudeMeters>
            <DistanceMeters>315705.03818598</DistanceMeters>
          </Trackpoint>
          <Trackpoint>
            <Time>2018-09-14T15:19:30.000Z</Time>
            <Position>
              <LatitudeDegrees>37.540772370994091033935546875</LatitudeDegrees>
              <LongitudeDegrees>-8.06786268018186092376708984375</LongitudeDegrees>
            </Position>
            <AltitudeMeters>289.399993896484375</AltitudeMeters>
            <DistanceMeters>315712.9179579</DistanceMeters>
          </Trackpoint>
          <Trackpoint>
            <Time>2018-09-14T15:19:31.000Z</Time>
            <Position>
              <LatitudeDegrees>37.54070187918841838836669921875</LatitudeDegrees>
              <LongitudeDegrees>-8.06785094551742076873779296875</LongitudeDegrees>
            </Position>
            <AltitudeMeters>289.600006103515625</AltitudeMeters>
            <DistanceMeters>315720.83146409</DistanceMeters>
          </Trackpoint>
          <Trackpoint>
            <Time>2018-09-14T15:19:32.000Z</Time>
            <Position>
              <LatitudeDegrees>37.54063230939209461212158203125</LatitudeDegrees>
              <LongitudeDegrees>-8.0678354389965534210205078125</LongitudeDegrees>
            </Position>
            <AltitudeMeters>289.79998779296875</AltitudeMeters>
            <DistanceMeters>315728.69460172</DistanceMeters>
          </Trackpoint>
          <Trackpoint>
            <Time>2018-09-14T15:19:33.000Z</Time>
            <Position>
              <LatitudeDegrees>37.54056416451930999755859375</LatitudeDegrees>
              <LongitudeDegrees>-8.0678183399140834808349609375</LongitudeDegrees>
            </Position>
            <AltitudeMeters>290</AltitudeMeters>
            <DistanceMeters>315736.42746446</DistanceMeters>
          </Trackpoint>
          <Trackpoint>
            <Time>2018-09-14T15:19:34.000Z</Time>
            <Position>
              <LatitudeDegrees>37.540496103465557098388671875</LatitudeDegrees>
              <LongitudeDegrees>-8.06780132465064525604248046875</LongitudeDegrees>
            </Position>
            <AltitudeMeters>290.399993896484375</AltitudeMeters>
            <DistanceMeters>315744.15039493</DistanceMeters>
          </Trackpoint>
          <Trackpoint>
            <Time>2018-09-14T15:19:35.000Z</Time>
            <Position>
              <LatitudeDegrees>37.54042494110763072967529296875</LatitudeDegrees>
              <LongitudeDegrees>-8.0677854828536510467529296875</LongitudeDegrees>
            </Position>
            <AltitudeMeters>290.79998779296875</AltitudeMeters>
            <DistanceMeters>315752.19293417</DistanceMeters>
          </Trackpoint>
          <Trackpoint>
            <Time>2018-09-14T15:19:36.000Z</Time>
            <Position>
              <LatitudeDegrees>37.54035335965454578399658203125</LatitudeDegrees>
              <LongitudeDegrees>-8.06777047924697399139404296875</LongitudeDegrees>
            </Position>
            <AltitudeMeters>291.20001220703125</AltitudeMeters>
            <DistanceMeters>315760.2696459</DistanceMeters>
          </Trackpoint>
          <Trackpoint>
            <Time>2018-09-14T15:19:37.000Z</Time>
            <Position>
              <LatitudeDegrees>37.54028345458209514617919921875</LatitudeDegrees>
              <LongitudeDegrees>-8.06775740347802639007568359375</LongitudeDegrees>
            </Position>
            <AltitudeMeters>291.399993896484375</AltitudeMeters>
            <DistanceMeters>315768.13565402</DistanceMeters>
          </Trackpoint>
          <Trackpoint>
            <Time>2018-09-14T15:19:38.000Z</Time>
            <Position>
              <LatitudeDegrees>37.5402136333286762237548828125</LatitudeDegrees>
              <LongitudeDegrees>-8.06773929856717586517333984375</LongitudeDegrees>
            </Position>
            <AltitudeMeters>291.79998779296875</AltitudeMeters>
            <DistanceMeters>315776.06910427</DistanceMeters>
          </Trackpoint>
          <Trackpoint>
            <Time>2018-09-14T15:19:39.000Z</Time>
            <Position>
              <LatitudeDegrees>37.54014347679913043975830078125</LatitudeDegrees>
              <LongitudeDegrees>-8.06772119365632534027099609375</LongitudeDegrees>
            </Position>
            <AltitudeMeters>292.20001220703125</AltitudeMeters>
            <DistanceMeters>315784.04002754</DistanceMeters>
          </Trackpoint>
          <Trackpoint>
            <Time>2018-09-14T15:19:40.000Z</Time>
            <Position>
              <LatitudeDegrees>37.5400741584599018096923828125</LatitudeDegrees>
              <LongitudeDegrees>-8.06770627386868000030517578125</LongitudeDegrees>
            </Position>
            <AltitudeMeters>292.600006103515625</AltitudeMeters>
            <DistanceMeters>315791.86632989</DistanceMeters>
          </Trackpoint>
          <Trackpoint>
            <Time>2018-09-14T15:19:41.000Z</Time>
            <Position>
              <LatitudeDegrees>37.54000618122518062591552734375</LatitudeDegrees>
              <LongitudeDegrees>-8.06768707931041717529296875</LongitudeDegrees>
            </Position>
            <AltitudeMeters>292.79998779296875</AltitudeMeters>
            <DistanceMeters>315799.61901903</DistanceMeters>
          </Trackpoint>
          <Trackpoint>
            <Time>2018-09-14T15:19:42.000Z</Time>
            <Position>
              <LatitudeDegrees>37.53993677906692028045654296875</LatitudeDegrees>
              <LongitudeDegrees>-8.067670650780200958251953125</LongitudeDegrees>
            </Position>
            <AltitudeMeters>292.600006103515625</AltitudeMeters>
            <DistanceMeters>315807.47871069</DistanceMeters>
          </Trackpoint>
          <Trackpoint>
            <Time>2018-09-14T15:19:43.000Z</Time>
            <Position>
              <LatitudeDegrees>37.53986804746091365814208984375</LatitudeDegrees>
              <LongitudeDegrees>-8.06765480898320674896240234375</LongitudeDegrees>
            </Position>
            <AltitudeMeters>292.600006103515625</AltitudeMeters>
            <DistanceMeters>315815.25582146</DistanceMeters>
          </Trackpoint>
          <Trackpoint>
            <Time>2018-09-14T15:19:44.000Z</Time>
            <Position>
              <LatitudeDegrees>37.5398005731403827667236328125</LatitudeDegrees>
              <LongitudeDegrees>-8.06763988919556140899658203125</LongitudeDegrees>
            </Position>
            <AltitudeMeters>292.600006103515625</AltitudeMeters>
            <DistanceMeters>315822.88049405</DistanceMeters>
          </Trackpoint>
          <Trackpoint>
            <Time>2018-09-14T15:19:45.000Z</Time>
            <Position>
              <LatitudeDegrees>37.53973511047661304473876953125</LatitudeDegrees>
              <LongitudeDegrees>-8.06762563996016979217529296875</LongitudeDegrees>
            </Position>
            <AltitudeMeters>292.600006103515625</AltitudeMeters>
            <DistanceMeters>315830.27428082</DistanceMeters>
          </Trackpoint>
          <Trackpoint>
            <Time>2018-09-14T15:19:46.000Z</Time>
            <Position>
              <LatitudeDegrees>37.5396708212792873382568359375</LatitudeDegrees>
              <LongitudeDegrees>-8.06761357001960277557373046875</LongitudeDegrees>
            </Position>
            <AltitudeMeters>292.600006103515625</AltitudeMeters>
            <DistanceMeters>315837.50880383</DistanceMeters>
          </Trackpoint>
          <Trackpoint>
            <Time>2018-09-14T15:19:47.000Z</Time>
            <Position>
              <LatitudeDegrees>37.539606951177120208740234375</LatitudeDegrees>
              <LongitudeDegrees>-8.06760049425065517425537109375</LongitudeDegrees>
            </Position>
            <AltitudeMeters>292.399993896484375</AltitudeMeters>
            <DistanceMeters>315844.71080071</DistanceMeters>
          </Trackpoint>
          <Trackpoint>
            <Time>2018-09-14T15:19:48.000Z</Time>
            <Position>
              <LatitudeDegrees>37.53954534418880939483642578125</LatitudeDegrees>
              <LongitudeDegrees>-8.06758574210107326507568359375</LongitudeDegrees>
            </Position>
            <AltitudeMeters>292.399993896484375</AltitudeMeters>
            <DistanceMeters>315851.68992904</DistanceMeters>
          </Trackpoint>
          <Trackpoint>
            <Time>2018-09-14T15:19:49.000Z</Time>
            <Position>
              <LatitudeDegrees>37.5394840724766254425048828125</LatitudeDegrees>
              <LongitudeDegrees>-8.0675702355802059173583984375</LongitudeDegrees>
            </Position>
            <AltitudeMeters>292.20001220703125</AltitudeMeters>
            <DistanceMeters>315858.64572875</DistanceMeters>
          </Trackpoint>
          <Trackpoint>
            <Time>2018-09-14T15:19:50.000Z</Time>
            <Position>
              <LatitudeDegrees>37.53942347131669521331787109375</LatitudeDegrees>
              <LongitudeDegrees>-8.0675564892590045928955078125</LongitudeDegrees>
            </Position>
            <AltitudeMeters>292.20001220703125</AltitudeMeters>
            <DistanceMeters>315865.49952023</DistanceMeters>
          </Trackpoint>
          <Trackpoint>
            <Time>2018-09-14T15:19:51.000Z</Time>
            <Position>
              <LatitudeDegrees>37.539365552365779876708984375</LatitudeDegrees>
              <LongitudeDegrees>-8.06754182092845439910888671875</LongitudeDegrees>
            </Position>
            <AltitudeMeters>292</AltitudeMeters>
            <DistanceMeters>315872.07424273</DistanceMeters>
          </Trackpoint>
          <Trackpoint>
            <Time>2018-09-14T15:19:52.000Z</Time>
            <Position>
              <LatitudeDegrees>37.539309225976467132568359375</LatitudeDegrees>
              <LongitudeDegrees>-8.06752690114080905914306640625</LongitudeDegrees>
            </Position>
            <AltitudeMeters>292</AltitudeMeters>
            <DistanceMeters>315878.47991735</DistanceMeters>
          </Trackpoint>
          <Trackpoint>
            <Time>2018-09-14T15:19:53.000Z</Time>
            <Position>
              <LatitudeDegrees>37.5392523966729640960693359375</LatitudeDegrees>
              <LongitudeDegrees>-8.06751030497252941131591796875</LongitudeDegrees>
            </Position>
            <AltitudeMeters>291.79998779296875</AltitudeMeters>
            <DistanceMeters>315884.97240508</DistanceMeters>
          </Trackpoint>
          <Trackpoint>
            <Time>2018-09-14T15:19:54.000Z</Time>
            <Position>
              <LatitudeDegrees>37.53919623792171478271484375</LatitudeDegrees>
              <LongitudeDegrees>-8.067493624985218048095703125</LongitudeDegrees>
            </Position>
            <AltitudeMeters>292</AltitudeMeters>
            <DistanceMeters>315891.39427078</DistanceMeters>
          </Trackpoint>
          <Trackpoint>
            <Time>2018-09-14T15:19:55.000Z</Time>
            <Position>
              <LatitudeDegrees>37.53914100117981433868408203125</LatitudeDegrees>
              <LongitudeDegrees>-8.06747644208371639251708984375</LongitudeDegrees>
            </Position>
            <AltitudeMeters>292.20001220703125</AltitudeMeters>
            <DistanceMeters>315897.72692974</DistanceMeters>
          </Trackpoint>
          <Trackpoint>
            <Time>2018-09-14T15:19:56.000Z</Time>
            <Position>
              <LatitudeDegrees>37.53908517770469188690185546875</LatitudeDegrees>
              <LongitudeDegrees>-8.06746185757219791412353515625</LongitudeDegrees>
            </Position>
            <AltitudeMeters>292.399993896484375</AltitudeMeters>
            <DistanceMeters>315904.07169773</DistanceMeters>
          </Trackpoint>
          <Trackpoint>
            <Time>2018-09-14T15:19:57.000Z</Time>
            <Position>
              <LatitudeDegrees>37.539028264582157135009765625</LatitudeDegrees>
              <LongitudeDegrees>-8.06744995526969432830810546875</LongitudeDegrees>
            </Position>
            <AltitudeMeters>292.600006103515625</AltitudeMeters>
            <DistanceMeters>315910.49145387</DistanceMeters>
          </Trackpoint>
          <Trackpoint>
            <Time>2018-09-14T15:19:58.000Z</Time>
            <Position>
              <LatitudeDegrees>37.53897168673574924468994140625</LatitudeDegrees>
              <LongitudeDegrees>-8.06743822060525417327880859375</LongitudeDegrees>
            </Position>
            <AltitudeMeters>292.600006103515625</AltitudeMeters>
            <DistanceMeters>315916.8731186</DistanceMeters>
          </Trackpoint>
          <Trackpoint>
            <Time>2018-09-14T15:19:59.000Z</Time>
            <Position>
              <LatitudeDegrees>37.53891485743224620819091796875</LatitudeDegrees>
              <LongitudeDegrees>-8.067423887550830841064453125</LongitudeDegrees>
            </Position>
            <AltitudeMeters>292.79998779296875</AltitudeMeters>
            <DistanceMeters>315923.32374587</DistanceMeters>
          </Trackpoint>
          <Trackpoint>
            <Time>2018-09-14T15:20:00.000Z</Time>
            <Position>
              <LatitudeDegrees>37.53885836340487003326416015625</LatitudeDegrees>
              <LongitudeDegrees>-8.0674088001251220703125</LongitudeDegrees>
            </Position>
            <AltitudeMeters>293</AltitudeMeters>
            <DistanceMeters>315929.7505312</DistanceMeters>
          </Trackpoint>
          <Trackpoint>
            <Time>2018-09-14T15:20:01.000Z</Time>
            <Position>
              <LatitudeDegrees>37.5388012826442718505859375</LatitudeDegrees>
              <LongitudeDegrees>-8.067395389080047607421875</LongitudeDegrees>
            </Position>
            <AltitudeMeters>293.20001220703125</AltitudeMeters>
            <DistanceMeters>315936.21304647</DistanceMeters>
          </Trackpoint>
          <Trackpoint>
            <Time>2018-09-14T15:20:02.000Z</Time>
            <Position>
              <LatitudeDegrees>37.5387449562549591064453125</LatitudeDegrees>
              <LongitudeDegrees>-8.06738264858722686767578125</LongitudeDegrees>
            </Position>
            <AltitudeMeters>293.20001220703125</AltitudeMeters>
            <DistanceMeters>315942.58267232</DistanceMeters>
          </Trackpoint>
          <Trackpoint>
            <Time>2018-09-14T15:20:03.000Z</Time>
            <Position>
              <LatitudeDegrees>37.538690306246280670166015625</LatitudeDegrees>
              <LongitudeDegrees>-8.0673710815608501434326171875</LongitudeDegrees>
            </Position>
            <AltitudeMeters>293.399993896484375</AltitudeMeters>
            <DistanceMeters>315948.75136279</DistanceMeters>
          </Trackpoint>
          <Trackpoint>
            <Time>2018-09-14T15:20:04.000Z</Time>
            <Position>
              <LatitudeDegrees>37.53863607533276081085205078125</LatitudeDegrees>
              <LongitudeDegrees>-8.06735909543931484222412109375</LongitudeDegrees>
            </Position>
            <AltitudeMeters>293.600006103515625</AltitudeMeters>
            <DistanceMeters>315954.879665</DistanceMeters>
          </Trackpoint>
          <Trackpoint>
            <Time>2018-09-14T15:20:05.000Z</Time>
            <Position>
              <LatitudeDegrees>37.53858159296214580535888671875</LatitudeDegrees>
              <LongitudeDegrees>-8.06734736077487468719482421875</LongitudeDegrees>
            </Position>
            <AltitudeMeters>293.79998779296875</AltitudeMeters>
            <DistanceMeters>315961.03149809</DistanceMeters>
          </Trackpoint>
          <Trackpoint>
            <Time>2018-09-14T15:20:06.000Z</Time>
            <Position>
              <LatitudeDegrees>37.538527362048625946044921875</LatitudeDegrees>
              <LongitudeDegrees>-8.06733512319624423980712890625</LongitudeDegrees>
            </Position>
            <AltitudeMeters>293.79998779296875</AltitudeMeters>
            <DistanceMeters>315967.16348295</DistanceMeters>
          </Trackpoint>
          <Trackpoint>
            <Time>2018-09-14T15:20:07.000Z</Time>
            <Position>
              <LatitudeDegrees>37.538472376763820648193359375</LatitudeDegrees>
              <LongitudeDegrees>-8.06732154451310634613037109375</LongitudeDegrees>
            </Position>
            <AltitudeMeters>294</AltitudeMeters>
            <DistanceMeters>315973.4005952</DistanceMeters>
          </Trackpoint>
          <Trackpoint>
            <Time>2018-09-14T15:20:08.000Z</Time>
            <Position>
              <LatitudeDegrees>37.5384162180125713348388671875</LatitudeDegrees>
              <LongitudeDegrees>-8.06730662472546100616455078125</LongitudeDegrees>
            </Position>
            <AltitudeMeters>294.20001220703125</AltitudeMeters>
            <DistanceMeters>315979.78862428</DistanceMeters>
          </Trackpoint>
          <Trackpoint>
            <Time>2018-09-14T15:20:09.000Z</Time>
            <Position>
              <LatitudeDegrees>37.53835938870906829833984375</LatitudeDegrees>
              <LongitudeDegrees>-8.06729170493781566619873046875</LongitudeDegrees>
            </Position>
            <AltitudeMeters>294.399993896484375</AltitudeMeters>
            <DistanceMeters>315986.24904325</DistanceMeters>
          </Trackpoint>
          <Trackpoint>
            <Time>2018-09-14T15:20:10.000Z</Time>
            <Position>
              <LatitudeDegrees>37.53830180503427982330322265625</LatitudeDegrees>
              <LongitudeDegrees>-8.067277036607265472412109375</LongitudeDegrees>
            </Position>
            <AltitudeMeters>294.399993896484375</AltitudeMeters>
            <DistanceMeters>315992.78726793</DistanceMeters>
          </Trackpoint>
          <Trackpoint>
            <Time>2018-09-14T15:20:11.000Z</Time>
            <Position>
              <LatitudeDegrees>37.53824363462626934051513671875</LatitudeDegrees>
              <LongitudeDegrees>-8.06726236827671527862548828125</LongitudeDegrees>
            </Position>
            <AltitudeMeters>294.600006103515625</AltitudeMeters>
            <DistanceMeters>315999.39008619</DistanceMeters>
          </Trackpoint>
          <Trackpoint>
            <Time>2018-09-14T15:20:12.000Z</Time>
            <Position>
              <LatitudeDegrees>37.53818445838987827301025390625</LatitudeDegrees>
              <LongitudeDegrees>-8.06724962778389453887939453125</LongitudeDegrees>
            </Position>
            <AltitudeMeters>294.600006103515625</AltitudeMeters>
            <DistanceMeters>316006.07243069</DistanceMeters>
          </Trackpoint>
          <Trackpoint>
            <Time>2018-09-14T15:20:13.000Z</Time>
            <Position>
              <LatitudeDegrees>37.538123689591884613037109375</LatitudeDegrees>
              <LongitudeDegrees>-8.06723537854850292205810546875</LongitudeDegrees>
            </Position>
            <AltitudeMeters>294.600006103515625</AltitudeMeters>
            <DistanceMeters>316012.9512097</DistanceMeters>
          </Trackpoint>
          <Trackpoint>
            <Time>2018-09-14T15:20:14.000Z</Time>
            <Position>
              <LatitudeDegrees>37.53806166350841522216796875</LatitudeDegrees>
              <LongitudeDegrees>-8.06722037494182586669921875</LongitudeDegrees>
            </Position>
            <AltitudeMeters>294.79998779296875</AltitudeMeters>
            <DistanceMeters>316019.9806178</DistanceMeters>
          </Trackpoint>
          <Trackpoint>
            <Time>2018-09-14T15:20:15.000Z</Time>
            <Position>
              <LatitudeDegrees>37.5379991345107555389404296875</LatitudeDegrees>
              <LongitudeDegrees>-8.06720604188740253448486328125</LongitudeDegrees>
            </Position>
            <AltitudeMeters>294.79998779296875</AltitudeMeters>
            <DistanceMeters>316027.05484452</DistanceMeters>
          </Trackpoint>
          <Trackpoint>
            <Time>2018-09-14T15:20:16.000Z</Time>
            <Position>
              <LatitudeDegrees>37.53793559968471527099609375</LatitudeDegrees>
              <LongitudeDegrees>-8.0671910382807254791259765625</LongitudeDegrees>
            </Position>
            <AltitudeMeters>295</AltitudeMeters>
            <DistanceMeters>316034.24931449</DistanceMeters>
          </Trackpoint>
          <Trackpoint>
            <Time>2018-09-14T15:20:17.000Z</Time>
            <Position>
              <LatitudeDegrees>37.537871561944484710693359375</LatitudeDegrees>
              <LongitudeDegrees>-8.067176453769207000732421875</LongitudeDegrees>
            </Position>
            <AltitudeMeters>295.20001220703125</AltitudeMeters>
            <DistanceMeters>316041.49256957</DistanceMeters>
          </Trackpoint>
          <Trackpoint>
            <Time>2018-09-14T15:20:18.000Z</Time>
            <Position>
              <LatitudeDegrees>37.53780643455684185028076171875</LatitudeDegrees>
              <LongitudeDegrees>-8.06716346181929111480712890625</LongitudeDegrees>
            </Position>
            <AltitudeMeters>295.399993896484375</AltitudeMeters>
            <DistanceMeters>316048.83180699</DistanceMeters>
          </Trackpoint>
          <Trackpoint>
            <Time>2018-09-14T15:20:19.000Z</Time>
            <Position>
              <LatitudeDegrees>37.53774155862629413604736328125</LatitudeDegrees>
              <LongitudeDegrees>-8.06714787147939205169677734375</LongitudeDegrees>
            </Position>
            <AltitudeMeters>295.600006103515625</AltitudeMeters>
            <DistanceMeters>316056.18272377</DistanceMeters>
          </Trackpoint>
          <Trackpoint>
            <Time>2018-09-14T15:20:20.000Z</Time>
            <Position>
              <LatitudeDegrees>37.53767810761928558349609375</LatitudeDegrees>
              <LongitudeDegrees>-8.06713311932981014251708984375</LongitudeDegrees>
            </Position>
            <AltitudeMeters>295.600006103515625</AltitudeMeters>
            <DistanceMeters>316063.36463136</DistanceMeters>
          </Trackpoint>
          <Trackpoint>
            <Time>2018-09-14T15:20:21.000Z</Time>
            <Position>
              <LatitudeDegrees>37.53761415369808673858642578125</LatitudeDegrees>
              <LongitudeDegrees>-8.06711937300860881805419921875</LongitudeDegrees>
            </Position>
            <AltitudeMeters>295.79998779296875</AltitudeMeters>
            <DistanceMeters>316070.58541119</DistanceMeters>
          </Trackpoint>
          <Trackpoint>
            <Time>2018-09-14T15:20:22.000Z</Time>
            <Position>
              <LatitudeDegrees>37.53755045123398303985595703125</LatitudeDegrees>
              <LongitudeDegrees>-8.06710495613515377044677734375</LongitudeDegrees>
            </Position>
            <AltitudeMeters>296</AltitudeMeters>
            <DistanceMeters>316077.7886618</DistanceMeters>
          </Trackpoint>
          <Trackpoint>
            <Time>2018-09-14T15:20:23.000Z</Time>
            <Position>
              <LatitudeDegrees>37.53748674876987934112548828125</LatitudeDegrees>
              <LongitudeDegrees>-8.06709070689976215362548828125</LongitudeDegrees>
            </Position>
            <AltitudeMeters>296.20001220703125</AltitudeMeters>
            <DistanceMeters>316084.98940474</DistanceMeters>
          </Trackpoint>
          <Trackpoint>
            <Time>2018-09-14T15:20:24.000Z</Time>
            <Position>
              <LatitudeDegrees>37.5374238006770610809326171875</LatitudeDegrees>
              <LongitudeDegrees>-8.0670775473117828369140625</LongitudeDegrees>
            </Position>
            <AltitudeMeters>296</AltitudeMeters>
            <DistanceMeters>316092.0916584</DistanceMeters>
          </Trackpoint>
          <Trackpoint>
            <Time>2018-09-14T15:20:25.000Z</Time>
            <Position>
              <LatitudeDegrees>37.53736319951713085174560546875</LatitudeDegrees>
              <LongitudeDegrees>-8.06706589646637439727783203125</LongitudeDegrees>
            </Position>
            <AltitudeMeters>296</AltitudeMeters>
            <DistanceMeters>316098.9150794</DistanceMeters>
          </Trackpoint>
          <Trackpoint>
            <Time>2018-09-14T15:20:26.000Z</Time>
            <Position>
              <LatitudeDegrees>37.53730167634785175323486328125</LatitudeDegrees>
              <LongitudeDegrees>-8.06705382652580738067626953125</LongitudeDegrees>
            </Position>
            <AltitudeMeters>295.79998779296875</AltitudeMeters>
            <DistanceMeters>316105.84551781</DistanceMeters>
          </Trackpoint>
          <Trackpoint>
            <Time>2018-09-14T15:20:27.000Z</Time>
            <Position>
              <LatitudeDegrees>37.53724099136888980865478515625</LatitudeDegrees>
              <LongitudeDegrees>-8.06704192422330379486083984375</LongitudeDegrees>
            </Position>
            <AltitudeMeters>295.600006103515625</AltitudeMeters>
            <DistanceMeters>316112.68083898</DistanceMeters>
          </Trackpoint>
          <Trackpoint>
            <Time>2018-09-14T15:20:28.000Z</Time>
            <Position>
              <LatitudeDegrees>37.5371813960373401641845703125</LatitudeDegrees>
              <LongitudeDegrees>-8.06702985428273677825927734375</LongitudeDegrees>
            </Position>
            <AltitudeMeters>295.600006103515625</AltitudeMeters>
            <DistanceMeters>316119.39889838</DistanceMeters>
          </Trackpoint>
          <Trackpoint>
            <Time>2018-09-14T15:20:29.000Z</Time>
            <Position>
              <LatitudeDegrees>37.53712146542966365814208984375</LatitudeDegrees>
              <LongitudeDegrees>-8.06701778434216976165771484375</LongitudeDegrees>
            </Position>
            <AltitudeMeters>295.600006103515625</AltitudeMeters>
            <DistanceMeters>316126.15382075</DistanceMeters>
          </Trackpoint>
          <Trackpoint>
            <Time>2018-09-14T15:20:30.000Z</Time>
            <Position>
              <LatitudeDegrees>37.53706010989844799041748046875</LatitudeDegrees>
              <LongitudeDegrees>-8.0670051276683807373046875</LongitudeDegrees>
            </Position>
            <AltitudeMeters>295.600006103515625</AltitudeMeters>
            <DistanceMeters>316133.07317515</DistanceMeters>
          </Trackpoint>
          <Trackpoint>
            <Time>2018-09-14T15:20:31.000Z</Time>
            <Position>
              <LatitudeDegrees>37.5369983352720737457275390625</LatitudeDegrees>
              <LongitudeDegrees>-8.06699104607105255126953125</LongitudeDegrees>
            </Position>
            <AltitudeMeters>295.600006103515625</AltitudeMeters>
            <DistanceMeters>316140.06006239</DistanceMeters>
          </Trackpoint>
          <Trackpoint>
            <Time>2018-09-14T15:20:32.000Z</Time>
            <Position>
              <LatitudeDegrees>37.5369358062744140625</LatitudeDegrees>
              <LongitudeDegrees>-8.06697537191212177276611328125</LongitudeDegrees>
            </Position>
            <AltitudeMeters>295.600006103515625</AltitudeMeters>
            <DistanceMeters>316147.15531969</DistanceMeters>
          </Trackpoint>
          <Trackpoint>
            <Time>2018-09-14T15:20:33.000Z</Time>
            <Position>
              <LatitudeDegrees>37.536871768534183502197265625</LatitudeDegrees>
              <LongitudeDegrees>-8.06696129031479358673095703125</LongitudeDegrees>
            </Position>
            <AltitudeMeters>295.600006103515625</AltitudeMeters>
            <DistanceMeters>316154.38984269</DistanceMeters>
          </Trackpoint>
          <Trackpoint>
            <Time>2018-09-14T15:20:34.000Z</Time>
            <Position>
              <LatitudeDegrees>37.53680747933685779571533203125</LatitudeDegrees>
              <LongitudeDegrees>-8.06694553233683109283447265625</LongitudeDegrees>
            </Position>
            <AltitudeMeters>295.399993896484375</AltitudeMeters>
            <DistanceMeters>316161.67907926</DistanceMeters>
          </Trackpoint>
          <Trackpoint>
            <Time>2018-09-14T15:20:35.000Z</Time>
            <Position>
              <LatitudeDegrees>37.53674394451081752777099609375</LatitudeDegrees>
              <LongitudeDegrees>-8.06692843325436115264892578125</LongitudeDegrees>
            </Position>
            <AltitudeMeters>295.399993896484375</AltitudeMeters>
            <DistanceMeters>316168.90985672</DistanceMeters>
          </Trackpoint>
          <Trackpoint>
            <Time>2018-09-14T15:20:36.000Z</Time>
            <Position>
              <LatitudeDegrees>37.5366804935038089752197265625</LatitudeDegrees>
              <LongitudeDegrees>-8.0669127590954303741455078125</LongitudeDegrees>
            </Position>
            <AltitudeMeters>295.399993896484375</AltitudeMeters>
            <DistanceMeters>316176.10683654</DistanceMeters>
          </Trackpoint>
          <Trackpoint>
            <Time>2018-09-14T15:20:37.000Z</Time>
            <Position>
              <LatitudeDegrees>37.53661637194454669952392578125</LatitudeDegrees>
              <LongitudeDegrees>-8.066897504031658172607421875</LongitudeDegrees>
            </Position>
            <AltitudeMeters>295.600006103515625</AltitudeMeters>
            <DistanceMeters>316183.37001123</DistanceMeters>
          </Trackpoint>
          <Trackpoint>
            <Time>2018-09-14T15:20:38.000Z</Time>
            <Position>
              <LatitudeDegrees>37.5365524180233478546142578125</LatitudeDegrees>
              <LongitudeDegrees>-8.0668835900723934173583984375</LongitudeDegrees>
            </Position>
            <AltitudeMeters>295.79998779296875</AltitudeMeters>
            <DistanceMeters>316190.59329176</DistanceMeters>
          </Trackpoint>
          <Trackpoint>
            <Time>2018-09-14T15:20:39.000Z</Time>
            <Position>
              <LatitudeDegrees>37.536488883197307586669921875</LatitudeDegrees>
              <LongitudeDegrees>-8.06687177158892154693603515625</LongitudeDegrees>
            </Position>
            <AltitudeMeters>295.79998779296875</AltitudeMeters>
            <DistanceMeters>316197.74180228</DistanceMeters>
          </Trackpoint>
          <Trackpoint>
            <Time>2018-09-14T15:20:40.000Z</Time>
            <Position>
              <LatitudeDegrees>37.53642543219029903411865234375</LatitudeDegrees>
              <LongitudeDegrees>-8.06685827672481536865234375</LongitudeDegrees>
            </Position>
            <AltitudeMeters>296</AltitudeMeters>
            <DistanceMeters>316204.90356423</DistanceMeters>
          </Trackpoint>
          <Trackpoint>
            <Time>2018-09-14T15:20:41.000Z</Time>
            <Position>
              <LatitudeDegrees>37.53636181354522705078125</LatitudeDegrees>
              <LongitudeDegrees>-8.06684478186070919036865234375</LongitudeDegrees>
            </Position>
            <AltitudeMeters>296</AltitudeMeters>
            <DistanceMeters>316212.08358557</DistanceMeters>
          </Trackpoint>
          <Trackpoint>
            <Time>2018-09-14T15:20:42.000Z</Time>
            <Position>
              <LatitudeDegrees>37.5362987816333770751953125</LatitudeDegrees>
              <LongitudeDegrees>-8.06682868860661983489990234375</LongitudeDegrees>
            </Position>
            <AltitudeMeters>296.20001220703125</AltitudeMeters>
            <DistanceMeters>316219.24156389</DistanceMeters>
          </Trackpoint>
          <Trackpoint>
            <Time>2018-09-14T15:20:43.000Z</Time>
            <Position>
              <LatitudeDegrees>37.536236755549907684326171875</LatitudeDegrees>
              <LongitudeDegrees>-8.06681293062865734100341796875</LongitudeDegrees>
            </Position>
            <AltitudeMeters>296.399993896484375</AltitudeMeters>
            <DistanceMeters>316226.28380642</DistanceMeters>
          </Trackpoint>
          <Trackpoint>
            <Time>2018-09-14T15:20:44.000Z</Time>
            <Position>
              <LatitudeDegrees>37.5361752323806285858154296875</LatitudeDegrees>
              <LongitudeDegrees>-8.0667991004884243011474609375</LongitudeDegrees>
            </Position>
            <AltitudeMeters>296.399993896484375</AltitudeMeters>
            <DistanceMeters>316233.23960613</DistanceMeters>
          </Trackpoint>
          <Trackpoint>
            <Time>2018-09-14T15:20:45.000Z</Time>
            <Position>
              <LatitudeDegrees>37.53611261956393718719482421875</LatitudeDegrees>
              <LongitudeDegrees>-8.06678459979593753814697265625</LongitudeDegrees>
            </Position>
            <AltitudeMeters>296.600006103515625</AltitudeMeters>
            <DistanceMeters>316240.32531181</DistanceMeters>
          </Trackpoint>
          <Trackpoint>
            <Time>2018-09-14T15:20:46.000Z</Time>
            <Position>
              <LatitudeDegrees>37.536049000918865203857421875</LatitudeDegrees>
              <LongitudeDegrees>-8.06677035056054592132568359375</LongitudeDegrees>
            </Position>
            <AltitudeMeters>296.79998779296875</AltitudeMeters>
            <DistanceMeters>316247.51727106</DistanceMeters>
          </Trackpoint>
          <Trackpoint>
            <Time>2018-09-14T15:20:47.000Z</Time>
            <Position>
              <LatitudeDegrees>37.53598588518798351287841796875</LatitudeDegrees>
              <LongitudeDegrees>-8.066756017506122589111328125</LongitudeDegrees>
            </Position>
            <AltitudeMeters>296.79998779296875</AltitudeMeters>
            <DistanceMeters>316254.65503621</DistanceMeters>
          </Trackpoint>
          <Trackpoint>
            <Time>2018-09-14T15:20:48.000Z</Time>
            <Position>
              <LatitudeDegrees>37.53592394292354583740234375</LatitudeDegrees>
              <LongitudeDegrees>-8.06674269028007984161376953125</LongitudeDegrees>
            </Position>
            <AltitudeMeters>296.79998779296875</AltitudeMeters>
            <DistanceMeters>316261.64902821</DistanceMeters>
          </Trackpoint>
          <Trackpoint>
            <Time>2018-09-14T15:20:49.000Z</Time>
            <Position>
              <LatitudeDegrees>37.5358614139258861541748046875</LatitudeDegrees>
              <LongitudeDegrees>-8.066730201244354248046875</LongitudeDegrees>
            </Position>
            <AltitudeMeters>297</AltitudeMeters>
            <DistanceMeters>316268.69575727</DistanceMeters>
          </Trackpoint>
          <Trackpoint>
            <Time>2018-09-14T15:20:50.000Z</Time>
            <Position>
              <LatitudeDegrees>37.5357990525662899017333984375</LatitudeDegrees>
              <LongitudeDegrees>-8.06671704165637493133544921875</LongitudeDegrees>
            </Position>
            <AltitudeMeters>297</AltitudeMeters>
            <DistanceMeters>316275.73286883</DistanceMeters>
          </Trackpoint>
          <Trackpoint>
            <Time>2018-09-14T15:20:51.000Z</Time>
            <Position>
              <LatitudeDegrees>37.5357363559305667877197265625</LatitudeDegrees>
              <LongitudeDegrees>-8.06670245714485645294189453125</LongitudeDegrees>
            </Position>
            <AltitudeMeters>297.20001220703125</AltitudeMeters>
            <DistanceMeters>316282.82876245</DistanceMeters>
          </Trackpoint>
          <Trackpoint>
            <Time>2018-09-14T15:20:52.000Z</Time>
            <Position>
              <LatitudeDegrees>37.53567357547581195831298828125</LatitudeDegrees>
              <LongitudeDegrees>-8.06668720208108425140380859375</LongitudeDegrees>
            </Position>
            <AltitudeMeters>297.399993896484375</AltitudeMeters>
            <DistanceMeters>316289.94498819</DistanceMeters>
          </Trackpoint>
          <Trackpoint>
            <Time>2018-09-14T15:20:53.000Z</Time>
            <Position>
              <LatitudeDegrees>37.5356112979352474212646484375</LatitudeDegrees>
              <LongitudeDegrees>-8.06667177937924861907958984375</LongitudeDegrees>
            </Position>
            <AltitudeMeters>297.399993896484375</AltitudeMeters>
            <DistanceMeters>316297.00899572</DistanceMeters>
          </Trackpoint>
          <Trackpoint>
            <Time>2018-09-14T15:20:54.000Z</Time>
            <Position>
              <LatitudeDegrees>37.53555036149919033050537109375</LatitudeDegrees>
              <LongitudeDegrees>-8.06665711104869842529296875</LongitudeDegrees>
            </Position>
            <AltitudeMeters>297.600006103515625</AltitudeMeters>
            <DistanceMeters>316303.9126718</DistanceMeters>
          </Trackpoint>
          <Trackpoint>
            <Time>2018-09-14T15:20:55.000Z</Time>
            <Position>
              <LatitudeDegrees>37.53548900596797466278076171875</LatitudeDegrees>
              <LongitudeDegrees>-8.06664311327040195465087890625</LongitudeDegrees>
            </Position>
            <AltitudeMeters>297.600006103515625</AltitudeMeters>
            <DistanceMeters>316310.85287553</DistanceMeters>
          </Trackpoint>
          <Trackpoint>
            <Time>2018-09-14T15:20:56.000Z</Time>
            <Position>
              <LatitudeDegrees>37.53542773425579071044921875</LatitudeDegrees>
              <LongitudeDegrees>-8.06662836112082004547119140625</LongitudeDegrees>
            </Position>
            <AltitudeMeters>297.79998779296875</AltitudeMeters>
            <DistanceMeters>316317.79568102</DistanceMeters>
          </Trackpoint>
          <Trackpoint>
            <Time>2018-09-14T15:20:57.000Z</Time>
            <Position>
              <LatitudeDegrees>37.5353658758103847503662109375</LatitudeDegrees>
              <LongitudeDegrees>-8.066614530980587005615234375</LongitudeDegrees>
            </Position>
            <AltitudeMeters>298</AltitudeMeters>
            <DistanceMeters>316324.78773607</DistanceMeters>
          </Trackpoint>
          <Trackpoint>
            <Time>2018-09-14T15:20:58.000Z</Time>
            <Position>
              <LatitudeDegrees>37.5353028438985347747802734375</LatitudeDegrees>
              <LongitudeDegrees>-8.06659835390746593475341796875</LongitudeDegrees>
            </Position>
            <AltitudeMeters>298</AltitudeMeters>
            <DistanceMeters>316331.94697583</DistanceMeters>
          </Trackpoint>
          <Trackpoint>
            <Time>2018-09-14T15:20:59.000Z</Time>
            <Position>
              <LatitudeDegrees>37.535240650177001953125</LatitudeDegrees>
              <LongitudeDegrees>-8.0665835179388523101806640625</LongitudeDegrees>
            </Position>
            <AltitudeMeters>298.20001220703125</AltitudeMeters>
            <DistanceMeters>316338.99178244</DistanceMeters>
          </Trackpoint>
          <Trackpoint>
            <Time>2018-09-14T15:21:00.000Z</Time>
            <Position>
              <LatitudeDegrees>37.53518097102642059326171875</LatitudeDegrees>
              <LongitudeDegrees>-8.06656918488442897796630859375</LongitudeDegrees>
            </Position>
            <AltitudeMeters>298.399993896484375</AltitudeMeters>
            <DistanceMeters>316345.7527178</DistanceMeters>
          </Trackpoint>
          <Trackpoint>
            <Time>2018-09-14T15:21:01.000Z</Time>
            <Position>
              <LatitudeDegrees>37.53512196242809295654296875</LatitudeDegrees>
              <LongitudeDegrees>-8.06655325926840305328369140625</LongitudeDegrees>
            </Position>
            <AltitudeMeters>298.600006103515625</AltitudeMeters>
            <DistanceMeters>316352.46943291</DistanceMeters>
          </Trackpoint>
          <Trackpoint>
            <Time>2018-09-14T15:21:02.000Z</Time>
            <Position>
              <LatitudeDegrees>37.53506027162075042724609375</LatitudeDegrees>
              <LongitudeDegrees>-8.0665369145572185516357421875</LongitudeDegrees>
            </Position>
            <AltitudeMeters>298.79998779296875</AltitudeMeters>
            <DistanceMeters>316359.4853396</DistanceMeters>
          </Trackpoint>
          <Trackpoint>
            <Time>2018-09-14T15:21:03.000Z</Time>
            <Position>
              <LatitudeDegrees>37.53499832935631275177001953125</LatitudeDegrees>
              <LongitudeDegrees>-8.06652174331247806549072265625</LongitudeDegrees>
            </Position>
            <AltitudeMeters>299</AltitudeMeters>
            <DistanceMeters>316366.50896456</DistanceMeters>
          </Trackpoint>
          <Trackpoint>
            <Time>2018-09-14T15:21:04.000Z</Time>
            <Position>
              <LatitudeDegrees>37.53493613563477993011474609375</LatitudeDegrees>
              <LongitudeDegrees>-8.06650782935321331024169921875</LongitudeDegrees>
            </Position>
            <AltitudeMeters>299</AltitudeMeters>
            <DistanceMeters>316373.53965717</DistanceMeters>
          </Trackpoint>
          <Trackpoint>
            <Time>2018-09-14T15:21:05.000Z</Time>
            <Position>
              <LatitudeDegrees>37.5348740257322788238525390625</LatitudeDegrees>
              <LongitudeDegrees>-8.066490478813648223876953125</LongitudeDegrees>
            </Position>
            <AltitudeMeters>298.79998779296875</AltitudeMeters>
            <DistanceMeters>316380.62090102</DistanceMeters>
          </Trackpoint>
          <Trackpoint>
            <Time>2018-09-14T15:21:06.000Z</Time>
            <Position>
              <LatitudeDegrees>37.53481208346784114837646484375</LatitudeDegrees>
              <LongitudeDegrees>-8.06647765450179576873779296875</LongitudeDegrees>
            </Position>
            <AltitudeMeters>298.79998779296875</AltitudeMeters>
            <DistanceMeters>316387.60778825</DistanceMeters>
          </Trackpoint>
          <Trackpoint>
            <Time>2018-09-14T15:21:07.000Z</Time>
            <Position>
              <LatitudeDegrees>37.5347486324608325958251953125</LatitudeDegrees>
              <LongitudeDegrees>-8.0664655007421970367431640625</LongitudeDegrees>
            </Position>
            <AltitudeMeters>298.600006103515625</AltitudeMeters>
            <DistanceMeters>316394.75124414</DistanceMeters>
          </Trackpoint>
          <Trackpoint>
            <Time>2018-09-14T15:21:08.000Z</Time>
            <Position>
              <LatitudeDegrees>37.534685432910919189453125</LatitudeDegrees>
              <LongitudeDegrees>-8.06645083241164684295654296875</LongitudeDegrees>
            </Position>
            <AltitudeMeters>298.600006103515625</AltitudeMeters>
            <DistanceMeters>316401.90354328</DistanceMeters>
          </Trackpoint>
          <Trackpoint>
            <Time>2018-09-14T15:21:09.000Z</Time>
            <Position>
              <LatitudeDegrees>37.53462131135165691375732421875</LatitudeDegrees>
              <LongitudeDegrees>-8.0664349906146526336669921875</LongitudeDegrees>
            </Position>
            <AltitudeMeters>298.600006103515625</AltitudeMeters>
            <DistanceMeters>316409.17541565</DistanceMeters>
          </Trackpoint>
          <Trackpoint>
            <Time>2018-09-14T15:21:10.000Z</Time>
            <Position>
              <LatitudeDegrees>37.5345581956207752227783203125</LatitudeDegrees>
              <LongitudeDegrees>-8.0664177238941192626953125</LongitudeDegrees>
            </Position>
            <AltitudeMeters>298.399993896484375</AltitudeMeters>
            <DistanceMeters>316416.36360717</DistanceMeters>
          </Trackpoint>
          <Trackpoint>
            <Time>2018-09-14T15:21:11.000Z</Time>
            <Position>
              <LatitudeDegrees>37.53449658863246440887451171875</LatitudeDegrees>
              <LongitudeDegrees>-8.06640154682099819183349609375</LongitudeDegrees>
            </Position>
            <AltitudeMeters>298.399993896484375</AltitudeMeters>
            <DistanceMeters>316423.36792051</DistanceMeters>
          </Trackpoint>
          <Trackpoint>
            <Time>2018-09-14T15:21:12.000Z</Time>
            <Position>
              <LatitudeDegrees>37.53443573601543903350830078125</LatitudeDegrees>
              <LongitudeDegrees>-8.0663860403001308441162109375</LongitudeDegrees>
            </Position>
            <AltitudeMeters>298.399993896484375</AltitudeMeters>
            <DistanceMeters>316430.27813355</DistanceMeters>
          </Trackpoint>
          <Trackpoint>
            <Time>2018-09-14T15:21:13.000Z</Time>
            <Position>
              <LatitudeDegrees>37.53437496721744537353515625</LatitudeDegrees>
              <LongitudeDegrees>-8.06637187488377094268798828125</LongitudeDegrees>
            </Position>
            <AltitudeMeters>298.20001220703125</AltitudeMeters>
            <DistanceMeters>316437.15625615</DistanceMeters>
          </Trackpoint>
          <Trackpoint>
            <Time>2018-09-14T15:21:14.000Z</Time>
            <Position>
              <LatitudeDegrees>37.53431352786719799041748046875</LatitudeDegrees>
              <LongitudeDegrees>-8.06635863147675991058349609375</LongitudeDegrees>
            </Position>
            <AltitudeMeters>298.20001220703125</AltitudeMeters>
            <DistanceMeters>316444.09385713</DistanceMeters>
          </Trackpoint>
          <Trackpoint>
            <Time>2018-09-14T15:21:15.000Z</Time>
            <Position>
              <LatitudeDegrees>37.53425116650760173797607421875</LatitudeDegrees>
              <LongitudeDegrees>-8.06634522043168544769287109375</LongitudeDegrees>
            </Position>
            <AltitudeMeters>298</AltitudeMeters>
            <DistanceMeters>316451.13481727</DistanceMeters>
          </Trackpoint>
          <Trackpoint>
            <Time>2018-09-14T15:21:16.000Z</Time>
            <Position>
              <LatitudeDegrees>37.53418897278606891632080078125</LatitudeDegrees>
              <LongitudeDegrees>-8.0663318932056427001953125</LongitudeDegrees>
            </Position>
            <AltitudeMeters>298</AltitudeMeters>
            <DistanceMeters>316458.15587042</DistanceMeters>
          </Trackpoint>
          <Trackpoint>
            <Time>2018-09-14T15:21:17.000Z</Time>
            <Position>
              <LatitudeDegrees>37.53412610851228237152099609375</LatitudeDegrees>
              <LongitudeDegrees>-8.0663184821605682373046875</LongitudeDegrees>
            </Position>
            <AltitudeMeters>298</AltitudeMeters>
            <DistanceMeters>316465.25176404</DistanceMeters>
          </Trackpoint>
          <Trackpoint>
            <Time>2018-09-14T15:21:18.000Z</Time>
            <Position>
              <LatitudeDegrees>37.53406324423849582672119140625</LatitudeDegrees>
              <LongitudeDegrees>-8.066303394734859466552734375</LongitudeDegrees>
            </Position>
            <AltitudeMeters>298</AltitudeMeters>
            <DistanceMeters>316472.37306373</DistanceMeters>
          </Trackpoint>
          <Trackpoint>
            <Time>2018-09-14T15:21:19.000Z</Time>
            <Position>
              <LatitudeDegrees>37.5339996255934238433837890625</LatitudeDegrees>
              <LongitudeDegrees>-8.06628772057592868804931640625</LongitudeDegrees>
            </Position>
            <AltitudeMeters>298</AltitudeMeters>
            <DistanceMeters>316479.58758801</DistanceMeters>
          </Trackpoint>
          <Trackpoint>
            <Time>2018-09-14T15:21:20.000Z</Time>
            <Position>
              <LatitudeDegrees>37.53393642604351043701171875</LatitudeDegrees>
              <LongitudeDegrees>-8.0662728846073150634765625</LongitudeDegrees>
            </Position>
            <AltitudeMeters>298</AltitudeMeters>
            <DistanceMeters>316486.74304282</DistanceMeters>
          </Trackpoint>
          <Trackpoint>
            <Time>2018-09-14T15:21:21.000Z</Time>
            <Position>
              <LatitudeDegrees>37.53387247212231159210205078125</LatitudeDegrees>
              <LongitudeDegrees>-8.06625838391482830047607421875</LongitudeDegrees>
            </Position>
            <AltitudeMeters>298</AltitudeMeters>
            <DistanceMeters>316493.97569329</DistanceMeters>
          </Trackpoint>
          <Trackpoint>
            <Time>2018-09-14T15:21:22.000Z</Time>
            <Position>
              <LatitudeDegrees>37.53380960784852504730224609375</LatitudeDegrees>
              <LongitudeDegrees>-8.06624379940330982208251953125</LongitudeDegrees>
            </Position>
            <AltitudeMeters>298.20001220703125</AltitudeMeters>
            <DistanceMeters>316501.09064997</DistanceMeters>
          </Trackpoint>
          <Trackpoint>
            <Time>2018-09-14T15:21:23.000Z</Time>
            <Position>
              <LatitudeDegrees>37.53374858759343624114990234375</LatitudeDegrees>
              <LongitudeDegrees>-8.06623038835823535919189453125</LongitudeDegrees>
            </Position>
            <AltitudeMeters>298.20001220703125</AltitudeMeters>
            <DistanceMeters>316507.984509</DistanceMeters>
          </Trackpoint>
          <Trackpoint>
            <Time>2018-09-14T15:21:24.000Z</Time>
            <Position>
              <LatitudeDegrees>37.533687315881252288818359375</LatitudeDegrees>
              <LongitudeDegrees>-8.06621680967509746551513671875</LongitudeDegrees>
            </Position>
            <AltitudeMeters>298.399993896484375</AltitudeMeters>
            <DistanceMeters>316514.90842955</DistanceMeters>
          </Trackpoint>
          <Trackpoint>
            <Time>2018-09-14T15:21:25.000Z</Time>
            <Position>
              <LatitudeDegrees>37.53362637944519519805908203125</LatitudeDegrees>
              <LongitudeDegrees>-8.066205494105815887451171875</LongitudeDegrees>
            </Position>
            <AltitudeMeters>298.600006103515625</AltitudeMeters>
            <DistanceMeters>316521.76419704</DistanceMeters>
          </Trackpoint>
          <Trackpoint>
            <Time>2018-09-14T15:21:26.000Z</Time>
            <Position>
              <LatitudeDegrees>37.5335654430091381072998046875</LatitudeDegrees>
              <LongitudeDegrees>-8.06619174778461456298828125</LongitudeDegrees>
            </Position>
            <AltitudeMeters>298.79998779296875</AltitudeMeters>
            <DistanceMeters>316528.65346999</DistanceMeters>
          </Trackpoint>
          <Trackpoint>
            <Time>2018-09-14T15:21:27.000Z</Time>
            <Position>
              <LatitudeDegrees>37.533506266772747039794921875</LatitudeDegrees>
              <LongitudeDegrees>-8.06617707945406436920166015625</LongitudeDegrees>
            </Position>
            <AltitudeMeters>299</AltitudeMeters>
            <DistanceMeters>316535.36615064</DistanceMeters>
          </Trackpoint>
          <Trackpoint>
            <Time>2018-09-14T15:21:28.000Z</Time>
            <Position>
              <LatitudeDegrees>37.53344767726957798004150390625</LatitudeDegrees>
              <LongitudeDegrees>-8.0661627463996410369873046875</LongitudeDegrees>
            </Position>
            <AltitudeMeters>299.20001220703125</AltitudeMeters>
            <DistanceMeters>316542.00851118</DistanceMeters>
          </Trackpoint>
          <Trackpoint>
            <Time>2018-09-14T15:21:29.000Z</Time>
            <Position>
              <LatitudeDegrees>37.53338967449963092803955078125</LatitudeDegrees>
              <LongitudeDegrees>-8.06614858098328113555908203125</LongitudeDegrees>
            </Position>
            <AltitudeMeters>299.399993896484375</AltitudeMeters>
            <DistanceMeters>316548.58392037</DistanceMeters>
          </Trackpoint>
          <Trackpoint>
            <Time>2018-09-14T15:21:30.000Z</Time>
            <Position>
              <LatitudeDegrees>37.53333083353936672210693359375</LatitudeDegrees>
              <LongitudeDegrees>-8.066134750843048095703125</LongitudeDegrees>
            </Position>
            <AltitudeMeters>299.600006103515625</AltitudeMeters>
            <DistanceMeters>316555.24528627</DistanceMeters>
          </Trackpoint>
          <Trackpoint>
            <Time>2018-09-14T15:21:31.000Z</Time>
            <Position>
              <LatitudeDegrees>37.53327216021716594696044921875</LatitudeDegrees>
              <LongitudeDegrees>-8.06612142361700534820556640625</LongitudeDegrees>
            </Position>
            <AltitudeMeters>299.79998779296875</AltitudeMeters>
            <DistanceMeters>316561.88084598</DistanceMeters>
          </Trackpoint>
          <Trackpoint>
            <Time>2018-09-14T15:21:32.000Z</Time>
            <Position>
              <LatitudeDegrees>37.533213905990123748779296875</LatitudeDegrees>
              <LongitudeDegrees>-8.06610985659062862396240234375</LongitudeDegrees>
            </Position>
            <AltitudeMeters>300</AltitudeMeters>
            <DistanceMeters>316568.4452595</DistanceMeters>
          </Trackpoint>
          <Trackpoint>
            <Time>2018-09-14T15:21:33.000Z</Time>
            <Position>
              <LatitudeDegrees>37.5331557355821132659912109375</LatitudeDegrees>
              <LongitudeDegrees>-8.06609594263136386871337890625</LongitudeDegrees>
            </Position>
            <AltitudeMeters>300.20001220703125</AltitudeMeters>
            <DistanceMeters>316575.03507267</DistanceMeters>
          </Trackpoint>
          <Trackpoint>
            <Time>2018-09-14T15:21:34.000Z</Time>
            <Position>
              <LatitudeDegrees>37.5330970622599124908447265625</LatitudeDegrees>
              <LongitudeDegrees>-8.0660832859575748443603515625</LongitudeDegrees>
            </Position>
            <AltitudeMeters>300.20001220703125</AltitudeMeters>
            <DistanceMeters>316581.66041806</DistanceMeters>
          </Trackpoint>
          <Trackpoint>
            <Time>2018-09-14T15:21:35.000Z</Time>
            <Position>
              <LatitudeDegrees>37.53303788602352142333984375</LatitudeDegrees>
              <LongitudeDegrees>-8.06607331149280071258544921875</LongitudeDegrees>
            </Position>
            <AltitudeMeters>300.399993896484375</AltitudeMeters>
            <DistanceMeters>316588.30549698</DistanceMeters>
          </Trackpoint>
          <Trackpoint>
            <Time>2018-09-14T15:21:36.000Z</Time>
            <Position>
              <LatitudeDegrees>37.5329766981303691864013671875</LatitudeDegrees>
              <LongitudeDegrees>-8.0660609900951385498046875</LongitudeDegrees>
            </Position>
            <AltitudeMeters>300.399993896484375</AltitudeMeters>
            <DistanceMeters>316595.20262991</DistanceMeters>
          </Trackpoint>
          <Trackpoint>
            <Time>2018-09-14T15:21:37.000Z</Time>
            <Position>
              <LatitudeDegrees>37.532915174961090087890625</LatitudeDegrees>
              <LongitudeDegrees>-8.06605017744004726409912109375</LongitudeDegrees>
            </Position>
            <AltitudeMeters>300.600006103515625</AltitudeMeters>
            <DistanceMeters>316602.11676216</DistanceMeters>
          </Trackpoint>
          <Trackpoint>
            <Time>2018-09-14T15:21:38.000Z</Time>
            <Position>
              <LatitudeDegrees>37.5328529812395572662353515625</LatitudeDegrees>
              <LongitudeDegrees>-8.0660373531281948089599609375</LongitudeDegrees>
            </Position>
            <AltitudeMeters>300.600006103515625</AltitudeMeters>
            <DistanceMeters>316609.13073795</DistanceMeters>
          </Trackpoint>
          <Trackpoint>
            <Time>2018-09-14T15:21:39.000Z</Time>
            <Position>
              <LatitudeDegrees>37.53278936259448528289794921875</LatitudeDegrees>
              <LongitudeDegrees>-8.0660232715308666229248046875</LongitudeDegrees>
            </Position>
            <AltitudeMeters>300.600006103515625</AltitudeMeters>
            <DistanceMeters>316616.31955757</DistanceMeters>
          </Trackpoint>
          <Trackpoint>
            <Time>2018-09-14T15:21:40.000Z</Time>
            <Position>
              <LatitudeDegrees>37.53272431902587413787841796875</LatitudeDegrees>
              <LongitudeDegrees>-8.066006340086460113525390625</LongitudeDegrees>
            </Position>
            <AltitudeMeters>300.79998779296875</AltitudeMeters>
            <DistanceMeters>316623.71151215</DistanceMeters>
          </Trackpoint>
          <Trackpoint>
            <Time>2018-09-14T15:21:41.000Z</Time>
            <Position>
              <LatitudeDegrees>37.5326568447053432464599609375</LatitudeDegrees>
              <LongitudeDegrees>-8.06598764844238758087158203125</LongitudeDegrees>
            </Position>
            <AltitudeMeters>300.79998779296875</AltitudeMeters>
            <DistanceMeters>316631.40104663</DistanceMeters>
          </Trackpoint>
          <Trackpoint>
            <Time>2018-09-14T15:21:42.000Z</Time>
            <Position>
              <LatitudeDegrees>37.532588280737400054931640625</LatitudeDegrees>
              <LongitudeDegrees>-8.065972141921520233154296875</LongitudeDegrees>
            </Position>
            <AltitudeMeters>301</AltitudeMeters>
            <DistanceMeters>316639.15490045</DistanceMeters>
          </Trackpoint>
          <Trackpoint>
            <Time>2018-09-14T15:21:43.000Z</Time>
            <Position>
              <LatitudeDegrees>37.532517202198505401611328125</LatitudeDegrees>
              <LongitudeDegrees>-8.0659542046487331390380859375</LongitudeDegrees>
            </Position>
            <AltitudeMeters>301</AltitudeMeters>
            <DistanceMeters>316647.2226629</DistanceMeters>
          </Trackpoint>
          <Trackpoint>
            <Time>2018-09-14T15:21:44.000Z</Time>
            <Position>
              <LatitudeDegrees>37.53244603984057903289794921875</LatitudeDegrees>
              <LongitudeDegrees>-8.06593735702335834503173828125</LongitudeDegrees>
            </Position>
            <AltitudeMeters>300.79998779296875</AltitudeMeters>
            <DistanceMeters>316655.28146615</DistanceMeters>
          </Trackpoint>
          <Trackpoint>
            <Time>2018-09-14T15:21:45.000Z</Time>
            <Position>
              <LatitudeDegrees>37.53237412311136722564697265625</LatitudeDegrees>
              <LongitudeDegrees>-8.0659200064837932586669921875</LongitudeDegrees>
            </Position>
            <AltitudeMeters>300.600006103515625</AltitudeMeters>
            <DistanceMeters>316663.43163439</DistanceMeters>
          </Trackpoint>
          <Trackpoint>
            <Time>2018-09-14T15:21:46.000Z</Time>
            <Position>
              <LatitudeDegrees>37.5323022902011871337890625</LatitudeDegrees>
              <LongitudeDegrees>-8.0659022368490695953369140625</LongitudeDegrees>
            </Position>
            <AltitudeMeters>300.399993896484375</AltitudeMeters>
            <DistanceMeters>316671.5795864</DistanceMeters>
          </Trackpoint>
          <Trackpoint>
            <Time>2018-09-14T15:21:47.000Z</Time>
            <Position>
              <LatitudeDegrees>37.5322297029197216033935546875</LatitudeDegrees>
              <LongitudeDegrees>-8.06588438339531421661376953125</LongitudeDegrees>
            </Position>
            <AltitudeMeters>300.20001220703125</AltitudeMeters>
            <DistanceMeters>316679.81133553</DistanceMeters>
          </Trackpoint>
          <Trackpoint>
            <Time>2018-09-14T15:21:48.000Z</Time>
            <Position>
              <LatitudeDegrees>37.5321579538285732269287109375</LatitudeDegrees>
              <LongitudeDegrees>-8.06586678139865398406982421875</LongitudeDegrees>
            </Position>
            <AltitudeMeters>300</AltitudeMeters>
            <DistanceMeters>316687.94708751</DistanceMeters>
          </Trackpoint>
          <Trackpoint>
            <Time>2018-09-14T15:21:49.000Z</Time>
            <Position>
              <LatitudeDegrees>37.5320868752896785736083984375</LatitudeDegrees>
              <LongitudeDegrees>-8.06584934704005718231201171875</LongitudeDegrees>
            </Position>
            <AltitudeMeters>300</AltitudeMeters>
            <DistanceMeters>316696.00589076</DistanceMeters>
          </Trackpoint>
          <Trackpoint>
            <Time>2018-09-14T15:21:50.000Z</Time>
            <Position>
              <LatitudeDegrees>37.5320157967507839202880859375</LatitudeDegrees>
              <LongitudeDegrees>-8.0658321641385555267333984375</LongitudeDegrees>
            </Position>
            <AltitudeMeters>299.79998779296875</AltitudeMeters>
            <DistanceMeters>316704.06133173</DistanceMeters>
          </Trackpoint>
          <Trackpoint>
            <Time>2018-09-14T15:21:51.000Z</Time>
            <Position>
              <LatitudeDegrees>37.53194354474544525146484375</LatitudeDegrees>
              <LongitudeDegrees>-8.0658157356083393096923828125</LongitudeDegrees>
            </Position>
            <AltitudeMeters>299.600006103515625</AltitudeMeters>
            <DistanceMeters>316712.23252413</DistanceMeters>
          </Trackpoint>
          <Trackpoint>
            <Time>2018-09-14T15:21:52.000Z</Time>
            <Position>
              <LatitudeDegrees>37.53187053836882114410400390625</LatitudeDegrees>
              <LongitudeDegrees>-8.0657994747161865234375</LongitudeDegrees>
            </Position>
            <AltitudeMeters>299.399993896484375</AltitudeMeters>
            <DistanceMeters>316720.4839953</DistanceMeters>
          </Trackpoint>
          <Trackpoint>
            <Time>2018-09-14T15:21:53.000Z</Time>
            <Position>
              <LatitudeDegrees>37.53179593943059444427490234375</LatitudeDegrees>
              <LongitudeDegrees>-8.06578212417662143707275390625</LongitudeDegrees>
            </Position>
            <AltitudeMeters>299.20001220703125</AltitudeMeters>
            <DistanceMeters>316728.92694641</DistanceMeters>
          </Trackpoint>
          <Trackpoint>
            <Time>2018-09-14T15:21:54.000Z</Time>
            <Position>
              <LatitudeDegrees>37.53171958029270172119140625</LatitudeDegrees>
              <LongitudeDegrees>-8.06576519273221492767333984375</LongitudeDegrees>
            </Position>
            <AltitudeMeters>299</AltitudeMeters>
            <DistanceMeters>316737.5560837</DistanceMeters>
          </Trackpoint>
          <Trackpoint>
            <Time>2018-09-14T15:21:55.000Z</Time>
            <Position>
              <LatitudeDegrees>37.53164188005030155181884765625</LatitudeDegrees>
              <LongitudeDegrees>-8.06574708782136440277099609375</LongitudeDegrees>
            </Position>
            <AltitudeMeters>299</AltitudeMeters>
            <DistanceMeters>316746.35106152</DistanceMeters>
          </Trackpoint>
          <Trackpoint>
            <Time>2018-09-14T15:21:56.000Z</Time>
            <Position>
              <LatitudeDegrees>37.53156325779855251312255859375</LatitudeDegrees>
              <LongitudeDegrees>-8.0657295696437358856201171875</LongitudeDegrees>
            </Position>
            <AltitudeMeters>299.20001220703125</AltitudeMeters>
            <DistanceMeters>316755.23796472</DistanceMeters>
          </Trackpoint>
          <Trackpoint>
            <Time>2018-09-14T15:21:57.000Z</Time>
            <Position>
              <LatitudeDegrees>37.53148295916616916656494140625</LatitudeDegrees>
              <LongitudeDegrees>-8.06571104563772678375244140625</LongitudeDegrees>
            </Position>
            <AltitudeMeters>299.399993896484375</AltitudeMeters>
            <DistanceMeters>316764.3238306</DistanceMeters>
          </Trackpoint>
          <Trackpoint>
            <Time>2018-09-14T15:21:58.000Z</Time>
            <Position>
              <LatitudeDegrees>37.531402073800563812255859375</LatitudeDegrees>
              <LongitudeDegrees>-8.06569143198430538177490234375</LongitudeDegrees>
            </Position>
            <AltitudeMeters>299.600006103515625</AltitudeMeters>
            <DistanceMeters>316773.49181574</DistanceMeters>
          </Trackpoint>
          <Trackpoint>
            <Time>2018-09-14T15:21:59.000Z</Time>
            <Position>
              <LatitudeDegrees>37.5313211046159267425537109375</LatitudeDegrees>
              <LongitudeDegrees>-8.065671734511852264404296875</LongitudeDegrees>
            </Position>
            <AltitudeMeters>299.79998779296875</AltitudeMeters>
            <DistanceMeters>316782.67013711</DistanceMeters>
          </Trackpoint>
          <Trackpoint>
            <Time>2018-09-14T15:22:00.000Z</Time>
            <Position>
              <LatitudeDegrees>37.5312399677932262420654296875</LatitudeDegrees>
              <LongitudeDegrees>-8.06565253995358943939208984375</LongitudeDegrees>
            </Position>
            <AltitudeMeters>300</AltitudeMeters>
            <DistanceMeters>316791.8582917</DistanceMeters>
          </Trackpoint>
          <Trackpoint>
            <Time>2018-09-14T15:22:01.000Z</Time>
            <Position>
              <LatitudeDegrees>37.53115824423730373382568359375</LatitudeDegrees>
              <LongitudeDegrees>-8.0656343512237071990966796875</LongitudeDegrees>
            </Position>
            <AltitudeMeters>300.20001220703125</AltitudeMeters>
            <DistanceMeters>316801.09496655</DistanceMeters>
          </Trackpoint>
          <Trackpoint>
            <Time>2018-09-14T15:22:02.000Z</Time>
            <Position>
              <LatitudeDegrees>37.53107643686234951019287109375</LatitudeDegrees>
              <LongitudeDegrees>-8.06561817415058612823486328125</LongitudeDegrees>
            </Position>
            <AltitudeMeters>300</AltitudeMeters>
            <DistanceMeters>316810.31108824</DistanceMeters>
          </Trackpoint>
          <Trackpoint>
            <Time>2018-09-14T15:22:03.000Z</Time>
            <Position>
              <LatitudeDegrees>37.5309933722019195556640625</LatitudeDegrees>
              <LongitudeDegrees>-8.06559973396360874176025390625</LongitudeDegrees>
            </Position>
            <AltitudeMeters>299.600006103515625</AltitudeMeters>
            <DistanceMeters>316819.69807316</DistanceMeters>
          </Trackpoint>
          <Trackpoint>
            <Time>2018-09-14T15:22:04.000Z</Time>
            <Position>
              <LatitudeDegrees>37.5309102237224578857421875</LatitudeDegrees>
              <LongitudeDegrees>-8.065581209957599639892578125</LongitudeDegrees>
            </Position>
            <AltitudeMeters>299.20001220703125</AltitudeMeters>
            <DistanceMeters>316829.09563389</DistanceMeters>
          </Trackpoint>
          <Trackpoint>
            <Time>2018-09-14T15:22:05.000Z</Time>
            <Position>
              <LatitudeDegrees>37.53082531504333019256591796875</LatitudeDegrees>
              <LongitudeDegrees>-8.06556184776127338409423828125</LongitudeDegrees>
            </Position>
            <AltitudeMeters>298.79998779296875</AltitudeMeters>
            <DistanceMeters>316838.69944567</DistanceMeters>
          </Trackpoint>
          <Trackpoint>
            <Time>2018-09-14T15:22:06.000Z</Time>
            <Position>
              <LatitudeDegrees>37.53074065782129764556884765625</LatitudeDegrees>
              <LongitudeDegrees>-8.06554357521235942840576171875</LongitudeDegrees>
            </Position>
            <AltitudeMeters>298.600006103515625</AltitudeMeters>
            <DistanceMeters>316848.25896311</DistanceMeters>
          </Trackpoint>
          <Trackpoint>
            <Time>2018-09-14T15:22:07.000Z</Time>
            <Position>
              <LatitudeDegrees>37.53065667115151882171630859375</LatitudeDegrees>
              <LongitudeDegrees>-8.0655250512063503265380859375</LongitudeDegrees>
            </Position>
            <AltitudeMeters>298.399993896484375</AltitudeMeters>
            <DistanceMeters>316857.74832148</DistanceMeters>
          </Trackpoint>
          <Trackpoint>
            <Time>2018-09-14T15:22:08.000Z</Time>
            <Position>
              <LatitudeDegrees>37.530573941767215728759765625</LatitudeDegrees>
              <LongitudeDegrees>-8.065506778657436370849609375</LongitudeDegrees>
            </Position>
            <AltitudeMeters>298.20001220703125</AltitudeMeters>
            <DistanceMeters>316867.09626509</DistanceMeters>
          </Trackpoint>
          <Trackpoint>
            <Time>2018-09-14T15:22:09.000Z</Time>
            <Position>
              <LatitudeDegrees>37.53049221821129322052001953125</LatitudeDegrees>
              <LongitudeDegrees>-8.06548574008047580718994140625</LongitudeDegrees>
            </Position>
            <AltitudeMeters>298</AltitudeMeters>
            <DistanceMeters>316876.37974771</DistanceMeters>
          </Trackpoint>
          <Trackpoint>
            <Time>2018-09-14T15:22:10.000Z</Time>
            <Position>
              <LatitudeDegrees>37.53041007556021213531494140625</LatitudeDegrees>
              <LongitudeDegrees>-8.06546562351286411285400390625</LongitudeDegrees>
            </Position>
            <AltitudeMeters>297.79998779296875</AltitudeMeters>
            <DistanceMeters>316885.69333533</DistanceMeters>
          </Trackpoint>
          <Trackpoint>
            <Time>2018-09-14T15:22:11.000Z</Time>
            <Position>
              <LatitudeDegrees>37.5303270108997821807861328125</LatitudeDegrees>
              <LongitudeDegrees>-8.06544500403106212615966796875</LongitudeDegrees>
            </Position>
            <AltitudeMeters>297.600006103515625</AltitudeMeters>
            <DistanceMeters>316895.11680453</DistanceMeters>
          </Trackpoint>
          <Trackpoint>
            <Time>2018-09-14T15:22:12.000Z</Time>
            <Position>
              <LatitudeDegrees>37.53024411387741565704345703125</LatitudeDegrees>
              <LongitudeDegrees>-8.06542606092989444732666015625</LongitudeDegrees>
            </Position>
            <AltitudeMeters>297.600006103515625</AltitudeMeters>
            <DistanceMeters>316904.49416473</DistanceMeters>
          </Trackpoint>
          <Trackpoint>
            <Time>2018-09-14T15:22:13.000Z</Time>
            <Position>
              <LatitudeDegrees>37.53016180358827114105224609375</LatitudeDegrees>
              <LongitudeDegrees>-8.06540711782872676849365234375</LongitudeDegrees>
            </Position>
            <AltitudeMeters>297.600006103515625</AltitudeMeters>
            <DistanceMeters>316913.80678274</DistanceMeters>
          </Trackpoint>
          <Trackpoint>
            <Time>2018-09-14T15:22:14.000Z</Time>
            <Position>
              <LatitudeDegrees>37.5300799123942852020263671875</LatitudeDegrees>
              <LongitudeDegrees>-8.06538800708949565887451171875</LongitudeDegrees>
            </Position>
            <AltitudeMeters>297.399993896484375</AltitudeMeters>
            <DistanceMeters>316923.07566333</DistanceMeters>
          </Trackpoint>
          <Trackpoint>
            <Time>2018-09-14T15:22:15.000Z</Time>
            <Position>
              <LatitudeDegrees>37.5299970991909503936767578125</LatitudeDegrees>
              <LongitudeDegrees>-8.06537006981670856475830078125</LongitudeDegrees>
            </Position>
            <AltitudeMeters>297.399993896484375</AltitudeMeters>
            <DistanceMeters>316932.42747012</DistanceMeters>
          </Trackpoint>
          <Trackpoint>
            <Time>2018-09-14T15:22:16.000Z</Time>
            <Position>
              <LatitudeDegrees>37.5299136154353618621826171875</LatitudeDegrees>
              <LongitudeDegrees>-8.06535347364842891693115234375</LongitudeDegrees>
            </Position>
            <AltitudeMeters>297.20001220703125</AltitudeMeters>
            <DistanceMeters>316941.8346349</DistanceMeters>
          </Trackpoint>
          <Trackpoint>
            <Time>2018-09-14T15:22:17.000Z</Time>
            <Position>
              <LatitudeDegrees>37.52983105368912220001220703125</LatitudeDegrees>
              <LongitudeDegrees>-8.065337128937244415283203125</LongitudeDegrees>
            </Position>
            <AltitudeMeters>297</AltitudeMeters>
            <DistanceMeters>316951.13658053</DistanceMeters>
          </Trackpoint>
          <Trackpoint>
            <Time>2018-09-14T15:22:18.000Z</Time>
            <Position>
              <LatitudeDegrees>37.52974874339997768402099609375</LatitudeDegrees>
              <LongitudeDegrees>-8.06532028131186962127685546875</LongitudeDegrees>
            </Position>
            <AltitudeMeters>296.79998779296875</AltitudeMeters>
            <DistanceMeters>316960.41811754</DistanceMeters>
          </Trackpoint>
          <Trackpoint>
            <Time>2018-09-14T15:22:19.000Z</Time>
            <Position>
              <LatitudeDegrees>37.52966676838696002960205078125</LatitudeDegrees>
              <LongitudeDegrees>-8.06530117057263851165771484375</LongitudeDegrees>
            </Position>
            <AltitudeMeters>297</AltitudeMeters>
            <DistanceMeters>316969.69673537</DistanceMeters>
          </Trackpoint>
          <Trackpoint>
            <Time>2018-09-14T15:22:20.000Z</Time>
            <Position>
              <LatitudeDegrees>37.5295853801071643829345703125</LatitudeDegrees>
              <LongitudeDegrees>-8.0652836523950099945068359375</LongitudeDegrees>
            </Position>
            <AltitudeMeters>297</AltitudeMeters>
            <DistanceMeters>316978.88685533</DistanceMeters>
          </Trackpoint>
          <Trackpoint>
            <Time>2018-09-14T15:22:21.000Z</Time>
            <Position>
              <LatitudeDegrees>37.5295039080083370208740234375</LatitudeDegrees>
              <LongitudeDegrees>-8.06526445783674716949462890625</LongitudeDegrees>
            </Position>
            <AltitudeMeters>297</AltitudeMeters>
            <DistanceMeters>316988.11179113</DistanceMeters>
          </Trackpoint>
          <Trackpoint>
            <Time>2018-09-14T15:22:22.000Z</Time>
            <Position>
              <LatitudeDegrees>37.52942268736660480499267578125</LatitudeDegrees>
              <LongitudeDegrees>-8.06524693965911865234375</LongitudeDegrees>
            </Position>
            <AltitudeMeters>297</AltitudeMeters>
            <DistanceMeters>316997.28371525</DistanceMeters>
          </Trackpoint>
          <Trackpoint>
            <Time>2018-09-14T15:22:23.000Z</Time>
            <Position>
              <LatitudeDegrees>37.52934138290584087371826171875</LatitudeDegrees>
              <LongitudeDegrees>-8.06522841565310955047607421875</LongitudeDegrees>
            </Position>
            <AltitudeMeters>297.20001220703125</AltitudeMeters>
            <DistanceMeters>317006.47923785</DistanceMeters>
          </Trackpoint>
          <Trackpoint>
            <Time>2018-09-14T15:22:24.000Z</Time>
            <Position>
              <LatitudeDegrees>37.52926091663539409637451171875</LatitudeDegrees>
              <LongitudeDegrees>-8.06521064601838588714599609375</LongitudeDegrees>
            </Position>
            <AltitudeMeters>297.20001220703125</AltitudeMeters>
            <DistanceMeters>317015.57106494</DistanceMeters>
          </Trackpoint>
          <Trackpoint>
            <Time>2018-09-14T15:22:25.000Z</Time>
            <Position>
              <LatitudeDegrees>37.52918045036494731903076171875</LatitudeDegrees>
              <LongitudeDegrees>-8.06519287638366222381591796875</LongitudeDegrees>
            </Position>
            <AltitudeMeters>297.20001220703125</AltitudeMeters>
            <DistanceMeters>317024.66289202</DistanceMeters>
          </Trackpoint>
          <Trackpoint>
            <Time>2018-09-14T15:22:26.000Z</Time>
            <Position>
              <LatitudeDegrees>37.52910048700869083404541015625</LatitudeDegrees>
              <LongitudeDegrees>-8.065172843635082244873046875</LongitudeDegrees>
            </Position>
            <AltitudeMeters>297</AltitudeMeters>
            <DistanceMeters>317033.73682375</DistanceMeters>
          </Trackpoint>
          <Trackpoint>
            <Time>2018-09-14T15:22:27.000Z</Time>
            <Position>
              <LatitudeDegrees>37.52902169711887836456298828125</LatitudeDegrees>
              <LongitudeDegrees>-8.06515364907681941986083984375</LongitudeDegrees>
            </Position>
            <AltitudeMeters>297.20001220703125</AltitudeMeters>
            <DistanceMeters>317042.66832392</DistanceMeters>
          </Trackpoint>
          <Trackpoint>
            <Time>2018-09-14T15:22:28.000Z</Time>
            <Position>
              <LatitudeDegrees>37.5289429910480976104736328125</LatitudeDegrees>
              <LongitudeDegrees>-8.0651334486901760101318359375</LongitudeDegrees>
            </Position>
            <AltitudeMeters>297.20001220703125</AltitudeMeters>
            <DistanceMeters>317051.60790873</DistanceMeters>
          </Trackpoint>
          <Trackpoint>
            <Time>2018-09-14T15:22:29.000Z</Time>
            <Position>
              <LatitudeDegrees>37.5288645364344120025634765625</LatitudeDegrees>
              <LongitudeDegrees>-8.065114505589008331298828125</LongitudeDegrees>
            </Position>
            <AltitudeMeters>297.399993896484375</AltitudeMeters>
            <DistanceMeters>317060.49887545</DistanceMeters>
          </Trackpoint>
          <Trackpoint>
            <Time>2018-09-14T15:22:30.000Z</Time>
            <Position>
              <LatitudeDegrees>37.52878658473491668701171875</LatitudeDegrees>
              <LongitudeDegrees>-8.0650969035923480987548828125</LongitudeDegrees>
            </Position>
            <AltitudeMeters>297.399993896484375</AltitudeMeters>
            <DistanceMeters>317069.31333957</DistanceMeters>
          </Trackpoint>
          <Trackpoint>
            <Time>2018-09-14T15:22:31.000Z</Time>
            <Position>
              <LatitudeDegrees>37.5287086330354213714599609375</LatitudeDegrees>
              <LongitudeDegrees>-8.065080307424068450927734375</LongitudeDegrees>
            </Position>
            <AltitudeMeters>297.600006103515625</AltitudeMeters>
            <DistanceMeters>317078.11242335</DistanceMeters>
          </Trackpoint>
          <Trackpoint>
            <Time>2018-09-14T15:22:32.000Z</Time>
            <Position>
              <LatitudeDegrees>37.5286305136978626251220703125</LatitudeDegrees>
              <LongitudeDegrees>-8.06506480090320110321044921875</LongitudeDegrees>
            </Position>
            <AltitudeMeters>297.600006103515625</AltitudeMeters>
            <DistanceMeters>317086.91407239</DistanceMeters>
          </Trackpoint>
          <Trackpoint>
            <Time>2018-09-14T15:22:33.000Z</Time>
            <Position>
              <LatitudeDegrees>37.52855298109352588653564453125</LatitudeDegrees>
              <LongitudeDegrees>-8.06504971347749233245849609375</LongitudeDegrees>
            </Position>
            <AltitudeMeters>297.600006103515625</AltitudeMeters>
            <DistanceMeters>317095.64516083</DistanceMeters>
          </Trackpoint>
          <Trackpoint>
            <Time>2018-09-14T15:22:34.000Z</Time>
            <Position>
              <LatitudeDegrees>37.5284752808511257171630859375</LatitudeDegrees>
              <LongitudeDegrees>-8.065034039318561553955078125</LongitudeDegrees>
            </Position>
            <AltitudeMeters>297.600006103515625</AltitudeMeters>
            <DistanceMeters>317104.40309833</DistanceMeters>
          </Trackpoint>
          <Trackpoint>
            <Time>2018-09-14T15:22:35.000Z</Time>
            <Position>
              <LatitudeDegrees>37.52839741297066211700439453125</LatitudeDegrees>
              <LongitudeDegrees>-8.06501802988350391387939453125</LongitudeDegrees>
            </Position>
            <AltitudeMeters>297.79998779296875</AltitudeMeters>
            <DistanceMeters>317113.18420434</DistanceMeters>
          </Trackpoint>
          <Trackpoint>
            <Time>2018-09-14T15:22:36.000Z</Time>
            <Position>
              <LatitudeDegrees>37.52831845544278621673583984375</LatitudeDegrees>
              <LongitudeDegrees>-8.06500017642974853515625</LongitudeDegrees>
            </Position>
            <AltitudeMeters>297.600006103515625</AltitudeMeters>
            <DistanceMeters>317122.11267089</DistanceMeters>
          </Trackpoint>
          <Trackpoint>
            <Time>2018-09-14T15:22:37.000Z</Time>
            <Position>
              <LatitudeDegrees>37.52823832444846630096435546875</LatitudeDegrees>
              <LongitudeDegrees>-8.06497980840504169464111328125</LongitudeDegrees>
            </Position>
            <AltitudeMeters>297.20001220703125</AltitudeMeters>
            <DistanceMeters>317131.21095154</DistanceMeters>
          </Trackpoint>
          <Trackpoint>
            <Time>2018-09-14T15:22:38.000Z</Time>
            <Position>
              <LatitudeDegrees>37.5281564332544803619384765625</LatitudeDegrees>
              <LongitudeDegrees>-8.064956255257129669189453125</LongitudeDegrees>
            </Position>
            <AltitudeMeters>296.79998779296875</AltitudeMeters>
            <DistanceMeters>317140.56034403</DistanceMeters>
          </Trackpoint>
          <Trackpoint>
            <Time>2018-09-14T15:22:39.000Z</Time>
            <Position>
              <LatitudeDegrees>37.52807353623211383819580078125</LatitudeDegrees>
              <LongitudeDegrees>-8.06493136100471019744873046875</LongitudeDegrees>
            </Position>
            <AltitudeMeters>296.399993896484375</AltitudeMeters>
            <DistanceMeters>317150.04541923</DistanceMeters>
          </Trackpoint>
          <Trackpoint>
            <Time>2018-09-14T15:22:40.000Z</Time>
            <Position>
              <LatitudeDegrees>37.527989633381366729736328125</LatitudeDegrees>
              <LongitudeDegrees>-8.06490286253392696380615234375</LongitudeDegrees>
            </Position>
            <AltitudeMeters>296</AltitudeMeters>
            <DistanceMeters>317159.71669277</DistanceMeters>
          </Trackpoint>
          <Trackpoint>
            <Time>2018-09-14T15:22:41.000Z</Time>
            <Position>
              <LatitudeDegrees>37.52790438942611217498779296875</LatitudeDegrees>
              <LongitudeDegrees>-8.06487252004444599151611328125</LongitudeDegrees>
            </Position>
            <AltitudeMeters>295.600006103515625</AltitudeMeters>
            <DistanceMeters>317169.5747698</DistanceMeters>
          </Trackpoint>
          <Trackpoint>
            <Time>2018-09-14T15:22:42.000Z</Time>
            <Position>
              <LatitudeDegrees>37.52781839109957218170166015625</LatitudeDegrees>
              <LongitudeDegrees>-8.064842261373996734619140625</LongitudeDegrees>
            </Position>
            <AltitudeMeters>295.20001220703125</AltitudeMeters>
            <DistanceMeters>317179.51221997</DistanceMeters>
          </Trackpoint>
          <Trackpoint>
            <Time>2018-09-14T15:22:43.000Z</Time>
            <Position>
              <LatitudeDegrees>37.52773138694465160369873046875</LatitudeDegrees>
              <LongitudeDegrees>-8.06481149978935718536376953125</LongitudeDegrees>
            </Position>
            <AltitudeMeters>294.79998779296875</AltitudeMeters>
            <DistanceMeters>317189.56890214</DistanceMeters>
          </Trackpoint>
          <Trackpoint>
            <Time>2018-09-14T15:22:44.000Z</Time>
            <Position>
              <LatitudeDegrees>37.5276424549520015716552734375</LatitudeDegrees>
              <LongitudeDegrees>-8.0647783912718296051025390625</LongitudeDegrees>
            </Position>
            <AltitudeMeters>294.600006103515625</AltitudeMeters>
            <DistanceMeters>317199.8896958</DistanceMeters>
          </Trackpoint>
          <Trackpoint>
            <Time>2018-09-14T15:22:45.000Z</Time>
            <Position>
              <LatitudeDegrees>37.527552433311939239501953125</LatitudeDegrees>
              <LongitudeDegrees>-8.06474343873560428619384765625</LongitudeDegrees>
            </Position>
            <AltitudeMeters>294.20001220703125</AltitudeMeters>
            <DistanceMeters>317210.3736879</DistanceMeters>
          </Trackpoint>
          <Trackpoint>
            <Time>2018-09-14T15:22:46.000Z</Time>
            <Position>
              <LatitudeDegrees>37.52746023237705230712890625</LatitudeDegrees>
              <LongitudeDegrees>-8.064707480370998382568359375</LongitudeDegrees>
            </Position>
            <AltitudeMeters>293.79998779296875</AltitudeMeters>
            <DistanceMeters>317221.11549021</DistanceMeters>
          </Trackpoint>
          <Trackpoint>
            <Time>2018-09-14T15:22:47.000Z</Time>
            <Position>
              <LatitudeDegrees>37.52736593596637248992919921875</LatitudeDegrees>
              <LongitudeDegrees>-8.06466967798769474029541015625</LongitudeDegrees>
            </Position>
            <AltitudeMeters>293.399993896484375</AltitudeMeters>
            <DistanceMeters>317232.12834437</DistanceMeters>
          </Trackpoint>
          <Trackpoint>
            <Time>2018-09-14T15:22:48.000Z</Time>
            <Position>
              <LatitudeDegrees>37.5272696278989315032958984375</LatitudeDegrees>
              <LongitudeDegrees>-8.06463112123310565948486328125</LongitudeDegrees>
            </Position>
            <AltitudeMeters>292.79998779296875</AltitudeMeters>
            <DistanceMeters>317243.37486742</DistanceMeters>
          </Trackpoint>
          <Trackpoint>
            <Time>2018-09-14T15:22:49.000Z</Time>
            <Position>
              <LatitudeDegrees>37.52717281691730022430419921875</LatitudeDegrees>
              <LongitudeDegrees>-8.06459222920238971710205078125</LongitudeDegrees>
            </Position>
            <AltitudeMeters>292.20001220703125</AltitudeMeters>
            <DistanceMeters>317254.68344569</DistanceMeters>
          </Trackpoint>
          <Trackpoint>
            <Time>2018-09-14T15:22:50.000Z</Time>
            <Position>
              <LatitudeDegrees>37.527075670659542083740234375</LatitudeDegrees>
              <LongitudeDegrees>-8.0645517446100711822509765625</LongitudeDegrees>
            </Position>
            <AltitudeMeters>292.20001220703125</AltitudeMeters>
            <DistanceMeters>317266.07159558</DistanceMeters>
          </Trackpoint>
          <Trackpoint>
            <Time>2018-09-14T15:22:51.000Z</Time>
            <Position>
              <LatitudeDegrees>37.52697668038308620452880859375</LatitudeDegrees>
              <LongitudeDegrees>-8.0645125173032283782958984375</LongitudeDegrees>
            </Position>
            <AltitudeMeters>292</AltitudeMeters>
            <DistanceMeters>317277.62076262</DistanceMeters>
          </Trackpoint>
          <Trackpoint>
            <Time>2018-09-14T15:22:52.000Z</Time>
            <Position>
              <LatitudeDegrees>37.52687660045921802520751953125</LatitudeDegrees>
              <LongitudeDegrees>-8.06447605602443218231201171875</LongitudeDegrees>
            </Position>
            <AltitudeMeters>292</AltitudeMeters>
            <DistanceMeters>317289.21557948</DistanceMeters>
          </Trackpoint>
          <Trackpoint>
            <Time>2018-09-14T15:22:53.000Z</Time>
            <Position>
              <LatitudeDegrees>37.5267747603356838226318359375</LatitudeDegrees>
              <LongitudeDegrees>-8.06443766690790653228759765625</LongitudeDegrees>
            </Position>
            <AltitudeMeters>292</AltitudeMeters>
            <DistanceMeters>317301.04669164</DistanceMeters>
          </Trackpoint>
          <Trackpoint>
            <Time>2018-09-14T15:22:54.000Z</Time>
            <Position>
              <LatitudeDegrees>37.526671998202800750732421875</LatitudeDegrees>
              <LongitudeDegrees>-8.06439810432493686676025390625</LongitudeDegrees>
            </Position>
            <AltitudeMeters>291.79998779296875</AltitudeMeters>
            <DistanceMeters>317313.00571964</DistanceMeters>
          </Trackpoint>
          <Trackpoint>
            <Time>2018-09-14T15:22:55.000Z</Time>
            <Position>
              <LatitudeDegrees>37.5265702418982982635498046875</LatitudeDegrees>
              <LongitudeDegrees>-8.0643599666655063629150390625</LongitudeDegrees>
            </Position>
            <AltitudeMeters>291.79998779296875</AltitudeMeters>
            <DistanceMeters>317324.82117485</DistanceMeters>
          </Trackpoint>
          <Trackpoint>
            <Time>2018-09-14T15:22:56.000Z</Time>
            <Position>
              <LatitudeDegrees>37.52646915614604949951171875</LatitudeDegrees>
              <LongitudeDegrees>-8.0643214099109172821044921875</LongitudeDegrees>
            </Position>
            <AltitudeMeters>291.79998779296875</AltitudeMeters>
            <DistanceMeters>317336.57533027</DistanceMeters>
          </Trackpoint>
          <Trackpoint>
            <Time>2018-09-14T15:22:57.000Z</Time>
            <Position>
              <LatitudeDegrees>37.526368238031864166259765625</LatitudeDegrees>
              <LongitudeDegrees>-8.06428092531859874725341796875</LongitudeDegrees>
            </Position>
            <AltitudeMeters>292</AltitudeMeters>
            <DistanceMeters>317348.36324002</DistanceMeters>
          </Trackpoint>
          <Trackpoint>
            <Time>2018-09-14T15:22:58.000Z</Time>
            <Position>
              <LatitudeDegrees>37.52626706846058368682861328125</LatitudeDegrees>
              <LongitudeDegrees>-8.06424153037369251251220703125</LongitudeDegrees>
            </Position>
            <AltitudeMeters>292</AltitudeMeters>
            <DistanceMeters>317360.14846831</DistanceMeters>
          </Trackpoint>
          <Trackpoint>
            <Time>2018-09-14T15:22:59.000Z</Time>
            <Position>
              <LatitudeDegrees>37.52616598270833492279052734375</LatitudeDegrees>
              <LongitudeDegrees>-8.06420330889523029327392578125</LongitudeDegrees>
            </Position>
            <AltitudeMeters>291.79998779296875</AltitudeMeters>
            <DistanceMeters>317371.89416999</DistanceMeters>
          </Trackpoint>
          <Trackpoint>
            <Time>2018-09-14T15:23:00.000Z</Time>
            <Position>
              <LatitudeDegrees>37.52606548368930816650390625</LatitudeDegrees>
              <LongitudeDegrees>-8.06416324339807033538818359375</LongitudeDegrees>
            </Position>
            <AltitudeMeters>291.79998779296875</AltitudeMeters>
            <DistanceMeters>317383.6252554</DistanceMeters>
          </Trackpoint>
          <Trackpoint>
            <Time>2018-09-14T15:23:01.000Z</Time>
            <Position>
              <LatitudeDegrees>37.52596699632704257965087890625</LatitudeDegrees>
              <LongitudeDegrees>-8.064124099910259246826171875</LongitudeDegrees>
            </Position>
            <AltitudeMeters>291.600006103515625</AltitudeMeters>
            <DistanceMeters>317395.11838197</DistanceMeters>
          </Trackpoint>
          <Trackpoint>
            <Time>2018-09-14T15:23:02.000Z</Time>
            <Position>
              <LatitudeDegrees>37.5258703529834747314453125</LatitudeDegrees>
              <LongitudeDegrees>-8.06408730335533618927001953125</LongitudeDegrees>
            </Position>
            <AltitudeMeters>291.600006103515625</AltitudeMeters>
            <DistanceMeters>317406.35446219</DistanceMeters>
          </Trackpoint>
          <Trackpoint>
            <Time>2018-09-14T15:23:03.000Z</Time>
            <Position>
              <LatitudeDegrees>37.5257749669253826141357421875</LatitudeDegrees>
              <LongitudeDegrees>-8.06405159644782543182373046875</LongitudeDegrees>
            </Position>
            <AltitudeMeters>291.399993896484375</AltitudeMeters>
            <DistanceMeters>317417.42945782</DistanceMeters>
          </Trackpoint>
          <Trackpoint>
            <Time>2018-09-14T15:23:04.000Z</Time>
            <Position>
              <LatitudeDegrees>37.52568167634308338165283203125</LatitudeDegrees>
              <LongitudeDegrees>-8.0640159733593463897705078125</LongitudeDegrees>
            </Position>
            <AltitudeMeters>291.20001220703125</AltitudeMeters>
            <DistanceMeters>317428.27832949</DistanceMeters>
          </Trackpoint>
          <Trackpoint>
            <Time>2018-09-14T15:23:05.000Z</Time>
            <Position>
              <LatitudeDegrees>37.5255914032459259033203125</LatitudeDegrees>
              <LongitudeDegrees>-8.0639790929853916168212890625</LongitudeDegrees>
            </Position>
            <AltitudeMeters>291</AltitudeMeters>
            <DistanceMeters>317438.84041093</DistanceMeters>
          </Trackpoint>
          <Trackpoint>
            <Time>2018-09-14T15:23:06.000Z</Time>
            <Position>
              <LatitudeDegrees>37.52550029195845127105712890625</LatitudeDegrees>
              <LongitudeDegrees>-8.06394313462078571319580078125</LongitudeDegrees>
            </Position>
            <AltitudeMeters>290.79998779296875</AltitudeMeters>
            <DistanceMeters>317449.46642033</DistanceMeters>
          </Trackpoint>
          <Trackpoint>
            <Time>2018-09-14T15:23:07.000Z</Time>
            <Position>
              <LatitudeDegrees>37.52540968358516693115234375</LatitudeDegrees>
              <LongitudeDegrees>-8.0639083497226238250732421875</LongitudeDegrees>
            </Position>
            <AltitudeMeters>290.600006103515625</AltitudeMeters>
            <DistanceMeters>317460.00881953</DistanceMeters>
          </Trackpoint>
          <Trackpoint>
            <Time>2018-09-14T15:23:08.000Z</Time>
            <Position>
              <LatitudeDegrees>37.52531924284994602203369140625</LatitudeDegrees>
              <LongitudeDegrees>-8.063873983919620513916015625</LongitudeDegrees>
            </Position>
            <AltitudeMeters>290.399993896484375</AltitudeMeters>
            <DistanceMeters>317470.52205575</DistanceMeters>
          </Trackpoint>
          <Trackpoint>
            <Time>2018-09-14T15:23:09.000Z</Time>
            <Position>
              <LatitudeDegrees>37.52523131668567657470703125</LatitudeDegrees>
              <LongitudeDegrees>-8.06384213268756866455078125</LongitudeDegrees>
            </Position>
            <AltitudeMeters>290</AltitudeMeters>
            <DistanceMeters>317480.70411387</DistanceMeters>
          </Trackpoint>
          <Trackpoint>
            <Time>2018-09-14T15:23:10.000Z</Time>
            <Position>
              <LatitudeDegrees>37.5251443125307559967041015625</LatitudeDegrees>
              <LongitudeDegrees>-8.0638079345226287841796875</LongitudeDegrees>
            </Position>
            <AltitudeMeters>289.79998779296875</AltitudeMeters>
            <DistanceMeters>317490.84662987</DistanceMeters>
          </Trackpoint>
          <Trackpoint>
            <Time>2018-09-14T15:23:11.000Z</Time>
            <Position>
              <LatitudeDegrees>37.525057308375835418701171875</LatitudeDegrees>
              <LongitudeDegrees>-8.0637739039957523345947265625</LongitudeDegrees>
            </Position>
            <AltitudeMeters>289.399993896484375</AltitudeMeters>
            <DistanceMeters>317500.98513865</DistanceMeters>
          </Trackpoint>
          <Trackpoint>
            <Time>2018-09-14T15:23:12.000Z</Time>
            <Position>
              <LatitudeDegrees>37.52497172914445400238037109375</LatitudeDegrees>
              <LongitudeDegrees>-8.0637413822114467620849609375</LongitudeDegrees>
            </Position>
            <AltitudeMeters>289</AltitudeMeters>
            <DistanceMeters>317510.93348714</DistanceMeters>
          </Trackpoint>
          <Trackpoint>
            <Time>2018-09-14T15:23:13.000Z</Time>
            <Position>
              <LatitudeDegrees>37.52488791011273860931396484375</LatitudeDegrees>
              <LongitudeDegrees>-8.06370810605585575103759765625</LongitudeDegrees>
            </Position>
            <AltitudeMeters>288.399993896484375</AltitudeMeters>
            <DistanceMeters>317520.71385522</DistanceMeters>
          </Trackpoint>
          <Trackpoint>
            <Time>2018-09-14T15:23:14.000Z</Time>
            <Position>
              <LatitudeDegrees>37.52480375580489635467529296875</LatitudeDegrees>
              <LongitudeDegrees>-8.0636733211576938629150390625</LongitudeDegrees>
            </Position>
            <AltitudeMeters>288</AltitudeMeters>
            <DistanceMeters>317530.5710162</DistanceMeters>
          </Trackpoint>
          <Trackpoint>
            <Time>2018-09-14T15:23:15.000Z</Time>
            <Position>
              <LatitudeDegrees>37.52471809275448322296142578125</LatitudeDegrees>
              <LongitudeDegrees>-8.0636387877166271209716796875</LongitudeDegrees>
            </Position>
            <AltitudeMeters>287.399993896484375</AltitudeMeters>
            <DistanceMeters>317540.58089773</DistanceMeters>
          </Trackpoint>
          <Trackpoint>
            <Time>2018-09-14T15:23:16.000Z</Time>
            <Position>
              <LatitudeDegrees>37.52463159151375293731689453125</LatitudeDegrees>
              <LongitudeDegrees>-8.063602745532989501953125</LongitudeDegrees>
            </Position>
            <AltitudeMeters>286.79998779296875</AltitudeMeters>
            <DistanceMeters>317550.72074242</DistanceMeters>
          </Trackpoint>
          <Trackpoint>
            <Time>2018-09-14T15:23:17.000Z</Time>
            <Position>
              <LatitudeDegrees>37.52454492263495922088623046875</LatitudeDegrees>
              <LongitudeDegrees>-8.0635667033493518829345703125</LongitudeDegrees>
            </Position>
            <AltitudeMeters>286.20001220703125</AltitudeMeters>
            <DistanceMeters>317560.87838257</DistanceMeters>
          </Trackpoint>
          <Trackpoint>
            <Time>2018-09-14T15:23:18.000Z</Time>
            <Position>
              <LatitudeDegrees>37.52446009777486324310302734375</LatitudeDegrees>
              <LongitudeDegrees>-8.063533008098602294921875</LongitudeDegrees>
            </Position>
            <AltitudeMeters>285.79998779296875</AltitudeMeters>
            <DistanceMeters>317570.77713803</DistanceMeters>
          </Trackpoint>
          <Trackpoint>
            <Time>2018-09-14T15:23:19.000Z</Time>
            <Position>
              <LatitudeDegrees>37.5243741832673549652099609375</LatitudeDegrees>
              <LongitudeDegrees>-8.06350124068558216094970703125</LongitudeDegrees>
            </Position>
            <AltitudeMeters>285.20001220703125</AltitudeMeters>
            <DistanceMeters>317580.74226475</DistanceMeters>
          </Trackpoint>
          <Trackpoint>
            <Time>2018-09-14T15:23:20.000Z</Time>
            <Position>
              <LatitudeDegrees>37.52428893931210041046142578125</LatitudeDegrees>
              <LongitudeDegrees>-8.06347064673900604248046875</LongitudeDegrees>
            </Position>
            <AltitudeMeters>284.79998779296875</AltitudeMeters>
            <DistanceMeters>317590.60766712</DistanceMeters>
          </Trackpoint>
          <Trackpoint>
            <Time>2018-09-14T15:23:21.000Z</Time>
            <Position>
              <LatitudeDegrees>37.52420344389975070953369140625</LatitudeDegrees>
              <LongitudeDegrees>-8.063437454402446746826171875</LongitudeDegrees>
            </Position>
            <AltitudeMeters>284.20001220703125</AltitudeMeters>
            <DistanceMeters>317600.56418153</DistanceMeters>
          </Trackpoint>
          <Trackpoint>
            <Time>2018-09-14T15:23:22.000Z</Time>
            <Position>
              <LatitudeDegrees>37.52411828376352787017822265625</LatitudeDegrees>
              <LongitudeDegrees>-8.063404597342014312744140625</LongitudeDegrees>
            </Position>
            <AltitudeMeters>284</AltitudeMeters>
            <DistanceMeters>317610.47615569</DistanceMeters>
          </Trackpoint>
          <Trackpoint>
            <Time>2018-09-14T15:23:23.000Z</Time>
            <Position>
              <LatitudeDegrees>37.524033375084400177001953125</LatitudeDegrees>
              <LongitudeDegrees>-8.06337299756705760955810546875</LongitudeDegrees>
            </Position>
            <AltitudeMeters>283.79998779296875</AltitudeMeters>
            <DistanceMeters>317620.32919338</DistanceMeters>
          </Trackpoint>
          <Trackpoint>
            <Time>2018-09-14T15:23:24.000Z</Time>
            <Position>
              <LatitudeDegrees>37.5239493884146213531494140625</LatitudeDegrees>
              <LongitudeDegrees>-8.06334081105887889862060546875</LongitudeDegrees>
            </Position>
            <AltitudeMeters>283.79998779296875</AltitudeMeters>
            <DistanceMeters>317630.09893791</DistanceMeters>
          </Trackpoint>
          <Trackpoint>
            <Time>2018-09-14T15:23:25.000Z</Time>
            <Position>
              <LatitudeDegrees>37.5238672457635402679443359375</LatitudeDegrees>
              <LongitudeDegrees>-8.063308037817478179931640625</LongitudeDegrees>
            </Position>
            <AltitudeMeters>283.79998779296875</AltitudeMeters>
            <DistanceMeters>317639.68863543</DistanceMeters>
          </Trackpoint>
          <Trackpoint>
            <Time>2018-09-14T15:23:26.000Z</Time>
            <Position>
              <LatitudeDegrees>37.52378669567406177520751953125</LatitudeDegrees>
              <LongitudeDegrees>-8.06327576749026775360107421875</LongitudeDegrees>
            </Position>
            <AltitudeMeters>283.600006103515625</AltitudeMeters>
            <DistanceMeters>317649.0958002</DistanceMeters>
          </Trackpoint>
          <Trackpoint>
            <Time>2018-09-14T15:23:27.000Z</Time>
            <Position>
              <LatitudeDegrees>37.52370656467974185943603515625</LatitudeDegrees>
              <LongitudeDegrees>-8.06324441917240619659423828125</LongitudeDegrees>
            </Position>
            <AltitudeMeters>283.600006103515625</AltitudeMeters>
            <DistanceMeters>317658.43359535</DistanceMeters>
          </Trackpoint>
          <Trackpoint>
            <Time>2018-09-14T15:23:28.000Z</Time>
            <Position>
              <LatitudeDegrees>37.52362710423767566680908203125</LatitudeDegrees>
              <LongitudeDegrees>-8.06321592070162296295166015625</LongitudeDegrees>
            </Position>
            <AltitudeMeters>283.399993896484375</AltitudeMeters>
            <DistanceMeters>317667.62813588</DistanceMeters>
          </Trackpoint>
          <Trackpoint>
            <Time>2018-09-14T15:23:29.000Z</Time>
            <Position>
              <LatitudeDegrees>37.5235487334430217742919921875</LatitudeDegrees>
              <LongitudeDegrees>-8.06318842805922031402587890625</LongitudeDegrees>
            </Position>
            <AltitudeMeters>283.399993896484375</AltitudeMeters>
            <DistanceMeters>317676.6821424</DistanceMeters>
          </Trackpoint>
          <Trackpoint>
            <Time>2018-09-14T15:23:30.000Z</Time>
            <Position>
              <LatitudeDegrees>37.523471452295780181884765625</LatitudeDegrees>
              <LongitudeDegrees>-8.0631615221500396728515625</LongitudeDegrees>
            </Position>
            <AltitudeMeters>283.600006103515625</AltitudeMeters>
            <DistanceMeters>317685.60555061</DistanceMeters>
          </Trackpoint>
          <Trackpoint>
            <Time>2018-09-14T15:23:31.000Z</Time>
            <Position>
              <LatitudeDegrees>37.52339324913918972015380859375</LatitudeDegrees>
              <LongitudeDegrees>-8.06313478387892246246337890625</LongitudeDegrees>
            </Position>
            <AltitudeMeters>283.79998779296875</AltitudeMeters>
            <DistanceMeters>317694.62408145</DistanceMeters>
          </Trackpoint>
          <Trackpoint>
            <Time>2018-09-14T15:23:32.000Z</Time>
            <Position>
              <LatitudeDegrees>37.5233153812587261199951171875</LatitudeDegrees>
              <LongitudeDegrees>-8.063107542693614959716796875</LongitudeDegrees>
            </Position>
            <AltitudeMeters>284</AltitudeMeters>
            <DistanceMeters>317703.61804747</DistanceMeters>
          </Trackpoint>
          <Trackpoint>
            <Time>2018-09-14T15:23:33.000Z</Time>
            <Position>
              <LatitudeDegrees>37.523240111768245697021484375</LatitudeDegrees>
              <LongitudeDegrees>-8.06308046914637088775634765625</LongitudeDegrees>
            </Position>
            <AltitudeMeters>284.399993896484375</AltitudeMeters>
            <DistanceMeters>317712.33049963</DistanceMeters>
          </Trackpoint>
          <Trackpoint>
            <Time>2018-09-14T15:23:34.000Z</Time>
            <Position>
              <LatitudeDegrees>37.5231668539345264434814453125</LatitudeDegrees>
              <LongitudeDegrees>-8.06305314414203166961669921875</LongitudeDegrees>
            </Position>
            <AltitudeMeters>284.600006103515625</AltitudeMeters>
            <DistanceMeters>317720.83313404</DistanceMeters>
          </Trackpoint>
          <Trackpoint>
            <Time>2018-09-14T15:23:35.000Z</Time>
            <Position>
              <LatitudeDegrees>37.52309518866240978240966796875</LatitudeDegrees>
              <LongitudeDegrees>-8.06302481330931186676025390625</LongitudeDegrees>
            </Position>
            <AltitudeMeters>284.79998779296875</AltitudeMeters>
            <DistanceMeters>317729.19224473</DistanceMeters>
          </Trackpoint>
          <Trackpoint>
            <Time>2018-09-14T15:23:36.000Z</Time>
            <Position>
              <LatitudeDegrees>37.52302276901900768280029296875</LatitudeDegrees>
              <LongitudeDegrees>-8.06299363262951374053955078125</LongitudeDegrees>
            </Position>
            <AltitudeMeters>285.20001220703125</AltitudeMeters>
            <DistanceMeters>317737.7102647</DistanceMeters>
          </Trackpoint>
          <Trackpoint>
            <Time>2018-09-14T15:23:37.000Z</Time>
            <Position>
              <LatitudeDegrees>37.52295319922268390655517578125</LatitudeDegrees>
              <LongitudeDegrees>-8.06296597234904766082763671875</LongitudeDegrees>
            </Position>
            <AltitudeMeters>285.399993896484375</AltitudeMeters>
            <DistanceMeters>317745.82935074</DistanceMeters>
          </Trackpoint>
          <Trackpoint>
            <Time>2018-09-14T15:23:38.000Z</Time>
            <Position>
              <LatitudeDegrees>37.52288413234055042266845703125</LatitudeDegrees>
              <LongitudeDegrees>-8.06293680332601070404052734375</LongitudeDegrees>
            </Position>
            <AltitudeMeters>285.600006103515625</AltitudeMeters>
            <DistanceMeters>317753.9361933</DistanceMeters>
          </Trackpoint>
          <Trackpoint>
            <Time>2018-09-14T15:23:39.000Z</Time>
            <Position>
              <LatitudeDegrees>37.52281623892486095428466796875</LatitudeDegrees>
              <LongitudeDegrees>-8.0629112385213375091552734375</LongitudeDegrees>
            </Position>
            <AltitudeMeters>285.79998779296875</AltitudeMeters>
            <DistanceMeters>317761.82283812</DistanceMeters>
          </Trackpoint>
          <Trackpoint>
            <Time>2018-09-14T15:23:40.000Z</Time>
            <Position>
              <LatitudeDegrees>37.5227504409849643707275390625</LatitudeDegrees>
              <LongitudeDegrees>-8.06288600899279117584228515625</LongitudeDegrees>
            </Position>
            <AltitudeMeters>286.20001220703125</AltitudeMeters>
            <DistanceMeters>317769.47706153</DistanceMeters>
          </Trackpoint>
          <Trackpoint>
            <Time>2018-09-14T15:23:41.000Z</Time>
            <Position>
              <LatitudeDegrees>37.52268581651151180267333984375</LatitudeDegrees>
              <LongitudeDegrees>-8.0628609471023082733154296875</LongitudeDegrees>
            </Position>
            <AltitudeMeters>286.399993896484375</AltitudeMeters>
            <DistanceMeters>317777.00279335</DistanceMeters>
          </Trackpoint>
          <Trackpoint>
            <Time>2018-09-14T15:23:42.000Z</Time>
            <Position>
              <LatitudeDegrees>37.5226237066090106964111328125</LatitudeDegrees>
              <LongitudeDegrees>-8.062835298478603363037109375</LongitudeDegrees>
            </Position>
            <AltitudeMeters>286.600006103515625</AltitudeMeters>
            <DistanceMeters>317784.27714885</DistanceMeters>
          </Trackpoint>
          <Trackpoint>
            <Time>2018-09-14T15:23:43.000Z</Time>
            <Position>
              <LatitudeDegrees>37.52256209962069988250732421875</LatitudeDegrees>
              <LongitudeDegrees>-8.06281157769262790679931640625</LongitudeDegrees>
            </Position>
            <AltitudeMeters>286.79998779296875</AltitudeMeters>
            <DistanceMeters>317791.44647205</DistanceMeters>
          </Trackpoint>
          <Trackpoint>
            <Time>2018-09-14T15:23:44.000Z</Time>
            <Position>
              <LatitudeDegrees>37.52250174991786479949951171875</LatitudeDegrees>
              <LongitudeDegrees>-8.062789030373096466064453125</LongitudeDegrees>
            </Position>
            <AltitudeMeters>287</AltitudeMeters>
            <DistanceMeters>317798.45142997</DistanceMeters>
          </Trackpoint>
          <Trackpoint>
            <Time>2018-09-14T15:23:45.000Z</Time>
            <Position>
              <LatitudeDegrees>37.5224424898624420166015625</LatitudeDegrees>
              <LongitudeDegrees>-8.06276413612067699432373046875</LongitudeDegrees>
            </Position>
            <AltitudeMeters>287.20001220703125</AltitudeMeters>
            <DistanceMeters>317805.40333396</DistanceMeters>
          </Trackpoint>
          <Trackpoint>
            <Time>2018-09-14T15:23:46.000Z</Time>
            <Position>
              <LatitudeDegrees>37.52238415181636810302734375</LatitudeDegrees>
              <LongitudeDegrees>-8.062739074230194091796875</LongitudeDegrees>
            </Position>
            <AltitudeMeters>287.20001220703125</AltitudeMeters>
            <DistanceMeters>317812.26239354</DistanceMeters>
          </Trackpoint>
          <Trackpoint>
            <Time>2018-09-14T15:23:47.000Z</Time>
            <Position>
              <LatitudeDegrees>37.52232556231319904327392578125</LatitudeDegrees>
              <LongitudeDegrees>-8.062715269625186920166015625</LongitudeDegrees>
            </Position>
            <AltitudeMeters>287.20001220703125</AltitudeMeters>
            <DistanceMeters>317819.11420844</DistanceMeters>
          </Trackpoint>
          <Trackpoint>
            <Time>2018-09-14T15:23:48.000Z</Time>
            <Position>
              <LatitudeDegrees>37.52226747572422027587890625</LatitudeDegrees>
              <LongitudeDegrees>-8.06269347667694091796875</LongitudeDegrees>
            </Position>
            <AltitudeMeters>287</AltitudeMeters>
            <DistanceMeters>317825.85976662</DistanceMeters>
          </Trackpoint>
          <Trackpoint>
            <Time>2018-09-14T15:23:49.000Z</Time>
            <Position>
              <LatitudeDegrees>37.5222089700400829315185546875</LatitudeDegrees>
              <LongitudeDegrees>-8.0626721866428852081298828125</LongitudeDegrees>
            </Position>
            <AltitudeMeters>287</AltitudeMeters>
            <DistanceMeters>317832.63804287</DistanceMeters>
          </Trackpoint>
          <Trackpoint>
            <Time>2018-09-14T15:23:50.000Z</Time>
            <Position>
              <LatitudeDegrees>37.52214945852756500244140625</LatitudeDegrees>
              <LongitudeDegrees>-8.06264989078044891357421875</LongitudeDegrees>
            </Position>
            <AltitudeMeters>286.79998779296875</AltitudeMeters>
            <DistanceMeters>317839.54825591</DistanceMeters>
          </Trackpoint>
          <Trackpoint>
            <Time>2018-09-14T15:23:51.000Z</Time>
            <Position>
              <LatitudeDegrees>37.52208852209150791168212890625</LatitudeDegrees>
              <LongitudeDegrees>-8.06262583471834659576416015625</LongitudeDegrees>
            </Position>
            <AltitudeMeters>286.600006103515625</AltitudeMeters>
            <DistanceMeters>317846.6555935</DistanceMeters>
          </Trackpoint>
          <Trackpoint>
            <Time>2018-09-14T15:23:52.000Z</Time>
            <Position>
              <LatitudeDegrees>37.522025741636753082275390625</LatitudeDegrees>
              <LongitudeDegrees>-8.06260052137076854705810546875</LongitudeDegrees>
            </Position>
            <AltitudeMeters>286.399993896484375</AltitudeMeters>
            <DistanceMeters>317853.99175432</DistanceMeters>
          </Trackpoint>
          <Trackpoint>
            <Time>2018-09-14T15:23:53.000Z</Time>
            <Position>
              <LatitudeDegrees>37.5219612009823322296142578125</LatitudeDegrees>
              <LongitudeDegrees>-8.06257604621350765228271484375</LongitudeDegrees>
            </Position>
            <AltitudeMeters>286.20001220703125</AltitudeMeters>
            <DistanceMeters>317861.492848</DistanceMeters>
          </Trackpoint>
          <Trackpoint>
            <Time>2018-09-14T15:23:54.000Z</Time>
            <Position>
              <LatitudeDegrees>37.52189473249018192291259765625</LatitudeDegrees>
              <LongitudeDegrees>-8.06255173869431018829345703125</LongitudeDegrees>
            </Position>
            <AltitudeMeters>286</AltitudeMeters>
            <DistanceMeters>317869.19587548</DistanceMeters>
          </Trackpoint>
          <Trackpoint>
            <Time>2018-09-14T15:23:55.000Z</Time>
            <Position>
              <LatitudeDegrees>37.521826922893524169921875</LatitudeDegrees>
              <LongitudeDegrees>-8.06252609007060527801513671875</LongitudeDegrees>
            </Position>
            <AltitudeMeters>285.79998779296875</AltitudeMeters>
            <DistanceMeters>317877.07507439</DistanceMeters>
          </Trackpoint>
          <Trackpoint>
            <Time>2018-09-14T15:23:56.000Z</Time>
            <Position>
              <LatitudeDegrees>37.52175785601139068603515625</LatitudeDegrees>
              <LongitudeDegrees>-8.06249960325658321380615234375</LongitudeDegrees>
            </Position>
            <AltitudeMeters>285.600006103515625</AltitudeMeters>
            <DistanceMeters>317885.1103122</DistanceMeters>
          </Trackpoint>
          <Trackpoint>
            <Time>2018-09-14T15:23:57.000Z</Time>
            <Position>
              <LatitudeDegrees>37.5216872803866863250732421875</LatitudeDegrees>
              <LongitudeDegrees>-8.06247278116643428802490234375</LongitudeDegrees>
            </Position>
            <AltitudeMeters>285.79998779296875</AltitudeMeters>
            <DistanceMeters>317893.31459095</DistanceMeters>
          </Trackpoint>
          <Trackpoint>
            <Time>2018-09-14T15:23:58.000Z</Time>
            <Position>
              <LatitudeDegrees>37.52161477692425251007080078125</LatitudeDegrees>
              <LongitudeDegrees>-8.06244612671434879302978515625</LongitudeDegrees>
            </Position>
            <AltitudeMeters>285.600006103515625</AltitudeMeters>
            <DistanceMeters>317901.72002479</DistanceMeters>
          </Trackpoint>
          <Trackpoint>
            <Time>2018-09-14T15:23:59.000Z</Time>
            <Position>
              <LatitudeDegrees>37.5215412676334381103515625</LatitudeDegrees>
              <LongitudeDegrees>-8.06241896934807300567626953125</LongitudeDegrees>
            </Position>
            <AltitudeMeters>285.399993896484375</AltitudeMeters>
            <DistanceMeters>317910.24599191</DistanceMeters>
          </Trackpoint>
          <Trackpoint>
            <Time>2018-09-14T15:24:00.000Z</Time>
            <Position>
              <LatitudeDegrees>37.52146574668586254119873046875</LatitudeDegrees>
              <LongitudeDegrees>-8.06238971650600433349609375</LongitudeDegrees>
            </Position>
            <AltitudeMeters>285</AltitudeMeters>
            <DistanceMeters>317919.03994294</DistanceMeters>
          </Trackpoint>
          <Trackpoint>
            <Time>2018-09-14T15:24:01.000Z</Time>
            <Position>
              <LatitudeDegrees>37.521388046443462371826171875</LatitudeDegrees>
              <LongitudeDegrees>-8.06235895492136478424072265625</LongitudeDegrees>
            </Position>
            <AltitudeMeters>284.79998779296875</AltitudeMeters>
            <DistanceMeters>317928.10491374</DistanceMeters>
          </Trackpoint>
          <Trackpoint>
            <Time>2018-09-14T15:24:02.000Z</Time>
            <Position>
              <LatitudeDegrees>37.52130866982042789459228515625</LatitudeDegrees>
              <LongitudeDegrees>-8.0623275227844715118408203125</LongitudeDegrees>
            </Position>
            <AltitudeMeters>284.399993896484375</AltitudeMeters>
            <DistanceMeters>317937.36502205</DistanceMeters>
          </Trackpoint>
          <Trackpoint>
            <Time>2018-09-14T15:24:03.000Z</Time>
            <Position>
              <LatitudeDegrees>37.52122677862644195556640625</LatitudeDegrees>
              <LongitudeDegrees>-8.06229558773338794708251953125</LongitudeDegrees>
            </Position>
            <AltitudeMeters>284</AltitudeMeters>
            <DistanceMeters>317946.90562845</DistanceMeters>
          </Trackpoint>
          <Trackpoint>
            <Time>2018-09-14T15:24:04.000Z</Time>
            <Position>
              <LatitudeDegrees>37.52114321105182170867919921875</LatitudeDegrees>
              <LongitudeDegrees>-8.06226289831101894378662109375</LongitudeDegrees>
            </Position>
            <AltitudeMeters>283.79998779296875</AltitudeMeters>
            <DistanceMeters>317956.64389641</DistanceMeters>
          </Trackpoint>
          <Trackpoint>
            <Time>2018-09-14T15:24:05.000Z</Time>
            <Position>
              <LatitudeDegrees>37.52105805091559886932373046875</LatitudeDegrees>
              <LongitudeDegrees>-8.062229454517364501953125</LongitudeDegrees>
            </Position>
            <AltitudeMeters>283.600006103515625</AltitudeMeters>
            <DistanceMeters>317966.57134595</DistanceMeters>
          </Trackpoint>
          <Trackpoint>
            <Time>2018-09-14T15:24:06.000Z</Time>
            <Position>
              <LatitudeDegrees>37.52097087912261486053466796875</LatitudeDegrees>
              <LongitudeDegrees>-8.06219525635242462158203125</LongitudeDegrees>
            </Position>
            <AltitudeMeters>283.399993896484375</AltitudeMeters>
            <DistanceMeters>317976.73254145</DistanceMeters>
          </Trackpoint>
          <Trackpoint>
            <Time>2018-09-14T15:24:07.000Z</Time>
            <Position>
              <LatitudeDegrees>37.52088270150125026702880859375</LatitudeDegrees>
              <LongitudeDegrees>-8.06216063909232616424560546875</LongitudeDegrees>
            </Position>
            <AltitudeMeters>283.20001220703125</AltitudeMeters>
            <DistanceMeters>317987.01125219</DistanceMeters>
          </Trackpoint>
          <Trackpoint>
            <Time>2018-09-14T15:24:08.000Z</Time>
            <Position>
              <LatitudeDegrees>37.520793937146663665771484375</LatitudeDegrees>
              <LongitudeDegrees>-8.06212660856544971466064453125</LongitudeDegrees>
            </Position>
            <AltitudeMeters>283</AltitudeMeters>
            <DistanceMeters>317997.33816861</DistanceMeters>
          </Trackpoint>
          <Trackpoint>
            <Time>2018-09-14T15:24:09.000Z</Time>
            <Position>
              <LatitudeDegrees>37.5207055918872356414794921875</LatitudeDegrees>
              <LongitudeDegrees>-8.06209157221019268035888671875</LongitudeDegrees>
            </Position>
            <AltitudeMeters>283</AltitudeMeters>
            <DistanceMeters>318007.64582981</DistanceMeters>
          </Trackpoint>
          <Trackpoint>
            <Time>2018-09-14T15:24:10.000Z</Time>
            <Position>
              <LatitudeDegrees>37.52061682753264904022216796875</LatitudeDegrees>
              <LongitudeDegrees>-8.0620556138455867767333984375</LongitudeDegrees>
            </Position>
            <AltitudeMeters>283</AltitudeMeters>
            <DistanceMeters>318018.02290366</DistanceMeters>
          </Trackpoint>
          <Trackpoint>
            <Time>2018-09-14T15:24:11.000Z</Time>
            <Position>
              <LatitudeDegrees>37.52052764408290386199951171875</LatitudeDegrees>
              <LongitudeDegrees>-8.0620200745761394500732421875</LongitudeDegrees>
            </Position>
            <AltitudeMeters>282.79998779296875</AltitudeMeters>
            <DistanceMeters>318028.4334261</DistanceMeters>
          </Trackpoint>
          <Trackpoint>
            <Time>2018-09-14T15:24:12.000Z</Time>
            <Position>
              <LatitudeDegrees>37.52043812535703182220458984375</LatitudeDegrees>
              <LongitudeDegrees>-8.06198612786829471588134765625</LongitudeDegrees>
            </Position>
            <AltitudeMeters>282.399993896484375</AltitudeMeters>
            <DistanceMeters>318038.83830892</DistanceMeters>
          </Trackpoint>
          <Trackpoint>
            <Time>2018-09-14T15:24:13.000Z</Time>
            <Position>
              <LatitudeDegrees>37.52034793607890605926513671875</LatitudeDegrees>
              <LongitudeDegrees>-8.061951510608196258544921875</LongitudeDegrees>
            </Position>
            <AltitudeMeters>282</AltitudeMeters>
            <DistanceMeters>318049.33177127</DistanceMeters>
          </Trackpoint>
          <Trackpoint>
            <Time>2018-09-14T15:24:14.000Z</Time>
            <Position>
              <LatitudeDegrees>37.52025791443884372711181640625</LatitudeDegrees>
              <LongitudeDegrees>-8.0619164742529392242431640625</LongitudeDegrees>
            </Position>
            <AltitudeMeters>281.399993896484375</AltitudeMeters>
            <DistanceMeters>318059.81748588</DistanceMeters>
          </Trackpoint>
          <Trackpoint>
            <Time>2018-09-14T15:24:15.000Z</Time>
            <Position>
              <LatitudeDegrees>37.520167641341686248779296875</LatitudeDegrees>
              <LongitudeDegrees>-8.06188202463090419769287109375</LongitudeDegrees>
            </Position>
            <AltitudeMeters>281</AltitudeMeters>
            <DistanceMeters>318070.31525006</DistanceMeters>
          </Trackpoint>
          <Trackpoint>
            <Time>2018-09-14T15:24:16.000Z</Time>
            <Position>
              <LatitudeDegrees>37.520077116787433624267578125</LatitudeDegrees>
              <LongitudeDegrees>-8.0618474073708057403564453125</LongitudeDegrees>
            </Position>
            <AltitudeMeters>280.600006103515625</AltitudeMeters>
            <DistanceMeters>318080.84436439</DistanceMeters>
          </Trackpoint>
          <Trackpoint>
            <Time>2018-09-14T15:24:17.000Z</Time>
            <Position>
              <LatitudeDegrees>37.51998759806156158447265625</LatitudeDegrees>
              <LongitudeDegrees>-8.06181245483458042144775390625</LongitudeDegrees>
            </Position>
            <AltitudeMeters>280.20001220703125</AltitudeMeters>
            <DistanceMeters>318091.27481793</DistanceMeters>
          </Trackpoint>
          <Trackpoint>
            <Time>2018-09-14T15:24:18.000Z</Time>
            <Position>
              <LatitudeDegrees>37.51989950425922870635986328125</LatitudeDegrees>
              <LongitudeDegrees>-8.06177892722189426422119140625</LongitudeDegrees>
            </Position>
            <AltitudeMeters>280.20001220703125</AltitudeMeters>
            <DistanceMeters>318101.51656426</DistanceMeters>
          </Trackpoint>
          <Trackpoint>
            <Time>2018-09-14T15:24:19.000Z</Time>
            <Position>
              <LatitudeDegrees>37.51981266774237155914306640625</LatitudeDegrees>
              <LongitudeDegrees>-8.06174598634243011474609375</LongitudeDegrees>
            </Position>
            <AltitudeMeters>280.20001220703125</AltitudeMeters>
            <DistanceMeters>318111.60999393</DistanceMeters>
          </Trackpoint>
          <Trackpoint>
            <Time>2018-09-14T15:24:20.000Z</Time>
            <Position>
              <LatitudeDegrees>37.5197282619774341583251953125</LatitudeDegrees>
              <LongitudeDegrees>-8.06171304546296596527099609375</LongitudeDegrees>
            </Position>
            <AltitudeMeters>280.20001220703125</AltitudeMeters>
            <DistanceMeters>318121.44468502</DistanceMeters>
          </Trackpoint>
          <Trackpoint>
            <Time>2018-09-14T15:24:21.000Z</Time>
            <Position>
              <LatitudeDegrees>37.5196467898786067962646484375</LatitudeDegrees>
              <LongitudeDegrees>-8.0616814456880092620849609375</LongitudeDegrees>
            </Position>
            <AltitudeMeters>280.399993896484375</AltitudeMeters>
            <DistanceMeters>318130.93214</DistanceMeters>
          </Trackpoint>
          <Trackpoint>
            <Time>2018-09-14T15:24:22.000Z</Time>
            <Position>
              <LatitudeDegrees>37.5195683352649211883544921875</LatitudeDegrees>
              <LongitudeDegrees>-8.06165085174143314361572265625</LongitudeDegrees>
            </Position>
            <AltitudeMeters>280.399993896484375</AltitudeMeters>
            <DistanceMeters>318140.07250472</DistanceMeters>
          </Trackpoint>
          <Trackpoint>
            <Time>2018-09-14T15:24:23.000Z</Time>
            <Position>
              <LatitudeDegrees>37.5194918923079967498779296875</LatitudeDegrees>
              <LongitudeDegrees>-8.0616204254329204559326171875</LongitudeDegrees>
            </Position>
            <AltitudeMeters>280.399993896484375</AltitudeMeters>
            <DistanceMeters>318148.99490092</DistanceMeters>
          </Trackpoint>
          <Trackpoint>
            <Time>2018-09-14T15:24:24.000Z</Time>
            <Position>
              <LatitudeDegrees>37.51941804774105548858642578125</LatitudeDegrees>
              <LongitudeDegrees>-8.06159175932407379150390625</LongitudeDegrees>
            </Position>
            <AltitudeMeters>280.600006103515625</AltitudeMeters>
            <DistanceMeters>318157.59468731</DistanceMeters>
          </Trackpoint>
          <Trackpoint>
            <Time>2018-09-14T15:24:25.000Z</Time>
            <Position>
              <LatitudeDegrees>37.5193450413644313812255859375</LatitudeDegrees>
              <LongitudeDegrees>-8.06156091392040252685546875</LongitudeDegrees>
            </Position>
            <AltitudeMeters>280.600006103515625</AltitudeMeters>
            <DistanceMeters>318166.1650223</DistanceMeters>
          </Trackpoint>
          <Trackpoint>
            <Time>2018-09-14T15:24:26.000Z</Time>
            <Position>
              <LatitudeDegrees>37.51927304081618785858154296875</LatitudeDegrees>
              <LongitudeDegrees>-8.06153099052608013153076171875</LongitudeDegrees>
            </Position>
            <AltitudeMeters>280.600006103515625</AltitudeMeters>
            <DistanceMeters>318174.60315911</DistanceMeters>
          </Trackpoint>
          <Trackpoint>
            <Time>2018-09-14T15:24:27.000Z</Time>
            <Position>
              <LatitudeDegrees>37.5192022137343883514404296875</LatitudeDegrees>
              <LongitudeDegrees>-8.06150198914110660552978515625</LongitudeDegrees>
            </Position>
            <AltitudeMeters>280.600006103515625</AltitudeMeters>
            <DistanceMeters>318182.89175498</DistanceMeters>
          </Trackpoint>
          <Trackpoint>
            <Time>2018-09-14T15:24:28.000Z</Time>
            <Position>
              <LatitudeDegrees>37.51913339830935001373291015625</LatitudeDegrees>
              <LongitudeDegrees>-8.06147332303225994110107421875</LongitudeDegrees>
            </Position>
            <AltitudeMeters>280.79998779296875</AltitudeMeters>
            <DistanceMeters>318190.95839808</DistanceMeters>
          </Trackpoint>
          <Trackpoint>
            <Time>2018-09-14T15:24:29.000Z</Time>
            <Position>
              <LatitudeDegrees>37.5190660916268825531005859375</LatitudeDegrees>
              <LongitudeDegrees>-8.06144666858017444610595703125</LongitudeDegrees>
            </Position>
            <AltitudeMeters>281.20001220703125</AltitudeMeters>
            <DistanceMeters>318198.81061827</DistanceMeters>
          </Trackpoint>
          <Trackpoint>
            <Time>2018-09-14T15:24:30.000Z</Time>
            <Position>
              <LatitudeDegrees>37.519000209867954254150390625</LatitudeDegrees>
              <LongitudeDegrees>-8.06142143905162811279296875</LongitudeDegrees>
            </Position>
            <AltitudeMeters>281.600006103515625</AltitudeMeters>
            <DistanceMeters>318206.47427388</DistanceMeters>
          </Trackpoint>
          <Trackpoint>
            <Time>2018-09-14T15:24:31.000Z</Time>
            <Position>
              <LatitudeDegrees>37.51893575303256511688232421875</LatitudeDegrees>
              <LongitudeDegrees>-8.061396293342113494873046875</LongitudeDegrees>
            </Position>
            <AltitudeMeters>282</AltitudeMeters>
            <DistanceMeters>318213.9831884</DistanceMeters>
          </Trackpoint>
          <Trackpoint>
            <Time>2018-09-14T15:24:32.000Z</Time>
            <Position>
              <LatitudeDegrees>37.518872804939746856689453125</LatitudeDegrees>
              <LongitudeDegrees>-8.06137106381356716156005859375</LongitudeDegrees>
            </Position>
            <AltitudeMeters>282.399993896484375</AltitudeMeters>
            <DistanceMeters>318221.33471936</DistanceMeters>
          </Trackpoint>
          <Trackpoint>
            <Time>2018-09-14T15:24:33.000Z</Time>
            <Position>
              <LatitudeDegrees>37.5188107788562774658203125</LatitudeDegrees>
              <LongitudeDegrees>-8.06134675629436969757080078125</LongitudeDegrees>
            </Position>
            <AltitudeMeters>282.600006103515625</AltitudeMeters>
            <DistanceMeters>318228.56424787</DistanceMeters>
          </Trackpoint>
          <Trackpoint>
            <Time>2018-09-14T15:24:34.000Z</Time>
            <Position>
              <LatitudeDegrees>37.51875034533441066741943359375</LatitudeDegrees>
              <LongitudeDegrees>-8.0613237060606479644775390625</LongitudeDegrees>
            </Position>
            <AltitudeMeters>282.79998779296875</AltitudeMeters>
            <DistanceMeters>318235.59237124</DistanceMeters>
          </Trackpoint>
          <Trackpoint>
            <Time>2018-09-14T15:24:35.000Z</Time>
            <Position>
              <LatitudeDegrees>37.518691085278987884521484375</LatitudeDegrees>
              <LongitudeDegrees>-8.061301745474338531494140625</LongitudeDegrees>
            </Position>
            <AltitudeMeters>282.79998779296875</AltitudeMeters>
            <DistanceMeters>318242.46721089</DistanceMeters>
          </Trackpoint>
          <Trackpoint>
            <Time>2018-09-14T15:24:36.000Z</Time>
            <Position>
              <LatitudeDegrees>37.5186325795948505401611328125</LatitudeDegrees>
              <LongitudeDegrees>-8.061279952526092529296875</LongitudeDegrees>
            </Position>
            <AltitudeMeters>282.79998779296875</AltitudeMeters>
            <DistanceMeters>318249.25746643</DistanceMeters>
          </Trackpoint>
          <Trackpoint>
            <Time>2018-09-14T15:24:37.000Z</Time>
            <Position>
              <LatitudeDegrees>37.51857633702456951141357421875</LatitudeDegrees>
              <LongitudeDegrees>-8.0612559802830219268798828125</LongitudeDegrees>
            </Position>
            <AltitudeMeters>282.600006103515625</AltitudeMeters>
            <DistanceMeters>318255.8650696</DistanceMeters>
          </Trackpoint>
          <Trackpoint>
            <Time>2018-09-14T15:24:38.000Z</Time>
            <Position>
              <LatitudeDegrees>37.518520094454288482666015625</LatitudeDegrees>
              <LongitudeDegrees>-8.0612325109541416168212890625</LongitudeDegrees>
            </Position>
            <AltitudeMeters>282.600006103515625</AltitudeMeters>
            <DistanceMeters>318262.4596771</DistanceMeters>
          </Trackpoint>
          <Trackpoint>
            <Time>2018-09-14T15:24:39.000Z</Time>
            <Position>
              <LatitudeDegrees>37.51846410334110260009765625</LatitudeDegrees>
              <LongitudeDegrees>-8.06121222674846649169921875</LongitudeDegrees>
            </Position>
            <AltitudeMeters>282.600006103515625</AltitudeMeters>
            <DistanceMeters>318268.94381435</DistanceMeters>
          </Trackpoint>
          <Trackpoint>
            <Time>2018-09-14T15:24:40.000Z</Time>
            <Position>
              <LatitudeDegrees>37.5184086151421070098876953125</LatitudeDegrees>
              <LongitudeDegrees>-8.061191104352474212646484375</LongitudeDegrees>
            </Position>
            <AltitudeMeters>282.600006103515625</AltitudeMeters>
            <DistanceMeters>318275.39444163</DistanceMeters>
          </Trackpoint>
          <Trackpoint>
            <Time>2018-09-14T15:24:41.000Z</Time>
            <Position>
              <LatitudeDegrees>37.518353797495365142822265625</LatitudeDegrees>
              <LongitudeDegrees>-8.0611701495945453643798828125</LongitudeDegrees>
            </Position>
            <AltitudeMeters>282.399993896484375</AltitudeMeters>
            <DistanceMeters>318281.77044384</DistanceMeters>
          </Trackpoint>
          <Trackpoint>
            <Time>2018-09-14T15:24:42.000Z</Time>
            <Position>
              <LatitudeDegrees>37.51830006949603557586669921875</LatitudeDegrees>
              <LongitudeDegrees>-8.06114978156983852386474609375</LongitudeDegrees>
            </Position>
            <AltitudeMeters>282.399993896484375</AltitudeMeters>
            <DistanceMeters>318288.01479089</DistanceMeters>
          </Trackpoint>
          <Trackpoint>
            <Time>2018-09-14T15:24:43.000Z</Time>
            <Position>
              <LatitudeDegrees>37.51824642531573772430419921875</LatitudeDegrees>
              <LongitudeDegrees>-8.0611285753548145294189453125</LongitudeDegrees>
            </Position>
            <AltitudeMeters>282.20001220703125</AltitudeMeters>
            <DistanceMeters>318294.27213948</DistanceMeters>
          </Trackpoint>
          <Trackpoint>
            <Time>2018-09-14T15:24:44.000Z</Time>
            <Position>
              <LatitudeDegrees>37.5181925296783447265625</LatitudeDegrees>
              <LongitudeDegrees>-8.06110720150172710418701171875</LongitudeDegrees>
            </Position>
            <AltitudeMeters>282</AltitudeMeters>
            <DistanceMeters>318300.56115648</DistanceMeters>
          </Trackpoint>
          <Trackpoint>
            <Time>2018-09-14T15:24:45.000Z</Time>
            <Position>
              <LatitudeDegrees>37.518137209117412567138671875</LatitudeDegrees>
              <LongitudeDegrees>-8.06108725257217884063720703125</LongitudeDegrees>
            </Position>
            <AltitudeMeters>282</AltitudeMeters>
            <DistanceMeters>318306.96542125</DistanceMeters>
          </Trackpoint>
          <Trackpoint>
            <Time>2018-09-14T15:24:46.000Z</Time>
            <Position>
              <LatitudeDegrees>37.51808163709938526153564453125</LatitudeDegrees>
              <LongitudeDegrees>-8.0610672198235988616943359375</LongitudeDegrees>
            </Position>
            <AltitudeMeters>281.79998779296875</AltitudeMeters>
            <DistanceMeters>318313.39992982</DistanceMeters>
          </Trackpoint>
          <Trackpoint>
            <Time>2018-09-14T15:24:47.000Z</Time>
            <Position>
              <LatitudeDegrees>37.5180253945291042327880859375</LatitudeDegrees>
              <LongitudeDegrees>-8.0610464327037334442138671875</LongitudeDegrees>
            </Position>
            <AltitudeMeters>281.399993896484375</AltitudeMeters>
            <DistanceMeters>318319.92294447</DistanceMeters>
          </Trackpoint>
          <Trackpoint>
            <Time>2018-09-14T15:24:48.000Z</Time>
            <Position>
              <LatitudeDegrees>37.5179683975875377655029296875</LatitudeDegrees>
              <LongitudeDegrees>-8.06102438829839229583740234375</LongitudeDegrees>
            </Position>
            <AltitudeMeters>281.20001220703125</AltitudeMeters>
            <DistanceMeters>318326.55850419</DistanceMeters>
          </Trackpoint>
          <Trackpoint>
            <Time>2018-09-14T15:24:49.000Z</Time>
            <Position>
              <LatitudeDegrees>37.51791064627468585968017578125</LatitudeDegrees>
              <LongitudeDegrees>-8.06100075133144855499267578125</LongitudeDegrees>
            </Position>
            <AltitudeMeters>281</AltitudeMeters>
            <DistanceMeters>318333.31543149</DistanceMeters>
          </Trackpoint>
          <Trackpoint>
            <Time>2018-09-14T15:24:50.000Z</Time>
            <Position>
              <LatitudeDegrees>37.5178517214953899383544921875</LatitudeDegrees>
              <LongitudeDegrees>-8.06097895838320255279541015625</LongitudeDegrees>
            </Position>
            <AltitudeMeters>280.79998779296875</AltitudeMeters>
            <DistanceMeters>318340.15075266</DistanceMeters>
          </Trackpoint>
          <Trackpoint>
            <Time>2018-09-14T15:24:51.000Z</Time>
            <Position>
              <LatitudeDegrees>37.51779179088771343231201171875</LatitudeDegrees>
              <LongitudeDegrees>-8.0609579198062419891357421875</LongitudeDegrees>
            </Position>
            <AltitudeMeters>280.600006103515625</AltitudeMeters>
            <DistanceMeters>318347.07532528</DistanceMeters>
          </Trackpoint>
          <Trackpoint>
            <Time>2018-09-14T15:24:52.000Z</Time>
            <Position>
              <LatitudeDegrees>37.5177316926419734954833984375</LatitudeDegrees>
              <LongitudeDegrees>-8.060935623943805694580078125</LongitudeDegrees>
            </Position>
            <AltitudeMeters>280.399993896484375</AltitudeMeters>
            <DistanceMeters>318354.04798127</DistanceMeters>
          </Trackpoint>
          <Trackpoint>
            <Time>2018-09-14T15:24:53.000Z</Time>
            <Position>
              <LatitudeDegrees>37.51767109148204326629638671875</LatitudeDegrees>
              <LongitudeDegrees>-8.06091173551976680755615234375</LongitudeDegrees>
            </Position>
            <AltitudeMeters>280.20001220703125</AltitudeMeters>
            <DistanceMeters>318361.11518388</DistanceMeters>
          </Trackpoint>
          <Trackpoint>
            <Time>2018-09-14T15:24:54.000Z</Time>
            <Position>
              <LatitudeDegrees>37.51761023886501789093017578125</LatitudeDegrees>
              <LongitudeDegrees>-8.060886673629283905029296875</LongitudeDegrees>
            </Position>
            <AltitudeMeters>280</AltitudeMeters>
            <DistanceMeters>318368.23965296</DistanceMeters>
          </Trackpoint>
          <Trackpoint>
            <Time>2018-09-14T15:24:55.000Z</Time>
            <Position>
              <LatitudeDegrees>37.5175487995147705078125</LatitudeDegrees>
              <LongitudeDegrees>-8.06086362339556217193603515625</LongitudeDegrees>
            </Position>
            <AltitudeMeters>280</AltitudeMeters>
            <DistanceMeters>318375.37425463</DistanceMeters>
          </Trackpoint>
          <Trackpoint>
            <Time>2018-09-14T15:24:56.000Z</Time>
            <Position>
              <LatitudeDegrees>37.5174876116216182708740234375</LatitudeDegrees>
              <LongitudeDegrees>-8.06084266863763332366943359375</LongitudeDegrees>
            </Position>
            <AltitudeMeters>280.20001220703125</AltitudeMeters>
            <DistanceMeters>318382.43122789</DistanceMeters>
          </Trackpoint>
          <Trackpoint>
            <Time>2018-09-14T15:24:57.000Z</Time>
            <Position>
              <LatitudeDegrees>37.51742617227137088775634765625</LatitudeDegrees>
              <LongitudeDegrees>-8.0608221329748630523681640625</LongitudeDegrees>
            </Position>
            <AltitudeMeters>280.20001220703125</AltitudeMeters>
            <DistanceMeters>318389.50545461</DistanceMeters>
          </Trackpoint>
          <Trackpoint>
            <Time>2018-09-14T15:24:58.000Z</Time>
            <Position>
              <LatitudeDegrees>37.517366074025630950927734375</LatitudeDegrees>
              <LongitudeDegrees>-8.06079992093145847320556640625</LongitudeDegrees>
            </Position>
            <AltitudeMeters>280.399993896484375</AltitudeMeters>
            <DistanceMeters>318396.47551998</DistanceMeters>
          </Trackpoint>
          <Trackpoint>
            <Time>2018-09-14T15:24:59.000Z</Time>
            <Position>
              <LatitudeDegrees>37.51730714924633502960205078125</LatitudeDegrees>
              <LongitudeDegrees>-8.06077611632645130157470703125</LongitudeDegrees>
            </Position>
            <AltitudeMeters>280.399993896484375</AltitudeMeters>
            <DistanceMeters>318403.36217094</DistanceMeters>
          </Trackpoint>
          <Trackpoint>
            <Time>2018-09-14T15:25:00.000Z</Time>
            <Position>
              <LatitudeDegrees>37.5172502361238002777099609375</LatitudeDegrees>
              <LongitudeDegrees>-8.06075298227369785308837890625</LongitudeDegrees>
            </Position>
            <AltitudeMeters>280.600006103515625</AltitudeMeters>
            <DistanceMeters>318410.01811227</DistanceMeters>
          </Trackpoint>
          <Trackpoint>
            <Time>2018-09-14T15:25:01.000Z</Time>
            <Position>
              <LatitudeDegrees>37.517193742096424102783203125</LatitudeDegrees>
              <LongitudeDegrees>-8.060732446610927581787109375</LongitudeDegrees>
            </Position>
            <AltitudeMeters>280.600006103515625</AltitudeMeters>
            <DistanceMeters>318416.5618591</DistanceMeters>
          </Trackpoint>
          <Trackpoint>
            <Time>2018-09-14T15:25:02.000Z</Time>
            <Position>
              <LatitudeDegrees>37.51713800244033336639404296875</LatitudeDegrees>
              <LongitudeDegrees>-8.060713000595569610595703125</LongitudeDegrees>
            </Position>
            <AltitudeMeters>280.600006103515625</AltitudeMeters>
            <DistanceMeters>318422.99917382</DistanceMeters>
          </Trackpoint>
          <Trackpoint>
            <Time>2018-09-14T15:25:03.000Z</Time>
            <Position>
              <LatitudeDegrees>37.51708284951746463775634765625</LatitudeDegrees>
              <LongitudeDegrees>-8.060692213475704193115234375</LongitudeDegrees>
            </Position>
            <AltitudeMeters>280.79998779296875</AltitudeMeters>
            <DistanceMeters>318429.40625798</DistanceMeters>
          </Trackpoint>
          <Trackpoint>
            <Time>2018-09-14T15:25:04.000Z</Time>
            <Position>
              <LatitudeDegrees>37.51702736131846904754638671875</LatitudeDegrees>
              <LongitudeDegrees>-8.06067016907036304473876953125</LongitudeDegrees>
            </Position>
            <AltitudeMeters>280.79998779296875</AltitudeMeters>
            <DistanceMeters>318435.882034</DistanceMeters>
          </Trackpoint>
          <Trackpoint>
            <Time>2018-09-14T15:25:05.000Z</Time>
            <Position>
              <LatitudeDegrees>37.51697120256721973419189453125</LatitudeDegrees>
              <LongitudeDegrees>-8.0606484599411487579345703125</LongitudeDegrees>
            </Position>
            <AltitudeMeters>281</AltitudeMeters>
            <DistanceMeters>318442.42025867</DistanceMeters>
          </Trackpoint>
          <Trackpoint>
            <Time>2018-09-14T15:25:06.000Z</Time>
            <Position>
              <LatitudeDegrees>37.51691487617790699005126953125</LatitudeDegrees>
              <LongitudeDegrees>-8.06062557734549045562744140625</LongitudeDegrees>
            </Position>
            <AltitudeMeters>280.79998779296875</AltitudeMeters>
            <DistanceMeters>318449.00664518</DistanceMeters>
          </Trackpoint>
          <Trackpoint>
            <Time>2018-09-14T15:25:07.000Z</Time>
            <Position>
              <LatitudeDegrees>37.51685871742665767669677734375</LatitudeDegrees>
              <LongitudeDegrees>-8.06060378439724445343017578125</LongitudeDegrees>
            </Position>
            <AltitudeMeters>280.600006103515625</AltitudeMeters>
            <DistanceMeters>318455.54625083</DistanceMeters>
          </Trackpoint>
          <Trackpoint>
            <Time>2018-09-14T15:25:08.000Z</Time>
            <Position>
              <LatitudeDegrees>37.51680339686572551727294921875</LatitudeDegrees>
              <LongitudeDegrees>-8.0605839192867279052734375</LongitudeDegrees>
            </Position>
            <AltitudeMeters>280.399993896484375</AltitudeMeters>
            <DistanceMeters>318461.94769496</DistanceMeters>
          </Trackpoint>
          <Trackpoint>
            <Time>2018-09-14T15:25:09.000Z</Time>
            <Position>
              <LatitudeDegrees>37.51674908213317394256591796875</LatitudeDegrees>
              <LongitudeDegrees>-8.060564808547496795654296875</LongitudeDegrees>
            </Position>
            <AltitudeMeters>280.399993896484375</AltitudeMeters>
            <DistanceMeters>318468.22377601</DistanceMeters>
          </Trackpoint>
          <Trackpoint>
            <Time>2018-09-14T15:25:10.000Z</Time>
            <Position>
              <LatitudeDegrees>37.5166960246860980987548828125</LatitudeDegrees>
              <LongitudeDegrees>-8.06054946966469287872314453125</LongitudeDegrees>
            </Position>
            <AltitudeMeters>280.20001220703125</AltitudeMeters>
            <DistanceMeters>318474.28168247</DistanceMeters>
          </Trackpoint>
          <Trackpoint>
            <Time>2018-09-14T15:25:11.000Z</Time>
            <Position>
              <LatitudeDegrees>37.51664481125771999359130859375</LatitudeDegrees>
              <LongitudeDegrees>-8.06054293178021907806396484375</LongitudeDegrees>
            </Position>
            <AltitudeMeters>280.20001220703125</AltitudeMeters>
            <DistanceMeters>318480.01172243</DistanceMeters>
          </Trackpoint>
          <Trackpoint>
            <Time>2018-09-14T15:25:12.000Z</Time>
            <Position>
              <LatitudeDegrees>37.5165967829525470733642578125</LatitudeDegrees>
              <LongitudeDegrees>-8.0605465359985828399658203125</LongitudeDegrees>
            </Position>
            <AltitudeMeters>280.20001220703125</AltitudeMeters>
            <DistanceMeters>318485.36704901</DistanceMeters>
          </Trackpoint>
          <Trackpoint>
            <Time>2018-09-14T15:25:13.000Z</Time>
            <Position>
              <LatitudeDegrees>37.5165542028844356536865234375</LatitudeDegrees>
              <LongitudeDegrees>-8.0605602823197841644287109375</LongitudeDegrees>
            </Position>
            <AltitudeMeters>280.399993896484375</AltitudeMeters>
            <DistanceMeters>318490.25977143</DistanceMeters>
          </Trackpoint>
          <Trackpoint>
            <Time>2018-09-14T15:25:14.000Z</Time>
            <Position>
              <LatitudeDegrees>37.51651589758694171905517578125</LatitudeDegrees>
              <LongitudeDegrees>-8.0605777166783809661865234375</LongitudeDegrees>
            </Position>
            <AltitudeMeters>280.600006103515625</AltitudeMeters>
            <DistanceMeters>318494.79325287</DistanceMeters>
          </Trackpoint>
          <Trackpoint>
            <Time>2018-09-14T15:25:15.000Z</Time>
            <Position>
              <LatitudeDegrees>37.51648069359362125396728515625</LatitudeDegrees>
              <LongitudeDegrees>-8.0605944804847240447998046875</LongitudeDegrees>
            </Position>
            <AltitudeMeters>280.600006103515625</AltitudeMeters>
            <DistanceMeters>318498.98305819</DistanceMeters>
          </Trackpoint>
          <Trackpoint>
            <Time>2018-09-14T15:25:16.000Z</Time>
            <Position>
              <LatitudeDegrees>37.51644884236156940460205078125</LatitudeDegrees>
              <LongitudeDegrees>-8.06060872972011566162109375</LongitudeDegrees>
            </Position>
            <AltitudeMeters>280.79998779296875</AltitudeMeters>
            <DistanceMeters>318502.7459241</DistanceMeters>
          </Trackpoint>
          <Trackpoint>
            <Time>2018-09-14T15:25:17.000Z</Time>
            <Position>
              <LatitudeDegrees>37.51642026007175445556640625</LatitudeDegrees>
              <LongitudeDegrees>-8.06061811745166778564453125</LongitudeDegrees>
            </Position>
            <AltitudeMeters>280.79998779296875</AltitudeMeters>
            <DistanceMeters>318506.0336287</DistanceMeters>
          </Trackpoint>
          <Trackpoint>
            <Time>2018-09-14T15:25:18.000Z</Time>
            <Position>
              <LatitudeDegrees>37.51639352180063724517822265625</LatitudeDegrees>
              <LongitudeDegrees>-8.06062172167003154754638671875</LongitudeDegrees>
            </Position>
            <AltitudeMeters>281</AltitudeMeters>
            <DistanceMeters>318509.02810126</DistanceMeters>
          </Trackpoint>
          <Trackpoint>
            <Time>2018-09-14T15:25:19.000Z</Time>
            <Position>
              <LatitudeDegrees>37.5163686275482177734375</LatitudeDegrees>
              <LongitudeDegrees>-8.0606199614703655242919921875</LongitudeDegrees>
            </Position>
            <AltitudeMeters>281</AltitudeMeters>
            <DistanceMeters>318511.80509339</DistanceMeters>
          </Trackpoint>
          <Trackpoint>
            <Time>2018-09-14T15:25:20.000Z</Time>
            <Position>
              <LatitudeDegrees>37.51634524203836917877197265625</LatitudeDegrees>
              <LongitudeDegrees>-8.060613088309764862060546875</LongitudeDegrees>
            </Position>
            <AltitudeMeters>281</AltitudeMeters>
            <DistanceMeters>318514.47769333</DistanceMeters>
          </Trackpoint>
          <Trackpoint>
            <Time>2018-09-14T15:25:21.000Z</Time>
            <Position>
              <LatitudeDegrees>37.5163231976330280303955078125</LatitudeDegrees>
              <LongitudeDegrees>-8.060599677264690399169921875</LongitudeDegrees>
            </Position>
            <AltitudeMeters>281</AltitudeMeters>
            <DistanceMeters>318517.20216077</DistanceMeters>
          </Trackpoint>
          <Trackpoint>
            <Time>2018-09-14T15:25:22.000Z</Time>
            <Position>
              <LatitudeDegrees>37.5163034163415431976318359375</LatitudeDegrees>
              <LongitudeDegrees>-8.060576878488063812255859375</LongitudeDegrees>
            </Position>
            <AltitudeMeters>281</AltitudeMeters>
            <DistanceMeters>318520.18606013</DistanceMeters>
          </Trackpoint>
          <Trackpoint>
            <Time>2018-09-14T15:25:23.000Z</Time>
            <Position>
              <LatitudeDegrees>37.5162856467068195343017578125</LatitudeDegrees>
              <LongitudeDegrees>-8.060545027256011962890625</LongitudeDegrees>
            </Position>
            <AltitudeMeters>281</AltitudeMeters>
            <DistanceMeters>318523.62544963</DistanceMeters>
          </Trackpoint>
          <Trackpoint>
            <Time>2018-09-14T15:25:24.000Z</Time>
            <Position>
              <LatitudeDegrees>37.51626745797693729400634765625</LatitudeDegrees>
              <LongitudeDegrees>-8.06050814688205718994140625</LongitudeDegrees>
            </Position>
            <AltitudeMeters>281</AltitudeMeters>
            <DistanceMeters>318527.45963331</DistanceMeters>
          </Trackpoint>
          <Trackpoint>
            <Time>2018-09-14T15:25:25.000Z</Time>
            <Position>
              <LatitudeDegrees>37.5162464193999767303466796875</LatitudeDegrees>
              <LongitudeDegrees>-8.06046917103230953216552734375</LongitudeDegrees>
            </Position>
            <AltitudeMeters>281</AltitudeMeters>
            <DistanceMeters>318531.62132606</DistanceMeters>
          </Trackpoint>
          <Trackpoint>
            <Time>2018-09-14T15:25:26.000Z</Time>
            <Position>
              <LatitudeDegrees>37.516221441328525543212890625</LatitudeDegrees>
              <LongitudeDegrees>-8.06042969226837158203125</LongitudeDegrees>
            </Position>
            <AltitudeMeters>281.20001220703125</AltitudeMeters>
            <DistanceMeters>318536.07847405</DistanceMeters>
          </Trackpoint>
          <Trackpoint>
            <Time>2018-09-14T15:25:27.000Z</Time>
            <Position>
              <LatitudeDegrees>37.51619495451450347900390625</LatitudeDegrees>
              <LongitudeDegrees>-8.06039406917989253997802734375</LongitudeDegrees>
            </Position>
            <AltitudeMeters>281.20001220703125</AltitudeMeters>
            <DistanceMeters>318540.38937852</DistanceMeters>
          </Trackpoint>
          <Trackpoint>
            <Time>2018-09-14T15:25:28.000Z</Time>
            <Position>
              <LatitudeDegrees>37.51616704277694225311279296875</LatitudeDegrees>
              <LongitudeDegrees>-8.06036439724266529083251953125</LongitudeDegrees>
            </Position>
            <AltitudeMeters>281.399993896484375</AltitudeMeters>
            <DistanceMeters>318544.45447875</DistanceMeters>
          </Trackpoint>
          <Trackpoint>
            <Time>2018-09-14T15:25:29.000Z</Time>
            <Position>
              <LatitudeDegrees>37.5161387957632541656494140625</LatitudeDegrees>
              <LongitudeDegrees>-8.06034184992313385009765625</LongitudeDegrees>
            </Position>
            <AltitudeMeters>281.600006103515625</AltitudeMeters>
            <DistanceMeters>318548.1763247</DistanceMeters>
          </Trackpoint>
          <Trackpoint>
            <Time>2018-09-14T15:25:30.000Z</Time>
            <Position>
              <LatitudeDegrees>37.51611054874956607818603515625</LatitudeDegrees>
              <LongitudeDegrees>-8.0603219009935855865478515625</LongitudeDegrees>
            </Position>
            <AltitudeMeters>281.600006103515625</AltitudeMeters>
            <DistanceMeters>318551.77982993</DistanceMeters>
          </Trackpoint>
          <Trackpoint>
            <Time>2018-09-14T15:25:31.000Z</Time>
            <Position>
              <LatitudeDegrees>37.51608137972652912139892578125</LatitudeDegrees>
              <LongitudeDegrees>-8.0603064782917499542236328125</LongitudeDegrees>
            </Position>
            <AltitudeMeters>281.79998779296875</AltitudeMeters>
            <DistanceMeters>318555.29966868</DistanceMeters>
          </Trackpoint>
          <Trackpoint>
            <Time>2018-09-14T15:25:32.000Z</Time>
            <Position>
              <LatitudeDegrees>37.51605145633220672607421875</LatitudeDegrees>
              <LongitudeDegrees>-8.0602947436273097991943359375</LongitudeDegrees>
            </Position>
            <AltitudeMeters>282</AltitudeMeters>
            <DistanceMeters>318558.78729151</DistanceMeters>
          </Trackpoint>
          <Trackpoint>
            <Time>2018-09-14T15:25:33.000Z</Time>
            <Position>
              <LatitudeDegrees>37.51602195203304290771484375</LatitudeDegrees>
              <LongitudeDegrees>-8.06028326041996479034423828125</LongitudeDegrees>
            </Position>
            <AltitudeMeters>282.20001220703125</AltitudeMeters>
            <DistanceMeters>318562.22405452</DistanceMeters>
          </Trackpoint>
          <Trackpoint>
            <Time>2018-09-14T15:25:34.000Z</Time>
            <Position>
              <LatitudeDegrees>37.51599269919097423553466796875</LatitudeDegrees>
              <LongitudeDegrees>-8.060272447764873504638671875</LongitudeDegrees>
            </Position>
            <AltitudeMeters>282.20001220703125</AltitudeMeters>
            <DistanceMeters>318565.61718692</DistanceMeters>
          </Trackpoint>
          <Trackpoint>
            <Time>2018-09-14T15:25:35.000Z</Time>
            <Position>
              <LatitudeDegrees>37.51596369780600070953369140625</LatitudeDegrees>
              <LongitudeDegrees>-8.06026247330009937286376953125</LongitudeDegrees>
            </Position>
            <AltitudeMeters>282.399993896484375</AltitudeMeters>
            <DistanceMeters>318568.96342283</DistanceMeters>
          </Trackpoint>
          <Trackpoint>
            <Time>2018-09-14T15:25:36.000Z</Time>
            <Position>
              <LatitudeDegrees>37.51593670807778835296630859375</LatitudeDegrees>
              <LongitudeDegrees>-8.060252666473388671875</LongitudeDegrees>
            </Position>
            <AltitudeMeters>282.600006103515625</AltitudeMeters>
            <DistanceMeters>318572.09065368</DistanceMeters>
          </Trackpoint>
          <Trackpoint>
            <Time>2018-09-14T15:25:37.000Z</Time>
            <Position>
              <LatitudeDegrees>37.51591374166309833526611328125</LatitudeDegrees>
              <LongitudeDegrees>-8.060242943465709686279296875</LongitudeDegrees>
            </Position>
            <AltitudeMeters>282.600006103515625</AltitudeMeters>
            <DistanceMeters>318574.78847532</DistanceMeters>
          </Trackpoint>
          <Trackpoint>
            <Time>2018-09-14T15:25:38.000Z</Time>
            <Position>
              <LatitudeDegrees>37.515892870724201202392578125</LatitudeDegrees>
              <LongitudeDegrees>-8.060230873525142669677734375</LongitudeDegrees>
            </Position>
            <AltitudeMeters>282.79998779296875</AltitudeMeters>
            <DistanceMeters>318577.3453827</DistanceMeters>
          </Trackpoint>
          <Trackpoint>
            <Time>2018-09-14T15:25:39.000Z</Time>
            <Position>
              <LatitudeDegrees>37.51586847938597202301025390625</LatitudeDegrees>
              <LongitudeDegrees>-8.06022140197455883026123046875</LongitudeDegrees>
            </Position>
            <AltitudeMeters>282.79998779296875</AltitudeMeters>
            <DistanceMeters>318580.18666557</DistanceMeters>
          </Trackpoint>
          <Trackpoint>
            <Time>2018-09-14T15:25:40.000Z</Time>
            <Position>
              <LatitudeDegrees>37.51583956182003021240234375</LatitudeDegrees>
              <LongitudeDegrees>-8.0602129362523555755615234375</LongitudeDegrees>
            </Position>
            <AltitudeMeters>283</AltitudeMeters>
            <DistanceMeters>318583.49217499</DistanceMeters>
          </Trackpoint>
          <Trackpoint>
            <Time>2018-09-14T15:25:41.000Z</Time>
            <Position>
              <LatitudeDegrees>37.5158078782260417938232421875</LatitudeDegrees>
              <LongitudeDegrees>-8.06020162068307399749755859375</LongitudeDegrees>
            </Position>
            <AltitudeMeters>283</AltitudeMeters>
            <DistanceMeters>318587.15779277</DistanceMeters>
          </Trackpoint>
          <Trackpoint>
            <Time>2018-09-14T15:25:42.000Z</Time>
            <Position>
              <LatitudeDegrees>37.515776194632053375244140625</LatitudeDegrees>
              <LongitudeDegrees>-8.0601894669234752655029296875</LongitudeDegrees>
            </Position>
            <AltitudeMeters>283</AltitudeMeters>
            <DistanceMeters>318590.84429044</DistanceMeters>
          </Trackpoint>
          <Trackpoint>
            <Time>2018-09-14T15:25:43.000Z</Time>
            <Position>
              <LatitudeDegrees>37.5157476961612701416015625</LatitudeDegrees>
              <LongitudeDegrees>-8.0601794086396694183349609375</LongitudeDegrees>
            </Position>
            <AltitudeMeters>283</AltitudeMeters>
            <DistanceMeters>318594.13611239</DistanceMeters>
          </Trackpoint>
          <Trackpoint>
            <Time>2018-09-14T15:25:44.000Z</Time>
            <Position>
              <LatitudeDegrees>37.51571726985275745391845703125</LatitudeDegrees>
              <LongitudeDegrees>-8.06016616523265838623046875</LongitudeDegrees>
            </Position>
            <AltitudeMeters>283.20001220703125</AltitudeMeters>
            <DistanceMeters>318597.71825401</DistanceMeters>
          </Trackpoint>
          <Trackpoint>
            <Time>2018-09-14T15:25:45.000Z</Time>
            <Position>
              <LatitudeDegrees>37.51568743027746677398681640625</LatitudeDegrees>
              <LongitudeDegrees>-8.060153760015964508056640625</LongitudeDegrees>
            </Position>
            <AltitudeMeters>283.399993896484375</AltitudeMeters>
            <DistanceMeters>318601.21492722</DistanceMeters>
          </Trackpoint>
          <Trackpoint>
            <Time>2018-09-14T15:25:46.000Z</Time>
            <Position>
              <LatitudeDegrees>37.515657506883144378662109375</LatitudeDegrees>
              <LongitudeDegrees>-8.06014068424701690673828125</LongitudeDegrees>
            </Position>
            <AltitudeMeters>283.399993896484375</AltitudeMeters>
            <DistanceMeters>318604.7398932</DistanceMeters>
          </Trackpoint>
          <Trackpoint>
            <Time>2018-09-14T15:25:47.000Z</Time>
            <Position>
              <LatitudeDegrees>37.5156271643936634063720703125</LatitudeDegrees>
              <LongitudeDegrees>-8.06012752465903759002685546875</LongitudeDegrees>
            </Position>
            <AltitudeMeters>283.600006103515625</AltitudeMeters>
            <DistanceMeters>318608.31193716</DistanceMeters>
          </Trackpoint>
          <Trackpoint>
            <Time>2018-09-14T15:25:48.000Z</Time>
            <Position>
              <LatitudeDegrees>37.515594474971294403076171875</LatitudeDegrees>
              <LongitudeDegrees>-8.06011629290878772735595703125</LongitudeDegrees>
            </Position>
            <AltitudeMeters>283.79998779296875</AltitudeMeters>
            <DistanceMeters>318612.08199555</DistanceMeters>
          </Trackpoint>
          <Trackpoint>
            <Time>2018-09-14T15:25:49.000Z</Time>
            <Position>
              <LatitudeDegrees>37.515560947358608245849609375</LatitudeDegrees>
              <LongitudeDegrees>-8.06010656990110874176025390625</LongitudeDegrees>
            </Position>
            <AltitudeMeters>284</AltitudeMeters>
            <DistanceMeters>318615.91146603</DistanceMeters>
          </Trackpoint>
          <Trackpoint>
            <Time>2018-09-14T15:25:50.000Z</Time>
            <Position>
              <LatitudeDegrees>37.5155285932123661041259765625</LatitudeDegrees>
              <LongitudeDegrees>-8.060095421969890594482421875</LongitudeDegrees>
            </Position>
            <AltitudeMeters>284</AltitudeMeters>
            <DistanceMeters>318619.6430043</DistanceMeters>
          </Trackpoint>
          <Trackpoint>
            <Time>2018-09-14T15:25:51.000Z</Time>
            <Position>
              <LatitudeDegrees>37.51549758017063140869140625</LatitudeDegrees>
              <LongitudeDegrees>-8.0600825138390064239501953125</LongitudeDegrees>
            </Position>
            <AltitudeMeters>284.20001220703125</AltitudeMeters>
            <DistanceMeters>318623.27894049</DistanceMeters>
          </Trackpoint>
          <Trackpoint>
            <Time>2018-09-14T15:25:52.000Z</Time>
            <Position>
              <LatitudeDegrees>37.51546832732856273651123046875</LatitudeDegrees>
              <LongitudeDegrees>-8.0600667558610439300537109375</LongitudeDegrees>
            </Position>
            <AltitudeMeters>284.20001220703125</AltitudeMeters>
            <DistanceMeters>318626.82179333</DistanceMeters>
          </Trackpoint>
          <Trackpoint>
            <Time>2018-09-14T15:25:53.000Z</Time>
            <Position>
              <LatitudeDegrees>37.5154394097626209259033203125</LatitudeDegrees>
              <LongitudeDegrees>-8.06005141697824001312255859375</LongitudeDegrees>
            </Position>
            <AltitudeMeters>284.399993896484375</AltitudeMeters>
            <DistanceMeters>318630.31459067</DistanceMeters>
          </Trackpoint>
          <Trackpoint>
            <Time>2018-09-14T15:25:54.000Z</Time>
            <Position>
              <LatitudeDegrees>37.5154082290828227996826171875</LatitudeDegrees>
              <LongitudeDegrees>-8.060040436685085296630859375</LongitudeDegrees>
            </Position>
            <AltitudeMeters>284.399993896484375</AltitudeMeters>
            <DistanceMeters>318633.9180959</DistanceMeters>
          </Trackpoint>
          <Trackpoint>
            <Time>2018-09-14T15:25:55.000Z</Time>
            <Position>
              <LatitudeDegrees>37.51537629403173923492431640625</LatitudeDegrees>
              <LongitudeDegrees>-8.0600288696587085723876953125</LongitudeDegrees>
            </Position>
            <AltitudeMeters>284.600006103515625</AltitudeMeters>
            <DistanceMeters>318637.61804129</DistanceMeters>
          </Trackpoint>
          <Trackpoint>
            <Time>2018-09-14T15:25:56.000Z</Time>
            <Position>
              <LatitudeDegrees>37.51534494571387767791748046875</LatitudeDegrees>
              <LongitudeDegrees>-8.060015626251697540283203125</LongitudeDegrees>
            </Position>
            <AltitudeMeters>284.600006103515625</AltitudeMeters>
            <DistanceMeters>318641.29841011</DistanceMeters>
          </Trackpoint>
          <Trackpoint>
            <Time>2018-09-14T15:25:57.000Z</Time>
            <Position>
              <LatitudeDegrees>37.51531259156763553619384765625</LatitudeDegrees>
              <LongitudeDegrees>-8.06000380776822566986083984375</LongitudeDegrees>
            </Position>
            <AltitudeMeters>284.600006103515625</AltitudeMeters>
            <DistanceMeters>318645.04925789</DistanceMeters>
          </Trackpoint>
          <Trackpoint>
            <Time>2018-09-14T15:25:58.000Z</Time>
            <Position>
              <LatitudeDegrees>37.5152801536023616790771484375</LatitudeDegrees>
              <LongitudeDegrees>-8.059992156922817230224609375</LongitudeDegrees>
            </Position>
            <AltitudeMeters>284.79998779296875</AltitudeMeters>
            <DistanceMeters>318648.80251238</DistanceMeters>
          </Trackpoint>
          <Trackpoint>
            <Time>2018-09-14T15:25:59.000Z</Time>
            <Position>
              <LatitudeDegrees>37.51524838618934154510498046875</LatitudeDegrees>
              <LongitudeDegrees>-8.05997975170612335205078125</LongitudeDegrees>
            </Position>
            <AltitudeMeters>284.79998779296875</AltitudeMeters>
            <DistanceMeters>318652.50245777</DistanceMeters>
          </Trackpoint>
          <Trackpoint>
            <Time>2018-09-14T15:26:00.000Z</Time>
            <Position>
              <LatitudeDegrees>37.51521670259535312652587890625</LatitudeDegrees>
              <LongitudeDegrees>-8.05996675975620746612548828125</LongitudeDegrees>
            </Position>
            <AltitudeMeters>285</AltitudeMeters>
            <DistanceMeters>318656.21093541</DistanceMeters>
          </Trackpoint>
          <Trackpoint>
            <Time>2018-09-14T15:26:01.000Z</Time>
            <Position>
              <LatitudeDegrees>37.515184767544269561767578125</LatitudeDegrees>
              <LongitudeDegrees>-8.0599544383585453033447265625</LongitudeDegrees>
            </Position>
            <AltitudeMeters>285</AltitudeMeters>
            <DistanceMeters>318659.92792572</DistanceMeters>
          </Trackpoint>
          <Trackpoint>
            <Time>2018-09-14T15:26:02.000Z</Time>
            <Position>
              <LatitudeDegrees>37.51515400595963001251220703125</LatitudeDegrees>
              <LongitudeDegrees>-8.059940524399280548095703125</LongitudeDegrees>
            </Position>
            <AltitudeMeters>285</AltitudeMeters>
            <DistanceMeters>318663.56510347</DistanceMeters>
          </Trackpoint>
          <Trackpoint>
            <Time>2018-09-14T15:26:03.000Z</Time>
            <Position>
              <LatitudeDegrees>37.5151242502033710479736328125</LatitudeDegrees>
              <LongitudeDegrees>-8.0599259398877620697021484375</LongitudeDegrees>
            </Position>
            <AltitudeMeters>285.20001220703125</AltitudeMeters>
            <DistanceMeters>318667.11813695</DistanceMeters>
          </Trackpoint>
          <Trackpoint>
            <Time>2018-09-14T15:26:04.000Z</Time>
            <Position>
              <LatitudeDegrees>37.51509482972323894500732421875</LatitudeDegrees>
              <LongitudeDegrees>-8.05991261266171932220458984375</LongitudeDegrees>
            </Position>
            <AltitudeMeters>285.399993896484375</AltitudeMeters>
            <DistanceMeters>318670.59798357</DistanceMeters>
          </Trackpoint>
          <Trackpoint>
            <Time>2018-09-14T15:26:05.000Z</Time>
            <Position>
              <LatitudeDegrees>37.51506574451923370361328125</LatitudeDegrees>
              <LongitudeDegrees>-8.05990037508308887481689453125</LongitudeDegrees>
            </Position>
            <AltitudeMeters>285.600006103515625</AltitudeMeters>
            <DistanceMeters>318674.01101721</DistanceMeters>
          </Trackpoint>
          <Trackpoint>
            <Time>2018-09-14T15:26:06.000Z</Time>
            <Position>
              <LatitudeDegrees>37.51503732986748218536376953125</LatitudeDegrees>
              <LongitudeDegrees>-8.05988880805671215057373046875</LongitudeDegrees>
            </Position>
            <AltitudeMeters>285.79998779296875</AltitudeMeters>
            <DistanceMeters>318677.33559441</DistanceMeters>
          </Trackpoint>
          <Trackpoint>
            <Time>2018-09-14T15:26:07.000Z</Time>
            <Position>
              <LatitudeDegrees>37.51500916667282581329345703125</LatitudeDegrees>
              <LongitudeDegrees>-8.05987925268709659576416015625</LongitudeDegrees>
            </Position>
            <AltitudeMeters>286</AltitudeMeters>
            <DistanceMeters>318680.58322882</DistanceMeters>
          </Trackpoint>
          <Trackpoint>
            <Time>2018-09-14T15:26:08.000Z</Time>
            <Position>
              <LatitudeDegrees>37.51498125493526458740234375</LatitudeDegrees>
              <LongitudeDegrees>-8.05987087078392505645751953125</LongitudeDegrees>
            </Position>
            <AltitudeMeters>286</AltitudeMeters>
            <DistanceMeters>318683.77476861</DistanceMeters>
          </Trackpoint>
          <Trackpoint>
            <Time>2018-09-14T15:26:09.000Z</Time>
            <Position>
              <LatitudeDegrees>37.51495267264544963836669921875</LatitudeDegrees>
              <LongitudeDegrees>-8.059861399233341217041015625</LongitudeDegrees>
            </Position>
            <AltitudeMeters>286.20001220703125</AltitudeMeters>
            <DistanceMeters>318687.06384623</DistanceMeters>
          </Trackpoint>
          <Trackpoint>
            <Time>2018-09-14T15:26:10.000Z</Time>
            <Position>
              <LatitudeDegrees>37.51492333598434925079345703125</LatitudeDegrees>
              <LongitudeDegrees>-8.05985125713050365447998046875</LongitudeDegrees>
            </Position>
            <AltitudeMeters>286.20001220703125</AltitudeMeters>
            <DistanceMeters>318690.45031889</DistanceMeters>
          </Trackpoint>
          <Trackpoint>
            <Time>2018-09-14T15:26:11.000Z</Time>
            <Position>
              <LatitudeDegrees>37.51489433459937572479248046875</LatitudeDegrees>
              <LongitudeDegrees>-8.05983952246606349945068359375</LongitudeDegrees>
            </Position>
            <AltitudeMeters>286.399993896484375</AltitudeMeters>
            <DistanceMeters>318693.84212039</DistanceMeters>
          </Trackpoint>
          <Trackpoint>
            <Time>2018-09-14T15:26:12.000Z</Time>
            <Position>
              <LatitudeDegrees>37.5148660875856876373291015625</LatitudeDegrees>
              <LongitudeDegrees>-8.059826530516147613525390625</LongitudeDegrees>
            </Position>
            <AltitudeMeters>286.399993896484375</AltitudeMeters>
            <DistanceMeters>318697.1883563</DistanceMeters>
          </Trackpoint>
          <Trackpoint>
            <Time>2018-09-14T15:26:13.000Z</Time>
            <Position>
              <LatitudeDegrees>37.51483700238168239593505859375</LatitudeDegrees>
              <LongitudeDegrees>-8.05981353856623172760009765625</LongitudeDegrees>
            </Position>
            <AltitudeMeters>286.600006103515625</AltitudeMeters>
            <DistanceMeters>318700.62249081</DistanceMeters>
          </Trackpoint>
          <Trackpoint>
            <Time>2018-09-14T15:26:14.000Z</Time>
            <Position>
              <LatitudeDegrees>37.51480867154896259307861328125</LatitudeDegrees>
              <LongitudeDegrees>-8.05980197153985500335693359375</LongitudeDegrees>
            </Position>
            <AltitudeMeters>286.600006103515625</AltitudeMeters>
            <DistanceMeters>318703.93754783</DistanceMeters>
          </Trackpoint>
          <Trackpoint>
            <Time>2018-09-14T15:26:15.000Z</Time>
            <Position>
              <LatitudeDegrees>37.51478050835430622100830078125</LatitudeDegrees>
              <LongitudeDegrees>-8.0597898177802562713623046875</LongitudeDegrees>
            </Position>
            <AltitudeMeters>286.79998779296875</AltitudeMeters>
            <DistanceMeters>318707.25124259</DistanceMeters>
          </Trackpoint>
          <Trackpoint>
            <Time>2018-09-14T15:26:16.000Z</Time>
            <Position>
              <LatitudeDegrees>37.514751590788364410400390625</LatitudeDegrees>
              <LongitudeDegrees>-8.059777915477752685546875</LongitudeDegrees>
            </Position>
            <AltitudeMeters>287</AltitudeMeters>
            <DistanceMeters>318710.63771525</DistanceMeters>
          </Trackpoint>
          <Trackpoint>
            <Time>2018-09-14T15:26:17.000Z</Time>
            <Position>
              <LatitudeDegrees>37.5147222541272640228271484375</LatitudeDegrees>
              <LongitudeDegrees>-8.05976592935621738433837890625</LongitudeDegrees>
            </Position>
            <AltitudeMeters>287</AltitudeMeters>
            <DistanceMeters>318714.06921925</DistanceMeters>
          </Trackpoint>
          <Trackpoint>
            <Time>2018-09-14T15:26:18.000Z</Time>
            <Position>
              <LatitudeDegrees>37.51469266600906848907470703125</LatitudeDegrees>
              <LongitudeDegrees>-8.05975369177758693695068359375</LongitudeDegrees>
            </Position>
            <AltitudeMeters>287.20001220703125</AltitudeMeters>
            <DistanceMeters>318717.53476418</DistanceMeters>
          </Trackpoint>
          <Trackpoint>
            <Time>2018-09-14T15:26:19.000Z</Time>
            <Position>
              <LatitudeDegrees>37.51466366462409496307373046875</LatitudeDegrees>
              <LongitudeDegrees>-8.059742040932178497314453125</LongitudeDegrees>
            </Position>
            <AltitudeMeters>287.20001220703125</AltitudeMeters>
            <DistanceMeters>318720.92123684</DistanceMeters>
          </Trackpoint>
          <Trackpoint>
            <Time>2018-09-14T15:26:20.000Z</Time>
            <Position>
              <LatitudeDegrees>37.51463483087718486785888671875</LatitudeDegrees>
              <LongitudeDegrees>-8.0597301386296749114990234375</LongitudeDegrees>
            </Position>
            <AltitudeMeters>287.399993896484375</AltitudeMeters>
            <DistanceMeters>318724.2970266</DistanceMeters>
          </Trackpoint>
          <Trackpoint>
            <Time>2018-09-14T15:26:21.000Z</Time>
            <Position>
              <LatitudeDegrees>37.514606416225433349609375</LatitudeDegrees>
              <LongitudeDegrees>-8.0597184039652347564697265625</LongitudeDegrees>
            </Position>
            <AltitudeMeters>287.399993896484375</AltitudeMeters>
            <DistanceMeters>318727.62431885</DistanceMeters>
          </Trackpoint>
          <Trackpoint>
            <Time>2018-09-14T15:26:22.000Z</Time>
            <Position>
              <LatitudeDegrees>37.5145790912210941314697265625</LatitudeDegrees>
              <LongitudeDegrees>-8.05970826186239719390869140625</LongitudeDegrees>
            </Position>
            <AltitudeMeters>287.600006103515625</AltitudeMeters>
            <DistanceMeters>318730.79314276</DistanceMeters>
          </Trackpoint>
          <Trackpoint>
            <Time>2018-09-14T15:26:23.000Z</Time>
            <Position>
              <LatitudeDegrees>37.51455252058804035186767578125</LatitudeDegrees>
              <LongitudeDegrees>-8.05969920940697193145751953125</LongitudeDegrees>
            </Position>
            <AltitudeMeters>287.600006103515625</AltitudeMeters>
            <DistanceMeters>318733.85471415</DistanceMeters>
          </Trackpoint>
          <Trackpoint>
            <Time>2018-09-14T15:26:24.000Z</Time>
            <Position>
              <LatitudeDegrees>37.5145284645259380340576171875</LatitudeDegrees>
              <LongitudeDegrees>-8.05969166569411754608154296875</LongitudeDegrees>
            </Position>
            <AltitudeMeters>287.600006103515625</AltitudeMeters>
            <DistanceMeters>318736.61212677</DistanceMeters>
          </Trackpoint>
          <Trackpoint>
            <Time>2018-09-14T15:26:25.000Z</Time>
            <Position>
              <LatitudeDegrees>37.5145066715776920318603515625</LatitudeDegrees>
              <LongitudeDegrees>-8.05968563072383403778076171875</LongitudeDegrees>
            </Position>
            <AltitudeMeters>287.600006103515625</AltitudeMeters>
            <DistanceMeters>318739.09376174</DistanceMeters>
          </Trackpoint>
          <Trackpoint>
            <Time>2018-09-14T15:26:26.000Z</Time>
            <Position>
              <LatitudeDegrees>37.51448638737201690673828125</LatitudeDegrees>
              <LongitudeDegrees>-8.05968076921999454498291015625</LongitudeDegrees>
            </Position>
            <AltitudeMeters>287.600006103515625</AltitudeMeters>
            <DistanceMeters>318741.39018606</DistanceMeters>
          </Trackpoint>
          <Trackpoint>
            <Time>2018-09-14T15:26:27.000Z</Time>
            <Position>
              <LatitudeDegrees>37.5144687853753566741943359375</LatitudeDegrees>
              <LongitudeDegrees>-8.05967691354453563690185546875</LongitudeDegrees>
            </Position>
            <AltitudeMeters>287.600006103515625</AltitudeMeters>
            <DistanceMeters>318743.37894785</DistanceMeters>
          </Trackpoint>
          <Trackpoint>
            <Time>2018-09-14T15:26:28.000Z</Time>
            <Position>
              <LatitudeDegrees>37.514455206692218780517578125</LatitudeDegrees>
              <LongitudeDegrees>-8.05967272259294986724853515625</LongitudeDegrees>
            </Position>
            <AltitudeMeters>287.399993896484375</AltitudeMeters>
            <DistanceMeters>318744.93460221</DistanceMeters>
          </Trackpoint>
          <Trackpoint>
            <Time>2018-09-14T15:26:29.000Z</Time>
            <Position>
              <LatitudeDegrees>37.51444523222744464874267578125</LatitudeDegrees>
              <LongitudeDegrees>-8.05966786108911037445068359375</LongitudeDegrees>
            </Position>
            <AltitudeMeters>287.399993896484375</AltitudeMeters>
            <DistanceMeters>318746.1214855</DistanceMeters>
          </Trackpoint>
          <Trackpoint>
            <Time>2018-09-14T15:26:30.000Z</Time>
            <Position>
              <LatitudeDegrees>37.5144376046955585479736328125</LatitudeDegrees>
              <LongitudeDegrees>-8.0596624128520488739013671875</LongitudeDegrees>
            </Position>
            <AltitudeMeters>287.399993896484375</AltitudeMeters>
            <DistanceMeters>318747.0998454</DistanceMeters>
          </Trackpoint>
          <Trackpoint>
            <Time>2018-09-14T15:26:31.000Z</Time>
            <Position>
              <LatitudeDegrees>37.5144295580685138702392578125</LatitudeDegrees>
              <LongitudeDegrees>-8.0596585571765899658203125</LongitudeDegrees>
            </Position>
            <AltitudeMeters>287.399993896484375</AltitudeMeters>
            <DistanceMeters>318748.05956817</DistanceMeters>
          </Trackpoint>
          <Trackpoint>
            <Time>2018-09-14T15:26:32.000Z</Time>
            <Position>
              <LatitudeDegrees>37.51442142762243747711181640625</LatitudeDegrees>
              <LongitudeDegrees>-8.05965092964470386505126953125</LongitudeDegrees>
            </Position>
            <AltitudeMeters>287.399993896484375</AltitudeMeters>
            <DistanceMeters>318749.18794788</DistanceMeters>
          </Trackpoint>
          <Trackpoint>
            <Time>2018-09-14T15:26:33.000Z</Time>
            <Position>
              <LatitudeDegrees>37.51441472209990024566650390625</LatitudeDegrees>
              <LongitudeDegrees>-8.0596433021128177642822265625</LongitudeDegrees>
            </Position>
            <AltitudeMeters>287.399993896484375</AltitudeMeters>
            <DistanceMeters>318750.1936161</DistanceMeters>
          </Trackpoint>
          <Trackpoint>
            <Time>2018-09-14T15:26:34.000Z</Time>
            <Position>
              <LatitudeDegrees>37.51441019587218761444091796875</LatitudeDegrees>
              <LongitudeDegrees>-8.0596379376947879791259765625</LongitudeDegrees>
            </Position>
            <AltitudeMeters>287.399993896484375</AltitudeMeters>
            <DistanceMeters>318750.89191699</DistanceMeters>
          </Trackpoint>
          <Trackpoint>
            <Time>2018-09-14T15:26:35.000Z</Time>
            <Position>
              <LatitudeDegrees>37.514408268034458160400390625</LatitudeDegrees>
              <LongitudeDegrees>-8.05963416583836078643798828125</LongitudeDegrees>
            </Position>
            <AltitudeMeters>287.399993896484375</AltitudeMeters>
            <DistanceMeters>318751.29508119</DistanceMeters>
          </Trackpoint>
          <Trackpoint>
            <Time>2018-09-14T15:26:36.000Z</Time>
            <Position>
              <LatitudeDegrees>37.5144050829112529754638671875</LatitudeDegrees>
              <LongitudeDegrees>-8.05963165126740932464599609375</LongitudeDegrees>
            </Position>
            <AltitudeMeters>287.399993896484375</AltitudeMeters>
            <DistanceMeters>318751.72005358</DistanceMeters>
          </Trackpoint>
          <Trackpoint>
            <Time>2018-09-14T15:26:37.000Z</Time>
            <Position>
              <LatitudeDegrees>37.514400891959667205810546875</LatitudeDegrees>
              <LongitudeDegrees>-8.059627711772918701171875</LongitudeDegrees>
            </Position>
            <AltitudeMeters>287.399993896484375</AltitudeMeters>
            <DistanceMeters>318752.29807852</DistanceMeters>
          </Trackpoint>
          <Trackpoint>
            <Time>2018-09-14T15:26:38.000Z</Time>
            <Position>
              <LatitudeDegrees>37.51439611427485942840576171875</LatitudeDegrees>
              <LongitudeDegrees>-8.0596258677542209625244140625</LongitudeDegrees>
            </Position>
            <AltitudeMeters>287.399993896484375</AltitudeMeters>
            <DistanceMeters>318752.85217472</DistanceMeters>
          </Trackpoint>
          <Trackpoint>
            <Time>2018-09-14T15:26:39.000Z</Time>
            <Position>
              <LatitudeDegrees>37.51439611427485942840576171875</LatitudeDegrees>
              <LongitudeDegrees>-8.0596258677542209625244140625</LongitudeDegrees>
            </Position>
            <AltitudeMeters>287.399993896484375</AltitudeMeters>
            <DistanceMeters>318752.85217472</DistanceMeters>
          </Trackpoint>
          <Trackpoint>
            <Time>2018-09-14T15:29:19.000Z</Time>
            <Position>
              <LatitudeDegrees>37.5143460743129253387451171875</LatitudeDegrees>
              <LongitudeDegrees>-8.0595973692834377288818359375</LongitudeDegrees>
            </Position>
            <AltitudeMeters>287.20001220703125</AltitudeMeters>
            <DistanceMeters>318758.96350814</DistanceMeters>
          </Trackpoint>
          <Trackpoint>
            <Time>2018-09-14T15:29:20.000Z</Time>
            <Position>
              <LatitudeDegrees>37.5143299810588359832763671875</LatitudeDegrees>
              <LongitudeDegrees>-8.059601895511150360107421875</LongitudeDegrees>
            </Position>
            <AltitudeMeters>287.20001220703125</AltitudeMeters>
            <DistanceMeters>318760.80123733</DistanceMeters>
          </Trackpoint>
          <Trackpoint>
            <Time>2018-09-14T15:29:21.000Z</Time>
            <Position>
              <LatitudeDegrees>37.514313049614429473876953125</LatitudeDegrees>
              <LongitudeDegrees>-8.05960516445338726043701171875</LongitudeDegrees>
            </Position>
            <AltitudeMeters>287.20001220703125</AltitudeMeters>
            <DistanceMeters>318762.70651703</DistanceMeters>
          </Trackpoint>
          <Trackpoint>
            <Time>2018-09-14T15:29:22.000Z</Time>
            <Position>
              <LatitudeDegrees>37.51429595053195953369140625</LatitudeDegrees>
              <LongitudeDegrees>-8.05960424244403839111328125</LongitudeDegrees>
            </Position>
            <AltitudeMeters>287.20001220703125</AltitudeMeters>
            <DistanceMeters>318764.61179673</DistanceMeters>
          </Trackpoint>
          <Trackpoint>
            <Time>2018-09-14T15:29:23.000Z</Time>
            <Position>
              <LatitudeDegrees>37.5142837129533290863037109375</LatitudeDegrees>
              <LongitudeDegrees>-8.05960466153919696807861328125</LongitudeDegrees>
            </Position>
            <AltitudeMeters>287.20001220703125</AltitudeMeters>
            <DistanceMeters>318765.97568666</DistanceMeters>
          </Trackpoint>
          <Trackpoint>
            <Time>2018-09-14T15:29:24.000Z</Time>
            <Position>
              <LatitudeDegrees>37.51427709124982357025146484375</LatitudeDegrees>
              <LongitudeDegrees>-8.05960549972951412200927734375</LongitudeDegrees>
            </Position>
            <AltitudeMeters>287.20001220703125</AltitudeMeters>
            <DistanceMeters>318766.72392776</DistanceMeters>
          </Trackpoint>
          <Trackpoint>
            <Time>2018-09-14T15:29:25.000Z</Time>
            <Position>
              <LatitudeDegrees>37.51427357085049152374267578125</LatitudeDegrees>
              <LongitudeDegrees>-8.05960382334887981414794921875</LongitudeDegrees>
            </Position>
            <AltitudeMeters>287.20001220703125</AltitudeMeters>
            <DistanceMeters>318767.14890014</DistanceMeters>
          </Trackpoint>
          <Trackpoint>
            <Time>2018-09-14T15:29:37.000Z</Time>
            <Position>
              <LatitudeDegrees>37.5142364390194416046142578125</LatitudeDegrees>
              <LongitudeDegrees>-8.05958068929612636566162109375</LongitudeDegrees>
            </Position>
            <AltitudeMeters>287.20001220703125</AltitudeMeters>
            <DistanceMeters>318771.75940987</DistanceMeters>
          </Trackpoint>
          <Trackpoint>
            <Time>2018-09-14T15:29:38.000Z</Time>
            <Position>
              <LatitudeDegrees>37.514211125671863555908203125</LatitudeDegrees>
              <LongitudeDegrees>-8.05956962518393993377685546875</LongitudeDegrees>
            </Position>
            <AltitudeMeters>287.20001220703125</AltitudeMeters>
            <DistanceMeters>318774.74330923</DistanceMeters>
          </Trackpoint>
          <Trackpoint>
            <Time>2018-09-14T15:29:39.000Z</Time>
            <Position>
              <LatitudeDegrees>37.51418019644916057586669921875</LatitudeDegrees>
              <LongitudeDegrees>-8.05955755524337291717529296875</LongitudeDegrees>
            </Position>
            <AltitudeMeters>287</AltitudeMeters>
            <DistanceMeters>318778.34681446</DistanceMeters>
          </Trackpoint>
          <Trackpoint>
            <Time>2018-09-14T15:29:40.000Z</Time>
            <Position>
              <LatitudeDegrees>37.5141449086368083953857421875</LatitudeDegrees>
              <LongitudeDegrees>-8.059541881084442138671875</LongitudeDegrees>
            </Position>
            <AltitudeMeters>287</AltitudeMeters>
            <DistanceMeters>318782.51067646</DistanceMeters>
          </Trackpoint>
          <Trackpoint>
            <Time>2018-09-14T15:29:41.000Z</Time>
            <Position>
              <LatitudeDegrees>37.5141080282628536224365234375</LatitudeDegrees>
              <LongitudeDegrees>-8.05952511727809906005859375</LongitudeDegrees>
            </Position>
            <AltitudeMeters>286.79998779296875</AltitudeMeters>
            <DistanceMeters>318786.87466904</DistanceMeters>
          </Trackpoint>
          <Trackpoint>
            <Time>2018-09-14T15:29:42.000Z</Time>
            <Position>
              <LatitudeDegrees>37.51406729221343994140625</LatitudeDegrees>
              <LongitudeDegrees>-8.0595071800053119659423828125</LongitudeDegrees>
            </Position>
            <AltitudeMeters>286.600006103515625</AltitudeMeters>
            <DistanceMeters>318791.67610478</DistanceMeters>
          </Trackpoint>
          <Trackpoint>
            <Time>2018-09-14T15:29:43.000Z</Time>
            <Position>
              <LatitudeDegrees>37.5140221975743770599365234375</LatitudeDegrees>
              <LongitudeDegrees>-8.05948781780898571014404296875</LongitudeDegrees>
            </Position>
            <AltitudeMeters>286.20001220703125</AltitudeMeters>
            <DistanceMeters>318796.9771988</DistanceMeters>
          </Trackpoint>
          <Trackpoint>
            <Time>2018-09-14T15:29:44.000Z</Time>
            <Position>
              <LatitudeDegrees>37.51397483982145786285400390625</LatitudeDegrees>
              <LongitudeDegrees>-8.0594699643552303314208984375</LongitudeDegrees>
            </Position>
            <AltitudeMeters>286</AltitudeMeters>
            <DistanceMeters>318802.47890911</DistanceMeters>
          </Trackpoint>
          <Trackpoint>
            <Time>2018-09-14T15:29:45.000Z</Time>
            <Position>
              <LatitudeDegrees>37.51392857171595096588134765625</LatitudeDegrees>
              <LongitudeDegrees>-8.05945244617760181427001953125</LongitudeDegrees>
            </Position>
            <AltitudeMeters>286</AltitudeMeters>
            <DistanceMeters>318807.85695102</DistanceMeters>
          </Trackpoint>
          <Trackpoint>
            <Time>2018-09-14T15:29:46.000Z</Time>
            <Position>
              <LatitudeDegrees>37.5138813816010951995849609375</LatitudeDegrees>
              <LongitudeDegrees>-8.05943383835256099700927734375</LongitudeDegrees>
            </Position>
            <AltitudeMeters>285.79998779296875</AltitudeMeters>
            <DistanceMeters>318813.3603024</DistanceMeters>
          </Trackpoint>
          <Trackpoint>
            <Time>2018-09-14T15:29:47.000Z</Time>
            <Position>
              <LatitudeDegrees>37.5138352811336517333984375</LatitudeDegrees>
              <LongitudeDegrees>-8.05942109785974025726318359375</LongitudeDegrees>
            </Position>
            <AltitudeMeters>285.79998779296875</AltitudeMeters>
            <DistanceMeters>318818.61262413</DistanceMeters>
          </Trackpoint>
          <Trackpoint>
            <Time>2018-09-14T15:29:48.000Z</Time>
            <Position>
              <LatitudeDegrees>37.51379613764584064483642578125</LatitudeDegrees>
              <LongitudeDegrees>-8.0594243668019771575927734375</LongitudeDegrees>
            </Position>
            <AltitudeMeters>285.79998779296875</AltitudeMeters>
            <DistanceMeters>318822.97868544</DistanceMeters>
          </Trackpoint>
          <Trackpoint>
            <Time>2018-09-14T15:29:49.000Z</Time>
            <Position>
              <LatitudeDegrees>37.5137596763670444488525390625</LatitudeDegrees>
              <LongitudeDegrees>-8.05944423191249370574951171875</LongitudeDegrees>
            </Position>
            <AltitudeMeters>285.79998779296875</AltitudeMeters>
            <DistanceMeters>318827.39921543</DistanceMeters>
          </Trackpoint>
          <Trackpoint>
            <Time>2018-09-14T15:29:50.000Z</Time>
            <Position>
              <LatitudeDegrees>37.51372891478240489959716796875</LatitudeDegrees>
              <LongitudeDegrees>-8.05947105400264263153076171875</LongitudeDegrees>
            </Position>
            <AltitudeMeters>285.79998779296875</AltitudeMeters>
            <DistanceMeters>318831.56307743</DistanceMeters>
          </Trackpoint>
          <Trackpoint>
            <Time>2018-09-14T15:29:51.000Z</Time>
            <Position>
              <LatitudeDegrees>37.51370360143482685089111328125</LatitudeDegrees>
              <LongitudeDegrees>-8.05950290523469448089599609375</LongitudeDegrees>
            </Position>
            <AltitudeMeters>285.79998779296875</AltitudeMeters>
            <DistanceMeters>318835.54400498</DistanceMeters>
          </Trackpoint>
          <Trackpoint>
            <Time>2018-09-14T15:29:52.000Z</Time>
            <Position>
              <LatitudeDegrees>37.513678371906280517578125</LatitudeDegrees>
              <LongitudeDegrees>-8.05953861214220523834228515625</LongitudeDegrees>
            </Position>
            <AltitudeMeters>285.79998779296875</AltitudeMeters>
            <DistanceMeters>318839.76494574</DistanceMeters>
          </Trackpoint>
          <Trackpoint>
            <Time>2018-09-14T15:29:53.000Z</Time>
            <Position>
              <LatitudeDegrees>37.51365180127322673797607421875</LatitudeDegrees>
              <LongitudeDegrees>-8.05957431904971599578857421875</LongitudeDegrees>
            </Position>
            <AltitudeMeters>285.79998779296875</AltitudeMeters>
            <DistanceMeters>318844.08735573</DistanceMeters>
          </Trackpoint>
          <Trackpoint>
            <Time>2018-09-14T15:29:54.000Z</Time>
            <Position>
              <LatitudeDegrees>37.513625733554363250732421875</LatitudeDegrees>
              <LongitudeDegrees>-8.05961052887141704559326171875</LongitudeDegrees>
            </Position>
            <AltitudeMeters>285.79998779296875</AltitudeMeters>
            <DistanceMeters>318848.40453974</DistanceMeters>
          </Trackpoint>
          <Trackpoint>
            <Time>2018-09-14T15:29:55.000Z</Time>
            <Position>
              <LatitudeDegrees>37.51360117457807064056396484375</LatitudeDegrees>
              <LongitudeDegrees>-8.05964690633118152618408203125</LongitudeDegrees>
            </Position>
            <AltitudeMeters>285.79998779296875</AltitudeMeters>
            <DistanceMeters>318852.62227024</DistanceMeters>
          </Trackpoint>
          <Trackpoint>
            <Time>2018-09-14T15:29:56.000Z</Time>
            <Position>
              <LatitudeDegrees>37.5135746039450168609619140625</LatitudeDegrees>
              <LongitudeDegrees>-8.059683702886104583740234375</LongitudeDegrees>
            </Position>
            <AltitudeMeters>285.79998779296875</AltitudeMeters>
            <DistanceMeters>318857.01513643</DistanceMeters>
          </Trackpoint>
          <Trackpoint>
            <Time>2018-09-14T15:29:57.000Z</Time>
            <Position>
              <LatitudeDegrees>37.51354627311229705810546875</LatitudeDegrees>
              <LongitudeDegrees>-8.05972225964069366455078125</LongitudeDegrees>
            </Position>
            <AltitudeMeters>285.79998779296875</AltitudeMeters>
            <DistanceMeters>318861.65493193</DistanceMeters>
          </Trackpoint>
          <Trackpoint>
            <Time>2018-09-14T15:29:58.000Z</Time>
            <Position>
              <LatitudeDegrees>37.51351366750895977020263671875</LatitudeDegrees>
              <LongitudeDegrees>-8.05975369177758693695068359375</LongitudeDegrees>
            </Position>
            <AltitudeMeters>285.79998779296875</AltitudeMeters>
            <DistanceMeters>318866.22214953</DistanceMeters>
          </Trackpoint>
          <Trackpoint>
            <Time>2018-09-14T15:29:59.000Z</Time>
            <Position>
              <LatitudeDegrees>37.51347921788692474365234375</LatitudeDegrees>
              <LongitudeDegrees>-8.0597908236086368560791015625</LongitudeDegrees>
            </Position>
            <AltitudeMeters>285.79998779296875</AltitudeMeters>
            <DistanceMeters>318871.26662724</DistanceMeters>
          </Trackpoint>
          <Trackpoint>
            <Time>2018-09-14T15:30:00.000Z</Time>
            <Position>
              <LatitudeDegrees>37.51344828866422176361083984375</LatitudeDegrees>
              <LongitudeDegrees>-8.05982778780162334442138671875</LongitudeDegrees>
            </Position>
            <AltitudeMeters>285.79998779296875</AltitudeMeters>
            <DistanceMeters>318876.00940285</DistanceMeters>
          </Trackpoint>
          <Trackpoint>
            <Time>2018-09-14T15:30:01.000Z</Time>
            <Position>
              <LatitudeDegrees>37.51341610215604305267333984375</LatitudeDegrees>
              <LongitudeDegrees>-8.05986114777624607086181640625</LongitudeDegrees>
            </Position>
            <AltitudeMeters>285.79998779296875</AltitudeMeters>
            <DistanceMeters>318880.64725171</DistanceMeters>
          </Trackpoint>
          <Trackpoint>
            <Time>2018-09-14T15:30:02.000Z</Time>
            <Position>
              <LatitudeDegrees>37.51338441856205463409423828125</LatitudeDegrees>
              <LongitudeDegrees>-8.059893585741519927978515625</LongitudeDegrees>
            </Position>
            <AltitudeMeters>285.79998779296875</AltitudeMeters>
            <DistanceMeters>318885.19068155</DistanceMeters>
          </Trackpoint>
          <Trackpoint>
            <Time>2018-09-14T15:30:03.000Z</Time>
            <Position>
              <LatitudeDegrees>37.51335424371063709259033203125</LatitudeDegrees>
              <LongitudeDegrees>-8.059925772249698638916015625</LongitudeDegrees>
            </Position>
            <AltitudeMeters>285.79998779296875</AltitudeMeters>
            <DistanceMeters>318889.59073654</DistanceMeters>
          </Trackpoint>
          <Trackpoint>
            <Time>2018-09-14T15:30:04.000Z</Time>
            <Position>
              <LatitudeDegrees>37.51332473941147327423095703125</LatitudeDegrees>
              <LongitudeDegrees>-8.05996038950979709625244140625</LongitudeDegrees>
            </Position>
            <AltitudeMeters>285.79998779296875</AltitudeMeters>
            <DistanceMeters>318894.07615852</DistanceMeters>
          </Trackpoint>
          <Trackpoint>
            <Time>2018-09-14T15:30:05.000Z</Time>
            <Position>
              <LatitudeDegrees>37.51329791732132434844970703125</LatitudeDegrees>
              <LongitudeDegrees>-8.0599943362176418304443359375</LongitudeDegrees>
            </Position>
            <AltitudeMeters>286</AltitudeMeters>
            <DistanceMeters>318898.3067154</DistanceMeters>
          </Trackpoint>
          <Trackpoint>
            <Time>2018-09-14T15:30:06.000Z</Time>
            <Position>
              <LatitudeDegrees>37.51327025704085826873779296875</LatitudeDegrees>
              <LongitudeDegrees>-8.06002828292548656463623046875</LongitudeDegrees>
            </Position>
            <AltitudeMeters>286.20001220703125</AltitudeMeters>
            <DistanceMeters>318902.6029319</DistanceMeters>
          </Trackpoint>
          <Trackpoint>
            <Time>2018-09-14T15:30:07.000Z</Time>
            <Position>
              <LatitudeDegrees>37.51323957927525043487548828125</LatitudeDegrees>
              <LongitudeDegrees>-8.06006155908107757568359375</LongitudeDegrees>
            </Position>
            <AltitudeMeters>286.399993896484375</AltitudeMeters>
            <DistanceMeters>318907.10643628</DistanceMeters>
          </Trackpoint>
          <Trackpoint>
            <Time>2018-09-14T15:30:08.000Z</Time>
            <Position>
              <LatitudeDegrees>37.51321225427091121673583984375</LatitudeDegrees>
              <LongitudeDegrees>-8.06009550578892230987548828125</LongitudeDegrees>
            </Position>
            <AltitudeMeters>286.600006103515625</AltitudeMeters>
            <DistanceMeters>318911.37629862</DistanceMeters>
          </Trackpoint>
          <Trackpoint>
            <Time>2018-09-14T15:30:09.000Z</Time>
            <Position>
              <LatitudeDegrees>37.51318459399044513702392578125</LatitudeDegrees>
              <LongitudeDegrees>-8.06012903340160846710205078125</LongitudeDegrees>
            </Position>
            <AltitudeMeters>286.79998779296875</AltitudeMeters>
            <DistanceMeters>318915.64721824</DistanceMeters>
          </Trackpoint>
          <Trackpoint>
            <Time>2018-09-14T15:30:10.000Z</Time>
            <Position>
              <LatitudeDegrees>37.5131558440625667572021484375</LatitudeDegrees>
              <LongitudeDegrees>-8.06016105227172374725341796875</LongitudeDegrees>
            </Position>
            <AltitudeMeters>287</AltitudeMeters>
            <DistanceMeters>318919.91602302</DistanceMeters>
          </Trackpoint>
          <Trackpoint>
            <Time>2018-09-14T15:30:11.000Z</Time>
            <Position>
              <LatitudeDegrees>37.51312944106757640838623046875</LatitudeDegrees>
              <LongitudeDegrees>-8.06019910611212253570556640625</LongitudeDegrees>
            </Position>
            <AltitudeMeters>287.20001220703125</AltitudeMeters>
            <DistanceMeters>318924.3792448</DistanceMeters>
          </Trackpoint>
          <Trackpoint>
            <Time>2018-09-14T15:30:12.000Z</Time>
            <Position>
              <LatitudeDegrees>37.51310278661549091339111328125</LatitudeDegrees>
              <LongitudeDegrees>-8.060233555734157562255859375</LongitudeDegrees>
            </Position>
            <AltitudeMeters>287.20001220703125</AltitudeMeters>
            <DistanceMeters>318928.62790609</DistanceMeters>
          </Trackpoint>
          <Trackpoint>
            <Time>2018-09-14T15:30:13.000Z</Time>
            <Position>
              <LatitudeDegrees>37.5130747072398662567138671875</LatitudeDegrees>
              <LongitudeDegrees>-8.0602701008319854736328125</LongitudeDegrees>
            </Position>
            <AltitudeMeters>287.399993896484375</AltitudeMeters>
            <DistanceMeters>318933.12036876</DistanceMeters>
          </Trackpoint>
          <Trackpoint>
            <Time>2018-09-14T15:30:14.000Z</Time>
            <Position>
              <LatitudeDegrees>37.51304998062551021575927734375</LatitudeDegrees>
              <LongitudeDegrees>-8.06030639447271823883056640625</LongitudeDegrees>
            </Position>
            <AltitudeMeters>287.600006103515625</AltitudeMeters>
            <DistanceMeters>318937.34344832</DistanceMeters>
          </Trackpoint>
          <Trackpoint>
            <Time>2018-09-14T15:30:15.000Z</Time>
            <Position>
              <LatitudeDegrees>37.51302433200180530548095703125</LatitudeDegrees>
              <LongitudeDegrees>-8.06033723987638950347900390625</LongitudeDegrees>
            </Position>
            <AltitudeMeters>287.79998779296875</AltitudeMeters>
            <DistanceMeters>318941.28791555</DistanceMeters>
          </Trackpoint>
          <Trackpoint>
            <Time>2018-09-14T15:30:16.000Z</Time>
            <Position>
              <LatitudeDegrees>37.513004131615161895751953125</LatitudeDegrees>
              <LongitudeDegrees>-8.06036691181361675262451171875</LongitudeDegrees>
            </Position>
            <AltitudeMeters>288</AltitudeMeters>
            <DistanceMeters>318944.74040754</DistanceMeters>
          </Trackpoint>
          <Trackpoint>
            <Time>2018-09-14T15:30:17.000Z</Time>
            <Position>
              <LatitudeDegrees>37.51297940500080585479736328125</LatitudeDegrees>
              <LongitudeDegrees>-8.06039356626570224761962890625</LongitudeDegrees>
            </Position>
            <AltitudeMeters>288</AltitudeMeters>
            <DistanceMeters>318948.36141168</DistanceMeters>
          </Trackpoint>
          <Trackpoint>
            <Time>2018-09-14T15:30:18.000Z</Time>
            <Position>
              <LatitudeDegrees>37.51295945607125759124755859375</LatitudeDegrees>
              <LongitudeDegrees>-8.060419298708438873291015625</LongitudeDegrees>
            </Position>
            <AltitudeMeters>288.20001220703125</AltitudeMeters>
            <DistanceMeters>318951.53735176</DistanceMeters>
          </Trackpoint>
          <Trackpoint>
            <Time>2018-09-14T15:30:19.000Z</Time>
            <Position>
              <LatitudeDegrees>37.5129449553787708282470703125</LatitudeDegrees>
              <LongitudeDegrees>-8.06043949909508228302001953125</LongitudeDegrees>
            </Position>
            <AltitudeMeters>288.20001220703125</AltitudeMeters>
            <DistanceMeters>318953.94135861</DistanceMeters>
          </Trackpoint>
          <Trackpoint>
            <Time>2018-09-14T15:30:20.000Z</Time>
            <Position>
              <LatitudeDegrees>37.5129298679530620574951171875</LatitudeDegrees>
              <LongitudeDegrees>-8.06045760400593280792236328125</LongitudeDegrees>
            </Position>
            <AltitudeMeters>288.399993896484375</AltitudeMeters>
            <DistanceMeters>318956.25930931</DistanceMeters>
          </Trackpoint>
          <Trackpoint>
            <Time>2018-09-14T15:30:21.000Z</Time>
            <Position>
              <LatitudeDegrees>37.51291117630898952484130859375</LatitudeDegrees>
              <LongitudeDegrees>-8.06047755293548107147216796875</LongitudeDegrees>
            </Position>
            <AltitudeMeters>288.399993896484375</AltitudeMeters>
            <DistanceMeters>318958.98543347</DistanceMeters>
          </Trackpoint>
          <Trackpoint>
            <Time>2018-09-14T15:30:22.000Z</Time>
            <Position>
              <LatitudeDegrees>37.5128872878849506378173828125</LatitudeDegrees>
              <LongitudeDegrees>-8.0605052970349788665771484375</LongitudeDegrees>
            </Position>
            <AltitudeMeters>288.600006103515625</AltitudeMeters>
            <DistanceMeters>318962.59894845</DistanceMeters>
          </Trackpoint>
          <Trackpoint>
            <Time>2018-09-14T15:30:23.000Z</Time>
            <Position>
              <LatitudeDegrees>37.5128624774515628814697265625</LatitudeDegrees>
              <LongitudeDegrees>-8.0605344660580158233642578125</LongitudeDegrees>
            </Position>
            <AltitudeMeters>288.79998779296875</AltitudeMeters>
            <DistanceMeters>318966.37379423</DistanceMeters>
          </Trackpoint>
          <Trackpoint>
            <Time>2018-09-14T15:30:24.000Z</Time>
            <Position>
              <LatitudeDegrees>37.5128423608839511871337890625</LatitudeDegrees>
              <LongitudeDegrees>-8.06056120432913303375244140625</LongitudeDegrees>
            </Position>
            <AltitudeMeters>289</AltitudeMeters>
            <DistanceMeters>318969.62698491</DistanceMeters>
          </Trackpoint>
          <Trackpoint>
            <Time>2018-09-14T15:30:25.000Z</Time>
            <Position>
              <LatitudeDegrees>37.51281746663153171539306640625</LatitudeDegrees>
              <LongitudeDegrees>-8.06058182381093502044677734375</LongitudeDegrees>
            </Position>
            <AltitudeMeters>289</AltitudeMeters>
            <DistanceMeters>318972.94340363</DistanceMeters>
          </Trackpoint>
          <Trackpoint>
            <Time>2018-09-14T15:30:26.000Z</Time>
            <Position>
              <LatitudeDegrees>37.5127940811216831207275390625</LatitudeDegrees>
              <LongitudeDegrees>-8.06060411967337131500244140625</LongitudeDegrees>
            </Position>
            <AltitudeMeters>289.20001220703125</AltitudeMeters>
            <DistanceMeters>318976.20767846</DistanceMeters>
          </Trackpoint>
          <Trackpoint>
            <Time>2018-09-14T15:30:27.000Z</Time>
            <Position>
              <LatitudeDegrees>37.51277036033570766448974609375</LatitudeDegrees>
              <LongitudeDegrees>-8.06062423624098300933837890625</LongitudeDegrees>
            </Position>
            <AltitudeMeters>289.399993896484375</AltitudeMeters>
            <DistanceMeters>318979.38930001</DistanceMeters>
          </Trackpoint>
          <Trackpoint>
            <Time>2018-09-14T15:30:28.000Z</Time>
            <Position>
              <LatitudeDegrees>37.5127464719116687774658203125</LatitudeDegrees>
              <LongitudeDegrees>-8.06065005250275135040283203125</LongitudeDegrees>
            </Position>
            <AltitudeMeters>289.399993896484375</AltitudeMeters>
            <DistanceMeters>318982.89113436</DistanceMeters>
          </Trackpoint>
          <Trackpoint>
            <Time>2018-09-14T15:30:29.000Z</Time>
            <Position>
              <LatitudeDegrees>37.51272551715373992919921875</LatitudeDegrees>
              <LongitudeDegrees>-8.060674108564853668212890625</LongitudeDegrees>
            </Position>
            <AltitudeMeters>289.600006103515625</AltitudeMeters>
            <DistanceMeters>318986.04567779</DistanceMeters>
          </Trackpoint>
          <Trackpoint>
            <Time>2018-09-14T15:30:30.000Z</Time>
            <Position>
              <LatitudeDegrees>37.5127045623958110809326171875</LatitudeDegrees>
              <LongitudeDegrees>-8.060695566236972808837890625</LongitudeDegrees>
            </Position>
            <AltitudeMeters>289.79998779296875</AltitudeMeters>
            <DistanceMeters>318989.05068635</DistanceMeters>
          </Trackpoint>
          <Trackpoint>
            <Time>2018-09-14T15:30:31.000Z</Time>
            <Position>
              <LatitudeDegrees>37.51268167980015277862548828125</LatitudeDegrees>
              <LongitudeDegrees>-8.06071459315717220306396484375</LongitudeDegrees>
            </Position>
            <AltitudeMeters>289.79998779296875</AltitudeMeters>
            <DistanceMeters>318992.10191706</DistanceMeters>
          </Trackpoint>
          <Trackpoint>
            <Time>2018-09-14T15:30:32.000Z</Time>
            <Position>
              <LatitudeDegrees>37.5126629881560802459716796875</LatitudeDegrees>
              <LongitudeDegrees>-8.0607322789728641510009765625</LongitudeDegrees>
            </Position>
            <AltitudeMeters>290</AltitudeMeters>
            <DistanceMeters>318994.70085861</DistanceMeters>
          </Trackpoint>
          <Trackpoint>
            <Time>2018-09-14T15:30:33.000Z</Time>
            <Position>
              <LatitudeDegrees>37.51264664344489574432373046875</LatitudeDegrees>
              <LongitudeDegrees>-8.060749880969524383544921875</LongitudeDegrees>
            </Position>
            <AltitudeMeters>290</AltitudeMeters>
            <DistanceMeters>318997.09357014</DistanceMeters>
          </Trackpoint>
          <Trackpoint>
            <Time>2018-09-14T15:30:34.000Z</Time>
            <Position>
              <LatitudeDegrees>37.51262962818145751953125</LatitudeDegrees>
              <LongitudeDegrees>-8.060768656432628631591796875</LongitudeDegrees>
            </Position>
            <AltitudeMeters>290.20001220703125</AltitudeMeters>
            <DistanceMeters>318999.61132979</DistanceMeters>
          </Trackpoint>
          <Trackpoint>
            <Time>2018-09-14T15:30:35.000Z</Time>
            <Position>
              <LatitudeDegrees>37.51261529512703418731689453125</LatitudeDegrees>
              <LongitudeDegrees>-8.06078684516251087188720703125</LongitudeDegrees>
            </Position>
            <AltitudeMeters>290.20001220703125</AltitudeMeters>
            <DistanceMeters>319001.87607777</DistanceMeters>
          </Trackpoint>
          <Trackpoint>
            <Time>2018-09-14T15:30:36.000Z</Time>
            <Position>
              <LatitudeDegrees>37.51260389573872089385986328125</LatitudeDegrees>
              <LongitudeDegrees>-8.0608093924820423126220703125</LongitudeDegrees>
            </Position>
            <AltitudeMeters>290.399993896484375</AltitudeMeters>
            <DistanceMeters>319004.23840443</DistanceMeters>
          </Trackpoint>
          <Trackpoint>
            <Time>2018-09-14T15:30:37.000Z</Time>
            <Position>
              <LatitudeDegrees>37.51259081996977329254150390625</LatitudeDegrees>
              <LongitudeDegrees>-8.06083160452544689178466796875</LongitudeDegrees>
            </Position>
            <AltitudeMeters>290.399993896484375</AltitudeMeters>
            <DistanceMeters>319006.68153368</DistanceMeters>
          </Trackpoint>
          <Trackpoint>
            <Time>2018-09-14T15:30:38.000Z</Time>
            <Position>
              <LatitudeDegrees>37.51257757656276226043701171875</LatitudeDegrees>
              <LongitudeDegrees>-8.060853146016597747802734375</LongitudeDegrees>
            </Position>
            <AltitudeMeters>290.600006103515625</AltitudeMeters>
            <DistanceMeters>319009.08929385</DistanceMeters>
          </Trackpoint>
          <Trackpoint>
            <Time>2018-09-14T15:30:39.000Z</Time>
            <Position>
              <LatitudeDegrees>37.51256047748029232025146484375</LatitudeDegrees>
              <LongitudeDegrees>-8.060872592031955718994140625</LongitudeDegrees>
            </Position>
            <AltitudeMeters>290.600006103515625</AltitudeMeters>
            <DistanceMeters>319011.65325479</DistanceMeters>
          </Trackpoint>
          <Trackpoint>
            <Time>2018-09-14T15:30:40.000Z</Time>
            <Position>
              <LatitudeDegrees>37.51254354603588581085205078125</LatitudeDegrees>
              <LongitudeDegrees>-8.0608911998569965362548828125</LongitudeDegrees>
            </Position>
            <AltitudeMeters>290.79998779296875</AltitudeMeters>
            <DistanceMeters>319014.15301735</DistanceMeters>
          </Trackpoint>
          <Trackpoint>
            <Time>2018-09-14T15:30:41.000Z</Time>
            <Position>
              <LatitudeDegrees>37.51252795569598674774169921875</LatitudeDegrees>
              <LongitudeDegrees>-8.0609106458723545074462890625</LongitudeDegrees>
            </Position>
            <AltitudeMeters>290.79998779296875</AltitudeMeters>
            <DistanceMeters>319016.59429785</DistanceMeters>
          </Trackpoint>
          <Trackpoint>
            <Time>2018-09-14T15:30:42.000Z</Time>
            <Position>
              <LatitudeDegrees>37.51251219771802425384521484375</LatitudeDegrees>
              <LongitudeDegrees>-8.06092925369739532470703125</LongitudeDegrees>
            </Position>
            <AltitudeMeters>291</AltitudeMeters>
            <DistanceMeters>319018.99642583</DistanceMeters>
          </Trackpoint>
          <Trackpoint>
            <Time>2018-09-14T15:30:43.000Z</Time>
            <Position>
              <LatitudeDegrees>37.51249878667294979095458984375</LatitudeDegrees>
              <LongitudeDegrees>-8.06095079518854618072509765625</LongitudeDegrees>
            </Position>
            <AltitudeMeters>291</AltitudeMeters>
            <DistanceMeters>319021.41354384</DistanceMeters>
          </Trackpoint>
          <Trackpoint>
            <Time>2018-09-14T15:30:44.000Z</Time>
            <Position>
              <LatitudeDegrees>37.5124842859804630279541015625</LatitudeDegrees>
              <LongitudeDegrees>-8.0609716661274433135986328125</LongitudeDegrees>
            </Position>
            <AltitudeMeters>291.20001220703125</AltitudeMeters>
            <DistanceMeters>319023.86221098</DistanceMeters>
          </Trackpoint>
          <Trackpoint>
            <Time>2018-09-14T15:30:45.000Z</Time>
            <Position>
              <LatitudeDegrees>37.512471713125705718994140625</LatitudeDegrees>
              <LongitudeDegrees>-8.060991279780864715576171875</LongitudeDegrees>
            </Position>
            <AltitudeMeters>291.20001220703125</AltitudeMeters>
            <DistanceMeters>319026.08672933</DistanceMeters>
          </Trackpoint>
          <Trackpoint>
            <Time>2018-09-14T15:30:46.000Z</Time>
            <Position>
              <LatitudeDegrees>37.51245788298547267913818359375</LatitudeDegrees>
              <LongitudeDegrees>-8.061011396348476409912109375</LongitudeDegrees>
            </Position>
            <AltitudeMeters>291.399993896484375</AltitudeMeters>
            <DistanceMeters>319028.43563901</DistanceMeters>
          </Trackpoint>
          <Trackpoint>
            <Time>2018-09-14T15:30:47.000Z</Time>
            <Position>
              <LatitudeDegrees>37.51244388520717620849609375</LatitudeDegrees>
              <LongitudeDegrees>-8.0610326863825321197509765625</LongitudeDegrees>
            </Position>
            <AltitudeMeters>291.399993896484375</AltitudeMeters>
            <DistanceMeters>319030.87691951</DistanceMeters>
          </Trackpoint>
          <Trackpoint>
            <Time>2018-09-14T15:30:48.000Z</Time>
            <Position>
              <LatitudeDegrees>37.512428127229213714599609375</LatitudeDegrees>
              <LongitudeDegrees>-8.06105188094079494476318359375</LongitudeDegrees>
            </Position>
            <AltitudeMeters>291.399993896484375</AltitudeMeters>
            <DistanceMeters>319033.31449829</DistanceMeters>
          </Trackpoint>
          <Trackpoint>
            <Time>2018-09-14T15:30:49.000Z</Time>
            <Position>
              <LatitudeDegrees>37.5124105252325534820556640625</LatitudeDegrees>
              <LongitudeDegrees>-8.06106914766132831573486328125</LongitudeDegrees>
            </Position>
            <AltitudeMeters>291.600006103515625</AltitudeMeters>
            <DistanceMeters>319035.79613326</DistanceMeters>
          </Trackpoint>
          <Trackpoint>
            <Time>2018-09-14T15:30:50.000Z</Time>
            <Position>
              <LatitudeDegrees>37.51239166595041751861572265625</LatitudeDegrees>
              <LongitudeDegrees>-8.06108616292476654052734375</LongitudeDegrees>
            </Position>
            <AltitudeMeters>291.600006103515625</AltitudeMeters>
            <DistanceMeters>319038.37764375</DistanceMeters>
          </Trackpoint>
          <Trackpoint>
            <Time>2018-09-14T15:30:51.000Z</Time>
            <Position>
              <LatitudeDegrees>37.5123729743063449859619140625</LatitudeDegrees>
              <LongitudeDegrees>-8.0611014179885387420654296875</LongitudeDegrees>
            </Position>
            <AltitudeMeters>291.79998779296875</AltitudeMeters>
            <DistanceMeters>319040.85563729</DistanceMeters>
          </Trackpoint>
          <Trackpoint>
            <Time>2018-09-14T15:30:52.000Z</Time>
            <Position>
              <LatitudeDegrees>37.512352354824542999267578125</LatitudeDegrees>
              <LongitudeDegrees>-8.061117343604564666748046875</LongitudeDegrees>
            </Position>
            <AltitudeMeters>291.79998779296875</AltitudeMeters>
            <DistanceMeters>319043.54507798</DistanceMeters>
          </Trackpoint>
          <Trackpoint>
            <Time>2018-09-14T15:30:53.000Z</Time>
            <Position>
              <LatitudeDegrees>37.5123344175517559051513671875</LatitudeDegrees>
              <LongitudeDegrees>-8.0611352808773517608642578125</LongitudeDegrees>
            </Position>
            <AltitudeMeters>292</AltitudeMeters>
            <DistanceMeters>319046.0913684</DistanceMeters>
          </Trackpoint>
          <Trackpoint>
            <Time>2018-09-14T15:30:54.000Z</Time>
            <Position>
              <LatitudeDegrees>37.51231371425092220306396484375</LatitudeDegrees>
              <LongitudeDegrees>-8.06115061976015567779541015625</LongitudeDegrees>
            </Position>
            <AltitudeMeters>292</AltitudeMeters>
            <DistanceMeters>319048.76565719</DistanceMeters>
          </Trackpoint>
          <Trackpoint>
            <Time>2018-09-14T15:30:55.000Z</Time>
            <Position>
              <LatitudeDegrees>37.51229326240718364715576171875</LatitudeDegrees>
              <LongitudeDegrees>-8.0611674673855304718017578125</LongitudeDegrees>
            </Position>
            <AltitudeMeters>292</AltitudeMeters>
            <DistanceMeters>319051.48680817</DistanceMeters>
          </Trackpoint>
          <Trackpoint>
            <Time>2018-09-14T15:30:56.000Z</Time>
            <Position>
              <LatitudeDegrees>37.51227431930601596832275390625</LatitudeDegrees>
              <LongitudeDegrees>-8.06118615902960300445556640625</LongitudeDegrees>
            </Position>
            <AltitudeMeters>292.20001220703125</AltitudeMeters>
            <DistanceMeters>319054.16447146</DistanceMeters>
          </Trackpoint>
          <Trackpoint>
            <Time>2018-09-14T15:30:57.000Z</Time>
            <Position>
              <LatitudeDegrees>37.512257806956768035888671875</LatitudeDegrees>
              <LongitudeDegrees>-8.0612066946923732757568359375</LongitudeDegrees>
            </Position>
            <AltitudeMeters>292.20001220703125</AltitudeMeters>
            <DistanceMeters>319056.74598196</DistanceMeters>
          </Trackpoint>
          <Trackpoint>
            <Time>2018-09-14T15:30:58.000Z</Time>
            <Position>
              <LatitudeDegrees>37.51223827712237834930419921875</LatitudeDegrees>
              <LongitudeDegrees>-8.06122505106031894683837890625</LongitudeDegrees>
            </Position>
            <AltitudeMeters>292.399993896484375</AltitudeMeters>
            <DistanceMeters>319059.45715923</DistanceMeters>
          </Trackpoint>
          <Trackpoint>
            <Time>2018-09-14T15:30:59.000Z</Time>
            <Position>
              <LatitudeDegrees>37.51221849583089351654052734375</LatitudeDegrees>
              <LongitudeDegrees>-8.0612445808947086334228515625</LongitudeDegrees>
            </Position>
            <AltitudeMeters>292.399993896484375</AltitudeMeters>
            <DistanceMeters>319062.25197875</DistanceMeters>
          </Trackpoint>
          <Trackpoint>
            <Time>2018-09-14T15:31:00.000Z</Time>
            <Position>
              <LatitudeDegrees>37.51220022328197956085205078125</LatitudeDegrees>
              <LongitudeDegrees>-8.06126654148101806640625</LongitudeDegrees>
            </Position>
            <AltitudeMeters>292.600006103515625</AltitudeMeters>
            <DistanceMeters>319065.06130016</DistanceMeters>
          </Trackpoint>
          <Trackpoint>
            <Time>2018-09-14T15:31:01.000Z</Time>
            <Position>
              <LatitudeDegrees>37.512182034552097320556640625</LatitudeDegrees>
              <LongitudeDegrees>-8.06128866970539093017578125</LongitudeDegrees>
            </Position>
            <AltitudeMeters>292.600006103515625</AltitudeMeters>
            <DistanceMeters>319067.87543894</DistanceMeters>
          </Trackpoint>
          <Trackpoint>
            <Time>2018-09-14T15:31:02.000Z</Time>
            <Position>
              <LatitudeDegrees>37.51216535456478595733642578125</LatitudeDegrees>
              <LongitudeDegrees>-8.06131012737751007080078125</LongitudeDegrees>
            </Position>
            <AltitudeMeters>292.79998779296875</AltitudeMeters>
            <DistanceMeters>319070.52939064</DistanceMeters>
          </Trackpoint>
          <Trackpoint>
            <Time>2018-09-14T15:31:03.000Z</Time>
            <Position>
              <LatitudeDegrees>37.51214859075844287872314453125</LatitudeDegrees>
              <LongitudeDegrees>-8.06133024394512176513671875</LongitudeDegrees>
            </Position>
            <AltitudeMeters>292.79998779296875</AltitudeMeters>
            <DistanceMeters>319073.10564881</DistanceMeters>
          </Trackpoint>
          <Trackpoint>
            <Time>2018-09-14T15:31:04.000Z</Time>
            <Position>
              <LatitudeDegrees>37.512129060924053192138671875</LatitudeDegrees>
              <LongitudeDegrees>-8.06135010905563831329345703125</LongitudeDegrees>
            </Position>
            <AltitudeMeters>293</AltitudeMeters>
            <DistanceMeters>319075.89885236</DistanceMeters>
          </Trackpoint>
          <Trackpoint>
            <Time>2018-09-14T15:31:05.000Z</Time>
            <Position>
              <LatitudeDegrees>37.51210818998515605926513671875</LatitudeDegrees>
              <LongitudeDegrees>-8.061371482908725738525390625</LongitudeDegrees>
            </Position>
            <AltitudeMeters>293</AltitudeMeters>
            <DistanceMeters>319078.89181675</DistanceMeters>
          </Trackpoint>
          <Trackpoint>
            <Time>2018-09-14T15:31:06.000Z</Time>
            <Position>
              <LatitudeDegrees>37.51208622939884662628173828125</LatitudeDegrees>
              <LongitudeDegrees>-8.0613947845995426177978515625</LongitudeDegrees>
            </Position>
            <AltitudeMeters>293.20001220703125</AltitudeMeters>
            <DistanceMeters>319082.08759779</DistanceMeters>
          </Trackpoint>
          <Trackpoint>
            <Time>2018-09-14T15:31:07.000Z</Time>
            <Position>
              <LatitudeDegrees>37.51206326298415660858154296875</LatitudeDegrees>
              <LongitudeDegrees>-8.0614182539284229278564453125</LongitudeDegrees>
            </Position>
            <AltitudeMeters>293.20001220703125</AltitudeMeters>
            <DistanceMeters>319085.37941973</DistanceMeters>
          </Trackpoint>
          <Trackpoint>
            <Time>2018-09-14T15:31:08.000Z</Time>
            <Position>
              <LatitudeDegrees>37.5120407156646251678466796875</LatitudeDegrees>
              <LongitudeDegrees>-8.06144113652408123016357421875</LongitudeDegrees>
            </Position>
            <AltitudeMeters>293.399993896484375</AltitudeMeters>
            <DistanceMeters>319088.6019324</DistanceMeters>
          </Trackpoint>
          <Trackpoint>
            <Time>2018-09-14T15:31:09.000Z</Time>
            <Position>
              <LatitudeDegrees>37.5120175816118717193603515625</LatitudeDegrees>
              <LongitudeDegrees>-8.06146242655813694000244140625</LongitudeDegrees>
            </Position>
            <AltitudeMeters>293.399993896484375</AltitudeMeters>
            <DistanceMeters>319091.79064156</DistanceMeters>
          </Trackpoint>
          <Trackpoint>
            <Time>2018-09-14T15:31:10.000Z</Time>
            <Position>
              <LatitudeDegrees>37.51199469901621341705322265625</LatitudeDegrees>
              <LongitudeDegrees>-8.06148254312574863433837890625</LongitudeDegrees>
            </Position>
            <AltitudeMeters>293.600006103515625</AltitudeMeters>
            <DistanceMeters>319094.89614017</DistanceMeters>
          </Trackpoint>
          <Trackpoint>
            <Time>2018-09-14T15:31:11.000Z</Time>
            <Position>
              <LatitudeDegrees>37.51197475008666515350341796875</LatitudeDegrees>
              <LongitudeDegrees>-8.06150190532207489013671875</LongitudeDegrees>
            </Position>
            <AltitudeMeters>293.600006103515625</AltitudeMeters>
            <DistanceMeters>319097.69902556</DistanceMeters>
          </Trackpoint>
          <Trackpoint>
            <Time>2018-09-14T15:31:12.000Z</Time>
            <Position>
              <LatitudeDegrees>37.51196133904159069061279296875</LatitudeDegrees>
              <LongitudeDegrees>-8.06151799857616424560546875</LongitudeDegrees>
            </Position>
            <AltitudeMeters>293.79998779296875</AltitudeMeters>
            <DistanceMeters>319099.75915564</DistanceMeters>
          </Trackpoint>
          <Trackpoint>
            <Time>2018-09-14T15:31:13.000Z</Time>
            <Position>
              <LatitudeDegrees>37.5119496881961822509765625</LatitudeDegrees>
              <LongitudeDegrees>-8.0615299008786678314208984375</LongitudeDegrees>
            </Position>
            <AltitudeMeters>293.79998779296875</AltitudeMeters>
            <DistanceMeters>319101.42686771</DistanceMeters>
          </Trackpoint>
          <Trackpoint>
            <Time>2018-09-14T15:31:14.000Z</Time>
            <Position>
              <LatitudeDegrees>37.51193753443658351898193359375</LatitudeDegrees>
              <LongitudeDegrees>-8.0615473352372646331787109375</LongitudeDegrees>
            </Position>
            <AltitudeMeters>293.79998779296875</AltitudeMeters>
            <DistanceMeters>319103.47380578</DistanceMeters>
          </Trackpoint>
          <Trackpoint>
            <Time>2018-09-14T15:31:15.000Z</Time>
            <Position>
              <LatitudeDegrees>37.51192898489534854888916015625</LatitudeDegrees>
              <LongitudeDegrees>-8.0615667812526226043701171875</LongitudeDegrees>
            </Position>
            <AltitudeMeters>294</AltitudeMeters>
            <DistanceMeters>319105.43743574</DistanceMeters>
          </Trackpoint>
          <Trackpoint>
            <Time>2018-09-14T15:31:16.000Z</Time>
            <Position>
              <LatitudeDegrees>37.511921189725399017333984375</LatitudeDegrees>
              <LongitudeDegrees>-8.06158463470637798309326171875</LongitudeDegrees>
            </Position>
            <AltitudeMeters>294</AltitudeMeters>
            <DistanceMeters>319107.23542556</DistanceMeters>
          </Trackpoint>
          <Trackpoint>
            <Time>2018-09-14T15:31:17.000Z</Time>
            <Position>
              <LatitudeDegrees>37.51191205345094203948974609375</LatitudeDegrees>
              <LongitudeDegrees>-8.06160726584494113922119140625</LongitudeDegrees>
            </Position>
            <AltitudeMeters>294</AltitudeMeters>
            <DistanceMeters>319109.47612244</DistanceMeters>
          </Trackpoint>
          <Trackpoint>
            <Time>2018-09-14T15:31:18.000Z</Time>
            <Position>
              <LatitudeDegrees>37.511899061501026153564453125</LatitudeDegrees>
              <LongitudeDegrees>-8.0616326630115509033203125</LongitudeDegrees>
            </Position>
            <AltitudeMeters>294.20001220703125</AltitudeMeters>
            <DistanceMeters>319112.14534148</DistanceMeters>
          </Trackpoint>
          <Trackpoint>
            <Time>2018-09-14T15:31:19.000Z</Time>
            <Position>
              <LatitudeDegrees>37.5118854828178882598876953125</LatitudeDegrees>
              <LongitudeDegrees>-8.06165688671171665191650390625</LongitudeDegrees>
            </Position>
            <AltitudeMeters>294.20001220703125</AltitudeMeters>
            <DistanceMeters>319114.76504721</DistanceMeters>
          </Trackpoint>
          <Trackpoint>
            <Time>2018-09-14T15:31:20.000Z</Time>
            <Position>
              <LatitudeDegrees>37.51187366433441638946533203125</LatitudeDegrees>
              <LongitudeDegrees>-8.06167918257415294647216796875</LongitudeDegrees>
            </Position>
            <AltitudeMeters>294.399993896484375</AltitudeMeters>
            <DistanceMeters>319117.13119332</DistanceMeters>
          </Trackpoint>
          <Trackpoint>
            <Time>2018-09-14T15:31:21.000Z</Time>
            <Position>
              <LatitudeDegrees>37.51185874454677104949951171875</LatitudeDegrees>
              <LongitudeDegrees>-8.06170265190303325653076171875</LongitudeDegrees>
            </Position>
            <AltitudeMeters>294.399993896484375</AltitudeMeters>
            <DistanceMeters>319119.78684572</DistanceMeters>
          </Trackpoint>
          <Trackpoint>
            <Time>2018-09-14T15:31:22.000Z</Time>
            <Position>
              <LatitudeDegrees>37.51183527521789073944091796875</LatitudeDegrees>
              <LongitudeDegrees>-8.0617233552038669586181640625</LongitudeDegrees>
            </Position>
            <AltitudeMeters>294.600006103515625</AltitudeMeters>
            <DistanceMeters>319122.97555488</DistanceMeters>
          </Trackpoint>
          <Trackpoint>
            <Time>2018-09-14T15:31:23.000Z</Time>
            <Position>
              <LatitudeDegrees>37.51181515865027904510498046875</LatitudeDegrees>
              <LongitudeDegrees>-8.0617426335811614990234375</LongitudeDegrees>
            </Position>
            <AltitudeMeters>294.600006103515625</AltitudeMeters>
            <DistanceMeters>319125.78808878</DistanceMeters>
          </Trackpoint>
          <Trackpoint>
            <Time>2018-09-14T15:31:24.000Z</Time>
            <Position>
              <LatitudeDegrees>37.51179479062557220458984375</LatitudeDegrees>
              <LongitudeDegrees>-8.0617612414062023162841796875</LongitudeDegrees>
            </Position>
            <AltitudeMeters>294.600006103515625</AltitudeMeters>
            <DistanceMeters>319128.58775061</DistanceMeters>
          </Trackpoint>
          <Trackpoint>
            <Time>2018-09-14T15:31:25.000Z</Time>
            <Position>
              <LatitudeDegrees>37.51177526079118251800537109375</LatitudeDegrees>
              <LongitudeDegrees>-8.0617776699364185333251953125</LongitudeDegrees>
            </Position>
            <AltitudeMeters>294.79998779296875</AltitudeMeters>
            <DistanceMeters>319131.20055328</DistanceMeters>
          </Trackpoint>
          <Trackpoint>
            <Time>2018-09-14T15:31:26.000Z</Time>
            <Position>
              <LatitudeDegrees>37.51175665296614170074462890625</LatitudeDegrees>
              <LongitudeDegrees>-8.06179770268499851226806640625</LongitudeDegrees>
            </Position>
            <AltitudeMeters>294.79998779296875</AltitudeMeters>
            <DistanceMeters>319133.92502072</DistanceMeters>
          </Trackpoint>
          <Trackpoint>
            <Time>2018-09-14T15:31:27.000Z</Time>
            <Position>
              <LatitudeDegrees>37.51173871569335460662841796875</LatitudeDegrees>
              <LongitudeDegrees>-8.06181899271905422210693359375</LongitudeDegrees>
            </Position>
            <AltitudeMeters>294.79998779296875</AltitudeMeters>
            <DistanceMeters>319136.66601025</DistanceMeters>
          </Trackpoint>
          <Trackpoint>
            <Time>2018-09-14T15:31:28.000Z</Time>
            <Position>
              <LatitudeDegrees>37.511719353497028350830078125</LatitudeDegrees>
              <LongitudeDegrees>-8.0618541128933429718017578125</LongitudeDegrees>
            </Position>
            <AltitudeMeters>294.79998779296875</AltitudeMeters>
            <DistanceMeters>319140.44324744</DistanceMeters>
          </Trackpoint>
          <Trackpoint>
            <Time>2018-09-14T15:31:29.000Z</Time>
            <Position>
              <LatitudeDegrees>37.5117034278810024261474609375</LatitudeDegrees>
              <LongitudeDegrees>-8.061903230845928192138671875</LongitudeDegrees>
            </Position>
            <AltitudeMeters>294.79998779296875</AltitudeMeters>
            <DistanceMeters>319145.12759219</DistanceMeters>
          </Trackpoint>
          <Trackpoint>
            <Time>2018-09-14T15:31:30.000Z</Time>
            <Position>
              <LatitudeDegrees>37.511686496436595916748046875</LatitudeDegrees>
              <LongitudeDegrees>-8.0619577132165431976318359375</LongitudeDegrees>
            </Position>
            <AltitudeMeters>294.79998779296875</AltitudeMeters>
            <DistanceMeters>319150.29236187</DistanceMeters>
          </Trackpoint>
          <Trackpoint>
            <Time>2018-09-14T15:31:31.000Z</Time>
            <Position>
              <LatitudeDegrees>37.5116709060966968536376953125</LatitudeDegrees>
              <LongitudeDegrees>-8.06200792081654071807861328125</LongitudeDegrees>
            </Position>
            <AltitudeMeters>294.600006103515625</AltitudeMeters>
            <DistanceMeters>319155.05319077</DistanceMeters>
          </Trackpoint>
          <Trackpoint>
            <Time>2018-09-14T15:31:32.000Z</Time>
            <Position>
              <LatitudeDegrees>37.51165891997516155242919921875</LatitudeDegrees>
              <LongitudeDegrees>-8.0620613135397434234619140625</LongitudeDegrees>
            </Position>
            <AltitudeMeters>294.600006103515625</AltitudeMeters>
            <DistanceMeters>319159.95236858</DistanceMeters>
          </Trackpoint>
          <Trackpoint>
            <Time>2018-09-14T15:31:33.000Z</Time>
            <Position>
              <LatitudeDegrees>37.51165070571005344390869140625</LatitudeDegrees>
              <LongitudeDegrees>-8.0621156282722949981689453125</LongitudeDegrees>
            </Position>
            <AltitudeMeters>294.600006103515625</AltitudeMeters>
            <DistanceMeters>319164.83307977</DistanceMeters>
          </Trackpoint>
          <Trackpoint>
            <Time>2018-09-14T15:31:34.000Z</Time>
            <Position>
              <LatitudeDegrees>37.5116454251110553741455078125</LatitudeDegrees>
              <LongitudeDegrees>-8.06217321194708347320556640625</LongitudeDegrees>
            </Position>
            <AltitudeMeters>294.399993896484375</AltitudeMeters>
            <DistanceMeters>319169.95042495</DistanceMeters>
          </Trackpoint>
          <Trackpoint>
            <Time>2018-09-14T15:31:35.000Z</Time>
            <Position>
              <LatitudeDegrees>37.5116420723497867584228515625</LatitudeDegrees>
              <LongitudeDegrees>-8.062231130897998809814453125</LongitudeDegrees>
            </Position>
            <AltitudeMeters>294.399993896484375</AltitudeMeters>
            <DistanceMeters>319175.07834681</DistanceMeters>
          </Trackpoint>
          <Trackpoint>
            <Time>2018-09-14T15:31:36.000Z</Time>
            <Position>
              <LatitudeDegrees>37.51164047978818416595458984375</LatitudeDegrees>
              <LongitudeDegrees>-8.06228955276310443878173828125</LongitudeDegrees>
            </Position>
            <AltitudeMeters>294.20001220703125</AltitudeMeters>
            <DistanceMeters>319180.23874363</DistanceMeters>
          </Trackpoint>
          <Trackpoint>
            <Time>2018-09-14T15:31:37.000Z</Time>
            <Position>
              <LatitudeDegrees>37.511638216674327850341796875</LatitudeDegrees>
              <LongitudeDegrees>-8.06234671734273433685302734375</LongitudeDegrees>
            </Position>
            <AltitudeMeters>294.20001220703125</AltitudeMeters>
            <DistanceMeters>319185.29216388</DistanceMeters>
          </Trackpoint>
          <Trackpoint>
            <Time>2018-09-14T15:31:38.000Z</Time>
            <Position>
              <LatitudeDegrees>37.5116358697414398193359375</LatitudeDegrees>
              <LongitudeDegrees>-8.062398768961429595947265625</LongitudeDegrees>
            </Position>
            <AltitudeMeters>294.20001220703125</AltitudeMeters>
            <DistanceMeters>319189.89581346</DistanceMeters>
          </Trackpoint>
          <Trackpoint>
            <Time>2018-09-14T15:31:39.000Z</Time>
            <Position>
              <LatitudeDegrees>37.51163343898952007293701171875</LatitudeDegrees>
              <LongitudeDegrees>-8.062445037066936492919921875</LongitudeDegrees>
            </Position>
            <AltitudeMeters>294</AltitudeMeters>
            <DistanceMeters>319193.9896896</DistanceMeters>
          </Trackpoint>
          <Trackpoint>
            <Time>2018-09-14T15:31:40.000Z</Time>
            <Position>
              <LatitudeDegrees>37.511632852256298065185546875</LatitudeDegrees>
              <LongitudeDegrees>-8.0624807439744472503662109375</LongitudeDegrees>
            </Position>
            <AltitudeMeters>294</AltitudeMeters>
            <DistanceMeters>319197.14280142</DistanceMeters>
          </Trackpoint>
          <Trackpoint>
            <Time>2018-09-14T15:31:41.000Z</Time>
            <Position>
              <LatitudeDegrees>37.511634193360805511474609375</LatitudeDegrees>
              <LongitudeDegrees>-8.06250362657010555267333984375</LongitudeDegrees>
            </Position>
            <AltitudeMeters>294</AltitudeMeters>
            <DistanceMeters>319199.16756183</DistanceMeters>
          </Trackpoint>
          <Trackpoint>
            <Time>2018-09-14T15:31:42.000Z</Time>
            <Position>
              <LatitudeDegrees>37.51163695938885211944580078125</LatitudeDegrees>
              <LongitudeDegrees>-8.0625132657587528228759765625</LongitudeDegrees>
            </Position>
            <AltitudeMeters>294</AltitudeMeters>
            <DistanceMeters>319200.0690644</DistanceMeters>
          </Trackpoint>
          <Trackpoint>
            <Time>2018-09-14T15:31:43.000Z</Time>
            <Position>
              <LatitudeDegrees>37.5116357021033763885498046875</LatitudeDegrees>
              <LongitudeDegrees>-8.06251443922519683837890625</LongitudeDegrees>
            </Position>
            <AltitudeMeters>294</AltitudeMeters>
            <DistanceMeters>319200.25911783</DistanceMeters>
          </Trackpoint>
          <Trackpoint>
            <Time>2018-09-14T15:32:10.000Z</Time>
            <Position>
              <LatitudeDegrees>37.51163528300821781158447265625</LatitudeDegrees>
              <LongitudeDegrees>-8.06258291937410831451416015625</LongitudeDegrees>
            </Position>
            <AltitudeMeters>294</AltitudeMeters>
            <DistanceMeters>319206.30508751</DistanceMeters>
          </Trackpoint>
          <Trackpoint>
            <Time>2018-09-14T15:32:11.000Z</Time>
            <Position>
              <LatitudeDegrees>37.5116407312452793121337890625</LatitudeDegrees>
              <LongitudeDegrees>-8.06261309422552585601806640625</LongitudeDegrees>
            </Position>
            <AltitudeMeters>294</AltitudeMeters>
            <DistanceMeters>319209.03617578</DistanceMeters>
          </Trackpoint>
          <Trackpoint>
            <Time>2018-09-14T15:32:13.000Z</Time>
            <Position>
              <LatitudeDegrees>37.51165799796581268310546875</LatitudeDegrees>
              <LongitudeDegrees>-8.062683753669261932373046875</LongitudeDegrees>
            </Position>
            <AltitudeMeters>293.79998779296875</AltitudeMeters>
            <DistanceMeters>319215.56265037</DistanceMeters>
          </Trackpoint>
          <Trackpoint>
            <Time>2018-09-14T15:32:14.000Z</Time>
            <Position>
              <LatitudeDegrees>37.5116655416786670684814453125</LatitudeDegrees>
              <LongitudeDegrees>-8.0627231486141681671142578125</LongitudeDegrees>
            </Position>
            <AltitudeMeters>293.79998779296875</AltitudeMeters>
            <DistanceMeters>319219.14100871</DistanceMeters>
          </Trackpoint>
          <Trackpoint>
            <Time>2018-09-14T15:32:15.000Z</Time>
            <Position>
              <LatitudeDegrees>37.5116719119250774383544921875</LatitudeDegrees>
              <LongitudeDegrees>-8.06276497431099414825439453125</LongitudeDegrees>
            </Position>
            <AltitudeMeters>293.79998779296875</AltitudeMeters>
            <DistanceMeters>319222.90147407</DistanceMeters>
          </Trackpoint>
          <Trackpoint>
            <Time>2018-09-14T15:32:16.000Z</Time>
            <Position>
              <LatitudeDegrees>37.511675767600536346435546875</LatitudeDegrees>
              <LongitudeDegrees>-8.06280948221683502197265625</LongitudeDegrees>
            </Position>
            <AltitudeMeters>293.79998779296875</AltitudeMeters>
            <DistanceMeters>319226.85394573</DistanceMeters>
          </Trackpoint>
          <Trackpoint>
            <Time>2018-09-14T15:32:17.000Z</Time>
            <Position>
              <LatitudeDegrees>37.51167719252407550811767578125</LatitudeDegrees>
              <LongitudeDegrees>-8.06285583414137363433837890625</LongitudeDegrees>
            </Position>
            <AltitudeMeters>293.600006103515625</AltitudeMeters>
            <DistanceMeters>319230.94892461</DistanceMeters>
          </Trackpoint>
          <Trackpoint>
            <Time>2018-09-14T15:32:18.000Z</Time>
            <Position>
              <LatitudeDegrees>37.5116769410669803619384765625</LatitudeDegrees>
              <LongitudeDegrees>-8.06290377862751483917236328125</LongitudeDegrees>
            </Position>
            <AltitudeMeters>293.600006103515625</AltitudeMeters>
            <DistanceMeters>319235.18161544</DistanceMeters>
          </Trackpoint>
          <Trackpoint>
            <Time>2018-09-14T15:32:19.000Z</Time>
            <Position>
              <LatitudeDegrees>37.5116769410669803619384765625</LatitudeDegrees>
              <LongitudeDegrees>-8.06295339949429035186767578125</LongitudeDegrees>
            </Position>
            <AltitudeMeters>293.600006103515625</AltitudeMeters>
            <DistanceMeters>319239.56109969</DistanceMeters>
          </Trackpoint>
          <Trackpoint>
            <Time>2018-09-14T15:32:20.000Z</Time>
            <Position>
              <LatitudeDegrees>37.511676438152790069580078125</LatitudeDegrees>
              <LongitudeDegrees>-8.0630037747323513031005859375</LongitudeDegrees>
            </Position>
            <AltitudeMeters>293.399993896484375</AltitudeMeters>
            <DistanceMeters>319244.00810626</DistanceMeters>
          </Trackpoint>
          <Trackpoint>
            <Time>2018-09-14T15:32:21.000Z</Time>
            <Position>
              <LatitudeDegrees>37.51167501322925090789794921875</LatitudeDegrees>
              <LongitudeDegrees>-8.0630550719797611236572265625</LongitudeDegrees>
            </Position>
            <AltitudeMeters>293.399993896484375</AltitudeMeters>
            <DistanceMeters>319248.5395954</DistanceMeters>
          </Trackpoint>
          <Trackpoint>
            <Time>2018-09-14T15:32:22.000Z</Time>
            <Position>
              <LatitudeDegrees>37.51167316921055316925048828125</LatitudeDegrees>
              <LongitudeDegrees>-8.06310611777007579803466796875</LongitudeDegrees>
            </Position>
            <AltitudeMeters>293.399993896484375</AltitudeMeters>
            <DistanceMeters>319253.05111314</DistanceMeters>
          </Trackpoint>
          <Trackpoint>
            <Time>2018-09-14T15:32:23.000Z</Time>
            <Position>
              <LatitudeDegrees>37.511671744287014007568359375</LatitudeDegrees>
              <LongitudeDegrees>-8.06315682828426361083984375</LongitudeDegrees>
            </Position>
            <AltitudeMeters>293.399993896484375</AltitudeMeters>
            <DistanceMeters>319257.5325069</DistanceMeters>
          </Trackpoint>
          <Trackpoint>
            <Time>2018-09-14T15:32:24.000Z</Time>
            <Position>
              <LatitudeDegrees>37.51167048700153827667236328125</LatitudeDegrees>
              <LongitudeDegrees>-8.06320846080780029296875</LongitudeDegrees>
            </Position>
            <AltitudeMeters>293.20001220703125</AltitudeMeters>
            <DistanceMeters>319262.09180903</DistanceMeters>
          </Trackpoint>
          <Trackpoint>
            <Time>2018-09-14T15:32:25.000Z</Time>
            <Position>
              <LatitudeDegrees>37.5116692297160625457763671875</LatitudeDegrees>
              <LongitudeDegrees>-8.06326302699744701385498046875</LongitudeDegrees>
            </Position>
            <AltitudeMeters>293.20001220703125</AltitudeMeters>
            <DistanceMeters>319266.91107834</DistanceMeters>
          </Trackpoint>
          <Trackpoint>
            <Time>2018-09-14T15:32:26.000Z</Time>
            <Position>
              <LatitudeDegrees>37.51166931353509426116943359375</LatitudeDegrees>
              <LongitudeDegrees>-8.063319437205791473388671875</LongitudeDegrees>
            </Position>
            <AltitudeMeters>293.20001220703125</AltitudeMeters>
            <DistanceMeters>319271.89250886</DistanceMeters>
          </Trackpoint>
          <Trackpoint>
            <Time>2018-09-14T15:32:27.000Z</Time>
            <Position>
              <LatitudeDegrees>37.51166864298284053802490234375</LatitudeDegrees>
              <LongitudeDegrees>-8.06337676942348480224609375</LongitudeDegrees>
            </Position>
            <AltitudeMeters>293</AltitudeMeters>
            <DistanceMeters>319276.95485584</DistanceMeters>
          </Trackpoint>
          <Trackpoint>
            <Time>2018-09-14T15:32:28.000Z</Time>
            <Position>
              <LatitudeDegrees>37.5116672180593013763427734375</LatitudeDegrees>
              <LongitudeDegrees>-8.0634349398314952850341796875</LongitudeDegrees>
            </Position>
            <AltitudeMeters>293</AltitudeMeters>
            <DistanceMeters>319282.09333261</DistanceMeters>
          </Trackpoint>
          <Trackpoint>
            <Time>2018-09-14T15:32:29.000Z</Time>
            <Position>
              <LatitudeDegrees>37.51166604459285736083984375</LatitudeDegrees>
              <LongitudeDegrees>-8.06349344551563262939453125</LongitudeDegrees>
            </Position>
            <AltitudeMeters>293</AltitudeMeters>
            <DistanceMeters>319287.25985039</DistanceMeters>
          </Trackpoint>
          <Trackpoint>
            <Time>2018-09-14T15:32:30.000Z</Time>
            <Position>
              <LatitudeDegrees>37.5116642005741596221923828125</LatitudeDegrees>
              <LongitudeDegrees>-8.063550777733325958251953125</LongitudeDegrees>
            </Position>
            <AltitudeMeters>292.79998779296875</AltitudeMeters>
            <DistanceMeters>319292.32487233</DistanceMeters>
          </Trackpoint>
          <Trackpoint>
            <Time>2018-09-14T15:32:31.000Z</Time>
            <Position>
              <LatitudeDegrees>37.5116625241935253143310546875</LatitudeDegrees>
              <LongitudeDegrees>-8.06360836140811443328857421875</LongitudeDegrees>
            </Position>
            <AltitudeMeters>292.79998779296875</AltitudeMeters>
            <DistanceMeters>319297.41124323</DistanceMeters>
          </Trackpoint>
          <Trackpoint>
            <Time>2018-09-14T15:32:32.000Z</Time>
            <Position>
              <LatitudeDegrees>37.5116611830890178680419921875</LatitudeDegrees>
              <LongitudeDegrees>-8.06366636417806148529052734375</LongitudeDegrees>
            </Position>
            <AltitudeMeters>292.600006103515625</AltitudeMeters>
            <DistanceMeters>319302.53387948</DistanceMeters>
          </Trackpoint>
          <Trackpoint>
            <Time>2018-09-14T15:32:33.000Z</Time>
            <Position>
              <LatitudeDegrees>37.51165959052741527557373046875</LatitudeDegrees>
              <LongitudeDegrees>-8.06372503750026226043701171875</LongitudeDegrees>
            </Position>
            <AltitudeMeters>292.600006103515625</AltitudeMeters>
            <DistanceMeters>319307.71697483</DistanceMeters>
          </Trackpoint>
          <Trackpoint>
            <Time>2018-09-14T15:32:34.000Z</Time>
            <Position>
              <LatitudeDegrees>37.51165791414678096771240234375</LatitudeDegrees>
              <LongitudeDegrees>-8.0637832917273044586181640625</LongitudeDegrees>
            </Position>
            <AltitudeMeters>292.600006103515625</AltitudeMeters>
            <DistanceMeters>319312.86423083</DistanceMeters>
          </Trackpoint>
          <Trackpoint>
            <Time>2018-09-14T15:32:35.000Z</Time>
            <Position>
              <LatitudeDegrees>37.511656992137432098388671875</LatitudeDegrees>
              <LongitudeDegrees>-8.06384238414466381072998046875</LongitudeDegrees>
            </Position>
            <AltitudeMeters>292.399993896484375</AltitudeMeters>
            <DistanceMeters>319318.08291942</DistanceMeters>
          </Trackpoint>
          <Trackpoint>
            <Time>2018-09-14T15:32:36.000Z</Time>
            <Position>
              <LatitudeDegrees>37.511657662689685821533203125</LatitudeDegrees>
              <LongitudeDegrees>-8.06390105746686458587646484375</LongitudeDegrees>
            </Position>
            <AltitudeMeters>292.399993896484375</AltitudeMeters>
            <DistanceMeters>319323.26427226</DistanceMeters>
          </Trackpoint>
          <Trackpoint>
            <Time>2018-09-14T15:32:37.000Z</Time>
            <Position>
              <LatitudeDegrees>37.51165942288935184478759765625</LatitudeDegrees>
              <LongitudeDegrees>-8.06396014988422393798828125</LongitudeDegrees>
            </Position>
            <AltitudeMeters>292.399993896484375</AltitudeMeters>
            <DistanceMeters>319328.48469089</DistanceMeters>
          </Trackpoint>
          <Trackpoint>
            <Time>2018-09-14T15:32:38.000Z</Time>
            <Position>
              <LatitudeDegrees>37.51165858469903469085693359375</LatitudeDegrees>
              <LongitudeDegrees>-8.06402049958705902099609375</LongitudeDegrees>
            </Position>
            <AltitudeMeters>292.20001220703125</AltitudeMeters>
            <DistanceMeters>319333.8138175</DistanceMeters>
          </Trackpoint>
          <Trackpoint>
            <Time>2018-09-14T15:32:39.000Z</Time>
            <Position>
              <LatitudeDegrees>37.511656321585178375244140625</LatitudeDegrees>
              <LongitudeDegrees>-8.0640806816518306732177734375</LongitudeDegrees>
            </Position>
            <AltitudeMeters>292.20001220703125</AltitudeMeters>
            <DistanceMeters>319339.13361633</DistanceMeters>
          </Trackpoint>
          <Trackpoint>
            <Time>2018-09-14T15:32:40.000Z</Time>
            <Position>
              <LatitudeDegrees>37.51165506429970264434814453125</LatitudeDegrees>
              <LongitudeDegrees>-8.06414094753563404083251953125</LongitudeDegrees>
            </Position>
            <AltitudeMeters>292</AltitudeMeters>
            <DistanceMeters>319344.45596072</DistanceMeters>
          </Trackpoint>
          <Trackpoint>
            <Time>2018-09-14T15:32:41.000Z</Time>
            <Position>
              <LatitudeDegrees>37.5116546452045440673828125</LatitudeDegrees>
              <LongitudeDegrees>-8.06420062668621540069580078125</LongitudeDegrees>
            </Position>
            <AltitudeMeters>292</AltitudeMeters>
            <DistanceMeters>319349.72459005</DistanceMeters>
          </Trackpoint>
          <Trackpoint>
            <Time>2018-09-14T15:32:42.000Z</Time>
            <Position>
              <LatitudeDegrees>37.5116538070142269134521484375</LatitudeDegrees>
              <LongitudeDegrees>-8.064259551465511322021484375</LongitudeDegrees>
            </Position>
            <AltitudeMeters>292</AltitudeMeters>
            <DistanceMeters>319354.92768232</DistanceMeters>
          </Trackpoint>
          <Trackpoint>
            <Time>2018-09-14T15:32:43.000Z</Time>
            <Position>
              <LatitudeDegrees>37.51165171153843402862548828125</LatitudeDegrees>
              <LongitudeDegrees>-8.064318560063838958740234375</LongitudeDegrees>
            </Position>
            <AltitudeMeters>292</AltitudeMeters>
            <DistanceMeters>319360.14290908</DistanceMeters>
          </Trackpoint>
          <Trackpoint>
            <Time>2018-09-14T15:32:44.000Z</Time>
            <Position>
              <LatitudeDegrees>37.51165053807199001312255859375</LatitudeDegrees>
              <LongitudeDegrees>-8.06437790393829345703125</LongitudeDegrees>
            </Position>
            <AltitudeMeters>291.79998779296875</AltitudeMeters>
            <DistanceMeters>319365.38404375</DistanceMeters>
          </Trackpoint>
          <Trackpoint>
            <Time>2018-09-14T15:32:45.000Z</Time>
            <Position>
              <LatitudeDegrees>37.5116507895290851593017578125</LatitudeDegrees>
              <LongitudeDegrees>-8.06443716399371623992919921875</LongitudeDegrees>
            </Position>
            <AltitudeMeters>291.79998779296875</AltitudeMeters>
            <DistanceMeters>319370.6165567</DistanceMeters>
          </Trackpoint>
          <Trackpoint>
            <Time>2018-09-14T15:32:46.000Z</Time>
            <Position>
              <LatitudeDegrees>37.5116497837007045745849609375</LatitudeDegrees>
              <LongitudeDegrees>-8.06449600495398044586181640625</LongitudeDegrees>
            </Position>
            <AltitudeMeters>291.600006103515625</AltitudeMeters>
            <DistanceMeters>319375.81270225</DistanceMeters>
          </Trackpoint>
          <Trackpoint>
            <Time>2018-09-14T15:32:47.000Z</Time>
            <Position>
              <LatitudeDegrees>37.5116464309394359588623046875</LatitudeDegrees>
              <LongitudeDegrees>-8.06455534882843494415283203125</LongitudeDegrees>
            </Position>
            <AltitudeMeters>291.600006103515625</AltitudeMeters>
            <DistanceMeters>319381.06502397</DistanceMeters>
          </Trackpoint>
          <Trackpoint>
            <Time>2018-09-14T15:32:48.000Z</Time>
            <Position>
              <LatitudeDegrees>37.51164299435913562774658203125</LatitudeDegrees>
              <LongitudeDegrees>-8.0646144412457942962646484375</LongitudeDegrees>
            </Position>
            <AltitudeMeters>291.600006103515625</AltitudeMeters>
            <DistanceMeters>319386.29581088</DistanceMeters>
          </Trackpoint>
          <Trackpoint>
            <Time>2018-09-14T15:32:49.000Z</Time>
            <Position>
              <LatitudeDegrees>37.51164190471172332763671875</LatitudeDegrees>
              <LongitudeDegrees>-8.06467319838702678680419921875</LongitudeDegrees>
            </Position>
            <AltitudeMeters>291.399993896484375</AltitudeMeters>
            <DistanceMeters>319391.48500041</DistanceMeters>
          </Trackpoint>
          <Trackpoint>
            <Time>2018-09-14T15:32:50.000Z</Time>
            <Position>
              <LatitudeDegrees>37.51164257526397705078125</LatitudeDegrees>
              <LongitudeDegrees>-8.06473203934729099273681640625</LongitudeDegrees>
            </Position>
            <AltitudeMeters>291.399993896484375</AltitudeMeters>
            <DistanceMeters>319396.68114595</DistanceMeters>
          </Trackpoint>
          <Trackpoint>
            <Time>2018-09-14T15:32:51.000Z</Time>
            <Position>
              <LatitudeDegrees>37.51164232380688190460205078125</LatitudeDegrees>
              <LongitudeDegrees>-8.06479297578334808349609375</LongitudeDegrees>
            </Position>
            <AltitudeMeters>291.399993896484375</AltitudeMeters>
            <DistanceMeters>319402.06086667</DistanceMeters>
          </Trackpoint>
          <Trackpoint>
            <Time>2018-09-14T15:32:52.000Z</Time>
            <Position>
              <LatitudeDegrees>37.51164014451205730438232421875</LatitudeDegrees>
              <LongitudeDegrees>-8.06485592387616634368896484375</LongitudeDegrees>
            </Position>
            <AltitudeMeters>291.20001220703125</AltitudeMeters>
            <DistanceMeters>319407.62459762</DistanceMeters>
          </Trackpoint>
          <Trackpoint>
            <Time>2018-09-14T15:32:53.000Z</Time>
            <Position>
              <LatitudeDegrees>37.51163762994110584259033203125</LatitudeDegrees>
              <LongitudeDegrees>-8.064920715987682342529296875</LongitudeDegrees>
            </Position>
            <AltitudeMeters>291.20001220703125</AltitudeMeters>
            <DistanceMeters>319413.35227321</DistanceMeters>
          </Trackpoint>
          <Trackpoint>
            <Time>2018-09-14T15:32:54.000Z</Time>
            <Position>
              <LatitudeDegrees>37.51163478009402751922607421875</LatitudeDegrees>
              <LongitudeDegrees>-8.06498609483242034912109375</LongitudeDegrees>
            </Position>
            <AltitudeMeters>291</AltitudeMeters>
            <DistanceMeters>319419.13408461</DistanceMeters>
          </Trackpoint>
          <Trackpoint>
            <Time>2018-09-14T15:32:55.000Z</Time>
            <Position>
              <LatitudeDegrees>37.5116306729614734649658203125</LatitudeDegrees>
              <LongitudeDegrees>-8.065052814781665802001953125</LongitudeDegrees>
            </Position>
            <AltitudeMeters>291</AltitudeMeters>
            <DistanceMeters>319425.04257642</DistanceMeters>
          </Trackpoint>
          <Trackpoint>
            <Time>2018-09-14T15:32:56.000Z</Time>
            <Position>
              <LatitudeDegrees>37.51162455417215824127197265625</LatitudeDegrees>
              <LongitudeDegrees>-8.065119199454784393310546875</LongitudeDegrees>
            </Position>
            <AltitudeMeters>291</AltitudeMeters>
            <DistanceMeters>319430.94342168</DistanceMeters>
          </Trackpoint>
          <Trackpoint>
            <Time>2018-09-14T15:32:57.000Z</Time>
            <Position>
              <LatitudeDegrees>37.51161717809736728668212890625</LatitudeDegrees>
              <LongitudeDegrees>-8.06518466211855411529541015625</LongitudeDegrees>
            </Position>
            <AltitudeMeters>290.79998779296875</AltitudeMeters>
            <DistanceMeters>319436.78041392</DistanceMeters>
          </Trackpoint>
          <Trackpoint>
            <Time>2018-09-14T15:32:58.000Z</Time>
            <Position>
              <LatitudeDegrees>37.51161198131740093231201171875</LatitudeDegrees>
              <LongitudeDegrees>-8.0652491189539432525634765625</LongitudeDegrees>
            </Position>
            <AltitudeMeters>290.79998779296875</AltitudeMeters>
            <DistanceMeters>319442.50099056</DistanceMeters>
          </Trackpoint>
          <Trackpoint>
            <Time>2018-09-14T15:32:59.000Z</Time>
            <Position>
              <LatitudeDegrees>37.5116135738790035247802734375</LatitudeDegrees>
              <LongitudeDegrees>-8.0653118155896663665771484375</LongitudeDegrees>
            </Position>
            <AltitudeMeters>290.79998779296875</AltitudeMeters>
            <DistanceMeters>319448.03869221</DistanceMeters>
          </Trackpoint>
          <Trackpoint>
            <Time>2018-09-14T15:33:00.000Z</Time>
            <Position>
              <LatitudeDegrees>37.51161650754511356353759765625</LatitudeDegrees>
              <LongitudeDegrees>-8.06537593714892864227294921875</LongitudeDegrees>
            </Position>
            <AltitudeMeters>290.79998779296875</AltitudeMeters>
            <DistanceMeters>319453.70932729</DistanceMeters>
          </Trackpoint>
          <Trackpoint>
            <Time>2018-09-14T15:33:01.000Z</Time>
            <Position>
              <LatitudeDegrees>37.511610724031925201416015625</LatitudeDegrees>
              <LongitudeDegrees>-8.06543846614658832550048828125</LongitudeDegrees>
            </Position>
            <AltitudeMeters>290.79998779296875</AltitudeMeters>
            <DistanceMeters>319459.26818703</DistanceMeters>
          </Trackpoint>
          <Trackpoint>
            <Time>2018-09-14T15:33:02.000Z</Time>
            <Position>
              <LatitudeDegrees>37.51158935017883777618408203125</LatitudeDegrees>
              <LongitudeDegrees>-8.06549437344074249267578125</LongitudeDegrees>
            </Position>
            <AltitudeMeters>290.79998779296875</AltitudeMeters>
            <DistanceMeters>319464.74687064</DistanceMeters>
          </Trackpoint>
          <Trackpoint>
            <Time>2018-09-14T15:33:03.000Z</Time>
            <Position>
              <LatitudeDegrees>37.51155733130872249603271484375</LatitudeDegrees>
              <LongitudeDegrees>-8.0655384622514247894287109375</LongitudeDegrees>
            </Position>
            <AltitudeMeters>290.79998779296875</AltitudeMeters>
            <DistanceMeters>319470.02406267</DistanceMeters>
          </Trackpoint>
          <Trackpoint>
            <Time>2018-09-14T15:33:04.000Z</Time>
            <Position>
              <LatitudeDegrees>37.51152464188635349273681640625</LatitudeDegrees>
              <LongitudeDegrees>-8.06557659991085529327392578125</LongitudeDegrees>
            </Position>
            <AltitudeMeters>290.600006103515625</AltitudeMeters>
            <DistanceMeters>319474.98187147</DistanceMeters>
          </Trackpoint>
          <Trackpoint>
            <Time>2018-09-14T15:33:05.000Z</Time>
            <Position>
              <LatitudeDegrees>37.5114925391972064971923828125</LatitudeDegrees>
              <LongitudeDegrees>-8.0656155757606029510498046875</LongitudeDegrees>
            </Position>
            <AltitudeMeters>290.600006103515625</AltitudeMeters>
            <DistanceMeters>319479.94150132</DistanceMeters>
          </Trackpoint>
          <Trackpoint>
            <Time>2018-09-14T15:33:06.000Z</Time>
            <Position>
              <LatitudeDegrees>37.511465214192867279052734375</LatitudeDegrees>
              <LongitudeDegrees>-8.06565958075225353240966796875</LongitudeDegrees>
            </Position>
            <AltitudeMeters>290.600006103515625</AltitudeMeters>
            <DistanceMeters>319484.87557531</DistanceMeters>
          </Trackpoint>
          <Trackpoint>
            <Time>2018-09-14T15:33:07.000Z</Time>
            <Position>
              <LatitudeDegrees>37.5114439241588115692138671875</LatitudeDegrees>
              <LongitudeDegrees>-8.06570886634290218353271484375</LongitudeDegrees>
            </Position>
            <AltitudeMeters>290.399993896484375</AltitudeMeters>
            <DistanceMeters>319489.83156239</DistanceMeters>
          </Trackpoint>
          <Trackpoint>
            <Time>2018-09-14T15:33:08.000Z</Time>
            <Position>
              <LatitudeDegrees>37.51142598688602447509765625</LatitudeDegrees>
              <LongitudeDegrees>-8.06575991213321685791015625</LongitudeDegrees>
            </Position>
            <AltitudeMeters>290.399993896484375</AltitudeMeters>
            <DistanceMeters>319494.76014287</DistanceMeters>
          </Trackpoint>
          <Trackpoint>
            <Time>2018-09-14T15:33:09.000Z</Time>
            <Position>
              <LatitudeDegrees>37.51140846870839595794677734375</LatitudeDegrees>
              <LongitudeDegrees>-8.0658103711903095245361328125</LongitudeDegrees>
            </Position>
            <AltitudeMeters>290.399993896484375</AltitudeMeters>
            <DistanceMeters>319499.6223173</DistanceMeters>
          </Trackpoint>
          <Trackpoint>
            <Time>2018-09-14T15:33:10.000Z</Time>
            <Position>
              <LatitudeDegrees>37.51139271073043346405029296875</LatitudeDegrees>
              <LongitudeDegrees>-8.065860159695148468017578125</LongitudeDegrees>
            </Position>
            <AltitudeMeters>290.399993896484375</AltitudeMeters>
            <DistanceMeters>319504.35460951</DistanceMeters>
          </Trackpoint>
          <Trackpoint>
            <Time>2018-09-14T15:33:11.000Z</Time>
            <Position>
              <LatitudeDegrees>37.511379383504390716552734375</LatitudeDegrees>
              <LongitudeDegrees>-8.06590877473354339599609375</LongitudeDegrees>
            </Position>
            <AltitudeMeters>290.399993896484375</AltitudeMeters>
            <DistanceMeters>319508.89605142</DistanceMeters>
          </Trackpoint>
          <Trackpoint>
            <Time>2018-09-14T15:33:12.000Z</Time>
            <Position>
              <LatitudeDegrees>37.511367313563823699951171875</LatitudeDegrees>
              <LongitudeDegrees>-8.065956719219684600830078125</LongitudeDegrees>
            </Position>
            <AltitudeMeters>290.399993896484375</AltitudeMeters>
            <DistanceMeters>319513.33696202</DistanceMeters>
          </Trackpoint>
          <Trackpoint>
            <Time>2018-09-14T15:33:13.000Z</Time>
            <Position>
              <LatitudeDegrees>37.5113580934703350067138671875</LatitudeDegrees>
              <LongitudeDegrees>-8.0660048313438892364501953125</LongitudeDegrees>
            </Position>
            <AltitudeMeters>290.399993896484375</AltitudeMeters>
            <DistanceMeters>319517.70819088</DistanceMeters>
          </Trackpoint>
          <Trackpoint>
            <Time>2018-09-14T15:33:14.000Z</Time>
            <Position>
              <LatitudeDegrees>37.511351220309734344482421875</LatitudeDegrees>
              <LongitudeDegrees>-8.06605361402034759521484375</LongitudeDegrees>
            </Position>
            <AltitudeMeters>290.399993896484375</AltitudeMeters>
            <DistanceMeters>319522.08251734</DistanceMeters>
          </Trackpoint>
          <Trackpoint>
            <Time>2018-09-14T15:33:15.000Z</Time>
            <Position>
              <LatitudeDegrees>37.51134359277784824371337890625</LatitudeDegrees>
              <LongitudeDegrees>-8.06610323488712310791015625</LongitudeDegrees>
            </Position>
            <AltitudeMeters>290.399993896484375</AltitudeMeters>
            <DistanceMeters>319526.54472739</DistanceMeters>
          </Trackpoint>
          <Trackpoint>
            <Time>2018-09-14T15:33:16.000Z</Time>
            <Position>
              <LatitudeDegrees>37.51133420504629611968994140625</LatitudeDegrees>
              <LongitudeDegrees>-8.06615260429680347442626953125</LongitudeDegrees>
            </Position>
            <AltitudeMeters>290.399993896484375</AltitudeMeters>
            <DistanceMeters>319531.02712854</DistanceMeters>
          </Trackpoint>
          <Trackpoint>
            <Time>2018-09-14T15:33:17.000Z</Time>
            <Position>
              <LatitudeDegrees>37.51132582314312458038330078125</LatitudeDegrees>
              <LongitudeDegrees>-8.0662006326019763946533203125</LongitudeDegrees>
            </Position>
            <AltitudeMeters>290.600006103515625</AltitudeMeters>
            <DistanceMeters>319535.36829999</DistanceMeters>
          </Trackpoint>
          <Trackpoint>
            <Time>2018-09-14T15:33:18.000Z</Time>
            <Position>
              <LatitudeDegrees>37.5113193690776824951171875</LatitudeDegrees>
              <LongitudeDegrees>-8.06624849326908588409423828125</LongitudeDegrees>
            </Position>
            <AltitudeMeters>290.600006103515625</AltitudeMeters>
            <DistanceMeters>319539.65399427</DistanceMeters>
          </Trackpoint>
          <Trackpoint>
            <Time>2018-09-14T15:33:19.000Z</Time>
            <Position>
              <LatitudeDegrees>37.5113141722977161407470703125</LatitudeDegrees>
              <LongitudeDegrees>-8.0662958510220050811767578125</LongitudeDegrees>
            </Position>
            <AltitudeMeters>290.600006103515625</AltitudeMeters>
            <DistanceMeters>319543.87600457</DistanceMeters>
          </Trackpoint>
          <Trackpoint>
            <Time>2018-09-14T15:33:20.000Z</Time>
            <Position>
              <LatitudeDegrees>37.51131006516516208648681640625</LatitudeDegrees>
              <LongitudeDegrees>-8.06634203530848026275634765625</LongitudeDegrees>
            </Position>
            <AltitudeMeters>290.600006103515625</AltitudeMeters>
            <DistanceMeters>319547.97869423</DistanceMeters>
          </Trackpoint>
          <Trackpoint>
            <Time>2018-09-14T15:33:21.000Z</Time>
            <Position>
              <LatitudeDegrees>37.5113113224506378173828125</LatitudeDegrees>
              <LongitudeDegrees>-8.0663863755762577056884765625</LongitudeDegrees>
            </Position>
            <AltitudeMeters>290.399993896484375</AltitudeMeters>
            <DistanceMeters>319551.89674604</DistanceMeters>
          </Trackpoint>
          <Trackpoint>
            <Time>2018-09-14T15:33:22.000Z</Time>
            <Position>
              <LatitudeDegrees>37.51132112927734851837158203125</LatitudeDegrees>
              <LongitudeDegrees>-8.06642719544470310211181640625</LongitudeDegrees>
            </Position>
            <AltitudeMeters>290.399993896484375</AltitudeMeters>
            <DistanceMeters>319555.66201097</DistanceMeters>
          </Trackpoint>
          <Trackpoint>
            <Time>2018-09-14T15:33:23.000Z</Time>
            <Position>
              <LatitudeDegrees>37.51133806072175502777099609375</LatitudeDegrees>
              <LongitudeDegrees>-8.0664621479809284210205078125</LongitudeDegrees>
            </Position>
            <AltitudeMeters>290.399993896484375</AltitudeMeters>
            <DistanceMeters>319559.27802406</DistanceMeters>
          </Trackpoint>
          <Trackpoint>
            <Time>2018-09-14T15:33:24.000Z</Time>
            <Position>
              <LatitudeDegrees>37.511357925832271575927734375</LatitudeDegrees>
              <LongitudeDegrees>-8.06649274192750453948974609375</LongitudeDegrees>
            </Position>
            <AltitudeMeters>290.399993896484375</AltitudeMeters>
            <DistanceMeters>319562.76823511</DistanceMeters>
          </Trackpoint>
          <Trackpoint>
            <Time>2018-09-14T15:33:25.000Z</Time>
            <Position>
              <LatitudeDegrees>37.5113761983811855316162109375</LatitudeDegrees>
              <LongitudeDegrees>-8.06652241386473178863525390625</LongitudeDegrees>
            </Position>
            <AltitudeMeters>290.20001220703125</AltitudeMeters>
            <DistanceMeters>319566.08601496</DistanceMeters>
          </Trackpoint>
          <Trackpoint>
            <Time>2018-09-14T15:33:26.000Z</Time>
            <Position>
              <LatitudeDegrees>37.51139086671173572540283203125</LatitudeDegrees>
              <LongitudeDegrees>-8.0665533430874347686767578125</LongitudeDegrees>
            </Position>
            <AltitudeMeters>290.20001220703125</AltitudeMeters>
            <DistanceMeters>319569.2690553</DistanceMeters>
          </Trackpoint>
          <Trackpoint>
            <Time>2018-09-14T15:33:27.000Z</Time>
            <Position>
              <LatitudeDegrees>37.5114020146429538726806640625</LatitudeDegrees>
              <LongitudeDegrees>-8.066585026681423187255859375</LongitudeDegrees>
            </Position>
            <AltitudeMeters>290.20001220703125</AltitudeMeters>
            <DistanceMeters>319572.32915158</DistanceMeters>
          </Trackpoint>
          <Trackpoint>
            <Time>2018-09-14T15:33:28.000Z</Time>
            <Position>
              <LatitudeDegrees>37.51141198910772800445556640625</LatitudeDegrees>
              <LongitudeDegrees>-8.0666163749992847442626953125</LongitudeDegrees>
            </Position>
            <AltitudeMeters>290.20001220703125</AltitudeMeters>
            <DistanceMeters>319575.31305094</DistanceMeters>
          </Trackpoint>
          <Trackpoint>
            <Time>2018-09-14T15:33:29.000Z</Time>
            <Position>
              <LatitudeDegrees>37.51142405904829502105712890625</LatitudeDegrees>
              <LongitudeDegrees>-8.06664613075554370880126953125</LongitudeDegrees>
            </Position>
            <AltitudeMeters>290.20001220703125</AltitudeMeters>
            <DistanceMeters>319578.26347357</DistanceMeters>
          </Trackpoint>
          <Trackpoint>
            <Time>2018-09-14T15:33:30.000Z</Time>
            <Position>
              <LatitudeDegrees>37.5114362128078937530517578125</LatitudeDegrees>
              <LongitudeDegrees>-8.066674210131168365478515625</LongitudeDegrees>
            </Position>
            <AltitudeMeters>290.20001220703125</AltitudeMeters>
            <DistanceMeters>319581.08882091</DistanceMeters>
          </Trackpoint>
          <Trackpoint>
            <Time>2018-09-14T15:33:31.000Z</Time>
            <Position>
              <LatitudeDegrees>37.51144744455814361572265625</LatitudeDegrees>
              <LongitudeDegrees>-8.066703043878078460693359375</LongitudeDegrees>
            </Position>
            <AltitudeMeters>290</AltitudeMeters>
            <DistanceMeters>319583.92692383</DistanceMeters>
          </Trackpoint>
          <Trackpoint>
            <Time>2018-09-14T15:33:32.000Z</Time>
            <Position>
              <LatitudeDegrees>37.511457167565822601318359375</LatitudeDegrees>
              <LongitudeDegrees>-8.0667323805391788482666015625</LongitudeDegrees>
            </Position>
            <AltitudeMeters>290</AltitudeMeters>
            <DistanceMeters>319586.73463762</DistanceMeters>
          </Trackpoint>
          <Trackpoint>
            <Time>2018-09-15T06:43:49.000Z</Time>
            <Position>
              <LatitudeDegrees>37.51135264523327350616455078125</LatitudeDegrees>
              <LongitudeDegrees>-8.0655733309686183929443359375</LongitudeDegrees>
            </Position>
            <AltitudeMeters>290.20001220703125</AltitudeMeters>
            <DistanceMeters>319689.72435217</DistanceMeters>
          </Trackpoint>
          <Trackpoint>
            <Time>2018-09-15T06:43:52.000Z</Time>
            <Position>
              <LatitudeDegrees>37.5114050321280956268310546875</LatitudeDegrees>
              <LongitudeDegrees>-8.0654449202120304107666015625</LongitudeDegrees>
            </Position>
            <AltitudeMeters>290.399993896484375</AltitudeMeters>
            <DistanceMeters>319702.47352375</DistanceMeters>
          </Trackpoint>
          <Trackpoint>
            <Time>2018-09-15T06:43:54.000Z</Time>
            <Position>
              <LatitudeDegrees>37.51142657361924648284912109375</LatitudeDegrees>
              <LongitudeDegrees>-8.06537526659667491912841796875</LongitudeDegrees>
            </Position>
            <AltitudeMeters>290.399993896484375</AltitudeMeters>
            <DistanceMeters>319709.07497426</DistanceMeters>
          </Trackpoint>
          <Trackpoint>
            <Time>2018-09-15T06:44:02.000Z</Time>
            <Position>
              <LatitudeDegrees>37.51150569878518581390380859375</LatitudeDegrees>
              <LongitudeDegrees>-8.06510771624743938446044921875</LongitudeDegrees>
            </Position>
            <AltitudeMeters>290.79998779296875</AltitudeMeters>
            <DistanceMeters>319734.28482909</DistanceMeters>
          </Trackpoint>
          <Trackpoint>
            <Time>2018-09-15T06:44:18.000Z</Time>
            <Position>
              <LatitudeDegrees>37.51153729856014251708984375</LatitudeDegrees>
              <LongitudeDegrees>-8.064458705484867095947265625</LongitudeDegrees>
            </Position>
            <AltitudeMeters>291.600006103515625</AltitudeMeters>
            <DistanceMeters>319791.69268438</DistanceMeters>
          </Trackpoint>
          <Trackpoint>
            <Time>2018-09-15T06:44:20.000Z</Time>
            <Position>
              <LatitudeDegrees>37.5115394778549671173095703125</LatitudeDegrees>
              <LongitudeDegrees>-8.06437379680573940277099609375</LongitudeDegrees>
            </Position>
            <AltitudeMeters>291.600006103515625</AltitudeMeters>
            <DistanceMeters>319799.19317611</DistanceMeters>
          </Trackpoint>
          <Trackpoint>
            <Time>2018-09-15T06:44:29.000Z</Time>
            <Position>
              <LatitudeDegrees>37.5115508772432804107666015625</LatitudeDegrees>
              <LongitudeDegrees>-8.0639824457466602325439453125</LongitudeDegrees>
            </Position>
            <AltitudeMeters>292</AltitudeMeters>
            <DistanceMeters>319833.76801638</DistanceMeters>
          </Trackpoint>
          <Trackpoint>
            <Time>2018-09-15T06:44:32.000Z</Time>
            <Position>
              <LatitudeDegrees>37.51155548729002475738525390625</LatitudeDegrees>
              <LongitudeDegrees>-8.06385881267488002777099609375</LongitudeDegrees>
            </Position>
            <AltitudeMeters>292</AltitudeMeters>
            <DistanceMeters>319844.69567537</DistanceMeters>
          </Trackpoint>
          <Trackpoint>
            <Time>2018-09-15T06:44:38.000Z</Time>
            <Position>
              <LatitudeDegrees>37.511560432612895965576171875</LatitudeDegrees>
              <LongitudeDegrees>-8.06360802613198757171630859375</LongitudeDegrees>
            </Position>
            <AltitudeMeters>292.399993896484375</AltitudeMeters>
            <DistanceMeters>319866.84403587</DistanceMeters>
          </Trackpoint>
          <Trackpoint>
            <Time>2018-09-15T06:44:45.000Z</Time>
            <Position>
              <LatitudeDegrees>37.511569820344448089599609375</LatitudeDegrees>
              <LongitudeDegrees>-8.06332069449126720428466796875</LongitudeDegrees>
            </Position>
            <AltitudeMeters>293.20001220703125</AltitudeMeters>
            <DistanceMeters>319892.23342414</DistanceMeters>
          </Trackpoint>
          <Trackpoint>
            <Time>2018-09-15T06:45:01.000Z</Time>
            <Position>
              <LatitudeDegrees>37.5115669704973697662353515625</LatitudeDegrees>
              <LongitudeDegrees>-8.06271417997777462005615234375</LongitudeDegrees>
            </Position>
            <AltitudeMeters>293.79998779296875</AltitudeMeters>
            <DistanceMeters>319945.78247432</DistanceMeters>
          </Trackpoint>
          <Trackpoint>
            <Time>2018-09-15T06:45:07.000Z</Time>
            <Position>
              <LatitudeDegrees>37.51149245537817478179931640625</LatitudeDegrees>
              <LongitudeDegrees>-8.06246506981551647186279296875</LongitudeDegrees>
            </Position>
            <AltitudeMeters>293.79998779296875</AltitudeMeters>
            <DistanceMeters>319969.28790406</DistanceMeters>
          </Trackpoint>
          <Trackpoint>
            <Time>2018-09-15T06:45:08.000Z</Time>
            <Position>
              <LatitudeDegrees>37.51147116534411907196044921875</LatitudeDegrees>
              <LongitudeDegrees>-8.062418885529041290283203125</LongitudeDegrees>
            </Position>
            <AltitudeMeters>293.79998779296875</AltitudeMeters>
            <DistanceMeters>319974.00394883</DistanceMeters>
          </Trackpoint>
          <Trackpoint>
            <Time>2018-09-15T06:45:11.000Z</Time>
            <Position>
              <LatitudeDegrees>37.511398158967494964599609375</LatitudeDegrees>
              <LongitudeDegrees>-8.06226122193038463592529296875</LongitudeDegrees>
            </Position>
            <AltitudeMeters>293.79998779296875</AltitudeMeters>
            <DistanceMeters>319990.12211558</DistanceMeters>
          </Trackpoint>
          <Trackpoint>
            <Time>2018-09-15T06:45:17.000Z</Time>
            <Position>
              <LatitudeDegrees>37.5112402439117431640625</LatitudeDegrees>
              <LongitudeDegrees>-8.06191898882389068603515625</LongitudeDegrees>
            </Position>
            <AltitudeMeters>292.399993896484375</AltitudeMeters>
            <DistanceMeters>320025.07774122</DistanceMeters>
          </Trackpoint>
          <Trackpoint>
            <Time>2018-09-15T06:45:23.000Z</Time>
            <Position>
              <LatitudeDegrees>37.51110772602260112762451171875</LatitudeDegrees>
              <LongitudeDegrees>-8.0616863071918487548828125</LongitudeDegrees>
            </Position>
            <AltitudeMeters>290.79998779296875</AltitudeMeters>
            <DistanceMeters>320050.3675262</DistanceMeters>
          </Trackpoint>
          <Trackpoint>
            <Time>2018-09-15T06:45:25.000Z</Time>
            <Position>
              <LatitudeDegrees>37.5110556744039058685302734375</LatitudeDegrees>
              <LongitudeDegrees>-8.0615924298763275146484375</LongitudeDegrees>
            </Position>
            <AltitudeMeters>290.20001220703125</AltitudeMeters>
            <DistanceMeters>320060.48017252</DistanceMeters>
          </Trackpoint>
          <Trackpoint>
            <Time>2018-09-15T06:45:28.000Z</Time>
            <Position>
              <LatitudeDegrees>37.5109799019992351531982421875</LatitudeDegrees>
              <LongitudeDegrees>-8.0614279769361019134521484375</LongitudeDegrees>
            </Position>
            <AltitudeMeters>289.20001220703125</AltitudeMeters>
            <DistanceMeters>320077.27115364</DistanceMeters>
          </Trackpoint>
          <Trackpoint>
            <Time>2018-09-15T06:45:31.000Z</Time>
            <Position>
              <LatitudeDegrees>37.51093874685466289520263671875</LatitudeDegrees>
              <LongitudeDegrees>-8.0612921901047229766845703125</LongitudeDegrees>
            </Position>
            <AltitudeMeters>288.600006103515625</AltitudeMeters>
            <DistanceMeters>320090.10503825</DistanceMeters>
          </Trackpoint>
          <Trackpoint>
            <Time>2018-09-15T06:45:36.000Z</Time>
            <Position>
              <LatitudeDegrees>37.5110114179551601409912109375</LatitudeDegrees>
              <LongitudeDegrees>-8.06111725978553295135498046875</LongitudeDegrees>
            </Position>
            <AltitudeMeters>288.79998779296875</AltitudeMeters>
            <DistanceMeters>320107.53926818</DistanceMeters>
          </Trackpoint>
          <Trackpoint>
            <Time>2018-09-15T06:45:38.000Z</Time>
            <Position>
              <LatitudeDegrees>37.5110630504786968231201171875</LatitudeDegrees>
              <LongitudeDegrees>-8.06106210686266422271728515625</LongitudeDegrees>
            </Position>
            <AltitudeMeters>289</AltitudeMeters>
            <DistanceMeters>320115.07099708</DistanceMeters>
          </Trackpoint>
          <Trackpoint>
            <Time>2018-09-15T06:45:41.000Z</Time>
            <Position>
              <LatitudeDegrees>37.51114008016884326934814453125</LatitudeDegrees>
              <LongitudeDegrees>-8.06097694672644138336181640625</LongitudeDegrees>
            </Position>
            <AltitudeMeters>289.399993896484375</AltitudeMeters>
            <DistanceMeters>320126.4742028</DistanceMeters>
          </Trackpoint>
          <Trackpoint>
            <Time>2018-09-15T06:45:44.000Z</Time>
            <Position>
              <LatitudeDegrees>37.5112112425267696380615234375</LatitudeDegrees>
              <LongitudeDegrees>-8.0608950555324554443359375</LongitudeDegrees>
            </Position>
            <AltitudeMeters>289.600006103515625</AltitudeMeters>
            <DistanceMeters>320137.19833697</DistanceMeters>
          </Trackpoint>
          <Trackpoint>
            <Time>2018-09-15T06:45:50.000Z</Time>
            <Position>
              <LatitudeDegrees>37.51135759055614471435546875</LatitudeDegrees>
              <LongitudeDegrees>-8.06074057705700397491455078125</LongitudeDegrees>
            </Position>
            <AltitudeMeters>290.399993896484375</AltitudeMeters>
            <DistanceMeters>320158.44291865</DistanceMeters>
          </Trackpoint>
          <Trackpoint>
            <Time>2018-09-15T06:45:53.000Z</Time>
            <Position>
              <LatitudeDegrees>37.5114320218563079833984375</LatitudeDegrees>
              <LongitudeDegrees>-8.060666061937808990478515625</LongitudeDegrees>
            </Position>
            <AltitudeMeters>290.600006103515625</AltitudeMeters>
            <DistanceMeters>320169.02165852</DistanceMeters>
          </Trackpoint>
          <Trackpoint>
            <Time>2018-09-15T06:45:58.000Z</Time>
            <Position>
              <LatitudeDegrees>37.5115287490189075469970703125</LatitudeDegrees>
              <LongitudeDegrees>-8.060553409159183502197265625</LongitudeDegrees>
            </Position>
            <AltitudeMeters>291</AltitudeMeters>
            <DistanceMeters>320183.67858585</DistanceMeters>
          </Trackpoint>
          <Trackpoint>
            <Time>2018-09-15T06:45:59.000Z</Time>
            <Position>
              <LatitudeDegrees>37.5115391425788402557373046875</LatitudeDegrees>
              <LongitudeDegrees>-8.06053304113447666168212890625</LongitudeDegrees>
            </Position>
            <AltitudeMeters>291.20001220703125</AltitudeMeters>
            <DistanceMeters>320185.81615893</DistanceMeters>
          </Trackpoint>
          <Trackpoint>
            <Time>2018-09-15T06:46:02.000Z</Time>
            <Position>
              <LatitudeDegrees>37.511521875858306884765625</LatitudeDegrees>
              <LongitudeDegrees>-8.06046028621494770050048828125</LongitudeDegrees>
            </Position>
            <AltitudeMeters>290.79998779296875</AltitudeMeters>
            <DistanceMeters>320192.52076336</DistanceMeters>
          </Trackpoint>
          <Trackpoint>
            <Time>2018-09-15T06:46:05.000Z</Time>
            <Position>
              <LatitudeDegrees>37.511523552238941192626953125</LatitudeDegrees>
              <LongitudeDegrees>-8.06035467423498630523681640625</LongitudeDegrees>
            </Position>
            <AltitudeMeters>290.600006103515625</AltitudeMeters>
            <DistanceMeters>320201.84694673</DistanceMeters>
          </Trackpoint>
          <Trackpoint>
            <Time>2018-09-15T06:46:06.000Z</Time>
            <Position>
              <LatitudeDegrees>37.5115310959517955780029296875</LatitudeDegrees>
              <LongitudeDegrees>-8.06031980551779270172119140625</LongitudeDegrees>
            </Position>
            <AltitudeMeters>290.600006103515625</AltitudeMeters>
            <DistanceMeters>320205.03848652</DistanceMeters>
          </Trackpoint>
          <Trackpoint>
            <Time>2018-09-15T06:46:10.000Z</Time>
            <Position>
              <LatitudeDegrees>37.5115937925875186920166015625</LatitudeDegrees>
              <LongitudeDegrees>-8.06018418632447719573974609375</LongitudeDegrees>
            </Position>
            <AltitudeMeters>290.600006103515625</AltitudeMeters>
            <DistanceMeters>320218.89675719</DistanceMeters>
          </Trackpoint>
          <Trackpoint>
            <Time>2018-09-15T06:46:16.000Z</Time>
            <Position>
              <LatitudeDegrees>37.511756233870983123779296875</LatitudeDegrees>
              <LongitudeDegrees>-8.0599363334476947784423828125</LongitudeDegrees>
            </Position>
            <AltitudeMeters>290.79998779296875</AltitudeMeters>
            <DistanceMeters>320247.28224046</DistanceMeters>
          </Trackpoint>
          <Trackpoint>
            <Time>2018-09-15T06:46:20.000Z</Time>
            <Position>
              <LatitudeDegrees>37.51191557385027408599853515625</LatitudeDegrees>
              <LongitudeDegrees>-8.059931136667728424072265625</LongitudeDegrees>
            </Position>
            <AltitudeMeters>290.79998779296875</AltitudeMeters>
            <DistanceMeters>320265.02299254</DistanceMeters>
          </Trackpoint>
          <Trackpoint>
            <Time>2018-09-15T06:46:23.000Z</Time>
            <Position>
              <LatitudeDegrees>37.51199956052005290985107421875</LatitudeDegrees>
              <LongitudeDegrees>-8.06000967510044574737548828125</LongitudeDegrees>
            </Position>
            <AltitudeMeters>290.600006103515625</AltitudeMeters>
            <DistanceMeters>320276.66211652</DistanceMeters>
          </Trackpoint>
          <Trackpoint>
            <Time>2018-09-15T06:46:28.000Z</Time>
            <Position>
              <LatitudeDegrees>37.51208715140819549560546875</LatitudeDegrees>
              <LongitudeDegrees>-8.060057200491428375244140625</LongitudeDegrees>
            </Position>
            <AltitudeMeters>290.399993896484375</AltitudeMeters>
            <DistanceMeters>320287.27622193</DistanceMeters>
          </Trackpoint>
          <Trackpoint>
            <Time>2018-09-15T06:46:31.000Z</Time>
            <Position>
              <LatitudeDegrees>37.51213249750435352325439453125</LatitudeDegrees>
              <LongitudeDegrees>-8.0600922368466854095458984375</LongitudeDegrees>
            </Position>
            <AltitudeMeters>290.399993896484375</AltitudeMeters>
            <DistanceMeters>320293.19540233</DistanceMeters>
          </Trackpoint>
          <Trackpoint>
            <Time>2018-09-15T06:46:34.000Z</Time>
            <Position>
              <LatitudeDegrees>37.51215294934809207916259765625</LatitudeDegrees>
              <LongitudeDegrees>-8.06011763401329517364501953125</LongitudeDegrees>
            </Position>
            <AltitudeMeters>290.399993896484375</AltitudeMeters>
            <DistanceMeters>320296.38977024</DistanceMeters>
          </Trackpoint>
          <Trackpoint>
            <Time>2018-09-15T06:46:40.000Z</Time>
            <Position>
              <LatitudeDegrees>37.5121642649173736572265625</LatitudeDegrees>
              <LongitudeDegrees>-8.06016658432781696319580078125</LongitudeDegrees>
            </Position>
            <AltitudeMeters>290.600006103515625</AltitudeMeters>
            <DistanceMeters>320300.89026593</DistanceMeters>
          </Trackpoint>
          <Trackpoint>
            <Time>2018-09-15T07:07:56.000Z</Time>
            <Position>
              <LatitudeDegrees>37.51212864182889461517333984375</LatitudeDegrees>
              <LongitudeDegrees>-8.05998151190578937530517578125</LongitudeDegrees>
            </Position>
            <AltitudeMeters>290.399993896484375</AltitudeMeters>
            <DistanceMeters>320317.70381919</DistanceMeters>
          </Trackpoint>
          <Trackpoint>
            <Time>2018-09-15T07:08:00.000Z</Time>
            <Position>
              <LatitudeDegrees>37.5121647678315639495849609375</LatitudeDegrees>
              <LongitudeDegrees>-8.0598461441695690155029296875</LongitudeDegrees>
            </Position>
            <AltitudeMeters>290.399993896484375</AltitudeMeters>
            <DistanceMeters>320330.31376035</DistanceMeters>
          </Trackpoint>
          <Trackpoint>
            <Time>2018-09-15T07:08:04.000Z</Time>
            <Position>
              <LatitudeDegrees>37.5121775083243846893310546875</LatitudeDegrees>
              <LongitudeDegrees>-8.05974237620830535888671875</LongitudeDegrees>
            </Position>
            <AltitudeMeters>290.399993896484375</AltitudeMeters>
            <DistanceMeters>320339.58458921</DistanceMeters>
          </Trackpoint>
          <Trackpoint>
            <Time>2018-09-15T07:08:09.000Z</Time>
            <Position>
              <LatitudeDegrees>37.5122170709073543548583984375</LatitudeDegrees>
              <LongitudeDegrees>-8.05960692465305328369140625</LongitudeDegrees>
            </Position>
            <AltitudeMeters>290.399993896484375</AltitudeMeters>
            <DistanceMeters>320352.32844752</DistanceMeters>
          </Trackpoint>
          <Trackpoint>
            <Time>2018-09-15T07:08:10.000Z</Time>
            <Position>
              <LatitudeDegrees>37.5122251175343990325927734375</LatitudeDegrees>
              <LongitudeDegrees>-8.05957733653485774993896484375</LongitudeDegrees>
            </Position>
            <AltitudeMeters>290.399993896484375</AltitudeMeters>
            <DistanceMeters>320355.09076803</DistanceMeters>
          </Trackpoint>
          <Trackpoint>
            <Time>2018-09-15T07:08:28.000Z</Time>
            <Position>
              <LatitudeDegrees>37.5123091042041778564453125</LatitudeDegrees>
              <LongitudeDegrees>-8.0589137412607669830322265625</LongitudeDegrees>
            </Position>
            <AltitudeMeters>289.399993896484375</AltitudeMeters>
            <DistanceMeters>320414.4188005</DistanceMeters>
          </Trackpoint>
          <Trackpoint>
            <Time>2018-09-15T07:08:31.000Z</Time>
            <Position>
              <LatitudeDegrees>37.51224012114107608795166015625</LatitudeDegrees>
              <LongitudeDegrees>-8.0588611029088497161865234375</LongitudeDegrees>
            </Position>
            <AltitudeMeters>289.399993896484375</AltitudeMeters>
            <DistanceMeters>320423.39366997</DistanceMeters>
          </Trackpoint>
          <Trackpoint>
            <Time>2018-09-15T07:08:32.000Z</Time>
            <Position>
              <LatitudeDegrees>37.5122090242803096771240234375</LatitudeDegrees>
              <LongitudeDegrees>-8.058846853673458099365234375</LongitudeDegrees>
            </Position>
            <AltitudeMeters>289.399993896484375</AltitudeMeters>
            <DistanceMeters>320427.07894268</DistanceMeters>
          </Trackpoint>
          <Trackpoint>
            <Time>2018-09-15T07:08:38.000Z</Time>
            <Position>
              <LatitudeDegrees>37.5119984708726406097412109375</LatitudeDegrees>
              <LongitudeDegrees>-8.05876563303172588348388671875</LongitudeDegrees>
            </Position>
            <AltitudeMeters>289.399993896484375</AltitudeMeters>
            <DistanceMeters>320451.58662524</DistanceMeters>
          </Trackpoint>
          <Trackpoint>
            <Time>2018-09-15T07:08:42.000Z</Time>
            <Position>
              <LatitudeDegrees>37.51184348948299884796142578125</LatitudeDegrees>
              <LongitudeDegrees>-8.05870243348181247711181640625</LongitudeDegrees>
            </Position>
            <AltitudeMeters>289.399993896484375</AltitudeMeters>
            <DistanceMeters>320469.71631781</DistanceMeters>
          </Trackpoint>
          <Trackpoint>
            <Time>2018-09-15T07:08:57.000Z</Time>
            <Position>
              <LatitudeDegrees>37.51131660304963588714599609375</LatitudeDegrees>
              <LongitudeDegrees>-8.0584785528481006622314453125</LongitudeDegrees>
            </Position>
            <AltitudeMeters>289</AltitudeMeters>
            <DistanceMeters>320531.60140309</DistanceMeters>
          </Trackpoint>
          <Trackpoint>
            <Time>2018-09-15T07:09:00.000Z</Time>
            <Position>
              <LatitudeDegrees>37.5112254917621612548828125</LatitudeDegrees>
              <LongitudeDegrees>-8.058422394096851348876953125</LongitudeDegrees>
            </Position>
            <AltitudeMeters>289</AltitudeMeters>
            <DistanceMeters>320542.89000083</DistanceMeters>
          </Trackpoint>
          <Trackpoint>
            <Time>2018-09-15T07:09:04.000Z</Time>
            <Position>
              <LatitudeDegrees>37.51109180040657520294189453125</LatitudeDegrees>
              <LongitudeDegrees>-8.058319799602031707763671875</LongitudeDegrees>
            </Position>
            <AltitudeMeters>288.20001220703125</AltitudeMeters>
            <DistanceMeters>320560.31024046</DistanceMeters>
          </Trackpoint>
          <Trackpoint>
            <Time>2018-09-15T07:09:09.000Z</Time>
            <Position>
              <LatitudeDegrees>37.51093137077987194061279296875</LatitudeDegrees>
              <LongitudeDegrees>-8.05808820761740207672119140625</LongitudeDegrees>
            </Position>
            <AltitudeMeters>287.20001220703125</AltitudeMeters>
            <DistanceMeters>320587.4562976</DistanceMeters>
          </Trackpoint>
          <Trackpoint>
            <Time>2018-09-15T07:09:12.000Z</Time>
            <Position>
              <LatitudeDegrees>37.51087387092411518096923828125</LatitudeDegrees>
              <LongitudeDegrees>-8.05786776356399059295654296875</LongitudeDegrees>
            </Position>
            <AltitudeMeters>286.20001220703125</AltitudeMeters>
            <DistanceMeters>320607.94463901</DistanceMeters>
          </Trackpoint>
          <Trackpoint>
            <Time>2018-09-15T07:09:13.000Z</Time>
            <Position>
              <LatitudeDegrees>37.51085995696485042572021484375</LatitudeDegrees>
              <LongitudeDegrees>-8.057782351970672607421875</LongitudeDegrees>
            </Position>
            <AltitudeMeters>285.79998779296875</AltitudeMeters>
            <DistanceMeters>320615.64297595</DistanceMeters>
          </Trackpoint>
          <Trackpoint>
            <Time>2018-09-15T07:09:16.000Z</Time>
            <Position>
              <LatitudeDegrees>37.51081955619156360626220703125</LatitudeDegrees>
              <LongitudeDegrees>-8.05751136504113674163818359375</LongitudeDegrees>
            </Position>
            <AltitudeMeters>284.600006103515625</AltitudeMeters>
            <DistanceMeters>320639.98706943</DistanceMeters>
          </Trackpoint>
          <Trackpoint>
            <Time>2018-09-15T07:09:20.000Z</Time>
            <Position>
              <LatitudeDegrees>37.510757781565189361572265625</LatitudeDegrees>
              <LongitudeDegrees>-8.057123534381389617919921875</LongitudeDegrees>
            </Position>
            <AltitudeMeters>282.600006103515625</AltitudeMeters>
            <DistanceMeters>320674.91168174</DistanceMeters>
          </Trackpoint>
          <Trackpoint>
            <Time>2018-09-15T07:09:22.000Z</Time>
            <Position>
              <LatitudeDegrees>37.510730288922786712646484375</LatitudeDegrees>
              <LongitudeDegrees>-8.0569302476942539215087890625</LongitudeDegrees>
            </Position>
            <AltitudeMeters>281.600006103515625</AltitudeMeters>
            <DistanceMeters>320692.24904471</DistanceMeters>
          </Trackpoint>
          <Trackpoint>
            <Time>2018-09-15T07:09:24.000Z</Time>
            <Position>
              <LatitudeDegrees>37.51070941798388957977294921875</LatitudeDegrees>
              <LongitudeDegrees>-8.05673821829259395599365234375</LongitudeDegrees>
            </Position>
            <AltitudeMeters>281</AltitudeMeters>
            <DistanceMeters>320709.36124267</DistanceMeters>
          </Trackpoint>
          <Trackpoint>
            <Time>2018-09-15T07:09:26.000Z</Time>
            <Position>
              <LatitudeDegrees>37.51069064252078533172607421875</LatitudeDegrees>
              <LongitudeDegrees>-8.05655197240412235260009765625</LongitudeDegrees>
            </Position>
            <AltitudeMeters>280.20001220703125</AltitudeMeters>
            <DistanceMeters>320725.93680015</DistanceMeters>
          </Trackpoint>
          <Trackpoint>
            <Time>2018-09-15T07:09:29.000Z</Time>
            <Position>
              <LatitudeDegrees>37.510659210383892059326171875</LatitudeDegrees>
              <LongitudeDegrees>-8.05627671070396900177001953125</LongitudeDegrees>
            </Position>
            <AltitudeMeters>279.20001220703125</AltitudeMeters>
            <DistanceMeters>320750.48994523</DistanceMeters>
          </Trackpoint>
          <Trackpoint>
            <Time>2018-09-15T07:09:34.000Z</Time>
            <Position>
              <LatitudeDegrees>37.5106100924313068389892578125</LatitudeDegrees>
              <LongitudeDegrees>-8.0558382533490657806396484375</LongitudeDegrees>
            </Position>
            <AltitudeMeters>278.20001220703125</AltitudeMeters>
            <DistanceMeters>320789.58521053</DistanceMeters>
          </Trackpoint>
          <Trackpoint>
            <Time>2018-09-15T07:09:40.000Z</Time>
            <Position>
              <LatitudeDegrees>37.51056499779224395751953125</LatitudeDegrees>
              <LongitudeDegrees>-8.05533885955810546875</LongitudeDegrees>
            </Position>
            <AltitudeMeters>278.600006103515625</AltitudeMeters>
            <DistanceMeters>320833.96115999</DistanceMeters>
          </Trackpoint>
          <Trackpoint>
            <Time>2018-09-15T07:09:48.000Z</Time>
            <Position>
              <LatitudeDegrees>37.51051294617354869842529296875</LatitudeDegrees>
              <LongitudeDegrees>-8.05474315769970417022705078125</LongitudeDegrees>
            </Position>
            <AltitudeMeters>280.20001220703125</AltitudeMeters>
            <DistanceMeters>320886.87329405</DistanceMeters>
          </Trackpoint>
          <Trackpoint>
            <Time>2018-09-15T07:09:50.000Z</Time>
            <Position>
              <LatitudeDegrees>37.5105162151157855987548828125</LatitudeDegrees>
              <LongitudeDegrees>-8.0546079576015472412109375</LongitudeDegrees>
            </Position>
            <AltitudeMeters>281</AltitudeMeters>
            <DistanceMeters>320898.81569864</DistanceMeters>
          </Trackpoint>
          <Trackpoint>
            <Time>2018-09-15T07:09:51.000Z</Time>
            <Position>
              <LatitudeDegrees>37.5105142034590244293212890625</LatitudeDegrees>
              <LongitudeDegrees>-8.05454366840422153472900390625</LongitudeDegrees>
            </Position>
            <AltitudeMeters>281.20001220703125</AltitudeMeters>
            <DistanceMeters>320904.49667507</DistanceMeters>
          </Trackpoint>
          <Trackpoint>
            <Time>2018-09-15T07:09:53.000Z</Time>
            <Position>
              <LatitudeDegrees>37.5104954279959201812744140625</LatitudeDegrees>
              <LongitudeDegrees>-8.05442229844629764556884765625</LongitudeDegrees>
            </Position>
            <AltitudeMeters>282</AltitudeMeters>
            <DistanceMeters>320915.41441335</DistanceMeters>
          </Trackpoint>
          <Trackpoint>
            <Time>2018-09-15T07:09:55.000Z</Time>
            <Position>
              <LatitudeDegrees>37.51045234501361846923828125</LatitudeDegrees>
              <LongitudeDegrees>-8.05431450717151165008544921875</LongitudeDegrees>
            </Position>
            <AltitudeMeters>282.600006103515625</AltitudeMeters>
            <DistanceMeters>320926.07139564</DistanceMeters>
          </Trackpoint>
          <Trackpoint>
            <Time>2018-09-15T07:09:57.000Z</Time>
            <Position>
              <LatitudeDegrees>37.51039065420627593994140625</LatitudeDegrees>
              <LongitudeDegrees>-8.05422415025532245635986328125</LongitudeDegrees>
            </Position>
            <AltitudeMeters>283</AltitudeMeters>
            <DistanceMeters>320936.59664992</DistanceMeters>
          </Trackpoint>
          <Trackpoint>
            <Time>2018-09-15T07:10:02.000Z</Time>
            <Position>
              <LatitudeDegrees>37.51022460870444774627685546875</LatitudeDegrees>
              <LongitudeDegrees>-8.05403731763362884521484375</LongitudeDegrees>
            </Position>
            <AltitudeMeters>283.600006103515625</AltitudeMeters>
            <DistanceMeters>320961.36856698</DistanceMeters>
          </Trackpoint>
          <Trackpoint>
            <Time>2018-09-15T07:10:06.000Z</Time>
            <Position>
              <LatitudeDegrees>37.51007423736155033111572265625</LatitudeDegrees>
              <LongitudeDegrees>-8.0539402551949024200439453125</LongitudeDegrees>
            </Position>
            <AltitudeMeters>285</AltitudeMeters>
            <DistanceMeters>320980.17185428</DistanceMeters>
          </Trackpoint>
          <Trackpoint>
            <Time>2018-09-15T07:10:09.000Z</Time>
            <Position>
              <LatitudeDegrees>37.50995119102299213409423828125</LatitudeDegrees>
              <LongitudeDegrees>-8.05388711392879486083984375</LongitudeDegrees>
            </Position>
            <AltitudeMeters>285.399993896484375</AltitudeMeters>
            <DistanceMeters>320994.6483875</DistanceMeters>
          </Trackpoint>
          <Trackpoint>
            <Time>2018-09-15T07:10:10.000Z</Time>
            <Position>
              <LatitudeDegrees>37.50991062261164188385009765625</LatitudeDegrees>
              <LongitudeDegrees>-8.05386976338922977447509765625</LongitudeDegrees>
            </Position>
            <AltitudeMeters>285.399993896484375</AltitudeMeters>
            <DistanceMeters>320999.41679735</DistanceMeters>
          </Trackpoint>
          <Trackpoint>
            <Time>2018-09-15T07:10:16.000Z</Time>
            <Position>
              <LatitudeDegrees>37.5096698105335235595703125</LatitudeDegrees>
              <LongitudeDegrees>-8.053770773112773895263671875</LongitudeDegrees>
            </Position>
            <AltitudeMeters>285.399993896484375</AltitudeMeters>
            <DistanceMeters>321027.60867877</DistanceMeters>
          </Trackpoint>
          <Trackpoint>
            <Time>2018-09-15T07:10:17.000Z</Time>
            <Position>
              <LatitudeDegrees>37.509628571569919586181640625</LatitudeDegrees>
              <LongitudeDegrees>-8.05375166237354278564453125</LongitudeDegrees>
            </Position>
            <AltitudeMeters>285.20001220703125</AltitudeMeters>
            <DistanceMeters>321032.49863198</DistanceMeters>
          </Trackpoint>
          <Trackpoint>
            <Time>2018-09-15T07:10:25.000Z</Time>
            <Position>
              <LatitudeDegrees>37.50940770842134952545166015625</LatitudeDegrees>
              <LongitudeDegrees>-8.053675554692745208740234375</LongitudeDegrees>
            </Position>
            <AltitudeMeters>284.20001220703125</AltitudeMeters>
            <DistanceMeters>321057.98280546</DistanceMeters>
          </Trackpoint>
          <Trackpoint>
            <Time>2018-09-15T07:13:39.000Z</Time>
            <Position>
              <LatitudeDegrees>37.50933797098696231842041015625</LatitudeDegrees>
              <LongitudeDegrees>-8.053639344871044158935546875</LongitudeDegrees>
            </Position>
            <AltitudeMeters>284</AltitudeMeters>
            <DistanceMeters>321066.37748929</DistanceMeters>
          </Trackpoint>
          <Trackpoint>
            <Time>2018-09-15T07:13:40.000Z</Time>
            <Position>
              <LatitudeDegrees>37.5093199498951435089111328125</LatitudeDegrees>
              <LongitudeDegrees>-8.05363096296787261962890625</LongitudeDegrees>
            </Position>
            <AltitudeMeters>284</AltitudeMeters>
            <DistanceMeters>321068.5129491</DistanceMeters>
          </Trackpoint>
          <Trackpoint>
            <Time>2018-09-15T07:13:42.000Z</Time>
            <Position>
              <LatitudeDegrees>37.50927150249481201171875</LatitudeDegrees>
              <LongitudeDegrees>-8.05360791273415088653564453125</LongitudeDegrees>
            </Position>
            <AltitudeMeters>283.79998779296875</AltitudeMeters>
            <DistanceMeters>321074.27677172</DistanceMeters>
          </Trackpoint>
          <Trackpoint>
            <Time>2018-09-15T07:13:44.000Z</Time>
            <Position>
              <LatitudeDegrees>37.509208135306835174560546875</LatitudeDegrees>
              <LongitudeDegrees>-8.0535791628062725067138671875</LongitudeDegrees>
            </Position>
            <AltitudeMeters>283.399993896484375</AltitudeMeters>
            <DistanceMeters>321081.77244619</DistanceMeters>
          </Trackpoint>
          <Trackpoint>
            <Time>2018-09-15T07:13:47.000Z</Time>
            <Position>
              <LatitudeDegrees>37.50909808091819286346435546875</LatitudeDegrees>
              <LongitudeDegrees>-8.0535332299768924713134765625</LongitudeDegrees>
            </Position>
            <AltitudeMeters>284</AltitudeMeters>
            <DistanceMeters>321094.67545046</DistanceMeters>
          </Trackpoint>
          <Trackpoint>
            <Time>2018-09-15T07:13:52.000Z</Time>
            <Position>
              <LatitudeDegrees>37.50889934599399566650390625</LatitudeDegrees>
              <LongitudeDegrees>-8.05345251224935054779052734375</LongitudeDegrees>
            </Position>
            <AltitudeMeters>285</AltitudeMeters>
            <DistanceMeters>321117.91448555</DistanceMeters>
          </Trackpoint>
          <Trackpoint>
            <Time>2018-09-15T07:13:58.000Z</Time>
            <Position>
              <LatitudeDegrees>37.50865316949784755706787109375</LatitudeDegrees>
              <LongitudeDegrees>-8.05336299352347850799560546875</LongitudeDegrees>
            </Position>
            <AltitudeMeters>286</AltitudeMeters>
            <DistanceMeters>321146.4316843</DistanceMeters>
          </Trackpoint>
          <Trackpoint>
            <Time>2018-09-15T07:14:00.000Z</Time>
            <Position>
              <LatitudeDegrees>37.5085732899606227874755859375</LatitudeDegrees>
              <LongitudeDegrees>-8.05333801545202732086181640625</LongitudeDegrees>
            </Position>
            <AltitudeMeters>286.399993896484375</AltitudeMeters>
            <DistanceMeters>321155.59227928</DistanceMeters>
          </Trackpoint>
          <Trackpoint>
            <Time>2018-09-15T07:14:04.000Z</Time>
            <Position>
              <LatitudeDegrees>37.50842182897031307220458984375</LatitudeDegrees>
              <LongitudeDegrees>-8.053298033773899078369140625</LongitudeDegrees>
            </Position>
            <AltitudeMeters>287</AltitudeMeters>
            <DistanceMeters>321172.81598595</DistanceMeters>
          </Trackpoint>
          <Trackpoint>
            <Time>2018-09-15T07:14:07.000Z</Time>
            <Position>
              <LatitudeDegrees>37.50830029137432575225830078125</LatitudeDegrees>
              <LongitudeDegrees>-8.053286969661712646484375</LongitudeDegrees>
            </Position>
            <AltitudeMeters>287.20001220703125</AltitudeMeters>
            <DistanceMeters>321186.37886496</DistanceMeters>
          </Trackpoint>
          <Trackpoint>
            <Time>2018-09-15T07:14:10.000Z</Time>
            <Position>
              <LatitudeDegrees>37.508174814283847808837890625</LatitudeDegrees>
              <LongitudeDegrees>-8.05327850393950939178466796875</LongitudeDegrees>
            </Position>
            <AltitudeMeters>287</AltitudeMeters>
            <DistanceMeters>321200.36491215</DistanceMeters>
          </Trackpoint>
          <Trackpoint>
            <Time>2018-09-15T07:14:15.000Z</Time>
            <Position>
              <LatitudeDegrees>37.5079671107232570648193359375</LatitudeDegrees>
              <LongitudeDegrees>-8.0532559566199779510498046875</LongitudeDegrees>
            </Position>
            <AltitudeMeters>286.600006103515625</AltitudeMeters>
            <DistanceMeters>321223.56817092</DistanceMeters>
          </Trackpoint>
          <Trackpoint>
            <Time>2018-09-15T07:14:19.000Z</Time>
            <Position>
              <LatitudeDegrees>37.50780173577368259429931640625</LatitudeDegrees>
              <LongitudeDegrees>-8.0532051622867584228515625</LongitudeDegrees>
            </Position>
            <AltitudeMeters>286.20001220703125</AltitudeMeters>
            <DistanceMeters>321242.51307574</DistanceMeters>
          </Trackpoint>
          <Trackpoint>
            <Time>2018-09-15T07:14:23.000Z</Time>
            <Position>
              <LatitudeDegrees>37.507647760212421417236328125</LatitudeDegrees>
              <LongitudeDegrees>-8.05308689363300800323486328125</LongitudeDegrees>
            </Position>
            <AltitudeMeters>286.399993896484375</AltitudeMeters>
            <DistanceMeters>321262.58149395</DistanceMeters>
          </Trackpoint>
          <Trackpoint>
            <Time>2018-09-15T07:14:24.000Z</Time>
            <Position>
              <LatitudeDegrees>37.50760794617235660552978515625</LatitudeDegrees>
              <LongitudeDegrees>-8.0530490912497043609619140625</LongitudeDegrees>
            </Position>
            <AltitudeMeters>286.399993896484375</AltitudeMeters>
            <DistanceMeters>321268.1289709</DistanceMeters>
          </Trackpoint>
          <Trackpoint>
            <Time>2018-09-15T07:14:33.000Z</Time>
            <Position>
              <LatitudeDegrees>37.507241405546665191650390625</LatitudeDegrees>
              <LongitudeDegrees>-8.0526625178754329681396484375</LongitudeDegrees>
            </Position>
            <AltitudeMeters>287</AltitudeMeters>
            <DistanceMeters>321321.32059337</DistanceMeters>
          </Trackpoint>
          <Trackpoint>
            <Time>2018-09-15T07:14:38.000Z</Time>
            <Position>
              <LatitudeDegrees>37.50702188350260257720947265625</LatitudeDegrees>
              <LongitudeDegrees>-8.052441738545894622802734375</LongitudeDegrees>
            </Position>
            <AltitudeMeters>286.600006103515625</AltitudeMeters>
            <DistanceMeters>321352.57716069</DistanceMeters>
          </Trackpoint>
          <Trackpoint>
            <Time>2018-09-15T07:14:44.000Z</Time>
            <Position>
              <LatitudeDegrees>37.50673488713800907135009765625</LatitudeDegrees>
              <LongitudeDegrees>-8.0521537363529205322265625</LongitudeDegrees>
            </Position>
            <AltitudeMeters>288</AltitudeMeters>
            <DistanceMeters>321393.4059279</DistanceMeters>
          </Trackpoint>
          <Trackpoint>
            <Time>2018-09-15T07:14:47.000Z</Time>
            <Position>
              <LatitudeDegrees>37.5065901316702365875244140625</LatitudeDegrees>
              <LongitudeDegrees>-8.0520013533532619476318359375</LongitudeDegrees>
            </Position>
            <AltitudeMeters>289.399993896484375</AltitudeMeters>
            <DistanceMeters>321414.3965096</DistanceMeters>
          </Trackpoint>
          <Trackpoint>
            <Time>2018-09-15T07:14:54.000Z</Time>
            <Position>
              <LatitudeDegrees>37.5062518380582332611083984375</LatitudeDegrees>
              <LongitudeDegrees>-8.05165509693324565887451171875</LongitudeDegrees>
            </Position>
            <AltitudeMeters>290.600006103515625</AltitudeMeters>
            <DistanceMeters>321462.89812972</DistanceMeters>
          </Trackpoint>
          <Trackpoint>
            <Time>2018-09-15T07:14:59.000Z</Time>
            <Position>
              <LatitudeDegrees>37.5060439668595790863037109375</LatitudeDegrees>
              <LongitudeDegrees>-8.051455356180667877197265625</LongitudeDegrees>
            </Position>
            <AltitudeMeters>290.20001220703125</AltitudeMeters>
            <DistanceMeters>321491.98980988</DistanceMeters>
          </Trackpoint>
          <Trackpoint>
            <Time>2018-09-15T07:15:01.000Z</Time>
            <Position>
              <LatitudeDegrees>37.50597096048295497894287109375</LatitudeDegrees>
              <LongitudeDegrees>-8.051384948194026947021484375</LongitudeDegrees>
            </Position>
            <AltitudeMeters>289.79998779296875</AltitudeMeters>
            <DistanceMeters>321502.22097043</DistanceMeters>
          </Trackpoint>
          <Trackpoint>
            <Time>2018-09-15T07:15:06.000Z</Time>
            <Position>
              <LatitudeDegrees>37.50580935738980770111083984375</LatitudeDegrees>
              <LongitudeDegrees>-8.051223345100879669189453125</LongitudeDegrees>
            </Position>
            <AltitudeMeters>289.399993896484375</AltitudeMeters>
            <DistanceMeters>321525.18010112</DistanceMeters>
          </Trackpoint>
          <Trackpoint>
            <Time>2018-09-15T07:15:07.000Z</Time>
            <Position>
              <LatitudeDegrees>37.505778260529041290283203125</LatitudeDegrees>
              <LongitudeDegrees>-8.05119141004979610443115234375</LongitudeDegrees>
            </Position>
            <AltitudeMeters>289.399993896484375</AltitudeMeters>
            <DistanceMeters>321529.64534566</DistanceMeters>
          </Trackpoint>
          <Trackpoint>
            <Time>2018-09-15T07:15:10.000Z</Time>
            <Position>
              <LatitudeDegrees>37.50568362884223461151123046875</LatitudeDegrees>
              <LongitudeDegrees>-8.05109317414462566375732421875</LongitudeDegrees>
            </Position>
            <AltitudeMeters>289.399993896484375</AltitudeMeters>
            <DistanceMeters>321543.28954062</DistanceMeters>
          </Trackpoint>
          <Trackpoint>
            <Time>2018-09-15T07:15:13.000Z</Time>
            <Position>
              <LatitudeDegrees>37.50559151172637939453125</LatitudeDegrees>
              <LongitudeDegrees>-8.051000051200389862060546875</LongitudeDegrees>
            </Position>
            <AltitudeMeters>289.79998779296875</AltitudeMeters>
            <DistanceMeters>321556.43211655</DistanceMeters>
          </Trackpoint>
          <Trackpoint>
            <Time>2018-09-15T07:15:17.000Z</Time>
            <Position>
              <LatitudeDegrees>37.50547944568097591400146484375</LatitudeDegrees>
              <LongitudeDegrees>-8.05088228546082973480224609375</LongitudeDegrees>
            </Position>
            <AltitudeMeters>290.399993896484375</AltitudeMeters>
            <DistanceMeters>321572.67084471</DistanceMeters>
          </Trackpoint>
          <Trackpoint>
            <Time>2018-09-15T07:15:18.000Z</Time>
            <Position>
              <LatitudeDegrees>37.50544876791536808013916015625</LatitudeDegrees>
              <LongitudeDegrees>-8.050851859152317047119140625</LongitudeDegrees>
            </Position>
            <AltitudeMeters>290.399993896484375</AltitudeMeters>
            <DistanceMeters>321577.01513519</DistanceMeters>
          </Trackpoint>
          <Trackpoint>
            <Time>2018-09-15T07:15:22.000Z</Time>
            <Position>
              <LatitudeDegrees>37.505325973033905029296875</LatitudeDegrees>
              <LongitudeDegrees>-8.05072369985282421112060546875</LongitudeDegrees>
            </Position>
            <AltitudeMeters>291</AltitudeMeters>
            <DistanceMeters>321594.75868656</DistanceMeters>
          </Trackpoint>
          <Trackpoint>
            <Time>2018-09-15T07:15:23.000Z</Time>
            <Position>
              <LatitudeDegrees>37.50529722310602664947509765625</LatitudeDegrees>
              <LongitudeDegrees>-8.0506924353539943695068359375</LongitudeDegrees>
            </Position>
            <AltitudeMeters>291.20001220703125</AltitudeMeters>
            <DistanceMeters>321598.98497231</DistanceMeters>
          </Trackpoint>
          <Trackpoint>
            <Time>2018-09-15T07:15:29.000Z</Time>
            <Position>
              <LatitudeDegrees>37.5051248073577880859375</LatitudeDegrees>
              <LongitudeDegrees>-8.05051532573997974395751953125</LongitudeDegrees>
            </Position>
            <AltitudeMeters>294.20001220703125</AltitudeMeters>
            <DistanceMeters>321623.73993298</DistanceMeters>
          </Trackpoint>
          <Trackpoint>
            <Time>2018-09-15T07:15:30.000Z</Time>
            <Position>
              <LatitudeDegrees>37.50509588979184627532958984375</LatitudeDegrees>
              <LongitudeDegrees>-8.0504848994314670562744140625</LongitudeDegrees>
            </Position>
            <AltitudeMeters>294.600006103515625</AltitudeMeters>
            <DistanceMeters>321627.93189299</DistanceMeters>
          </Trackpoint>
          <Trackpoint>
            <Time>2018-09-15T07:15:36.000Z</Time>
            <Position>
              <LatitudeDegrees>37.50492573715746402740478515625</LatitudeDegrees>
              <LongitudeDegrees>-8.0503083765506744384765625</LongitudeDegrees>
            </Position>
            <AltitudeMeters>298</AltitudeMeters>
            <DistanceMeters>321652.45909611</DistanceMeters>
          </Trackpoint>
          <Trackpoint>
            <Time>2018-09-15T07:15:41.000Z</Time>
            <Position>
              <LatitudeDegrees>37.50478358007967472076416015625</LatitudeDegrees>
              <LongitudeDegrees>-8.050161190330982208251953125</LongitudeDegrees>
            </Position>
            <AltitudeMeters>299.79998779296875</AltitudeMeters>
            <DistanceMeters>321672.93443149</DistanceMeters>
          </Trackpoint>
          <Trackpoint>
            <Time>2018-09-15T07:15:46.000Z</Time>
            <Position>
              <LatitudeDegrees>37.50464376993477344512939453125</LatitudeDegrees>
              <LongitudeDegrees>-8.050016351044178009033203125</LongitudeDegrees>
            </Position>
            <AltitudeMeters>301.20001220703125</AltitudeMeters>
            <DistanceMeters>321693.07606038</DistanceMeters>
          </Trackpoint>
          <Trackpoint>
            <Time>2018-09-15T07:15:53.000Z</Time>
            <Position>
              <LatitudeDegrees>37.5044453702867031097412109375</LatitudeDegrees>
              <LongitudeDegrees>-8.04981493391096591949462890625</LongitudeDegrees>
            </Position>
            <AltitudeMeters>303.399993896484375</AltitudeMeters>
            <DistanceMeters>321721.42939503</DistanceMeters>
          </Trackpoint>
          <Trackpoint>
            <Time>2018-09-15T07:15:59.000Z</Time>
            <Position>
              <LatitudeDegrees>37.50427764840424060821533203125</LatitudeDegrees>
              <LongitudeDegrees>-8.04964461363852024078369140625</LongitudeDegrees>
            </Position>
            <AltitudeMeters>303.600006103515625</AltitudeMeters>
            <DistanceMeters>321745.40137877</DistanceMeters>
          </Trackpoint>
          <Trackpoint>
            <Time>2018-09-15T07:16:04.000Z</Time>
            <Position>
              <LatitudeDegrees>37.50413984991610050201416015625</LatitudeDegrees>
              <LongitudeDegrees>-8.04949843324720859527587890625</LongitudeDegrees>
            </Position>
            <AltitudeMeters>304</AltitudeMeters>
            <DistanceMeters>321765.44706089</DistanceMeters>
          </Trackpoint>
          <Trackpoint>
            <Time>2018-09-15T07:16:11.000Z</Time>
            <Position>
              <LatitudeDegrees>37.503918148577213287353515625</LatitudeDegrees>
              <LongitudeDegrees>-8.0492775700986385345458984375</LongitudeDegrees>
            </Position>
            <AltitudeMeters>304.399993896484375</AltitudeMeters>
            <DistanceMeters>321796.8987501</DistanceMeters>
          </Trackpoint>
          <Trackpoint>
            <Time>2018-09-15T07:16:20.000Z</Time>
            <Position>
              <LatitudeDegrees>37.50360106118023395538330078125</LatitudeDegrees>
              <LongitudeDegrees>-8.04894606582820415496826171875</LongitudeDegrees>
            </Position>
            <AltitudeMeters>303.399993896484375</AltitudeMeters>
            <DistanceMeters>321842.75000142</DistanceMeters>
          </Trackpoint>
          <Trackpoint>
            <Time>2018-09-15T07:16:24.000Z</Time>
            <Position>
              <LatitudeDegrees>37.5034556351602077484130859375</LatitudeDegrees>
              <LongitudeDegrees>-8.04879720322787761688232421875</LongitudeDegrees>
            </Position>
            <AltitudeMeters>302</AltitudeMeters>
            <DistanceMeters>321863.60095009</DistanceMeters>
          </Trackpoint>
          <Trackpoint>
            <Time>2018-09-15T07:16:28.000Z</Time>
            <Position>
              <LatitudeDegrees>37.50329579226672649383544921875</LatitudeDegrees>
              <LongitudeDegrees>-8.04863266646862030029296875</LongitudeDegrees>
            </Position>
            <AltitudeMeters>300.600006103515625</AltitudeMeters>
            <DistanceMeters>321886.57030459</DistanceMeters>
          </Trackpoint>
          <Trackpoint>
            <Time>2018-09-15T07:16:32.000Z</Time>
            <Position>
              <LatitudeDegrees>37.503109462559223175048828125</LatitudeDegrees>
              <LongitudeDegrees>-8.0484380386769771575927734375</LongitudeDegrees>
            </Position>
            <AltitudeMeters>299.399993896484375</AltitudeMeters>
            <DistanceMeters>321913.50430209</DistanceMeters>
          </Trackpoint>
          <Trackpoint>
            <Time>2018-09-15T07:16:35.000Z</Time>
            <Position>
              <LatitudeDegrees>37.5029580853879451751708984375</LatitudeDegrees>
              <LongitudeDegrees>-8.04826746694743633270263671875</LongitudeDegrees>
            </Position>
            <AltitudeMeters>299</AltitudeMeters>
            <DistanceMeters>321936.10328511</DistanceMeters>
          </Trackpoint>
          <Trackpoint>
            <Time>2018-09-15T07:16:38.000Z</Time>
            <Position>
              <LatitudeDegrees>37.50280092470347881317138671875</LatitudeDegrees>
              <LongitudeDegrees>-8.04807686246931552886962890625</LongitudeDegrees>
            </Position>
            <AltitudeMeters>298.600006103515625</AltitudeMeters>
            <DistanceMeters>321960.37735663</DistanceMeters>
          </Trackpoint>
          <Trackpoint>
            <Time>2018-09-15T07:16:42.000Z</Time>
            <Position>
              <LatitudeDegrees>37.50258115120232105255126953125</LatitudeDegrees>
              <LongitudeDegrees>-8.0478030256927013397216796875</LongitudeDegrees>
            </Position>
            <AltitudeMeters>297.20001220703125</AltitudeMeters>
            <DistanceMeters>321994.77203928</DistanceMeters>
          </Trackpoint>
          <Trackpoint>
            <Time>2018-09-15T07:16:44.000Z</Time>
            <Position>
              <LatitudeDegrees>37.50246682204306125640869140625</LatitudeDegrees>
              <LongitudeDegrees>-8.04766028188169002532958984375</LongitudeDegrees>
            </Position>
            <AltitudeMeters>296</AltitudeMeters>
            <DistanceMeters>322012.68249532</DistanceMeters>
          </Trackpoint>
          <Trackpoint>
            <Time>2018-09-15T07:16:46.000Z</Time>
            <Position>
              <LatitudeDegrees>37.50235416926443576812744140625</LatitudeDegrees>
              <LongitudeDegrees>-8.04751284420490264892578125</LongitudeDegrees>
            </Position>
            <AltitudeMeters>295.600006103515625</AltitudeMeters>
            <DistanceMeters>322030.75706601</DistanceMeters>
          </Trackpoint>
          <Trackpoint>
            <Time>2018-09-15T07:16:48.000Z</Time>
            <Position>
              <LatitudeDegrees>37.502237074077129364013671875</LatitudeDegrees>
              <LongitudeDegrees>-8.04736205376684665679931640625</LongitudeDegrees>
            </Position>
            <AltitudeMeters>295.399993896484375</AltitudeMeters>
            <DistanceMeters>322049.38860375</DistanceMeters>
          </Trackpoint>
          <Trackpoint>
            <Time>2018-09-15T07:16:50.000Z</Time>
            <Position>
              <LatitudeDegrees>37.50211478210985660552978515625</LatitudeDegrees>
              <LongitudeDegrees>-8.0472058989107608795166015625</LongitudeDegrees>
            </Position>
            <AltitudeMeters>295</AltitudeMeters>
            <DistanceMeters>322068.76356976</DistanceMeters>
          </Trackpoint>
          <Trackpoint>
            <Time>2018-09-15T07:16:52.000Z</Time>
            <Position>
              <LatitudeDegrees>37.5019894726574420928955078125</LatitudeDegrees>
              <LongitudeDegrees>-8.04704882204532623291015625</LongitudeDegrees>
            </Position>
            <AltitudeMeters>294.600006103515625</AltitudeMeters>
            <DistanceMeters>322088.43295194</DistanceMeters>
          </Trackpoint>
          <Trackpoint>
            <Time>2018-09-15T07:16:53.000Z</Time>
            <Position>
              <LatitudeDegrees>37.50192702747881412506103515625</LatitudeDegrees>
              <LongitudeDegrees>-8.04696978069841861724853515625</LongitudeDegrees>
            </Position>
            <AltitudeMeters>294.20001220703125</AltitudeMeters>
            <DistanceMeters>322098.28232304</DistanceMeters>
          </Trackpoint>
          <Trackpoint>
            <Time>2018-09-15T07:16:56.000Z</Time>
            <Position>
              <LatitudeDegrees>37.501737177371978759765625</LatitudeDegrees>
              <LongitudeDegrees>-8.04673106409609317779541015625</LongitudeDegrees>
            </Position>
            <AltitudeMeters>293.600006103515625</AltitudeMeters>
            <DistanceMeters>322128.12888133</DistanceMeters>
          </Trackpoint>
          <Trackpoint>
            <Time>2018-09-15T07:16:57.000Z</Time>
            <Position>
              <LatitudeDegrees>37.50167481601238250732421875</LatitudeDegrees>
              <LongitudeDegrees>-8.04665126837790012359619140625</LongitudeDegrees>
            </Position>
            <AltitudeMeters>293.79998779296875</AltitudeMeters>
            <DistanceMeters>322138.01987967</DistanceMeters>
          </Trackpoint>
          <Trackpoint>
            <Time>2018-09-15T07:16:58.000Z</Time>
            <Position>
              <LatitudeDegrees>37.50161337666213512420654296875</LatitudeDegrees>
              <LongitudeDegrees>-8.04657272994518280029296875</LongitudeDegrees>
            </Position>
            <AltitudeMeters>293.79998779296875</AltitudeMeters>
            <DistanceMeters>322147.75907486</DistanceMeters>
          </Trackpoint>
          <Trackpoint>
            <Time>2018-09-15T07:17:00.000Z</Time>
            <Position>
              <LatitudeDegrees>37.501494772732257843017578125</LatitudeDegrees>
              <LongitudeDegrees>-8.046416155993938446044921875</LongitudeDegrees>
            </Position>
            <AltitudeMeters>293.79998779296875</AltitudeMeters>
            <DistanceMeters>322166.87433089</DistanceMeters>
          </Trackpoint>
          <Trackpoint>
            <Time>2018-09-15T07:17:03.000Z</Time>
            <Position>
              <LatitudeDegrees>37.5013148970901966094970703125</LatitudeDegrees>
              <LongitudeDegrees>-8.0461916886270046234130859375</LongitudeDegrees>
            </Position>
            <AltitudeMeters>293.600006103515625</AltitudeMeters>
            <DistanceMeters>322195.0465065</DistanceMeters>
          </Trackpoint>
          <Trackpoint>
            <Time>2018-09-15T07:17:06.000Z</Time>
            <Position>
              <LatitudeDegrees>37.50112823210656642913818359375</LatitudeDegrees>
              <LongitudeDegrees>-8.0459844879806041717529296875</LongitudeDegrees>
            </Position>
            <AltitudeMeters>292</AltitudeMeters>
            <DistanceMeters>322222.73012238</DistanceMeters>
          </Trackpoint>
          <Trackpoint>
            <Time>2018-09-15T07:17:07.000Z</Time>
            <Position>
              <LatitudeDegrees>37.50106067396700382232666015625</LatitudeDegrees>
              <LongitudeDegrees>-8.04592338390648365020751953125</LongitudeDegrees>
            </Position>
            <AltitudeMeters>291.399993896484375</AltitudeMeters>
            <DistanceMeters>322231.98535361</DistanceMeters>
          </Trackpoint>
          <Trackpoint>
            <Time>2018-09-15T07:17:08.000Z</Time>
            <Position>
              <LatitudeDegrees>37.50098959542810916900634765625</LatitudeDegrees>
              <LongitudeDegrees>-8.04586688987910747528076171875</LongitudeDegrees>
            </Position>
            <AltitudeMeters>290.79998779296875</AltitudeMeters>
            <DistanceMeters>322241.33716041</DistanceMeters>
          </Trackpoint>
          <Trackpoint>
            <Time>2018-09-15T07:17:11.000Z</Time>
            <Position>
              <LatitudeDegrees>37.50075607560575008392333984375</LatitudeDegrees>
              <LongitudeDegrees>-8.04573948495090007781982421875</LongitudeDegrees>
            </Position>
            <AltitudeMeters>289</AltitudeMeters>
            <DistanceMeters>322269.65862877</DistanceMeters>
          </Trackpoint>
          <Trackpoint>
            <Time>2018-09-15T07:17:12.000Z</Time>
            <Position>
              <LatitudeDegrees>37.50067309476435184478759765625</LatitudeDegrees>
              <LongitudeDegrees>-8.04570905864238739013671875</LongitudeDegrees>
            </Position>
            <AltitudeMeters>288.79998779296875</AltitudeMeters>
            <DistanceMeters>322279.27747294</DistanceMeters>
          </Trackpoint>
          <Trackpoint>
            <Time>2018-09-15T07:17:19.000Z</Time>
            <Position>
              <LatitudeDegrees>37.50005736015737056732177734375</LatitudeDegrees>
              <LongitudeDegrees>-8.04554318077862262725830078125</LongitudeDegrees>
            </Position>
            <AltitudeMeters>286.399993896484375</AltitudeMeters>
            <DistanceMeters>322349.35772591</DistanceMeters>
          </Trackpoint>
          <Trackpoint>
            <Time>2018-09-15T07:17:21.000Z</Time>
            <Position>
              <LatitudeDegrees>37.499870359897613525390625</LatitudeDegrees>
              <LongitudeDegrees>-8.0454936437308788299560546875</LongitudeDegrees>
            </Position>
            <AltitudeMeters>286.20001220703125</AltitudeMeters>
            <DistanceMeters>322370.62588496</DistanceMeters>
          </Trackpoint>
          <Trackpoint>
            <Time>2018-09-15T07:17:23.000Z</Time>
            <Position>
              <LatitudeDegrees>37.4996747262775897979736328125</LatitudeDegrees>
              <LongitudeDegrees>-8.04544460959732532501220703125</LongitudeDegrees>
            </Position>
            <AltitudeMeters>286.600006103515625</AltitudeMeters>
            <DistanceMeters>322392.82677756</DistanceMeters>
          </Trackpoint>
          <Trackpoint>
            <Time>2018-09-15T07:17:25.000Z</Time>
            <Position>
              <LatitudeDegrees>37.49947808682918548583984375</LatitudeDegrees>
              <LongitudeDegrees>-8.04539582692086696624755859375</LongitudeDegrees>
            </Position>
            <AltitudeMeters>287.20001220703125</AltitudeMeters>
            <DistanceMeters>322415.13317288</DistanceMeters>
          </Trackpoint>
          <Trackpoint>
            <Time>2018-09-15T07:17:27.000Z</Time>
            <Position>
              <LatitudeDegrees>37.4992869794368743896484375</LatitudeDegrees>
              <LongitudeDegrees>-8.045347630977630615234375</LongitudeDegrees>
            </Position>
            <AltitudeMeters>287.79998779296875</AltitudeMeters>
            <DistanceMeters>322436.82550525</DistanceMeters>
          </Trackpoint>
          <Trackpoint>
            <Time>2018-09-15T07:17:31.000Z</Time>
            <Position>
              <LatitudeDegrees>37.4989263899624347686767578125</LatitudeDegrees>
              <LongitudeDegrees>-8.04526708088815212249755859375</LongitudeDegrees>
            </Position>
            <AltitudeMeters>288.600006103515625</AltitudeMeters>
            <DistanceMeters>322477.58531995</DistanceMeters>
          </Trackpoint>
          <Trackpoint>
            <Time>2018-09-15T07:17:32.000Z</Time>
            <Position>
              <LatitudeDegrees>37.4988455884158611297607421875</LatitudeDegrees>
              <LongitudeDegrees>-8.04524495266377925872802734375</LongitudeDegrees>
            </Position>
            <AltitudeMeters>289</AltitudeMeters>
            <DistanceMeters>322486.78869526</DistanceMeters>
          </Trackpoint>
          <Trackpoint>
            <Time>2018-09-15T07:17:37.000Z</Time>
            <Position>
              <LatitudeDegrees>37.498473264276981353759765625</LatitudeDegrees>
              <LongitudeDegrees>-8.04515141062438488006591796875</LongitudeDegrees>
            </Position>
            <AltitudeMeters>291.20001220703125</AltitudeMeters>
            <DistanceMeters>322529.04439434</DistanceMeters>
          </Trackpoint>
          <Trackpoint>
            <Time>2018-09-15T07:17:40.000Z</Time>
            <Position>
              <LatitudeDegrees>37.49826975166797637939453125</LatitudeDegrees>
              <LongitudeDegrees>-8.0451043881475925445556640625</LongitudeDegrees>
            </Position>
            <AltitudeMeters>292.20001220703125</AltitudeMeters>
            <DistanceMeters>322552.07323191</DistanceMeters>
          </Trackpoint>
          <Trackpoint>
            <Time>2018-09-15T07:17:44.000Z</Time>
            <Position>
              <LatitudeDegrees>37.4980275146663188934326171875</LatitudeDegrees>
              <LongitudeDegrees>-8.045043535530567169189453125</LongitudeDegrees>
            </Position>
            <AltitudeMeters>293</AltitudeMeters>
            <DistanceMeters>322579.56503683</DistanceMeters>
          </Trackpoint>
          <Trackpoint>
            <Time>2018-09-15T07:17:47.000Z</Time>
            <Position>
              <LatitudeDegrees>37.497859708964824676513671875</LatitudeDegrees>
              <LongitudeDegrees>-8.045005314052104949951171875</LongitudeDegrees>
            </Position>
            <AltitudeMeters>293.600006103515625</AltitudeMeters>
            <DistanceMeters>322598.54446726</DistanceMeters>
          </Trackpoint>
          <Trackpoint>
            <Time>2018-09-15T07:17:48.000Z</Time>
            <Position>
              <LatitudeDegrees>37.49780531041324138641357421875</LatitudeDegrees>
              <LongitudeDegrees>-8.04499098099768161773681640625</LongitudeDegrees>
            </Position>
            <AltitudeMeters>294</AltitudeMeters>
            <DistanceMeters>322604.73069907</DistanceMeters>
          </Trackpoint>
          <Trackpoint>
            <Time>2018-09-15T07:17:50.000Z</Time>
            <Position>
              <LatitudeDegrees>37.49769969843327999114990234375</LatitudeDegrees>
              <LongitudeDegrees>-8.044966757297515869140625</LongitudeDegrees>
            </Position>
            <AltitudeMeters>294.399993896484375</AltitudeMeters>
            <DistanceMeters>322616.67839544</DistanceMeters>
          </Trackpoint>
          <Trackpoint>
            <Time>2018-09-15T07:17:52.000Z</Time>
            <Position>
              <LatitudeDegrees>37.4975929968059062957763671875</LatitudeDegrees>
              <LongitudeDegrees>-8.0449397675693035125732421875</LongitudeDegrees>
            </Position>
            <AltitudeMeters>294.79998779296875</AltitudeMeters>
            <DistanceMeters>322628.79122673</DistanceMeters>
          </Trackpoint>
          <Trackpoint>
            <Time>2018-09-15T07:17:55.000Z</Time>
            <Position>
              <LatitudeDegrees>37.49743717722594738006591796875</LatitudeDegrees>
              <LongitudeDegrees>-8.0448934994637966156005859375</LongitudeDegrees>
            </Position>
            <AltitudeMeters>295.20001220703125</AltitudeMeters>
            <DistanceMeters>322646.60917913</DistanceMeters>
          </Trackpoint>
          <Trackpoint>
            <Time>2018-09-15T07:17:56.000Z</Time>
            <Position>
              <LatitudeDegrees>37.4973787553608417510986328125</LatitudeDegrees>
              <LongitudeDegrees>-8.0448794178664684295654296875</LongitudeDegrees>
            </Position>
            <AltitudeMeters>295.399993896484375</AltitudeMeters>
            <DistanceMeters>322653.22907044</DistanceMeters>
          </Trackpoint>
          <Trackpoint>
            <Time>2018-09-15T07:17:59.000Z</Time>
            <Position>
              <LatitudeDegrees>37.49722234904766082763671875</LatitudeDegrees>
              <LongitudeDegrees>-8.04484077729284763336181640625</LongitudeDegrees>
            </Position>
            <AltitudeMeters>296</AltitudeMeters>
            <DistanceMeters>322670.96880449</DistanceMeters>
          </Trackpoint>
          <Trackpoint>
            <Time>2018-09-15T07:18:01.000Z</Time>
            <Position>
              <LatitudeDegrees>37.49712084420025348663330078125</LatitudeDegrees>
              <LongitudeDegrees>-8.04481211118400096893310546875</LongitudeDegrees>
            </Position>
            <AltitudeMeters>296.399993896484375</AltitudeMeters>
            <DistanceMeters>322682.54647501</DistanceMeters>
          </Trackpoint>
          <Trackpoint>
            <Time>2018-09-15T07:18:05.000Z</Time>
            <Position>
              <LatitudeDegrees>37.496916912496089935302734375</LatitudeDegrees>
              <LongitudeDegrees>-8.04475419223308563232421875</LongitudeDegrees>
            </Position>
            <AltitudeMeters>297.600006103515625</AltitudeMeters>
            <DistanceMeters>322705.81347058</DistanceMeters>
          </Trackpoint>
          <Trackpoint>
            <Time>2018-09-15T07:18:06.000Z</Time>
            <Position>
              <LatitudeDegrees>37.49686452560126781463623046875</LatitudeDegrees>
              <LongitudeDegrees>-8.04474103264510631561279296875</LongitudeDegrees>
            </Position>
            <AltitudeMeters>297.79998779296875</AltitudeMeters>
            <DistanceMeters>322711.75852897</DistanceMeters>
          </Trackpoint>
          <Trackpoint>
            <Time>2018-09-15T07:18:11.000Z</Time>
            <Position>
              <LatitudeDegrees>37.4966066144406795501708984375</LatitudeDegrees>
              <LongitudeDegrees>-8.04466903209686279296875</LongitudeDegrees>
            </Position>
            <AltitudeMeters>299.600006103515625</AltitudeMeters>
            <DistanceMeters>322741.16035337</DistanceMeters>
          </Trackpoint>
          <Trackpoint>
            <Time>2018-09-15T07:18:18.000Z</Time>
            <Position>
              <LatitudeDegrees>37.49623018316924571990966796875</LatitudeDegrees>
              <LongitudeDegrees>-8.04457238875329494476318359375</LongitudeDegrees>
            </Position>
            <AltitudeMeters>300.20001220703125</AltitudeMeters>
            <DistanceMeters>322783.91815122</DistanceMeters>
          </Trackpoint>
          <Trackpoint>
            <Time>2018-09-15T07:18:25.000Z</Time>
            <Position>
              <LatitudeDegrees>37.4958539195358753204345703125</LatitudeDegrees>
              <LongitudeDegrees>-8.04447851143777370452880859375</LongitudeDegrees>
            </Position>
            <AltitudeMeters>299.20001220703125</AltitudeMeters>
            <DistanceMeters>322826.60968924</DistanceMeters>
          </Trackpoint>
          <Trackpoint>
            <Time>2018-09-15T07:18:31.000Z</Time>
            <Position>
              <LatitudeDegrees>37.49553817324340343475341796875</LatitudeDegrees>
              <LongitudeDegrees>-8.04439209401607513427734375</LongitudeDegrees>
            </Position>
            <AltitudeMeters>299.600006103515625</AltitudeMeters>
            <DistanceMeters>322862.57199657</DistanceMeters>
          </Trackpoint>
          <Trackpoint>
            <Time>2018-09-15T07:18:38.000Z</Time>
            <Position>
              <LatitudeDegrees>37.4951723031699657440185546875</LatitudeDegrees>
              <LongitudeDegrees>-8.04426561109721660614013671875</LongitudeDegrees>
            </Position>
            <AltitudeMeters>297.79998779296875</AltitudeMeters>
            <DistanceMeters>322904.79808773</DistanceMeters>
          </Trackpoint>
          <Trackpoint>
            <Time>2018-09-15T07:18:48.000Z</Time>
            <Position>
              <LatitudeDegrees>37.49467114917933940887451171875</LatitudeDegrees>
              <LongitudeDegrees>-8.04402136243879795074462890625</LongitudeDegrees>
            </Position>
            <AltitudeMeters>300</AltitudeMeters>
            <DistanceMeters>322964.60259004</DistanceMeters>
          </Trackpoint>
          <Trackpoint>
            <Time>2018-09-15T07:18:58.000Z</Time>
            <Position>
              <LatitudeDegrees>37.494181059300899505615234375</LatitudeDegrees>
              <LongitudeDegrees>-8.04372883401811122894287109375</LongitudeDegrees>
            </Position>
            <AltitudeMeters>298.20001220703125</AltitudeMeters>
            <DistanceMeters>323024.95839456</DistanceMeters>
          </Trackpoint>
          <Trackpoint>
            <Time>2018-09-15T07:19:00.000Z</Time>
            <Position>
              <LatitudeDegrees>37.49408525414764881134033203125</LatitudeDegrees>
              <LongitudeDegrees>-8.043668568134307861328125</LongitudeDegrees>
            </Position>
            <AltitudeMeters>299.399993896484375</AltitudeMeters>
            <DistanceMeters>323036.8761994</DistanceMeters>
          </Trackpoint>
          <Trackpoint>
            <Time>2018-09-15T07:19:10.000Z</Time>
            <Position>
              <LatitudeDegrees>37.49359943903982639312744140625</LatitudeDegrees>
              <LongitudeDegrees>-8.04336472414433956146240234375</LongitudeDegrees>
            </Position>
            <AltitudeMeters>301.20001220703125</AltitudeMeters>
            <DistanceMeters>323097.23978334</DistanceMeters>
          </Trackpoint>
          <Trackpoint>
            <Time>2018-09-15T07:19:11.000Z</Time>
            <Position>
              <LatitudeDegrees>37.4935515783727169036865234375</LatitudeDegrees>
              <LongitudeDegrees>-8.0433368124067783355712890625</LongitudeDegrees>
            </Position>
            <AltitudeMeters>301.600006103515625</AltitudeMeters>
            <DistanceMeters>323103.10994277</DistanceMeters>
          </Trackpoint>
          <Trackpoint>
            <Time>2018-09-15T07:19:17.000Z</Time>
            <Position>
              <LatitudeDegrees>37.4932800047099590301513671875</LatitudeDegrees>
              <LongitudeDegrees>-8.04317126981914043426513671875</LongitudeDegrees>
            </Position>
            <AltitudeMeters>303.20001220703125</AltitudeMeters>
            <DistanceMeters>323136.68625769</DistanceMeters>
          </Trackpoint>
          <Trackpoint>
            <Time>2018-09-15T07:19:21.000Z</Time>
            <Position>
              <LatitudeDegrees>37.4931029789149761199951171875</LatitudeDegrees>
              <LongitudeDegrees>-8.0430649034678936004638671875</LongitudeDegrees>
            </Position>
            <AltitudeMeters>305.600006103515625</AltitudeMeters>
            <DistanceMeters>323158.51428906</DistanceMeters>
          </Trackpoint>
          <Trackpoint>
            <Time>2018-09-15T07:19:22.000Z</Time>
            <Position>
              <LatitudeDegrees>37.4930597282946109771728515625</LatitudeDegrees>
              <LongitudeDegrees>-8.04303749464452266693115234375</LongitudeDegrees>
            </Position>
            <AltitudeMeters>306.20001220703125</AltitudeMeters>
            <DistanceMeters>323163.90323384</DistanceMeters>
          </Trackpoint>
          <Trackpoint>
            <Time>2018-09-15T07:19:25.000Z</Time>
            <Position>
              <LatitudeDegrees>37.49292955733835697174072265625</LatitudeDegrees>
              <LongitudeDegrees>-8.042957447469234466552734375</LongitudeDegrees>
            </Position>
            <AltitudeMeters>307.600006103515625</AltitudeMeters>
            <DistanceMeters>323180.02420156</DistanceMeters>
          </Trackpoint>
          <Trackpoint>
            <Time>2018-09-15T07:19:30.000Z</Time>
            <Position>
              <LatitudeDegrees>37.49271548353135585784912109375</LatitudeDegrees>
              <LongitudeDegrees>-8.04282207973301410675048828125</LongitudeDegrees>
            </Position>
            <AltitudeMeters>306.20001220703125</AltitudeMeters>
            <DistanceMeters>323206.68186267</DistanceMeters>
          </Trackpoint>
          <Trackpoint>
            <Time>2018-09-15T07:19:36.000Z</Time>
            <Position>
              <LatitudeDegrees>37.49245430342853069305419921875</LatitudeDegrees>
              <LongitudeDegrees>-8.04266341030597686767578125</LongitudeDegrees>
            </Position>
            <AltitudeMeters>304.79998779296875</AltitudeMeters>
            <DistanceMeters>323238.95277257</DistanceMeters>
          </Trackpoint>
          <Trackpoint>
            <Time>2018-09-15T07:19:42.000Z</Time>
            <Position>
              <LatitudeDegrees>37.49219731427729129791259765625</LatitudeDegrees>
              <LongitudeDegrees>-8.042504489421844482421875</LongitudeDegrees>
            </Position>
            <AltitudeMeters>305.79998779296875</AltitudeMeters>
            <DistanceMeters>323270.81380008</DistanceMeters>
          </Trackpoint>
          <Trackpoint>
            <Time>2018-09-15T07:19:47.000Z</Time>
            <Position>
              <LatitudeDegrees>37.4919814802706241607666015625</LatitudeDegrees>
              <LongitudeDegrees>-8.04237716831266880035400390625</LongitudeDegrees>
            </Position>
            <AltitudeMeters>307.600006103515625</AltitudeMeters>
            <DistanceMeters>323297.33766095</DistanceMeters>
          </Trackpoint>
          <Trackpoint>
            <Time>2018-09-15T07:19:57.000Z</Time>
            <Position>
              <LatitudeDegrees>37.4914473854005336761474609375</LatitudeDegrees>
              <LongitudeDegrees>-8.04210743866860866546630859375</LongitudeDegrees>
            </Position>
            <AltitudeMeters>305</AltitudeMeters>
            <DistanceMeters>323361.37833458</DistanceMeters>
          </Trackpoint>
          <Trackpoint>
            <Time>2018-09-15T07:19:58.000Z</Time>
            <Position>
              <LatitudeDegrees>37.49137052334845066070556640625</LatitudeDegrees>
              <LongitudeDegrees>-8.04208966903388500213623046875</LongitudeDegrees>
            </Position>
            <AltitudeMeters>304.399993896484375</AltitudeMeters>
            <DistanceMeters>323370.07626424</DistanceMeters>
          </Trackpoint>
          <Trackpoint>
            <Time>2018-09-15T07:20:01.000Z</Time>
            <Position>
              <LatitudeDegrees>37.49112166464328765869140625</LatitudeDegrees>
              <LongitudeDegrees>-8.04208539426326751708984375</LongitudeDegrees>
            </Position>
            <AltitudeMeters>303.399993896484375</AltitudeMeters>
            <DistanceMeters>323397.77716271</DistanceMeters>
          </Trackpoint>
          <Trackpoint>
            <Time>2018-09-15T07:20:04.000Z</Time>
            <Position>
              <LatitudeDegrees>37.4908567965030670166015625</LatitudeDegrees>
              <LongitudeDegrees>-8.0421103723347187042236328125</LongitudeDegrees>
            </Position>
            <AltitudeMeters>302.600006103515625</AltitudeMeters>
            <DistanceMeters>323427.33994148</DistanceMeters>
          </Trackpoint>
          <Trackpoint>
            <Time>2018-09-15T07:20:05.000Z</Time>
            <Position>
              <LatitudeDegrees>37.49076518230140209197998046875</LatitudeDegrees>
              <LongitudeDegrees>-8.0421241186559200286865234375</LongitudeDegrees>
            </Position>
            <AltitudeMeters>302.600006103515625</AltitudeMeters>
            <DistanceMeters>323437.60898392</DistanceMeters>
          </Trackpoint>
          <Trackpoint>
            <Time>2018-09-15T07:20:07.000Z</Time>
            <Position>
              <LatitudeDegrees>37.49058513902127742767333984375</LatitudeDegrees>
              <LongitudeDegrees>-8.0421435646712779998779296875</LongitudeDegrees>
            </Position>
            <AltitudeMeters>303</AltitudeMeters>
            <DistanceMeters>323457.7216748</DistanceMeters>
          </Trackpoint>
          <Trackpoint>
            <Time>2018-09-15T07:20:09.000Z</Time>
            <Position>
              <LatitudeDegrees>37.490414567291736602783203125</LatitudeDegrees>
              <LongitudeDegrees>-8.042149432003498077392578125</LongitudeDegrees>
            </Position>
            <AltitudeMeters>303.20001220703125</AltitudeMeters>
            <DistanceMeters>323476.71394701</DistanceMeters>
          </Trackpoint>
          <Trackpoint>
            <Time>2018-09-15T07:20:10.000Z</Time>
            <Position>
              <LatitudeDegrees>37.4903315864503383636474609375</LatitudeDegrees>
              <LongitudeDegrees>-8.04213794879615306854248046875</LongitudeDegrees>
            </Position>
            <AltitudeMeters>302.79998779296875</AltitudeMeters>
            <DistanceMeters>323486.00569393</DistanceMeters>
          </Trackpoint>
          <Trackpoint>
            <Time>2018-09-15T07:20:12.000Z</Time>
            <Position>
              <LatitudeDegrees>37.49016813933849334716796875</LatitudeDegrees>
              <LongitudeDegrees>-8.04207156412303447723388671875</LongitudeDegrees>
            </Position>
            <AltitudeMeters>301.399993896484375</AltitudeMeters>
            <DistanceMeters>323505.11906026</DistanceMeters>
          </Trackpoint>
          <Trackpoint>
            <Time>2018-09-15T07:20:13.000Z</Time>
            <Position>
              <LatitudeDegrees>37.49009563587605953216552734375</LatitudeDegrees>
              <LongitudeDegrees>-8.04201272316277027130126953125</LongitudeDegrees>
            </Position>
            <AltitudeMeters>300.600006103515625</AltitudeMeters>
            <DistanceMeters>323514.71675842</DistanceMeters>
          </Trackpoint>
          <Trackpoint>
            <Time>2018-09-15T07:20:15.000Z</Time>
            <Position>
              <LatitudeDegrees>37.48997594229876995086669921875</LatitudeDegrees>
              <LongitudeDegrees>-8.0418639443814754486083984375</LongitudeDegrees>
            </Position>
            <AltitudeMeters>299.20001220703125</AltitudeMeters>
            <DistanceMeters>323533.42809519</DistanceMeters>
          </Trackpoint>
          <Trackpoint>
            <Time>2018-09-15T07:20:17.000Z</Time>
            <Position>
              <LatitudeDegrees>37.4898702464997768402099609375</LatitudeDegrees>
              <LongitudeDegrees>-8.04170586168766021728515625</LongitudeDegrees>
            </Position>
            <AltitudeMeters>298.79998779296875</AltitudeMeters>
            <DistanceMeters>323551.68460421</DistanceMeters>
          </Trackpoint>
          <Trackpoint>
            <Time>2018-09-15T07:20:22.000Z</Time>
            <Position>
              <LatitudeDegrees>37.4895882792770862579345703125</LatitudeDegrees>
              <LongitudeDegrees>-8.04132272489368915557861328125</LongitudeDegrees>
            </Position>
            <AltitudeMeters>298.20001220703125</AltitudeMeters>
            <DistanceMeters>323597.83462913</DistanceMeters>
          </Trackpoint>
          <Trackpoint>
            <Time>2018-09-15T07:20:28.000Z</Time>
            <Position>
              <LatitudeDegrees>37.489116378128528594970703125</LatitudeDegrees>
              <LongitudeDegrees>-8.0412252433598041534423828125</LongitudeDegrees>
            </Position>
            <AltitudeMeters>298.600006103515625</AltitudeMeters>
            <DistanceMeters>323651.05892134</DistanceMeters>
          </Trackpoint>
          <Trackpoint>
            <Time>2018-09-15T07:20:31.000Z</Time>
            <Position>
              <LatitudeDegrees>37.488874979317188262939453125</LatitudeDegrees>
              <LongitudeDegrees>-8.04124996997416019439697265625</LongitudeDegrees>
            </Position>
            <AltitudeMeters>298.600006103515625</AltitudeMeters>
            <DistanceMeters>323678.01570734</DistanceMeters>
          </Trackpoint>
          <Trackpoint>
            <Time>2018-09-15T07:20:38.000Z</Time>
            <Position>
              <LatitudeDegrees>37.4884148128330707550048828125</LatitudeDegrees>
              <LongitudeDegrees>-8.04088912904262542724609375</LongitudeDegrees>
            </Position>
            <AltitudeMeters>296.600006103515625</AltitudeMeters>
            <DistanceMeters>323738.33798899</DistanceMeters>
          </Trackpoint>
          <Trackpoint>
            <Time>2018-09-15T07:20:39.000Z</Time>
            <Position>
              <LatitudeDegrees>37.4883725680410861968994140625</LatitudeDegrees>
              <LongitudeDegrees>-8.04079332388937473297119140625</LongitudeDegrees>
            </Position>
            <AltitudeMeters>296.399993896484375</AltitudeMeters>
            <DistanceMeters>323748.01766219</DistanceMeters>
          </Trackpoint>
          <Trackpoint>
            <Time>2018-09-15T07:20:45.000Z</Time>
            <Position>
              <LatitudeDegrees>37.4881102144718170166015625</LatitudeDegrees>
              <LongitudeDegrees>-8.0402117036283016204833984375</LongitudeDegrees>
            </Position>
            <AltitudeMeters>294.79998779296875</AltitudeMeters>
            <DistanceMeters>323807.10372657</DistanceMeters>
          </Trackpoint>
          <Trackpoint>
            <Time>2018-09-15T07:20:47.000Z</Time>
            <Position>
              <LatitudeDegrees>37.48802103102207183837890625</LatitudeDegrees>
              <LongitudeDegrees>-8.04002143442630767822265625</LongitudeDegrees>
            </Position>
            <AltitudeMeters>293.600006103515625</AltitudeMeters>
            <DistanceMeters>323826.62055738</DistanceMeters>
          </Trackpoint>
          <Trackpoint>
            <Time>2018-09-15T07:20:50.000Z</Time>
            <Position>
              <LatitudeDegrees>37.4878683127462863922119140625</LatitudeDegrees>
              <LongitudeDegrees>-8.039756231009960174560546875</LongitudeDegrees>
            </Position>
            <AltitudeMeters>292.20001220703125</AltitudeMeters>
            <DistanceMeters>323855.56020958</DistanceMeters>
          </Trackpoint>
          <Trackpoint>
            <Time>2018-09-15T07:20:52.000Z</Time>
            <Position>
              <LatitudeDegrees>37.48772908933460712432861328125</LatitudeDegrees>
              <LongitudeDegrees>-8.039612062275409698486328125</LongitudeDegrees>
            </Position>
            <AltitudeMeters>291.79998779296875</AltitudeMeters>
            <DistanceMeters>323875.61602483</DistanceMeters>
          </Trackpoint>
          <Trackpoint>
            <Time>2018-09-15T07:20:54.000Z</Time>
            <Position>
              <LatitudeDegrees>37.4875665642321109771728515625</LatitudeDegrees>
              <LongitudeDegrees>-8.039513491094112396240234375</LongitudeDegrees>
            </Position>
            <AltitudeMeters>291.600006103515625</AltitudeMeters>
            <DistanceMeters>323895.69119137</DistanceMeters>
          </Trackpoint>
          <Trackpoint>
            <Time>2018-09-15T07:20:55.000Z</Time>
            <Position>
              <LatitudeDegrees>37.48748266138136386871337890625</LatitudeDegrees>
              <LongitudeDegrees>-8.03947384469211101531982421875</LongitudeDegrees>
            </Position>
            <AltitudeMeters>291.600006103515625</AltitudeMeters>
            <DistanceMeters>323905.66401755</DistanceMeters>
          </Trackpoint>
          <Trackpoint>
            <Time>2018-09-15T07:20:57.000Z</Time>
            <Position>
              <LatitudeDegrees>37.48731368221342563629150390625</LatitudeDegrees>
              <LongitudeDegrees>-8.039408214390277862548828125</LongitudeDegrees>
            </Position>
            <AltitudeMeters>291</AltitudeMeters>
            <DistanceMeters>323925.34441487</DistanceMeters>
          </Trackpoint>
          <Trackpoint>
            <Time>2018-09-15T07:21:04.000Z</Time>
            <Position>
              <LatitudeDegrees>37.48673918657004833221435546875</LatitudeDegrees>
              <LongitudeDegrees>-8.03921786136925220489501953125</LongitudeDegrees>
            </Position>
            <AltitudeMeters>293.600006103515625</AltitudeMeters>
            <DistanceMeters>323991.45999832</DistanceMeters>
          </Trackpoint>
          <Trackpoint>
            <Time>2018-09-15T07:21:11.000Z</Time>
            <Position>
              <LatitudeDegrees>37.48621079139411449432373046875</LatitudeDegrees>
              <LongitudeDegrees>-8.03903169929981231689453125</LongitudeDegrees>
            </Position>
            <AltitudeMeters>295.600006103515625</AltitudeMeters>
            <DistanceMeters>324052.52632692</DistanceMeters>
          </Trackpoint>
          <Trackpoint>
            <Time>2018-09-15T07:21:14.000Z</Time>
            <Position>
              <LatitudeDegrees>37.4860073626041412353515625</LatitudeDegrees>
              <LongitudeDegrees>-8.03896757774055004119873046875</LongitudeDegrees>
            </Position>
            <AltitudeMeters>296</AltitudeMeters>
            <DistanceMeters>324075.8657856</DistanceMeters>
          </Trackpoint>
          <Trackpoint>
            <Time>2018-09-15T07:21:19.000Z</Time>
            <Position>
              <LatitudeDegrees>37.48568122275173664093017578125</LatitudeDegrees>
              <LongitudeDegrees>-8.03885878063738346099853515625</LongitudeDegrees>
            </Position>
            <AltitudeMeters>296</AltitudeMeters>
            <DistanceMeters>324113.41613016</DistanceMeters>
          </Trackpoint>
          <Trackpoint>
            <Time>2018-09-15T07:21:27.000Z</Time>
            <Position>
              <LatitudeDegrees>37.485146038234233856201171875</LatitudeDegrees>
              <LongitudeDegrees>-8.03848343901336193084716796875</LongitudeDegrees>
            </Position>
            <AltitudeMeters>292.79998779296875</AltitudeMeters>
            <DistanceMeters>324181.58612532</DistanceMeters>
          </Trackpoint>
          <Trackpoint>
            <Time>2018-09-15T07:21:33.000Z</Time>
            <Position>
              <LatitudeDegrees>37.48474596999585628509521484375</LatitudeDegrees>
              <LongitudeDegrees>-8.0379827879369258880615234375</LongitudeDegrees>
            </Position>
            <AltitudeMeters>289.600006103515625</AltitudeMeters>
            <DistanceMeters>324244.33916586</DistanceMeters>
          </Trackpoint>
          <Trackpoint>
            <Time>2018-09-15T07:21:35.000Z</Time>
            <Position>
              <LatitudeDegrees>37.48460263945162296295166015625</LatitudeDegrees>
              <LongitudeDegrees>-8.037802912294864654541015625</LongitudeDegrees>
            </Position>
            <AltitudeMeters>288</AltitudeMeters>
            <DistanceMeters>324266.85307825</DistanceMeters>
          </Trackpoint>
          <Trackpoint>
            <Time>2018-09-15T07:21:36.000Z</Time>
            <Position>
              <LatitudeDegrees>37.48452736996114253997802734375</LatitudeDegrees>
              <LongitudeDegrees>-8.0377128906548023223876953125</LongitudeDegrees>
            </Position>
            <AltitudeMeters>287</AltitudeMeters>
            <DistanceMeters>324278.40341804</DistanceMeters>
          </Trackpoint>
          <Trackpoint>
            <Time>2018-09-15T07:21:39.000Z</Time>
            <Position>
              <LatitudeDegrees>37.484304495155811309814453125</LatitudeDegrees>
              <LongitudeDegrees>-8.03742547519505023956298828125</LongitudeDegrees>
            </Position>
            <AltitudeMeters>284.79998779296875</AltitudeMeters>
            <DistanceMeters>324313.89611848</DistanceMeters>
          </Trackpoint>
          <Trackpoint>
            <Time>2018-09-15T07:21:42.000Z</Time>
            <Position>
              <LatitudeDegrees>37.4840790219604969024658203125</LatitudeDegrees>
              <LongitudeDegrees>-8.03713093511760234832763671875</LongitudeDegrees>
            </Position>
            <AltitudeMeters>282.600006103515625</AltitudeMeters>
            <DistanceMeters>324350.04188739</DistanceMeters>
          </Trackpoint>
          <Trackpoint>
            <Time>2018-09-15T07:21:43.000Z</Time>
            <Position>
              <LatitudeDegrees>37.48400316573679447174072265625</LatitudeDegrees>
              <LongitudeDegrees>-8.03703320212662220001220703125</LongitudeDegrees>
            </Position>
            <AltitudeMeters>282.20001220703125</AltitudeMeters>
            <DistanceMeters>324362.11589062</DistanceMeters>
          </Trackpoint>
          <Trackpoint>
            <Time>2018-09-15T07:21:44.000Z</Time>
            <Position>
              <LatitudeDegrees>37.483924962580204010009765625</LatitudeDegrees>
              <LongitudeDegrees>-8.036936558783054351806640625</LongitudeDegrees>
            </Position>
            <AltitudeMeters>281.79998779296875</AltitudeMeters>
            <DistanceMeters>324374.30637741</DistanceMeters>
          </Trackpoint>
          <Trackpoint>
            <Time>2018-09-15T07:21:46.000Z</Time>
            <Position>
              <LatitudeDegrees>37.483765371143817901611328125</LatitudeDegrees>
              <LongitudeDegrees>-8.03673916496336460113525390625</LongitudeDegrees>
            </Position>
            <AltitudeMeters>280</AltitudeMeters>
            <DistanceMeters>324399.19521454</DistanceMeters>
          </Trackpoint>
          <Trackpoint>
            <Time>2018-09-15T07:21:48.000Z</Time>
            <Position>
              <LatitudeDegrees>37.48360536061227321624755859375</LatitudeDegrees>
              <LongitudeDegrees>-8.03654084913432598114013671875</LongitudeDegrees>
            </Position>
            <AltitudeMeters>279</AltitudeMeters>
            <DistanceMeters>324424.17459108</DistanceMeters>
          </Trackpoint>
          <Trackpoint>
            <Time>2018-09-15T07:21:49.000Z</Time>
            <Position>
              <LatitudeDegrees>37.4835201166570186614990234375</LatitudeDegrees>
              <LongitudeDegrees>-8.03644127212464809417724609375</LongitudeDegrees>
            </Position>
            <AltitudeMeters>278.600006103515625</AltitudeMeters>
            <DistanceMeters>324437.11149322</DistanceMeters>
          </Trackpoint>
          <Trackpoint>
            <Time>2018-09-15T07:21:51.000Z</Time>
            <Position>
              <LatitudeDegrees>37.4833531491458415985107421875</LatitudeDegrees>
              <LongitudeDegrees>-8.0362737178802490234375</LongitudeDegrees>
            </Position>
            <AltitudeMeters>278</AltitudeMeters>
            <DistanceMeters>324460.86760164</DistanceMeters>
          </Trackpoint>
          <Trackpoint>
            <Time>2018-09-15T07:21:54.000Z</Time>
            <Position>
              <LatitudeDegrees>37.48307595960795879364013671875</LatitudeDegrees>
              <LongitudeDegrees>-8.03611923940479755401611328125</LongitudeDegrees>
            </Position>
            <AltitudeMeters>279</AltitudeMeters>
            <DistanceMeters>324494.60168372</DistanceMeters>
          </Trackpoint>
          <Trackpoint>
            <Time>2018-09-15T07:21:58.000Z</Time>
            <Position>
              <LatitudeDegrees>37.4827265180647373199462890625</LatitudeDegrees>
              <LongitudeDegrees>-8.03596467711031436920166015625</LongitudeDegrees>
            </Position>
            <AltitudeMeters>281.600006103515625</AltitudeMeters>
            <DistanceMeters>324535.82137638</DistanceMeters>
          </Trackpoint>
          <Trackpoint>
            <Time>2018-09-15T07:22:00.000Z</Time>
            <Position>
              <LatitudeDegrees>37.48260657303035259246826171875</LatitudeDegrees>
              <LongitudeDegrees>-8.0358343385159969329833984375</LongitudeDegrees>
            </Position>
            <AltitudeMeters>281.79998779296875</AltitudeMeters>
            <DistanceMeters>324553.44953626</DistanceMeters>
          </Trackpoint>
          <Trackpoint>
            <Time>2018-09-15T07:22:03.000Z</Time>
            <Position>
              <LatitudeDegrees>37.48250381089746952056884765625</LatitudeDegrees>
              <LongitudeDegrees>-8.0355962924659252166748046875</LongitudeDegrees>
            </Position>
            <AltitudeMeters>283.399993896484375</AltitudeMeters>
            <DistanceMeters>324577.38419836</DistanceMeters>
          </Trackpoint>
          <Trackpoint>
            <Time>2018-09-15T07:22:06.000Z</Time>
            <Position>
              <LatitudeDegrees>37.48243206180632114410400390625</LatitudeDegrees>
              <LongitudeDegrees>-8.0353636108338832855224609375</LongitudeDegrees>
            </Position>
            <AltitudeMeters>284.600006103515625</AltitudeMeters>
            <DistanceMeters>324599.43244398</DistanceMeters>
          </Trackpoint>
          <Trackpoint>
            <Time>2018-09-15T07:22:09.000Z</Time>
            <Position>
              <LatitudeDegrees>37.48236651532351970672607421875</LatitudeDegrees>
              <LongitudeDegrees>-8.03514643572270870208740234375</LongitudeDegrees>
            </Position>
            <AltitudeMeters>285.399993896484375</AltitudeMeters>
            <DistanceMeters>324619.95447447</DistanceMeters>
          </Trackpoint>
          <Trackpoint>
            <Time>2018-09-15T07:22:11.000Z</Time>
            <Position>
              <LatitudeDegrees>37.48232527635991573333740234375</LatitudeDegrees>
              <LongitudeDegrees>-8.035012073814868927001953125</LongitudeDegrees>
            </Position>
            <AltitudeMeters>285.399993896484375</AltitudeMeters>
            <DistanceMeters>324632.67847701</DistanceMeters>
          </Trackpoint>
          <Trackpoint>
            <Time>2018-09-15T07:22:13.000Z</Time>
            <Position>
              <LatitudeDegrees>37.48228604905307292938232421875</LatitudeDegrees>
              <LongitudeDegrees>-8.03488290868699550628662109375</LongitudeDegrees>
            </Position>
            <AltitudeMeters>285.79998779296875</AltitudeMeters>
            <DistanceMeters>324644.89412325</DistanceMeters>
          </Trackpoint>
          <Trackpoint>
            <Time>2018-09-15T07:22:16.000Z</Time>
            <Position>
              <LatitudeDegrees>37.482227124273777008056640625</LatitudeDegrees>
              <LongitudeDegrees>-8.03468258120119571685791015625</LongitudeDegrees>
            </Position>
            <AltitudeMeters>286.20001220703125</AltitudeMeters>
            <DistanceMeters>324663.76404573</DistanceMeters>
          </Trackpoint>
          <Trackpoint>
            <Time>2018-09-15T07:22:19.000Z</Time>
            <Position>
              <LatitudeDegrees>37.48216384090483188629150390625</LatitudeDegrees>
              <LongitudeDegrees>-8.0344697646796703338623046875</LongitudeDegrees>
            </Position>
            <AltitudeMeters>286</AltitudeMeters>
            <DistanceMeters>324683.83696308</DistanceMeters>
          </Trackpoint>
          <Trackpoint>
            <Time>2018-09-15T07:22:22.000Z</Time>
            <Position>
              <LatitudeDegrees>37.4820938520133495330810546875</LatitudeDegrees>
              <LongitudeDegrees>-8.03424529731273651123046875</LongitudeDegrees>
            </Position>
            <AltitudeMeters>284.399993896484375</AltitudeMeters>
            <DistanceMeters>324705.13821378</DistanceMeters>
          </Trackpoint>
          <Trackpoint>
            <Time>2018-09-15T07:22:29.000Z</Time>
            <Position>
              <LatitudeDegrees>37.4818848073482513427734375</LatitudeDegrees>
              <LongitudeDegrees>-8.03360366262495517730712890625</LongitudeDegrees>
            </Position>
            <AltitudeMeters>282.600006103515625</AltitudeMeters>
            <DistanceMeters>324766.39971891</DistanceMeters>
          </Trackpoint>
          <Trackpoint>
            <Time>2018-09-15T07:22:33.000Z</Time>
            <Position>
              <LatitudeDegrees>37.48169763945043087005615234375</LatitudeDegrees>
              <LongitudeDegrees>-8.03320334292948246002197265625</LongitudeDegrees>
            </Position>
            <AltitudeMeters>281.20001220703125</AltitudeMeters>
            <DistanceMeters>324807.43805924</DistanceMeters>
          </Trackpoint>
          <Trackpoint>
            <Time>2018-09-15T07:22:35.000Z</Time>
            <Position>
              <LatitudeDegrees>37.48155330307781696319580078125</LatitudeDegrees>
              <LongitudeDegrees>-8.03303419612348079681396484375</LongitudeDegrees>
            </Position>
            <AltitudeMeters>281</AltitudeMeters>
            <DistanceMeters>324829.37585662</DistanceMeters>
          </Trackpoint>
          <Trackpoint>
            <Time>2018-09-15T07:22:37.000Z</Time>
            <Position>
              <LatitudeDegrees>37.48138901777565479278564453125</LatitudeDegrees>
              <LongitudeDegrees>-8.03288047201931476593017578125</LongitudeDegrees>
            </Position>
            <AltitudeMeters>280.399993896484375</AltitudeMeters>
            <DistanceMeters>324852.15096697</DistanceMeters>
          </Trackpoint>
          <Trackpoint>
            <Time>2018-09-15T07:22:39.000Z</Time>
            <Position>
              <LatitudeDegrees>37.48121568001806735992431640625</LatitudeDegrees>
              <LongitudeDegrees>-8.0327323637902736663818359375</LongitudeDegrees>
            </Position>
            <AltitudeMeters>277.399993896484375</AltitudeMeters>
            <DistanceMeters>324875.46061517</DistanceMeters>
          </Trackpoint>
          <Trackpoint>
            <Time>2018-09-15T07:22:41.000Z</Time>
            <Position>
              <LatitudeDegrees>37.48103681020438671112060546875</LatitudeDegrees>
              <LongitudeDegrees>-8.03258358500897884368896484375</LongitudeDegrees>
            </Position>
            <AltitudeMeters>274.399993896484375</AltitudeMeters>
            <DistanceMeters>324899.31515976</DistanceMeters>
          </Trackpoint>
          <Trackpoint>
            <Time>2018-09-15T07:22:43.000Z</Time>
            <Position>
              <LatitudeDegrees>37.48085324652493000030517578125</LatitudeDegrees>
              <LongitudeDegrees>-8.0324299447238445281982421875</LongitudeDegrees>
            </Position>
            <AltitudeMeters>271.79998779296875</AltitudeMeters>
            <DistanceMeters>324923.84217879</DistanceMeters>
          </Trackpoint>
          <Trackpoint>
            <Time>2018-09-15T07:22:45.000Z</Time>
            <Position>
              <LatitudeDegrees>37.480668760836124420166015625</LatitudeDegrees>
              <LongitudeDegrees>-8.03227630443871021270751953125</LongitudeDegrees>
            </Position>
            <AltitudeMeters>272.600006103515625</AltitudeMeters>
            <DistanceMeters>324948.45464815</DistanceMeters>
          </Trackpoint>
          <Trackpoint>
            <Time>2018-09-15T07:22:47.000Z</Time>
            <Position>
              <LatitudeDegrees>37.48048293404281139373779296875</LatitudeDegrees>
              <LongitudeDegrees>-8.03212375380098819732666015625</LongitudeDegrees>
            </Position>
            <AltitudeMeters>274</AltitudeMeters>
            <DistanceMeters>324973.13928909</DistanceMeters>
          </Trackpoint>
          <Trackpoint>
            <Time>2018-09-15T07:22:49.000Z</Time>
            <Position>
              <LatitudeDegrees>37.4802981130778789520263671875</LatitudeDegrees>
              <LongitudeDegrees>-8.0319722928106784820556640625</LongitudeDegrees>
            </Position>
            <AltitudeMeters>273.20001220703125</AltitudeMeters>
            <DistanceMeters>324997.67753469</DistanceMeters>
          </Trackpoint>
          <Trackpoint>
            <Time>2018-09-15T07:22:50.000Z</Time>
            <Position>
              <LatitudeDegrees>37.4802112765610218048095703125</LatitudeDegrees>
              <LongitudeDegrees>-8.0318988673388957977294921875</LongitudeDegrees>
            </Position>
            <AltitudeMeters>272.79998779296875</AltitudeMeters>
            <DistanceMeters>325009.31665867</DistanceMeters>
          </Trackpoint>
          <Trackpoint>
            <Time>2018-09-15T07:22:51.000Z</Time>
            <Position>
              <LatitudeDegrees>37.48012670315802097320556640625</LatitudeDegrees>
              <LongitudeDegrees>-8.0318279564380645751953125</LongitudeDegrees>
            </Position>
            <AltitudeMeters>272.399993896484375</AltitudeMeters>
            <DistanceMeters>325020.62324048</DistanceMeters>
          </Trackpoint>
          <Trackpoint>
            <Time>2018-09-15T07:22:52.000Z</Time>
            <Position>
              <LatitudeDegrees>37.48004372231662273406982421875</LatitudeDegrees>
              <LongitudeDegrees>-8.03175729699432849884033203125</LongitudeDegrees>
            </Position>
            <AltitudeMeters>271.79998779296875</AltitudeMeters>
            <DistanceMeters>325031.77016166</DistanceMeters>
          </Trackpoint>
          <Trackpoint>
            <Time>2018-09-15T07:22:53.000Z</Time>
            <Position>
              <LatitudeDegrees>37.47996233403682708740234375</LatitudeDegrees>
              <LongitudeDegrees>-8.0316859669983386993408203125</LongitudeDegrees>
            </Position>
            <AltitudeMeters>272.20001220703125</AltitudeMeters>
            <DistanceMeters>325042.80390493</DistanceMeters>
          </Trackpoint>
          <Trackpoint>
            <Time>2018-09-15T07:22:56.000Z</Time>
            <Position>
              <LatitudeDegrees>37.4797211028635501861572265625</LatitudeDegrees>
              <LongitudeDegrees>-8.0314747430384159088134765625</LongitudeDegrees>
            </Position>
            <AltitudeMeters>273</AltitudeMeters>
            <DistanceMeters>325075.49889521</DistanceMeters>
          </Trackpoint>
          <Trackpoint>
            <Time>2018-09-15T07:22:57.000Z</Time>
            <Position>
              <LatitudeDegrees>37.47964155860245227813720703125</LatitudeDegrees>
              <LongitudeDegrees>-8.031407184898853302001953125</LongitudeDegrees>
            </Position>
            <AltitudeMeters>273.20001220703125</AltitudeMeters>
            <DistanceMeters>325086.1753485</DistanceMeters>
          </Trackpoint>
          <Trackpoint>
            <Time>2018-09-15T07:23:03.000Z</Time>
            <Position>
              <LatitudeDegrees>37.47919882647693157196044921875</LatitudeDegrees>
              <LongitudeDegrees>-8.03104517050087451934814453125</LongitudeDegrees>
            </Position>
            <AltitudeMeters>274.600006103515625</AltitudeMeters>
            <DistanceMeters>325144.91738619</DistanceMeters>
          </Trackpoint>
          <Trackpoint>
            <Time>2018-09-15T07:23:07.000Z</Time>
            <Position>
              <LatitudeDegrees>37.4789697490632534027099609375</LatitudeDegrees>
              <LongitudeDegrees>-8.03085238672792911529541015625</LongitudeDegrees>
            </Position>
            <AltitudeMeters>276.399993896484375</AltitudeMeters>
            <DistanceMeters>325175.57760501</DistanceMeters>
          </Trackpoint>
          <Trackpoint>
            <Time>2018-09-15T07:23:10.000Z</Time>
            <Position>
              <LatitudeDegrees>37.47882130555808544158935546875</LatitudeDegrees>
              <LongitudeDegrees>-8.03071324713528156280517578125</LongitudeDegrees>
            </Position>
            <AltitudeMeters>277.399993896484375</AltitudeMeters>
            <DistanceMeters>325196.16926034</DistanceMeters>
          </Trackpoint>
          <Trackpoint>
            <Time>2018-09-15T07:23:11.000Z</Time>
            <Position>
              <LatitudeDegrees>37.47877788729965686798095703125</LatitudeDegrees>
              <LongitudeDegrees>-8.0306610278785228729248046875</LongitudeDegrees>
            </Position>
            <AltitudeMeters>277.79998779296875</AltitudeMeters>
            <DistanceMeters>325202.85025337</DistanceMeters>
          </Trackpoint>
          <Trackpoint>
            <Time>2018-09-15T07:23:13.000Z</Time>
            <Position>
              <LatitudeDegrees>37.47870580293238162994384765625</LatitudeDegrees>
              <LongitudeDegrees>-8.03053714334964752197265625</LongitudeDegrees>
            </Position>
            <AltitudeMeters>278.20001220703125</AltitudeMeters>
            <DistanceMeters>325216.41879045</DistanceMeters>
          </Trackpoint>
          <Trackpoint>
            <Time>2018-09-15T07:23:15.000Z</Time>
            <Position>
              <LatitudeDegrees>37.47865601442754268646240234375</LatitudeDegrees>
              <LongitudeDegrees>-8.03039339371025562286376953125</LongitudeDegrees>
            </Position>
            <AltitudeMeters>277.600006103515625</AltitudeMeters>
            <DistanceMeters>325230.27249915</DistanceMeters>
          </Trackpoint>
          <Trackpoint>
            <Time>2018-09-15T07:23:16.000Z</Time>
            <Position>
              <LatitudeDegrees>37.47863573022186756134033203125</LatitudeDegrees>
              <LongitudeDegrees>-8.030316866934299468994140625</LongitudeDegrees>
            </Position>
            <AltitudeMeters>277.399993896484375</AltitudeMeters>
            <DistanceMeters>325237.39886919</DistanceMeters>
          </Trackpoint>
          <Trackpoint>
            <Time>2018-09-15T07:23:17.000Z</Time>
            <Position>
              <LatitudeDegrees>37.478614188730716705322265625</LatitudeDegrees>
              <LongitudeDegrees>-8.03023941814899444580078125</LongitudeDegrees>
            </Position>
            <AltitudeMeters>277</AltitudeMeters>
            <DistanceMeters>325244.64710931</DistanceMeters>
          </Trackpoint>
          <Trackpoint>
            <Time>2018-09-15T07:23:25.000Z</Time>
            <Position>
              <LatitudeDegrees>37.47835074551403522491455078125</LatitudeDegrees>
              <LongitudeDegrees>-8.029555790126323699951171875</LongitudeDegrees>
            </Position>
            <AltitudeMeters>272</AltitudeMeters>
            <DistanceMeters>325311.77283958</DistanceMeters>
          </Trackpoint>
          <Trackpoint>
            <Time>2018-09-15T07:23:29.000Z</Time>
            <Position>
              <LatitudeDegrees>37.478177659213542938232421875</LatitudeDegrees>
              <LongitudeDegrees>-8.02917952649295330047607421875</LongitudeDegrees>
            </Position>
            <AltitudeMeters>269.79998779296875</AltitudeMeters>
            <DistanceMeters>325350.18714645</DistanceMeters>
          </Trackpoint>
          <Trackpoint>
            <Time>2018-09-15T07:23:30.000Z</Time>
            <Position>
              <LatitudeDegrees>37.4781312234699726104736328125</LatitudeDegrees>
              <LongitudeDegrees>-8.02908145822584629058837890625</LongitudeDegrees>
            </Position>
            <AltitudeMeters>269.399993896484375</AltitudeMeters>
            <DistanceMeters>325360.27431163</DistanceMeters>
          </Trackpoint>
          <Trackpoint>
            <Time>2018-09-15T07:23:31.000Z</Time>
            <Position>
              <LatitudeDegrees>37.478084452450275421142578125</LatitudeDegrees>
              <LongitudeDegrees>-8.02898087538778781890869140625</LongitudeDegrees>
            </Position>
            <AltitudeMeters>269</AltitudeMeters>
            <DistanceMeters>325370.5714548</DistanceMeters>
          </Trackpoint>
          <Trackpoint>
            <Time>2018-09-15T07:23:33.000Z</Time>
            <Position>
              <LatitudeDegrees>37.477989904582500457763671875</LatitudeDegrees>
              <LongitudeDegrees>-8.02877602167427539825439453125</LongitudeDegrees>
            </Position>
            <AltitudeMeters>268.20001220703125</AltitudeMeters>
            <DistanceMeters>325391.503448</DistanceMeters>
          </Trackpoint>
          <Trackpoint>
            <Time>2018-09-15T07:23:36.000Z</Time>
            <Position>
              <LatitudeDegrees>37.4778194166719913482666015625</LatitudeDegrees>
              <LongitudeDegrees>-8.02847309969365596771240234375</LongitudeDegrees>
            </Position>
            <AltitudeMeters>264.600006103515625</AltitudeMeters>
            <DistanceMeters>325424.3057008</DistanceMeters>
          </Trackpoint>
          <Trackpoint>
            <Time>2018-09-15T07:23:37.000Z</Time>
            <Position>
              <LatitudeDegrees>37.4777483381330966949462890625</LatitudeDegrees>
              <LongitudeDegrees>-8.02838291041553020477294921875</LongitudeDegrees>
            </Position>
            <AltitudeMeters>263.79998779296875</AltitudeMeters>
            <DistanceMeters>325435.53333934</DistanceMeters>
          </Trackpoint>
          <Trackpoint>
            <Time>2018-09-15T07:23:40.000Z</Time>
            <Position>
              <LatitudeDegrees>37.47749864123761653900146484375</LatitudeDegrees>
              <LongitudeDegrees>-8.02815844304859638214111328125</LongitudeDegrees>
            </Position>
            <AltitudeMeters>262.399993896484375</AltitudeMeters>
            <DistanceMeters>325469.67253787</DistanceMeters>
          </Trackpoint>
          <Trackpoint>
            <Time>2018-09-15T07:23:43.000Z</Time>
            <Position>
              <LatitudeDegrees>37.47722639702260494232177734375</LatitudeDegrees>
              <LongitudeDegrees>-8.02796867676079273223876953125</LongitudeDegrees>
            </Position>
            <AltitudeMeters>262.600006103515625</AltitudeMeters>
            <DistanceMeters>325504.30113835</DistanceMeters>
          </Trackpoint>
          <Trackpoint>
            <Time>2018-09-15T07:23:46.000Z</Time>
            <Position>
              <LatitudeDegrees>37.47694795019924640655517578125</LatitudeDegrees>
              <LongitudeDegrees>-8.02779081277549266815185546875</LongitudeDegrees>
            </Position>
            <AltitudeMeters>261.600006103515625</AltitudeMeters>
            <DistanceMeters>325539.04740664</DistanceMeters>
          </Trackpoint>
          <Trackpoint>
            <Time>2018-09-15T07:23:47.000Z</Time>
            <Position>
              <LatitudeDegrees>37.47685692273080348968505859375</LatitudeDegrees>
              <LongitudeDegrees>-8.0277303792536258697509765625</LongitudeDegrees>
            </Position>
            <AltitudeMeters>261.20001220703125</AltitudeMeters>
            <DistanceMeters>325550.49881573</DistanceMeters>
          </Trackpoint>
          <Trackpoint>
            <Time>2018-09-15T07:23:49.000Z</Time>
            <Position>
              <LatitudeDegrees>37.4766828306019306182861328125</LatitudeDegrees>
              <LongitudeDegrees>-8.02759132348001003265380859375</LongitudeDegrees>
            </Position>
            <AltitudeMeters>260</AltitudeMeters>
            <DistanceMeters>325573.44063422</DistanceMeters>
          </Trackpoint>
          <Trackpoint>
            <Time>2018-09-15T07:23:50.000Z</Time>
            <Position>
              <LatitudeDegrees>37.47660881839692592620849609375</LatitudeDegrees>
              <LongitudeDegrees>-8.02749845199286937713623046875</LongitudeDegrees>
            </Position>
            <AltitudeMeters>260.399993896484375</AltitudeMeters>
            <DistanceMeters>325585.0661731</DistanceMeters>
          </Trackpoint>
          <Trackpoint>
            <Time>2018-09-15T07:23:52.000Z</Time>
            <Position>
              <LatitudeDegrees>37.47651997022330760955810546875</LatitudeDegrees>
              <LongitudeDegrees>-8.0272599868476390838623046875</LongitudeDegrees>
            </Position>
            <AltitudeMeters>260.600006103515625</AltitudeMeters>
            <DistanceMeters>325608.33549719</DistanceMeters>
          </Trackpoint>
          <Trackpoint>
            <Time>2018-09-15T07:23:55.000Z</Time>
            <Position>
              <LatitudeDegrees>37.47655651532113552093505859375</LatitudeDegrees>
              <LongitudeDegrees>-8.02689294330775737762451171875</LongitudeDegrees>
            </Position>
            <AltitudeMeters>259.399993896484375</AltitudeMeters>
            <DistanceMeters>325641.01045745</DistanceMeters>
          </Trackpoint>
          <Trackpoint>
            <Time>2018-09-15T07:23:56.000Z</Time>
            <Position>
              <LatitudeDegrees>37.4765959940850734710693359375</LatitudeDegrees>
              <LongitudeDegrees>-8.0267818830907344818115234375</LongitudeDegrees>
            </Position>
            <AltitudeMeters>258.399993896484375</AltitudeMeters>
            <DistanceMeters>325651.75982293</DistanceMeters>
          </Trackpoint>
          <Trackpoint>
            <Time>2018-09-15T07:23:57.000Z</Time>
            <Position>
              <LatitudeDegrees>37.4766410887241363525390625</LatitudeDegrees>
              <LongitudeDegrees>-8.026681803166866302490234375</LongitudeDegrees>
            </Position>
            <AltitudeMeters>258.20001220703125</AltitudeMeters>
            <DistanceMeters>325661.92546088</DistanceMeters>
          </Trackpoint>
          <Trackpoint>
            <Time>2018-09-15T07:23:58.000Z</Time>
            <Position>
              <LatitudeDegrees>37.47668869793415069580078125</LatitudeDegrees>
              <LongitudeDegrees>-8.02658549509942531585693359375</LongitudeDegrees>
            </Position>
            <AltitudeMeters>258.399993896484375</AltitudeMeters>
            <DistanceMeters>325671.94751357</DistanceMeters>
          </Trackpoint>
          <Trackpoint>
            <Time>2018-09-15T07:23:59.000Z</Time>
            <Position>
              <LatitudeDegrees>37.47673873789608478546142578125</LatitudeDegrees>
              <LongitudeDegrees>-8.02649061195552349090576171875</LongitudeDegrees>
            </Position>
            <AltitudeMeters>259</AltitudeMeters>
            <DistanceMeters>325682.0104792</DistanceMeters>
          </Trackpoint>
          <Trackpoint>
            <Time>2018-09-15T07:24:00.000Z</Time>
            <Position>
              <LatitudeDegrees>37.47678567655384540557861328125</LatitudeDegrees>
              <LongitudeDegrees>-8.0263949744403362274169921875</LongitudeDegrees>
            </Position>
            <AltitudeMeters>259.399993896484375</AltitudeMeters>
            <DistanceMeters>325691.94338488</DistanceMeters>
          </Trackpoint>
          <Trackpoint>
            <Time>2018-09-15T07:24:02.000Z</Time>
            <Position>
              <LatitudeDegrees>37.476829178631305694580078125</LatitudeDegrees>
              <LongitudeDegrees>-8.02618651650846004486083984375</LongitudeDegrees>
            </Position>
            <AltitudeMeters>260</AltitudeMeters>
            <DistanceMeters>325710.98243235</DistanceMeters>
          </Trackpoint>
          <Trackpoint>
            <Time>2018-09-15T07:24:04.000Z</Time>
            <Position>
              <LatitudeDegrees>37.47677511535584926605224609375</LatitudeDegrees>
              <LongitudeDegrees>-8.02598451264202594757080078125</LongitudeDegrees>
            </Position>
            <AltitudeMeters>260.20001220703125</AltitudeMeters>
            <DistanceMeters>325729.81259384</DistanceMeters>
          </Trackpoint>
          <Trackpoint>
            <Time>2018-09-15T07:24:05.000Z</Time>
            <Position>
              <LatitudeDegrees>37.47672901488840579986572265625</LatitudeDegrees>
              <LongitudeDegrees>-8.025896586477756500244140625</LongitudeDegrees>
            </Position>
            <AltitudeMeters>260.399993896484375</AltitudeMeters>
            <DistanceMeters>325739.1213324</DistanceMeters>
          </Trackpoint>
          <Trackpoint>
            <Time>2018-09-15T07:24:06.000Z</Time>
            <Position>
              <LatitudeDegrees>37.47667972929775714874267578125</LatitudeDegrees>
              <LongitudeDegrees>-8.02580933086574077606201171875</LongitudeDegrees>
            </Position>
            <AltitudeMeters>260.20001220703125</AltitudeMeters>
            <DistanceMeters>325748.58114517</DistanceMeters>
          </Trackpoint>
          <Trackpoint>
            <Time>2018-09-15T07:24:09.000Z</Time>
            <Position>
              <LatitudeDegrees>37.47655165381729602813720703125</LatitudeDegrees>
              <LongitudeDegrees>-8.0255457200109958648681640625</LongitudeDegrees>
            </Position>
            <AltitudeMeters>260</AltitudeMeters>
            <DistanceMeters>325775.88276838</DistanceMeters>
          </Trackpoint>
          <Trackpoint>
            <Time>2018-09-15T07:24:12.000Z</Time>
            <Position>
              <LatitudeDegrees>37.4764793179929256439208984375</LatitudeDegrees>
              <LongitudeDegrees>-8.02526392042636871337890625</LongitudeDegrees>
            </Position>
            <AltitudeMeters>260</AltitudeMeters>
            <DistanceMeters>325802.04360731</DistanceMeters>
          </Trackpoint>
          <Trackpoint>
            <Time>2018-09-15T07:24:13.000Z</Time>
            <Position>
              <LatitudeDegrees>37.4764652363955974578857421875</LatitudeDegrees>
              <LongitudeDegrees>-8.0251680314540863037109375</LongitudeDegrees>
            </Position>
            <AltitudeMeters>260</AltitudeMeters>
            <DistanceMeters>325810.65650914</DistanceMeters>
          </Trackpoint>
          <Trackpoint>
            <Time>2018-09-15T07:24:15.000Z</Time>
            <Position>
              <LatitudeDegrees>37.476444281637668609619140625</LatitudeDegrees>
              <LongitudeDegrees>-8.02497616969048976898193359375</LongitudeDegrees>
            </Position>
            <AltitudeMeters>259.79998779296875</AltitudeMeters>
            <DistanceMeters>325827.7634293</DistanceMeters>
          </Trackpoint>
          <Trackpoint>
            <Time>2018-09-15T07:24:21.000Z</Time>
            <Position>
              <LatitudeDegrees>37.47639239765703678131103515625</LatitudeDegrees>
              <LongitudeDegrees>-8.024439476430416107177734375</LongitudeDegrees>
            </Position>
            <AltitudeMeters>259</AltitudeMeters>
            <DistanceMeters>325875.51981345</DistanceMeters>
          </Trackpoint>
          <Trackpoint>
            <Time>2018-09-15T07:24:29.000Z</Time>
            <Position>
              <LatitudeDegrees>37.47640681453049182891845703125</LatitudeDegrees>
              <LongitudeDegrees>-8.02374319173395633697509765625</LongitudeDegrees>
            </Position>
            <AltitudeMeters>259</AltitudeMeters>
            <DistanceMeters>325937.04342846</DistanceMeters>
          </Trackpoint>
          <Trackpoint>
            <Time>2018-09-15T07:24:30.000Z</Time>
            <Position>
              <LatitudeDegrees>37.4764291942119598388671875</LatitudeDegrees>
              <LongitudeDegrees>-8.02366004325449466705322265625</LongitudeDegrees>
            </Position>
            <AltitudeMeters>259.20001220703125</AltitudeMeters>
            <DistanceMeters>325944.79961111</DistanceMeters>
          </Trackpoint>
          <Trackpoint>
            <Time>2018-09-15T07:24:38.000Z</Time>
            <Position>
              <LatitudeDegrees>37.47664905153214931488037109375</LatitudeDegrees>
              <LongitudeDegrees>-8.02301044575870037078857421875</LongitudeDegrees>
            </Position>
            <AltitudeMeters>259.399993896484375</AltitudeMeters>
            <DistanceMeters>326007.17840654</DistanceMeters>
          </Trackpoint>
          <Trackpoint>
            <Time>2018-09-15T07:24:39.000Z</Time>
            <Position>
              <LatitudeDegrees>37.47667117975652217864990234375</LatitudeDegrees>
              <LongitudeDegrees>-8.02292830310761928558349609375</LongitudeDegrees>
            </Position>
            <AltitudeMeters>259.600006103515625</AltitudeMeters>
            <DistanceMeters>326014.84088376</DistanceMeters>
          </Trackpoint>
          <Trackpoint>
            <Time>2018-09-15T07:24:43.000Z</Time>
            <Position>
              <LatitudeDegrees>37.47667419724166393280029296875</LatitudeDegrees>
              <LongitudeDegrees>-8.02257902920246124267578125</LongitudeDegrees>
            </Position>
            <AltitudeMeters>259.20001220703125</AltitudeMeters>
            <DistanceMeters>326045.69384971</DistanceMeters>
          </Trackpoint>
          <Trackpoint>
            <Time>2018-09-15T07:24:52.000Z</Time>
            <Position>
              <LatitudeDegrees>37.4766303598880767822265625</LatitudeDegrees>
              <LongitudeDegrees>-8.021843768656253814697265625</LongitudeDegrees>
            </Position>
            <AltitudeMeters>261.600006103515625</AltitudeMeters>
            <DistanceMeters>326110.82202908</DistanceMeters>
          </Trackpoint>
          <Trackpoint>
            <Time>2018-09-15T07:25:01.000Z</Time>
            <Position>
              <LatitudeDegrees>37.4766674079000949859619140625</LatitudeDegrees>
              <LongitudeDegrees>-8.021151088178157806396484375</LongitudeDegrees>
            </Position>
            <AltitudeMeters>262.79998779296875</AltitudeMeters>
            <DistanceMeters>326172.14489647</DistanceMeters>
          </Trackpoint>
          <Trackpoint>
            <Time>2018-09-15T07:25:05.000Z</Time>
            <Position>
              <LatitudeDegrees>37.4766875244677066802978515625</LatitudeDegrees>
              <LongitudeDegrees>-8.02089116536080837249755859375</LongitudeDegrees>
            </Position>
            <AltitudeMeters>263.20001220703125</AltitudeMeters>
            <DistanceMeters>326195.21271701</DistanceMeters>
          </Trackpoint>
          <Trackpoint>
            <Time>2018-09-15T07:25:09.000Z</Time>
            <Position>
              <LatitudeDegrees>37.476701103150844573974609375</LatitudeDegrees>
              <LongitudeDegrees>-8.02064306102693080902099609375</LongitudeDegrees>
            </Position>
            <AltitudeMeters>263.600006103515625</AltitudeMeters>
            <DistanceMeters>326217.17972011</DistanceMeters>
          </Trackpoint>
          <Trackpoint>
            <Time>2018-09-15T07:25:12.000Z</Time>
            <Position>
              <LatitudeDegrees>37.4767039529979228973388671875</LatitudeDegrees>
              <LongitudeDegrees>-8.02045346237719058990478515625</LongitudeDegrees>
            </Position>
            <AltitudeMeters>263.79998779296875</AltitudeMeters>
            <DistanceMeters>326233.92977907</DistanceMeters>
          </Trackpoint>
          <Trackpoint>
            <Time>2018-09-15T07:25:13.000Z</Time>
            <Position>
              <LatitudeDegrees>37.4766989238560199737548828125</LatitudeDegrees>
              <LongitudeDegrees>-8.0203895084559917449951171875</LongitudeDegrees>
            </Position>
            <AltitudeMeters>263.79998779296875</AltitudeMeters>
            <DistanceMeters>326239.60757555</DistanceMeters>
          </Trackpoint>
          <Trackpoint>
            <Time>2018-09-15T07:25:17.000Z</Time>
            <Position>
              <LatitudeDegrees>37.47662206180393695831298828125</LatitudeDegrees>
              <LongitudeDegrees>-8.02014903165400028228759765625</LongitudeDegrees>
            </Position>
            <AltitudeMeters>263.600006103515625</AltitudeMeters>
            <DistanceMeters>326262.50684495</DistanceMeters>
          </Trackpoint>
          <Trackpoint>
            <Time>2018-09-15T07:25:19.000Z</Time>
            <Position>
              <LatitudeDegrees>37.47655752114951610565185546875</LatitudeDegrees>
              <LongitudeDegrees>-8.02005046047270298004150390625</LongitudeDegrees>
            </Position>
            <AltitudeMeters>263.399993896484375</AltitudeMeters>
            <DistanceMeters>326273.79464273</DistanceMeters>
          </Trackpoint>
          <Trackpoint>
            <Time>2018-09-15T07:25:25.000Z</Time>
            <Position>
              <LatitudeDegrees>37.4763540923595428466796875</LatitudeDegrees>
              <LongitudeDegrees>-8.01979397423565387725830078125</LongitudeDegrees>
            </Position>
            <AltitudeMeters>264.20001220703125</AltitudeMeters>
            <DistanceMeters>326305.82470743</DistanceMeters>
          </Trackpoint>
          <Trackpoint>
            <Time>2018-09-15T07:25:28.000Z</Time>
            <Position>
              <LatitudeDegrees>37.47624923475086688995361328125</LatitudeDegrees>
              <LongitudeDegrees>-8.01967017352581024169921875</LongitudeDegrees>
            </Position>
            <AltitudeMeters>264.600006103515625</AltitudeMeters>
            <DistanceMeters>326321.81801682</DistanceMeters>
          </Trackpoint>
          <Trackpoint>
            <Time>2018-09-15T07:25:31.000Z</Time>
            <Position>
              <LatitudeDegrees>37.47616223059594631195068359375</LatitudeDegrees>
              <LongitudeDegrees>-8.01953631453216075897216796875</LongitudeDegrees>
            </Position>
            <AltitudeMeters>264.79998779296875</AltitudeMeters>
            <DistanceMeters>326337.10107795</DistanceMeters>
          </Trackpoint>
          <Trackpoint>
            <Time>2018-09-15T07:25:33.000Z</Time>
            <Position>
              <LatitudeDegrees>37.47610908932983875274658203125</LatitudeDegrees>
              <LongitudeDegrees>-8.01944143138825893402099609375</LongitudeDegrees>
            </Position>
            <AltitudeMeters>265</AltitudeMeters>
            <DistanceMeters>326347.35868248</DistanceMeters>
          </Trackpoint>
          <Trackpoint>
            <Time>2018-09-15T07:25:40.000Z</Time>
            <Position>
              <LatitudeDegrees>37.47597296722233295440673828125</LatitudeDegrees>
              <LongitudeDegrees>-8.01907463930547237396240234375</LongitudeDegrees>
            </Position>
            <AltitudeMeters>266.600006103515625</AltitudeMeters>
            <DistanceMeters>326383.12510178</DistanceMeters>
          </Trackpoint>
          <Trackpoint>
            <Time>2018-09-15T07:25:43.000Z</Time>
            <Position>
              <LatitudeDegrees>37.47595234774053096771240234375</LatitudeDegrees>
              <LongitudeDegrees>-8.01890314556658267974853515625</LongitudeDegrees>
            </Position>
            <AltitudeMeters>267.399993896484375</AltitudeMeters>
            <DistanceMeters>326398.44622566</DistanceMeters>
          </Trackpoint>
          <Trackpoint>
            <Time>2018-09-15T07:25:48.000Z</Time>
            <Position>
              <LatitudeDegrees>37.47596944682300090789794921875</LatitudeDegrees>
              <LongitudeDegrees>-8.01862268708646297454833984375</LongitudeDegrees>
            </Position>
            <AltitudeMeters>269.20001220703125</AltitudeMeters>
            <DistanceMeters>326423.29203187</DistanceMeters>
          </Trackpoint>
          <Trackpoint>
            <Time>2018-09-15T07:25:55.000Z</Time>
            <Position>
              <LatitudeDegrees>37.476039268076419830322265625</LatitudeDegrees>
              <LongitudeDegrees>-8.01824835129082202911376953125</LongitudeDegrees>
            </Position>
            <AltitudeMeters>272.20001220703125</AltitudeMeters>
            <DistanceMeters>326457.25820072</DistanceMeters>
          </Trackpoint>
          <Trackpoint>
            <Time>2018-09-15T07:25:58.000Z</Time>
            <Position>
              <LatitudeDegrees>37.4760561995208263397216796875</LatitudeDegrees>
              <LongitudeDegrees>-8.01809244789183139801025390625</LongitudeDegrees>
            </Position>
            <AltitudeMeters>273.600006103515625</AltitudeMeters>
            <DistanceMeters>326471.15778652</DistanceMeters>
          </Trackpoint>
          <Trackpoint>
            <Time>2018-09-15T07:25:59.000Z</Time>
            <Position>
              <LatitudeDegrees>37.476057708263397216796875</LatitudeDegrees>
              <LongitudeDegrees>-8.01803813315927982330322265625</LongitudeDegrees>
            </Position>
            <AltitudeMeters>274.20001220703125</AltitudeMeters>
            <DistanceMeters>326475.95828182</DistanceMeters>
          </Trackpoint>
          <Trackpoint>
            <Time>2018-09-15T07:26:03.000Z</Time>
            <Position>
              <LatitudeDegrees>37.47601269744336605072021484375</LatitudeDegrees>
              <LongitudeDegrees>-8.017833866178989410400390625</LongitudeDegrees>
            </Position>
            <AltitudeMeters>275.399993896484375</AltitudeMeters>
            <DistanceMeters>326494.68384986</DistanceMeters>
          </Trackpoint>
          <Trackpoint>
            <Time>2018-09-15T07:26:08.000Z</Time>
            <Position>
              <LatitudeDegrees>37.47585277073085308074951171875</LatitudeDegrees>
              <LongitudeDegrees>-8.017664216458797454833984375</LongitudeDegrees>
            </Position>
            <AltitudeMeters>275.600006103515625</AltitudeMeters>
            <DistanceMeters>326517.95200972</DistanceMeters>
          </Trackpoint>
          <Trackpoint>
            <Time>2018-09-15T07:26:09.000Z</Time>
            <Position>
              <LatitudeDegrees>37.4758151359856128692626953125</LatitudeDegrees>
              <LongitudeDegrees>-8.01763915456831455230712890625</LongitudeDegrees>
            </Position>
            <AltitudeMeters>275.399993896484375</AltitudeMeters>
            <DistanceMeters>326522.68906999</DistanceMeters>
          </Trackpoint>
          <Trackpoint>
            <Time>2018-09-15T07:26:15.000Z</Time>
            <Position>
              <LatitudeDegrees>37.47558689676225185394287109375</LatitudeDegrees>
              <LongitudeDegrees>-8.01749900914728641510009765625</LongitudeDegrees>
            </Position>
            <AltitudeMeters>276.399993896484375</AltitudeMeters>
            <DistanceMeters>326550.94813597</DistanceMeters>
          </Trackpoint>
          <Trackpoint>
            <Time>2018-09-15T07:26:20.000Z</Time>
            <Position>
              <LatitudeDegrees>37.47539780102670192718505859375</LatitudeDegrees>
              <LongitudeDegrees>-8.017384596168994903564453125</LongitudeDegrees>
            </Position>
            <AltitudeMeters>277.399993896484375</AltitudeMeters>
            <DistanceMeters>326574.2953314</DistanceMeters>
          </Trackpoint>
          <Trackpoint>
            <Time>2018-09-15T07:26:27.000Z</Time>
            <Position>
              <LatitudeDegrees>37.4751390516757965087890625</LatitudeDegrees>
              <LongitudeDegrees>-8.01721461117267608642578125</LongitudeDegrees>
            </Position>
            <AltitudeMeters>278.20001220703125</AltitudeMeters>
            <DistanceMeters>326606.77389987</DistanceMeters>
          </Trackpoint>
          <Trackpoint>
            <Time>2018-09-15T07:26:29.000Z</Time>
            <Position>
              <LatitudeDegrees>37.4750746786594390869140625</LatitudeDegrees>
              <LongitudeDegrees>-8.01715065725147724151611328125</LongitudeDegrees>
            </Position>
            <AltitudeMeters>278.600006103515625</AltitudeMeters>
            <DistanceMeters>326615.89745426</DistanceMeters>
          </Trackpoint>
          <Trackpoint>
            <Time>2018-09-15T07:26:33.000Z</Time>
            <Position>
              <LatitudeDegrees>37.47498088516294956207275390625</LatitudeDegrees>
              <LongitudeDegrees>-8.01698083989322185516357421875</LongitudeDegrees>
            </Position>
            <AltitudeMeters>279.79998779296875</AltitudeMeters>
            <DistanceMeters>326634.1725022</DistanceMeters>
          </Trackpoint>
          <Trackpoint>
            <Time>2018-09-15T07:26:35.000Z</Time>
            <Position>
              <LatitudeDegrees>37.4749517999589443206787109375</LatitudeDegrees>
              <LongitudeDegrees>-8.0168828554451465606689453125</LongitudeDegrees>
            </Position>
            <AltitudeMeters>280.79998779296875</AltitudeMeters>
            <DistanceMeters>326643.41308675</DistanceMeters>
          </Trackpoint>
          <Trackpoint>
            <Time>2018-09-15T07:26:42.000Z</Time>
            <Position>
              <LatitudeDegrees>37.4748860858380794525146484375</LatitudeDegrees>
              <LongitudeDegrees>-8.0165117047727108001708984375</LongitudeDegrees>
            </Position>
            <AltitudeMeters>282.79998779296875</AltitudeMeters>
            <DistanceMeters>326677.00351815</DistanceMeters>
          </Trackpoint>
          <Trackpoint>
            <Time>2018-09-15T07:26:46.000Z</Time>
            <Position>
              <LatitudeDegrees>37.4748547375202178955078125</LatitudeDegrees>
              <LongitudeDegrees>-8.0162981338798999786376953125</LongitudeDegrees>
            </Position>
            <AltitudeMeters>283.20001220703125</AltitudeMeters>
            <DistanceMeters>326696.18856222</DistanceMeters>
          </Trackpoint>
          <Trackpoint>
            <Time>2018-09-15T07:26:52.000Z</Time>
            <Position>
              <LatitudeDegrees>37.47481090016663074493408203125</LatitudeDegrees>
              <LongitudeDegrees>-8.0159806273877620697021484375</LongitudeDegrees>
            </Position>
            <AltitudeMeters>284.20001220703125</AltitudeMeters>
            <DistanceMeters>326724.65568572</DistanceMeters>
          </Trackpoint>
          <Trackpoint>
            <Time>2018-09-15T07:26:58.000Z</Time>
            <Position>
              <LatitudeDegrees>37.47476396150887012481689453125</LatitudeDegrees>
              <LongitudeDegrees>-8.0156637914478778839111328125</LongitudeDegrees>
            </Position>
            <AltitudeMeters>285.399993896484375</AltitudeMeters>
            <DistanceMeters>326753.12582256</DistanceMeters>
          </Trackpoint>
          <Trackpoint>
            <Time>2018-09-15T07:27:04.000Z</Time>
            <Position>
              <LatitudeDegrees>37.47471987269818782806396484375</LatitudeDegrees>
              <LongitudeDegrees>-8.0153399147093296051025390625</LongitudeDegrees>
            </Position>
            <AltitudeMeters>286.79998779296875</AltitudeMeters>
            <DistanceMeters>326782.15208984</DistanceMeters>
          </Trackpoint>
          <Trackpoint>
            <Time>2018-09-15T07:27:10.000Z</Time>
            <Position>
              <LatitudeDegrees>37.47466765344142913818359375</LatitudeDegrees>
              <LongitudeDegrees>-8.0150157026946544647216796875</LongitudeDegrees>
            </Position>
            <AltitudeMeters>287.399993896484375</AltitudeMeters>
            <DistanceMeters>326811.37400198</DistanceMeters>
          </Trackpoint>
          <Trackpoint>
            <Time>2018-09-15T07:27:16.000Z</Time>
            <Position>
              <LatitudeDegrees>37.47460403479635715484619140625</LatitudeDegrees>
              <LongitudeDegrees>-8.014692328870296478271484375</LongitudeDegrees>
            </Position>
            <AltitudeMeters>286</AltitudeMeters>
            <DistanceMeters>326840.80284109</DistanceMeters>
          </Trackpoint>
          <Trackpoint>
            <Time>2018-09-15T07:27:20.000Z</Time>
            <Position>
              <LatitudeDegrees>37.4745223112404346466064453125</LatitudeDegrees>
              <LongitudeDegrees>-8.0144869722425937652587890625</LongitudeDegrees>
            </Position>
            <AltitudeMeters>285.600006103515625</AltitudeMeters>
            <DistanceMeters>326861.0954394</DistanceMeters>
          </Trackpoint>
          <Trackpoint>
            <Time>2018-09-15T07:27:27.000Z</Time>
            <Position>
              <LatitudeDegrees>37.47422777116298675537109375</LatitudeDegrees>
              <LongitudeDegrees>-8.014285974204540252685546875</LongitudeDegrees>
            </Position>
            <AltitudeMeters>285.79998779296875</AltitudeMeters>
            <DistanceMeters>326898.37729097</DistanceMeters>
          </Trackpoint>
          <Trackpoint>
            <Time>2018-09-15T07:27:29.000Z</Time>
            <Position>
              <LatitudeDegrees>37.4741263501346111297607421875</LatitudeDegrees>
              <LongitudeDegrees>-8.014276921749114990234375</LongitudeDegrees>
            </Position>
            <AltitudeMeters>286.20001220703125</AltitudeMeters>
            <DistanceMeters>326909.69385158</DistanceMeters>
          </Trackpoint>
          <Trackpoint>
            <Time>2018-09-15T07:27:38.000Z</Time>
            <Position>
              <LatitudeDegrees>37.4736448936164379119873046875</LatitudeDegrees>
              <LongitudeDegrees>-8.01427298225462436676025390625</LongitudeDegrees>
            </Position>
            <AltitudeMeters>286.20001220703125</AltitudeMeters>
            <DistanceMeters>326963.28201007</DistanceMeters>
          </Trackpoint>
          <Trackpoint>
            <Time>2018-09-15T07:27:47.000Z</Time>
            <Position>
              <LatitudeDegrees>37.47313938103616237640380859375</LatitudeDegrees>
              <LongitudeDegrees>-8.01428589038550853729248046875</LongitudeDegrees>
            </Position>
            <AltitudeMeters>286.399993896484375</AltitudeMeters>
            <DistanceMeters>327019.55812685</DistanceMeters>
          </Trackpoint>
          <Trackpoint>
            <Time>2018-09-15T07:27:53.000Z</Time>
            <Position>
              <LatitudeDegrees>37.472796142101287841796875</LatitudeDegrees>
              <LongitudeDegrees>-8.01429041661322116851806640625</LongitudeDegrees>
            </Position>
            <AltitudeMeters>286.79998779296875</AltitudeMeters>
            <DistanceMeters>327057.76335708</DistanceMeters>
          </Trackpoint>
          <Trackpoint>
            <Time>2018-09-15T07:28:03.000Z</Time>
            <Position>
              <LatitudeDegrees>37.47223748825490474700927734375</LatitudeDegrees>
              <LongitudeDegrees>-8.01416770555078983306884765625</LongitudeDegrees>
            </Position>
            <AltitudeMeters>288.79998779296875</AltitudeMeters>
            <DistanceMeters>327120.88041265</DistanceMeters>
          </Trackpoint>
          <Trackpoint>
            <Time>2018-09-15T07:28:13.000Z</Time>
            <Position>
              <LatitudeDegrees>37.47177078388631343841552734375</LatitudeDegrees>
              <LongitudeDegrees>-8.0137228779494762420654296875</LongitudeDegrees>
            </Position>
            <AltitudeMeters>290.20001220703125</AltitudeMeters>
            <DistanceMeters>327186.01330598</DistanceMeters>
          </Trackpoint>
          <Trackpoint>
            <Time>2018-09-15T07:28:23.000Z</Time>
            <Position>
              <LatitudeDegrees>37.4713318236172199249267578125</LatitudeDegrees>
              <LongitudeDegrees>-8.01325759850442409515380859375</LongitudeDegrees>
            </Position>
            <AltitudeMeters>290.600006103515625</AltitudeMeters>
            <DistanceMeters>327249.85909572</DistanceMeters>
          </Trackpoint>
          <Trackpoint>
            <Time>2018-09-15T07:28:27.000Z</Time>
            <Position>
              <LatitudeDegrees>37.4711638502776622772216796875</LatitudeDegrees>
              <LongitudeDegrees>-8.0130818299949169158935546875</LongitudeDegrees>
            </Position>
            <AltitudeMeters>291.399993896484375</AltitudeMeters>
            <DistanceMeters>327274.16142318</DistanceMeters>
          </Trackpoint>
          <Trackpoint>
            <Time>2018-09-15T07:28:33.000Z</Time>
            <Position>
              <LatitudeDegrees>37.47091918252408504486083984375</LatitudeDegrees>
              <LongitudeDegrees>-8.012828864157199859619140625</LongitudeDegrees>
            </Position>
            <AltitudeMeters>289.600006103515625</AltitudeMeters>
            <DistanceMeters>327309.38827607</DistanceMeters>
          </Trackpoint>
          <Trackpoint>
            <Time>2018-09-15T07:28:38.000Z</Time>
            <Position>
              <LatitudeDegrees>37.470705695450305938720703125</LatitudeDegrees>
              <LongitudeDegrees>-8.01264672540128231048583984375</LongitudeDegrees>
            </Position>
            <AltitudeMeters>288.79998779296875</AltitudeMeters>
            <DistanceMeters>327338.08461314</DistanceMeters>
          </Trackpoint>
          <Trackpoint>
            <Time>2018-09-15T07:28:42.000Z</Time>
            <Position>
              <LatitudeDegrees>37.4705258198082447052001953125</LatitudeDegrees>
              <LongitudeDegrees>-8.01254220306873321533203125</LongitudeDegrees>
            </Position>
            <AltitudeMeters>289.600006103515625</AltitudeMeters>
            <DistanceMeters>327360.13163006</DistanceMeters>
          </Trackpoint>
          <Trackpoint>
            <Time>2018-09-15T07:28:47.000Z</Time>
            <Position>
              <LatitudeDegrees>37.4702922999858856201171875</LatitudeDegrees>
              <LongitudeDegrees>-8.01246634684503078460693359375</LongitudeDegrees>
            </Position>
            <AltitudeMeters>290.79998779296875</AltitudeMeters>
            <DistanceMeters>327386.97259798</DistanceMeters>
          </Trackpoint>
          <Trackpoint>
            <Time>2018-09-15T07:28:52.000Z</Time>
            <Position>
              <LatitudeDegrees>37.47005484066903591156005859375</LatitudeDegrees>
              <LongitudeDegrees>-8.01240750588476657867431640625</LongitudeDegrees>
            </Position>
            <AltitudeMeters>291.600006103515625</AltitudeMeters>
            <DistanceMeters>327413.908607</DistanceMeters>
          </Trackpoint>
          <Trackpoint>
            <Time>2018-09-15T07:29:02.000Z</Time>
            <Position>
              <LatitudeDegrees>37.46958981268107891082763671875</LatitudeDegrees>
              <LongitudeDegrees>-8.0122952722012996673583984375</LongitudeDegrees>
            </Position>
            <AltitudeMeters>293.600006103515625</AltitudeMeters>
            <DistanceMeters>327466.60826725</DistanceMeters>
          </Trackpoint>
          <Trackpoint>
            <Time>2018-09-15T07:29:06.000Z</Time>
            <Position>
              <LatitudeDegrees>37.4694083444774150848388671875</LatitudeDegrees>
              <LongitudeDegrees>-8.012253530323505401611328125</LongitudeDegrees>
            </Position>
            <AltitudeMeters>295</AltitudeMeters>
            <DistanceMeters>327487.13975596</DistanceMeters>
          </Trackpoint>
          <Trackpoint>
            <Time>2018-09-15T07:29:13.000Z</Time>
            <Position>
              <LatitudeDegrees>37.46910475194454193115234375</LatitudeDegrees>
              <LongitudeDegrees>-8.01215822808444499969482421875</LongitudeDegrees>
            </Position>
            <AltitudeMeters>298.20001220703125</AltitudeMeters>
            <DistanceMeters>327521.96312492</DistanceMeters>
          </Trackpoint>
          <Trackpoint>
            <Time>2018-09-15T07:29:14.000Z</Time>
            <Position>
              <LatitudeDegrees>37.46906460262835025787353515625</LatitudeDegrees>
              <LongitudeDegrees>-8.01213978789746761322021484375</LongitudeDegrees>
            </Position>
            <AltitudeMeters>298.399993896484375</AltitudeMeters>
            <DistanceMeters>327526.7192096</DistanceMeters>
          </Trackpoint>
          <Trackpoint>
            <Time>2018-09-15T07:29:19.000Z</Time>
            <Position>
              <LatitudeDegrees>37.46886829845607280731201171875</LatitudeDegrees>
              <LongitudeDegrees>-8.01203702576458454132080078125</LongitudeDegrees>
            </Position>
            <AltitudeMeters>299.600006103515625</AltitudeMeters>
            <DistanceMeters>327550.37914407</DistanceMeters>
          </Trackpoint>
          <Trackpoint>
            <Time>2018-09-15T07:29:24.000Z</Time>
            <Position>
              <LatitudeDegrees>37.46867786161601543426513671875</LatitudeDegrees>
              <LongitudeDegrees>-8.01190844736993312835693359375</LongitudeDegrees>
            </Position>
            <AltitudeMeters>301</AltitudeMeters>
            <DistanceMeters>327574.4267239</DistanceMeters>
          </Trackpoint>
          <Trackpoint>
            <Time>2018-09-15T07:29:28.000Z</Time>
            <Position>
              <LatitudeDegrees>37.46854861266911029815673828125</LatitudeDegrees>
              <LongitudeDegrees>-8.011765368282794952392578125</LongitudeDegrees>
            </Position>
            <AltitudeMeters>302.20001220703125</AltitudeMeters>
            <DistanceMeters>327593.57643419</DistanceMeters>
          </Trackpoint>
          <Trackpoint>
            <Time>2018-09-15T07:29:30.000Z</Time>
            <Position>
              <LatitudeDegrees>37.46849999763071537017822265625</LatitudeDegrees>
              <LongitudeDegrees>-8.0116763524711132049560546875</LongitudeDegrees>
            </Position>
            <AltitudeMeters>302.399993896484375</AltitudeMeters>
            <DistanceMeters>327603.12177186</DistanceMeters>
          </Trackpoint>
          <Trackpoint>
            <Time>2018-09-15T07:29:32.000Z</Time>
            <Position>
              <LatitudeDegrees>37.46846504509449005126953125</LatitudeDegrees>
              <LongitudeDegrees>-8.0115764401853084564208984375</LongitudeDegrees>
            </Position>
            <AltitudeMeters>302.600006103515625</AltitudeMeters>
            <DistanceMeters>327612.76733445</DistanceMeters>
          </Trackpoint>
          <Trackpoint>
            <Time>2018-09-15T07:29:37.000Z</Time>
            <Position>
              <LatitudeDegrees>37.46840544976294040679931640625</LatitudeDegrees>
              <LongitudeDegrees>-8.0113125778734683990478515625</LongitudeDegrees>
            </Position>
            <AltitudeMeters>303.600006103515625</AltitudeMeters>
            <DistanceMeters>327637.00194136</DistanceMeters>
          </Trackpoint>
          <Trackpoint>
            <Time>2018-09-15T07:29:42.000Z</Time>
            <Position>
              <LatitudeDegrees>37.46836001984775066375732421875</LatitudeDegrees>
              <LongitudeDegrees>-8.0110515654087066650390625</LongitudeDegrees>
            </Position>
            <AltitudeMeters>304.399993896484375</AltitudeMeters>
            <DistanceMeters>327660.60742646</DistanceMeters>
          </Trackpoint>
          <Trackpoint>
            <Time>2018-09-15T07:29:46.000Z</Time>
            <Position>
              <LatitudeDegrees>37.468325234949588775634765625</LatitudeDegrees>
              <LongitudeDegrees>-8.01084863953292369842529296875</LongitudeDegrees>
            </Position>
            <AltitudeMeters>305.399993896484375</AltitudeMeters>
            <DistanceMeters>327678.94708996</DistanceMeters>
          </Trackpoint>
          <Trackpoint>
            <Time>2018-09-15T07:29:49.000Z</Time>
            <Position>
              <LatitudeDegrees>37.468294389545917510986328125</LatitudeDegrees>
              <LongitudeDegrees>-8.01069592125713825225830078125</LongitudeDegrees>
            </Position>
            <AltitudeMeters>306.600006103515625</AltitudeMeters>
            <DistanceMeters>327692.86777387</DistanceMeters>
          </Trackpoint>
          <Trackpoint>
            <Time>2018-09-15T07:29:52.000Z</Time>
            <Position>
              <LatitudeDegrees>37.46825172565877437591552734375</LatitudeDegrees>
              <LongitudeDegrees>-8.0105461366474628448486328125</LongitudeDegrees>
            </Position>
            <AltitudeMeters>307.600006103515625</AltitudeMeters>
            <DistanceMeters>327706.92594776</DistanceMeters>
          </Trackpoint>
          <Trackpoint>
            <Time>2018-09-15T07:29:56.000Z</Time>
            <Position>
              <LatitudeDegrees>37.46814561076462268829345703125</LatitudeDegrees>
              <LongitudeDegrees>-8.01037791185081005096435546875</LongitudeDegrees>
            </Position>
            <AltitudeMeters>309.399993896484375</AltitudeMeters>
            <DistanceMeters>327725.90847052</DistanceMeters>
          </Trackpoint>
          <Trackpoint>
            <Time>2018-09-15T07:29:57.000Z</Time>
            <Position>
              <LatitudeDegrees>37.46811191551387310028076171875</LatitudeDegrees>
              <LongitudeDegrees>-8.01034270785748958587646484375</LongitudeDegrees>
            </Position>
            <AltitudeMeters>309.79998779296875</AltitudeMeters>
            <DistanceMeters>327730.78084889</DistanceMeters>
          </Trackpoint>
          <Trackpoint>
            <Time>2018-09-15T07:30:03.000Z</Time>
            <Position>
              <LatitudeDegrees>37.4678979255259037017822265625</LatitudeDegrees>
              <LongitudeDegrees>-8.010141961276531219482421875</LongitudeDegrees>
            </Position>
            <AltitudeMeters>310</AltitudeMeters>
            <DistanceMeters>327760.4752907</DistanceMeters>
          </Trackpoint>
          <Trackpoint>
            <Time>2018-09-15T07:30:09.000Z</Time>
            <Position>
              <LatitudeDegrees>37.467676140367984771728515625</LatitudeDegrees>
              <LongitudeDegrees>-8.00994993187487125396728515625</LongitudeDegrees>
            </Position>
            <AltitudeMeters>310.399993896484375</AltitudeMeters>
            <DistanceMeters>327790.42725282</DistanceMeters>
          </Trackpoint>
          <Trackpoint>
            <Time>2018-09-15T07:30:16.000Z</Time>
            <Position>
              <LatitudeDegrees>37.4674194864928722381591796875</LatitudeDegrees>
              <LongitudeDegrees>-8.0097287334501743316650390625</LongitudeDegrees>
            </Position>
            <AltitudeMeters>312</AltitudeMeters>
            <DistanceMeters>327825.03733373</DistanceMeters>
          </Trackpoint>
          <Trackpoint>
            <Time>2018-09-15T07:30:23.000Z</Time>
            <Position>
              <LatitudeDegrees>37.46715922839939594268798828125</LatitudeDegrees>
              <LongitudeDegrees>-8.009506277740001678466796875</LongitudeDegrees>
            </Position>
            <AltitudeMeters>312.79998779296875</AltitudeMeters>
            <DistanceMeters>327860.04149166</DistanceMeters>
          </Trackpoint>
          <Trackpoint>
            <Time>2018-09-15T07:30:30.000Z</Time>
            <Position>
              <LatitudeDegrees>37.4669205956161022186279296875</LatitudeDegrees>
              <LongitudeDegrees>-8.00925624556839466094970703125</LongitudeDegrees>
            </Position>
            <AltitudeMeters>313</AltitudeMeters>
            <DistanceMeters>327894.58615307</DistanceMeters>
          </Trackpoint>
          <Trackpoint>
            <Time>2018-09-15T07:30:36.000Z</Time>
            <Position>
              <LatitudeDegrees>37.46672219596803188323974609375</LatitudeDegrees>
              <LongitudeDegrees>-8.0090119130909442901611328125</LongitudeDegrees>
            </Position>
            <AltitudeMeters>313.399993896484375</AltitudeMeters>
            <DistanceMeters>327925.46530287</DistanceMeters>
          </Trackpoint>
          <Trackpoint>
            <Time>2018-09-15T07:30:44.000Z</Time>
            <Position>
              <LatitudeDegrees>37.4664508737623691558837890625</LatitudeDegrees>
              <LongitudeDegrees>-8.008668087422847747802734375</LongitudeDegrees>
            </Position>
            <AltitudeMeters>315.79998779296875</AltitudeMeters>
            <DistanceMeters>327968.29674308</DistanceMeters>
          </Trackpoint>
          <Trackpoint>
            <Time>2018-09-15T07:30:50.000Z</Time>
            <Position>
              <LatitudeDegrees>37.4662718363106250762939453125</LatitudeDegrees>
              <LongitudeDegrees>-8.0084203183650970458984375</LongitudeDegrees>
            </Position>
            <AltitudeMeters>316.600006103515625</AltitudeMeters>
            <DistanceMeters>327997.89722141</DistanceMeters>
          </Trackpoint>
          <Trackpoint>
            <Time>2018-09-15T07:30:55.000Z</Time>
            <Position>
              <LatitudeDegrees>37.46614233590662479400634765625</LatitudeDegrees>
              <LongitudeDegrees>-8.00820331089198589324951171875</LongitudeDegrees>
            </Position>
            <AltitudeMeters>318.20001220703125</AltitudeMeters>
            <DistanceMeters>328021.88238578</DistanceMeters>
          </Trackpoint>
          <Trackpoint>
            <Time>2018-09-15T07:30:59.000Z</Time>
            <Position>
              <LatitudeDegrees>37.46607720851898193359375</LatitudeDegrees>
              <LongitudeDegrees>-8.00800750963389873504638671875</LongitudeDegrees>
            </Position>
            <AltitudeMeters>319.399993896484375</AltitudeMeters>
            <DistanceMeters>328040.63734693</DistanceMeters>
          </Trackpoint>
          <Trackpoint>
            <Time>2018-09-15T07:31:04.000Z</Time>
            <Position>
              <LatitudeDegrees>37.46602063067257404327392578125</LatitudeDegrees>
              <LongitudeDegrees>-8.00776409916579723358154296875</LongitudeDegrees>
            </Position>
            <AltitudeMeters>320.600006103515625</AltitudeMeters>
            <DistanceMeters>328063.04391271</DistanceMeters>
          </Trackpoint>
          <Trackpoint>
            <Time>2018-09-15T07:31:10.000Z</Time>
            <Position>
              <LatitudeDegrees>37.46596120297908782958984375</LatitudeDegrees>
              <LongitudeDegrees>-8.0074736662209033966064453125</LongitudeDegrees>
            </Position>
            <AltitudeMeters>321.79998779296875</AltitudeMeters>
            <DistanceMeters>328089.5401827</DistanceMeters>
          </Trackpoint>
          <Trackpoint>
            <Time>2018-09-15T07:31:16.000Z</Time>
            <Position>
              <LatitudeDegrees>37.4659100733697414398193359375</LatitudeDegrees>
              <LongitudeDegrees>-8.00717887468636035919189453125</LongitudeDegrees>
            </Position>
            <AltitudeMeters>322.600006103515625</AltitudeMeters>
            <DistanceMeters>328116.19716632</DistanceMeters>
          </Trackpoint>
          <Trackpoint>
            <Time>2018-09-15T07:31:23.000Z</Time>
            <Position>
              <LatitudeDegrees>37.4659047089517116546630859375</LatitudeDegrees>
              <LongitudeDegrees>-8.00681945867836475372314453125</LongitudeDegrees>
            </Position>
            <AltitudeMeters>324</AltitudeMeters>
            <DistanceMeters>328147.95429241</DistanceMeters>
          </Trackpoint>
          <Trackpoint>
            <Time>2018-09-15T07:31:31.000Z</Time>
            <Position>
              <LatitudeDegrees>37.4659798108041286468505859375</LatitudeDegrees>
              <LongitudeDegrees>-8.00640505738556385040283203125</LongitudeDegrees>
            </Position>
            <AltitudeMeters>325.20001220703125</AltitudeMeters>
            <DistanceMeters>328185.50559887</DistanceMeters>
          </Trackpoint>
          <Trackpoint>
            <Time>2018-09-15T07:31:35.000Z</Time>
            <Position>
              <LatitudeDegrees>37.46603018604218959808349609375</LatitudeDegrees>
              <LongitudeDegrees>-8.00619752146303653717041015625</LongitudeDegrees>
            </Position>
            <AltitudeMeters>325.600006103515625</AltitudeMeters>
            <DistanceMeters>328204.67769478</DistanceMeters>
          </Trackpoint>
          <Trackpoint>
            <Time>2018-09-15T07:31:39.000Z</Time>
            <Position>
              <LatitudeDegrees>37.46608349494636058807373046875</LatitudeDegrees>
              <LongitudeDegrees>-8.00597858615219593048095703125</LongitudeDegrees>
            </Position>
            <AltitudeMeters>326.20001220703125</AltitudeMeters>
            <DistanceMeters>328224.90834442</DistanceMeters>
          </Trackpoint>
          <Trackpoint>
            <Time>2018-09-15T07:31:45.000Z</Time>
            <Position>
              <LatitudeDegrees>37.46610864065587520599365234375</LatitudeDegrees>
              <LongitudeDegrees>-8.00561179406940937042236328125</LongitudeDegrees>
            </Position>
            <AltitudeMeters>327</AltitudeMeters>
            <DistanceMeters>328257.43220051</DistanceMeters>
          </Trackpoint>
          <Trackpoint>
            <Time>2018-09-15T07:31:51.000Z</Time>
            <Position>
              <LatitudeDegrees>37.4659124203026294708251953125</LatitudeDegrees>
              <LongitudeDegrees>-8.00531976856291294097900390625</LongitudeDegrees>
            </Position>
            <AltitudeMeters>326.79998779296875</AltitudeMeters>
            <DistanceMeters>328291.23340451</DistanceMeters>
          </Trackpoint>
          <Trackpoint>
            <Time>2018-09-15T07:31:58.000Z</Time>
            <Position>
              <LatitudeDegrees>37.4655925668776035308837890625</LatitudeDegrees>
              <LongitudeDegrees>-8.00505288876593112945556640625</LongitudeDegrees>
            </Position>
            <AltitudeMeters>327.399993896484375</AltitudeMeters>
            <DistanceMeters>328333.93287376</DistanceMeters>
          </Trackpoint>
          <Trackpoint>
            <Time>2018-09-15T07:32:04.000Z</Time>
            <Position>
              <LatitudeDegrees>37.4653082527220249176025390625</LatitudeDegrees>
              <LongitudeDegrees>-8.0048166029155254364013671875</LongitudeDegrees>
            </Position>
            <AltitudeMeters>328</AltitudeMeters>
            <DistanceMeters>328371.84222097</DistanceMeters>
          </Trackpoint>
          <Trackpoint>
            <Time>2018-09-15T07:32:10.000Z</Time>
            <Position>
              <LatitudeDegrees>37.4650229327380657196044921875</LatitudeDegrees>
              <LongitudeDegrees>-8.00458651967346668243408203125</LongitudeDegrees>
            </Position>
            <AltitudeMeters>327.399993896484375</AltitudeMeters>
            <DistanceMeters>328409.54687659</DistanceMeters>
          </Trackpoint>
          <Trackpoint>
            <Time>2018-09-15T07:32:21.000Z</Time>
            <Position>
              <LatitudeDegrees>37.46453099884092807769775390625</LatitudeDegrees>
              <LongitudeDegrees>-8.00418837927281856536865234375</LongitudeDegrees>
            </Position>
            <AltitudeMeters>329</AltitudeMeters>
            <DistanceMeters>328474.62415121</DistanceMeters>
          </Trackpoint>
          <Trackpoint>
            <Time>2018-09-15T07:32:22.000Z</Time>
            <Position>
              <LatitudeDegrees>37.46448707766830921173095703125</LatitudeDegrees>
              <LongitudeDegrees>-8.00415149889886379241943359375</LongitudeDegrees>
            </Position>
            <AltitudeMeters>329.399993896484375</AltitudeMeters>
            <DistanceMeters>328480.49892373</DistanceMeters>
          </Trackpoint>
          <Trackpoint>
            <Time>2018-09-15T07:32:27.000Z</Time>
            <Position>
              <LatitudeDegrees>37.46426562778651714324951171875</LatitudeDegrees>
              <LongitudeDegrees>-8.00396994687616825103759765625</LongitudeDegrees>
            </Position>
            <AltitudeMeters>330.399993896484375</AltitudeMeters>
            <DistanceMeters>328509.90566174</DistanceMeters>
          </Trackpoint>
          <Trackpoint>
            <Time>2018-09-15T07:32:32.000Z</Time>
            <Position>
              <LatitudeDegrees>37.46404350735247135162353515625</LatitudeDegrees>
              <LongitudeDegrees>-8.00378705374896526336669921875</LongitudeDegrees>
            </Position>
            <AltitudeMeters>331</AltitudeMeters>
            <DistanceMeters>328539.43986673</DistanceMeters>
          </Trackpoint>
          <Trackpoint>
            <Time>2018-09-15T07:32:39.000Z</Time>
            <Position>
              <LatitudeDegrees>37.46372650377452373504638671875</LatitudeDegrees>
              <LongitudeDegrees>-8.00353400409221649169921875</LongitudeDegrees>
            </Position>
            <AltitudeMeters>332</AltitudeMeters>
            <DistanceMeters>328581.20905333</DistanceMeters>
          </Trackpoint>
          <Trackpoint>
            <Time>2018-09-15T07:32:45.000Z</Time>
            <Position>
              <LatitudeDegrees>37.46346884407103061676025390625</LatitudeDegrees>
              <LongitudeDegrees>-8.0033209361135959625244140625</LongitudeDegrees>
            </Position>
            <AltitudeMeters>332.79998779296875</AltitudeMeters>
            <DistanceMeters>328615.51277589</DistanceMeters>
          </Trackpoint>
          <Trackpoint>
            <Time>2018-09-15T07:32:53.000Z</Time>
            <Position>
              <LatitudeDegrees>37.46312803588807582855224609375</LatitudeDegrees>
              <LongitudeDegrees>-8.003037460148334503173828125</LongitudeDegrees>
            </Position>
            <AltitudeMeters>333.600006103515625</AltitudeMeters>
            <DistanceMeters>328660.96694501</DistanceMeters>
          </Trackpoint>
          <Trackpoint>
            <Time>2018-09-15T07:32:58.000Z</Time>
            <Position>
              <LatitudeDegrees>37.462909184396266937255859375</LatitudeDegrees>
              <LongitudeDegrees>-8.00285314209759235382080078125</LongitudeDegrees>
            </Position>
            <AltitudeMeters>333.79998779296875</AltitudeMeters>
            <DistanceMeters>328690.26724241</DistanceMeters>
          </Trackpoint>
          <Trackpoint>
            <Time>2018-09-15T07:33:08.000Z</Time>
            <Position>
              <LatitudeDegrees>37.46248397044837474822998046875</LatitudeDegrees>
              <LongitudeDegrees>-8.00239280797541141510009765625</LongitudeDegrees>
            </Position>
            <AltitudeMeters>334.20001220703125</AltitudeMeters>
            <DistanceMeters>328752.66760365</DistanceMeters>
          </Trackpoint>
          <Trackpoint>
            <Time>2018-09-15T07:33:15.000Z</Time>
            <Position>
              <LatitudeDegrees>37.462177611887454986572265625</LatitudeDegrees>
              <LongitudeDegrees>-8.00198930315673351287841796875</LongitudeDegrees>
            </Position>
            <AltitudeMeters>334.20001220703125</AltitudeMeters>
            <DistanceMeters>328801.99809362</DistanceMeters>
          </Trackpoint>
          <Trackpoint>
            <Time>2018-09-15T07:33:20.000Z</Time>
            <Position>
              <LatitudeDegrees>37.46188231743872165679931640625</LatitudeDegrees>
              <LongitudeDegrees>-8.0018175579607486724853515625</LongitudeDegrees>
            </Position>
            <AltitudeMeters>335.399993896484375</AltitudeMeters>
            <DistanceMeters>328838.19828318</DistanceMeters>
          </Trackpoint>
          <Trackpoint>
            <Time>2018-09-15T07:33:29.000Z</Time>
            <Position>
              <LatitudeDegrees>37.4613238312304019927978515625</LatitudeDegrees>
              <LongitudeDegrees>-8.0016847886145114898681640625</LongitudeDegrees>
            </Position>
            <AltitudeMeters>336.399993896484375</AltitudeMeters>
            <DistanceMeters>328901.45596172</DistanceMeters>
          </Trackpoint>
          <Trackpoint>
            <Time>2018-09-15T07:33:38.000Z</Time>
            <Position>
              <LatitudeDegrees>37.46078990399837493896484375</LatitudeDegrees>
              <LongitudeDegrees>-8.00154439173638820648193359375</LongitudeDegrees>
            </Position>
            <AltitudeMeters>336.600006103515625</AltitudeMeters>
            <DistanceMeters>328962.16375421</DistanceMeters>
          </Trackpoint>
          <Trackpoint>
            <Time>2018-09-15T07:33:41.000Z</Time>
            <Position>
              <LatitudeDegrees>37.46061346493661403656005859375</LatitudeDegrees>
              <LongitudeDegrees>-8.0014705471694469451904296875</LongitudeDegrees>
            </Position>
            <AltitudeMeters>336.79998779296875</AltitudeMeters>
            <DistanceMeters>328982.8571168</DistanceMeters>
          </Trackpoint>
          <Trackpoint>
            <Time>2018-09-15T07:33:50.000Z</Time>
            <Position>
              <LatitudeDegrees>37.4601104669272899627685546875</LatitudeDegrees>
              <LongitudeDegrees>-8.00118866376578807830810546875</LongitudeDegrees>
            </Position>
            <AltitudeMeters>338</AltitudeMeters>
            <DistanceMeters>329044.13100245</DistanceMeters>
          </Trackpoint>
          <Trackpoint>
            <Time>2018-09-15T07:33:55.000Z</Time>
            <Position>
              <LatitudeDegrees>37.459830008447170257568359375</LatitudeDegrees>
              <LongitudeDegrees>-8.0010196007788181304931640625</LongitudeDegrees>
            </Position>
            <AltitudeMeters>338</AltitudeMeters>
            <DistanceMeters>329078.73612574</DistanceMeters>
          </Trackpoint>
          <Trackpoint>
            <Time>2018-09-15T07:34:04.000Z</Time>
            <Position>
              <LatitudeDegrees>37.45932918973267078399658203125</LatitudeDegrees>
              <LongitudeDegrees>-8.00073101185262203216552734375</LongitudeDegrees>
            </Position>
            <AltitudeMeters>338.20001220703125</AltitudeMeters>
            <DistanceMeters>329140.03270254</DistanceMeters>
          </Trackpoint>
          <Trackpoint>
            <Time>2018-09-15T07:34:06.000Z</Time>
            <Position>
              <LatitudeDegrees>37.45922173373401165008544921875</LatitudeDegrees>
              <LongitudeDegrees>-8.0006675608456134796142578125</LongitudeDegrees>
            </Position>
            <AltitudeMeters>338.79998779296875</AltitudeMeters>
            <DistanceMeters>329153.24107401</DistanceMeters>
          </Trackpoint>
          <Trackpoint>
            <Time>2018-09-15T07:34:16.000Z</Time>
            <Position>
              <LatitudeDegrees>37.45869375765323638916015625</LatitudeDegrees>
              <LongitudeDegrees>-8.000361286103725433349609375</LongitudeDegrees>
            </Position>
            <AltitudeMeters>339.399993896484375</AltitudeMeters>
            <DistanceMeters>329217.93661228</DistanceMeters>
          </Trackpoint>
          <Trackpoint>
            <Time>2018-09-15T07:34:24.000Z</Time>
            <Position>
              <LatitudeDegrees>37.45826569385826587677001953125</LatitudeDegrees>
              <LongitudeDegrees>-8.00010840408504009246826171875</LongitudeDegrees>
            </Position>
            <AltitudeMeters>342</AltitudeMeters>
            <DistanceMeters>329270.55945183</DistanceMeters>
          </Trackpoint>
          <Trackpoint>
            <Time>2018-09-15T07:34:34.000Z</Time>
            <Position>
              <LatitudeDegrees>37.4577286653220653533935546875</LatitudeDegrees>
              <LongitudeDegrees>-7.9997943341732025146484375</LongitudeDegrees>
            </Position>
            <AltitudeMeters>342.79998779296875</AltitudeMeters>
            <DistanceMeters>329336.45874828</DistanceMeters>
          </Trackpoint>
          <Trackpoint>
            <Time>2018-09-15T07:34:37.000Z</Time>
            <Position>
              <LatitudeDegrees>37.45757133699953556060791015625</LatitudeDegrees>
              <LongitudeDegrees>-7.99970238469541072845458984375</LongitudeDegrees>
            </Position>
            <AltitudeMeters>342.79998779296875</AltitudeMeters>
            <DistanceMeters>329355.76227398</DistanceMeters>
          </Trackpoint>
          <Trackpoint>
            <Time>2018-09-15T07:34:43.000Z</Time>
            <Position>
              <LatitudeDegrees>37.45726506225764751434326171875</LatitudeDegrees>
              <LongitudeDegrees>-7.9995256103575229644775390625</LongitudeDegrees>
            </Position>
            <AltitudeMeters>341.79998779296875</AltitudeMeters>
            <DistanceMeters>329393.25895334</DistanceMeters>
          </Trackpoint>
          <Trackpoint>
            <Time>2018-09-15T07:34:48.000Z</Time>
            <Position>
              <LatitudeDegrees>37.457013018429279327392578125</LatitudeDegrees>
              <LongitudeDegrees>-7.9993807710707187652587890625</LongitudeDegrees>
            </Position>
            <AltitudeMeters>342.600006103515625</AltitudeMeters>
            <DistanceMeters>329424.09303559</DistanceMeters>
          </Trackpoint>
          <Trackpoint>
            <Time>2018-09-15T07:34:54.000Z</Time>
            <Position>
              <LatitudeDegrees>37.45671135373413562774658203125</LatitudeDegrees>
              <LongitudeDegrees>-7.99920181743800640106201171875</LongitudeDegrees>
            </Position>
            <AltitudeMeters>343.600006103515625</AltitudeMeters>
            <DistanceMeters>329461.20556043</DistanceMeters>
          </Trackpoint>
          <Trackpoint>
            <Time>2018-09-15T07:34:58.000Z</Time>
            <Position>
              <LatitudeDegrees>37.4565186537802219390869140625</LatitudeDegrees>
              <LongitudeDegrees>-7.99908095039427280426025390625</LongitudeDegrees>
            </Position>
            <AltitudeMeters>343.600006103515625</AltitudeMeters>
            <DistanceMeters>329485.16511008</DistanceMeters>
          </Trackpoint>
          <Trackpoint>
            <Time>2018-09-15T07:35:03.000Z</Time>
            <Position>
              <LatitudeDegrees>37.45627163909375667572021484375</LatitudeDegrees>
              <LongitudeDegrees>-7.998920939862728118896484375</LongitudeDegrees>
            </Position>
            <AltitudeMeters>343</AltitudeMeters>
            <DistanceMeters>329516.08020819</DistanceMeters>
          </Trackpoint>
          <Trackpoint>
            <Time>2018-09-15T07:35:13.000Z</Time>
            <Position>
              <LatitudeDegrees>37.455750368535518646240234375</LatitudeDegrees>
              <LongitudeDegrees>-7.9985784552991390228271484375</LongitudeDegrees>
            </Position>
            <AltitudeMeters>345.20001220703125</AltitudeMeters>
            <DistanceMeters>329581.51567546</DistanceMeters>
          </Trackpoint>
          <Trackpoint>
            <Time>2018-09-15T07:35:16.000Z</Time>
            <Position>
              <LatitudeDegrees>37.4555956386029720306396484375</LatitudeDegrees>
              <LongitudeDegrees>-7.99847359769046306610107421875</LongitudeDegrees>
            </Position>
            <AltitudeMeters>345.79998779296875</AltitudeMeters>
            <DistanceMeters>329601.07133289</DistanceMeters>
          </Trackpoint>
          <Trackpoint>
            <Time>2018-09-15T07:35:25.000Z</Time>
            <Position>
              <LatitudeDegrees>37.4551202170550823211669921875</LatitudeDegrees>
              <LongitudeDegrees>-7.99815491773188114166259765625</LongitudeDegrees>
            </Position>
            <AltitudeMeters>347.399993896484375</AltitudeMeters>
            <DistanceMeters>329661.01172574</DistanceMeters>
          </Trackpoint>
          <Trackpoint>
            <Time>2018-09-15T07:35:34.000Z</Time>
            <Position>
              <LatitudeDegrees>37.45462727732956409454345703125</LatitudeDegrees>
              <LongitudeDegrees>-7.99782651476562023162841796875</LongitudeDegrees>
            </Position>
            <AltitudeMeters>349.20001220703125</AltitudeMeters>
            <DistanceMeters>329723.0771932</DistanceMeters>
          </Trackpoint>
          <Trackpoint>
            <Time>2018-09-15T07:35:37.000Z</Time>
            <Position>
              <LatitudeDegrees>37.45446416549384593963623046875</LatitudeDegrees>
              <LongitudeDegrees>-7.997715957462787628173828125</LongitudeDegrees>
            </Position>
            <AltitudeMeters>349.600006103515625</AltitudeMeters>
            <DistanceMeters>329743.69295362</DistanceMeters>
          </Trackpoint>
          <Trackpoint>
            <Time>2018-09-15T07:35:44.000Z</Time>
            <Position>
              <LatitudeDegrees>37.45408178307116031646728515625</LatitudeDegrees>
              <LongitudeDegrees>-7.9974559508264064788818359375</LongitudeDegrees>
            </Position>
            <AltitudeMeters>350</AltitudeMeters>
            <DistanceMeters>329792.05725711</DistanceMeters>
          </Trackpoint>
          <Trackpoint>
            <Time>2018-09-15T07:35:50.000Z</Time>
            <Position>
              <LatitudeDegrees>37.4537372030317783355712890625</LatitudeDegrees>
              <LongitudeDegrees>-7.99722519703209400177001953125</LongitudeDegrees>
            </Position>
            <AltitudeMeters>350</AltitudeMeters>
            <DistanceMeters>329835.49226247</DistanceMeters>
          </Trackpoint>
          <Trackpoint>
            <Time>2018-09-15T07:35:58.000Z</Time>
            <Position>
              <LatitudeDegrees>37.453260608017444610595703125</LatitudeDegrees>
              <LongitudeDegrees>-7.99691020511090755462646484375</LongitudeDegrees>
            </Position>
            <AltitudeMeters>350.399993896484375</AltitudeMeters>
            <DistanceMeters>329895.39611133</DistanceMeters>
          </Trackpoint>
          <Trackpoint>
            <Time>2018-09-15T07:36:05.000Z</Time>
            <Position>
              <LatitudeDegrees>37.452819384634494781494140625</LatitudeDegrees>
              <LongitudeDegrees>-7.9966616816818714141845703125</LongitudeDegrees>
            </Position>
            <AltitudeMeters>349.399993896484375</AltitudeMeters>
            <DistanceMeters>329949.1909685</DistanceMeters>
          </Trackpoint>
          <Trackpoint>
            <Time>2018-09-15T07:36:11.000Z</Time>
            <Position>
              <LatitudeDegrees>37.4524396844208240509033203125</LatitudeDegrees>
              <LongitudeDegrees>-7.99648574553430080413818359375</LongitudeDegrees>
            </Position>
            <AltitudeMeters>349.399993896484375</AltitudeMeters>
            <DistanceMeters>329994.22069841</DistanceMeters>
          </Trackpoint>
          <Trackpoint>
            <Time>2018-09-15T07:36:20.000Z</Time>
            <Position>
              <LatitudeDegrees>37.45187700726091861724853515625</LatitudeDegrees>
              <LongitudeDegrees>-7.9962543211877346038818359375</LongitudeDegrees>
            </Position>
            <AltitudeMeters>349.399993896484375</AltitudeMeters>
            <DistanceMeters>330060.10149343</DistanceMeters>
          </Trackpoint>
          <Trackpoint>
            <Time>2018-09-15T07:36:27.000Z</Time>
            <Position>
              <LatitudeDegrees>37.4514040164649486541748046875</LatitudeDegrees>
              <LongitudeDegrees>-7.99610964953899383544921875</LongitudeDegrees>
            </Position>
            <AltitudeMeters>348.79998779296875</AltitudeMeters>
            <DistanceMeters>330114.27605577</DistanceMeters>
          </Trackpoint>
          <Trackpoint>
            <Time>2018-09-15T07:36:35.000Z</Time>
            <Position>
              <LatitudeDegrees>37.45084653608500957489013671875</LatitudeDegrees>
              <LongitudeDegrees>-7.99625943414866924285888671875</LongitudeDegrees>
            </Position>
            <AltitudeMeters>349.79998779296875</AltitudeMeters>
            <DistanceMeters>330177.72053327</DistanceMeters>
          </Trackpoint>
          <Trackpoint>
            <Time>2018-09-15T07:36:43.000Z</Time>
            <Position>
              <LatitudeDegrees>37.4503120221197605133056640625</LatitudeDegrees>
              <LongitudeDegrees>-7.9964655451476573944091796875</LongitudeDegrees>
            </Position>
            <AltitudeMeters>350.399993896484375</AltitudeMeters>
            <DistanceMeters>330239.93829031</DistanceMeters>
          </Trackpoint>
          <Trackpoint>
            <Time>2018-09-15T07:36:47.000Z</Time>
            <Position>
              <LatitudeDegrees>37.45005360804498195648193359375</LatitudeDegrees>
              <LongitudeDegrees>-7.99656151793897151947021484375</LongitudeDegrees>
            </Position>
            <AltitudeMeters>350.79998779296875</AltitudeMeters>
            <DistanceMeters>330269.92445148</DistanceMeters>
          </Trackpoint>
          <Trackpoint>
            <Time>2018-09-15T07:36:54.000Z</Time>
            <Position>
              <LatitudeDegrees>37.44963451288640499114990234375</LatitudeDegrees>
              <LongitudeDegrees>-7.996720857918262481689453125</LongitudeDegrees>
            </Position>
            <AltitudeMeters>351.79998779296875</AltitudeMeters>
            <DistanceMeters>330318.64906916</DistanceMeters>
          </Trackpoint>
          <Trackpoint>
            <Time>2018-09-15T07:36:59.000Z</Time>
            <Position>
              <LatitudeDegrees>37.44933997280895709991455078125</LatitudeDegrees>
              <LongitudeDegrees>-7.99683510325849056243896484375</LongitudeDegrees>
            </Position>
            <AltitudeMeters>352.20001220703125</AltitudeMeters>
            <DistanceMeters>330352.950949</DistanceMeters>
          </Trackpoint>
          <Trackpoint>
            <Time>2018-09-15T07:37:00.000Z</Time>
            <Position>
              <LatitudeDegrees>37.44927920401096343994140625</LatitudeDegrees>
              <LongitudeDegrees>-7.9968573153018951416015625</LongitudeDegrees>
            </Position>
            <AltitudeMeters>352.399993896484375</AltitudeMeters>
            <DistanceMeters>330359.99383264</DistanceMeters>
          </Trackpoint>
          <Trackpoint>
            <Time>2018-09-15T07:37:05.000Z</Time>
            <Position>
              <LatitudeDegrees>37.448952309787273406982421875</LatitudeDegrees>
              <LongitudeDegrees>-7.9969538748264312744140625</LongitudeDegrees>
            </Position>
            <AltitudeMeters>352.20001220703125</AltitudeMeters>
            <DistanceMeters>330397.36483239</DistanceMeters>
          </Trackpoint>
          <Trackpoint>
            <Time>2018-09-15T07:37:08.000Z</Time>
            <Position>
              <LatitudeDegrees>37.44874133728444576263427734375</LatitudeDegrees>
              <LongitudeDegrees>-7.9969698004424571990966796875</LongitudeDegrees>
            </Position>
            <AltitudeMeters>352.399993896484375</AltitudeMeters>
            <DistanceMeters>330420.88850312</DistanceMeters>
          </Trackpoint>
          <Trackpoint>
            <Time>2018-09-15T07:37:16.000Z</Time>
            <Position>
              <LatitudeDegrees>37.44821076281368732452392578125</LatitudeDegrees>
              <LongitudeDegrees>-7.996799312531948089599609375</LongitudeDegrees>
            </Position>
            <AltitudeMeters>353.600006103515625</AltitudeMeters>
            <DistanceMeters>330481.83375136</DistanceMeters>
          </Trackpoint>
          <Trackpoint>
            <Time>2018-09-15T07:37:24.000Z</Time>
            <Position>
              <LatitudeDegrees>37.4476710520684719085693359375</LatitudeDegrees>
              <LongitudeDegrees>-7.996524386107921600341796875</LongitudeDegrees>
            </Position>
            <AltitudeMeters>352.20001220703125</AltitudeMeters>
            <DistanceMeters>330546.63096214</DistanceMeters>
          </Trackpoint>
          <Trackpoint>
            <Time>2018-09-15T07:37:29.000Z</Time>
            <Position>
              <LatitudeDegrees>37.44730870239436626434326171875</LatitudeDegrees>
              <LongitudeDegrees>-7.99634040333330631256103515625</LongitudeDegrees>
            </Position>
            <AltitudeMeters>353.600006103515625</AltitudeMeters>
            <DistanceMeters>330590.11458856</DistanceMeters>
          </Trackpoint>
          <Trackpoint>
            <Time>2018-09-15T07:37:36.000Z</Time>
            <Position>
              <LatitudeDegrees>37.4467936344444751739501953125</LatitudeDegrees>
              <LongitudeDegrees>-7.99608894623816013336181640625</LongitudeDegrees>
            </Position>
            <AltitudeMeters>354</AltitudeMeters>
            <DistanceMeters>330651.59826803</DistanceMeters>
          </Trackpoint>
          <Trackpoint>
            <Time>2018-09-15T07:37:38.000Z</Time>
            <Position>
              <LatitudeDegrees>37.4466459453105926513671875</LatitudeDegrees>
              <LongitudeDegrees>-7.9960191249847412109375</LongitudeDegrees>
            </Position>
            <AltitudeMeters>353.79998779296875</AltitudeMeters>
            <DistanceMeters>330669.15585185</DistanceMeters>
          </Trackpoint>
          <Trackpoint>
            <Time>2018-09-15T07:37:42.000Z</Time>
            <Position>
              <LatitudeDegrees>37.4463457055389881134033203125</LatitudeDegrees>
              <LongitudeDegrees>-7.99587990157306194305419921875</LongitudeDegrees>
            </Position>
            <AltitudeMeters>353.79998779296875</AltitudeMeters>
            <DistanceMeters>330704.76590064</DistanceMeters>
          </Trackpoint>
          <Trackpoint>
            <Time>2018-09-15T07:37:47.000Z</Time>
            <Position>
              <LatitudeDegrees>37.44595200754702091217041015625</LatitudeDegrees>
              <LongitudeDegrees>-7.995699606835842132568359375</LongitudeDegrees>
            </Position>
            <AltitudeMeters>352.79998779296875</AltitudeMeters>
            <DistanceMeters>330751.39158867</DistanceMeters>
          </Trackpoint>
          <Trackpoint>
            <Time>2018-09-15T07:37:48.000Z</Time>
            <Position>
              <LatitudeDegrees>37.44587288238108158111572265625</LatitudeDegrees>
              <LongitudeDegrees>-7.99566247500479221343994140625</LongitudeDegrees>
            </Position>
            <AltitudeMeters>352.20001220703125</AltitudeMeters>
            <DistanceMeters>330760.79011024</DistanceMeters>
          </Trackpoint>
          <Trackpoint>
            <Time>2018-09-15T07:37:50.000Z</Time>
            <Position>
              <LatitudeDegrees>37.4457147158682346343994140625</LatitudeDegrees>
              <LongitudeDegrees>-7.995589636266231536865234375</LongitudeDegrees>
            </Position>
            <AltitudeMeters>350.79998779296875</AltitudeMeters>
            <DistanceMeters>330779.53399415</DistanceMeters>
          </Trackpoint>
          <Trackpoint>
            <Time>2018-09-15T07:37:55.000Z</Time>
            <Position>
              <LatitudeDegrees>37.44532696902751922607421875</LatitudeDegrees>
              <LongitudeDegrees>-7.99541118554770946502685546875</LongitudeDegrees>
            </Position>
            <AltitudeMeters>348.20001220703125</AltitudeMeters>
            <DistanceMeters>330825.48164613</DistanceMeters>
          </Trackpoint>
          <Trackpoint>
            <Time>2018-09-15T07:37:57.000Z</Time>
            <Position>
              <LatitudeDegrees>37.445169724524021148681640625</LatitudeDegrees>
              <LongitudeDegrees>-7.99533289857208728790283203125</LongitudeDegrees>
            </Position>
            <AltitudeMeters>348</AltitudeMeters>
            <DistanceMeters>330844.30077465</DistanceMeters>
          </Trackpoint>
          <Trackpoint>
            <Time>2018-09-15T07:38:01.000Z</Time>
            <Position>
              <LatitudeDegrees>37.4448641203343868255615234375</LatitudeDegrees>
              <LongitudeDegrees>-7.9951460659503936767578125</LongitudeDegrees>
            </Position>
            <AltitudeMeters>347.20001220703125</AltitudeMeters>
            <DistanceMeters>330882.11006414</DistanceMeters>
          </Trackpoint>
          <Trackpoint>
            <Time>2018-09-15T07:38:06.000Z</Time>
            <Position>
              <LatitudeDegrees>37.44450445286929607391357421875</LatitudeDegrees>
              <LongitudeDegrees>-7.99486032687127590179443359375</LongitudeDegrees>
            </Position>
            <AltitudeMeters>345.600006103515625</AltitudeMeters>
            <DistanceMeters>330929.43966443</DistanceMeters>
          </Trackpoint>
          <Trackpoint>
            <Time>2018-09-15T07:38:13.000Z</Time>
            <Position>
              <LatitudeDegrees>37.44401268661022186279296875</LatitudeDegrees>
              <LongitudeDegrees>-7.9944471828639507293701171875</LongitudeDegrees>
            </Position>
            <AltitudeMeters>346</AltitudeMeters>
            <DistanceMeters>330995.23288402</DistanceMeters>
          </Trackpoint>
          <Trackpoint>
            <Time>2018-09-15T07:38:14.000Z</Time>
            <Position>
              <LatitudeDegrees>37.443943284451961517333984375</LatitudeDegrees>
              <LongitudeDegrees>-7.99438633024692535400390625</LongitudeDegrees>
            </Position>
            <AltitudeMeters>345.79998779296875</AltitudeMeters>
            <DistanceMeters>331004.64484715</DistanceMeters>
          </Trackpoint>
          <Trackpoint>
            <Time>2018-09-15T07:38:16.000Z</Time>
            <Position>
              <LatitudeDegrees>37.44380724616348743438720703125</LatitudeDegrees>
              <LongitudeDegrees>-7.99425666220486164093017578125</LongitudeDegrees>
            </Position>
            <AltitudeMeters>345.20001220703125</AltitudeMeters>
            <DistanceMeters>331023.63307751</DistanceMeters>
          </Trackpoint>
          <Trackpoint>
            <Time>2018-09-15T07:38:18.000Z</Time>
            <Position>
              <LatitudeDegrees>37.44367648847401142120361328125</LatitudeDegrees>
              <LongitudeDegrees>-7.99411601386964321136474609375</LongitudeDegrees>
            </Position>
            <AltitudeMeters>344.600006103515625</AltitudeMeters>
            <DistanceMeters>331042.77146722</DistanceMeters>
          </Trackpoint>
          <Trackpoint>
            <Time>2018-09-15T07:38:20.000Z</Time>
            <Position>
              <LatitudeDegrees>37.4435520172119140625</LatitudeDegrees>
              <LongitudeDegrees>-7.9939610324800014495849609375</LongitudeDegrees>
            </Position>
            <AltitudeMeters>343.79998779296875</AltitudeMeters>
            <DistanceMeters>331062.25217544</DistanceMeters>
          </Trackpoint>
          <Trackpoint>
            <Time>2018-09-15T07:38:21.000Z</Time>
            <Position>
              <LatitudeDegrees>37.44349627755582332611083984375</LatitudeDegrees>
              <LongitudeDegrees>-7.99387134611606597900390625</LongitudeDegrees>
            </Position>
            <AltitudeMeters>343.20001220703125</AltitudeMeters>
            <DistanceMeters>331072.31693562</DistanceMeters>
          </Trackpoint>
          <Trackpoint>
            <Time>2018-09-15T07:38:23.000Z</Time>
            <Position>
              <LatitudeDegrees>37.44340717792510986328125</LatitudeDegrees>
              <LongitudeDegrees>-7.99366624094545841217041015625</LongitudeDegrees>
            </Position>
            <AltitudeMeters>342.20001220703125</AltitudeMeters>
            <DistanceMeters>331092.97732559</DistanceMeters>
          </Trackpoint>
          <Trackpoint>
            <Time>2018-09-15T07:38:25.000Z</Time>
            <Position>
              <LatitudeDegrees>37.4433523602783679962158203125</LatitudeDegrees>
              <LongitudeDegrees>-7.99343808554112911224365234375</LongitudeDegrees>
            </Position>
            <AltitudeMeters>341.20001220703125</AltitudeMeters>
            <DistanceMeters>331114.04198548</DistanceMeters>
          </Trackpoint>
          <Trackpoint>
            <Time>2018-09-15T07:38:27.000Z</Time>
            <Position>
              <LatitudeDegrees>37.443310953676700592041015625</LatitudeDegrees>
              <LongitudeDegrees>-7.99319668672978878021240234375</LongitudeDegrees>
            </Position>
            <AltitudeMeters>340</AltitudeMeters>
            <DistanceMeters>331135.86650019</DistanceMeters>
          </Trackpoint>
          <Trackpoint>
            <Time>2018-09-15T07:38:29.000Z</Time>
            <Position>
              <LatitudeDegrees>37.4432702176272869110107421875</LatitudeDegrees>
              <LongitudeDegrees>-7.99294908531010150909423828125</LongitudeDegrees>
            </Position>
            <AltitudeMeters>338.79998779296875</AltitudeMeters>
            <DistanceMeters>331158.21172444</DistanceMeters>
          </Trackpoint>
          <Trackpoint>
            <Time>2018-09-15T07:38:31.000Z</Time>
            <Position>
              <LatitudeDegrees>37.4432296492159366607666015625</LatitudeDegrees>
              <LongitudeDegrees>-7.9926967062056064605712890625</LongitudeDegrees>
            </Position>
            <AltitudeMeters>337.600006103515625</AltitudeMeters>
            <DistanceMeters>331180.96700171</DistanceMeters>
          </Trackpoint>
          <Trackpoint>
            <Time>2018-09-15T07:38:37.000Z</Time>
            <Position>
              <LatitudeDegrees>37.44309134781360626220703125</LatitudeDegrees>
              <LongitudeDegrees>-7.9919101484119892120361328125</LongitudeDegrees>
            </Position>
            <AltitudeMeters>333.79998779296875</AltitudeMeters>
            <DistanceMeters>331252.15843873</DistanceMeters>
          </Trackpoint>
          <Trackpoint>
            <Time>2018-09-15T07:38:40.000Z</Time>
            <Position>
              <LatitudeDegrees>37.44302068836987018585205078125</LatitudeDegrees>
              <LongitudeDegrees>-7.99150438047945499420166015625</LongitudeDegrees>
            </Position>
            <AltitudeMeters>332.20001220703125</AltitudeMeters>
            <DistanceMeters>331288.86815758</DistanceMeters>
          </Trackpoint>
          <Trackpoint>
            <Time>2018-09-15T07:38:44.000Z</Time>
            <Position>
              <LatitudeDegrees>37.44289822876453399658203125</LatitudeDegrees>
              <LongitudeDegrees>-7.9909743927419185638427734375</LongitudeDegrees>
            </Position>
            <AltitudeMeters>329.79998779296875</AltitudeMeters>
            <DistanceMeters>331337.64565794</DistanceMeters>
          </Trackpoint>
          <Trackpoint>
            <Time>2018-09-15T07:38:46.000Z</Time>
            <Position>
              <LatitudeDegrees>37.442798651754856109619140625</LatitudeDegrees>
              <LongitudeDegrees>-7.99073793925344944000244140625</LongitudeDegrees>
            </Position>
            <AltitudeMeters>329.79998779296875</AltitudeMeters>
            <DistanceMeters>331361.29833973</DistanceMeters>
          </Trackpoint>
          <Trackpoint>
            <Time>2018-09-15T07:38:47.000Z</Time>
            <Position>
              <LatitudeDegrees>37.442734949290752410888671875</LatitudeDegrees>
              <LongitudeDegrees>-7.99063249491155147552490234375</LongitudeDegrees>
            </Position>
            <AltitudeMeters>330</AltitudeMeters>
            <DistanceMeters>331373.00746654</DistanceMeters>
          </Trackpoint>
          <Trackpoint>
            <Time>2018-09-15T07:38:49.000Z</Time>
            <Position>
              <LatitudeDegrees>37.44260586798191070556640625</LatitudeDegrees>
              <LongitudeDegrees>-7.99044339917600154876708984375</LongitudeDegrees>
            </Position>
            <AltitudeMeters>330.79998779296875</AltitudeMeters>
            <DistanceMeters>331395.04485616</DistanceMeters>
          </Trackpoint>
          <Trackpoint>
            <Time>2018-09-15T07:38:51.000Z</Time>
            <Position>
              <LatitudeDegrees>37.4424806423485279083251953125</LatitudeDegrees>
              <LongitudeDegrees>-7.9902763478457927703857421875</LongitudeDegrees>
            </Position>
            <AltitudeMeters>331.600006103515625</AltitudeMeters>
            <DistanceMeters>331415.34701957</DistanceMeters>
          </Trackpoint>
          <Trackpoint>
            <Time>2018-09-15T07:38:53.000Z</Time>
            <Position>
              <LatitudeDegrees>37.44236639700829982757568359375</LatitudeDegrees>
              <LongitudeDegrees>-7.99012186937034130096435546875</LongitudeDegrees>
            </Position>
            <AltitudeMeters>332.399993896484375</AltitudeMeters>
            <DistanceMeters>331434.00277489</DistanceMeters>
          </Trackpoint>
          <Trackpoint>
            <Time>2018-09-15T07:38:56.000Z</Time>
            <Position>
              <LatitudeDegrees>37.44220781140029430389404296875</LatitudeDegrees>
              <LongitudeDegrees>-7.9899102263152599334716796875</LongitudeDegrees>
            </Position>
            <AltitudeMeters>333</AltitudeMeters>
            <DistanceMeters>331459.71939867</DistanceMeters>
          </Trackpoint>
          <Trackpoint>
            <Time>2018-09-15T07:38:59.000Z</Time>
            <Position>
              <LatitudeDegrees>37.442063055932521820068359375</LatitudeDegrees>
              <LongitudeDegrees>-7.98970947973430156707763671875</LongitudeDegrees>
            </Position>
            <AltitudeMeters>333.600006103515625</AltitudeMeters>
            <DistanceMeters>331483.68365896</DistanceMeters>
          </Trackpoint>
          <Trackpoint>
            <Time>2018-09-15T07:39:02.000Z</Time>
            <Position>
              <LatitudeDegrees>37.44192752055823802947998046875</LatitudeDegrees>
              <LongitudeDegrees>-7.9895214736461639404296875</LongitudeDegrees>
            </Position>
            <AltitudeMeters>334.399993896484375</AltitudeMeters>
            <DistanceMeters>331506.12485687</DistanceMeters>
          </Trackpoint>
          <Trackpoint>
            <Time>2018-09-15T07:39:04.000Z</Time>
            <Position>
              <LatitudeDegrees>37.44183934293687343597412109375</LatitudeDegrees>
              <LongitudeDegrees>-7.9894039593636989593505859375</LongitudeDegrees>
            </Position>
            <AltitudeMeters>335</AltitudeMeters>
            <DistanceMeters>331520.41366467</DistanceMeters>
          </Trackpoint>
          <Trackpoint>
            <Time>2018-09-15T07:39:07.000Z</Time>
            <Position>
              <LatitudeDegrees>37.4417106807231903076171875</LatitudeDegrees>
              <LongitudeDegrees>-7.98923087306320667266845703125</LongitudeDegrees>
            </Position>
            <AltitudeMeters>335.79998779296875</AltitudeMeters>
            <DistanceMeters>331541.36700132</DistanceMeters>
          </Trackpoint>
          <Trackpoint>
            <Time>2018-09-15T07:39:10.000Z</Time>
            <Position>
              <LatitudeDegrees>37.441585958003997802734375</LatitudeDegrees>
              <LongitudeDegrees>-7.989062480628490447998046875</LongitudeDegrees>
            </Position>
            <AltitudeMeters>336.79998779296875</AltitudeMeters>
            <DistanceMeters>331561.71781029</DistanceMeters>
          </Trackpoint>
          <Trackpoint>
            <Time>2018-09-15T07:39:13.000Z</Time>
            <Position>
              <LatitudeDegrees>37.44146458804607391357421875</LatitudeDegrees>
              <LongitudeDegrees>-7.9888992011547088623046875</LongitudeDegrees>
            </Position>
            <AltitudeMeters>337.79998779296875</AltitudeMeters>
            <DistanceMeters>331581.48336688</DistanceMeters>
          </Trackpoint>
          <Trackpoint>
            <Time>2018-09-15T07:39:14.000Z</Time>
            <Position>
              <LatitudeDegrees>37.44142427109181880950927734375</LatitudeDegrees>
              <LongitudeDegrees>-7.9888443835079669952392578125</LongitudeDegrees>
            </Position>
            <AltitudeMeters>338.20001220703125</AltitudeMeters>
            <DistanceMeters>331588.08618515</DistanceMeters>
          </Trackpoint>
          <Trackpoint>
            <Time>2018-09-15T07:39:17.000Z</Time>
            <Position>
              <LatitudeDegrees>37.44130508042871952056884765625</LatitudeDegrees>
              <LongitudeDegrees>-7.98868286423385143280029296875</LongitudeDegrees>
            </Position>
            <AltitudeMeters>339.399993896484375</AltitudeMeters>
            <DistanceMeters>331607.57291845</DistanceMeters>
          </Trackpoint>
          <Trackpoint>
            <Time>2018-09-15T07:39:20.000Z</Time>
            <Position>
              <LatitudeDegrees>37.44118756614625453948974609375</LatitudeDegrees>
              <LongitudeDegrees>-7.98852595500648021697998046875</LongitudeDegrees>
            </Position>
            <AltitudeMeters>340.600006103515625</AltitudeMeters>
            <DistanceMeters>331626.6344815</DistanceMeters>
          </Trackpoint>
          <Trackpoint>
            <Time>2018-09-15T07:39:21.000Z</Time>
            <Position>
              <LatitudeDegrees>37.44114951230585575103759765625</LatitudeDegrees>
              <LongitudeDegrees>-7.9884742386639118194580078125</LongitudeDegrees>
            </Position>
            <AltitudeMeters>341.20001220703125</AltitudeMeters>
            <DistanceMeters>331632.86579987</DistanceMeters>
          </Trackpoint>
          <Trackpoint>
            <Time>2018-09-15T07:39:25.000Z</Time>
            <Position>
              <LatitudeDegrees>37.44100182317197322845458984375</LatitudeDegrees>
              <LongitudeDegrees>-7.98827315680682659149169921875</LongitudeDegrees>
            </Position>
            <AltitudeMeters>342.600006103515625</AltitudeMeters>
            <DistanceMeters>331657.07263136</DistanceMeters>
          </Trackpoint>
          <Trackpoint>
            <Time>2018-09-15T07:39:26.000Z</Time>
            <Position>
              <LatitudeDegrees>37.44096678681671619415283203125</LatitudeDegrees>
              <LongitudeDegrees>-7.9882247932255268096923828125</LongitudeDegrees>
            </Position>
            <AltitudeMeters>342.79998779296875</AltitudeMeters>
            <DistanceMeters>331662.85834595</DistanceMeters>
          </Trackpoint>
          <Trackpoint>
            <Time>2018-09-15T07:39:32.000Z</Time>
            <Position>
              <LatitudeDegrees>37.44076428003609180450439453125</LatitudeDegrees>
              <LongitudeDegrees>-7.98797325231134891510009765625</LongitudeDegrees>
            </Position>
            <AltitudeMeters>342.399993896484375</AltitudeMeters>
            <DistanceMeters>331694.51522331</DistanceMeters>
          </Trackpoint>
          <Trackpoint>
            <Time>2018-09-15T07:39:36.000Z</Time>
            <Position>
              <LatitudeDegrees>37.4406111426651477813720703125</LatitudeDegrees>
              <LongitudeDegrees>-7.98784752376377582550048828125</LongitudeDegrees>
            </Position>
            <AltitudeMeters>342.79998779296875</AltitudeMeters>
            <DistanceMeters>331714.86137268</DistanceMeters>
          </Trackpoint>
          <Trackpoint>
            <Time>2018-09-15T07:39:38.000Z</Time>
            <Position>
              <LatitudeDegrees>37.4405259825289249420166015625</LatitudeDegrees>
              <LongitudeDegrees>-7.98780460841953754425048828125</LongitudeDegrees>
            </Position>
            <AltitudeMeters>343.20001220703125</AltitudeMeters>
            <DistanceMeters>331725.0708865</DistanceMeters>
          </Trackpoint>
          <Trackpoint>
            <Time>2018-09-15T07:39:40.000Z</Time>
            <Position>
              <LatitudeDegrees>37.440431602299213409423828125</LatitudeDegrees>
              <LongitudeDegrees>-7.98777476884424686431884765625</LongitudeDegrees>
            </Position>
            <AltitudeMeters>343.79998779296875</AltitudeMeters>
            <DistanceMeters>331735.90143095</DistanceMeters>
          </Trackpoint>
          <Trackpoint>
            <Time>2018-09-15T07:39:46.000Z</Time>
            <Position>
              <LatitudeDegrees>37.44013479910790920257568359375</LatitudeDegrees>
              <LongitudeDegrees>-7.9876809753477573394775390625</LongitudeDegrees>
            </Position>
            <AltitudeMeters>345.399993896484375</AltitudeMeters>
            <DistanceMeters>331769.96012425</DistanceMeters>
          </Trackpoint>
          <Trackpoint>
            <Time>2018-09-15T07:39:51.000Z</Time>
            <Position>
              <LatitudeDegrees>37.43989340029656887054443359375</LatitudeDegrees>
              <LongitudeDegrees>-7.98754309304058551788330078125</LongitudeDegrees>
            </Position>
            <AltitudeMeters>346.399993896484375</AltitudeMeters>
            <DistanceMeters>331799.46220805</DistanceMeters>
          </Trackpoint>
          <Trackpoint>
            <Time>2018-09-15T07:40:01.000Z</Time>
            <Position>
              <LatitudeDegrees>37.439499534666538238525390625</LatitudeDegrees>
              <LongitudeDegrees>-7.98704319633543491363525390625</LongitudeDegrees>
            </Position>
            <AltitudeMeters>346.79998779296875</AltitudeMeters>
            <DistanceMeters>331861.69897508</DistanceMeters>
          </Trackpoint>
          <Trackpoint>
            <Time>2018-09-15T07:40:11.000Z</Time>
            <Position>
              <LatitudeDegrees>37.4390874803066253662109375</LatitudeDegrees>
              <LongitudeDegrees>-7.986574061214923858642578125</LongitudeDegrees>
            </Position>
            <AltitudeMeters>348</AltitudeMeters>
            <DistanceMeters>331923.52303704</DistanceMeters>
          </Trackpoint>
          <Trackpoint>
            <Time>2018-09-15T07:40:12.000Z</Time>
            <Position>
              <LatitudeDegrees>37.43903961963951587677001953125</LatitudeDegrees>
              <LongitudeDegrees>-7.98653810285031795501708984375</LongitudeDegrees>
            </Position>
            <AltitudeMeters>347.79998779296875</AltitudeMeters>
            <DistanceMeters>331929.72530482</DistanceMeters>
          </Trackpoint>
          <Trackpoint>
            <Time>2018-09-15T07:40:18.000Z</Time>
            <Position>
              <LatitudeDegrees>37.43872848339378833770751953125</LatitudeDegrees>
              <LongitudeDegrees>-7.98640541732311248779296875</LongitudeDegrees>
            </Position>
            <AltitudeMeters>347.399993896484375</AltitudeMeters>
            <DistanceMeters>331966.28676371</DistanceMeters>
          </Trackpoint>
          <Trackpoint>
            <Time>2018-09-15T07:40:20.000Z</Time>
            <Position>
              <LatitudeDegrees>37.4386259727180004119873046875</LatitudeDegrees>
              <LongitudeDegrees>-7.98636074177920818328857421875</LongitudeDegrees>
            </Position>
            <AltitudeMeters>347.79998779296875</AltitudeMeters>
            <DistanceMeters>331978.36001903</DistanceMeters>
          </Trackpoint>
          <Trackpoint>
            <Time>2018-09-15T07:40:26.000Z</Time>
            <Position>
              <LatitudeDegrees>37.43838541209697723388671875</LatitudeDegrees>
              <LongitudeDegrees>-7.98610039986670017242431640625</LongitudeDegrees>
            </Position>
            <AltitudeMeters>348.79998779296875</AltitudeMeters>
            <DistanceMeters>332013.66215565</DistanceMeters>
          </Trackpoint>
          <Trackpoint>
            <Time>2018-09-15T07:40:30.000Z</Time>
            <Position>
              <LatitudeDegrees>37.43824954144656658172607421875</LatitudeDegrees>
              <LongitudeDegrees>-7.985865287482738494873046875</LongitudeDegrees>
            </Position>
            <AltitudeMeters>348.79998779296875</AltitudeMeters>
            <DistanceMeters>332039.36051378</DistanceMeters>
          </Trackpoint>
          <Trackpoint>
            <Time>2018-09-15T07:40:37.000Z</Time>
            <Position>
              <LatitudeDegrees>37.43800344876945018768310546875</LatitudeDegrees>
              <LongitudeDegrees>-7.98544107936322689056396484375</LongitudeDegrees>
            </Position>
            <AltitudeMeters>348</AltitudeMeters>
            <DistanceMeters>332085.78998684</DistanceMeters>
          </Trackpoint>
          <Trackpoint>
            <Time>2018-09-15T07:40:42.000Z</Time>
            <Position>
              <LatitudeDegrees>37.43775249458849430084228515625</LatitudeDegrees>
              <LongitudeDegrees>-7.98519180156290531158447265625</LongitudeDegrees>
            </Position>
            <AltitudeMeters>347.399993896484375</AltitudeMeters>
            <DistanceMeters>332121.36375489</DistanceMeters>
          </Trackpoint>
          <Trackpoint>
            <Time>2018-09-15T07:40:45.000Z</Time>
            <Position>
              <LatitudeDegrees>37.43756423704326152801513671875</LatitudeDegrees>
              <LongitudeDegrees>-7.98504553735256195068359375</LongitudeDegrees>
            </Position>
            <AltitudeMeters>347</AltitudeMeters>
            <DistanceMeters>332145.98337757</DistanceMeters>
          </Trackpoint>
          <Trackpoint>
            <Time>2018-09-15T07:40:48.000Z</Time>
            <Position>
              <LatitudeDegrees>37.4373546056449413299560546875</LatitudeDegrees>
              <LongitudeDegrees>-7.98488871194422245025634765625</LongitudeDegrees>
            </Position>
            <AltitudeMeters>346.79998779296875</AltitudeMeters>
            <DistanceMeters>332173.12161636</DistanceMeters>
          </Trackpoint>
          <Trackpoint>
            <Time>2018-09-15T07:40:51.000Z</Time>
            <Position>
              <LatitudeDegrees>37.4371282942593097686767578125</LatitudeDegrees>
              <LongitudeDegrees>-7.9847224988043308258056640625</LongitudeDegrees>
            </Position>
            <AltitudeMeters>346.600006103515625</AltitudeMeters>
            <DistanceMeters>332202.28073051</DistanceMeters>
          </Trackpoint>
          <Trackpoint>
            <Time>2018-09-15T07:40:53.000Z</Time>
            <Position>
              <LatitudeDegrees>37.43697054684162139892578125</LatitudeDegrees>
              <LongitudeDegrees>-7.9846121929585933685302734375</LongitudeDegrees>
            </Position>
            <AltitudeMeters>346</AltitudeMeters>
            <DistanceMeters>332222.3633176</DistanceMeters>
          </Trackpoint>
          <Trackpoint>
            <Time>2018-09-15T07:40:56.000Z</Time>
            <Position>
              <LatitudeDegrees>37.4367350153625011444091796875</LatitudeDegrees>
              <LongitudeDegrees>-7.984453104436397552490234375</LongitudeDegrees>
            </Position>
            <AltitudeMeters>344.79998779296875</AltitudeMeters>
            <DistanceMeters>332252.11077751</DistanceMeters>
          </Trackpoint>
          <Trackpoint>
            <Time>2018-09-15T07:40:59.000Z</Time>
            <Position>
              <LatitudeDegrees>37.43651096709072589874267578125</LatitudeDegrees>
              <LongitudeDegrees>-7.98430382274091243743896484375</LongitudeDegrees>
            </Position>
            <AltitudeMeters>344.399993896484375</AltitudeMeters>
            <DistanceMeters>332280.32267106</DistanceMeters>
          </Trackpoint>
          <Trackpoint>
            <Time>2018-09-15T07:41:02.000Z</Time>
            <Position>
              <LatitudeDegrees>37.43628918193280696868896484375</LatitudeDegrees>
              <LongitudeDegrees>-7.98415512777864933013916015625</LongitudeDegrees>
            </Position>
            <AltitudeMeters>344.20001220703125</AltitudeMeters>
            <DistanceMeters>332308.28782385</DistanceMeters>
          </Trackpoint>
          <Trackpoint>
            <Time>2018-09-15T07:41:09.000Z</Time>
            <Position>
              <LatitudeDegrees>37.4357908777892589569091796875</LatitudeDegrees>
              <LongitudeDegrees>-7.98382957465946674346923828125</LongitudeDegrees>
            </Position>
            <AltitudeMeters>344</AltitudeMeters>
            <DistanceMeters>332370.76873764</DistanceMeters>
          </Trackpoint>
          <Trackpoint>
            <Time>2018-09-15T07:41:17.000Z</Time>
            <Position>
              <LatitudeDegrees>37.43526675738394260406494140625</LatitudeDegrees>
              <LongitudeDegrees>-7.98349094577133655548095703125</LongitudeDegrees>
            </Position>
            <AltitudeMeters>345.600006103515625</AltitudeMeters>
            <DistanceMeters>332436.33317656</DistanceMeters>
          </Trackpoint>
          <Trackpoint>
            <Time>2018-09-15T07:41:23.000Z</Time>
            <Position>
              <LatitudeDegrees>37.434928379952907562255859375</LatitudeDegrees>
              <LongitudeDegrees>-7.9832754470407962799072265625</LongitudeDegrees>
            </Position>
            <AltitudeMeters>347.20001220703125</AltitudeMeters>
            <DistanceMeters>332478.53702139</DistanceMeters>
          </Trackpoint>
          <Trackpoint>
            <Time>2018-09-15T07:41:24.000Z</Time>
            <Position>
              <LatitudeDegrees>37.43487574160099029541015625</LatitudeDegrees>
              <LongitudeDegrees>-7.98324133269488811492919921875</LongitudeDegrees>
            </Position>
            <AltitudeMeters>347.600006103515625</AltitudeMeters>
            <DistanceMeters>332485.12614937</DistanceMeters>
          </Trackpoint>
          <Trackpoint>
            <Time>2018-09-15T07:41:27.000Z</Time>
            <Position>
              <LatitudeDegrees>37.43472210131585597991943359375</LatitudeDegrees>
              <LongitudeDegrees>-7.98314142040908336639404296875</LongitudeDegrees>
            </Position>
            <AltitudeMeters>348.600006103515625</AltitudeMeters>
            <DistanceMeters>332504.37181578</DistanceMeters>
          </Trackpoint>
          <Trackpoint>
            <Time>2018-09-15T07:41:28.000Z</Time>
            <Position>
              <LatitudeDegrees>37.4346720613539218902587890625</LatitudeDegrees>
              <LongitudeDegrees>-7.98310839571058750152587890625</LongitudeDegrees>
            </Position>
            <AltitudeMeters>349</AltitudeMeters>
            <DistanceMeters>332510.65939677</DistanceMeters>
          </Trackpoint>
          <Trackpoint>
            <Time>2018-09-15T07:41:31.000Z</Time>
            <Position>
              <LatitudeDegrees>37.43452562950551509857177734375</LatitudeDegrees>
              <LongitudeDegrees>-7.98300932161509990692138671875</LongitudeDegrees>
            </Position>
            <AltitudeMeters>349.79998779296875</AltitudeMeters>
            <DistanceMeters>332529.16058802</DistanceMeters>
          </Trackpoint>
          <Trackpoint>
            <Time>2018-09-15T07:41:36.000Z</Time>
            <Position>
              <LatitudeDegrees>37.43429797701537609100341796875</LatitudeDegrees>
              <LongitudeDegrees>-7.982853166759014129638671875</LongitudeDegrees>
            </Position>
            <AltitudeMeters>350.399993896484375</AltitudeMeters>
            <DistanceMeters>332558.01336514</DistanceMeters>
          </Trackpoint>
          <Trackpoint>
            <Time>2018-09-15T07:41:42.000Z</Time>
            <Position>
              <LatitudeDegrees>37.43403562344610691070556640625</LatitudeDegrees>
              <LongitudeDegrees>-7.98267706297338008880615234375</LongitudeDegrees>
            </Position>
            <AltitudeMeters>350.79998779296875</AltitudeMeters>
            <DistanceMeters>332591.1025895</DistanceMeters>
          </Trackpoint>
          <Trackpoint>
            <Time>2018-09-15T07:41:48.000Z</Time>
            <Position>
              <LatitudeDegrees>37.433770336210727691650390625</LatitudeDegrees>
              <LongitudeDegrees>-7.98250615596771240234375</LongitudeDegrees>
            </Position>
            <AltitudeMeters>351.20001220703125</AltitudeMeters>
            <DistanceMeters>332624.2686826</DistanceMeters>
          </Trackpoint>
          <Trackpoint>
            <Time>2018-09-15T07:41:52.000Z</Time>
            <Position>
              <LatitudeDegrees>37.43359423242509365081787109375</LatitudeDegrees>
              <LongitudeDegrees>-7.98239509575068950653076171875</LongitudeDegrees>
            </Position>
            <AltitudeMeters>351.399993896484375</AltitudeMeters>
            <DistanceMeters>332646.189597</DistanceMeters>
          </Trackpoint>
          <Trackpoint>
            <Time>2018-09-15T07:41:58.000Z</Time>
            <Position>
              <LatitudeDegrees>37.43331779725849628448486328125</LatitudeDegrees>
              <LongitudeDegrees>-7.98223181627690792083740234375</LongitudeDegrees>
            </Position>
            <AltitudeMeters>351.79998779296875</AltitudeMeters>
            <DistanceMeters>332680.17357347</DistanceMeters>
          </Trackpoint>
          <Trackpoint>
            <Time>2018-09-15T07:42:00.000Z</Time>
            <Position>
              <LatitudeDegrees>37.43321587331593036651611328125</LatitudeDegrees>
              <LongitudeDegrees>-7.9822005517780780792236328125</LongitudeDegrees>
            </Position>
            <AltitudeMeters>351.79998779296875</AltitudeMeters>
            <DistanceMeters>332691.84987829</DistanceMeters>
          </Trackpoint>
          <Trackpoint>
            <Time>2018-09-15T07:42:08.000Z</Time>
            <Position>
              <LatitudeDegrees>37.432792000472545623779296875</LatitudeDegrees>
              <LongitudeDegrees>-7.982341535389423370361328125</LongitudeDegrees>
            </Position>
            <AltitudeMeters>352.79998779296875</AltitudeMeters>
            <DistanceMeters>332740.64551781</DistanceMeters>
          </Trackpoint>
          <Trackpoint>
            <Time>2018-09-15T07:42:17.000Z</Time>
            <Position>
              <LatitudeDegrees>37.43232470937073230743408203125</LatitudeDegrees>
              <LongitudeDegrees>-7.9826893843710422515869140625</LongitudeDegrees>
            </Position>
            <AltitudeMeters>354.399993896484375</AltitudeMeters>
            <DistanceMeters>332801.0627824</DistanceMeters>
          </Trackpoint>
          <Trackpoint>
            <Time>2018-09-15T07:42:24.000Z</Time>
            <Position>
              <LatitudeDegrees>37.43192036636173725128173828125</LatitudeDegrees>
              <LongitudeDegrees>-7.98260070383548736572265625</LongitudeDegrees>
            </Position>
            <AltitudeMeters>354.79998779296875</AltitudeMeters>
            <DistanceMeters>332846.74425004</DistanceMeters>
          </Trackpoint>
          <Trackpoint>
            <Time>2018-09-15T07:42:29.000Z</Time>
            <Position>
              <LatitudeDegrees>37.43166019208729267120361328125</LatitudeDegrees>
              <LongitudeDegrees>-7.98240498639643192291259765625</LongitudeDegrees>
            </Position>
            <AltitudeMeters>354.600006103515625</AltitudeMeters>
            <DistanceMeters>332880.47511976</DistanceMeters>
          </Trackpoint>
          <Trackpoint>
            <Time>2018-09-15T07:42:39.000Z</Time>
            <Position>
              <LatitudeDegrees>37.4311590380966663360595703125</LatitudeDegrees>
              <LongitudeDegrees>-7.9819977097213268280029296875</LongitudeDegrees>
            </Position>
            <AltitudeMeters>356.20001220703125</AltitudeMeters>
            <DistanceMeters>332946.86092116</DistanceMeters>
          </Trackpoint>
          <Trackpoint>
            <Time>2018-09-15T07:42:41.000Z</Time>
            <Position>
              <LatitudeDegrees>37.43106239475309848785400390625</LatitudeDegrees>
              <LongitudeDegrees>-7.981914393603801727294921875</LongitudeDegrees>
            </Position>
            <AltitudeMeters>356.20001220703125</AltitudeMeters>
            <DistanceMeters>332959.89656378</DistanceMeters>
          </Trackpoint>
          <Trackpoint>
            <Time>2018-09-15T07:42:47.000Z</Time>
            <Position>
              <LatitudeDegrees>37.4307815171778202056884765625</LatitudeDegrees>
              <LongitudeDegrees>-7.98166469670832157135009765625</LongitudeDegrees>
            </Position>
            <AltitudeMeters>355.79998779296875</AltitudeMeters>
            <DistanceMeters>332998.16366946</DistanceMeters>
          </Trackpoint>
          <Trackpoint>
            <Time>2018-09-15T07:42:56.000Z</Time>
            <Position>
              <LatitudeDegrees>37.43036300875246524810791015625</LatitudeDegrees>
              <LongitudeDegrees>-7.98127141781151294708251953125</LongitudeDegrees>
            </Position>
            <AltitudeMeters>355.399993896484375</AltitudeMeters>
            <DistanceMeters>333056.28429503</DistanceMeters>
          </Trackpoint>
          <Trackpoint>
            <Time>2018-09-15T07:43:02.000Z</Time>
            <Position>
              <LatitudeDegrees>37.43007182143628597259521484375</LatitudeDegrees>
              <LongitudeDegrees>-7.9809920489788055419921875</LongitudeDegrees>
            </Position>
            <AltitudeMeters>355</AltitudeMeters>
            <DistanceMeters>333097.02826628</DistanceMeters>
          </Trackpoint>
          <Trackpoint>
            <Time>2018-09-15T07:43:08.000Z</Time>
            <Position>
              <LatitudeDegrees>37.42976554669439792633056640625</LatitudeDegrees>
              <LongitudeDegrees>-7.98074168153107166290283203125</LongitudeDegrees>
            </Position>
            <AltitudeMeters>356</AltitudeMeters>
            <DistanceMeters>333137.6697156</DistanceMeters>
          </Trackpoint>
          <Trackpoint>
            <Time>2018-09-15T07:43:11.000Z</Time>
            <Position>
              <LatitudeDegrees>37.429590113461017608642578125</LatitudeDegrees>
              <LongitudeDegrees>-7.9806934855878353118896484375</LongitudeDegrees>
            </Position>
            <AltitudeMeters>356.399993896484375</AltitudeMeters>
            <DistanceMeters>333157.65516884</DistanceMeters>
          </Trackpoint>
          <Trackpoint>
            <Time>2018-09-15T07:43:13.000Z</Time>
            <Position>
              <LatitudeDegrees>37.4294729344546794891357421875</LatitudeDegrees>
              <LongitudeDegrees>-7.9806975089013576507568359375</LongitudeDegrees>
            </Position>
            <AltitudeMeters>356.79998779296875</AltitudeMeters>
            <DistanceMeters>333170.70223636</DistanceMeters>
          </Trackpoint>
          <Trackpoint>
            <Time>2018-09-15T07:43:16.000Z</Time>
            <Position>
              <LatitudeDegrees>37.4292992614209651947021484375</LatitudeDegrees>
              <LongitudeDegrees>-7.98070010729134082794189453125</LongitudeDegrees>
            </Position>
            <AltitudeMeters>356.399993896484375</AltitudeMeters>
            <DistanceMeters>333190.03404289</DistanceMeters>
          </Trackpoint>
          <Trackpoint>
            <Time>2018-09-15T07:43:17.000Z</Time>
            <Position>
              <LatitudeDegrees>37.429241426289081573486328125</LatitudeDegrees>
              <LongitudeDegrees>-7.9806948266923427581787109375</LongitudeDegrees>
            </Position>
            <AltitudeMeters>355.79998779296875</AltitudeMeters>
            <DistanceMeters>333196.48886843</DistanceMeters>
          </Trackpoint>
          <Trackpoint>
            <Time>2018-09-15T07:43:22.000Z</Time>
            <Position>
              <LatitudeDegrees>37.4289683438837528228759765625</LatitudeDegrees>
              <LongitudeDegrees>-7.98054705373942852020263671875</LongitudeDegrees>
            </Position>
            <AltitudeMeters>353.79998779296875</AltitudeMeters>
            <DistanceMeters>333229.57086013</DistanceMeters>
          </Trackpoint>
          <Trackpoint>
            <Time>2018-09-15T07:43:25.000Z</Time>
            <Position>
              <LatitudeDegrees>37.4288070760667324066162109375</LatitudeDegrees>
              <LongitudeDegrees>-7.9803917370736598968505859375</LongitudeDegrees>
            </Position>
            <AltitudeMeters>352.20001220703125</AltitudeMeters>
            <DistanceMeters>333252.16784516</DistanceMeters>
          </Trackpoint>
          <Trackpoint>
            <Time>2018-09-15T07:43:27.000Z</Time>
            <Position>
              <LatitudeDegrees>37.428691573441028594970703125</LatitudeDegrees>
              <LongitudeDegrees>-7.9802804253995418548583984375</LongitudeDegrees>
            </Position>
            <AltitudeMeters>351.399993896484375</AltitudeMeters>
            <DistanceMeters>333268.3558907</DistanceMeters>
          </Trackpoint>
          <Trackpoint>
            <Time>2018-09-15T07:43:30.000Z</Time>
            <Position>
              <LatitudeDegrees>37.4285133741796016693115234375</LatitudeDegrees>
              <LongitudeDegrees>-7.9800930060446262359619140625</LongitudeDegrees>
            </Position>
            <AltitudeMeters>350</AltitudeMeters>
            <DistanceMeters>333294.1975666</DistanceMeters>
          </Trackpoint>
          <Trackpoint>
            <Time>2018-09-15T07:43:32.000Z</Time>
            <Position>
              <LatitudeDegrees>37.42838772945106029510498046875</LatitudeDegrees>
              <LongitudeDegrees>-7.97995881177484989166259765625</LongitudeDegrees>
            </Position>
            <AltitudeMeters>349.20001220703125</AltitudeMeters>
            <DistanceMeters>333312.53452181</DistanceMeters>
          </Trackpoint>
          <Trackpoint>
            <Time>2018-09-15T07:43:34.000Z</Time>
            <Position>
              <LatitudeDegrees>37.4282575584948062896728515625</LatitudeDegrees>
              <LongitudeDegrees>-7.979821600019931793212890625</LongitudeDegrees>
            </Position>
            <AltitudeMeters>346.79998779296875</AltitudeMeters>
            <DistanceMeters>333331.42859528</DistanceMeters>
          </Trackpoint>
          <Trackpoint>
            <Time>2018-09-15T07:43:38.000Z</Time>
            <Position>
              <LatitudeDegrees>37.42798891849815845489501953125</LatitudeDegrees>
              <LongitudeDegrees>-7.97952664084732532501220703125</LongitudeDegrees>
            </Position>
            <AltitudeMeters>344</AltitudeMeters>
            <DistanceMeters>333371.09835053</DistanceMeters>
          </Trackpoint>
          <Trackpoint>
            <Time>2018-09-15T07:43:41.000Z</Time>
            <Position>
              <LatitudeDegrees>37.42775137536227703094482421875</LatitudeDegrees>
              <LongitudeDegrees>-7.9793282411992549896240234375</LongitudeDegrees>
            </Position>
            <AltitudeMeters>342.79998779296875</AltitudeMeters>
            <DistanceMeters>333402.82418292</DistanceMeters>
          </Trackpoint>
          <Trackpoint>
            <Time>2018-09-15T07:43:44.000Z</Time>
            <Position>
              <LatitudeDegrees>37.42746882140636444091796875</LatitudeDegrees>
              <LongitudeDegrees>-7.97923847101628780364990234375</LongitudeDegrees>
            </Position>
            <AltitudeMeters>343</AltitudeMeters>
            <DistanceMeters>333435.2585142</DistanceMeters>
          </Trackpoint>
          <Trackpoint>
            <Time>2018-09-15T07:43:45.000Z</Time>
            <Position>
              <LatitudeDegrees>37.427371256053447723388671875</LatitudeDegrees>
              <LongitudeDegrees>-7.9792259819805622100830078125</LongitudeDegrees>
            </Position>
            <AltitudeMeters>343</AltitudeMeters>
            <DistanceMeters>333446.17377089</DistanceMeters>
          </Trackpoint>
          <Trackpoint>
            <Time>2018-09-15T07:43:47.000Z</Time>
            <Position>
              <LatitudeDegrees>37.42717369459569454193115234375</LatitudeDegrees>
              <LongitudeDegrees>-7.9791968129575252532958984375</LongitudeDegrees>
            </Position>
            <AltitudeMeters>343.20001220703125</AltitudeMeters>
            <DistanceMeters>333468.31315998</DistanceMeters>
          </Trackpoint>
          <Trackpoint>
            <Time>2018-09-15T07:43:49.000Z</Time>
            <Position>
              <LatitudeDegrees>37.42697671987116336822509765625</LatitudeDegrees>
              <LongitudeDegrees>-7.97915138304233551025390625</LongitudeDegrees>
            </Position>
            <AltitudeMeters>343</AltitudeMeters>
            <DistanceMeters>333490.60133096</DistanceMeters>
          </Trackpoint>
          <Trackpoint>
            <Time>2018-09-15T07:43:51.000Z</Time>
            <Position>
              <LatitudeDegrees>37.426781840622425079345703125</LatitudeDegrees>
              <LongitudeDegrees>-7.9790823161602020263671875</LongitudeDegrees>
            </Position>
            <AltitudeMeters>342.600006103515625</AltitudeMeters>
            <DistanceMeters>333513.13448738</DistanceMeters>
          </Trackpoint>
          <Trackpoint>
            <Time>2018-09-15T07:43:54.000Z</Time>
            <Position>
              <LatitudeDegrees>37.42649425752460956573486328125</LatitudeDegrees>
              <LongitudeDegrees>-7.9789748601615428924560546875</LongitudeDegrees>
            </Position>
            <AltitudeMeters>340.399993896484375</AltitudeMeters>
            <DistanceMeters>333546.52255317</DistanceMeters>
          </Trackpoint>
          <Trackpoint>
            <Time>2018-09-15T07:43:56.000Z</Time>
            <Position>
              <LatitudeDegrees>37.4263032339513301849365234375</LatitudeDegrees>
              <LongitudeDegrees>-7.97890168614685535430908203125</LongitudeDegrees>
            </Position>
            <AltitudeMeters>338.79998779296875</AltitudeMeters>
            <DistanceMeters>333568.74600859</DistanceMeters>
          </Trackpoint>
          <Trackpoint>
            <Time>2018-09-15T07:44:00.000Z</Time>
            <Position>
              <LatitudeDegrees>37.42592931725084781646728515625</LatitudeDegrees>
              <LongitudeDegrees>-7.97875550575554370880126953125</LongitudeDegrees>
            </Position>
            <AltitudeMeters>336</AltitudeMeters>
            <DistanceMeters>333612.32339901</DistanceMeters>
          </Trackpoint>
          <Trackpoint>
            <Time>2018-09-15T07:44:03.000Z</Time>
            <Position>
              <LatitudeDegrees>37.42565573193132877349853515625</LatitudeDegrees>
              <LongitudeDegrees>-7.9786613769829273223876953125</LongitudeDegrees>
            </Position>
            <AltitudeMeters>333.399993896484375</AltitudeMeters>
            <DistanceMeters>333643.89029521</DistanceMeters>
          </Trackpoint>
          <Trackpoint>
            <Time>2018-09-15T07:44:05.000Z</Time>
            <Position>
              <LatitudeDegrees>37.4254739284515380859375</LatitudeDegrees>
              <LongitudeDegrees>-7.97860345803201198577880859375</LongitudeDegrees>
            </Position>
            <AltitudeMeters>332.79998779296875</AltitudeMeters>
            <DistanceMeters>333664.76267021</DistanceMeters>
          </Trackpoint>
          <Trackpoint>
            <Time>2018-09-15T07:44:08.000Z</Time>
            <Position>
              <LatitudeDegrees>37.42520361207425594329833984375</LatitudeDegrees>
              <LongitudeDegrees>-7.9785222373902797698974609375</LongitudeDegrees>
            </Position>
            <AltitudeMeters>333</AltitudeMeters>
            <DistanceMeters>333695.69412118</DistanceMeters>
          </Trackpoint>
          <Trackpoint>
            <Time>2018-09-15T07:44:10.000Z</Time>
            <Position>
              <LatitudeDegrees>37.42503111250698566436767578125</LatitudeDegrees>
              <LongitudeDegrees>-7.9784706048667430877685546875</LongitudeDegrees>
            </Position>
            <AltitudeMeters>333.20001220703125</AltitudeMeters>
            <DistanceMeters>333715.42858689</DistanceMeters>
          </Trackpoint>
          <Trackpoint>
            <Time>2018-09-15T07:44:14.000Z</Time>
            <Position>
              <LatitudeDegrees>37.4246947467327117919921875</LatitudeDegrees>
              <LongitudeDegrees>-7.97830891795456409454345703125</LongitudeDegrees>
            </Position>
            <AltitudeMeters>331.20001220703125</AltitudeMeters>
            <DistanceMeters>333755.50192808</DistanceMeters>
          </Trackpoint>
          <Trackpoint>
            <Time>2018-09-15T07:44:15.000Z</Time>
            <Position>
              <LatitudeDegrees>37.42461453191936016082763671875</LatitudeDegrees>
              <LongitudeDegrees>-7.97825410030782222747802734375</LongitudeDegrees>
            </Position>
            <AltitudeMeters>330.20001220703125</AltitudeMeters>
            <DistanceMeters>333765.66001272</DistanceMeters>
          </Trackpoint>
          <Trackpoint>
            <Time>2018-09-15T07:44:18.000Z</Time>
            <Position>
              <LatitudeDegrees>37.42442845366895198822021484375</LatitudeDegrees>
              <LongitudeDegrees>-7.97801136039197444915771484375</LongitudeDegrees>
            </Position>
            <AltitudeMeters>327</AltitudeMeters>
            <DistanceMeters>333795.48114597</DistanceMeters>
          </Trackpoint>
          <Trackpoint>
            <Time>2018-09-15T07:44:20.000Z</Time>
            <Position>
              <LatitudeDegrees>37.42434178479015827178955078125</LatitudeDegrees>
              <LongitudeDegrees>-7.977799214422702789306640625</LongitudeDegrees>
            </Position>
            <AltitudeMeters>326.399993896484375</AltitudeMeters>
            <DistanceMeters>333816.56872797</DistanceMeters>
          </Trackpoint>
          <Trackpoint>
            <Time>2018-09-15T07:44:21.000Z</Time>
            <Position>
              <LatitudeDegrees>37.42428830824792385101318359375</LatitudeDegrees>
              <LongitudeDegrees>-7.9776941053569316864013671875</LongitudeDegrees>
            </Position>
            <AltitudeMeters>326.20001220703125</AltitudeMeters>
            <DistanceMeters>333827.60247124</DistanceMeters>
          </Trackpoint>
          <Trackpoint>
            <Time>2018-09-15T07:44:22.000Z</Time>
            <Position>
              <LatitudeDegrees>37.42422142066061496734619140625</LatitudeDegrees>
              <LongitudeDegrees>-7.97759913839399814605712890625</LongitudeDegrees>
            </Position>
            <AltitudeMeters>326.20001220703125</AltitudeMeters>
            <DistanceMeters>333838.8224666</DistanceMeters>
          </Trackpoint>
          <Trackpoint>
            <Time>2018-09-15T07:44:27.000Z</Time>
            <Position>
              <LatitudeDegrees>37.42377768270671367645263671875</LatitudeDegrees>
              <LongitudeDegrees>-7.977261431515216827392578125</LongitudeDegrees>
            </Position>
            <AltitudeMeters>322.399993896484375</AltitudeMeters>
            <DistanceMeters>333896.53130693</DistanceMeters>
          </Trackpoint>
          <Trackpoint>
            <Time>2018-09-15T07:44:28.000Z</Time>
            <Position>
              <LatitudeDegrees>37.42367642931640148162841796875</LatitudeDegrees>
              <LongitudeDegrees>-7.977217175066471099853515625</LongitudeDegrees>
            </Position>
            <AltitudeMeters>321.79998779296875</AltitudeMeters>
            <DistanceMeters>333908.46085029</DistanceMeters>
          </Trackpoint>
          <Trackpoint>
            <Time>2018-09-15T07:44:29.000Z</Time>
            <Position>
              <LatitudeDegrees>37.423573248088359832763671875</LatitudeDegrees>
              <LongitudeDegrees>-7.9771774448454380035400390625</LongitudeDegrees>
            </Position>
            <AltitudeMeters>321</AltitudeMeters>
            <DistanceMeters>333920.46998643</DistanceMeters>
          </Trackpoint>
          <Trackpoint>
            <Time>2018-09-15T07:44:31.000Z</Time>
            <Position>
              <LatitudeDegrees>37.4233642034232616424560546875</LatitudeDegrees>
              <LongitudeDegrees>-7.97710091806948184967041015625</LongitudeDegrees>
            </Position>
            <AltitudeMeters>319.399993896484375</AltitudeMeters>
            <DistanceMeters>333944.70049427</DistanceMeters>
          </Trackpoint>
          <Trackpoint>
            <Time>2018-09-15T07:44:33.000Z</Time>
            <Position>
              <LatitudeDegrees>37.423151470720767974853515625</LatitudeDegrees>
              <LongitudeDegrees>-7.97702707350254058837890625</LongitudeDegrees>
            </Position>
            <AltitudeMeters>317</AltitudeMeters>
            <DistanceMeters>333969.26136145</DistanceMeters>
          </Trackpoint>
          <Trackpoint>
            <Time>2018-09-15T07:44:34.000Z</Time>
            <Position>
              <LatitudeDegrees>37.42304258979856967926025390625</LatitudeDegrees>
              <LongitudeDegrees>-7.97700217925012111663818359375</LongitudeDegrees>
            </Position>
            <AltitudeMeters>316</AltitudeMeters>
            <DistanceMeters>333981.57823136</DistanceMeters>
          </Trackpoint>
          <Trackpoint>
            <Time>2018-09-15T07:44:35.000Z</Time>
            <Position>
              <LatitudeDegrees>37.4229306913912296295166015625</LatitudeDegrees>
              <LongitudeDegrees>-7.9769901931285858154296875</LongitudeDegrees>
            </Position>
            <AltitudeMeters>316.79998779296875</AltitudeMeters>
            <DistanceMeters>333994.07776666</DistanceMeters>
          </Trackpoint>
          <Trackpoint>
            <Time>2018-09-15T07:44:37.000Z</Time>
            <Position>
              <LatitudeDegrees>37.42270295508205890655517578125</LatitudeDegrees>
              <LongitudeDegrees>-7.9769762791693210601806640625</LongitudeDegrees>
            </Position>
            <AltitudeMeters>318.20001220703125</AltitudeMeters>
            <DistanceMeters>334019.45505949</DistanceMeters>
          </Trackpoint>
          <Trackpoint>
            <Time>2018-09-15T07:44:39.000Z</Time>
            <Position>
              <LatitudeDegrees>37.422492988407611846923828125</LatitudeDegrees>
              <LongitudeDegrees>-7.9768507182598114013671875</LongitudeDegrees>
            </Position>
            <AltitudeMeters>318.20001220703125</AltitudeMeters>
            <DistanceMeters>334045.32607157</DistanceMeters>
          </Trackpoint>
          <Trackpoint>
            <Time>2018-09-15T07:44:41.000Z</Time>
            <Position>
              <LatitudeDegrees>37.42233146913349628448486328125</LatitudeDegrees>
              <LongitudeDegrees>-7.97663547098636627197265625</LongitudeDegrees>
            </Position>
            <AltitudeMeters>316.600006103515625</AltitudeMeters>
            <DistanceMeters>334071.5022663</DistanceMeters>
          </Trackpoint>
          <Trackpoint>
            <Time>2018-09-15T07:44:43.000Z</Time>
            <Position>
              <LatitudeDegrees>37.4221813492476940155029296875</LatitudeDegrees>
              <LongitudeDegrees>-7.97641661949455738067626953125</LongitudeDegrees>
            </Position>
            <AltitudeMeters>314</AltitudeMeters>
            <DistanceMeters>334097.06427584</DistanceMeters>
          </Trackpoint>
          <Trackpoint>
            <Time>2018-09-15T07:44:45.000Z</Time>
            <Position>
              <LatitudeDegrees>37.42202184163033962249755859375</LatitudeDegrees>
              <LongitudeDegrees>-7.97622065059840679168701171875</LongitudeDegrees>
            </Position>
            <AltitudeMeters>312.600006103515625</AltitudeMeters>
            <DistanceMeters>334121.86879677</DistanceMeters>
          </Trackpoint>
          <Trackpoint>
            <Time>2018-09-15T07:44:46.000Z</Time>
            <Position>
              <LatitudeDegrees>37.42193542420864105224609375</LatitudeDegrees>
              <LongitudeDegrees>-7.97613431699573993682861328125</LongitudeDegrees>
            </Position>
            <AltitudeMeters>312.399993896484375</AltitudeMeters>
            <DistanceMeters>334134.14674839</DistanceMeters>
          </Trackpoint>
          <Trackpoint>
            <Time>2018-09-15T07:44:48.000Z</Time>
            <Position>
              <LatitudeDegrees>37.42174909450113773345947265625</LatitudeDegrees>
              <LongitudeDegrees>-7.9759811796247959136962890625</LongitudeDegrees>
            </Position>
            <AltitudeMeters>312.79998779296875</AltitudeMeters>
            <DistanceMeters>334158.91246769</DistanceMeters>
          </Trackpoint>
          <Trackpoint>
            <Time>2018-09-15T07:44:52.000Z</Time>
            <Position>
              <LatitudeDegrees>37.421343326568603515625</LatitudeDegrees>
              <LongitudeDegrees>-7.97570474445819854736328125</LongitudeDegrees>
            </Position>
            <AltitudeMeters>306.20001220703125</AltitudeMeters>
            <DistanceMeters>334210.26190061</DistanceMeters>
          </Trackpoint>
          <Trackpoint>
            <Time>2018-09-15T07:44:56.000Z</Time>
            <Position>
              <LatitudeDegrees>37.42090621031820774078369140625</LatitudeDegrees>
              <LongitudeDegrees>-7.97553786076605319976806640625</LongitudeDegrees>
            </Position>
            <AltitudeMeters>299.399993896484375</AltitudeMeters>
            <DistanceMeters>334261.10110399</DistanceMeters>
          </Trackpoint>
          <Trackpoint>
            <Time>2018-09-15T07:44:59.000Z</Time>
            <Position>
              <LatitudeDegrees>37.4206135980784893035888671875</LatitudeDegrees>
              <LongitudeDegrees>-7.97572695650160312652587890625</LongitudeDegrees>
            </Position>
            <AltitudeMeters>299.399993896484375</AltitudeMeters>
            <DistanceMeters>334297.70847298</DistanceMeters>
          </Trackpoint>
          <Trackpoint>
            <Time>2018-09-15T07:45:01.000Z</Time>
            <Position>
              <LatitudeDegrees>37.42055316455662250518798828125</LatitudeDegrees>
              <LongitudeDegrees>-7.9759945906698703765869140625</LongitudeDegrees>
            </Position>
            <AltitudeMeters>303</AltitudeMeters>
            <DistanceMeters>334322.30369246</DistanceMeters>
          </Trackpoint>
          <Trackpoint>
            <Time>2018-09-15T07:45:03.000Z</Time>
            <Position>
              <LatitudeDegrees>37.42055148817598819732666015625</LatitudeDegrees>
              <LongitudeDegrees>-7.9762819223105907440185546875</LongitudeDegrees>
            </Position>
            <AltitudeMeters>305.399993896484375</AltitudeMeters>
            <DistanceMeters>334347.70321512</DistanceMeters>
          </Trackpoint>
          <Trackpoint>
            <Time>2018-09-15T07:45:04.000Z</Time>
            <Position>
              <LatitudeDegrees>37.42055601440370082855224609375</LatitudeDegrees>
              <LongitudeDegrees>-7.9764270968735218048095703125</LongitudeDegrees>
            </Position>
            <AltitudeMeters>306</AltitudeMeters>
            <DistanceMeters>334360.54589187</DistanceMeters>
          </Trackpoint>
          <Trackpoint>
            <Time>2018-09-15T07:45:05.000Z</Time>
            <Position>
              <LatitudeDegrees>37.420551069080829620361328125</LatitudeDegrees>
              <LongitudeDegrees>-7.97657084651291370391845703125</LongitudeDegrees>
            </Position>
            <AltitudeMeters>306.399993896484375</AltitudeMeters>
            <DistanceMeters>334373.26421564</DistanceMeters>
          </Trackpoint>
          <Trackpoint>
            <Time>2018-09-15T07:45:06.000Z</Time>
            <Position>
              <LatitudeDegrees>37.4205254204571247100830078125</LatitudeDegrees>
              <LongitudeDegrees>-7.976698838174343109130859375</LongitudeDegrees>
            </Position>
            <AltitudeMeters>306.79998779296875</AltitudeMeters>
            <DistanceMeters>334384.93278421</DistanceMeters>
          </Trackpoint>
          <Trackpoint>
            <Time>2018-09-15T07:45:07.000Z</Time>
            <Position>
              <LatitudeDegrees>37.4204724468290805816650390625</LatitudeDegrees>
              <LongitudeDegrees>-7.9767970740795135498046875</LongitudeDegrees>
            </Position>
            <AltitudeMeters>307</AltitudeMeters>
            <DistanceMeters>334395.42882788</DistanceMeters>
          </Trackpoint>
          <Trackpoint>
            <Time>2018-09-15T07:45:08.000Z</Time>
            <Position>
              <LatitudeDegrees>37.42038753814995288848876953125</LatitudeDegrees>
              <LongitudeDegrees>-7.97685264609754085540771484375</LongitudeDegrees>
            </Position>
            <AltitudeMeters>307</AltitudeMeters>
            <DistanceMeters>334406.07945323</DistanceMeters>
          </Trackpoint>
          <Trackpoint>
            <Time>2018-09-15T07:45:10.000Z</Time>
            <Position>
              <LatitudeDegrees>37.420183606445789337158203125</LatitudeDegrees>
              <LongitudeDegrees>-7.97684409655630588531494140625</LongitudeDegrees>
            </Position>
            <AltitudeMeters>305.399993896484375</AltitudeMeters>
            <DistanceMeters>334428.79004274</DistanceMeters>
          </Trackpoint>
          <Trackpoint>
            <Time>2018-09-15T07:45:13.000Z</Time>
            <Position>
              <LatitudeDegrees>37.419977076351642608642578125</LatitudeDegrees>
              <LongitudeDegrees>-7.9765404202044010162353515625</LongitudeDegrees>
            </Position>
            <AltitudeMeters>300.79998779296875</AltitudeMeters>
            <DistanceMeters>334464.13129419</DistanceMeters>
          </Trackpoint>
          <Trackpoint>
            <Time>2018-09-15T07:45:14.000Z</Time>
            <Position>
              <LatitudeDegrees>37.41994530893862247467041015625</LatitudeDegrees>
              <LongitudeDegrees>-7.9764059744775295257568359375</LongitudeDegrees>
            </Position>
            <AltitudeMeters>299.600006103515625</AltitudeMeters>
            <DistanceMeters>334476.53073294</DistanceMeters>
          </Trackpoint>
          <Trackpoint>
            <Time>2018-09-15T07:45:15.000Z</Time>
            <Position>
              <LatitudeDegrees>37.41991714574396610260009765625</LatitudeDegrees>
              <LongitudeDegrees>-7.97626960091292858123779296875</LongitudeDegrees>
            </Position>
            <AltitudeMeters>298.20001220703125</AltitudeMeters>
            <DistanceMeters>334488.98648436</DistanceMeters>
          </Trackpoint>
          <Trackpoint>
            <Time>2018-09-15T07:45:16.000Z</Time>
            <Position>
              <LatitudeDegrees>37.4198853783309459686279296875</LatitudeDegrees>
              <LongitudeDegrees>-7.97613398171961307525634765625</LongitudeDegrees>
            </Position>
            <AltitudeMeters>297</AltitudeMeters>
            <DistanceMeters>334501.4852972</DistanceMeters>
          </Trackpoint>
          <Trackpoint>
            <Time>2018-09-15T07:45:18.000Z</Time>
            <Position>
              <LatitudeDegrees>37.41979309357702732086181640625</LatitudeDegrees>
              <LongitudeDegrees>-7.97587330453097820281982421875</LongitudeDegrees>
            </Position>
            <AltitudeMeters>294.600006103515625</AltitudeMeters>
            <DistanceMeters>334526.71377136</DistanceMeters>
          </Trackpoint>
          <Trackpoint>
            <Time>2018-09-15T07:45:19.000Z</Time>
            <Position>
              <LatitudeDegrees>37.419722937047481536865234375</LatitudeDegrees>
              <LongitudeDegrees>-7.97575947828590869903564453125</LongitudeDegrees>
            </Position>
            <AltitudeMeters>293.79998779296875</AltitudeMeters>
            <DistanceMeters>334539.45018739</DistanceMeters>
          </Trackpoint>
          <Trackpoint>
            <Time>2018-09-15T07:45:21.000Z</Time>
            <Position>
              <LatitudeDegrees>37.41952973417937755584716796875</LatitudeDegrees>
              <LongitudeDegrees>-7.97559636645019054412841796875</LongitudeDegrees>
            </Position>
            <AltitudeMeters>293</AltitudeMeters>
            <DistanceMeters>334565.34038967</DistanceMeters>
          </Trackpoint>
          <Trackpoint>
            <Time>2018-09-15T07:45:24.000Z</Time>
            <Position>
              <LatitudeDegrees>37.41916847415268421173095703125</LatitudeDegrees>
              <LongitudeDegrees>-7.9755402915179729461669921875</LongitudeDegrees>
            </Position>
            <AltitudeMeters>290.20001220703125</AltitudeMeters>
            <DistanceMeters>334605.85365607</DistanceMeters>
          </Trackpoint>
          <Trackpoint>
            <Time>2018-09-15T07:45:25.000Z</Time>
            <Position>
              <LatitudeDegrees>37.41904609836637973785400390625</LatitudeDegrees>
              <LongitudeDegrees>-7.975540123879909515380859375</LongitudeDegrees>
            </Position>
            <AltitudeMeters>288.399993896484375</AltitudeMeters>
            <DistanceMeters>334619.47400447</DistanceMeters>
          </Trackpoint>
          <Trackpoint>
            <Time>2018-09-15T07:45:27.000Z</Time>
            <Position>
              <LatitudeDegrees>37.4188005924224853515625</LatitudeDegrees>
              <LongitudeDegrees>-7.97555177472531795501708984375</LongitudeDegrees>
            </Position>
            <AltitudeMeters>284.79998779296875</AltitudeMeters>
            <DistanceMeters>334646.81859169</DistanceMeters>
          </Trackpoint>
          <Trackpoint>
            <Time>2018-09-15T07:45:29.000Z</Time>
            <Position>
              <LatitudeDegrees>37.41855525411665439605712890625</LatitudeDegrees>
              <LongitudeDegrees>-7.97560173086822032928466796875</LongitudeDegrees>
            </Position>
            <AltitudeMeters>283</AltitudeMeters>
            <DistanceMeters>334674.48001785</DistanceMeters>
          </Trackpoint>
          <Trackpoint>
            <Time>2018-09-15T07:45:30.000Z</Time>
            <Position>
              <LatitudeDegrees>37.418434135615825653076171875</LatitudeDegrees>
              <LongitudeDegrees>-7.97564129345118999481201171875</LongitudeDegrees>
            </Position>
            <AltitudeMeters>283</AltitudeMeters>
            <DistanceMeters>334688.40653866</DistanceMeters>
          </Trackpoint>
          <Trackpoint>
            <Time>2018-09-15T07:45:31.000Z</Time>
            <Position>
              <LatitudeDegrees>37.4183159507811069488525390625</LatitudeDegrees>
              <LongitudeDegrees>-7.97568689100444316864013671875</LongitudeDegrees>
            </Position>
            <AltitudeMeters>283</AltitudeMeters>
            <DistanceMeters>334702.16442485</DistanceMeters>
          </Trackpoint>
          <Trackpoint>
            <Time>2018-09-15T07:45:33.000Z</Time>
            <Position>
              <LatitudeDegrees>37.4180993624031543731689453125</LatitudeDegrees>
              <LongitudeDegrees>-7.9758028127253055572509765625</LongitudeDegrees>
            </Position>
            <AltitudeMeters>279.79998779296875</AltitudeMeters>
            <DistanceMeters>334728.35872439</DistanceMeters>
          </Trackpoint>
          <Trackpoint>
            <Time>2018-09-15T07:45:36.000Z</Time>
            <Position>
              <LatitudeDegrees>37.41788126528263092041015625</LatitudeDegrees>
              <LongitudeDegrees>-7.97613523900508880615234375</LongitudeDegrees>
            </Position>
            <AltitudeMeters>277</AltitudeMeters>
            <DistanceMeters>334766.47427002</DistanceMeters>
          </Trackpoint>
          <Trackpoint>
            <Time>2018-09-15T07:45:38.000Z</Time>
            <Position>
              <LatitudeDegrees>37.4178321473300457000732421875</LatitudeDegrees>
              <LongitudeDegrees>-7.97642919234931468963623046875</LongitudeDegrees>
            </Position>
            <AltitudeMeters>276.79998779296875</AltitudeMeters>
            <DistanceMeters>334793.02841375</DistanceMeters>
          </Trackpoint>
          <Trackpoint>
            <Time>2018-09-15T07:45:41.000Z</Time>
            <Position>
              <LatitudeDegrees>37.41778294555842876434326171875</LatitudeDegrees>
              <LongitudeDegrees>-7.9768800549209117889404296875</LongitudeDegrees>
            </Position>
            <AltitudeMeters>278.20001220703125</AltitudeMeters>
            <DistanceMeters>334833.25873392</DistanceMeters>
          </Trackpoint>
          <Trackpoint>
            <Time>2018-09-15T07:45:43.000Z</Time>
            <Position>
              <LatitudeDegrees>37.41771991364657878875732421875</LatitudeDegrees>
              <LongitudeDegrees>-7.97716797329485416412353515625</LongitudeDegrees>
            </Position>
            <AltitudeMeters>278.399993896484375</AltitudeMeters>
            <DistanceMeters>334859.65974793</DistanceMeters>
          </Trackpoint>
          <Trackpoint>
            <Time>2018-09-15T07:45:45.000Z</Time>
            <Position>
              <LatitudeDegrees>37.41758647374808788299560546875</LatitudeDegrees>
              <LongitudeDegrees>-7.977416999638080596923828125</LongitudeDegrees>
            </Position>
            <AltitudeMeters>276.600006103515625</AltitudeMeters>
            <DistanceMeters>334886.21525187</DistanceMeters>
          </Trackpoint>
          <Trackpoint>
            <Time>2018-09-15T07:45:47.000Z</Time>
            <Position>
              <LatitudeDegrees>37.41740919649600982666015625</LatitudeDegrees>
              <LongitudeDegrees>-7.97762294299900531768798828125</LongitudeDegrees>
            </Position>
            <AltitudeMeters>274</AltitudeMeters>
            <DistanceMeters>334913.06227483</DistanceMeters>
          </Trackpoint>
          <Trackpoint>
            <Time>2018-09-15T07:45:50.000Z</Time>
            <Position>
              <LatitudeDegrees>37.4171381257474422454833984375</LatitudeDegrees>
              <LongitudeDegrees>-7.977924607694149017333984375</LongitudeDegrees>
            </Position>
            <AltitudeMeters>270.399993896484375</AltitudeMeters>
            <DistanceMeters>334953.32894102</DistanceMeters>
          </Trackpoint>
          <Trackpoint>
            <Time>2018-09-15T07:45:52.000Z</Time>
            <Position>
              <LatitudeDegrees>37.4169684760272502899169921875</LatitudeDegrees>
              <LongitudeDegrees>-7.9781249351799488067626953125</LongitudeDegrees>
            </Position>
            <AltitudeMeters>268.20001220703125</AltitudeMeters>
            <DistanceMeters>334979.21600406</DistanceMeters>
          </Trackpoint>
          <Trackpoint>
            <Time>2018-09-15T07:45:53.000Z</Time>
            <Position>
              <LatitudeDegrees>37.4168886803090572357177734375</LatitudeDegrees>
              <LongitudeDegrees>-7.97822526656091213226318359375</LongitudeDegrees>
            </Position>
            <AltitudeMeters>267.399993896484375</AltitudeMeters>
            <DistanceMeters>334991.76744675</DistanceMeters>
          </Trackpoint>
          <Trackpoint>
            <Time>2018-09-15T07:45:54.000Z</Time>
            <Position>
              <LatitudeDegrees>37.4168212898075580596923828125</LatitudeDegrees>
              <LongitudeDegrees>-7.9783428646624088287353515625</LongitudeDegrees>
            </Position>
            <AltitudeMeters>266.600006103515625</AltitudeMeters>
            <DistanceMeters>335004.5872514</DistanceMeters>
          </Trackpoint>
          <Trackpoint>
            <Time>2018-09-15T07:45:58.000Z</Time>
            <Position>
              <LatitudeDegrees>37.41683361120522022247314453125</LatitudeDegrees>
              <LongitudeDegrees>-7.97890034504234790802001953125</LongitudeDegrees>
            </Position>
            <AltitudeMeters>266</AltitudeMeters>
            <DistanceMeters>335053.88762002</DistanceMeters>
          </Trackpoint>
          <Trackpoint>
            <Time>2018-09-15T07:45:59.000Z</Time>
            <Position>
              <LatitudeDegrees>37.4168561585247516632080078125</LatitudeDegrees>
              <LongitudeDegrees>-7.9790348745882511138916015625</LongitudeDegrees>
            </Position>
            <AltitudeMeters>266.20001220703125</AltitudeMeters>
            <DistanceMeters>335066.04175596</DistanceMeters>
          </Trackpoint>
          <Trackpoint>
            <Time>2018-09-15T07:46:00.000Z</Time>
            <Position>
              <LatitudeDegrees>37.41684886626899242401123046875</LatitudeDegrees>
              <LongitudeDegrees>-7.9791689850389957427978515625</LongitudeDegrees>
            </Position>
            <AltitudeMeters>265</AltitudeMeters>
            <DistanceMeters>335077.92503562</DistanceMeters>
          </Trackpoint>
          <Trackpoint>
            <Time>2018-09-15T07:46:02.000Z</Time>
            <Position>
              <LatitudeDegrees>37.4167341180145740509033203125</LatitudeDegrees>
              <LongitudeDegrees>-7.97938465140759944915771484375</LongitudeDegrees>
            </Position>
            <AltitudeMeters>262.600006103515625</AltitudeMeters>
            <DistanceMeters>335100.87236396</DistanceMeters>
          </Trackpoint>
          <Trackpoint>
            <Time>2018-09-15T07:46:03.000Z</Time>
            <Position>
              <LatitudeDegrees>37.41664283908903598785400390625</LatitudeDegrees>
              <LongitudeDegrees>-7.9794506169855594635009765625</LongitudeDegrees>
            </Position>
            <AltitudeMeters>261.600006103515625</AltitudeMeters>
            <DistanceMeters>335112.58727334</DistanceMeters>
          </Trackpoint>
          <Trackpoint>
            <Time>2018-09-15T07:46:04.000Z</Time>
            <Position>
              <LatitudeDegrees>37.41654418408870697021484375</LatitudeDegrees>
              <LongitudeDegrees>-7.97949210740625858306884765625</LongitudeDegrees>
            </Position>
            <AltitudeMeters>262.20001220703125</AltitudeMeters>
            <DistanceMeters>335124.16455388</DistanceMeters>
          </Trackpoint>
          <Trackpoint>
            <Time>2018-09-15T07:46:06.000Z</Time>
            <Position>
              <LatitudeDegrees>37.41634343750774860382080078125</LatitudeDegrees>
              <LongitudeDegrees>-7.9795072786509990692138671875</LongitudeDegrees>
            </Position>
            <AltitudeMeters>263.79998779296875</AltitudeMeters>
            <DistanceMeters>335146.54813628</DistanceMeters>
          </Trackpoint>
          <Trackpoint>
            <Time>2018-09-15T07:46:08.000Z</Time>
            <Position>
              <LatitudeDegrees>37.41617227904498577117919921875</LatitudeDegrees>
              <LongitudeDegrees>-7.97942521981894969940185546875</LongitudeDegrees>
            </Position>
            <AltitudeMeters>265.79998779296875</AltitudeMeters>
            <DistanceMeters>335166.93308313</DistanceMeters>
          </Trackpoint>
          <Trackpoint>
            <Time>2018-09-15T07:46:09.000Z</Time>
            <Position>
              <LatitudeDegrees>37.41610564291477203369140625</LatitudeDegrees>
              <LongitudeDegrees>-7.9793585836887359619140625</LongitudeDegrees>
            </Position>
            <AltitudeMeters>266.79998779296875</AltitudeMeters>
            <DistanceMeters>335176.40529721</DistanceMeters>
          </Trackpoint>
          <Trackpoint>
            <Time>2018-09-15T07:46:11.000Z</Time>
            <Position>
              <LatitudeDegrees>37.41599835455417633056640625</LatitudeDegrees>
              <LongitudeDegrees>-7.97920930199325084686279296875</LongitudeDegrees>
            </Position>
            <AltitudeMeters>268.399993896484375</AltitudeMeters>
            <DistanceMeters>335194.20271251</DistanceMeters>
          </Trackpoint>
          <Trackpoint>
            <Time>2018-09-15T07:46:13.000Z</Time>
            <Position>
              <LatitudeDegrees>37.41591118276119232177734375</LatitudeDegrees>
              <LongitudeDegrees>-7.97905943356454372406005859375</LongitudeDegrees>
            </Position>
            <AltitudeMeters>268.600006103515625</AltitudeMeters>
            <DistanceMeters>335210.62392266</DistanceMeters>
          </Trackpoint>
          <Trackpoint>
            <Time>2018-09-15T07:46:15.000Z</Time>
            <Position>
              <LatitudeDegrees>37.415825687348842620849609375</LatitudeDegrees>
              <LongitudeDegrees>-7.97892029397189617156982421875</LongitudeDegrees>
            </Position>
            <AltitudeMeters>267.20001220703125</AltitudeMeters>
            <DistanceMeters>335226.17466049</DistanceMeters>
          </Trackpoint>
          <Trackpoint>
            <Time>2018-09-15T07:46:17.000Z</Time>
            <Position>
              <LatitudeDegrees>37.415747232735157012939453125</LatitudeDegrees>
              <LongitudeDegrees>-7.97878324985504150390625</LongitudeDegrees>
            </Position>
            <AltitudeMeters>266.79998779296875</AltitudeMeters>
            <DistanceMeters>335241.10867629</DistanceMeters>
          </Trackpoint>
          <Trackpoint>
            <Time>2018-09-15T07:46:19.000Z</Time>
            <Position>
              <LatitudeDegrees>37.41567439399659633636474609375</LatitudeDegrees>
              <LongitudeDegrees>-7.97865224070847034454345703125</LongitudeDegrees>
            </Position>
            <AltitudeMeters>266.399993896484375</AltitudeMeters>
            <DistanceMeters>335255.24563678</DistanceMeters>
          </Trackpoint>
          <Trackpoint>
            <Time>2018-09-15T07:46:20.000Z</Time>
            <Position>
              <LatitudeDegrees>37.415635921061038970947265625</LatitudeDegrees>
              <LongitudeDegrees>-7.9785919748246669769287109375</LongitudeDegrees>
            </Position>
            <AltitudeMeters>266.20001220703125</AltitudeMeters>
            <DistanceMeters>335262.08029738</DistanceMeters>
          </Trackpoint>
          <Trackpoint>
            <Time>2018-09-15T07:46:22.000Z</Time>
            <Position>
              <LatitudeDegrees>37.41555822081863880157470703125</LatitudeDegrees>
              <LongitudeDegrees>-7.97847948968410491943359375</LongitudeDegrees>
            </Position>
            <AltitudeMeters>265.399993896484375</AltitudeMeters>
            <DistanceMeters>335275.25855334</DistanceMeters>
          </Trackpoint>
          <Trackpoint>
            <Time>2018-09-15T07:46:25.000Z</Time>
            <Position>
              <LatitudeDegrees>37.415451519191265106201171875</LatitudeDegrees>
              <LongitudeDegrees>-7.97834076918661594390869140625</LongitudeDegrees>
            </Position>
            <AltitudeMeters>264.600006103515625</AltitudeMeters>
            <DistanceMeters>335292.32954121</DistanceMeters>
          </Trackpoint>
          <Trackpoint>
            <Time>2018-09-15T07:46:27.000Z</Time>
            <Position>
              <LatitudeDegrees>37.4153799377381801605224609375</LatitudeDegrees>
              <LongitudeDegrees>-7.978269271552562713623046875</LongitudeDegrees>
            </Position>
            <AltitudeMeters>264.399993896484375</AltitudeMeters>
            <DistanceMeters>335302.49961966</DistanceMeters>
          </Trackpoint>
          <Trackpoint>
            <Time>2018-09-15T07:46:29.000Z</Time>
            <Position>
              <LatitudeDegrees>37.4153065122663974761962890625</LatitudeDegrees>
              <LongitudeDegrees>-7.9782104305922985076904296875</LongitudeDegrees>
            </Position>
            <AltitudeMeters>264.399993896484375</AltitudeMeters>
            <DistanceMeters>335312.1867531</DistanceMeters>
          </Trackpoint>
          <Trackpoint>
            <Time>2018-09-15T07:46:30.000Z</Time>
            <Position>
              <LatitudeDegrees>37.415267787873744964599609375</LatitudeDegrees>
              <LongitudeDegrees>-7.97818855382502079010009765625</LongitudeDegrees>
            </Position>
            <AltitudeMeters>264.399993896484375</AltitudeMeters>
            <DistanceMeters>335316.90949477</DistanceMeters>
          </Trackpoint>
          <Trackpoint>
            <Time>2018-09-15T07:46:33.000Z</Time>
            <Position>
              <LatitudeDegrees>37.41515035741031169891357421875</LatitudeDegrees>
              <LongitudeDegrees>-7.97816458158195018768310546875</LongitudeDegrees>
            </Position>
            <AltitudeMeters>264.399993896484375</AltitudeMeters>
            <DistanceMeters>335330.14995941</DistanceMeters>
          </Trackpoint>
          <Trackpoint>
            <Time>2018-09-15T07:46:38.000Z</Time>
            <Position>
              <LatitudeDegrees>37.4149931967258453369140625</LatitudeDegrees>
              <LongitudeDegrees>-7.97825711779296398162841796875</LongitudeDegrees>
            </Position>
            <AltitudeMeters>265.79998779296875</AltitudeMeters>
            <DistanceMeters>335349.46026694</DistanceMeters>
          </Trackpoint>
          <Trackpoint>
            <Time>2018-09-15T07:46:43.000Z</Time>
            <Position>
              <LatitudeDegrees>37.4149370379745960235595703125</LatitudeDegrees>
              <LongitudeDegrees>-7.97844034619629383087158203125</LongitudeDegrees>
            </Position>
            <AltitudeMeters>268.20001220703125</AltitudeMeters>
            <DistanceMeters>335366.82235241</DistanceMeters>
          </Trackpoint>
          <Trackpoint>
            <Time>2018-09-15T07:46:45.000Z</Time>
            <Position>
              <LatitudeDegrees>37.41493611596524715423583984375</LatitudeDegrees>
              <LongitudeDegrees>-7.97851880080997943878173828125</LongitudeDegrees>
            </Position>
            <AltitudeMeters>269.20001220703125</AltitudeMeters>
            <DistanceMeters>335373.75865166</DistanceMeters>
          </Trackpoint>
          <Trackpoint>
            <Time>2018-09-15T07:46:47.000Z</Time>
            <Position>
              <LatitudeDegrees>37.4149343557655811309814453125</LatitudeDegrees>
              <LongitudeDegrees>-7.97860010527074337005615234375</LongitudeDegrees>
            </Position>
            <AltitudeMeters>270.20001220703125</AltitudeMeters>
            <DistanceMeters>335380.94935522</DistanceMeters>
          </Trackpoint>
          <Trackpoint>
            <Time>2018-09-15T07:46:51.000Z</Time>
            <Position>
              <LatitudeDegrees>37.4149236269295215606689453125</LatitudeDegrees>
              <LongitudeDegrees>-7.97876246273517608642578125</LongitudeDegrees>
            </Position>
            <AltitudeMeters>272.20001220703125</AltitudeMeters>
            <DistanceMeters>335395.35178161</DistanceMeters>
          </Trackpoint>
          <Trackpoint>
            <Time>2018-09-15T07:46:56.000Z</Time>
            <Position>
              <LatitudeDegrees>37.4149008281528949737548828125</LatitudeDegrees>
              <LongitudeDegrees>-7.9789648018777370452880859375</LongitudeDegrees>
            </Position>
            <AltitudeMeters>274.600006103515625</AltitudeMeters>
            <DistanceMeters>335413.418107</DistanceMeters>
          </Trackpoint>
          <Trackpoint>
            <Time>2018-09-15T07:47:01.000Z</Time>
            <Position>
              <LatitudeDegrees>37.41483620367944240570068359375</LatitudeDegrees>
              <LongitudeDegrees>-7.9791632853448390960693359375</LongitudeDegrees>
            </Position>
            <AltitudeMeters>277</AltitudeMeters>
            <DistanceMeters>335432.38159203</DistanceMeters>
          </Trackpoint>
          <Trackpoint>
            <Time>2018-09-15T07:47:07.000Z</Time>
            <Position>
              <LatitudeDegrees>37.41468130610883235931396484375</LatitudeDegrees>
              <LongitudeDegrees>-7.9793329350650310516357421875</LongitudeDegrees>
            </Position>
            <AltitudeMeters>279.600006103515625</AltitudeMeters>
            <DistanceMeters>335455.23230625</DistanceMeters>
          </Trackpoint>
          <Trackpoint>
            <Time>2018-09-15T07:47:11.000Z</Time>
            <Position>
              <LatitudeDegrees>37.414549291133880615234375</LatitudeDegrees>
              <LongitudeDegrees>-7.97936487011611461639404296875</LongitudeDegrees>
            </Position>
            <AltitudeMeters>280.20001220703125</AltitudeMeters>
            <DistanceMeters>335470.19471431</DistanceMeters>
          </Trackpoint>
          <Trackpoint>
            <Time>2018-09-15T07:47:14.000Z</Time>
            <Position>
              <LatitudeDegrees>37.41444694809615612030029296875</LatitudeDegrees>
              <LongitudeDegrees>-7.97936319373548030853271484375</LongitudeDegrees>
            </Position>
            <AltitudeMeters>280.20001220703125</AltitudeMeters>
            <DistanceMeters>335481.58682819</DistanceMeters>
          </Trackpoint>
          <Trackpoint>
            <Time>2018-09-15T07:47:19.000Z</Time>
            <Position>
              <LatitudeDegrees>37.41427369415760040283203125</LatitudeDegrees>
              <LongitudeDegrees>-7.97933720983564853668212890625</LongitudeDegrees>
            </Position>
            <AltitudeMeters>279.600006103515625</AltitudeMeters>
            <DistanceMeters>335501.00671781</DistanceMeters>
          </Trackpoint>
          <Trackpoint>
            <Time>2018-09-15T07:47:25.000Z</Time>
            <Position>
              <LatitudeDegrees>37.41406716406345367431640625</LatitudeDegrees>
              <LongitudeDegrees>-7.97928540967404842376708984375</LongitudeDegrees>
            </Position>
            <AltitudeMeters>279.79998779296875</AltitudeMeters>
            <DistanceMeters>335524.44559194</DistanceMeters>
          </Trackpoint>
          <Trackpoint>
            <Time>2018-09-15T07:47:31.000Z</Time>
            <Position>
              <LatitudeDegrees>37.41386658512055873870849609375</LatitudeDegrees>
              <LongitudeDegrees>-7.9792018420994281768798828125</LongitudeDegrees>
            </Position>
            <AltitudeMeters>280.600006103515625</AltitudeMeters>
            <DistanceMeters>335547.96119998</DistanceMeters>
          </Trackpoint>
          <Trackpoint>
            <Time>2018-09-15T07:47:36.000Z</Time>
            <Position>
              <LatitudeDegrees>37.41370162926614284515380859375</LatitudeDegrees>
              <LongitudeDegrees>-7.97913252376019954681396484375</LongitudeDegrees>
            </Position>
            <AltitudeMeters>281.399993896484375</AltitudeMeters>
            <DistanceMeters>335567.31728098</DistanceMeters>
          </Trackpoint>
          <Trackpoint>
            <Time>2018-09-15T07:47:43.000Z</Time>
            <Position>
              <LatitudeDegrees>37.413465343415737152099609375</LatitudeDegrees>
              <LongitudeDegrees>-7.979099415242671966552734375</LongitudeDegrees>
            </Position>
            <AltitudeMeters>283.600006103515625</AltitudeMeters>
            <DistanceMeters>335593.77876596</DistanceMeters>
          </Trackpoint>
          <Trackpoint>
            <Time>2018-09-15T07:47:48.000Z</Time>
            <Position>
              <LatitudeDegrees>37.41329795680940151214599609375</LatitudeDegrees>
              <LongitudeDegrees>-7.9791069589555263519287109375</LongitudeDegrees>
            </Position>
            <AltitudeMeters>284.79998779296875</AltitudeMeters>
            <DistanceMeters>335612.42096331</DistanceMeters>
          </Trackpoint>
          <Trackpoint>
            <Time>2018-09-15T07:47:53.000Z</Time>
            <Position>
              <LatitudeDegrees>37.41312931291759014129638671875</LatitudeDegrees>
              <LongitudeDegrees>-7.97912363894283771514892578125</LongitudeDegrees>
            </Position>
            <AltitudeMeters>285.600006103515625</AltitudeMeters>
            <DistanceMeters>335631.24920649</DistanceMeters>
          </Trackpoint>
          <Trackpoint>
            <Time>2018-09-15T07:47:59.000Z</Time>
            <Position>
              <LatitudeDegrees>37.4129290692508220672607421875</LatitudeDegrees>
              <LongitudeDegrees>-7.97915917821228504180908203125</LongitudeDegrees>
            </Position>
            <AltitudeMeters>287</AltitudeMeters>
            <DistanceMeters>335653.75710174</DistanceMeters>
          </Trackpoint>
          <Trackpoint>
            <Time>2018-09-15T07:48:04.000Z</Time>
            <Position>
              <LatitudeDegrees>37.41276629269123077392578125</LatitudeDegrees>
              <LongitudeDegrees>-7.97919429838657379150390625</LongitudeDegrees>
            </Position>
            <AltitudeMeters>288.20001220703125</AltitudeMeters>
            <DistanceMeters>335672.13832423</DistanceMeters>
          </Trackpoint>
          <Trackpoint>
            <Time>2018-09-15T07:48:10.000Z</Time>
            <Position>
              <LatitudeDegrees>37.41256780922412872314453125</LatitudeDegrees>
              <LongitudeDegrees>-7.97927082516252994537353515625</LongitudeDegrees>
            </Position>
            <AltitudeMeters>290.399993896484375</AltitudeMeters>
            <DistanceMeters>335695.24252166</DistanceMeters>
          </Trackpoint>
          <Trackpoint>
            <Time>2018-09-15T07:48:17.000Z</Time>
            <Position>
              <LatitudeDegrees>37.412337474524974822998046875</LatitudeDegrees>
              <LongitudeDegrees>-7.97934584319591522216796875</LongitudeDegrees>
            </Position>
            <AltitudeMeters>291.20001220703125</AltitudeMeters>
            <DistanceMeters>335721.72310995</DistanceMeters>
          </Trackpoint>
          <Trackpoint>
            <Time>2018-09-15T07:48:22.000Z</Time>
            <Position>
              <LatitudeDegrees>37.41217176429927349090576171875</LatitudeDegrees>
              <LongitudeDegrees>-7.979405187070369720458984375</LongitudeDegrees>
            </Position>
            <AltitudeMeters>291.79998779296875</AltitudeMeters>
            <DistanceMeters>335740.89873804</DistanceMeters>
          </Trackpoint>
          <Trackpoint>
            <Time>2018-09-15T07:48:24.000Z</Time>
            <Position>
              <LatitudeDegrees>37.412100769579410552978515625</LatitudeDegrees>
              <LongitudeDegrees>-7.9794469289481639862060546875</LongitudeDegrees>
            </Position>
            <AltitudeMeters>292.20001220703125</AltitudeMeters>
            <DistanceMeters>335749.61999563</DistanceMeters>
          </Trackpoint>
          <Trackpoint>
            <Time>2018-09-15T07:48:29.000Z</Time>
            <Position>
              <LatitudeDegrees>37.411904297769069671630859375</LatitudeDegrees>
              <LongitudeDegrees>-7.97956368885934352874755859375</LongitudeDegrees>
            </Position>
            <AltitudeMeters>293.600006103515625</AltitudeMeters>
            <DistanceMeters>335773.80163392</DistanceMeters>
          </Trackpoint>
          <Trackpoint>
            <Time>2018-09-15T07:48:38.000Z</Time>
            <Position>
              <LatitudeDegrees>37.4115480668842792510986328125</LatitudeDegrees>
              <LongitudeDegrees>-7.97983207739889621734619140625</LongitudeDegrees>
            </Position>
            <AltitudeMeters>296.79998779296875</AltitudeMeters>
            <DistanceMeters>335820.00807453</DistanceMeters>
          </Trackpoint>
          <Trackpoint>
            <Time>2018-09-15T07:48:43.000Z</Time>
            <Position>
              <LatitudeDegrees>37.41135067306458950042724609375</LatitudeDegrees>
              <LongitudeDegrees>-7.9799937643110752105712890625</LongitudeDegrees>
            </Position>
            <AltitudeMeters>298.20001220703125</AltitudeMeters>
            <DistanceMeters>335846.21908836</DistanceMeters>
          </Trackpoint>
          <Trackpoint>
            <Time>2018-09-15T07:48:47.000Z</Time>
            <Position>
              <LatitudeDegrees>37.41121874190866947174072265625</LatitudeDegrees>
              <LongitudeDegrees>-7.9802016355097293853759765625</LongitudeDegrees>
            </Position>
            <AltitudeMeters>298.79998779296875</AltitudeMeters>
            <DistanceMeters>335869.74237521</DistanceMeters>
          </Trackpoint>
          <Trackpoint>
            <Time>2018-09-15T07:48:50.000Z</Time>
            <Position>
              <LatitudeDegrees>37.41113173775374889373779296875</LatitudeDegrees>
              <LongitudeDegrees>-7.98040799796581268310546875</LongitudeDegrees>
            </Position>
            <AltitudeMeters>298.20001220703125</AltitudeMeters>
            <DistanceMeters>335890.39708246</DistanceMeters>
          </Trackpoint>
          <Trackpoint>
            <Time>2018-09-15T07:48:53.000Z</Time>
            <Position>
              <LatitudeDegrees>37.4109958671033382415771484375</LatitudeDegrees>
              <LongitudeDegrees>-7.980601452291011810302734375</LongitudeDegrees>
            </Position>
            <AltitudeMeters>297.20001220703125</AltitudeMeters>
            <DistanceMeters>335913.22704046</DistanceMeters>
          </Trackpoint>
          <Trackpoint>
            <Time>2018-09-15T07:48:55.000Z</Time>
            <Position>
              <LatitudeDegrees>37.41087642498314380645751953125</LatitudeDegrees>
              <LongitudeDegrees>-7.98068719916045665740966796875</LongitudeDegrees>
            </Position>
            <AltitudeMeters>296.399993896484375</AltitudeMeters>
            <DistanceMeters>335928.53076754</DistanceMeters>
          </Trackpoint>
          <Trackpoint>
            <Time>2018-09-15T07:48:56.000Z</Time>
            <Position>
              <LatitudeDegrees>37.4108071066439151763916015625</LatitudeDegrees>
              <LongitudeDegrees>-7.9807206429541110992431640625</LongitudeDegrees>
            </Position>
            <AltitudeMeters>295.79998779296875</AltitudeMeters>
            <DistanceMeters>335936.79317506</DistanceMeters>
          </Trackpoint>
          <Trackpoint>
            <Time>2018-09-15T07:48:57.000Z</Time>
            <Position>
              <LatitudeDegrees>37.41073644720017910003662109375</LatitudeDegrees>
              <LongitudeDegrees>-7.98075375147163867950439453125</LongitudeDegrees>
            </Position>
            <AltitudeMeters>294.600006103515625</AltitudeMeters>
            <DistanceMeters>335945.18463119</DistanceMeters>
          </Trackpoint>
          <Trackpoint>
            <Time>2018-09-15T07:48:59.000Z</Time>
            <Position>
              <LatitudeDegrees>37.4105916917324066162109375</LatitudeDegrees>
              <LongitudeDegrees>-7.980822734534740447998046875</LongitudeDegrees>
            </Position>
            <AltitudeMeters>292.20001220703125</AltitudeMeters>
            <DistanceMeters>335962.41174535</DistanceMeters>
          </Trackpoint>
          <Trackpoint>
            <Time>2018-09-15T07:49:00.000Z</Time>
            <Position>
              <LatitudeDegrees>37.41051650606095790863037109375</LatitudeDegrees>
              <LongitudeDegrees>-7.98085517250001430511474609375</LongitudeDegrees>
            </Position>
            <AltitudeMeters>291</AltitudeMeters>
            <DistanceMeters>335971.25791076</DistanceMeters>
          </Trackpoint>
          <Trackpoint>
            <Time>2018-09-15T07:49:03.000Z</Time>
            <Position>
              <LatitudeDegrees>37.41028566844761371612548828125</LatitudeDegrees>
              <LongitudeDegrees>-7.98095516860485076904296875</LongitudeDegrees>
            </Position>
            <AltitudeMeters>287</AltitudeMeters>
            <DistanceMeters>335998.42907121</DistanceMeters>
          </Trackpoint>
          <Trackpoint>
            <Time>2018-09-15T07:49:06.000Z</Time>
            <Position>
              <LatitudeDegrees>37.41004477255046367645263671875</LatitudeDegrees>
              <LongitudeDegrees>-7.9810710065066814422607421875</LongitudeDegrees>
            </Position>
            <AltitudeMeters>283.20001220703125</AltitudeMeters>
            <DistanceMeters>336027.13059998</DistanceMeters>
          </Trackpoint>
          <Trackpoint>
            <Time>2018-09-15T07:49:09.000Z</Time>
            <Position>
              <LatitudeDegrees>37.40994418971240520477294921875</LatitudeDegrees>
              <LongitudeDegrees>-7.9813586734235286712646484375</LongitudeDegrees>
            </Position>
            <AltitudeMeters>282</AltitudeMeters>
            <DistanceMeters>336054.91775018</DistanceMeters>
          </Trackpoint>
          <Trackpoint>
            <Time>2018-09-15T07:49:11.000Z</Time>
            <Position>
              <LatitudeDegrees>37.41000621579587459564208984375</LatitudeDegrees>
              <LongitudeDegrees>-7.98156537115573883056640625</LongitudeDegrees>
            </Position>
            <AltitudeMeters>283.20001220703125</AltitudeMeters>
            <DistanceMeters>336074.45215497</DistanceMeters>
          </Trackpoint>
          <Trackpoint>
            <Time>2018-09-15T07:49:12.000Z</Time>
            <Position>
              <LatitudeDegrees>37.410036809742450714111328125</LatitudeDegrees>
              <LongitudeDegrees>-7.9816711507737636566162109375</LongitudeDegrees>
            </Position>
            <AltitudeMeters>283.79998779296875</AltitudeMeters>
            <DistanceMeters>336084.40504091</DistanceMeters>
          </Trackpoint>
          <Trackpoint>
            <Time>2018-09-15T07:49:13.000Z</Time>
            <Position>
              <LatitudeDegrees>37.41005323827266693115234375</LatitudeDegrees>
              <LongitudeDegrees>-7.981781624257564544677734375</LongitudeDegrees>
            </Position>
            <AltitudeMeters>284.399993896484375</AltitudeMeters>
            <DistanceMeters>336094.34158235</DistanceMeters>
          </Trackpoint>
          <Trackpoint>
            <Time>2018-09-15T07:49:15.000Z</Time>
            <Position>
              <LatitudeDegrees>37.4099954031407833099365234375</LatitudeDegrees>
              <LongitudeDegrees>-7.9819844663143157958984375</LongitudeDegrees>
            </Position>
            <AltitudeMeters>284.399993896484375</AltitudeMeters>
            <DistanceMeters>336113.39485328</DistanceMeters>
          </Trackpoint>
          <Trackpoint>
            <Time>2018-09-15T07:49:18.000Z</Time>
            <Position>
              <LatitudeDegrees>37.40974185056984424591064453125</LatitudeDegrees>
              <LongitudeDegrees>-7.982085384428501129150390625</LongitudeDegrees>
            </Position>
            <AltitudeMeters>281.20001220703125</AltitudeMeters>
            <DistanceMeters>336142.99243335</DistanceMeters>
          </Trackpoint>
          <Trackpoint>
            <Time>2018-09-15T07:49:20.000Z</Time>
            <Position>
              <LatitudeDegrees>37.40956633351743221282958984375</LatitudeDegrees>
              <LongitudeDegrees>-7.98207256011664867401123046875</LongitudeDegrees>
            </Position>
            <AltitudeMeters>278.600006103515625</AltitudeMeters>
            <DistanceMeters>336162.56055441</DistanceMeters>
          </Trackpoint>
          <Trackpoint>
            <Time>2018-09-15T07:49:21.000Z</Time>
            <Position>
              <LatitudeDegrees>37.40947865881025791168212890625</LatitudeDegrees>
              <LongitudeDegrees>-7.98206903971731662750244140625</LongitudeDegrees>
            </Position>
            <AltitudeMeters>277.20001220703125</AltitudeMeters>
            <DistanceMeters>336172.32382675</DistanceMeters>
          </Trackpoint>
          <Trackpoint>
            <Time>2018-09-15T07:49:23.000Z</Time>
            <Position>
              <LatitudeDegrees>37.40931504406034946441650390625</LatitudeDegrees>
              <LongitudeDegrees>-7.98212821595370769500732421875</LongitudeDegrees>
            </Position>
            <AltitudeMeters>275.20001220703125</AltitudeMeters>
            <DistanceMeters>336191.27111466</DistanceMeters>
          </Trackpoint>
          <Trackpoint>
            <Time>2018-09-15T07:49:28.000Z</Time>
            <Position>
              <LatitudeDegrees>37.4091394431889057159423828125</LatitudeDegrees>
              <LongitudeDegrees>-7.98265074379742145538330078125</LongitudeDegrees>
            </Position>
            <AltitudeMeters>274.399993896484375</AltitudeMeters>
            <DistanceMeters>336241.43171992</DistanceMeters>
          </Trackpoint>
          <Trackpoint>
            <Time>2018-09-15T07:49:29.000Z</Time>
            <Position>
              <LatitudeDegrees>37.4091313965618610382080078125</LatitudeDegrees>
              <LongitudeDegrees>-7.9827708564698696136474609375</LongitudeDegrees>
            </Position>
            <AltitudeMeters>273.399993896484375</AltitudeMeters>
            <DistanceMeters>336252.08827853</DistanceMeters>
          </Trackpoint>
          <Trackpoint>
            <Time>2018-09-15T07:49:30.000Z</Time>
            <Position>
              <LatitudeDegrees>37.4091407842934131622314453125</LatitudeDegrees>
              <LongitudeDegrees>-7.9828910529613494873046875</LongitudeDegrees>
            </Position>
            <AltitudeMeters>272.600006103515625</AltitudeMeters>
            <DistanceMeters>336262.76600044</DistanceMeters>
          </Trackpoint>
          <Trackpoint>
            <Time>2018-09-15T07:49:35.000Z</Time>
            <Position>
              <LatitudeDegrees>37.40949156694114208221435546875</LatitudeDegrees>
              <LongitudeDegrees>-7.9833223856985569000244140625</LongitudeDegrees>
            </Position>
            <AltitudeMeters>275.79998779296875</AltitudeMeters>
            <DistanceMeters>336317.34178751</DistanceMeters>
          </Trackpoint>
          <Trackpoint>
            <Time>2018-09-15T07:49:37.000Z</Time>
            <Position>
              <LatitudeDegrees>37.409569434821605682373046875</LatitudeDegrees>
              <LongitudeDegrees>-7.983559928834438323974609375</LongitudeDegrees>
            </Position>
            <AltitudeMeters>276.399993896484375</AltitudeMeters>
            <DistanceMeters>336340.06072541</DistanceMeters>
          </Trackpoint>
          <Trackpoint>
            <Time>2018-09-15T07:49:40.000Z</Time>
            <Position>
              <LatitudeDegrees>37.40958427079021930694580078125</LatitudeDegrees>
              <LongitudeDegrees>-7.98394055105745792388916015625</LongitudeDegrees>
            </Position>
            <AltitudeMeters>274.399993896484375</AltitudeMeters>
            <DistanceMeters>336373.75141476</DistanceMeters>
          </Trackpoint>
          <Trackpoint>
            <Time>2018-09-15T07:49:42.000Z</Time>
            <Position>
              <LatitudeDegrees>37.409712262451648712158203125</LatitudeDegrees>
              <LongitudeDegrees>-7.984141968190670013427734375</LongitudeDegrees>
            </Position>
            <AltitudeMeters>273.79998779296875</AltitudeMeters>
            <DistanceMeters>336396.55564841</DistanceMeters>
          </Trackpoint>
          <Trackpoint>
            <Time>2018-09-15T07:49:43.000Z</Time>
            <Position>
              <LatitudeDegrees>37.40979918278753757476806640625</LatitudeDegrees>
              <LongitudeDegrees>-7.98421748913824558258056640625</LongitudeDegrees>
            </Position>
            <AltitudeMeters>274</AltitudeMeters>
            <DistanceMeters>336408.30980383</DistanceMeters>
          </Trackpoint>
          <Trackpoint>
            <Time>2018-09-15T07:49:44.000Z</Time>
            <Position>
              <LatitudeDegrees>37.40987881086766719818115234375</LatitudeDegrees>
              <LongitudeDegrees>-7.98430164344608783721923828125</LongitudeDegrees>
            </Position>
            <AltitudeMeters>275.20001220703125</AltitudeMeters>
            <DistanceMeters>336419.88123302</DistanceMeters>
          </Trackpoint>
          <Trackpoint>
            <Time>2018-09-15T07:49:47.000Z</Time>
            <Position>
              <LatitudeDegrees>37.41000831127166748046875</LatitudeDegrees>
              <LongitudeDegrees>-7.98464722931385040283203125</LongitudeDegrees>
            </Position>
            <AltitudeMeters>275.399993896484375</AltitudeMeters>
            <DistanceMeters>336453.66306291</DistanceMeters>
          </Trackpoint>
          <Trackpoint>
            <Time>2018-09-15T07:49:48.000Z</Time>
            <Position>
              <LatitudeDegrees>37.4100185371935367584228515625</LatitudeDegrees>
              <LongitudeDegrees>-7.98476700671017169952392578125</LongitudeDegrees>
            </Position>
            <AltitudeMeters>275.20001220703125</AltitudeMeters>
            <DistanceMeters>336464.31368826</DistanceMeters>
          </Trackpoint>
          <Trackpoint>
            <Time>2018-09-15T07:49:50.000Z</Time>
            <Position>
              <LatitudeDegrees>37.40998291410505771636962890625</LatitudeDegrees>
              <LongitudeDegrees>-7.98499465920031070709228515625</LongitudeDegrees>
            </Position>
            <AltitudeMeters>274.20001220703125</AltitudeMeters>
            <DistanceMeters>336484.82669638</DistanceMeters>
          </Trackpoint>
          <Trackpoint>
            <Time>2018-09-15T07:49:51.000Z</Time>
            <Position>
              <LatitudeDegrees>37.409923486411571502685546875</LatitudeDegrees>
              <LongitudeDegrees>-7.98507898114621639251708984375</LongitudeDegrees>
            </Position>
            <AltitudeMeters>273.79998779296875</AltitudeMeters>
            <DistanceMeters>336494.79318227</DistanceMeters>
          </Trackpoint>
          <Trackpoint>
            <Time>2018-09-15T07:49:53.000Z</Time>
            <Position>
              <LatitudeDegrees>37.40975744090974330902099609375</LatitudeDegrees>
              <LongitudeDegrees>-7.9851191304624080657958984375</LongitudeDegrees>
            </Position>
            <AltitudeMeters>274</AltitudeMeters>
            <DistanceMeters>336513.61183094</DistanceMeters>
          </Trackpoint>
          <Trackpoint>
            <Time>2018-09-15T07:49:55.000Z</Time>
            <Position>
              <LatitudeDegrees>37.4095970951020717620849609375</LatitudeDegrees>
              <LongitudeDegrees>-7.98502583988010883331298828125</LongitudeDegrees>
            </Position>
            <AltitudeMeters>273.20001220703125</AltitudeMeters>
            <DistanceMeters>336533.27202911</DistanceMeters>
          </Trackpoint>
          <Trackpoint>
            <Time>2018-09-15T07:49:56.000Z</Time>
            <Position>
              <LatitudeDegrees>37.40952190943062305450439453125</LatitudeDegrees>
              <LongitudeDegrees>-7.98496448434889316558837890625</LongitudeDegrees>
            </Position>
            <AltitudeMeters>273.20001220703125</AltitudeMeters>
            <DistanceMeters>336543.24440255</DistanceMeters>
          </Trackpoint>
          <Trackpoint>
            <Time>2018-09-15T07:49:58.000Z</Time>
            <Position>
              <LatitudeDegrees>37.409367263317108154296875</LatitudeDegrees>
              <LongitudeDegrees>-7.98484847880899906158447265625</LongitudeDegrees>
            </Position>
            <AltitudeMeters>273</AltitudeMeters>
            <DistanceMeters>336563.28039711</DistanceMeters>
          </Trackpoint>
          <Trackpoint>
            <Time>2018-09-15T07:50:04.000Z</Time>
            <Position>
              <LatitudeDegrees>37.4088102020323276519775390625</LatitudeDegrees>
              <LongitudeDegrees>-7.98475719988346099853515625</LongitudeDegrees>
            </Position>
            <AltitudeMeters>269.20001220703125</AltitudeMeters>
            <DistanceMeters>336625.8053756</DistanceMeters>
          </Trackpoint>
          <Trackpoint>
            <Time>2018-09-15T07:50:10.000Z</Time>
            <Position>
              <LatitudeDegrees>37.40823176689445972442626953125</LatitudeDegrees>
              <LongitudeDegrees>-7.98475275747478008270263671875</LongitudeDegrees>
            </Position>
            <AltitudeMeters>265.399993896484375</AltitudeMeters>
            <DistanceMeters>336690.18749991</DistanceMeters>
          </Trackpoint>
          <Trackpoint>
            <Time>2018-09-15T07:50:13.000Z</Time>
            <Position>
              <LatitudeDegrees>37.407944016158580780029296875</LatitudeDegrees>
              <LongitudeDegrees>-7.98479265533387660980224609375</LongitudeDegrees>
            </Position>
            <AltitudeMeters>264.20001220703125</AltitudeMeters>
            <DistanceMeters>336722.4081428</DistanceMeters>
          </Trackpoint>
          <Trackpoint>
            <Time>2018-09-15T07:50:15.000Z</Time>
            <Position>
              <LatitudeDegrees>37.4077664874494075775146484375</LatitudeDegrees>
              <LongitudeDegrees>-7.98484965227544307708740234375</LongitudeDegrees>
            </Position>
            <AltitudeMeters>264</AltitudeMeters>
            <DistanceMeters>336742.79973323</DistanceMeters>
          </Trackpoint>
          <Trackpoint>
            <Time>2018-09-15T07:50:17.000Z</Time>
            <Position>
              <LatitudeDegrees>37.40760329179465770721435546875</LatitudeDegrees>
              <LongitudeDegrees>-7.98492089845240116119384765625</LongitudeDegrees>
            </Position>
            <AltitudeMeters>264.20001220703125</AltitudeMeters>
            <DistanceMeters>336762.02497858</DistanceMeters>
          </Trackpoint>
          <Trackpoint>
            <Time>2018-09-15T07:50:20.000Z</Time>
            <Position>
              <LatitudeDegrees>37.407377064228057861328125</LatitudeDegrees>
              <LongitudeDegrees>-7.98503204248845577239990234375</LongitudeDegrees>
            </Position>
            <AltitudeMeters>263.600006103515625</AltitudeMeters>
            <DistanceMeters>336789.05402416</DistanceMeters>
          </Trackpoint>
          <Trackpoint>
            <Time>2018-09-15T07:50:25.000Z</Time>
            <Position>
              <LatitudeDegrees>37.407033406198024749755859375</LatitudeDegrees>
              <LongitudeDegrees>-7.98523128032684326171875</LongitudeDegrees>
            </Position>
            <AltitudeMeters>261</AltitudeMeters>
            <DistanceMeters>336831.16512094</DistanceMeters>
          </Trackpoint>
          <Trackpoint>
            <Time>2018-09-15T07:50:28.000Z</Time>
            <Position>
              <LatitudeDegrees>37.4068599008023738861083984375</LatitudeDegrees>
              <LongitudeDegrees>-7.9854054562747478485107421875</LongitudeDegrees>
            </Position>
            <AltitudeMeters>260.20001220703125</AltitudeMeters>
            <DistanceMeters>336855.86493864</DistanceMeters>
          </Trackpoint>
          <Trackpoint>
            <Time>2018-09-15T07:50:30.000Z</Time>
            <Position>
              <LatitudeDegrees>37.4067623354494571685791015625</LatitudeDegrees>
              <LongitudeDegrees>-7.98554048873484134674072265625</LongitudeDegrees>
            </Position>
            <AltitudeMeters>260</AltitudeMeters>
            <DistanceMeters>336872.0032615</DistanceMeters>
          </Trackpoint>
          <Trackpoint>
            <Time>2018-09-15T07:50:35.000Z</Time>
            <Position>
              <LatitudeDegrees>37.4065712280571460723876953125</LatitudeDegrees>
              <LongitudeDegrees>-7.9858959652483463287353515625</LongitudeDegrees>
            </Position>
            <AltitudeMeters>260.600006103515625</AltitudeMeters>
            <DistanceMeters>336909.95308142</DistanceMeters>
          </Trackpoint>
          <Trackpoint>
            <Time>2018-09-15T07:50:39.000Z</Time>
            <Position>
              <LatitudeDegrees>37.406609952449798583984375</LatitudeDegrees>
              <LongitudeDegrees>-7.98623400740325450897216796875</LongitudeDegrees>
            </Position>
            <AltitudeMeters>261</AltitudeMeters>
            <DistanceMeters>336940.14945536</DistanceMeters>
          </Trackpoint>
          <Trackpoint>
            <Time>2018-09-15T07:50:45.000Z</Time>
            <Position>
              <LatitudeDegrees>37.40692586638033390045166015625</LatitudeDegrees>
              <LongitudeDegrees>-7.9866238497197628021240234375</LongitudeDegrees>
            </Position>
            <AltitudeMeters>262.600006103515625</AltitudeMeters>
            <DistanceMeters>336989.38668338</DistanceMeters>
          </Trackpoint>
          <Trackpoint>
            <Time>2018-09-15T07:50:49.000Z</Time>
            <Position>
              <LatitudeDegrees>37.4070486612617969512939453125</LatitudeDegrees>
              <LongitudeDegrees>-7.98697094433009624481201171875</LongitudeDegrees>
            </Position>
            <AltitudeMeters>263.79998779296875</AltitudeMeters>
            <DistanceMeters>337022.97980296</DistanceMeters>
          </Trackpoint>
          <Trackpoint>
            <Time>2018-09-15T07:50:53.000Z</Time>
            <Position>
              <LatitudeDegrees>37.40686601959168910980224609375</LatitudeDegrees>
              <LongitudeDegrees>-7.98726028762757778167724609375</LongitudeDegrees>
            </Position>
            <AltitudeMeters>266.399993896484375</AltitudeMeters>
            <DistanceMeters>337055.65462504</DistanceMeters>
          </Trackpoint>
          <Trackpoint>
            <Time>2018-09-15T07:50:54.000Z</Time>
            <Position>
              <LatitudeDegrees>37.4067931808531284332275390625</LatitudeDegrees>
              <LongitudeDegrees>-7.98729381524026393890380859375</LongitudeDegrees>
            </Position>
            <AltitudeMeters>266.399993896484375</AltitudeMeters>
            <DistanceMeters>337064.2863781</DistanceMeters>
          </Trackpoint>
          <Trackpoint>
            <Time>2018-09-15T07:50:56.000Z</Time>
            <Position>
              <LatitudeDegrees>37.40663635544478893280029296875</LatitudeDegrees>
              <LongitudeDegrees>-7.9873289354145526885986328125</LongitudeDegrees>
            </Position>
            <AltitudeMeters>266.399993896484375</AltitudeMeters>
            <DistanceMeters>337082.01541927</DistanceMeters>
          </Trackpoint>
          <Trackpoint>
            <Time>2018-09-15T07:51:01.000Z</Time>
            <Position>
              <LatitudeDegrees>37.4062597565352916717529296875</LatitudeDegrees>
              <LongitudeDegrees>-7.98719155602157115936279296875</LongitudeDegrees>
            </Position>
            <AltitudeMeters>267.600006103515625</AltitudeMeters>
            <DistanceMeters>337125.65586235</DistanceMeters>
          </Trackpoint>
          <Trackpoint>
            <Time>2018-09-15T07:51:08.000Z</Time>
            <Position>
              <LatitudeDegrees>37.40575809963047504425048828125</LatitudeDegrees>
              <LongitudeDegrees>-7.98688192851841449737548828125</LongitudeDegrees>
            </Position>
            <AltitudeMeters>257.79998779296875</AltitudeMeters>
            <DistanceMeters>337187.84095506</DistanceMeters>
          </Trackpoint>
          <Trackpoint>
            <Time>2018-09-15T07:51:13.000Z</Time>
            <Position>
              <LatitudeDegrees>37.40538275800645351409912109375</LatitudeDegrees>
              <LongitudeDegrees>-7.98665880225598812103271484375</LongitudeDegrees>
            </Position>
            <AltitudeMeters>254.8000030517578125</AltitudeMeters>
            <DistanceMeters>337234.04084834</DistanceMeters>
          </Trackpoint>
          <Trackpoint>
            <Time>2018-09-15T07:51:15.000Z</Time>
            <Position>
              <LatitudeDegrees>37.40522316657006740570068359375</LatitudeDegrees>
              <LongitudeDegrees>-7.98658244311809539794921875</LongitudeDegrees>
            </Position>
            <AltitudeMeters>254.600006103515625</AltitudeMeters>
            <DistanceMeters>337253.0433402</DistanceMeters>
          </Trackpoint>
          <Trackpoint>
            <Time>2018-09-15T07:51:16.000Z</Time>
            <Position>
              <LatitudeDegrees>37.4051369167864322662353515625</LatitudeDegrees>
              <LongitudeDegrees>-7.98656056635081768035888671875</LongitudeDegrees>
            </Position>
            <AltitudeMeters>254.1999969482421875</AltitudeMeters>
            <DistanceMeters>337262.83616471</DistanceMeters>
          </Trackpoint>
          <Trackpoint>
            <Time>2018-09-15T07:51:20.000Z</Time>
            <Position>
              <LatitudeDegrees>37.40479401312768459320068359375</LatitudeDegrees>
              <LongitudeDegrees>-7.986616306006908416748046875</LongitudeDegrees>
            </Position>
            <AltitudeMeters>255.399993896484375</AltitudeMeters>
            <DistanceMeters>337301.31881634</DistanceMeters>
          </Trackpoint>
          <Trackpoint>
            <Time>2018-09-15T07:51:21.000Z</Time>
            <Position>
              <LatitudeDegrees>37.40470969118177890777587890625</LatitudeDegrees>
              <LongitudeDegrees>-7.98662762157618999481201171875</LongitudeDegrees>
            </Position>
            <AltitudeMeters>256</AltitudeMeters>
            <DistanceMeters>337310.7566484</DistanceMeters>
          </Trackpoint>
          <Trackpoint>
            <Time>2018-09-15T07:51:23.000Z</Time>
            <Position>
              <LatitudeDegrees>37.4045458249747753143310546875</LatitudeDegrees>
              <LongitudeDegrees>-7.986600883305072784423828125</LongitudeDegrees>
            </Position>
            <AltitudeMeters>256.600006103515625</AltitudeMeters>
            <DistanceMeters>337329.14818459</DistanceMeters>
          </Trackpoint>
          <Trackpoint>
            <Time>2018-09-15T07:51:25.000Z</Time>
            <Position>
              <LatitudeDegrees>37.404405511915683746337890625</LatitudeDegrees>
              <LongitudeDegrees>-7.98654665239155292510986328125</LongitudeDegrees>
            </Position>
            <AltitudeMeters>256.79998779296875</AltitudeMeters>
            <DistanceMeters>337345.48476653</DistanceMeters>
          </Trackpoint>
          <Trackpoint>
            <Time>2018-09-15T07:51:26.000Z</Time>
            <Position>
              <LatitudeDegrees>37.40433803759515285491943359375</LatitudeDegrees>
              <LongitudeDegrees>-7.9865192435681819915771484375</LongitudeDegrees>
            </Position>
            <AltitudeMeters>256.79998779296875</AltitudeMeters>
            <DistanceMeters>337353.37656209</DistanceMeters>
          </Trackpoint>
          <Trackpoint>
            <Time>2018-09-15T07:51:29.000Z</Time>
            <Position>
              <LatitudeDegrees>37.4041391350328922271728515625</LatitudeDegrees>
              <LongitudeDegrees>-7.98643031157553195953369140625</LongitudeDegrees>
            </Position>
            <AltitudeMeters>255.8000030517578125</AltitudeMeters>
            <DistanceMeters>337376.86988737</DistanceMeters>
          </Trackpoint>
          <Trackpoint>
            <Time>2018-09-15T07:51:38.000Z</Time>
            <Position>
              <LatitudeDegrees>37.40356489084661006927490234375</LatitudeDegrees>
              <LongitudeDegrees>-7.98634699545800685882568359375</LongitudeDegrees>
            </Position>
            <AltitudeMeters>255.399993896484375</AltitudeMeters>
            <DistanceMeters>337441.20753468</DistanceMeters>
          </Trackpoint>
          <Trackpoint>
            <Time>2018-09-15T07:51:44.000Z</Time>
            <Position>
              <LatitudeDegrees>37.40321352146565914154052734375</LatitudeDegrees>
              <LongitudeDegrees>-7.98635956831276416778564453125</LongitudeDegrees>
            </Position>
            <AltitudeMeters>255.600006103515625</AltitudeMeters>
            <DistanceMeters>337480.33143055</DistanceMeters>
          </Trackpoint>
          <Trackpoint>
            <Time>2018-09-15T07:51:52.000Z</Time>
            <Position>
              <LatitudeDegrees>37.40274430252611637115478515625</LatitudeDegrees>
              <LongitudeDegrees>-7.98634112812578678131103515625</LongitudeDegrees>
            </Position>
            <AltitudeMeters>254.600006103515625</AltitudeMeters>
            <DistanceMeters>337532.58178109</DistanceMeters>
          </Trackpoint>
          <Trackpoint>
            <Time>2018-09-15T07:51:57.000Z</Time>
            <Position>
              <LatitudeDegrees>37.40243836306035518646240234375</LatitudeDegrees>
              <LongitudeDegrees>-7.98616477288305759429931640625</LongitudeDegrees>
            </Position>
            <AltitudeMeters>253.600006103515625</AltitudeMeters>
            <DistanceMeters>337570.03364051</DistanceMeters>
          </Trackpoint>
          <Trackpoint>
            <Time>2018-09-15T07:52:05.000Z</Time>
            <Position>
              <LatitudeDegrees>37.401953637599945068359375</LatitudeDegrees>
              <LongitudeDegrees>-7.9857407324016094207763671875</LongitudeDegrees>
            </Position>
            <AltitudeMeters>254.1999969482421875</AltitudeMeters>
            <DistanceMeters>337635.73284576</DistanceMeters>
          </Trackpoint>
          <Trackpoint>
            <Time>2018-09-15T07:52:06.000Z</Time>
            <Position>
              <LatitudeDegrees>37.401894629001617431640625</LatitudeDegrees>
              <LongitudeDegrees>-7.98568985424935817718505859375</LongitudeDegrees>
            </Position>
            <AltitudeMeters>254.399993896484375</AltitudeMeters>
            <DistanceMeters>337643.69356661</DistanceMeters>
          </Trackpoint>
          <Trackpoint>
            <Time>2018-09-15T07:52:10.000Z</Time>
            <Position>
              <LatitudeDegrees>37.40166571922600269317626953125</LatitudeDegrees>
              <LongitudeDegrees>-7.985488437116146087646484375</LongitudeDegrees>
            </Position>
            <AltitudeMeters>253.8000030517578125</AltitudeMeters>
            <DistanceMeters>337674.7786336</DistanceMeters>
          </Trackpoint>
          <Trackpoint>
            <Time>2018-09-15T07:52:19.000Z</Time>
            <Position>
              <LatitudeDegrees>37.40114134736359119415283203125</LatitudeDegrees>
              <LongitudeDegrees>-7.98518476076424121856689453125</LongitudeDegrees>
            </Position>
            <AltitudeMeters>254.399993896484375</AltitudeMeters>
            <DistanceMeters>337739.02231515</DistanceMeters>
          </Trackpoint>
          <Trackpoint>
            <Time>2018-09-15T07:52:26.000Z</Time>
            <Position>
              <LatitudeDegrees>37.40077472291886806488037109375</LatitudeDegrees>
              <LongitudeDegrees>-7.985051572322845458984375</LongitudeDegrees>
            </Position>
            <AltitudeMeters>256.20001220703125</AltitudeMeters>
            <DistanceMeters>337781.49362253</DistanceMeters>
          </Trackpoint>
          <Trackpoint>
            <Time>2018-09-15T07:52:29.000Z</Time>
            <Position>
              <LatitudeDegrees>37.400612533092498779296875</LatitudeDegrees>
              <LongitudeDegrees>-7.985021732747554779052734375</LongitudeDegrees>
            </Position>
            <AltitudeMeters>257.20001220703125</AltitudeMeters>
            <DistanceMeters>337799.73726683</DistanceMeters>
          </Trackpoint>
          <Trackpoint>
            <Time>2018-09-15T07:52:33.000Z</Time>
            <Position>
              <LatitudeDegrees>37.400397956371307373046875</LatitudeDegrees>
              <LongitudeDegrees>-7.98501066863536834716796875</LongitudeDegrees>
            </Position>
            <AltitudeMeters>258.600006103515625</AltitudeMeters>
            <DistanceMeters>337823.64021638</DistanceMeters>
          </Trackpoint>
          <Trackpoint>
            <Time>2018-09-15T07:52:40.000Z</Time>
            <Position>
              <LatitudeDegrees>37.40003661252558231353759765625</LatitudeDegrees>
              <LongitudeDegrees>-7.98504956066608428955078125</LongitudeDegrees>
            </Position>
            <AltitudeMeters>261.399993896484375</AltitudeMeters>
            <DistanceMeters>337864.00521127</DistanceMeters>
          </Trackpoint>
          <Trackpoint>
            <Time>2018-09-15T07:52:50.000Z</Time>
            <Position>
              <LatitudeDegrees>37.3994980752468109130859375</LatitudeDegrees>
              <LongitudeDegrees>-7.985118962824344635009765625</LongitudeDegrees>
            </Position>
            <AltitudeMeters>259.79998779296875</AltitudeMeters>
            <DistanceMeters>337924.25881767</DistanceMeters>
          </Trackpoint>
          <Trackpoint>
            <Time>2018-09-15T07:52:57.000Z</Time>
            <Position>
              <LatitudeDegrees>37.39910177886486053466796875</LatitudeDegrees>
              <LongitudeDegrees>-7.9851667396724224090576171875</LongitudeDegrees>
            </Position>
            <AltitudeMeters>257.79998779296875</AltitudeMeters>
            <DistanceMeters>337968.5691948</DistanceMeters>
          </Trackpoint>
          <Trackpoint>
            <Time>2018-09-15T07:53:02.000Z</Time>
            <Position>
              <LatitudeDegrees>37.3987680114805698394775390625</LatitudeDegrees>
              <LongitudeDegrees>-7.98519716598093509674072265625</LongitudeDegrees>
            </Position>
            <AltitudeMeters>255.399993896484375</AltitudeMeters>
            <DistanceMeters>338005.81554555</DistanceMeters>
          </Trackpoint>
          <Trackpoint>
            <Time>2018-09-15T07:53:04.000Z</Time>
            <Position>
              <LatitudeDegrees>37.3986181430518627166748046875</LatitudeDegrees>
              <LongitudeDegrees>-7.9851902090013027191162109375</LongitudeDegrees>
            </Position>
            <AltitudeMeters>254.399993896484375</AltitudeMeters>
            <DistanceMeters>338022.50754988</DistanceMeters>
          </Trackpoint>
          <Trackpoint>
            <Time>2018-09-15T07:53:09.000Z</Time>
            <Position>
              <LatitudeDegrees>37.3982054181396961212158203125</LatitudeDegrees>
              <LongitudeDegrees>-7.98506640829145908355712890625</LongitudeDegrees>
            </Position>
            <AltitudeMeters>251.600006103515625</AltitudeMeters>
            <DistanceMeters>338069.73095106</DistanceMeters>
          </Trackpoint>
          <Trackpoint>
            <Time>2018-09-15T07:53:10.000Z</Time>
            <Position>
              <LatitudeDegrees>37.3981165699660778045654296875</LatitudeDegrees>
              <LongitudeDegrees>-7.98503606580197811126708984375</LongitudeDegrees>
            </Position>
            <AltitudeMeters>251.399993896484375</AltitudeMeters>
            <DistanceMeters>338079.97710491</DistanceMeters>
          </Trackpoint>
          <Trackpoint>
            <Time>2018-09-15T07:53:12.000Z</Time>
            <Position>
              <LatitudeDegrees>37.3979361914098262786865234375</LatitudeDegrees>
              <LongitudeDegrees>-7.98497722484171390533447265625</LongitudeDegrees>
            </Position>
            <AltitudeMeters>250.600006103515625</AltitudeMeters>
            <DistanceMeters>338100.71688941</DistanceMeters>
          </Trackpoint>
          <Trackpoint>
            <Time>2018-09-15T07:53:14.000Z</Time>
            <Position>
              <LatitudeDegrees>37.39775396883487701416015625</LatitudeDegrees>
              <LongitudeDegrees>-7.98491855151951313018798828125</LongitudeDegrees>
            </Position>
            <AltitudeMeters>249.8000030517578125</AltitudeMeters>
            <DistanceMeters>338121.65168652</DistanceMeters>
          </Trackpoint>
          <Trackpoint>
            <Time>2018-09-15T07:53:16.000Z</Time>
            <Position>
              <LatitudeDegrees>37.3975740931928157806396484375</LatitudeDegrees>
              <LongitudeDegrees>-7.98485853709280490875244140625</LongitudeDegrees>
            </Position>
            <AltitudeMeters>249.399993896484375</AltitudeMeters>
            <DistanceMeters>338142.36336877</DistanceMeters>
          </Trackpoint>
          <Trackpoint>
            <Time>2018-09-15T07:53:17.000Z</Time>
            <Position>
              <LatitudeDegrees>37.39748868159949779510498046875</LatitudeDegrees>
              <LongitudeDegrees>-7.98482852987945079803466796875</LongitudeDegrees>
            </Position>
            <AltitudeMeters>249.399993896484375</AltitudeMeters>
            <DistanceMeters>338152.23243177</DistanceMeters>
          </Trackpoint>
          <Trackpoint>
            <Time>2018-09-15T07:53:19.000Z</Time>
            <Position>
              <LatitudeDegrees>37.3973226360976696014404296875</LatitudeDegrees>
              <LongitudeDegrees>-7.9847781546413898468017578125</LongitudeDegrees>
            </Position>
            <AltitudeMeters>248.399993896484375</AltitudeMeters>
            <DistanceMeters>338171.24252539</DistanceMeters>
          </Trackpoint>
          <Trackpoint>
            <Time>2018-09-15T07:53:22.000Z</Time>
            <Position>
              <LatitudeDegrees>37.39708836190402507781982421875</LatitudeDegrees>
              <LongitudeDegrees>-7.98470447771251201629638671875</LongitudeDegrees>
            </Position>
            <AltitudeMeters>246.8000030517578125</AltitudeMeters>
            <DistanceMeters>338198.11913111</DistanceMeters>
          </Trackpoint>
          <Trackpoint>
            <Time>2018-09-15T07:53:28.000Z</Time>
            <Position>
              <LatitudeDegrees>37.39666633307933807373046875</LatitudeDegrees>
              <LongitudeDegrees>-7.98456952907145023345947265625</LongitudeDegrees>
            </Position>
            <AltitudeMeters>246.1999969482421875</AltitudeMeters>
            <DistanceMeters>338246.58378022</DistanceMeters>
          </Trackpoint>
          <Trackpoint>
            <Time>2018-09-15T07:53:32.000Z</Time>
            <Position>
              <LatitudeDegrees>37.39638864062726497650146484375</LatitudeDegrees>
              <LongitudeDegrees>-7.9844831116497516632080078125</LongitudeDegrees>
            </Position>
            <AltitudeMeters>247</AltitudeMeters>
            <DistanceMeters>338278.42212599</DistanceMeters>
          </Trackpoint>
          <Trackpoint>
            <Time>2018-09-15T07:53:40.000Z</Time>
            <Position>
              <LatitudeDegrees>37.3958370275795459747314453125</LatitudeDegrees>
              <LongitudeDegrees>-7.9843104444444179534912109375</LongitudeDegrees>
            </Position>
            <AltitudeMeters>249.600006103515625</AltitudeMeters>
            <DistanceMeters>338341.68779807</DistanceMeters>
          </Trackpoint>
          <Trackpoint>
            <Time>2018-09-15T07:53:48.000Z</Time>
            <Position>
              <LatitudeDegrees>37.39531257189810276031494140625</LatitudeDegrees>
              <LongitudeDegrees>-7.984142638742923736572265625</LongitudeDegrees>
            </Position>
            <AltitudeMeters>253</AltitudeMeters>
            <DistanceMeters>338401.91719595</DistanceMeters>
          </Trackpoint>
          <Trackpoint>
            <Time>2018-09-15T07:53:57.000Z</Time>
            <Position>
              <LatitudeDegrees>37.39474126137793064117431640625</LatitudeDegrees>
              <LongitudeDegrees>-7.98396720550954341888427734375</LongitudeDegrees>
            </Position>
            <AltitudeMeters>254.600006103515625</AltitudeMeters>
            <DistanceMeters>338467.37011787</DistanceMeters>
          </Trackpoint>
          <Trackpoint>
            <Time>2018-09-15T07:54:01.000Z</Time>
            <Position>
              <LatitudeDegrees>37.3944835178554058074951171875</LatitudeDegrees>
              <LongitudeDegrees>-7.98389746807515621185302734375</LongitudeDegrees>
            </Position>
            <AltitudeMeters>254.8000030517578125</AltitudeMeters>
            <DistanceMeters>338496.71276087</DistanceMeters>
          </Trackpoint>
          <Trackpoint>
            <Time>2018-09-15T07:54:06.000Z</Time>
            <Position>
              <LatitudeDegrees>37.3941505886614322662353515625</LatitudeDegrees>
              <LongitudeDegrees>-7.98395966179668903350830078125</LongitudeDegrees>
            </Position>
            <AltitudeMeters>255</AltitudeMeters>
            <DistanceMeters>338534.17426352</DistanceMeters>
          </Trackpoint>
          <Trackpoint>
            <Time>2018-09-15T07:54:15.000Z</Time>
            <Position>
              <LatitudeDegrees>37.39361272193491458892822265625</LatitudeDegrees>
              <LongitudeDegrees>-7.9842651821672916412353515625</LongitudeDegrees>
            </Position>
            <AltitudeMeters>256</AltitudeMeters>
            <DistanceMeters>338599.85360485</DistanceMeters>
          </Trackpoint>
          <Trackpoint>
            <Time>2018-09-15T07:54:23.000Z</Time>
            <Position>
              <LatitudeDegrees>37.3931434191763401031494140625</LatitudeDegrees>
              <LongitudeDegrees>-7.98453189432621002197265625</LongitudeDegrees>
            </Position>
            <AltitudeMeters>257.20001220703125</AltitudeMeters>
            <DistanceMeters>338657.16574385</DistanceMeters>
          </Trackpoint>
          <Trackpoint>
            <Time>2018-09-15T07:54:24.000Z</Time>
            <Position>
              <LatitudeDegrees>37.393084578216075897216796875</LatitudeDegrees>
              <LongitudeDegrees>-7.984557710587978363037109375</LongitudeDegrees>
            </Position>
            <AltitudeMeters>257.399993896484375</AltitudeMeters>
            <DistanceMeters>338664.10139214</DistanceMeters>
          </Trackpoint>
          <Trackpoint>
            <Time>2018-09-15T07:54:28.000Z</Time>
            <Position>
              <LatitudeDegrees>37.3928520642220973968505859375</LatitudeDegrees>
              <LongitudeDegrees>-7.98461663536727428436279296875</LongitudeDegrees>
            </Position>
            <AltitudeMeters>258.600006103515625</AltitudeMeters>
            <DistanceMeters>338690.50001179</DistanceMeters>
          </Trackpoint>
          <Trackpoint>
            <Time>2018-09-15T07:54:31.000Z</Time>
            <Position>
              <LatitudeDegrees>37.3926800675690174102783203125</LatitudeDegrees>
              <LongitudeDegrees>-7.984620071947574615478515625</LongitudeDegrees>
            </Position>
            <AltitudeMeters>259.20001220703125</AltitudeMeters>
            <DistanceMeters>338709.64618512</DistanceMeters>
          </Trackpoint>
          <Trackpoint>
            <Time>2018-09-15T07:54:32.000Z</Time>
            <Position>
              <LatitudeDegrees>37.39262558519840240478515625</LatitudeDegrees>
              <LongitudeDegrees>-7.98461345024406909942626953125</LongitudeDegrees>
            </Position>
            <AltitudeMeters>259.399993896484375</AltitudeMeters>
            <DistanceMeters>338715.73827952</DistanceMeters>
          </Trackpoint>
          <Trackpoint>
            <Time>2018-09-15T07:54:36.000Z</Time>
            <Position>
              <LatitudeDegrees>37.39242115058004856109619140625</LatitudeDegrees>
              <LongitudeDegrees>-7.98456114716827869415283203125</LongitudeDegrees>
            </Position>
            <AltitudeMeters>260</AltitudeMeters>
            <DistanceMeters>338738.95768335</DistanceMeters>
          </Trackpoint>
          <Trackpoint>
            <Time>2018-09-15T07:54:40.000Z</Time>
            <Position>
              <LatitudeDegrees>37.39223255775868892669677734375</LatitudeDegrees>
              <LongitudeDegrees>-7.98452024348080158233642578125</LongitudeDegrees>
            </Position>
            <AltitudeMeters>260.600006103515625</AltitudeMeters>
            <DistanceMeters>338760.25808618</DistanceMeters>
          </Trackpoint>
          <Trackpoint>
            <Time>2018-09-15T07:54:42.000Z</Time>
            <Position>
              <LatitudeDegrees>37.39214035682380199432373046875</LatitudeDegrees>
              <LongitudeDegrees>-7.984528206288814544677734375</LongitudeDegrees>
            </Position>
            <AltitudeMeters>261.20001220703125</AltitudeMeters>
            <DistanceMeters>338770.54470058</DistanceMeters>
          </Trackpoint>
          <Trackpoint>
            <Time>2018-09-15T07:54:46.000Z</Time>
            <Position>
              <LatitudeDegrees>37.39197540096938610076904296875</LatitudeDegrees>
              <LongitudeDegrees>-7.9846034757792949676513671875</LongitudeDegrees>
            </Position>
            <AltitudeMeters>262.20001220703125</AltitudeMeters>
            <DistanceMeters>338790.07401979</DistanceMeters>
          </Trackpoint>
          <Trackpoint>
            <Time>2018-09-15T07:54:47.000Z</Time>
            <Position>
              <LatitudeDegrees>37.39193835295736789703369140625</LatitudeDegrees>
              <LongitudeDegrees>-7.98463138751685619354248046875</LongitudeDegrees>
            </Position>
            <AltitudeMeters>262.399993896484375</AltitudeMeters>
            <DistanceMeters>338794.88015499</DistanceMeters>
          </Trackpoint>
          <Trackpoint>
            <Time>2018-09-15T07:54:48.000Z</Time>
            <Position>
              <LatitudeDegrees>37.3919018916785717010498046875</LatitudeDegrees>
              <LongitudeDegrees>-7.98466122709214687347412109375</LongitudeDegrees>
            </Position>
            <AltitudeMeters>262.600006103515625</AltitudeMeters>
            <DistanceMeters>338799.72092438</DistanceMeters>
          </Trackpoint>
          <Trackpoint>
            <Time>2018-09-15T07:54:51.000Z</Time>
            <Position>
              <LatitudeDegrees>37.3917959444224834442138671875</LatitudeDegrees>
              <LongitudeDegrees>-7.98475258983671665191650390625</LongitudeDegrees>
            </Position>
            <AltitudeMeters>263.399993896484375</AltitudeMeters>
            <DistanceMeters>338814.01510291</DistanceMeters>
          </Trackpoint>
          <Trackpoint>
            <Time>2018-09-15T07:54:55.000Z</Time>
            <Position>
              <LatitudeDegrees>37.39164113067090511322021484375</LatitudeDegrees>
              <LongitudeDegrees>-7.98483037389814853668212890625</LongitudeDegrees>
            </Position>
            <AltitudeMeters>264.399993896484375</AltitudeMeters>
            <DistanceMeters>338832.56820195</DistanceMeters>
          </Trackpoint>
          <Trackpoint>
            <Time>2018-09-15T07:54:56.000Z</Time>
            <Position>
              <LatitudeDegrees>37.39160089753568172454833984375</LatitudeDegrees>
              <LongitudeDegrees>-7.9848415218293666839599609375</LongitudeDegrees>
            </Position>
            <AltitudeMeters>264.600006103515625</AltitudeMeters>
            <DistanceMeters>338837.15219452</DistanceMeters>
          </Trackpoint>
          <Trackpoint>
            <Time>2018-09-15T07:55:00.000Z</Time>
            <Position>
              <LatitudeDegrees>37.39144382067024707794189453125</LatitudeDegrees>
              <LongitudeDegrees>-7.984873540699481964111328125</LongitudeDegrees>
            </Position>
            <AltitudeMeters>265.20001220703125</AltitudeMeters>
            <DistanceMeters>338854.86289003</DistanceMeters>
          </Trackpoint>
          <Trackpoint>
            <Time>2018-09-15T07:55:05.000Z</Time>
            <Position>
              <LatitudeDegrees>37.39125472493469715118408203125</LatitudeDegrees>
              <LongitudeDegrees>-7.984874546527862548828125</LongitudeDegrees>
            </Position>
            <AltitudeMeters>266.20001220703125</AltitudeMeters>
            <DistanceMeters>338875.90975202</DistanceMeters>
          </Trackpoint>
          <Trackpoint>
            <Time>2018-09-15T07:55:10.000Z</Time>
            <Position>
              <LatitudeDegrees>37.391070239245891571044921875</LatitudeDegrees>
              <LongitudeDegrees>-7.9848646558821201324462890625</LongitudeDegrees>
            </Position>
            <AltitudeMeters>267</AltitudeMeters>
            <DistanceMeters>338896.46190169</DistanceMeters>
          </Trackpoint>
          <Trackpoint>
            <Time>2018-09-15T07:55:16.000Z</Time>
            <Position>
              <LatitudeDegrees>37.390838228166103363037109375</LatitudeDegrees>
              <LongitudeDegrees>-7.98484898172318935394287109375</LongitudeDegrees>
            </Position>
            <AltitudeMeters>269.600006103515625</AltitudeMeters>
            <DistanceMeters>338922.32226579</DistanceMeters>
          </Trackpoint>
          <Trackpoint>
            <Time>2018-09-15T07:55:24.000Z</Time>
            <Position>
              <LatitudeDegrees>37.39052834920585155487060546875</LatitudeDegrees>
              <LongitudeDegrees>-7.9848126880824565887451171875</LongitudeDegrees>
            </Position>
            <AltitudeMeters>274</AltitudeMeters>
            <DistanceMeters>338956.96142582</DistanceMeters>
          </Trackpoint>
          <Trackpoint>
            <Time>2018-09-15T07:55:29.000Z</Time>
            <Position>
              <LatitudeDegrees>37.39034025929868221282958984375</LatitudeDegrees>
              <LongitudeDegrees>-7.9847685992717742919921875</LongitudeDegrees>
            </Position>
            <AltitudeMeters>276.79998779296875</AltitudeMeters>
            <DistanceMeters>338978.25631672</DistanceMeters>
          </Trackpoint>
          <Trackpoint>
            <Time>2018-09-15T07:55:38.000Z</Time>
            <Position>
              <LatitudeDegrees>37.39000347442924976348876953125</LatitudeDegrees>
              <LongitudeDegrees>-7.98469006083905696868896484375</LongitudeDegrees>
            </Position>
            <AltitudeMeters>279.399993896484375</AltitudeMeters>
            <DistanceMeters>339016.37920596</DistanceMeters>
          </Trackpoint>
          <Trackpoint>
            <Time>2018-09-15T07:55:44.000Z</Time>
            <Position>
              <LatitudeDegrees>37.38977129571139812469482421875</LatitudeDegrees>
              <LongitudeDegrees>-7.984679751098155975341796875</LongitudeDegrees>
            </Position>
            <AltitudeMeters>279.79998779296875</AltitudeMeters>
            <DistanceMeters>339042.23730025</DistanceMeters>
          </Trackpoint>
          <Trackpoint>
            <Time>2018-09-15T07:55:50.000Z</Time>
            <Position>
              <LatitudeDegrees>37.38954431377351284027099609375</LatitudeDegrees>
              <LongitudeDegrees>-7.98475460149347782135009765625</LongitudeDegrees>
            </Position>
            <AltitudeMeters>280</AltitudeMeters>
            <DistanceMeters>339068.3535736</DistanceMeters>
          </Trackpoint>
          <Trackpoint>
            <Time>2018-09-15T07:55:56.000Z</Time>
            <Position>
              <LatitudeDegrees>37.3893189243972301483154296875</LatitudeDegrees>
              <LongitudeDegrees>-7.9848398454487323760986328125</LongitudeDegrees>
            </Position>
            <AltitudeMeters>280</AltitudeMeters>
            <DistanceMeters>339094.54804551</DistanceMeters>
          </Trackpoint>
          <Trackpoint>
            <Time>2018-09-15T07:56:01.000Z</Time>
            <Position>
              <LatitudeDegrees>37.3891284875571727752685546875</LatitudeDegrees>
              <LongitudeDegrees>-7.9849107563495635986328125</LongitudeDegrees>
            </Position>
            <AltitudeMeters>280</AltitudeMeters>
            <DistanceMeters>339116.65232963</DistanceMeters>
          </Trackpoint>
          <Trackpoint>
            <Time>2018-09-15T07:56:07.000Z</Time>
            <Position>
              <LatitudeDegrees>37.3889065347611904144287109375</LatitudeDegrees>
              <LongitudeDegrees>-7.98503237776458263397216796875</LongitudeDegrees>
            </Position>
            <AltitudeMeters>279.399993896484375</AltitudeMeters>
            <DistanceMeters>339143.59604811</DistanceMeters>
          </Trackpoint>
          <Trackpoint>
            <Time>2018-09-15T07:56:13.000Z</Time>
            <Position>
              <LatitudeDegrees>37.3887450993061065673828125</LatitudeDegrees>
              <LongitudeDegrees>-7.98526288010179996490478515625</LongitudeDegrees>
            </Position>
            <AltitudeMeters>281.20001220703125</AltitudeMeters>
            <DistanceMeters>339170.76903636</DistanceMeters>
          </Trackpoint>
          <Trackpoint>
            <Time>2018-09-15T07:56:19.000Z</Time>
            <Position>
              <LatitudeDegrees>37.3885799758136272430419921875</LatitudeDegrees>
              <LongitudeDegrees>-7.9854812286794185638427734375</LongitudeDegrees>
            </Position>
            <AltitudeMeters>283.399993896484375</AltitudeMeters>
            <DistanceMeters>339197.42669747</DistanceMeters>
          </Trackpoint>
          <Trackpoint>
            <Time>2018-09-15T07:56:28.000Z</Time>
            <Position>
              <LatitudeDegrees>37.38826774992048740386962890625</LatitudeDegrees>
              <LongitudeDegrees>-7.98569588921964168548583984375</LongitudeDegrees>
            </Position>
            <AltitudeMeters>285.399993896484375</AltitudeMeters>
            <DistanceMeters>339237.02502602</DistanceMeters>
          </Trackpoint>
          <Trackpoint>
            <Time>2018-09-15T07:56:36.000Z</Time>
            <Position>
              <LatitudeDegrees>37.3879618942737579345703125</LatitudeDegrees>
              <LongitudeDegrees>-7.985780797898769378662109375</LongitudeDegrees>
            </Position>
            <AltitudeMeters>286</AltitudeMeters>
            <DistanceMeters>339271.88571575</DistanceMeters>
          </Trackpoint>
          <Trackpoint>
            <Time>2018-09-15T07:56:44.000Z</Time>
            <Position>
              <LatitudeDegrees>37.38764396868646144866943359375</LatitudeDegrees>
              <LongitudeDegrees>-7.985790185630321502685546875</LongitudeDegrees>
            </Position>
            <AltitudeMeters>285.79998779296875</AltitudeMeters>
            <DistanceMeters>339307.28109406</DistanceMeters>
          </Trackpoint>
          <Trackpoint>
            <Time>2018-09-15T07:56:49.000Z</Time>
            <Position>
              <LatitudeDegrees>37.38744749687612056732177734375</LatitudeDegrees>
              <LongitudeDegrees>-7.98575825057923793792724609375</LongitudeDegrees>
            </Position>
            <AltitudeMeters>286</AltitudeMeters>
            <DistanceMeters>339329.33015879</DistanceMeters>
          </Trackpoint>
          <Trackpoint>
            <Time>2018-09-15T07:56:51.000Z</Time>
            <Position>
              <LatitudeDegrees>37.387368790805339813232421875</LatitudeDegrees>
              <LongitudeDegrees>-7.9857263155281543731689453125</LongitudeDegrees>
            </Position>
            <AltitudeMeters>286.600006103515625</AltitudeMeters>
            <DistanceMeters>339338.53451522</DistanceMeters>
          </Trackpoint>
          <Trackpoint>
            <Time>2018-09-15T07:56:56.000Z</Time>
            <Position>
              <LatitudeDegrees>37.387170977890491485595703125</LatitudeDegrees>
              <LongitudeDegrees>-7.9856445081532001495361328125</LongitudeDegrees>
            </Position>
            <AltitudeMeters>287.79998779296875</AltitudeMeters>
            <DistanceMeters>339361.70973661</DistanceMeters>
          </Trackpoint>
          <Trackpoint>
            <Time>2018-09-15T07:57:02.000Z</Time>
            <Position>
              <LatitudeDegrees>37.386933267116546630859375</LatitudeDegrees>
              <LongitudeDegrees>-7.9855378903448581695556640625</LongitudeDegrees>
            </Position>
            <AltitudeMeters>288.600006103515625</AltitudeMeters>
            <DistanceMeters>339389.79732512</DistanceMeters>
          </Trackpoint>
          <Trackpoint>
            <Time>2018-09-15T07:57:10.000Z</Time>
            <Position>
              <LatitudeDegrees>37.38664903677999973297119140625</LatitudeDegrees>
              <LongitudeDegrees>-7.9853172786533832550048828125</LongitudeDegrees>
            </Position>
            <AltitudeMeters>286.399993896484375</AltitudeMeters>
            <DistanceMeters>339426.96504169</DistanceMeters>
          </Trackpoint>
          <Trackpoint>
            <Time>2018-09-15T07:57:16.000Z</Time>
            <Position>
              <LatitudeDegrees>37.386458851397037506103515625</LatitudeDegrees>
              <LongitudeDegrees>-7.98512709327042102813720703125</LongitudeDegrees>
            </Position>
            <AltitudeMeters>289</AltitudeMeters>
            <DistanceMeters>339454.0014362</DistanceMeters>
          </Trackpoint>
          <Trackpoint>
            <Time>2018-09-15T07:57:21.000Z</Time>
            <Position>
              <LatitudeDegrees>37.38629498519003391265869140625</LatitudeDegrees>
              <LongitudeDegrees>-7.98497253097593784332275390625</LongitudeDegrees>
            </Position>
            <AltitudeMeters>293.20001220703125</AltitudeMeters>
            <DistanceMeters>339476.79358918</DistanceMeters>
          </Trackpoint>
          <Trackpoint>
            <Time>2018-09-15T07:57:23.000Z</Time>
            <Position>
              <LatitudeDegrees>37.38623128272593021392822265625</LatitudeDegrees>
              <LongitudeDegrees>-7.9849072359502315521240234375</LongitudeDegrees>
            </Position>
            <AltitudeMeters>295</AltitudeMeters>
            <DistanceMeters>339485.93741102</DistanceMeters>
          </Trackpoint>
          <Trackpoint>
            <Time>2018-09-15T07:57:25.000Z</Time>
            <Position>
              <LatitudeDegrees>37.3861629702150821685791015625</LatitudeDegrees>
              <LongitudeDegrees>-7.984846048057079315185546875</LongitudeDegrees>
            </Position>
            <AltitudeMeters>297</AltitudeMeters>
            <DistanceMeters>339495.26940208</DistanceMeters>
          </Trackpoint>
          <Trackpoint>
            <Time>2018-09-15T07:57:32.000Z</Time>
            <Position>
              <LatitudeDegrees>37.385939843952655792236328125</LatitudeDegrees>
              <LongitudeDegrees>-7.9845981113612651824951171875</LongitudeDegrees>
            </Position>
            <AltitudeMeters>296.600006103515625</AltitudeMeters>
            <DistanceMeters>339528.39817343</DistanceMeters>
          </Trackpoint>
          <Trackpoint>
            <Time>2018-09-15T07:57:44.000Z</Time>
            <Position>
              <LatitudeDegrees>37.38565410487353801727294921875</LatitudeDegrees>
              <LongitudeDegrees>-7.9840435646474361419677734375</LongitudeDegrees>
            </Position>
            <AltitudeMeters>291.600006103515625</AltitudeMeters>
            <DistanceMeters>339586.84972262</DistanceMeters>
          </Trackpoint>
          <Trackpoint>
            <Time>2018-09-15T07:57:49.000Z</Time>
            <Position>
              <LatitudeDegrees>37.385446317493915557861328125</LatitudeDegrees>
              <LongitudeDegrees>-7.9839191772043704986572265625</LongitudeDegrees>
            </Position>
            <AltitudeMeters>293</AltitudeMeters>
            <DistanceMeters>339612.45973067</DistanceMeters>
          </Trackpoint>
          <Trackpoint>
            <Time>2018-09-15T07:57:56.000Z</Time>
            <Position>
              <LatitudeDegrees>37.3851202614605426788330078125</LatitudeDegrees>
              <LongitudeDegrees>-7.98382152803242206573486328125</LongitudeDegrees>
            </Position>
            <AltitudeMeters>293.600006103515625</AltitudeMeters>
            <DistanceMeters>339649.763859</DistanceMeters>
          </Trackpoint>
          <Trackpoint>
            <Time>2018-09-15T07:58:08.000Z</Time>
            <Position>
              <LatitudeDegrees>37.38456160761415958404541015625</LatitudeDegrees>
              <LongitudeDegrees>-7.983661852777004241943359375</LongitudeDegrees>
            </Position>
            <AltitudeMeters>294.399993896484375</AltitudeMeters>
            <DistanceMeters>339713.52650111</DistanceMeters>
          </Trackpoint>
          <Trackpoint>
            <Time>2018-09-15T07:58:13.000Z</Time>
            <Position>
              <LatitudeDegrees>37.38438106141984462738037109375</LatitudeDegrees>
              <LongitudeDegrees>-7.983580045402050018310546875</LongitudeDegrees>
            </Position>
            <AltitudeMeters>296.79998779296875</AltitudeMeters>
            <DistanceMeters>339734.88405905</DistanceMeters>
          </Trackpoint>
          <Trackpoint>
            <Time>2018-09-15T07:58:18.000Z</Time>
            <Position>
              <LatitudeDegrees>37.3842193745076656341552734375</LatitudeDegrees>
              <LongitudeDegrees>-7.98347502015531063079833984375</LongitudeDegrees>
            </Position>
            <AltitudeMeters>299</AltitudeMeters>
            <DistanceMeters>339755.13567657</DistanceMeters>
          </Trackpoint>
          <Trackpoint>
            <Time>2018-09-15T07:58:21.000Z</Time>
            <Position>
              <LatitudeDegrees>37.3841248266398906707763671875</LatitudeDegrees>
              <LongitudeDegrees>-7.98340662382543087005615234375</LongitudeDegrees>
            </Position>
            <AltitudeMeters>300.399993896484375</AltitudeMeters>
            <DistanceMeters>339767.27382829</DistanceMeters>
          </Trackpoint>
          <Trackpoint>
            <Time>2018-09-15T07:58:25.000Z</Time>
            <Position>
              <LatitudeDegrees>37.38399599678814411163330078125</LatitudeDegrees>
              <LongitudeDegrees>-7.9833173565566539764404296875</LongitudeDegrees>
            </Position>
            <AltitudeMeters>303.20001220703125</AltitudeMeters>
            <DistanceMeters>339783.64243844</DistanceMeters>
          </Trackpoint>
          <Trackpoint>
            <Time>2018-09-15T07:58:30.000Z</Time>
            <Position>
              <LatitudeDegrees>37.38384579308331012725830078125</LatitudeDegrees>
              <LongitudeDegrees>-7.98319078981876373291015625</LongitudeDegrees>
            </Position>
            <AltitudeMeters>306.20001220703125</AltitudeMeters>
            <DistanceMeters>339803.76163839</DistanceMeters>
          </Trackpoint>
          <Trackpoint>
            <Time>2018-09-15T07:58:36.000Z</Time>
            <Position>
              <LatitudeDegrees>37.3837104253470897674560546875</LatitudeDegrees>
              <LongitudeDegrees>-7.98299239017069339752197265625</LongitudeDegrees>
            </Position>
            <AltitudeMeters>309</AltitudeMeters>
            <DistanceMeters>339826.88927441</DistanceMeters>
          </Trackpoint>
          <Trackpoint>
            <Time>2018-09-15T07:58:41.000Z</Time>
            <Position>
              <LatitudeDegrees>37.38365535624325275421142578125</LatitudeDegrees>
              <LongitudeDegrees>-7.98277437686920166015625</LongitudeDegrees>
            </Position>
            <AltitudeMeters>310.20001220703125</AltitudeMeters>
            <DistanceMeters>339847.12081674</DistanceMeters>
          </Trackpoint>
          <Trackpoint>
            <Time>2018-09-15T07:58:48.000Z</Time>
            <Position>
              <LatitudeDegrees>37.38362568430602550506591796875</LatitudeDegrees>
              <LongitudeDegrees>-7.9824664257466793060302734375</LongitudeDegrees>
            </Position>
            <AltitudeMeters>312</AltitudeMeters>
            <DistanceMeters>339874.5550802</DistanceMeters>
          </Trackpoint>
          <Trackpoint>
            <Time>2018-09-15T07:58:53.000Z</Time>
            <Position>
              <LatitudeDegrees>37.38364378921687602996826171875</LatitudeDegrees>
              <LongitudeDegrees>-7.9822505079209804534912109375</LongitudeDegrees>
            </Position>
            <AltitudeMeters>313.600006103515625</AltitudeMeters>
            <DistanceMeters>339893.75682625</DistanceMeters>
          </Trackpoint>
          <Trackpoint>
            <Time>2018-09-15T07:58:57.000Z</Time>
            <Position>
              <LatitudeDegrees>37.38366298377513885498046875</LatitudeDegrees>
              <LongitudeDegrees>-7.98207473941147327423095703125</LongitudeDegrees>
            </Position>
            <AltitudeMeters>313.20001220703125</AltitudeMeters>
            <DistanceMeters>339909.44746053</DistanceMeters>
          </Trackpoint>
          <Trackpoint>
            <Time>2018-09-15T07:59:04.000Z</Time>
            <Position>
              <LatitudeDegrees>37.38369894213974475860595703125</LatitudeDegrees>
              <LongitudeDegrees>-7.98177726566791534423828125</LongitudeDegrees>
            </Position>
            <AltitudeMeters>312.399993896484375</AltitudeMeters>
            <DistanceMeters>339936.05833415</DistanceMeters>
          </Trackpoint>
          <Trackpoint>
            <Time>2018-09-15T07:59:08.000Z</Time>
            <Position>
              <LatitudeDegrees>37.38371302373707294464111328125</LatitudeDegrees>
              <LongitudeDegrees>-7.98160786740481853485107421875</LongitudeDegrees>
            </Position>
            <AltitudeMeters>313.600006103515625</AltitudeMeters>
            <DistanceMeters>339951.12119247</DistanceMeters>
          </Trackpoint>
          <Trackpoint>
            <Time>2018-09-15T07:59:15.000Z</Time>
            <Position>
              <LatitudeDegrees>37.38361210562288761138916015625</LatitudeDegrees>
              <LongitudeDegrees>-7.98135087825357913970947265625</LongitudeDegrees>
            </Position>
            <AltitudeMeters>315.399993896484375</AltitudeMeters>
            <DistanceMeters>339976.47320858</DistanceMeters>
          </Trackpoint>
          <Trackpoint>
            <Time>2018-09-15T07:59:23.000Z</Time>
            <Position>
              <LatitudeDegrees>37.38340255804359912872314453125</LatitudeDegrees>
              <LongitudeDegrees>-7.98115524463355541229248046875</LongitudeDegrees>
            </Position>
            <AltitudeMeters>312.600006103515625</AltitudeMeters>
            <DistanceMeters>340005.51316105</DistanceMeters>
          </Trackpoint>
          <Trackpoint>
            <Time>2018-09-15T07:59:29.000Z</Time>
            <Position>
              <LatitudeDegrees>37.383234500885009765625</LatitudeDegrees>
              <LongitudeDegrees>-7.98102733679115772247314453125</LongitudeDegrees>
            </Position>
            <AltitudeMeters>312.79998779296875</AltitudeMeters>
            <DistanceMeters>340027.37302347</DistanceMeters>
          </Trackpoint>
          <Trackpoint>
            <Time>2018-09-15T07:59:35.000Z</Time>
            <Position>
              <LatitudeDegrees>37.38305437378585338592529296875</LatitudeDegrees>
              <LongitudeDegrees>-7.9809033684432506561279296875</LongitudeDegrees>
            </Position>
            <AltitudeMeters>315</AltitudeMeters>
            <DistanceMeters>340050.22334251</DistanceMeters>
          </Trackpoint>
          <Trackpoint>
            <Time>2018-09-15T07:59:41.000Z</Time>
            <Position>
              <LatitudeDegrees>37.38293685950338840484619140625</LatitudeDegrees>
              <LongitudeDegrees>-7.980721481144428253173828125</LongitudeDegrees>
            </Position>
            <AltitudeMeters>317</AltitudeMeters>
            <DistanceMeters>340070.95615946</DistanceMeters>
          </Trackpoint>
          <Trackpoint>
            <Time>2018-09-15T07:59:45.000Z</Time>
            <Position>
              <LatitudeDegrees>37.38286460749804973602294921875</LatitudeDegrees>
              <LongitudeDegrees>-7.980591394007205963134765625</LongitudeDegrees>
            </Position>
            <AltitudeMeters>318.20001220703125</AltitudeMeters>
            <DistanceMeters>340084.99312025</DistanceMeters>
          </Trackpoint>
          <Trackpoint>
            <Time>2018-09-15T07:59:49.000Z</Time>
            <Position>
              <LatitudeDegrees>37.3827934451401233673095703125</LatitudeDegrees>
              <LongitudeDegrees>-7.980449236929416656494140625</LongitudeDegrees>
            </Position>
            <AltitudeMeters>317.399993896484375</AltitudeMeters>
            <DistanceMeters>340099.85227228</DistanceMeters>
          </Trackpoint>
          <Trackpoint>
            <Time>2018-09-15T07:59:57.000Z</Time>
            <Position>
              <LatitudeDegrees>37.38256805576384067535400390625</LatitudeDegrees>
              <LongitudeDegrees>-7.980270870029926300048828125</LongitudeDegrees>
            </Position>
            <AltitudeMeters>316.20001220703125</AltitudeMeters>
            <DistanceMeters>340129.48598406</DistanceMeters>
          </Trackpoint>
          <Trackpoint>
            <Time>2018-09-15T08:00:03.000Z</Time>
            <Position>
              <LatitudeDegrees>37.38238130696117877960205078125</LatitudeDegrees>
              <LongitudeDegrees>-7.980172634124755859375</LongitudeDegrees>
            </Position>
            <AltitudeMeters>316.600006103515625</AltitudeMeters>
            <DistanceMeters>340152.01433102</DistanceMeters>
          </Trackpoint>
          <Trackpoint>
            <Time>2018-09-15T08:00:09.000Z</Time>
            <Position>
              <LatitudeDegrees>37.3821936361491680145263671875</LatitudeDegrees>
              <LongitudeDegrees>-7.98009158112108707427978515625</LongitudeDegrees>
            </Position>
            <AltitudeMeters>316.600006103515625</AltitudeMeters>
            <DistanceMeters>340174.09838406</DistanceMeters>
          </Trackpoint>
          <Trackpoint>
            <Time>2018-09-15T08:00:15.000Z</Time>
            <Position>
              <LatitudeDegrees>37.38199389539659023284912109375</LatitudeDegrees>
              <LongitudeDegrees>-7.98005386255681514739990234375</LongitudeDegrees>
            </Position>
            <AltitudeMeters>318.399993896484375</AltitudeMeters>
            <DistanceMeters>340196.57857974</DistanceMeters>
          </Trackpoint>
          <Trackpoint>
            <Time>2018-09-15T08:00:20.000Z</Time>
            <Position>
              <LatitudeDegrees>37.3818268440663814544677734375</LatitudeDegrees>
              <LongitudeDegrees>-7.980053611099720001220703125</LongitudeDegrees>
            </Position>
            <AltitudeMeters>319.79998779296875</AltitudeMeters>
            <DistanceMeters>340215.17178943</DistanceMeters>
          </Trackpoint>
          <Trackpoint>
            <Time>2018-09-15T08:00:26.000Z</Time>
            <Position>
              <LatitudeDegrees>37.38162324763834476470947265625</LatitudeDegrees>
              <LongitudeDegrees>-7.9800427146255970001220703125</LongitudeDegrees>
            </Position>
            <AltitudeMeters>321.20001220703125</AltitudeMeters>
            <DistanceMeters>340237.85293634</DistanceMeters>
          </Trackpoint>
          <Trackpoint>
            <Time>2018-09-15T08:00:32.000Z</Time>
            <Position>
              <LatitudeDegrees>37.38141973502933979034423828125</LatitudeDegrees>
              <LongitudeDegrees>-7.98000390641391277313232421875</LongitudeDegrees>
            </Position>
            <AltitudeMeters>322.399993896484375</AltitudeMeters>
            <DistanceMeters>340260.76285042</DistanceMeters>
          </Trackpoint>
          <Trackpoint>
            <Time>2018-09-15T08:00:38.000Z</Time>
            <Position>
              <LatitudeDegrees>37.38122644834220409393310546875</LatitudeDegrees>
              <LongitudeDegrees>-7.979937605559825897216796875</LongitudeDegrees>
            </Position>
            <AltitudeMeters>323.600006103515625</AltitudeMeters>
            <DistanceMeters>340283.0607429</DistanceMeters>
          </Trackpoint>
          <Trackpoint>
            <Time>2018-09-15T08:00:45.000Z</Time>
            <Position>
              <LatitudeDegrees>37.3809946887195110321044921875</LatitudeDegrees>
              <LongitudeDegrees>-7.97985789366066455841064453125</LongitudeDegrees>
            </Position>
            <AltitudeMeters>324.600006103515625</AltitudeMeters>
            <DistanceMeters>340309.80211129</DistanceMeters>
          </Trackpoint>
          <Trackpoint>
            <Time>2018-09-15T08:00:49.000Z</Time>
            <Position>
              <LatitudeDegrees>37.380861081182956695556640625</LatitudeDegrees>
              <LongitudeDegrees>-7.9798361845314502716064453125</LongitudeDegrees>
            </Position>
            <AltitudeMeters>324.399993896484375</AltitudeMeters>
            <DistanceMeters>340324.79677279</DistanceMeters>
          </Trackpoint>
          <Trackpoint>
            <Time>2018-09-15T08:00:55.000Z</Time>
            <Position>
              <LatitudeDegrees>37.38066050224006175994873046875</LatitudeDegrees>
              <LongitudeDegrees>-7.97985420562326908111572265625</LongitudeDegrees>
            </Position>
            <AltitudeMeters>326</AltitudeMeters>
            <DistanceMeters>340347.17853972</DistanceMeters>
          </Trackpoint>
          <Trackpoint>
            <Time>2018-09-15T08:01:02.000Z</Time>
            <Position>
              <LatitudeDegrees>37.38050711341202259063720703125</LatitudeDegrees>
              <LongitudeDegrees>-7.98009040765464305877685546875</LongitudeDegrees>
            </Position>
            <AltitudeMeters>328</AltitudeMeters>
            <DistanceMeters>340374.15792762</DistanceMeters>
          </Trackpoint>
          <Trackpoint>
            <Time>2018-09-15T08:01:07.000Z</Time>
            <Position>
              <LatitudeDegrees>37.38039747811853885650634765625</LatitudeDegrees>
              <LongitudeDegrees>-7.98026575706899166107177734375</LongitudeDegrees>
            </Position>
            <AltitudeMeters>329.399993896484375</AltitudeMeters>
            <DistanceMeters>340393.89147816</DistanceMeters>
          </Trackpoint>
          <Trackpoint>
            <Time>2018-09-15T08:01:11.000Z</Time>
            <Position>
              <LatitudeDegrees>37.38031449727714061737060546875</LatitudeDegrees>
              <LongitudeDegrees>-7.98040933907032012939453125</LongitudeDegrees>
            </Position>
            <AltitudeMeters>330.600006103515625</AltitudeMeters>
            <DistanceMeters>340409.59361837</DistanceMeters>
          </Trackpoint>
          <Trackpoint>
            <Time>2018-09-15T08:01:19.000Z</Time>
            <Position>
              <LatitudeDegrees>37.38008491694927215576171875</LatitudeDegrees>
              <LongitudeDegrees>-7.98062332905828952789306640625</LongitudeDegrees>
            </Position>
            <AltitudeMeters>333.20001220703125</AltitudeMeters>
            <DistanceMeters>340441.39194819</DistanceMeters>
          </Trackpoint>
          <Trackpoint>
            <Time>2018-09-15T08:01:26.000Z</Time>
            <Position>
              <LatitudeDegrees>37.379853911697864532470703125</LatitudeDegrees>
              <LongitudeDegrees>-7.98062819056212902069091796875</LongitudeDegrees>
            </Position>
            <AltitudeMeters>336.20001220703125</AltitudeMeters>
            <DistanceMeters>340467.10681622</DistanceMeters>
          </Trackpoint>
          <Trackpoint>
            <Time>2018-09-15T08:01:31.000Z</Time>
            <Position>
              <LatitudeDegrees>37.37969641573727130889892578125</LatitudeDegrees>
              <LongitudeDegrees>-7.9805707745254039764404296875</LongitudeDegrees>
            </Position>
            <AltitudeMeters>338.600006103515625</AltitudeMeters>
            <DistanceMeters>340485.35738881</DistanceMeters>
          </Trackpoint>
          <Trackpoint>
            <Time>2018-09-15T08:01:35.000Z</Time>
            <Position>
              <LatitudeDegrees>37.37958342768251895904541015625</LatitudeDegrees>
              <LongitudeDegrees>-7.98046742565929889678955078125</LongitudeDegrees>
            </Position>
            <AltitudeMeters>340.20001220703125</AltitudeMeters>
            <DistanceMeters>340500.90406132</DistanceMeters>
          </Trackpoint>
          <Trackpoint>
            <Time>2018-09-15T08:01:43.000Z</Time>
            <Position>
              <LatitudeDegrees>37.3795711062848567962646484375</LatitudeDegrees>
              <LongitudeDegrees>-7.9801417887210845947265625</LongitudeDegrees>
            </Position>
            <AltitudeMeters>339.20001220703125</AltitudeMeters>
            <DistanceMeters>340529.73742772</DistanceMeters>
          </Trackpoint>
          <Trackpoint>
            <Time>2018-09-15T08:01:51.000Z</Time>
            <Position>
              <LatitudeDegrees>37.37978442572057247161865234375</LatitudeDegrees>
              <LongitudeDegrees>-7.97999133355915546417236328125</LongitudeDegrees>
            </Position>
            <AltitudeMeters>336.399993896484375</AltitudeMeters>
            <DistanceMeters>340556.95507606</DistanceMeters>
          </Trackpoint>
          <Trackpoint>
            <Time>2018-09-15T08:01:55.000Z</Time>
            <Position>
              <LatitudeDegrees>37.3799030296504497528076171875</LatitudeDegrees>
              <LongitudeDegrees>-7.97996006906032562255859375</LongitudeDegrees>
            </Position>
            <AltitudeMeters>335</AltitudeMeters>
            <DistanceMeters>340570.44251058</DistanceMeters>
          </Trackpoint>
          <Trackpoint>
            <Time>2018-09-15T08:01:57.000Z</Time>
            <Position>
              <LatitudeDegrees>37.37995591945946216583251953125</LatitudeDegrees>
              <LongitudeDegrees>-7.97992360778152942657470703125</LongitudeDegrees>
            </Position>
            <AltitudeMeters>334.399993896484375</AltitudeMeters>
            <DistanceMeters>340577.15519123</DistanceMeters>
          </Trackpoint>
          <Trackpoint>
            <Time>2018-09-15T08:02:04.000Z</Time>
            <Position>
              <LatitudeDegrees>37.38004275597631931304931640625</LatitudeDegrees>
              <LongitudeDegrees>-7.9796920157968997955322265625</LongitudeDegrees>
            </Position>
            <AltitudeMeters>334.600006103515625</AltitudeMeters>
            <DistanceMeters>340599.80386718</DistanceMeters>
          </Trackpoint>
          <Trackpoint>
            <Time>2018-09-15T08:02:09.000Z</Time>
            <Position>
              <LatitudeDegrees>37.3800197057425975799560546875</LatitudeDegrees>
              <LongitudeDegrees>-7.97951188869774341583251953125</LongitudeDegrees>
            </Position>
            <AltitudeMeters>336.399993896484375</AltitudeMeters>
            <DistanceMeters>340615.93995172</DistanceMeters>
          </Trackpoint>
          <Trackpoint>
            <Time>2018-09-15T08:02:14.000Z</Time>
            <Position>
              <LatitudeDegrees>37.37999246455729007720947265625</LatitudeDegrees>
              <LongitudeDegrees>-7.97934642992913722991943359375</LongitudeDegrees>
            </Position>
            <AltitudeMeters>338</AltitudeMeters>
            <DistanceMeters>340630.88484753</DistanceMeters>
          </Trackpoint>
          <Trackpoint>
            <Time>2018-09-15T08:02:18.000Z</Time>
            <Position>
              <LatitudeDegrees>37.37997218035161495208740234375</LatitudeDegrees>
              <LongitudeDegrees>-7.979204356670379638671875</LongitudeDegrees>
            </Position>
            <AltitudeMeters>339</AltitudeMeters>
            <DistanceMeters>340643.65171401</DistanceMeters>
          </Trackpoint>
          <Trackpoint>
            <Time>2018-09-15T08:02:23.000Z</Time>
            <Position>
              <LatitudeDegrees>37.3799191229045391082763671875</LatitudeDegrees>
              <LongitudeDegrees>-7.97901861369609832763671875</LongitudeDegrees>
            </Position>
            <AltitudeMeters>339.399993896484375</AltitudeMeters>
            <DistanceMeters>340661.1087189</DistanceMeters>
          </Trackpoint>
          <Trackpoint>
            <Time>2018-09-15T08:02:29.000Z</Time>
            <Position>
              <LatitudeDegrees>37.37986003048717975616455078125</LatitudeDegrees>
              <LongitudeDegrees>-7.97879976220428943634033203125</LongitudeDegrees>
            </Position>
            <AltitudeMeters>339.600006103515625</AltitudeMeters>
            <DistanceMeters>340681.55161346</DistanceMeters>
          </Trackpoint>
          <Trackpoint>
            <Time>2018-09-15T08:02:33.000Z</Time>
            <Position>
              <LatitudeDegrees>37.3798239044845104217529296875</LatitudeDegrees>
              <LongitudeDegrees>-7.97865944914519786834716796875</LongitudeDegrees>
            </Position>
            <AltitudeMeters>339.79998779296875</AltitudeMeters>
            <DistanceMeters>340694.59625836</DistanceMeters>
          </Trackpoint>
          <Trackpoint>
            <Time>2018-09-15T08:02:39.000Z</Time>
            <Position>
              <LatitudeDegrees>37.37975609488785266876220703125</LatitudeDegrees>
              <LongitudeDegrees>-7.97844638116657733917236328125</LongitudeDegrees>
            </Position>
            <AltitudeMeters>342.399993896484375</AltitudeMeters>
            <DistanceMeters>340714.89597531</DistanceMeters>
          </Trackpoint>
          <Trackpoint>
            <Time>2018-09-15T08:02:44.000Z</Time>
            <Position>
              <LatitudeDegrees>37.37969725392758846282958984375</LatitudeDegrees>
              <LongitudeDegrees>-7.97826918773353099822998046875</LongitudeDegrees>
            </Position>
            <AltitudeMeters>344</AltitudeMeters>
            <DistanceMeters>340731.88105353</DistanceMeters>
          </Trackpoint>
          <Trackpoint>
            <Time>2018-09-15T08:02:53.000Z</Time>
            <Position>
              <LatitudeDegrees>37.3795452900230884552001953125</LatitudeDegrees>
              <LongitudeDegrees>-7.977966181933879852294921875</LongitudeDegrees>
            </Position>
            <AltitudeMeters>346.600006103515625</AltitudeMeters>
            <DistanceMeters>340763.57128739</DistanceMeters>
          </Trackpoint>
          <Trackpoint>
            <Time>2018-09-15T08:03:02.000Z</Time>
            <Position>
              <LatitudeDegrees>37.379277907311916351318359375</LatitudeDegrees>
              <LongitudeDegrees>-7.97777951695024967193603515625</LongitudeDegrees>
            </Position>
            <AltitudeMeters>348.79998779296875</AltitudeMeters>
            <DistanceMeters>340797.60412043</DistanceMeters>
          </Trackpoint>
          <Trackpoint>
            <Time>2018-09-15T08:03:11.000Z</Time>
            <Position>
              <LatitudeDegrees>37.37901010550558567047119140625</LatitudeDegrees>
              <LongitudeDegrees>-7.97763727605342864990234375</LongitudeDegrees>
            </Position>
            <AltitudeMeters>351</AltitudeMeters>
            <DistanceMeters>340829.95705354</DistanceMeters>
          </Trackpoint>
          <Trackpoint>
            <Time>2018-09-15T08:03:16.000Z</Time>
            <Position>
              <LatitudeDegrees>37.3788884840905666351318359375</LatitudeDegrees>
              <LongitudeDegrees>-7.977496795356273651123046875</LongitudeDegrees>
            </Position>
            <AltitudeMeters>353.79998779296875</AltitudeMeters>
            <DistanceMeters>340848.33139702</DistanceMeters>
          </Trackpoint>
          <Trackpoint>
            <Time>2018-09-15T08:03:20.000Z</Time>
            <Position>
              <LatitudeDegrees>37.3788143880665302276611328125</LatitudeDegrees>
              <LongitudeDegrees>-7.977355308830738067626953125</LongitudeDegrees>
            </Position>
            <AltitudeMeters>356</AltitudeMeters>
            <DistanceMeters>340863.31852888</DistanceMeters>
          </Trackpoint>
          <Trackpoint>
            <Time>2018-09-15T08:03:29.000Z</Time>
            <Position>
              <LatitudeDegrees>37.3786869831383228302001953125</LatitudeDegrees>
              <LongitudeDegrees>-7.97700201161205768585205078125</LongitudeDegrees>
            </Position>
            <AltitudeMeters>359</AltitudeMeters>
            <DistanceMeters>340897.63277939</DistanceMeters>
          </Trackpoint>
          <Trackpoint>
            <Time>2018-09-15T08:03:36.000Z</Time>
            <Position>
              <LatitudeDegrees>37.37859050743281841278076171875</LatitudeDegrees>
              <LongitudeDegrees>-7.976736389100551605224609375</LongitudeDegrees>
            </Position>
            <AltitudeMeters>359.399993896484375</AltitudeMeters>
            <DistanceMeters>340923.46344563</DistanceMeters>
          </Trackpoint>
          <Trackpoint>
            <Time>2018-09-15T08:03:41.000Z</Time>
            <Position>
              <LatitudeDegrees>37.37848271615803241729736328125</LatitudeDegrees>
              <LongitudeDegrees>-7.97657621093094348907470703125</LongitudeDegrees>
            </Position>
            <AltitudeMeters>362.20001220703125</AltitudeMeters>
            <DistanceMeters>340942.02797895</DistanceMeters>
          </Trackpoint>
          <Trackpoint>
            <Time>2018-09-15T08:03:48.000Z</Time>
            <Position>
              <LatitudeDegrees>37.37827031873166561126708984375</LatitudeDegrees>
              <LongitudeDegrees>-7.97648124396800994873046875</LongitudeDegrees>
            </Position>
            <AltitudeMeters>362.600006103515625</AltitudeMeters>
            <DistanceMeters>340967.11611137</DistanceMeters>
          </Trackpoint>
          <Trackpoint>
            <Time>2018-09-15T08:03:52.000Z</Time>
            <Position>
              <LatitudeDegrees>37.3781267367303371429443359375</LatitudeDegrees>
              <LongitudeDegrees>-7.97647411935031414031982421875</LongitudeDegrees>
            </Position>
            <AltitudeMeters>363.79998779296875</AltitudeMeters>
            <DistanceMeters>340983.10970307</DistanceMeters>
          </Trackpoint>
          <Trackpoint>
            <Time>2018-09-15T08:03:58.000Z</Time>
            <Position>
              <LatitudeDegrees>37.377879135310649871826171875</LatitudeDegrees>
              <LongitudeDegrees>-7.976457774639129638671875</LongitudeDegrees>
            </Position>
            <AltitudeMeters>366</AltitudeMeters>
            <DistanceMeters>341010.70608919</DistanceMeters>
          </Trackpoint>
          <Trackpoint>
            <Time>2018-09-15T08:04:01.000Z</Time>
            <Position>
              <LatitudeDegrees>37.37774779088795185089111328125</LatitudeDegrees>
              <LongitudeDegrees>-7.9764039628207683563232421875</LongitudeDegrees>
            </Position>
            <AltitudeMeters>366.399993896484375</AltitudeMeters>
            <DistanceMeters>341026.0804601</DistanceMeters>
          </Trackpoint>
          <Trackpoint>
            <Time>2018-09-15T08:04:04.000Z</Time>
            <Position>
              <LatitudeDegrees>37.37761468626558780670166015625</LatitudeDegrees>
              <LongitudeDegrees>-7.97628519125282764434814453125</LongitudeDegrees>
            </Position>
            <AltitudeMeters>364.79998779296875</AltitudeMeters>
            <DistanceMeters>341044.24175335</DistanceMeters>
          </Trackpoint>
          <Trackpoint>
            <Time>2018-09-15T08:04:05.000Z</Time>
            <Position>
              <LatitudeDegrees>37.3775701783597469329833984375</LatitudeDegrees>
              <LongitudeDegrees>-7.9762326367199420928955078125</LongitudeDegrees>
            </Position>
            <AltitudeMeters>364.20001220703125</AltitudeMeters>
            <DistanceMeters>341051.03466808</DistanceMeters>
          </Trackpoint>
          <Trackpoint>
            <Time>2018-09-15T08:04:09.000Z</Time>
            <Position>
              <LatitudeDegrees>37.37736892886459827423095703125</LatitudeDegrees>
              <LongitudeDegrees>-7.975980341434478759765625</LongitudeDegrees>
            </Position>
            <AltitudeMeters>362.600006103515625</AltitudeMeters>
            <DistanceMeters>341082.65244224</DistanceMeters>
          </Trackpoint>
          <Trackpoint>
            <Time>2018-09-15T08:04:11.000Z</Time>
            <Position>
              <LatitudeDegrees>37.37725292332470417022705078125</LatitudeDegrees>
              <LongitudeDegrees>-7.97583340667188167572021484375</LongitudeDegrees>
            </Position>
            <AltitudeMeters>362.600006103515625</AltitudeMeters>
            <DistanceMeters>341100.97190706</DistanceMeters>
          </Trackpoint>
          <Trackpoint>
            <Time>2018-09-15T08:04:13.000Z</Time>
            <Position>
              <LatitudeDegrees>37.377131469547748565673828125</LatitudeDegrees>
              <LongitudeDegrees>-7.975676245987415313720703125</LongitudeDegrees>
            </Position>
            <AltitudeMeters>363.20001220703125</AltitudeMeters>
            <DistanceMeters>341120.36154869</DistanceMeters>
          </Trackpoint>
          <Trackpoint>
            <Time>2018-09-15T08:04:15.000Z</Time>
            <Position>
              <LatitudeDegrees>37.37700641155242919921875</LatitudeDegrees>
              <LongitudeDegrees>-7.975513972342014312744140625</LongitudeDegrees>
            </Position>
            <AltitudeMeters>363.20001220703125</AltitudeMeters>
            <DistanceMeters>341140.35513326</DistanceMeters>
          </Trackpoint>
          <Trackpoint>
            <Time>2018-09-15T08:04:16.000Z</Time>
            <Position>
              <LatitudeDegrees>37.3769418708980083465576171875</LatitudeDegrees>
              <LongitudeDegrees>-7.97543174587190151214599609375</LongitudeDegrees>
            </Position>
            <AltitudeMeters>361.20001220703125</AltitudeMeters>
            <DistanceMeters>341150.57746394</DistanceMeters>
          </Trackpoint>
          <Trackpoint>
            <Time>2018-09-15T08:04:17.000Z</Time>
            <Position>
              <LatitudeDegrees>37.37687540240585803985595703125</LatitudeDegrees>
              <LongitudeDegrees>-7.97534960322082042694091796875</LongitudeDegrees>
            </Position>
            <AltitudeMeters>359</AltitudeMeters>
            <DistanceMeters>341160.94670308</DistanceMeters>
          </Trackpoint>
          <Trackpoint>
            <Time>2018-09-15T08:04:19.000Z</Time>
            <Position>
              <LatitudeDegrees>37.376735508441925048828125</LatitudeDegrees>
              <LongitudeDegrees>-7.9751838929951190948486328125</LongitudeDegrees>
            </Position>
            <AltitudeMeters>354.79998779296875</AltitudeMeters>
            <DistanceMeters>341182.33045885</DistanceMeters>
          </Trackpoint>
          <Trackpoint>
            <Time>2018-09-15T08:04:22.000Z</Time>
            <Position>
              <LatitudeDegrees>37.37649519927799701690673828125</LatitudeDegrees>
              <LongitudeDegrees>-7.9749495349824428558349609375</LongitudeDegrees>
            </Position>
            <AltitudeMeters>350</AltitudeMeters>
            <DistanceMeters>341216.16917696</DistanceMeters>
          </Trackpoint>
          <Trackpoint>
            <Time>2018-09-15T08:04:23.000Z</Time>
            <Position>
              <LatitudeDegrees>37.37640366889536380767822265625</LatitudeDegrees>
              <LongitudeDegrees>-7.97488088719546794891357421875</LongitudeDegrees>
            </Position>
            <AltitudeMeters>348.79998779296875</AltitudeMeters>
            <DistanceMeters>341228.0288764</DistanceMeters>
          </Trackpoint>
          <Trackpoint>
            <Time>2018-09-15T08:04:24.000Z</Time>
            <Position>
              <LatitudeDegrees>37.37630459479987621307373046875</LatitudeDegrees>
              <LongitudeDegrees>-7.974830679595470428466796875</LongitudeDegrees>
            </Position>
            <AltitudeMeters>347.600006103515625</AltitudeMeters>
            <DistanceMeters>341239.91671457</DistanceMeters>
          </Trackpoint>
          <Trackpoint>
            <Time>2018-09-15T08:04:26.000Z</Time>
            <Position>
              <LatitudeDegrees>37.3761053569614887237548828125</LatitudeDegrees>
              <LongitudeDegrees>-7.97482405789196491241455078125</LongitudeDegrees>
            </Position>
            <AltitudeMeters>346</AltitudeMeters>
            <DistanceMeters>341262.10011029</DistanceMeters>
          </Trackpoint>
          <Trackpoint>
            <Time>2018-09-15T08:04:28.000Z</Time>
            <Position>
              <LatitudeDegrees>37.37595087848603725433349609375</LatitudeDegrees>
              <LongitudeDegrees>-7.974970154464244842529296875</LongitudeDegrees>
            </Position>
            <AltitudeMeters>345.600006103515625</AltitudeMeters>
            <DistanceMeters>341283.60849973</DistanceMeters>
          </Trackpoint>
          <Trackpoint>
            <Time>2018-09-15T08:04:29.000Z</Time>
            <Position>
              <LatitudeDegrees>37.3758860863745212554931640625</LatitudeDegrees>
              <LongitudeDegrees>-7.975065708160400390625</LongitudeDegrees>
            </Position>
            <AltitudeMeters>345.600006103515625</AltitudeMeters>
            <DistanceMeters>341294.71890679</DistanceMeters>
          </Trackpoint>
          <Trackpoint>
            <Time>2018-09-15T08:04:30.000Z</Time>
            <Position>
              <LatitudeDegrees>37.37581492401659488677978515625</LatitudeDegrees>
              <LongitudeDegrees>-7.97514357604086399078369140625</LongitudeDegrees>
            </Position>
            <AltitudeMeters>346.20001220703125</AltitudeMeters>
            <DistanceMeters>341305.21495045</DistanceMeters>
          </Trackpoint>
          <Trackpoint>
            <Time>2018-09-15T08:04:32.000Z</Time>
            <Position>
              <LatitudeDegrees>37.3756398260593414306640625</LatitudeDegrees>
              <LongitudeDegrees>-7.97517710365355014801025390625</LongitudeDegrees>
            </Position>
            <AltitudeMeters>346.79998779296875</AltitudeMeters>
            <DistanceMeters>341324.92789822</DistanceMeters>
          </Trackpoint>
          <Trackpoint>
            <Time>2018-09-15T08:04:35.000Z</Time>
            <Position>
              <LatitudeDegrees>37.3754824139177799224853515625</LatitudeDegrees>
              <LongitudeDegrees>-7.97494274564087390899658203125</LongitudeDegrees>
            </Position>
            <AltitudeMeters>347</AltitudeMeters>
            <DistanceMeters>341352.06896519</DistanceMeters>
          </Trackpoint>
          <Trackpoint>
            <Time>2018-09-15T08:04:37.000Z</Time>
            <Position>
              <LatitudeDegrees>37.37545852549374103546142578125</LatitudeDegrees>
              <LongitudeDegrees>-7.9747389815747737884521484375</LongitudeDegrees>
            </Position>
            <AltitudeMeters>344.79998779296875</AltitudeMeters>
            <DistanceMeters>341370.28685281</DistanceMeters>
          </Trackpoint>
          <Trackpoint>
            <Time>2018-09-15T08:04:39.000Z</Time>
            <Position>
              <LatitudeDegrees>37.375422902405261993408203125</LatitudeDegrees>
              <LongitudeDegrees>-7.97454544343054294586181640625</LongitudeDegrees>
            </Position>
            <AltitudeMeters>342.79998779296875</AltitudeMeters>
            <DistanceMeters>341387.85831757</DistanceMeters>
          </Trackpoint>
          <Trackpoint>
            <Time>2018-09-15T08:04:42.000Z</Time>
            <Position>
              <LatitudeDegrees>37.37533028237521648406982421875</LatitudeDegrees>
              <LongitudeDegrees>-7.97427353449165821075439453125</LongitudeDegrees>
            </Position>
            <AltitudeMeters>340</AltitudeMeters>
            <DistanceMeters>341414.02467873</DistanceMeters>
          </Trackpoint>
          <Trackpoint>
            <Time>2018-09-15T08:04:43.000Z</Time>
            <Position>
              <LatitudeDegrees>37.3752884566783905029296875</LatitudeDegrees>
              <LongitudeDegrees>-7.97419155947864055633544921875</LongitudeDegrees>
            </Position>
            <AltitudeMeters>339.79998779296875</AltitudeMeters>
            <DistanceMeters>341422.64124931</DistanceMeters>
          </Trackpoint>
          <Trackpoint>
            <Time>2018-09-15T08:04:49.000Z</Time>
            <Position>
              <LatitudeDegrees>37.37487011589109897613525390625</LatitudeDegrees>
              <LongitudeDegrees>-7.9741458781063556671142578125</LongitudeDegrees>
            </Position>
            <AltitudeMeters>343.20001220703125</AltitudeMeters>
            <DistanceMeters>341469.3783591</DistanceMeters>
          </Trackpoint>
          <Trackpoint>
            <Time>2018-09-15T08:04:50.000Z</Time>
            <Position>
              <LatitudeDegrees>37.37479903735220432281494140625</LatitudeDegrees>
              <LongitudeDegrees>-7.97417395748198032379150390625</LongitudeDegrees>
            </Position>
            <AltitudeMeters>344.399993896484375</AltitudeMeters>
            <DistanceMeters>341477.6702227</DistanceMeters>
          </Trackpoint>
          <Trackpoint>
            <Time>2018-09-15T08:04:58.000Z</Time>
            <Position>
              <LatitudeDegrees>37.374265529215335845947265625</LatitudeDegrees>
              <LongitudeDegrees>-7.9739648289978504180908203125</LongitudeDegrees>
            </Position>
            <AltitudeMeters>347.79998779296875</AltitudeMeters>
            <DistanceMeters>341539.86511651</DistanceMeters>
          </Trackpoint>
          <Trackpoint>
            <Time>2018-09-15T08:05:01.000Z</Time>
            <Position>
              <LatitudeDegrees>37.37412630580365657806396484375</LatitudeDegrees>
              <LongitudeDegrees>-7.97378235496580600738525390625</LongitudeDegrees>
            </Position>
            <AltitudeMeters>345.399993896484375</AltitudeMeters>
            <DistanceMeters>341562.23962004</DistanceMeters>
          </Trackpoint>
          <Trackpoint>
            <Time>2018-09-15T08:05:09.000Z</Time>
            <Position>
              <LatitudeDegrees>37.37373872660100460052490234375</LatitudeDegrees>
              <LongitudeDegrees>-7.97338505275547504425048828125</LongitudeDegrees>
            </Position>
            <AltitudeMeters>342.600006103515625</AltitudeMeters>
            <DistanceMeters>341617.88001317</DistanceMeters>
          </Trackpoint>
          <Trackpoint>
            <Time>2018-09-15T08:05:13.000Z</Time>
            <Position>
              <LatitudeDegrees>37.3734798096120357513427734375</LatitudeDegrees>
              <LongitudeDegrees>-7.9733884893357753753662109375</LongitudeDegrees>
            </Position>
            <AltitudeMeters>345.399993896484375</AltitudeMeters>
            <DistanceMeters>341646.69959629</DistanceMeters>
          </Trackpoint>
          <Trackpoint>
            <Time>2018-09-15T08:05:19.000Z</Time>
            <Position>
              <LatitudeDegrees>37.37313237972557544708251953125</LatitudeDegrees>
              <LongitudeDegrees>-7.9734671115875244140625</LongitudeDegrees>
            </Position>
            <AltitudeMeters>349</AltitudeMeters>
            <DistanceMeters>341685.98943681</DistanceMeters>
          </Trackpoint>
          <Trackpoint>
            <Time>2018-09-15T08:05:26.000Z</Time>
            <Position>
              <LatitudeDegrees>37.37275117076933383941650390625</LatitudeDegrees>
              <LongitudeDegrees>-7.97344272024929523468017578125</LongitudeDegrees>
            </Position>
            <AltitudeMeters>349.79998779296875</AltitudeMeters>
            <DistanceMeters>341728.47349923</DistanceMeters>
          </Trackpoint>
          <Trackpoint>
            <Time>2018-09-15T08:05:32.000Z</Time>
            <Position>
              <LatitudeDegrees>37.37244187854230403900146484375</LatitudeDegrees>
              <LongitudeDegrees>-7.97340986318886280059814453125</LongitudeDegrees>
            </Position>
            <AltitudeMeters>350</AltitudeMeters>
            <DistanceMeters>341763.02077457</DistanceMeters>
          </Trackpoint>
          <Trackpoint>
            <Time>2018-09-15T08:05:39.000Z</Time>
            <Position>
              <LatitudeDegrees>37.3721004836261272430419921875</LatitudeDegrees>
              <LongitudeDegrees>-7.97341547906398773193359375</LongitudeDegrees>
            </Position>
            <AltitudeMeters>350</AltitudeMeters>
            <DistanceMeters>341801.02183765</DistanceMeters>
          </Trackpoint>
          <Trackpoint>
            <Time>2018-09-15T08:05:44.000Z</Time>
            <Position>
              <LatitudeDegrees>37.37186168320477008819580078125</LatitudeDegrees>
              <LongitudeDegrees>-7.97346065752208232879638671875</LongitudeDegrees>
            </Position>
            <AltitudeMeters>350.600006103515625</AltitudeMeters>
            <DistanceMeters>341827.8994513</DistanceMeters>
          </Trackpoint>
          <Trackpoint>
            <Time>2018-09-15T08:05:48.000Z</Time>
            <Position>
              <LatitudeDegrees>37.3716592602431774139404296875</LatitudeDegrees>
              <LongitudeDegrees>-7.9734706319868564605712890625</LongitudeDegrees>
            </Position>
            <AltitudeMeters>350.79998779296875</AltitudeMeters>
            <DistanceMeters>341850.44682972</DistanceMeters>
          </Trackpoint>
          <Trackpoint>
            <Time>2018-09-15T08:05:50.000Z</Time>
            <Position>
              <LatitudeDegrees>37.37155909650027751922607421875</LatitudeDegrees>
              <LongitudeDegrees>-7.9734335839748382568359375</LongitudeDegrees>
            </Position>
            <AltitudeMeters>351.399993896484375</AltitudeMeters>
            <DistanceMeters>341862.06654155</DistanceMeters>
          </Trackpoint>
          <Trackpoint>
            <Time>2018-09-15T08:06:01.000Z</Time>
            <Position>
              <LatitudeDegrees>37.37152674235403537750244140625</LatitudeDegrees>
              <LongitudeDegrees>-7.9729291610419750213623046875</LongitudeDegrees>
            </Position>
            <AltitudeMeters>353.399993896484375</AltitudeMeters>
            <DistanceMeters>341906.82967194</DistanceMeters>
          </Trackpoint>
          <Trackpoint>
            <Time>2018-09-15T08:06:02.000Z</Time>
            <Position>
              <LatitudeDegrees>37.37155691720545291900634765625</LatitudeDegrees>
              <LongitudeDegrees>-7.972901165485382080078125</LongitudeDegrees>
            </Position>
            <AltitudeMeters>353</AltitudeMeters>
            <DistanceMeters>341911.00328158</DistanceMeters>
          </Trackpoint>
          <Trackpoint>
            <Time>2018-09-15T08:06:05.000Z</Time>
            <Position>
              <LatitudeDegrees>37.37164677120745182037353515625</LatitudeDegrees>
              <LongitudeDegrees>-7.9728247225284576416015625</LongitudeDegrees>
            </Position>
            <AltitudeMeters>352.20001220703125</AltitudeMeters>
            <DistanceMeters>341923.07504093</DistanceMeters>
          </Trackpoint>
          <Trackpoint>
            <Time>2018-09-15T08:06:08.000Z</Time>
            <Position>
              <LatitudeDegrees>37.3717291653156280517578125</LatitudeDegrees>
              <LongitudeDegrees>-7.97273662872612476348876953125</LongitudeDegrees>
            </Position>
            <AltitudeMeters>351.79998779296875</AltitudeMeters>
            <DistanceMeters>341935.10896531</DistanceMeters>
          </Trackpoint>
          <Trackpoint>
            <Time>2018-09-15T08:06:12.000Z</Time>
            <Position>
              <LatitudeDegrees>37.37178004346787929534912109375</LatitudeDegrees>
              <LongitudeDegrees>-7.97258156351745128631591796875</LongitudeDegrees>
            </Position>
            <AltitudeMeters>351.79998779296875</AltitudeMeters>
            <DistanceMeters>341949.94774504</DistanceMeters>
          </Trackpoint>
          <Trackpoint>
            <Time>2018-09-15T08:06:16.000Z</Time>
            <Position>
              <LatitudeDegrees>37.37177736125886440277099609375</LatitudeDegrees>
              <LongitudeDegrees>-7.97241426073014736175537109375</LongitudeDegrees>
            </Position>
            <AltitudeMeters>353.20001220703125</AltitudeMeters>
            <DistanceMeters>341964.74935694</DistanceMeters>
          </Trackpoint>
          <Trackpoint>
            <Time>2018-09-15T08:06:17.000Z</Time>
            <Position>
              <LatitudeDegrees>37.3717725835740566253662109375</LatitudeDegrees>
              <LongitudeDegrees>-7.97237453050911426544189453125</LongitudeDegrees>
            </Position>
            <AltitudeMeters>353.600006103515625</AltitudeMeters>
            <DistanceMeters>341968.30239041</DistanceMeters>
          </Trackpoint>
          <Trackpoint>
            <Time>2018-09-15T08:06:21.000Z</Time>
            <Position>
              <LatitudeDegrees>37.3717403970658779144287109375</LatitudeDegrees>
              <LongitudeDegrees>-7.9722153581678867340087890625</LongitudeDegrees>
            </Position>
            <AltitudeMeters>355.20001220703125</AltitudeMeters>
            <DistanceMeters>341982.83029379</DistanceMeters>
          </Trackpoint>
          <Trackpoint>
            <Time>2018-09-15T08:06:26.000Z</Time>
            <Position>
              <LatitudeDegrees>37.37170712091028690338134765625</LatitudeDegrees>
              <LongitudeDegrees>-7.97202282585203647613525390625</LongitudeDegrees>
            </Position>
            <AltitudeMeters>357.20001220703125</AltitudeMeters>
            <DistanceMeters>342000.25882533</DistanceMeters>
          </Trackpoint>
          <Trackpoint>
            <Time>2018-09-15T08:06:31.000Z</Time>
            <Position>
              <LatitudeDegrees>37.371663786470890045166015625</LatitudeDegrees>
              <LongitudeDegrees>-7.971831969916820526123046875</LongitudeDegrees>
            </Position>
            <AltitudeMeters>359.20001220703125</AltitudeMeters>
            <DistanceMeters>342017.81640915</DistanceMeters>
          </Trackpoint>
          <Trackpoint>
            <Time>2018-09-15T08:06:36.000Z</Time>
            <Position>
              <LatitudeDegrees>37.3716109804809093475341796875</LatitudeDegrees>
              <LongitudeDegrees>-7.9716480709612369537353515625</LongitudeDegrees>
            </Position>
            <AltitudeMeters>360.600006103515625</AltitudeMeters>
            <DistanceMeters>342035.11205433</DistanceMeters>
          </Trackpoint>
          <Trackpoint>
            <Time>2018-09-15T08:06:42.000Z</Time>
            <Position>
              <LatitudeDegrees>37.3715392313897609710693359375</LatitudeDegrees>
              <LongitudeDegrees>-7.97142754308879375457763671875</LongitudeDegrees>
            </Position>
            <AltitudeMeters>361.600006103515625</AltitudeMeters>
            <DistanceMeters>342056.18999923</DistanceMeters>
          </Trackpoint>
          <Trackpoint>
            <Time>2018-09-15T08:06:47.000Z</Time>
            <Position>
              <LatitudeDegrees>37.3714815638959407806396484375</LatitudeDegrees>
              <LongitudeDegrees>-7.9712440632283687591552734375</LongitudeDegrees>
            </Position>
            <AltitudeMeters>362.399993896484375</AltitudeMeters>
            <DistanceMeters>342073.64286543</DistanceMeters>
          </Trackpoint>
          <Trackpoint>
            <Time>2018-09-15T08:06:52.000Z</Time>
            <Position>
              <LatitudeDegrees>37.37141258083283901214599609375</LatitudeDegrees>
              <LongitudeDegrees>-7.97107265330851078033447265625</LongitudeDegrees>
            </Position>
            <AltitudeMeters>363.79998779296875</AltitudeMeters>
            <DistanceMeters>342090.63830762</DistanceMeters>
          </Trackpoint>
          <Trackpoint>
            <Time>2018-09-15T08:06:58.000Z</Time>
            <Position>
              <LatitudeDegrees>37.37133379094302654266357421875</LatitudeDegrees>
              <LongitudeDegrees>-7.97086142934858798980712890625</LongitudeDegrees>
            </Position>
            <AltitudeMeters>366</AltitudeMeters>
            <DistanceMeters>342111.27770747</DistanceMeters>
          </Trackpoint>
          <Trackpoint>
            <Time>2018-09-15T08:07:04.000Z</Time>
            <Position>
              <LatitudeDegrees>37.37125768326222896575927734375</LatitudeDegrees>
              <LongitudeDegrees>-7.97064366750419139862060546875</LongitudeDegrees>
            </Position>
            <AltitudeMeters>368.20001220703125</AltitudeMeters>
            <DistanceMeters>342132.320064</DistanceMeters>
          </Trackpoint>
          <Trackpoint>
            <Time>2018-09-15T08:07:09.000Z</Time>
            <Position>
              <LatitudeDegrees>37.3711972497403621673583984375</LatitudeDegrees>
              <LongitudeDegrees>-7.9704578407108783721923828125</LongitudeDegrees>
            </Position>
            <AltitudeMeters>369</AltitudeMeters>
            <DistanceMeters>342150.08065606</DistanceMeters>
          </Trackpoint>
          <Trackpoint>
            <Time>2018-09-15T08:07:14.000Z</Time>
            <Position>
              <LatitudeDegrees>37.37114134244620800018310546875</LatitudeDegrees>
              <LongitudeDegrees>-7.9702739417552947998046875</LongitudeDegrees>
            </Position>
            <AltitudeMeters>367.79998779296875</AltitudeMeters>
            <DistanceMeters>342167.49674827</DistanceMeters>
          </Trackpoint>
          <Trackpoint>
            <Time>2018-09-15T08:07:22.000Z</Time>
            <Position>
              <LatitudeDegrees>37.37103740684688091278076171875</LatitudeDegrees>
              <LongitudeDegrees>-7.96999306418001651763916015625</LongitudeDegrees>
            </Position>
            <AltitudeMeters>367.600006103515625</AltitudeMeters>
            <DistanceMeters>342194.90268993</DistanceMeters>
          </Trackpoint>
          <Trackpoint>
            <Time>2018-09-15T08:07:28.000Z</Time>
            <Position>
              <LatitudeDegrees>37.37095509655773639678955078125</LatitudeDegrees>
              <LongitudeDegrees>-7.96977999620139598846435546875</LongitudeDegrees>
            </Position>
            <AltitudeMeters>367.20001220703125</AltitudeMeters>
            <DistanceMeters>342215.85818127</DistanceMeters>
          </Trackpoint>
          <Trackpoint>
            <Time>2018-09-15T08:07:36.000Z</Time>
            <Position>
              <LatitudeDegrees>37.370782680809497833251953125</LatitudeDegrees>
              <LongitudeDegrees>-7.9695479013025760650634765625</LongitudeDegrees>
            </Position>
            <AltitudeMeters>365</AltitudeMeters>
            <DistanceMeters>342243.96055476</DistanceMeters>
          </Trackpoint>
          <Trackpoint>
            <Time>2018-09-15T08:07:41.000Z</Time>
            <Position>
              <LatitudeDegrees>37.3706202395260334014892578125</LatitudeDegrees>
              <LongitudeDegrees>-7.9695294611155986785888671875</LongitudeDegrees>
            </Position>
            <AltitudeMeters>367</AltitudeMeters>
            <DistanceMeters>342262.11389081</DistanceMeters>
          </Trackpoint>
          <Trackpoint>
            <Time>2018-09-15T08:07:46.000Z</Time>
            <Position>
              <LatitudeDegrees>37.37046240828931331634521484375</LatitudeDegrees>
              <LongitudeDegrees>-7.96961747109889984130859375</LongitudeDegrees>
            </Position>
            <AltitudeMeters>370</AltitudeMeters>
            <DistanceMeters>342281.32856503</DistanceMeters>
          </Trackpoint>
          <Trackpoint>
            <Time>2018-09-15T08:07:52.000Z</Time>
            <Position>
              <LatitudeDegrees>37.37026861868798732757568359375</LatitudeDegrees>
              <LongitudeDegrees>-7.96975702978670597076416015625</LongitudeDegrees>
            </Position>
            <AltitudeMeters>374.20001220703125</AltitudeMeters>
            <DistanceMeters>342306.18054902</DistanceMeters>
          </Trackpoint>
          <Trackpoint>
            <Time>2018-09-15T08:08:00.000Z</Time>
            <Position>
              <LatitudeDegrees>37.369990088045597076416015625</LatitudeDegrees>
              <LongitudeDegrees>-7.96970338560640811920166015625</LongitudeDegrees>
            </Position>
            <AltitudeMeters>376</AltitudeMeters>
            <DistanceMeters>342337.54253216</DistanceMeters>
          </Trackpoint>
          <Trackpoint>
            <Time>2018-09-15T08:08:06.000Z</Time>
            <Position>
              <LatitudeDegrees>37.369835190474987030029296875</LatitudeDegrees>
              <LongitudeDegrees>-7.969535999000072479248046875</LongitudeDegrees>
            </Position>
            <AltitudeMeters>375</AltitudeMeters>
            <DistanceMeters>342360.26802736</DistanceMeters>
          </Trackpoint>
          <Trackpoint>
            <Time>2018-09-15T08:08:12.000Z</Time>
            <Position>
              <LatitudeDegrees>37.36965824849903583526611328125</LatitudeDegrees>
              <LongitudeDegrees>-7.96943298541009426116943359375</LongitudeDegrees>
            </Position>
            <AltitudeMeters>375.20001220703125</AltitudeMeters>
            <DistanceMeters>342381.96785147</DistanceMeters>
          </Trackpoint>
          <Trackpoint>
            <Time>2018-09-15T08:08:16.000Z</Time>
            <Position>
              <LatitudeDegrees>37.36953436397016048431396484375</LatitudeDegrees>
              <LongitudeDegrees>-7.9693901538848876953125</LongitudeDegrees>
            </Position>
            <AltitudeMeters>375.79998779296875</AltitudeMeters>
            <DistanceMeters>342396.26771444</DistanceMeters>
          </Trackpoint>
          <Trackpoint>
            <Time>2018-09-15T08:08:20.000Z</Time>
            <Position>
              <LatitudeDegrees>37.36940545029938220977783203125</LatitudeDegrees>
              <LongitudeDegrees>-7.96935327351093292236328125</LongitudeDegrees>
            </Position>
            <AltitudeMeters>376.79998779296875</AltitudeMeters>
            <DistanceMeters>342410.98244084</DistanceMeters>
          </Trackpoint>
          <Trackpoint>
            <Time>2018-09-15T08:08:25.000Z</Time>
            <Position>
              <LatitudeDegrees>37.36923663876950740814208984375</LatitudeDegrees>
              <LongitudeDegrees>-7.96930373646318912506103515625</LongitudeDegrees>
            </Position>
            <AltitudeMeters>377.79998779296875</AltitudeMeters>
            <DistanceMeters>342430.2754383</DistanceMeters>
          </Trackpoint>
          <Trackpoint>
            <Time>2018-09-15T08:08:32.000Z</Time>
            <Position>
              <LatitudeDegrees>37.36897948198020458221435546875</LatitudeDegrees>
              <LongitudeDegrees>-7.96925914473831653594970703125</LongitudeDegrees>
            </Position>
            <AltitudeMeters>379.399993896484375</AltitudeMeters>
            <DistanceMeters>342459.16793537</DistanceMeters>
          </Trackpoint>
          <Trackpoint>
            <Time>2018-09-15T08:08:41.000Z</Time>
            <Position>
              <LatitudeDegrees>37.36869147978723049163818359375</LatitudeDegrees>
              <LongitudeDegrees>-7.9694258607923984527587890625</LongitudeDegrees>
            </Position>
            <AltitudeMeters>382.600006103515625</AltitudeMeters>
            <DistanceMeters>342494.45267371</DistanceMeters>
          </Trackpoint>
          <Trackpoint>
            <Time>2018-09-15T08:08:44.000Z</Time>
            <Position>
              <LatitudeDegrees>37.3685985244810581207275390625</LatitudeDegrees>
              <LongitudeDegrees>-7.96952367760241031646728515625</LongitudeDegrees>
            </Position>
            <AltitudeMeters>384</AltitudeMeters>
            <DistanceMeters>342507.94010823</DistanceMeters>
          </Trackpoint>
          <Trackpoint>
            <Time>2018-09-15T08:08:51.000Z</Time>
            <Position>
              <LatitudeDegrees>37.36828043125569820404052734375</LatitudeDegrees>
              <LongitudeDegrees>-7.9695713706314563751220703125</LongitudeDegrees>
            </Position>
            <AltitudeMeters>386.79998779296875</AltitudeMeters>
            <DistanceMeters>342543.59501283</DistanceMeters>
          </Trackpoint>
          <Trackpoint>
            <Time>2018-09-15T08:08:58.000Z</Time>
            <Position>
              <LatitudeDegrees>37.3681653477251529693603515625</LatitudeDegrees>
              <LongitudeDegrees>-7.96925931237637996673583984375</LongitudeDegrees>
            </Position>
            <AltitudeMeters>387.399993896484375</AltitudeMeters>
            <DistanceMeters>342574.02597353</DistanceMeters>
          </Trackpoint>
          <Trackpoint>
            <Time>2018-09-15T08:09:03.000Z</Time>
            <Position>
              <LatitudeDegrees>37.36821019090712070465087890625</LatitudeDegrees>
              <LongitudeDegrees>-7.9690459929406642913818359375</LongitudeDegrees>
            </Position>
            <AltitudeMeters>386</AltitudeMeters>
            <DistanceMeters>342593.54465497</DistanceMeters>
          </Trackpoint>
          <Trackpoint>
            <Time>2018-09-15T08:09:07.000Z</Time>
            <Position>
              <LatitudeDegrees>37.3682344146072864532470703125</LatitudeDegrees>
              <LongitudeDegrees>-7.96888145618140697479248046875</LongitudeDegrees>
            </Position>
            <AltitudeMeters>385</AltitudeMeters>
            <DistanceMeters>342608.34687693</DistanceMeters>
          </Trackpoint>
          <Trackpoint>
            <Time>2018-09-15T08:09:13.000Z</Time>
            <Position>
              <LatitudeDegrees>37.36819191835820674896240234375</LatitudeDegrees>
              <LongitudeDegrees>-7.96865598298609256744384765625</LongitudeDegrees>
            </Position>
            <AltitudeMeters>384.79998779296875</AltitudeMeters>
            <DistanceMeters>342628.8446921</DistanceMeters>
          </Trackpoint>
          <Trackpoint>
            <Time>2018-09-15T08:09:17.000Z</Time>
            <Position>
              <LatitudeDegrees>37.368100471794605255126953125</LatitudeDegrees>
              <LongitudeDegrees>-7.9685546457767486572265625</LongitudeDegrees>
            </Position>
            <AltitudeMeters>385.600006103515625</AltitudeMeters>
            <DistanceMeters>342642.40723822</DistanceMeters>
          </Trackpoint>
          <Trackpoint>
            <Time>2018-09-15T08:09:22.000Z</Time>
            <Position>
              <LatitudeDegrees>37.3679497651755809783935546875</LatitudeDegrees>
              <LongitudeDegrees>-7.9684968106448650360107421875</LongitudeDegrees>
            </Position>
            <AltitudeMeters>386.79998779296875</AltitudeMeters>
            <DistanceMeters>342659.94423749</DistanceMeters>
          </Trackpoint>
          <Trackpoint>
            <Time>2018-09-15T08:09:26.000Z</Time>
            <Position>
              <LatitudeDegrees>37.367822192609310150146484375</LatitudeDegrees>
              <LongitudeDegrees>-7.96849102713167667388916015625</LongitudeDegrees>
            </Position>
            <AltitudeMeters>388</AltitudeMeters>
            <DistanceMeters>342674.15255861</DistanceMeters>
          </Trackpoint>
          <Trackpoint>
            <Time>2018-09-15T08:09:32.000Z</Time>
            <Position>
              <LatitudeDegrees>37.367629073560237884521484375</LatitudeDegrees>
              <LongitudeDegrees>-7.96851986087858676910400390625</LongitudeDegrees>
            </Position>
            <AltitudeMeters>390.399993896484375</AltitudeMeters>
            <DistanceMeters>342695.79821744</DistanceMeters>
          </Trackpoint>
          <Trackpoint>
            <Time>2018-09-15T08:09:38.000Z</Time>
            <Position>
              <LatitudeDegrees>37.36742547713220119476318359375</LatitudeDegrees>
              <LongitudeDegrees>-7.96854215674102306365966796875</LongitudeDegrees>
            </Position>
            <AltitudeMeters>392.79998779296875</AltitudeMeters>
            <DistanceMeters>342718.54476268</DistanceMeters>
          </Trackpoint>
          <Trackpoint>
            <Time>2018-09-15T08:09:44.000Z</Time>
            <Position>
              <LatitudeDegrees>37.3672188632190227508544921875</LatitudeDegrees>
              <LongitudeDegrees>-7.96855674125254154205322265625</LongitudeDegrees>
            </Position>
            <AltitudeMeters>395</AltitudeMeters>
            <DistanceMeters>342741.57732508</DistanceMeters>
          </Trackpoint>
          <Trackpoint>
            <Time>2018-09-15T08:09:50.000Z</Time>
            <Position>
              <LatitudeDegrees>37.36703085713088512420654296875</LatitudeDegrees>
              <LongitudeDegrees>-7.9685326851904392242431640625</LongitudeDegrees>
            </Position>
            <AltitudeMeters>396.20001220703125</AltitudeMeters>
            <DistanceMeters>342762.61066778</DistanceMeters>
          </Trackpoint>
          <Trackpoint>
            <Time>2018-09-15T08:09:55.000Z</Time>
            <Position>
              <LatitudeDegrees>37.36687478609383106231689453125</LatitudeDegrees>
              <LongitudeDegrees>-7.96850326471030712127685546875</LongitudeDegrees>
            </Position>
            <AltitudeMeters>397.20001220703125</AltitudeMeters>
            <DistanceMeters>342780.17570754</DistanceMeters>
          </Trackpoint>
          <Trackpoint>
            <Time>2018-09-15T08:09:59.000Z</Time>
            <Position>
              <LatitudeDegrees>37.3667444474995136260986328125</LatitudeDegrees>
              <LongitudeDegrees>-7.96847862191498279571533203125</LongitudeDegrees>
            </Position>
            <AltitudeMeters>398</AltitudeMeters>
            <DistanceMeters>342794.84556718</DistanceMeters>
          </Trackpoint>
          <Trackpoint>
            <Time>2018-09-15T08:10:08.000Z</Time>
            <Position>
              <LatitudeDegrees>37.36645434983074665069580078125</LatitudeDegrees>
              <LongitudeDegrees>-7.9684589244425296783447265625</LongitudeDegrees>
            </Position>
            <AltitudeMeters>399.399993896484375</AltitudeMeters>
            <DistanceMeters>342827.18091149</DistanceMeters>
          </Trackpoint>
          <Trackpoint>
            <Time>2018-09-15T08:10:14.000Z</Time>
            <Position>
              <LatitudeDegrees>37.36626190133392810821533203125</LatitudeDegrees>
              <LongitudeDegrees>-7.96848365105688571929931640625</LongitudeDegrees>
            </Position>
            <AltitudeMeters>400.600006103515625</AltitudeMeters>
            <DistanceMeters>342848.71237973</DistanceMeters>
          </Trackpoint>
          <Trackpoint>
            <Time>2018-09-15T08:10:20.000Z</Time>
            <Position>
              <LatitudeDegrees>37.366064675152301788330078125</LatitudeDegrees>
              <LongitudeDegrees>-7.96848482452332973480224609375</LongitudeDegrees>
            </Position>
            <AltitudeMeters>401.600006103515625</AltitudeMeters>
            <DistanceMeters>342870.6641678</DistanceMeters>
          </Trackpoint>
          <Trackpoint>
            <Time>2018-09-15T08:10:29.000Z</Time>
            <Position>
              <LatitudeDegrees>37.3657721467316150665283203125</LatitudeDegrees>
              <LongitudeDegrees>-7.96847711317241191864013671875</LongitudeDegrees>
            </Position>
            <AltitudeMeters>402.79998779296875</AltitudeMeters>
            <DistanceMeters>342903.23047582</DistanceMeters>
          </Trackpoint>
          <Trackpoint>
            <Time>2018-09-15T08:10:35.000Z</Time>
            <Position>
              <LatitudeDegrees>37.3656058497726917266845703125</LatitudeDegrees>
              <LongitudeDegrees>-7.96834585256874561309814453125</LongitudeDegrees>
            </Position>
            <AltitudeMeters>403.79998779296875</AltitudeMeters>
            <DistanceMeters>342925.08021521</DistanceMeters>
          </Trackpoint>
          <Trackpoint>
            <Time>2018-09-15T08:10:43.000Z</Time>
            <Position>
              <LatitudeDegrees>37.36548624001443386077880859375</LatitudeDegrees>
              <LongitudeDegrees>-7.96807545237243175506591796875</LongitudeDegrees>
            </Position>
            <AltitudeMeters>407.20001220703125</AltitudeMeters>
            <DistanceMeters>342952.45500204</DistanceMeters>
          </Trackpoint>
          <Trackpoint>
            <Time>2018-09-15T08:10:50.000Z</Time>
            <Position>
              <LatitudeDegrees>37.36541566438972949981689453125</LatitudeDegrees>
              <LongitudeDegrees>-7.967822067439556121826171875</LongitudeDegrees>
            </Position>
            <AltitudeMeters>409.20001220703125</AltitudeMeters>
            <DistanceMeters>342976.20616844</DistanceMeters>
          </Trackpoint>
          <Trackpoint>
            <Time>2018-09-15T08:10:54.000Z</Time>
            <Position>
              <LatitudeDegrees>37.365379035472869873046875</LatitudeDegrees>
              <LongitudeDegrees>-7.96767865307629108428955078125</LongitudeDegrees>
            </Position>
            <AltitudeMeters>409.600006103515625</AltitudeMeters>
            <DistanceMeters>342989.53161114</DistanceMeters>
          </Trackpoint>
          <Trackpoint>
            <Time>2018-09-15T08:10:59.000Z</Time>
            <Position>
              <LatitudeDegrees>37.36533670686185359954833984375</LatitudeDegrees>
              <LongitudeDegrees>-7.96749810688197612762451171875</LongitudeDegrees>
            </Position>
            <AltitudeMeters>410.79998779296875</AltitudeMeters>
            <DistanceMeters>343006.18326353</DistanceMeters>
          </Trackpoint>
          <Trackpoint>
            <Time>2018-09-15T08:11:05.000Z</Time>
            <Position>
              <LatitudeDegrees>37.36528356559574604034423828125</LatitudeDegrees>
              <LongitudeDegrees>-7.967280931770801544189453125</LongitudeDegrees>
            </Position>
            <AltitudeMeters>412.79998779296875</AltitudeMeters>
            <DistanceMeters>343026.28495154</DistanceMeters>
          </Trackpoint>
          <Trackpoint>
            <Time>2018-09-15T08:11:09.000Z</Time>
            <Position>
              <LatitudeDegrees>37.365247271955013275146484375</LatitudeDegrees>
              <LongitudeDegrees>-7.96713232062757015228271484375</LongitudeDegrees>
            </Position>
            <AltitudeMeters>413.600006103515625</AltitudeMeters>
            <DistanceMeters>343040.03791417</DistanceMeters>
          </Trackpoint>
          <Trackpoint>
            <Time>2018-09-15T08:11:14.000Z</Time>
            <Position>
              <LatitudeDegrees>37.36521986313164234161376953125</LatitudeDegrees>
              <LongitudeDegrees>-7.9669374413788318634033203125</LongitudeDegrees>
            </Position>
            <AltitudeMeters>414.79998779296875</AltitudeMeters>
            <DistanceMeters>343057.54502286</DistanceMeters>
          </Trackpoint>
          <Trackpoint>
            <Time>2018-09-15T08:11:20.000Z</Time>
            <Position>
              <LatitudeDegrees>37.36522941850125789642333984375</LatitudeDegrees>
              <LongitudeDegrees>-7.9666910134255886077880859375</LongitudeDegrees>
            </Position>
            <AltitudeMeters>416</AltitudeMeters>
            <DistanceMeters>343079.3701582</DistanceMeters>
          </Trackpoint>
          <Trackpoint>
            <Time>2018-09-15T08:11:28.000Z</Time>
            <Position>
              <LatitudeDegrees>37.3652735911309719085693359375</LatitudeDegrees>
              <LongitudeDegrees>-7.96633637510240077972412109375</LongitudeDegrees>
            </Position>
            <AltitudeMeters>416.79998779296875</AltitudeMeters>
            <DistanceMeters>343111.12472505</DistanceMeters>
          </Trackpoint>
          <Trackpoint>
            <Time>2018-09-15T08:11:37.000Z</Time>
            <Position>
              <LatitudeDegrees>37.3652615211904048919677734375</LatitudeDegrees>
              <LongitudeDegrees>-7.96595315448939800262451171875</LongitudeDegrees>
            </Position>
            <AltitudeMeters>418.20001220703125</AltitudeMeters>
            <DistanceMeters>343145.05152455</DistanceMeters>
          </Trackpoint>
          <Trackpoint>
            <Time>2018-09-15T08:11:42.000Z</Time>
            <Position>
              <LatitudeDegrees>37.365253977477550506591796875</LatitudeDegrees>
              <LongitudeDegrees>-7.9657428525388240814208984375</LongitudeDegrees>
            </Position>
            <AltitudeMeters>418.20001220703125</AltitudeMeters>
            <DistanceMeters>343163.67433626</DistanceMeters>
          </Trackpoint>
          <Trackpoint>
            <Time>2018-09-15T08:11:48.000Z</Time>
            <Position>
              <LatitudeDegrees>37.36524769105017185211181640625</LatitudeDegrees>
              <LongitudeDegrees>-7.96550237573683261871337890625</LongitudeDegrees>
            </Position>
            <AltitudeMeters>418.399993896484375</AltitudeMeters>
            <DistanceMeters>343184.9586233</DistanceMeters>
          </Trackpoint>
          <Trackpoint>
            <Time>2018-09-15T08:11:53.000Z</Time>
            <Position>
              <LatitudeDegrees>37.3652462661266326904296875</LatitudeDegrees>
              <LongitudeDegrees>-7.9653019644320011138916015625</LongitudeDegrees>
            </Position>
            <AltitudeMeters>418.79998779296875</AltitudeMeters>
            <DistanceMeters>343202.6881738</DistanceMeters>
          </Trackpoint>
          <Trackpoint>
            <Time>2018-09-15T08:11:59.000Z</Time>
            <Position>
              <LatitudeDegrees>37.36521399579942226409912109375</LatitudeDegrees>
              <LongitudeDegrees>-7.96504941768944263458251953125</LongitudeDegrees>
            </Position>
            <AltitudeMeters>419.399993896484375</AltitudeMeters>
            <DistanceMeters>343225.31570868</DistanceMeters>
          </Trackpoint>
          <Trackpoint>
            <Time>2018-09-15T08:12:07.000Z</Time>
            <Position>
              <LatitudeDegrees>37.3651026003062725067138671875</LatitudeDegrees>
              <LongitudeDegrees>-7.9647242836654186248779296875</LongitudeDegrees>
            </Position>
            <AltitudeMeters>419.399993896484375</AltitudeMeters>
            <DistanceMeters>343256.63591404</DistanceMeters>
          </Trackpoint>
          <Trackpoint>
            <Time>2018-09-15T08:12:14.000Z</Time>
            <Position>
              <LatitudeDegrees>37.364918701350688934326171875</LatitudeDegrees>
              <LongitudeDegrees>-7.96447391621768474578857421875</LongitudeDegrees>
            </Position>
            <AltitudeMeters>419.79998779296875</AltitudeMeters>
            <DistanceMeters>343286.79338707</DistanceMeters>
          </Trackpoint>
          <Trackpoint>
            <Time>2018-09-15T08:12:18.000Z</Time>
            <Position>
              <LatitudeDegrees>37.3648122511804103851318359375</LatitudeDegrees>
              <LongitudeDegrees>-7.9643363691866397857666015625</LongitudeDegrees>
            </Position>
            <AltitudeMeters>420</AltitudeMeters>
            <DistanceMeters>343303.77633857</DistanceMeters>
          </Trackpoint>
          <Trackpoint>
            <Time>2018-09-15T08:12:21.000Z</Time>
            <Position>
              <LatitudeDegrees>37.36474276520311832427978515625</LatitudeDegrees>
              <LongitudeDegrees>-7.9642354510724544525146484375</LongitudeDegrees>
            </Position>
            <AltitudeMeters>419.79998779296875</AltitudeMeters>
            <DistanceMeters>343315.58797186</DistanceMeters>
          </Trackpoint>
          <Trackpoint>
            <Time>2018-09-15T08:12:24.000Z</Time>
            <Position>
              <LatitudeDegrees>37.3646724410355091094970703125</LatitudeDegrees>
              <LongitudeDegrees>-7.9641450941562652587890625</LongitudeDegrees>
            </Position>
            <AltitudeMeters>419.79998779296875</AltitudeMeters>
            <DistanceMeters>343326.77532452</DistanceMeters>
          </Trackpoint>
          <Trackpoint>
            <Time>2018-09-15T08:12:39.000Z</Time>
            <Position>
              <LatitudeDegrees>37.3642902262508869171142578125</LatitudeDegrees>
              <LongitudeDegrees>-7.9636292718350887298583984375</LongitudeDegrees>
            </Position>
            <AltitudeMeters>418.79998779296875</AltitudeMeters>
            <DistanceMeters>343389.16041678</DistanceMeters>
          </Trackpoint>
          <Trackpoint>
            <Time>2018-09-15T08:12:47.000Z</Time>
            <Position>
              <LatitudeDegrees>37.36405494622886180877685546875</LatitudeDegrees>
              <LongitudeDegrees>-7.96336364932358264923095703125</LongitudeDegrees>
            </Position>
            <AltitudeMeters>418.399993896484375</AltitudeMeters>
            <DistanceMeters>343424.34417809</DistanceMeters>
          </Trackpoint>
          <Trackpoint>
            <Time>2018-09-15T08:12:59.000Z</Time>
            <Position>
              <LatitudeDegrees>37.3636315762996673583984375</LatitudeDegrees>
              <LongitudeDegrees>-7.9630090110003948211669921875</LongitudeDegrees>
            </Position>
            <AltitudeMeters>419.600006103515625</AltitudeMeters>
            <DistanceMeters>343480.95410503</DistanceMeters>
          </Trackpoint>
          <Trackpoint>
            <Time>2018-09-15T08:13:04.000Z</Time>
            <Position>
              <LatitudeDegrees>37.36345999874174594879150390625</LatitudeDegrees>
              <LongitudeDegrees>-7.96290063299238681793212890625</LongitudeDegrees>
            </Position>
            <AltitudeMeters>421.79998779296875</AltitudeMeters>
            <DistanceMeters>343502.32265308</DistanceMeters>
          </Trackpoint>
          <Trackpoint>
            <Time>2018-09-15T08:13:08.000Z</Time>
            <Position>
              <LatitudeDegrees>37.3633286543190479278564453125</LatitudeDegrees>
              <LongitudeDegrees>-7.9628383554518222808837890625</LongitudeDegrees>
            </Position>
            <AltitudeMeters>423.399993896484375</AltitudeMeters>
            <DistanceMeters>343517.94494088</DistanceMeters>
          </Trackpoint>
          <Trackpoint>
            <Time>2018-09-15T08:13:12.000Z</Time>
            <Position>
              <LatitudeDegrees>37.36321575008332729339599609375</LatitudeDegrees>
              <LongitudeDegrees>-7.96277892775833606719970703125</LongitudeDegrees>
            </Position>
            <AltitudeMeters>423.79998779296875</AltitudeMeters>
            <DistanceMeters>343531.56661518</DistanceMeters>
          </Trackpoint>
          <Trackpoint>
            <Time>2018-09-15T08:13:18.000Z</Time>
            <Position>
              <LatitudeDegrees>37.36300771124660968780517578125</LatitudeDegrees>
              <LongitudeDegrees>-7.9627181589603424072265625</LongitudeDegrees>
            </Position>
            <AltitudeMeters>423.600006103515625</AltitudeMeters>
            <DistanceMeters>343555.33735356</DistanceMeters>
          </Trackpoint>
          <Trackpoint>
            <Time>2018-09-15T08:13:24.000Z</Time>
            <Position>
              <LatitudeDegrees>37.3627412505447864532470703125</LatitudeDegrees>
              <LongitudeDegrees>-7.96268672682344913482666015625</LongitudeDegrees>
            </Position>
            <AltitudeMeters>422.79998779296875</AltitudeMeters>
            <DistanceMeters>343585.12500774</DistanceMeters>
          </Trackpoint>
          <Trackpoint>
            <Time>2018-09-15T08:13:28.000Z</Time>
            <Position>
              <LatitudeDegrees>37.3625099100172519683837890625</LatitudeDegrees>
              <LongitudeDegrees>-7.962686307728290557861328125</LongitudeDegrees>
            </Position>
            <AltitudeMeters>422.399993896484375</AltitudeMeters>
            <DistanceMeters>343610.87374058</DistanceMeters>
          </Trackpoint>
          <Trackpoint>
            <Time>2018-09-15T08:13:32.000Z</Time>
            <Position>
              <LatitudeDegrees>37.36227781511843204498291015625</LatitudeDegrees>
              <LongitudeDegrees>-7.962665520608425140380859375</LongitudeDegrees>
            </Position>
            <AltitudeMeters>423.399993896484375</AltitudeMeters>
            <DistanceMeters>343636.7717893</DistanceMeters>
          </Trackpoint>
          <Trackpoint>
            <Time>2018-09-15T08:13:33.000Z</Time>
            <Position>
              <LatitudeDegrees>37.3622252605855464935302734375</LatitudeDegrees>
              <LongitudeDegrees>-7.96265177428722381591796875</LongitudeDegrees>
            </Position>
            <AltitudeMeters>423.600006103515625</AltitudeMeters>
            <DistanceMeters>343642.74563749</DistanceMeters>
          </Trackpoint>
          <Trackpoint>
            <Time>2018-09-15T08:13:46.000Z</Time>
            <Position>
              <LatitudeDegrees>37.3616958595812320709228515625</LatitudeDegrees>
              <LongitudeDegrees>-7.96238430775701999664306640625</LongitudeDegrees>
            </Position>
            <AltitudeMeters>425</AltitudeMeters>
            <DistanceMeters>343706.24239986</DistanceMeters>
          </Trackpoint>
          <Trackpoint>
            <Time>2018-09-15T08:13:52.000Z</Time>
            <Position>
              <LatitudeDegrees>37.36161924898624420166015625</LatitudeDegrees>
              <LongitudeDegrees>-7.9623377881944179534912109375</LongitudeDegrees>
            </Position>
            <AltitudeMeters>425</AltitudeMeters>
            <DistanceMeters>343715.71079988</DistanceMeters>
          </Trackpoint>
          <Trackpoint>
            <Time>2018-09-15T08:14:21.000Z</Time>
            <Position>
              <LatitudeDegrees>37.3615758307278156280517578125</LatitudeDegrees>
              <LongitudeDegrees>-7.96230115927755832672119140625</LongitudeDegrees>
            </Position>
            <AltitudeMeters>424.79998779296875</AltitudeMeters>
            <DistanceMeters>343721.52842194</DistanceMeters>
          </Trackpoint>
          <Trackpoint>
            <Time>2018-09-15T08:14:22.000Z</Time>
            <Position>
              <LatitudeDegrees>37.3615587316453456878662109375</LatitudeDegrees>
              <LongitudeDegrees>-7.96228699386119842529296875</LongitudeDegrees>
            </Position>
            <AltitudeMeters>424.79998779296875</AltitudeMeters>
            <DistanceMeters>343723.80906309</DistanceMeters>
          </Trackpoint>
          <Trackpoint>
            <Time>2018-09-15T08:14:29.000Z</Time>
            <Position>
              <LatitudeDegrees>37.36137659288942813873291015625</LatitudeDegrees>
              <LongitudeDegrees>-7.962124384939670562744140625</LongitudeDegrees>
            </Position>
            <AltitudeMeters>423.79998779296875</AltitudeMeters>
            <DistanceMeters>343748.66686007</DistanceMeters>
          </Trackpoint>
          <Trackpoint>
            <Time>2018-09-15T08:14:32.000Z</Time>
            <Position>
              <LatitudeDegrees>37.3612546361982822418212890625</LatitudeDegrees>
              <LongitudeDegrees>-7.9620145820081233978271484375</LongitudeDegrees>
            </Position>
            <AltitudeMeters>422.600006103515625</AltitudeMeters>
            <DistanceMeters>343765.35859391</DistanceMeters>
          </Trackpoint>
          <Trackpoint>
            <Time>2018-09-15T08:14:36.000Z</Time>
            <Position>
              <LatitudeDegrees>37.3610511235892772674560546875</LatitudeDegrees>
              <LongitudeDegrees>-7.9618506319820880889892578125</LongitudeDegrees>
            </Position>
            <AltitudeMeters>420.20001220703125</AltitudeMeters>
            <DistanceMeters>343792.25568677</DistanceMeters>
          </Trackpoint>
          <Trackpoint>
            <Time>2018-09-15T08:14:38.000Z</Time>
            <Position>
              <LatitudeDegrees>37.36092866398394107818603515625</LatitudeDegrees>
              <LongitudeDegrees>-7.9617721773684024810791015625</LongitudeDegrees>
            </Position>
            <AltitudeMeters>419</AltitudeMeters>
            <DistanceMeters>343807.55115082</DistanceMeters>
          </Trackpoint>
          <Trackpoint>
            <Time>2018-09-15T08:14:39.000Z</Time>
            <Position>
              <LatitudeDegrees>37.36085624434053897857666015625</LatitudeDegrees>
              <LongitudeDegrees>-7.9617523960769176483154296875</LongitudeDegrees>
            </Position>
            <AltitudeMeters>418.399993896484375</AltitudeMeters>
            <DistanceMeters>343815.79933826</DistanceMeters>
          </Trackpoint>
          <Trackpoint>
            <Time>2018-09-15T08:14:42.000Z</Time>
            <Position>
              <LatitudeDegrees>37.36064099706709384918212890625</LatitudeDegrees>
              <LongitudeDegrees>-7.9618499614298343658447265625</LongitudeDegrees>
            </Position>
            <AltitudeMeters>419.600006103515625</AltitudeMeters>
            <DistanceMeters>343841.26437016</DistanceMeters>
          </Trackpoint>
          <Trackpoint>
            <Time>2018-09-15T08:14:43.000Z</Time>
            <Position>
              <LatitudeDegrees>37.36058081500232219696044921875</LatitudeDegrees>
              <LongitudeDegrees>-7.9619133286178112030029296875</LongitudeDegrees>
            </Position>
            <AltitudeMeters>420.399993896484375</AltitudeMeters>
            <DistanceMeters>343849.99959459</DistanceMeters>
          </Trackpoint>
          <Trackpoint>
            <Time>2018-09-15T08:14:44.000Z</Time>
            <Position>
              <LatitudeDegrees>37.36052482388913631439208984375</LatitudeDegrees>
              <LongitudeDegrees>-7.96196588315069675445556640625</LongitudeDegrees>
            </Position>
            <AltitudeMeters>421.20001220703125</AltitudeMeters>
            <DistanceMeters>343857.77554417</DistanceMeters>
          </Trackpoint>
          <Trackpoint>
            <Time>2018-09-15T08:14:45.000Z</Time>
            <Position>
              <LatitudeDegrees>37.36047235317528247833251953125</LatitudeDegrees>
              <LongitudeDegrees>-7.96200611628592014312744140625</LongitudeDegrees>
            </Position>
            <AltitudeMeters>421.79998779296875</AltitudeMeters>
            <DistanceMeters>343864.61482747</DistanceMeters>
          </Trackpoint>
          <Trackpoint>
            <Time>2018-09-15T08:14:48.000Z</Time>
            <Position>
              <LatitudeDegrees>37.36038300208747386932373046875</LatitudeDegrees>
              <LongitudeDegrees>-7.96205188147723674774169921875</LongitudeDegrees>
            </Position>
            <AltitudeMeters>422.399993896484375</AltitudeMeters>
            <DistanceMeters>343875.35242571</DistanceMeters>
          </Trackpoint>
          <Trackpoint>
            <Time>2018-09-15T08:14:49.000Z</Time>
            <Position>
              <LatitudeDegrees>37.360377721488475799560546875</LatitudeDegrees>
              <LongitudeDegrees>-7.962054312229156494140625</LongitudeDegrees>
            </Position>
            <AltitudeMeters>422.399993896484375</AltitudeMeters>
            <DistanceMeters>343875.98276162</DistanceMeters>
          </Trackpoint>
          <Trackpoint>
            <Time>2018-09-15T08:14:50.000Z</Time>
            <Position>
              <LatitudeDegrees>37.360375039279460906982421875</LatitudeDegrees>
              <LongitudeDegrees>-7.962055988609790802001953125</LongitudeDegrees>
            </Position>
            <AltitudeMeters>422.600006103515625</AltitudeMeters>
            <DistanceMeters>343876.31194382</DistanceMeters>
          </Trackpoint>
          <Trackpoint>
            <Time>2018-09-15T08:23:06.000Z</Time>
            <Position>
              <LatitudeDegrees>37.36033975146710872650146484375</LatitudeDegrees>
              <LongitudeDegrees>-7.9620207846164703369140625</LongitudeDegrees>
            </Position>
            <AltitudeMeters>422</AltitudeMeters>
            <DistanceMeters>343881.32409632</DistanceMeters>
          </Trackpoint>
          <Trackpoint>
            <Time>2018-09-15T08:23:07.000Z</Time>
            <Position>
              <LatitudeDegrees>37.36032466404139995574951171875</LatitudeDegrees>
              <LongitudeDegrees>-7.962007038295269012451171875</LongitudeDegrees>
            </Position>
            <AltitudeMeters>421.79998779296875</AltitudeMeters>
            <DistanceMeters>343883.39733446</DistanceMeters>
          </Trackpoint>
          <Trackpoint>
            <Time>2018-09-15T08:23:09.000Z</Time>
            <Position>
              <LatitudeDegrees>37.36028878949582576751708984375</LatitudeDegrees>
              <LongitudeDegrees>-7.9619746841490268707275390625</LongitudeDegrees>
            </Position>
            <AltitudeMeters>421.399993896484375</AltitudeMeters>
            <DistanceMeters>343888.31031668</DistanceMeters>
          </Trackpoint>
          <Trackpoint>
            <Time>2018-09-15T08:23:18.000Z</Time>
            <Position>
              <LatitudeDegrees>37.36009282059967517852783203125</LatitudeDegrees>
              <LongitudeDegrees>-7.9617389850318431854248046875</LongitudeDegrees>
            </Position>
            <AltitudeMeters>418</AltitudeMeters>
            <DistanceMeters>343918.48545095</DistanceMeters>
          </Trackpoint>
          <Trackpoint>
            <Time>2018-09-15T08:23:22.000Z</Time>
            <Position>
              <LatitudeDegrees>37.35997463576495647430419921875</LatitudeDegrees>
              <LongitudeDegrees>-7.9615539126098155975341796875</LongitudeDegrees>
            </Position>
            <AltitudeMeters>415</AltitudeMeters>
            <DistanceMeters>343939.48785972</DistanceMeters>
          </Trackpoint>
          <Trackpoint>
            <Time>2018-09-15T08:23:23.000Z</Time>
            <Position>
              <LatitudeDegrees>37.359933145344257354736328125</LatitudeDegrees>
              <LongitudeDegrees>-7.96150420792400836944580078125</LongitudeDegrees>
            </Position>
            <AltitudeMeters>414</AltitudeMeters>
            <DistanceMeters>343945.86386193</DistanceMeters>
          </Trackpoint>
          <Trackpoint>
            <Time>2018-09-15T08:23:28.000Z</Time>
            <Position>
              <LatitudeDegrees>37.35961404629051685333251953125</LatitudeDegrees>
              <LongitudeDegrees>-7.96149733476340770721435546875</LongitudeDegrees>
            </Position>
            <AltitudeMeters>411.20001220703125</AltitudeMeters>
            <DistanceMeters>343981.38542737</DistanceMeters>
          </Trackpoint>
          <Trackpoint>
            <Time>2018-09-15T08:23:29.000Z</Time>
            <Position>
              <LatitudeDegrees>37.3595427162945270538330078125</LatitudeDegrees>
              <LongitudeDegrees>-7.96153488568961620330810546875</LongitudeDegrees>
            </Position>
            <AltitudeMeters>411.20001220703125</AltitudeMeters>
            <DistanceMeters>343989.99151167</DistanceMeters>
          </Trackpoint>
          <Trackpoint>
            <Time>2018-09-15T08:23:30.000Z</Time>
            <Position>
              <LatitudeDegrees>37.3594709672033786773681640625</LatitudeDegrees>
              <LongitudeDegrees>-7.96157159842550754547119140625</LongitudeDegrees>
            </Position>
            <AltitudeMeters>411</AltitudeMeters>
            <DistanceMeters>343998.61279691</DistanceMeters>
          </Trackpoint>
          <Trackpoint>
            <Time>2018-09-15T08:23:32.000Z</Time>
            <Position>
              <LatitudeDegrees>37.35932252369821071624755859375</LatitudeDegrees>
              <LongitudeDegrees>-7.9616451077163219451904296875</LongitudeDegrees>
            </Position>
            <AltitudeMeters>411</AltitudeMeters>
            <DistanceMeters>344016.3685582</DistanceMeters>
          </Trackpoint>
          <Trackpoint>
            <Time>2018-09-15T08:23:34.000Z</Time>
            <Position>
              <LatitudeDegrees>37.35916930250823497772216796875</LatitudeDegrees>
              <LongitudeDegrees>-7.9617057926952838897705078125</LongitudeDegrees>
            </Position>
            <AltitudeMeters>410.600006103515625</AltitudeMeters>
            <DistanceMeters>344034.24772781</DistanceMeters>
          </Trackpoint>
          <Trackpoint>
            <Time>2018-09-15T08:23:36.000Z</Time>
            <Position>
              <LatitudeDegrees>37.3590072803199291229248046875</LatitudeDegrees>
              <LongitudeDegrees>-7.9616980813443660736083984375</LongitudeDegrees>
            </Position>
            <AltitudeMeters>411</AltitudeMeters>
            <DistanceMeters>344052.29429915</DistanceMeters>
          </Trackpoint>
          <Trackpoint>
            <Time>2018-09-15T08:23:38.000Z</Time>
            <Position>
              <LatitudeDegrees>37.3588808812201023101806640625</LatitudeDegrees>
              <LongitudeDegrees>-7.9615669883787631988525390625</LongitudeDegrees>
            </Position>
            <AltitudeMeters>409.79998779296875</AltitudeMeters>
            <DistanceMeters>344070.52705084</DistanceMeters>
          </Trackpoint>
          <Trackpoint>
            <Time>2018-09-15T08:23:40.000Z</Time>
            <Position>
              <LatitudeDegrees>37.3588443361222743988037109375</LatitudeDegrees>
              <LongitudeDegrees>-7.961380071938037872314453125</LongitudeDegrees>
            </Position>
            <AltitudeMeters>407.79998779296875</AltitudeMeters>
            <DistanceMeters>344087.55672891</DistanceMeters>
          </Trackpoint>
          <Trackpoint>
            <Time>2018-09-15T08:23:41.000Z</Time>
            <Position>
              <LatitudeDegrees>37.35884039662778377532958984375</LatitudeDegrees>
              <LongitudeDegrees>-7.96129181049764156341552734375</LongitudeDegrees>
            </Position>
            <AltitudeMeters>406.600006103515625</AltitudeMeters>
            <DistanceMeters>344095.37783739</DistanceMeters>
          </Trackpoint>
          <Trackpoint>
            <Time>2018-09-15T08:23:42.000Z</Time>
            <Position>
              <LatitudeDegrees>37.358833439648151397705078125</LatitudeDegrees>
              <LongitudeDegrees>-7.96120698563754558563232421875</LongitudeDegrees>
            </Position>
            <AltitudeMeters>405.79998779296875</AltitudeMeters>
            <DistanceMeters>344102.92154614</DistanceMeters>
          </Trackpoint>
          <Trackpoint>
            <Time>2018-09-15T08:23:43.000Z</Time>
            <Position>
              <LatitudeDegrees>37.35882078297436237335205078125</LatitudeDegrees>
              <LongitudeDegrees>-7.96112786047160625457763671875</LongitudeDegrees>
            </Position>
            <AltitudeMeters>405.399993896484375</AltitudeMeters>
            <DistanceMeters>344110.06184106</DistanceMeters>
          </Trackpoint>
          <Trackpoint>
            <Time>2018-09-15T08:23:45.000Z</Time>
            <Position>
              <LatitudeDegrees>37.358771078288555145263671875</LatitudeDegrees>
              <LongitudeDegrees>-7.9609956778585910797119140625</LongitudeDegrees>
            </Position>
            <AltitudeMeters>405</AltitudeMeters>
            <DistanceMeters>344122.99804517</DistanceMeters>
          </Trackpoint>
          <Trackpoint>
            <Time>2018-09-15T08:23:47.000Z</Time>
            <Position>
              <LatitudeDegrees>37.35868734307587146759033203125</LatitudeDegrees>
              <LongitudeDegrees>-7.96092979609966278076171875</LongitudeDegrees>
            </Position>
            <AltitudeMeters>405.399993896484375</AltitudeMeters>
            <DistanceMeters>344133.98997052</DistanceMeters>
          </Trackpoint>
          <Trackpoint>
            <Time>2018-09-15T08:23:50.000Z</Time>
            <Position>
              <LatitudeDegrees>37.3585559986531734466552734375</LatitudeDegrees>
              <LongitudeDegrees>-7.96093859709799289703369140625</LongitudeDegrees>
            </Position>
            <AltitudeMeters>406.79998779296875</AltitudeMeters>
            <DistanceMeters>344148.62963699</DistanceMeters>
          </Trackpoint>
          <Trackpoint>
            <Time>2018-09-15T08:23:52.000Z</Time>
            <Position>
              <LatitudeDegrees>37.3584822379052639007568359375</LatitudeDegrees>
              <LongitudeDegrees>-7.9609732143580913543701171875</LongitudeDegrees>
            </Position>
            <AltitudeMeters>407.79998779296875</AltitudeMeters>
            <DistanceMeters>344157.39169781</DistanceMeters>
          </Trackpoint>
          <Trackpoint>
            <Time>2018-09-15T08:23:54.000Z</Time>
            <Position>
              <LatitudeDegrees>37.3584178648889064788818359375</LatitudeDegrees>
              <LongitudeDegrees>-7.9610114358365535736083984375</LongitudeDegrees>
            </Position>
            <AltitudeMeters>408.600006103515625</AltitudeMeters>
            <DistanceMeters>344165.3137576</DistanceMeters>
          </Trackpoint>
          <Trackpoint>
            <Time>2018-09-15T08:23:56.000Z</Time>
            <Position>
              <LatitudeDegrees>37.35835508443415164947509765625</LatitudeDegrees>
              <LongitudeDegrees>-7.96104915440082550048828125</LongitudeDegrees>
            </Position>
            <AltitudeMeters>409.399993896484375</AltitudeMeters>
            <DistanceMeters>344173.05712299</DistanceMeters>
          </Trackpoint>
          <Trackpoint>
            <Time>2018-09-15T08:23:59.000Z</Time>
            <Position>
              <LatitudeDegrees>37.35826916992664337158203125</LatitudeDegrees>
              <LongitudeDegrees>-7.96111528761684894561767578125</LongitudeDegrees>
            </Position>
            <AltitudeMeters>410</AltitudeMeters>
            <DistanceMeters>344184.26785909</DistanceMeters>
          </Trackpoint>
          <Trackpoint>
            <Time>2018-09-15T08:24:03.000Z</Time>
            <Position>
              <LatitudeDegrees>37.358166910707950592041015625</LatitudeDegrees>
              <LongitudeDegrees>-7.9612441174685955047607421875</LongitudeDegrees>
            </Position>
            <AltitudeMeters>410</AltitudeMeters>
            <DistanceMeters>344200.37509741</DistanceMeters>
          </Trackpoint>
          <Trackpoint>
            <Time>2018-09-15T08:24:04.000Z</Time>
            <Position>
              <LatitudeDegrees>37.35814620740711688995361328125</LatitudeDegrees>
              <LongitudeDegrees>-7.96128024347126483917236328125</LongitudeDegrees>
            </Position>
            <AltitudeMeters>410</AltitudeMeters>
            <DistanceMeters>344204.31612919</DistanceMeters>
          </Trackpoint>
          <Trackpoint>
            <Time>2018-09-15T08:24:07.000Z</Time>
            <Position>
              <LatitudeDegrees>37.35808485187590122222900390625</LatitudeDegrees>
              <LongitudeDegrees>-7.96140228398144245147705078125</LongitudeDegrees>
            </Position>
            <AltitudeMeters>410.399993896484375</AltitudeMeters>
            <DistanceMeters>344217.09148052</DistanceMeters>
          </Trackpoint>
          <Trackpoint>
            <Time>2018-09-15T08:24:09.000Z</Time>
            <Position>
              <LatitudeDegrees>37.3580426909029483795166015625</LatitudeDegrees>
              <LongitudeDegrees>-7.96148844994604587554931640625</LongitudeDegrees>
            </Position>
            <AltitudeMeters>410.600006103515625</AltitudeMeters>
            <DistanceMeters>344226.0431786</DistanceMeters>
          </Trackpoint>
          <Trackpoint>
            <Time>2018-09-15T08:24:14.000Z</Time>
            <Position>
              <LatitudeDegrees>37.3579290322959423065185546875</LatitudeDegrees>
              <LongitudeDegrees>-7.96173085458576679229736328125</LongitudeDegrees>
            </Position>
            <AltitudeMeters>411.20001220703125</AltitudeMeters>
            <DistanceMeters>344250.94162851</DistanceMeters>
          </Trackpoint>
          <Trackpoint>
            <Time>2018-09-15T08:24:15.000Z</Time>
            <Position>
              <LatitudeDegrees>37.35790916718542575836181640625</LatitudeDegrees>
              <LongitudeDegrees>-7.96178676187992095947265625</LongitudeDegrees>
            </Position>
            <AltitudeMeters>411.399993896484375</AltitudeMeters>
            <DistanceMeters>344256.35898473</DistanceMeters>
          </Trackpoint>
          <Trackpoint>
            <Time>2018-09-15T08:24:19.000Z</Time>
            <Position>
              <LatitudeDegrees>37.35786641947925090789794921875</LatitudeDegrees>
              <LongitudeDegrees>-7.96201768331229686737060546875</LongitudeDegrees>
            </Position>
            <AltitudeMeters>412.79998779296875</AltitudeMeters>
            <DistanceMeters>344277.33536514</DistanceMeters>
          </Trackpoint>
          <Trackpoint>
            <Time>2018-09-15T08:24:20.000Z</Time>
            <Position>
              <LatitudeDegrees>37.357856445014476776123046875</LatitudeDegrees>
              <LongitudeDegrees>-7.9620749317109584808349609375</LongitudeDegrees>
            </Position>
            <AltitudeMeters>413.20001220703125</AltitudeMeters>
            <DistanceMeters>344282.52107315</DistanceMeters>
          </Trackpoint>
          <Trackpoint>
            <Time>2018-09-15T08:24:24.000Z</Time>
            <Position>
              <LatitudeDegrees>37.35775779001414775848388671875</LatitudeDegrees>
              <LongitudeDegrees>-7.962257824838161468505859375</LongitudeDegrees>
            </Position>
            <AltitudeMeters>413.79998779296875</AltitudeMeters>
            <DistanceMeters>344302.07580703</DistanceMeters>
          </Trackpoint>
          <Trackpoint>
            <Time>2018-09-15T08:24:26.000Z</Time>
            <Position>
              <LatitudeDegrees>37.35767413862049579620361328125</LatitudeDegrees>
              <LongitudeDegrees>-7.96230836771428585052490234375</LongitudeDegrees>
            </Position>
            <AltitudeMeters>413.399993896484375</AltitudeMeters>
            <DistanceMeters>344312.40447215</DistanceMeters>
          </Trackpoint>
          <Trackpoint>
            <Time>2018-09-15T08:24:28.000Z</Time>
            <Position>
              <LatitudeDegrees>37.3575790040194988250732421875</LatitudeDegrees>
              <LongitudeDegrees>-7.9623394645750522613525390625</LongitudeDegrees>
            </Position>
            <AltitudeMeters>413</AltitudeMeters>
            <DistanceMeters>344323.34451937</DistanceMeters>
          </Trackpoint>
          <Trackpoint>
            <Time>2018-09-15T08:24:32.000Z</Time>
            <Position>
              <LatitudeDegrees>37.35733215697109699249267578125</LatitudeDegrees>
              <LongitudeDegrees>-7.9624269716441631317138671875</LongitudeDegrees>
            </Position>
            <AltitudeMeters>409.79998779296875</AltitudeMeters>
            <DistanceMeters>344351.88893735</DistanceMeters>
          </Trackpoint>
          <Trackpoint>
            <Time>2018-09-15T08:24:37.000Z</Time>
            <Position>
              <LatitudeDegrees>37.3569651134312152862548828125</LatitudeDegrees>
              <LongitudeDegrees>-7.96265403740108013153076171875</LongitudeDegrees>
            </Position>
            <AltitudeMeters>403.399993896484375</AltitudeMeters>
            <DistanceMeters>344397.41357732</DistanceMeters>
          </Trackpoint>
          <Trackpoint>
            <Time>2018-09-15T08:24:39.000Z</Time>
            <Position>
              <LatitudeDegrees>37.35681164078414440155029296875</LatitudeDegrees>
              <LongitudeDegrees>-7.96275227330625057220458984375</LongitudeDegrees>
            </Position>
            <AltitudeMeters>400.600006103515625</AltitudeMeters>
            <DistanceMeters>344416.57931366</DistanceMeters>
          </Trackpoint>
          <Trackpoint>
            <Time>2018-09-15T08:24:40.000Z</Time>
            <Position>
              <LatitudeDegrees>37.35673762857913970947265625</LatitudeDegrees>
              <LongitudeDegrees>-7.96281731687486171722412109375</LongitudeDegrees>
            </Position>
            <AltitudeMeters>399.399993896484375</AltitudeMeters>
            <DistanceMeters>344426.62791132</DistanceMeters>
          </Trackpoint>
          <Trackpoint>
            <Time>2018-09-15T08:24:41.000Z</Time>
            <Position>
              <LatitudeDegrees>37.35667350701987743377685546875</LatitudeDegrees>
              <LongitudeDegrees>-7.96289920806884765625</LongitudeDegrees>
            </Position>
            <AltitudeMeters>398.600006103515625</AltitudeMeters>
            <DistanceMeters>344436.79798976</DistanceMeters>
          </Trackpoint>
          <Trackpoint>
            <Time>2018-09-15T08:24:42.000Z</Time>
            <Position>
              <LatitudeDegrees>37.35662891529500484466552734375</LatitudeDegrees>
              <LongitudeDegrees>-7.96300037764012813568115234375</LongitudeDegrees>
            </Position>
            <AltitudeMeters>398.399993896484375</AltitudeMeters>
            <DistanceMeters>344447.03268012</DistanceMeters>
          </Trackpoint>
          <Trackpoint>
            <Time>2018-09-15T08:24:44.000Z</Time>
            <Position>
              <LatitudeDegrees>37.3566056974232196807861328125</LatitudeDegrees>
              <LongitudeDegrees>-7.96323473565280437469482421875</LongitudeDegrees>
            </Position>
            <AltitudeMeters>399.600006103515625</AltitudeMeters>
            <DistanceMeters>344467.92689166</DistanceMeters>
          </Trackpoint>
          <Trackpoint>
            <Time>2018-09-15T08:24:45.000Z</Time>
            <Position>
              <LatitudeDegrees>37.35661181621253490447998046875</LatitudeDegrees>
              <LongitudeDegrees>-7.9633546806871891021728515625</LongitudeDegrees>
            </Position>
            <AltitudeMeters>400.399993896484375</AltitudeMeters>
            <DistanceMeters>344478.55969736</DistanceMeters>
          </Trackpoint>
          <Trackpoint>
            <Time>2018-09-15T08:24:46.000Z</Time>
            <Position>
              <LatitudeDegrees>37.35660946927964687347412109375</LatitudeDegrees>
              <LongitudeDegrees>-7.9634760506451129913330078125</LongitudeDegrees>
            </Position>
            <AltitudeMeters>400.79998779296875</AltitudeMeters>
            <DistanceMeters>344489.30065899</DistanceMeters>
          </Trackpoint>
          <Trackpoint>
            <Time>2018-09-15T08:24:47.000Z</Time>
            <Position>
              <LatitudeDegrees>37.3565906099975109100341796875</LatitudeDegrees>
              <LongitudeDegrees>-7.963594906032085418701171875</LongitudeDegrees>
            </Position>
            <AltitudeMeters>401</AltitudeMeters>
            <DistanceMeters>344500.02395108</DistanceMeters>
          </Trackpoint>
          <Trackpoint>
            <Time>2018-09-15T08:24:49.000Z</Time>
            <Position>
              <LatitudeDegrees>37.356495894491672515869140625</LatitudeDegrees>
              <LongitudeDegrees>-7.96380914747714996337890625</LongitudeDegrees>
            </Position>
            <AltitudeMeters>400.600006103515625</AltitudeMeters>
            <DistanceMeters>344521.71253661</DistanceMeters>
          </Trackpoint>
          <Trackpoint>
            <Time>2018-09-15T08:24:50.000Z</Time>
            <Position>
              <LatitudeDegrees>37.3564454354345798492431640625</LatitudeDegrees>
              <LongitudeDegrees>-7.963914088904857635498046875</LongitudeDegrees>
            </Position>
            <AltitudeMeters>400.399993896484375</AltitudeMeters>
            <DistanceMeters>344532.56348895</DistanceMeters>
          </Trackpoint>
          <Trackpoint>
            <Time>2018-09-15T08:24:51.000Z</Time>
            <Position>
              <LatitudeDegrees>37.35641635023057460784912109375</LatitudeDegrees>
              <LongitudeDegrees>-7.964028082787990570068359375</LongitudeDegrees>
            </Position>
            <AltitudeMeters>400.399993896484375</AltitudeMeters>
            <DistanceMeters>344543.15587772</DistanceMeters>
          </Trackpoint>
          <Trackpoint>
            <Time>2018-09-15T08:24:53.000Z</Time>
            <Position>
              <LatitudeDegrees>37.35641844570636749267578125</LatitudeDegrees>
              <LongitudeDegrees>-7.96427861787378787994384765625</LongitudeDegrees>
            </Position>
            <AltitudeMeters>401</AltitudeMeters>
            <DistanceMeters>344565.32217014</DistanceMeters>
          </Trackpoint>
          <Trackpoint>
            <Time>2018-09-15T08:24:54.000Z</Time>
            <Position>
              <LatitudeDegrees>37.35643194057047367095947265625</LatitudeDegrees>
              <LongitudeDegrees>-7.9644030891358852386474609375</LongitudeDegrees>
            </Position>
            <AltitudeMeters>402.20001220703125</AltitudeMeters>
            <DistanceMeters>344576.43664024</DistanceMeters>
          </Trackpoint>
          <Trackpoint>
            <Time>2018-09-15T08:24:55.000Z</Time>
            <Position>
              <LatitudeDegrees>37.35643110238015651702880859375</LatitudeDegrees>
              <LongitudeDegrees>-7.9645261354744434356689453125</LongitudeDegrees>
            </Position>
            <AltitudeMeters>402</AltitudeMeters>
            <DistanceMeters>344587.32373276</DistanceMeters>
          </Trackpoint>
          <Trackpoint>
            <Time>2018-09-15T08:24:57.000Z</Time>
            <Position>
              <LatitudeDegrees>37.3563535697758197784423828125</LatitudeDegrees>
              <LongitudeDegrees>-7.96472587622702121734619140625</LongitudeDegrees>
            </Position>
            <AltitudeMeters>401.20001220703125</AltitudeMeters>
            <DistanceMeters>344606.98944185</DistanceMeters>
          </Trackpoint>
          <Trackpoint>
            <Time>2018-09-15T08:24:59.000Z</Time>
            <Position>
              <LatitudeDegrees>37.35619624145328998565673828125</LatitudeDegrees>
              <LongitudeDegrees>-7.9648050852119922637939453125</LongitudeDegrees>
            </Position>
            <AltitudeMeters>401.20001220703125</AltitudeMeters>
            <DistanceMeters>344625.85026981</DistanceMeters>
          </Trackpoint>
          <Trackpoint>
            <Time>2018-09-15T08:25:02.000Z</Time>
            <Position>
              <LatitudeDegrees>37.35598501749336719512939453125</LatitudeDegrees>
              <LongitudeDegrees>-7.96476258896291255950927734375</LongitudeDegrees>
            </Position>
            <AltitudeMeters>400.399993896484375</AltitudeMeters>
            <DistanceMeters>344649.65877645</DistanceMeters>
          </Trackpoint>
          <Trackpoint>
            <Time>2018-09-15T08:25:04.000Z</Time>
            <Position>
              <LatitudeDegrees>37.355864234268665313720703125</LatitudeDegrees>
              <LongitudeDegrees>-7.9647822864353656768798828125</LongitudeDegrees>
            </Position>
            <AltitudeMeters>399.399993896484375</AltitudeMeters>
            <DistanceMeters>344663.21466284</DistanceMeters>
          </Trackpoint>
          <Trackpoint>
            <Time>2018-09-15T08:25:05.000Z</Time>
            <Position>
              <LatitudeDegrees>37.35581788234412670135498046875</LatitudeDegrees>
              <LongitudeDegrees>-7.96481757424771785736083984375</LongitudeDegrees>
            </Position>
            <AltitudeMeters>399.20001220703125</AltitudeMeters>
            <DistanceMeters>344669.24418087</DistanceMeters>
          </Trackpoint>
          <Trackpoint>
            <Time>2018-09-15T08:25:07.000Z</Time>
            <Position>
              <LatitudeDegrees>37.35576323233544826507568359375</LatitudeDegrees>
              <LongitudeDegrees>-7.964911200106143951416015625</LongitudeDegrees>
            </Position>
            <AltitudeMeters>400.20001220703125</AltitudeMeters>
            <DistanceMeters>344679.52069507</DistanceMeters>
          </Trackpoint>
          <Trackpoint>
            <Time>2018-09-15T08:25:08.000Z</Time>
            <Position>
              <LatitudeDegrees>37.35574378632009029388427734375</LatitudeDegrees>
              <LongitudeDegrees>-7.9649658501148223876953125</LongitudeDegrees>
            </Position>
            <AltitudeMeters>400.79998779296875</AltitudeMeters>
            <DistanceMeters>344684.81838113</DistanceMeters>
          </Trackpoint>
          <Trackpoint>
            <Time>2018-09-15T08:25:10.000Z</Time>
            <Position>
              <LatitudeDegrees>37.35570170916616916656494140625</LatitudeDegrees>
              <LongitudeDegrees>-7.96508344821631908416748046875</LongitudeDegrees>
            </Position>
            <AltitudeMeters>402</AltitudeMeters>
            <DistanceMeters>344696.22792021</DistanceMeters>
          </Trackpoint>
          <Trackpoint>
            <Time>2018-09-15T08:25:12.000Z</Time>
            <Position>
              <LatitudeDegrees>37.35566047020256519317626953125</LatitudeDegrees>
              <LongitudeDegrees>-7.96519895084202289581298828125</LongitudeDegrees>
            </Position>
            <AltitudeMeters>402.399993896484375</AltitudeMeters>
            <DistanceMeters>344707.43059857</DistanceMeters>
          </Trackpoint>
          <Trackpoint>
            <Time>2018-09-15T08:25:14.000Z</Time>
            <Position>
              <LatitudeDegrees>37.3556186445057392120361328125</LatitudeDegrees>
              <LongitudeDegrees>-7.9653066582977771759033203125</LongitudeDegrees>
            </Position>
            <AltitudeMeters>403.399993896484375</AltitudeMeters>
            <DistanceMeters>344718.03619295</DistanceMeters>
          </Trackpoint>
          <Trackpoint>
            <Time>2018-09-15T08:25:16.000Z</Time>
            <Position>
              <LatitudeDegrees>37.3555688560009002685546875</LatitudeDegrees>
              <LongitudeDegrees>-7.96540648676455020904541015625</LongitudeDegrees>
            </Position>
            <AltitudeMeters>404.600006103515625</AltitudeMeters>
            <DistanceMeters>344728.46318295</DistanceMeters>
          </Trackpoint>
          <Trackpoint>
            <Time>2018-09-15T08:25:19.000Z</Time>
            <Position>
              <LatitudeDegrees>37.35548713244497776031494140625</LatitudeDegrees>
              <LongitudeDegrees>-7.9655554331839084625244140625</LongitudeDegrees>
            </Position>
            <AltitudeMeters>406.600006103515625</AltitudeMeters>
            <DistanceMeters>344744.47511382</DistanceMeters>
          </Trackpoint>
          <Trackpoint>
            <Time>2018-09-15T08:25:22.000Z</Time>
            <Position>
              <LatitudeDegrees>37.3553987033665180206298828125</LatitudeDegrees>
              <LongitudeDegrees>-7.96569130383431911468505859375</LongitudeDegrees>
            </Position>
            <AltitudeMeters>408.20001220703125</AltitudeMeters>
            <DistanceMeters>344760.01132775</DistanceMeters>
          </Trackpoint>
          <Trackpoint>
            <Time>2018-09-15T08:25:24.000Z</Time>
            <Position>
              <LatitudeDegrees>37.355339862406253814697265625</LatitudeDegrees>
              <LongitudeDegrees>-7.96577713452279567718505859375</LongitudeDegrees>
            </Position>
            <AltitudeMeters>409.20001220703125</AltitudeMeters>
            <DistanceMeters>344770.03878512</DistanceMeters>
          </Trackpoint>
          <Trackpoint>
            <Time>2018-09-15T08:25:28.000Z</Time>
            <Position>
              <LatitudeDegrees>37.3552335798740386962890625</LatitudeDegrees>
              <LongitudeDegrees>-7.96593488194048404693603515625</LongitudeDegrees>
            </Position>
            <AltitudeMeters>410.600006103515625</AltitudeMeters>
            <DistanceMeters>344788.33408079</DistanceMeters>
          </Trackpoint>
          <Trackpoint>
            <Time>2018-09-15T08:25:31.000Z</Time>
            <Position>
              <LatitudeDegrees>37.3551616631448268890380859375</LatitudeDegrees>
              <LongitudeDegrees>-7.9660335369408130645751953125</LongitudeDegrees>
            </Position>
            <AltitudeMeters>410.79998779296875</AltitudeMeters>
            <DistanceMeters>344800.17701739</DistanceMeters>
          </Trackpoint>
          <Trackpoint>
            <Time>2018-09-15T08:25:35.000Z</Time>
            <Position>
              <LatitudeDegrees>37.35505051910877227783203125</LatitudeDegrees>
              <LongitudeDegrees>-7.9661438427865505218505859375</LongitudeDegrees>
            </Position>
            <AltitudeMeters>410.79998779296875</AltitudeMeters>
            <DistanceMeters>344815.93369603</DistanceMeters>
          </Trackpoint>
          <Trackpoint>
            <Time>2018-09-15T08:25:40.000Z</Time>
            <Position>
              <LatitudeDegrees>37.35488765873014926910400390625</LatitudeDegrees>
              <LongitudeDegrees>-7.966215424239635467529296875</LongitudeDegrees>
            </Position>
            <AltitudeMeters>410.79998779296875</AltitudeMeters>
            <DistanceMeters>344835.13473665</DistanceMeters>
          </Trackpoint>
          <Trackpoint>
            <Time>2018-09-15T08:25:49.000Z</Time>
            <Position>
              <LatitudeDegrees>37.354575097560882568359375</LatitudeDegrees>
              <LongitudeDegrees>-7.96629161573946475982666015625</LongitudeDegrees>
            </Position>
            <AltitudeMeters>411.399993896484375</AltitudeMeters>
            <DistanceMeters>344870.57040103</DistanceMeters>
          </Trackpoint>
          <Trackpoint>
            <Time>2018-09-15T08:25:56.000Z</Time>
            <Position>
              <LatitudeDegrees>37.35433998517692089080810546875</LatitudeDegrees>
              <LongitudeDegrees>-7.96636688522994518280029296875</LongitudeDegrees>
            </Position>
            <AltitudeMeters>413.399993896484375</AltitudeMeters>
            <DistanceMeters>344897.57304076</DistanceMeters>
          </Trackpoint>
          <Trackpoint>
            <Time>2018-09-15T08:26:02.000Z</Time>
            <Position>
              <LatitudeDegrees>37.35414753668010234832763671875</LatitudeDegrees>
              <LongitudeDegrees>-7.96644316054880619049072265625</LongitudeDegrees>
            </Position>
            <AltitudeMeters>415</AltitudeMeters>
            <DistanceMeters>344920.03073053</DistanceMeters>
          </Trackpoint>
          <Trackpoint>
            <Time>2018-09-15T08:26:08.000Z</Time>
            <Position>
              <LatitudeDegrees>37.35395123250782489776611328125</LatitudeDegrees>
              <LongitudeDegrees>-7.96652488410472869873046875</LongitudeDegrees>
            </Position>
            <AltitudeMeters>415</AltitudeMeters>
            <DistanceMeters>344943.04485888</DistanceMeters>
          </Trackpoint>
          <Trackpoint>
            <Time>2018-09-15T08:26:15.000Z</Time>
            <Position>
              <LatitudeDegrees>37.3537374101579189300537109375</LatitudeDegrees>
              <LongitudeDegrees>-7.96662370674312114715576171875</LongitudeDegrees>
            </Position>
            <AltitudeMeters>415</AltitudeMeters>
            <DistanceMeters>344968.39901203</DistanceMeters>
          </Trackpoint>
          <Trackpoint>
            <Time>2018-09-15T08:26:21.000Z</Time>
            <Position>
              <LatitudeDegrees>37.3535556904971599578857421875</LatitudeDegrees>
              <LongitudeDegrees>-7.96671255491673946380615234375</LongitudeDegrees>
            </Position>
            <AltitudeMeters>414.79998779296875</AltitudeMeters>
            <DistanceMeters>344990.09862806</DistanceMeters>
          </Trackpoint>
          <Trackpoint>
            <Time>2018-09-15T08:26:27.000Z</Time>
            <Position>
              <LatitudeDegrees>37.35337438993155956268310546875</LatitudeDegrees>
              <LongitudeDegrees>-7.966856472194194793701171875</LongitudeDegrees>
            </Position>
            <AltitudeMeters>413.399993896484375</AltitudeMeters>
            <DistanceMeters>345013.95941786</DistanceMeters>
          </Trackpoint>
          <Trackpoint>
            <Time>2018-09-15T08:26:35.000Z</Time>
            <Position>
              <LatitudeDegrees>37.3532237671315670013427734375</LatitudeDegrees>
              <LongitudeDegrees>-7.96711890958249568939208984375</LongitudeDegrees>
            </Position>
            <AltitudeMeters>411.79998779296875</AltitudeMeters>
            <DistanceMeters>345042.59842646</DistanceMeters>
          </Trackpoint>
          <Trackpoint>
            <Time>2018-09-15T08:26:38.000Z</Time>
            <Position>
              <LatitudeDegrees>37.35317490063607692718505859375</LatitudeDegrees>
              <LongitudeDegrees>-7.9672301374375820159912109375</LongitudeDegrees>
            </Position>
            <AltitudeMeters>411.600006103515625</AltitudeMeters>
            <DistanceMeters>345053.84213893</DistanceMeters>
          </Trackpoint>
          <Trackpoint>
            <Time>2018-09-15T08:26:43.000Z</Time>
            <Position>
              <LatitudeDegrees>37.35308420844376087188720703125</LatitudeDegrees>
              <LongitudeDegrees>-7.96741076745092868804931640625</LongitudeDegrees>
            </Position>
            <AltitudeMeters>411.399993896484375</AltitudeMeters>
            <DistanceMeters>345072.74409662</DistanceMeters>
          </Trackpoint>
          <Trackpoint>
            <Time>2018-09-15T08:26:48.000Z</Time>
            <Position>
              <LatitudeDegrees>37.35295345075428485870361328125</LatitudeDegrees>
              <LongitudeDegrees>-7.96755887567996978759765625</LongitudeDegrees>
            </Position>
            <AltitudeMeters>412.600006103515625</AltitudeMeters>
            <DistanceMeters>345092.32790133</DistanceMeters>
          </Trackpoint>
          <Trackpoint>
            <Time>2018-09-15T08:26:55.000Z</Time>
            <Position>
              <LatitudeDegrees>37.35274516046047210693359375</LatitudeDegrees>
              <LongitudeDegrees>-7.967735566198825836181640625</LongitudeDegrees>
            </Position>
            <AltitudeMeters>413.79998779296875</AltitudeMeters>
            <DistanceMeters>345120.28934047</DistanceMeters>
          </Trackpoint>
          <Trackpoint>
            <Time>2018-09-15T08:27:00.000Z</Time>
            <Position>
              <LatitudeDegrees>37.35258414410054683685302734375</LatitudeDegrees>
              <LongitudeDegrees>-7.967858277261257171630859375</LongitudeDegrees>
            </Position>
            <AltitudeMeters>415</AltitudeMeters>
            <DistanceMeters>345141.24289259</DistanceMeters>
          </Trackpoint>
          <Trackpoint>
            <Time>2018-09-15T08:27:05.000Z</Time>
            <Position>
              <LatitudeDegrees>37.35242664813995361328125</LatitudeDegrees>
              <LongitudeDegrees>-7.967984676361083984375</LongitudeDegrees>
            </Position>
            <AltitudeMeters>415.79998779296875</AltitudeMeters>
            <DistanceMeters>345162.0357279</DistanceMeters>
          </Trackpoint>
          <Trackpoint>
            <Time>2018-09-15T08:27:11.000Z</Time>
            <Position>
              <LatitudeDegrees>37.3522461019456386566162109375</LatitudeDegrees>
              <LongitudeDegrees>-7.96812389977276325225830078125</LongitudeDegrees>
            </Position>
            <AltitudeMeters>416.399993896484375</AltitudeMeters>
            <DistanceMeters>345185.60580136</DistanceMeters>
          </Trackpoint>
          <Trackpoint>
            <Time>2018-09-15T08:27:14.000Z</Time>
            <Position>
              <LatitudeDegrees>37.35215297900140285491943359375</LatitudeDegrees>
              <LongitudeDegrees>-7.9681907035410404205322265625</LongitudeDegrees>
            </Position>
            <AltitudeMeters>417</AltitudeMeters>
            <DistanceMeters>345197.53761535</DistanceMeters>
          </Trackpoint>
          <Trackpoint>
            <Time>2018-09-15T08:27:20.000Z</Time>
            <Position>
              <LatitudeDegrees>37.35195985995233058929443359375</LatitudeDegrees>
              <LongitudeDegrees>-7.96830654144287109375</LongitudeDegrees>
            </Position>
            <AltitudeMeters>418.399993896484375</AltitudeMeters>
            <DistanceMeters>345221.35048331</DistanceMeters>
          </Trackpoint>
          <Trackpoint>
            <Time>2018-09-15T08:27:26.000Z</Time>
            <Position>
              <LatitudeDegrees>37.35176037065684795379638671875</LatitudeDegrees>
              <LongitudeDegrees>-7.96839530579745769500732421875</LongitudeDegrees>
            </Position>
            <AltitudeMeters>420.600006103515625</AltitudeMeters>
            <DistanceMeters>345244.9017766</DistanceMeters>
          </Trackpoint>
          <Trackpoint>
            <Time>2018-09-15T08:27:32.000Z</Time>
            <Position>
              <LatitudeDegrees>37.35154897905886173248291015625</LatitudeDegrees>
              <LongitudeDegrees>-7.9683928750455379486083984375</LongitudeDegrees>
            </Position>
            <AltitudeMeters>423.399993896484375</AltitudeMeters>
            <DistanceMeters>345268.43082092</DistanceMeters>
          </Trackpoint>
          <Trackpoint>
            <Time>2018-09-15T08:27:38.000Z</Time>
            <Position>
              <LatitudeDegrees>37.3513757251203060150146484375</LatitudeDegrees>
              <LongitudeDegrees>-7.9682430066168308258056640625</LongitudeDegrees>
            </Position>
            <AltitudeMeters>425.79998779296875</AltitudeMeters>
            <DistanceMeters>345291.83345253</DistanceMeters>
          </Trackpoint>
          <Trackpoint>
            <Time>2018-09-15T08:27:44.000Z</Time>
            <Position>
              <LatitudeDegrees>37.35121521167457103729248046875</LatitudeDegrees>
              <LongitudeDegrees>-7.96807427890598773956298828125</LongitudeDegrees>
            </Position>
            <AltitudeMeters>428.399993896484375</AltitudeMeters>
            <DistanceMeters>345315.11519148</DistanceMeters>
          </Trackpoint>
          <Trackpoint>
            <Time>2018-09-15T08:27:47.000Z</Time>
            <Position>
              <LatitudeDegrees>37.3511346615850925445556640625</LatitudeDegrees>
              <LongitudeDegrees>-7.9679949022829532623291015625</LongitudeDegrees>
            </Position>
            <AltitudeMeters>428.600006103515625</AltitudeMeters>
            <DistanceMeters>345326.50413428</DistanceMeters>
          </Trackpoint>
          <Trackpoint>
            <Time>2018-09-15T08:27:54.000Z</Time>
            <Position>
              <LatitudeDegrees>37.350934334099292755126953125</LatitudeDegrees>
              <LongitudeDegrees>-7.9678386636078357696533203125</LongitudeDegrees>
            </Position>
            <AltitudeMeters>426.79998779296875</AltitudeMeters>
            <DistanceMeters>345352.73856464</DistanceMeters>
          </Trackpoint>
          <Trackpoint>
            <Time>2018-09-15T08:27:59.000Z</Time>
            <Position>
              <LatitudeDegrees>37.3507504351437091827392578125</LatitudeDegrees>
              <LongitudeDegrees>-7.9677779786288738250732421875</LongitudeDegrees>
            </Position>
            <AltitudeMeters>426</AltitudeMeters>
            <DistanceMeters>345373.89945854</DistanceMeters>
          </Trackpoint>
          <Trackpoint>
            <Time>2018-09-15T08:28:02.000Z</Time>
            <Position>
              <LatitudeDegrees>37.35062981955707073211669921875</LatitudeDegrees>
              <LongitudeDegrees>-7.9678044654428958892822265625</LongitudeDegrees>
            </Position>
            <AltitudeMeters>426.600006103515625</AltitudeMeters>
            <DistanceMeters>345387.52709782</DistanceMeters>
          </Trackpoint>
          <Trackpoint>
            <Time>2018-09-15T08:28:08.000Z</Time>
            <Position>
              <LatitudeDegrees>37.35044918954372406005859375</LatitudeDegrees>
              <LongitudeDegrees>-7.96798274852335453033447265625</LongitudeDegrees>
            </Position>
            <AltitudeMeters>427.20001220703125</AltitudeMeters>
            <DistanceMeters>345413.08115773</DistanceMeters>
          </Trackpoint>
          <Trackpoint>
            <Time>2018-09-15T08:28:10.000Z</Time>
            <Position>
              <LatitudeDegrees>37.35040937550365924835205078125</LatitudeDegrees>
              <LongitudeDegrees>-7.968068160116672515869140625</LongitudeDegrees>
            </Position>
            <AltitudeMeters>427.399993896484375</AltitudeMeters>
            <DistanceMeters>345421.84167254</DistanceMeters>
          </Trackpoint>
          <Trackpoint>
            <Time>2018-09-15T08:28:14.000Z</Time>
            <Position>
              <LatitudeDegrees>37.35033452510833740234375</LatitudeDegrees>
              <LongitudeDegrees>-7.968228422105312347412109375</LongitudeDegrees>
            </Position>
            <AltitudeMeters>427.399993896484375</AltitudeMeters>
            <DistanceMeters>345438.28788425</DistanceMeters>
          </Trackpoint>
          <Trackpoint>
            <Time>2018-09-15T08:28:18.000Z</Time>
            <Position>
              <LatitudeDegrees>37.35026570968329906463623046875</LatitudeDegrees>
              <LongitudeDegrees>-7.9683918692171573638916015625</LongitudeDegrees>
            </Position>
            <AltitudeMeters>427.600006103515625</AltitudeMeters>
            <DistanceMeters>345454.65263225</DistanceMeters>
          </Trackpoint>
          <Trackpoint>
            <Time>2018-09-15T08:28:21.000Z</Time>
            <Position>
              <LatitudeDegrees>37.35021256841719150543212890625</LatitudeDegrees>
              <LongitudeDegrees>-7.96851164661347866058349609375</LongitudeDegrees>
            </Position>
            <AltitudeMeters>429</AltitudeMeters>
            <DistanceMeters>345466.78966801</DistanceMeters>
          </Trackpoint>
          <Trackpoint>
            <Time>2018-09-15T08:28:27.000Z</Time>
            <Position>
              <LatitudeDegrees>37.350111901760101318359375</LatitudeDegrees>
              <LongitudeDegrees>-7.968730665743350982666015625</LongitudeDegrees>
            </Position>
            <AltitudeMeters>431.79998779296875</AltitudeMeters>
            <DistanceMeters>345489.17405725</DistanceMeters>
          </Trackpoint>
          <Trackpoint>
            <Time>2018-09-15T08:28:33.000Z</Time>
            <Position>
              <LatitudeDegrees>37.35001844353973865509033203125</LatitudeDegrees>
              <LongitudeDegrees>-7.968935854732990264892578125</LongitudeDegrees>
            </Position>
            <AltitudeMeters>434.399993896484375</AltitudeMeters>
            <DistanceMeters>345510.09785223</DistanceMeters>
          </Trackpoint>
          <Trackpoint>
            <Time>2018-09-15T08:28:40.000Z</Time>
            <Position>
              <LatitudeDegrees>37.3499082215130329132080078125</LatitudeDegrees>
              <LongitudeDegrees>-7.96916828490793704986572265625</LongitudeDegrees>
            </Position>
            <AltitudeMeters>438</AltitudeMeters>
            <DistanceMeters>345534.04420716</DistanceMeters>
          </Trackpoint>
          <Trackpoint>
            <Time>2018-09-15T08:28:44.000Z</Time>
            <Position>
              <LatitudeDegrees>37.34982985071837902069091796875</LatitudeDegrees>
              <LongitudeDegrees>-7.969290912151336669921875</LongitudeDegrees>
            </Position>
            <AltitudeMeters>440</AltitudeMeters>
            <DistanceMeters>345547.96553973</DistanceMeters>
          </Trackpoint>
          <Trackpoint>
            <Time>2018-09-15T08:28:49.000Z</Time>
            <Position>
              <LatitudeDegrees>37.34970747493207454681396484375</LatitudeDegrees>
              <LongitudeDegrees>-7.96941085718572139739990234375</LongitudeDegrees>
            </Position>
            <AltitudeMeters>442.600006103515625</AltitudeMeters>
            <DistanceMeters>345565.23270696</DistanceMeters>
          </Trackpoint>
          <Trackpoint>
            <Time>2018-09-15T08:28:54.000Z</Time>
            <Position>
              <LatitudeDegrees>37.34956162981688976287841796875</LatitudeDegrees>
              <LongitudeDegrees>-7.96947321854531764984130859375</LongitudeDegrees>
            </Position>
            <AltitudeMeters>445</AltitudeMeters>
            <DistanceMeters>345582.37759099</DistanceMeters>
          </Trackpoint>
          <Trackpoint>
            <Time>2018-09-15T08:29:00.000Z</Time>
            <Position>
              <LatitudeDegrees>37.3493758030235767364501953125</LatitudeDegrees>
              <LongitudeDegrees>-7.96941739507019519805908203125</LongitudeDegrees>
            </Position>
            <AltitudeMeters>446.399993896484375</AltitudeMeters>
            <DistanceMeters>345603.64192845</DistanceMeters>
          </Trackpoint>
          <Trackpoint>
            <Time>2018-09-15T08:29:09.000Z</Time>
            <Position>
              <LatitudeDegrees>37.3492413572967052459716796875</LatitudeDegrees>
              <LongitudeDegrees>-7.9690669476985931396484375</LongitudeDegrees>
            </Position>
            <AltitudeMeters>443.600006103515625</AltitudeMeters>
            <DistanceMeters>345638.07151159</DistanceMeters>
          </Trackpoint>
          <Trackpoint>
            <Time>2018-09-15T08:29:15.000Z</Time>
            <Position>
              <LatitudeDegrees>37.3491458036005496978759765625</LatitudeDegrees>
              <LongitudeDegrees>-7.9688277281820774078369140625</LongitudeDegrees>
            </Position>
            <AltitudeMeters>440</AltitudeMeters>
            <DistanceMeters>345661.75948154</DistanceMeters>
          </Trackpoint>
          <Trackpoint>
            <Time>2018-09-15T08:29:22.000Z</Time>
            <Position>
              <LatitudeDegrees>37.34891924075782299041748046875</LatitudeDegrees>
              <LongitudeDegrees>-7.9687424004077911376953125</LongitudeDegrees>
            </Position>
            <AltitudeMeters>437.79998779296875</AltitudeMeters>
            <DistanceMeters>345688.08222447</DistanceMeters>
          </Trackpoint>
          <Trackpoint>
            <Time>2018-09-15T08:29:28.000Z</Time>
            <Position>
              <LatitudeDegrees>37.34872695989906787872314453125</LatitudeDegrees>
              <LongitudeDegrees>-7.96882211230695247650146484375</LongitudeDegrees>
            </Position>
            <AltitudeMeters>438.399993896484375</AltitudeMeters>
            <DistanceMeters>345710.61578163</DistanceMeters>
          </Trackpoint>
          <Trackpoint>
            <Time>2018-09-15T08:29:33.000Z</Time>
            <Position>
              <LatitudeDegrees>37.34859586693346500396728515625</LatitudeDegrees>
              <LongitudeDegrees>-7.96892814338207244873046875</LongitudeDegrees>
            </Position>
            <AltitudeMeters>440</AltitudeMeters>
            <DistanceMeters>345727.96277755</DistanceMeters>
          </Trackpoint>
          <Trackpoint>
            <Time>2018-09-15T08:29:38.000Z</Time>
            <Position>
              <LatitudeDegrees>37.3485553823411464691162109375</LatitudeDegrees>
              <LongitudeDegrees>-7.96912721358239650726318359375</LongitudeDegrees>
            </Position>
            <AltitudeMeters>443</AltitudeMeters>
            <DistanceMeters>345746.14394854</DistanceMeters>
          </Trackpoint>
          <Trackpoint>
            <Time>2018-09-15T08:29:45.000Z</Time>
            <Position>
              <LatitudeDegrees>37.34862201847136020660400390625</LatitudeDegrees>
              <LongitudeDegrees>-7.96945653855800628662109375</LongitudeDegrees>
            </Position>
            <AltitudeMeters>447.399993896484375</AltitudeMeters>
            <DistanceMeters>345776.21175846</DistanceMeters>
          </Trackpoint>
          <Trackpoint>
            <Time>2018-09-15T08:29:48.000Z</Time>
            <Position>
              <LatitudeDegrees>37.34866023994982242584228515625</LatitudeDegrees>
              <LongitudeDegrees>-7.9696263559162616729736328125</LongitudeDegrees>
            </Position>
            <AltitudeMeters>449.399993896484375</AltitudeMeters>
            <DistanceMeters>345791.82826493</DistanceMeters>
          </Trackpoint>
          <Trackpoint>
            <Time>2018-09-15T08:29:55.000Z</Time>
            <Position>
              <LatitudeDegrees>37.34842940233647823333740234375</LatitudeDegrees>
              <LongitudeDegrees>-7.9699150286614894866943359375</LongitudeDegrees>
            </Position>
            <AltitudeMeters>451.600006103515625</AltitudeMeters>
            <DistanceMeters>345828.05675581</DistanceMeters>
          </Trackpoint>
          <Trackpoint>
            <Time>2018-09-15T08:29:56.000Z</Time>
            <Position>
              <LatitudeDegrees>37.34837676398456096649169921875</LatitudeDegrees>
              <LongitudeDegrees>-7.96991796232759952545166015625</LongitudeDegrees>
            </Position>
            <AltitudeMeters>451.600006103515625</AltitudeMeters>
            <DistanceMeters>345833.9207588</DistanceMeters>
          </Trackpoint>
          <Trackpoint>
            <Time>2018-09-15T08:30:01.000Z</Time>
            <Position>
              <LatitudeDegrees>37.34812480397522449493408203125</LatitudeDegrees>
              <LongitudeDegrees>-7.9699834249913692474365234375</LongitudeDegrees>
            </Position>
            <AltitudeMeters>452.399993896484375</AltitudeMeters>
            <DistanceMeters>345862.55614114</DistanceMeters>
          </Trackpoint>
          <Trackpoint>
            <Time>2018-09-15T08:30:07.000Z</Time>
            <Position>
              <LatitudeDegrees>37.34787770546972751617431640625</LatitudeDegrees>
              <LongitudeDegrees>-7.97019607387483119964599609375</LongitudeDegrees>
            </Position>
            <AltitudeMeters>453.399993896484375</AltitudeMeters>
            <DistanceMeters>345895.87896275</DistanceMeters>
          </Trackpoint>
          <Trackpoint>
            <Time>2018-09-15T08:30:11.000Z</Time>
            <Position>
              <LatitudeDegrees>37.34769414179027080535888671875</LatitudeDegrees>
              <LongitudeDegrees>-7.97023580409586429595947265625</LongitudeDegrees>
            </Position>
            <AltitudeMeters>453.600006103515625</AltitudeMeters>
            <DistanceMeters>345916.61003745</DistanceMeters>
          </Trackpoint>
          <Trackpoint>
            <Time>2018-09-15T08:30:13.000Z</Time>
            <Position>
              <LatitudeDegrees>37.34761250205338001251220703125</LatitudeDegrees>
              <LongitudeDegrees>-7.97019892372190952301025390625</LongitudeDegrees>
            </Position>
            <AltitudeMeters>454</AltitudeMeters>
            <DistanceMeters>345926.26448974</DistanceMeters>
          </Trackpoint>
          <Trackpoint>
            <Time>2018-09-15T08:30:17.000Z</Time>
            <Position>
              <LatitudeDegrees>37.34746933914721012115478515625</LatitudeDegrees>
              <LongitudeDegrees>-7.9700969159603118896484375</LongitudeDegrees>
            </Position>
            <AltitudeMeters>454.79998779296875</AltitudeMeters>
            <DistanceMeters>345944.57729889</DistanceMeters>
          </Trackpoint>
          <Trackpoint>
            <Time>2018-09-15T08:30:22.000Z</Time>
            <Position>
              <LatitudeDegrees>37.34730840660631656646728515625</LatitudeDegrees>
              <LongitudeDegrees>-7.96994025819003582000732421875</LongitudeDegrees>
            </Position>
            <AltitudeMeters>454.79998779296875</AltitudeMeters>
            <DistanceMeters>345967.22637354</DistanceMeters>
          </Trackpoint>
          <Trackpoint>
            <Time>2018-09-15T08:30:26.000Z</Time>
            <Position>
              <LatitudeDegrees>37.34719567000865936279296875</LatitudeDegrees>
              <LongitudeDegrees>-7.9697956703603267669677734375</LongitudeDegrees>
            </Position>
            <AltitudeMeters>454.399993896484375</AltitudeMeters>
            <DistanceMeters>345985.14640643</DistanceMeters>
          </Trackpoint>
          <Trackpoint>
            <Time>2018-09-15T08:30:27.000Z</Time>
            <Position>
              <LatitudeDegrees>37.34717429615557193756103515625</LatitudeDegrees>
              <LongitudeDegrees>-7.9697530902922153472900390625</LongitudeDegrees>
            </Position>
            <AltitudeMeters>454.20001220703125</AltitudeMeters>
            <DistanceMeters>345989.60254131</DistanceMeters>
          </Trackpoint>
          <Trackpoint>
            <Time>2018-09-15T08:30:30.000Z</Time>
            <Position>
              <LatitudeDegrees>37.34713138081133365631103515625</LatitudeDegrees>
              <LongitudeDegrees>-7.9695998691022396087646484375</LongitudeDegrees>
            </Position>
            <AltitudeMeters>453.600006103515625</AltitudeMeters>
            <DistanceMeters>346003.97641167</DistanceMeters>
          </Trackpoint>
          <Trackpoint>
            <Time>2018-09-15T08:30:35.000Z</Time>
            <Position>
              <LatitudeDegrees>37.34711897559463977813720703125</LatitudeDegrees>
              <LongitudeDegrees>-7.96934648416936397552490234375</LongitudeDegrees>
            </Position>
            <AltitudeMeters>456.20001220703125</AltitudeMeters>
            <DistanceMeters>346026.43892603</DistanceMeters>
          </Trackpoint>
          <Trackpoint>
            <Time>2018-09-15T08:30:40.000Z</Time>
            <Position>
              <LatitudeDegrees>37.3471069894731044769287109375</LatitudeDegrees>
              <LongitudeDegrees>-7.969104163348674774169921875</LongitudeDegrees>
            </Position>
            <AltitudeMeters>457</AltitudeMeters>
            <DistanceMeters>346047.9214798</DistanceMeters>
          </Trackpoint>
          <Trackpoint>
            <Time>2018-09-15T08:30:45.000Z</Time>
            <Position>
              <LatitudeDegrees>37.34702006913721561431884765625</LatitudeDegrees>
              <LongitudeDegrees>-7.96889754943549633026123046875</LongitudeDegrees>
            </Position>
            <AltitudeMeters>457.600006103515625</AltitudeMeters>
            <DistanceMeters>346068.60502161</DistanceMeters>
          </Trackpoint>
          <Trackpoint>
            <Time>2018-09-15T08:30:53.000Z</Time>
            <Position>
              <LatitudeDegrees>37.34674497507512569427490234375</LatitudeDegrees>
              <LongitudeDegrees>-7.968747429549694061279296875</LongitudeDegrees>
            </Position>
            <AltitudeMeters>461.20001220703125</AltitudeMeters>
            <DistanceMeters>346101.980644</DistanceMeters>
          </Trackpoint>
          <Trackpoint>
            <Time>2018-09-15T08:30:58.000Z</Time>
            <Position>
              <LatitudeDegrees>37.34659074805676937103271484375</LatitudeDegrees>
              <LongitudeDegrees>-7.96863033436238765716552734375</LongitudeDegrees>
            </Position>
            <AltitudeMeters>461.600006103515625</AltitudeMeters>
            <DistanceMeters>346122.03105555</DistanceMeters>
          </Trackpoint>
          <Trackpoint>
            <Time>2018-09-15T08:31:04.000Z</Time>
            <Position>
              <LatitudeDegrees>37.34648195095360279083251953125</LatitudeDegrees>
              <LongitudeDegrees>-7.96837426722049713134765625</LongitudeDegrees>
            </Position>
            <AltitudeMeters>463</AltitudeMeters>
            <DistanceMeters>346147.7213305</DistanceMeters>
          </Trackpoint>
          <Trackpoint>
            <Time>2018-09-15T08:31:11.000Z</Time>
            <Position>
              <LatitudeDegrees>37.3464091122150421142578125</LatitudeDegrees>
              <LongitudeDegrees>-7.9680743627250194549560546875</LongitudeDegrees>
            </Position>
            <AltitudeMeters>464.20001220703125</AltitudeMeters>
            <DistanceMeters>346175.46864294</DistanceMeters>
          </Trackpoint>
          <Trackpoint>
            <Time>2018-09-15T08:31:16.000Z</Time>
            <Position>
              <LatitudeDegrees>37.34636150300502777099609375</LatitudeDegrees>
              <LongitudeDegrees>-7.9678587801754474639892578125</LongitudeDegrees>
            </Position>
            <AltitudeMeters>465</AltitudeMeters>
            <DistanceMeters>346195.26660996</DistanceMeters>
          </Trackpoint>
          <Trackpoint>
            <Time>2018-09-15T08:31:21.000Z</Time>
            <Position>
              <LatitudeDegrees>37.34629712998867034912109375</LatitudeDegrees>
              <LongitudeDegrees>-7.9676495678722858428955078125</LongitudeDegrees>
            </Position>
            <AltitudeMeters>466</AltitudeMeters>
            <DistanceMeters>346215.11673303</DistanceMeters>
          </Trackpoint>
          <Trackpoint>
            <Time>2018-09-15T08:31:30.000Z</Time>
            <Position>
              <LatitudeDegrees>37.345994375646114349365234375</LatitudeDegrees>
              <LongitudeDegrees>-7.9675395973026752471923828125</LongitudeDegrees>
            </Position>
            <AltitudeMeters>469.79998779296875</AltitudeMeters>
            <DistanceMeters>346250.19073157</DistanceMeters>
          </Trackpoint>
          <Trackpoint>
            <Time>2018-09-15T08:31:35.000Z</Time>
            <Position>
              <LatitudeDegrees>37.34577368013560771942138671875</LatitudeDegrees>
              <LongitudeDegrees>-7.96756013296544551849365234375</LongitudeDegrees>
            </Position>
            <AltitudeMeters>471.79998779296875</AltitudeMeters>
            <DistanceMeters>346274.82153862</DistanceMeters>
          </Trackpoint>
          <Trackpoint>
            <Time>2018-09-15T08:31:40.000Z</Time>
            <Position>
              <LatitudeDegrees>37.34555281698703765869140625</LatitudeDegrees>
              <LongitudeDegrees>-7.96756767667829990386962890625</LongitudeDegrees>
            </Position>
            <AltitudeMeters>471.399993896484375</AltitudeMeters>
            <DistanceMeters>346299.41271914</DistanceMeters>
          </Trackpoint>
          <Trackpoint>
            <Time>2018-09-15T08:31:44.000Z</Time>
            <Position>
              <LatitudeDegrees>37.34539247117936611175537109375</LatitudeDegrees>
              <LongitudeDegrees>-7.9674919880926609039306640625</LongitudeDegrees>
            </Position>
            <AltitudeMeters>470.399993896484375</AltitudeMeters>
            <DistanceMeters>346318.47475592</DistanceMeters>
          </Trackpoint>
          <Trackpoint>
            <Time>2018-09-15T08:31:48.000Z</Time>
            <Position>
              <LatitudeDegrees>37.34525064937770366668701171875</LatitudeDegrees>
              <LongitudeDegrees>-7.9673578776419162750244140625</LongitudeDegrees>
            </Position>
            <AltitudeMeters>469</AltitudeMeters>
            <DistanceMeters>346338.22294422</DistanceMeters>
          </Trackpoint>
          <Trackpoint>
            <Time>2018-09-15T08:31:56.000Z</Time>
            <Position>
              <LatitudeDegrees>37.34496281482279300689697265625</LatitudeDegrees>
              <LongitudeDegrees>-7.9670450650155544281005859375</LongitudeDegrees>
            </Position>
            <AltitudeMeters>469.79998779296875</AltitudeMeters>
            <DistanceMeters>346380.5604116</DistanceMeters>
          </Trackpoint>
          <Trackpoint>
            <Time>2018-09-15T08:32:03.000Z</Time>
            <Position>
              <LatitudeDegrees>37.34469794668257236480712890625</LatitudeDegrees>
              <LongitudeDegrees>-7.9667468369007110595703125</LongitudeDegrees>
            </Position>
            <AltitudeMeters>471.20001220703125</AltitudeMeters>
            <DistanceMeters>346420.12623085</DistanceMeters>
          </Trackpoint>
          <Trackpoint>
            <Time>2018-09-15T08:32:12.000Z</Time>
            <Position>
              <LatitudeDegrees>37.34437775798141956329345703125</LatitudeDegrees>
              <LongitudeDegrees>-7.9663740098476409912109375</LongitudeDegrees>
            </Position>
            <AltitudeMeters>473.20001220703125</AltitudeMeters>
            <DistanceMeters>346468.6892518</DistanceMeters>
          </Trackpoint>
          <Trackpoint>
            <Time>2018-09-15T08:32:13.000Z</Time>
            <Position>
              <LatitudeDegrees>37.3443438112735748291015625</LatitudeDegrees>
              <LongitudeDegrees>-7.966329753398895263671875</LongitudeDegrees>
            </Position>
            <AltitudeMeters>473.79998779296875</AltitudeMeters>
            <DistanceMeters>346474.13155378</DistanceMeters>
          </Trackpoint>
          <Trackpoint>
            <Time>2018-09-15T08:32:17.000Z</Time>
            <Position>
              <LatitudeDegrees>37.34424121677875518798828125</LatitudeDegrees>
              <LongitudeDegrees>-7.9661294259130954742431640625</LongitudeDegrees>
            </Position>
            <AltitudeMeters>475.79998779296875</AltitudeMeters>
            <DistanceMeters>346495.2172087</DistanceMeters>
          </Trackpoint>
          <Trackpoint>
            <Time>2018-09-15T08:32:26.000Z</Time>
            <Position>
              <LatitudeDegrees>37.34412697143852710723876953125</LatitudeDegrees>
              <LongitudeDegrees>-7.96560756862163543701171875</LongitudeDegrees>
            </Position>
            <AltitudeMeters>477.79998779296875</AltitudeMeters>
            <DistanceMeters>346543.11293523</DistanceMeters>
          </Trackpoint>
          <Trackpoint>
            <Time>2018-09-15T08:32:29.000Z</Time>
            <Position>
              <LatitudeDegrees>37.34407550655305385589599609375</LatitudeDegrees>
              <LongitudeDegrees>-7.96542375348508358001708984375</LongitudeDegrees>
            </Position>
            <AltitudeMeters>476.79998779296875</AltitudeMeters>
            <DistanceMeters>346560.35760042</DistanceMeters>
          </Trackpoint>
          <Trackpoint>
            <Time>2018-09-15T08:32:30.000Z</Time>
            <Position>
              <LatitudeDegrees>37.3440475948154926300048828125</LatitudeDegrees>
              <LongitudeDegrees>-7.9653666727244853973388671875</LongitudeDegrees>
            </Position>
            <AltitudeMeters>476.399993896484375</AltitudeMeters>
            <DistanceMeters>346566.28745014</DistanceMeters>
          </Trackpoint>
          <Trackpoint>
            <Time>2018-09-15T08:32:34.000Z</Time>
            <Position>
              <LatitudeDegrees>37.34389177523553371429443359375</LatitudeDegrees>
              <LongitudeDegrees>-7.96518704853951930999755859375</LongitudeDegrees>
            </Position>
            <AltitudeMeters>475.600006103515625</AltitudeMeters>
            <DistanceMeters>346589.81208053</DistanceMeters>
          </Trackpoint>
          <Trackpoint>
            <Time>2018-09-15T08:32:42.000Z</Time>
            <Position>
              <LatitudeDegrees>37.3435124941170215606689453125</LatitudeDegrees>
              <LongitudeDegrees>-7.96487675048410892486572265625</LongitudeDegrees>
            </Position>
            <AltitudeMeters>474</AltitudeMeters>
            <DistanceMeters>346640.17068067</DistanceMeters>
          </Trackpoint>
          <Trackpoint>
            <Time>2018-09-15T08:32:47.000Z</Time>
            <Position>
              <LatitudeDegrees>37.343261539936065673828125</LatitudeDegrees>
              <LongitudeDegrees>-7.9646788537502288818359375</LongitudeDegrees>
            </Position>
            <AltitudeMeters>476.600006103515625</AltitudeMeters>
            <DistanceMeters>346673.13769268</DistanceMeters>
          </Trackpoint>
          <Trackpoint>
            <Time>2018-09-15T08:32:50.000Z</Time>
            <Position>
              <LatitudeDegrees>37.3431024514138698577880859375</LatitudeDegrees>
              <LongitudeDegrees>-7.9645509459078311920166015625</LongitudeDegrees>
            </Position>
            <AltitudeMeters>476</AltitudeMeters>
            <DistanceMeters>346694.15299612</DistanceMeters>
          </Trackpoint>
          <Trackpoint>
            <Time>2018-09-15T08:32:55.000Z</Time>
            <Position>
              <LatitudeDegrees>37.34280782751739025115966796875</LatitudeDegrees>
              <LongitudeDegrees>-7.96432706527411937713623046875</LongitudeDegrees>
            </Position>
            <AltitudeMeters>476.79998779296875</AltitudeMeters>
            <DistanceMeters>346732.46467509</DistanceMeters>
          </Trackpoint>
          <Trackpoint>
            <Time>2018-09-15T08:33:04.000Z</Time>
            <Position>
              <LatitudeDegrees>37.3422347567975521087646484375</LatitudeDegrees>
              <LongitudeDegrees>-7.96413092873990535736083984375</LongitudeDegrees>
            </Position>
            <AltitudeMeters>476</AltitudeMeters>
            <DistanceMeters>346798.56769197</DistanceMeters>
          </Trackpoint>
          <Trackpoint>
            <Time>2018-09-15T08:33:13.000Z</Time>
            <Position>
              <LatitudeDegrees>37.34167275018990039825439453125</LatitudeDegrees>
              <LongitudeDegrees>-7.96401928178966045379638671875</LongitudeDegrees>
            </Position>
            <AltitudeMeters>476</AltitudeMeters>
            <DistanceMeters>346861.89542231</DistanceMeters>
          </Trackpoint>
          <Trackpoint>
            <Time>2018-09-15T08:33:14.000Z</Time>
            <Position>
              <LatitudeDegrees>37.34161172993481159210205078125</LatitudeDegrees>
              <LongitudeDegrees>-7.96400704421103000640869140625</LongitudeDegrees>
            </Position>
            <AltitudeMeters>476</AltitudeMeters>
            <DistanceMeters>346868.77288844</DistanceMeters>
          </Trackpoint>
          <Trackpoint>
            <Time>2018-09-15T08:33:22.000Z</Time>
            <Position>
              <LatitudeDegrees>37.34111434780061244964599609375</LatitudeDegrees>
              <LongitudeDegrees>-7.96391551382839679718017578125</LongitudeDegrees>
            </Position>
            <AltitudeMeters>474.20001220703125</AltitudeMeters>
            <DistanceMeters>346924.72191935</DistanceMeters>
          </Trackpoint>
          <Trackpoint>
            <Time>2018-09-15T08:33:24.000Z</Time>
            <Position>
              <LatitudeDegrees>37.3409950733184814453125</LatitudeDegrees>
              <LongitudeDegrees>-7.96388290822505950927734375</LongitudeDegrees>
            </Position>
            <AltitudeMeters>475.79998779296875</AltitudeMeters>
            <DistanceMeters>346938.30741649</DistanceMeters>
          </Trackpoint>
          <Trackpoint>
            <Time>2018-09-15T08:33:31.000Z</Time>
            <Position>
              <LatitudeDegrees>37.3406646586954593658447265625</LatitudeDegrees>
              <LongitudeDegrees>-7.96351519413292407989501953125</LongitudeDegrees>
            </Position>
            <AltitudeMeters>482.399993896484375</AltitudeMeters>
            <DistanceMeters>346987.41177579</DistanceMeters>
          </Trackpoint>
          <Trackpoint>
            <Time>2018-09-15T08:33:32.000Z</Time>
            <Position>
              <LatitudeDegrees>37.34062400646507740020751953125</LatitudeDegrees>
              <LongitudeDegrees>-7.9634438641369342803955078125</LongitudeDegrees>
            </Position>
            <AltitudeMeters>483.600006103515625</AltitudeMeters>
            <DistanceMeters>346995.17842955</DistanceMeters>
          </Trackpoint>
          <Trackpoint>
            <Time>2018-09-15T08:33:39.000Z</Time>
            <Position>
              <LatitudeDegrees>37.3402066715061664581298828125</LatitudeDegrees>
              <LongitudeDegrees>-7.96308084391057491302490234375</LongitudeDegrees>
            </Position>
            <AltitudeMeters>480</AltitudeMeters>
            <DistanceMeters>347051.65452556</DistanceMeters>
          </Trackpoint>
          <Trackpoint>
            <Time>2018-09-15T08:33:47.000Z</Time>
            <Position>
              <LatitudeDegrees>37.33963762409985065460205078125</LatitudeDegrees>
              <LongitudeDegrees>-7.962800972163677215576171875</LongitudeDegrees>
            </Position>
            <AltitudeMeters>482</AltitudeMeters>
            <DistanceMeters>347119.66046524</DistanceMeters>
          </Trackpoint>
          <Trackpoint>
            <Time>2018-09-15T08:33:53.000Z</Time>
            <Position>
              <LatitudeDegrees>37.33918525278568267822265625</LatitudeDegrees>
              <LongitudeDegrees>-7.9626831226050853729248046875</LongitudeDegrees>
            </Position>
            <AltitudeMeters>480</AltitudeMeters>
            <DistanceMeters>347171.0789629</DistanceMeters>
          </Trackpoint>
          <Trackpoint>
            <Time>2018-09-15T08:33:56.000Z</Time>
            <Position>
              <LatitudeDegrees>37.33898366801440715789794921875</LatitudeDegrees>
              <LongitudeDegrees>-7.96262939460575580596923828125</LongitudeDegrees>
            </Position>
            <AltitudeMeters>477.79998779296875</AltitudeMeters>
            <DistanceMeters>347194.01408908</DistanceMeters>
          </Trackpoint>
          <Trackpoint>
            <Time>2018-09-15T08:34:02.000Z</Time>
            <Position>
              <LatitudeDegrees>37.33883447013795375823974609375</LatitudeDegrees>
              <LongitudeDegrees>-7.9621949605643749237060546875</LongitudeDegrees>
            </Position>
            <AltitudeMeters>480.399993896484375</AltitudeMeters>
            <DistanceMeters>347235.89123113</DistanceMeters>
          </Trackpoint>
          <Trackpoint>
            <Time>2018-09-15T08:34:04.000Z</Time>
            <Position>
              <LatitudeDegrees>37.33881887979805469512939453125</LatitudeDegrees>
              <LongitudeDegrees>-7.96202572993934154510498046875</LongitudeDegrees>
            </Position>
            <AltitudeMeters>482.79998779296875</AltitudeMeters>
            <DistanceMeters>347250.96727252</DistanceMeters>
          </Trackpoint>
          <Trackpoint>
            <Time>2018-09-15T08:34:12.000Z</Time>
            <Position>
              <LatitudeDegrees>37.338369525969028472900390625</LatitudeDegrees>
              <LongitudeDegrees>-7.96174141578376293182373046875</LongitudeDegrees>
            </Position>
            <AltitudeMeters>484.600006103515625</AltitudeMeters>
            <DistanceMeters>347306.95309014</DistanceMeters>
          </Trackpoint>
          <Trackpoint>
            <Time>2018-09-15T08:34:13.000Z</Time>
            <Position>
              <LatitudeDegrees>37.338292412459850311279296875</LatitudeDegrees>
              <LongitudeDegrees>-7.96177871525287628173828125</LongitudeDegrees>
            </Position>
            <AltitudeMeters>483</AltitudeMeters>
            <DistanceMeters>347316.14861273</DistanceMeters>
          </Trackpoint>
          <Trackpoint>
            <Time>2018-09-15T08:34:16.000Z</Time>
            <Position>
              <LatitudeDegrees>37.33806014992296695709228515625</LatitudeDegrees>
              <LongitudeDegrees>-7.9618838243186473846435546875</LongitudeDegrees>
            </Position>
            <AltitudeMeters>477.79998779296875</AltitudeMeters>
            <DistanceMeters>347343.62234619</DistanceMeters>
          </Trackpoint>
          <Trackpoint>
            <Time>2018-09-15T08:34:17.000Z</Time>
            <Position>
              <LatitudeDegrees>37.337981946766376495361328125</LatitudeDegrees>
              <LongitudeDegrees>-7.96190234832465648651123046875</LongitudeDegrees>
            </Position>
            <AltitudeMeters>476.399993896484375</AltitudeMeters>
            <DistanceMeters>347352.47973317</DistanceMeters>
          </Trackpoint>
          <Trackpoint>
            <Time>2018-09-15T08:34:21.000Z</Time>
            <Position>
              <LatitudeDegrees>37.33765907585620880126953125</LatitudeDegrees>
              <LongitudeDegrees>-7.9617798887193202972412109375</LongitudeDegrees>
            </Position>
            <AltitudeMeters>476</AltitudeMeters>
            <DistanceMeters>347390.01432304</DistanceMeters>
          </Trackpoint>
          <Trackpoint>
            <Time>2018-09-15T08:34:22.000Z</Time>
            <Position>
              <LatitudeDegrees>37.33758104033768177032470703125</LatitudeDegrees>
              <LongitudeDegrees>-7.96171559952199459075927734375</LongitudeDegrees>
            </Position>
            <AltitudeMeters>476.600006103515625</AltitudeMeters>
            <DistanceMeters>347400.39705161</DistanceMeters>
          </Trackpoint>
          <Trackpoint>
            <Time>2018-09-15T08:34:24.000Z</Time>
            <Position>
              <LatitudeDegrees>37.33741591684520244598388671875</LatitudeDegrees>
              <LongitudeDegrees>-7.961593307554721832275390625</LongitudeDegrees>
            </Position>
            <AltitudeMeters>476.399993896484375</AltitudeMeters>
            <DistanceMeters>347421.72499269</DistanceMeters>
          </Trackpoint>
          <Trackpoint>
            <Time>2018-09-15T08:34:26.000Z</Time>
            <Position>
              <LatitudeDegrees>37.33723754994571208953857421875</LatitudeDegrees>
              <LongitudeDegrees>-7.9614821635186672210693359375</LongitudeDegrees>
            </Position>
            <AltitudeMeters>474.600006103515625</AltitudeMeters>
            <DistanceMeters>347443.88028315</DistanceMeters>
          </Trackpoint>
          <Trackpoint>
            <Time>2018-09-15T08:34:29.000Z</Time>
            <Position>
              <LatitudeDegrees>37.33697737567126750946044921875</LatitudeDegrees>
              <LongitudeDegrees>-7.96130371280014514923095703125</LongitudeDegrees>
            </Position>
            <AltitudeMeters>472</AltitudeMeters>
            <DistanceMeters>347476.86441024</DistanceMeters>
          </Trackpoint>
          <Trackpoint>
            <Time>2018-09-15T08:34:31.000Z</Time>
            <Position>
              <LatitudeDegrees>37.33683739788830280303955078125</LatitudeDegrees>
              <LongitudeDegrees>-7.96113657765090465545654296875</LongitudeDegrees>
            </Position>
            <AltitudeMeters>470.79998779296875</AltitudeMeters>
            <DistanceMeters>347498.34675384</DistanceMeters>
          </Trackpoint>
          <Trackpoint>
            <Time>2018-09-15T08:34:33.000Z</Time>
            <Position>
              <LatitudeDegrees>37.33677520416676998138427734375</LatitudeDegrees>
              <LongitudeDegrees>-7.9609165526926517486572265625</LongitudeDegrees>
            </Position>
            <AltitudeMeters>472.20001220703125</AltitudeMeters>
            <DistanceMeters>347519.01173256</DistanceMeters>
          </Trackpoint>
          <Trackpoint>
            <Time>2018-09-15T08:34:35.000Z</Time>
            <Position>
              <LatitudeDegrees>37.336797080934047698974609375</LatitudeDegrees>
              <LongitudeDegrees>-7.96068571507930755615234375</LongitudeDegrees>
            </Position>
            <AltitudeMeters>473.399993896484375</AltitudeMeters>
            <DistanceMeters>347539.58408349</DistanceMeters>
          </Trackpoint>
          <Trackpoint>
            <Time>2018-09-15T08:34:36.000Z</Time>
            <Position>
              <LatitudeDegrees>37.33680286444723606109619140625</LatitudeDegrees>
              <LongitudeDegrees>-7.9605765827000141143798828125</LongitudeDegrees>
            </Position>
            <AltitudeMeters>474.79998779296875</AltitudeMeters>
            <DistanceMeters>347549.26375668</DistanceMeters>
          </Trackpoint>
          <Trackpoint>
            <Time>2018-09-15T08:34:38.000Z</Time>
            <Position>
              <LatitudeDegrees>37.33674553222954273223876953125</LatitudeDegrees>
              <LongitudeDegrees>-7.96038086526095867156982421875</LongitudeDegrees>
            </Position>
            <AltitudeMeters>476.399993896484375</AltitudeMeters>
            <DistanceMeters>347567.72194685</DistanceMeters>
          </Trackpoint>
          <Trackpoint>
            <Time>2018-09-15T08:34:40.000Z</Time>
            <Position>
              <LatitudeDegrees>37.33660094439983367919921875</LatitudeDegrees>
              <LongitudeDegrees>-7.9603013209998607635498046875</LongitudeDegrees>
            </Position>
            <AltitudeMeters>476.399993896484375</AltitudeMeters>
            <DistanceMeters>347585.28724366</DistanceMeters>
          </Trackpoint>
          <Trackpoint>
            <Time>2018-09-15T08:34:44.000Z</Time>
            <Position>
              <LatitudeDegrees>37.3363483138382434844970703125</LatitudeDegrees>
              <LongitudeDegrees>-7.9604625888168811798095703125</LongitudeDegrees>
            </Position>
            <AltitudeMeters>475</AltitudeMeters>
            <DistanceMeters>347616.81993696</DistanceMeters>
          </Trackpoint>
          <Trackpoint>
            <Time>2018-09-15T08:34:45.000Z</Time>
            <Position>
              <LatitudeDegrees>37.33629383146762847900390625</LatitudeDegrees>
              <LongitudeDegrees>-7.960519082844257354736328125</LongitudeDegrees>
            </Position>
            <AltitudeMeters>474.600006103515625</AltitudeMeters>
            <DistanceMeters>347624.67905415</DistanceMeters>
          </Trackpoint>
          <Trackpoint>
            <Time>2018-09-15T08:34:47.000Z</Time>
            <Position>
              <LatitudeDegrees>37.33618545345962047576904296875</LatitudeDegrees>
              <LongitudeDegrees>-7.96063098125159740447998046875</LongitudeDegrees>
            </Position>
            <AltitudeMeters>473.399993896484375</AltitudeMeters>
            <DistanceMeters>347640.28572746</DistanceMeters>
          </Trackpoint>
          <Trackpoint>
            <Time>2018-09-15T08:34:51.000Z</Time>
            <Position>
              <LatitudeDegrees>37.3359707929193973541259765625</LatitudeDegrees>
              <LongitudeDegrees>-7.96081974171102046966552734375</LongitudeDegrees>
            </Position>
            <AltitudeMeters>471.600006103515625</AltitudeMeters>
            <DistanceMeters>347669.43833754</DistanceMeters>
          </Trackpoint>
          <Trackpoint>
            <Time>2018-09-15T08:34:52.000Z</Time>
            <Position>
              <LatitudeDegrees>37.33591555617749691009521484375</LatitudeDegrees>
              <LongitudeDegrees>-7.96085461042821407318115234375</LongitudeDegrees>
            </Position>
            <AltitudeMeters>471.399993896484375</AltitudeMeters>
            <DistanceMeters>347676.31711654</DistanceMeters>
          </Trackpoint>
          <Trackpoint>
            <Time>2018-09-15T08:34:56.000Z</Time>
            <Position>
              <LatitudeDegrees>37.33569460920989513397216796875</LatitudeDegrees>
              <LongitudeDegrees>-7.96086165122687816619873046875</LongitudeDegrees>
            </Position>
            <AltitudeMeters>472.399993896484375</AltitudeMeters>
            <DistanceMeters>347700.9167414</DistanceMeters>
          </Trackpoint>
          <Trackpoint>
            <Time>2018-09-15T08:34:58.000Z</Time>
            <Position>
              <LatitudeDegrees>37.33559704385697841644287109375</LatitudeDegrees>
              <LongitudeDegrees>-7.96080465428531169891357421875</LongitudeDegrees>
            </Position>
            <AltitudeMeters>474</AltitudeMeters>
            <DistanceMeters>347712.89010741</DistanceMeters>
          </Trackpoint>
          <Trackpoint>
            <Time>2018-09-15T08:35:01.000Z</Time>
            <Position>
              <LatitudeDegrees>37.3354427330195903778076171875</LatitudeDegrees>
              <LongitudeDegrees>-7.9607210867106914520263671875</LongitudeDegrees>
            </Position>
            <AltitudeMeters>476.399993896484375</AltitudeMeters>
            <DistanceMeters>347731.58961676</DistanceMeters>
          </Trackpoint>
          <Trackpoint>
            <Time>2018-09-15T08:35:05.000Z</Time>
            <Position>
              <LatitudeDegrees>37.33521751128137111663818359375</LatitudeDegrees>
              <LongitudeDegrees>-7.96069418080151081085205078125</LongitudeDegrees>
            </Position>
            <AltitudeMeters>477.79998779296875</AltitudeMeters>
            <DistanceMeters>347756.77008236</DistanceMeters>
          </Trackpoint>
          <Trackpoint>
            <Time>2018-09-15T08:35:07.000Z</Time>
            <Position>
              <LatitudeDegrees>37.33511676080524921417236328125</LatitudeDegrees>
              <LongitudeDegrees>-7.9607308097183704376220703125</LongitudeDegrees>
            </Position>
            <AltitudeMeters>477</AltitudeMeters>
            <DistanceMeters>347768.44329329</DistanceMeters>
          </Trackpoint>
          <Trackpoint>
            <Time>2018-09-15T08:35:10.000Z</Time>
            <Position>
              <LatitudeDegrees>37.33497460372745990753173828125</LatitudeDegrees>
              <LongitudeDegrees>-7.96079141087830066680908203125</LongitudeDegrees>
            </Position>
            <AltitudeMeters>475.600006103515625</AltitudeMeters>
            <DistanceMeters>347785.1496275</DistanceMeters>
          </Trackpoint>
          <Trackpoint>
            <Time>2018-09-15T08:35:14.000Z</Time>
            <Position>
              <LatitudeDegrees>37.3347765393555164337158203125</LatitudeDegrees>
              <LongitudeDegrees>-7.96074204146862030029296875</LongitudeDegrees>
            </Position>
            <AltitudeMeters>474</AltitudeMeters>
            <DistanceMeters>347807.62319432</DistanceMeters>
          </Trackpoint>
          <Trackpoint>
            <Time>2018-09-15T08:35:15.000Z</Time>
            <Position>
              <LatitudeDegrees>37.33472331427037715911865234375</LatitudeDegrees>
              <LongitudeDegrees>-7.96071463264524936676025390625</LongitudeDegrees>
            </Position>
            <AltitudeMeters>473.79998779296875</AltitudeMeters>
            <DistanceMeters>347814.02463845</DistanceMeters>
          </Trackpoint>
          <Trackpoint>
            <Time>2018-09-15T08:35:16.000Z</Time>
            <Position>
              <LatitudeDegrees>37.33466438949108123779296875</LatitudeDegrees>
              <LongitudeDegrees>-7.9606929235160350799560546875</LongitudeDegrees>
            </Position>
            <AltitudeMeters>473.600006103515625</AltitudeMeters>
            <DistanceMeters>347820.8586384</DistanceMeters>
          </Trackpoint>
          <Trackpoint>
            <Time>2018-09-15T08:35:23.000Z</Time>
            <Position>
              <LatitudeDegrees>37.33417748473584651947021484375</LatitudeDegrees>
              <LongitudeDegrees>-7.9608089290559291839599609375</LongitudeDegrees>
            </Position>
            <AltitudeMeters>466.600006103515625</AltitudeMeters>
            <DistanceMeters>347876.01597776</DistanceMeters>
          </Trackpoint>
          <Trackpoint>
            <Time>2018-09-15T08:35:28.000Z</Time>
            <Position>
              <LatitudeDegrees>37.33392636291682720184326171875</LatitudeDegrees>
              <LongitudeDegrees>-7.96041808091104030609130859375</LongitudeDegrees>
            </Position>
            <AltitudeMeters>464.79998779296875</AltitudeMeters>
            <DistanceMeters>347920.48665261</DistanceMeters>
          </Trackpoint>
          <Trackpoint>
            <Time>2018-09-15T08:35:31.000Z</Time>
            <Position>
              <LatitudeDegrees>37.33378772623836994171142578125</LatitudeDegrees>
              <LongitudeDegrees>-7.96010878868401050567626953125</LongitudeDegrees>
            </Position>
            <AltitudeMeters>466.399993896484375</AltitudeMeters>
            <DistanceMeters>347951.90818087</DistanceMeters>
          </Trackpoint>
          <Trackpoint>
            <Time>2018-09-15T08:35:33.000Z</Time>
            <Position>
              <LatitudeDegrees>37.3336895741522312164306640625</LatitudeDegrees>
              <LongitudeDegrees>-7.95989102683961391448974609375</LongitudeDegrees>
            </Position>
            <AltitudeMeters>464.600006103515625</AltitudeMeters>
            <DistanceMeters>347974.06061808</DistanceMeters>
          </Trackpoint>
          <Trackpoint>
            <Time>2018-09-15T08:35:35.000Z</Time>
            <Position>
              <LatitudeDegrees>37.3335705511271953582763671875</LatitudeDegrees>
              <LongitudeDegrees>-7.95967779122292995452880859375</LongitudeDegrees>
            </Position>
            <AltitudeMeters>462.79998779296875</AltitudeMeters>
            <DistanceMeters>347997.11708355</DistanceMeters>
          </Trackpoint>
          <Trackpoint>
            <Time>2018-09-15T08:35:36.000Z</Time>
            <Position>
              <LatitudeDegrees>37.33349788002669811248779296875</LatitudeDegrees>
              <LongitudeDegrees>-7.9595798067748546600341796875</LongitudeDegrees>
            </Position>
            <AltitudeMeters>462.79998779296875</AltitudeMeters>
            <DistanceMeters>348008.97526007</DistanceMeters>
          </Trackpoint>
          <Trackpoint>
            <Time>2018-09-15T08:35:37.000Z</Time>
            <Position>
              <LatitudeDegrees>37.33341456390917301177978515625</LatitudeDegrees>
              <LongitudeDegrees>-7.95949389226734638214111328125</LongitudeDegrees>
            </Position>
            <AltitudeMeters>462.399993896484375</AltitudeMeters>
            <DistanceMeters>348020.96708926</DistanceMeters>
          </Trackpoint>
          <Trackpoint>
            <Time>2018-09-15T08:35:38.000Z</Time>
            <Position>
              <LatitudeDegrees>37.333325631916522979736328125</LatitudeDegrees>
              <LongitudeDegrees>-7.959423065185546875</LongitudeDegrees>
            </Position>
            <AltitudeMeters>461.79998779296875</AltitudeMeters>
            <DistanceMeters>348032.68354018</DistanceMeters>
          </Trackpoint>
          <Trackpoint>
            <Time>2018-09-15T08:35:39.000Z</Time>
            <Position>
              <LatitudeDegrees>37.3332376219332218170166015625</LatitudeDegrees>
              <LongitudeDegrees>-7.9593632183969020843505859375</LongitudeDegrees>
            </Position>
            <AltitudeMeters>461.79998779296875</AltitudeMeters>
            <DistanceMeters>348043.81992514</DistanceMeters>
          </Trackpoint>
          <Trackpoint>
            <Time>2018-09-15T08:35:40.000Z</Time>
            <Position>
              <LatitudeDegrees>37.33315086923539638519287109375</LatitudeDegrees>
              <LongitudeDegrees>-7.95930881984531879425048828125</LongitudeDegrees>
            </Position>
            <AltitudeMeters>461.600006103515625</AltitudeMeters>
            <DistanceMeters>348054.60953799</DistanceMeters>
          </Trackpoint>
          <Trackpoint>
            <Time>2018-09-15T08:35:41.000Z</Time>
            <Position>
              <LatitudeDegrees>37.33306520618498325347900390625</LatitudeDegrees>
              <LongitudeDegrees>-7.9592586122453212738037109375</LongitudeDegrees>
            </Position>
            <AltitudeMeters>461.20001220703125</AltitudeMeters>
            <DistanceMeters>348065.12792649</DistanceMeters>
          </Trackpoint>
          <Trackpoint>
            <Time>2018-09-15T08:35:43.000Z</Time>
            <Position>
              <LatitudeDegrees>37.33289186842739582061767578125</LatitudeDegrees>
              <LongitudeDegrees>-7.95916984789073467254638671875</LongitudeDegrees>
            </Position>
            <AltitudeMeters>460.600006103515625</AltitudeMeters>
            <DistanceMeters>348085.95894407</DistanceMeters>
          </Trackpoint>
          <Trackpoint>
            <Time>2018-09-15T08:35:44.000Z</Time>
            <Position>
              <LatitudeDegrees>37.33279916457831859588623046875</LatitudeDegrees>
              <LongitudeDegrees>-7.9591348953545093536376953125</LongitudeDegrees>
            </Position>
            <AltitudeMeters>460.20001220703125</AltitudeMeters>
            <DistanceMeters>348096.7309672</DistanceMeters>
          </Trackpoint>
          <Trackpoint>
            <Time>2018-09-15T08:35:45.000Z</Time>
            <Position>
              <LatitudeDegrees>37.332702018320560455322265625</LatitudeDegrees>
              <LongitudeDegrees>-7.95911419205367565155029296875</LongitudeDegrees>
            </Position>
            <AltitudeMeters>459.600006103515625</AltitudeMeters>
            <DistanceMeters>348107.69780759</DistanceMeters>
          </Trackpoint>
          <Trackpoint>
            <Time>2018-09-15T08:35:48.000Z</Time>
            <Position>
              <LatitudeDegrees>37.332401610910892486572265625</LatitudeDegrees>
              <LongitudeDegrees>-7.959192059934139251708984375</LongitudeDegrees>
            </Position>
            <AltitudeMeters>456.79998779296875</AltitudeMeters>
            <DistanceMeters>348141.83634484</DistanceMeters>
          </Trackpoint>
          <Trackpoint>
            <Time>2018-09-15T08:35:50.000Z</Time>
            <Position>
              <LatitudeDegrees>37.33222148381173610687255859375</LatitudeDegrees>
              <LongitudeDegrees>-7.9593390785157680511474609375</LongitudeDegrees>
            </Position>
            <AltitudeMeters>456.399993896484375</AltitudeMeters>
            <DistanceMeters>348165.73683868</DistanceMeters>
          </Trackpoint>
          <Trackpoint>
            <Time>2018-09-15T08:35:52.000Z</Time>
            <Position>
              <LatitudeDegrees>37.3321110941469669342041015625</LatitudeDegrees>
              <LongitudeDegrees>-7.9595479555428028106689453125</LongitudeDegrees>
            </Position>
            <AltitudeMeters>457.79998779296875</AltitudeMeters>
            <DistanceMeters>348187.93325666</DistanceMeters>
          </Trackpoint>
          <Trackpoint>
            <Time>2018-09-15T08:35:55.000Z</Time>
            <Position>
              <LatitudeDegrees>37.33203289099037647247314453125</LatitudeDegrees>
              <LongitudeDegrees>-7.959854565560817718505859375</LongitudeDegrees>
            </Position>
            <AltitudeMeters>457.79998779296875</AltitudeMeters>
            <DistanceMeters>348216.43018236</DistanceMeters>
          </Trackpoint>
          <Trackpoint>
            <Time>2018-09-15T08:35:57.000Z</Time>
            <Position>
              <LatitudeDegrees>37.3320002853870391845703125</LatitudeDegrees>
              <LongitudeDegrees>-7.96002714894711971282958984375</LongitudeDegrees>
            </Position>
            <AltitudeMeters>457.20001220703125</AltitudeMeters>
            <DistanceMeters>348232.12887168</DistanceMeters>
          </Trackpoint>
          <Trackpoint>
            <Time>2018-09-15T08:36:00.000Z</Time>
            <Position>
              <LatitudeDegrees>37.331971786916255950927734375</LatitudeDegrees>
              <LongitudeDegrees>-7.96025496907532215118408203125</LongitudeDegrees>
            </Position>
            <AltitudeMeters>459</AltitudeMeters>
            <DistanceMeters>348252.53905263</DistanceMeters>
          </Trackpoint>
          <Trackpoint>
            <Time>2018-09-15T08:36:05.000Z</Time>
            <Position>
              <LatitudeDegrees>37.3319303803145885467529296875</LatitudeDegrees>
              <LongitudeDegrees>-7.96056979335844516754150390625</LongitudeDegrees>
            </Position>
            <AltitudeMeters>462.20001220703125</AltitudeMeters>
            <DistanceMeters>348280.77973873</DistanceMeters>
          </Trackpoint>
          <Trackpoint>
            <Time>2018-09-15T08:36:07.000Z</Time>
            <Position>
              <LatitudeDegrees>37.3319189809262752532958984375</LatitudeDegrees>
              <LongitudeDegrees>-7.960680015385150909423828125</LongitudeDegrees>
            </Position>
            <AltitudeMeters>462.399993896484375</AltitudeMeters>
            <DistanceMeters>348290.61672502</DistanceMeters>
          </Trackpoint>
          <Trackpoint>
            <Time>2018-09-15T08:36:08.000Z</Time>
            <Position>
              <LatitudeDegrees>37.331914119422435760498046875</LatitudeDegrees>
              <LongitudeDegrees>-7.9607321508228778839111328125</LongitudeDegrees>
            </Position>
            <AltitudeMeters>462.20001220703125</AltitudeMeters>
            <DistanceMeters>348295.26235551</DistanceMeters>
          </Trackpoint>
          <Trackpoint>
            <Time>2018-09-15T08:36:10.000Z</Time>
            <Position>
              <LatitudeDegrees>37.33190213330090045928955078125</LatitudeDegrees>
              <LongitudeDegrees>-7.96083130873739719390869140625</LongitudeDegrees>
            </Position>
            <AltitudeMeters>461.399993896484375</AltitudeMeters>
            <DistanceMeters>348304.1390918</DistanceMeters>
          </Trackpoint>
          <Trackpoint>
            <Time>2018-09-15T08:36:12.000Z</Time>
            <Position>
              <LatitudeDegrees>37.33188419602811336517333984375</LatitudeDegrees>
              <LongitudeDegrees>-7.960926108062267303466796875</LongitudeDegrees>
            </Position>
            <AltitudeMeters>461.20001220703125</AltitudeMeters>
            <DistanceMeters>348312.76299518</DistanceMeters>
          </Trackpoint>
          <Trackpoint>
            <Time>2018-09-15T08:36:13.000Z</Time>
            <Position>
              <LatitudeDegrees>37.331871204078197479248046875</LatitudeDegrees>
              <LongitudeDegrees>-7.96097162179648876190185546875</LongitudeDegrees>
            </Position>
            <AltitudeMeters>461.399993896484375</AltitudeMeters>
            <DistanceMeters>348317.04341866</DistanceMeters>
          </Trackpoint>
          <Trackpoint>
            <Time>2018-09-15T08:36:16.000Z</Time>
            <Position>
              <LatitudeDegrees>37.33180691488087177276611328125</LatitudeDegrees>
              <LongitudeDegrees>-7.9610945843160152435302734375</LongitudeDegrees>
            </Position>
            <AltitudeMeters>463</AltitudeMeters>
            <DistanceMeters>348330.06727968</DistanceMeters>
          </Trackpoint>
          <Trackpoint>
            <Time>2018-09-15T08:36:19.000Z</Time>
            <Position>
              <LatitudeDegrees>37.3317426256835460662841796875</LatitudeDegrees>
              <LongitudeDegrees>-7.96121067367494106292724609375</LongitudeDegrees>
            </Position>
            <AltitudeMeters>464.399993896484375</AltitudeMeters>
            <DistanceMeters>348342.587748</DistanceMeters>
          </Trackpoint>
          <Trackpoint>
            <Time>2018-09-15T08:36:22.000Z</Time>
            <Position>
              <LatitudeDegrees>37.33167213387787342071533203125</LatitudeDegrees>
              <LongitudeDegrees>-7.9613276012241840362548828125</LongitudeDegrees>
            </Position>
            <AltitudeMeters>466</AltitudeMeters>
            <DistanceMeters>348355.57411422</DistanceMeters>
          </Trackpoint>
          <Trackpoint>
            <Time>2018-09-15T08:36:25.000Z</Time>
            <Position>
              <LatitudeDegrees>37.33160608448088169097900390625</LatitudeDegrees>
              <LongitudeDegrees>-7.96143899671733379364013671875</LongitudeDegrees>
            </Position>
            <AltitudeMeters>467.399993896484375</AltitudeMeters>
            <DistanceMeters>348367.87190753</DistanceMeters>
          </Trackpoint>
          <Trackpoint>
            <Time>2018-09-15T08:36:28.000Z</Time>
            <Position>
              <LatitudeDegrees>37.33154456131160259246826171875</LatitudeDegrees>
              <LongitudeDegrees>-7.9615418426692485809326171875</LongitudeDegrees>
            </Position>
            <AltitudeMeters>468.600006103515625</AltitudeMeters>
            <DistanceMeters>348379.26203959</DistanceMeters>
          </Trackpoint>
          <Trackpoint>
            <Time>2018-09-15T08:36:32.000Z</Time>
            <Position>
              <LatitudeDegrees>37.33146526850759983062744140625</LatitudeDegrees>
              <LongitudeDegrees>-7.961681149899959564208984375</LongitudeDegrees>
            </Position>
            <AltitudeMeters>470.20001220703125</AltitudeMeters>
            <DistanceMeters>348394.42349157</DistanceMeters>
          </Trackpoint>
          <Trackpoint>
            <Time>2018-09-15T08:36:36.000Z</Time>
            <Position>
              <LatitudeDegrees>37.3313979618251323699951171875</LatitudeDegrees>
              <LongitudeDegrees>-7.96183504164218902587890625</LongitudeDegrees>
            </Position>
            <AltitudeMeters>471.20001220703125</AltitudeMeters>
            <DistanceMeters>348409.96725962</DistanceMeters>
          </Trackpoint>
          <Trackpoint>
            <Time>2018-09-15T08:36:42.000Z</Time>
            <Position>
              <LatitudeDegrees>37.3313704691827297210693359375</LatitudeDegrees>
              <LongitudeDegrees>-7.9620873369276523590087890625</LongitudeDegrees>
            </Position>
            <AltitudeMeters>471.20001220703125</AltitudeMeters>
            <DistanceMeters>348432.50442315</DistanceMeters>
          </Trackpoint>
          <Trackpoint>
            <Time>2018-09-15T08:36:48.000Z</Time>
            <Position>
              <LatitudeDegrees>37.33140475116670131683349609375</LatitudeDegrees>
              <LongitudeDegrees>-7.962314151227474212646484375</LongitudeDegrees>
            </Position>
            <AltitudeMeters>469.20001220703125</AltitudeMeters>
            <DistanceMeters>348452.93715557</DistanceMeters>
          </Trackpoint>
          <Trackpoint>
            <Time>2018-09-15T08:36:52.000Z</Time>
            <Position>
              <LatitudeDegrees>37.33143442310392856597900390625</LatitudeDegrees>
              <LongitudeDegrees>-7.96244247816503047943115234375</LongitudeDegrees>
            </Position>
            <AltitudeMeters>467.79998779296875</AltitudeMeters>
            <DistanceMeters>348464.76483261</DistanceMeters>
          </Trackpoint>
          <Trackpoint>
            <Time>2018-09-15T08:36:56.000Z</Time>
            <Position>
              <LatitudeDegrees>37.33146007172763347625732421875</LatitudeDegrees>
              <LongitudeDegrees>-7.96258145011961460113525390625</LongitudeDegrees>
            </Position>
            <AltitudeMeters>466.600006103515625</AltitudeMeters>
            <DistanceMeters>348477.39087592</DistanceMeters>
          </Trackpoint>
          <Trackpoint>
            <Time>2018-09-15T08:37:01.000Z</Time>
            <Position>
              <LatitudeDegrees>37.3314316570758819580078125</LatitudeDegrees>
              <LongitudeDegrees>-7.96279921196401119232177734375</LongitudeDegrees>
            </Position>
            <AltitudeMeters>467.399993896484375</AltitudeMeters>
            <DistanceMeters>348496.92088869</DistanceMeters>
          </Trackpoint>
          <Trackpoint>
            <Time>2018-09-15T08:37:09.000Z</Time>
            <Position>
              <LatitudeDegrees>37.33132244087755680084228515625</LatitudeDegrees>
              <LongitudeDegrees>-7.963097356259822845458984375</LongitudeDegrees>
            </Position>
            <AltitudeMeters>469.399993896484375</AltitudeMeters>
            <DistanceMeters>348525.97234416</DistanceMeters>
          </Trackpoint>
          <Trackpoint>
            <Time>2018-09-15T08:37:14.000Z</Time>
            <Position>
              <LatitudeDegrees>37.3312105424702167510986328125</LatitudeDegrees>
              <LongitudeDegrees>-7.96323473565280437469482421875</LongitudeDegrees>
            </Position>
            <AltitudeMeters>472.20001220703125</AltitudeMeters>
            <DistanceMeters>348543.37754466</DistanceMeters>
          </Trackpoint>
          <Trackpoint>
            <Time>2018-09-15T08:37:20.000Z</Time>
            <Position>
              <LatitudeDegrees>37.33106913976371288299560546875</LatitudeDegrees>
              <LongitudeDegrees>-7.96338862739503383636474609375</LongitudeDegrees>
            </Position>
            <AltitudeMeters>475.79998779296875</AltitudeMeters>
            <DistanceMeters>348564.19078149</DistanceMeters>
          </Trackpoint>
          <Trackpoint>
            <Time>2018-09-15T08:37:26.000Z</Time>
            <Position>
              <LatitudeDegrees>37.33090334571897983551025390625</LatitudeDegrees>
              <LongitudeDegrees>-7.96350915916264057159423828125</LongitudeDegrees>
            </Position>
            <AltitudeMeters>480.399993896484375</AltitudeMeters>
            <DistanceMeters>348585.50516973</DistanceMeters>
          </Trackpoint>
          <Trackpoint>
            <Time>2018-09-15T08:37:31.000Z</Time>
            <Position>
              <LatitudeDegrees>37.3307626135647296905517578125</LatitudeDegrees>
              <LongitudeDegrees>-7.96358811669051647186279296875</LongitudeDegrees>
            </Position>
            <AltitudeMeters>483.79998779296875</AltitudeMeters>
            <DistanceMeters>348602.65689939</DistanceMeters>
          </Trackpoint>
          <Trackpoint>
            <Time>2018-09-15T08:37:35.000Z</Time>
            <Position>
              <LatitudeDegrees>37.3306466080248355865478515625</LatitudeDegrees>
              <LongitudeDegrees>-7.96365500427782535552978515625</LongitudeDegrees>
            </Position>
            <AltitudeMeters>485.600006103515625</AltitudeMeters>
            <DistanceMeters>348616.8614067</DistanceMeters>
          </Trackpoint>
          <Trackpoint>
            <Time>2018-09-15T08:37:41.000Z</Time>
            <Position>
              <LatitudeDegrees>37.3305304348468780517578125</LatitudeDegrees>
              <LongitudeDegrees>-7.96382968313992023468017578125</LongitudeDegrees>
            </Position>
            <AltitudeMeters>486.79998779296875</AltitudeMeters>
            <DistanceMeters>348637.01558489</DistanceMeters>
          </Trackpoint>
          <Trackpoint>
            <Time>2018-09-15T08:37:48.000Z</Time>
            <Position>
              <LatitudeDegrees>37.3304789699614048004150390625</LatitudeDegrees>
              <LongitudeDegrees>-7.964076697826385498046875</LongitudeDegrees>
            </Position>
            <AltitudeMeters>486.20001220703125</AltitudeMeters>
            <DistanceMeters>348659.61496749</DistanceMeters>
          </Trackpoint>
          <Trackpoint>
            <Time>2018-09-15T08:37:54.000Z</Time>
            <Position>
              <LatitudeDegrees>37.33043965883553028106689453125</LatitudeDegrees>
              <LongitudeDegrees>-7.9642998240888118743896484375</LongitudeDegrees>
            </Position>
            <AltitudeMeters>486</AltitudeMeters>
            <DistanceMeters>348679.84115307</DistanceMeters>
          </Trackpoint>
          <Trackpoint>
            <Time>2018-09-15T08:38:00.000Z</Time>
            <Position>
              <LatitudeDegrees>37.33042960055172443389892578125</LatitudeDegrees>
              <LongitudeDegrees>-7.96450526453554630279541015625</LongitudeDegrees>
            </Position>
            <AltitudeMeters>486.600006103515625</AltitudeMeters>
            <DistanceMeters>348698.05755362</DistanceMeters>
          </Trackpoint>
          <Trackpoint>
            <Time>2018-09-15T08:38:05.000Z</Time>
            <Position>
              <LatitudeDegrees>37.3304350487887859344482421875</LatitudeDegrees>
              <LongitudeDegrees>-7.964665777981281280517578125</LongitudeDegrees>
            </Position>
            <AltitudeMeters>486.600006103515625</AltitudeMeters>
            <DistanceMeters>348712.27635742</DistanceMeters>
          </Trackpoint>
          <Trackpoint>
            <Time>2018-09-15T08:38:11.000Z</Time>
            <Position>
              <LatitudeDegrees>37.33043647371232509613037109375</LatitudeDegrees>
              <LongitudeDegrees>-7.96486400999128818511962890625</LongitudeDegrees>
            </Position>
            <AltitudeMeters>486.79998779296875</AltitudeMeters>
            <DistanceMeters>348729.82107873</DistanceMeters>
          </Trackpoint>
          <Trackpoint>
            <Time>2018-09-15T08:38:17.000Z</Time>
            <Position>
              <LatitudeDegrees>37.330400012433528900146484375</LatitudeDegrees>
              <LongitudeDegrees>-7.96506886370480060577392578125</LongitudeDegrees>
            </Position>
            <AltitudeMeters>487.79998779296875</AltitudeMeters>
            <DistanceMeters>348748.39971275</DistanceMeters>
          </Trackpoint>
          <Trackpoint>
            <Time>2018-09-15T08:38:22.000Z</Time>
            <Position>
              <LatitudeDegrees>37.33027604408562183380126953125</LatitudeDegrees>
              <LongitudeDegrees>-7.96517682261765003204345703125</LongitudeDegrees>
            </Position>
            <AltitudeMeters>490.20001220703125</AltitudeMeters>
            <DistanceMeters>348765.18262503</DistanceMeters>
          </Trackpoint>
          <Trackpoint>
            <Time>2018-09-15T08:38:29.000Z</Time>
            <Position>
              <LatitudeDegrees>37.33006984926760196685791015625</LatitudeDegrees>
              <LongitudeDegrees>-7.96516341157257556915283203125</LongitudeDegrees>
            </Position>
            <AltitudeMeters>494.20001220703125</AltitudeMeters>
            <DistanceMeters>348788.16337764</DistanceMeters>
          </Trackpoint>
          <Trackpoint>
            <Time>2018-09-15T08:38:34.000Z</Time>
            <Position>
              <LatitudeDegrees>37.32993624173104763031005859375</LatitudeDegrees>
              <LongitudeDegrees>-7.9650820232927799224853515625</LongitudeDegrees>
            </Position>
            <AltitudeMeters>496.20001220703125</AltitudeMeters>
            <DistanceMeters>348804.68655322</DistanceMeters>
          </Trackpoint>
          <Trackpoint>
            <Time>2018-09-15T08:38:39.000Z</Time>
            <Position>
              <LatitudeDegrees>37.32980866916477680206298828125</LatitudeDegrees>
              <LongitudeDegrees>-7.96499543823301792144775390625</LongitudeDegrees>
            </Position>
            <AltitudeMeters>496.20001220703125</AltitudeMeters>
            <DistanceMeters>348820.82151848</DistanceMeters>
          </Trackpoint>
          <Trackpoint>
            <Time>2018-09-15T08:38:45.000Z</Time>
            <Position>
              <LatitudeDegrees>37.3296578787267208099365234375</LatitudeDegrees>
              <LongitudeDegrees>-7.96488865278661251068115234375</LongitudeDegrees>
            </Position>
            <AltitudeMeters>496.600006103515625</AltitudeMeters>
            <DistanceMeters>348840.08266228</DistanceMeters>
          </Trackpoint>
          <Trackpoint>
            <Time>2018-09-15T08:38:50.000Z</Time>
            <Position>
              <LatitudeDegrees>37.32951932586729526519775390625</LatitudeDegrees>
              <LongitudeDegrees>-7.9648263752460479736328125</LongitudeDegrees>
            </Position>
            <AltitudeMeters>496.79998779296875</AltitudeMeters>
            <DistanceMeters>348856.4592697</DistanceMeters>
          </Trackpoint>
          <Trackpoint>
            <Time>2018-09-15T08:38:57.000Z</Time>
            <Position>
              <LatitudeDegrees>37.3293272964656352996826171875</LatitudeDegrees>
              <LongitudeDegrees>-7.96488412655889987945556640625</LongitudeDegrees>
            </Position>
            <AltitudeMeters>497.20001220703125</AltitudeMeters>
            <DistanceMeters>348878.43510912</DistanceMeters>
          </Trackpoint>
          <Trackpoint>
            <Time>2018-09-15T08:39:04.000Z</Time>
            <Position>
              <LatitudeDegrees>37.3291633464395999908447265625</LatitudeDegrees>
              <LongitudeDegrees>-7.96503835357725620269775390625</LongitudeDegrees>
            </Position>
            <AltitudeMeters>497.79998779296875</AltitudeMeters>
            <DistanceMeters>348901.2231017</DistanceMeters>
          </Trackpoint>
          <Trackpoint>
            <Time>2018-09-15T08:39:10.000Z</Time>
            <Position>
              <LatitudeDegrees>37.32910693623125553131103515625</LatitudeDegrees>
              <LongitudeDegrees>-7.96523985452950000762939453125</LongitudeDegrees>
            </Position>
            <AltitudeMeters>499.399993896484375</AltitudeMeters>
            <DistanceMeters>348920.12983612</DistanceMeters>
          </Trackpoint>
          <Trackpoint>
            <Time>2018-09-15T08:39:17.000Z</Time>
            <Position>
              <LatitudeDegrees>37.32919511385262012481689453125</LatitudeDegrees>
              <LongitudeDegrees>-7.9654940776526927947998046875</LongitudeDegrees>
            </Position>
            <AltitudeMeters>501.399993896484375</AltitudeMeters>
            <DistanceMeters>348944.67691213</DistanceMeters>
          </Trackpoint>
          <Trackpoint>
            <Time>2018-09-15T08:39:23.000Z</Time>
            <Position>
              <LatitudeDegrees>37.32933081686496734619140625</LatitudeDegrees>
              <LongitudeDegrees>-7.96574695967137813568115234375</LongitudeDegrees>
            </Position>
            <AltitudeMeters>503</AltitudeMeters>
            <DistanceMeters>348971.67737808</DistanceMeters>
          </Trackpoint>
          <Trackpoint>
            <Time>2018-09-15T08:39:34.000Z</Time>
            <Position>
              <LatitudeDegrees>37.32959979213774204254150390625</LatitudeDegrees>
              <LongitudeDegrees>-7.9662400670349597930908203125</LongitudeDegrees>
            </Position>
            <AltitudeMeters>503.399993896484375</AltitudeMeters>
            <DistanceMeters>349024.60034805</DistanceMeters>
          </Trackpoint>
          <Trackpoint>
            <Time>2018-09-15T08:39:37.000Z</Time>
            <Position>
              <LatitudeDegrees>37.32965259812772274017333984375</LatitudeDegrees>
              <LongitudeDegrees>-7.96636185608804225921630859375</LongitudeDegrees>
            </Position>
            <AltitudeMeters>503.600006103515625</AltitudeMeters>
            <DistanceMeters>349036.87756419</DistanceMeters>
          </Trackpoint>
          <Trackpoint>
            <Time>2018-09-15T08:39:42.000Z</Time>
            <Position>
              <LatitudeDegrees>37.32970154844224452972412109375</LatitudeDegrees>
              <LongitudeDegrees>-7.966565452516078948974609375</LongitudeDegrees>
            </Position>
            <AltitudeMeters>504.600006103515625</AltitudeMeters>
            <DistanceMeters>349055.70197015</DistanceMeters>
          </Trackpoint>
          <Trackpoint>
            <Time>2018-09-15T08:39:46.000Z</Time>
            <Position>
              <LatitudeDegrees>37.32969291508197784423828125</LatitudeDegrees>
              <LongitudeDegrees>-7.966735102236270904541015625</LongitudeDegrees>
            </Position>
            <AltitudeMeters>506</AltitudeMeters>
            <DistanceMeters>349070.74743313</DistanceMeters>
          </Trackpoint>
          <Trackpoint>
            <Time>2018-09-15T08:39:49.000Z</Time>
            <Position>
              <LatitudeDegrees>37.329648323357105255126953125</LatitudeDegrees>
              <LongitudeDegrees>-7.96684800647199153900146484375</LongitudeDegrees>
            </Position>
            <AltitudeMeters>507.20001220703125</AltitudeMeters>
            <DistanceMeters>349081.90488059</DistanceMeters>
          </Trackpoint>
          <Trackpoint>
            <Time>2018-09-15T08:39:54.000Z</Time>
            <Position>
              <LatitudeDegrees>37.32950306497514247894287109375</LatitudeDegrees>
              <LongitudeDegrees>-7.96694993041455745697021484375</LongitudeDegrees>
            </Position>
            <AltitudeMeters>509.20001220703125</AltitudeMeters>
            <DistanceMeters>349100.41851372</DistanceMeters>
          </Trackpoint>
          <Trackpoint>
            <Time>2018-09-15T08:39:59.000Z</Time>
            <Position>
              <LatitudeDegrees>37.329345904290676116943359375</LatitudeDegrees>
              <LongitudeDegrees>-7.966944314539432525634765625</LongitudeDegrees>
            </Position>
            <AltitudeMeters>511</AltitudeMeters>
            <DistanceMeters>349117.91788377</DistanceMeters>
          </Trackpoint>
          <Trackpoint>
            <Time>2018-09-15T08:40:04.000Z</Time>
            <Position>
              <LatitudeDegrees>37.32919377274811267852783203125</LatitudeDegrees>
              <LongitudeDegrees>-7.966890670359134674072265625</LongitudeDegrees>
            </Position>
            <AltitudeMeters>512.20001220703125</AltitudeMeters>
            <DistanceMeters>349135.50321851</DistanceMeters>
          </Trackpoint>
          <Trackpoint>
            <Time>2018-09-15T08:40:08.000Z</Time>
            <Position>
              <LatitudeDegrees>37.329074330627918243408203125</LatitudeDegrees>
              <LongitudeDegrees>-7.966844402253627777099609375</LongitudeDegrees>
            </Position>
            <AltitudeMeters>513.4000244140625</AltitudeMeters>
            <DistanceMeters>349149.41351966</DistanceMeters>
          </Trackpoint>
          <Trackpoint>
            <Time>2018-09-15T08:40:15.000Z</Time>
            <Position>
              <LatitudeDegrees>37.32886788435280323028564453125</LatitudeDegrees>
              <LongitudeDegrees>-7.9668366909027099609375</LongitudeDegrees>
            </Position>
            <AltitudeMeters>514.4000244140625</AltitudeMeters>
            <DistanceMeters>349172.40154053</DistanceMeters>
          </Trackpoint>
          <Trackpoint>
            <Time>2018-09-15T08:40:20.000Z</Time>
            <Position>
              <LatitudeDegrees>37.3287583328783512115478515625</LatitudeDegrees>
              <LongitudeDegrees>-7.96692511998116970062255859375</LongitudeDegrees>
            </Position>
            <AltitudeMeters>516.20001220703125</AltitudeMeters>
            <DistanceMeters>349186.89054385</DistanceMeters>
          </Trackpoint>
          <Trackpoint>
            <Time>2018-09-15T08:40:24.000Z</Time>
            <Position>
              <LatitudeDegrees>37.3286812193691730499267578125</LatitudeDegrees>
              <LongitudeDegrees>-7.96702243387699127197265625</LongitudeDegrees>
            </Position>
            <AltitudeMeters>518</AltitudeMeters>
            <DistanceMeters>349199.0495081</DistanceMeters>
          </Trackpoint>
          <Trackpoint>
            <Time>2018-09-15T08:40:28.000Z</Time>
            <Position>
              <LatitudeDegrees>37.32859195210039615631103515625</LatitudeDegrees>
              <LongitudeDegrees>-7.9671298898756504058837890625</LongitudeDegrees>
            </Position>
            <AltitudeMeters>520</AltitudeMeters>
            <DistanceMeters>349212.80312731</DistanceMeters>
          </Trackpoint>
          <Trackpoint>
            <Time>2018-09-15T08:40:32.000Z</Time>
            <Position>
              <LatitudeDegrees>37.32848332263529300689697265625</LatitudeDegrees>
              <LongitudeDegrees>-7.96720826067030429840087890625</LongitudeDegrees>
            </Position>
            <AltitudeMeters>521.5999755859375</AltitudeMeters>
            <DistanceMeters>349226.74196244</DistanceMeters>
          </Trackpoint>
          <Trackpoint>
            <Time>2018-09-15T08:40:38.000Z</Time>
            <Position>
              <LatitudeDegrees>37.3282983340322971343994140625</LatitudeDegrees>
              <LongitudeDegrees>-7.96723156236112117767333984375</LongitudeDegrees>
            </Position>
            <AltitudeMeters>522.5999755859375</AltitudeMeters>
            <DistanceMeters>349247.43467045</DistanceMeters>
          </Trackpoint>
          <Trackpoint>
            <Time>2018-09-15T08:40:46.000Z</Time>
            <Position>
              <LatitudeDegrees>37.32804863713681697845458984375</LatitudeDegrees>
              <LongitudeDegrees>-7.96724312938749790191650390625</LongitudeDegrees>
            </Position>
            <AltitudeMeters>523.4000244140625</AltitudeMeters>
            <DistanceMeters>349275.24520887</DistanceMeters>
          </Trackpoint>
          <Trackpoint>
            <Time>2018-09-15T08:40:51.000Z</Time>
            <Position>
              <LatitudeDegrees>37.3278986848890781402587890625</LatitudeDegrees>
              <LongitudeDegrees>-7.96730197034776210784912109375</LongitudeDegrees>
            </Position>
            <AltitudeMeters>524.5999755859375</AltitudeMeters>
            <DistanceMeters>349292.7285749</DistanceMeters>
          </Trackpoint>
          <Trackpoint>
            <Time>2018-09-15T08:40:56.000Z</Time>
            <Position>
              <LatitudeDegrees>37.32777236960828304290771484375</LatitudeDegrees>
              <LongitudeDegrees>-7.967367433011531829833984375</LongitudeDegrees>
            </Position>
            <AltitudeMeters>526</AltitudeMeters>
            <DistanceMeters>349307.93463084</DistanceMeters>
          </Trackpoint>
          <Trackpoint>
            <Time>2018-09-15T08:41:02.000Z</Time>
            <Position>
              <LatitudeDegrees>37.32762350700795650482177734375</LatitudeDegrees>
              <LongitudeDegrees>-7.967470698058605194091796875</LongitudeDegrees>
            </Position>
            <AltitudeMeters>528</AltitudeMeters>
            <DistanceMeters>349326.85664266</DistanceMeters>
          </Trackpoint>
          <Trackpoint>
            <Time>2018-09-15T08:41:07.000Z</Time>
            <Position>
              <LatitudeDegrees>37.3275022208690643310546875</LatitudeDegrees>
              <LongitudeDegrees>-7.9675778187811374664306640625</LongitudeDegrees>
            </Position>
            <AltitudeMeters>530</AltitudeMeters>
            <DistanceMeters>349343.35247012</DistanceMeters>
          </Trackpoint>
          <Trackpoint>
            <Time>2018-09-15T08:41:13.000Z</Time>
            <Position>
              <LatitudeDegrees>37.3273600637912750244140625</LatitudeDegrees>
              <LongitudeDegrees>-7.96770933084189891815185546875</LongitudeDegrees>
            </Position>
            <AltitudeMeters>529.79998779296875</AltitudeMeters>
            <DistanceMeters>349362.99520685</DistanceMeters>
          </Trackpoint>
          <Trackpoint>
            <Time>2018-09-15T08:41:18.000Z</Time>
            <Position>
              <LatitudeDegrees>37.3272224329411983489990234375</LatitudeDegrees>
              <LongitudeDegrees>-7.9677628912031650543212890625</LongitudeDegrees>
            </Position>
            <AltitudeMeters>529.79998779296875</AltitudeMeters>
            <DistanceMeters>349379.03080652</DistanceMeters>
          </Trackpoint>
          <Trackpoint>
            <Time>2018-09-15T08:41:23.000Z</Time>
            <Position>
              <LatitudeDegrees>37.32705420814454555511474609375</LatitudeDegrees>
              <LongitudeDegrees>-7.9677488096058368682861328125</LongitudeDegrees>
            </Position>
            <AltitudeMeters>530.4000244140625</AltitudeMeters>
            <DistanceMeters>349397.79611656</DistanceMeters>
          </Trackpoint>
          <Trackpoint>
            <Time>2018-09-15T08:41:30.000Z</Time>
            <Position>
              <LatitudeDegrees>37.3267922736704349517822265625</LatitudeDegrees>
              <LongitudeDegrees>-7.96768167056143283843994140625</LongitudeDegrees>
            </Position>
            <AltitudeMeters>531.79998779296875</AltitudeMeters>
            <DistanceMeters>349427.54934351</DistanceMeters>
          </Trackpoint>
          <Trackpoint>
            <Time>2018-09-15T08:41:39.000Z</Time>
            <Position>
              <LatitudeDegrees>37.3264680616557598114013671875</LatitudeDegrees>
              <LongitudeDegrees>-7.9675885476171970367431640625</LongitudeDegrees>
            </Position>
            <AltitudeMeters>534</AltitudeMeters>
            <DistanceMeters>349464.56416998</DistanceMeters>
          </Trackpoint>
          <Trackpoint>
            <Time>2018-09-15T08:41:45.000Z</Time>
            <Position>
              <LatitudeDegrees>37.32626044191420078277587890625</LatitudeDegrees>
              <LongitudeDegrees>-7.96753096394240856170654296875</LongitudeDegrees>
            </Position>
            <AltitudeMeters>535.20001220703125</AltitudeMeters>
            <DistanceMeters>349488.22792075</DistanceMeters>
          </Trackpoint>
          <Trackpoint>
            <Time>2018-09-15T08:41:52.000Z</Time>
            <Position>
              <LatitudeDegrees>37.3260234855115413665771484375</LatitudeDegrees>
              <LongitudeDegrees>-7.9674495756626129150390625</LongitudeDegrees>
            </Position>
            <AltitudeMeters>536.4000244140625</AltitudeMeters>
            <DistanceMeters>349515.56755403</DistanceMeters>
          </Trackpoint>
          <Trackpoint>
            <Time>2018-09-15T08:41:58.000Z</Time>
            <Position>
              <LatitudeDegrees>37.32584201730787754058837890625</LatitudeDegrees>
              <LongitudeDegrees>-7.96734564006328582763671875</LongitudeDegrees>
            </Position>
            <AltitudeMeters>536.20001220703125</AltitudeMeters>
            <DistanceMeters>349537.76153091</DistanceMeters>
          </Trackpoint>
          <Trackpoint>
            <Time>2018-09-15T08:42:03.000Z</Time>
            <Position>
              <LatitudeDegrees>37.325716875493526458740234375</LatitudeDegrees>
              <LongitudeDegrees>-7.967209853231906890869140625</LongitudeDegrees>
            </Position>
            <AltitudeMeters>536.5999755859375</AltitudeMeters>
            <DistanceMeters>349556.15846721</DistanceMeters>
          </Trackpoint>
          <Trackpoint>
            <Time>2018-09-15T08:42:07.000Z</Time>
            <Position>
              <LatitudeDegrees>37.3256114311516284942626953125</LatitudeDegrees>
              <LongitudeDegrees>-7.96711019240319728851318359375</LongitudeDegrees>
            </Position>
            <AltitudeMeters>537.4000244140625</AltitudeMeters>
            <DistanceMeters>349570.84001769</DistanceMeters>
          </Trackpoint>
          <Trackpoint>
            <Time>2018-09-15T08:42:14.000Z</Time>
            <Position>
              <LatitudeDegrees>37.3253780789673328399658203125</LatitudeDegrees>
              <LongitudeDegrees>-7.9670430533587932586669921875</LongitudeDegrees>
            </Position>
            <AltitudeMeters>540.79998779296875</AltitudeMeters>
            <DistanceMeters>349597.48344783</DistanceMeters>
          </Trackpoint>
          <Trackpoint>
            <Time>2018-09-15T08:42:20.000Z</Time>
            <Position>
              <LatitudeDegrees>37.32517062686383724212646484375</LatitudeDegrees>
              <LongitudeDegrees>-7.96700893901288509368896484375</LongitudeDegrees>
            </Position>
            <AltitudeMeters>544.4000244140625</AltitudeMeters>
            <DistanceMeters>349620.76984065</DistanceMeters>
          </Trackpoint>
          <Trackpoint>
            <Time>2018-09-15T08:42:27.000Z</Time>
            <Position>
              <LatitudeDegrees>37.32497968710958957672119140625</LatitudeDegrees>
              <LongitudeDegrees>-7.96680928207933902740478515625</LongitudeDegrees>
            </Position>
            <AltitudeMeters>547</AltitudeMeters>
            <DistanceMeters>349648.40873257</DistanceMeters>
          </Trackpoint>
          <Trackpoint>
            <Time>2018-09-15T08:42:34.000Z</Time>
            <Position>
              <LatitudeDegrees>37.32492604292929172515869140625</LatitudeDegrees>
              <LongitudeDegrees>-7.966521866619586944580078125</LongitudeDegrees>
            </Position>
            <AltitudeMeters>546.20001220703125</AltitudeMeters>
            <DistanceMeters>349674.53848726</DistanceMeters>
          </Trackpoint>
          <Trackpoint>
            <Time>2018-09-15T08:42:40.000Z</Time>
            <Position>
              <LatitudeDegrees>37.32489720918238162994384765625</LatitudeDegrees>
              <LongitudeDegrees>-7.966297902166843414306640625</LongitudeDegrees>
            </Position>
            <AltitudeMeters>545</AltitudeMeters>
            <DistanceMeters>349694.61927568</DistanceMeters>
          </Trackpoint>
          <Trackpoint>
            <Time>2018-09-15T08:42:45.000Z</Time>
            <Position>
              <LatitudeDegrees>37.324807941913604736328125</LatitudeDegrees>
              <LongitudeDegrees>-7.96616387553513050079345703125</LongitudeDegrees>
            </Position>
            <AltitudeMeters>545.4000244140625</AltitudeMeters>
            <DistanceMeters>349710.09288149</DistanceMeters>
          </Trackpoint>
          <Trackpoint>
            <Time>2018-09-15T08:42:50.000Z</Time>
            <Position>
              <LatitudeDegrees>37.324668802320957183837890625</LatitudeDegrees>
              <LongitudeDegrees>-7.9661111533641815185546875</LongitudeDegrees>
            </Position>
            <AltitudeMeters>546.79998779296875</AltitudeMeters>
            <DistanceMeters>349726.26697543</DistanceMeters>
          </Trackpoint>
          <Trackpoint>
            <Time>2018-09-15T08:42:55.000Z</Time>
            <Position>
              <LatitudeDegrees>37.32450149953365325927734375</LatitudeDegrees>
              <LongitudeDegrees>-7.9661004245281219482421875</LongitudeDegrees>
            </Position>
            <AltitudeMeters>548.5999755859375</AltitudeMeters>
            <DistanceMeters>349744.91232104</DistanceMeters>
          </Trackpoint>
          <Trackpoint>
            <Time>2018-09-15T08:43:03.000Z</Time>
            <Position>
              <LatitudeDegrees>37.3242445103824138641357421875</LatitudeDegrees>
              <LongitudeDegrees>-7.96599380671977996826171875</LongitudeDegrees>
            </Position>
            <AltitudeMeters>550.5999755859375</AltitudeMeters>
            <DistanceMeters>349775.03234196</DistanceMeters>
          </Trackpoint>
          <Trackpoint>
            <Time>2018-09-15T08:43:12.000Z</Time>
            <Position>
              <LatitudeDegrees>37.32397872023284435272216796875</LatitudeDegrees>
              <LongitudeDegrees>-7.965773530304431915283203125</LongitudeDegrees>
            </Position>
            <AltitudeMeters>551.5999755859375</AltitudeMeters>
            <DistanceMeters>349810.46227219</DistanceMeters>
          </Trackpoint>
          <Trackpoint>
            <Time>2018-09-15T08:43:16.000Z</Time>
            <Position>
              <LatitudeDegrees>37.32388383708894252777099609375</LatitudeDegrees>
              <LongitudeDegrees>-7.965612597763538360595703125</LongitudeDegrees>
            </Position>
            <AltitudeMeters>551.20001220703125</AltitudeMeters>
            <DistanceMeters>349828.19436913</DistanceMeters>
          </Trackpoint>
          <Trackpoint>
            <Time>2018-09-15T08:43:24.000Z</Time>
            <Position>
              <LatitudeDegrees>37.32376095838844776153564453125</LatitudeDegrees>
              <LongitudeDegrees>-7.9652446322143077850341796875</LongitudeDegrees>
            </Position>
            <AltitudeMeters>550.5999755859375</AltitudeMeters>
            <DistanceMeters>349863.51824155</DistanceMeters>
          </Trackpoint>
          <Trackpoint>
            <Time>2018-09-15T08:43:30.000Z</Time>
            <Position>
              <LatitudeDegrees>37.32363908551633358001708984375</LatitudeDegrees>
              <LongitudeDegrees>-7.9650156386196613311767578125</LongitudeDegrees>
            </Position>
            <AltitudeMeters>552.4000244140625</AltitudeMeters>
            <DistanceMeters>349887.90662148</DistanceMeters>
          </Trackpoint>
          <Trackpoint>
            <Time>2018-09-15T08:43:38.000Z</Time>
            <Position>
              <LatitudeDegrees>37.32340405695140361785888671875</LatitudeDegrees>
              <LongitudeDegrees>-7.9647834599018096923828125</LongitudeDegrees>
            </Position>
            <AltitudeMeters>554.4000244140625</AltitudeMeters>
            <DistanceMeters>349921.17235126</DistanceMeters>
          </Trackpoint>
          <Trackpoint>
            <Time>2018-09-15T08:43:48.000Z</Time>
            <Position>
              <LatitudeDegrees>37.32308219186961650848388671875</LatitudeDegrees>
              <LongitudeDegrees>-7.9644892551004886627197265625</LongitudeDegrees>
            </Position>
            <AltitudeMeters>552</AltitudeMeters>
            <DistanceMeters>349965.46091733</DistanceMeters>
          </Trackpoint>
          <Trackpoint>
            <Time>2018-09-15T08:43:53.000Z</Time>
            <Position>
              <LatitudeDegrees>37.3229117877781391143798828125</LatitudeDegrees>
              <LongitudeDegrees>-7.96432723291218280792236328125</LongitudeDegrees>
            </Position>
            <AltitudeMeters>553.4000244140625</AltitudeMeters>
            <DistanceMeters>349989.23849261</DistanceMeters>
          </Trackpoint>
          <Trackpoint>
            <Time>2018-09-15T08:43:55.000Z</Time>
            <Position>
              <LatitudeDegrees>37.322838865220546722412109375</LatitudeDegrees>
              <LongitudeDegrees>-7.96427023597061634063720703125</LongitudeDegrees>
            </Position>
            <AltitudeMeters>554.20001220703125</AltitudeMeters>
            <DistanceMeters>349998.79517578</DistanceMeters>
          </Trackpoint>
          <Trackpoint>
            <Time>2018-09-15T08:44:01.000Z</Time>
            <Position>
              <LatitudeDegrees>37.322626970708370208740234375</LatitudeDegrees>
              <LongitudeDegrees>-7.96410427428781986236572265625</LongitudeDegrees>
            </Position>
            <AltitudeMeters>556</AltitudeMeters>
            <DistanceMeters>350026.58005108</DistanceMeters>
          </Trackpoint>
          <Trackpoint>
            <Time>2018-09-15T08:44:04.000Z</Time>
            <Position>
              <LatitudeDegrees>37.32251322828233242034912109375</LatitudeDegrees>
              <LongitudeDegrees>-7.96404652297496795654296875</LongitudeDegrees>
            </Position>
            <AltitudeMeters>556</AltitudeMeters>
            <DistanceMeters>350040.23284705</DistanceMeters>
          </Trackpoint>
          <Trackpoint>
            <Time>2018-09-15T08:44:07.000Z</Time>
            <Position>
              <LatitudeDegrees>37.32238934375345706939697265625</LatitudeDegrees>
              <LongitudeDegrees>-7.9640138335525989532470703125</LongitudeDegrees>
            </Position>
            <AltitudeMeters>556.20001220703125</AltitudeMeters>
            <DistanceMeters>350054.32181935</DistanceMeters>
          </Trackpoint>
          <Trackpoint>
            <Time>2018-09-15T08:44:09.000Z</Time>
            <Position>
              <LatitudeDegrees>37.32231147587299346923828125</LatitudeDegrees>
              <LongitudeDegrees>-7.96399447135627269744873046875</LongitudeDegrees>
            </Position>
            <AltitudeMeters>556.20001220703125</AltitudeMeters>
            <DistanceMeters>350063.15674894</DistanceMeters>
          </Trackpoint>
          <Trackpoint>
            <Time>2018-09-15T08:44:16.000Z</Time>
            <Position>
              <LatitudeDegrees>37.3220306821167469024658203125</LatitudeDegrees>
              <LongitudeDegrees>-7.96391232870519161224365234375</LongitudeDegrees>
            </Position>
            <AltitudeMeters>556.20001220703125</AltitudeMeters>
            <DistanceMeters>350095.2442748</DistanceMeters>
          </Trackpoint>
          <Trackpoint>
            <Time>2018-09-15T08:44:23.000Z</Time>
            <Position>
              <LatitudeDegrees>37.32173823751509189605712890625</LatitudeDegrees>
              <LongitudeDegrees>-7.96383135952055454254150390625</LongitudeDegrees>
            </Position>
            <AltitudeMeters>557.5999755859375</AltitudeMeters>
            <DistanceMeters>350128.57359948</DistanceMeters>
          </Trackpoint>
          <Trackpoint>
            <Time>2018-09-15T08:44:34.000Z</Time>
            <Position>
              <LatitudeDegrees>37.3212867043912410736083984375</LatitudeDegrees>
              <LongitudeDegrees>-7.9637181200087070465087890625</LongitudeDegrees>
            </Position>
            <AltitudeMeters>557.79998779296875</AltitudeMeters>
            <DistanceMeters>350179.81987751</DistanceMeters>
          </Trackpoint>
          <Trackpoint>
            <Time>2018-09-15T08:44:39.000Z</Time>
            <Position>
              <LatitudeDegrees>37.32108034193515777587890625</LatitudeDegrees>
              <LongitudeDegrees>-7.9636607877910137176513671875</LongitudeDegrees>
            </Position>
            <AltitudeMeters>559.4000244140625</AltitudeMeters>
            <DistanceMeters>350203.34220465</DistanceMeters>
          </Trackpoint>
          <Trackpoint>
            <Time>2018-09-15T08:44:48.000Z</Time>
            <Position>
              <LatitudeDegrees>37.32067742384970188140869140625</LatitudeDegrees>
              <LongitudeDegrees>-7.96355106867849826812744140625</LongitudeDegrees>
            </Position>
            <AltitudeMeters>562</AltitudeMeters>
            <DistanceMeters>350249.22731764</DistanceMeters>
          </Trackpoint>
          <Trackpoint>
            <Time>2018-09-15T08:44:52.000Z</Time>
            <Position>
              <LatitudeDegrees>37.320484220981597900390625</LatitudeDegrees>
              <LongitudeDegrees>-7.96350329183042049407958984375</LongitudeDegrees>
            </Position>
            <AltitudeMeters>562</AltitudeMeters>
            <DistanceMeters>350271.14287617</DistanceMeters>
          </Trackpoint>
          <Trackpoint>
            <Time>2018-09-15T08:44:54.000Z</Time>
            <Position>
              <LatitudeDegrees>37.320387661457061767578125</LatitudeDegrees>
              <LongitudeDegrees>-7.96347655355930328369140625</LongitudeDegrees>
            </Position>
            <AltitudeMeters>561.79998779296875</AltitudeMeters>
            <DistanceMeters>350282.14793797</DistanceMeters>
          </Trackpoint>
          <Trackpoint>
            <Time>2018-09-15T08:44:56.000Z</Time>
            <Position>
              <LatitudeDegrees>37.320286743342876434326171875</LatitudeDegrees>
              <LongitudeDegrees>-7.96344663016498088836669921875</LongitudeDegrees>
            </Position>
            <AltitudeMeters>561.79998779296875</AltitudeMeters>
            <DistanceMeters>350293.68810987</DistanceMeters>
          </Trackpoint>
          <Trackpoint>
            <Time>2018-09-15T08:44:59.000Z</Time>
            <Position>
              <LatitudeDegrees>37.32013561762869358062744140625</LatitudeDegrees>
              <LongitudeDegrees>-7.9634039662778377532958984375</LongitudeDegrees>
            </Position>
            <AltitudeMeters>561.79998779296875</AltitudeMeters>
            <DistanceMeters>350310.92727591</DistanceMeters>
          </Trackpoint>
          <Trackpoint>
            <Time>2018-09-15T08:45:02.000Z</Time>
            <Position>
              <LatitudeDegrees>37.320011816918849945068359375</LatitudeDegrees>
              <LongitudeDegrees>-7.96336649917066097259521484375</LongitudeDegrees>
            </Position>
            <AltitudeMeters>561.5999755859375</AltitudeMeters>
            <DistanceMeters>350325.09996163</DistanceMeters>
          </Trackpoint>
          <Trackpoint>
            <Time>2018-09-15T08:45:06.000Z</Time>
            <Position>
              <LatitudeDegrees>37.31989656575024127960205078125</LatitudeDegrees>
              <LongitudeDegrees>-7.96332777477800846099853515625</LongitudeDegrees>
            </Position>
            <AltitudeMeters>561.4000244140625</AltitudeMeters>
            <DistanceMeters>350338.37788362</DistanceMeters>
          </Trackpoint>
          <Trackpoint>
            <Time>2018-09-15T08:45:10.000Z</Time>
            <Position>
              <LatitudeDegrees>37.3199452646076679229736328125</LatitudeDegrees>
              <LongitudeDegrees>-7.9633335582911968231201171875</LongitudeDegrees>
            </Position>
            <AltitudeMeters>561.5999755859375</AltitudeMeters>
            <DistanceMeters>350343.82267388</DistanceMeters>
          </Trackpoint>
          <Trackpoint>
            <Time>2018-09-15T08:45:11.000Z</Time>
            <Position>
              <LatitudeDegrees>37.3199519701302051544189453125</LatitudeDegrees>
              <LongitudeDegrees>-7.96335258521139621734619140625</LongitudeDegrees>
            </Position>
            <AltitudeMeters>561.5999755859375</AltitudeMeters>
            <DistanceMeters>350345.66285829</DistanceMeters>
          </Trackpoint>
          <Trackpoint>
            <Time>2018-09-15T08:45:14.000Z</Time>
            <Position>
              <LatitudeDegrees>37.3199571669101715087890625</LatitudeDegrees>
              <LongitudeDegrees>-7.96338493935763835906982421875</LongitudeDegrees>
            </Position>
            <AltitudeMeters>561.79998779296875</AltitudeMeters>
            <DistanceMeters>350348.58560568</DistanceMeters>
          </Trackpoint>
          <Trackpoint>
            <Time>2018-09-15T08:45:37.000Z</Time>
            <Position>
              <LatitudeDegrees>37.31990293599665164947509765625</LatitudeDegrees>
              <LongitudeDegrees>-7.963339425623416900634765625</LongitudeDegrees>
            </Position>
            <AltitudeMeters>561.4000244140625</AltitudeMeters>
            <DistanceMeters>350355.84256137</DistanceMeters>
          </Trackpoint>
          <Trackpoint>
            <Time>2018-09-15T08:45:41.000Z</Time>
            <Position>
              <LatitudeDegrees>37.319811321794986724853515625</LatitudeDegrees>
              <LongitudeDegrees>-7.96331453137099742889404296875</LongitudeDegrees>
            </Position>
            <AltitudeMeters>561.20001220703125</AltitudeMeters>
            <DistanceMeters>350366.27474625</DistanceMeters>
          </Trackpoint>
          <Trackpoint>
            <Time>2018-09-15T08:45:47.000Z</Time>
            <Position>
              <LatitudeDegrees>37.3196347989141941070556640625</LatitudeDegrees>
              <LongitudeDegrees>-7.963277399539947509765625</LongitudeDegrees>
            </Position>
            <AltitudeMeters>560.79998779296875</AltitudeMeters>
            <DistanceMeters>350386.19525601</DistanceMeters>
          </Trackpoint>
          <Trackpoint>
            <Time>2018-09-15T08:45:49.000Z</Time>
            <Position>
              <LatitudeDegrees>37.3195664025843143463134765625</LatitudeDegrees>
              <LongitudeDegrees>-7.9632626473903656005859375</LongitudeDegrees>
            </Position>
            <AltitudeMeters>560.5999755859375</AltitudeMeters>
            <DistanceMeters>350393.91994016</DistanceMeters>
          </Trackpoint>
          <Trackpoint>
            <Time>2018-09-15T08:45:54.000Z</Time>
            <Position>
              <LatitudeDegrees>37.31935978867113590240478515625</LatitudeDegrees>
              <LongitudeDegrees>-7.96325719915330410003662109375</LongitudeDegrees>
            </Position>
            <AltitudeMeters>560.4000244140625</AltitudeMeters>
            <DistanceMeters>350416.9217055</DistanceMeters>
          </Trackpoint>
          <Trackpoint>
            <Time>2018-09-15T08:45:57.000Z</Time>
            <Position>
              <LatitudeDegrees>37.31922157108783721923828125</LatitudeDegrees>
              <LongitudeDegrees>-7.9632765613496303558349609375</LongitudeDegrees>
            </Position>
            <AltitudeMeters>560.20001220703125</AltitudeMeters>
            <DistanceMeters>350432.40085433</DistanceMeters>
          </Trackpoint>
          <Trackpoint>
            <Time>2018-09-15T08:46:00.000Z</Time>
            <Position>
              <LatitudeDegrees>37.31907748617231845855712890625</LatitudeDegrees>
              <LongitudeDegrees>-7.9633270204067230224609375</LongitudeDegrees>
            </Position>
            <AltitudeMeters>560.20001220703125</AltitudeMeters>
            <DistanceMeters>350449.04816781</DistanceMeters>
          </Trackpoint>
          <Trackpoint>
            <Time>2018-09-15T08:46:01.000Z</Time>
            <Position>
              <LatitudeDegrees>37.319026775658130645751953125</LatitudeDegrees>
              <LongitudeDegrees>-7.96334587968885898590087890625</LongitudeDegrees>
            </Position>
            <AltitudeMeters>560.20001220703125</AltitudeMeters>
            <DistanceMeters>350454.93445724</DistanceMeters>
          </Trackpoint>
          <Trackpoint>
            <Time>2018-09-15T08:46:06.000Z</Time>
            <Position>
              <LatitudeDegrees>37.31875880621373653411865234375</LatitudeDegrees>
              <LongitudeDegrees>-7.96344034373760223388671875</LongitudeDegrees>
            </Position>
            <AltitudeMeters>559.5999755859375</AltitudeMeters>
            <DistanceMeters>350485.9101053</DistanceMeters>
          </Trackpoint>
          <Trackpoint>
            <Time>2018-09-15T08:46:10.000Z</Time>
            <Position>
              <LatitudeDegrees>37.31854774989187717437744140625</LatitudeDegrees>
              <LongitudeDegrees>-7.9635343886911869049072265625</LongitudeDegrees>
            </Position>
            <AltitudeMeters>558.79998779296875</AltitudeMeters>
            <DistanceMeters>350510.83248035</DistanceMeters>
          </Trackpoint>
          <Trackpoint>
            <Time>2018-09-15T08:46:18.000Z</Time>
            <Position>
              <LatitudeDegrees>37.31809814460575580596923828125</LatitudeDegrees>
              <LongitudeDegrees>-7.96364821493625640869140625</LongitudeDegrees>
            </Position>
            <AltitudeMeters>555.79998779296875</AltitudeMeters>
            <DistanceMeters>350561.8787227</DistanceMeters>
          </Trackpoint>
          <Trackpoint>
            <Time>2018-09-15T08:46:21.000Z</Time>
            <Position>
              <LatitudeDegrees>37.317919023334980010986328125</LatitudeDegrees>
              <LongitudeDegrees>-7.963645868003368377685546875</LongitudeDegrees>
            </Position>
            <AltitudeMeters>555.20001220703125</AltitudeMeters>
            <DistanceMeters>350581.81622418</DistanceMeters>
          </Trackpoint>
          <Trackpoint>
            <Time>2018-09-15T08:46:26.000Z</Time>
            <Position>
              <LatitudeDegrees>37.31759925372898578643798828125</LatitudeDegrees>
              <LongitudeDegrees>-7.9636363126337528228759765625</LongitudeDegrees>
            </Position>
            <AltitudeMeters>555</AltitudeMeters>
            <DistanceMeters>350617.41726966</DistanceMeters>
          </Trackpoint>
          <Trackpoint>
            <Time>2018-09-15T08:46:27.000Z</Time>
            <Position>
              <LatitudeDegrees>37.3175349645316600799560546875</LatitudeDegrees>
              <LongitudeDegrees>-7.9636353068053722381591796875</LongitudeDegrees>
            </Position>
            <AltitudeMeters>555</AltitudeMeters>
            <DistanceMeters>350624.57398634</DistanceMeters>
          </Trackpoint>
          <Trackpoint>
            <Time>2018-09-15T08:46:33.000Z</Time>
            <Position>
              <LatitudeDegrees>37.31716540642082691192626953125</LatitudeDegrees>
              <LongitudeDegrees>-7.963612340390682220458984375</LongitudeDegrees>
            </Position>
            <AltitudeMeters>554.5999755859375</AltitudeMeters>
            <DistanceMeters>350665.75663921</DistanceMeters>
          </Trackpoint>
          <Trackpoint>
            <Time>2018-09-15T08:46:36.000Z</Time>
            <Position>
              <LatitudeDegrees>37.31699575670063495635986328125</LatitudeDegrees>
              <LongitudeDegrees>-7.96358090825378894805908203125</LongitudeDegrees>
            </Position>
            <AltitudeMeters>554.20001220703125</AltitudeMeters>
            <DistanceMeters>350684.84258387</DistanceMeters>
          </Trackpoint>
          <Trackpoint>
            <Time>2018-09-15T08:46:38.000Z</Time>
            <Position>
              <LatitudeDegrees>37.3168902285397052764892578125</LatitudeDegrees>
              <LongitudeDegrees>-7.96353111974895000457763671875</LongitudeDegrees>
            </Position>
            <AltitudeMeters>554.20001220703125</AltitudeMeters>
            <DistanceMeters>350697.38754989</DistanceMeters>
          </Trackpoint>
          <Trackpoint>
            <Time>2018-09-15T08:46:40.000Z</Time>
            <Position>
              <LatitudeDegrees>37.316789142787456512451171875</LatitudeDegrees>
              <LongitudeDegrees>-7.96345534734427928924560546875</LongitudeDegrees>
            </Position>
            <AltitudeMeters>554.20001220703125</AltitudeMeters>
            <DistanceMeters>350710.48607852</DistanceMeters>
          </Trackpoint>
          <Trackpoint>
            <Time>2018-09-15T08:46:46.000Z</Time>
            <Position>
              <LatitudeDegrees>37.31649401597678661346435546875</LatitudeDegrees>
              <LongitudeDegrees>-7.963222078979015350341796875</LongitudeDegrees>
            </Position>
            <AltitudeMeters>552.20001220703125</AltitudeMeters>
            <DistanceMeters>350749.28503332</DistanceMeters>
          </Trackpoint>
          <Trackpoint>
            <Time>2018-09-15T08:46:55.000Z</Time>
            <Position>
              <LatitudeDegrees>37.31605581007897853851318359375</LatitudeDegrees>
              <LongitudeDegrees>-7.96295830048620700836181640625</LongitudeDegrees>
            </Position>
            <AltitudeMeters>550.5999755859375</AltitudeMeters>
            <DistanceMeters>350803.35915831</DistanceMeters>
          </Trackpoint>
          <Trackpoint>
            <Time>2018-09-15T08:47:04.000Z</Time>
            <Position>
              <LatitudeDegrees>37.31551886536180973052978515625</LatitudeDegrees>
              <LongitudeDegrees>-7.96270332299172878265380859375</LongitudeDegrees>
            </Position>
            <AltitudeMeters>552</AltitudeMeters>
            <DistanceMeters>350867.2422055</DistanceMeters>
          </Trackpoint>
          <Trackpoint>
            <Time>2018-09-15T08:47:07.000Z</Time>
            <Position>
              <LatitudeDegrees>37.3152946494519710540771484375</LatitudeDegrees>
              <LongitudeDegrees>-7.96260139904916286468505859375</LongitudeDegrees>
            </Position>
            <AltitudeMeters>551.79998779296875</AltitudeMeters>
            <DistanceMeters>350893.77900036</DistanceMeters>
          </Trackpoint>
          <Trackpoint>
            <Time>2018-09-15T08:47:11.000Z</Time>
            <Position>
              <LatitudeDegrees>37.3149704374372959136962890625</LatitudeDegrees>
              <LongitudeDegrees>-7.96247399412095546722412109375</LongitudeDegrees>
            </Position>
            <AltitudeMeters>550.79998779296875</AltitudeMeters>
            <DistanceMeters>350931.58578203</DistanceMeters>
          </Trackpoint>
          <Trackpoint>
            <Time>2018-09-15T08:47:12.000Z</Time>
            <Position>
              <LatitudeDegrees>37.31488720513880252838134765625</LatitudeDegrees>
              <LongitudeDegrees>-7.962465025484561920166015625</LongitudeDegrees>
            </Position>
            <AltitudeMeters>550.5999755859375</AltitudeMeters>
            <DistanceMeters>350940.88384375</DistanceMeters>
          </Trackpoint>
          <Trackpoint>
            <Time>2018-09-15T08:47:14.000Z</Time>
            <Position>
              <LatitudeDegrees>37.31472694315016269683837890625</LatitudeDegrees>
              <LongitudeDegrees>-7.96248338185250759124755859375</LongitudeDegrees>
            </Position>
            <AltitudeMeters>550.20001220703125</AltitudeMeters>
            <DistanceMeters>350958.79530812</DistanceMeters>
          </Trackpoint>
          <Trackpoint>
            <Time>2018-09-15T08:47:17.000Z</Time>
            <Position>
              <LatitudeDegrees>37.31451823376119136810302734375</LatitudeDegrees>
              <LongitudeDegrees>-7.96257977373898029327392578125</LongitudeDegrees>
            </Position>
            <AltitudeMeters>550</AltitudeMeters>
            <DistanceMeters>350983.54278971</DistanceMeters>
          </Trackpoint>
          <Trackpoint>
            <Time>2018-09-15T08:47:21.000Z</Time>
            <Position>
              <LatitudeDegrees>37.314333580434322357177734375</LatitudeDegrees>
              <LongitudeDegrees>-7.96277406625449657440185546875</LongitudeDegrees>
            </Position>
            <AltitudeMeters>549.79998779296875</AltitudeMeters>
            <DistanceMeters>351010.34200798</DistanceMeters>
          </Trackpoint>
          <Trackpoint>
            <Time>2018-09-15T08:47:24.000Z</Time>
            <Position>
              <LatitudeDegrees>37.31422184966504573822021484375</LatitudeDegrees>
              <LongitudeDegrees>-7.96289711259305477142333984375</LongitudeDegrees>
            </Position>
            <AltitudeMeters>549.5999755859375</AltitudeMeters>
            <DistanceMeters>351026.87337917</DistanceMeters>
          </Trackpoint>
          <Trackpoint>
            <Time>2018-09-15T08:47:26.000Z</Time>
            <Position>
              <LatitudeDegrees>37.31415211223065853118896484375</LatitudeDegrees>
              <LongitudeDegrees>-7.96297539956867694854736328125</LongitudeDegrees>
            </Position>
            <AltitudeMeters>549.5999755859375</AltitudeMeters>
            <DistanceMeters>351037.27869591</DistanceMeters>
          </Trackpoint>
          <Trackpoint>
            <Time>2018-09-15T08:47:28.000Z</Time>
            <Position>
              <LatitudeDegrees>37.31409008614718914031982421875</LatitudeDegrees>
              <LongitudeDegrees>-7.96305201016366481781005859375</LongitudeDegrees>
            </Position>
            <AltitudeMeters>550.20001220703125</AltitudeMeters>
            <DistanceMeters>351046.95557003</DistanceMeters>
          </Trackpoint>
          <Trackpoint>
            <Time>2018-09-15T08:47:30.000Z</Time>
            <Position>
              <LatitudeDegrees>37.31403040699660778045654296875</LatitudeDegrees>
              <LongitudeDegrees>-7.96312442980706691741943359375</LongitudeDegrees>
            </Position>
            <AltitudeMeters>551.20001220703125</AltitudeMeters>
            <DistanceMeters>351056.18686633</DistanceMeters>
          </Trackpoint>
          <Trackpoint>
            <Time>2018-09-15T08:47:33.000Z</Time>
            <Position>
              <LatitudeDegrees>37.31393921189010143280029296875</LatitudeDegrees>
              <LongitudeDegrees>-7.9632250964641571044921875</LongitudeDegrees>
            </Position>
            <AltitudeMeters>552.5999755859375</AltitudeMeters>
            <DistanceMeters>351069.69336863</DistanceMeters>
          </Trackpoint>
          <Trackpoint>
            <Time>2018-09-15T08:47:36.000Z</Time>
            <Position>
              <LatitudeDegrees>37.3138539679348468780517578125</LatitudeDegrees>
              <LongitudeDegrees>-7.96332341618835926055908203125</LongitudeDegrees>
            </Position>
            <AltitudeMeters>554</AltitudeMeters>
            <DistanceMeters>351082.56834876</DistanceMeters>
          </Trackpoint>
          <Trackpoint>
            <Time>2018-09-15T08:47:39.000Z</Time>
            <Position>
              <LatitudeDegrees>37.313768975436687469482421875</LatitudeDegrees>
              <LongitudeDegrees>-7.963416539132595062255859375</LongitudeDegrees>
            </Position>
            <AltitudeMeters>555.20001220703125</AltitudeMeters>
            <DistanceMeters>351095.11547404</DistanceMeters>
          </Trackpoint>
          <Trackpoint>
            <Time>2018-09-15T08:47:40.000Z</Time>
            <Position>
              <LatitudeDegrees>37.3137416504323482513427734375</LatitudeDegrees>
              <LongitudeDegrees>-7.96344595961272716522216796875</LongitudeDegrees>
            </Position>
            <AltitudeMeters>555.5999755859375</AltitudeMeters>
            <DistanceMeters>351099.12014828</DistanceMeters>
          </Trackpoint>
          <Trackpoint>
            <Time>2018-09-15T08:47:44.000Z</Time>
            <Position>
              <LatitudeDegrees>37.31364232487976551055908203125</LatitudeDegrees>
              <LongitudeDegrees>-7.96356397680938243865966796875</LongitudeDegrees>
            </Position>
            <AltitudeMeters>556.79998779296875</AltitudeMeters>
            <DistanceMeters>351114.33095426</DistanceMeters>
          </Trackpoint>
          <Trackpoint>
            <Time>2018-09-15T08:47:45.000Z</Time>
            <Position>
              <LatitudeDegrees>37.31361835263669490814208984375</LatitudeDegrees>
              <LongitudeDegrees>-7.96359046362340450286865234375</LongitudeDegrees>
            </Position>
            <AltitudeMeters>557</AltitudeMeters>
            <DistanceMeters>351117.88398773</DistanceMeters>
          </Trackpoint>
          <Trackpoint>
            <Time>2018-09-15T08:47:49.000Z</Time>
            <Position>
              <LatitudeDegrees>37.31352388858795166015625</LatitudeDegrees>
              <LongitudeDegrees>-7.96370261348783969879150390625</LongitudeDegrees>
            </Position>
            <AltitudeMeters>558.20001220703125</AltitudeMeters>
            <DistanceMeters>351132.34491821</DistanceMeters>
          </Trackpoint>
          <Trackpoint>
            <Time>2018-09-15T08:47:53.000Z</Time>
            <Position>
              <LatitudeDegrees>37.31341995298862457275390625</LatitudeDegrees>
              <LongitudeDegrees>-7.96381660737097263336181640625</LongitudeDegrees>
            </Position>
            <AltitudeMeters>559.4000244140625</AltitudeMeters>
            <DistanceMeters>351147.6957773</DistanceMeters>
          </Trackpoint>
          <Trackpoint>
            <Time>2018-09-15T08:47:58.000Z</Time>
            <Position>
              <LatitudeDegrees>37.31329196132719516754150390625</LatitudeDegrees>
              <LongitudeDegrees>-7.96395130455493927001953125</LongitudeDegrees>
            </Position>
            <AltitudeMeters>560.79998779296875</AltitudeMeters>
            <DistanceMeters>351166.27295313</DistanceMeters>
          </Trackpoint>
          <Trackpoint>
            <Time>2018-09-15T08:48:03.000Z</Time>
            <Position>
              <LatitudeDegrees>37.3131658136844635009765625</LatitudeDegrees>
              <LongitudeDegrees>-7.96408784575760364532470703125</LongitudeDegrees>
            </Position>
            <AltitudeMeters>562.20001220703125</AltitudeMeters>
            <DistanceMeters>351184.79950719</DistanceMeters>
          </Trackpoint>
          <Trackpoint>
            <Time>2018-09-15T08:48:07.000Z</Time>
            <Position>
              <LatitudeDegrees>37.31305575929582118988037109375</LatitudeDegrees>
              <LongitudeDegrees>-7.96417518518865108489990234375</LongitudeDegrees>
            </Position>
            <AltitudeMeters>563.4000244140625</AltitudeMeters>
            <DistanceMeters>351199.28477061</DistanceMeters>
          </Trackpoint>
          <Trackpoint>
            <Time>2018-09-15T08:48:13.000Z</Time>
            <Position>
              <LatitudeDegrees>37.31288015842437744140625</LatitudeDegrees>
              <LongitudeDegrees>-7.9642176814377307891845703125</LongitudeDegrees>
            </Position>
            <AltitudeMeters>565.5999755859375</AltitudeMeters>
            <DistanceMeters>351219.18804731</DistanceMeters>
          </Trackpoint>
          <Trackpoint>
            <Time>2018-09-15T08:48:18.000Z</Time>
            <Position>
              <LatitudeDegrees>37.312732301652431488037109375</LatitudeDegrees>
              <LongitudeDegrees>-7.9641512967646121978759765625</LongitudeDegrees>
            </Position>
            <AltitudeMeters>567.79998779296875</AltitudeMeters>
            <DistanceMeters>351236.66211395</DistanceMeters>
          </Trackpoint>
          <Trackpoint>
            <Time>2018-09-15T08:48:22.000Z</Time>
            <Position>
              <LatitudeDegrees>37.31262107379734516143798828125</LatitudeDegrees>
              <LongitudeDegrees>-7.96407342888414859771728515625</LongitudeDegrees>
            </Position>
            <AltitudeMeters>569.4000244140625</AltitudeMeters>
            <DistanceMeters>351250.83161358</DistanceMeters>
          </Trackpoint>
          <Trackpoint>
            <Time>2018-09-15T08:48:27.000Z</Time>
            <Position>
              <LatitudeDegrees>37.31248310767114162445068359375</LatitudeDegrees>
              <LongitudeDegrees>-7.963991202414035797119140625</LongitudeDegrees>
            </Position>
            <AltitudeMeters>570.5999755859375</AltitudeMeters>
            <DistanceMeters>351267.82546172</DistanceMeters>
          </Trackpoint>
          <Trackpoint>
            <Time>2018-09-15T08:48:33.000Z</Time>
            <Position>
              <LatitudeDegrees>37.31231999583542346954345703125</LatitudeDegrees>
              <LongitudeDegrees>-7.96388332732021808624267578125</LongitudeDegrees>
            </Position>
            <AltitudeMeters>571.4000244140625</AltitudeMeters>
            <DistanceMeters>351288.33846984</DistanceMeters>
          </Trackpoint>
          <Trackpoint>
            <Time>2018-09-15T08:48:38.000Z</Time>
            <Position>
              <LatitudeDegrees>37.31218286789953708648681640625</LatitudeDegrees>
              <LongitudeDegrees>-7.96379900537431240081787109375</LongitudeDegrees>
            </Position>
            <AltitudeMeters>572.20001220703125</AltitudeMeters>
            <DistanceMeters>351305.32859797</DistanceMeters>
          </Trackpoint>
          <Trackpoint>
            <Time>2018-09-15T08:48:44.000Z</Time>
            <Position>
              <LatitudeDegrees>37.312020845711231231689453125</LatitudeDegrees>
              <LongitudeDegrees>-7.96368702314794063568115234375</LongitudeDegrees>
            </Position>
            <AltitudeMeters>573.79998779296875</AltitudeMeters>
            <DistanceMeters>351325.90687377</DistanceMeters>
          </Trackpoint>
          <Trackpoint>
            <Time>2018-09-15T08:48:48.000Z</Time>
            <Position>
              <LatitudeDegrees>37.311914898455142974853515625</LatitudeDegrees>
              <LongitudeDegrees>-7.963594235479831695556640625</LongitudeDegrees>
            </Position>
            <AltitudeMeters>575.4000244140625</AltitudeMeters>
            <DistanceMeters>351340.27760264</DistanceMeters>
          </Trackpoint>
          <Trackpoint>
            <Time>2018-09-15T08:48:53.000Z</Time>
            <Position>
              <LatitudeDegrees>37.3118091188371181488037109375</LatitudeDegrees>
              <LongitudeDegrees>-7.96344562433660030364990234375</LongitudeDegrees>
            </Position>
            <AltitudeMeters>577</AltitudeMeters>
            <DistanceMeters>351357.93212383</DistanceMeters>
          </Trackpoint>
          <Trackpoint>
            <Time>2018-09-15T08:48:58.000Z</Time>
            <Position>
              <LatitudeDegrees>37.31172890402376651763916015625</LatitudeDegrees>
              <LongitudeDegrees>-7.96327346004545688629150390625</LongitudeDegrees>
            </Position>
            <AltitudeMeters>577.79998779296875</AltitudeMeters>
            <DistanceMeters>351375.59533818</DistanceMeters>
          </Trackpoint>
          <Trackpoint>
            <Time>2018-09-15T08:49:04.000Z</Time>
            <Position>
              <LatitudeDegrees>37.31164030730724334716796875</LatitudeDegrees>
              <LongitudeDegrees>-7.9630609788000583648681640625</LongitudeDegrees>
            </Position>
            <AltitudeMeters>578.5999755859375</AltitudeMeters>
            <DistanceMeters>351396.83333051</DistanceMeters>
          </Trackpoint>
          <Trackpoint>
            <Time>2018-09-15T08:49:09.000Z</Time>
            <Position>
              <LatitudeDegrees>37.31156093068420886993408203125</LatitudeDegrees>
              <LongitudeDegrees>-7.96289862133562564849853515625</LongitudeDegrees>
            </Position>
            <AltitudeMeters>578.4000244140625</AltitudeMeters>
            <DistanceMeters>351413.70425252</DistanceMeters>
          </Trackpoint>
          <Trackpoint>
            <Time>2018-09-15T08:49:15.000Z</Time>
            <Position>
              <LatitudeDegrees>37.31141927652060985565185546875</LatitudeDegrees>
              <LongitudeDegrees>-7.96272628940641880035400390625</LongitudeDegrees>
            </Position>
            <AltitudeMeters>578.5999755859375</AltitudeMeters>
            <DistanceMeters>351435.64328474</DistanceMeters>
          </Trackpoint>
          <Trackpoint>
            <Time>2018-09-15T08:49:20.000Z</Time>
            <Position>
              <LatitudeDegrees>37.31126672588288784027099609375</LatitudeDegrees>
              <LongitudeDegrees>-7.9625915922224521636962890625</LongitudeDegrees>
            </Position>
            <AltitudeMeters>579.79998779296875</AltitudeMeters>
            <DistanceMeters>351456.39090494</DistanceMeters>
          </Trackpoint>
          <Trackpoint>
            <Time>2018-09-15T08:49:26.000Z</Time>
            <Position>
              <LatitudeDegrees>37.31102784164249897003173828125</LatitudeDegrees>
              <LongitudeDegrees>-7.96242219395935535430908203125</LongitudeDegrees>
            </Position>
            <AltitudeMeters>579</AltitudeMeters>
            <DistanceMeters>351486.91652677</DistanceMeters>
          </Trackpoint>
          <Trackpoint>
            <Time>2018-09-15T08:49:30.000Z</Time>
            <Position>
              <LatitudeDegrees>37.3108579404652118682861328125</LatitudeDegrees>
              <LongitudeDegrees>-7.962297387421131134033203125</LongitudeDegrees>
            </Position>
            <AltitudeMeters>578.4000244140625</AltitudeMeters>
            <DistanceMeters>351508.81786533</DistanceMeters>
          </Trackpoint>
          <Trackpoint>
            <Time>2018-09-15T08:49:33.000Z</Time>
            <Position>
              <LatitudeDegrees>37.31071762740612030029296875</LatitudeDegrees>
              <LongitudeDegrees>-7.96220929361879825592041015625</LongitudeDegrees>
            </Position>
            <AltitudeMeters>576.79998779296875</AltitudeMeters>
            <DistanceMeters>351526.2740943</DistanceMeters>
          </Trackpoint>
          <Trackpoint>
            <Time>2018-09-15T08:49:40.000Z</Time>
            <Position>
              <LatitudeDegrees>37.31036198325455188751220703125</LatitudeDegrees>
              <LongitudeDegrees>-7.9619720019400119781494140625</LongitudeDegrees>
            </Position>
            <AltitudeMeters>573.4000244140625</AltitudeMeters>
            <DistanceMeters>351571.08652059</DistanceMeters>
          </Trackpoint>
          <Trackpoint>
            <Time>2018-09-15T08:49:43.000Z</Time>
            <Position>
              <LatitudeDegrees>37.31019333936274051666259765625</LatitudeDegrees>
              <LongitudeDegrees>-7.96186027117073535919189453125</LongitudeDegrees>
            </Position>
            <AltitudeMeters>574</AltitudeMeters>
            <DistanceMeters>351592.30345582</DistanceMeters>
          </Trackpoint>
          <Trackpoint>
            <Time>2018-09-15T08:49:46.000Z</Time>
            <Position>
              <LatitudeDegrees>37.31001933105289936065673828125</LatitudeDegrees>
              <LongitudeDegrees>-7.96174577437341213226318359375</LongitudeDegrees>
            </Position>
            <AltitudeMeters>574.79998779296875</AltitudeMeters>
            <DistanceMeters>351614.16290515</DistanceMeters>
          </Trackpoint>
          <Trackpoint>
            <Time>2018-09-15T08:49:51.000Z</Time>
            <Position>
              <LatitudeDegrees>37.3097364418208599090576171875</LatitudeDegrees>
              <LongitudeDegrees>-7.96155483461916446685791015625</LongitudeDegrees>
            </Position>
            <AltitudeMeters>574.20001220703125</AltitudeMeters>
            <DistanceMeters>351649.89952015</DistanceMeters>
          </Trackpoint>
          <Trackpoint>
            <Time>2018-09-15T08:50:00.000Z</Time>
            <Position>
              <LatitudeDegrees>37.3092157579958438873291015625</LatitudeDegrees>
              <LongitudeDegrees>-7.96121276915073394775390625</LongitudeDegrees>
            </Position>
            <AltitudeMeters>576.4000244140625</AltitudeMeters>
            <DistanceMeters>351715.28729114</DistanceMeters>
          </Trackpoint>
          <Trackpoint>
            <Time>2018-09-15T08:50:04.000Z</Time>
            <Position>
              <LatitudeDegrees>37.3089844174683094024658203125</LatitudeDegrees>
              <LongitudeDegrees>-7.96106046997010707855224609375</LongitudeDegrees>
            </Position>
            <AltitudeMeters>579</AltitudeMeters>
            <DistanceMeters>351744.35226458</DistanceMeters>
          </Trackpoint>
          <Trackpoint>
            <Time>2018-09-15T08:50:11.000Z</Time>
            <Position>
              <LatitudeDegrees>37.308597005903720855712890625</LatitudeDegrees>
              <LongitudeDegrees>-7.9608012177050113677978515625</LongitudeDegrees>
            </Position>
            <AltitudeMeters>579.20001220703125</AltitudeMeters>
            <DistanceMeters>351793.1995083</DistanceMeters>
          </Trackpoint>
          <Trackpoint>
            <Time>2018-09-15T08:50:21.000Z</Time>
            <Position>
              <LatitudeDegrees>37.30806701816618442535400390625</LatitudeDegrees>
              <LongitudeDegrees>-7.9604511894285678863525390625</LongitudeDegrees>
            </Position>
            <AltitudeMeters>575.79998779296875</AltitudeMeters>
            <DistanceMeters>351859.8318718</DistanceMeters>
          </Trackpoint>
          <Trackpoint>
            <Time>2018-09-15T08:50:28.000Z</Time>
            <Position>
              <LatitudeDegrees>37.30761540122330188751220703125</LatitudeDegrees>
              <LongitudeDegrees>-7.96014935709536075592041015625</LongitudeDegrees>
            </Position>
            <AltitudeMeters>575</AltitudeMeters>
            <DistanceMeters>351916.75858455</DistanceMeters>
          </Trackpoint>
          <Trackpoint>
            <Time>2018-09-15T08:50:30.000Z</Time>
            <Position>
              <LatitudeDegrees>37.30746544897556304931640625</LatitudeDegrees>
              <LongitudeDegrees>-7.9600501991808414459228515625</LongitudeDegrees>
            </Position>
            <AltitudeMeters>574.79998779296875</AltitudeMeters>
            <DistanceMeters>351935.61630022</DistanceMeters>
          </Trackpoint>
          <Trackpoint>
            <Time>2018-09-15T08:50:33.000Z</Time>
            <Position>
              <LatitudeDegrees>37.3072354495525360107421875</LatitudeDegrees>
              <LongitudeDegrees>-7.95989136211574077606201171875</LongitudeDegrees>
            </Position>
            <AltitudeMeters>572.20001220703125</AltitudeMeters>
            <DistanceMeters>351964.82368493</DistanceMeters>
          </Trackpoint>
          <Trackpoint>
            <Time>2018-09-15T08:50:34.000Z</Time>
            <Position>
              <LatitudeDegrees>37.307160682976245880126953125</LatitudeDegrees>
              <LongitudeDegrees>-7.95982933603227138519287109375</LongitudeDegrees>
            </Position>
            <AltitudeMeters>571.20001220703125</AltitudeMeters>
            <DistanceMeters>351974.79470001</DistanceMeters>
          </Trackpoint>
          <Trackpoint>
            <Time>2018-09-15T08:50:37.000Z</Time>
            <Position>
              <LatitudeDegrees>37.3069546557962894439697265625</LatitudeDegrees>
              <LongitudeDegrees>-7.95959481038153171539306640625</LongitudeDegrees>
            </Position>
            <AltitudeMeters>568.5999755859375</AltitudeMeters>
            <DistanceMeters>352005.72877832</DistanceMeters>
          </Trackpoint>
          <Trackpoint>
            <Time>2018-09-15T08:50:40.000Z</Time>
            <Position>
              <LatitudeDegrees>37.3067518137395381927490234375</LatitudeDegrees>
              <LongitudeDegrees>-7.9593313671648502349853515625</LongitudeDegrees>
            </Position>
            <AltitudeMeters>566.20001220703125</AltitudeMeters>
            <DistanceMeters>352038.18843511</DistanceMeters>
          </Trackpoint>
          <Trackpoint>
            <Time>2018-09-15T08:50:43.000Z</Time>
            <Position>
              <LatitudeDegrees>37.306534387171268463134765625</LatitudeDegrees>
              <LongitudeDegrees>-7.95906524173915386199951171875</LongitudeDegrees>
            </Position>
            <AltitudeMeters>563</AltitudeMeters>
            <DistanceMeters>352071.9629133</DistanceMeters>
          </Trackpoint>
          <Trackpoint>
            <Time>2018-09-15T08:50:45.000Z</Time>
            <Position>
              <LatitudeDegrees>37.30637202970683574676513671875</LatitudeDegrees>
              <LongitudeDegrees>-7.95891185291111469268798828125</LongitudeDegrees>
            </Position>
            <AltitudeMeters>560.79998779296875</AltitudeMeters>
            <DistanceMeters>352094.56728999</DistanceMeters>
          </Trackpoint>
          <Trackpoint>
            <Time>2018-09-15T08:50:47.000Z</Time>
            <Position>
              <LatitudeDegrees>37.306205816566944122314453125</LatitudeDegrees>
              <LongitudeDegrees>-7.95878847129642963409423828125</LongitudeDegrees>
            </Position>
            <AltitudeMeters>559.20001220703125</AltitudeMeters>
            <DistanceMeters>352116.05110476</DistanceMeters>
          </Trackpoint>
          <Trackpoint>
            <Time>2018-09-15T08:50:52.000Z</Time>
            <Position>
              <LatitudeDegrees>37.30584648437798023223876953125</LatitudeDegrees>
              <LongitudeDegrees>-7.9585256986320018768310546875</LongitudeDegrees>
            </Position>
            <AltitudeMeters>563</AltitudeMeters>
            <DistanceMeters>352162.31925971</DistanceMeters>
          </Trackpoint>
          <Trackpoint>
            <Time>2018-09-15T08:50:55.000Z</Time>
            <Position>
              <LatitudeDegrees>37.30567566119134426116943359375</LatitudeDegrees>
              <LongitudeDegrees>-7.95836367644369602203369140625</LongitudeDegrees>
            </Position>
            <AltitudeMeters>562.4000244140625</AltitudeMeters>
            <DistanceMeters>352186.13591947</DistanceMeters>
          </Trackpoint>
          <Trackpoint>
            <Time>2018-09-15T08:50:58.000Z</Time>
            <Position>
              <LatitudeDegrees>37.30555345304310321807861328125</LatitudeDegrees>
              <LongitudeDegrees>-7.9581622593104839324951171875</LongitudeDegrees>
            </Position>
            <AltitudeMeters>562</AltitudeMeters>
            <DistanceMeters>352208.56302936</DistanceMeters>
          </Trackpoint>
          <Trackpoint>
            <Time>2018-09-15T08:50:59.000Z</Time>
            <Position>
              <LatitudeDegrees>37.30552244000136852264404296875</LatitudeDegrees>
              <LongitudeDegrees>-7.95808858238160610198974609375</LongitudeDegrees>
            </Position>
            <AltitudeMeters>562</AltitudeMeters>
            <DistanceMeters>352215.94336953</DistanceMeters>
          </Trackpoint>
          <Trackpoint>
            <Time>2018-09-15T08:51:04.000Z</Time>
            <Position>
              <LatitudeDegrees>37.305433340370655059814453125</LatitudeDegrees>
              <LongitudeDegrees>-7.95769278891384601593017578125</LongitudeDegrees>
            </Position>
            <AltitudeMeters>564.20001220703125</AltitudeMeters>
            <DistanceMeters>352252.35980849</DistanceMeters>
          </Trackpoint>
          <Trackpoint>
            <Time>2018-09-15T08:51:07.000Z</Time>
            <Position>
              <LatitudeDegrees>37.30538246221840381622314453125</LatitudeDegrees>
              <LongitudeDegrees>-7.95745507813990116119384765625</LongitudeDegrees>
            </Position>
            <AltitudeMeters>564.5999755859375</AltitudeMeters>
            <DistanceMeters>352274.1534764</DistanceMeters>
          </Trackpoint>
          <Trackpoint>
            <Time>2018-09-15T08:51:12.000Z</Time>
            <Position>
              <LatitudeDegrees>37.30529746972024440765380859375</LatitudeDegrees>
              <LongitudeDegrees>-7.95706263743340969085693359375</LongitudeDegrees>
            </Position>
            <AltitudeMeters>564.5999755859375</AltitudeMeters>
            <DistanceMeters>352310.16170541</DistanceMeters>
          </Trackpoint>
          <Trackpoint>
            <Time>2018-09-15T08:51:16.000Z</Time>
            <Position>
              <LatitudeDegrees>37.30523058213293552398681640625</LatitudeDegrees>
              <LongitudeDegrees>-7.95675585977733135223388671875</LongitudeDegrees>
            </Position>
            <AltitudeMeters>567.20001220703125</AltitudeMeters>
            <DistanceMeters>352338.32298083</DistanceMeters>
          </Trackpoint>
          <Trackpoint>
            <Time>2018-09-15T08:51:20.000Z</Time>
            <Position>
              <LatitudeDegrees>37.30516805313527584075927734375</LatitudeDegrees>
              <LongitudeDegrees>-7.9564540274441242218017578125</LongitudeDegrees>
            </Position>
            <AltitudeMeters>564.5999755859375</AltitudeMeters>
            <DistanceMeters>352365.93605011</DistanceMeters>
          </Trackpoint>
          <Trackpoint>
            <Time>2018-09-15T08:51:26.000Z</Time>
            <Position>
              <LatitudeDegrees>37.3050720803439617156982421875</LatitudeDegrees>
              <LongitudeDegrees>-7.9560074396431446075439453125</LongitudeDegrees>
            </Position>
            <AltitudeMeters>566.20001220703125</AltitudeMeters>
            <DistanceMeters>352406.89091037</DistanceMeters>
          </Trackpoint>
          <Trackpoint>
            <Time>2018-09-15T08:51:33.000Z</Time>
            <Position>
              <LatitudeDegrees>37.30496001429855823516845703125</LatitudeDegrees>
              <LongitudeDegrees>-7.955493293702602386474609375</LongitudeDegrees>
            </Position>
            <AltitudeMeters>567</AltitudeMeters>
            <DistanceMeters>352454.08734177</DistanceMeters>
          </Trackpoint>
          <Trackpoint>
            <Time>2018-09-15T08:51:36.000Z</Time>
            <Position>
              <LatitudeDegrees>37.30491123162209987640380859375</LatitudeDegrees>
              <LongitudeDegrees>-7.95527259819209575653076171875</LongitudeDegrees>
            </Position>
            <AltitudeMeters>565.79998779296875</AltitudeMeters>
            <DistanceMeters>352474.36614058</DistanceMeters>
          </Trackpoint>
          <Trackpoint>
            <Time>2018-09-15T08:51:40.000Z</Time>
            <Position>
              <LatitudeDegrees>37.3048511333763599395751953125</LatitudeDegrees>
              <LongitudeDegrees>-7.95498291961848735809326171875</LongitudeDegrees>
            </Position>
            <AltitudeMeters>565.4000244140625</AltitudeMeters>
            <DistanceMeters>352500.86973688</DistanceMeters>
          </Trackpoint>
          <Trackpoint>
            <Time>2018-09-15T08:51:43.000Z</Time>
            <Position>
              <LatitudeDegrees>37.30481400154531002044677734375</LatitudeDegrees>
              <LongitudeDegrees>-7.9547682590782642364501953125</LongitudeDegrees>
            </Position>
            <AltitudeMeters>565.4000244140625</AltitudeMeters>
            <DistanceMeters>352520.31820242</DistanceMeters>
          </Trackpoint>
          <Trackpoint>
            <Time>2018-09-15T08:51:52.000Z</Time>
            <Position>
              <LatitudeDegrees>37.30477108620107173919677734375</LatitudeDegrees>
              <LongitudeDegrees>-7.95408605597913265228271484375</LongitudeDegrees>
            </Position>
            <AltitudeMeters>568</AltitudeMeters>
            <DistanceMeters>352580.90375089</DistanceMeters>
          </Trackpoint>
          <Trackpoint>
            <Time>2018-09-15T08:51:54.000Z</Time>
            <Position>
              <LatitudeDegrees>37.3047663085162639617919921875</LatitudeDegrees>
              <LongitudeDegrees>-7.95393568463623523712158203125</LongitudeDegrees>
            </Position>
            <AltitudeMeters>568</AltitudeMeters>
            <DistanceMeters>352594.22716047</DistanceMeters>
          </Trackpoint>
          <Trackpoint>
            <Time>2018-09-15T08:51:58.000Z</Time>
            <Position>
              <LatitudeDegrees>37.304750718176364898681640625</LatitudeDegrees>
              <LongitudeDegrees>-7.95364583842456340789794921875</LongitudeDegrees>
            </Position>
            <AltitudeMeters>568</AltitudeMeters>
            <DistanceMeters>352619.94624209</DistanceMeters>
          </Trackpoint>
          <Trackpoint>
            <Time>2018-09-15T08:52:04.000Z</Time>
            <Position>
              <LatitudeDegrees>37.3047059588134288787841796875</LatitudeDegrees>
              <LongitudeDegrees>-7.9532162658870220184326171875</LongitudeDegrees>
            </Position>
            <AltitudeMeters>570</AltitudeMeters>
            <DistanceMeters>352658.30220713</DistanceMeters>
          </Trackpoint>
          <Trackpoint>
            <Time>2018-09-15T08:52:08.000Z</Time>
            <Position>
              <LatitudeDegrees>37.30458743870258331298828125</LatitudeDegrees>
              <LongitudeDegrees>-7.9529601149260997772216796875</LongitudeDegrees>
            </Position>
            <AltitudeMeters>570.20001220703125</AltitudeMeters>
            <DistanceMeters>352684.537498</DistanceMeters>
          </Trackpoint>
          <Trackpoint>
            <Time>2018-09-15T08:52:09.000Z</Time>
            <Position>
              <LatitudeDegrees>37.30455114506185054779052734375</LatitudeDegrees>
              <LongitudeDegrees>-7.95290303416550159454345703125</LongitudeDegrees>
            </Position>
            <AltitudeMeters>570.5999755859375</AltitudeMeters>
            <DistanceMeters>352691.00699599</DistanceMeters>
          </Trackpoint>
          <Trackpoint>
            <Time>2018-09-15T08:52:15.000Z</Time>
            <Position>
              <LatitudeDegrees>37.3043150268495082855224609375</LatitudeDegrees>
              <LongitudeDegrees>-7.95257429592311382293701171875</LongitudeDegrees>
            </Position>
            <AltitudeMeters>574.4000244140625</AltitudeMeters>
            <DistanceMeters>352730.22068821</DistanceMeters>
          </Trackpoint>
          <Trackpoint>
            <Time>2018-09-15T08:52:24.000Z</Time>
            <Position>
              <LatitudeDegrees>37.30392887257039546966552734375</LatitudeDegrees>
              <LongitudeDegrees>-7.95204640366137027740478515625</LongitudeDegrees>
            </Position>
            <AltitudeMeters>569.79998779296875</AltitudeMeters>
            <DistanceMeters>352793.71474848</DistanceMeters>
          </Trackpoint>
          <Trackpoint>
            <Time>2018-09-15T08:52:25.000Z</Time>
            <Position>
              <LatitudeDegrees>37.30388495139777660369873046875</LatitudeDegrees>
              <LongitudeDegrees>-7.9519894905388355255126953125</LongitudeDegrees>
            </Position>
            <AltitudeMeters>568.79998779296875</AltitudeMeters>
            <DistanceMeters>352800.73515852</DistanceMeters>
          </Trackpoint>
          <Trackpoint>
            <Time>2018-09-15T08:52:29.000Z</Time>
            <Position>
              <LatitudeDegrees>37.30369132943451404571533203125</LatitudeDegrees>
              <LongitudeDegrees>-7.9517682082951068878173828125</LongitudeDegrees>
            </Position>
            <AltitudeMeters>570.5999755859375</AltitudeMeters>
            <DistanceMeters>352829.85956754</DistanceMeters>
          </Trackpoint>
          <Trackpoint>
            <Time>2018-09-15T08:52:33.000Z</Time>
            <Position>
              <LatitudeDegrees>37.30343283154070377349853515625</LatitudeDegrees>
              <LongitudeDegrees>-7.95167089439928531646728515625</LongitudeDegrees>
            </Position>
            <AltitudeMeters>572.5999755859375</AltitudeMeters>
            <DistanceMeters>352859.89312104</DistanceMeters>
          </Trackpoint>
          <Trackpoint>
            <Time>2018-09-15T08:52:39.000Z</Time>
            <Position>
              <LatitudeDegrees>37.30303217656910419464111328125</LatitudeDegrees>
              <LongitudeDegrees>-7.95159294269979000091552734375</LongitudeDegrees>
            </Position>
            <AltitudeMeters>570.5999755859375</AltitudeMeters>
            <DistanceMeters>352905.01760473</DistanceMeters>
          </Trackpoint>
          <Trackpoint>
            <Time>2018-09-15T08:52:46.000Z</Time>
            <Position>
              <LatitudeDegrees>37.302627749741077423095703125</LatitudeDegrees>
              <LongitudeDegrees>-7.95128029771149158477783203125</LongitudeDegrees>
            </Position>
            <AltitudeMeters>569.4000244140625</AltitudeMeters>
            <DistanceMeters>352957.86074647</DistanceMeters>
          </Trackpoint>
          <Trackpoint>
            <Time>2018-09-15T08:52:51.000Z</Time>
            <Position>
              <LatitudeDegrees>37.3023590259253978729248046875</LatitudeDegrees>
              <LongitudeDegrees>-7.951031439006328582763671875</LongitudeDegrees>
            </Position>
            <AltitudeMeters>571</AltitudeMeters>
            <DistanceMeters>352995.00938618</DistanceMeters>
          </Trackpoint>
          <Trackpoint>
            <Time>2018-09-15T08:52:53.000Z</Time>
            <Position>
              <LatitudeDegrees>37.3022594489157199859619140625</LatitudeDegrees>
              <LongitudeDegrees>-7.95093194581568241119384765625</LongitudeDegrees>
            </Position>
            <AltitudeMeters>571.5999755859375</AltitudeMeters>
            <DistanceMeters>353009.16677212</DistanceMeters>
          </Trackpoint>
          <Trackpoint>
            <Time>2018-09-15T08:52:56.000Z</Time>
            <Position>
              <LatitudeDegrees>37.30211846530437469482421875</LatitudeDegrees>
              <LongitudeDegrees>-7.95078341849148273468017578125</LongitudeDegrees>
            </Position>
            <AltitudeMeters>570.4000244140625</AltitudeMeters>
            <DistanceMeters>353029.63968174</DistanceMeters>
          </Trackpoint>
          <Trackpoint>
            <Time>2018-09-15T08:52:59.000Z</Time>
            <Position>
              <LatitudeDegrees>37.30198410339653491973876953125</LatitudeDegrees>
              <LongitudeDegrees>-7.95066020451486110687255859375</LongitudeDegrees>
            </Position>
            <AltitudeMeters>568.79998779296875</AltitudeMeters>
            <DistanceMeters>353048.1501442</DistanceMeters>
          </Trackpoint>
          <Trackpoint>
            <Time>2018-09-15T08:53:09.000Z</Time>
            <Position>
              <LatitudeDegrees>37.3016645014286041259765625</LatitudeDegrees>
              <LongitudeDegrees>-7.95053162612020969390869140625</LongitudeDegrees>
            </Position>
            <AltitudeMeters>569.79998779296875</AltitudeMeters>
            <DistanceMeters>353085.49951152</DistanceMeters>
          </Trackpoint>
          <Trackpoint>
            <Time>2018-09-15T08:53:10.000Z</Time>
            <Position>
              <LatitudeDegrees>37.30163541622459888458251953125</LatitudeDegrees>
              <LongitudeDegrees>-7.95052659697830677032470703125</LongitudeDegrees>
            </Position>
            <AltitudeMeters>570</AltitudeMeters>
            <DistanceMeters>353088.76655152</DistanceMeters>
          </Trackpoint>
          <Trackpoint>
            <Time>2018-09-15T08:53:13.000Z</Time>
            <Position>
              <LatitudeDegrees>37.30155981145799160003662109375</LatitudeDegrees>
              <LongitudeDegrees>-7.9504753835499286651611328125</LongitudeDegrees>
            </Position>
            <AltitudeMeters>568.5999755859375</AltitudeMeters>
            <DistanceMeters>353098.3251243</DistanceMeters>
          </Trackpoint>
          <Trackpoint>
            <Time>2018-09-15T08:53:14.000Z</Time>
            <Position>
              <LatitudeDegrees>37.3015456460416316986083984375</LatitudeDegrees>
              <LongitudeDegrees>-7.950446717441082000732421875</LongitudeDegrees>
            </Position>
            <AltitudeMeters>568.4000244140625</AltitudeMeters>
            <DistanceMeters>353101.31204839</DistanceMeters>
          </Trackpoint>
          <Trackpoint>
            <Time>2018-09-15T08:53:22.000Z</Time>
            <Position>
              <LatitudeDegrees>37.30165536515414714813232421875</LatitudeDegrees>
              <LongitudeDegrees>-7.95022635720670223236083984375</LongitudeDegrees>
            </Position>
            <AltitudeMeters>570.5999755859375</AltitudeMeters>
            <DistanceMeters>353124.32853084</DistanceMeters>
          </Trackpoint>
          <Trackpoint>
            <Time>2018-09-15T08:53:24.000Z</Time>
            <Position>
              <LatitudeDegrees>37.30169157497584819793701171875</LatitudeDegrees>
              <LongitudeDegrees>-7.950223423540592193603515625</LongitudeDegrees>
            </Position>
            <AltitudeMeters>570.4000244140625</AltitudeMeters>
            <DistanceMeters>353128.3668867</DistanceMeters>
          </Trackpoint>
          <Trackpoint>
            <Time>2018-09-15T08:53:30.000Z</Time>
            <Position>
              <LatitudeDegrees>37.30174303986132144927978515625</LatitudeDegrees>
              <LongitudeDegrees>-7.95028385706245899200439453125</LongitudeDegrees>
            </Position>
            <AltitudeMeters>570</AltitudeMeters>
            <DistanceMeters>353136.20471868</DistanceMeters>
          </Trackpoint>
          <Trackpoint>
            <Time>2018-09-15T08:53:40.000Z</Time>
            <Position>
              <LatitudeDegrees>37.30179852806031703948974609375</LatitudeDegrees>
              <LongitudeDegrees>-7.9504908062517642974853515625</LongitudeDegrees>
            </Position>
            <AltitudeMeters>569.20001220703125</AltitudeMeters>
            <DistanceMeters>353155.54002821</DistanceMeters>
          </Trackpoint>
          <Trackpoint>
            <Time>2018-09-15T08:53:43.000Z</Time>
            <Position>
              <LatitudeDegrees>37.301870025694370269775390625</LatitudeDegrees>
              <LongitudeDegrees>-7.95056783594191074371337890625</LongitudeDegrees>
            </Position>
            <AltitudeMeters>568.5999755859375</AltitudeMeters>
            <DistanceMeters>353166.02057447</DistanceMeters>
          </Trackpoint>
          <Trackpoint>
            <Time>2018-09-15T08:53:46.000Z</Time>
            <Position>
              <LatitudeDegrees>37.3019690997898578643798828125</LatitudeDegrees>
              <LongitudeDegrees>-7.9506017826497554779052734375</LongitudeDegrees>
            </Position>
            <AltitudeMeters>568.4000244140625</AltitudeMeters>
            <DistanceMeters>353177.44988267</DistanceMeters>
          </Trackpoint>
          <Trackpoint>
            <Time>2018-09-15T08:53:52.000Z</Time>
            <Position>
              <LatitudeDegrees>37.30200589634478092193603515625</LatitudeDegrees>
              <LongitudeDegrees>-7.95039986260235309600830078125</LongitudeDegrees>
            </Position>
            <AltitudeMeters>568.4000244140625</AltitudeMeters>
            <DistanceMeters>353195.79003854</DistanceMeters>
          </Trackpoint>
          <Trackpoint>
            <Time>2018-09-15T08:53:53.000Z</Time>
            <Position>
              <LatitudeDegrees>37.30199617333710193634033203125</LatitudeDegrees>
              <LongitudeDegrees>-7.95036013238131999969482421875</LongitudeDegrees>
            </Position>
            <AltitudeMeters>568.5999755859375</AltitudeMeters>
            <DistanceMeters>353199.46918037</DistanceMeters>
          </Trackpoint>
          <Trackpoint>
            <Time>2018-09-15T08:53:58.000Z</Time>
            <Position>
              <LatitudeDegrees>37.30196549557149410247802734375</LatitudeDegrees>
              <LongitudeDegrees>-7.9502199031412601470947265625</LongitudeDegrees>
            </Position>
            <AltitudeMeters>569</AltitudeMeters>
            <DistanceMeters>353212.34556315</DistanceMeters>
          </Trackpoint>
          <Trackpoint>
            <Time>2018-09-15T08:54:00.000Z</Time>
            <Position>
              <LatitudeDegrees>37.30196951888501644134521484375</LatitudeDegrees>
              <LongitudeDegrees>-7.95021026395261287689208984375</LongitudeDegrees>
            </Position>
            <AltitudeMeters>569</AltitudeMeters>
            <DistanceMeters>353213.30997897</DistanceMeters>
          </Trackpoint>
          <Trackpoint>
            <Time>2018-09-15T08:54:07.000Z</Time>
            <Position>
              <LatitudeDegrees>37.30195895768702030181884765625</LatitudeDegrees>
              <LongitudeDegrees>-7.9502520896494388580322265625</LongitudeDegrees>
            </Position>
            <AltitudeMeters>569</AltitudeMeters>
            <DistanceMeters>353217.1956305</DistanceMeters>
          </Trackpoint>
          <Trackpoint>
            <Time>2018-09-15T08:54:09.000Z</Time>
            <Position>
              <LatitudeDegrees>37.30197471566498279571533203125</LatitudeDegrees>
              <LongitudeDegrees>-7.95031587593257427215576171875</LongitudeDegrees>
            </Position>
            <AltitudeMeters>568.79998779296875</AltitudeMeters>
            <DistanceMeters>353223.10870551</DistanceMeters>
          </Trackpoint>
          <Trackpoint>
            <Time>2018-09-15T08:54:11.000Z</Time>
            <Position>
              <LatitudeDegrees>37.3019996099174022674560546875</LatitudeDegrees>
              <LongitudeDegrees>-7.95039542019367218017578125</LongitudeDegrees>
            </Position>
            <AltitudeMeters>568.4000244140625</AltitudeMeters>
            <DistanceMeters>353230.67631707</DistanceMeters>
          </Trackpoint>
          <Trackpoint>
            <Time>2018-09-15T08:54:13.000Z</Time>
            <Position>
              <LatitudeDegrees>37.3020334728062152862548828125</LatitudeDegrees>
              <LongitudeDegrees>-7.95047588646411895751953125</LongitudeDegrees>
            </Position>
            <AltitudeMeters>568.20001220703125</AltitudeMeters>
            <DistanceMeters>353238.73624076</DistanceMeters>
          </Trackpoint>
          <Trackpoint>
            <Time>2018-09-15T08:54:16.000Z</Time>
            <Position>
              <LatitudeDegrees>37.30210798792541027069091796875</LatitudeDegrees>
              <LongitudeDegrees>-7.9506064765155315399169921875</LongitudeDegrees>
            </Position>
            <AltitudeMeters>569.20001220703125</AltitudeMeters>
            <DistanceMeters>353252.9648849</DistanceMeters>
          </Trackpoint>
          <Trackpoint>
            <Time>2018-09-15T08:54:19.000Z</Time>
            <Position>
              <LatitudeDegrees>37.302196584641933441162109375</LatitudeDegrees>
              <LongitudeDegrees>-7.95074687339365482330322265625</LongitudeDegrees>
            </Position>
            <AltitudeMeters>570.5999755859375</AltitudeMeters>
            <DistanceMeters>353268.83150083</DistanceMeters>
          </Trackpoint>
          <Trackpoint>
            <Time>2018-09-15T08:54:24.000Z</Time>
            <Position>
              <LatitudeDegrees>37.30234167538583278656005859375</LatitudeDegrees>
              <LongitudeDegrees>-7.95092943124473094940185546875</LongitudeDegrees>
            </Position>
            <AltitudeMeters>572.20001220703125</AltitudeMeters>
            <DistanceMeters>353291.67944864</DistanceMeters>
          </Trackpoint>
          <Trackpoint>
            <Time>2018-09-15T08:54:30.000Z</Time>
            <Position>
              <LatitudeDegrees>37.3024079762399196624755859375</LatitudeDegrees>
              <LongitudeDegrees>-7.95103521086275577545166015625</LongitudeDegrees>
            </Position>
            <AltitudeMeters>571.4000244140625</AltitudeMeters>
            <DistanceMeters>353303.60293486</DistanceMeters>
          </Trackpoint>
          <Trackpoint>
            <Time>2018-09-15T08:55:30.000Z</Time>
            <Position>
              <LatitudeDegrees>37.302370257675647735595703125</LatitudeDegrees>
              <LongitudeDegrees>-7.95099221169948577880859375</LongitudeDegrees>
            </Position>
            <AltitudeMeters>571.4000244140625</AltitudeMeters>
            <DistanceMeters>353309.27118079</DistanceMeters>
          </Trackpoint>
          <Trackpoint>
            <Time>2018-09-15T08:55:31.000Z</Time>
            <Position>
              <LatitudeDegrees>37.30235441587865352630615234375</LatitudeDegrees>
              <LongitudeDegrees>-7.95097636990249156951904296875</LongitudeDegrees>
            </Position>
            <AltitudeMeters>571.5999755859375</AltitudeMeters>
            <DistanceMeters>353311.52393532</DistanceMeters>
          </Trackpoint>
          <Trackpoint>
            <Time>2018-09-15T08:55:34.000Z</Time>
            <Position>
              <LatitudeDegrees>37.3022936470806598663330078125</LatitudeDegrees>
              <LongitudeDegrees>-7.95092440210282802581787109375</LongitudeDegrees>
            </Position>
            <AltitudeMeters>572</AltitudeMeters>
            <DistanceMeters>353319.70396383</DistanceMeters>
          </Trackpoint>
          <Trackpoint>
            <Time>2018-09-15T08:55:38.000Z</Time>
            <Position>
              <LatitudeDegrees>37.302178479731082916259765625</LatitudeDegrees>
              <LongitudeDegrees>-7.95080034993588924407958984375</LongitudeDegrees>
            </Position>
            <AltitudeMeters>570.79998779296875</AltitudeMeters>
            <DistanceMeters>353336.58398256</DistanceMeters>
          </Trackpoint>
          <Trackpoint>
            <Time>2018-09-15T08:55:41.000Z</Time>
            <Position>
              <LatitudeDegrees>37.3020985163748264312744140625</LatitudeDegrees>
              <LongitudeDegrees>-7.950676381587982177734375</LongitudeDegrees>
            </Position>
            <AltitudeMeters>569.5999755859375</AltitudeMeters>
            <DistanceMeters>353350.71455404</DistanceMeters>
          </Trackpoint>
          <Trackpoint>
            <Time>2018-09-15T08:55:43.000Z</Time>
            <Position>
              <LatitudeDegrees>37.30205677449703216552734375</LatitudeDegrees>
              <LongitudeDegrees>-7.95058610849082469940185546875</LongitudeDegrees>
            </Position>
            <AltitudeMeters>568.79998779296875</AltitudeMeters>
            <DistanceMeters>353359.95953503</DistanceMeters>
          </Trackpoint>
          <Trackpoint>
            <Time>2018-09-15T08:55:47.000Z</Time>
            <Position>
              <LatitudeDegrees>37.3019890487194061279296875</LatitudeDegrees>
              <LongitudeDegrees>-7.9503986053168773651123046875</LongitudeDegrees>
            </Position>
            <AltitudeMeters>568.5999755859375</AltitudeMeters>
            <DistanceMeters>353378.1915438</DistanceMeters>
          </Trackpoint>
          <Trackpoint>
            <Time>2018-09-15T08:55:55.000Z</Time>
            <Position>
              <LatitudeDegrees>37.30193079449236392974853515625</LatitudeDegrees>
              <LongitudeDegrees>-7.9501977749168872833251953125</LongitudeDegrees>
            </Position>
            <AltitudeMeters>569.20001220703125</AltitudeMeters>
            <DistanceMeters>353397.1176116</DistanceMeters>
          </Trackpoint>
          <Trackpoint>
            <Time>2018-09-15T08:56:02.000Z</Time>
            <Position>
              <LatitudeDegrees>37.30191403068602085113525390625</LatitudeDegrees>
              <LongitudeDegrees>-7.95011940412223339080810546875</LongitudeDegrees>
            </Position>
            <AltitudeMeters>569.5999755859375</AltitudeMeters>
            <DistanceMeters>353404.30266185</DistanceMeters>
          </Trackpoint>
          <Trackpoint>
            <Time>2018-09-15T08:56:05.000Z</Time>
            <Position>
              <LatitudeDegrees>37.30191336013376712799072265625</LatitudeDegrees>
              <LongitudeDegrees>-7.950089983642101287841796875</LongitudeDegrees>
            </Position>
            <AltitudeMeters>569.5999755859375</AltitudeMeters>
            <DistanceMeters>353406.90854317</DistanceMeters>
          </Trackpoint>
          <Trackpoint>
            <Time>2018-09-15T08:56:06.000Z</Time>
            <Position>
              <LatitudeDegrees>37.30190522968769073486328125</LatitudeDegrees>
              <LongitudeDegrees>-7.95007816515862941741943359375</LongitudeDegrees>
            </Position>
            <AltitudeMeters>569.5999755859375</AltitudeMeters>
            <DistanceMeters>353408.29215302</DistanceMeters>
          </Trackpoint>
          <Trackpoint>
            <Time>2018-09-15T08:56:10.000Z</Time>
            <Position>
              <LatitudeDegrees>37.30191537179052829742431640625</LatitudeDegrees>
              <LongitudeDegrees>-7.950147651135921478271484375</LongitudeDegrees>
            </Position>
            <AltitudeMeters>569.4000244140625</AltitudeMeters>
            <DistanceMeters>353414.54661472</DistanceMeters>
          </Trackpoint>
          <Trackpoint>
            <Time>2018-09-15T08:56:11.000Z</Time>
            <Position>
              <LatitudeDegrees>37.3019194789230823516845703125</LatitudeDegrees>
              <LongitudeDegrees>-7.9501709528267383575439453125</LongitudeDegrees>
            </Position>
            <AltitudeMeters>569.4000244140625</AltitudeMeters>
            <DistanceMeters>353416.658689</DistanceMeters>
          </Trackpoint>
          <Trackpoint>
            <Time>2018-09-15T08:56:23.000Z</Time>
            <Position>
              <LatitudeDegrees>37.301988042891025543212890625</LatitudeDegrees>
              <LongitudeDegrees>-7.95042584650218486785888671875</LongitudeDegrees>
            </Position>
            <AltitudeMeters>568.4000244140625</AltitudeMeters>
            <DistanceMeters>353440.48141438</DistanceMeters>
          </Trackpoint>
          <Trackpoint>
            <Time>2018-09-15T08:56:28.000Z</Time>
            <Position>
              <LatitudeDegrees>37.30196666903793811798095703125</LatitudeDegrees>
              <LongitudeDegrees>-7.95030045323073863983154296875</LongitudeDegrees>
            </Position>
            <AltitudeMeters>568.79998779296875</AltitudeMeters>
            <DistanceMeters>353451.83541681</DistanceMeters>
          </Trackpoint>
          <Trackpoint>
            <Time>2018-09-15T08:56:31.000Z</Time>
            <Position>
              <LatitudeDegrees>37.30190849862992763519287109375</LatitudeDegrees>
              <LongitudeDegrees>-7.95015393756330013275146484375</LongitudeDegrees>
            </Position>
            <AltitudeMeters>569.4000244140625</AltitudeMeters>
            <DistanceMeters>353466.33314282</DistanceMeters>
          </Trackpoint>
          <Trackpoint>
            <Time>2018-09-15T08:56:40.000Z</Time>
            <Position>
              <LatitudeDegrees>37.30163122527301311492919921875</LatitudeDegrees>
              <LongitudeDegrees>-7.94955320656299591064453125</LongitudeDegrees>
            </Position>
            <AltitudeMeters>564.79998779296875</AltitudeMeters>
            <DistanceMeters>353527.82431218</DistanceMeters>
          </Trackpoint>
          <Trackpoint>
            <Time>2018-09-15T08:56:43.000Z</Time>
            <Position>
              <LatitudeDegrees>37.30148755945265293121337890625</LatitudeDegrees>
              <LongitudeDegrees>-7.94931708835065364837646484375</LongitudeDegrees>
            </Position>
            <AltitudeMeters>561.4000244140625</AltitudeMeters>
            <DistanceMeters>353554.14362437</DistanceMeters>
          </Trackpoint>
          <Trackpoint>
            <Time>2018-09-15T08:56:46.000Z</Time>
            <Position>
              <LatitudeDegrees>37.30133115313947200775146484375</LatitudeDegrees>
              <LongitudeDegrees>-7.94905833899974822998046875</LongitudeDegrees>
            </Position>
            <AltitudeMeters>560.20001220703125</AltitudeMeters>
            <DistanceMeters>353582.91616941</DistanceMeters>
          </Trackpoint>
          <Trackpoint>
            <Time>2018-09-15T08:56:48.000Z</Time>
            <Position>
              <LatitudeDegrees>37.301215231418609619140625</LatitudeDegrees>
              <LongitudeDegrees>-7.9488730989396572113037109375</LongitudeDegrees>
            </Position>
            <AltitudeMeters>558.5999755859375</AltitudeMeters>
            <DistanceMeters>353603.78313579</DistanceMeters>
          </Trackpoint>
          <Trackpoint>
            <Time>2018-09-15T08:56:50.000Z</Time>
            <Position>
              <LatitudeDegrees>37.30109713040292263031005859375</LatitudeDegrees>
              <LongitudeDegrees>-7.94868492521345615386962890625</LongitudeDegrees>
            </Position>
            <AltitudeMeters>559.20001220703125</AltitudeMeters>
            <DistanceMeters>353625.00453943</DistanceMeters>
          </Trackpoint>
          <Trackpoint>
            <Time>2018-09-15T08:56:52.000Z</Time>
            <Position>
              <LatitudeDegrees>37.3009778559207916259765625</LatitudeDegrees>
              <LongitudeDegrees>-7.948490716516971588134765625</LongitudeDegrees>
            </Position>
            <AltitudeMeters>560</AltitudeMeters>
            <DistanceMeters>353646.72765465</DistanceMeters>
          </Trackpoint>
          <Trackpoint>
            <Time>2018-09-15T08:56:54.000Z</Time>
            <Position>
              <LatitudeDegrees>37.30085304938256740570068359375</LatitudeDegrees>
              <LongitudeDegrees>-7.94829122722148895263671875</LongitudeDegrees>
            </Position>
            <AltitudeMeters>560.4000244140625</AltitudeMeters>
            <DistanceMeters>353669.1982077</DistanceMeters>
          </Trackpoint>
          <Trackpoint>
            <Time>2018-09-15T08:56:56.000Z</Time>
            <Position>
              <LatitudeDegrees>37.30072530917823314666748046875</LatitudeDegrees>
              <LongitudeDegrees>-7.94808737933635711669921875</LongitudeDegrees>
            </Position>
            <AltitudeMeters>559.79998779296875</AltitudeMeters>
            <DistanceMeters>353692.17385152</DistanceMeters>
          </Trackpoint>
          <Trackpoint>
            <Time>2018-09-15T08:56:58.000Z</Time>
            <Position>
              <LatitudeDegrees>37.30059689842164516448974609375</LatitudeDegrees>
              <LongitudeDegrees>-7.94788059778511524200439453125</LongitudeDegrees>
            </Position>
            <AltitudeMeters>557.79998779296875</AltitudeMeters>
            <DistanceMeters>353715.39967135</DistanceMeters>
          </Trackpoint>
          <Trackpoint>
            <Time>2018-09-15T08:57:00.000Z</Time>
            <Position>
              <LatitudeDegrees>37.300463207066059112548828125</LatitudeDegrees>
              <LongitudeDegrees>-7.94767557643353939056396484375</LongitudeDegrees>
            </Position>
            <AltitudeMeters>557.4000244140625</AltitudeMeters>
            <DistanceMeters>353738.87107743</DistanceMeters>
          </Trackpoint>
          <Trackpoint>
            <Time>2018-09-15T08:57:01.000Z</Time>
            <Position>
              <LatitudeDegrees>37.300387434661388397216796875</LatitudeDegrees>
              <LongitudeDegrees>-7.94757935218513011932373046875</LongitudeDegrees>
            </Position>
            <AltitudeMeters>557.4000244140625</AltitudeMeters>
            <DistanceMeters>353750.85838766</DistanceMeters>
          </Trackpoint>
          <Trackpoint>
            <Time>2018-09-15T08:57:02.000Z</Time>
            <Position>
              <LatitudeDegrees>37.300301603972911834716796875</LatitudeDegrees>
              <LongitudeDegrees>-7.94749704189598560333251953125</LongitudeDegrees>
            </Position>
            <AltitudeMeters>557.4000244140625</AltitudeMeters>
            <DistanceMeters>353762.87391354</DistanceMeters>
          </Trackpoint>
          <Trackpoint>
            <Time>2018-09-15T08:57:04.000Z</Time>
            <Position>
              <LatitudeDegrees>37.30011091567575931549072265625</LatitudeDegrees>
              <LongitudeDegrees>-7.94736159034073352813720703125</LongitudeDegrees>
            </Position>
            <AltitudeMeters>557.5999755859375</AltitudeMeters>
            <DistanceMeters>353787.25192394</DistanceMeters>
          </Trackpoint>
          <Trackpoint>
            <Time>2018-09-15T08:57:06.000Z</Time>
            <Position>
              <LatitudeDegrees>37.2999162040650844573974609375</LatitudeDegrees>
              <LongitudeDegrees>-7.9472379572689533233642578125</LongitudeDegrees>
            </Position>
            <AltitudeMeters>558.79998779296875</AltitudeMeters>
            <DistanceMeters>353811.53138893</DistanceMeters>
          </Trackpoint>
          <Trackpoint>
            <Time>2018-09-15T08:57:08.000Z</Time>
            <Position>
              <LatitudeDegrees>37.299718223512172698974609375</LatitudeDegrees>
              <LongitudeDegrees>-7.9471132345497608184814453125</LongitudeDegrees>
            </Position>
            <AltitudeMeters>557.20001220703125</AltitudeMeters>
            <DistanceMeters>353836.1790546</DistanceMeters>
          </Trackpoint>
          <Trackpoint>
            <Time>2018-09-15T08:57:10.000Z</Time>
            <Position>
              <LatitudeDegrees>37.29951714165508747100830078125</LatitudeDegrees>
              <LongitudeDegrees>-7.94698792509734630584716796875</LongitudeDegrees>
            </Position>
            <AltitudeMeters>556.5999755859375</AltitudeMeters>
            <DistanceMeters>353861.15897338</DistanceMeters>
          </Trackpoint>
          <Trackpoint>
            <Time>2018-09-15T08:57:12.000Z</Time>
            <Position>
              <LatitudeDegrees>37.29931731708347797393798828125</LatitudeDegrees>
              <LongitudeDegrees>-7.9468617774546146392822265625</LongitudeDegrees>
            </Position>
            <AltitudeMeters>556.20001220703125</AltitudeMeters>
            <DistanceMeters>353886.04654063</DistanceMeters>
          </Trackpoint>
          <Trackpoint>
            <Time>2018-09-15T08:57:13.000Z</Time>
            <Position>
              <LatitudeDegrees>37.29921857826411724090576171875</LatitudeDegrees>
              <LongitudeDegrees>-7.94679849408566951751708984375</LongitudeDegrees>
            </Position>
            <AltitudeMeters>556</AltitudeMeters>
            <DistanceMeters>353898.38245763</DistanceMeters>
          </Trackpoint>
          <Trackpoint>
            <Time>2018-09-15T08:57:15.000Z</Time>
            <Position>
              <LatitudeDegrees>37.29902587831020355224609375</LatitudeDegrees>
              <LongitudeDegrees>-7.94666714966297149658203125</LongitudeDegrees>
            </Position>
            <AltitudeMeters>554.79998779296875</AltitudeMeters>
            <DistanceMeters>353922.78009233</DistanceMeters>
          </Trackpoint>
          <Trackpoint>
            <Time>2018-09-15T08:57:17.000Z</Time>
            <Position>
              <LatitudeDegrees>37.2988322563469409942626953125</LatitudeDegrees>
              <LongitudeDegrees>-7.9465271718800067901611328125</LongitudeDegrees>
            </Position>
            <AltitudeMeters>552.4000244140625</AltitudeMeters>
            <DistanceMeters>353947.64006883</DistanceMeters>
          </Trackpoint>
          <Trackpoint>
            <Time>2018-09-15T08:57:19.000Z</Time>
            <Position>
              <LatitudeDegrees>37.29863922111690044403076171875</LatitudeDegrees>
              <LongitudeDegrees>-7.9463799856603145599365234375</LongitudeDegrees>
            </Position>
            <AltitudeMeters>550</AltitudeMeters>
            <DistanceMeters>353972.76866122</DistanceMeters>
          </Trackpoint>
          <Trackpoint>
            <Time>2018-09-15T08:57:22.000Z</Time>
            <Position>
              <LatitudeDegrees>37.29834686033427715301513671875</LatitudeDegrees>
              <LongitudeDegrees>-7.94615359045565128326416015625</LongitudeDegrees>
            </Position>
            <AltitudeMeters>545.20001220703125</AltitudeMeters>
            <DistanceMeters>354010.98736143</DistanceMeters>
          </Trackpoint>
          <Trackpoint>
            <Time>2018-09-15T08:57:25.000Z</Time>
            <Position>
              <LatitudeDegrees>37.2980564273893833160400390625</LatitudeDegrees>
              <LongitudeDegrees>-7.94592954218387603759765625</LongitudeDegrees>
            </Position>
            <AltitudeMeters>542.4000244140625</AltitudeMeters>
            <DistanceMeters>354048.91456957</DistanceMeters>
          </Trackpoint>
          <Trackpoint>
            <Time>2018-09-15T08:57:28.000Z</Time>
            <Position>
              <LatitudeDegrees>37.29775241576135158538818359375</LatitudeDegrees>
              <LongitudeDegrees>-7.94571924023330211639404296875</LongitudeDegrees>
            </Position>
            <AltitudeMeters>539.79998779296875</AltitudeMeters>
            <DistanceMeters>354087.53658748</DistanceMeters>
          </Trackpoint>
          <Trackpoint>
            <Time>2018-09-15T08:57:30.000Z</Time>
            <Position>
              <LatitudeDegrees>37.29754404164850711822509765625</LatitudeDegrees>
              <LongitudeDegrees>-7.94559099711477756500244140625</LongitudeDegrees>
            </Position>
            <AltitudeMeters>539.5999755859375</AltitudeMeters>
            <DistanceMeters>354113.35938681</DistanceMeters>
          </Trackpoint>
          <Trackpoint>
            <Time>2018-09-15T08:57:32.000Z</Time>
            <Position>
              <LatitudeDegrees>37.29733667336404323577880859375</LatitudeDegrees>
              <LongitudeDegrees>-7.94546644203364849090576171875</LongitudeDegrees>
            </Position>
            <AltitudeMeters>538.4000244140625</AltitudeMeters>
            <DistanceMeters>354138.93922983</DistanceMeters>
          </Trackpoint>
          <Trackpoint>
            <Time>2018-09-15T08:57:34.000Z</Time>
            <Position>
              <LatitudeDegrees>37.29713357985019683837890625</LatitudeDegrees>
              <LongitudeDegrees>-7.945340462028980255126953125</LongitudeDegrees>
            </Position>
            <AltitudeMeters>537.20001220703125</AltitudeMeters>
            <DistanceMeters>354164.14621892</DistanceMeters>
          </Trackpoint>
          <Trackpoint>
            <Time>2018-09-15T08:57:36.000Z</Time>
            <Position>
              <LatitudeDegrees>37.29694104753434658050537109375</LatitudeDegrees>
              <LongitudeDegrees>-7.9451899230480194091796875</LongitudeDegrees>
            </Position>
            <AltitudeMeters>538.5999755859375</AltitudeMeters>
            <DistanceMeters>354189.38256635</DistanceMeters>
          </Trackpoint>
          <Trackpoint>
            <Time>2018-09-15T08:57:38.000Z</Time>
            <Position>
              <LatitudeDegrees>37.2967847250401973724365234375</LatitudeDegrees>
              <LongitudeDegrees>-7.94498900882899761199951171875</LongitudeDegrees>
            </Position>
            <AltitudeMeters>539.20001220703125</AltitudeMeters>
            <DistanceMeters>354214.26614209</DistanceMeters>
          </Trackpoint>
          <Trackpoint>
            <Time>2018-09-15T08:57:41.000Z</Time>
            <Position>
              <LatitudeDegrees>37.29664617218077182769775390625</LatitudeDegrees>
              <LongitudeDegrees>-7.94460394419729709625244140625</LongitudeDegrees>
            </Position>
            <AltitudeMeters>540.4000244140625</AltitudeMeters>
            <DistanceMeters>354251.68567861</DistanceMeters>
          </Trackpoint>
          <Trackpoint>
            <Time>2018-09-15T08:57:42.000Z</Time>
            <Position>
              <LatitudeDegrees>37.29659847915172576904296875</LatitudeDegrees>
              <LongitudeDegrees>-7.9444823227822780609130859375</LongitudeDegrees>
            </Position>
            <AltitudeMeters>540.5999755859375</AltitudeMeters>
            <DistanceMeters>354263.6910545</DistanceMeters>
          </Trackpoint>
          <Trackpoint>
            <Time>2018-09-15T08:57:44.000Z</Time>
            <Position>
              <LatitudeDegrees>37.2964615188539028167724609375</LatitudeDegrees>
              <LongitudeDegrees>-7.94427051208913326263427734375</LongitudeDegrees>
            </Position>
            <AltitudeMeters>539.5999755859375</AltitudeMeters>
            <DistanceMeters>354287.85905885</DistanceMeters>
          </Trackpoint>
          <Trackpoint>
            <Time>2018-09-15T08:57:47.000Z</Time>
            <Position>
              <LatitudeDegrees>37.29618265293538570404052734375</LatitudeDegrees>
              <LongitudeDegrees>-7.94405627064406871795654296875</LongitudeDegrees>
            </Position>
            <AltitudeMeters>535.79998779296875</AltitudeMeters>
            <DistanceMeters>354324.23505673</DistanceMeters>
          </Trackpoint>
          <Trackpoint>
            <Time>2018-09-15T08:57:48.000Z</Time>
            <Position>
              <LatitudeDegrees>37.29608617722988128662109375</LatitudeDegrees>
              <LongitudeDegrees>-7.94399860315024852752685546875</LongitudeDegrees>
            </Position>
            <AltitudeMeters>534.5999755859375</AltitudeMeters>
            <DistanceMeters>354336.12479376</DistanceMeters>
          </Trackpoint>
          <Trackpoint>
            <Time>2018-09-15T08:57:50.000Z</Time>
            <Position>
              <LatitudeDegrees>37.29589414782822132110595703125</LatitudeDegrees>
              <LongitudeDegrees>-7.94389265589416027069091796875</LongitudeDegrees>
            </Position>
            <AltitudeMeters>534.79998779296875</AltitudeMeters>
            <DistanceMeters>354359.4658</DistanceMeters>
          </Trackpoint>
          <Trackpoint>
            <Time>2018-09-15T08:57:52.000Z</Time>
            <Position>
              <LatitudeDegrees>37.29570890776813030242919921875</LatitudeDegrees>
              <LongitudeDegrees>-7.9437805898487567901611328125</LongitudeDegrees>
            </Position>
            <AltitudeMeters>534.20001220703125</AltitudeMeters>
            <DistanceMeters>354382.34652796</DistanceMeters>
          </Trackpoint>
          <Trackpoint>
            <Time>2018-09-15T08:57:55.000Z</Time>
            <Position>
              <LatitudeDegrees>37.29545929469168186187744140625</LatitudeDegrees>
              <LongitudeDegrees>-7.94355436228215694427490234375</LongitudeDegrees>
            </Position>
            <AltitudeMeters>532.4000244140625</AltitudeMeters>
            <DistanceMeters>354416.59703497</DistanceMeters>
          </Trackpoint>
          <Trackpoint>
            <Time>2018-09-15T08:57:58.000Z</Time>
            <Position>
              <LatitudeDegrees>37.29523315094411373138427734375</LatitudeDegrees>
              <LongitudeDegrees>-7.943278513848781585693359375</LongitudeDegrees>
            </Position>
            <AltitudeMeters>530</AltitudeMeters>
            <DistanceMeters>354451.66974621</DistanceMeters>
          </Trackpoint>
          <Trackpoint>
            <Time>2018-09-15T08:58:01.000Z</Time>
            <Position>
              <LatitudeDegrees>37.2949926741421222686767578125</LatitudeDegrees>
              <LongitudeDegrees>-7.94301305897533893585205078125</LongitudeDegrees>
            </Position>
            <AltitudeMeters>529.4000244140625</AltitudeMeters>
            <DistanceMeters>354487.29069737</DistanceMeters>
          </Trackpoint>
          <Trackpoint>
            <Time>2018-09-15T08:58:03.000Z</Time>
            <Position>
              <LatitudeDegrees>37.29479980655014514923095703125</LatitudeDegrees>
              <LongitudeDegrees>-7.94288481585681438446044921875</LongitudeDegrees>
            </Position>
            <AltitudeMeters>529</AltitudeMeters>
            <DistanceMeters>354511.57555464</DistanceMeters>
          </Trackpoint>
          <Trackpoint>
            <Time>2018-09-15T08:58:05.000Z</Time>
            <Position>
              <LatitudeDegrees>37.29459595866501331329345703125</LatitudeDegrees>
              <LongitudeDegrees>-7.9427978955209255218505859375</LongitudeDegrees>
            </Position>
            <AltitudeMeters>529</AltitudeMeters>
            <DistanceMeters>354535.5339736</DistanceMeters>
          </Trackpoint>
          <Trackpoint>
            <Time>2018-09-15T08:58:06.000Z</Time>
            <Position>
              <LatitudeDegrees>37.29449562728404998779296875</LatitudeDegrees>
              <LongitudeDegrees>-7.94275774620473384857177734375</LongitudeDegrees>
            </Position>
            <AltitudeMeters>529.20001220703125</AltitudeMeters>
            <DistanceMeters>354547.25273644</DistanceMeters>
          </Trackpoint>
          <Trackpoint>
            <Time>2018-09-15T08:58:08.000Z</Time>
            <Position>
              <LatitudeDegrees>37.29430393315851688385009765625</LatitudeDegrees>
              <LongitudeDegrees>-7.94268197380006313323974609375</LongitudeDegrees>
            </Position>
            <AltitudeMeters>529.4000244140625</AltitudeMeters>
            <DistanceMeters>354569.61856115</DistanceMeters>
          </Trackpoint>
          <Trackpoint>
            <Time>2018-09-15T08:58:11.000Z</Time>
            <Position>
              <LatitudeDegrees>37.294037640094757080078125</LatitudeDegrees>
              <LongitudeDegrees>-7.9425870068371295928955078125</LongitudeDegrees>
            </Position>
            <AltitudeMeters>529.79998779296875</AltitudeMeters>
            <DistanceMeters>354600.42730058</DistanceMeters>
          </Trackpoint>
          <Trackpoint>
            <Time>2018-09-15T08:58:13.000Z</Time>
            <Position>
              <LatitudeDegrees>37.29385851882398128509521484375</LatitudeDegrees>
              <LongitudeDegrees>-7.942523472011089324951171875</LongitudeDegrees>
            </Position>
            <AltitudeMeters>530.4000244140625</AltitudeMeters>
            <DistanceMeters>354621.14247044</DistanceMeters>
          </Trackpoint>
          <Trackpoint>
            <Time>2018-09-15T08:58:14.000Z</Time>
            <Position>
              <LatitudeDegrees>37.29376665316522121429443359375</LatitudeDegrees>
              <LongitudeDegrees>-7.94249069876968860626220703125</LongitudeDegrees>
            </Position>
            <AltitudeMeters>530.79998779296875</AltitudeMeters>
            <DistanceMeters>354631.77145376</DistanceMeters>
          </Trackpoint>
          <Trackpoint>
            <Time>2018-09-15T08:58:17.000Z</Time>
            <Position>
              <LatitudeDegrees>37.29348686523735523223876953125</LatitudeDegrees>
              <LongitudeDegrees>-7.9423774592578411102294921875</LongitudeDegrees>
            </Position>
            <AltitudeMeters>532.20001220703125</AltitudeMeters>
            <DistanceMeters>354664.48687582</DistanceMeters>
          </Trackpoint>
          <Trackpoint>
            <Time>2018-09-15T08:58:18.000Z</Time>
            <Position>
              <LatitudeDegrees>37.29339583776891231536865234375</LatitudeDegrees>
              <LongitudeDegrees>-7.94232708401978015899658203125</LongitudeDegrees>
            </Position>
            <AltitudeMeters>531</AltitudeMeters>
            <DistanceMeters>354675.55738609</DistanceMeters>
          </Trackpoint>
          <Trackpoint>
            <Time>2018-09-15T08:58:20.000Z</Time>
            <Position>
              <LatitudeDegrees>37.29322250001132488250732421875</LatitudeDegrees>
              <LongitudeDegrees>-7.94218760915100574493408203125</LongitudeDegrees>
            </Position>
            <AltitudeMeters>529.4000244140625</AltitudeMeters>
            <DistanceMeters>354698.46454091</DistanceMeters>
          </Trackpoint>
          <Trackpoint>
            <Time>2018-09-15T08:58:22.000Z</Time>
            <Position>
              <LatitudeDegrees>37.2930626571178436279296875</LatitudeDegrees>
              <LongitudeDegrees>-7.94200656004250049591064453125</LongitudeDegrees>
            </Position>
            <AltitudeMeters>528.5999755859375</AltitudeMeters>
            <DistanceMeters>354722.41240418</DistanceMeters>
          </Trackpoint>
          <Trackpoint>
            <Time>2018-09-15T08:58:26.000Z</Time>
            <Position>
              <LatitudeDegrees>37.29274104349315166473388671875</LatitudeDegrees>
              <LongitudeDegrees>-7.94162820093333721160888671875</LongitudeDegrees>
            </Position>
            <AltitudeMeters>524</AltitudeMeters>
            <DistanceMeters>354771.44066367</DistanceMeters>
          </Trackpoint>
          <Trackpoint>
            <Time>2018-09-15T08:58:28.000Z</Time>
            <Position>
              <LatitudeDegrees>37.2925810329616069793701171875</LatitudeDegrees>
              <LongitudeDegrees>-7.94143524952232837677001953125</LongitudeDegrees>
            </Position>
            <AltitudeMeters>521.5999755859375</AltitudeMeters>
            <DistanceMeters>354796.11999968</DistanceMeters>
          </Trackpoint>
          <Trackpoint>
            <Time>2018-09-15T08:58:30.000Z</Time>
            <Position>
              <LatitudeDegrees>37.292417585849761962890625</LatitudeDegrees>
              <LongitudeDegrees>-7.94124506413936614990234375</LongitudeDegrees>
            </Position>
            <AltitudeMeters>519.4000244140625</AltitudeMeters>
            <DistanceMeters>354820.90977222</DistanceMeters>
          </Trackpoint>
          <Trackpoint>
            <Time>2018-09-15T08:58:32.000Z</Time>
            <Position>
              <LatitudeDegrees>37.2922524623572826385498046875</LatitudeDegrees>
              <LongitudeDegrees>-7.941057980060577392578125</LongitudeDegrees>
            </Position>
            <AltitudeMeters>518</AltitudeMeters>
            <DistanceMeters>354845.65214483</DistanceMeters>
          </Trackpoint>
          <Trackpoint>
            <Time>2018-09-15T08:58:34.000Z</Time>
            <Position>
              <LatitudeDegrees>37.29209580458700656890869140625</LatitudeDegrees>
              <LongitudeDegrees>-7.9408737458288669586181640625</LongitudeDegrees>
            </Position>
            <AltitudeMeters>519.20001220703125</AltitudeMeters>
            <DistanceMeters>354869.52976964</DistanceMeters>
          </Trackpoint>
          <Trackpoint>
            <Time>2018-09-15T08:58:37.000Z</Time>
            <Position>
              <LatitudeDegrees>37.29187854565680027008056640625</LatitudeDegrees>
              <LongitudeDegrees>-7.9406216181814670562744140625</LongitudeDegrees>
            </Position>
            <AltitudeMeters>521.20001220703125</AltitudeMeters>
            <DistanceMeters>354902.44113044</DistanceMeters>
          </Trackpoint>
          <Trackpoint>
            <Time>2018-09-15T08:58:40.000Z</Time>
            <Position>
              <LatitudeDegrees>37.291675619781017303466796875</LatitudeDegrees>
              <LongitudeDegrees>-7.9403852485120296478271484375</LongitudeDegrees>
            </Position>
            <AltitudeMeters>520.5999755859375</AltitudeMeters>
            <DistanceMeters>354933.23374508</DistanceMeters>
          </Trackpoint>
          <Trackpoint>
            <Time>2018-09-15T08:58:43.000Z</Time>
            <Position>
              <LatitudeDegrees>37.29148023761808872222900390625</LatitudeDegrees>
              <LongitudeDegrees>-7.94016002677381038665771484375</LongitudeDegrees>
            </Position>
            <AltitudeMeters>520.79998779296875</AltitudeMeters>
            <DistanceMeters>354962.74011372</DistanceMeters>
          </Trackpoint>
          <Trackpoint>
            <Time>2018-09-15T08:58:47.000Z</Time>
            <Position>
              <LatitudeDegrees>37.29123146273195743560791015625</LatitudeDegrees>
              <LongitudeDegrees>-7.9398669116199016571044921875</LongitudeDegrees>
            </Position>
            <AltitudeMeters>522</AltitudeMeters>
            <DistanceMeters>355000.69195614</DistanceMeters>
          </Trackpoint>
          <Trackpoint>
            <Time>2018-09-15T08:58:52.000Z</Time>
            <Position>
              <LatitudeDegrees>37.290942035615444183349609375</LatitudeDegrees>
              <LongitudeDegrees>-7.93954177759587764739990234375</LongitudeDegrees>
            </Position>
            <AltitudeMeters>522.5999755859375</AltitudeMeters>
            <DistanceMeters>355043.8962048</DistanceMeters>
          </Trackpoint>
          <Trackpoint>
            <Time>2018-09-15T08:58:54.000Z</Time>
            <Position>
              <LatitudeDegrees>37.2908208332955837249755859375</LatitudeDegrees>
              <LongitudeDegrees>-7.939431555569171905517578125</LongitudeDegrees>
            </Position>
            <AltitudeMeters>522.20001220703125</AltitudeMeters>
            <DistanceMeters>355060.54677257</DistanceMeters>
          </Trackpoint>
          <Trackpoint>
            <Time>2018-09-15T08:58:57.000Z</Time>
            <Position>
              <LatitudeDegrees>37.29061556048691272735595703125</LatitudeDegrees>
              <LongitudeDegrees>-7.9393026418983936309814453125</LongitudeDegrees>
            </Position>
            <AltitudeMeters>521.5999755859375</AltitudeMeters>
            <DistanceMeters>355086.08704727</DistanceMeters>
          </Trackpoint>
          <Trackpoint>
            <Time>2018-09-15T08:59:04.000Z</Time>
            <Position>
              <LatitudeDegrees>37.290065623819828033447265625</LatitudeDegrees>
              <LongitudeDegrees>-7.93903358280658721923828125</LongitudeDegrees>
            </Position>
            <AltitudeMeters>519.5999755859375</AltitudeMeters>
            <DistanceMeters>355151.769482</DistanceMeters>
          </Trackpoint>
          <Trackpoint>
            <Time>2018-09-15T08:59:11.000Z</Time>
            <Position>
              <LatitudeDegrees>37.28947847150266170501708984375</LatitudeDegrees>
              <LongitudeDegrees>-7.93876209296286106109619140625</LongitudeDegrees>
            </Position>
            <AltitudeMeters>514.5999755859375</AltitudeMeters>
            <DistanceMeters>355221.40221573</DistanceMeters>
          </Trackpoint>
          <Trackpoint>
            <Time>2018-09-15T08:59:13.000Z</Time>
            <Position>
              <LatitudeDegrees>37.2893040440976619720458984375</LatitudeDegrees>
              <LongitudeDegrees>-7.93870224617421627044677734375</LongitudeDegrees>
            </Position>
            <AltitudeMeters>513.5999755859375</AltitudeMeters>
            <DistanceMeters>355241.52657655</DistanceMeters>
          </Trackpoint>
          <Trackpoint>
            <Time>2018-09-15T08:59:15.000Z</Time>
            <Position>
              <LatitudeDegrees>37.289115451276302337646484375</LatitudeDegrees>
              <LongitudeDegrees>-7.93869654648005962371826171875</LongitudeDegrees>
            </Position>
            <AltitudeMeters>512.5999755859375</AltitudeMeters>
            <DistanceMeters>355262.52339517</DistanceMeters>
          </Trackpoint>
          <Trackpoint>
            <Time>2018-09-15T08:59:17.000Z</Time>
            <Position>
              <LatitudeDegrees>37.2889292053878307342529296875</LatitudeDegrees>
              <LongitudeDegrees>-7.9387594945728778839111328125</LongitudeDegrees>
            </Position>
            <AltitudeMeters>512.79998779296875</AltitudeMeters>
            <DistanceMeters>355283.98933891</DistanceMeters>
          </Trackpoint>
          <Trackpoint>
            <Time>2018-09-15T08:59:19.000Z</Time>
            <Position>
              <LatitudeDegrees>37.28875494562089443206787109375</LatitudeDegrees>
              <LongitudeDegrees>-7.938863933086395263671875</LongitudeDegrees>
            </Position>
            <AltitudeMeters>513</AltitudeMeters>
            <DistanceMeters>355305.47693624</DistanceMeters>
          </Trackpoint>
          <Trackpoint>
            <Time>2018-09-15T08:59:20.000Z</Time>
            <Position>
              <LatitudeDegrees>37.28867012076079845428466796875</LatitudeDegrees>
              <LongitudeDegrees>-7.9389187507331371307373046875</LongitudeDegrees>
            </Position>
            <AltitudeMeters>513</AltitudeMeters>
            <DistanceMeters>355316.09274304</DistanceMeters>
          </Trackpoint>
          <Trackpoint>
            <Time>2018-09-15T08:59:24.000Z</Time>
            <Position>
              <LatitudeDegrees>37.28836099617183208465576171875</LatitudeDegrees>
              <LongitudeDegrees>-7.93914145790040493011474609375</LongitudeDegrees>
            </Position>
            <AltitudeMeters>513</AltitudeMeters>
            <DistanceMeters>355355.75009045</DistanceMeters>
          </Trackpoint>
          <Trackpoint>
            <Time>2018-09-15T08:59:25.000Z</Time>
            <Position>
              <LatitudeDegrees>37.2882883250713348388671875</LatitudeDegrees>
              <LongitudeDegrees>-7.93919744901359081268310546875</LongitudeDegrees>
            </Position>
            <AltitudeMeters>513.20001220703125</AltitudeMeters>
            <DistanceMeters>355365.23754543</DistanceMeters>
          </Trackpoint>
          <Trackpoint>
            <Time>2018-09-15T08:59:27.000Z</Time>
            <Position>
              <LatitudeDegrees>37.288159914314746856689453125</LatitudeDegrees>
              <LongitudeDegrees>-7.93932669796049594879150390625</LongitudeDegrees>
            </Position>
            <AltitudeMeters>513.5999755859375</AltitudeMeters>
            <DistanceMeters>355383.5478889</DistanceMeters>
          </Trackpoint>
          <Trackpoint>
            <Time>2018-09-15T08:59:31.000Z</Time>
            <Position>
              <LatitudeDegrees>37.28803058154881000518798828125</LatitudeDegrees>
              <LongitudeDegrees>-7.93963037431240081787109375</LongitudeDegrees>
            </Position>
            <AltitudeMeters>513</AltitudeMeters>
            <DistanceMeters>355414.04924388</DistanceMeters>
          </Trackpoint>
          <Trackpoint>
            <Time>2018-09-15T08:59:35.000Z</Time>
            <Position>
              <LatitudeDegrees>37.28795095346868038177490234375</LatitudeDegrees>
              <LongitudeDegrees>-7.93991896323859691619873046875</LongitudeDegrees>
            </Position>
            <AltitudeMeters>511.79998779296875</AltitudeMeters>
            <DistanceMeters>355441.09765961</DistanceMeters>
          </Trackpoint>
          <Trackpoint>
            <Time>2018-09-15T08:59:38.000Z</Time>
            <Position>
              <LatitudeDegrees>37.287841401994228363037109375</LatitudeDegrees>
              <LongitudeDegrees>-7.94008173979818820953369140625</LongitudeDegrees>
            </Position>
            <AltitudeMeters>511.79998779296875</AltitudeMeters>
            <DistanceMeters>355459.97715053</DistanceMeters>
          </Trackpoint>
          <Trackpoint>
            <Time>2018-09-15T08:59:41.000Z</Time>
            <Position>
              <LatitudeDegrees>37.287703938782215118408203125</LatitudeDegrees>
              <LongitudeDegrees>-7.94019707478582859039306640625</LongitudeDegrees>
            </Position>
            <AltitudeMeters>512.5999755859375</AltitudeMeters>
            <DistanceMeters>355478.37261423</DistanceMeters>
          </Trackpoint>
          <Trackpoint>
            <Time>2018-09-15T08:59:44.000Z</Time>
            <Position>
              <LatitudeDegrees>37.28755901567637920379638671875</LatitudeDegrees>
              <LongitudeDegrees>-7.9402937181293964385986328125</LongitudeDegrees>
            </Position>
            <AltitudeMeters>513.5999755859375</AltitudeMeters>
            <DistanceMeters>355496.63258528</DistanceMeters>
          </Trackpoint>
          <Trackpoint>
            <Time>2018-09-15T08:59:50.000Z</Time>
            <Position>
              <LatitudeDegrees>37.287258692085742950439453125</LatitudeDegrees>
              <LongitudeDegrees>-7.9404891841113567352294921875</LongitudeDegrees>
            </Position>
            <AltitudeMeters>512.79998779296875</AltitudeMeters>
            <DistanceMeters>355534.27492069</DistanceMeters>
          </Trackpoint>
          <Trackpoint>
            <Time>2018-09-15T08:59:58.000Z</Time>
            <Position>
              <LatitudeDegrees>37.28677597828209400177001953125</LatitudeDegrees>
              <LongitudeDegrees>-7.9408050142228603363037109375</LongitudeDegrees>
            </Position>
            <AltitudeMeters>509.20001220703125</AltitudeMeters>
            <DistanceMeters>355594.84541357</DistanceMeters>
          </Trackpoint>
          <Trackpoint>
            <Time>2018-09-15T09:00:00.000Z</Time>
            <Position>
              <LatitudeDegrees>37.28663600049912929534912109375</LatitudeDegrees>
              <LongitudeDegrees>-7.94089260511100292205810546875</LongitudeDegrees>
            </Position>
            <AltitudeMeters>508</AltitudeMeters>
            <DistanceMeters>355612.24905756</DistanceMeters>
          </Trackpoint>
          <Trackpoint>
            <Time>2018-09-15T09:00:02.000Z</Time>
            <Position>
              <LatitudeDegrees>37.28648680262267589569091796875</LatitudeDegrees>
              <LongitudeDegrees>-7.94097022153437137603759765625</LongitudeDegrees>
            </Position>
            <AltitudeMeters>507</AltitudeMeters>
            <DistanceMeters>355630.22142063</DistanceMeters>
          </Trackpoint>
          <Trackpoint>
            <Time>2018-09-15T09:00:05.000Z</Time>
            <Position>
              <LatitudeDegrees>37.28624523617327213287353515625</LatitudeDegrees>
              <LongitudeDegrees>-7.94100274331867694854736328125</LongitudeDegrees>
            </Position>
            <AltitudeMeters>506</AltitudeMeters>
            <DistanceMeters>355657.26182281</DistanceMeters>
          </Trackpoint>
          <Trackpoint>
            <Time>2018-09-15T09:00:06.000Z</Time>
            <Position>
              <LatitudeDegrees>37.28616627864539623260498046875</LatitudeDegrees>
              <LongitudeDegrees>-7.94099335558712482452392578125</LongitudeDegrees>
            </Position>
            <AltitudeMeters>505.79998779296875</AltitudeMeters>
            <DistanceMeters>355666.08959488</DistanceMeters>
          </Trackpoint>
          <Trackpoint>
            <Time>2018-09-15T09:00:09.000Z</Time>
            <Position>
              <LatitudeDegrees>37.2859247960150241851806640625</LatitudeDegrees>
              <LongitudeDegrees>-7.94096234254539012908935546875</LongitudeDegrees>
            </Position>
            <AltitudeMeters>505.20001220703125</AltitudeMeters>
            <DistanceMeters>355693.10694484</DistanceMeters>
          </Trackpoint>
          <Trackpoint>
            <Time>2018-09-15T09:00:11.000Z</Time>
            <Position>
              <LatitudeDegrees>37.28575724177062511444091796875</LatitudeDegrees>
              <LongitudeDegrees>-7.9409411363303661346435546875</LongitudeDegrees>
            </Position>
            <AltitudeMeters>504.79998779296875</AltitudeMeters>
            <DistanceMeters>355711.85058788</DistanceMeters>
          </Trackpoint>
          <Trackpoint>
            <Time>2018-09-15T09:00:12.000Z</Time>
            <Position>
              <LatitudeDegrees>37.28567040525376796722412109375</LatitudeDegrees>
              <LongitudeDegrees>-7.94093191623687744140625</LongitudeDegrees>
            </Position>
            <AltitudeMeters>505</AltitudeMeters>
            <DistanceMeters>355721.55029748</DistanceMeters>
          </Trackpoint>
          <Trackpoint>
            <Time>2018-09-15T09:00:13.000Z</Time>
            <Position>
              <LatitudeDegrees>37.2855819761753082275390625</LatitudeDegrees>
              <LongitudeDegrees>-7.9409314133226871490478515625</LongitudeDegrees>
            </Position>
            <AltitudeMeters>505.20001220703125</AltitudeMeters>
            <DistanceMeters>355731.39279006</DistanceMeters>
          </Trackpoint>
          <Trackpoint>
            <Time>2018-09-15T09:00:14.000Z</Time>
            <Position>
              <LatitudeDegrees>37.2854929603636264801025390625</LatitudeDegrees>
              <LongitudeDegrees>-7.94094172306358814239501953125</LongitudeDegrees>
            </Position>
            <AltitudeMeters>505.20001220703125</AltitudeMeters>
            <DistanceMeters>355741.34204621</DistanceMeters>
          </Trackpoint>
          <Trackpoint>
            <Time>2018-09-15T09:00:17.000Z</Time>
            <Position>
              <LatitudeDegrees>37.2852279245853424072265625</LatitudeDegrees>
              <LongitudeDegrees>-7.9410298168659210205078125</LongitudeDegrees>
            </Position>
            <AltitudeMeters>505</AltitudeMeters>
            <DistanceMeters>355771.85494515</DistanceMeters>
          </Trackpoint>
          <Trackpoint>
            <Time>2018-09-15T09:00:19.000Z</Time>
            <Position>
              <LatitudeDegrees>37.28505969978868961334228515625</LatitudeDegrees>
              <LongitudeDegrees>-7.94111589901149272918701171875</LongitudeDegrees>
            </Position>
            <AltitudeMeters>504.79998779296875</AltitudeMeters>
            <DistanceMeters>355792.07085967</DistanceMeters>
          </Trackpoint>
          <Trackpoint>
            <Time>2018-09-15T09:00:22.000Z</Time>
            <Position>
              <LatitudeDegrees>37.28482467122375965118408203125</LatitudeDegrees>
              <LongitudeDegrees>-7.9412596486508846282958984375</LongitudeDegrees>
            </Position>
            <AltitudeMeters>504.600006103515625</AltitudeMeters>
            <DistanceMeters>355821.16285023</DistanceMeters>
          </Trackpoint>
          <Trackpoint>
            <Time>2018-09-15T09:00:24.000Z</Time>
            <Position>
              <LatitudeDegrees>37.284677065908908843994140625</LatitudeDegrees>
              <LongitudeDegrees>-7.94135428033769130706787109375</LongitudeDegrees>
            </Position>
            <AltitudeMeters>504.600006103515625</AltitudeMeters>
            <DistanceMeters>355839.60537878</DistanceMeters>
          </Trackpoint>
          <Trackpoint>
            <Time>2018-09-15T09:00:29.000Z</Time>
            <Position>
              <LatitudeDegrees>37.28439870290458202362060546875</LatitudeDegrees>
              <LongitudeDegrees>-7.94153449125587940216064453125</LongitudeDegrees>
            </Position>
            <AltitudeMeters>504.399993896484375</AltitudeMeters>
            <DistanceMeters>355874.4563534</DistanceMeters>
          </Trackpoint>
          <Trackpoint>
            <Time>2018-09-15T09:00:33.000Z</Time>
            <Position>
              <LatitudeDegrees>37.28436131961643695831298828125</LatitudeDegrees>
              <LongitudeDegrees>-7.941567935049533843994140625</LongitudeDegrees>
            </Position>
            <AltitudeMeters>504.20001220703125</AltitudeMeters>
            <DistanceMeters>355879.56309999</DistanceMeters>
          </Trackpoint>
          <Trackpoint>
            <Time>2018-09-15T09:02:41.000Z</Time>
            <Position>
              <LatitudeDegrees>37.28431262075901031494140625</LatitudeDegrees>
              <LongitudeDegrees>-7.94158595614135265350341796875</LongitudeDegrees>
            </Position>
            <AltitudeMeters>504.399993896484375</AltitudeMeters>
            <DistanceMeters>355885.21379467</DistanceMeters>
          </Trackpoint>
          <Trackpoint>
            <Time>2018-09-15T09:02:43.000Z</Time>
            <Position>
              <LatitudeDegrees>37.28427984751760959625244140625</LatitudeDegrees>
              <LongitudeDegrees>-7.9416011273860931396484375</LongitudeDegrees>
            </Position>
            <AltitudeMeters>504.399993896484375</AltitudeMeters>
            <DistanceMeters>355889.10176946</DistanceMeters>
          </Trackpoint>
          <Trackpoint>
            <Time>2018-09-15T09:02:55.000Z</Time>
            <Position>
              <LatitudeDegrees>37.28407834656536579132080078125</LatitudeDegrees>
              <LongitudeDegrees>-7.94171989895403385162353515625</LongitudeDegrees>
            </Position>
            <AltitudeMeters>504.600006103515625</AltitudeMeters>
            <DistanceMeters>355913.87313972</DistanceMeters>
          </Trackpoint>
          <Trackpoint>
            <Time>2018-09-15T09:02:58.000Z</Time>
            <Position>
              <LatitudeDegrees>37.2840422205626964569091796875</LatitudeDegrees>
              <LongitudeDegrees>-7.94173590838909149169921875</LongitudeDegrees>
            </Position>
            <AltitudeMeters>505</AltitudeMeters>
            <DistanceMeters>355918.13771167</DistanceMeters>
          </Trackpoint>
          <Trackpoint>
            <Time>2018-09-15T09:03:01.000Z</Time>
            <Position>
              <LatitudeDegrees>37.283995114266872406005859375</LatitudeDegrees>
              <LongitudeDegrees>-7.941741943359375</LongitudeDegrees>
            </Position>
            <AltitudeMeters>505.399993896484375</AltitudeMeters>
            <DistanceMeters>355923.40805465</DistanceMeters>
          </Trackpoint>
          <Trackpoint>
            <Time>2018-09-15T09:03:02.000Z</Time>
            <Position>
              <LatitudeDegrees>37.28398136794567108154296875</LatitudeDegrees>
              <LongitudeDegrees>-7.94172962196171283721923828125</LongitudeDegrees>
            </Position>
            <AltitudeMeters>505.600006103515625</AltitudeMeters>
            <DistanceMeters>355925.28708629</DistanceMeters>
          </Trackpoint>
          <Trackpoint>
            <Time>2018-09-15T09:03:12.000Z</Time>
            <Position>
              <LatitudeDegrees>37.283928729593753814697265625</LatitudeDegrees>
              <LongitudeDegrees>-7.94179433025419712066650390625</LongitudeDegrees>
            </Position>
            <AltitudeMeters>506.20001220703125</AltitudeMeters>
            <DistanceMeters>355933.48200414</DistanceMeters>
          </Trackpoint>
          <Trackpoint>
            <Time>2018-09-15T09:03:17.000Z</Time>
            <Position>
              <LatitudeDegrees>37.2838115505874156951904296875</LatitudeDegrees>
              <LongitudeDegrees>-7.9418711923062801361083984375</LongitudeDegrees>
            </Position>
            <AltitudeMeters>507.20001220703125</AltitudeMeters>
            <DistanceMeters>355948.19366183</DistanceMeters>
          </Trackpoint>
          <Trackpoint>
            <Time>2018-09-15T09:03:23.000Z</Time>
            <Position>
              <LatitudeDegrees>37.28365036658942699432373046875</LatitudeDegrees>
              <LongitudeDegrees>-7.9419764690101146697998046875</LongitudeDegrees>
            </Position>
            <AltitudeMeters>509</AltitudeMeters>
            <DistanceMeters>355968.41158632</DistanceMeters>
          </Trackpoint>
          <Trackpoint>
            <Time>2018-09-15T09:03:27.000Z</Time>
            <Position>
              <LatitudeDegrees>37.28353134356439113616943359375</LatitudeDegrees>
              <LongitudeDegrees>-7.9420445300638675689697265625</LongitudeDegrees>
            </Position>
            <AltitudeMeters>510.20001220703125</AltitudeMeters>
            <DistanceMeters>355982.96588236</DistanceMeters>
          </Trackpoint>
          <Trackpoint>
            <Time>2018-09-15T09:03:35.000Z</Time>
            <Position>
              <LatitudeDegrees>37.283310480415821075439453125</LatitudeDegrees>
              <LongitudeDegrees>-7.94217688031494617462158203125</LongitudeDegrees>
            </Position>
            <AltitudeMeters>512.4000244140625</AltitudeMeters>
            <DistanceMeters>356010.19961693</DistanceMeters>
          </Trackpoint>
          <Trackpoint>
            <Time>2018-09-15T09:03:40.000Z</Time>
            <Position>
              <LatitudeDegrees>37.28317544795572757720947265625</LatitudeDegrees>
              <LongitudeDegrees>-7.9422765411436557769775390625</LongitudeDegrees>
            </Position>
            <AltitudeMeters>512.5999755859375</AltitudeMeters>
            <DistanceMeters>356027.62866657</DistanceMeters>
          </Trackpoint>
          <Trackpoint>
            <Time>2018-09-15T09:03:41.000Z</Time>
            <Position>
              <LatitudeDegrees>37.2831473685801029205322265625</LatitudeDegrees>
              <LongitudeDegrees>-7.9422949813306331634521484375</LongitudeDegrees>
            </Position>
            <AltitudeMeters>512.5999755859375</AltitudeMeters>
            <DistanceMeters>356031.15363256</DistanceMeters>
          </Trackpoint>
          <Trackpoint>
            <Time>2018-09-15T09:03:46.000Z</Time>
            <Position>
              <LatitudeDegrees>37.28300630114972591400146484375</LatitudeDegrees>
              <LongitudeDegrees>-7.9424005933105945587158203125</LongitudeDegrees>
            </Position>
            <AltitudeMeters>513</AltitudeMeters>
            <DistanceMeters>356049.42942167</DistanceMeters>
          </Trackpoint>
          <Trackpoint>
            <Time>2018-09-15T09:03:50.000Z</Time>
            <Position>
              <LatitudeDegrees>37.28289800696074962615966796875</LatitudeDegrees>
              <LongitudeDegrees>-7.94249522499740123748779296875</LongitudeDegrees>
            </Position>
            <AltitudeMeters>513</AltitudeMeters>
            <DistanceMeters>356064.10974198</DistanceMeters>
          </Trackpoint>
          <Trackpoint>
            <Time>2018-09-15T09:03:56.000Z</Time>
            <Position>
              <LatitudeDegrees>37.2827302850782871246337890625</LatitudeDegrees>
              <LongitudeDegrees>-7.94264123775064945220947265625</LongitudeDegrees>
            </Position>
            <AltitudeMeters>514.20001220703125</AltitudeMeters>
            <DistanceMeters>356086.81854215</DistanceMeters>
          </Trackpoint>
          <Trackpoint>
            <Time>2018-09-15T09:03:57.000Z</Time>
            <Position>
              <LatitudeDegrees>37.28270597755908966064453125</LatitudeDegrees>
              <LongitudeDegrees>-7.94266663491725921630859375</LongitudeDegrees>
            </Position>
            <AltitudeMeters>514.5999755859375</AltitudeMeters>
            <DistanceMeters>356090.33709794</DistanceMeters>
          </Trackpoint>
          <Trackpoint>
            <Time>2018-09-15T09:04:04.000Z</Time>
            <Position>
              <LatitudeDegrees>37.2824986092746257781982421875</LatitudeDegrees>
              <LongitudeDegrees>-7.9428510367870330810546875</LongitudeDegrees>
            </Position>
            <AltitudeMeters>517.5999755859375</AltitudeMeters>
            <DistanceMeters>356118.61053984</DistanceMeters>
          </Trackpoint>
          <Trackpoint>
            <Time>2018-09-15T09:04:11.000Z</Time>
            <Position>
              <LatitudeDegrees>37.28227816522121429443359375</LatitudeDegrees>
              <LongitudeDegrees>-7.9430495202541351318359375</LongitudeDegrees>
            </Position>
            <AltitudeMeters>520.79998779296875</AltitudeMeters>
            <DistanceMeters>356148.79285539</DistanceMeters>
          </Trackpoint>
          <Trackpoint>
            <Time>2018-09-15T09:04:18.000Z</Time>
            <Position>
              <LatitudeDegrees>37.28205780498683452606201171875</LatitudeDegrees>
              <LongitudeDegrees>-7.9432444833219051361083984375</LongitudeDegrees>
            </Position>
            <AltitudeMeters>523.79998779296875</AltitudeMeters>
            <DistanceMeters>356178.78699575</DistanceMeters>
          </Trackpoint>
          <Trackpoint>
            <Time>2018-09-15T09:04:23.000Z</Time>
            <Position>
              <LatitudeDegrees>37.2819004766643047332763671875</LatitudeDegrees>
              <LongitudeDegrees>-7.94338337145745754241943359375</LongitudeDegrees>
            </Position>
            <AltitudeMeters>526</AltitudeMeters>
            <DistanceMeters>356200.18573745</DistanceMeters>
          </Trackpoint>
          <Trackpoint>
            <Time>2018-09-15T09:04:28.000Z</Time>
            <Position>
              <LatitudeDegrees>37.28173610754311084747314453125</LatitudeDegrees>
              <LongitudeDegrees>-7.94350541196763515472412109375</LongitudeDegrees>
            </Position>
            <AltitudeMeters>527.20001220703125</AltitudeMeters>
            <DistanceMeters>356221.43435675</DistanceMeters>
          </Trackpoint>
          <Trackpoint>
            <Time>2018-09-15T09:04:34.000Z</Time>
            <Position>
              <LatitudeDegrees>37.28152488358318805694580078125</LatitudeDegrees>
              <LongitudeDegrees>-7.943625189363956451416015625</LongitudeDegrees>
            </Position>
            <AltitudeMeters>527.79998779296875</AltitudeMeters>
            <DistanceMeters>356247.2261896</DistanceMeters>
          </Trackpoint>
          <Trackpoint>
            <Time>2018-09-15T09:04:43.000Z</Time>
            <Position>
              <LatitudeDegrees>37.28118357248604297637939453125</LatitudeDegrees>
              <LongitudeDegrees>-7.94372971169650554656982421875</LongitudeDegrees>
            </Position>
            <AltitudeMeters>528</AltitudeMeters>
            <DistanceMeters>356286.3263051</DistanceMeters>
          </Trackpoint>
          <Trackpoint>
            <Time>2018-09-15T09:04:49.000Z</Time>
            <Position>
              <LatitudeDegrees>37.28092976845800876617431640625</LatitudeDegrees>
              <LongitudeDegrees>-7.9437292926013469696044921875</LongitudeDegrees>
            </Position>
            <AltitudeMeters>527.79998779296875</AltitudeMeters>
            <DistanceMeters>356314.57530359</DistanceMeters>
          </Trackpoint>
          <Trackpoint>
            <Time>2018-09-15T09:05:00.000Z</Time>
            <Position>
              <LatitudeDegrees>37.2803682647645473480224609375</LatitudeDegrees>
              <LongitudeDegrees>-7.94353835284709930419921875</LongitudeDegrees>
            </Position>
            <AltitudeMeters>524.5999755859375</AltitudeMeters>
            <DistanceMeters>356379.31904811</DistanceMeters>
          </Trackpoint>
          <Trackpoint>
            <Time>2018-09-15T09:05:05.000Z</Time>
            <Position>
              <LatitudeDegrees>37.28010817430913448333740234375</LatitudeDegrees>
              <LongitudeDegrees>-7.94341052882373332977294921875</LongitudeDegrees>
            </Position>
            <AltitudeMeters>522</AltitudeMeters>
            <DistanceMeters>356410.40222683</DistanceMeters>
          </Trackpoint>
          <Trackpoint>
            <Time>2018-09-15T09:05:08.000Z</Time>
            <Position>
              <LatitudeDegrees>37.27994606830179691314697265625</LatitudeDegrees>
              <LongitudeDegrees>-7.943358980119228363037109375</LongitudeDegrees>
            </Position>
            <AltitudeMeters>520.5999755859375</AltitudeMeters>
            <DistanceMeters>356429.01339746</DistanceMeters>
          </Trackpoint>
          <Trackpoint>
            <Time>2018-09-15T09:05:16.000Z</Time>
            <Position>
              <LatitudeDegrees>37.279593944549560546875</LatitudeDegrees>
              <LongitudeDegrees>-7.94364773668348789215087890625</LongitudeDegrees>
            </Position>
            <AltitudeMeters>523.20001220703125</AltitudeMeters>
            <DistanceMeters>356475.81074994</DistanceMeters>
          </Trackpoint>
          <Trackpoint>
            <Time>2018-09-15T09:05:17.000Z</Time>
            <Position>
              <LatitudeDegrees>37.27956905029714107513427734375</LatitudeDegrees>
              <LongitudeDegrees>-7.9437066614627838134765625</LongitudeDegrees>
            </Position>
            <AltitudeMeters>523.5999755859375</AltitudeMeters>
            <DistanceMeters>356481.71924175</DistanceMeters>
          </Trackpoint>
          <Trackpoint>
            <Time>2018-09-15T09:05:27.000Z</Time>
            <Position>
              <LatitudeDegrees>37.27935095317661762237548828125</LatitudeDegrees>
              <LongitudeDegrees>-7.94429800473153591156005859375</LongitudeDegrees>
            </Position>
            <AltitudeMeters>528.4000244140625</AltitudeMeters>
            <DistanceMeters>356539.44216325</DistanceMeters>
          </Trackpoint>
          <Trackpoint>
            <Time>2018-09-15T09:05:31.000Z</Time>
            <Position>
              <LatitudeDegrees>37.27926361374557018280029296875</LatitudeDegrees>
              <LongitudeDegrees>-7.944508977234363555908203125</LongitudeDegrees>
            </Position>
            <AltitudeMeters>528.79998779296875</AltitudeMeters>
            <DistanceMeters>356560.50382215</DistanceMeters>
          </Trackpoint>
          <Trackpoint>
            <Time>2018-09-15T09:05:34.000Z</Time>
            <Position>
              <LatitudeDegrees>37.27920326404273509979248046875</LatitudeDegrees>
              <LongitudeDegrees>-7.944664545357227325439453125</LongitudeDegrees>
            </Position>
            <AltitudeMeters>529.20001220703125</AltitudeMeters>
            <DistanceMeters>356575.83142792</DistanceMeters>
          </Trackpoint>
          <Trackpoint>
            <Time>2018-09-15T09:05:39.000Z</Time>
            <Position>
              <LatitudeDegrees>37.2790985740721225738525390625</LatitudeDegrees>
              <LongitudeDegrees>-7.94491910375654697418212890625</LongitudeDegrees>
            </Position>
            <AltitudeMeters>529.79998779296875</AltitudeMeters>
            <DistanceMeters>356601.20889868</DistanceMeters>
          </Trackpoint>
          <Trackpoint>
            <Time>2018-09-15T09:05:43.000Z</Time>
            <Position>
              <LatitudeDegrees>37.27901458740234375</LatitudeDegrees>
              <LongitudeDegrees>-7.94512680731713771820068359375</LongitudeDegrees>
            </Position>
            <AltitudeMeters>530.5999755859375</AltitudeMeters>
            <DistanceMeters>356621.84261003</DistanceMeters>
          </Trackpoint>
          <Trackpoint>
            <Time>2018-09-15T09:05:44.000Z</Time>
            <Position>
              <LatitudeDegrees>37.27899321354925632476806640625</LatitudeDegrees>
              <LongitudeDegrees>-7.94517760165035724639892578125</LongitudeDegrees>
            </Position>
            <AltitudeMeters>530.5999755859375</AltitudeMeters>
            <DistanceMeters>356626.93164326</DistanceMeters>
          </Trackpoint>
          <Trackpoint>
            <Time>2018-09-15T09:05:48.000Z</Time>
            <Position>
              <LatitudeDegrees>37.278907299041748046875</LatitudeDegrees>
              <LongitudeDegrees>-7.945387065410614013671875</LongitudeDegrees>
            </Position>
            <AltitudeMeters>531.4000244140625</AltitudeMeters>
            <DistanceMeters>356647.80185498</DistanceMeters>
          </Trackpoint>
          <Trackpoint>
            <Time>2018-09-15T09:05:56.000Z</Time>
            <Position>
              <LatitudeDegrees>37.27869682945311069488525390625</LatitudeDegrees>
              <LongitudeDegrees>-7.9457531869411468505859375</LongitudeDegrees>
            </Position>
            <AltitudeMeters>533</AltitudeMeters>
            <DistanceMeters>356687.80347427</DistanceMeters>
          </Trackpoint>
          <Trackpoint>
            <Time>2018-09-15T09:06:01.000Z</Time>
            <Position>
              <LatitudeDegrees>37.2785118408501148223876953125</LatitudeDegrees>
              <LongitudeDegrees>-7.94588218443095684051513671875</LongitudeDegrees>
            </Position>
            <AltitudeMeters>533.5999755859375</AltitudeMeters>
            <DistanceMeters>356711.35016605</DistanceMeters>
          </Trackpoint>
          <Trackpoint>
            <Time>2018-09-15T09:06:08.000Z</Time>
            <Position>
              <LatitudeDegrees>37.27820347063243389129638671875</LatitudeDegrees>
              <LongitudeDegrees>-7.9459729604423046112060546875</LongitudeDegrees>
            </Position>
            <AltitudeMeters>533.5999755859375</AltitudeMeters>
            <DistanceMeters>356746.6013629</DistanceMeters>
          </Trackpoint>
          <Trackpoint>
            <Time>2018-09-15T09:06:14.000Z</Time>
            <Position>
              <LatitudeDegrees>37.2778795100748538970947265625</LatitudeDegrees>
              <LongitudeDegrees>-7.9460442066192626953125</LongitudeDegrees>
            </Position>
            <AltitudeMeters>532.79998779296875</AltitudeMeters>
            <DistanceMeters>356783.20675845</DistanceMeters>
          </Trackpoint>
          <Trackpoint>
            <Time>2018-09-15T09:06:18.000Z</Time>
            <Position>
              <LatitudeDegrees>37.2776528634130954742431640625</LatitudeDegrees>
              <LongitudeDegrees>-7.946127690374851226806640625</LongitudeDegrees>
            </Position>
            <AltitudeMeters>532.20001220703125</AltitudeMeters>
            <DistanceMeters>356809.49431501</DistanceMeters>
          </Trackpoint>
          <Trackpoint>
            <Time>2018-09-15T09:06:26.000Z</Time>
            <Position>
              <LatitudeDegrees>37.27742412127554416656494140625</LatitudeDegrees>
              <LongitudeDegrees>-7.9465647228062152862548828125</LongitudeDegrees>
            </Position>
            <AltitudeMeters>531</AltitudeMeters>
            <DistanceMeters>356855.82234788</DistanceMeters>
          </Trackpoint>
          <Trackpoint>
            <Time>2018-09-15T09:06:31.000Z</Time>
            <Position>
              <LatitudeDegrees>37.27740065194666385650634765625</LatitudeDegrees>
              <LongitudeDegrees>-7.94688700698316097259521484375</LongitudeDegrees>
            </Position>
            <AltitudeMeters>531</AltitudeMeters>
            <DistanceMeters>356884.48467969</DistanceMeters>
          </Trackpoint>
          <Trackpoint>
            <Time>2018-09-15T09:06:37.000Z</Time>
            <Position>
              <LatitudeDegrees>37.27738187648355960845947265625</LatitudeDegrees>
              <LongitudeDegrees>-7.94727760367095470428466796875</LongitudeDegrees>
            </Position>
            <AltitudeMeters>532.20001220703125</AltitudeMeters>
            <DistanceMeters>356919.14078041</DistanceMeters>
          </Trackpoint>
          <Trackpoint>
            <Time>2018-09-15T09:06:41.000Z</Time>
            <Position>
              <LatitudeDegrees>37.27737064473330974578857421875</LatitudeDegrees>
              <LongitudeDegrees>-7.94754448346793651580810546875</LongitudeDegrees>
            </Position>
            <AltitudeMeters>533</AltitudeMeters>
            <DistanceMeters>356942.81006373</DistanceMeters>
          </Trackpoint>
          <Trackpoint>
            <Time>2018-09-15T09:06:45.000Z</Time>
            <Position>
              <LatitudeDegrees>37.27735790424048900604248046875</LatitudeDegrees>
              <LongitudeDegrees>-7.9478065855801105499267578125</LongitudeDegrees>
            </Position>
            <AltitudeMeters>534</AltitudeMeters>
            <DistanceMeters>356966.06618977</DistanceMeters>
          </Trackpoint>
          <Trackpoint>
            <Time>2018-09-15T09:06:51.000Z</Time>
            <Position>
              <LatitudeDegrees>37.2773373685777187347412109375</LatitudeDegrees>
              <LongitudeDegrees>-7.9482152871787548065185546875</LongitudeDegrees>
            </Position>
            <AltitudeMeters>534.79998779296875</AltitudeMeters>
            <DistanceMeters>357002.33478825</DistanceMeters>
          </Trackpoint>
          <Trackpoint>
            <Time>2018-09-15T09:07:00.000Z</Time>
            <Position>
              <LatitudeDegrees>37.27730560116469860076904296875</LatitudeDegrees>
              <LongitudeDegrees>-7.94890587218105792999267578125</LongitudeDegrees>
            </Position>
            <AltitudeMeters>533.5999755859375</AltitudeMeters>
            <DistanceMeters>357063.59820958</DistanceMeters>
          </Trackpoint>
          <Trackpoint>
            <Time>2018-09-15T09:07:01.000Z</Time>
            <Position>
              <LatitudeDegrees>37.27729302830994129180908203125</LatitudeDegrees>
              <LongitudeDegrees>-7.94898851774632930755615234375</LongitudeDegrees>
            </Position>
            <AltitudeMeters>533</AltitudeMeters>
            <DistanceMeters>357071.05038846</DistanceMeters>
          </Trackpoint>
          <Trackpoint>
            <Time>2018-09-15T09:07:05.000Z</Time>
            <Position>
              <LatitudeDegrees>37.27715824730694293975830078125</LatitudeDegrees>
              <LongitudeDegrees>-7.94929143972694873809814453125</LongitudeDegrees>
            </Position>
            <AltitudeMeters>531.79998779296875</AltitudeMeters>
            <DistanceMeters>357101.7878218</DistanceMeters>
          </Trackpoint>
          <Trackpoint>
            <Time>2018-09-15T09:07:07.000Z</Time>
            <Position>
              <LatitudeDegrees>37.27706973440945148468017578125</LatitudeDegrees>
              <LongitudeDegrees>-7.94944130815565586090087890625</LongitudeDegrees>
            </Position>
            <AltitudeMeters>531.5999755859375</AltitudeMeters>
            <DistanceMeters>357118.31755419</DistanceMeters>
          </Trackpoint>
          <Trackpoint>
            <Time>2018-09-15T09:07:08.000Z</Time>
            <Position>
              <LatitudeDegrees>37.27703176438808441162109375</LatitudeDegrees>
              <LongitudeDegrees>-7.94952697120606899261474609375</LongitudeDegrees>
            </Position>
            <AltitudeMeters>531.20001220703125</AltitudeMeters>
            <DistanceMeters>357127.00197694</DistanceMeters>
          </Trackpoint>
          <Trackpoint>
            <Time>2018-09-15T09:07:11.000Z</Time>
            <Position>
              <LatitudeDegrees>37.27699010632932186126708984375</LatitudeDegrees>
              <LongitudeDegrees>-7.94983056373894214630126953125</LongitudeDegrees>
            </Position>
            <AltitudeMeters>528.79998779296875</AltitudeMeters>
            <DistanceMeters>357154.28656109</DistanceMeters>
          </Trackpoint>
          <Trackpoint>
            <Time>2018-09-15T09:07:13.000Z</Time>
            <Position>
              <LatitudeDegrees>37.27696529589593410491943359375</LatitudeDegrees>
              <LongitudeDegrees>-7.950028963387012481689453125</LongitudeDegrees>
            </Position>
            <AltitudeMeters>527</AltitudeMeters>
            <DistanceMeters>357172.07357203</DistanceMeters>
          </Trackpoint>
          <Trackpoint>
            <Time>2018-09-15T09:07:14.000Z</Time>
            <Position>
              <LatitudeDegrees>37.27692925371229648590087890625</LatitudeDegrees>
              <LongitudeDegrees>-7.95011890120804309844970703125</LongitudeDegrees>
            </Position>
            <AltitudeMeters>526.5999755859375</AltitudeMeters>
            <DistanceMeters>357180.99242529</DistanceMeters>
          </Trackpoint>
          <Trackpoint>
            <Time>2018-09-15T09:07:16.000Z</Time>
            <Position>
              <LatitudeDegrees>37.2768036089837551116943359375</LatitudeDegrees>
              <LongitudeDegrees>-7.95024496503174304962158203125</LongitudeDegrees>
            </Position>
            <AltitudeMeters>527</AltitudeMeters>
            <DistanceMeters>357198.88724495</DistanceMeters>
          </Trackpoint>
          <Trackpoint>
            <Time>2018-09-15T09:07:17.000Z</Time>
            <Position>
              <LatitudeDegrees>37.27672205306589603424072265625</LatitudeDegrees>
              <LongitudeDegrees>-7.9502728767693042755126953125</LongitudeDegrees>
            </Position>
            <AltitudeMeters>527.79998779296875</AltitudeMeters>
            <DistanceMeters>357208.2953696</DistanceMeters>
          </Trackpoint>
          <Trackpoint>
            <Time>2018-09-15T09:07:18.000Z</Time>
            <Position>
              <LatitudeDegrees>37.27663588710129261016845703125</LatitudeDegrees>
              <LongitudeDegrees>-7.9502876289188861846923828125</LongitudeDegrees>
            </Position>
            <AltitudeMeters>528.79998779296875</AltitudeMeters>
            <DistanceMeters>357217.97504279</DistanceMeters>
          </Trackpoint>
          <Trackpoint>
            <Time>2018-09-15T09:07:19.000Z</Time>
            <Position>
              <LatitudeDegrees>37.2765482962131500244140625</LatitudeDegrees>
              <LongitudeDegrees>-7.95030715875327587127685546875</LongitudeDegrees>
            </Position>
            <AltitudeMeters>528.4000244140625</AltitudeMeters>
            <DistanceMeters>357227.8765346</DistanceMeters>
          </Trackpoint>
          <Trackpoint>
            <Time>2018-09-15T09:07:21.000Z</Time>
            <Position>
              <LatitudeDegrees>37.27639113552868366241455078125</LatitudeDegrees>
              <LongitudeDegrees>-7.950433976948261260986328125</LongitudeDegrees>
            </Position>
            <AltitudeMeters>526.5999755859375</AltitudeMeters>
            <DistanceMeters>357248.66437499</DistanceMeters>
          </Trackpoint>
          <Trackpoint>
            <Time>2018-09-15T09:07:26.000Z</Time>
            <Position>
              <LatitudeDegrees>37.2763305343687534332275390625</LatitudeDegrees>
              <LongitudeDegrees>-7.9509674012660980224609375</LongitudeDegrees>
            </Position>
            <AltitudeMeters>521.79998779296875</AltitudeMeters>
            <DistanceMeters>357296.38642764</DistanceMeters>
          </Trackpoint>
          <Trackpoint>
            <Time>2018-09-15T09:07:27.000Z</Time>
            <Position>
              <LatitudeDegrees>37.27633967064321041107177734375</LatitudeDegrees>
              <LongitudeDegrees>-7.95107175596058368682861328125</LongitudeDegrees>
            </Position>
            <AltitudeMeters>521.79998779296875</AltitudeMeters>
            <DistanceMeters>357305.68448937</DistanceMeters>
          </Trackpoint>
          <Trackpoint>
            <Time>2018-09-15T09:07:29.000Z</Time>
            <Position>
              <LatitudeDegrees>37.27635584771633148193359375</LatitudeDegrees>
              <LongitudeDegrees>-7.95127359218895435333251953125</LongitudeDegrees>
            </Position>
            <AltitudeMeters>522</AltitudeMeters>
            <DistanceMeters>357323.65057081</DistanceMeters>
          </Trackpoint>
          <Trackpoint>
            <Time>2018-09-15T09:07:31.000Z</Time>
            <Position>
              <LatitudeDegrees>37.2763578593730926513671875</LatitudeDegrees>
              <LongitudeDegrees>-7.95146553777158260345458984375</LongitudeDegrees>
            </Position>
            <AltitudeMeters>522.79998779296875</AltitudeMeters>
            <DistanceMeters>357340.65159098</DistanceMeters>
          </Trackpoint>
          <Trackpoint>
            <Time>2018-09-15T09:07:35.000Z</Time>
            <Position>
              <LatitudeDegrees>37.2762879543006420135498046875</LatitudeDegrees>
              <LongitudeDegrees>-7.9518268816173076629638671875</LongitudeDegrees>
            </Position>
            <AltitudeMeters>524.20001220703125</AltitudeMeters>
            <DistanceMeters>357373.58653963</DistanceMeters>
          </Trackpoint>
          <Trackpoint>
            <Time>2018-09-15T09:07:43.000Z</Time>
            <Position>
              <LatitudeDegrees>37.27608435787260532379150390625</LatitudeDegrees>
              <LongitudeDegrees>-7.95247220434248447418212890625</LongitudeDegrees>
            </Position>
            <AltitudeMeters>527</AltitudeMeters>
            <DistanceMeters>357435.06845665</DistanceMeters>
          </Trackpoint>
          <Trackpoint>
            <Time>2018-09-15T09:07:51.000Z</Time>
            <Position>
              <LatitudeDegrees>37.2758812643587589263916015625</LatitudeDegrees>
              <LongitudeDegrees>-7.953112833201885223388671875</LongitudeDegrees>
            </Position>
            <AltitudeMeters>526.4000244140625</AltitudeMeters>
            <DistanceMeters>357496.14358307</DistanceMeters>
          </Trackpoint>
          <Trackpoint>
            <Time>2018-09-15T09:07:56.000Z</Time>
            <Position>
              <LatitudeDegrees>37.27576081641018390655517578125</LatitudeDegrees>
              <LongitudeDegrees>-7.9535622708499431610107421875</LongitudeDegrees>
            </Position>
            <AltitudeMeters>524.79998779296875</AltitudeMeters>
            <DistanceMeters>357538.14560582</DistanceMeters>
          </Trackpoint>
          <Trackpoint>
            <Time>2018-09-15T09:07:59.000Z</Time>
            <Position>
              <LatitudeDegrees>37.27575771510601043701171875</LatitudeDegrees>
              <LongitudeDegrees>-7.95387567020952701568603515625</LongitudeDegrees>
            </Position>
            <AltitudeMeters>523.20001220703125</AltitudeMeters>
            <DistanceMeters>357565.90414366</DistanceMeters>
          </Trackpoint>
          <Trackpoint>
            <Time>2018-09-15T09:08:00.000Z</Time>
            <Position>
              <LatitudeDegrees>37.27576978504657745361328125</LatitudeDegrees>
              <LongitudeDegrees>-7.9539857245981693267822265625</LongitudeDegrees>
            </Position>
            <AltitudeMeters>522.79998779296875</AltitudeMeters>
            <DistanceMeters>357575.7434246</DistanceMeters>
          </Trackpoint>
          <Trackpoint>
            <Time>2018-09-15T09:08:02.000Z</Time>
            <Position>
              <LatitudeDegrees>37.275797612965106964111328125</LatitudeDegrees>
              <LongitudeDegrees>-7.954206503927707672119140625</LongitudeDegrees>
            </Position>
            <AltitudeMeters>522.20001220703125</AltitudeMeters>
            <DistanceMeters>357595.54070744</DistanceMeters>
          </Trackpoint>
          <Trackpoint>
            <Time>2018-09-15T09:08:04.000Z</Time>
            <Position>
              <LatitudeDegrees>37.27581647224724292755126953125</LatitudeDegrees>
              <LongitudeDegrees>-7.95443591661751270294189453125</LongitudeDegrees>
            </Position>
            <AltitudeMeters>520.4000244140625</AltitudeMeters>
            <DistanceMeters>357615.96680967</DistanceMeters>
          </Trackpoint>
          <Trackpoint>
            <Time>2018-09-15T09:08:05.000Z</Time>
            <Position>
              <LatitudeDegrees>37.275813706219196319580078125</LatitudeDegrees>
              <LongitudeDegrees>-7.954552508890628814697265625</LongitudeDegrees>
            </Position>
            <AltitudeMeters>519.79998779296875</AltitudeMeters>
            <DistanceMeters>357626.29722318</DistanceMeters>
          </Trackpoint>
          <Trackpoint>
            <Time>2018-09-15T09:08:07.000Z</Time>
            <Position>
              <LatitudeDegrees>37.2757920809090137481689453125</LatitudeDegrees>
              <LongitudeDegrees>-7.95478996820747852325439453125</LongitudeDegrees>
            </Position>
            <AltitudeMeters>518.5999755859375</AltitudeMeters>
            <DistanceMeters>357647.46558362</DistanceMeters>
          </Trackpoint>
          <Trackpoint>
            <Time>2018-09-15T09:08:09.000Z</Time>
            <Position>
              <LatitudeDegrees>37.275758720934391021728515625</LatitudeDegrees>
              <LongitudeDegrees>-7.9550327919423580169677734375</LongitudeDegrees>
            </Position>
            <AltitudeMeters>517</AltitudeMeters>
            <DistanceMeters>357669.28989144</DistanceMeters>
          </Trackpoint>
          <Trackpoint>
            <Time>2018-09-15T09:08:12.000Z</Time>
            <Position>
              <LatitudeDegrees>37.2756817750632762908935546875</LatitudeDegrees>
              <LongitudeDegrees>-7.95539665035903453826904296875</LongitudeDegrees>
            </Position>
            <AltitudeMeters>517.5999755859375</AltitudeMeters>
            <DistanceMeters>357702.63424962</DistanceMeters>
          </Trackpoint>
          <Trackpoint>
            <Time>2018-09-15T09:08:14.000Z</Time>
            <Position>
              <LatitudeDegrees>37.27558345533907413482666015625</LatitudeDegrees>
              <LongitudeDegrees>-7.9556010849773883819580078125</LongitudeDegrees>
            </Position>
            <AltitudeMeters>518</AltitudeMeters>
            <DistanceMeters>357723.79044892</DistanceMeters>
          </Trackpoint>
          <Trackpoint>
            <Time>2018-09-15T09:08:16.000Z</Time>
            <Position>
              <LatitudeDegrees>37.27543828077614307403564453125</LatitudeDegrees>
              <LongitudeDegrees>-7.9557244665920734405517578125</LongitudeDegrees>
            </Position>
            <AltitudeMeters>518.20001220703125</AltitudeMeters>
            <DistanceMeters>357743.29663515</DistanceMeters>
          </Trackpoint>
          <Trackpoint>
            <Time>2018-09-15T09:08:18.000Z</Time>
            <Position>
              <LatitudeDegrees>37.27526955306529998779296875</LatitudeDegrees>
              <LongitudeDegrees>-7.95580535195767879486083984375</LongitudeDegrees>
            </Position>
            <AltitudeMeters>518.20001220703125</AltitudeMeters>
            <DistanceMeters>357763.39607693</DistanceMeters>
          </Trackpoint>
          <Trackpoint>
            <Time>2018-09-15T09:08:20.000Z</Time>
            <Position>
              <LatitudeDegrees>37.27510015480220317840576171875</LatitudeDegrees>
              <LongitudeDegrees>-7.955876849591732025146484375</LongitudeDegrees>
            </Position>
            <AltitudeMeters>518</AltitudeMeters>
            <DistanceMeters>357783.28551103</DistanceMeters>
          </Trackpoint>
          <Trackpoint>
            <Time>2018-09-15T09:08:22.000Z</Time>
            <Position>
              <LatitudeDegrees>37.27493637241423130035400390625</LatitudeDegrees>
              <LongitudeDegrees>-7.95594734139740467071533203125</LongitudeDegrees>
            </Position>
            <AltitudeMeters>517.79998779296875</AltitudeMeters>
            <DistanceMeters>357802.55438887</DistanceMeters>
          </Trackpoint>
          <Trackpoint>
            <Time>2018-09-15T09:08:23.000Z</Time>
            <Position>
              <LatitudeDegrees>37.2748573310673236846923828125</LatitudeDegrees>
              <LongitudeDegrees>-7.95598438940942287445068359375</LongitudeDegrees>
            </Position>
            <AltitudeMeters>517.5999755859375</AltitudeMeters>
            <DistanceMeters>357811.94329755</DistanceMeters>
          </Trackpoint>
          <Trackpoint>
            <Time>2018-09-15T09:08:30.000Z</Time>
            <Position>
              <LatitudeDegrees>37.27433572523295879364013671875</LatitudeDegrees>
              <LongitudeDegrees>-7.95629083178937435150146484375</LongitudeDegrees>
            </Position>
            <AltitudeMeters>516.4000244140625</AltitudeMeters>
            <DistanceMeters>357876.02992243</DistanceMeters>
          </Trackpoint>
          <Trackpoint>
            <Time>2018-09-15T09:08:33.000Z</Time>
            <Position>
              <LatitudeDegrees>37.27411662228405475616455078125</LatitudeDegrees>
              <LongitudeDegrees>-7.9564208351075649261474609375</LongitudeDegrees>
            </Position>
            <AltitudeMeters>516</AltitudeMeters>
            <DistanceMeters>357902.99826289</DistanceMeters>
          </Trackpoint>
          <Trackpoint>
            <Time>2018-09-15T09:08:38.000Z</Time>
            <Position>
              <LatitudeDegrees>37.2737646661698818206787109375</LatitudeDegrees>
              <LongitudeDegrees>-7.9566724598407745361328125</LongitudeDegrees>
            </Position>
            <AltitudeMeters>516.20001220703125</AltitudeMeters>
            <DistanceMeters>357948.06738087</DistanceMeters>
          </Trackpoint>
          <Trackpoint>
            <Time>2018-09-15T09:08:43.000Z</Time>
            <Position>
              <LatitudeDegrees>37.27353877387940883636474609375</LatitudeDegrees>
              <LongitudeDegrees>-7.95706481672823429107666015625</LongitudeDegrees>
            </Position>
            <AltitudeMeters>516</AltitudeMeters>
            <DistanceMeters>357990.95949662</DistanceMeters>
          </Trackpoint>
          <Trackpoint>
            <Time>2018-09-15T09:08:47.000Z</Time>
            <Position>
              <LatitudeDegrees>37.27341614663600921630859375</LatitudeDegrees>
              <LongitudeDegrees>-7.9574360512197017669677734375</LongitudeDegrees>
            </Position>
            <AltitudeMeters>515.79998779296875</AltitudeMeters>
            <DistanceMeters>358026.55978116</DistanceMeters>
          </Trackpoint>
          <Trackpoint>
            <Time>2018-09-15T09:08:48.000Z</Time>
            <Position>
              <LatitudeDegrees>37.27339477278292179107666015625</LatitudeDegrees>
              <LongitudeDegrees>-7.95753772370517253875732421875</LongitudeDegrees>
            </Position>
            <AltitudeMeters>515</AltitudeMeters>
            <DistanceMeters>358035.87385355</DistanceMeters>
          </Trackpoint>
          <Trackpoint>
            <Time>2018-09-15T09:08:52.000Z</Time>
            <Position>
              <LatitudeDegrees>37.273474819958209991455078125</LatitudeDegrees>
              <LongitudeDegrees>-7.95797274447977542877197265625</LongitudeDegrees>
            </Position>
            <AltitudeMeters>512.20001220703125</AltitudeMeters>
            <DistanceMeters>358075.4200402</DistanceMeters>
          </Trackpoint>
          <Trackpoint>
            <Time>2018-09-15T09:08:54.000Z</Time>
            <Position>
              <LatitudeDegrees>37.27356693707406520843505859375</LatitudeDegrees>
              <LongitudeDegrees>-7.95819302089512348175048828125</LongitudeDegrees>
            </Position>
            <AltitudeMeters>509.79998779296875</AltitudeMeters>
            <DistanceMeters>358097.4596834</DistanceMeters>
          </Trackpoint>
          <Trackpoint>
            <Time>2018-09-15T09:08:55.000Z</Time>
            <Position>
              <LatitudeDegrees>37.27360616438090801239013671875</LatitudeDegrees>
              <LongitudeDegrees>-7.95830735005438327789306640625</LongitudeDegrees>
            </Position>
            <AltitudeMeters>507.600006103515625</AltitudeMeters>
            <DistanceMeters>358108.48687748</DistanceMeters>
          </Trackpoint>
          <Trackpoint>
            <Time>2018-09-15T09:08:57.000Z</Time>
            <Position>
              <LatitudeDegrees>37.27363742887973785400390625</LatitudeDegrees>
              <LongitudeDegrees>-7.95855495147407054901123046875</LongitudeDegrees>
            </Position>
            <AltitudeMeters>504.399993896484375</AltitudeMeters>
            <DistanceMeters>358130.6910238</DistanceMeters>
          </Trackpoint>
          <Trackpoint>
            <Time>2018-09-15T09:08:58.000Z</Time>
            <Position>
              <LatitudeDegrees>37.27361639030277729034423828125</LatitudeDegrees>
              <LongitudeDegrees>-7.9586809314787387847900390625</LongitudeDegrees>
            </Position>
            <AltitudeMeters>503.600006103515625</AltitudeMeters>
            <DistanceMeters>358142.09224963</DistanceMeters>
          </Trackpoint>
          <Trackpoint>
            <Time>2018-09-15T09:09:01.000Z</Time>
            <Position>
              <LatitudeDegrees>37.27345679886639118194580078125</LatitudeDegrees>
              <LongitudeDegrees>-7.9590192250907421112060546875</LongitudeDegrees>
            </Position>
            <AltitudeMeters>504.20001220703125</AltitudeMeters>
            <DistanceMeters>358176.92430442</DistanceMeters>
          </Trackpoint>
          <Trackpoint>
            <Time>2018-09-15T09:09:02.000Z</Time>
            <Position>
              <LatitudeDegrees>37.27339913137257099151611328125</LatitudeDegrees>
              <LongitudeDegrees>-7.9591275192797183990478515625</LongitudeDegrees>
            </Position>
            <AltitudeMeters>504.600006103515625</AltitudeMeters>
            <DistanceMeters>358188.46525878</DistanceMeters>
          </Trackpoint>
          <Trackpoint>
            <Time>2018-09-15T09:09:04.000Z</Time>
            <Position>
              <LatitudeDegrees>37.2732999734580516815185546875</LatitudeDegrees>
              <LongitudeDegrees>-7.9593545012176036834716796875</LongitudeDegrees>
            </Position>
            <AltitudeMeters>505.20001220703125</AltitudeMeters>
            <DistanceMeters>358211.39881002</DistanceMeters>
          </Trackpoint>
          <Trackpoint>
            <Time>2018-09-15T09:09:06.000Z</Time>
            <Position>
              <LatitudeDegrees>37.2732681222259998321533203125</LatitudeDegrees>
              <LongitudeDegrees>-7.959611825644969940185546875</LongitudeDegrees>
            </Position>
            <AltitudeMeters>503.600006103515625</AltitudeMeters>
            <DistanceMeters>358234.4638902</DistanceMeters>
          </Trackpoint>
          <Trackpoint>
            <Time>2018-09-15T09:09:08.000Z</Time>
            <Position>
              <LatitudeDegrees>37.273330651223659515380859375</LatitudeDegrees>
              <LongitudeDegrees>-7.95987191610038280487060546875</LongitudeDegrees>
            </Position>
            <AltitudeMeters>500.79998779296875</AltitudeMeters>
            <DistanceMeters>358258.52817436</DistanceMeters>
          </Trackpoint>
          <Trackpoint>
            <Time>2018-09-15T09:09:09.000Z</Time>
            <Position>
              <LatitudeDegrees>37.273374907672405242919921875</LatitudeDegrees>
              <LongitudeDegrees>-7.959996052086353302001953125</LongitudeDegrees>
            </Position>
            <AltitudeMeters>499</AltitudeMeters>
            <DistanceMeters>358270.57597286</DistanceMeters>
          </Trackpoint>
          <Trackpoint>
            <Time>2018-09-15T09:09:11.000Z</Time>
            <Position>
              <LatitudeDegrees>37.27344858460128307342529296875</LatitudeDegrees>
              <LongitudeDegrees>-7.96025614254176616668701171875</LongitudeDegrees>
            </Position>
            <AltitudeMeters>497.399993896484375</AltitudeMeters>
            <DistanceMeters>358295.02795482</DistanceMeters>
          </Trackpoint>
          <Trackpoint>
            <Time>2018-09-15T09:09:14.000Z</Time>
            <Position>
              <LatitudeDegrees>37.27344221435487270355224609375</LatitudeDegrees>
              <LongitudeDegrees>-7.96066367067396640777587890625</LongitudeDegrees>
            </Position>
            <AltitudeMeters>496</AltitudeMeters>
            <DistanceMeters>358331.12935275</DistanceMeters>
          </Trackpoint>
          <Trackpoint>
            <Time>2018-09-15T09:09:15.000Z</Time>
            <Position>
              <LatitudeDegrees>37.2734075970947742462158203125</LatitudeDegrees>
              <LongitudeDegrees>-7.960791997611522674560546875</LongitudeDegrees>
            </Position>
            <AltitudeMeters>496</AltitudeMeters>
            <DistanceMeters>358343.13059099</DistanceMeters>
          </Trackpoint>
          <Trackpoint>
            <Time>2018-09-15T09:09:17.000Z</Time>
            <Position>
              <LatitudeDegrees>37.27328379638493061065673828125</LatitudeDegrees>
              <LongitudeDegrees>-7.961026690900325775146484375</LongitudeDegrees>
            </Position>
            <AltitudeMeters>495.20001220703125</AltitudeMeters>
            <DistanceMeters>358368.06962757</DistanceMeters>
          </Trackpoint>
          <Trackpoint>
            <Time>2018-09-15T09:09:19.000Z</Time>
            <Position>
              <LatitudeDegrees>37.273101992905139923095703125</LatitudeDegrees>
              <LongitudeDegrees>-7.9611686803400516510009765625</LongitudeDegrees>
            </Position>
            <AltitudeMeters>493.79998779296875</AltitudeMeters>
            <DistanceMeters>358391.89424813</DistanceMeters>
          </Trackpoint>
          <Trackpoint>
            <Time>2018-09-15T09:09:21.000Z</Time>
            <Position>
              <LatitudeDegrees>37.272892110049724578857421875</LatitudeDegrees>
              <LongitudeDegrees>-7.96118971891701221466064453125</LongitudeDegrees>
            </Position>
            <AltitudeMeters>494.20001220703125</AltitudeMeters>
            <DistanceMeters>358415.32869135</DistanceMeters>
          </Trackpoint>
          <Trackpoint>
            <Time>2018-09-15T09:09:24.000Z</Time>
            <Position>
              <LatitudeDegrees>37.27259178645908832550048828125</LatitudeDegrees>
              <LongitudeDegrees>-7.96107572503387928009033203125</LongitudeDegrees>
            </Position>
            <AltitudeMeters>496.399993896484375</AltitudeMeters>
            <DistanceMeters>358450.2469684</DistanceMeters>
          </Trackpoint>
          <Trackpoint>
            <Time>2018-09-15T09:09:26.000Z</Time>
            <Position>
              <LatitudeDegrees>37.27239665575325489044189453125</LatitudeDegrees>
              <LongitudeDegrees>-7.9609787464141845703125</LongitudeDegrees>
            </Position>
            <AltitudeMeters>498.79998779296875</AltitudeMeters>
            <DistanceMeters>358473.60228466</DistanceMeters>
          </Trackpoint>
          <Trackpoint>
            <Time>2018-09-15T09:09:29.000Z</Time>
            <Position>
              <LatitudeDegrees>37.2721119225025177001953125</LatitudeDegrees>
              <LongitudeDegrees>-7.96083767898380756378173828125</LongitudeDegrees>
            </Position>
            <AltitudeMeters>499.79998779296875</AltitudeMeters>
            <DistanceMeters>358507.66773818</DistanceMeters>
          </Trackpoint>
          <Trackpoint>
            <Time>2018-09-15T09:09:35.000Z</Time>
            <Position>
              <LatitudeDegrees>37.2717446275055408477783203125</LatitudeDegrees>
              <LongitudeDegrees>-7.96123129315674304962158203125</LongitudeDegrees>
            </Position>
            <AltitudeMeters>498.600006103515625</AltitudeMeters>
            <DistanceMeters>358561.39507272</DistanceMeters>
          </Trackpoint>
          <Trackpoint>
            <Time>2018-09-15T09:09:37.000Z</Time>
            <Position>
              <LatitudeDegrees>37.27182484231889247894287109375</LatitudeDegrees>
              <LongitudeDegrees>-7.96145391650497913360595703125</LongitudeDegrees>
            </Position>
            <AltitudeMeters>498.399993896484375</AltitudeMeters>
            <DistanceMeters>358583.03989719</DistanceMeters>
          </Trackpoint>
          <Trackpoint>
            <Time>2018-09-15T09:09:38.000Z</Time>
            <Position>
              <LatitudeDegrees>37.27187513373792171478271484375</LatitudeDegrees>
              <LongitudeDegrees>-7.96155852265655994415283203125</LongitudeDegrees>
            </Position>
            <AltitudeMeters>497.399993896484375</AltitudeMeters>
            <DistanceMeters>358593.86460374</DistanceMeters>
          </Trackpoint>
          <Trackpoint>
            <Time>2018-09-15T09:09:41.000Z</Time>
            <Position>
              <LatitudeDegrees>37.27202550508081912994384765625</LatitudeDegrees>
              <LongitudeDegrees>-7.96186052262783050537109375</LongitudeDegrees>
            </Position>
            <AltitudeMeters>492.399993896484375</AltitudeMeters>
            <DistanceMeters>358625.41747981</DistanceMeters>
          </Trackpoint>
          <Trackpoint>
            <Time>2018-09-15T09:09:42.000Z</Time>
            <Position>
              <LatitudeDegrees>37.272075712680816650390625</LatitudeDegrees>
              <LongitudeDegrees>-7.96195951290428638458251953125</LongitudeDegrees>
            </Position>
            <AltitudeMeters>491</AltitudeMeters>
            <DistanceMeters>358635.81498312</DistanceMeters>
          </Trackpoint>
          <Trackpoint>
            <Time>2018-09-15T09:09:45.000Z</Time>
            <Position>
              <LatitudeDegrees>37.2722113318741321563720703125</LatitudeDegrees>
              <LongitudeDegrees>-7.962264530360698699951171875</LongitudeDegrees>
            </Position>
            <AltitudeMeters>488.600006103515625</AltitudeMeters>
            <DistanceMeters>358666.76161117</DistanceMeters>
          </Trackpoint>
          <Trackpoint>
            <Time>2018-09-15T09:09:49.000Z</Time>
            <Position>
              <LatitudeDegrees>37.27221661247313022613525390625</LatitudeDegrees>
              <LongitudeDegrees>-7.96272897161543369293212890625</LongitudeDegrees>
            </Position>
            <AltitudeMeters>486.600006103515625</AltitudeMeters>
            <DistanceMeters>358707.90148438</DistanceMeters>
          </Trackpoint>
          <Trackpoint>
            <Time>2018-09-15T09:09:51.000Z</Time>
            <Position>
              <LatitudeDegrees>37.272176630795001983642578125</LatitudeDegrees>
              <LongitudeDegrees>-7.96296835877001285552978515625</LongitudeDegrees>
            </Position>
            <AltitudeMeters>486.20001220703125</AltitudeMeters>
            <DistanceMeters>358729.56632486</DistanceMeters>
          </Trackpoint>
          <Trackpoint>
            <Time>2018-09-15T09:09:53.000Z</Time>
            <Position>
              <LatitudeDegrees>37.27212374098598957061767578125</LatitudeDegrees>
              <LongitudeDegrees>-7.96320422552525997161865234375</LongitudeDegrees>
            </Position>
            <AltitudeMeters>486.600006103515625</AltitudeMeters>
            <DistanceMeters>358751.27114203</DistanceMeters>
          </Trackpoint>
          <Trackpoint>
            <Time>2018-09-15T09:09:56.000Z</Time>
            <Position>
              <LatitudeDegrees>37.271970771253108978271484375</LatitudeDegrees>
              <LongitudeDegrees>-7.9635162837803363800048828125</LongitudeDegrees>
            </Position>
            <AltitudeMeters>486.600006103515625</AltitudeMeters>
            <DistanceMeters>358783.73358065</DistanceMeters>
          </Trackpoint>
          <Trackpoint>
            <Time>2018-09-15T09:09:58.000Z</Time>
            <Position>
              <LatitudeDegrees>37.27181763388216495513916015625</LatitudeDegrees>
              <LongitudeDegrees>-7.9636735282838344573974609375</LongitudeDegrees>
            </Position>
            <AltitudeMeters>486.20001220703125</AltitudeMeters>
            <DistanceMeters>358805.7447299</DistanceMeters>
          </Trackpoint>
          <Trackpoint>
            <Time>2018-09-15T09:09:59.000Z</Time>
            <Position>
              <LatitudeDegrees>37.27173884399235248565673828125</LatitudeDegrees>
              <LongitudeDegrees>-7.963751815259456634521484375</LongitudeDegrees>
            </Position>
            <AltitudeMeters>485.79998779296875</AltitudeMeters>
            <DistanceMeters>358816.92441183</DistanceMeters>
          </Trackpoint>
          <Trackpoint>
            <Time>2018-09-15T09:10:02.000Z</Time>
            <Position>
              <LatitudeDegrees>37.2715142928063869476318359375</LatitudeDegrees>
              <LongitudeDegrees>-7.96401492320001125335693359375</LongitudeDegrees>
            </Position>
            <AltitudeMeters>484.20001220703125</AltitudeMeters>
            <DistanceMeters>358851.09639356</DistanceMeters>
          </Trackpoint>
          <Trackpoint>
            <Time>2018-09-15T09:10:03.000Z</Time>
            <Position>
              <LatitudeDegrees>37.271449081599712371826171875</LatitudeDegrees>
              <LongitudeDegrees>-7.96411936171352863311767578125</LongitudeDegrees>
            </Position>
            <AltitudeMeters>483.399993896484375</AltitudeMeters>
            <DistanceMeters>358862.85438958</DistanceMeters>
          </Trackpoint>
          <Trackpoint>
            <Time>2018-09-15T09:10:06.000Z</Time>
            <Position>
              <LatitudeDegrees>37.27127398364245891571044921875</LatitudeDegrees>
              <LongitudeDegrees>-7.9644584096968173980712890625</LongitudeDegrees>
            </Position>
            <AltitudeMeters>483.399993896484375</AltitudeMeters>
            <DistanceMeters>358898.65386764</DistanceMeters>
          </Trackpoint>
          <Trackpoint>
            <Time>2018-09-15T09:10:11.000Z</Time>
            <Position>
              <LatitudeDegrees>37.27078967727720737457275390625</LatitudeDegrees>
              <LongitudeDegrees>-7.96465806663036346435546875</LongitudeDegrees>
            </Position>
            <AltitudeMeters>480.600006103515625</AltitudeMeters>
            <DistanceMeters>358955.38473653</DistanceMeters>
          </Trackpoint>
          <Trackpoint>
            <Time>2018-09-15T09:10:13.000Z</Time>
            <Position>
              <LatitudeDegrees>37.27061298675835132598876953125</LatitudeDegrees>
              <LongitudeDegrees>-7.96453091315925121307373046875</LongitudeDegrees>
            </Position>
            <AltitudeMeters>480.79998779296875</AltitudeMeters>
            <DistanceMeters>358978.04736276</DistanceMeters>
          </Trackpoint>
          <Trackpoint>
            <Time>2018-09-15T09:10:14.000Z</Time>
            <Position>
              <LatitudeDegrees>37.270538806915283203125</LatitudeDegrees>
              <LongitudeDegrees>-7.9644439928233623504638671875</LongitudeDegrees>
            </Position>
            <AltitudeMeters>480.600006103515625</AltitudeMeters>
            <DistanceMeters>358989.3359605</DistanceMeters>
          </Trackpoint>
          <Trackpoint>
            <Time>2018-09-15T09:10:15.000Z</Time>
            <Position>
              <LatitudeDegrees>37.2704695723950862884521484375</LatitudeDegrees>
              <LongitudeDegrees>-7.96434818767011165618896484375</LongitudeDegrees>
            </Position>
            <AltitudeMeters>480.20001220703125</AltitudeMeters>
            <DistanceMeters>359000.79840405</DistanceMeters>
          </Trackpoint>
          <Trackpoint>
            <Time>2018-09-15T09:10:17.000Z</Time>
            <Position>
              <LatitudeDegrees>37.27033319883048534393310546875</LatitudeDegrees>
              <LongitudeDegrees>-7.96415439806878566741943359375</LongitudeDegrees>
            </Position>
            <AltitudeMeters>480.600006103515625</AltitudeMeters>
            <DistanceMeters>359023.71147116</DistanceMeters>
          </Trackpoint>
          <Trackpoint>
            <Time>2018-09-15T09:10:20.000Z</Time>
            <Position>
              <LatitudeDegrees>37.2701104916632175445556640625</LatitudeDegrees>
              <LongitudeDegrees>-7.963872514665126800537109375</LongitudeDegrees>
            </Position>
            <AltitudeMeters>480.600006103515625</AltitudeMeters>
            <DistanceMeters>359058.89394917</DistanceMeters>
          </Trackpoint>
          <Trackpoint>
            <Time>2018-09-15T09:10:21.000Z</Time>
            <Position>
              <LatitudeDegrees>37.27002474479377269744873046875</LatitudeDegrees>
              <LongitudeDegrees>-7.96378307975828647613525390625</LongitudeDegrees>
            </Position>
            <AltitudeMeters>479.399993896484375</AltitudeMeters>
            <DistanceMeters>359071.29702872</DistanceMeters>
          </Trackpoint>
          <Trackpoint>
            <Time>2018-09-15T09:10:26.000Z</Time>
            <Position>
              <LatitudeDegrees>37.269489057362079620361328125</LatitudeDegrees>
              <LongitudeDegrees>-7.9635203070938587188720703125</LongitudeDegrees>
            </Position>
            <AltitudeMeters>474.79998779296875</AltitudeMeters>
            <DistanceMeters>359135.30187697</DistanceMeters>
          </Trackpoint>
          <Trackpoint>
            <Time>2018-09-15T09:10:27.000Z</Time>
            <Position>
              <LatitudeDegrees>37.2693707048892974853515625</LatitudeDegrees>
              <LongitudeDegrees>-7.96350312419235706329345703125</LongitudeDegrees>
            </Position>
            <AltitudeMeters>473.79998779296875</AltitudeMeters>
            <DistanceMeters>359148.56210504</DistanceMeters>
          </Trackpoint>
          <Trackpoint>
            <Time>2018-09-15T09:10:28.000Z</Time>
            <Position>
              <LatitudeDegrees>37.269251011312007904052734375</LatitudeDegrees>
              <LongitudeDegrees>-7.96349239535629749298095703125</LongitudeDegrees>
            </Position>
            <AltitudeMeters>473</AltitudeMeters>
            <DistanceMeters>359161.91800749</DistanceMeters>
          </Trackpoint>
          <Trackpoint>
            <Time>2018-09-15T09:10:30.000Z</Time>
            <Position>
              <LatitudeDegrees>37.26901070214807987213134765625</LatitudeDegrees>
              <LongitudeDegrees>-7.963483594357967376708984375</LongitudeDegrees>
            </Position>
            <AltitudeMeters>471</AltitudeMeters>
            <DistanceMeters>359188.67608592</DistanceMeters>
          </Trackpoint>
          <Trackpoint>
            <Time>2018-09-15T09:10:32.000Z</Time>
            <Position>
              <LatitudeDegrees>37.268769554793834686279296875</LatitudeDegrees>
              <LongitudeDegrees>-7.963498346507549285888671875</LongitudeDegrees>
            </Position>
            <AltitudeMeters>470</AltitudeMeters>
            <DistanceMeters>359215.54798747</DistanceMeters>
          </Trackpoint>
          <Trackpoint>
            <Time>2018-09-15T09:10:33.000Z</Time>
            <Position>
              <LatitudeDegrees>37.268647514283657073974609375</LatitudeDegrees>
              <LongitudeDegrees>-7.96350697986781597137451171875</LongitudeDegrees>
            </Position>
            <AltitudeMeters>469.600006103515625</AltitudeMeters>
            <DistanceMeters>359229.15307868</DistanceMeters>
          </Trackpoint>
          <Trackpoint>
            <Time>2018-09-15T09:10:34.000Z</Time>
            <Position>
              <LatitudeDegrees>37.2685249708592891693115234375</LatitudeDegrees>
              <LongitudeDegrees>-7.96351837925612926483154296875</LongitudeDegrees>
            </Position>
            <AltitudeMeters>469</AltitudeMeters>
            <DistanceMeters>359242.82966464</DistanceMeters>
          </Trackpoint>
          <Trackpoint>
            <Time>2018-09-15T09:10:35.000Z</Time>
            <Position>
              <LatitudeDegrees>37.26840251125395298004150390625</LatitudeDegrees>
              <LongitudeDegrees>-7.9635322093963623046875</LongitudeDegrees>
            </Position>
            <AltitudeMeters>468.600006103515625</AltitudeMeters>
            <DistanceMeters>359256.51483126</DistanceMeters>
          </Trackpoint>
          <Trackpoint>
            <Time>2018-09-15T09:10:36.000Z</Time>
            <Position>
              <LatitudeDegrees>37.2682818956673145294189453125</LatitudeDegrees>
              <LongitudeDegrees>-7.9635474644601345062255859375</LongitudeDegrees>
            </Position>
            <AltitudeMeters>468</AltitudeMeters>
            <DistanceMeters>359270.00728623</DistanceMeters>
          </Trackpoint>
          <Trackpoint>
            <Time>2018-09-15T09:10:38.000Z</Time>
            <Position>
              <LatitudeDegrees>37.26803421042859554290771484375</LatitudeDegrees>
              <LongitudeDegrees>-7.96357504092156887054443359375</LongitudeDegrees>
            </Position>
            <AltitudeMeters>466.20001220703125</AltitudeMeters>
            <DistanceMeters>359297.68307247</DistanceMeters>
          </Trackpoint>
          <Trackpoint>
            <Time>2018-09-15T09:10:40.000Z</Time>
            <Position>
              <LatitudeDegrees>37.267784513533115386962890625</LatitudeDegrees>
              <LongitudeDegrees>-7.9635980911552906036376953125</LongitudeDegrees>
            </Position>
            <AltitudeMeters>464.79998779296875</AltitudeMeters>
            <DistanceMeters>359325.54972735</DistanceMeters>
          </Trackpoint>
          <Trackpoint>
            <Time>2018-09-15T09:10:44.000Z</Time>
            <Position>
              <LatitudeDegrees>37.2672874666750431060791015625</LatitudeDegrees>
              <LongitudeDegrees>-7.9635977558791637420654296875</LongitudeDegrees>
            </Position>
            <AltitudeMeters>464.79998779296875</AltitudeMeters>
            <DistanceMeters>359380.87209</DistanceMeters>
          </Trackpoint>
          <Trackpoint>
            <Time>2018-09-15T09:10:48.000Z</Time>
            <Position>
              <LatitudeDegrees>37.26684833876788616180419921875</LatitudeDegrees>
              <LongitudeDegrees>-7.96331805177032947540283203125</LongitudeDegrees>
            </Position>
            <AltitudeMeters>464.399993896484375</AltitudeMeters>
            <DistanceMeters>359435.66856734</DistanceMeters>
          </Trackpoint>
          <Trackpoint>
            <Time>2018-09-15T09:10:49.000Z</Time>
            <Position>
              <LatitudeDegrees>37.26675513200461864471435546875</LatitudeDegrees>
              <LongitudeDegrees>-7.96321998350322246551513671875</LongitudeDegrees>
            </Position>
            <AltitudeMeters>464.399993896484375</AltitudeMeters>
            <DistanceMeters>359449.19911684</DistanceMeters>
          </Trackpoint>
          <Trackpoint>
            <Time>2018-09-15T09:10:50.000Z</Time>
            <Position>
              <LatitudeDegrees>37.2666658647358417510986328125</LatitudeDegrees>
              <LongitudeDegrees>-7.96312208287417888641357421875</LongitudeDegrees>
            </Position>
            <AltitudeMeters>462.79998779296875</AltitudeMeters>
            <DistanceMeters>359462.38696247</DistanceMeters>
          </Trackpoint>
          <Trackpoint>
            <Time>2018-09-15T09:10:51.000Z</Time>
            <Position>
              <LatitudeDegrees>37.26658028550446033477783203125</LatitudeDegrees>
              <LongitudeDegrees>-7.96302057802677154541015625</LongitudeDegrees>
            </Position>
            <AltitudeMeters>462</AltitudeMeters>
            <DistanceMeters>359475.4851464</DistanceMeters>
          </Trackpoint>
          <Trackpoint>
            <Time>2018-09-15T09:10:53.000Z</Time>
            <Position>
              <LatitudeDegrees>37.2664160840213298797607421875</LatitudeDegrees>
              <LongitudeDegrees>-7.9628299735486507415771484375</LongitudeDegrees>
            </Position>
            <AltitudeMeters>461.600006103515625</AltitudeMeters>
            <DistanceMeters>359500.36581883</DistanceMeters>
          </Trackpoint>
          <Trackpoint>
            <Time>2018-09-15T09:10:55.000Z</Time>
            <Position>
              <LatitudeDegrees>37.26625791750848293304443359375</LatitudeDegrees>
              <LongitudeDegrees>-7.962655127048492431640625</LongitudeDegrees>
            </Position>
            <AltitudeMeters>460.20001220703125</AltitudeMeters>
            <DistanceMeters>359523.81278204</DistanceMeters>
          </Trackpoint>
          <Trackpoint>
            <Time>2018-09-15T09:10:59.000Z</Time>
            <Position>
              <LatitudeDegrees>37.265941165387630462646484375</LatitudeDegrees>
              <LongitudeDegrees>-7.96235228888690471649169921875</LongitudeDegrees>
            </Position>
            <AltitudeMeters>460.79998779296875</AltitudeMeters>
            <DistanceMeters>359568.11276459</DistanceMeters>
          </Trackpoint>
          <Trackpoint>
            <Time>2018-09-15T09:11:00.000Z</Time>
            <Position>
              <LatitudeDegrees>37.26586095057427883148193359375</LatitudeDegrees>
              <LongitudeDegrees>-7.9622851498425006866455078125</LongitudeDegrees>
            </Position>
            <AltitudeMeters>459.79998779296875</AltitudeMeters>
            <DistanceMeters>359578.84026636</DistanceMeters>
          </Trackpoint>
          <Trackpoint>
            <Time>2018-09-15T09:11:03.000Z</Time>
            <Position>
              <LatitudeDegrees>37.26562374271452426910400390625</LatitudeDegrees>
              <LongitudeDegrees>-7.9620932042598724365234375</LongitudeDegrees>
            </Position>
            <AltitudeMeters>459.79998779296875</AltitudeMeters>
            <DistanceMeters>359610.24282148</DistanceMeters>
          </Trackpoint>
          <Trackpoint>
            <Time>2018-09-15T09:11:10.000Z</Time>
            <Position>
              <LatitudeDegrees>37.26510465145111083984375</LatitudeDegrees>
              <LongitudeDegrees>-7.96169699169695377349853515625</LongitudeDegrees>
            </Position>
            <AltitudeMeters>460.399993896484375</AltitudeMeters>
            <DistanceMeters>359677.84282506</DistanceMeters>
          </Trackpoint>
          <Trackpoint>
            <Time>2018-09-15T09:11:14.000Z</Time>
            <Position>
              <LatitudeDegrees>37.26486735977232456207275390625</LatitudeDegrees>
              <LongitudeDegrees>-7.96152214519679546356201171875</LongitudeDegrees>
            </Position>
            <AltitudeMeters>459.600006103515625</AltitudeMeters>
            <DistanceMeters>359708.45986616</DistanceMeters>
          </Trackpoint>
          <Trackpoint>
            <Time>2018-09-15T09:11:17.000Z</Time>
            <Position>
              <LatitudeDegrees>37.26471497677266597747802734375</LatitudeDegrees>
              <LongitudeDegrees>-7.96141468919813632965087890625</LongitudeDegrees>
            </Position>
            <AltitudeMeters>459.600006103515625</AltitudeMeters>
            <DistanceMeters>359727.90856386</DistanceMeters>
          </Trackpoint>
          <Trackpoint>
            <Time>2018-09-15T09:11:18.000Z</Time>
            <Position>
              <LatitudeDegrees>37.26466636173427104949951171875</LatitudeDegrees>
              <LongitudeDegrees>-7.9613832570612430572509765625</LongitudeDegrees>
            </Position>
            <AltitudeMeters>459.600006103515625</AltitudeMeters>
            <DistanceMeters>359733.99324244</DistanceMeters>
          </Trackpoint>
          <Trackpoint>
            <Time>2018-09-15T09:11:20.000Z</Time>
            <Position>
              <LatitudeDegrees>37.26456594653427600860595703125</LatitudeDegrees>
              <LongitudeDegrees>-7.9613279365003108978271484375</LongitudeDegrees>
            </Position>
            <AltitudeMeters>459.79998779296875</AltitudeMeters>
            <DistanceMeters>359746.19668542</DistanceMeters>
          </Trackpoint>
          <Trackpoint>
            <Time>2018-09-15T09:11:21.000Z</Time>
            <Position>
              <LatitudeDegrees>37.2645127214491367340087890625</LatitudeDegrees>
              <LongitudeDegrees>-7.96131201088428497314453125</LongitudeDegrees>
            </Position>
            <AltitudeMeters>460.20001220703125</AltitudeMeters>
            <DistanceMeters>359752.28581458</DistanceMeters>
          </Trackpoint>
          <Trackpoint>
            <Time>2018-09-15T09:11:24.000Z</Time>
            <Position>
              <LatitudeDegrees>37.26435589604079723358154296875</LatitudeDegrees>
              <LongitudeDegrees>-7.96132332645356655120849609375</LongitudeDegrees>
            </Position>
            <AltitudeMeters>461.79998779296875</AltitudeMeters>
            <DistanceMeters>359769.76943885</DistanceMeters>
          </Trackpoint>
          <Trackpoint>
            <Time>2018-09-15T09:11:26.000Z</Time>
            <Position>
              <LatitudeDegrees>37.26427140645682811737060546875</LatitudeDegrees>
              <LongitudeDegrees>-7.96139004640281200408935546875</LongitudeDegrees>
            </Position>
            <AltitudeMeters>463</AltitudeMeters>
            <DistanceMeters>359780.87578138</DistanceMeters>
          </Trackpoint>
          <Trackpoint>
            <Time>2018-09-15T09:11:27.000Z</Time>
            <Position>
              <LatitudeDegrees>37.26423888467252254486083984375</LatitudeDegrees>
              <LongitudeDegrees>-7.96143815852701663970947265625</LongitudeDegrees>
            </Position>
            <AltitudeMeters>463.79998779296875</AltitudeMeters>
            <DistanceMeters>359786.46703568</DistanceMeters>
          </Trackpoint>
          <Trackpoint>
            <Time>2018-09-15T09:11:30.000Z</Time>
            <Position>
              <LatitudeDegrees>37.26416914723813533782958984375</LatitudeDegrees>
              <LongitudeDegrees>-7.961608059704303741455078125</LongitudeDegrees>
            </Position>
            <AltitudeMeters>465.600006103515625</AltitudeMeters>
            <DistanceMeters>359803.40046555</DistanceMeters>
          </Trackpoint>
          <Trackpoint>
            <Time>2018-09-15T09:11:31.000Z</Time>
            <Position>
              <LatitudeDegrees>37.26415188051760196685791015625</LatitudeDegrees>
              <LongitudeDegrees>-7.96166564337909221649169921875</LongitudeDegrees>
            </Position>
            <AltitudeMeters>466.20001220703125</AltitudeMeters>
            <DistanceMeters>359808.8510574</DistanceMeters>
          </Trackpoint>
          <Trackpoint>
            <Time>2018-09-15T09:11:32.000Z</Time>
            <Position>
              <LatitudeDegrees>37.2641378827393054962158203125</LatitudeDegrees>
              <LongitudeDegrees>-7.96172372996807098388671875</LongitudeDegrees>
            </Position>
            <AltitudeMeters>466.79998779296875</AltitudeMeters>
            <DistanceMeters>359814.22825972</DistanceMeters>
          </Trackpoint>
          <Trackpoint>
            <Time>2018-09-15T09:11:34.000Z</Time>
            <Position>
              <LatitudeDegrees>37.26411030627787113189697265625</LatitudeDegrees>
              <LongitudeDegrees>-7.961844094097614288330078125</LongitudeDegrees>
            </Position>
            <AltitudeMeters>467.600006103515625</AltitudeMeters>
            <DistanceMeters>359825.32280667</DistanceMeters>
          </Trackpoint>
          <Trackpoint>
            <Time>2018-09-15T09:11:35.000Z</Time>
            <Position>
              <LatitudeDegrees>37.26408918388187885284423828125</LatitudeDegrees>
              <LongitudeDegrees>-7.9619019292294979095458984375</LongitudeDegrees>
            </Position>
            <AltitudeMeters>467.79998779296875</AltitudeMeters>
            <DistanceMeters>359830.95990158</DistanceMeters>
          </Trackpoint>
          <Trackpoint>
            <Time>2018-09-15T09:11:37.000Z</Time>
            <Position>
              <LatitudeDegrees>37.26402129046618938446044921875</LatitudeDegrees>
              <LongitudeDegrees>-7.962001003324985504150390625</LongitudeDegrees>
            </Position>
            <AltitudeMeters>468</AltitudeMeters>
            <DistanceMeters>359842.54108137</DistanceMeters>
          </Trackpoint>
          <Trackpoint>
            <Time>2018-09-15T09:11:42.000Z</Time>
            <Position>
              <LatitudeDegrees>37.2637380659580230712890625</LatitudeDegrees>
              <LongitudeDegrees>-7.96215229667723178863525390625</LongitudeDegrees>
            </Position>
            <AltitudeMeters>467.20001220703125</AltitudeMeters>
            <DistanceMeters>359876.79501564</DistanceMeters>
          </Trackpoint>
          <Trackpoint>
            <Time>2018-09-15T09:11:43.000Z</Time>
            <Position>
              <LatitudeDegrees>37.263667993247509002685546875</LatitudeDegrees>
              <LongitudeDegrees>-7.9621718265116214752197265625</LongitudeDegrees>
            </Position>
            <AltitudeMeters>466.79998779296875</AltitudeMeters>
            <DistanceMeters>359884.78347921</DistanceMeters>
          </Trackpoint>
          <Trackpoint>
            <Time>2018-09-15T09:11:46.000Z</Time>
            <Position>
              <LatitudeDegrees>37.26343891583383083343505859375</LatitudeDegrees>
              <LongitudeDegrees>-7.96222153119742870330810546875</LongitudeDegrees>
            </Position>
            <AltitudeMeters>465.79998779296875</AltitudeMeters>
            <DistanceMeters>359910.65763248</DistanceMeters>
          </Trackpoint>
          <Trackpoint>
            <Time>2018-09-15T09:11:47.000Z</Time>
            <Position>
              <LatitudeDegrees>37.26335660554468631744384765625</LatitudeDegrees>
              <LongitudeDegrees>-7.9622227884829044342041015625</LongitudeDegrees>
            </Position>
            <AltitudeMeters>465.20001220703125</AltitudeMeters>
            <DistanceMeters>359919.81970597</DistanceMeters>
          </Trackpoint>
          <Trackpoint>
            <Time>2018-09-15T09:11:50.000Z</Time>
            <Position>
              <LatitudeDegrees>37.263132221996784210205078125</LatitudeDegrees>
              <LongitudeDegrees>-7.96207367442548274993896484375</LongitudeDegrees>
            </Position>
            <AltitudeMeters>463.399993896484375</AltitudeMeters>
            <DistanceMeters>359948.07190088</DistanceMeters>
          </Trackpoint>
          <Trackpoint>
            <Time>2018-09-15T09:11:52.000Z</Time>
            <Position>
              <LatitudeDegrees>37.2630599699914455413818359375</LatitudeDegrees>
              <LongitudeDegrees>-7.96185758896172046661376953125</LongitudeDegrees>
            </Position>
            <AltitudeMeters>462.600006103515625</AltitudeMeters>
            <DistanceMeters>359968.83387884</DistanceMeters>
          </Trackpoint>
          <Trackpoint>
            <Time>2018-09-15T09:11:54.000Z</Time>
            <Position>
              <LatitudeDegrees>37.26305284537374973297119140625</LatitudeDegrees>
              <LongitudeDegrees>-7.96161912381649017333984375</LongitudeDegrees>
            </Position>
            <AltitudeMeters>462.399993896484375</AltitudeMeters>
            <DistanceMeters>359989.97235733</DistanceMeters>
          </Trackpoint>
          <Trackpoint>
            <Time>2018-09-15T09:11:56.000Z</Time>
            <Position>
              <LatitudeDegrees>37.26304563693702220916748046875</LatitudeDegrees>
              <LongitudeDegrees>-7.9613862745463848114013671875</LongitudeDegrees>
            </Position>
            <AltitudeMeters>462.20001220703125</AltitudeMeters>
            <DistanceMeters>360010.61416338</DistanceMeters>
          </Trackpoint>
          <Trackpoint>
            <Time>2018-09-15T09:11:57.000Z</Time>
            <Position>
              <LatitudeDegrees>37.26302635855972766876220703125</LatitudeDegrees>
              <LongitudeDegrees>-7.9612732864916324615478515625</LongitudeDegrees>
            </Position>
            <AltitudeMeters>462</AltitudeMeters>
            <DistanceMeters>360020.8501771</DistanceMeters>
          </Trackpoint>
          <Trackpoint>
            <Time>2018-09-15T09:12:00.000Z</Time>
            <Position>
              <LatitudeDegrees>37.26290632970631122589111328125</LatitudeDegrees>
              <LongitudeDegrees>-7.96097715385258197784423828125</LongitudeDegrees>
            </Position>
            <AltitudeMeters>462.79998779296875</AltitudeMeters>
            <DistanceMeters>360050.28791336</DistanceMeters>
          </Trackpoint>
          <Trackpoint>
            <Time>2018-09-15T09:12:04.000Z</Time>
            <Position>
              <LatitudeDegrees>37.26269938051700592041015625</LatitudeDegrees>
              <LongitudeDegrees>-7.96063341200351715087890625</LongitudeDegrees>
            </Position>
            <AltitudeMeters>464.399993896484375</AltitudeMeters>
            <DistanceMeters>360088.467845</DistanceMeters>
          </Trackpoint>
          <Trackpoint>
            <Time>2018-09-15T09:12:09.000Z</Time>
            <Position>
              <LatitudeDegrees>37.26244465447962284088134765625</LatitudeDegrees>
              <LongitudeDegrees>-7.960214316844940185546875</LongitudeDegrees>
            </Position>
            <AltitudeMeters>461</AltitudeMeters>
            <DistanceMeters>360135.17983074</DistanceMeters>
          </Trackpoint>
          <Trackpoint>
            <Time>2018-09-15T09:12:12.000Z</Time>
            <Position>
              <LatitudeDegrees>37.262293361127376556396484375</LatitudeDegrees>
              <LongitudeDegrees>-7.95997115783393383026123046875</LongitudeDegrees>
            </Position>
            <AltitudeMeters>460.20001220703125</AltitudeMeters>
            <DistanceMeters>360162.52045488</DistanceMeters>
          </Trackpoint>
          <Trackpoint>
            <Time>2018-09-15T09:12:19.000Z</Time>
            <Position>
              <LatitudeDegrees>37.26195238530635833740234375</LatitudeDegrees>
              <LongitudeDegrees>-7.959409989416599273681640625</LongitudeDegrees>
            </Position>
            <AltitudeMeters>459</AltitudeMeters>
            <DistanceMeters>360225.06124574</DistanceMeters>
          </Trackpoint>
          <Trackpoint>
            <Time>2018-09-15T09:12:26.000Z</Time>
            <Position>
              <LatitudeDegrees>37.26159389130771160125732421875</LatitudeDegrees>
              <LongitudeDegrees>-7.95889156870543956756591796875</LongitudeDegrees>
            </Position>
            <AltitudeMeters>458</AltitudeMeters>
            <DistanceMeters>360285.89741953</DistanceMeters>
          </Trackpoint>
          <Trackpoint>
            <Time>2018-09-15T09:12:33.000Z</Time>
            <Position>
              <LatitudeDegrees>37.26117211394011974334716796875</LatitudeDegrees>
              <LongitudeDegrees>-7.9585022293031215667724609375</LongitudeDegrees>
            </Position>
            <AltitudeMeters>461</AltitudeMeters>
            <DistanceMeters>360344.149338</DistanceMeters>
          </Trackpoint>
          <Trackpoint>
            <Time>2018-09-15T09:12:41.000Z</Time>
            <Position>
              <LatitudeDegrees>37.26064371876418590545654296875</LatitudeDegrees>
              <LongitudeDegrees>-7.958170473575592041015625</LongitudeDegrees>
            </Position>
            <AltitudeMeters>460.79998779296875</AltitudeMeters>
            <DistanceMeters>360409.8947088</DistanceMeters>
          </Trackpoint>
          <Trackpoint>
            <Time>2018-09-15T09:12:43.000Z</Time>
            <Position>
              <LatitudeDegrees>37.2605018131434917449951171875</LatitudeDegrees>
              <LongitudeDegrees>-7.95812563039362430572509765625</LongitudeDegrees>
            </Position>
            <AltitudeMeters>460.20001220703125</AltitudeMeters>
            <DistanceMeters>360426.18091264</DistanceMeters>
          </Trackpoint>
          <Trackpoint>
            <Time>2018-09-15T09:12:48.000Z</Time>
            <Position>
              <LatitudeDegrees>37.260140217840671539306640625</LatitudeDegrees>
              <LongitudeDegrees>-7.958202660083770751953125</LongitudeDegrees>
            </Position>
            <AltitudeMeters>461.399993896484375</AltitudeMeters>
            <DistanceMeters>360467.00149576</DistanceMeters>
          </Trackpoint>
          <Trackpoint>
            <Time>2018-09-15T09:12:53.000Z</Time>
            <Position>
              <LatitudeDegrees>37.2597866691648960113525390625</LatitudeDegrees>
              <LongitudeDegrees>-7.95835219323635101318359375</LongitudeDegrees>
            </Position>
            <AltitudeMeters>463.399993896484375</AltitudeMeters>
            <DistanceMeters>360508.52197208</DistanceMeters>
          </Trackpoint>
          <Trackpoint>
            <Time>2018-09-15T09:12:59.000Z</Time>
            <Position>
              <LatitudeDegrees>37.25946865975856781005859375</LatitudeDegrees>
              <LongitudeDegrees>-7.95811775140464305877685546875</LongitudeDegrees>
            </Position>
            <AltitudeMeters>460.79998779296875</AltitudeMeters>
            <DistanceMeters>360549.56009237</DistanceMeters>
          </Trackpoint>
          <Trackpoint>
            <Time>2018-09-15T09:13:02.000Z</Time>
            <Position>
              <LatitudeDegrees>37.25946404971182346343994140625</LatitudeDegrees>
              <LongitudeDegrees>-7.95788004063069820404052734375</LongitudeDegrees>
            </Position>
            <AltitudeMeters>460.79998779296875</AltitudeMeters>
            <DistanceMeters>360570.62432357</DistanceMeters>
          </Trackpoint>
          <Trackpoint>
            <Time>2018-09-15T09:13:05.000Z</Time>
            <Position>
              <LatitudeDegrees>37.259480059146881103515625</LatitudeDegrees>
              <LongitudeDegrees>-7.957645095884799957275390625</LongitudeDegrees>
            </Position>
            <AltitudeMeters>461.20001220703125</AltitudeMeters>
            <DistanceMeters>360591.51313215</DistanceMeters>
          </Trackpoint>
          <Trackpoint>
            <Time>2018-09-15T09:13:06.000Z</Time>
            <Position>
              <LatitudeDegrees>37.2594795562326908111572265625</LatitudeDegrees>
              <LongitudeDegrees>-7.95756504870951175689697265625</LongitudeDegrees>
            </Position>
            <AltitudeMeters>461.399993896484375</AltitudeMeters>
            <DistanceMeters>360598.60393363</DistanceMeters>
          </Trackpoint>
          <Trackpoint>
            <Time>2018-09-15T09:13:08.000Z</Time>
            <Position>
              <LatitudeDegrees>37.25945298559963703155517578125</LatitudeDegrees>
              <LongitudeDegrees>-7.95741769485175609588623046875</LongitudeDegrees>
            </Position>
            <AltitudeMeters>461.20001220703125</AltitudeMeters>
            <DistanceMeters>360611.98820262</DistanceMeters>
          </Trackpoint>
          <Trackpoint>
            <Time>2018-09-15T09:13:11.000Z</Time>
            <Position>
              <LatitudeDegrees>37.25935810245573520660400390625</LatitudeDegrees>
              <LongitudeDegrees>-7.95723480172455310821533203125</LongitudeDegrees>
            </Position>
            <AltitudeMeters>461.600006103515625</AltitudeMeters>
            <DistanceMeters>360631.32794839</DistanceMeters>
          </Trackpoint>
          <Trackpoint>
            <Time>2018-09-15T09:13:13.000Z</Time>
            <Position>
              <LatitudeDegrees>37.259273193776607513427734375</LatitudeDegrees>
              <LongitudeDegrees>-7.9571339674293994903564453125</LongitudeDegrees>
            </Position>
            <AltitudeMeters>462.20001220703125</AltitudeMeters>
            <DistanceMeters>360644.33203396</DistanceMeters>
          </Trackpoint>
          <Trackpoint>
            <Time>2018-09-15T09:13:17.000Z</Time>
            <Position>
              <LatitudeDegrees>37.25908334366977214813232421875</LatitudeDegrees>
              <LongitudeDegrees>-7.95695937238633632659912109375</LongitudeDegrees>
            </Position>
            <AltitudeMeters>463.79998779296875</AltitudeMeters>
            <DistanceMeters>360670.51823099</DistanceMeters>
          </Trackpoint>
          <Trackpoint>
            <Time>2018-09-15T09:13:21.000Z</Time>
            <Position>
              <LatitudeDegrees>37.258895672857761383056640625</LatitudeDegrees>
              <LongitudeDegrees>-7.9568027146160602569580078125</LongitudeDegrees>
            </Position>
            <AltitudeMeters>465.399993896484375</AltitudeMeters>
            <DistanceMeters>360695.59628323</DistanceMeters>
          </Trackpoint>
          <Trackpoint>
            <Time>2018-09-15T09:13:27.000Z</Time>
            <Position>
              <LatitudeDegrees>37.25865251384675502777099609375</LatitudeDegrees>
              <LongitudeDegrees>-7.95660280622541904449462890625</LongitudeDegrees>
            </Position>
            <AltitudeMeters>467.20001220703125</AltitudeMeters>
            <DistanceMeters>360727.93944596</DistanceMeters>
          </Trackpoint>
          <Trackpoint>
            <Time>2018-09-15T09:13:30.000Z</Time>
            <Position>
              <LatitudeDegrees>37.2585357539355754852294921875</LatitudeDegrees>
              <LongitudeDegrees>-7.9565147124230861663818359375</LongitudeDegrees>
            </Position>
            <AltitudeMeters>468.20001220703125</AltitudeMeters>
            <DistanceMeters>360743.09791967</DistanceMeters>
          </Trackpoint>
          <Trackpoint>
            <Time>2018-09-15T09:13:33.000Z</Time>
            <Position>
              <LatitudeDegrees>37.25841731764376163482666015625</LatitudeDegrees>
              <LongitudeDegrees>-7.95643508434295654296875</LongitudeDegrees>
            </Position>
            <AltitudeMeters>470</AltitudeMeters>
            <DistanceMeters>360758.04885651</DistanceMeters>
          </Trackpoint>
          <Trackpoint>
            <Time>2018-09-15T09:13:38.000Z</Time>
            <Position>
              <LatitudeDegrees>37.2582128830254077911376953125</LatitudeDegrees>
              <LongitudeDegrees>-7.95633743517100811004638671875</LongitudeDegrees>
            </Position>
            <AltitudeMeters>472.79998779296875</AltitudeMeters>
            <DistanceMeters>360782.39165167</DistanceMeters>
          </Trackpoint>
          <Trackpoint>
            <Time>2018-09-15T09:13:43.000Z</Time>
            <Position>
              <LatitudeDegrees>37.2580093704164028167724609375</LatitudeDegrees>
              <LongitudeDegrees>-7.9562491737306118011474609375</LongitudeDegrees>
            </Position>
            <AltitudeMeters>474.600006103515625</AltitudeMeters>
            <DistanceMeters>360806.35421625</DistanceMeters>
          </Trackpoint>
          <Trackpoint>
            <Time>2018-09-15T09:13:47.000Z</Time>
            <Position>
              <LatitudeDegrees>37.2578390501439571380615234375</LatitudeDegrees>
              <LongitudeDegrees>-7.9561841301620006561279296875</LongitudeDegrees>
            </Position>
            <AltitudeMeters>475.600006103515625</AltitudeMeters>
            <DistanceMeters>360826.16722922</DistanceMeters>
          </Trackpoint>
          <Trackpoint>
            <Time>2018-09-15T09:13:52.000Z</Time>
            <Position>
              <LatitudeDegrees>37.2576093859970569610595703125</LatitudeDegrees>
              <LongitudeDegrees>-7.95610626228153705596923828125</LongitudeDegrees>
            </Position>
            <AltitudeMeters>476.79998779296875</AltitudeMeters>
            <DistanceMeters>360852.64355458</DistanceMeters>
          </Trackpoint>
          <Trackpoint>
            <Time>2018-09-15T09:13:59.000Z</Time>
            <Position>
              <LatitudeDegrees>37.25728861056268215179443359375</LatitudeDegrees>
              <LongitudeDegrees>-7.95602831058204174041748046875</LongitudeDegrees>
            </Position>
            <AltitudeMeters>477.79998779296875</AltitudeMeters>
            <DistanceMeters>360889.00825566</DistanceMeters>
          </Trackpoint>
          <Trackpoint>
            <Time>2018-09-15T09:14:02.000Z</Time>
            <Position>
              <LatitudeDegrees>37.257198505103588104248046875</LatitudeDegrees>
              <LongitudeDegrees>-7.95600836165249347686767578125</LongitudeDegrees>
            </Position>
            <AltitudeMeters>477.20001220703125</AltitudeMeters>
            <DistanceMeters>360899.19208735</DistanceMeters>
          </Trackpoint>
          <Trackpoint>
            <Time>2018-09-15T09:14:07.000Z</Time>
            <Position>
              <LatitudeDegrees>37.2571376524865627288818359375</LatitudeDegrees>
              <LongitudeDegrees>-7.95601473189890384674072265625</LongitudeDegrees>
            </Position>
            <AltitudeMeters>477.20001220703125</AltitudeMeters>
            <DistanceMeters>360905.98898893</DistanceMeters>
          </Trackpoint>
          <Trackpoint>
            <Time>2018-09-15T09:14:09.000Z</Time>
            <Position>
              <LatitudeDegrees>37.2571389935910701751708984375</LatitudeDegrees>
              <LongitudeDegrees>-7.95601707883179187774658203125</LongitudeDegrees>
            </Position>
            <AltitudeMeters>477.20001220703125</AltitudeMeters>
            <DistanceMeters>360906.24040599</DistanceMeters>
          </Trackpoint>
          <Trackpoint>
            <Time>2018-09-15T09:26:14.000Z</Time>
            <Position>
              <LatitudeDegrees>37.2570588625967502593994140625</LatitudeDegrees>
              <LongitudeDegrees>-7.95595320872962474822998046875</LongitudeDegrees>
            </Position>
            <AltitudeMeters>476</AltitudeMeters>
            <DistanceMeters>360916.80205994</DistanceMeters>
          </Trackpoint>
          <Trackpoint>
            <Time>2018-09-15T09:26:15.000Z</Time>
            <Position>
              <LatitudeDegrees>37.25704302079975605010986328125</LatitudeDegrees>
              <LongitudeDegrees>-7.9559524543583393096923828125</LongitudeDegrees>
            </Position>
            <AltitudeMeters>476</AltitudeMeters>
            <DistanceMeters>360918.56454293</DistanceMeters>
          </Trackpoint>
          <Trackpoint>
            <Time>2018-09-15T09:26:22.000Z</Time>
            <Position>
              <LatitudeDegrees>37.25684872828423976898193359375</LatitudeDegrees>
              <LongitudeDegrees>-7.95591850765049457550048828125</LongitudeDegrees>
            </Position>
            <AltitudeMeters>475</AltitudeMeters>
            <DistanceMeters>360940.39795163</DistanceMeters>
          </Trackpoint>
          <Trackpoint>
            <Time>2018-09-15T09:26:25.000Z</Time>
            <Position>
              <LatitudeDegrees>37.25674244575202465057373046875</LatitudeDegrees>
              <LongitudeDegrees>-7.95591331087052822113037109375</LongitudeDegrees>
            </Position>
            <AltitudeMeters>474.399993896484375</AltitudeMeters>
            <DistanceMeters>360952.23631243</DistanceMeters>
          </Trackpoint>
          <Trackpoint>
            <Time>2018-09-15T09:26:37.000Z</Time>
            <Position>
              <LatitudeDegrees>37.2561871446669101715087890625</LatitudeDegrees>
              <LongitudeDegrees>-7.955827228724956512451171875</LongitudeDegrees>
            </Position>
            <AltitudeMeters>472.79998779296875</AltitudeMeters>
            <DistanceMeters>361014.51108205</DistanceMeters>
          </Trackpoint>
          <Trackpoint>
            <Time>2018-09-15T09:26:40.000Z</Time>
            <Position>
              <LatitudeDegrees>37.255998551845550537109375</LatitudeDegrees>
              <LongitudeDegrees>-7.95577534474432468414306640625</LongitudeDegrees>
            </Position>
            <AltitudeMeters>472.20001220703125</AltitudeMeters>
            <DistanceMeters>361035.99930973</DistanceMeters>
          </Trackpoint>
          <Trackpoint>
            <Time>2018-09-15T09:26:44.000Z</Time>
            <Position>
              <LatitudeDegrees>37.25570074282586574554443359375</LatitudeDegrees>
              <LongitudeDegrees>-7.9556993208825588226318359375</LongitudeDegrees>
            </Position>
            <AltitudeMeters>470</AltitudeMeters>
            <DistanceMeters>361069.82348104</DistanceMeters>
          </Trackpoint>
          <Trackpoint>
            <Time>2018-09-15T09:26:46.000Z</Time>
            <Position>
              <LatitudeDegrees>37.255532853305339813232421875</LatitudeDegrees>
              <LongitudeDegrees>-7.95566252432763576507568359375</LongitudeDegrees>
            </Position>
            <AltitudeMeters>468.20001220703125</AltitudeMeters>
            <DistanceMeters>361088.79220335</DistanceMeters>
          </Trackpoint>
          <Trackpoint>
            <Time>2018-09-15T09:26:49.000Z</Time>
            <Position>
              <LatitudeDegrees>37.25526186637580394744873046875</LatitudeDegrees>
              <LongitudeDegrees>-7.95561172999441623687744140625</LongitudeDegrees>
            </Position>
            <AltitudeMeters>465.399993896484375</AltitudeMeters>
            <DistanceMeters>361119.28763666</DistanceMeters>
          </Trackpoint>
          <Trackpoint>
            <Time>2018-09-15T09:26:51.000Z</Time>
            <Position>
              <LatitudeDegrees>37.255069501698017120361328125</LatitudeDegrees>
              <LongitudeDegrees>-7.95558289624750614166259765625</LongitudeDegrees>
            </Position>
            <AltitudeMeters>465.20001220703125</AltitudeMeters>
            <DistanceMeters>361140.8503268</DistanceMeters>
          </Trackpoint>
          <Trackpoint>
            <Time>2018-09-15T09:26:53.000Z</Time>
            <Position>
              <LatitudeDegrees>37.25487261079251766204833984375</LatitudeDegrees>
              <LongitudeDegrees>-7.955554313957691192626953125</LongitudeDegrees>
            </Position>
            <AltitudeMeters>465.399993896484375</AltitudeMeters>
            <DistanceMeters>361162.91044647</DistanceMeters>
          </Trackpoint>
          <Trackpoint>
            <Time>2018-09-15T09:26:55.000Z</Time>
            <Position>
              <LatitudeDegrees>37.25467748008668422698974609375</LatitudeDegrees>
              <LongitudeDegrees>-7.95552154071629047393798828125</LongitudeDegrees>
            </Position>
            <AltitudeMeters>465.79998779296875</AltitudeMeters>
            <DistanceMeters>361184.82229633</DistanceMeters>
          </Trackpoint>
          <Trackpoint>
            <Time>2018-09-15T09:26:57.000Z</Time>
            <Position>
              <LatitudeDegrees>37.25449592806398868560791015625</LatitudeDegrees>
              <LongitudeDegrees>-7.95549874193966388702392578125</LongitudeDegrees>
            </Position>
            <AltitudeMeters>466</AltitudeMeters>
            <DistanceMeters>361205.13024111</DistanceMeters>
          </Trackpoint>
          <Trackpoint>
            <Time>2018-09-15T09:26:59.000Z</Time>
            <Position>
              <LatitudeDegrees>37.25432996638119220733642578125</LatitudeDegrees>
              <LongitudeDegrees>-7.955474518239498138427734375</LongitudeDegrees>
            </Position>
            <AltitudeMeters>466.20001220703125</AltitudeMeters>
            <DistanceMeters>361223.72636457</DistanceMeters>
          </Trackpoint>
          <Trackpoint>
            <Time>2018-09-15T09:27:02.000Z</Time>
            <Position>
              <LatitudeDegrees>37.2540970332920551300048828125</LatitudeDegrees>
              <LongitudeDegrees>-7.95543537475168704986572265625</LongitudeDegrees>
            </Position>
            <AltitudeMeters>466.399993896484375</AltitudeMeters>
            <DistanceMeters>361249.88306107</DistanceMeters>
          </Trackpoint>
          <Trackpoint>
            <Time>2018-09-15T09:27:04.000Z</Time>
            <Position>
              <LatitudeDegrees>37.253942303359508514404296875</LatitudeDegrees>
              <LongitudeDegrees>-7.955417521297931671142578125</LongitudeDegrees>
            </Position>
            <AltitudeMeters>466.399993896484375</AltitudeMeters>
            <DistanceMeters>361267.17740095</DistanceMeters>
          </Trackpoint>
          <Trackpoint>
            <Time>2018-09-15T09:27:08.000Z</Time>
            <Position>
              <LatitudeDegrees>37.25364449433982372283935546875</LatitudeDegrees>
              <LongitudeDegrees>-7.955376617610454559326171875</LongitudeDegrees>
            </Position>
            <AltitudeMeters>466.600006103515625</AltitudeMeters>
            <DistanceMeters>361300.52162372</DistanceMeters>
          </Trackpoint>
          <Trackpoint>
            <Time>2018-09-15T09:27:12.000Z</Time>
            <Position>
              <LatitudeDegrees>37.2533792071044445037841796875</LatitudeDegrees>
              <LongitudeDegrees>-7.95534485019743442535400390625</LongitudeDegrees>
            </Position>
            <AltitudeMeters>466.79998779296875</AltitudeMeters>
            <DistanceMeters>361330.18244346</DistanceMeters>
          </Trackpoint>
          <Trackpoint>
            <Time>2018-09-15T09:27:16.000Z</Time>
            <Position>
              <LatitudeDegrees>37.25313839502632617950439453125</LatitudeDegrees>
              <LongitudeDegrees>-7.95531333424150943756103515625</LongitudeDegrees>
            </Position>
            <AltitudeMeters>468.79998779296875</AltitudeMeters>
            <DistanceMeters>361357.13051849</DistanceMeters>
          </Trackpoint>
          <Trackpoint>
            <Time>2018-09-15T09:27:17.000Z</Time>
            <Position>
              <LatitudeDegrees>37.25308324210345745086669921875</LatitudeDegrees>
              <LongitudeDegrees>-7.9553047008812427520751953125</LongitudeDegrees>
            </Position>
            <AltitudeMeters>469.399993896484375</AltitudeMeters>
            <DistanceMeters>361363.31675029</DistanceMeters>
          </Trackpoint>
          <Trackpoint>
            <Time>2018-09-15T09:27:19.000Z</Time>
            <Position>
              <LatitudeDegrees>37.2529775463044643402099609375</LatitudeDegrees>
              <LongitudeDegrees>-7.95528885908424854278564453125</LongitudeDegrees>
            </Position>
            <AltitudeMeters>470.20001220703125</AltitudeMeters>
            <DistanceMeters>361375.16426093</DistanceMeters>
          </Trackpoint>
          <Trackpoint>
            <Time>2018-09-15T09:27:20.000Z</Time>
            <Position>
              <LatitudeDegrees>37.2529269196093082427978515625</LatitudeDegrees>
              <LongitudeDegrees>-7.9552795551717281341552734375</LongitudeDegrees>
            </Position>
            <AltitudeMeters>470.600006103515625</AltitudeMeters>
            <DistanceMeters>361380.85873233</DistanceMeters>
          </Trackpoint>
          <Trackpoint>
            <Time>2018-09-15T09:27:24.000Z</Time>
            <Position>
              <LatitudeDegrees>37.2527358122169971466064453125</LatitudeDegrees>
              <LongitudeDegrees>-7.95522515662014484405517578125</LongitudeDegrees>
            </Position>
            <AltitudeMeters>471.79998779296875</AltitudeMeters>
            <DistanceMeters>361402.66855367</DistanceMeters>
          </Trackpoint>
          <Trackpoint>
            <Time>2018-09-15T09:27:25.000Z</Time>
            <Position>
              <LatitudeDegrees>37.25269029848277568817138671875</LatitudeDegrees>
              <LongitudeDegrees>-7.955206967890262603759765625</LongitudeDegrees>
            </Position>
            <AltitudeMeters>472</AltitudeMeters>
            <DistanceMeters>361407.98495652</DistanceMeters>
          </Trackpoint>
          <Trackpoint>
            <Time>2018-09-15T09:27:26.000Z</Time>
            <Position>
              <LatitudeDegrees>37.2526466287672519683837890625</LatitudeDegrees>
              <LongitudeDegrees>-7.95518316328525543212890625</LongitudeDegrees>
            </Position>
            <AltitudeMeters>472.20001220703125</AltitudeMeters>
            <DistanceMeters>361413.28264258</DistanceMeters>
          </Trackpoint>
          <Trackpoint>
            <Time>2018-09-15T09:27:30.000Z</Time>
            <Position>
              <LatitudeDegrees>37.25249466486275196075439453125</LatitudeDegrees>
              <LongitudeDegrees>-7.95503840781748294830322265625</LongitudeDegrees>
            </Position>
            <AltitudeMeters>473</AltitudeMeters>
            <DistanceMeters>361434.50872639</DistanceMeters>
          </Trackpoint>
          <Trackpoint>
            <Time>2018-09-15T09:27:32.000Z</Time>
            <Position>
              <LatitudeDegrees>37.25243196822702884674072265625</LatitudeDegrees>
              <LongitudeDegrees>-7.954946123063564300537109375</LongitudeDegrees>
            </Position>
            <AltitudeMeters>473.399993896484375</AltitudeMeters>
            <DistanceMeters>361445.25809187</DistanceMeters>
          </Trackpoint>
          <Trackpoint>
            <Time>2018-09-15T09:27:36.000Z</Time>
            <Position>
              <LatitudeDegrees>37.252310179173946380615234375</LatitudeDegrees>
              <LongitudeDegrees>-7.95476700179278850555419921875</LongitudeDegrees>
            </Position>
            <AltitudeMeters>474</AltitudeMeters>
            <DistanceMeters>361466.12851993</DistanceMeters>
          </Trackpoint>
          <Trackpoint>
            <Time>2018-09-15T09:27:45.000Z</Time>
            <Position>
              <LatitudeDegrees>37.2520189918577671051025390625</LatitudeDegrees>
              <LongitudeDegrees>-7.95437539927661418914794921875</LongitudeDegrees>
            </Position>
            <AltitudeMeters>473.79998779296875</AltitudeMeters>
            <DistanceMeters>361513.60518263</DistanceMeters>
          </Trackpoint>
          <Trackpoint>
            <Time>2018-09-15T09:27:47.000Z</Time>
            <Position>
              <LatitudeDegrees>37.251948080956935882568359375</LatitudeDegrees>
              <LongitudeDegrees>-7.954293005168437957763671875</LongitudeDegrees>
            </Position>
            <AltitudeMeters>473.399993896484375</AltitudeMeters>
            <DistanceMeters>361524.35622809</DistanceMeters>
          </Trackpoint>
          <Trackpoint>
            <Time>2018-09-15T09:27:52.000Z</Time>
            <Position>
              <LatitudeDegrees>37.25174800492823123931884765625</LatitudeDegrees>
              <LongitudeDegrees>-7.954109609127044677734375</LongitudeDegrees>
            </Position>
            <AltitudeMeters>473</AltitudeMeters>
            <DistanceMeters>361551.92249358</DistanceMeters>
          </Trackpoint>
          <Trackpoint>
            <Time>2018-09-15T09:28:01.000Z</Time>
            <Position>
              <LatitudeDegrees>37.25135137327015399932861328125</LatitudeDegrees>
              <LongitudeDegrees>-7.9538610018789768218994140625</LongitudeDegrees>
            </Position>
            <AltitudeMeters>476</AltitudeMeters>
            <DistanceMeters>361601.2578342</DistanceMeters>
          </Trackpoint>
          <Trackpoint>
            <Time>2018-09-15T09:28:05.000Z</Time>
            <Position>
              <LatitudeDegrees>37.25116814486682415008544921875</LatitudeDegrees>
              <LongitudeDegrees>-7.95375564135611057281494140625</LongitudeDegrees>
            </Position>
            <AltitudeMeters>477.20001220703125</AltitudeMeters>
            <DistanceMeters>361623.68615198</DistanceMeters>
          </Trackpoint>
          <Trackpoint>
            <Time>2018-09-15T09:28:13.000Z</Time>
            <Position>
              <LatitudeDegrees>37.25078810937702655792236328125</LatitudeDegrees>
              <LongitudeDegrees>-7.953551709651947021484375</LongitudeDegrees>
            </Position>
            <AltitudeMeters>477.600006103515625</AltitudeMeters>
            <DistanceMeters>361669.68202669</DistanceMeters>
          </Trackpoint>
          <Trackpoint>
            <Time>2018-09-15T09:28:21.000Z</Time>
            <Position>
              <LatitudeDegrees>37.25041662342846393585205078125</LatitudeDegrees>
              <LongitudeDegrees>-7.95334677211940288543701171875</LongitudeDegrees>
            </Position>
            <AltitudeMeters>477.399993896484375</AltitudeMeters>
            <DistanceMeters>361714.84011714</DistanceMeters>
          </Trackpoint>
          <Trackpoint>
            <Time>2018-09-15T09:28:28.000Z</Time>
            <Position>
              <LatitudeDegrees>37.25008939392864704132080078125</LatitudeDegrees>
              <LongitudeDegrees>-7.9531569220125675201416015625</LongitudeDegrees>
            </Position>
            <AltitudeMeters>477.79998779296875</AltitudeMeters>
            <DistanceMeters>361754.95782551</DistanceMeters>
          </Trackpoint>
          <Trackpoint>
            <Time>2018-09-15T09:28:38.000Z</Time>
            <Position>
              <LatitudeDegrees>37.24958798848092555999755859375</LatitudeDegrees>
              <LongitudeDegrees>-7.95285022817552089691162109375</LongitudeDegrees>
            </Position>
            <AltitudeMeters>480</AltitudeMeters>
            <DistanceMeters>361817.02867596</DistanceMeters>
          </Trackpoint>
          <Trackpoint>
            <Time>2018-09-15T09:28:39.000Z</Time>
            <Position>
              <LatitudeDegrees>37.2495389543473720550537109375</LatitudeDegrees>
              <LongitudeDegrees>-7.95281033031642436981201171875</LongitudeDegrees>
            </Position>
            <AltitudeMeters>480.20001220703125</AltitudeMeters>
            <DistanceMeters>361823.53089234</DistanceMeters>
          </Trackpoint>
          <Trackpoint>
            <Time>2018-09-15T09:28:49.000Z</Time>
            <Position>
              <LatitudeDegrees>37.24911591969430446624755859375</LatitudeDegrees>
              <LongitudeDegrees>-7.95236575417220592498779296875</LongitudeDegrees>
            </Position>
            <AltitudeMeters>481.600006103515625</AltitudeMeters>
            <DistanceMeters>361884.91814983</DistanceMeters>
          </Trackpoint>
          <Trackpoint>
            <Time>2018-09-15T09:28:52.000Z</Time>
            <Position>
              <LatitudeDegrees>37.24900460802018642425537109375</LatitudeDegrees>
              <LongitudeDegrees>-7.95222845859825611114501953125</LongitudeDegrees>
            </Position>
            <AltitudeMeters>481.79998779296875</AltitudeMeters>
            <DistanceMeters>361902.28075539</DistanceMeters>
          </Trackpoint>
          <Trackpoint>
            <Time>2018-09-15T09:28:57.000Z</Time>
            <Position>
              <LatitudeDegrees>37.24883160553872585296630859375</LatitudeDegrees>
              <LongitudeDegrees>-7.9520039074122905731201171875</LongitudeDegrees>
            </Position>
            <AltitudeMeters>482.399993896484375</AltitudeMeters>
            <DistanceMeters>361929.9679591</DistanceMeters>
          </Trackpoint>
          <Trackpoint>
            <Time>2018-09-15T09:29:01.000Z</Time>
            <Position>
              <LatitudeDegrees>37.2486990876495838165283203125</LatitudeDegrees>
              <LongitudeDegrees>-7.95183568261563777923583984375</LongitudeDegrees>
            </Position>
            <AltitudeMeters>482.399993896484375</AltitudeMeters>
            <DistanceMeters>361950.93680462</DistanceMeters>
          </Trackpoint>
          <Trackpoint>
            <Time>2018-09-15T09:29:06.000Z</Time>
            <Position>
              <LatitudeDegrees>37.2485535778105258941650390625</LatitudeDegrees>
              <LongitudeDegrees>-7.95163686387240886688232421875</LongitudeDegrees>
            </Position>
            <AltitudeMeters>482.79998779296875</AltitudeMeters>
            <DistanceMeters>361974.86542947</DistanceMeters>
          </Trackpoint>
          <Trackpoint>
            <Time>2018-09-15T09:29:10.000Z</Time>
            <Position>
              <LatitudeDegrees>37.2484456188976764678955078125</LatitudeDegrees>
              <LongitudeDegrees>-7.951486743986606597900390625</LongitudeDegrees>
            </Position>
            <AltitudeMeters>483.600006103515625</AltitudeMeters>
            <DistanceMeters>361992.78999696</DistanceMeters>
          </Trackpoint>
          <Trackpoint>
            <Time>2018-09-15T09:29:14.000Z</Time>
            <Position>
              <LatitudeDegrees>37.24833657033741474151611328125</LatitudeDegrees>
              <LongitudeDegrees>-7.9513300023972988128662109375</LongitudeDegrees>
            </Position>
            <AltitudeMeters>485</AltitudeMeters>
            <DistanceMeters>362011.23350475</DistanceMeters>
          </Trackpoint>
          <Trackpoint>
            <Time>2018-09-15T09:29:19.000Z</Time>
            <Position>
              <LatitudeDegrees>37.24820698611438274383544921875</LatitudeDegrees>
              <LongitudeDegrees>-7.95113294385373592376708984375</LongitudeDegrees>
            </Position>
            <AltitudeMeters>486.79998779296875</AltitudeMeters>
            <DistanceMeters>362033.87938962</DistanceMeters>
          </Trackpoint>
          <Trackpoint>
            <Time>2018-09-15T09:29:24.000Z</Time>
            <Position>
              <LatitudeDegrees>37.24806851707398891448974609375</LatitudeDegrees>
              <LongitudeDegrees>-7.95093395747244358062744140625</LongitudeDegrees>
            </Position>
            <AltitudeMeters>488.20001220703125</AltitudeMeters>
            <DistanceMeters>362057.29590798</DistanceMeters>
          </Trackpoint>
          <Trackpoint>
            <Time>2018-09-15T09:29:29.000Z</Time>
            <Position>
              <LatitudeDegrees>37.2479437105357646942138671875</LatitudeDegrees>
              <LongitudeDegrees>-7.95071971602737903594970703125</LongitudeDegrees>
            </Position>
            <AltitudeMeters>488.600006103515625</AltitudeMeters>
            <DistanceMeters>362080.81727536</DistanceMeters>
          </Trackpoint>
          <Trackpoint>
            <Time>2018-09-15T09:29:32.000Z</Time>
            <Position>
              <LatitudeDegrees>37.2478551976382732391357421875</LatitudeDegrees>
              <LongitudeDegrees>-7.95058309100568294525146484375</LongitudeDegrees>
            </Position>
            <AltitudeMeters>489</AltitudeMeters>
            <DistanceMeters>362096.42423797</DistanceMeters>
          </Trackpoint>
          <Trackpoint>
            <Time>2018-09-15T09:29:35.000Z</Time>
            <Position>
              <LatitudeDegrees>37.2477521002292633056640625</LatitudeDegrees>
              <LongitudeDegrees>-7.9504314623773097991943359375</LongitudeDegrees>
            </Position>
            <AltitudeMeters>488.79998779296875</AltitudeMeters>
            <DistanceMeters>362114.09205285</DistanceMeters>
          </Trackpoint>
          <Trackpoint>
            <Time>2018-09-15T09:29:44.000Z</Time>
            <Position>
              <LatitudeDegrees>37.2473604977130889892578125</LatitudeDegrees>
              <LongitudeDegrees>-7.94987750239670276641845703125</LongitudeDegrees>
            </Position>
            <AltitudeMeters>487.79998779296875</AltitudeMeters>
            <DistanceMeters>362179.73233617</DistanceMeters>
          </Trackpoint>
          <Trackpoint>
            <Time>2018-09-15T09:29:49.000Z</Time>
            <Position>
              <LatitudeDegrees>37.24710241891443729400634765625</LatitudeDegrees>
              <LongitudeDegrees>-7.94951439835131168365478515625</LongitudeDegrees>
            </Position>
            <AltitudeMeters>486.79998779296875</AltitudeMeters>
            <DistanceMeters>362222.8608572</DistanceMeters>
          </Trackpoint>
          <Trackpoint>
            <Time>2018-09-15T09:29:51.000Z</Time>
            <Position>
              <LatitudeDegrees>37.246991693973541259765625</LatitudeDegrees>
              <LongitudeDegrees>-7.94936603866517543792724609375</LongitudeDegrees>
            </Position>
            <AltitudeMeters>485.20001220703125</AltitudeMeters>
            <DistanceMeters>362240.87888452</DistanceMeters>
          </Trackpoint>
          <Trackpoint>
            <Time>2018-09-15T09:29:53.000Z</Time>
            <Position>
              <LatitudeDegrees>37.246879041194915771484375</LatitudeDegrees>
              <LongitudeDegrees>-7.94921147637069225311279296875</LongitudeDegrees>
            </Position>
            <AltitudeMeters>483.600006103515625</AltitudeMeters>
            <DistanceMeters>362259.44584976</DistanceMeters>
          </Trackpoint>
          <Trackpoint>
            <Time>2018-09-15T09:29:54.000Z</Time>
            <Position>
              <LatitudeDegrees>37.2468228824436664581298828125</LatitudeDegrees>
              <LongitudeDegrees>-7.9491327702999114990234375</LongitudeDegrees>
            </Position>
            <AltitudeMeters>483.399993896484375</AltitudeMeters>
            <DistanceMeters>362268.81068304</DistanceMeters>
          </Trackpoint>
          <Trackpoint>
            <Time>2018-09-15T09:29:56.000Z</Time>
            <Position>
              <LatitudeDegrees>37.2467109002172946929931640625</LatitudeDegrees>
              <LongitudeDegrees>-7.9489743523299694061279296875</LongitudeDegrees>
            </Position>
            <AltitudeMeters>482.79998779296875</AltitudeMeters>
            <DistanceMeters>362287.58176673</DistanceMeters>
          </Trackpoint>
          <Trackpoint>
            <Time>2018-09-15T09:29:58.000Z</Time>
            <Position>
              <LatitudeDegrees>37.2465972416102886199951171875</LatitudeDegrees>
              <LongitudeDegrees>-7.9488134197890758514404296875</LongitudeDegrees>
            </Position>
            <AltitudeMeters>482.399993896484375</AltitudeMeters>
            <DistanceMeters>362306.64356665</DistanceMeters>
          </Trackpoint>
          <Trackpoint>
            <Time>2018-09-15T09:30:00.000Z</Time>
            <Position>
              <LatitudeDegrees>37.24648031406104564666748046875</LatitudeDegrees>
              <LongitudeDegrees>-7.948652990162372589111328125</LongitudeDegrees>
            </Position>
            <AltitudeMeters>482.399993896484375</AltitudeMeters>
            <DistanceMeters>362325.91595893</DistanceMeters>
          </Trackpoint>
          <Trackpoint>
            <Time>2018-09-15T09:30:02.000Z</Time>
            <Position>
              <LatitudeDegrees>37.2463602013885974884033203125</LatitudeDegrees>
              <LongitudeDegrees>-7.94848979450762271881103515625</LongitudeDegrees>
            </Position>
            <AltitudeMeters>481.79998779296875</AltitudeMeters>
            <DistanceMeters>362345.60851166</DistanceMeters>
          </Trackpoint>
          <Trackpoint>
            <Time>2018-09-15T09:30:07.000Z</Time>
            <Position>
              <LatitudeDegrees>37.246057949960231781005859375</LatitudeDegrees>
              <LongitudeDegrees>-7.94807455502450466156005859375</LongitudeDegrees>
            </Position>
            <AltitudeMeters>480</AltitudeMeters>
            <DistanceMeters>362395.4610512</DistanceMeters>
          </Trackpoint>
          <Trackpoint>
            <Time>2018-09-15T09:30:11.000Z</Time>
            <Position>
              <LatitudeDegrees>37.24581261165440082550048828125</LatitudeDegrees>
              <LongitudeDegrees>-7.94773735105991363525390625</LongitudeDegrees>
            </Position>
            <AltitudeMeters>479</AltitudeMeters>
            <DistanceMeters>362435.93663135</DistanceMeters>
          </Trackpoint>
          <Trackpoint>
            <Time>2018-09-15T09:30:13.000Z</Time>
            <Position>
              <LatitudeDegrees>37.24568772129714488983154296875</LatitudeDegrees>
              <LongitudeDegrees>-7.94756476767361164093017578125</LongitudeDegrees>
            </Position>
            <AltitudeMeters>479.20001220703125</AltitudeMeters>
            <DistanceMeters>362456.60139158</DistanceMeters>
          </Trackpoint>
          <Trackpoint>
            <Time>2018-09-15T09:30:16.000Z</Time>
            <Position>
              <LatitudeDegrees>37.24549300968647003173828125</LatitudeDegrees>
              <LongitudeDegrees>-7.94729621149599552154541015625</LongitudeDegrees>
            </Position>
            <AltitudeMeters>478.399993896484375</AltitudeMeters>
            <DistanceMeters>362488.78586095</DistanceMeters>
          </Trackpoint>
          <Trackpoint>
            <Time>2018-09-15T09:30:20.000Z</Time>
            <Position>
              <LatitudeDegrees>37.24523627199232578277587890625</LatitudeDegrees>
              <LongitudeDegrees>-7.9469358734786510467529296875</LongitudeDegrees>
            </Position>
            <AltitudeMeters>479.399993896484375</AltitudeMeters>
            <DistanceMeters>362531.63289961</DistanceMeters>
          </Trackpoint>
          <Trackpoint>
            <Time>2018-09-15T09:30:22.000Z</Time>
            <Position>
              <LatitudeDegrees>37.24511758424341678619384765625</LatitudeDegrees>
              <LongitudeDegrees>-7.9467658884823322296142578125</LongitudeDegrees>
            </Position>
            <AltitudeMeters>480.600006103515625</AltitudeMeters>
            <DistanceMeters>362551.66641521</DistanceMeters>
          </Trackpoint>
          <Trackpoint>
            <Time>2018-09-15T09:30:24.000Z</Time>
            <Position>
              <LatitudeDegrees>37.2450103797018527984619140625</LatitudeDegrees>
              <LongitudeDegrees>-7.94659665785729885101318359375</LongitudeDegrees>
            </Position>
            <AltitudeMeters>481.20001220703125</AltitudeMeters>
            <DistanceMeters>362570.82908879</DistanceMeters>
          </Trackpoint>
          <Trackpoint>
            <Time>2018-09-15T09:30:26.000Z</Time>
            <Position>
              <LatitudeDegrees>37.2449097968637943267822265625</LatitudeDegrees>
              <LongitudeDegrees>-7.94643438421189785003662109375</LongitudeDegrees>
            </Position>
            <AltitudeMeters>482</AltitudeMeters>
            <DistanceMeters>362589.05168468</DistanceMeters>
          </Trackpoint>
          <Trackpoint>
            <Time>2018-09-15T09:30:28.000Z</Time>
            <Position>
              <LatitudeDegrees>37.24481700919568538665771484375</LatitudeDegrees>
              <LongitudeDegrees>-7.94627646915614604949951171875</LongitudeDegrees>
            </Position>
            <AltitudeMeters>482.399993896484375</AltitudeMeters>
            <DistanceMeters>362606.4423523</DistanceMeters>
          </Trackpoint>
          <Trackpoint>
            <Time>2018-09-15T09:30:30.000Z</Time>
            <Position>
              <LatitudeDegrees>37.2447274066507816314697265625</LatitudeDegrees>
              <LongitudeDegrees>-7.9461214877665042877197265625</LongitudeDegrees>
            </Position>
            <AltitudeMeters>482.79998779296875</AltitudeMeters>
            <DistanceMeters>362623.41360206</DistanceMeters>
          </Trackpoint>
          <Trackpoint>
            <Time>2018-09-15T09:30:33.000Z</Time>
            <Position>
              <LatitudeDegrees>37.24459539167582988739013671875</LatitudeDegrees>
              <LongitudeDegrees>-7.94588939286768436431884765625</LongitudeDegrees>
            </Position>
            <AltitudeMeters>483.20001220703125</AltitudeMeters>
            <DistanceMeters>362648.68784997</DistanceMeters>
          </Trackpoint>
          <Trackpoint>
            <Time>2018-09-15T09:30:34.000Z</Time>
            <Position>
              <LatitudeDegrees>37.24455113522708415985107421875</LatitudeDegrees>
              <LongitudeDegrees>-7.94581160880625247955322265625</LongitudeDegrees>
            </Position>
            <AltitudeMeters>483</AltitudeMeters>
            <DistanceMeters>362657.15962945</DistanceMeters>
          </Trackpoint>
          <Trackpoint>
            <Time>2018-09-15T09:30:36.000Z</Time>
            <Position>
              <LatitudeDegrees>37.24446572363376617431640625</LatitudeDegrees>
              <LongitudeDegrees>-7.9456566274166107177734375</LongitudeDegrees>
            </Position>
            <AltitudeMeters>483</AltitudeMeters>
            <DistanceMeters>362673.86109829</DistanceMeters>
          </Trackpoint>
          <Trackpoint>
            <Time>2018-09-15T09:30:40.000Z</Time>
            <Position>
              <LatitudeDegrees>37.2442975826561450958251953125</LatitudeDegrees>
              <LongitudeDegrees>-7.94535823166370391845703125</LongitudeDegrees>
            </Position>
            <AltitudeMeters>482.600006103515625</AltitudeMeters>
            <DistanceMeters>362706.25308345</DistanceMeters>
          </Trackpoint>
          <Trackpoint>
            <Time>2018-09-15T09:30:44.000Z</Time>
            <Position>
              <LatitudeDegrees>37.244128771126270294189453125</LatitudeDegrees>
              <LongitudeDegrees>-7.94506779871881008148193359375</LongitudeDegrees>
            </Position>
            <AltitudeMeters>482</AltitudeMeters>
            <DistanceMeters>362738.11581143</DistanceMeters>
          </Trackpoint>
          <Trackpoint>
            <Time>2018-09-15T09:30:50.000Z</Time>
            <Position>
              <LatitudeDegrees>37.243834398686885833740234375</LatitudeDegrees>
              <LongitudeDegrees>-7.9446053691208362579345703125</LongitudeDegrees>
            </Position>
            <AltitudeMeters>483.20001220703125</AltitudeMeters>
            <DistanceMeters>362790.57795968</DistanceMeters>
          </Trackpoint>
          <Trackpoint>
            <Time>2018-09-15T09:30:54.000Z</Time>
            <Position>
              <LatitudeDegrees>37.24353156052529811859130859375</LatitudeDegrees>
              <LongitudeDegrees>-7.94441920705139636993408203125</LongitudeDegrees>
            </Position>
            <AltitudeMeters>483.79998779296875</AltitudeMeters>
            <DistanceMeters>362828.10400798</DistanceMeters>
          </Trackpoint>
          <Trackpoint>
            <Time>2018-09-15T09:30:59.000Z</Time>
            <Position>
              <LatitudeDegrees>37.24316560663282871246337890625</LatitudeDegrees>
              <LongitudeDegrees>-7.9442613758146762847900390625</LongitudeDegrees>
            </Position>
            <AltitudeMeters>484.600006103515625</AltitudeMeters>
            <DistanceMeters>362871.16925105</DistanceMeters>
          </Trackpoint>
          <Trackpoint>
            <Time>2018-09-15T09:31:08.000Z</Time>
            <Position>
              <LatitudeDegrees>37.2426570765674114227294921875</LatitudeDegrees>
              <LongitudeDegrees>-7.94394495896995067596435546875</LongitudeDegrees>
            </Position>
            <AltitudeMeters>488.79998779296875</AltitudeMeters>
            <DistanceMeters>362934.33278684</DistanceMeters>
          </Trackpoint>
          <Trackpoint>
            <Time>2018-09-15T09:31:13.000Z</Time>
            <Position>
              <LatitudeDegrees>37.2424150072038173675537109375</LatitudeDegrees>
              <LongitudeDegrees>-7.94377665035426616668701171875</LongitudeDegrees>
            </Position>
            <AltitudeMeters>488.600006103515625</AltitudeMeters>
            <DistanceMeters>362965.12760082</DistanceMeters>
          </Trackpoint>
          <Trackpoint>
            <Time>2018-09-15T09:31:14.000Z</Time>
            <Position>
              <LatitudeDegrees>37.24237049929797649383544921875</LatitudeDegrees>
              <LongitudeDegrees>-7.94373951852321624755859375</LongitudeDegrees>
            </Position>
            <AltitudeMeters>488.79998779296875</AltitudeMeters>
            <DistanceMeters>362971.07493715</DistanceMeters>
          </Trackpoint>
          <Trackpoint>
            <Time>2018-09-15T09:31:16.000Z</Time>
            <Position>
              <LatitudeDegrees>37.2422876022756099700927734375</LatitudeDegrees>
              <LongitudeDegrees>-7.9436588846147060394287109375</LongitudeDegrees>
            </Position>
            <AltitudeMeters>489.20001220703125</AltitudeMeters>
            <DistanceMeters>362982.74427958</DistanceMeters>
          </Trackpoint>
          <Trackpoint>
            <Time>2018-09-15T09:31:17.000Z</Time>
            <Position>
              <LatitudeDegrees>37.24225181154906749725341796875</LatitudeDegrees>
              <LongitudeDegrees>-7.94361169449985027313232421875</LongitudeDegrees>
            </Position>
            <AltitudeMeters>489.20001220703125</AltitudeMeters>
            <DistanceMeters>362988.51984037</DistanceMeters>
          </Trackpoint>
          <Trackpoint>
            <Time>2018-09-15T09:31:21.000Z</Time>
            <Position>
              <LatitudeDegrees>37.2421652264893054962158203125</LatitudeDegrees>
              <LongitudeDegrees>-7.94337264262139797210693359375</LongitudeDegrees>
            </Position>
            <AltitudeMeters>490.20001220703125</AltitudeMeters>
            <DistanceMeters>363011.79071668</DistanceMeters>
          </Trackpoint>
          <Trackpoint>
            <Time>2018-09-15T09:31:26.000Z</Time>
            <Position>
              <LatitudeDegrees>37.24211552180349826812744140625</LatitudeDegrees>
              <LongitudeDegrees>-7.94305094517767429351806640625</LongitudeDegrees>
            </Position>
            <AltitudeMeters>492</AltitudeMeters>
            <DistanceMeters>363040.82693746</DistanceMeters>
          </Trackpoint>
          <Trackpoint>
            <Time>2018-09-15T09:31:30.000Z</Time>
            <Position>
              <LatitudeDegrees>37.24212474189698696136474609375</LatitudeDegrees>
              <LongitudeDegrees>-7.94279965572059154510498046875</LongitudeDegrees>
            </Position>
            <AltitudeMeters>492.79998779296875</AltitudeMeters>
            <DistanceMeters>363063.11632386</DistanceMeters>
          </Trackpoint>
          <Trackpoint>
            <Time>2018-09-15T09:31:33.000Z</Time>
            <Position>
              <LatitudeDegrees>37.24215089343488216400146484375</LatitudeDegrees>
              <LongitudeDegrees>-7.94261625967919826507568359375</LongitudeDegrees>
            </Position>
            <AltitudeMeters>493.20001220703125</AltitudeMeters>
            <DistanceMeters>363079.62473708</DistanceMeters>
          </Trackpoint>
          <Trackpoint>
            <Time>2018-09-15T09:31:38.000Z</Time>
            <Position>
              <LatitudeDegrees>37.242196239531040191650390625</LatitudeDegrees>
              <LongitudeDegrees>-7.94231853447854518890380859375</LongitudeDegrees>
            </Position>
            <AltitudeMeters>494.600006103515625</AltitudeMeters>
            <DistanceMeters>363106.4831936</DistanceMeters>
          </Trackpoint>
          <Trackpoint>
            <Time>2018-09-15T09:31:43.000Z</Time>
            <Position>
              <LatitudeDegrees>37.24224544130265712738037109375</LatitudeDegrees>
              <LongitudeDegrees>-7.942045032978057861328125</LongitudeDegrees>
            </Position>
            <AltitudeMeters>495.79998779296875</AltitudeMeters>
            <DistanceMeters>363131.32790945</DistanceMeters>
          </Trackpoint>
          <Trackpoint>
            <Time>2018-09-15T09:31:49.000Z</Time>
            <Position>
              <LatitudeDegrees>37.24229975603520870208740234375</LatitudeDegrees>
              <LongitudeDegrees>-7.9417159594595432281494140625</LongitudeDegrees>
            </Position>
            <AltitudeMeters>497</AltitudeMeters>
            <DistanceMeters>363161.10570967</DistanceMeters>
          </Trackpoint>
          <Trackpoint>
            <Time>2018-09-15T09:31:52.000Z</Time>
            <Position>
              <LatitudeDegrees>37.2423268295824527740478515625</LatitudeDegrees>
              <LongitudeDegrees>-7.94155209325253963470458984375</LongitudeDegrees>
            </Position>
            <AltitudeMeters>497.20001220703125</AltitudeMeters>
            <DistanceMeters>363175.93474948</DistanceMeters>
          </Trackpoint>
          <Trackpoint>
            <Time>2018-09-15T09:31:57.000Z</Time>
            <Position>
              <LatitudeDegrees>37.24235055036842823028564453125</LatitudeDegrees>
              <LongitudeDegrees>-7.94128102250397205352783203125</LongitudeDegrees>
            </Position>
            <AltitudeMeters>497.600006103515625</AltitudeMeters>
            <DistanceMeters>363200.0977092</DistanceMeters>
          </Trackpoint>
          <Trackpoint>
            <Time>2018-09-15T09:32:03.000Z</Time>
            <Position>
              <LatitudeDegrees>37.2422482073307037353515625</LatitudeDegrees>
              <LongitudeDegrees>-7.94099603779613971710205078125</LongitudeDegrees>
            </Position>
            <AltitudeMeters>498.399993896484375</AltitudeMeters>
            <DistanceMeters>363227.79958561</DistanceMeters>
          </Trackpoint>
          <Trackpoint>
            <Time>2018-09-15T09:32:04.000Z</Time>
            <Position>
              <LatitudeDegrees>37.24221962504088878631591796875</LatitudeDegrees>
              <LongitudeDegrees>-7.94095781631767749786376953125</LongitudeDegrees>
            </Position>
            <AltitudeMeters>498.79998779296875</AltitudeMeters>
            <DistanceMeters>363232.44715948</DistanceMeters>
          </Trackpoint>
          <Trackpoint>
            <Time>2018-09-15T09:32:08.000Z</Time>
            <Position>
              <LatitudeDegrees>37.242105714976787567138671875</LatitudeDegrees>
              <LongitudeDegrees>-7.94081247411668300628662109375</LongitudeDegrees>
            </Position>
            <AltitudeMeters>500.20001220703125</AltitudeMeters>
            <DistanceMeters>363250.51873231</DistanceMeters>
          </Trackpoint>
          <Trackpoint>
            <Time>2018-09-15T09:32:12.000Z</Time>
            <Position>
              <LatitudeDegrees>37.2419918887317180633544921875</LatitudeDegrees>
              <LongitudeDegrees>-7.94068054296076297760009765625</LongitudeDegrees>
            </Position>
            <AltitudeMeters>501.399993896484375</AltitudeMeters>
            <DistanceMeters>363267.75711262</DistanceMeters>
          </Trackpoint>
          <Trackpoint>
            <Time>2018-09-15T09:32:17.000Z</Time>
            <Position>
              <LatitudeDegrees>37.24186523817479610443115234375</LatitudeDegrees>
              <LongitudeDegrees>-7.94053285382688045501708984375</LongitudeDegrees>
            </Position>
            <AltitudeMeters>502.399993896484375</AltitudeMeters>
            <DistanceMeters>363286.99151492</DistanceMeters>
          </Trackpoint>
          <Trackpoint>
            <Time>2018-09-15T09:32:24.000Z</Time>
            <Position>
              <LatitudeDegrees>37.24167379550635814666748046875</LatitudeDegrees>
              <LongitudeDegrees>-7.94031970202922821044921875</LongitudeDegrees>
            </Position>
            <AltitudeMeters>503.20001220703125</AltitudeMeters>
            <DistanceMeters>363315.46466478</DistanceMeters>
          </Trackpoint>
          <Trackpoint>
            <Time>2018-09-15T09:32:29.000Z</Time>
            <Position>
              <LatitudeDegrees>37.24154186435043811798095703125</LatitudeDegrees>
              <LongitudeDegrees>-7.94016673229634761810302734375</LongitudeDegrees>
            </Position>
            <AltitudeMeters>503.20001220703125</AltitudeMeters>
            <DistanceMeters>363335.44831061</DistanceMeters>
          </Trackpoint>
          <Trackpoint>
            <Time>2018-09-15T09:32:34.000Z</Time>
            <Position>
              <LatitudeDegrees>37.24140892736613750457763671875</LatitudeDegrees>
              <LongitudeDegrees>-7.9400052130222320556640625</LongitudeDegrees>
            </Position>
            <AltitudeMeters>503.600006103515625</AltitudeMeters>
            <DistanceMeters>363356.0338256</DistanceMeters>
          </Trackpoint>
          <Trackpoint>
            <Time>2018-09-15T09:32:38.000Z</Time>
            <Position>
              <LatitudeDegrees>37.24130985327064990997314453125</LatitudeDegrees>
              <LongitudeDegrees>-7.939868755638599395751953125</LongitudeDegrees>
            </Position>
            <AltitudeMeters>504</AltitudeMeters>
            <DistanceMeters>363372.3985736</DistanceMeters>
          </Trackpoint>
          <Trackpoint>
            <Time>2018-09-15T09:32:44.000Z</Time>
            <Position>
              <LatitudeDegrees>37.24118244834244251251220703125</LatitudeDegrees>
              <LongitudeDegrees>-7.9396288655698299407958984375</LongitudeDegrees>
            </Position>
            <AltitudeMeters>505</AltitudeMeters>
            <DistanceMeters>363397.9506899</DistanceMeters>
          </Trackpoint>
          <Trackpoint>
            <Time>2018-09-15T09:32:47.000Z</Time>
            <Position>
              <LatitudeDegrees>37.241113297641277313232421875</LatitudeDegrees>
              <LongitudeDegrees>-7.93948511593043804168701171875</LongitudeDegrees>
            </Position>
            <AltitudeMeters>505.600006103515625</AltitudeMeters>
            <DistanceMeters>363412.83261366</DistanceMeters>
          </Trackpoint>
          <Trackpoint>
            <Time>2018-09-15T09:32:51.000Z</Time>
            <Position>
              <LatitudeDegrees>37.24101346917450428009033203125</LatitudeDegrees>
              <LongitudeDegrees>-7.93925897218286991119384765625</LongitudeDegrees>
            </Position>
            <AltitudeMeters>506.600006103515625</AltitudeMeters>
            <DistanceMeters>363435.74489255</DistanceMeters>
          </Trackpoint>
          <Trackpoint>
            <Time>2018-09-15T09:32:55.000Z</Time>
            <Position>
              <LatitudeDegrees>37.24088631570339202880859375</LatitudeDegrees>
              <LongitudeDegrees>-7.93897784315049648284912109375</LongitudeDegrees>
            </Position>
            <AltitudeMeters>505.600006103515625</AltitudeMeters>
            <DistanceMeters>363464.39446198</DistanceMeters>
          </Trackpoint>
          <Trackpoint>
            <Time>2018-09-15T09:32:58.000Z</Time>
            <Position>
              <LatitudeDegrees>37.24077642895281314849853515625</LatitudeDegrees>
              <LongitudeDegrees>-7.93872538022696971893310546875</LongitudeDegrees>
            </Position>
            <AltitudeMeters>503.399993896484375</AltitudeMeters>
            <DistanceMeters>363489.88961765</DistanceMeters>
          </Trackpoint>
          <Trackpoint>
            <Time>2018-09-15T09:33:01.000Z</Time>
            <Position>
              <LatitudeDegrees>37.24065422080457210540771484375</LatitudeDegrees>
              <LongitudeDegrees>-7.93845145963132381439208984375</LongitudeDegrees>
            </Position>
            <AltitudeMeters>501.20001220703125</AltitudeMeters>
            <DistanceMeters>363517.71249193</DistanceMeters>
          </Trackpoint>
          <Trackpoint>
            <Time>2018-09-15T09:33:03.000Z</Time>
            <Position>
              <LatitudeDegrees>37.2405676357448101043701171875</LatitudeDegrees>
              <LongitudeDegrees>-7.93825532309710979461669921875</LongitudeDegrees>
            </Position>
            <AltitudeMeters>500.399993896484375</AltitudeMeters>
            <DistanceMeters>363537.58489322</DistanceMeters>
          </Trackpoint>
          <Trackpoint>
            <Time>2018-09-15T09:33:04.000Z</Time>
            <Position>
              <LatitudeDegrees>37.24052212201058864593505859375</LatitudeDegrees>
              <LongitudeDegrees>-7.9381526447832584381103515625</LongitudeDegrees>
            </Position>
            <AltitudeMeters>499.79998779296875</AltitudeMeters>
            <DistanceMeters>363547.99801754</DistanceMeters>
          </Trackpoint>
          <Trackpoint>
            <Time>2018-09-15T09:33:05.000Z</Time>
            <Position>
              <LatitudeDegrees>37.24047652445733547210693359375</LatitudeDegrees>
              <LongitudeDegrees>-7.93804879300296306610107421875</LongitudeDegrees>
            </Position>
            <AltitudeMeters>499.20001220703125</AltitudeMeters>
            <DistanceMeters>363558.50695825</DistanceMeters>
          </Trackpoint>
          <Trackpoint>
            <Time>2018-09-15T09:33:06.000Z</Time>
            <Position>
              <LatitudeDegrees>37.240428663790225982666015625</LatitudeDegrees>
              <LongitudeDegrees>-7.9379414208233356475830078125</LongitudeDegrees>
            </Position>
            <AltitudeMeters>498.399993896484375</AltitudeMeters>
            <DistanceMeters>363569.41062674</DistanceMeters>
          </Trackpoint>
          <Trackpoint>
            <Time>2018-09-15T09:33:08.000Z</Time>
            <Position>
              <LatitudeDegrees>37.24033067934215068817138671875</LatitudeDegrees>
              <LongitudeDegrees>-7.937719635665416717529296875</LongitudeDegrees>
            </Position>
            <AltitudeMeters>496.600006103515625</AltitudeMeters>
            <DistanceMeters>363591.88559984</DistanceMeters>
          </Trackpoint>
          <Trackpoint>
            <Time>2018-09-15T09:33:10.000Z</Time>
            <Position>
              <LatitudeDegrees>37.24023143760859966278076171875</LatitudeDegrees>
              <LongitudeDegrees>-7.93749072588980197906494140625</LongitudeDegrees>
            </Position>
            <AltitudeMeters>494.79998779296875</AltitudeMeters>
            <DistanceMeters>363614.98139265</DistanceMeters>
          </Trackpoint>
          <Trackpoint>
            <Time>2018-09-15T09:33:12.000Z</Time>
            <Position>
              <LatitudeDegrees>37.240126244723796844482421875</LatitudeDegrees>
              <LongitudeDegrees>-7.93725485913455486297607421875</LongitudeDegrees>
            </Position>
            <AltitudeMeters>492.399993896484375</AltitudeMeters>
            <DistanceMeters>363638.93717313</DistanceMeters>
          </Trackpoint>
          <Trackpoint>
            <Time>2018-09-15T09:33:13.000Z</Time>
            <Position>
              <LatitudeDegrees>37.24007067270576953887939453125</LatitudeDegrees>
              <LongitudeDegrees>-7.9371340759098529815673828125</LongitudeDegrees>
            </Position>
            <AltitudeMeters>491</AltitudeMeters>
            <DistanceMeters>363651.2986841</DistanceMeters>
          </Trackpoint>
          <Trackpoint>
            <Time>2018-09-15T09:33:14.000Z</Time>
            <Position>
              <LatitudeDegrees>37.24001401104032993316650390625</LatitudeDegrees>
              <LongitudeDegrees>-7.93701119720935821533203125</LongitudeDegrees>
            </Position>
            <AltitudeMeters>489.600006103515625</AltitudeMeters>
            <DistanceMeters>363663.88138375</DistanceMeters>
          </Trackpoint>
          <Trackpoint>
            <Time>2018-09-15T09:33:15.000Z</Time>
            <Position>
              <LatitudeDegrees>37.239957265555858612060546875</LatitudeDegrees>
              <LongitudeDegrees>-7.93688823468983173370361328125</LongitudeDegrees>
            </Position>
            <AltitudeMeters>488.20001220703125</AltitudeMeters>
            <DistanceMeters>363676.47520218</DistanceMeters>
          </Trackpoint>
          <Trackpoint>
            <Time>2018-09-15T09:33:17.000Z</Time>
            <Position>
              <LatitudeDegrees>37.23983329720795154571533203125</LatitudeDegrees>
              <LongitudeDegrees>-7.936649434268474578857421875</LongitudeDegrees>
            </Position>
            <AltitudeMeters>486.20001220703125</AltitudeMeters>
            <DistanceMeters>363701.73622714</DistanceMeters>
          </Trackpoint>
          <Trackpoint>
            <Time>2018-09-15T09:33:18.000Z</Time>
            <Position>
              <LatitudeDegrees>37.23976112902164459228515625</LatitudeDegrees>
              <LongitudeDegrees>-7.93653854168951511383056640625</LongitudeDegrees>
            </Position>
            <AltitudeMeters>484.79998779296875</AltitudeMeters>
            <DistanceMeters>363714.42789777</DistanceMeters>
          </Trackpoint>
          <Trackpoint>
            <Time>2018-09-15T09:33:20.000Z</Time>
            <Position>
              <LatitudeDegrees>37.2395802475512027740478515625</LatitudeDegrees>
              <LongitudeDegrees>-7.93636076152324676513671875</LongitudeDegrees>
            </Position>
            <AltitudeMeters>483</AltitudeMeters>
            <DistanceMeters>363739.99096707</DistanceMeters>
          </Trackpoint>
          <Trackpoint>
            <Time>2018-09-15T09:33:21.000Z</Time>
            <Position>
              <LatitudeDegrees>37.239471785724163055419921875</LatitudeDegrees>
              <LongitudeDegrees>-7.9363037645816802978515625</LongitudeDegrees>
            </Position>
            <AltitudeMeters>482.79998779296875</AltitudeMeters>
            <DistanceMeters>363753.07708069</DistanceMeters>
          </Trackpoint>
          <Trackpoint>
            <Time>2018-09-15T09:33:22.000Z</Time>
            <Position>
              <LatitudeDegrees>37.23935720510780811309814453125</LatitudeDegrees>
              <LongitudeDegrees>-7.9362663812935352325439453125</LongitudeDegrees>
            </Position>
            <AltitudeMeters>483</AltitudeMeters>
            <DistanceMeters>363766.25328082</DistanceMeters>
          </Trackpoint>
          <Trackpoint>
            <Time>2018-09-15T09:33:23.000Z</Time>
            <Position>
              <LatitudeDegrees>37.23924086429178714752197265625</LatitudeDegrees>
              <LongitudeDegrees>-7.936249114573001861572265625</LongitudeDegrees>
            </Position>
            <AltitudeMeters>483.600006103515625</AltitudeMeters>
            <DistanceMeters>363779.29238659</DistanceMeters>
          </Trackpoint>
          <Trackpoint>
            <Time>2018-09-15T09:33:25.000Z</Time>
            <Position>
              <LatitudeDegrees>37.239012457430362701416015625</LatitudeDegrees>
              <LongitudeDegrees>-7.93629630468785762786865234375</LongitudeDegrees>
            </Position>
            <AltitudeMeters>483.600006103515625</AltitudeMeters>
            <DistanceMeters>363805.05601985</DistanceMeters>
          </Trackpoint>
          <Trackpoint>
            <Time>2018-09-15T09:33:26.000Z</Time>
            <Position>
              <LatitudeDegrees>37.23890877328813076019287109375</LatitudeDegrees>
              <LongitudeDegrees>-7.936365790665149688720703125</LongitudeDegrees>
            </Position>
            <AltitudeMeters>483.399993896484375</AltitudeMeters>
            <DistanceMeters>363818.13592155</DistanceMeters>
          </Trackpoint>
          <Trackpoint>
            <Time>2018-09-15T09:33:27.000Z</Time>
            <Position>
              <LatitudeDegrees>37.2388124652206897735595703125</LatitudeDegrees>
              <LongitudeDegrees>-7.9364527948200702667236328125</LongitudeDegrees>
            </Position>
            <AltitudeMeters>483.20001220703125</AltitudeMeters>
            <DistanceMeters>363831.33950651</DistanceMeters>
          </Trackpoint>
          <Trackpoint>
            <Time>2018-09-15T09:33:28.000Z</Time>
            <Position>
              <LatitudeDegrees>37.238715402781963348388671875</LatitudeDegrees>
              <LongitudeDegrees>-7.9365419782698154449462890625</LongitudeDegrees>
            </Position>
            <AltitudeMeters>483.20001220703125</AltitudeMeters>
            <DistanceMeters>363844.72445016</DistanceMeters>
          </Trackpoint>
          <Trackpoint>
            <Time>2018-09-15T09:33:29.000Z</Time>
            <Position>
              <LatitudeDegrees>37.238612137734889984130859375</LatitudeDegrees>
              <LongitudeDegrees>-7.93662001378834247589111328125</LongitudeDegrees>
            </Position>
            <AltitudeMeters>483</AltitudeMeters>
            <DistanceMeters>363858.13769895</DistanceMeters>
          </Trackpoint>
          <Trackpoint>
            <Time>2018-09-15T09:33:30.000Z</Time>
            <Position>
              <LatitudeDegrees>37.2385006584227085113525390625</LatitudeDegrees>
              <LongitudeDegrees>-7.93668002821505069732666015625</LongitudeDegrees>
            </Position>
            <AltitudeMeters>482.399993896484375</AltitudeMeters>
            <DistanceMeters>363871.63717941</DistanceMeters>
          </Trackpoint>
          <Trackpoint>
            <Time>2018-09-15T09:33:32.000Z</Time>
            <Position>
              <LatitudeDegrees>37.23826806060969829559326171875</LatitudeDegrees>
              <LongitudeDegrees>-7.936760075390338897705078125</LongitudeDegrees>
            </Position>
            <AltitudeMeters>480.600006103515625</AltitudeMeters>
            <DistanceMeters>363898.47966122</DistanceMeters>
          </Trackpoint>
          <Trackpoint>
            <Time>2018-09-15T09:33:35.000Z</Time>
            <Position>
              <LatitudeDegrees>37.23795524798333644866943359375</LatitudeDegrees>
              <LongitudeDegrees>-7.93685588054358959197998046875</LongitudeDegrees>
            </Position>
            <AltitudeMeters>476.399993896484375</AltitudeMeters>
            <DistanceMeters>363934.31645142</DistanceMeters>
          </Trackpoint>
          <Trackpoint>
            <Time>2018-09-15T09:33:36.000Z</Time>
            <Position>
              <LatitudeDegrees>37.2378609515726566314697265625</LatitudeDegrees>
              <LongitudeDegrees>-7.9368853010237216949462890625</LongitudeDegrees>
            </Position>
            <AltitudeMeters>475</AltitudeMeters>
            <DistanceMeters>363945.13030781</DistanceMeters>
          </Trackpoint>
          <Trackpoint>
            <Time>2018-09-15T09:33:37.000Z</Time>
            <Position>
              <LatitudeDegrees>37.23777101375162601470947265625</LatitudeDegrees>
              <LongitudeDegrees>-7.93691522441804409027099609375</LongitudeDegrees>
            </Position>
            <AltitudeMeters>473.79998779296875</AltitudeMeters>
            <DistanceMeters>363955.48560393</DistanceMeters>
          </Trackpoint>
          <Trackpoint>
            <Time>2018-09-15T09:33:38.000Z</Time>
            <Position>
              <LatitudeDegrees>37.2376845963299274444580078125</LatitudeDegrees>
              <LongitudeDegrees>-7.936949171125888824462890625</LongitudeDegrees>
            </Position>
            <AltitudeMeters>472.600006103515625</AltitudeMeters>
            <DistanceMeters>363965.56381309</DistanceMeters>
          </Trackpoint>
          <Trackpoint>
            <Time>2018-09-15T09:33:40.000Z</Time>
            <Position>
              <LatitudeDegrees>37.23751704208552837371826171875</LatitudeDegrees>
              <LongitudeDegrees>-7.93703760020434856414794921875</LongitudeDegrees>
            </Position>
            <AltitudeMeters>470</AltitudeMeters>
            <DistanceMeters>363985.79223082</DistanceMeters>
          </Trackpoint>
          <Trackpoint>
            <Time>2018-09-15T09:33:42.000Z</Time>
            <Position>
              <LatitudeDegrees>37.23735678009688854217529296875</LatitudeDegrees>
              <LongitudeDegrees>-7.93716550804674625396728515625</LongitudeDegrees>
            </Position>
            <AltitudeMeters>468.79998779296875</AltitudeMeters>
            <DistanceMeters>364006.92622337</DistanceMeters>
          </Trackpoint>
          <Trackpoint>
            <Time>2018-09-15T09:33:47.000Z</Time>
            <Position>
              <LatitudeDegrees>37.23693014122545719146728515625</LatitudeDegrees>
              <LongitudeDegrees>-7.9375255107879638671875</LongitudeDegrees>
            </Position>
            <AltitudeMeters>467.399993896484375</AltitudeMeters>
            <DistanceMeters>364064.13238435</DistanceMeters>
          </Trackpoint>
          <Trackpoint>
            <Time>2018-09-15T09:33:49.000Z</Time>
            <Position>
              <LatitudeDegrees>37.2367578931152820587158203125</LatitudeDegrees>
              <LongitudeDegrees>-7.9376715235412120819091796875</LongitudeDegrees>
            </Position>
            <AltitudeMeters>465.79998779296875</AltitudeMeters>
            <DistanceMeters>364087.2615821</DistanceMeters>
          </Trackpoint>
          <Trackpoint>
            <Time>2018-09-15T09:33:51.000Z</Time>
            <Position>
              <LatitudeDegrees>37.23659117706120014190673828125</LatitudeDegrees>
              <LongitudeDegrees>-7.937802113592624664306640625</LongitudeDegrees>
            </Position>
            <AltitudeMeters>464.399993896484375</AltitudeMeters>
            <DistanceMeters>364109.12991122</DistanceMeters>
          </Trackpoint>
          <Trackpoint>
            <Time>2018-09-15T09:33:53.000Z</Time>
            <Position>
              <LatitudeDegrees>37.2364343516528606414794921875</LatitudeDegrees>
              <LongitudeDegrees>-7.937916107475757598876953125</LongitudeDegrees>
            </Position>
            <AltitudeMeters>465.399993896484375</AltitudeMeters>
            <DistanceMeters>364129.29707867</DistanceMeters>
          </Trackpoint>
          <Trackpoint>
            <Time>2018-09-15T09:33:54.000Z</Time>
            <Position>
              <LatitudeDegrees>37.2363592498004436492919921875</LatitudeDegrees>
              <LongitudeDegrees>-7.9379625432193279266357421875</LongitudeDegrees>
            </Position>
            <AltitudeMeters>466</AltitudeMeters>
            <DistanceMeters>364138.61357451</DistanceMeters>
          </Trackpoint>
          <Trackpoint>
            <Time>2018-09-15T09:33:55.000Z</Time>
            <Position>
              <LatitudeDegrees>37.236285321414470672607421875</LatitudeDegrees>
              <LongitudeDegrees>-7.93799431063234806060791015625</LongitudeDegrees>
            </Position>
            <AltitudeMeters>466.600006103515625</AltitudeMeters>
            <DistanceMeters>364147.31046593</DistanceMeters>
          </Trackpoint>
          <Trackpoint>
            <Time>2018-09-15T09:33:57.000Z</Time>
            <Position>
              <LatitudeDegrees>37.23613880574703216552734375</LatitudeDegrees>
              <LongitudeDegrees>-7.9380190372467041015625</LongitudeDegrees>
            </Position>
            <AltitudeMeters>468.399993896484375</AltitudeMeters>
            <DistanceMeters>364163.76463719</DistanceMeters>
          </Trackpoint>
          <Trackpoint>
            <Time>2018-09-15T09:33:58.000Z</Time>
            <Position>
              <LatitudeDegrees>37.2360689006745815277099609375</LatitudeDegrees>
              <LongitudeDegrees>-7.938016355037689208984375</LongitudeDegrees>
            </Position>
            <AltitudeMeters>469</AltitudeMeters>
            <DistanceMeters>364171.54871151</DistanceMeters>
          </Trackpoint>
          <Trackpoint>
            <Time>2018-09-15T09:34:00.000Z</Time>
            <Position>
              <LatitudeDegrees>37.235936634242534637451171875</LatitudeDegrees>
              <LongitudeDegrees>-7.93799900449812412261962890625</LongitudeDegrees>
            </Position>
            <AltitudeMeters>470.20001220703125</AltitudeMeters>
            <DistanceMeters>364186.3503234</DistanceMeters>
          </Trackpoint>
          <Trackpoint>
            <Time>2018-09-15T09:34:02.000Z</Time>
            <Position>
              <LatitudeDegrees>37.23581585101783275604248046875</LatitudeDegrees>
              <LongitudeDegrees>-7.93797385878860950469970703125</LongitudeDegrees>
            </Position>
            <AltitudeMeters>471.399993896484375</AltitudeMeters>
            <DistanceMeters>364199.97730003</DistanceMeters>
          </Trackpoint>
          <Trackpoint>
            <Time>2018-09-15T09:34:04.000Z</Time>
            <Position>
              <LatitudeDegrees>37.2357044555246829986572265625</LatitudeDegrees>
              <LongitudeDegrees>-7.9379484616219997406005859375</LongitudeDegrees>
            </Position>
            <AltitudeMeters>473</AltitudeMeters>
            <DistanceMeters>364212.57864497</DistanceMeters>
          </Trackpoint>
          <Trackpoint>
            <Time>2018-09-15T09:34:06.000Z</Time>
            <Position>
              <LatitudeDegrees>37.23559725098311901092529296875</LatitudeDegrees>
              <LongitudeDegrees>-7.9379206337034702301025390625</LongitudeDegrees>
            </Position>
            <AltitudeMeters>474.600006103515625</AltitudeMeters>
            <DistanceMeters>364224.76283377</DistanceMeters>
          </Trackpoint>
          <Trackpoint>
            <Time>2018-09-15T09:34:08.000Z</Time>
            <Position>
              <LatitudeDegrees>37.2354922257363796234130859375</LatitudeDegrees>
              <LongitudeDegrees>-7.937897332012653350830078125</LongitudeDegrees>
            </Position>
            <AltitudeMeters>476.399993896484375</AltitudeMeters>
            <DistanceMeters>364236.63318814</DistanceMeters>
          </Trackpoint>
          <Trackpoint>
            <Time>2018-09-15T09:34:09.000Z</Time>
            <Position>
              <LatitudeDegrees>37.23544168286025524139404296875</LatitudeDegrees>
              <LongitudeDegrees>-7.93788869865238666534423828125</LongitudeDegrees>
            </Position>
            <AltitudeMeters>477</AltitudeMeters>
            <DistanceMeters>364242.31018935</DistanceMeters>
          </Trackpoint>
          <Trackpoint>
            <Time>2018-09-15T09:34:11.000Z</Time>
            <Position>
              <LatitudeDegrees>37.23534562624990940093994140625</LatitudeDegrees>
              <LongitudeDegrees>-7.9378726892173290252685546875</LongitudeDegrees>
            </Position>
            <AltitudeMeters>478.399993896484375</AltitudeMeters>
            <DistanceMeters>364253.09519815</DistanceMeters>
          </Trackpoint>
          <Trackpoint>
            <Time>2018-09-15T09:34:14.000Z</Time>
            <Position>
              <LatitudeDegrees>37.235209755599498748779296875</LatitudeDegrees>
              <LongitudeDegrees>-7.93785382993519306182861328125</LongitudeDegrees>
            </Position>
            <AltitudeMeters>480.20001220703125</AltitudeMeters>
            <DistanceMeters>364268.3101592</DistanceMeters>
          </Trackpoint>
          <Trackpoint>
            <Time>2018-09-15T09:34:17.000Z</Time>
            <Position>
              <LatitudeDegrees>37.23507891409099102020263671875</LatitudeDegrees>
              <LongitudeDegrees>-7.9378264211118221282958984375</LongitudeDegrees>
            </Position>
            <AltitudeMeters>482.20001220703125</AltitudeMeters>
            <DistanceMeters>364283.07481549</DistanceMeters>
          </Trackpoint>
          <Trackpoint>
            <Time>2018-09-15T09:34:18.000Z</Time>
            <Position>
              <LatitudeDegrees>37.2350375913083553314208984375</LatitudeDegrees>
              <LongitudeDegrees>-7.9378150217235088348388671875</LongitudeDegrees>
            </Position>
            <AltitudeMeters>482.79998779296875</AltitudeMeters>
            <DistanceMeters>364287.78415384</DistanceMeters>
          </Trackpoint>
          <Trackpoint>
            <Time>2018-09-15T09:34:21.000Z</Time>
            <Position>
              <LatitudeDegrees>37.2349148802459239959716796875</LatitudeDegrees>
              <LongitudeDegrees>-7.93778635561466217041015625</LongitudeDegrees>
            </Position>
            <AltitudeMeters>484.600006103515625</AltitudeMeters>
            <DistanceMeters>364301.67626649</DistanceMeters>
          </Trackpoint>
          <Trackpoint>
            <Time>2018-09-15T09:34:22.000Z</Time>
            <Position>
              <LatitudeDegrees>37.23487305454909801483154296875</LatitudeDegrees>
              <LongitudeDegrees>-7.9377774707973003387451171875</LongitudeDegrees>
            </Position>
            <AltitudeMeters>485.20001220703125</AltitudeMeters>
            <DistanceMeters>364306.39709572</DistanceMeters>
          </Trackpoint>
          <Trackpoint>
            <Time>2018-09-15T09:34:25.000Z</Time>
            <Position>
              <LatitudeDegrees>37.23475436680018901824951171875</LatitudeDegrees>
              <LongitudeDegrees>-7.93775978498160839080810546875</LongitudeDegrees>
            </Position>
            <AltitudeMeters>486.79998779296875</AltitudeMeters>
            <DistanceMeters>364319.69947814</DistanceMeters>
          </Trackpoint>
          <Trackpoint>
            <Time>2018-09-15T09:34:26.000Z</Time>
            <Position>
              <LatitudeDegrees>37.234716229140758514404296875</LatitudeDegrees>
              <LongitudeDegrees>-7.93775257654488086700439453125</LongitudeDegrees>
            </Position>
            <AltitudeMeters>486.79998779296875</AltitudeMeters>
            <DistanceMeters>364323.99148885</DistanceMeters>
          </Trackpoint>
          <Trackpoint>
            <Time>2018-09-15T09:34:30.000Z</Time>
            <Position>
              <LatitudeDegrees>37.23455118946731090545654296875</LatitudeDegrees>
              <LongitudeDegrees>-7.93771267868578433990478515625</LongitudeDegrees>
            </Position>
            <AltitudeMeters>486.600006103515625</AltitudeMeters>
            <DistanceMeters>364342.69775765</DistanceMeters>
          </Trackpoint>
          <Trackpoint>
            <Time>2018-09-15T09:34:37.000Z</Time>
            <Position>
              <LatitudeDegrees>37.23423887975513935089111328125</LatitudeDegrees>
              <LongitudeDegrees>-7.9376319609582424163818359375</LongitudeDegrees>
            </Position>
            <AltitudeMeters>486.399993896484375</AltitudeMeters>
            <DistanceMeters>364378.18664157</DistanceMeters>
          </Trackpoint>
          <Trackpoint>
            <Time>2018-09-15T09:34:42.000Z</Time>
            <Position>
              <LatitudeDegrees>37.23398323170840740203857421875</LatitudeDegrees>
              <LongitudeDegrees>-7.93756364844739437103271484375</LongitudeDegrees>
            </Position>
            <AltitudeMeters>485.20001220703125</AltitudeMeters>
            <DistanceMeters>364407.27754572</DistanceMeters>
          </Trackpoint>
          <Trackpoint>
            <Time>2018-09-15T09:34:52.000Z</Time>
            <Position>
              <LatitudeDegrees>37.23341544158756732940673828125</LatitudeDegrees>
              <LongitudeDegrees>-7.9374542646110057830810546875</LongitudeDegrees>
            </Position>
            <AltitudeMeters>482.399993896484375</AltitudeMeters>
            <DistanceMeters>364471.2128016</DistanceMeters>
          </Trackpoint>
          <Trackpoint>
            <Time>2018-09-15T09:34:54.000Z</Time>
            <Position>
              <LatitudeDegrees>37.23328652791678905487060546875</LatitudeDegrees>
              <LongitudeDegrees>-7.937461473047733306884765625</LongitudeDegrees>
            </Position>
            <AltitudeMeters>480.20001220703125</AltitudeMeters>
            <DistanceMeters>364485.57504503</DistanceMeters>
          </Trackpoint>
          <Trackpoint>
            <Time>2018-09-15T09:34:57.000Z</Time>
            <Position>
              <LatitudeDegrees>37.233081758022308349609375</LatitudeDegrees>
              <LongitudeDegrees>-7.93752542696893215179443359375</LongitudeDegrees>
            </Position>
            <AltitudeMeters>479</AltitudeMeters>
            <DistanceMeters>364509.06029719</DistanceMeters>
          </Trackpoint>
          <Trackpoint>
            <Time>2018-09-15T09:35:00.000Z</Time>
            <Position>
              <LatitudeDegrees>37.23288285546004772186279296875</LatitudeDegrees>
              <LongitudeDegrees>-7.93767009861767292022705078125</LongitudeDegrees>
            </Position>
            <AltitudeMeters>477.79998779296875</AltitudeMeters>
            <DistanceMeters>364534.6426112</DistanceMeters>
          </Trackpoint>
          <Trackpoint>
            <Time>2018-09-15T09:35:04.000Z</Time>
            <Position>
              <LatitudeDegrees>37.23261446692049503326416015625</LatitudeDegrees>
              <LongitudeDegrees>-7.9379166103899478912353515625</LongitudeDegrees>
            </Position>
            <AltitudeMeters>476.20001220703125</AltitudeMeters>
            <DistanceMeters>364571.6501182</DistanceMeters>
          </Trackpoint>
          <Trackpoint>
            <Time>2018-09-15T09:35:06.000Z</Time>
            <Position>
              <LatitudeDegrees>37.23247398622334003448486328125</LatitudeDegrees>
              <LongitudeDegrees>-7.93804376386106014251708984375</LongitudeDegrees>
            </Position>
            <AltitudeMeters>475.20001220703125</AltitudeMeters>
            <DistanceMeters>364590.92297902</DistanceMeters>
          </Trackpoint>
          <Trackpoint>
            <Time>2018-09-15T09:35:08.000Z</Time>
            <Position>
              <LatitudeDegrees>37.23232797347009181976318359375</LatitudeDegrees>
              <LongitudeDegrees>-7.9381590150296688079833984375</LongitudeDegrees>
            </Position>
            <AltitudeMeters>474.20001220703125</AltitudeMeters>
            <DistanceMeters>364610.11696399</DistanceMeters>
          </Trackpoint>
          <Trackpoint>
            <Time>2018-09-15T09:35:09.000Z</Time>
            <Position>
              <LatitudeDegrees>37.23224801011383533477783203125</LatitudeDegrees>
              <LongitudeDegrees>-7.93820268474519252777099609375</LongitudeDegrees>
            </Position>
            <AltitudeMeters>473.600006103515625</AltitudeMeters>
            <DistanceMeters>364619.82179254</DistanceMeters>
          </Trackpoint>
          <Trackpoint>
            <Time>2018-09-15T09:35:10.000Z</Time>
            <Position>
              <LatitudeDegrees>37.23216469399631023406982421875</LatitudeDegrees>
              <LongitudeDegrees>-7.93822615407407283782958984375</LongitudeDegrees>
            </Position>
            <AltitudeMeters>472.79998779296875</AltitudeMeters>
            <DistanceMeters>364629.32588927</DistanceMeters>
          </Trackpoint>
          <Trackpoint>
            <Time>2018-09-15T09:35:11.000Z</Time>
            <Position>
              <LatitudeDegrees>37.232074253261089324951171875</LatitudeDegrees>
              <LongitudeDegrees>-7.938221879303455352783203125</LongitudeDegrees>
            </Position>
            <AltitudeMeters>471.79998779296875</AltitudeMeters>
            <DistanceMeters>364639.39961744</DistanceMeters>
          </Trackpoint>
          <Trackpoint>
            <Time>2018-09-15T09:35:13.000Z</Time>
            <Position>
              <LatitudeDegrees>37.2318933717906475067138671875</LatitudeDegrees>
              <LongitudeDegrees>-7.9381687380373477935791015625</LongitudeDegrees>
            </Position>
            <AltitudeMeters>470</AltitudeMeters>
            <DistanceMeters>364660.07551763</DistanceMeters>
          </Trackpoint>
          <Trackpoint>
            <Time>2018-09-15T09:35:14.000Z</Time>
            <Position>
              <LatitudeDegrees>37.23180259577929973602294921875</LatitudeDegrees>
              <LongitudeDegrees>-7.93812967836856842041015625</LongitudeDegrees>
            </Position>
            <AltitudeMeters>469</AltitudeMeters>
            <DistanceMeters>364670.75535357</DistanceMeters>
          </Trackpoint>
          <Trackpoint>
            <Time>2018-09-15T09:35:15.000Z</Time>
            <Position>
              <LatitudeDegrees>37.231710813939571380615234375</LatitudeDegrees>
              <LongitudeDegrees>-7.93808584101498126983642578125</LongitudeDegrees>
            </Position>
            <AltitudeMeters>468</AltitudeMeters>
            <DistanceMeters>364681.68383887</DistanceMeters>
          </Trackpoint>
          <Trackpoint>
            <Time>2018-09-15T09:35:16.000Z</Time>
            <Position>
              <LatitudeDegrees>37.23161769099533557891845703125</LatitudeDegrees>
              <LongitudeDegrees>-7.938039489090442657470703125</LongitudeDegrees>
            </Position>
            <AltitudeMeters>467.20001220703125</AltitudeMeters>
            <DistanceMeters>364692.83238013</DistanceMeters>
          </Trackpoint>
          <Trackpoint>
            <Time>2018-09-15T09:35:17.000Z</Time>
            <Position>
              <LatitudeDegrees>37.231525070965290069580078125</LatitudeDegrees>
              <LongitudeDegrees>-7.937991209328174591064453125</LongitudeDegrees>
            </Position>
            <AltitudeMeters>468.600006103515625</AltitudeMeters>
            <DistanceMeters>364703.99387351</DistanceMeters>
          </Trackpoint>
          <Trackpoint>
            <Time>2018-09-15T09:35:18.000Z</Time>
            <Position>
              <LatitudeDegrees>37.2314327023923397064208984375</LatitudeDegrees>
              <LongitudeDegrees>-7.93794284574687480926513671875</LongitudeDegrees>
            </Position>
            <AltitudeMeters>469.79998779296875</AltitudeMeters>
            <DistanceMeters>364715.13228544</DistanceMeters>
          </Trackpoint>
          <Trackpoint>
            <Time>2018-09-15T09:35:20.000Z</Time>
            <Position>
              <LatitudeDegrees>37.231252491474151611328125</LatitudeDegrees>
              <LongitudeDegrees>-7.93784125708043575286865234375</LongitudeDegrees>
            </Position>
            <AltitudeMeters>470.79998779296875</AltitudeMeters>
            <DistanceMeters>364737.11777911</DistanceMeters>
          </Trackpoint>
          <Trackpoint>
            <Time>2018-09-15T09:35:21.000Z</Time>
            <Position>
              <LatitudeDegrees>37.2311664931476116180419921875</LatitudeDegrees>
              <LongitudeDegrees>-7.9377798177301883697509765625</LongitudeDegrees>
            </Position>
            <AltitudeMeters>469.79998779296875</AltitudeMeters>
            <DistanceMeters>364748.12940327</DistanceMeters>
          </Trackpoint>
          <Trackpoint>
            <Time>2018-09-15T09:35:23.000Z</Time>
            <Position>
              <LatitudeDegrees>37.23101838491857051849365234375</LatitudeDegrees>
              <LongitudeDegrees>-7.93761226348578929901123046875</LongitudeDegrees>
            </Position>
            <AltitudeMeters>466.79998779296875</AltitudeMeters>
            <DistanceMeters>364770.31564826</DistanceMeters>
          </Trackpoint>
          <Trackpoint>
            <Time>2018-09-15T09:35:26.000Z</Time>
            <Position>
              <LatitudeDegrees>37.23085393197834491729736328125</LatitudeDegrees>
              <LongitudeDegrees>-7.93728805147111415863037109375</LongitudeDegrees>
            </Position>
            <AltitudeMeters>465.399993896484375</AltitudeMeters>
            <DistanceMeters>364804.38216209</DistanceMeters>
          </Trackpoint>
          <Trackpoint>
            <Time>2018-09-15T09:35:27.000Z</Time>
            <Position>
              <LatitudeDegrees>37.23080548457801342010498046875</LatitudeDegrees>
              <LongitudeDegrees>-7.937177158892154693603515625</LongitudeDegrees>
            </Position>
            <AltitudeMeters>464.600006103515625</AltitudeMeters>
            <DistanceMeters>364815.59209268</DistanceMeters>
          </Trackpoint>
          <Trackpoint>
            <Time>2018-09-15T09:35:29.000Z</Time>
            <Position>
              <LatitudeDegrees>37.2307125292718410491943359375</LatitudeDegrees>
              <LongitudeDegrees>-7.9369600676000118255615234375</LongitudeDegrees>
            </Position>
            <AltitudeMeters>464.20001220703125</AltitudeMeters>
            <DistanceMeters>364837.43625207</DistanceMeters>
          </Trackpoint>
          <Trackpoint>
            <Time>2018-09-15T09:35:31.000Z</Time>
            <Position>
              <LatitudeDegrees>37.23064539022743701934814453125</LatitudeDegrees>
              <LongitudeDegrees>-7.9367461614310741424560546875</LongitudeDegrees>
            </Position>
            <AltitudeMeters>464.600006103515625</AltitudeMeters>
            <DistanceMeters>364857.81211584</DistanceMeters>
          </Trackpoint>
          <Trackpoint>
            <Time>2018-09-15T09:35:33.000Z</Time>
            <Position>
              <LatitudeDegrees>37.2306310571730136871337890625</LatitudeDegrees>
              <LongitudeDegrees>-7.9365403018891811370849609375</LongitudeDegrees>
            </Position>
            <AltitudeMeters>465.399993896484375</AltitudeMeters>
            <DistanceMeters>364876.12492499</DistanceMeters>
          </Trackpoint>
          <Trackpoint>
            <Time>2018-09-15T09:35:36.000Z</Time>
            <Position>
              <LatitudeDegrees>37.23065444268286228179931640625</LatitudeDegrees>
              <LongitudeDegrees>-7.93627618812024593353271484375</LongitudeDegrees>
            </Position>
            <AltitudeMeters>466.20001220703125</AltitudeMeters>
            <DistanceMeters>364899.67468454</DistanceMeters>
          </Trackpoint>
          <Trackpoint>
            <Time>2018-09-15T09:35:39.000Z</Time>
            <Position>
              <LatitudeDegrees>37.23068989813327789306640625</LatitudeDegrees>
              <LongitudeDegrees>-7.9360340349376201629638671875</LongitudeDegrees>
            </Position>
            <AltitudeMeters>466.600006103515625</AltitudeMeters>
            <DistanceMeters>364921.49381973</DistanceMeters>
          </Trackpoint>
          <Trackpoint>
            <Time>2018-09-15T09:35:41.000Z</Time>
            <Position>
              <LatitudeDegrees>37.23069928586483001708984375</LatitudeDegrees>
              <LongitudeDegrees>-7.93587720952928066253662109375</LongitudeDegrees>
            </Position>
            <AltitudeMeters>466.79998779296875</AltitudeMeters>
            <DistanceMeters>364935.43071122</DistanceMeters>
          </Trackpoint>
          <Trackpoint>
            <Time>2018-09-15T09:35:42.000Z</Time>
            <Position>
              <LatitudeDegrees>37.23069115541875362396240234375</LatitudeDegrees>
              <LongitudeDegrees>-7.9358020238578319549560546875</LongitudeDegrees>
            </Position>
            <AltitudeMeters>466.399993896484375</AltitudeMeters>
            <DistanceMeters>364942.155488</DistanceMeters>
          </Trackpoint>
          <Trackpoint>
            <Time>2018-09-15T09:35:44.000Z</Time>
            <Position>
              <LatitudeDegrees>37.23064555786550045013427734375</LatitudeDegrees>
              <LongitudeDegrees>-7.9356736131012439727783203125</LongitudeDegrees>
            </Position>
            <AltitudeMeters>466.20001220703125</AltitudeMeters>
            <DistanceMeters>364954.6155885</DistanceMeters>
          </Trackpoint>
          <Trackpoint>
            <Time>2018-09-15T09:35:46.000Z</Time>
            <Position>
              <LatitudeDegrees>37.2305750660598278045654296875</LatitudeDegrees>
              <LongitudeDegrees>-7.9355780594050884246826171875</LongitudeDegrees>
            </Position>
            <AltitudeMeters>466.399993896484375</AltitudeMeters>
            <DistanceMeters>364966.15967218</DistanceMeters>
          </Trackpoint>
          <Trackpoint>
            <Time>2018-09-15T09:35:49.000Z</Time>
            <Position>
              <LatitudeDegrees>37.23045118153095245361328125</LatitudeDegrees>
              <LongitudeDegrees>-7.9354791529476642608642578125</LongitudeDegrees>
            </Position>
            <AltitudeMeters>467.20001220703125</AltitudeMeters>
            <DistanceMeters>364982.49846497</DistanceMeters>
          </Trackpoint>
          <Trackpoint>
            <Time>2018-09-15T09:35:50.000Z</Time>
            <Position>
              <LatitudeDegrees>37.23040751181542873382568359375</LatitudeDegrees>
              <LongitudeDegrees>-7.93545274995267391204833984375</LongitudeDegrees>
            </Position>
            <AltitudeMeters>467.399993896484375</AltitudeMeters>
            <DistanceMeters>364987.89243441</DistanceMeters>
          </Trackpoint>
          <Trackpoint>
            <Time>2018-09-15T09:35:52.000Z</Time>
            <Position>
              <LatitudeDegrees>37.23032017238438129425048828125</LatitudeDegrees>
              <LongitudeDegrees>-7.93539742939174175262451171875</LongitudeDegrees>
            </Position>
            <AltitudeMeters>468.20001220703125</AltitudeMeters>
            <DistanceMeters>364998.77952693</DistanceMeters>
          </Trackpoint>
          <Trackpoint>
            <Time>2018-09-15T09:35:54.000Z</Time>
            <Position>
              <LatitudeDegrees>37.23022948019206523895263671875</LatitudeDegrees>
              <LongitudeDegrees>-7.935351915657520294189453125</LongitudeDegrees>
            </Position>
            <AltitudeMeters>469</AltitudeMeters>
            <DistanceMeters>365009.65001819</DistanceMeters>
          </Trackpoint>
          <Trackpoint>
            <Time>2018-09-15T09:35:56.000Z</Time>
            <Position>
              <LatitudeDegrees>37.23014096729457378387451171875</LatitudeDegrees>
              <LongitudeDegrees>-7.93530397117137908935546875</LongitudeDegrees>
            </Position>
            <AltitudeMeters>469.79998779296875</AltitudeMeters>
            <DistanceMeters>365020.37920337</DistanceMeters>
          </Trackpoint>
          <Trackpoint>
            <Time>2018-09-15T09:35:58.000Z</Time>
            <Position>
              <LatitudeDegrees>37.2300537116825580596923828125</LatitudeDegrees>
              <LongitudeDegrees>-7.93524957261979579925537109375</LongitudeDegrees>
            </Position>
            <AltitudeMeters>470.600006103515625</AltitudeMeters>
            <DistanceMeters>365031.22141417</DistanceMeters>
          </Trackpoint>
          <Trackpoint>
            <Time>2018-09-15T09:36:02.000Z</Time>
            <Position>
              <LatitudeDegrees>37.22988816909492015838623046875</LatitudeDegrees>
              <LongitudeDegrees>-7.93513339944183826446533203125</LongitudeDegrees>
            </Position>
            <AltitudeMeters>471.600006103515625</AltitudeMeters>
            <DistanceMeters>365052.32804326</DistanceMeters>
          </Trackpoint>
          <Trackpoint>
            <Time>2018-09-15T09:36:03.000Z</Time>
            <Position>
              <LatitudeDegrees>37.22985246218740940093994140625</LatitudeDegrees>
              <LongitudeDegrees>-7.93509366922080516815185546875</LongitudeDegrees>
            </Position>
            <AltitudeMeters>472.20001220703125</AltitudeMeters>
            <DistanceMeters>365057.63764763</DistanceMeters>
          </Trackpoint>
          <Trackpoint>
            <Time>2018-09-15T09:36:06.000Z</Time>
            <Position>
              <LatitudeDegrees>37.22977199591696262359619140625</LatitudeDegrees>
              <LongitudeDegrees>-7.934942543506622314453125</LongitudeDegrees>
            </Position>
            <AltitudeMeters>473.600006103515625</AltitudeMeters>
            <DistanceMeters>365073.74909007</DistanceMeters>
          </Trackpoint>
          <Trackpoint>
            <Time>2018-09-15T09:36:11.000Z</Time>
            <Position>
              <LatitudeDegrees>37.22973025403916835784912109375</LatitudeDegrees>
              <LongitudeDegrees>-7.9346520267426967620849609375</LongitudeDegrees>
            </Position>
            <AltitudeMeters>474.399993896484375</AltitudeMeters>
            <DistanceMeters>365099.91061935</DistanceMeters>
          </Trackpoint>
          <Trackpoint>
            <Time>2018-09-15T09:36:12.000Z</Time>
            <Position>
              <LatitudeDegrees>37.2297330200672149658203125</LatitudeDegrees>
              <LongitudeDegrees>-7.93459293432533740997314453125</LongitudeDegrees>
            </Position>
            <AltitudeMeters>474.600006103515625</AltitudeMeters>
            <DistanceMeters>365105.15692023</DistanceMeters>
          </Trackpoint>
          <Trackpoint>
            <Time>2018-09-15T09:36:16.000Z</Time>
            <Position>
              <LatitudeDegrees>37.22976445220410823822021484375</LatitudeDegrees>
              <LongitudeDegrees>-7.93436930514872074127197265625</LongitudeDegrees>
            </Position>
            <AltitudeMeters>474.79998779296875</AltitudeMeters>
            <DistanceMeters>365125.28128106</DistanceMeters>
          </Trackpoint>
          <Trackpoint>
            <Time>2018-09-15T09:36:21.000Z</Time>
            <Position>
              <LatitudeDegrees>37.22980317659676074981689453125</LatitudeDegrees>
              <LongitudeDegrees>-7.9341075383126735687255859375</LongitudeDegrees>
            </Position>
            <AltitudeMeters>475.600006103515625</AltitudeMeters>
            <DistanceMeters>365148.87586121</DistanceMeters>
          </Trackpoint>
          <Trackpoint>
            <Time>2018-09-15T09:36:25.000Z</Time>
            <Position>
              <LatitudeDegrees>37.22983418963849544525146484375</LatitudeDegrees>
              <LongitudeDegrees>-7.93389849364757537841796875</LongitudeDegrees>
            </Position>
            <AltitudeMeters>476</AltitudeMeters>
            <DistanceMeters>365167.71992463</DistanceMeters>
          </Trackpoint>
          <Trackpoint>
            <Time>2018-09-15T09:36:30.000Z</Time>
            <Position>
              <LatitudeDegrees>37.2298564016819000244140625</LatitudeDegrees>
              <LongitudeDegrees>-7.93363907374441623687744140625</LongitudeDegrees>
            </Position>
            <AltitudeMeters>476.79998779296875</AltitudeMeters>
            <DistanceMeters>365190.84209377</DistanceMeters>
          </Trackpoint>
          <Trackpoint>
            <Time>2018-09-15T09:36:33.000Z</Time>
            <Position>
              <LatitudeDegrees>37.2298431582748889923095703125</LatitudeDegrees>
              <LongitudeDegrees>-7.93348300270736217498779296875</LongitudeDegrees>
            </Position>
            <AltitudeMeters>477.79998779296875</AltitudeMeters>
            <DistanceMeters>365204.75109653</DistanceMeters>
          </Trackpoint>
          <Trackpoint>
            <Time>2018-09-15T09:36:34.000Z</Time>
            <Position>
              <LatitudeDegrees>37.22983133979141712188720703125</LatitudeDegrees>
              <LongitudeDegrees>-7.93343237601220607757568359375</LongitudeDegrees>
            </Position>
            <AltitudeMeters>478.20001220703125</AltitudeMeters>
            <DistanceMeters>365209.42675853</DistanceMeters>
          </Trackpoint>
          <Trackpoint>
            <Time>2018-09-15T09:36:40.000Z</Time>
            <Position>
              <LatitudeDegrees>37.22968968562781810760498046875</LatitudeDegrees>
              <LongitudeDegrees>-7.933182679116725921630859375</LongitudeDegrees>
            </Position>
            <AltitudeMeters>481.79998779296875</AltitudeMeters>
            <DistanceMeters>365236.59725428</DistanceMeters>
          </Trackpoint>
          <Trackpoint>
            <Time>2018-09-15T09:36:41.000Z</Time>
            <Position>
              <LatitudeDegrees>37.2296580858528614044189453125</LatitudeDegrees>
              <LongitudeDegrees>-7.93314890004694461822509765625</LongitudeDegrees>
            </Position>
            <AltitudeMeters>482.600006103515625</AltitudeMeters>
            <DistanceMeters>365241.2155917</DistanceMeters>
          </Trackpoint>
          <Trackpoint>
            <Time>2018-09-15T09:36:43.000Z</Time>
            <Position>
              <LatitudeDegrees>37.22959195263683795928955078125</LatitudeDegrees>
              <LongitudeDegrees>-7.9330869577825069427490234375</LongitudeDegrees>
            </Position>
            <AltitudeMeters>484</AltitudeMeters>
            <DistanceMeters>365250.39784762</DistanceMeters>
          </Trackpoint>
          <Trackpoint>
            <Time>2018-09-15T09:36:45.000Z</Time>
            <Position>
              <LatitudeDegrees>37.22952087409794330596923828125</LatitudeDegrees>
              <LongitudeDegrees>-7.93303222395479679107666015625</LongitudeDegrees>
            </Position>
            <AltitudeMeters>485.600006103515625</AltitudeMeters>
            <DistanceMeters>365259.67743861</DistanceMeters>
          </Trackpoint>
          <Trackpoint>
            <Time>2018-09-15T09:36:50.000Z</Time>
            <Position>
              <LatitudeDegrees>37.2293425910174846649169921875</LatitudeDegrees>
              <LongitudeDegrees>-7.9328878037631511688232421875</LongitudeDegrees>
            </Position>
            <AltitudeMeters>485.20001220703125</AltitudeMeters>
            <DistanceMeters>365283.29019089</DistanceMeters>
          </Trackpoint>
          <Trackpoint>
            <Time>2018-09-15T09:36:56.000Z</Time>
            <Position>
              <LatitudeDegrees>37.22912214696407318115234375</LatitudeDegrees>
              <LongitudeDegrees>-7.93270532973110675811767578125</LongitudeDegrees>
            </Position>
            <AltitudeMeters>484.20001220703125</AltitudeMeters>
            <DistanceMeters>365312.67588673</DistanceMeters>
          </Trackpoint>
          <Trackpoint>
            <Time>2018-09-15T09:37:04.000Z</Time>
            <Position>
              <LatitudeDegrees>37.22883892245590686798095703125</LatitudeDegrees>
              <LongitudeDegrees>-7.9324801079928874969482421875</LongitudeDegrees>
            </Position>
            <AltitudeMeters>488</AltitudeMeters>
            <DistanceMeters>365349.98691332</DistanceMeters>
          </Trackpoint>
          <Trackpoint>
            <Time>2018-09-15T09:37:09.000Z</Time>
            <Position>
              <LatitudeDegrees>37.22867145203053951263427734375</LatitudeDegrees>
              <LongitudeDegrees>-7.93233099393546581268310546875</LongitudeDegrees>
            </Position>
            <AltitudeMeters>492</AltitudeMeters>
            <DistanceMeters>365372.83565156</DistanceMeters>
          </Trackpoint>
          <Trackpoint>
            <Time>2018-09-15T09:37:14.000Z</Time>
            <Position>
              <LatitudeDegrees>37.2285101003944873809814453125</LatitudeDegrees>
              <LongitudeDegrees>-7.93216939084231853485107421875</LongitudeDegrees>
            </Position>
            <AltitudeMeters>493.600006103515625</AltitudeMeters>
            <DistanceMeters>365395.8053992</DistanceMeters>
          </Trackpoint>
          <Trackpoint>
            <Time>2018-09-15T09:37:17.000Z</Time>
            <Position>
              <LatitudeDegrees>37.22842334769666194915771484375</LatitudeDegrees>
              <LongitudeDegrees>-7.93205841444432735443115234375</LongitudeDegrees>
            </Position>
            <AltitudeMeters>493.20001220703125</AltitudeMeters>
            <DistanceMeters>365409.58787677</DistanceMeters>
          </Trackpoint>
          <Trackpoint>
            <Time>2018-09-15T09:37:20.000Z</Time>
            <Position>
              <LatitudeDegrees>37.228371798992156982421875</LatitudeDegrees>
              <LongitudeDegrees>-7.93191592209041118621826171875</LongitudeDegrees>
            </Position>
            <AltitudeMeters>492.600006103515625</AltitudeMeters>
            <DistanceMeters>365423.45819684</DistanceMeters>
          </Trackpoint>
          <Trackpoint>
            <Time>2018-09-15T09:37:25.000Z</Time>
            <Position>
              <LatitudeDegrees>37.2283997945487499237060546875</LatitudeDegrees>
              <LongitudeDegrees>-7.9316637106239795684814453125</LongitudeDegrees>
            </Position>
            <AltitudeMeters>493</AltitudeMeters>
            <DistanceMeters>365446.02579111</DistanceMeters>
          </Trackpoint>
          <Trackpoint>
            <Time>2018-09-15T09:37:26.000Z</Time>
            <Position>
              <LatitudeDegrees>37.2284138761460781097412109375</LatitudeDegrees>
              <LongitudeDegrees>-7.93161652050912380218505859375</LongitudeDegrees>
            </Position>
            <AltitudeMeters>493.79998779296875</AltitudeMeters>
            <DistanceMeters>365450.49204669</DistanceMeters>
          </Trackpoint>
          <Trackpoint>
            <Time>2018-09-15T09:37:33.000Z</Time>
            <Position>
              <LatitudeDegrees>37.22855326719582080841064453125</LatitudeDegrees>
              <LongitudeDegrees>-7.9313032887876033782958984375</LongitudeDegrees>
            </Position>
            <AltitudeMeters>497</AltitudeMeters>
            <DistanceMeters>365482.29236431</DistanceMeters>
          </Trackpoint>
          <Trackpoint>
            <Time>2018-09-15T09:37:38.000Z</Time>
            <Position>
              <LatitudeDegrees>37.228663824498653411865234375</LatitudeDegrees>
              <LongitudeDegrees>-7.93107949197292327880859375</LongitudeDegrees>
            </Position>
            <AltitudeMeters>499.399993896484375</AltitudeMeters>
            <DistanceMeters>365505.63279022</DistanceMeters>
          </Trackpoint>
          <Trackpoint>
            <Time>2018-09-15T09:37:43.000Z</Time>
            <Position>
              <LatitudeDegrees>37.2287488169968128204345703125</LatitudeDegrees>
              <LongitudeDegrees>-7.9308305494487285614013671875</LongitudeDegrees>
            </Position>
            <AltitudeMeters>501.600006103515625</AltitudeMeters>
            <DistanceMeters>365529.6371477</DistanceMeters>
          </Trackpoint>
          <Trackpoint>
            <Time>2018-09-15T09:37:44.000Z</Time>
            <Position>
              <LatitudeDegrees>37.22875661216676235198974609375</LatitudeDegrees>
              <LongitudeDegrees>-7.93077774345874786376953125</LongitudeDegrees>
            </Position>
            <AltitudeMeters>501.79998779296875</AltitudeMeters>
            <DistanceMeters>365534.39607948</DistanceMeters>
          </Trackpoint>
          <Trackpoint>
            <Time>2018-09-15T09:37:48.000Z</Time>
            <Position>
              <LatitudeDegrees>37.22873314283788204193115234375</LatitudeDegrees>
              <LongitudeDegrees>-7.93056174181401729583740234375</LongitudeDegrees>
            </Position>
            <AltitudeMeters>502.399993896484375</AltitudeMeters>
            <DistanceMeters>365553.71573734</DistanceMeters>
          </Trackpoint>
          <Trackpoint>
            <Time>2018-09-15T09:37:50.000Z</Time>
            <Position>
              <LatitudeDegrees>37.22870430909097194671630859375</LatitudeDegrees>
              <LongitudeDegrees>-7.93045612983405590057373046875</LongitudeDegrees>
            </Position>
            <AltitudeMeters>502.600006103515625</AltitudeMeters>
            <DistanceMeters>365563.61038685</DistanceMeters>
          </Trackpoint>
          <Trackpoint>
            <Time>2018-09-15T09:37:55.000Z</Time>
            <Position>
              <LatitudeDegrees>37.22862602211534976959228515625</LatitudeDegrees>
              <LongitudeDegrees>-7.9301895014941692352294921875</LongitudeDegrees>
            </Position>
            <AltitudeMeters>504</AltitudeMeters>
            <DistanceMeters>365588.79479689</DistanceMeters>
          </Trackpoint>
          <Trackpoint>
            <Time>2018-09-15T09:38:00.000Z</Time>
            <Position>
              <LatitudeDegrees>37.22854170016944408416748046875</LatitudeDegrees>
              <LongitudeDegrees>-7.9299236275255680084228515625</LongitudeDegrees>
            </Position>
            <AltitudeMeters>503.79998779296875</AltitudeMeters>
            <DistanceMeters>365614.15731836</DistanceMeters>
          </Trackpoint>
          <Trackpoint>
            <Time>2018-09-15T09:38:07.000Z</Time>
            <Position>
              <LatitudeDegrees>37.22842049784958362579345703125</LatitudeDegrees>
              <LongitudeDegrees>-7.92951366864144802093505859375</LongitudeDegrees>
            </Position>
            <AltitudeMeters>502.79998779296875</AltitudeMeters>
            <DistanceMeters>365652.9121438</DistanceMeters>
          </Trackpoint>
          <Trackpoint>
            <Time>2018-09-15T09:38:12.000Z</Time>
            <Position>
              <LatitudeDegrees>37.22830348648130893707275390625</LatitudeDegrees>
              <LongitudeDegrees>-7.9291514866054058074951171875</LongitudeDegrees>
            </Position>
            <AltitudeMeters>501.600006103515625</AltitudeMeters>
            <DistanceMeters>365687.55117348</DistanceMeters>
          </Trackpoint>
          <Trackpoint>
            <Time>2018-09-15T09:38:16.000Z</Time>
            <Position>
              <LatitudeDegrees>37.22820818424224853515625</LatitudeDegrees>
              <LongitudeDegrees>-7.92884118854999542236328125</LongitudeDegrees>
            </Position>
            <AltitudeMeters>499.79998779296875</AltitudeMeters>
            <DistanceMeters>365717.02523741</DistanceMeters>
          </Trackpoint>
          <Trackpoint>
            <Time>2018-09-15T09:38:20.000Z</Time>
            <Position>
              <LatitudeDegrees>37.22810751758515834808349609375</LatitudeDegrees>
              <LongitudeDegrees>-7.9285104386508464813232421875</LongitudeDegrees>
            </Position>
            <AltitudeMeters>498.20001220703125</AltitudeMeters>
            <DistanceMeters>365748.40535493</DistanceMeters>
          </Trackpoint>
          <Trackpoint>
            <Time>2018-09-15T09:38:22.000Z</Time>
            <Position>
              <LatitudeDegrees>37.22805152647197246551513671875</LatitudeDegrees>
              <LongitudeDegrees>-7.92833282612264156341552734375</LongitudeDegrees>
            </Position>
            <AltitudeMeters>498.20001220703125</AltitudeMeters>
            <DistanceMeters>365765.33451812</DistanceMeters>
          </Trackpoint>
          <Trackpoint>
            <Time>2018-09-15T09:38:23.000Z</Time>
            <Position>
              <LatitudeDegrees>37.22802202217280864715576171875</LatitudeDegrees>
              <LongitudeDegrees>-7.9282392002642154693603515625</LongitudeDegrees>
            </Position>
            <AltitudeMeters>498</AltitudeMeters>
            <DistanceMeters>365774.25792633</DistanceMeters>
          </Trackpoint>
          <Trackpoint>
            <Time>2018-09-15T09:38:25.000Z</Time>
            <Position>
              <LatitudeDegrees>37.22796066664159297943115234375</LatitudeDegrees>
              <LongitudeDegrees>-7.92804365046322345733642578125</LongitudeDegrees>
            </Position>
            <AltitudeMeters>497.600006103515625</AltitudeMeters>
            <DistanceMeters>365792.88485918</DistanceMeters>
          </Trackpoint>
          <Trackpoint>
            <Time>2018-09-15T09:38:27.000Z</Time>
            <Position>
              <LatitudeDegrees>37.22789092920720577239990234375</LatitudeDegrees>
              <LongitudeDegrees>-7.92783862911164760589599609375</LongitudeDegrees>
            </Position>
            <AltitudeMeters>496.399993896484375</AltitudeMeters>
            <DistanceMeters>365812.64264763</DistanceMeters>
          </Trackpoint>
          <Trackpoint>
            <Time>2018-09-15T09:38:28.000Z</Time>
            <Position>
              <LatitudeDegrees>37.2278474271297454833984375</LatitudeDegrees>
              <LongitudeDegrees>-7.92773452587425708770751953125</LongitudeDegrees>
            </Position>
            <AltitudeMeters>495.600006103515625</AltitudeMeters>
            <DistanceMeters>365823.06184045</DistanceMeters>
          </Trackpoint>
          <Trackpoint>
            <Time>2018-09-15T09:38:31.000Z</Time>
            <Position>
              <LatitudeDegrees>37.2276343591511249542236328125</LatitudeDegrees>
              <LongitudeDegrees>-7.9274737648665904998779296875</LongitudeDegrees>
            </Position>
            <AltitudeMeters>493.20001220703125</AltitudeMeters>
            <DistanceMeters>365856.17425326</DistanceMeters>
          </Trackpoint>
          <Trackpoint>
            <Time>2018-09-15T09:38:33.000Z</Time>
            <Position>
              <LatitudeDegrees>37.2274335287511348724365234375</LatitudeDegrees>
              <LongitudeDegrees>-7.92738030664622783660888671875</LongitudeDegrees>
            </Position>
            <AltitudeMeters>491.600006103515625</AltitudeMeters>
            <DistanceMeters>365880.01213593</DistanceMeters>
          </Trackpoint>
          <Trackpoint>
            <Time>2018-09-15T09:38:36.000Z</Time>
            <Position>
              <LatitudeDegrees>37.2271130047738552093505859375</LatitudeDegrees>
              <LongitudeDegrees>-7.92728726752102375030517578125</LongitudeDegrees>
            </Position>
            <AltitudeMeters>489</AltitudeMeters>
            <DistanceMeters>365916.62764425</DistanceMeters>
          </Trackpoint>
          <Trackpoint>
            <Time>2018-09-15T09:38:37.000Z</Time>
            <Position>
              <LatitudeDegrees>37.2270043753087520599365234375</LatitudeDegrees>
              <LongitudeDegrees>-7.927257008850574493408203125</LongitudeDegrees>
            </Position>
            <AltitudeMeters>488</AltitudeMeters>
            <DistanceMeters>365929.01178001</DistanceMeters>
          </Trackpoint>
          <Trackpoint>
            <Time>2018-09-15T09:38:39.000Z</Time>
            <Position>
              <LatitudeDegrees>37.22678669728338718414306640625</LatitudeDegrees>
              <LongitudeDegrees>-7.92719389311969280242919921875</LongitudeDegrees>
            </Position>
            <AltitudeMeters>487.20001220703125</AltitudeMeters>
            <DistanceMeters>365953.87720448</DistanceMeters>
          </Trackpoint>
          <Trackpoint>
            <Time>2018-09-15T09:38:41.000Z</Time>
            <Position>
              <LatitudeDegrees>37.2265715338289737701416015625</LatitudeDegrees>
              <LongitudeDegrees>-7.92716874741017818450927734375</LongitudeDegrees>
            </Position>
            <AltitudeMeters>487</AltitudeMeters>
            <DistanceMeters>365977.92891454</DistanceMeters>
          </Trackpoint>
          <Trackpoint>
            <Time>2018-09-15T09:38:43.000Z</Time>
            <Position>
              <LatitudeDegrees>37.22635410726070404052734375</LatitudeDegrees>
              <LongitudeDegrees>-7.9272350482642650604248046875</LongitudeDegrees>
            </Position>
            <AltitudeMeters>486.79998779296875</AltitudeMeters>
            <DistanceMeters>366002.8320788</DistanceMeters>
          </Trackpoint>
          <Trackpoint>
            <Time>2018-09-15T09:38:45.000Z</Time>
            <Position>
              <LatitudeDegrees>37.22617984749376773834228515625</LatitudeDegrees>
              <LongitudeDegrees>-7.92742908932268619537353515625</LongitudeDegrees>
            </Position>
            <AltitudeMeters>487.20001220703125</AltitudeMeters>
            <DistanceMeters>366028.75330424</DistanceMeters>
          </Trackpoint>
          <Trackpoint>
            <Time>2018-09-15T09:38:46.000Z</Time>
            <Position>
              <LatitudeDegrees>37.2261132113635540008544921875</LatitudeDegrees>
              <LongitudeDegrees>-7.9275542311370372772216796875</LongitudeDegrees>
            </Position>
            <AltitudeMeters>487.399993896484375</AltitudeMeters>
            <DistanceMeters>366042.0953392</DistanceMeters>
          </Trackpoint>
          <Trackpoint>
            <Time>2018-09-15T09:38:47.000Z</Time>
            <Position>
              <LatitudeDegrees>37.226051352918148040771484375</LatitudeDegrees>
              <LongitudeDegrees>-7.9276863299310207366943359375</LongitudeDegrees>
            </Position>
            <AltitudeMeters>486</AltitudeMeters>
            <DistanceMeters>366055.67718008</DistanceMeters>
          </Trackpoint>
          <Trackpoint>
            <Time>2018-09-15T09:38:48.000Z</Time>
            <Position>
              <LatitudeDegrees>37.22599008120596408843994140625</LatitudeDegrees>
              <LongitudeDegrees>-7.92782136239111423492431640625</LongitudeDegrees>
            </Position>
            <AltitudeMeters>484.600006103515625</AltitudeMeters>
            <DistanceMeters>366069.45080981</DistanceMeters>
          </Trackpoint>
          <Trackpoint>
            <Time>2018-09-15T09:38:50.000Z</Time>
            <Position>
              <LatitudeDegrees>37.2258674539625644683837890625</LatitudeDegrees>
              <LongitudeDegrees>-7.9280953668057918548583984375</LongitudeDegrees>
            </Position>
            <AltitudeMeters>481.399993896484375</AltitudeMeters>
            <DistanceMeters>366097.30709328</DistanceMeters>
          </Trackpoint>
          <Trackpoint>
            <Time>2018-09-15T09:38:52.000Z</Time>
            <Position>
              <LatitudeDegrees>37.22574013285338878631591796875</LatitudeDegrees>
              <LongitudeDegrees>-7.9283686168491840362548828125</LongitudeDegrees>
            </Position>
            <AltitudeMeters>479.399993896484375</AltitudeMeters>
            <DistanceMeters>366125.36557123</DistanceMeters>
          </Trackpoint>
          <Trackpoint>
            <Time>2018-09-15T09:38:53.000Z</Time>
            <Position>
              <LatitudeDegrees>37.2256756760179996490478515625</LatitudeDegrees>
              <LongitudeDegrees>-7.92850683443248271942138671875</LongitudeDegrees>
            </Position>
            <AltitudeMeters>476.600006103515625</AltitudeMeters>
            <DistanceMeters>366139.56117569</DistanceMeters>
          </Trackpoint>
          <Trackpoint>
            <Time>2018-09-15T09:38:55.000Z</Time>
            <Position>
              <LatitudeDegrees>37.2255305014550685882568359375</LatitudeDegrees>
              <LongitudeDegrees>-7.9287836886942386627197265625</LongitudeDegrees>
            </Position>
            <AltitudeMeters>471.600006103515625</AltitudeMeters>
            <DistanceMeters>366168.93980289</DistanceMeters>
          </Trackpoint>
          <Trackpoint>
            <Time>2018-09-15T09:38:56.000Z</Time>
            <Position>
              <LatitudeDegrees>37.225445173680782318115234375</LatitudeDegrees>
              <LongitudeDegrees>-7.928910590708255767822265625</LongitudeDegrees>
            </Position>
            <AltitudeMeters>469.600006103515625</AltitudeMeters>
            <DistanceMeters>366183.66035806</DistanceMeters>
          </Trackpoint>
          <Trackpoint>
            <Time>2018-09-15T09:38:57.000Z</Time>
            <Position>
              <LatitudeDegrees>37.22534358501434326171875</LatitudeDegrees>
              <LongitudeDegrees>-7.92901963926851749420166015625</LongitudeDegrees>
            </Position>
            <AltitudeMeters>467.79998779296875</AltitudeMeters>
            <DistanceMeters>366198.53499866</DistanceMeters>
          </Trackpoint>
          <Trackpoint>
            <Time>2018-09-15T09:38:58.000Z</Time>
            <Position>
              <LatitudeDegrees>37.2252295911312103271484375</LatitudeDegrees>
              <LongitudeDegrees>-7.92910949327051639556884765625</LongitudeDegrees>
            </Position>
            <AltitudeMeters>466.399993896484375</AltitudeMeters>
            <DistanceMeters>366213.51489852</DistanceMeters>
          </Trackpoint>
          <Trackpoint>
            <Time>2018-09-15T09:39:00.000Z</Time>
            <Position>
              <LatitudeDegrees>37.22497754730284214019775390625</LatitudeDegrees>
              <LongitudeDegrees>-7.9292537458240985870361328125</LongitudeDegrees>
            </Position>
            <AltitudeMeters>464.20001220703125</AltitudeMeters>
            <DistanceMeters>366244.34356238</DistanceMeters>
          </Trackpoint>
          <Trackpoint>
            <Time>2018-09-15T09:39:02.000Z</Time>
            <Position>
              <LatitudeDegrees>37.22471754066646099090576171875</LatitudeDegrees>
              <LongitudeDegrees>-7.9293885268270969390869140625</LongitudeDegrees>
            </Position>
            <AltitudeMeters>462.399993896484375</AltitudeMeters>
            <DistanceMeters>366275.65107933</DistanceMeters>
          </Trackpoint>
          <Trackpoint>
            <Time>2018-09-15T09:39:04.000Z</Time>
            <Position>
              <LatitudeDegrees>37.2244609706103801727294921875</LatitudeDegrees>
              <LongitudeDegrees>-7.9295326955616474151611328125</LongitudeDegrees>
            </Position>
            <AltitudeMeters>460.399993896484375</AltitudeMeters>
            <DistanceMeters>366306.93580189</DistanceMeters>
          </Trackpoint>
          <Trackpoint>
            <Time>2018-09-15T09:39:05.000Z</Time>
            <Position>
              <LatitudeDegrees>37.224334739148616790771484375</LatitudeDegrees>
              <LongitudeDegrees>-7.929609976708889007568359375</LongitudeDegrees>
            </Position>
            <AltitudeMeters>459.20001220703125</AltitudeMeters>
            <DistanceMeters>366322.56617994</DistanceMeters>
          </Trackpoint>
          <Trackpoint>
            <Time>2018-09-15T09:39:07.000Z</Time>
            <Position>
              <LatitudeDegrees>37.22409158013761043548583984375</LatitudeDegrees>
              <LongitudeDegrees>-7.9297833144664764404296875</LongitudeDegrees>
            </Position>
            <AltitudeMeters>455.79998779296875</AltitudeMeters>
            <DistanceMeters>366353.68623198</DistanceMeters>
          </Trackpoint>
          <Trackpoint>
            <Time>2018-09-15T09:39:09.000Z</Time>
            <Position>
              <LatitudeDegrees>37.22385856322944164276123046875</LatitudeDegrees>
              <LongitudeDegrees>-7.929983474314212799072265625</LongitudeDegrees>
            </Position>
            <AltitudeMeters>450.600006103515625</AltitudeMeters>
            <DistanceMeters>366385.10804762</DistanceMeters>
          </Trackpoint>
          <Trackpoint>
            <Time>2018-09-15T09:39:10.000Z</Time>
            <Position>
              <LatitudeDegrees>37.2237458266317844390869140625</LatitudeDegrees>
              <LongitudeDegrees>-7.93008766137063503265380859375</LongitudeDegrees>
            </Position>
            <AltitudeMeters>448.20001220703125</AltitudeMeters>
            <DistanceMeters>366400.68721302</DistanceMeters>
          </Trackpoint>
          <Trackpoint>
            <Time>2018-09-15T09:39:11.000Z</Time>
            <Position>
              <LatitudeDegrees>37.22363459877669811248779296875</LatitudeDegrees>
              <LongitudeDegrees>-7.9301905073225498199462890625</LongitudeDegrees>
            </Position>
            <AltitudeMeters>448</AltitudeMeters>
            <DistanceMeters>366416.06099658</DistanceMeters>
          </Trackpoint>
          <Trackpoint>
            <Time>2018-09-15T09:39:13.000Z</Time>
            <Position>
              <LatitudeDegrees>37.22341784276068210601806640625</LatitudeDegrees>
              <LongitudeDegrees>-7.930395863950252532958984375</LongitudeDegrees>
            </Position>
            <AltitudeMeters>447.399993896484375</AltitudeMeters>
            <DistanceMeters>366446.28158346</DistanceMeters>
          </Trackpoint>
          <Trackpoint>
            <Time>2018-09-15T09:39:15.000Z</Time>
            <Position>
              <LatitudeDegrees>37.22321516834199428558349609375</LatitudeDegrees>
              <LongitudeDegrees>-7.93062259443104267120361328125</LongitudeDegrees>
            </Position>
            <AltitudeMeters>444.79998779296875</AltitudeMeters>
            <DistanceMeters>366476.49200924</DistanceMeters>
          </Trackpoint>
          <Trackpoint>
            <Time>2018-09-15T09:39:17.000Z</Time>
            <Position>
              <LatitudeDegrees>37.22303495742380619049072265625</LatitudeDegrees>
              <LongitudeDegrees>-7.93087723664939403533935546875</LongitudeDegrees>
            </Position>
            <AltitudeMeters>439.399993896484375</AltitudeMeters>
            <DistanceMeters>366506.68539258</DistanceMeters>
          </Trackpoint>
          <Trackpoint>
            <Time>2018-09-15T09:39:19.000Z</Time>
            <Position>
              <LatitudeDegrees>37.2228667326271533966064453125</LatitudeDegrees>
              <LongitudeDegrees>-7.93114093132317066192626953125</LongitudeDegrees>
            </Position>
            <AltitudeMeters>438</AltitudeMeters>
            <DistanceMeters>366536.63162593</DistanceMeters>
          </Trackpoint>
          <Trackpoint>
            <Time>2018-09-15T09:39:23.000Z</Time>
            <Position>
              <LatitudeDegrees>37.22253732383251190185546875</LatitudeDegrees>
              <LongitudeDegrees>-7.9316643811762332916259765625</LongitudeDegrees>
            </Position>
            <AltitudeMeters>436.20001220703125</AltitudeMeters>
            <DistanceMeters>366595.76298681</DistanceMeters>
          </Trackpoint>
          <Trackpoint>
            <Time>2018-09-15T09:39:25.000Z</Time>
            <Position>
              <LatitudeDegrees>37.222376726567745208740234375</LatitudeDegrees>
              <LongitudeDegrees>-7.931927405297756195068359375</LongitudeDegrees>
            </Position>
            <AltitudeMeters>433.600006103515625</AltitudeMeters>
            <DistanceMeters>366625.13884757</DistanceMeters>
          </Trackpoint>
          <Trackpoint>
            <Time>2018-09-15T09:39:27.000Z</Time>
            <Position>
              <LatitudeDegrees>37.22221545875072479248046875</LatitudeDegrees>
              <LongitudeDegrees>-7.93218682520091533660888671875</LongitudeDegrees>
            </Position>
            <AltitudeMeters>430.600006103515625</AltitudeMeters>
            <DistanceMeters>366654.30771509</DistanceMeters>
          </Trackpoint>
          <Trackpoint>
            <Time>2018-09-15T09:39:29.000Z</Time>
            <Position>
              <LatitudeDegrees>37.222053520381450653076171875</LatitudeDegrees>
              <LongitudeDegrees>-7.9324425570666790008544921875</LongitudeDegrees>
            </Position>
            <AltitudeMeters>427.79998779296875</AltitudeMeters>
            <DistanceMeters>366683.26608312</DistanceMeters>
          </Trackpoint>
          <Trackpoint>
            <Time>2018-09-15T09:39:30.000Z</Time>
            <Position>
              <LatitudeDegrees>37.22197095863521099090576171875</LatitudeDegrees>
              <LongitudeDegrees>-7.932571470737457275390625</LongitudeDegrees>
            </Position>
            <AltitudeMeters>426.399993896484375</AltitudeMeters>
            <DistanceMeters>366697.92855427</DistanceMeters>
          </Trackpoint>
          <Trackpoint>
            <Time>2018-09-15T09:39:31.000Z</Time>
            <Position>
              <LatitudeDegrees>37.22188764251768589019775390625</LatitudeDegrees>
              <LongitudeDegrees>-7.93270113877952098846435546875</LongitudeDegrees>
            </Position>
            <AltitudeMeters>426.79998779296875</AltitudeMeters>
            <DistanceMeters>366712.69535101</DistanceMeters>
          </Trackpoint>
          <Trackpoint>
            <Time>2018-09-15T09:39:33.000Z</Time>
            <Position>
              <LatitudeDegrees>37.22172738052904605865478515625</LatitudeDegrees>
              <LongitudeDegrees>-7.9329669289290904998779296875</LongitudeDegrees>
            </Position>
            <AltitudeMeters>427.399993896484375</AltitudeMeters>
            <DistanceMeters>366742.24361713</DistanceMeters>
          </Trackpoint>
          <Trackpoint>
            <Time>2018-09-15T09:39:36.000Z</Time>
            <Position>
              <LatitudeDegrees>37.22151397727429866790771484375</LatitudeDegrees>
              <LongitudeDegrees>-7.93338350951671600341796875</LongitudeDegrees>
            </Position>
            <AltitudeMeters>426.399993896484375</AltitudeMeters>
            <DistanceMeters>366786.14534211</DistanceMeters>
          </Trackpoint>
          <Trackpoint>
            <Time>2018-09-15T09:39:39.000Z</Time>
            <Position>
              <LatitudeDegrees>37.22133829258382320404052734375</LatitudeDegrees>
              <LongitudeDegrees>-7.93381643481552600860595703125</LongitudeDegrees>
            </Position>
            <AltitudeMeters>423.600006103515625</AltitudeMeters>
            <DistanceMeters>366829.21079486</DistanceMeters>
          </Trackpoint>
          <Trackpoint>
            <Time>2018-09-15T09:39:40.000Z</Time>
            <Position>
              <LatitudeDegrees>37.22128230147063732147216796875</LatitudeDegrees>
              <LongitudeDegrees>-7.93396026827394962310791015625</LongitudeDegrees>
            </Position>
            <AltitudeMeters>421.79998779296875</AltitudeMeters>
            <DistanceMeters>366843.40003671</DistanceMeters>
          </Trackpoint>
          <Trackpoint>
            <Time>2018-09-15T09:39:41.000Z</Time>
            <Position>
              <LatitudeDegrees>37.22122178412973880767822265625</LatitudeDegrees>
              <LongitudeDegrees>-7.9341001622378826141357421875</LongitudeDegrees>
            </Position>
            <AltitudeMeters>420.20001220703125</AltitudeMeters>
            <DistanceMeters>366857.51014392</DistanceMeters>
          </Trackpoint>
          <Trackpoint>
            <Time>2018-09-15T09:39:42.000Z</Time>
            <Position>
              <LatitudeDegrees>37.2211534716188907623291015625</LatitudeDegrees>
              <LongitudeDegrees>-7.93423234485089778900146484375</LongitudeDegrees>
            </Position>
            <AltitudeMeters>418.79998779296875</AltitudeMeters>
            <DistanceMeters>366871.47648493</DistanceMeters>
          </Trackpoint>
          <Trackpoint>
            <Time>2018-09-15T09:39:43.000Z</Time>
            <Position>
              <LatitudeDegrees>37.2210736759006977081298828125</LatitudeDegrees>
              <LongitudeDegrees>-7.9343497753143310546875</LongitudeDegrees>
            </Position>
            <AltitudeMeters>419</AltitudeMeters>
            <DistanceMeters>366885.15901192</DistanceMeters>
          </Trackpoint>
          <Trackpoint>
            <Time>2018-09-15T09:39:45.000Z</Time>
            <Position>
              <LatitudeDegrees>37.22087175585329532623291015625</LatitudeDegrees>
              <LongitudeDegrees>-7.9345142282545566558837890625</LongitudeDegrees>
            </Position>
            <AltitudeMeters>419.600006103515625</AltitudeMeters>
            <DistanceMeters>366911.94592859</DistanceMeters>
          </Trackpoint>
          <Trackpoint>
            <Time>2018-09-15T09:39:46.000Z</Time>
            <Position>
              <LatitudeDegrees>37.22075424157083034515380859375</LatitudeDegrees>
              <LongitudeDegrees>-7.93456158600747585296630859375</LongitudeDegrees>
            </Position>
            <AltitudeMeters>419.79998779296875</AltitudeMeters>
            <DistanceMeters>366925.68246663</DistanceMeters>
          </Trackpoint>
          <Trackpoint>
            <Time>2018-09-15T09:39:47.000Z</Time>
            <Position>
              <LatitudeDegrees>37.2206327877938747406005859375</LatitudeDegrees>
              <LongitudeDegrees>-7.9345953650772571563720703125</LongitudeDegrees>
            </Position>
            <AltitudeMeters>419.399993896484375</AltitudeMeters>
            <DistanceMeters>366939.52802523</DistanceMeters>
          </Trackpoint>
          <Trackpoint>
            <Time>2018-09-15T09:39:48.000Z</Time>
            <Position>
              <LatitudeDegrees>37.22050948999822139739990234375</LatitudeDegrees>
              <LongitudeDegrees>-7.93462897650897502899169921875</LongitudeDegrees>
            </Position>
            <AltitudeMeters>419</AltitudeMeters>
            <DistanceMeters>366953.57141761</DistanceMeters>
          </Trackpoint>
          <Trackpoint>
            <Time>2018-09-15T09:39:49.000Z</Time>
            <Position>
              <LatitudeDegrees>37.22038711421191692352294921875</LatitudeDegrees>
              <LongitudeDegrees>-7.93467231094837188720703125</LongitudeDegrees>
            </Position>
            <AltitudeMeters>418.600006103515625</AltitudeMeters>
            <DistanceMeters>366967.72306187</DistanceMeters>
          </Trackpoint>
          <Trackpoint>
            <Time>2018-09-15T09:39:50.000Z</Time>
            <Position>
              <LatitudeDegrees>37.220270521938800811767578125</LatitudeDegrees>
              <LongitudeDegrees>-7.93473777361214160919189453125</LongitudeDegrees>
            </Position>
            <AltitudeMeters>418</AltitudeMeters>
            <DistanceMeters>366981.93805468</DistanceMeters>
          </Trackpoint>
          <Trackpoint>
            <Time>2018-09-15T09:39:52.000Z</Time>
            <Position>
              <LatitudeDegrees>37.2200779058039188385009765625</LatitudeDegrees>
              <LongitudeDegrees>-7.93495084159076213836669921875</LongitudeDegrees>
            </Position>
            <AltitudeMeters>417.399993896484375</AltitudeMeters>
            <DistanceMeters>367010.50808565</DistanceMeters>
          </Trackpoint>
          <Trackpoint>
            <Time>2018-09-15T09:39:54.000Z</Time>
            <Position>
              <LatitudeDegrees>37.21992778591811656951904296875</LatitudeDegrees>
              <LongitudeDegrees>-7.93520967476069927215576171875</LongitudeDegrees>
            </Position>
            <AltitudeMeters>415.399993896484375</AltitudeMeters>
            <DistanceMeters>367038.88879669</DistanceMeters>
          </Trackpoint>
          <Trackpoint>
            <Time>2018-09-15T09:39:57.000Z</Time>
            <Position>
              <LatitudeDegrees>37.2197111137211322784423828125</LatitudeDegrees>
              <LongitudeDegrees>-7.935608737170696258544921875</LongitudeDegrees>
            </Position>
            <AltitudeMeters>410.600006103515625</AltitudeMeters>
            <DistanceMeters>367081.69756686</DistanceMeters>
          </Trackpoint>
          <Trackpoint>
            <Time>2018-09-15T09:39:58.000Z</Time>
            <Position>
              <LatitudeDegrees>37.21963827498257160186767578125</LatitudeDegrees>
              <LongitudeDegrees>-7.93574343435466289520263671875</LongitudeDegrees>
            </Position>
            <AltitudeMeters>409</AltitudeMeters>
            <DistanceMeters>367096.12817991</DistanceMeters>
          </Trackpoint>
          <Trackpoint>
            <Time>2018-09-15T09:39:59.000Z</Time>
            <Position>
              <LatitudeDegrees>37.21956434659659862518310546875</LatitudeDegrees>
              <LongitudeDegrees>-7.935878299176692962646484375</LongitudeDegrees>
            </Position>
            <AltitudeMeters>407.399993896484375</AltitudeMeters>
            <DistanceMeters>367110.63991353</DistanceMeters>
          </Trackpoint>
          <Trackpoint>
            <Time>2018-09-15T09:40:00.000Z</Time>
            <Position>
              <LatitudeDegrees>37.21949058584868907928466796875</LatitudeDegrees>
              <LongitudeDegrees>-7.93601199053227901458740234375</LongitudeDegrees>
            </Position>
            <AltitudeMeters>407.20001220703125</AltitudeMeters>
            <DistanceMeters>367125.05518734</DistanceMeters>
          </Trackpoint>
          <Trackpoint>
            <Time>2018-09-15T09:40:02.000Z</Time>
            <Position>
              <LatitudeDegrees>37.219343483448028564453125</LatitudeDegrees>
              <LongitudeDegrees>-7.9362791217863559722900390625</LongitudeDegrees>
            </Position>
            <AltitudeMeters>407.399993896484375</AltitudeMeters>
            <DistanceMeters>367153.84122449</DistanceMeters>
          </Trackpoint>
          <Trackpoint>
            <Time>2018-09-15T09:40:04.000Z</Time>
            <Position>
              <LatitudeDegrees>37.219197638332843780517578125</LatitudeDegrees>
              <LongitudeDegrees>-7.9365463368594646453857421875</LongitudeDegrees>
            </Position>
            <AltitudeMeters>407.79998779296875</AltitudeMeters>
            <DistanceMeters>367182.55407735</DistanceMeters>
          </Trackpoint>
          <Trackpoint>
            <Time>2018-09-15T09:40:07.000Z</Time>
            <Position>
              <LatitudeDegrees>37.21898331306874752044677734375</LatitudeDegrees>
              <LongitudeDegrees>-7.936946488916873931884765625</LongitudeDegrees>
            </Position>
            <AltitudeMeters>405.79998779296875</AltitudeMeters>
            <DistanceMeters>367225.29677235</DistanceMeters>
          </Trackpoint>
          <Trackpoint>
            <Time>2018-09-15T09:40:08.000Z</Time>
            <Position>
              <LatitudeDegrees>37.21890754066407680511474609375</LatitudeDegrees>
              <LongitudeDegrees>-7.9370780847966670989990234375</LongitudeDegrees>
            </Position>
            <AltitudeMeters>404.399993896484375</AltitudeMeters>
            <DistanceMeters>367239.69010462</DistanceMeters>
          </Trackpoint>
          <Trackpoint>
            <Time>2018-09-15T09:40:09.000Z</Time>
            <Position>
              <LatitudeDegrees>37.2188300080597400665283203125</LatitudeDegrees>
              <LongitudeDegrees>-7.937208674848079681396484375</LongitudeDegrees>
            </Position>
            <AltitudeMeters>403</AltitudeMeters>
            <DistanceMeters>367254.12759936</DistanceMeters>
          </Trackpoint>
          <Trackpoint>
            <Time>2018-09-15T09:40:11.000Z</Time>
            <Position>
              <LatitudeDegrees>37.21867133863270282745361328125</LatitudeDegrees>
              <LongitudeDegrees>-7.9374624788761138916015625</LongitudeDegrees>
            </Position>
            <AltitudeMeters>400.20001220703125</AltitudeMeters>
            <DistanceMeters>367282.72700957</DistanceMeters>
          </Trackpoint>
          <Trackpoint>
            <Time>2018-09-15T09:40:13.000Z</Time>
            <Position>
              <LatitudeDegrees>37.218512333929538726806640625</LatitudeDegrees>
              <LongitudeDegrees>-7.93769918382167816162109375</LongitudeDegrees>
            </Position>
            <AltitudeMeters>399.20001220703125</AltitudeMeters>
            <DistanceMeters>367310.174436</DistanceMeters>
          </Trackpoint>
          <Trackpoint>
            <Time>2018-09-15T09:40:17.000Z</Time>
            <Position>
              <LatitudeDegrees>37.2181953303515911102294921875</LatitudeDegrees>
              <LongitudeDegrees>-7.9381352104246616363525390625</LongitudeDegrees>
            </Position>
            <AltitudeMeters>399</AltitudeMeters>
            <DistanceMeters>367362.50474254</DistanceMeters>
          </Trackpoint>
          <Trackpoint>
            <Time>2018-09-15T09:40:19.000Z</Time>
            <Position>
              <LatitudeDegrees>37.218019478023052215576171875</LatitudeDegrees>
              <LongitudeDegrees>-7.93830393813550472259521484375</LongitudeDegrees>
            </Position>
            <AltitudeMeters>397.600006103515625</AltitudeMeters>
            <DistanceMeters>367387.13701601</DistanceMeters>
          </Trackpoint>
          <Trackpoint>
            <Time>2018-09-15T09:40:20.000Z</Time>
            <Position>
              <LatitudeDegrees>37.217918224632740020751953125</LatitudeDegrees>
              <LongitudeDegrees>-7.9383538104593753814697265625</LongitudeDegrees>
            </Position>
            <AltitudeMeters>396.79998779296875</AltitudeMeters>
            <DistanceMeters>367399.24276302</DistanceMeters>
          </Trackpoint>
          <Trackpoint>
            <Time>2018-09-15T09:40:21.000Z</Time>
            <Position>
              <LatitudeDegrees>37.217810936272144317626953125</LatitudeDegrees>
              <LongitudeDegrees>-7.9383796267211437225341796875</LongitudeDegrees>
            </Position>
            <AltitudeMeters>396</AltitudeMeters>
            <DistanceMeters>367411.40172726</DistanceMeters>
          </Trackpoint>
          <Trackpoint>
            <Time>2018-09-15T09:40:22.000Z</Time>
            <Position>
              <LatitudeDegrees>37.21769903786480426788330078125</LatitudeDegrees>
              <LongitudeDegrees>-7.9383883439004421234130859375</LongitudeDegrees>
            </Position>
            <AltitudeMeters>395</AltitudeMeters>
            <DistanceMeters>367423.88029442</DistanceMeters>
          </Trackpoint>
          <Trackpoint>
            <Time>2018-09-15T09:40:23.000Z</Time>
            <Position>
              <LatitudeDegrees>37.21758454106748104095458984375</LatitudeDegrees>
              <LongitudeDegrees>-7.93838758952915668487548828125</LongitudeDegrees>
            </Position>
            <AltitudeMeters>394</AltitudeMeters>
            <DistanceMeters>367436.62450702</DistanceMeters>
          </Trackpoint>
          <Trackpoint>
            <Time>2018-09-15T09:40:25.000Z</Time>
            <Position>
              <LatitudeDegrees>37.2173521108925342559814453125</LatitudeDegrees>
              <LongitudeDegrees>-7.93836210854351520538330078125</LongitudeDegrees>
            </Position>
            <AltitudeMeters>394</AltitudeMeters>
            <DistanceMeters>367462.5927193</DistanceMeters>
          </Trackpoint>
          <Trackpoint>
            <Time>2018-09-15T09:40:26.000Z</Time>
            <Position>
              <LatitudeDegrees>37.2172394581139087677001953125</LatitudeDegrees>
              <LongitudeDegrees>-7.93832656927406787872314453125</LongitudeDegrees>
            </Position>
            <AltitudeMeters>395.399993896484375</AltitudeMeters>
            <DistanceMeters>367475.52054413</DistanceMeters>
          </Trackpoint>
          <Trackpoint>
            <Time>2018-09-15T09:40:29.000Z</Time>
            <Position>
              <LatitudeDegrees>37.21695388667285442352294921875</LatitudeDegrees>
              <LongitudeDegrees>-7.93808818794786930084228515625</LongitudeDegrees>
            </Position>
            <AltitudeMeters>398.399993896484375</AltitudeMeters>
            <DistanceMeters>367513.687347</DistanceMeters>
          </Trackpoint>
          <Trackpoint>
            <Time>2018-09-15T09:40:31.000Z</Time>
            <Position>
              <LatitudeDegrees>37.21679664216935634613037109375</LatitudeDegrees>
              <LongitudeDegrees>-7.93786707334220409393310546875</LongitudeDegrees>
            </Position>
            <AltitudeMeters>395.79998779296875</AltitudeMeters>
            <DistanceMeters>367539.96287791</DistanceMeters>
          </Trackpoint>
          <Trackpoint>
            <Time>2018-09-15T09:40:33.000Z</Time>
            <Position>
              <LatitudeDegrees>37.21664006821811199188232421875</LatitudeDegrees>
              <LongitudeDegrees>-7.93764059431850910186767578125</LongitudeDegrees>
            </Position>
            <AltitudeMeters>392.79998779296875</AltitudeMeters>
            <DistanceMeters>367566.54625095</DistanceMeters>
          </Trackpoint>
          <Trackpoint>
            <Time>2018-09-15T09:40:35.000Z</Time>
            <Position>
              <LatitudeDegrees>37.21648617647588253021240234375</LatitudeDegrees>
              <LongitudeDegrees>-7.9374093376100063323974609375</LongitudeDegrees>
            </Position>
            <AltitudeMeters>393.399993896484375</AltitudeMeters>
            <DistanceMeters>367593.25839389</DistanceMeters>
          </Trackpoint>
          <Trackpoint>
            <Time>2018-09-15T09:40:39.000Z</Time>
            <Position>
              <LatitudeDegrees>37.216180823743343353271484375</LatitudeDegrees>
              <LongitudeDegrees>-7.9369469918310642242431640625</LongitudeDegrees>
            </Position>
            <AltitudeMeters>394.20001220703125</AltitudeMeters>
            <DistanceMeters>367646.498123</DistanceMeters>
          </Trackpoint>
          <Trackpoint>
            <Time>2018-09-15T09:40:40.000Z</Time>
            <Position>
              <LatitudeDegrees>37.2161042131483554840087890625</LatitudeDegrees>
              <LongitudeDegrees>-7.93683291412889957427978515625</LongitudeDegrees>
            </Position>
            <AltitudeMeters>393.20001220703125</AltitudeMeters>
            <DistanceMeters>367659.72459913</DistanceMeters>
          </Trackpoint>
          <Trackpoint>
            <Time>2018-09-15T09:40:42.000Z</Time>
            <Position>
              <LatitudeDegrees>37.21594654954969882965087890625</LatitudeDegrees>
              <LongitudeDegrees>-7.9366066865622997283935546875</LongitudeDegrees>
            </Position>
            <AltitudeMeters>394.20001220703125</AltitudeMeters>
            <DistanceMeters>367686.37074052</DistanceMeters>
          </Trackpoint>
          <Trackpoint>
            <Time>2018-09-15T09:40:45.000Z</Time>
            <Position>
              <LatitudeDegrees>37.2156924940645694732666015625</LatitudeDegrees>
              <LongitudeDegrees>-7.93627786450088024139404296875</LongitudeDegrees>
            </Position>
            <AltitudeMeters>389.399993896484375</AltitudeMeters>
            <DistanceMeters>367726.97929257</DistanceMeters>
          </Trackpoint>
          <Trackpoint>
            <Time>2018-09-15T09:40:48.000Z</Time>
            <Position>
              <LatitudeDegrees>37.21540692262351512908935546875</LatitudeDegrees>
              <LongitudeDegrees>-7.93599422089755535125732421875</LongitudeDegrees>
            </Position>
            <AltitudeMeters>388.399993896484375</AltitudeMeters>
            <DistanceMeters>367767.50526182</DistanceMeters>
          </Trackpoint>
          <Trackpoint>
            <Time>2018-09-15T09:40:51.000Z</Time>
            <Position>
              <LatitudeDegrees>37.21511540003120899200439453125</LatitudeDegrees>
              <LongitudeDegrees>-7.93574980460107326507568359375</LongitudeDegrees>
            </Position>
            <AltitudeMeters>388.79998779296875</AltitudeMeters>
            <DistanceMeters>367806.5200646</DistanceMeters>
          </Trackpoint>
          <Trackpoint>
            <Time>2018-09-15T09:40:53.000Z</Time>
            <Position>
              <LatitudeDegrees>37.2149243764579296112060546875</LatitudeDegrees>
              <LongitudeDegrees>-7.93559675104916095733642578125</LongitudeDegrees>
            </Position>
            <AltitudeMeters>385.399993896484375</AltitudeMeters>
            <DistanceMeters>367831.74084204</DistanceMeters>
          </Trackpoint>
          <Trackpoint>
            <Time>2018-09-15T09:40:55.000Z</Time>
            <Position>
              <LatitudeDegrees>37.214721702039241790771484375</LatitudeDegrees>
              <LongitudeDegrees>-7.93548158369958400726318359375</LongitudeDegrees>
            </Position>
            <AltitudeMeters>383.399993896484375</AltitudeMeters>
            <DistanceMeters>367856.50109143</DistanceMeters>
          </Trackpoint>
          <Trackpoint>
            <Time>2018-09-15T09:40:56.000Z</Time>
            <Position>
              <LatitudeDegrees>37.21461265347898006439208984375</LatitudeDegrees>
              <LongitudeDegrees>-7.93546029366552829742431640625</LongitudeDegrees>
            </Position>
            <AltitudeMeters>383</AltitudeMeters>
            <DistanceMeters>367868.78419027</DistanceMeters>
          </Trackpoint>
          <Trackpoint>
            <Time>2018-09-15T09:40:58.000Z</Time>
            <Position>
              <LatitudeDegrees>37.2143916226923465728759765625</LatitudeDegrees>
              <LongitudeDegrees>-7.93549968861043453216552734375</LongitudeDegrees>
            </Position>
            <AltitudeMeters>383.600006103515625</AltitudeMeters>
            <DistanceMeters>367893.63199534</DistanceMeters>
          </Trackpoint>
          <Trackpoint>
            <Time>2018-09-15T09:40:59.000Z</Time>
            <Position>
              <LatitudeDegrees>37.21428089775145053863525390625</LatitudeDegrees>
              <LongitudeDegrees>-7.93553589843213558197021484375</LongitudeDegrees>
            </Position>
            <AltitudeMeters>384</AltitudeMeters>
            <DistanceMeters>367906.36734783</DistanceMeters>
          </Trackpoint>
          <Trackpoint>
            <Time>2018-09-15T09:41:00.000Z</Time>
            <Position>
              <LatitudeDegrees>37.2141663171350955963134765625</LatitudeDegrees>
              <LongitudeDegrees>-7.93556808494031429290771484375</LongitudeDegrees>
            </Position>
            <AltitudeMeters>384.600006103515625</AltitudeMeters>
            <DistanceMeters>367919.43550783</DistanceMeters>
          </Trackpoint>
          <Trackpoint>
            <Time>2018-09-15T09:41:01.000Z</Time>
            <Position>
              <LatitudeDegrees>37.2140496410429477691650390625</LatitudeDegrees>
              <LongitudeDegrees>-7.93558652512729167938232421875</LongitudeDegrees>
            </Position>
            <AltitudeMeters>385.600006103515625</AltitudeMeters>
            <DistanceMeters>367932.52438136</DistanceMeters>
          </Trackpoint>
          <Trackpoint>
            <Time>2018-09-15T09:41:02.000Z</Time>
            <Position>
              <LatitudeDegrees>37.21393388696014881134033203125</LatitudeDegrees>
              <LongitudeDegrees>-7.93558853678405284881591796875</LongitudeDegrees>
            </Position>
            <AltitudeMeters>386.600006103515625</AltitudeMeters>
            <DistanceMeters>367945.40917687</DistanceMeters>
          </Trackpoint>
          <Trackpoint>
            <Time>2018-09-15T09:41:04.000Z</Time>
            <Position>
              <LatitudeDegrees>37.2137207351624965667724609375</LatitudeDegrees>
              <LongitudeDegrees>-7.93552257120609283447265625</LongitudeDegrees>
            </Position>
            <AltitudeMeters>387.399993896484375</AltitudeMeters>
            <DistanceMeters>367969.84324129</DistanceMeters>
          </Trackpoint>
          <Trackpoint>
            <Time>2018-09-15T09:41:07.000Z</Time>
            <Position>
              <LatitudeDegrees>37.21344455145299434661865234375</LatitudeDegrees>
              <LongitudeDegrees>-7.935327105224132537841796875</LongitudeDegrees>
            </Position>
            <AltitudeMeters>384.399993896484375</AltitudeMeters>
            <DistanceMeters>368005.12951512</DistanceMeters>
          </Trackpoint>
          <Trackpoint>
            <Time>2018-09-15T09:41:09.000Z</Time>
            <Position>
              <LatitudeDegrees>37.21327188424766063690185546875</LatitudeDegrees>
              <LongitudeDegrees>-7.93519475497305393218994140625</LongitudeDegrees>
            </Position>
            <AltitudeMeters>382</AltitudeMeters>
            <DistanceMeters>368027.64523233</DistanceMeters>
          </Trackpoint>
          <Trackpoint>
            <Time>2018-09-15T09:41:10.000Z</Time>
            <Position>
              <LatitudeDegrees>37.2131832875311374664306640625</LatitudeDegrees>
              <LongitudeDegrees>-7.93514261953532695770263671875</LongitudeDegrees>
            </Position>
            <AltitudeMeters>380.600006103515625</AltitudeMeters>
            <DistanceMeters>368038.53564206</DistanceMeters>
          </Trackpoint>
          <Trackpoint>
            <Time>2018-09-15T09:41:14.000Z</Time>
            <Position>
              <LatitudeDegrees>37.2128044255077838897705078125</LatitudeDegrees>
              <LongitudeDegrees>-7.93512753210961818695068359375</LongitudeDegrees>
            </Position>
            <AltitudeMeters>380.20001220703125</AltitudeMeters>
            <DistanceMeters>368080.72493487</DistanceMeters>
          </Trackpoint>
          <Trackpoint>
            <Time>2018-09-15T09:41:15.000Z</Time>
            <Position>
              <LatitudeDegrees>37.21271415241062641143798828125</LatitudeDegrees>
              <LongitudeDegrees>-7.93515351600944995880126953125</LongitudeDegrees>
            </Position>
            <AltitudeMeters>380.79998779296875</AltitudeMeters>
            <DistanceMeters>368091.03259607</DistanceMeters>
          </Trackpoint>
          <Trackpoint>
            <Time>2018-09-15T09:41:22.000Z</Time>
            <Position>
              <LatitudeDegrees>37.21212490461766719818115234375</LatitudeDegrees>
              <LongitudeDegrees>-7.93538309633731842041015625</LongitudeDegrees>
            </Position>
            <AltitudeMeters>381</AltitudeMeters>
            <DistanceMeters>368159.70174299</DistanceMeters>
          </Trackpoint>
          <Trackpoint>
            <Time>2018-09-15T09:41:29.000Z</Time>
            <Position>
              <LatitudeDegrees>37.211576811969280242919921875</LatitudeDegrees>
              <LongitudeDegrees>-7.93559507466852664947509765625</LongitudeDegrees>
            </Position>
            <AltitudeMeters>379</AltitudeMeters>
            <DistanceMeters>368223.53381199</DistanceMeters>
          </Trackpoint>
          <Trackpoint>
            <Time>2018-09-15T09:41:33.000Z</Time>
            <Position>
              <LatitudeDegrees>37.21129844896495342254638671875</LatitudeDegrees>
              <LongitudeDegrees>-7.9357024468481540679931640625</LongitudeDegrees>
            </Position>
            <AltitudeMeters>381.20001220703125</AltitudeMeters>
            <DistanceMeters>368255.94516622</DistanceMeters>
          </Trackpoint>
          <Trackpoint>
            <Time>2018-09-15T09:41:36.000Z</Time>
            <Position>
              <LatitudeDegrees>37.21110750921070575714111328125</LatitudeDegrees>
              <LongitudeDegrees>-7.93577277101576328277587890625</LongitudeDegrees>
            </Position>
            <AltitudeMeters>382.399993896484375</AltitudeMeters>
            <DistanceMeters>368278.09271129</DistanceMeters>
          </Trackpoint>
          <Trackpoint>
            <Time>2018-09-15T09:41:39.000Z</Time>
            <Position>
              <LatitudeDegrees>37.21092562191188335418701171875</LatitudeDegrees>
              <LongitudeDegrees>-7.93582004494965076446533203125</LongitudeDegrees>
            </Position>
            <AltitudeMeters>383.399993896484375</AltitudeMeters>
            <DistanceMeters>368298.76642765</DistanceMeters>
          </Trackpoint>
          <Trackpoint>
            <Time>2018-09-15T09:41:41.000Z</Time>
            <Position>
              <LatitudeDegrees>37.21080743707716464996337890625</LatitudeDegrees>
              <LongitudeDegrees>-7.9358157701790332794189453125</LongitudeDegrees>
            </Position>
            <AltitudeMeters>384</AltitudeMeters>
            <DistanceMeters>368311.92616952</DistanceMeters>
          </Trackpoint>
          <Trackpoint>
            <Time>2018-09-15T09:41:44.000Z</Time>
            <Position>
              <LatitudeDegrees>37.21064851619303226470947265625</LatitudeDegrees>
              <LongitudeDegrees>-7.93573580682277679443359375</LongitudeDegrees>
            </Position>
            <AltitudeMeters>384</AltitudeMeters>
            <DistanceMeters>368330.98180999</DistanceMeters>
          </Trackpoint>
          <Trackpoint>
            <Time>2018-09-15T09:41:46.000Z</Time>
            <Position>
              <LatitudeDegrees>37.21056997776031494140625</LatitudeDegrees>
              <LongitudeDegrees>-7.93563463725149631500244140625</LongitudeDegrees>
            </Position>
            <AltitudeMeters>383.399993896484375</AltitudeMeters>
            <DistanceMeters>368343.50552341</DistanceMeters>
          </Trackpoint>
          <Trackpoint>
            <Time>2018-09-15T09:41:47.000Z</Time>
            <Position>
              <LatitudeDegrees>37.2105372883379459381103515625</LatitudeDegrees>
              <LongitudeDegrees>-7.93557814322412014007568359375</LongitudeDegrees>
            </Position>
            <AltitudeMeters>383.20001220703125</AltitudeMeters>
            <DistanceMeters>368349.69467394</DistanceMeters>
          </Trackpoint>
          <Trackpoint>
            <Time>2018-09-15T09:41:50.000Z</Time>
            <Position>
              <LatitudeDegrees>37.21042958088219165802001953125</LatitudeDegrees>
              <LongitudeDegrees>-7.9353735409677028656005859375</LongitudeDegrees>
            </Position>
            <AltitudeMeters>382.600006103515625</AltitudeMeters>
            <DistanceMeters>368371.43503344</DistanceMeters>
          </Trackpoint>
          <Trackpoint>
            <Time>2018-09-15T09:41:55.000Z</Time>
            <Position>
              <LatitudeDegrees>37.2102509625256061553955078125</LatitudeDegrees>
              <LongitudeDegrees>-7.934991158545017242431640625</LongitudeDegrees>
            </Position>
            <AltitudeMeters>386.600006103515625</AltitudeMeters>
            <DistanceMeters>368410.73050445</DistanceMeters>
          </Trackpoint>
          <Trackpoint>
            <Time>2018-09-15T09:42:03.000Z</Time>
            <Position>
              <LatitudeDegrees>37.209943346679210662841796875</LatitudeDegrees>
              <LongitudeDegrees>-7.934344746172428131103515625</LongitudeDegrees>
            </Position>
            <AltitudeMeters>384.399993896484375</AltitudeMeters>
            <DistanceMeters>368477.4805317</DistanceMeters>
          </Trackpoint>
          <Trackpoint>
            <Time>2018-09-15T09:42:07.000Z</Time>
            <Position>
              <LatitudeDegrees>37.20978048630058765411376953125</LatitudeDegrees>
              <LongitudeDegrees>-7.93402682058513164520263671875</LongitudeDegrees>
            </Position>
            <AltitudeMeters>384.20001220703125</AltitudeMeters>
            <DistanceMeters>368510.98873525</DistanceMeters>
          </Trackpoint>
          <Trackpoint>
            <Time>2018-09-15T09:42:13.000Z</Time>
            <Position>
              <LatitudeDegrees>37.20954529009759426116943359375</LatitudeDegrees>
              <LongitudeDegrees>-7.93353647924959659576416015625</LongitudeDegrees>
            </Position>
            <AltitudeMeters>383.79998779296875</AltitudeMeters>
            <DistanceMeters>368561.72890765</DistanceMeters>
          </Trackpoint>
          <Trackpoint>
            <Time>2018-09-15T09:42:17.000Z</Time>
            <Position>
              <LatitudeDegrees>37.20938351936638355255126953125</LatitudeDegrees>
              <LongitudeDegrees>-7.93320992030203342437744140625</LongitudeDegrees>
            </Position>
            <AltitudeMeters>383.20001220703125</AltitudeMeters>
            <DistanceMeters>368595.81940205</DistanceMeters>
          </Trackpoint>
          <Trackpoint>
            <Time>2018-09-15T09:42:19.000Z</Time>
            <Position>
              <LatitudeDegrees>37.20929886214435100555419921875</LatitudeDegrees>
              <LongitudeDegrees>-7.93304563499987125396728515625</LongitudeDegrees>
            </Position>
            <AltitudeMeters>382.20001220703125</AltitudeMeters>
            <DistanceMeters>368613.16483623</DistanceMeters>
          </Trackpoint>
          <Trackpoint>
            <Time>2018-09-15T09:42:23.000Z</Time>
            <Position>
              <LatitudeDegrees>37.20910775475203990936279296875</LatitudeDegrees>
              <LongitudeDegrees>-7.9327365942299365997314453125</LongitudeDegrees>
            </Position>
            <AltitudeMeters>380</AltitudeMeters>
            <DistanceMeters>368647.84789468</DistanceMeters>
          </Trackpoint>
          <Trackpoint>
            <Time>2018-09-15T09:42:27.000Z</Time>
            <Position>
              <LatitudeDegrees>37.2088243626058101654052734375</LatitudeDegrees>
              <LongitudeDegrees>-7.93253785930573940277099609375</LongitudeDegrees>
            </Position>
            <AltitudeMeters>381.399993896484375</AltitudeMeters>
            <DistanceMeters>368683.97629666</DistanceMeters>
          </Trackpoint>
          <Trackpoint>
            <Time>2018-09-15T09:42:31.000Z</Time>
            <Position>
              <LatitudeDegrees>37.2085038386285305023193359375</LatitudeDegrees>
              <LongitudeDegrees>-7.93240274302661418914794921875</LongitudeDegrees>
            </Position>
            <AltitudeMeters>384.600006103515625</AltitudeMeters>
            <DistanceMeters>368721.60831532</DistanceMeters>
          </Trackpoint>
          <Trackpoint>
            <Time>2018-09-15T09:42:36.000Z</Time>
            <Position>
              <LatitudeDegrees>37.2080884315073490142822265625</LatitudeDegrees>
              <LongitudeDegrees>-7.93224088847637176513671875</LongitudeDegrees>
            </Position>
            <AltitudeMeters>381</AltitudeMeters>
            <DistanceMeters>368770.01899389</DistanceMeters>
          </Trackpoint>
          <Trackpoint>
            <Time>2018-09-15T09:42:43.000Z</Time>
            <Position>
              <LatitudeDegrees>37.2074896283447742462158203125</LatitudeDegrees>
              <LongitudeDegrees>-7.93200057931244373321533203125</LongitudeDegrees>
            </Position>
            <AltitudeMeters>376.600006103515625</AltitudeMeters>
            <DistanceMeters>368839.98860333</DistanceMeters>
          </Trackpoint>
          <Trackpoint>
            <Time>2018-09-15T09:42:46.000Z</Time>
            <Position>
              <LatitudeDegrees>37.207228280603885650634765625</LatitudeDegrees>
              <LongitudeDegrees>-7.93189161457121372222900390625</LongitudeDegrees>
            </Position>
            <AltitudeMeters>375.20001220703125</AltitudeMeters>
            <DistanceMeters>368870.63910141</DistanceMeters>
          </Trackpoint>
          <Trackpoint>
            <Time>2018-09-15T09:42:50.000Z</Time>
            <Position>
              <LatitudeDegrees>37.20687850378453731536865234375</LatitudeDegrees>
              <LongitudeDegrees>-7.93174224905669689178466796875</LongitudeDegrees>
            </Position>
            <AltitudeMeters>377.399993896484375</AltitudeMeters>
            <DistanceMeters>368911.76009355</DistanceMeters>
          </Trackpoint>
          <Trackpoint>
            <Time>2018-09-15T09:42:53.000Z</Time>
            <Position>
              <LatitudeDegrees>37.20662939362227916717529296875</LatitudeDegrees>
              <LongitudeDegrees>-7.931604199111461639404296875</LongitudeDegrees>
            </Position>
            <AltitudeMeters>378.79998779296875</AltitudeMeters>
            <DistanceMeters>368942.06721014</DistanceMeters>
          </Trackpoint>
          <Trackpoint>
            <Time>2018-09-15T09:42:54.000Z</Time>
            <Position>
              <LatitudeDegrees>37.20655948854982852935791015625</LatitudeDegrees>
              <LongitudeDegrees>-7.93153270147740840911865234375</LongitudeDegrees>
            </Position>
            <AltitudeMeters>380.20001220703125</AltitudeMeters>
            <DistanceMeters>368952.10231913</DistanceMeters>
          </Trackpoint>
          <Trackpoint>
            <Time>2018-09-15T09:42:57.000Z</Time>
            <Position>
              <LatitudeDegrees>37.20642521046102046966552734375</LatitudeDegrees>
              <LongitudeDegrees>-7.93124905787408351898193359375</LongitudeDegrees>
            </Position>
            <AltitudeMeters>381</AltitudeMeters>
            <DistanceMeters>368981.35311012</DistanceMeters>
          </Trackpoint>
          <Trackpoint>
            <Time>2018-09-15T09:42:58.000Z</Time>
            <Position>
              <LatitudeDegrees>37.2063979692757129669189453125</LatitudeDegrees>
              <LongitudeDegrees>-7.931140847504138946533203125</LongitudeDegrees>
            </Position>
            <AltitudeMeters>380.399993896484375</AltitudeMeters>
            <DistanceMeters>368991.41338331</DistanceMeters>
          </Trackpoint>
          <Trackpoint>
            <Time>2018-09-15T09:42:59.000Z</Time>
            <Position>
              <LatitudeDegrees>37.20637701451778411865234375</LatitudeDegrees>
              <LongitudeDegrees>-7.931028865277767181396484375</LongitudeDegrees>
            </Position>
            <AltitudeMeters>378.399993896484375</AltitudeMeters>
            <DistanceMeters>369001.6109497</DistanceMeters>
          </Trackpoint>
          <Trackpoint>
            <Time>2018-09-15T09:43:03.000Z</Time>
            <Position>
              <LatitudeDegrees>37.20628741197288036346435546875</LatitudeDegrees>
              <LongitudeDegrees>-7.9305703751742839813232421875</LongitudeDegrees>
            </Position>
            <AltitudeMeters>374.399993896484375</AltitudeMeters>
            <DistanceMeters>369043.46080534</DistanceMeters>
          </Trackpoint>
          <Trackpoint>
            <Time>2018-09-15T09:43:06.000Z</Time>
            <Position>
              <LatitudeDegrees>37.20614072866737842559814453125</LatitudeDegrees>
              <LongitudeDegrees>-7.93026586063206195831298828125</LongitudeDegrees>
            </Position>
            <AltitudeMeters>371.399993896484375</AltitudeMeters>
            <DistanceMeters>369075.00824335</DistanceMeters>
          </Trackpoint>
          <Trackpoint>
            <Time>2018-09-15T09:43:08.000Z</Time>
            <Position>
              <LatitudeDegrees>37.2060063667595386505126953125</LatitudeDegrees>
              <LongitudeDegrees>-7.9300993122160434722900390625</LongitudeDegrees>
            </Position>
            <AltitudeMeters>369.20001220703125</AltitudeMeters>
            <DistanceMeters>369096.0231171</DistanceMeters>
          </Trackpoint>
          <Trackpoint>
            <Time>2018-09-15T09:43:14.000Z</Time>
            <Position>
              <LatitudeDegrees>37.2055493853986263275146484375</LatitudeDegrees>
              <LongitudeDegrees>-7.92957519181072711944580078125</LongitudeDegrees>
            </Position>
            <AltitudeMeters>366.399993896484375</AltitudeMeters>
            <DistanceMeters>369164.91296291</DistanceMeters>
          </Trackpoint>
          <Trackpoint>
            <Time>2018-09-15T09:43:16.000Z</Time>
            <Position>
              <LatitudeDegrees>37.20539960078895092010498046875</LatitudeDegrees>
              <LongitudeDegrees>-7.9293834976851940155029296875</LongitudeDegrees>
            </Position>
            <AltitudeMeters>365.600006103515625</AltitudeMeters>
            <DistanceMeters>369188.71881445</DistanceMeters>
          </Trackpoint>
          <Trackpoint>
            <Time>2018-09-15T09:43:18.000Z</Time>
            <Position>
              <LatitudeDegrees>37.20525509677827358245849609375</LatitudeDegrees>
              <LongitudeDegrees>-7.92918124236166477203369140625</LongitudeDegrees>
            </Position>
            <AltitudeMeters>365.399993896484375</AltitudeMeters>
            <DistanceMeters>369212.80522807</DistanceMeters>
          </Trackpoint>
          <Trackpoint>
            <Time>2018-09-15T09:43:20.000Z</Time>
            <Position>
              <LatitudeDegrees>37.20511662773787975311279296875</LatitudeDegrees>
              <LongitudeDegrees>-7.9289654083549976348876953125</LongitudeDegrees>
            </Position>
            <AltitudeMeters>365.399993896484375</AltitudeMeters>
            <DistanceMeters>369237.37363115</DistanceMeters>
          </Trackpoint>
          <Trackpoint>
            <Time>2018-09-15T09:43:21.000Z</Time>
            <Position>
              <LatitudeDegrees>37.20504932105541229248046875</LatitudeDegrees>
              <LongitudeDegrees>-7.92885753326117992401123046875</LongitudeDegrees>
            </Position>
            <AltitudeMeters>363.20001220703125</AltitudeMeters>
            <DistanceMeters>369249.52182193</DistanceMeters>
          </Trackpoint>
          <Trackpoint>
            <Time>2018-09-15T09:43:24.000Z</Time>
            <Position>
              <LatitudeDegrees>37.20483005046844482421875</LatitudeDegrees>
              <LongitudeDegrees>-7.9285526834428310394287109375</LongitudeDegrees>
            </Position>
            <AltitudeMeters>360.399993896484375</AltitudeMeters>
            <DistanceMeters>369285.93553315</DistanceMeters>
          </Trackpoint>
          <Trackpoint>
            <Time>2018-09-15T09:43:25.000Z</Time>
            <Position>
              <LatitudeDegrees>37.20474313013255596160888671875</LatitudeDegrees>
              <LongitudeDegrees>-7.9284634999930858612060546875</LongitudeDegrees>
            </Position>
            <AltitudeMeters>358.79998779296875</AltitudeMeters>
            <DistanceMeters>369298.42964903</DistanceMeters>
          </Trackpoint>
          <Trackpoint>
            <Time>2018-09-15T09:43:27.000Z</Time>
            <Position>
              <LatitudeDegrees>37.20454028807580471038818359375</LatitudeDegrees>
              <LongitudeDegrees>-7.92832880280911922454833984375</LongitudeDegrees>
            </Position>
            <AltitudeMeters>358.79998779296875</AltitudeMeters>
            <DistanceMeters>369323.96957017</DistanceMeters>
          </Trackpoint>
          <Trackpoint>
            <Time>2018-09-15T09:43:29.000Z</Time>
            <Position>
              <LatitudeDegrees>37.20432252623140811920166015625</LatitudeDegrees>
              <LongitudeDegrees>-7.928228639066219329833984375</LongitudeDegrees>
            </Position>
            <AltitudeMeters>361</AltitudeMeters>
            <DistanceMeters>369349.78222638</DistanceMeters>
          </Trackpoint>
          <Trackpoint>
            <Time>2018-09-15T09:43:32.000Z</Time>
            <Position>
              <LatitudeDegrees>37.2039910219609737396240234375</LatitudeDegrees>
              <LongitudeDegrees>-7.92809310369193553924560546875</LongitudeDegrees>
            </Position>
            <AltitudeMeters>358</AltitudeMeters>
            <DistanceMeters>369388.58641748</DistanceMeters>
          </Trackpoint>
          <Trackpoint>
            <Time>2018-09-15T09:43:36.000Z</Time>
            <Position>
              <LatitudeDegrees>37.2035457752645015716552734375</LatitudeDegrees>
              <LongitudeDegrees>-7.9279136471450328826904296875</LongitudeDegrees>
            </Position>
            <AltitudeMeters>352.600006103515625</AltitudeMeters>
            <DistanceMeters>369440.63425877</DistanceMeters>
          </Trackpoint>
          <Trackpoint>
            <Time>2018-09-15T09:43:37.000Z</Time>
            <Position>
              <LatitudeDegrees>37.20343329012393951416015625</LatitudeDegrees>
              <LongitudeDegrees>-7.92786327190697193145751953125</LongitudeDegrees>
            </Position>
            <AltitudeMeters>351.20001220703125</AltitudeMeters>
            <DistanceMeters>369453.92645481</DistanceMeters>
          </Trackpoint>
          <Trackpoint>
            <Time>2018-09-15T09:43:38.000Z</Time>
            <Position>
              <LatitudeDegrees>37.203320302069187164306640625</LatitudeDegrees>
              <LongitudeDegrees>-7.92781180702149868011474609375</LongitudeDegrees>
            </Position>
            <AltitudeMeters>349.79998779296875</AltitudeMeters>
            <DistanceMeters>369467.30397532</DistanceMeters>
          </Trackpoint>
          <Trackpoint>
            <Time>2018-09-15T09:43:40.000Z</Time>
            <Position>
              <LatitudeDegrees>37.20310010947287082672119140625</LatitudeDegrees>
              <LongitudeDegrees>-7.92772145010530948638916015625</LongitudeDegrees>
            </Position>
            <AltitudeMeters>347.20001220703125</AltitudeMeters>
            <DistanceMeters>369493.08757918</DistanceMeters>
          </Trackpoint>
          <Trackpoint>
            <Time>2018-09-15T09:43:43.000Z</Time>
            <Position>
              <LatitudeDegrees>37.202787883579730987548828125</LatitudeDegrees>
              <LongitudeDegrees>-7.92760142125189304351806640625</LongitudeDegrees>
            </Position>
            <AltitudeMeters>347</AltitudeMeters>
            <DistanceMeters>369529.43141541</DistanceMeters>
          </Trackpoint>
          <Trackpoint>
            <Time>2018-09-15T09:43:45.000Z</Time>
            <Position>
              <LatitudeDegrees>37.20258981920778751373291015625</LatitudeDegrees>
              <LongitudeDegrees>-7.927517853677272796630859375</LongitudeDegrees>
            </Position>
            <AltitudeMeters>347.600006103515625</AltitudeMeters>
            <DistanceMeters>369552.68792974</DistanceMeters>
          </Trackpoint>
          <Trackpoint>
            <Time>2018-09-15T09:43:46.000Z</Time>
            <Position>
              <LatitudeDegrees>37.2024925053119659423828125</LatitudeDegrees>
              <LongitudeDegrees>-7.92747753672301769256591796875</LongitudeDegrees>
            </Position>
            <AltitudeMeters>347.399993896484375</AltitudeMeters>
            <DistanceMeters>369564.09351088</DistanceMeters>
          </Trackpoint>
          <Trackpoint>
            <Time>2018-09-15T09:43:48.000Z</Time>
            <Position>
              <LatitudeDegrees>37.20230198465287685394287109375</LatitudeDegrees>
              <LongitudeDegrees>-7.92739304713904857635498046875</LongitudeDegrees>
            </Position>
            <AltitudeMeters>349.20001220703125</AltitudeMeters>
            <DistanceMeters>369586.58254202</DistanceMeters>
          </Trackpoint>
          <Trackpoint>
            <Time>2018-09-15T09:43:51.000Z</Time>
            <Position>
              <LatitudeDegrees>37.20202772878110408782958984375</LatitudeDegrees>
              <LongitudeDegrees>-7.9272839985787868499755859375</LongitudeDegrees>
            </Position>
            <AltitudeMeters>353.20001220703125</AltitudeMeters>
            <DistanceMeters>369618.6021738</DistanceMeters>
          </Trackpoint>
          <Trackpoint>
            <Time>2018-09-15T09:43:56.000Z</Time>
            <Position>
              <LatitudeDegrees>37.20155649818480014801025390625</LatitudeDegrees>
              <LongitudeDegrees>-7.92709046043455600738525390625</LongitudeDegrees>
            </Position>
            <AltitudeMeters>352</AltitudeMeters>
            <DistanceMeters>369673.78627404</DistanceMeters>
          </Trackpoint>
          <Trackpoint>
            <Time>2018-09-15T09:44:00.000Z</Time>
            <Position>
              <LatitudeDegrees>37.201171182096004486083984375</LatitudeDegrees>
              <LongitudeDegrees>-7.926911003887653350830078125</LongitudeDegrees>
            </Position>
            <AltitudeMeters>351.79998779296875</AltitudeMeters>
            <DistanceMeters>369719.52858501</DistanceMeters>
          </Trackpoint>
          <Trackpoint>
            <Time>2018-09-15T09:44:03.000Z</Time>
            <Position>
              <LatitudeDegrees>37.2009215690195560455322265625</LatitudeDegrees>
              <LongitudeDegrees>-7.9266647435724735260009765625</LongitudeDegrees>
            </Position>
            <AltitudeMeters>351.79998779296875</AltitudeMeters>
            <DistanceMeters>369754.86268142</DistanceMeters>
          </Trackpoint>
          <Trackpoint>
            <Time>2018-09-15T09:44:05.000Z</Time>
            <Position>
              <LatitudeDegrees>37.200773544609546661376953125</LatitudeDegrees>
              <LongitudeDegrees>-7.926470451056957244873046875</LongitudeDegrees>
            </Position>
            <AltitudeMeters>349.399993896484375</AltitudeMeters>
            <DistanceMeters>369778.69848054</DistanceMeters>
          </Trackpoint>
          <Trackpoint>
            <Time>2018-09-15T09:44:07.000Z</Time>
            <Position>
              <LatitudeDegrees>37.20062904059886932373046875</LatitudeDegrees>
              <LongitudeDegrees>-7.92627037502825260162353515625</LongitudeDegrees>
            </Position>
            <AltitudeMeters>346.79998779296875</AltitudeMeters>
            <DistanceMeters>369802.64238422</DistanceMeters>
          </Trackpoint>
          <Trackpoint>
            <Time>2018-09-15T09:44:09.000Z</Time>
            <Position>
              <LatitudeDegrees>37.20048554241657257080078125</LatitudeDegrees>
              <LongitudeDegrees>-7.92607448995113372802734375</LongitudeDegrees>
            </Position>
            <AltitudeMeters>346</AltitudeMeters>
            <DistanceMeters>369826.23658165</DistanceMeters>
          </Trackpoint>
          <Trackpoint>
            <Time>2018-09-15T09:44:11.000Z</Time>
            <Position>
              <LatitudeDegrees>37.2003536112606525421142578125</LatitudeDegrees>
              <LongitudeDegrees>-7.92587391100823879241943359375</LongitudeDegrees>
            </Position>
            <AltitudeMeters>347.79998779296875</AltitudeMeters>
            <DistanceMeters>369849.29813802</DistanceMeters>
          </Trackpoint>
          <Trackpoint>
            <Time>2018-09-15T09:44:14.000Z</Time>
            <Position>
              <LatitudeDegrees>37.2002013958990573883056640625</LatitudeDegrees>
              <LongitudeDegrees>-7.92555640451610088348388671875</LongitudeDegrees>
            </Position>
            <AltitudeMeters>351.79998779296875</AltitudeMeters>
            <DistanceMeters>369882.15182941</DistanceMeters>
          </Trackpoint>
          <Trackpoint>
            <Time>2018-09-15T09:44:20.000Z</Time>
            <Position>
              <LatitudeDegrees>37.1999881602823734283447265625</LatitudeDegrees>
              <LongitudeDegrees>-7.92491175234317779541015625</LongitudeDegrees>
            </Position>
            <AltitudeMeters>353.600006103515625</AltitudeMeters>
            <DistanceMeters>369944.03560143</DistanceMeters>
          </Trackpoint>
          <Trackpoint>
            <Time>2018-09-15T09:44:26.000Z</Time>
            <Position>
              <LatitudeDegrees>37.19980233348906040191650390625</LatitudeDegrees>
              <LongitudeDegrees>-7.92428679764270782470703125</LongitudeDegrees>
            </Position>
            <AltitudeMeters>352.399993896484375</AltitudeMeters>
            <DistanceMeters>370003.17597164</DistanceMeters>
          </Trackpoint>
          <Trackpoint>
            <Time>2018-09-15T09:44:31.000Z</Time>
            <Position>
              <LatitudeDegrees>37.19964827410876750946044921875</LatitudeDegrees>
              <LongitudeDegrees>-7.92377457953989505767822265625</LongitudeDegrees>
            </Position>
            <AltitudeMeters>352.600006103515625</AltitudeMeters>
            <DistanceMeters>370051.71648797</DistanceMeters>
          </Trackpoint>
          <Trackpoint>
            <Time>2018-09-15T09:44:38.000Z</Time>
            <Position>
              <LatitudeDegrees>37.19939656555652618408203125</LatitudeDegrees>
              <LongitudeDegrees>-7.92308458127081394195556640625</LongitudeDegrees>
            </Position>
            <AltitudeMeters>352.399993896484375</AltitudeMeters>
            <DistanceMeters>370118.99902555</DistanceMeters>
          </Trackpoint>
          <Trackpoint>
            <Time>2018-09-15T09:44:44.000Z</Time>
            <Position>
              <LatitudeDegrees>37.19909942708909511566162109375</LatitudeDegrees>
              <LongitudeDegrees>-7.92261888273060321807861328125</LongitudeDegrees>
            </Position>
            <AltitudeMeters>347.20001220703125</AltitudeMeters>
            <DistanceMeters>370171.89878519</DistanceMeters>
          </Trackpoint>
          <Trackpoint>
            <Time>2018-09-15T09:44:50.000Z</Time>
            <Position>
              <LatitudeDegrees>37.19883673824369907379150390625</LatitudeDegrees>
              <LongitudeDegrees>-7.922263406217098236083984375</LongitudeDegrees>
            </Position>
            <AltitudeMeters>347</AltitudeMeters>
            <DistanceMeters>370214.88784571</DistanceMeters>
          </Trackpoint>
          <Trackpoint>
            <Time>2018-09-15T09:44:55.000Z</Time>
            <Position>
              <LatitudeDegrees>37.19863607548177242279052734375</LatitudeDegrees>
              <LongitudeDegrees>-7.9220107756555080413818359375</LongitudeDegrees>
            </Position>
            <AltitudeMeters>346.399993896484375</AltitudeMeters>
            <DistanceMeters>370246.51789834</DistanceMeters>
          </Trackpoint>
          <Trackpoint>
            <Time>2018-09-15T09:44:57.000Z</Time>
            <Position>
              <LatitudeDegrees>37.19855309464037418365478515625</LatitudeDegrees>
              <LongitudeDegrees>-7.921935506165027618408203125</LongitudeDegrees>
            </Position>
            <AltitudeMeters>346.20001220703125</AltitudeMeters>
            <DistanceMeters>370257.91238995</DistanceMeters>
          </Trackpoint>
          <Trackpoint>
            <Time>2018-09-15T09:44:59.000Z</Time>
            <Position>
              <LatitudeDegrees>37.1984650008380413055419921875</LatitudeDegrees>
              <LongitudeDegrees>-7.9218934290111064910888671875</LongitudeDegrees>
            </Position>
            <AltitudeMeters>346.399993896484375</AltitudeMeters>
            <DistanceMeters>370268.40327036</DistanceMeters>
          </Trackpoint>
          <Trackpoint>
            <Time>2018-09-15T09:45:00.000Z</Time>
            <Position>
              <LatitudeDegrees>37.19842267222702503204345703125</LatitudeDegrees>
              <LongitudeDegrees>-7.92188211344182491302490234375</LongitudeDegrees>
            </Position>
            <AltitudeMeters>346.79998779296875</AltitudeMeters>
            <DistanceMeters>370273.22066556</DistanceMeters>
          </Trackpoint>
          <Trackpoint>
            <Time>2018-09-15T09:45:01.000Z</Time>
            <Position>
              <LatitudeDegrees>37.19838310964405536651611328125</LatitudeDegrees>
              <LongitudeDegrees>-7.9218756593763828277587890625</LongitudeDegrees>
            </Position>
            <AltitudeMeters>347</AltitudeMeters>
            <DistanceMeters>370277.66157616</DistanceMeters>
          </Trackpoint>
          <Trackpoint>
            <Time>2018-09-15T09:45:03.000Z</Time>
            <Position>
              <LatitudeDegrees>37.19830884598195552825927734375</LatitudeDegrees>
              <LongitudeDegrees>-7.92187071405351161956787109375</LongitudeDegrees>
            </Position>
            <AltitudeMeters>347.79998779296875</AltitudeMeters>
            <DistanceMeters>370285.93927028</DistanceMeters>
          </Trackpoint>
          <Trackpoint>
            <Time>2018-09-15T09:45:07.000Z</Time>
            <Position>
              <LatitudeDegrees>37.198146320879459381103515625</LatitudeDegrees>
              <LongitudeDegrees>-7.9218558780848979949951171875</LongitudeDegrees>
            </Position>
            <AltitudeMeters>350.20001220703125</AltitudeMeters>
            <DistanceMeters>370304.07668148</DistanceMeters>
          </Trackpoint>
          <Trackpoint>
            <Time>2018-09-15T09:45:10.000Z</Time>
            <Position>
              <LatitudeDegrees>37.1980123780667781829833984375</LatitudeDegrees>
              <LongitudeDegrees>-7.921849004924297332763671875</LongitudeDegrees>
            </Position>
            <AltitudeMeters>351.600006103515625</AltitudeMeters>
            <DistanceMeters>370318.99738872</DistanceMeters>
          </Trackpoint>
          <Trackpoint>
            <Time>2018-09-15T09:45:16.000Z</Time>
            <Position>
              <LatitudeDegrees>37.19775731675326824188232421875</LatitudeDegrees>
              <LongitudeDegrees>-7.92181975208222866058349609375</LongitudeDegrees>
            </Position>
            <AltitudeMeters>354.20001220703125</AltitudeMeters>
            <DistanceMeters>370347.50445275</DistanceMeters>
          </Trackpoint>
          <Trackpoint>
            <Time>2018-09-15T09:45:20.000Z</Time>
            <Position>
              <LatitudeDegrees>37.19759135507047176361083984375</LatitudeDegrees>
              <LongitudeDegrees>-7.9217925108969211578369140625</LongitudeDegrees>
            </Position>
            <AltitudeMeters>355.600006103515625</AltitudeMeters>
            <DistanceMeters>370366.133567</DistanceMeters>
          </Trackpoint>
          <Trackpoint>
            <Time>2018-09-15T09:45:24.000Z</Time>
            <Position>
              <LatitudeDegrees>37.19742824323475360870361328125</LatitudeDegrees>
              <LongitudeDegrees>-7.92177398689091205596923828125</LongitudeDegrees>
            </Position>
            <AltitudeMeters>356.79998779296875</AltitudeMeters>
            <DistanceMeters>370384.3628515</DistanceMeters>
          </Trackpoint>
          <Trackpoint>
            <Time>2018-09-15T09:45:29.000Z</Time>
            <Position>
              <LatitudeDegrees>37.19723177142441272735595703125</LatitudeDegrees>
              <LongitudeDegrees>-7.92174917645752429962158203125</LongitudeDegrees>
            </Position>
            <AltitudeMeters>360</AltitudeMeters>
            <DistanceMeters>370406.3409508</DistanceMeters>
          </Trackpoint>
          <Trackpoint>
            <Time>2018-09-15T09:45:34.000Z</Time>
            <Position>
              <LatitudeDegrees>37.19705055467784404754638671875</LatitudeDegrees>
              <LongitudeDegrees>-7.92167658917605876922607421875</LongitudeDegrees>
            </Position>
            <AltitudeMeters>363.20001220703125</AltitudeMeters>
            <DistanceMeters>370427.51251037</DistanceMeters>
          </Trackpoint>
          <Trackpoint>
            <Time>2018-09-15T09:45:35.000Z</Time>
            <Position>
              <LatitudeDegrees>37.1970179490745067596435546875</LatitudeDegrees>
              <LongitudeDegrees>-7.921647839248180389404296875</LongitudeDegrees>
            </Position>
            <AltitudeMeters>363.79998779296875</AltitudeMeters>
            <DistanceMeters>370431.94731662</DistanceMeters>
          </Trackpoint>
          <Trackpoint>
            <Time>2018-09-15T09:45:39.000Z</Time>
            <Position>
              <LatitudeDegrees>37.196917869150638580322265625</LatitudeDegrees>
              <LongitudeDegrees>-7.921497635543346405029296875</LongitudeDegrees>
            </Position>
            <AltitudeMeters>365.600006103515625</AltitudeMeters>
            <DistanceMeters>370449.30888198</DistanceMeters>
          </Trackpoint>
          <Trackpoint>
            <Time>2018-09-15T09:45:46.000Z</Time>
            <Position>
              <LatitudeDegrees>37.196868248283863067626953125</LatitudeDegrees>
              <LongitudeDegrees>-7.92118574492633342742919921875</LongitudeDegrees>
            </Position>
            <AltitudeMeters>365.399993896484375</AltitudeMeters>
            <DistanceMeters>370477.50700871</DistanceMeters>
          </Trackpoint>
          <Trackpoint>
            <Time>2018-09-15T09:45:51.000Z</Time>
            <Position>
              <LatitudeDegrees>37.196884341537952423095703125</LatitudeDegrees>
              <LongitudeDegrees>-7.92090847156941890716552734375</LongitudeDegrees>
            </Position>
            <AltitudeMeters>364.20001220703125</AltitudeMeters>
            <DistanceMeters>370502.15467438</DistanceMeters>
          </Trackpoint>
          <Trackpoint>
            <Time>2018-09-15T09:45:52.000Z</Time>
            <Position>
              <LatitudeDegrees>37.19688476063311100006103515625</LatitudeDegrees>
              <LongitudeDegrees>-7.920848540961742401123046875</LongitudeDegrees>
            </Position>
            <AltitudeMeters>364.600006103515625</AltitudeMeters>
            <DistanceMeters>370507.46767908</DistanceMeters>
          </Trackpoint>
          <Trackpoint>
            <Time>2018-09-15T09:45:57.000Z</Time>
            <Position>
              <LatitudeDegrees>37.19676322303712368011474609375</LatitudeDegrees>
              <LongitudeDegrees>-7.9206029511988162994384765625</LongitudeDegrees>
            </Position>
            <AltitudeMeters>366</AltitudeMeters>
            <DistanceMeters>370533.10147655</DistanceMeters>
          </Trackpoint>
          <Trackpoint>
            <Time>2018-09-15T09:46:03.000Z</Time>
            <Position>
              <LatitudeDegrees>37.196459881961345672607421875</LatitudeDegrees>
              <LongitudeDegrees>-7.9206220619380474090576171875</LongitudeDegrees>
            </Position>
            <AltitudeMeters>365.20001220703125</AltitudeMeters>
            <DistanceMeters>370566.90642048</DistanceMeters>
          </Trackpoint>
          <Trackpoint>
            <Time>2018-09-15T09:46:10.000Z</Time>
            <Position>
              <LatitudeDegrees>37.196103148162364959716796875</LatitudeDegrees>
              <LongitudeDegrees>-7.92080302722752094268798828125</LongitudeDegrees>
            </Position>
            <AltitudeMeters>366</AltitudeMeters>
            <DistanceMeters>370609.73069193</DistanceMeters>
          </Trackpoint>
          <Trackpoint>
            <Time>2018-09-15T09:46:19.000Z</Time>
            <Position>
              <LatitudeDegrees>37.1956208534538745880126953125</LatitudeDegrees>
              <LongitudeDegrees>-7.92113545350730419158935546875</LongitudeDegrees>
            </Position>
            <AltitudeMeters>369.399993896484375</AltitudeMeters>
            <DistanceMeters>370670.96986156</DistanceMeters>
          </Trackpoint>
          <Trackpoint>
            <Time>2018-09-15T09:46:21.000Z</Time>
            <Position>
              <LatitudeDegrees>37.19553544186055660247802734375</LatitudeDegrees>
              <LongitudeDegrees>-7.92124944739043712615966796875</LongitudeDegrees>
            </Position>
            <AltitudeMeters>371</AltitudeMeters>
            <DistanceMeters>370684.84506354</DistanceMeters>
          </Trackpoint>
          <Trackpoint>
            <Time>2018-09-15T09:46:25.000Z</Time>
            <Position>
              <LatitudeDegrees>37.1953613497316837310791015625</LatitudeDegrees>
              <LongitudeDegrees>-7.921462766826152801513671875</LongitudeDegrees>
            </Position>
            <AltitudeMeters>373.79998779296875</AltitudeMeters>
            <DistanceMeters>370711.92184153</DistanceMeters>
          </Trackpoint>
          <Trackpoint>
            <Time>2018-09-15T09:46:29.000Z</Time>
            <Position>
              <LatitudeDegrees>37.19512942247092723846435546875</LatitudeDegrees>
              <LongitudeDegrees>-7.92153292335569858551025390625</LongitudeDegrees>
            </Position>
            <AltitudeMeters>372.79998779296875</AltitudeMeters>
            <DistanceMeters>370738.47462497</DistanceMeters>
          </Trackpoint>
          <Trackpoint>
            <Time>2018-09-15T09:46:38.000Z</Time>
            <Position>
              <LatitudeDegrees>37.19483572058379650115966796875</LatitudeDegrees>
              <LongitudeDegrees>-7.92096982710063457489013671875</LongitudeDegrees>
            </Position>
            <AltitudeMeters>369.20001220703125</AltitudeMeters>
            <DistanceMeters>370798.14958577</DistanceMeters>
          </Trackpoint>
          <Trackpoint>
            <Time>2018-09-15T09:46:39.000Z</Time>
            <Position>
              <LatitudeDegrees>37.19482029788196086883544921875</LatitudeDegrees>
              <LongitudeDegrees>-7.920892126858234405517578125</LongitudeDegrees>
            </Position>
            <AltitudeMeters>369.600006103515625</AltitudeMeters>
            <DistanceMeters>370805.2492961</DistanceMeters>
          </Trackpoint>
          <Trackpoint>
            <Time>2018-09-15T09:46:48.000Z</Time>
            <Position>
              <LatitudeDegrees>37.1946941502392292022705078125</LatitudeDegrees>
              <LongitudeDegrees>-7.92021512053906917572021484375</LongitudeDegrees>
            </Position>
            <AltitudeMeters>370.20001220703125</AltitudeMeters>
            <DistanceMeters>370866.89395409</DistanceMeters>
          </Trackpoint>
          <Trackpoint>
            <Time>2018-09-15T09:46:51.000Z</Time>
            <Position>
              <LatitudeDegrees>37.19464092515408992767333984375</LatitudeDegrees>
              <LongitudeDegrees>-7.9199991188943386077880859375</LongitudeDegrees>
            </Position>
            <AltitudeMeters>370.600006103515625</AltitudeMeters>
            <DistanceMeters>370886.94031191</DistanceMeters>
          </Trackpoint>
          <Trackpoint>
            <Time>2018-09-15T09:46:55.000Z</Time>
            <Position>
              <LatitudeDegrees>37.19455308280885219573974609375</LatitudeDegrees>
              <LongitudeDegrees>-7.91972561739385128021240234375</LongitudeDegrees>
            </Position>
            <AltitudeMeters>371</AltitudeMeters>
            <DistanceMeters>370913.0863041</DistanceMeters>
          </Trackpoint>
          <Trackpoint>
            <Time>2018-09-15T09:47:02.000Z</Time>
            <Position>
              <LatitudeDegrees>37.19436474144458770751953125</LatitudeDegrees>
              <LongitudeDegrees>-7.91925572790205478668212890625</LongitudeDegrees>
            </Position>
            <AltitudeMeters>368.600006103515625</AltitudeMeters>
            <DistanceMeters>370959.72419184</DistanceMeters>
          </Trackpoint>
          <Trackpoint>
            <Time>2018-09-15T09:47:11.000Z</Time>
            <Position>
              <LatitudeDegrees>37.1940725483000278472900390625</LatitudeDegrees>
              <LongitudeDegrees>-7.91861266829073429107666015625</LongitudeDegrees>
            </Position>
            <AltitudeMeters>370.600006103515625</AltitudeMeters>
            <DistanceMeters>371025.36227402</DistanceMeters>
          </Trackpoint>
          <Trackpoint>
            <Time>2018-09-15T09:47:15.000Z</Time>
            <Position>
              <LatitudeDegrees>37.1938328258693218231201171875</LatitudeDegrees>
              <LongitudeDegrees>-7.9184000194072723388671875</LongitudeDegrees>
            </Position>
            <AltitudeMeters>367.20001220703125</AltitudeMeters>
            <DistanceMeters>371058.03308861</DistanceMeters>
          </Trackpoint>
          <Trackpoint>
            <Time>2018-09-15T09:47:18.000Z</Time>
            <Position>
              <LatitudeDegrees>37.19360567629337310791015625</LatitudeDegrees>
              <LongitudeDegrees>-7.91851242072880268096923828125</LongitudeDegrees>
            </Position>
            <AltitudeMeters>365.79998779296875</AltitudeMeters>
            <DistanceMeters>371085.20840299</DistanceMeters>
          </Trackpoint>
          <Trackpoint>
            <Time>2018-09-15T09:47:20.000Z</Time>
            <Position>
              <LatitudeDegrees>37.19349076040089130401611328125</LatitudeDegrees>
              <LongitudeDegrees>-7.91870587505400180816650390625</LongitudeDegrees>
            </Position>
            <AltitudeMeters>366.20001220703125</AltitudeMeters>
            <DistanceMeters>371106.6046126</DistanceMeters>
          </Trackpoint>
          <Trackpoint>
            <Time>2018-09-15T09:47:22.000Z</Time>
            <Position>
              <LatitudeDegrees>37.1933755092322826385498046875</LatitudeDegrees>
              <LongitudeDegrees>-7.91891542263329029083251953125</LongitudeDegrees>
            </Position>
            <AltitudeMeters>366.600006103515625</AltitudeMeters>
            <DistanceMeters>371129.18200804</DistanceMeters>
          </Trackpoint>
          <Trackpoint>
            <Time>2018-09-15T09:47:24.000Z</Time>
            <Position>
              <LatitudeDegrees>37.1932603418827056884765625</LatitudeDegrees>
              <LongitudeDegrees>-7.91913100518286228179931640625</LongitudeDegrees>
            </Position>
            <AltitudeMeters>366.600006103515625</AltitudeMeters>
            <DistanceMeters>371152.19652876</DistanceMeters>
          </Trackpoint>
          <Trackpoint>
            <Time>2018-09-15T09:47:26.000Z</Time>
            <Position>
              <LatitudeDegrees>37.19314274378120899200439453125</LatitudeDegrees>
              <LongitudeDegrees>-7.9193548858165740966796875</LongitudeDegrees>
            </Position>
            <AltitudeMeters>366.79998779296875</AltitudeMeters>
            <DistanceMeters>371175.97372427</DistanceMeters>
          </Trackpoint>
          <Trackpoint>
            <Time>2018-09-15T09:47:27.000Z</Time>
            <Position>
              <LatitudeDegrees>37.19308105297386646270751953125</LatitudeDegrees>
              <LongitudeDegrees>-7.91947047226130962371826171875</LongitudeDegrees>
            </Position>
            <AltitudeMeters>367.600006103515625</AltitudeMeters>
            <DistanceMeters>371188.30964127</DistanceMeters>
          </Trackpoint>
          <Trackpoint>
            <Time>2018-09-15T09:47:28.000Z</Time>
            <Position>
              <LatitudeDegrees>37.19302288256585597991943359375</LatitudeDegrees>
              <LongitudeDegrees>-7.91958312503993511199951171875</LongitudeDegrees>
            </Position>
            <AltitudeMeters>368.399993896484375</AltitudeMeters>
            <DistanceMeters>371200.21266187</DistanceMeters>
          </Trackpoint>
          <Trackpoint>
            <Time>2018-09-15T09:47:30.000Z</Time>
            <Position>
              <LatitudeDegrees>37.19290285371243953704833984375</LatitudeDegrees>
              <LongitudeDegrees>-7.91980809532105922698974609375</LongitudeDegrees>
            </Position>
            <AltitudeMeters>369.79998779296875</AltitudeMeters>
            <DistanceMeters>371224.22002863</DistanceMeters>
          </Trackpoint>
          <Trackpoint>
            <Time>2018-09-15T09:47:31.000Z</Time>
            <Position>
              <LatitudeDegrees>37.1928296796977519989013671875</LatitudeDegrees>
              <LongitudeDegrees>-7.9199149645864963531494140625</LongitudeDegrees>
            </Position>
            <AltitudeMeters>370.20001220703125</AltitudeMeters>
            <DistanceMeters>371236.71486723</DistanceMeters>
          </Trackpoint>
          <Trackpoint>
            <Time>2018-09-15T09:47:33.000Z</Time>
            <Position>
              <LatitudeDegrees>37.1926529891788959503173828125</LatitudeDegrees>
              <LongitudeDegrees>-7.92007983662188053131103515625</LongitudeDegrees>
            </Position>
            <AltitudeMeters>369.20001220703125</AltitudeMeters>
            <DistanceMeters>371261.21886493</DistanceMeters>
          </Trackpoint>
          <Trackpoint>
            <Time>2018-09-15T09:47:35.000Z</Time>
            <Position>
              <LatitudeDegrees>37.192435227334499359130859375</LatitudeDegrees>
              <LongitudeDegrees>-7.92015192098915576934814453125</LongitudeDegrees>
            </Position>
            <AltitudeMeters>365.79998779296875</AltitudeMeters>
            <DistanceMeters>371286.28467149</DistanceMeters>
          </Trackpoint>
          <Trackpoint>
            <Time>2018-09-15T09:47:37.000Z</Time>
            <Position>
              <LatitudeDegrees>37.19221134670078754425048828125</LatitudeDegrees>
              <LongitudeDegrees>-7.9200665093958377838134765625</LongitudeDegrees>
            </Position>
            <AltitudeMeters>365.600006103515625</AltitudeMeters>
            <DistanceMeters>371312.32823311</DistanceMeters>
          </Trackpoint>
          <Trackpoint>
            <Time>2018-09-15T09:47:39.000Z</Time>
            <Position>
              <LatitudeDegrees>37.192022167146205902099609375</LatitudeDegrees>
              <LongitudeDegrees>-7.91988671757280826568603515625</LongitudeDegrees>
            </Position>
            <AltitudeMeters>363</AltitudeMeters>
            <DistanceMeters>371338.73813854</DistanceMeters>
          </Trackpoint>
          <Trackpoint>
            <Time>2018-09-15T09:47:40.000Z</Time>
            <Position>
              <LatitudeDegrees>37.19194429926574230194091796875</LatitudeDegrees>
              <LongitudeDegrees>-7.9197687841951847076416015625</LongitudeDegrees>
            </Position>
            <AltitudeMeters>360.79998779296875</AltitudeMeters>
            <DistanceMeters>371352.31931454</DistanceMeters>
          </Trackpoint>
          <Trackpoint>
            <Time>2018-09-15T09:47:41.000Z</Time>
            <Position>
              <LatitudeDegrees>37.191875986754894256591796875</LatitudeDegrees>
              <LongitudeDegrees>-7.91964632458984851837158203125</LongitudeDegrees>
            </Position>
            <AltitudeMeters>358.79998779296875</AltitudeMeters>
            <DistanceMeters>371365.57477482</DistanceMeters>
          </Trackpoint>
          <Trackpoint>
            <Time>2018-09-15T09:47:42.000Z</Time>
            <Position>
              <LatitudeDegrees>37.1918104402720928192138671875</LatitudeDegrees>
              <LongitudeDegrees>-7.91952093131840229034423828125</LongitudeDegrees>
            </Position>
            <AltitudeMeters>357</AltitudeMeters>
            <DistanceMeters>371378.8727441</DistanceMeters>
          </Trackpoint>
          <Trackpoint>
            <Time>2018-09-15T09:47:43.000Z</Time>
            <Position>
              <LatitudeDegrees>37.191738523542881011962890625</LatitudeDegrees>
              <LongitudeDegrees>-7.91939989663660526275634765625</LongitudeDegrees>
            </Position>
            <AltitudeMeters>355.20001220703125</AltitudeMeters>
            <DistanceMeters>371392.26072332</DistanceMeters>
          </Trackpoint>
          <Trackpoint>
            <Time>2018-09-15T09:47:47.000Z</Time>
            <Position>
              <LatitudeDegrees>37.19133476726710796356201171875</LatitudeDegrees>
              <LongitudeDegrees>-7.91906445287168025970458984375</LongitudeDegrees>
            </Position>
            <AltitudeMeters>348.399993896484375</AltitudeMeters>
            <DistanceMeters>371446.15050625</DistanceMeters>
          </Trackpoint>
          <Trackpoint>
            <Time>2018-09-15T09:47:49.000Z</Time>
            <Position>
              <LatitudeDegrees>37.1911127306520938873291015625</LatitudeDegrees>
              <LongitudeDegrees>-7.9189406521618366241455078125</LongitudeDegrees>
            </Position>
            <AltitudeMeters>345.20001220703125</AltitudeMeters>
            <DistanceMeters>371473.19174328</DistanceMeters>
          </Trackpoint>
          <Trackpoint>
            <Time>2018-09-15T09:47:50.000Z</Time>
            <Position>
              <LatitudeDegrees>37.1909990720450878143310546875</LatitudeDegrees>
              <LongitudeDegrees>-7.918886840343475341796875</LongitudeDegrees>
            </Position>
            <AltitudeMeters>343.399993896484375</AltitudeMeters>
            <DistanceMeters>371486.71227831</DistanceMeters>
          </Trackpoint>
          <Trackpoint>
            <Time>2018-09-15T09:47:51.000Z</Time>
            <Position>
              <LatitudeDegrees>37.19088130630552768707275390625</LatitudeDegrees>
              <LongitudeDegrees>-7.91884836740791797637939453125</LongitudeDegrees>
            </Position>
            <AltitudeMeters>341.79998779296875</AltitudeMeters>
            <DistanceMeters>371500.25683563</DistanceMeters>
          </Trackpoint>
          <Trackpoint>
            <Time>2018-09-15T09:47:52.000Z</Time>
            <Position>
              <LatitudeDegrees>37.19076043926179409027099609375</LatitudeDegrees>
              <LongitudeDegrees>-7.91882607154548168182373046875</LongitudeDegrees>
            </Position>
            <AltitudeMeters>340.399993896484375</AltitudeMeters>
            <DistanceMeters>371513.85395978</DistanceMeters>
          </Trackpoint>
          <Trackpoint>
            <Time>2018-09-15T09:47:53.000Z</Time>
            <Position>
              <LatitudeDegrees>37.1906379796564579010009765625</LatitudeDegrees>
              <LongitudeDegrees>-7.91881785728037357330322265625</LongitudeDegrees>
            </Position>
            <AltitudeMeters>339</AltitudeMeters>
            <DistanceMeters>371527.50344831</DistanceMeters>
          </Trackpoint>
          <Trackpoint>
            <Time>2018-09-15T09:47:55.000Z</Time>
            <Position>
              <LatitudeDegrees>37.19039716757833957672119140625</LatitudeDegrees>
              <LongitudeDegrees>-7.91882053948938846588134765625</LongitudeDegrees>
            </Position>
            <AltitudeMeters>336.399993896484375</AltitudeMeters>
            <DistanceMeters>371554.30738351</DistanceMeters>
          </Trackpoint>
          <Trackpoint>
            <Time>2018-09-15T09:47:58.000Z</Time>
            <Position>
              <LatitudeDegrees>37.19005300663411617279052734375</LatitudeDegrees>
              <LongitudeDegrees>-7.91883814148604869842529296875</LongitudeDegrees>
            </Position>
            <AltitudeMeters>336.600006103515625</AltitudeMeters>
            <DistanceMeters>371592.64498075</DistanceMeters>
          </Trackpoint>
          <Trackpoint>
            <Time>2018-09-15T09:48:00.000Z</Time>
            <Position>
              <LatitudeDegrees>37.189839519560337066650390625</LatitudeDegrees>
              <LongitudeDegrees>-7.9188404045999050140380859375</LongitudeDegrees>
            </Position>
            <AltitudeMeters>339.600006103515625</AltitudeMeters>
            <DistanceMeters>371616.40736027</DistanceMeters>
          </Trackpoint>
          <Trackpoint>
            <Time>2018-09-15T09:48:01.000Z</Time>
            <Position>
              <LatitudeDegrees>37.1897359192371368408203125</LatitudeDegrees>
              <LongitudeDegrees>-7.91883344762027263641357421875</LongitudeDegrees>
            </Position>
            <AltitudeMeters>342.20001220703125</AltitudeMeters>
            <DistanceMeters>371627.95457243</DistanceMeters>
          </Trackpoint>
          <Trackpoint>
            <Time>2018-09-15T09:48:02.000Z</Time>
            <Position>
              <LatitudeDegrees>37.18963659368455410003662109375</LatitudeDegrees>
              <LongitudeDegrees>-7.91880972683429718017578125</LongitudeDegrees>
            </Position>
            <AltitudeMeters>344.600006103515625</AltitudeMeters>
            <DistanceMeters>371639.20791825</DistanceMeters>
          </Trackpoint>
          <Trackpoint>
            <Time>2018-09-15T09:48:04.000Z</Time>
            <Position>
              <LatitudeDegrees>37.18947532586753368377685546875</LatitudeDegrees>
              <LongitudeDegrees>-7.91869145818054676055908203125</LongitudeDegrees>
            </Position>
            <AltitudeMeters>347</AltitudeMeters>
            <DistanceMeters>371659.99619303</DistanceMeters>
          </Trackpoint>
          <Trackpoint>
            <Time>2018-09-15T09:48:06.000Z</Time>
            <Position>
              <LatitudeDegrees>37.1893689595162868499755859375</LatitudeDegrees>
              <LongitudeDegrees>-7.918525747954845428466796875</LongitudeDegrees>
            </Position>
            <AltitudeMeters>347</AltitudeMeters>
            <DistanceMeters>371678.86563696</DistanceMeters>
          </Trackpoint>
          <Trackpoint>
            <Time>2018-09-15T09:48:08.000Z</Time>
            <Position>
              <LatitudeDegrees>37.18928304500877857208251953125</LatitudeDegrees>
              <LongitudeDegrees>-7.91835752315819263458251953125</LongitudeDegrees>
            </Position>
            <AltitudeMeters>346.399993896484375</AltitudeMeters>
            <DistanceMeters>371696.5839788</DistanceMeters>
          </Trackpoint>
          <Trackpoint>
            <Time>2018-09-15T09:48:12.000Z</Time>
            <Position>
              <LatitudeDegrees>37.18914675526320934295654296875</LatitudeDegrees>
              <LongitudeDegrees>-7.91806583292782306671142578125</LongitudeDegrees>
            </Position>
            <AltitudeMeters>344</AltitudeMeters>
            <DistanceMeters>371726.56773074</DistanceMeters>
          </Trackpoint>
          <Trackpoint>
            <Time>2018-09-15T09:48:13.000Z</Time>
            <Position>
              <LatitudeDegrees>37.18911171890795230865478515625</LatitudeDegrees>
              <LongitudeDegrees>-7.91800296865403652191162109375</LongitudeDegrees>
            </Position>
            <AltitudeMeters>343.399993896484375</AltitudeMeters>
            <DistanceMeters>371733.37060821</DistanceMeters>
          </Trackpoint>
          <Trackpoint>
            <Time>2018-09-15T09:48:15.000Z</Time>
            <Position>
              <LatitudeDegrees>37.18902756460011005401611328125</LatitudeDegrees>
              <LongitudeDegrees>-7.91790758259594440460205078125</LongitudeDegrees>
            </Position>
            <AltitudeMeters>344.79998779296875</AltitudeMeters>
            <DistanceMeters>371745.99092866</DistanceMeters>
          </Trackpoint>
          <Trackpoint>
            <Time>2018-09-15T09:48:17.000Z</Time>
            <Position>
              <LatitudeDegrees>37.18893452547490596771240234375</LatitudeDegrees>
              <LongitudeDegrees>-7.917827032506465911865234375</LongitudeDegrees>
            </Position>
            <AltitudeMeters>346.600006103515625</AltitudeMeters>
            <DistanceMeters>371758.57039842</DistanceMeters>
          </Trackpoint>
          <Trackpoint>
            <Time>2018-09-15T09:48:19.000Z</Time>
            <Position>
              <LatitudeDegrees>37.1888432465493679046630859375</LatitudeDegrees>
              <LongitudeDegrees>-7.917754948139190673828125</LongitudeDegrees>
            </Position>
            <AltitudeMeters>347.79998779296875</AltitudeMeters>
            <DistanceMeters>371770.57314143</DistanceMeters>
          </Trackpoint>
          <Trackpoint>
            <Time>2018-09-15T09:48:21.000Z</Time>
            <Position>
              <LatitudeDegrees>37.18875892460346221923828125</LatitudeDegrees>
              <LongitudeDegrees>-7.91768881492316722869873046875</LongitudeDegrees>
            </Position>
            <AltitudeMeters>348</AltitudeMeters>
            <DistanceMeters>371781.6395725</DistanceMeters>
          </Trackpoint>
          <Trackpoint>
            <Time>2018-09-15T09:48:22.000Z</Time>
            <Position>
              <LatitudeDegrees>37.18871626071631908416748046875</LatitudeDegrees>
              <LongitudeDegrees>-7.9176588915288448333740234375</LongitudeDegrees>
            </Position>
            <AltitudeMeters>348.20001220703125</AltitudeMeters>
            <DistanceMeters>371787.07855498</DistanceMeters>
          </Trackpoint>
          <Trackpoint>
            <Time>2018-09-15T09:48:23.000Z</Time>
            <Position>
              <LatitudeDegrees>37.188675105571746826171875</LatitudeDegrees>
              <LongitudeDegrees>-7.917631566524505615234375</LongitudeDegrees>
            </Position>
            <AltitudeMeters>348.399993896484375</AltitudeMeters>
            <DistanceMeters>371792.26077915</DistanceMeters>
          </Trackpoint>
          <Trackpoint>
            <Time>2018-09-15T09:48:26.000Z</Time>
            <Position>
              <LatitudeDegrees>37.188557088375091552734375</LatitudeDegrees>
              <LongitudeDegrees>-7.917545400559902191162109375</LongitudeDegrees>
            </Position>
            <AltitudeMeters>349.20001220703125</AltitudeMeters>
            <DistanceMeters>371807.45673634</DistanceMeters>
          </Trackpoint>
          <Trackpoint>
            <Time>2018-09-15T09:48:31.000Z</Time>
            <Position>
              <LatitudeDegrees>37.1883507259190082550048828125</LatitudeDegrees>
              <LongitudeDegrees>-7.91740517131984233856201171875</LongitudeDegrees>
            </Position>
            <AltitudeMeters>350.399993896484375</AltitudeMeters>
            <DistanceMeters>371833.5750842</DistanceMeters>
          </Trackpoint>
          <Trackpoint>
            <Time>2018-09-15T09:48:35.000Z</Time>
            <Position>
              <LatitudeDegrees>37.18819591216742992401123046875</LatitudeDegrees>
              <LongitudeDegrees>-7.91730391792953014373779296875</LongitudeDegrees>
            </Position>
            <AltitudeMeters>349.20001220703125</AltitudeMeters>
            <DistanceMeters>371853.00473617</DistanceMeters>
          </Trackpoint>
          <Trackpoint>
            <Time>2018-09-15T09:48:39.000Z</Time>
            <Position>
              <LatitudeDegrees>37.1880399249494075775146484375</LatitudeDegrees>
              <LongitudeDegrees>-7.91723133064806461334228515625</LongitudeDegrees>
            </Position>
            <AltitudeMeters>348.600006103515625</AltitudeMeters>
            <DistanceMeters>371871.52105175</DistanceMeters>
          </Trackpoint>
          <Trackpoint>
            <Time>2018-09-15T09:48:43.000Z</Time>
            <Position>
              <LatitudeDegrees>37.1878731250762939453125</LatitudeDegrees>
              <LongitudeDegrees>-7.91723971255123615264892578125</LongitudeDegrees>
            </Position>
            <AltitudeMeters>350.79998779296875</AltitudeMeters>
            <DistanceMeters>371890.10090084</DistanceMeters>
          </Trackpoint>
          <Trackpoint>
            <Time>2018-09-15T09:48:47.000Z</Time>
            <Position>
              <LatitudeDegrees>37.18770573846995830535888671875</LatitudeDegrees>
              <LongitudeDegrees>-7.91727441363036632537841796875</LongitudeDegrees>
            </Position>
            <AltitudeMeters>353.79998779296875</AltitudeMeters>
            <DistanceMeters>371908.98373957</DistanceMeters>
          </Trackpoint>
          <Trackpoint>
            <Time>2018-09-15T09:48:56.000Z</Time>
            <Position>
              <LatitudeDegrees>37.18736350536346435546875</LatitudeDegrees>
              <LongitudeDegrees>-7.9173236154019832611083984375</LongitudeDegrees>
            </Position>
            <AltitudeMeters>358.79998779296875</AltitudeMeters>
            <DistanceMeters>371947.3241632</DistanceMeters>
          </Trackpoint>
          <Trackpoint>
            <Time>2018-09-15T09:49:00.000Z</Time>
            <Position>
              <LatitudeDegrees>37.18720550648868083953857421875</LatitudeDegrees>
              <LongitudeDegrees>-7.91730961762368679046630859375</LongitudeDegrees>
            </Position>
            <AltitudeMeters>360.20001220703125</AltitudeMeters>
            <DistanceMeters>371964.95360366</DistanceMeters>
          </Trackpoint>
          <Trackpoint>
            <Time>2018-09-15T09:49:03.000Z</Time>
            <Position>
              <LatitudeDegrees>37.187087573111057281494140625</LatitudeDegrees>
              <LongitudeDegrees>-7.917287237942218780517578125</LongitudeDegrees>
            </Position>
            <AltitudeMeters>360.79998779296875</AltitudeMeters>
            <DistanceMeters>371978.22914516</DistanceMeters>
          </Trackpoint>
          <Trackpoint>
            <Time>2018-09-15T09:49:12.000Z</Time>
            <Position>
              <LatitudeDegrees>37.1867474354803562164306640625</LatitudeDegrees>
              <LongitudeDegrees>-7.91710811667144298553466796875</LongitudeDegrees>
            </Position>
            <AltitudeMeters>360.600006103515625</AltitudeMeters>
            <DistanceMeters>372019.28398517</DistanceMeters>
          </Trackpoint>
          <Trackpoint>
            <Time>2018-09-15T09:49:22.000Z</Time>
            <Position>
              <LatitudeDegrees>37.18635499477386474609375</LatitudeDegrees>
              <LongitudeDegrees>-7.916805781424045562744140625</LongitudeDegrees>
            </Position>
            <AltitudeMeters>355</AltitudeMeters>
            <DistanceMeters>372070.53413966</DistanceMeters>
          </Trackpoint>
          <Trackpoint>
            <Time>2018-09-15T09:49:24.000Z</Time>
            <Position>
              <LatitudeDegrees>37.1862710081040859222412109375</LatitudeDegrees>
              <LongitudeDegrees>-7.91677384637296199798583984375</LongitudeDegrees>
            </Position>
            <AltitudeMeters>354.600006103515625</AltitudeMeters>
            <DistanceMeters>372080.30203543</DistanceMeters>
          </Trackpoint>
          <Trackpoint>
            <Time>2018-09-15T09:49:27.000Z</Time>
            <Position>
              <LatitudeDegrees>37.18613631092011928558349609375</LatitudeDegrees>
              <LongitudeDegrees>-7.91674333624541759490966796875</LongitudeDegrees>
            </Position>
            <AltitudeMeters>354.399993896484375</AltitudeMeters>
            <DistanceMeters>372095.53656938</DistanceMeters>
          </Trackpoint>
          <Trackpoint>
            <Time>2018-09-15T09:49:32.000Z</Time>
            <Position>
              <LatitudeDegrees>37.185901701450347900390625</LatitudeDegrees>
              <LongitudeDegrees>-7.916748113930225372314453125</LongitudeDegrees>
            </Position>
            <AltitudeMeters>355.79998779296875</AltitudeMeters>
            <DistanceMeters>372121.65249697</DistanceMeters>
          </Trackpoint>
          <Trackpoint>
            <Time>2018-09-15T09:49:36.000Z</Time>
            <Position>
              <LatitudeDegrees>37.185722328722476959228515625</LatitudeDegrees>
              <LongitudeDegrees>-7.91681307367980480194091796875</LongitudeDegrees>
            </Position>
            <AltitudeMeters>357.20001220703125</AltitudeMeters>
            <DistanceMeters>372142.43143041</DistanceMeters>
          </Trackpoint>
          <Trackpoint>
            <Time>2018-09-15T09:49:42.000Z</Time>
            <Position>
              <LatitudeDegrees>37.185507752001285552978515625</LatitudeDegrees>
              <LongitudeDegrees>-7.91698926128447055816650390625</LongitudeDegrees>
            </Position>
            <AltitudeMeters>358.600006103515625</AltitudeMeters>
            <DistanceMeters>372170.9703117</DistanceMeters>
          </Trackpoint>
          <Trackpoint>
            <Time>2018-09-15T09:49:48.000Z</Time>
            <Position>
              <LatitudeDegrees>37.18530080281198024749755859375</LatitudeDegrees>
              <LongitudeDegrees>-7.9171747528016567230224609375</LongitudeDegrees>
            </Position>
            <AltitudeMeters>360.600006103515625</AltitudeMeters>
            <DistanceMeters>372199.27391927</DistanceMeters>
          </Trackpoint>
          <Trackpoint>
            <Time>2018-09-15T09:49:58.000Z</Time>
            <Position>
              <LatitudeDegrees>37.18497994355857372283935546875</LatitudeDegrees>
              <LongitudeDegrees>-7.9175157286226749420166015625</LongitudeDegrees>
            </Position>
            <AltitudeMeters>365</AltitudeMeters>
            <DistanceMeters>372246.06644747</DistanceMeters>
          </Trackpoint>
          <Trackpoint>
            <Time>2018-09-15T09:49:59.000Z</Time>
            <Position>
              <LatitudeDegrees>37.18494742177426815032958984375</LatitudeDegrees>
              <LongitudeDegrees>-7.9175479151308536529541015625</LongitudeDegrees>
            </Position>
            <AltitudeMeters>365.399993896484375</AltitudeMeters>
            <DistanceMeters>372250.6759778</DistanceMeters>
          </Trackpoint>
          <Trackpoint>
            <Time>2018-09-15T09:50:04.000Z</Time>
            <Position>
              <LatitudeDegrees>37.184788919985294342041015625</LatitudeDegrees>
              <LongitudeDegrees>-7.91770943440496921539306640625</LongitudeDegrees>
            </Position>
            <AltitudeMeters>364</AltitudeMeters>
            <DistanceMeters>372273.39948614</DistanceMeters>
          </Trackpoint>
          <Trackpoint>
            <Time>2018-09-15T09:50:05.000Z</Time>
            <Position>
              <LatitudeDegrees>37.1847599186003208160400390625</LatitudeDegrees>
              <LongitudeDegrees>-7.91774882934987545013427734375</LongitudeDegrees>
            </Position>
            <AltitudeMeters>363.79998779296875</AltitudeMeters>
            <DistanceMeters>372278.15652005</DistanceMeters>
          </Trackpoint>
          <Trackpoint>
            <Time>2018-09-15T09:50:09.000Z</Time>
            <Position>
              <LatitudeDegrees>37.18468221835792064666748046875</LatitudeDegrees>
              <LongitudeDegrees>-7.917916215956211090087890625</LongitudeDegrees>
            </Position>
            <AltitudeMeters>364.399993896484375</AltitudeMeters>
            <DistanceMeters>372295.3350793</DistanceMeters>
          </Trackpoint>
          <Trackpoint>
            <Time>2018-09-15T09:50:13.000Z</Time>
            <Position>
              <LatitudeDegrees>37.18467299826443195343017578125</LatitudeDegrees>
              <LongitudeDegrees>-7.918116711080074310302734375</LongitudeDegrees>
            </Position>
            <AltitudeMeters>367</AltitudeMeters>
            <DistanceMeters>372313.14339996</DistanceMeters>
          </Trackpoint>
          <Trackpoint>
            <Time>2018-09-15T09:50:15.000Z</Time>
            <Position>
              <LatitudeDegrees>37.18469831161201000213623046875</LatitudeDegrees>
              <LongitudeDegrees>-7.918210923671722412109375</LongitudeDegrees>
            </Position>
            <AltitudeMeters>369</AltitudeMeters>
            <DistanceMeters>372321.95991277</DistanceMeters>
          </Trackpoint>
          <Trackpoint>
            <Time>2018-09-15T09:50:17.000Z</Time>
            <Position>
              <LatitudeDegrees>37.1847341023385524749755859375</LatitudeDegrees>
              <LongitudeDegrees>-7.9183012805879116058349609375</LongitudeDegrees>
            </Position>
            <AltitudeMeters>371.20001220703125</AltitudeMeters>
            <DistanceMeters>372330.90757491</DistanceMeters>
          </Trackpoint>
          <Trackpoint>
            <Time>2018-09-15T09:50:21.000Z</Time>
            <Position>
              <LatitudeDegrees>37.1848175860941410064697265625</LatitudeDegrees>
              <LongitudeDegrees>-7.91847855783998966217041015625</LongitudeDegrees>
            </Position>
            <AltitudeMeters>376</AltitudeMeters>
            <DistanceMeters>372349.16804048</DistanceMeters>
          </Trackpoint>
          <Trackpoint>
            <Time>2018-09-15T09:50:24.000Z</Time>
            <Position>
              <LatitudeDegrees>37.1848668716847896575927734375</LatitudeDegrees>
              <LongitudeDegrees>-7.91862859390676021575927734375</LongitudeDegrees>
            </Position>
            <AltitudeMeters>377.79998779296875</AltitudeMeters>
            <DistanceMeters>372363.55886301</DistanceMeters>
          </Trackpoint>
          <Trackpoint>
            <Time>2018-09-15T09:50:27.000Z</Time>
            <Position>
              <LatitudeDegrees>37.184876091778278350830078125</LatitudeDegrees>
              <LongitudeDegrees>-7.9187907837331295013427734375</LongitudeDegrees>
            </Position>
            <AltitudeMeters>378.600006103515625</AltitudeMeters>
            <DistanceMeters>372377.9772686</DistanceMeters>
          </Trackpoint>
          <Trackpoint>
            <Time>2018-09-15T09:50:37.000Z</Time>
            <Position>
              <LatitudeDegrees>37.1846182644367218017578125</LatitudeDegrees>
              <LongitudeDegrees>-7.91914709843695163726806640625</LongitudeDegrees>
            </Position>
            <AltitudeMeters>376.79998779296875</AltitudeMeters>
            <DistanceMeters>372420.65949877</DistanceMeters>
          </Trackpoint>
          <Trackpoint>
            <Time>2018-09-15T09:50:42.000Z</Time>
            <Position>
              <LatitudeDegrees>37.1844186075031757354736328125</LatitudeDegrees>
              <LongitudeDegrees>-7.919255979359149932861328125</LongitudeDegrees>
            </Position>
            <AltitudeMeters>374.79998779296875</AltitudeMeters>
            <DistanceMeters>372444.88851587</DistanceMeters>
          </Trackpoint>
          <Trackpoint>
            <Time>2018-09-15T09:50:43.000Z</Time>
            <Position>
              <LatitudeDegrees>37.18438021838665008544921875</LatitudeDegrees>
              <LongitudeDegrees>-7.919282130897045135498046875</LongitudeDegrees>
            </Position>
            <AltitudeMeters>374.399993896484375</AltitudeMeters>
            <DistanceMeters>372449.74883273</DistanceMeters>
          </Trackpoint>
          <Trackpoint>
            <Time>2018-09-15T09:50:45.000Z</Time>
            <Position>
              <LatitudeDegrees>37.18431391753256320953369140625</LatitudeDegrees>
              <LongitudeDegrees>-7.91935161687433719635009765625</LongitudeDegrees>
            </Position>
            <AltitudeMeters>373.600006103515625</AltitudeMeters>
            <DistanceMeters>372459.36204251</DistanceMeters>
          </Trackpoint>
          <Trackpoint>
            <Time>2018-09-15T09:50:47.000Z</Time>
            <Position>
              <LatitudeDegrees>37.18425792641937732696533203125</LatitudeDegrees>
              <LongitudeDegrees>-7.91943677701056003570556640625</LongitudeDegrees>
            </Position>
            <AltitudeMeters>373.20001220703125</AltitudeMeters>
            <DistanceMeters>372469.15302262</DistanceMeters>
          </Trackpoint>
          <Trackpoint>
            <Time>2018-09-15T09:50:53.000Z</Time>
            <Position>
              <LatitudeDegrees>37.18410906381905078887939453125</LatitudeDegrees>
              <LongitudeDegrees>-7.919731400907039642333984375</LongitudeDegrees>
            </Position>
            <AltitudeMeters>372.20001220703125</AltitudeMeters>
            <DistanceMeters>372500.08943615</DistanceMeters>
          </Trackpoint>
          <Trackpoint>
            <Time>2018-09-15T09:50:59.000Z</Time>
            <Position>
              <LatitudeDegrees>37.18394410796463489532470703125</LatitudeDegrees>
              <LongitudeDegrees>-7.92003960348665714263916015625</LongitudeDegrees>
            </Position>
            <AltitudeMeters>372.600006103515625</AltitudeMeters>
            <DistanceMeters>372533.01355295</DistanceMeters>
          </Trackpoint>
          <Trackpoint>
            <Time>2018-09-15T09:51:03.000Z</Time>
            <Position>
              <LatitudeDegrees>37.18380513601005077362060546875</LatitudeDegrees>
              <LongitudeDegrees>-7.92019835673272609710693359375</LongitudeDegrees>
            </Position>
            <AltitudeMeters>372.600006103515625</AltitudeMeters>
            <DistanceMeters>372553.92849887</DistanceMeters>
          </Trackpoint>
          <Trackpoint>
            <Time>2018-09-15T09:51:07.000Z</Time>
            <Position>
              <LatitudeDegrees>37.1836327202618122100830078125</LatitudeDegrees>
              <LongitudeDegrees>-7.92034638114273548126220703125</LongitudeDegrees>
            </Position>
            <AltitudeMeters>372.600006103515625</AltitudeMeters>
            <DistanceMeters>372577.17821728</DistanceMeters>
          </Trackpoint>
          <Trackpoint>
            <Time>2018-09-15T09:51:10.000Z</Time>
            <Position>
              <LatitudeDegrees>37.18347807414829730987548828125</LatitudeDegrees>
              <LongitudeDegrees>-7.92045769281685352325439453125</LongitudeDegrees>
            </Position>
            <AltitudeMeters>372.399993896484375</AltitudeMeters>
            <DistanceMeters>372597.01992267</DistanceMeters>
          </Trackpoint>
          <Trackpoint>
            <Time>2018-09-15T09:51:15.000Z</Time>
            <Position>
              <LatitudeDegrees>37.1831671893596649169921875</LatitudeDegrees>
              <LongitudeDegrees>-7.920543439686298370361328125</LongitudeDegrees>
            </Position>
            <AltitudeMeters>374.399993896484375</AltitudeMeters>
            <DistanceMeters>372632.44768643</DistanceMeters>
          </Trackpoint>
          <Trackpoint>
            <Time>2018-09-15T09:51:17.000Z</Time>
            <Position>
              <LatitudeDegrees>37.1830342523753643035888671875</LatitudeDegrees>
              <LongitudeDegrees>-7.920541428029537200927734375</LongitudeDegrees>
            </Position>
            <AltitudeMeters>377.20001220703125</AltitudeMeters>
            <DistanceMeters>372647.24502719</DistanceMeters>
          </Trackpoint>
          <Trackpoint>
            <Time>2018-09-15T09:51:19.000Z</Time>
            <Position>
              <LatitudeDegrees>37.18290098011493682861328125</LatitudeDegrees>
              <LongitudeDegrees>-7.92052106000483036041259765625</LongitudeDegrees>
            </Position>
            <AltitudeMeters>379.79998779296875</AltitudeMeters>
            <DistanceMeters>372662.18750591</DistanceMeters>
          </Trackpoint>
          <Trackpoint>
            <Time>2018-09-15T09:51:21.000Z</Time>
            <Position>
              <LatitudeDegrees>37.18276678584516048431396484375</LatitudeDegrees>
              <LongitudeDegrees>-7.92047764174640178680419921875</LongitudeDegrees>
            </Position>
            <AltitudeMeters>381</AltitudeMeters>
            <DistanceMeters>372677.61172044</DistanceMeters>
          </Trackpoint>
          <Trackpoint>
            <Time>2018-09-15T09:51:24.000Z</Time>
            <Position>
              <LatitudeDegrees>37.18257819302380084991455078125</LatitudeDegrees>
              <LongitudeDegrees>-7.9203263483941555023193359375</LongitudeDegrees>
            </Position>
            <AltitudeMeters>379.600006103515625</AltitudeMeters>
            <DistanceMeters>372702.52358576</DistanceMeters>
          </Trackpoint>
          <Trackpoint>
            <Time>2018-09-15T09:51:27.000Z</Time>
            <Position>
              <LatitudeDegrees>37.1824046038091182708740234375</LatitudeDegrees>
              <LongitudeDegrees>-7.92012359015643596649169921875</LongitudeDegrees>
            </Position>
            <AltitudeMeters>377.600006103515625</AltitudeMeters>
            <DistanceMeters>372728.9160475</DistanceMeters>
          </Trackpoint>
          <Trackpoint>
            <Time>2018-09-15T09:51:29.000Z</Time>
            <Position>
              <LatitudeDegrees>37.18227862380445003509521484375</LatitudeDegrees>
              <LongitudeDegrees>-7.91997171007096767425537109375</LongitudeDegrees>
            </Position>
            <AltitudeMeters>377.79998779296875</AltitudeMeters>
            <DistanceMeters>372748.35824388</DistanceMeters>
          </Trackpoint>
          <Trackpoint>
            <Time>2018-09-15T09:51:30.000Z</Time>
            <Position>
              <LatitudeDegrees>37.18221458606421947479248046875</LatitudeDegrees>
              <LongitudeDegrees>-7.91988722048699855804443359375</LongitudeDegrees>
            </Position>
            <AltitudeMeters>378.399993896484375</AltitudeMeters>
            <DistanceMeters>372758.69914158</DistanceMeters>
          </Trackpoint>
          <Trackpoint>
            <Time>2018-09-15T09:51:32.000Z</Time>
            <Position>
              <LatitudeDegrees>37.1820808947086334228515625</LatitudeDegrees>
              <LongitudeDegrees>-7.9197064228355884552001953125</LongitudeDegrees>
            </Position>
            <AltitudeMeters>380</AltitudeMeters>
            <DistanceMeters>372780.57304453</DistanceMeters>
          </Trackpoint>
          <Trackpoint>
            <Time>2018-09-15T09:51:35.000Z</Time>
            <Position>
              <LatitudeDegrees>37.18186506070196628570556640625</LatitudeDegrees>
              <LongitudeDegrees>-7.9194110445678234100341796875</LongitudeDegrees>
            </Position>
            <AltitudeMeters>375.600006103515625</AltitudeMeters>
            <DistanceMeters>372816.11405202</DistanceMeters>
          </Trackpoint>
          <Trackpoint>
            <Time>2018-09-15T09:51:36.000Z</Time>
            <Position>
              <LatitudeDegrees>37.18179113231599330902099609375</LatitudeDegrees>
              <LongitudeDegrees>-7.9193087853491306304931640625</LongitudeDegrees>
            </Position>
            <AltitudeMeters>373.399993896484375</AltitudeMeters>
            <DistanceMeters>372828.35849399</DistanceMeters>
          </Trackpoint>
          <Trackpoint>
            <Time>2018-09-15T09:51:38.000Z</Time>
            <Position>
              <LatitudeDegrees>37.18164579011499881744384765625</LatitudeDegrees>
              <LongitudeDegrees>-7.91910552419722080230712890625</LongitudeDegrees>
            </Position>
            <AltitudeMeters>370.20001220703125</AltitudeMeters>
            <DistanceMeters>372852.57781904</DistanceMeters>
          </Trackpoint>
          <Trackpoint>
            <Time>2018-09-15T09:51:40.000Z</Time>
            <Position>
              <LatitudeDegrees>37.1814943291246891021728515625</LatitudeDegrees>
              <LongitudeDegrees>-7.9189131595194339752197265625</LongitudeDegrees>
            </Position>
            <AltitudeMeters>368.600006103515625</AltitudeMeters>
            <DistanceMeters>372876.56072439</DistanceMeters>
          </Trackpoint>
          <Trackpoint>
            <Time>2018-09-15T09:51:42.000Z</Time>
            <Position>
              <LatitudeDegrees>37.181350998580455780029296875</LatitudeDegrees>
              <LongitudeDegrees>-7.918718867003917694091796875</LongitudeDegrees>
            </Position>
            <AltitudeMeters>367.600006103515625</AltitudeMeters>
            <DistanceMeters>372900.04174668</DistanceMeters>
          </Trackpoint>
          <Trackpoint>
            <Time>2018-09-15T09:51:44.000Z</Time>
            <Position>
              <LatitudeDegrees>37.181204147636890411376953125</LatitudeDegrees>
              <LongitudeDegrees>-7.9185265861451625823974609375</LongitudeDegrees>
            </Position>
            <AltitudeMeters>366</AltitudeMeters>
            <DistanceMeters>372923.66119042</DistanceMeters>
          </Trackpoint>
          <Trackpoint>
            <Time>2018-09-15T09:51:45.000Z</Time>
            <Position>
              <LatitudeDegrees>37.1811295486986637115478515625</LatitudeDegrees>
              <LongitudeDegrees>-7.91843178682029247283935546875</LongitudeDegrees>
            </Position>
            <AltitudeMeters>365.20001220703125</AltitudeMeters>
            <DistanceMeters>372935.47702775</DistanceMeters>
          </Trackpoint>
          <Trackpoint>
            <Time>2018-09-15T09:51:46.000Z</Time>
            <Position>
              <LatitudeDegrees>37.18105771578848361968994140625</LatitudeDegrees>
              <LongitudeDegrees>-7.91833698749542236328125</LongitudeDegrees>
            </Position>
            <AltitudeMeters>365.600006103515625</AltitudeMeters>
            <DistanceMeters>372947.07846255</DistanceMeters>
          </Trackpoint>
          <Trackpoint>
            <Time>2018-09-15T09:51:48.000Z</Time>
            <Position>
              <LatitudeDegrees>37.18090952374041080474853515625</LatitudeDegrees>
              <LongitudeDegrees>-7.918141521513462066650390625</LongitudeDegrees>
            </Position>
            <AltitudeMeters>364.399993896484375</AltitudeMeters>
            <DistanceMeters>372971.00557785</DistanceMeters>
          </Trackpoint>
          <Trackpoint>
            <Time>2018-09-15T09:51:50.000Z</Time>
            <Position>
              <LatitudeDegrees>37.18075965531170368194580078125</LatitudeDegrees>
              <LongitudeDegrees>-7.917940355837345123291015625</LongitudeDegrees>
            </Position>
            <AltitudeMeters>359.399993896484375</AltitudeMeters>
            <DistanceMeters>372995.42836781</DistanceMeters>
          </Trackpoint>
          <Trackpoint>
            <Time>2018-09-15T09:51:51.000Z</Time>
            <Position>
              <LatitudeDegrees>37.18068555928766727447509765625</LatitudeDegrees>
              <LongitudeDegrees>-7.9178369231522083282470703125</LongitudeDegrees>
            </Position>
            <AltitudeMeters>358</AltitudeMeters>
            <DistanceMeters>373007.76318674</DistanceMeters>
          </Trackpoint>
          <Trackpoint>
            <Time>2018-09-15T09:51:52.000Z</Time>
            <Position>
              <LatitudeDegrees>37.18061515130102634429931640625</LatitudeDegrees>
              <LongitudeDegrees>-7.9177272878587245941162109375</LongitudeDegrees>
            </Position>
            <AltitudeMeters>356.399993896484375</AltitudeMeters>
            <DistanceMeters>373020.25115776</DistanceMeters>
          </Trackpoint>
          <Trackpoint>
            <Time>2018-09-15T09:51:53.000Z</Time>
            <Position>
              <LatitudeDegrees>37.1805528737604618072509765625</LatitudeDegrees>
              <LongitudeDegrees>-7.917609103024005889892578125</LongitudeDegrees>
            </Position>
            <AltitudeMeters>354.399993896484375</AltitudeMeters>
            <DistanceMeters>373032.8166218</DistanceMeters>
          </Trackpoint>
          <Trackpoint>
            <Time>2018-09-15T09:51:57.000Z</Time>
            <Position>
              <LatitudeDegrees>37.180426977574825286865234375</LatitudeDegrees>
              <LongitudeDegrees>-7.91708850301802158355712890625</LongitudeDegrees>
            </Position>
            <AltitudeMeters>352.20001220703125</AltitudeMeters>
            <DistanceMeters>373081.06221906</DistanceMeters>
          </Trackpoint>
          <Trackpoint>
            <Time>2018-09-15T09:51:59.000Z</Time>
            <Position>
              <LatitudeDegrees>37.180429659783840179443359375</LatitudeDegrees>
              <LongitudeDegrees>-7.91682715527713298797607421875</LongitudeDegrees>
            </Position>
            <AltitudeMeters>349</AltitudeMeters>
            <DistanceMeters>373104.2401678</DistanceMeters>
          </Trackpoint>
          <Trackpoint>
            <Time>2018-09-15T09:52:01.000Z</Time>
            <Position>
              <LatitudeDegrees>37.18043628148734569549560546875</LatitudeDegrees>
              <LongitudeDegrees>-7.9165796376764774322509765625</LongitudeDegrees>
            </Position>
            <AltitudeMeters>347.20001220703125</AltitudeMeters>
            <DistanceMeters>373126.20182628</DistanceMeters>
          </Trackpoint>
          <Trackpoint>
            <Time>2018-09-15T09:52:02.000Z</Time>
            <Position>
              <LatitudeDegrees>37.18043871223926544189453125</LatitudeDegrees>
              <LongitudeDegrees>-7.91646011173725128173828125</LongitudeDegrees>
            </Position>
            <AltitudeMeters>346.600006103515625</AltitudeMeters>
            <DistanceMeters>373136.80401433</DistanceMeters>
          </Trackpoint>
          <Trackpoint>
            <Time>2018-09-15T09:52:04.000Z</Time>
            <Position>
              <LatitudeDegrees>37.1804474294185638427734375</LatitudeDegrees>
              <LongitudeDegrees>-7.91622005403041839599609375</LongitudeDegrees>
            </Position>
            <AltitudeMeters>345.600006103515625</AltitudeMeters>
            <DistanceMeters>373158.11416554</DistanceMeters>
          </Trackpoint>
          <Trackpoint>
            <Time>2018-09-15T09:52:06.000Z</Time>
            <Position>
              <LatitudeDegrees>37.18045346438884735107421875</LatitudeDegrees>
              <LongitudeDegrees>-7.91598862968385219573974609375</LongitudeDegrees>
            </Position>
            <AltitudeMeters>346.79998779296875</AltitudeMeters>
            <DistanceMeters>373178.64741343</DistanceMeters>
          </Trackpoint>
          <Trackpoint>
            <Time>2018-09-15T09:52:08.000Z</Time>
            <Position>
              <LatitudeDegrees>37.180460505187511444091796875</LatitudeDegrees>
              <LongitudeDegrees>-7.91576382704079151153564453125</LongitudeDegrees>
            </Position>
            <AltitudeMeters>345.600006103515625</AltitudeMeters>
            <DistanceMeters>373198.59759261</DistanceMeters>
          </Trackpoint>
          <Trackpoint>
            <Time>2018-09-15T09:52:13.000Z</Time>
            <Position>
              <LatitudeDegrees>37.180466540157794952392578125</LatitudeDegrees>
              <LongitudeDegrees>-7.91522621177136898040771484375</LongitudeDegrees>
            </Position>
            <AltitudeMeters>341.79998779296875</AltitudeMeters>
            <DistanceMeters>373246.27705124</DistanceMeters>
          </Trackpoint>
          <Trackpoint>
            <Time>2018-09-15T09:52:20.000Z</Time>
            <Position>
              <LatitudeDegrees>37.18043980188667774200439453125</LatitudeDegrees>
              <LongitudeDegrees>-7.91444032453000545501708984375</LongitudeDegrees>
            </Position>
            <AltitudeMeters>340.79998779296875</AltitudeMeters>
            <DistanceMeters>373316.03170851</DistanceMeters>
          </Trackpoint>
          <Trackpoint>
            <Time>2018-09-15T09:52:23.000Z</Time>
            <Position>
              <LatitudeDegrees>37.18035983853042125701904296875</LatitudeDegrees>
              <LongitudeDegrees>-7.9140704311430454254150390625</LongitudeDegrees>
            </Position>
            <AltitudeMeters>338.20001220703125</AltitudeMeters>
            <DistanceMeters>373350.0194048</DistanceMeters>
          </Trackpoint>
          <Trackpoint>
            <Time>2018-09-15T09:52:26.000Z</Time>
            <Position>
              <LatitudeDegrees>37.180271409451961517333984375</LatitudeDegrees>
              <LongitudeDegrees>-7.91368964128196239471435546875</LongitudeDegrees>
            </Position>
            <AltitudeMeters>334.600006103515625</AltitudeMeters>
            <DistanceMeters>373385.19238495</DistanceMeters>
          </Trackpoint>
          <Trackpoint>
            <Time>2018-09-15T09:52:29.000Z</Time>
            <Position>
              <LatitudeDegrees>37.1801941283047199249267578125</LatitudeDegrees>
              <LongitudeDegrees>-7.91329150088131427764892578125</LongitudeDegrees>
            </Position>
            <AltitudeMeters>332.20001220703125</AltitudeMeters>
            <DistanceMeters>373421.53137584</DistanceMeters>
          </Trackpoint>
          <Trackpoint>
            <Time>2018-09-15T09:52:30.000Z</Time>
            <Position>
              <LatitudeDegrees>37.18018130399286746978759765625</LatitudeDegrees>
              <LongitudeDegrees>-7.913152277469635009765625</LongitudeDegrees>
            </Position>
            <AltitudeMeters>331.600006103515625</AltitudeMeters>
            <DistanceMeters>373433.95991106</DistanceMeters>
          </Trackpoint>
          <Trackpoint>
            <Time>2018-09-15T09:52:31.000Z</Time>
            <Position>
              <LatitudeDegrees>37.18017451465129852294921875</LatitudeDegrees>
              <LongitudeDegrees>-7.9130112938582897186279296875</LongitudeDegrees>
            </Position>
            <AltitudeMeters>331.600006103515625</AltitudeMeters>
            <DistanceMeters>373446.48542694</DistanceMeters>
          </Trackpoint>
          <Trackpoint>
            <Time>2018-09-15T09:52:33.000Z</Time>
            <Position>
              <LatitudeDegrees>37.18017392791807651519775390625</LatitudeDegrees>
              <LongitudeDegrees>-7.91272806935012340545654296875</LongitudeDegrees>
            </Position>
            <AltitudeMeters>331.20001220703125</AltitudeMeters>
            <DistanceMeters>373471.601259</DistanceMeters>
          </Trackpoint>
          <Trackpoint>
            <Time>2018-09-15T09:52:34.000Z</Time>
            <Position>
              <LatitudeDegrees>37.18017518520355224609375</LatitudeDegrees>
              <LongitudeDegrees>-7.91258607991039752960205078125</LongitudeDegrees>
            </Position>
            <AltitudeMeters>331</AltitudeMeters>
            <DistanceMeters>373484.19328474</DistanceMeters>
          </Trackpoint>
          <Trackpoint>
            <Time>2018-09-15T09:52:35.000Z</Time>
            <Position>
              <LatitudeDegrees>37.18017443083226680755615234375</LatitudeDegrees>
              <LongitudeDegrees>-7.91244392283260822296142578125</LongitudeDegrees>
            </Position>
            <AltitudeMeters>331.20001220703125</AltitudeMeters>
            <DistanceMeters>373496.79964486</DistanceMeters>
          </Trackpoint>
          <Trackpoint>
            <Time>2018-09-15T09:52:37.000Z</Time>
            <Position>
              <LatitudeDegrees>37.18017409555613994598388671875</LatitudeDegrees>
              <LongitudeDegrees>-7.91215650737285614013671875</LongitudeDegrees>
            </Position>
            <AltitudeMeters>331.79998779296875</AltitudeMeters>
            <DistanceMeters>373522.2870072</DistanceMeters>
          </Trackpoint>
          <Trackpoint>
            <Time>2018-09-15T09:52:40.000Z</Time>
            <Position>
              <LatitudeDegrees>37.180161774158477783203125</LatitudeDegrees>
              <LongitudeDegrees>-7.91172978468239307403564453125</LongitudeDegrees>
            </Position>
            <AltitudeMeters>333</AltitudeMeters>
            <DistanceMeters>373560.15297686</DistanceMeters>
          </Trackpoint>
          <Trackpoint>
            <Time>2018-09-15T09:52:41.000Z</Time>
            <Position>
              <LatitudeDegrees>37.1801455132663249969482421875</LatitudeDegrees>
              <LongitudeDegrees>-7.91159165091812610626220703125</LongitudeDegrees>
            </Position>
            <AltitudeMeters>332.600006103515625</AltitudeMeters>
            <DistanceMeters>373572.5356542</DistanceMeters>
          </Trackpoint>
          <Trackpoint>
            <Time>2018-09-15T09:52:43.000Z</Time>
            <Position>
              <LatitudeDegrees>37.1800834871828556060791015625</LatitudeDegrees>
              <LongitudeDegrees>-7.9113243520259857177734375</LongitudeDegrees>
            </Position>
            <AltitudeMeters>331.20001220703125</AltitudeMeters>
            <DistanceMeters>373597.22413592</DistanceMeters>
          </Trackpoint>
          <Trackpoint>
            <Time>2018-09-15T09:52:47.000Z</Time>
            <Position>
              <LatitudeDegrees>37.17986874282360076904296875</LatitudeDegrees>
              <LongitudeDegrees>-7.9108239524066448211669921875</LongitudeDegrees>
            </Position>
            <AltitudeMeters>328.79998779296875</AltitudeMeters>
            <DistanceMeters>373647.62664921</DistanceMeters>
          </Trackpoint>
          <Trackpoint>
            <Time>2018-09-15T09:52:48.000Z</Time>
            <Position>
              <LatitudeDegrees>37.179797329008579254150390625</LatitudeDegrees>
              <LongitudeDegrees>-7.91070953942835330963134765625</LongitudeDegrees>
            </Position>
            <AltitudeMeters>328.20001220703125</AltitudeMeters>
            <DistanceMeters>373660.51599933</DistanceMeters>
          </Trackpoint>
          <Trackpoint>
            <Time>2018-09-15T09:52:49.000Z</Time>
            <Position>
              <LatitudeDegrees>37.17971292324364185333251953125</LatitudeDegrees>
              <LongitudeDegrees>-7.9106036759912967681884765625</LongitudeDegrees>
            </Position>
            <AltitudeMeters>328</AltitudeMeters>
            <DistanceMeters>373673.79732129</DistanceMeters>
          </Trackpoint>
          <Trackpoint>
            <Time>2018-09-15T09:52:50.000Z</Time>
            <Position>
              <LatitudeDegrees>37.17961720190942287445068359375</LatitudeDegrees>
              <LongitudeDegrees>-7.910511977970600128173828125</LongitudeDegrees>
            </Position>
            <AltitudeMeters>327.79998779296875</AltitudeMeters>
            <DistanceMeters>373687.19945734</DistanceMeters>
          </Trackpoint>
          <Trackpoint>
            <Time>2018-09-15T09:52:52.000Z</Time>
            <Position>
              <LatitudeDegrees>37.17939893715083599090576171875</LatitudeDegrees>
              <LongitudeDegrees>-7.91037979535758495330810546875</LongitudeDegrees>
            </Position>
            <AltitudeMeters>328</AltitudeMeters>
            <DistanceMeters>373714.17298731</DistanceMeters>
          </Trackpoint>
          <Trackpoint>
            <Time>2018-09-15T09:52:53.000Z</Time>
            <Position>
              <LatitudeDegrees>37.1792835183441638946533203125</LatitudeDegrees>
              <LongitudeDegrees>-7.9103321023285388946533203125</LongitudeDegrees>
            </Position>
            <AltitudeMeters>328.20001220703125</AltitudeMeters>
            <DistanceMeters>373727.69752902</DistanceMeters>
          </Trackpoint>
          <Trackpoint>
            <Time>2018-09-15T09:52:54.000Z</Time>
            <Position>
              <LatitudeDegrees>37.17916457913815975189208984375</LatitudeDegrees>
              <LongitudeDegrees>-7.9102888517081737518310546875</LongitudeDegrees>
            </Position>
            <AltitudeMeters>328.600006103515625</AltitudeMeters>
            <DistanceMeters>373741.4800066</DistanceMeters>
          </Trackpoint>
          <Trackpoint>
            <Time>2018-09-15T09:52:55.000Z</Time>
            <Position>
              <LatitudeDegrees>37.17904262244701385498046875</LatitudeDegrees>
              <LongitudeDegrees>-7.91024635545909404754638671875</LongitudeDegrees>
            </Position>
            <AltitudeMeters>328.399993896484375</AltitudeMeters>
            <DistanceMeters>373755.56769697</DistanceMeters>
          </Trackpoint>
          <Trackpoint>
            <Time>2018-09-15T09:52:57.000Z</Time>
            <Position>
              <LatitudeDegrees>37.17879426665604114532470703125</LatitudeDegrees>
              <LongitudeDegrees>-7.910160608589649200439453125</LongitudeDegrees>
            </Position>
            <AltitudeMeters>326.20001220703125</AltitudeMeters>
            <DistanceMeters>373784.23695905</DistanceMeters>
          </Trackpoint>
          <Trackpoint>
            <Time>2018-09-15T09:53:00.000Z</Time>
            <Position>
              <LatitudeDegrees>37.17841565608978271484375</LatitudeDegrees>
              <LongitudeDegrees>-7.91002607904374599456787109375</LongitudeDegrees>
            </Position>
            <AltitudeMeters>323.20001220703125</AltitudeMeters>
            <DistanceMeters>373828.03314184</DistanceMeters>
          </Trackpoint>
          <Trackpoint>
            <Time>2018-09-15T09:53:01.000Z</Time>
            <Position>
              <LatitudeDegrees>37.17828833498060703277587890625</LatitudeDegrees>
              <LongitudeDegrees>-7.90997922420501708984375</LongitudeDegrees>
            </Position>
            <AltitudeMeters>322.79998779296875</AltitudeMeters>
            <DistanceMeters>373842.80055008</DistanceMeters>
          </Trackpoint>
          <Trackpoint>
            <Time>2018-09-15T09:53:03.000Z</Time>
            <Position>
              <LatitudeDegrees>37.1780329383909702301025390625</LatitudeDegrees>
              <LongitudeDegrees>-7.90988794527947902679443359375</LongitudeDegrees>
            </Position>
            <AltitudeMeters>319.600006103515625</AltitudeMeters>
            <DistanceMeters>373872.35676086</DistanceMeters>
          </Trackpoint>
          <Trackpoint>
            <Time>2018-09-15T09:53:05.000Z</Time>
            <Position>
              <LatitudeDegrees>37.1777794696390628814697265625</LatitudeDegrees>
              <LongitudeDegrees>-7.90980680845677852630615234375</LongitudeDegrees>
            </Position>
            <AltitudeMeters>316.399993896484375</AltitudeMeters>
            <DistanceMeters>373901.47124653</DistanceMeters>
          </Trackpoint>
          <Trackpoint>
            <Time>2018-09-15T09:53:06.000Z</Time>
            <Position>
              <LatitudeDegrees>37.1776530705392360687255859375</LatitudeDegrees>
              <LongitudeDegrees>-7.90976590476930141448974609375</LongitudeDegrees>
            </Position>
            <AltitudeMeters>314.399993896484375</AltitudeMeters>
            <DistanceMeters>373915.99946069</DistanceMeters>
          </Trackpoint>
          <Trackpoint>
            <Time>2018-09-15T09:53:07.000Z</Time>
            <Position>
              <LatitudeDegrees>37.17752792872488498687744140625</LatitudeDegrees>
              <LongitudeDegrees>-7.909729443490505218505859375</LongitudeDegrees>
            </Position>
            <AltitudeMeters>312.20001220703125</AltitudeMeters>
            <DistanceMeters>373930.29837641</DistanceMeters>
          </Trackpoint>
          <Trackpoint>
            <Time>2018-09-15T09:53:09.000Z</Time>
            <Position>
              <LatitudeDegrees>37.1772809140384197235107421875</LatitudeDegrees>
              <LongitudeDegrees>-7.90966884233057498931884765625</LongitudeDegrees>
            </Position>
            <AltitudeMeters>309.399993896484375</AltitudeMeters>
            <DistanceMeters>373958.31192302</DistanceMeters>
          </Trackpoint>
          <Trackpoint>
            <Time>2018-09-15T09:53:13.000Z</Time>
            <Position>
              <LatitudeDegrees>37.176771126687526702880859375</LatitudeDegrees>
              <LongitudeDegrees>-7.90958703495562076568603515625</LongitudeDegrees>
            </Position>
            <AltitudeMeters>304</AltitudeMeters>
            <DistanceMeters>374015.5142165</DistanceMeters>
          </Trackpoint>
          <Trackpoint>
            <Time>2018-09-15T09:53:15.000Z</Time>
            <Position>
              <LatitudeDegrees>37.17651103623211383819580078125</LatitudeDegrees>
              <LongitudeDegrees>-7.90954663418233394622802734375</LongitudeDegrees>
            </Position>
            <AltitudeMeters>301.600006103515625</AltitudeMeters>
            <DistanceMeters>374044.6833936</DistanceMeters>
          </Trackpoint>
          <Trackpoint>
            <Time>2018-09-15T09:53:17.000Z</Time>
            <Position>
              <LatitudeDegrees>37.1762516163289546966552734375</LatitudeDegrees>
              <LongitudeDegrees>-7.90950824506580829620361328125</LongitudeDegrees>
            </Position>
            <AltitudeMeters>299.600006103515625</AltitudeMeters>
            <DistanceMeters>374073.75753084</DistanceMeters>
          </Trackpoint>
          <Trackpoint>
            <Time>2018-09-15T09:53:18.000Z</Time>
            <Position>
              <LatitudeDegrees>37.17612362466752529144287109375</LatitudeDegrees>
              <LongitudeDegrees>-7.9094897210597991943359375</LongitudeDegrees>
            </Position>
            <AltitudeMeters>298.600006103515625</AltitudeMeters>
            <DistanceMeters>374088.09806643</DistanceMeters>
          </Trackpoint>
          <Trackpoint>
            <Time>2018-09-15T09:53:19.000Z</Time>
            <Position>
              <LatitudeDegrees>37.1759978123009204864501953125</LatitudeDegrees>
              <LongitudeDegrees>-7.90947220288217067718505859375</LongitudeDegrees>
            </Position>
            <AltitudeMeters>297.600006103515625</AltitudeMeters>
            <DistanceMeters>374102.18703872</DistanceMeters>
          </Trackpoint>
          <Trackpoint>
            <Time>2018-09-15T09:53:21.000Z</Time>
            <Position>
              <LatitudeDegrees>37.1757589280605316162109375</LatitudeDegrees>
              <LongitudeDegrees>-7.90943766944110393524169921875</LongitudeDegrees>
            </Position>
            <AltitudeMeters>295.79998779296875</AltitudeMeters>
            <DistanceMeters>374128.95119094</DistanceMeters>
          </Trackpoint>
          <Trackpoint>
            <Time>2018-09-15T09:53:23.000Z</Time>
            <Position>
              <LatitudeDegrees>37.17552213929593563079833984375</LatitudeDegrees>
              <LongitudeDegrees>-7.9093990288674831390380859375</LongitudeDegrees>
            </Position>
            <AltitudeMeters>295.600006103515625</AltitudeMeters>
            <DistanceMeters>374155.52776934</DistanceMeters>
          </Trackpoint>
          <Trackpoint>
            <Time>2018-09-15T09:53:24.000Z</Time>
            <Position>
              <LatitudeDegrees>37.175405211746692657470703125</LatitudeDegrees>
              <LongitudeDegrees>-7.9093718715012073516845703125</LongitudeDegrees>
            </Position>
            <AltitudeMeters>295.20001220703125</AltitudeMeters>
            <DistanceMeters>374168.76277681</DistanceMeters>
          </Trackpoint>
          <Trackpoint>
            <Time>2018-09-15T09:53:25.000Z</Time>
            <Position>
              <LatitudeDegrees>37.175290882587432861328125</LatitudeDegrees>
              <LongitudeDegrees>-7.90933859534561634063720703125</LongitudeDegrees>
            </Position>
            <AltitudeMeters>295</AltitudeMeters>
            <DistanceMeters>374181.82540765</DistanceMeters>
          </Trackpoint>
          <Trackpoint>
            <Time>2018-09-15T09:53:27.000Z</Time>
            <Position>
              <LatitudeDegrees>37.17507555149495601654052734375</LatitudeDegrees>
              <LongitudeDegrees>-7.909257374703884124755859375</LongitudeDegrees>
            </Position>
            <AltitudeMeters>294.399993896484375</AltitudeMeters>
            <DistanceMeters>374206.85119399</DistanceMeters>
          </Trackpoint>
          <Trackpoint>
            <Time>2018-09-15T09:53:29.000Z</Time>
            <Position>
              <LatitudeDegrees>37.1748979389667510986328125</LatitudeDegrees>
              <LongitudeDegrees>-7.90919090621173381805419921875</LongitudeDegrees>
            </Position>
            <AltitudeMeters>293.79998779296875</AltitudeMeters>
            <DistanceMeters>374227.48009078</DistanceMeters>
          </Trackpoint>
          <Trackpoint>
            <Time>2018-09-15T09:53:31.000Z</Time>
            <Position>
              <LatitudeDegrees>37.174762822687625885009765625</LatitudeDegrees>
              <LongitudeDegrees>-7.9091395251452922821044921875</LongitudeDegrees>
            </Position>
            <AltitudeMeters>293.600006103515625</AltitudeMeters>
            <DistanceMeters>374243.19430315</DistanceMeters>
          </Trackpoint>
          <Trackpoint>
            <Time>2018-09-15T09:53:32.000Z</Time>
            <Position>
              <LatitudeDegrees>37.17469736002385616302490234375</LatitudeDegrees>
              <LongitudeDegrees>-7.90912636555731296539306640625</LongitudeDegrees>
            </Position>
            <AltitudeMeters>293.399993896484375</AltitudeMeters>
            <DistanceMeters>374250.57341969</DistanceMeters>
          </Trackpoint>
          <Trackpoint>
            <Time>2018-09-15T09:53:34.000Z</Time>
            <Position>
              <LatitudeDegrees>37.17456408776342868804931640625</LatitudeDegrees>
              <LongitudeDegrees>-7.90911915712058544158935546875</LongitudeDegrees>
            </Position>
            <AltitudeMeters>293.20001220703125</AltitudeMeters>
            <DistanceMeters>374265.42071662</DistanceMeters>
          </Trackpoint>
          <Trackpoint>
            <Time>2018-09-15T09:53:36.000Z</Time>
            <Position>
              <LatitudeDegrees>37.1744226850569248199462890625</LatitudeDegrees>
              <LongitudeDegrees>-7.9090962745249271392822265625</LongitudeDegrees>
            </Position>
            <AltitudeMeters>293</AltitudeMeters>
            <DistanceMeters>374281.28932436</DistanceMeters>
          </Trackpoint>
          <Trackpoint>
            <Time>2018-09-15T09:53:38.000Z</Time>
            <Position>
              <LatitudeDegrees>37.17427759431302547454833984375</LatitudeDegrees>
              <LongitudeDegrees>-7.909085713326930999755859375</LongitudeDegrees>
            </Position>
            <AltitudeMeters>292.79998779296875</AltitudeMeters>
            <DistanceMeters>374297.46537225</DistanceMeters>
          </Trackpoint>
          <Trackpoint>
            <Time>2018-09-15T09:53:40.000Z</Time>
            <Position>
              <LatitudeDegrees>37.1741273067891597747802734375</LatitudeDegrees>
              <LongitudeDegrees>-7.90908445604145526885986328125</LongitudeDegrees>
            </Position>
            <AltitudeMeters>292.399993896484375</AltitudeMeters>
            <DistanceMeters>374314.19277338</DistanceMeters>
          </Trackpoint>
          <Trackpoint>
            <Time>2018-09-15T09:53:42.000Z</Time>
            <Position>
              <LatitudeDegrees>37.17397031374275684356689453125</LatitudeDegrees>
              <LongitudeDegrees>-7.90906853042542934417724609375</LongitudeDegrees>
            </Position>
            <AltitudeMeters>292.600006103515625</AltitudeMeters>
            <DistanceMeters>374331.72359258</DistanceMeters>
          </Trackpoint>
          <Trackpoint>
            <Time>2018-09-15T09:53:50.000Z</Time>
            <Position>
              <LatitudeDegrees>37.1733997575938701629638671875</LatitudeDegrees>
              <LongitudeDegrees>-7.908991165459156036376953125</LongitudeDegrees>
            </Position>
            <AltitudeMeters>293.600006103515625</AltitudeMeters>
            <DistanceMeters>374395.5971684</DistanceMeters>
          </Trackpoint>
          <Trackpoint>
            <Time>2018-09-15T09:53:55.000Z</Time>
            <Position>
              <LatitudeDegrees>37.173117958009243011474609375</LatitudeDegrees>
              <LongitudeDegrees>-7.908892929553985595703125</LongitudeDegrees>
            </Position>
            <AltitudeMeters>294.79998779296875</AltitudeMeters>
            <DistanceMeters>374428.14960933</DistanceMeters>
          </Trackpoint>
          <Trackpoint>
            <Time>2018-09-15T09:53:58.000Z</Time>
            <Position>
              <LatitudeDegrees>37.17294319532811641693115234375</LatitudeDegrees>
              <LongitudeDegrees>-7.90882830508053302764892578125</LongitudeDegrees>
            </Position>
            <AltitudeMeters>295.20001220703125</AltitudeMeters>
            <DistanceMeters>374448.42774018</DistanceMeters>
          </Trackpoint>
          <Trackpoint>
            <Time>2018-09-15T09:54:00.000Z</Time>
            <Position>
              <LatitudeDegrees>37.1728271059691905975341796875</LatitudeDegrees>
              <LongitudeDegrees>-7.9087817855179309844970703125</LongitudeDegrees>
            </Position>
            <AltitudeMeters>295.79998779296875</AltitudeMeters>
            <DistanceMeters>374461.99128498</DistanceMeters>
          </Trackpoint>
          <Trackpoint>
            <Time>2018-09-15T09:54:01.000Z</Time>
            <Position>
              <LatitudeDegrees>37.1727682650089263916015625</LatitudeDegrees>
              <LongitudeDegrees>-7.90875840000808238983154296875</LongitudeDegrees>
            </Position>
            <AltitudeMeters>296</AltitudeMeters>
            <DistanceMeters>374468.86086863</DistanceMeters>
          </Trackpoint>
          <Trackpoint>
            <Time>2018-09-15T09:54:05.000Z</Time>
            <Position>
              <LatitudeDegrees>37.17252762056887149810791015625</LatitudeDegrees>
              <LongitudeDegrees>-7.90867365896701812744140625</LongitudeDegrees>
            </Position>
            <AltitudeMeters>297</AltitudeMeters>
            <DistanceMeters>374496.67952336</DistanceMeters>
          </Trackpoint>
          <Trackpoint>
            <Time>2018-09-15T09:54:14.000Z</Time>
            <Position>
              <LatitudeDegrees>37.1719862334430217742919921875</LatitudeDegrees>
              <LongitudeDegrees>-7.90851867757737636566162109375</LongitudeDegrees>
            </Position>
            <AltitudeMeters>298.399993896484375</AltitudeMeters>
            <DistanceMeters>374558.48474059</DistanceMeters>
          </Trackpoint>
          <Trackpoint>
            <Time>2018-09-15T09:54:24.000Z</Time>
            <Position>
              <LatitudeDegrees>37.171394638717174530029296875</LatitudeDegrees>
              <LongitudeDegrees>-7.90842966176569461822509765625</LongitudeDegrees>
            </Position>
            <AltitudeMeters>298.79998779296875</AltitudeMeters>
            <DistanceMeters>374624.80208652</DistanceMeters>
          </Trackpoint>
          <Trackpoint>
            <Time>2018-09-15T09:54:28.000Z</Time>
            <Position>
              <LatitudeDegrees>37.1711503900587558746337890625</LatitudeDegrees>
              <LongitudeDegrees>-7.90840300731360912322998046875</LongitudeDegrees>
            </Position>
            <AltitudeMeters>298.399993896484375</AltitudeMeters>
            <DistanceMeters>374652.09014552</DistanceMeters>
          </Trackpoint>
          <Trackpoint>
            <Time>2018-09-15T09:54:37.000Z</Time>
            <Position>
              <LatitudeDegrees>37.170596681535243988037109375</LatitudeDegrees>
              <LongitudeDegrees>-7.90832891128957271575927734375</LongitudeDegrees>
            </Position>
            <AltitudeMeters>297.600006103515625</AltitudeMeters>
            <DistanceMeters>374714.06832868</DistanceMeters>
          </Trackpoint>
          <Trackpoint>
            <Time>2018-09-15T09:54:44.000Z</Time>
            <Position>
              <LatitudeDegrees>37.1701904945075511932373046875</LatitudeDegrees>
              <LongitudeDegrees>-7.9081950522959232330322265625</LongitudeDegrees>
            </Position>
            <AltitudeMeters>296.600006103515625</AltitudeMeters>
            <DistanceMeters>374760.81046166</DistanceMeters>
          </Trackpoint>
          <Trackpoint>
            <Time>2018-09-15T09:54:52.000Z</Time>
            <Position>
              <LatitudeDegrees>37.1696634404361248016357421875</LatitudeDegrees>
              <LongitudeDegrees>-7.9078118316829204559326171875</LongitudeDegrees>
            </Position>
            <AltitudeMeters>294.20001220703125</AltitudeMeters>
            <DistanceMeters>374828.60747731</DistanceMeters>
          </Trackpoint>
          <Trackpoint>
            <Time>2018-09-15T09:54:56.000Z</Time>
            <Position>
              <LatitudeDegrees>37.1693633683025836944580078125</LatitudeDegrees>
              <LongitudeDegrees>-7.90759750641882419586181640625</LongitudeDegrees>
            </Position>
            <AltitudeMeters>292.20001220703125</AltitudeMeters>
            <DistanceMeters>374867.03659078</DistanceMeters>
          </Trackpoint>
          <Trackpoint>
            <Time>2018-09-15T09:54:58.000Z</Time>
            <Position>
              <LatitudeDegrees>37.169212996959686279296875</LatitudeDegrees>
              <LongitudeDegrees>-7.907487116754055023193359375</LongitudeDegrees>
            </Position>
            <AltitudeMeters>291.600006103515625</AltitudeMeters>
            <DistanceMeters>374886.42669812</DistanceMeters>
          </Trackpoint>
          <Trackpoint>
            <Time>2018-09-15T09:55:01.000Z</Time>
            <Position>
              <LatitudeDegrees>37.16899213381111621856689453125</LatitudeDegrees>
              <LongitudeDegrees>-7.90732459165155887603759765625</LongitudeDegrees>
            </Position>
            <AltitudeMeters>291.79998779296875</AltitudeMeters>
            <DistanceMeters>374914.92378227</DistanceMeters>
          </Trackpoint>
          <Trackpoint>
            <Time>2018-09-15T09:55:08.000Z</Time>
            <Position>
              <LatitudeDegrees>37.16849240474402904510498046875</LatitudeDegrees>
              <LongitudeDegrees>-7.90697003714740276336669921875</LongitudeDegrees>
            </Position>
            <AltitudeMeters>293.79998779296875</AltitudeMeters>
            <DistanceMeters>374978.81863136</DistanceMeters>
          </Trackpoint>
          <Trackpoint>
            <Time>2018-09-15T09:55:16.000Z</Time>
            <Position>
              <LatitudeDegrees>37.16799368150532245635986328125</LatitudeDegrees>
              <LongitudeDegrees>-7.906560413539409637451171875</LongitudeDegrees>
            </Position>
            <AltitudeMeters>295.399993896484375</AltitudeMeters>
            <DistanceMeters>375045.15980182</DistanceMeters>
          </Trackpoint>
          <Trackpoint>
            <Time>2018-09-15T09:55:17.000Z</Time>
            <Position>
              <LatitudeDegrees>37.16793693602085113525390625</LatitudeDegrees>
              <LongitudeDegrees>-7.90650266222655773162841796875</LongitudeDegrees>
            </Position>
            <AltitudeMeters>295.600006103515625</AltitudeMeters>
            <DistanceMeters>375053.29166814</DistanceMeters>
          </Trackpoint>
          <Trackpoint>
            <Time>2018-09-15T09:55:23.000Z</Time>
            <Position>
              <LatitudeDegrees>37.167597971856594085693359375</LatitudeDegrees>
              <LongitudeDegrees>-7.906144000589847564697265625</LongitudeDegrees>
            </Position>
            <AltitudeMeters>295.20001220703125</AltitudeMeters>
            <DistanceMeters>375102.64027699</DistanceMeters>
          </Trackpoint>
          <Trackpoint>
            <Time>2018-09-15T09:55:25.000Z</Time>
            <Position>
              <LatitudeDegrees>37.16748456470668315887451171875</LatitudeDegrees>
              <LongitudeDegrees>-7.90601684711873531341552734375</LongitudeDegrees>
            </Position>
            <AltitudeMeters>294.600006103515625</AltitudeMeters>
            <DistanceMeters>375119.56703969</DistanceMeters>
          </Trackpoint>
          <Trackpoint>
            <Time>2018-09-15T09:55:32.000Z</Time>
            <Position>
              <LatitudeDegrees>37.16706932522356510162353515625</LatitudeDegrees>
              <LongitudeDegrees>-7.9055607877671718597412109375</LongitudeDegrees>
            </Position>
            <AltitudeMeters>295.79998779296875</AltitudeMeters>
            <DistanceMeters>375180.98518045</DistanceMeters>
          </Trackpoint>
          <Trackpoint>
            <Time>2018-09-15T09:55:35.000Z</Time>
            <Position>
              <LatitudeDegrees>37.16688794083893299102783203125</LatitudeDegrees>
              <LongitudeDegrees>-7.90535920299589633941650390625</LongitudeDegrees>
            </Position>
            <AltitudeMeters>296</AltitudeMeters>
            <DistanceMeters>375207.95268379</DistanceMeters>
          </Trackpoint>
          <Trackpoint>
            <Time>2018-09-15T09:55:37.000Z</Time>
            <Position>
              <LatitudeDegrees>37.1667646430432796478271484375</LatitudeDegrees>
              <LongitudeDegrees>-7.9052281938493251800537109375</LongitudeDegrees>
            </Position>
            <AltitudeMeters>296</AltitudeMeters>
            <DistanceMeters>375225.93459073</DistanceMeters>
          </Trackpoint>
          <Trackpoint>
            <Time>2018-09-15T09:55:44.000Z</Time>
            <Position>
              <LatitudeDegrees>37.1662960946559906005859375</LatitudeDegrees>
              <LongitudeDegrees>-7.9048325680196285247802734375</LongitudeDegrees>
            </Position>
            <AltitudeMeters>296</AltitudeMeters>
            <DistanceMeters>375288.79129655</DistanceMeters>
          </Trackpoint>
          <Trackpoint>
            <Time>2018-09-15T09:55:51.000Z</Time>
            <Position>
              <LatitudeDegrees>37.165818326175212860107421875</LatitudeDegrees>
              <LongitudeDegrees>-7.90449678897857666015625</LongitudeDegrees>
            </Position>
            <AltitudeMeters>297</AltitudeMeters>
            <DistanceMeters>375349.73980438</DistanceMeters>
          </Trackpoint>
          <Trackpoint>
            <Time>2018-09-15T09:55:52.000Z</Time>
            <Position>
              <LatitudeDegrees>37.16575101949274539947509765625</LatitudeDegrees>
              <LongitudeDegrees>-7.90444892831146717071533203125</LongitudeDegrees>
            </Position>
            <AltitudeMeters>297</AltitudeMeters>
            <DistanceMeters>375358.35008473</DistanceMeters>
          </Trackpoint>
          <Trackpoint>
            <Time>2018-09-15T09:55:59.000Z</Time>
            <Position>
              <LatitudeDegrees>37.16527878306806087493896484375</LatitudeDegrees>
              <LongitudeDegrees>-7.90411935187876224517822265625</LongitudeDegrees>
            </Position>
            <AltitudeMeters>298.79998779296875</AltitudeMeters>
            <DistanceMeters>375418.49291191</DistanceMeters>
          </Trackpoint>
          <Trackpoint>
            <Time>2018-09-15T09:56:01.000Z</Time>
            <Position>
              <LatitudeDegrees>37.16514802537858486175537109375</LatitudeDegrees>
              <LongitudeDegrees>-7.90403251536190509796142578125</LongitudeDegrees>
            </Position>
            <AltitudeMeters>299.20001220703125</AltitudeMeters>
            <DistanceMeters>375434.95915238</DistanceMeters>
          </Trackpoint>
          <Trackpoint>
            <Time>2018-09-15T09:56:09.000Z</Time>
            <Position>
              <LatitudeDegrees>37.1646607853472232818603515625</LatitudeDegrees>
              <LongitudeDegrees>-7.90368684567511081695556640625</LongitudeDegrees>
            </Position>
            <AltitudeMeters>300.600006103515625</AltitudeMeters>
            <DistanceMeters>375497.25682838</DistanceMeters>
          </Trackpoint>
          <Trackpoint>
            <Time>2018-09-15T09:56:17.000Z</Time>
            <Position>
              <LatitudeDegrees>37.1641333959996700286865234375</LatitudeDegrees>
              <LongitudeDegrees>-7.903320975601673126220703125</LongitudeDegrees>
            </Position>
            <AltitudeMeters>299.79998779296875</AltitudeMeters>
            <DistanceMeters>375564.3294003</DistanceMeters>
          </Trackpoint>
          <Trackpoint>
            <Time>2018-09-15T09:56:25.000Z</Time>
            <Position>
              <LatitudeDegrees>37.16364540159702301025390625</LatitudeDegrees>
              <LongitudeDegrees>-7.902858965098857879638671875</LongitudeDegrees>
            </Position>
            <AltitudeMeters>299.399993896484375</AltitudeMeters>
            <DistanceMeters>375632.36905866</DistanceMeters>
          </Trackpoint>
          <Trackpoint>
            <Time>2018-09-15T09:56:31.000Z</Time>
            <Position>
              <LatitudeDegrees>37.16335630975663661956787109375</LatitudeDegrees>
              <LongitudeDegrees>-7.9024138860404491424560546875</LongitudeDegrees>
            </Position>
            <AltitudeMeters>299.79998779296875</AltitudeMeters>
            <DistanceMeters>375683.29859054</DistanceMeters>
          </Trackpoint>
          <Trackpoint>
            <Time>2018-09-15T09:56:38.000Z</Time>
            <Position>
              <LatitudeDegrees>37.16316469945013523101806640625</LatitudeDegrees>
              <LongitudeDegrees>-7.90177091024816036224365234375</LongitudeDegrees>
            </Position>
            <AltitudeMeters>300.600006103515625</AltitudeMeters>
            <DistanceMeters>375744.18661945</DistanceMeters>
          </Trackpoint>
          <Trackpoint>
            <Time>2018-09-15T09:56:45.000Z</Time>
            <Position>
              <LatitudeDegrees>37.16286412440240383148193359375</LatitudeDegrees>
              <LongitudeDegrees>-7.9012052156031131744384765625</LongitudeDegrees>
            </Position>
            <AltitudeMeters>300.79998779296875</AltitudeMeters>
            <DistanceMeters>375804.49318085</DistanceMeters>
          </Trackpoint>
          <Trackpoint>
            <Time>2018-09-15T09:56:53.000Z</Time>
            <Position>
              <LatitudeDegrees>37.1623943187296390533447265625</LatitudeDegrees>
              <LongitudeDegrees>-7.900714538991451263427734375</LongitudeDegrees>
            </Position>
            <AltitudeMeters>301.600006103515625</AltitudeMeters>
            <DistanceMeters>375872.526203</DistanceMeters>
          </Trackpoint>
          <Trackpoint>
            <Time>2018-09-15T09:57:00.000Z</Time>
            <Position>
              <LatitudeDegrees>37.16200900264084339141845703125</LatitudeDegrees>
              <LongitudeDegrees>-7.90030390955507755279541015625</LongitudeDegrees>
            </Position>
            <AltitudeMeters>302.20001220703125</AltitudeMeters>
            <DistanceMeters>375928.79229013</DistanceMeters>
          </Trackpoint>
          <Trackpoint>
            <Time>2018-09-15T09:57:08.000Z</Time>
            <Position>
              <LatitudeDegrees>37.16152846813201904296875</LatitudeDegrees>
              <LongitudeDegrees>-7.89987106807529926300048828125</LongitudeDegrees>
            </Position>
            <AltitudeMeters>305</AltitudeMeters>
            <DistanceMeters>375994.63010065</DistanceMeters>
          </Trackpoint>
          <Trackpoint>
            <Time>2018-09-15T09:57:12.000Z</Time>
            <Position>
              <LatitudeDegrees>37.1611596643924713134765625</LatitudeDegrees>
              <LongitudeDegrees>-7.89976931177079677581787109375</LongitudeDegrees>
            </Position>
            <AltitudeMeters>304.600006103515625</AltitudeMeters>
            <DistanceMeters>376036.65931102</DistanceMeters>
          </Trackpoint>
          <Trackpoint>
            <Time>2018-09-15T09:57:17.000Z</Time>
            <Position>
              <LatitudeDegrees>37.16063470579683780670166015625</LatitudeDegrees>
              <LongitudeDegrees>-7.89967275224626064300537109375</LongitudeDegrees>
            </Position>
            <AltitudeMeters>301.20001220703125</AltitudeMeters>
            <DistanceMeters>376095.71273735</DistanceMeters>
          </Trackpoint>
          <Trackpoint>
            <Time>2018-09-15T09:57:19.000Z</Time>
            <Position>
              <LatitudeDegrees>37.16041375882923603057861328125</LatitudeDegrees>
              <LongitudeDegrees>-7.89962916634976863861083984375</LongitudeDegrees>
            </Position>
            <AltitudeMeters>300.600006103515625</AltitudeMeters>
            <DistanceMeters>376120.6066534</DistanceMeters>
          </Trackpoint>
          <Trackpoint>
            <Time>2018-09-15T09:57:21.000Z</Time>
            <Position>
              <LatitudeDegrees>37.16018392704427242279052734375</LatitudeDegrees>
              <LongitudeDegrees>-7.899583317339420318603515625</LongitudeDegrees>
            </Position>
            <AltitudeMeters>298</AltitudeMeters>
            <DistanceMeters>376146.50871161</DistanceMeters>
          </Trackpoint>
          <Trackpoint>
            <Time>2018-09-15T09:57:23.000Z</Time>
            <Position>
              <LatitudeDegrees>37.1599499881267547607421875</LatitudeDegrees>
              <LongitudeDegrees>-7.8995284996926784515380859375</LongitudeDegrees>
            </Position>
            <AltitudeMeters>295</AltitudeMeters>
            <DistanceMeters>376172.996801</DistanceMeters>
          </Trackpoint>
          <Trackpoint>
            <Time>2018-09-15T09:57:25.000Z</Time>
            <Position>
              <LatitudeDegrees>37.15971085242927074432373046875</LatitudeDegrees>
              <LongitudeDegrees>-7.89946353994309902191162109375</LongitudeDegrees>
            </Position>
            <AltitudeMeters>292.20001220703125</AltitudeMeters>
            <DistanceMeters>376200.22954082</DistanceMeters>
          </Trackpoint>
          <Trackpoint>
            <Time>2018-09-15T09:57:26.000Z</Time>
            <Position>
              <LatitudeDegrees>37.15959099121391773223876953125</LatitudeDegrees>
              <LongitudeDegrees>-7.8994287550449371337890625</LongitudeDegrees>
            </Position>
            <AltitudeMeters>291</AltitudeMeters>
            <DistanceMeters>376213.9219638</DistanceMeters>
          </Trackpoint>
          <Trackpoint>
            <Time>2018-09-15T09:57:27.000Z</Time>
            <Position>
              <LatitudeDegrees>37.15947297401726245880126953125</LatitudeDegrees>
              <LongitudeDegrees>-7.89938793517649173736572265625</LongitudeDegrees>
            </Position>
            <AltitudeMeters>289.600006103515625</AltitudeMeters>
            <DistanceMeters>376227.54761504</DistanceMeters>
          </Trackpoint>
          <Trackpoint>
            <Time>2018-09-15T09:57:28.000Z</Time>
            <Position>
              <LatitudeDegrees>37.15935898013412952423095703125</LatitudeDegrees>
              <LongitudeDegrees>-7.8993347100913524627685546875</LongitudeDegrees>
            </Position>
            <AltitudeMeters>288</AltitudeMeters>
            <DistanceMeters>376241.08517027</DistanceMeters>
          </Trackpoint>
          <Trackpoint>
            <Time>2018-09-15T09:57:29.000Z</Time>
            <Position>
              <LatitudeDegrees>37.15925252996385097503662109375</LatitudeDegrees>
              <LongitudeDegrees>-7.8992599435150623321533203125</LongitudeDegrees>
            </Position>
            <AltitudeMeters>286.399993896484375</AltitudeMeters>
            <DistanceMeters>376254.66302137</DistanceMeters>
          </Trackpoint>
          <Trackpoint>
            <Time>2018-09-15T09:57:31.000Z</Time>
            <Position>
              <LatitudeDegrees>37.15908028185367584228515625</LatitudeDegrees>
              <LongitudeDegrees>-7.89904410950839519500732421875</LongitudeDegrees>
            </Position>
            <AltitudeMeters>284.600006103515625</AltitudeMeters>
            <DistanceMeters>376281.75713576</DistanceMeters>
          </Trackpoint>
          <Trackpoint>
            <Time>2018-09-15T09:57:33.000Z</Time>
            <Position>
              <LatitudeDegrees>37.15899369679391384124755859375</LatitudeDegrees>
              <LongitudeDegrees>-7.89876147173345088958740234375</LongitudeDegrees>
            </Position>
            <AltitudeMeters>283.600006103515625</AltitudeMeters>
            <DistanceMeters>376308.6164328</DistanceMeters>
          </Trackpoint>
          <Trackpoint>
            <Time>2018-09-15T09:57:34.000Z</Time>
            <Position>
              <LatitudeDegrees>37.1589899249374866485595703125</LatitudeDegrees>
              <LongitudeDegrees>-7.89861202239990234375</LongitudeDegrees>
            </Position>
            <AltitudeMeters>283.399993896484375</AltitudeMeters>
            <DistanceMeters>376321.87972497</DistanceMeters>
          </Trackpoint>
          <Trackpoint>
            <Time>2018-09-15T09:57:35.000Z</Time>
            <Position>
              <LatitudeDegrees>37.15901188552379608154296875</LatitudeDegrees>
              <LongitudeDegrees>-7.898466847836971282958984375</LongitudeDegrees>
            </Position>
            <AltitudeMeters>283.600006103515625</AltitudeMeters>
            <DistanceMeters>376334.98721269</DistanceMeters>
          </Trackpoint>
          <Trackpoint>
            <Time>2018-09-15T09:57:36.000Z</Time>
            <Position>
              <LatitudeDegrees>37.15905438177287578582763671875</LatitudeDegrees>
              <LongitudeDegrees>-7.89832770824432373046875</LongitudeDegrees>
            </Position>
            <AltitudeMeters>283.20001220703125</AltitudeMeters>
            <DistanceMeters>376348.20446879</DistanceMeters>
          </Trackpoint>
          <Trackpoint>
            <Time>2018-09-15T09:57:37.000Z</Time>
            <Position>
              <LatitudeDegrees>37.1591089479625225067138671875</LatitudeDegrees>
              <LongitudeDegrees>-7.89819552563130855560302734375</LongitudeDegrees>
            </Position>
            <AltitudeMeters>282.20001220703125</AltitudeMeters>
            <DistanceMeters>376361.40907958</DistanceMeters>
          </Trackpoint>
          <Trackpoint>
            <Time>2018-09-15T09:57:38.000Z</Time>
            <Position>
              <LatitudeDegrees>37.159170806407928466796875</LatitudeDegrees>
              <LongitudeDegrees>-7.89806610904633998870849609375</LongitudeDegrees>
            </Position>
            <AltitudeMeters>282</AltitudeMeters>
            <DistanceMeters>376374.79503516</DistanceMeters>
          </Trackpoint>
          <Trackpoint>
            <Time>2018-09-15T09:57:40.000Z</Time>
            <Position>
              <LatitudeDegrees>37.15929678641259670257568359375</LatitudeDegrees>
              <LongitudeDegrees>-7.89780677296221256256103515625</LongitudeDegrees>
            </Position>
            <AltitudeMeters>281.79998779296875</AltitudeMeters>
            <DistanceMeters>376401.73556957</DistanceMeters>
          </Trackpoint>
          <Trackpoint>
            <Time>2018-09-15T09:57:42.000Z</Time>
            <Position>
              <LatitudeDegrees>37.159427963197231292724609375</LatitudeDegrees>
              <LongitudeDegrees>-7.897546179592609405517578125</LongitudeDegrees>
            </Position>
            <AltitudeMeters>281.399993896484375</AltitudeMeters>
            <DistanceMeters>376429.07586342</DistanceMeters>
          </Trackpoint>
          <Trackpoint>
            <Time>2018-09-15T09:57:44.000Z</Time>
            <Position>
              <LatitudeDegrees>37.15955880470573902130126953125</LatitudeDegrees>
              <LongitudeDegrees>-7.897282652556896209716796875</LongitudeDegrees>
            </Position>
            <AltitudeMeters>280</AltitudeMeters>
            <DistanceMeters>376456.61656605</DistanceMeters>
          </Trackpoint>
          <Trackpoint>
            <Time>2018-09-15T09:57:48.000Z</Time>
            <Position>
              <LatitudeDegrees>37.15981579385697841644287109375</LatitudeDegrees>
              <LongitudeDegrees>-7.8967628069221973419189453125</LongitudeDegrees>
            </Position>
            <AltitudeMeters>278.20001220703125</AltitudeMeters>
            <DistanceMeters>376510.87923301</DistanceMeters>
          </Trackpoint>
          <Trackpoint>
            <Time>2018-09-15T09:57:49.000Z</Time>
            <Position>
              <LatitudeDegrees>37.15986608527600765228271484375</LatitudeDegrees>
              <LongitudeDegrees>-7.89662509225308895111083984375</LongitudeDegrees>
            </Position>
            <AltitudeMeters>277.600006103515625</AltitudeMeters>
            <DistanceMeters>376524.31602386</DistanceMeters>
          </Trackpoint>
          <Trackpoint>
            <Time>2018-09-15T09:57:51.000Z</Time>
            <Position>
              <LatitudeDegrees>37.15990715660154819488525390625</LatitudeDegrees>
              <LongitudeDegrees>-7.89632820524275302886962890625</LongitudeDegrees>
            </Position>
            <AltitudeMeters>275.79998779296875</AltitudeMeters>
            <DistanceMeters>376551.04421942</DistanceMeters>
          </Trackpoint>
          <Trackpoint>
            <Time>2018-09-15T09:57:53.000Z</Time>
            <Position>
              <LatitudeDegrees>37.15984647162258625030517578125</LatitudeDegrees>
              <LongitudeDegrees>-7.896039448678493499755859375</LongitudeDegrees>
            </Position>
            <AltitudeMeters>273.20001220703125</AltitudeMeters>
            <DistanceMeters>376577.53316107</DistanceMeters>
          </Trackpoint>
          <Trackpoint>
            <Time>2018-09-15T09:57:56.000Z</Time>
            <Position>
              <LatitudeDegrees>37.15956685133278369903564453125</LatitudeDegrees>
              <LongitudeDegrees>-7.89574247784912586212158203125</LongitudeDegrees>
            </Position>
            <AltitudeMeters>270.20001220703125</AltitudeMeters>
            <DistanceMeters>376618.30704136</DistanceMeters>
          </Trackpoint>
          <Trackpoint>
            <Time>2018-09-15T09:57:58.000Z</Time>
            <Position>
              <LatitudeDegrees>37.15932779945433139801025390625</LatitudeDegrees>
              <LongitudeDegrees>-7.89564792998135089874267578125</LongitudeDegrees>
            </Position>
            <AltitudeMeters>268.399993896484375</AltitudeMeters>
            <DistanceMeters>376646.20446362</DistanceMeters>
          </Trackpoint>
          <Trackpoint>
            <Time>2018-09-15T09:58:00.000Z</Time>
            <Position>
              <LatitudeDegrees>37.159087657928466796875</LatitudeDegrees>
              <LongitudeDegrees>-7.8955779410898685455322265625</LongitudeDegrees>
            </Position>
            <AltitudeMeters>266</AltitudeMeters>
            <DistanceMeters>376673.64432211</DistanceMeters>
          </Trackpoint>
          <Trackpoint>
            <Time>2018-09-15T09:58:02.000Z</Time>
            <Position>
              <LatitudeDegrees>37.1588538028299808502197265625</LatitudeDegrees>
              <LongitudeDegrees>-7.89550208486616611480712890625</LongitudeDegrees>
            </Position>
            <AltitudeMeters>265.600006103515625</AltitudeMeters>
            <DistanceMeters>376700.52865432</DistanceMeters>
          </Trackpoint>
          <Trackpoint>
            <Time>2018-09-15T09:58:03.000Z</Time>
            <Position>
              <LatitudeDegrees>37.15874207206070423126220703125</LatitudeDegrees>
              <LongitudeDegrees>-7.89545246399939060211181640625</LongitudeDegrees>
            </Position>
            <AltitudeMeters>265.399993896484375</AltitudeMeters>
            <DistanceMeters>376713.72026541</DistanceMeters>
          </Trackpoint>
          <Trackpoint>
            <Time>2018-09-15T09:58:04.000Z</Time>
            <Position>
              <LatitudeDegrees>37.15863528661429882049560546875</LatitudeDegrees>
              <LongitudeDegrees>-7.89538976736366748809814453125</LongitudeDegrees>
            </Position>
            <AltitudeMeters>265</AltitudeMeters>
            <DistanceMeters>376726.84221259</DistanceMeters>
          </Trackpoint>
          <Trackpoint>
            <Time>2018-09-15T09:58:05.000Z</Time>
            <Position>
              <LatitudeDegrees>37.1585349552333354949951171875</LatitudeDegrees>
              <LongitudeDegrees>-7.89531416259706020355224609375</LongitudeDegrees>
            </Position>
            <AltitudeMeters>264.399993896484375</AltitudeMeters>
            <DistanceMeters>376739.86815349</DistanceMeters>
          </Trackpoint>
          <Trackpoint>
            <Time>2018-09-15T09:58:07.000Z</Time>
            <Position>
              <LatitudeDegrees>37.1583663113415241241455078125</LatitudeDegrees>
              <LongitudeDegrees>-7.89514065720140933990478515625</LongitudeDegrees>
            </Position>
            <AltitudeMeters>263.399993896484375</AltitudeMeters>
            <DistanceMeters>376764.14129498</DistanceMeters>
          </Trackpoint>
          <Trackpoint>
            <Time>2018-09-15T09:58:09.000Z</Time>
            <Position>
              <LatitudeDegrees>37.15824938379228115081787109375</LatitudeDegrees>
              <LongitudeDegrees>-7.8949697501957416534423828125</LongitudeDegrees>
            </Position>
            <AltitudeMeters>262.600006103515625</AltitudeMeters>
            <DistanceMeters>376784.12132549</DistanceMeters>
          </Trackpoint>
          <Trackpoint>
            <Time>2018-09-15T09:58:11.000Z</Time>
            <Position>
              <LatitudeDegrees>37.15815131552517414093017578125</LatitudeDegrees>
              <LongitudeDegrees>-7.89482767693698406219482421875</LongitudeDegrees>
            </Position>
            <AltitudeMeters>261.79998779296875</AltitudeMeters>
            <DistanceMeters>376800.79357229</DistanceMeters>
          </Trackpoint>
          <Trackpoint>
            <Time>2018-09-15T09:58:15.000Z</Time>
            <Position>
              <LatitudeDegrees>37.157927267253398895263671875</LatitudeDegrees>
              <LongitudeDegrees>-7.89490311406552791595458984375</LongitudeDegrees>
            </Position>
            <AltitudeMeters>261.600006103515625</AltitudeMeters>
            <DistanceMeters>376826.61287443</DistanceMeters>
          </Trackpoint>
          <Trackpoint>
            <Time>2018-09-15T09:58:16.000Z</Time>
            <Position>
              <LatitudeDegrees>37.15788879431784152984619140625</LatitudeDegrees>
              <LongitudeDegrees>-7.8949858434498310089111328125</LongitudeDegrees>
            </Position>
            <AltitudeMeters>261.79998779296875</AltitudeMeters>
            <DistanceMeters>376835.10913426</DistanceMeters>
          </Trackpoint>
          <Trackpoint>
            <Time>2018-09-15T09:58:17.000Z</Time>
            <Position>
              <LatitudeDegrees>37.15784688480198383331298828125</LatitudeDegrees>
              <LongitudeDegrees>-7.8950736857950687408447265625</LongitudeDegrees>
            </Position>
            <AltitudeMeters>262</AltitudeMeters>
            <DistanceMeters>376844.19102384</DistanceMeters>
          </Trackpoint>
          <Trackpoint>
            <Time>2018-09-15T09:58:18.000Z</Time>
            <Position>
              <LatitudeDegrees>37.15780086815357208251953125</LatitudeDegrees>
              <LongitudeDegrees>-7.89516161195933818817138671875</LongitudeDegrees>
            </Position>
            <AltitudeMeters>262.20001220703125</AltitudeMeters>
            <DistanceMeters>376853.52204721</DistanceMeters>
          </Trackpoint>
          <Trackpoint>
            <Time>2018-09-15T09:58:20.000Z</Time>
            <Position>
              <LatitudeDegrees>37.15769533999264240264892578125</LatitudeDegrees>
              <LongitudeDegrees>-7.895335368812084197998046875</LongitudeDegrees>
            </Position>
            <AltitudeMeters>262.600006103515625</AltitudeMeters>
            <DistanceMeters>376872.90050842</DistanceMeters>
          </Trackpoint>
          <Trackpoint>
            <Time>2018-09-15T09:58:22.000Z</Time>
            <Position>
              <LatitudeDegrees>37.15757883153855800628662109375</LatitudeDegrees>
              <LongitudeDegrees>-7.89550795219838619232177734375</LongitudeDegrees>
            </Position>
            <AltitudeMeters>263</AltitudeMeters>
            <DistanceMeters>376892.96352633</DistanceMeters>
          </Trackpoint>
          <Trackpoint>
            <Time>2018-09-15T09:58:29.000Z</Time>
            <Position>
              <LatitudeDegrees>37.15715839527547359466552734375</LatitudeDegrees>
              <LongitudeDegrees>-7.896026037633419036865234375</LongitudeDegrees>
            </Position>
            <AltitudeMeters>263</AltitudeMeters>
            <DistanceMeters>376958.55206326</DistanceMeters>
          </Trackpoint>
          <Trackpoint>
            <Time>2018-09-15T09:58:32.000Z</Time>
            <Position>
              <LatitudeDegrees>37.15698539279401302337646484375</LatitudeDegrees>
              <LongitudeDegrees>-7.89620004594326019287109375</LongitudeDegrees>
            </Position>
            <AltitudeMeters>262.600006103515625</AltitudeMeters>
            <DistanceMeters>376983.23048452</DistanceMeters>
          </Trackpoint>
          <Trackpoint>
            <Time>2018-09-15T09:58:37.000Z</Time>
            <Position>
              <LatitudeDegrees>37.1566966362297534942626953125</LatitudeDegrees>
              <LongitudeDegrees>-7.8964587114751338958740234375</LongitudeDegrees>
            </Position>
            <AltitudeMeters>261.79998779296875</AltitudeMeters>
            <DistanceMeters>377022.71965862</DistanceMeters>
          </Trackpoint>
          <Trackpoint>
            <Time>2018-09-15T09:58:41.000Z</Time>
            <Position>
              <LatitudeDegrees>37.15646202675998210906982421875</LatitudeDegrees>
              <LongitudeDegrees>-7.896638251841068267822265625</LongitudeDegrees>
            </Position>
            <AltitudeMeters>261</AltitudeMeters>
            <DistanceMeters>377053.30586334</DistanceMeters>
          </Trackpoint>
          <Trackpoint>
            <Time>2018-09-15T09:58:45.000Z</Time>
            <Position>
              <LatitudeDegrees>37.156212665140628814697265625</LatitudeDegrees>
              <LongitudeDegrees>-7.8968006931245326995849609375</LongitudeDegrees>
            </Position>
            <AltitudeMeters>260.20001220703125</AltitudeMeters>
            <DistanceMeters>377084.57817184</DistanceMeters>
          </Trackpoint>
          <Trackpoint>
            <Time>2018-09-15T09:58:53.000Z</Time>
            <Position>
              <LatitudeDegrees>37.15565032325685024261474609375</LatitudeDegrees>
              <LongitudeDegrees>-7.897120378911495208740234375</LongitudeDegrees>
            </Position>
            <AltitudeMeters>258.399993896484375</AltitudeMeters>
            <DistanceMeters>377153.29267171</DistanceMeters>
          </Trackpoint>
          <Trackpoint>
            <Time>2018-09-15T09:58:56.000Z</Time>
            <Position>
              <LatitudeDegrees>37.15541646815836429595947265625</LatitudeDegrees>
              <LongitudeDegrees>-7.89724049158394336700439453125</LongitudeDegrees>
            </Position>
            <AltitudeMeters>257.399993896484375</AltitudeMeters>
            <DistanceMeters>377181.41752915</DistanceMeters>
          </Trackpoint>
          <Trackpoint>
            <Time>2018-09-15T09:58:58.000Z</Time>
            <Position>
              <LatitudeDegrees>37.1552593074738979339599609375</LatitudeDegrees>
              <LongitudeDegrees>-7.89732095785439014434814453125</LongitudeDegrees>
            </Position>
            <AltitudeMeters>257</AltitudeMeters>
            <DistanceMeters>377200.31040775</DistanceMeters>
          </Trackpoint>
          <Trackpoint>
            <Time>2018-09-15T09:59:01.000Z</Time>
            <Position>
              <LatitudeDegrees>37.15502075850963592529296875</LatitudeDegrees>
              <LongitudeDegrees>-7.8974347002804279327392578125</LongitudeDegrees>
            </Position>
            <AltitudeMeters>256</AltitudeMeters>
            <DistanceMeters>377228.71401825</DistanceMeters>
          </Trackpoint>
          <Trackpoint>
            <Time>2018-09-15T09:59:06.000Z</Time>
            <Position>
              <LatitudeDegrees>37.15462035499513149261474609375</LatitudeDegrees>
              <LongitudeDegrees>-7.89761851541697978973388671875</LongitudeDegrees>
            </Position>
            <AltitudeMeters>255.399993896484375</AltitudeMeters>
            <DistanceMeters>377276.16899316</DistanceMeters>
          </Trackpoint>
          <Trackpoint>
            <Time>2018-09-15T09:59:10.000Z</Time>
            <Position>
              <LatitudeDegrees>37.15429765172302722930908203125</LatitudeDegrees>
              <LongitudeDegrees>-7.89773955009877681732177734375</LongitudeDegrees>
            </Position>
            <AltitudeMeters>255.8000030517578125</AltitudeMeters>
            <DistanceMeters>377313.65700187</DistanceMeters>
          </Trackpoint>
          <Trackpoint>
            <Time>2018-09-15T09:59:11.000Z</Time>
            <Position>
              <LatitudeDegrees>37.15421802364289760589599609375</LatitudeDegrees>
              <LongitudeDegrees>-7.8977659530937671661376953125</LongitudeDegrees>
            </Position>
            <AltitudeMeters>255.8000030517578125</AltitudeMeters>
            <DistanceMeters>377322.824002</DistanceMeters>
          </Trackpoint>
          <Trackpoint>
            <Time>2018-09-15T09:59:12.000Z</Time>
            <Position>
              <LatitudeDegrees>37.15413856320083141326904296875</LatitudeDegrees>
              <LongitudeDegrees>-7.8977907635271549224853515625</LongitudeDegrees>
            </Position>
            <AltitudeMeters>255.8000030517578125</AltitudeMeters>
            <DistanceMeters>377331.93765347</DistanceMeters>
          </Trackpoint>
          <Trackpoint>
            <Time>2018-09-15T09:59:13.000Z</Time>
            <Position>
              <LatitudeDegrees>37.15405927039682865142822265625</LatitudeDegrees>
              <LongitudeDegrees>-7.897819094359874725341796875</LongitudeDegrees>
            </Position>
            <AltitudeMeters>255.399993896484375</AltitudeMeters>
            <DistanceMeters>377341.11351489</DistanceMeters>
          </Trackpoint>
          <Trackpoint>
            <Time>2018-09-15T09:59:15.000Z</Time>
            <Position>
              <LatitudeDegrees>37.15389984659850597381591796875</LatitudeDegrees>
              <LongitudeDegrees>-7.8978769294917583465576171875</LongitudeDegrees>
            </Position>
            <AltitudeMeters>254.1999969482421875</AltitudeMeters>
            <DistanceMeters>377359.58442034</DistanceMeters>
          </Trackpoint>
          <Trackpoint>
            <Time>2018-09-15T09:59:19.000Z</Time>
            <Position>
              <LatitudeDegrees>37.15357697568833827972412109375</LatitudeDegrees>
              <LongitudeDegrees>-7.89800626225769519805908203125</LongitudeDegrees>
            </Position>
            <AltitudeMeters>252.600006103515625</AltitudeMeters>
            <DistanceMeters>377397.30763225</DistanceMeters>
          </Trackpoint>
          <Trackpoint>
            <Time>2018-09-15T09:59:22.000Z</Time>
            <Position>
              <LatitudeDegrees>37.153367511928081512451171875</LatitudeDegrees>
              <LongitudeDegrees>-7.89813031442463397979736328125</LongitudeDegrees>
            </Position>
            <AltitudeMeters>252.399993896484375</AltitudeMeters>
            <DistanceMeters>377423.08808389</DistanceMeters>
          </Trackpoint>
          <Trackpoint>
            <Time>2018-09-15T09:59:26.000Z</Time>
            <Position>
              <LatitudeDegrees>37.15324304066598415374755859375</LatitudeDegrees>
              <LongitudeDegrees>-7.897896878421306610107421875</LongitudeDegrees>
            </Position>
            <AltitudeMeters>251</AltitudeMeters>
            <DistanceMeters>377448.00321132</DistanceMeters>
          </Trackpoint>
          <Trackpoint>
            <Time>2018-09-15T09:59:29.000Z</Time>
            <Position>
              <LatitudeDegrees>37.15327288024127483367919921875</LatitudeDegrees>
              <LongitudeDegrees>-7.89764181710779666900634765625</LongitudeDegrees>
            </Position>
            <AltitudeMeters>250.1999969482421875</AltitudeMeters>
            <DistanceMeters>377470.87229389</DistanceMeters>
          </Trackpoint>
          <Trackpoint>
            <Time>2018-09-15T09:59:30.000Z</Time>
            <Position>
              <LatitudeDegrees>37.15327732264995574951171875</LatitudeDegrees>
              <LongitudeDegrees>-7.897554226219654083251953125</LongitudeDegrees>
            </Position>
            <AltitudeMeters>250</AltitudeMeters>
            <DistanceMeters>377478.65810811</DistanceMeters>
          </Trackpoint>
          <Trackpoint>
            <Time>2018-09-15T09:59:37.000Z</Time>
            <Position>
              <LatitudeDegrees>37.15330682694911956787109375</LatitudeDegrees>
              <LongitudeDegrees>-7.8969371505081653594970703125</LongitudeDegrees>
            </Position>
            <AltitudeMeters>250.8000030517578125</AltitudeMeters>
            <DistanceMeters>377533.49749723</DistanceMeters>
          </Trackpoint>
          <Trackpoint>
            <Time>2018-09-15T09:59:41.000Z</Time>
            <Position>
              <LatitudeDegrees>37.15331881307065486907958984375</LatitudeDegrees>
              <LongitudeDegrees>-7.89659189991652965545654296875</LongitudeDegrees>
            </Position>
            <AltitudeMeters>250.399993896484375</AltitudeMeters>
            <DistanceMeters>377564.15388704</DistanceMeters>
          </Trackpoint>
          <Trackpoint>
            <Time>2018-09-15T09:59:49.000Z</Time>
            <Position>
              <LatitudeDegrees>37.15326198376715183258056640625</LatitudeDegrees>
              <LongitudeDegrees>-7.89590005762875080108642578125</LongitudeDegrees>
            </Position>
            <AltitudeMeters>247</AltitudeMeters>
            <DistanceMeters>377625.85250149</DistanceMeters>
          </Trackpoint>
          <Trackpoint>
            <Time>2018-09-15T09:59:52.000Z</Time>
            <Position>
              <LatitudeDegrees>37.1531906537711620330810546875</LatitudeDegrees>
              <LongitudeDegrees>-7.895634435117244720458984375</LongitudeDegrees>
            </Position>
            <AltitudeMeters>245.8000030517578125</AltitudeMeters>
            <DistanceMeters>377650.71719964</DistanceMeters>
          </Trackpoint>
          <Trackpoint>
            <Time>2018-09-15T09:59:58.000Z</Time>
            <Position>
              <LatitudeDegrees>37.1529120393097400665283203125</LatitudeDegrees>
              <LongitudeDegrees>-7.89519966579973697662353515625</LongitudeDegrees>
            </Position>
            <AltitudeMeters>244</AltitudeMeters>
            <DistanceMeters>377700.2065067</DistanceMeters>
          </Trackpoint>
          <Trackpoint>
            <Time>2018-09-15T10:00:00.000Z</Time>
            <Position>
              <LatitudeDegrees>37.152776755392551422119140625</LatitudeDegrees>
              <LongitudeDegrees>-7.89509908296167850494384765625</LongitudeDegrees>
            </Position>
            <AltitudeMeters>244</AltitudeMeters>
            <DistanceMeters>377717.70897262</DistanceMeters>
          </Trackpoint>
          <Trackpoint>
            <Time>2018-09-15T10:00:01.000Z</Time>
            <Position>
              <LatitudeDegrees>37.15270475484430789947509765625</LatitudeDegrees>
              <LongitudeDegrees>-7.89505214430391788482666015625</LongitudeDegrees>
            </Position>
            <AltitudeMeters>244</AltitudeMeters>
            <DistanceMeters>377726.74001079</DistanceMeters>
          </Trackpoint>
          <Trackpoint>
            <Time>2018-09-15T10:00:03.000Z</Time>
            <Position>
              <LatitudeDegrees>37.15256108902394771575927734375</LatitudeDegrees>
              <LongitudeDegrees>-7.89495776407420635223388671875</LongitudeDegrees>
            </Position>
            <AltitudeMeters>244.1999969482421875</AltitudeMeters>
            <DistanceMeters>377744.78958414</DistanceMeters>
          </Trackpoint>
          <Trackpoint>
            <Time>2018-09-15T10:00:05.000Z</Time>
            <Position>
              <LatitudeDegrees>37.152416668832302093505859375</LatitudeDegrees>
              <LongitudeDegrees>-7.89486053399741649627685546875</LongitudeDegrees>
            </Position>
            <AltitudeMeters>243.600006103515625</AltitudeMeters>
            <DistanceMeters>377763.03199097</DistanceMeters>
          </Trackpoint>
          <Trackpoint>
            <Time>2018-09-15T10:00:10.000Z</Time>
            <Position>
              <LatitudeDegrees>37.1520523913204669952392578125</LatitudeDegrees>
              <LongitudeDegrees>-7.8945965878665447235107421875</LongitudeDegrees>
            </Position>
            <AltitudeMeters>241.1999969482421875</AltitudeMeters>
            <DistanceMeters>377809.85230022</DistanceMeters>
          </Trackpoint>
          <Trackpoint>
            <Time>2018-09-15T10:00:14.000Z</Time>
            <Position>
              <LatitudeDegrees>37.1517526544630527496337890625</LatitudeDegrees>
              <LongitudeDegrees>-7.89439416490495204925537109375</LongitudeDegrees>
            </Position>
            <AltitudeMeters>240.399993896484375</AltitudeMeters>
            <DistanceMeters>377847.73960735</DistanceMeters>
          </Trackpoint>
          <Trackpoint>
            <Time>2018-09-15T10:00:16.000Z</Time>
            <Position>
              <LatitudeDegrees>37.1516034565865993499755859375</LatitudeDegrees>
              <LongitudeDegrees>-7.8942827694118022918701171875</LongitudeDegrees>
            </Position>
            <AltitudeMeters>239.8000030517578125</AltitudeMeters>
            <DistanceMeters>377867.06370503</DistanceMeters>
          </Trackpoint>
          <Trackpoint>
            <Time>2018-09-15T10:00:17.000Z</Time>
            <Position>
              <LatitudeDegrees>37.1515276841819286346435546875</LatitudeDegrees>
              <LongitudeDegrees>-7.89422501809895038604736328125</LongitudeDegrees>
            </Position>
            <AltitudeMeters>239.1999969482421875</AltitudeMeters>
            <DistanceMeters>377876.93139545</DistanceMeters>
          </Trackpoint>
          <Trackpoint>
            <Time>2018-09-15T10:00:20.000Z</Time>
            <Position>
              <LatitudeDegrees>37.1512919850647449493408203125</LatitudeDegrees>
              <LongitudeDegrees>-7.8940393589437007904052734375</LongitudeDegrees>
            </Position>
            <AltitudeMeters>237</AltitudeMeters>
            <DistanceMeters>377907.90689775</DistanceMeters>
          </Trackpoint>
          <Trackpoint>
            <Time>2018-09-15T10:00:23.000Z</Time>
            <Position>
              <LatitudeDegrees>37.1510445512831211090087890625</LatitudeDegrees>
              <LongitudeDegrees>-7.893833331763744354248046875</LongitudeDegrees>
            </Position>
            <AltitudeMeters>234.8000030517578125</AltitudeMeters>
            <DistanceMeters>377940.95980637</DistanceMeters>
          </Trackpoint>
          <Trackpoint>
            <Time>2018-09-15T10:00:25.000Z</Time>
            <Position>
              <LatitudeDegrees>37.150865010917186737060546875</LatitudeDegrees>
              <LongitudeDegrees>-7.89371103979647159576416015625</LongitudeDegrees>
            </Position>
            <AltitudeMeters>233.8000030517578125</AltitudeMeters>
            <DistanceMeters>377963.69801336</DistanceMeters>
          </Trackpoint>
          <Trackpoint>
            <Time>2018-09-15T10:00:27.000Z</Time>
            <Position>
              <LatitudeDegrees>37.15067717246711254119873046875</LatitudeDegrees>
              <LongitudeDegrees>-7.89360391907393932342529296875</LongitudeDegrees>
            </Position>
            <AltitudeMeters>233.1999969482421875</AltitudeMeters>
            <DistanceMeters>377986.66323956</DistanceMeters>
          </Trackpoint>
          <Trackpoint>
            <Time>2018-09-15T10:00:28.000Z</Time>
            <Position>
              <LatitudeDegrees>37.15058396570384502410888671875</LatitudeDegrees>
              <LongitudeDegrees>-7.89354658685624599456787109375</LongitudeDegrees>
            </Position>
            <AltitudeMeters>232.8000030517578125</AltitudeMeters>
            <DistanceMeters>377998.21709693</DistanceMeters>
          </Trackpoint>
          <Trackpoint>
            <Time>2018-09-15T10:00:29.000Z</Time>
            <Position>
              <LatitudeDegrees>37.15048790909349918365478515625</LatitudeDegrees>
              <LongitudeDegrees>-7.8934995643794536590576171875</LongitudeDegrees>
            </Position>
            <AltitudeMeters>232.1999969482421875</AltitudeMeters>
            <DistanceMeters>378009.69331865</DistanceMeters>
          </Trackpoint>
          <Trackpoint>
            <Time>2018-09-15T10:00:31.000Z</Time>
            <Position>
              <LatitudeDegrees>37.15028489939868450164794921875</LatitudeDegrees>
              <LongitudeDegrees>-7.893438041210174560546875</LongitudeDegrees>
            </Position>
            <AltitudeMeters>231</AltitudeMeters>
            <DistanceMeters>378032.93857008</DistanceMeters>
          </Trackpoint>
          <Trackpoint>
            <Time>2018-09-15T10:00:36.000Z</Time>
            <Position>
              <LatitudeDegrees>37.14975600130856037139892578125</LatitudeDegrees>
              <LongitudeDegrees>-7.89327953942120075225830078125</LongitudeDegrees>
            </Position>
            <AltitudeMeters>227.8000030517578125</AltitudeMeters>
            <DistanceMeters>378093.46200877</DistanceMeters>
          </Trackpoint>
          <Trackpoint>
            <Time>2018-09-15T10:00:39.000Z</Time>
            <Position>
              <LatitudeDegrees>37.14942206628620624542236328125</LatitudeDegrees>
              <LongitudeDegrees>-7.893182896077632904052734375</LongitudeDegrees>
            </Position>
            <AltitudeMeters>225.8000030517578125</AltitudeMeters>
            <DistanceMeters>378131.60549991</DistanceMeters>
          </Trackpoint>
          <Trackpoint>
            <Time>2018-09-15T10:00:42.000Z</Time>
            <Position>
              <LatitudeDegrees>37.149072624742984771728515625</LatitudeDegrees>
              <LongitudeDegrees>-7.89311760105192661285400390625</LongitudeDegrees>
            </Position>
            <AltitudeMeters>223.1999969482421875</AltitudeMeters>
            <DistanceMeters>378170.92796308</DistanceMeters>
          </Trackpoint>
          <Trackpoint>
            <Time>2018-09-15T10:00:44.000Z</Time>
            <Position>
              <LatitudeDegrees>37.14883767999708652496337890625</LatitudeDegrees>
              <LongitudeDegrees>-7.893087007105350494384765625</LongitudeDegrees>
            </Position>
            <AltitudeMeters>222.1999969482421875</AltitudeMeters>
            <DistanceMeters>378197.21826759</DistanceMeters>
          </Trackpoint>
          <Trackpoint>
            <Time>2018-09-15T10:00:46.000Z</Time>
            <Position>
              <LatitudeDegrees>37.148599885404109954833984375</LatitudeDegrees>
              <LongitudeDegrees>-7.8930573351681232452392578125</LongitudeDegrees>
            </Position>
            <AltitudeMeters>221.399993896484375</AltitudeMeters>
            <DistanceMeters>378223.81573399</DistanceMeters>
          </Trackpoint>
          <Trackpoint>
            <Time>2018-09-15T10:00:48.000Z</Time>
            <Position>
              <LatitudeDegrees>37.14835949242115020751953125</LatitudeDegrees>
              <LongitudeDegrees>-7.89302590303122997283935546875</LongitudeDegrees>
            </Position>
            <AltitudeMeters>220</AltitudeMeters>
            <DistanceMeters>378250.71685527</DistanceMeters>
          </Trackpoint>
          <Trackpoint>
            <Time>2018-09-15T10:00:51.000Z</Time>
            <Position>
              <LatitudeDegrees>37.1479925327003002166748046875</LatitudeDegrees>
              <LongitudeDegrees>-7.89297142066061496734619140625</LongitudeDegrees>
            </Position>
            <AltitudeMeters>217.8000030517578125</AltitudeMeters>
            <DistanceMeters>378291.84509349</DistanceMeters>
          </Trackpoint>
          <Trackpoint>
            <Time>2018-09-15T10:00:54.000Z</Time>
            <Position>
              <LatitudeDegrees>37.1476170234382152557373046875</LatitudeDegrees>
              <LongitudeDegrees>-7.89292699657380580902099609375</LongitudeDegrees>
            </Position>
            <AltitudeMeters>216.399993896484375</AltitudeMeters>
            <DistanceMeters>378333.82539648</DistanceMeters>
          </Trackpoint>
          <Trackpoint>
            <Time>2018-09-15T10:00:57.000Z</Time>
            <Position>
              <LatitudeDegrees>37.14728929102420806884765625</LatitudeDegrees>
              <LongitudeDegrees>-7.89288357831537723541259765625</LongitudeDegrees>
            </Position>
            <AltitudeMeters>215.1999969482421875</AltitudeMeters>
            <DistanceMeters>378370.50546205</DistanceMeters>
          </Trackpoint>
          <Trackpoint>
            <Time>2018-09-15T10:00:58.000Z</Time>
            <Position>
              <LatitudeDegrees>37.1471895463764667510986328125</LatitudeDegrees>
              <LongitudeDegrees>-7.89287871681153774261474609375</LongitudeDegrees>
            </Position>
            <AltitudeMeters>214.8000030517578125</AltitudeMeters>
            <DistanceMeters>378381.61546272</DistanceMeters>
          </Trackpoint>
          <Trackpoint>
            <Time>2018-09-15T10:00:59.000Z</Time>
            <Position>
              <LatitudeDegrees>37.1470919810235500335693359375</LatitudeDegrees>
              <LongitudeDegrees>-7.89288818836212158203125</LongitudeDegrees>
            </Position>
            <AltitudeMeters>214.399993896484375</AltitudeMeters>
            <DistanceMeters>378392.50670159</DistanceMeters>
          </Trackpoint>
          <Trackpoint>
            <Time>2018-09-15T10:01:00.000Z</Time>
            <Position>
              <LatitudeDegrees>37.14699801988899707794189453125</LatitudeDegrees>
              <LongitudeDegrees>-7.8929161839187145233154296875</LongitudeDegrees>
            </Position>
            <AltitudeMeters>213.8000030517578125</AltitudeMeters>
            <DistanceMeters>378403.25564703</DistanceMeters>
          </Trackpoint>
          <Trackpoint>
            <Time>2018-09-15T10:01:01.000Z</Time>
            <Position>
              <LatitudeDegrees>37.146910093724727630615234375</LatitudeDegrees>
              <LongitudeDegrees>-7.89295817725360393524169921875</LongitudeDegrees>
            </Position>
            <AltitudeMeters>213.399993896484375</AltitudeMeters>
            <DistanceMeters>378413.72757371</DistanceMeters>
          </Trackpoint>
          <Trackpoint>
            <Time>2018-09-15T10:01:03.000Z</Time>
            <Position>
              <LatitudeDegrees>37.14674388058483600616455078125</LatitudeDegrees>
              <LongitudeDegrees>-7.89303361438214778900146484375</LongitudeDegrees>
            </Position>
            <AltitudeMeters>212.600006103515625</AltitudeMeters>
            <DistanceMeters>378433.40085779</DistanceMeters>
          </Trackpoint>
          <Trackpoint>
            <Time>2018-09-15T10:01:07.000Z</Time>
            <Position>
              <LatitudeDegrees>37.146455459296703338623046875</LatitudeDegrees>
              <LongitudeDegrees>-7.89289698936045169830322265625</LongitudeDegrees>
            </Position>
            <AltitudeMeters>212</AltitudeMeters>
            <DistanceMeters>378467.71484514</DistanceMeters>
          </Trackpoint>
          <Trackpoint>
            <Time>2018-09-15T10:01:08.000Z</Time>
            <Position>
              <LatitudeDegrees>37.1464048326015472412109375</LatitudeDegrees>
              <LongitudeDegrees>-7.892816774547100067138671875</LongitudeDegrees>
            </Position>
            <AltitudeMeters>212</AltitudeMeters>
            <DistanceMeters>378476.79176187</DistanceMeters>
          </Trackpoint>
          <Trackpoint>
            <Time>2018-09-15T10:01:09.000Z</Time>
            <Position>
              <LatitudeDegrees>37.14634976349771022796630859375</LatitudeDegrees>
              <LongitudeDegrees>-7.89274091832339763641357421875</LongitudeDegrees>
            </Position>
            <AltitudeMeters>212</AltitudeMeters>
            <DistanceMeters>378485.89450769</DistanceMeters>
          </Trackpoint>
          <Trackpoint>
            <Time>2018-09-15T10:01:14.000Z</Time>
            <Position>
              <LatitudeDegrees>37.14596989564597606658935546875</LatitudeDegrees>
              <LongitudeDegrees>-7.89248091168701648712158203125</LongitudeDegrees>
            </Position>
            <AltitudeMeters>211.1999969482421875</AltitudeMeters>
            <DistanceMeters>378534.05777396</DistanceMeters>
          </Trackpoint>
          <Trackpoint>
            <Time>2018-09-15T10:01:15.000Z</Time>
            <Position>
              <LatitudeDegrees>37.145884148776531219482421875</LatitudeDegrees>
              <LongitudeDegrees>-7.892433889210224151611328125</LongitudeDegrees>
            </Position>
            <AltitudeMeters>211</AltitudeMeters>
            <DistanceMeters>378544.47349949</DistanceMeters>
          </Trackpoint>
          <Trackpoint>
            <Time>2018-09-15T10:01:20.000Z</Time>
            <Position>
              <LatitudeDegrees>37.14544787071645259857177734375</LatitudeDegrees>
              <LongitudeDegrees>-7.89218209683895111083984375</LongitudeDegrees>
            </Position>
            <AltitudeMeters>209.8000030517578125</AltitudeMeters>
            <DistanceMeters>378597.9240624</DistanceMeters>
          </Trackpoint>
          <Trackpoint>
            <Time>2018-09-15T10:01:24.000Z</Time>
            <Position>
              <LatitudeDegrees>37.14511125348508358001708984375</LatitudeDegrees>
              <LongitudeDegrees>-7.89194203913211822509765625</LongitudeDegrees>
            </Position>
            <AltitudeMeters>208.1999969482421875</AltitudeMeters>
            <DistanceMeters>378641.02074654</DistanceMeters>
          </Trackpoint>
          <Trackpoint>
            <Time>2018-09-15T10:01:26.000Z</Time>
            <Position>
              <LatitudeDegrees>37.14494294486939907073974609375</LatitudeDegrees>
              <LongitudeDegrees>-7.8918201662600040435791015625</LongitudeDegrees>
            </Position>
            <AltitudeMeters>207.1999969482421875</AltitudeMeters>
            <DistanceMeters>378662.65054683</DistanceMeters>
          </Trackpoint>
          <Trackpoint>
            <Time>2018-09-15T10:01:29.000Z</Time>
            <Position>
              <LatitudeDegrees>37.14468729682266712188720703125</LatitudeDegrees>
              <LongitudeDegrees>-7.89162998087704181671142578125</LongitudeDegrees>
            </Position>
            <AltitudeMeters>204.600006103515625</AltitudeMeters>
            <DistanceMeters>378695.73144667</DistanceMeters>
          </Trackpoint>
          <Trackpoint>
            <Time>2018-09-15T10:01:31.000Z</Time>
            <Position>
              <LatitudeDegrees>37.1445130370557308197021484375</LatitudeDegrees>
              <LongitudeDegrees>-7.89149989373981952667236328125</LongitudeDegrees>
            </Position>
            <AltitudeMeters>202.1999969482421875</AltitudeMeters>
            <DistanceMeters>378718.30104153</DistanceMeters>
          </Trackpoint>
          <Trackpoint>
            <Time>2018-09-15T10:01:33.000Z</Time>
            <Position>
              <LatitudeDegrees>37.14432620443403720855712890625</LatitudeDegrees>
              <LongitudeDegrees>-7.8913812898099422454833984375</LongitudeDegrees>
            </Position>
            <AltitudeMeters>200.1999969482421875</AltitudeMeters>
            <DistanceMeters>378741.60662172</DistanceMeters>
          </Trackpoint>
          <Trackpoint>
            <Time>2018-09-15T10:01:36.000Z</Time>
            <Position>
              <LatitudeDegrees>37.1440020762383937835693359375</LatitudeDegrees>
              <LongitudeDegrees>-7.89133275859057903289794921875</LongitudeDegrees>
            </Position>
            <AltitudeMeters>198.1999969482421875</AltitudeMeters>
            <DistanceMeters>378777.93877834</DistanceMeters>
          </Trackpoint>
          <Trackpoint>
            <Time>2018-09-15T10:01:38.000Z</Time>
            <Position>
              <LatitudeDegrees>37.1437898464500904083251953125</LatitudeDegrees>
              <LongitudeDegrees>-7.89144122041761875152587890625</LongitudeDegrees>
            </Position>
            <AltitudeMeters>196.8000030517578125</AltitudeMeters>
            <DistanceMeters>378803.44544252</DistanceMeters>
          </Trackpoint>
          <Trackpoint>
            <Time>2018-09-15T10:01:40.000Z</Time>
            <Position>
              <LatitudeDegrees>37.14360167272388935089111328125</LatitudeDegrees>
              <LongitudeDegrees>-7.8916062600910663604736328125</LongitudeDegrees>
            </Position>
            <AltitudeMeters>196.1999969482421875</AltitudeMeters>
            <DistanceMeters>378829.00038584</DistanceMeters>
          </Trackpoint>
          <Trackpoint>
            <Time>2018-09-15T10:01:43.000Z</Time>
            <Position>
              <LatitudeDegrees>37.1433234773576259613037109375</LatitudeDegrees>
              <LongitudeDegrees>-7.891872636973857879638671875</LongitudeDegrees>
            </Position>
            <AltitudeMeters>195.1999969482421875</AltitudeMeters>
            <DistanceMeters>378867.9526463</DistanceMeters>
          </Trackpoint>
          <Trackpoint>
            <Time>2018-09-15T10:01:46.000Z</Time>
            <Position>
              <LatitudeDegrees>37.14303656481206417083740234375</LatitudeDegrees>
              <LongitudeDegrees>-7.89212149567902088165283203125</LongitudeDegrees>
            </Position>
            <AltitudeMeters>195.600006103515625</AltitudeMeters>
            <DistanceMeters>378906.77614742</DistanceMeters>
          </Trackpoint>
          <Trackpoint>
            <Time>2018-09-15T10:01:48.000Z</Time>
            <Position>
              <LatitudeDegrees>37.14281628839671611785888671875</LatitudeDegrees>
              <LongitudeDegrees>-7.89220598526298999786376953125</LongitudeDegrees>
            </Position>
            <AltitudeMeters>195.8000030517578125</AltitudeMeters>
            <DistanceMeters>378932.41381959</DistanceMeters>
          </Trackpoint>
          <Trackpoint>
            <Time>2018-09-15T10:01:51.000Z</Time>
            <Position>
              <LatitudeDegrees>37.14248721487820148468017578125</LatitudeDegrees>
              <LongitudeDegrees>-7.89210355840623378753662109375</LongitudeDegrees>
            </Position>
            <AltitudeMeters>193.399993896484375</AltitudeMeters>
            <DistanceMeters>378970.15103247</DistanceMeters>
          </Trackpoint>
          <Trackpoint>
            <Time>2018-09-15T10:01:52.000Z</Time>
            <Position>
              <LatitudeDegrees>37.142384536564350128173828125</LatitudeDegrees>
              <LongitudeDegrees>-7.8920330666005611419677734375</LongitudeDegrees>
            </Position>
            <AltitudeMeters>192.8000030517578125</AltitudeMeters>
            <DistanceMeters>378983.17905292</DistanceMeters>
          </Trackpoint>
          <Trackpoint>
            <Time>2018-09-15T10:01:54.000Z</Time>
            <Position>
              <LatitudeDegrees>37.14218848384916782379150390625</LatitudeDegrees>
              <LongitudeDegrees>-7.89188177324831485748291015625</LongitudeDegrees>
            </Position>
            <AltitudeMeters>192.399993896484375</AltitudeMeters>
            <DistanceMeters>379008.79822692</DistanceMeters>
          </Trackpoint>
          <Trackpoint>
            <Time>2018-09-15T10:01:55.000Z</Time>
            <Position>
              <LatitudeDegrees>37.14209158904850482940673828125</LatitudeDegrees>
              <LongitudeDegrees>-7.89180080406367778778076171875</LongitudeDegrees>
            </Position>
            <AltitudeMeters>191.600006103515625</AltitudeMeters>
            <DistanceMeters>379021.75605241</DistanceMeters>
          </Trackpoint>
          <Trackpoint>
            <Time>2018-09-15T10:01:56.000Z</Time>
            <Position>
              <LatitudeDegrees>37.14200072921812534332275390625</LatitudeDegrees>
              <LongitudeDegrees>-7.89172670803964138031005859375</LongitudeDegrees>
            </Position>
            <AltitudeMeters>191</AltitudeMeters>
            <DistanceMeters>379033.8180834</DistanceMeters>
          </Trackpoint>
          <Trackpoint>
            <Time>2018-09-15T10:01:57.000Z</Time>
            <Position>
              <LatitudeDegrees>37.14191121049225330352783203125</LatitudeDegrees>
              <LongitudeDegrees>-7.89165361784398555755615234375</LongitudeDegrees>
            </Position>
            <AltitudeMeters>190.8000030517578125</AltitudeMeters>
            <DistanceMeters>379045.70630136</DistanceMeters>
          </Trackpoint>
          <Trackpoint>
            <Time>2018-09-15T10:01:59.000Z</Time>
            <Position>
              <LatitudeDegrees>37.14173443615436553955078125</LatitudeDegrees>
              <LongitudeDegrees>-7.89151967503130435943603515625</LongitudeDegrees>
            </Position>
            <AltitudeMeters>189.600006103515625</AltitudeMeters>
            <DistanceMeters>379068.69216164</DistanceMeters>
          </Trackpoint>
          <Trackpoint>
            <Time>2018-09-15T10:02:01.000Z</Time>
            <Position>
              <LatitudeDegrees>37.14155363850295543670654296875</LatitudeDegrees>
              <LongitudeDegrees>-7.89140802808105945587158203125</LongitudeDegrees>
            </Position>
            <AltitudeMeters>188</AltitudeMeters>
            <DistanceMeters>379091.12128465</DistanceMeters>
          </Trackpoint>
          <Trackpoint>
            <Time>2018-09-15T10:02:03.000Z</Time>
            <Position>
              <LatitudeDegrees>37.14136236347258090972900390625</LatitudeDegrees>
              <LongitudeDegrees>-7.8913309983909130096435546875</LongitudeDegrees>
            </Position>
            <AltitudeMeters>188.1999969482421875</AltitudeMeters>
            <DistanceMeters>379113.48064851</DistanceMeters>
          </Trackpoint>
          <Trackpoint>
            <Time>2018-09-15T10:02:05.000Z</Time>
            <Position>
              <LatitudeDegrees>37.14116421528160572052001953125</LatitudeDegrees>
              <LongitudeDegrees>-7.8912756778299808502197265625</LongitudeDegrees>
            </Position>
            <AltitudeMeters>188</AltitudeMeters>
            <DistanceMeters>379136.07463624</DistanceMeters>
          </Trackpoint>
          <Trackpoint>
            <Time>2018-09-15T10:02:08.000Z</Time>
            <Position>
              <LatitudeDegrees>37.14085844345390796661376953125</LatitudeDegrees>
              <LongitudeDegrees>-7.89120401255786418914794921875</LongitudeDegrees>
            </Position>
            <AltitudeMeters>185.8000030517578125</AltitudeMeters>
            <DistanceMeters>379170.69671687</DistanceMeters>
          </Trackpoint>
          <Trackpoint>
            <Time>2018-09-15T10:02:12.000Z</Time>
            <Position>
              <LatitudeDegrees>37.14043314568698406219482421875</LatitudeDegrees>
              <LongitudeDegrees>-7.891117595136165618896484375</LongitudeDegrees>
            </Position>
            <AltitudeMeters>182.600006103515625</AltitudeMeters>
            <DistanceMeters>379218.65010076</DistanceMeters>
          </Trackpoint>
          <Trackpoint>
            <Time>2018-09-15T10:02:14.000Z</Time>
            <Position>
              <LatitudeDegrees>37.1402141265571117401123046875</LatitudeDegrees>
              <LongitudeDegrees>-7.89109186269342899322509765625</LongitudeDegrees>
            </Position>
            <AltitudeMeters>181.600006103515625</AltitudeMeters>
            <DistanceMeters>379243.13400618</DistanceMeters>
          </Trackpoint>
          <Trackpoint>
            <Time>2018-09-15T10:02:17.000Z</Time>
            <Position>
              <LatitudeDegrees>37.139880359172821044921875</LatitudeDegrees>
              <LongitudeDegrees>-7.89109739474952220916748046875</LongitudeDegrees>
            </Position>
            <AltitudeMeters>180.1999969482421875</AltitudeMeters>
            <DistanceMeters>379280.28629191</DistanceMeters>
          </Trackpoint>
          <Trackpoint>
            <Time>2018-09-15T10:02:19.000Z</Time>
            <Position>
              <LatitudeDegrees>37.1396590769290924072265625</LatitudeDegrees>
              <LongitudeDegrees>-7.89112723432481288909912109375</LongitudeDegrees>
            </Position>
            <AltitudeMeters>178.1999969482421875</AltitudeMeters>
            <DistanceMeters>379305.05766217</DistanceMeters>
          </Trackpoint>
          <Trackpoint>
            <Time>2018-09-15T10:02:20.000Z</Time>
            <Position>
              <LatitudeDegrees>37.1395489387214183807373046875</LatitudeDegrees>
              <LongitudeDegrees>-7.89114433340728282928466796875</LongitudeDegrees>
            </Position>
            <AltitudeMeters>177.399993896484375</AltitudeMeters>
            <DistanceMeters>379317.41003853</DistanceMeters>
          </Trackpoint>
          <Trackpoint>
            <Time>2018-09-15T10:02:21.000Z</Time>
            <Position>
              <LatitudeDegrees>37.139438800513744354248046875</LatitudeDegrees>
              <LongitudeDegrees>-7.891163863241672515869140625</LongitudeDegrees>
            </Position>
            <AltitudeMeters>176.600006103515625</AltitudeMeters>
            <DistanceMeters>379329.79052792</DistanceMeters>
          </Trackpoint>
          <Trackpoint>
            <Time>2018-09-15T10:02:22.000Z</Time>
            <Position>
              <LatitudeDegrees>37.13932841084897518157958984375</LatitudeDegrees>
              <LongitudeDegrees>-7.8911854885518550872802734375</LongitudeDegrees>
            </Position>
            <AltitudeMeters>176</AltitudeMeters>
            <DistanceMeters>379342.22632662</DistanceMeters>
          </Trackpoint>
          <Trackpoint>
            <Time>2018-09-15T10:02:23.000Z</Time>
            <Position>
              <LatitudeDegrees>37.13921743445098400115966796875</LatitudeDegrees>
              <LongitudeDegrees>-7.89120770059525966644287109375</LongitudeDegrees>
            </Position>
            <AltitudeMeters>175.1999969482421875</AltitudeMeters>
            <DistanceMeters>379354.7345281</DistanceMeters>
          </Trackpoint>
          <Trackpoint>
            <Time>2018-09-15T10:02:24.000Z</Time>
            <Position>
              <LatitudeDegrees>37.13910520076751708984375</LatitudeDegrees>
              <LongitudeDegrees>-7.8912292420864105224609375</LongitudeDegrees>
            </Position>
            <AltitudeMeters>174.600006103515625</AltitudeMeters>
            <DistanceMeters>379367.37200934</DistanceMeters>
          </Trackpoint>
          <Trackpoint>
            <Time>2018-09-15T10:02:26.000Z</Time>
            <Position>
              <LatitudeDegrees>37.1388780511915683746337890625</LatitudeDegrees>
              <LongitudeDegrees>-7.89127358235418796539306640625</LongitudeDegrees>
            </Position>
            <AltitudeMeters>173.399993896484375</AltitudeMeters>
            <DistanceMeters>379392.95855878</DistanceMeters>
          </Trackpoint>
          <Trackpoint>
            <Time>2018-09-15T10:02:29.000Z</Time>
            <Position>
              <LatitudeDegrees>37.13853883557021617889404296875</LatitudeDegrees>
              <LongitudeDegrees>-7.89134122431278228759765625</LongitudeDegrees>
            </Position>
            <AltitudeMeters>172.1999969482421875</AltitudeMeters>
            <DistanceMeters>379431.18800793</DistanceMeters>
          </Trackpoint>
          <Trackpoint>
            <Time>2018-09-15T10:02:32.000Z</Time>
            <Position>
              <LatitudeDegrees>37.13819668628275394439697265625</LatitudeDegrees>
              <LongitudeDegrees>-7.8914054296910762786865234375</LongitudeDegrees>
            </Position>
            <AltitudeMeters>171.399993896484375</AltitudeMeters>
            <DistanceMeters>379469.69376596</DistanceMeters>
          </Trackpoint>
          <Trackpoint>
            <Time>2018-09-15T10:02:33.000Z</Time>
            <Position>
              <LatitudeDegrees>37.13808135129511356353759765625</LatitudeDegrees>
              <LongitudeDegrees>-7.89142034947872161865234375</LongitudeDegrees>
            </Position>
            <AltitudeMeters>170.399993896484375</AltitudeMeters>
            <DistanceMeters>379482.5988696</DistanceMeters>
          </Trackpoint>
          <Trackpoint>
            <Time>2018-09-15T10:02:34.000Z</Time>
            <Position>
              <LatitudeDegrees>37.1379650942981243133544921875</LatitudeDegrees>
              <LongitudeDegrees>-7.89142311550676822662353515625</LongitudeDegrees>
            </Position>
            <AltitudeMeters>169.399993896484375</AltitudeMeters>
            <DistanceMeters>379495.54065687</DistanceMeters>
          </Trackpoint>
          <Trackpoint>
            <Time>2018-09-15T10:02:39.000Z</Time>
            <Position>
              <LatitudeDegrees>37.13751666247844696044921875</LatitudeDegrees>
              <LongitudeDegrees>-7.89102011360228061676025390625</LongitudeDegrees>
            </Position>
            <AltitudeMeters>165.600006103515625</AltitudeMeters>
            <DistanceMeters>379556.93901941</DistanceMeters>
          </Trackpoint>
          <Trackpoint>
            <Time>2018-09-15T10:02:40.000Z</Time>
            <Position>
              <LatitudeDegrees>37.13747047819197177886962890625</LatitudeDegrees>
              <LongitudeDegrees>-7.890880219638347625732421875</LongitudeDegrees>
            </Position>
            <AltitudeMeters>165</AltitudeMeters>
            <DistanceMeters>379570.37379399</DistanceMeters>
          </Trackpoint>
          <Trackpoint>
            <Time>2018-09-15T10:02:41.000Z</Time>
            <Position>
              <LatitudeDegrees>37.137428820133209228515625</LatitudeDegrees>
              <LongitudeDegrees>-7.89073680527508258819580078125</LongitudeDegrees>
            </Position>
            <AltitudeMeters>163.600006103515625</AltitudeMeters>
            <DistanceMeters>379583.9176846</DistanceMeters>
          </Trackpoint>
          <Trackpoint>
            <Time>2018-09-15T10:02:43.000Z</Time>
            <Position>
              <LatitudeDegrees>37.13734223507344722747802734375</LatitudeDegrees>
              <LongitudeDegrees>-7.890453748404979705810546875</LongitudeDegrees>
            </Position>
            <AltitudeMeters>160.8000030517578125</AltitudeMeters>
            <DistanceMeters>379610.81847021</DistanceMeters>
          </Trackpoint>
          <Trackpoint>
            <Time>2018-09-15T10:02:44.000Z</Time>
            <Position>
              <LatitudeDegrees>37.13728465139865875244140625</LatitudeDegrees>
              <LongitudeDegrees>-7.89032542146742343902587890625</LongitudeDegrees>
            </Position>
            <AltitudeMeters>159.399993896484375</AltitudeMeters>
            <DistanceMeters>379623.88455704</DistanceMeters>
          </Trackpoint>
          <Trackpoint>
            <Time>2018-09-15T10:02:45.000Z</Time>
            <Position>
              <LatitudeDegrees>37.1372070349752902984619140625</LatitudeDegrees>
              <LongitudeDegrees>-7.890217714011669158935546875</LongitudeDegrees>
            </Position>
            <AltitudeMeters>158.600006103515625</AltitudeMeters>
            <DistanceMeters>379636.76724989</DistanceMeters>
          </Trackpoint>
          <Trackpoint>
            <Time>2018-09-15T10:02:46.000Z</Time>
            <Position>
              <LatitudeDegrees>37.13711273856461048126220703125</LatitudeDegrees>
              <LongitudeDegrees>-7.89013314060866832733154296875</LongitudeDegrees>
            </Position>
            <AltitudeMeters>158.1999969482421875</AltitudeMeters>
            <DistanceMeters>379649.66920436</DistanceMeters>
          </Trackpoint>
          <Trackpoint>
            <Time>2018-09-15T10:02:47.000Z</Time>
            <Position>
              <LatitudeDegrees>37.137008719146251678466796875</LatitudeDegrees>
              <LongitudeDegrees>-7.8900757245719432830810546875</LongitudeDegrees>
            </Position>
            <AltitudeMeters>158</AltitudeMeters>
            <DistanceMeters>379662.31811318</DistanceMeters>
          </Trackpoint>
          <Trackpoint>
            <Time>2018-09-15T10:02:48.000Z</Time>
            <Position>
              <LatitudeDegrees>37.13689145632088184356689453125</LatitudeDegrees>
              <LongitudeDegrees>-7.890073545277118682861328125</LongitudeDegrees>
            </Position>
            <AltitudeMeters>158</AltitudeMeters>
            <DistanceMeters>379675.37106237</DistanceMeters>
          </Trackpoint>
          <Trackpoint>
            <Time>2018-09-15T10:02:50.000Z</Time>
            <Position>
              <LatitudeDegrees>37.13664636947214603424072265625</LatitudeDegrees>
              <LongitudeDegrees>-7.8901079110801219940185546875</LongitudeDegrees>
            </Position>
            <AltitudeMeters>158.1999969482421875</AltitudeMeters>
            <DistanceMeters>379702.81980475</DistanceMeters>
          </Trackpoint>
          <Trackpoint>
            <Time>2018-09-15T10:02:52.000Z</Time>
            <Position>
              <LatitudeDegrees>37.13639818131923675537109375</LatitudeDegrees>
              <LongitudeDegrees>-7.8901840187609195709228515625</LongitudeDegrees>
            </Position>
            <AltitudeMeters>156.1999969482421875</AltitudeMeters>
            <DistanceMeters>379731.2570948</DistanceMeters>
          </Trackpoint>
          <Trackpoint>
            <Time>2018-09-15T10:02:53.000Z</Time>
            <Position>
              <LatitudeDegrees>37.13627823628485202789306640625</LatitudeDegrees>
              <LongitudeDegrees>-7.89024847559630870819091796875</LongitudeDegrees>
            </Position>
            <AltitudeMeters>155.1999969482421875</AltitudeMeters>
            <DistanceMeters>379745.78095743</DistanceMeters>
          </Trackpoint>
          <Trackpoint>
            <Time>2018-09-15T10:02:55.000Z</Time>
            <Position>
              <LatitudeDegrees>37.13605661876499652862548828125</LatitudeDegrees>
              <LongitudeDegrees>-7.8904224000871181488037109375</LongitudeDegrees>
            </Position>
            <AltitudeMeters>153.600006103515625</AltitudeMeters>
            <DistanceMeters>379774.87713806</DistanceMeters>
          </Trackpoint>
          <Trackpoint>
            <Time>2018-09-15T10:02:56.000Z</Time>
            <Position>
              <LatitudeDegrees>37.13594497181475162506103515625</LatitudeDegrees>
              <LongitudeDegrees>-7.890495322644710540771484375</LongitudeDegrees>
            </Position>
            <AltitudeMeters>152.600006103515625</AltitudeMeters>
            <DistanceMeters>379788.88705389</DistanceMeters>
          </Trackpoint>
          <Trackpoint>
            <Time>2018-09-15T10:02:58.000Z</Time>
            <Position>
              <LatitudeDegrees>37.13570340536534786224365234375</LatitudeDegrees>
              <LongitudeDegrees>-7.89053077809512615203857421875</LongitudeDegrees>
            </Position>
            <AltitudeMeters>151.600006103515625</AltitudeMeters>
            <DistanceMeters>379815.95716108</DistanceMeters>
          </Trackpoint>
          <Trackpoint>
            <Time>2018-09-15T10:03:00.000Z</Time>
            <Position>
              <LatitudeDegrees>37.135485224425792694091796875</LatitudeDegrees>
              <LongitudeDegrees>-7.89040555246174335479736328125</LongitudeDegrees>
            </Position>
            <AltitudeMeters>152.8000030517578125</AltitudeMeters>
            <DistanceMeters>379842.66254214</DistanceMeters>
          </Trackpoint>
          <Trackpoint>
            <Time>2018-09-15T10:03:02.000Z</Time>
            <Position>
              <LatitudeDegrees>37.135301493108272552490234375</LatitudeDegrees>
              <LongitudeDegrees>-7.8902158699929714202880859375</LongitudeDegrees>
            </Position>
            <AltitudeMeters>152.600006103515625</AltitudeMeters>
            <DistanceMeters>379869.14756315</DistanceMeters>
          </Trackpoint>
          <Trackpoint>
            <Time>2018-09-15T10:03:03.000Z</Time>
            <Position>
              <LatitudeDegrees>37.1352151595056056976318359375</LatitudeDegrees>
              <LongitudeDegrees>-7.89011813700199127197265625</LongitudeDegrees>
            </Position>
            <AltitudeMeters>152.399993896484375</AltitudeMeters>
            <DistanceMeters>379882.09074584</DistanceMeters>
          </Trackpoint>
          <Trackpoint>
            <Time>2018-09-15T10:03:04.000Z</Time>
            <Position>
              <LatitudeDegrees>37.135130502283573150634765625</LatitudeDegrees>
              <LongitudeDegrees>-7.8900214098393917083740234375</LongitudeDegrees>
            </Position>
            <AltitudeMeters>152.399993896484375</AltitudeMeters>
            <DistanceMeters>379894.83566699</DistanceMeters>
          </Trackpoint>
          <Trackpoint>
            <Time>2018-09-15T10:03:06.000Z</Time>
            <Position>
              <LatitudeDegrees>37.13495573960244655609130859375</LatitudeDegrees>
              <LongitudeDegrees>-7.88984983228147029876708984375</LongitudeDegrees>
            </Position>
            <AltitudeMeters>151</AltitudeMeters>
            <DistanceMeters>379919.53639866</DistanceMeters>
          </Trackpoint>
          <Trackpoint>
            <Time>2018-09-15T10:03:11.000Z</Time>
            <Position>
              <LatitudeDegrees>37.13444293476641178131103515625</LatitudeDegrees>
              <LongitudeDegrees>-7.8897179849445819854736328125</LongitudeDegrees>
            </Position>
            <AltitudeMeters>150.8000030517578125</AltitudeMeters>
            <DistanceMeters>379977.79916736</DistanceMeters>
          </Trackpoint>
          <Trackpoint>
            <Time>2018-09-15T10:03:12.000Z</Time>
            <Position>
              <LatitudeDegrees>37.13434218429028987884521484375</LatitudeDegrees>
              <LongitudeDegrees>-7.88973550312221050262451171875</LongitudeDegrees>
            </Position>
            <AltitudeMeters>150.8000030517578125</AltitudeMeters>
            <DistanceMeters>379989.12051468</DistanceMeters>
          </Trackpoint>
          <Trackpoint>
            <Time>2018-09-15T10:03:14.000Z</Time>
            <Position>
              <LatitudeDegrees>37.13414537720382213592529296875</LatitudeDegrees>
              <LongitudeDegrees>-7.889774143695831298828125</LongitudeDegrees>
            </Position>
            <AltitudeMeters>150.600006103515625</AltitudeMeters>
            <DistanceMeters>380011.29250966</DistanceMeters>
          </Trackpoint>
          <Trackpoint>
            <Time>2018-09-15T10:03:17.000Z</Time>
            <Position>
              <LatitudeDegrees>37.13386240415275096893310546875</LatitudeDegrees>
              <LongitudeDegrees>-7.8898339904844760894775390625</LongitudeDegrees>
            </Position>
            <AltitudeMeters>149.600006103515625</AltitudeMeters>
            <DistanceMeters>380043.23251367</DistanceMeters>
          </Trackpoint>
          <Trackpoint>
            <Time>2018-09-15T10:03:19.000Z</Time>
            <Position>
              <LatitudeDegrees>37.13368110358715057373046875</LatitudeDegrees>
              <LongitudeDegrees>-7.88988520391285419464111328125</LongitudeDegrees>
            </Position>
            <AltitudeMeters>149.1999969482421875</AltitudeMeters>
            <DistanceMeters>380063.91692862</DistanceMeters>
          </Trackpoint>
          <Trackpoint>
            <Time>2018-09-15T10:03:22.000Z</Time>
            <Position>
              <LatitudeDegrees>37.133418582379817962646484375</LatitudeDegrees>
              <LongitudeDegrees>-7.8899969346821308135986328125</LongitudeDegrees>
            </Position>
            <AltitudeMeters>149</AltitudeMeters>
            <DistanceMeters>380094.77223594</DistanceMeters>
          </Trackpoint>
          <Trackpoint>
            <Time>2018-09-15T10:03:23.000Z</Time>
            <Position>
              <LatitudeDegrees>37.13333585299551486968994140625</LatitudeDegrees>
              <LongitudeDegrees>-7.89004093967378139495849609375</LongitudeDegrees>
            </Position>
            <AltitudeMeters>149</AltitudeMeters>
            <DistanceMeters>380104.77399513</DistanceMeters>
          </Trackpoint>
          <Trackpoint>
            <Time>2018-09-15T10:03:30.000Z</Time>
            <Position>
              <LatitudeDegrees>37.13288356550037860870361328125</LatitudeDegrees>
              <LongitudeDegrees>-7.89046422578394412994384765625</LongitudeDegrees>
            </Position>
            <AltitudeMeters>150</AltitudeMeters>
            <DistanceMeters>380167.58248409</DistanceMeters>
          </Trackpoint>
          <Trackpoint>
            <Time>2018-09-15T10:03:31.000Z</Time>
            <Position>
              <LatitudeDegrees>37.1328367106616497039794921875</LatitudeDegrees>
              <LongitudeDegrees>-7.89054016582667827606201171875</LongitudeDegrees>
            </Position>
            <AltitudeMeters>150.600006103515625</AltitudeMeters>
            <DistanceMeters>380176.10262403</DistanceMeters>
          </Trackpoint>
          <Trackpoint>
            <Time>2018-09-15T10:03:34.000Z</Time>
            <Position>
              <LatitudeDegrees>37.1327072940766811370849609375</LatitudeDegrees>
              <LongitudeDegrees>-7.8907804749906063079833984375</LongitudeDegrees>
            </Position>
            <AltitudeMeters>152.1999969482421875</AltitudeMeters>
            <DistanceMeters>380201.83574598</DistanceMeters>
          </Trackpoint>
          <Trackpoint>
            <Time>2018-09-15T10:03:42.000Z</Time>
            <Position>
              <LatitudeDegrees>37.13240412063896656036376953125</LatitudeDegrees>
              <LongitudeDegrees>-7.89139528758823871612548828125</LongitudeDegrees>
            </Position>
            <AltitudeMeters>153.600006103515625</AltitudeMeters>
            <DistanceMeters>380265.983283</DistanceMeters>
          </Trackpoint>
          <Trackpoint>
            <Time>2018-09-15T10:03:43.000Z</Time>
            <Position>
              <LatitudeDegrees>37.1323683299124240875244140625</LatitudeDegrees>
              <LongitudeDegrees>-7.89146586321294307708740234375</LongitudeDegrees>
            </Position>
            <AltitudeMeters>154</AltitudeMeters>
            <DistanceMeters>380273.40510665</DistanceMeters>
          </Trackpoint>
          <Trackpoint>
            <Time>2018-09-15T10:03:46.000Z</Time>
            <Position>
              <LatitudeDegrees>37.13226355612277984619140625</LatitudeDegrees>
              <LongitudeDegrees>-7.89166510105133056640625</LongitudeDegrees>
            </Position>
            <AltitudeMeters>155.600006103515625</AltitudeMeters>
            <DistanceMeters>380294.5839158</DistanceMeters>
          </Trackpoint>
          <Trackpoint>
            <Time>2018-09-15T10:03:47.000Z</Time>
            <Position>
              <LatitudeDegrees>37.13222977705299854278564453125</LatitudeDegrees>
              <LongitudeDegrees>-7.8917272947728633880615234375</LongitudeDegrees>
            </Position>
            <AltitudeMeters>156</AltitudeMeters>
            <DistanceMeters>380301.26152896</DistanceMeters>
          </Trackpoint>
          <Trackpoint>
            <Time>2018-09-15T10:03:51.000Z</Time>
            <Position>
              <LatitudeDegrees>37.1321048028767108917236328125</LatitudeDegrees>
              <LongitudeDegrees>-7.89196550846099853515625</LongitudeDegrees>
            </Position>
            <AltitudeMeters>155.399993896484375</AltitudeMeters>
            <DistanceMeters>380326.56559247</DistanceMeters>
          </Trackpoint>
          <Trackpoint>
            <Time>2018-09-15T10:03:56.000Z</Time>
            <Position>
              <LatitudeDegrees>37.13192467577755451202392578125</LatitudeDegrees>
              <LongitudeDegrees>-7.89224772714078426361083984375</LongitudeDegrees>
            </Position>
            <AltitudeMeters>155</AltitudeMeters>
            <DistanceMeters>380358.64495612</DistanceMeters>
          </Trackpoint>
          <Trackpoint>
            <Time>2018-09-15T10:04:04.000Z</Time>
            <Position>
              <LatitudeDegrees>37.13153533637523651123046875</LatitudeDegrees>
              <LongitudeDegrees>-7.8927998431026935577392578125</LongitudeDegrees>
            </Position>
            <AltitudeMeters>154.1999969482421875</AltitudeMeters>
            <DistanceMeters>380424.0520583</DistanceMeters>
          </Trackpoint>
          <Trackpoint>
            <Time>2018-09-15T10:04:07.000Z</Time>
            <Position>
              <LatitudeDegrees>37.131368704140186309814453125</LatitudeDegrees>
              <LongitudeDegrees>-7.89302338846027851104736328125</LongitudeDegrees>
            </Position>
            <AltitudeMeters>152.8000030517578125</AltitudeMeters>
            <DistanceMeters>380451.20809304</DistanceMeters>
          </Trackpoint>
          <Trackpoint>
            <Time>2018-09-15T10:04:11.000Z</Time>
            <Position>
              <LatitudeDegrees>37.13112520985305309295654296875</LatitudeDegrees>
              <LongitudeDegrees>-7.8933567367494106292724609375</LongitudeDegrees>
            </Position>
            <AltitudeMeters>150.600006103515625</AltitudeMeters>
            <DistanceMeters>380491.32625159</DistanceMeters>
          </Trackpoint>
          <Trackpoint>
            <Time>2018-09-15T10:04:12.000Z</Time>
            <Position>
              <LatitudeDegrees>37.1310584060847759246826171875</LatitudeDegrees>
              <LongitudeDegrees>-7.89343996904790401458740234375</LongitudeDegrees>
            </Position>
            <AltitudeMeters>150</AltitudeMeters>
            <DistanceMeters>380501.80679784</DistanceMeters>
          </Trackpoint>
          <Trackpoint>
            <Time>2018-09-15T10:04:14.000Z</Time>
            <Position>
              <LatitudeDegrees>37.13091482408344745635986328125</LatitudeDegrees>
              <LongitudeDegrees>-7.89358883164823055267333984375</LongitudeDegrees>
            </Position>
            <AltitudeMeters>148.8000030517578125</AltitudeMeters>
            <DistanceMeters>380522.54048587</DistanceMeters>
          </Trackpoint>
          <Trackpoint>
            <Time>2018-09-15T10:04:15.000Z</Time>
            <Position>
              <LatitudeDegrees>37.13083469308912754058837890625</LatitudeDegrees>
              <LongitudeDegrees>-7.8936507739126682281494140625</LongitudeDegrees>
            </Position>
            <AltitudeMeters>148.1999969482421875</AltitudeMeters>
            <DistanceMeters>380533.01715419</DistanceMeters>
          </Trackpoint>
          <Trackpoint>
            <Time>2018-09-15T10:04:17.000Z</Time>
            <Position>
              <LatitudeDegrees>37.1306584216654300689697265625</LatitudeDegrees>
              <LongitudeDegrees>-7.89373534731566905975341796875</LongitudeDegrees>
            </Position>
            <AltitudeMeters>147.1999969482421875</AltitudeMeters>
            <DistanceMeters>380554.02300232</DistanceMeters>
          </Trackpoint>
          <Trackpoint>
            <Time>2018-09-15T10:04:19.000Z</Time>
            <Position>
              <LatitudeDegrees>37.13046940974891185760498046875</LatitudeDegrees>
              <LongitudeDegrees>-7.89378010667860507965087890625</LongitudeDegrees>
            </Position>
            <AltitudeMeters>146.399993896484375</AltitudeMeters>
            <DistanceMeters>380575.4320803</DistanceMeters>
          </Trackpoint>
          <Trackpoint>
            <Time>2018-09-15T10:04:21.000Z</Time>
            <Position>
              <LatitudeDegrees>37.1302728541195392608642578125</LatitudeDegrees>
              <LongitudeDegrees>-7.8937952779233455657958984375</LongitudeDegrees>
            </Position>
            <AltitudeMeters>145.399993896484375</AltitudeMeters>
            <DistanceMeters>380597.35052292</DistanceMeters>
          </Trackpoint>
          <Trackpoint>
            <Time>2018-09-15T10:04:22.000Z</Time>
            <Position>
              <LatitudeDegrees>37.1301734447479248046875</LatitudeDegrees>
              <LongitudeDegrees>-7.89379703812301158905029296875</LongitudeDegrees>
            </Position>
            <AltitudeMeters>144.8000030517578125</AltitudeMeters>
            <DistanceMeters>380608.416546</DistanceMeters>
          </Trackpoint>
          <Trackpoint>
            <Time>2018-09-15T10:04:23.000Z</Time>
            <Position>
              <LatitudeDegrees>37.130075208842754364013671875</LatitudeDegrees>
              <LongitudeDegrees>-7.89379687048494815826416015625</LongitudeDegrees>
            </Position>
            <AltitudeMeters>144.1999969482421875</AltitudeMeters>
            <DistanceMeters>380619.35040085</DistanceMeters>
          </Trackpoint>
          <Trackpoint>
            <Time>2018-09-15T10:04:24.000Z</Time>
            <Position>
              <LatitudeDegrees>37.12997688911855220794677734375</LatitudeDegrees>
              <LongitudeDegrees>-7.89379485882818698883056640625</LongitudeDegrees>
            </Position>
            <AltitudeMeters>143.8000030517578125</AltitudeMeters>
            <DistanceMeters>380630.29498691</DistanceMeters>
          </Trackpoint>
          <Trackpoint>
            <Time>2018-09-15T10:04:25.000Z</Time>
            <Position>
              <LatitudeDegrees>37.12987999431788921356201171875</LatitudeDegrees>
              <LongitudeDegrees>-7.8937939368188381195068359375</LongitudeDegrees>
            </Position>
            <AltitudeMeters>143.1999969482421875</AltitudeMeters>
            <DistanceMeters>380641.08041434</DistanceMeters>
          </Trackpoint>
          <Trackpoint>
            <Time>2018-09-15T10:04:27.000Z</Time>
            <Position>
              <LatitudeDegrees>37.12968955747783184051513671875</LatitudeDegrees>
              <LongitudeDegrees>-7.893777005374431610107421875</LongitudeDegrees>
            </Position>
            <AltitudeMeters>142.1999969482421875</AltitudeMeters>
            <DistanceMeters>380662.32988357</DistanceMeters>
          </Trackpoint>
          <Trackpoint>
            <Time>2018-09-15T10:04:28.000Z</Time>
            <Position>
              <LatitudeDegrees>37.12959785945713520050048828125</LatitudeDegrees>
              <LongitudeDegrees>-7.89375378750264644622802734375</LongitudeDegrees>
            </Position>
            <AltitudeMeters>141.8000030517578125</AltitudeMeters>
            <DistanceMeters>380672.74214066</DistanceMeters>
          </Trackpoint>
          <Trackpoint>
            <Time>2018-09-15T10:04:31.000Z</Time>
            <Position>
              <LatitudeDegrees>37.12934740819036960601806640625</LatitudeDegrees>
              <LongitudeDegrees>-7.89362378418445587158203125</LongitudeDegrees>
            </Position>
            <AltitudeMeters>141.399993896484375</AltitudeMeters>
            <DistanceMeters>380702.91069059</DistanceMeters>
          </Trackpoint>
          <Trackpoint>
            <Time>2018-09-15T10:04:34.000Z</Time>
            <Position>
              <LatitudeDegrees>37.12910793721675872802734375</LatitudeDegrees>
              <LongitudeDegrees>-7.89347936399281024932861328125</LongitudeDegrees>
            </Position>
            <AltitudeMeters>141</AltitudeMeters>
            <DistanceMeters>380732.48522701</DistanceMeters>
          </Trackpoint>
          <Trackpoint>
            <Time>2018-09-15T10:04:39.000Z</Time>
            <Position>
              <LatitudeDegrees>37.12864458560943603515625</LatitudeDegrees>
              <LongitudeDegrees>-7.89332740008831024169921875</LongitudeDegrees>
            </Position>
            <AltitudeMeters>139.399993896484375</AltitudeMeters>
            <DistanceMeters>380785.7910636</DistanceMeters>
          </Trackpoint>
          <Trackpoint>
            <Time>2018-09-15T10:04:44.000Z</Time>
            <Position>
              <LatitudeDegrees>37.1281290985643863677978515625</LatitudeDegrees>
              <LongitudeDegrees>-7.8932856582105159759521484375</LongitudeDegrees>
            </Position>
            <AltitudeMeters>137.399993896484375</AltitudeMeters>
            <DistanceMeters>380843.28528856</DistanceMeters>
          </Trackpoint>
          <Trackpoint>
            <Time>2018-09-15T10:04:46.000Z</Time>
            <Position>
              <LatitudeDegrees>37.127928435802459716796875</LatitudeDegrees>
              <LongitudeDegrees>-7.893276102840900421142578125</LongitudeDegrees>
            </Position>
            <AltitudeMeters>136.8000030517578125</AltitudeMeters>
            <DistanceMeters>380865.63536168</DistanceMeters>
          </Trackpoint>
          <Trackpoint>
            <Time>2018-09-15T10:04:48.000Z</Time>
            <Position>
              <LatitudeDegrees>37.12773942388594150543212890625</LatitudeDegrees>
              <LongitudeDegrees>-7.89328758604824542999267578125</LongitudeDegrees>
            </Position>
            <AltitudeMeters>136.399993896484375</AltitudeMeters>
            <DistanceMeters>380886.69723495</DistanceMeters>
          </Trackpoint>
          <Trackpoint>
            <Time>2018-09-15T10:04:50.000Z</Time>
            <Position>
              <LatitudeDegrees>37.127563655376434326171875</LatitudeDegrees>
              <LongitudeDegrees>-7.8933416493237018585205078125</LongitudeDegrees>
            </Position>
            <AltitudeMeters>136.1999969482421875</AltitudeMeters>
            <DistanceMeters>380906.84020878</DistanceMeters>
          </Trackpoint>
          <Trackpoint>
            <Time>2018-09-15T10:04:53.000Z</Time>
            <Position>
              <LatitudeDegrees>37.12734983302652835845947265625</LatitudeDegrees>
              <LongitudeDegrees>-7.8935210220515727996826171875</LongitudeDegrees>
            </Position>
            <AltitudeMeters>136.399993896484375</AltitudeMeters>
            <DistanceMeters>380935.47149131</DistanceMeters>
          </Trackpoint>
          <Trackpoint>
            <Time>2018-09-15T10:04:54.000Z</Time>
            <Position>
              <LatitudeDegrees>37.1272919140756130218505859375</LatitudeDegrees>
              <LongitudeDegrees>-7.89359637536108493804931640625</LongitudeDegrees>
            </Position>
            <AltitudeMeters>136.600006103515625</AltitudeMeters>
            <DistanceMeters>380944.75983618</DistanceMeters>
          </Trackpoint>
          <Trackpoint>
            <Time>2018-09-15T10:04:56.000Z</Time>
            <Position>
              <LatitudeDegrees>37.12718638591468334197998046875</LatitudeDegrees>
              <LongitudeDegrees>-7.89375814609229564666748046875</LongitudeDegrees>
            </Position>
            <AltitudeMeters>137.600006103515625</AltitudeMeters>
            <DistanceMeters>380963.30831085</DistanceMeters>
          </Trackpoint>
          <Trackpoint>
            <Time>2018-09-15T10:04:58.000Z</Time>
            <Position>
              <LatitudeDegrees>37.1270843781530857086181640625</LatitudeDegrees>
              <LongitudeDegrees>-7.893921174108982086181640625</LongitudeDegrees>
            </Position>
            <AltitudeMeters>138.399993896484375</AltitudeMeters>
            <DistanceMeters>380981.69886503</DistanceMeters>
          </Trackpoint>
          <Trackpoint>
            <Time>2018-09-15T10:05:01.000Z</Time>
            <Position>
              <LatitudeDegrees>37.1269348450005054473876953125</LatitudeDegrees>
              <LongitudeDegrees>-7.89416299201548099517822265625</LongitudeDegrees>
            </Position>
            <AltitudeMeters>139.8000030517578125</AltitudeMeters>
            <DistanceMeters>381008.85589733</DistanceMeters>
          </Trackpoint>
          <Trackpoint>
            <Time>2018-09-15T10:05:03.000Z</Time>
            <Position>
              <LatitudeDegrees>37.1268376149237155914306640625</LatitudeDegrees>
              <LongitudeDegrees>-7.894318141043186187744140625</LongitudeDegrees>
            </Position>
            <AltitudeMeters>140.8000030517578125</AltitudeMeters>
            <DistanceMeters>381026.36816321</DistanceMeters>
          </Trackpoint>
          <Trackpoint>
            <Time>2018-09-15T10:05:10.000Z</Time>
            <Position>
              <LatitudeDegrees>37.126508541405200958251953125</LatitudeDegrees>
              <LongitudeDegrees>-7.8948582708835601806640625</LongitudeDegrees>
            </Position>
            <AltitudeMeters>144</AltitudeMeters>
            <DistanceMeters>381086.69201666</DistanceMeters>
          </Trackpoint>
          <Trackpoint>
            <Time>2018-09-15T10:05:17.000Z</Time>
            <Position>
              <LatitudeDegrees>37.126171588897705078125</LatitudeDegrees>
              <LongitudeDegrees>-7.89552840404212474822998046875</LongitudeDegrees>
            </Position>
            <AltitudeMeters>139</AltitudeMeters>
            <DistanceMeters>381156.99881424</DistanceMeters>
          </Trackpoint>
          <Trackpoint>
            <Time>2018-09-15T10:05:20.000Z</Time>
            <Position>
              <LatitudeDegrees>37.1260668151080608367919921875</LatitudeDegrees>
              <LongitudeDegrees>-7.8958748281002044677734375</LongitudeDegrees>
            </Position>
            <AltitudeMeters>139.1999969482421875</AltitudeMeters>
            <DistanceMeters>381189.87860669</DistanceMeters>
          </Trackpoint>
          <Trackpoint>
            <Time>2018-09-15T10:05:25.000Z</Time>
            <Position>
              <LatitudeDegrees>37.1260973252356052398681640625</LatitudeDegrees>
              <LongitudeDegrees>-7.89648327045142650604248046875</LongitudeDegrees>
            </Position>
            <AltitudeMeters>141.1999969482421875</AltitudeMeters>
            <DistanceMeters>381243.97977801</DistanceMeters>
          </Trackpoint>
          <Trackpoint>
            <Time>2018-09-15T10:05:27.000Z</Time>
            <Position>
              <LatitudeDegrees>37.1261392347514629364013671875</LatitudeDegrees>
              <LongitudeDegrees>-7.89670857600867748260498046875</LongitudeDegrees>
            </Position>
            <AltitudeMeters>142.1999969482421875</AltitudeMeters>
            <DistanceMeters>381264.5108269</DistanceMeters>
          </Trackpoint>
          <Trackpoint>
            <Time>2018-09-15T10:05:29.000Z</Time>
            <Position>
              <LatitudeDegrees>37.12616312317550182342529296875</LatitudeDegrees>
              <LongitudeDegrees>-7.8969314508140087127685546875</LongitudeDegrees>
            </Position>
            <AltitudeMeters>143</AltitudeMeters>
            <DistanceMeters>381284.46734191</DistanceMeters>
          </Trackpoint>
          <Trackpoint>
            <Time>2018-09-15T10:05:31.000Z</Time>
            <Position>
              <LatitudeDegrees>37.12615071795880794525146484375</LatitudeDegrees>
              <LongitudeDegrees>-7.897148542106151580810546875</LongitudeDegrees>
            </Position>
            <AltitudeMeters>142.600006103515625</AltitudeMeters>
            <DistanceMeters>381303.78185764</DistanceMeters>
          </Trackpoint>
          <Trackpoint>
            <Time>2018-09-15T10:05:34.000Z</Time>
            <Position>
              <LatitudeDegrees>37.12605801410973072052001953125</LatitudeDegrees>
              <LongitudeDegrees>-7.89745473302900791168212890625</LongitudeDegrees>
            </Position>
            <AltitudeMeters>139.1999969482421875</AltitudeMeters>
            <DistanceMeters>381332.84698643</DistanceMeters>
          </Trackpoint>
          <Trackpoint>
            <Time>2018-09-15T10:05:35.000Z</Time>
            <Position>
              <LatitudeDegrees>37.12601811625063419342041015625</LatitudeDegrees>
              <LongitudeDegrees>-7.897555567324161529541015625</LongitudeDegrees>
            </Position>
            <AltitudeMeters>137.8000030517578125</AltitudeMeters>
            <DistanceMeters>381342.83609774</DistanceMeters>
          </Trackpoint>
          <Trackpoint>
            <Time>2018-09-15T10:05:39.000Z</Time>
            <Position>
              <LatitudeDegrees>37.1258552558720111846923828125</LatitudeDegrees>
              <LongitudeDegrees>-7.8979590721428394317626953125</LongitudeDegrees>
            </Position>
            <AltitudeMeters>135.600006103515625</AltitudeMeters>
            <DistanceMeters>381382.97068427</DistanceMeters>
          </Trackpoint>
          <Trackpoint>
            <Time>2018-09-15T10:05:46.000Z</Time>
            <Position>
              <LatitudeDegrees>37.1255815029144287109375</LatitudeDegrees>
              <LongitudeDegrees>-7.89862166158854961395263671875</LongitudeDegrees>
            </Position>
            <AltitudeMeters>135.8000030517578125</AltitudeMeters>
            <DistanceMeters>381449.19612348</DistanceMeters>
          </Trackpoint>
          <Trackpoint>
            <Time>2018-09-15T10:05:48.000Z</Time>
            <Position>
              <LatitudeDegrees>37.1255099214613437652587890625</LatitudeDegrees>
              <LongitudeDegrees>-7.89879248477518558502197265625</LongitudeDegrees>
            </Position>
            <AltitudeMeters>136.8000030517578125</AltitudeMeters>
            <DistanceMeters>381466.32150881</DistanceMeters>
          </Trackpoint>
          <Trackpoint>
            <Time>2018-09-15T10:05:51.000Z</Time>
            <Position>
              <LatitudeDegrees>37.12539483793079853057861328125</LatitudeDegrees>
              <LongitudeDegrees>-7.899024076759815216064453125</LongitudeDegrees>
            </Position>
            <AltitudeMeters>137.399993896484375</AltitudeMeters>
            <DistanceMeters>381490.53859667</DistanceMeters>
          </Trackpoint>
          <Trackpoint>
            <Time>2018-09-15T10:05:53.000Z</Time>
            <Position>
              <LatitudeDegrees>37.12531101889908313751220703125</LatitudeDegrees>
              <LongitudeDegrees>-7.89916229434311389923095703125</LongitudeDegrees>
            </Position>
            <AltitudeMeters>137.399993896484375</AltitudeMeters>
            <DistanceMeters>381505.94934002</DistanceMeters>
          </Trackpoint>
          <Trackpoint>
            <Time>2018-09-15T10:05:56.000Z</Time>
            <Position>
              <LatitudeDegrees>37.12517171166837215423583984375</LatitudeDegrees>
              <LongitudeDegrees>-7.89935658685863018035888671875</LongitudeDegrees>
            </Position>
            <AltitudeMeters>136.8000030517578125</AltitudeMeters>
            <DistanceMeters>381529.13780551</DistanceMeters>
          </Trackpoint>
          <Trackpoint>
            <Time>2018-09-15T10:05:58.000Z</Time>
            <Position>
              <LatitudeDegrees>37.12506962008774280548095703125</LatitudeDegrees>
              <LongitudeDegrees>-7.89947493933141231536865234375</LongitudeDegrees>
            </Position>
            <AltitudeMeters>136</AltitudeMeters>
            <DistanceMeters>381544.61111954</DistanceMeters>
          </Trackpoint>
          <Trackpoint>
            <Time>2018-09-15T10:06:00.000Z</Time>
            <Position>
              <LatitudeDegrees>37.12496501393616199493408203125</LatitudeDegrees>
              <LongitudeDegrees>-7.89959211833775043487548828125</LongitudeDegrees>
            </Position>
            <AltitudeMeters>135</AltitudeMeters>
            <DistanceMeters>381560.22155332</DistanceMeters>
          </Trackpoint>
          <Trackpoint>
            <Time>2018-09-15T10:06:02.000Z</Time>
            <Position>
              <LatitudeDegrees>37.12485655210912227630615234375</LatitudeDegrees>
              <LongitudeDegrees>-7.89970812387764453887939453125</LongitudeDegrees>
            </Position>
            <AltitudeMeters>134.600006103515625</AltitudeMeters>
            <DistanceMeters>381576.08731554</DistanceMeters>
          </Trackpoint>
          <Trackpoint>
            <Time>2018-09-15T10:06:04.000Z</Time>
            <Position>
              <LatitudeDegrees>37.124747000634670257568359375</LatitudeDegrees>
              <LongitudeDegrees>-7.8998242132365703582763671875</LongitudeDegrees>
            </Position>
            <AltitudeMeters>134.399993896484375</AltitudeMeters>
            <DistanceMeters>381592.04954086</DistanceMeters>
          </Trackpoint>
          <Trackpoint>
            <Time>2018-09-15T10:06:08.000Z</Time>
            <Position>
              <LatitudeDegrees>37.12451825849711894989013671875</LatitudeDegrees>
              <LongitudeDegrees>-7.9000563919544219970703125</LongitudeDegrees>
            </Position>
            <AltitudeMeters>133.8000030517578125</AltitudeMeters>
            <DistanceMeters>381624.80220428</DistanceMeters>
          </Trackpoint>
          <Trackpoint>
            <Time>2018-09-15T10:06:16.000Z</Time>
            <Position>
              <LatitudeDegrees>37.12403764016926288604736328125</LatitudeDegrees>
              <LongitudeDegrees>-7.9005474038422107696533203125</LongitudeDegrees>
            </Position>
            <AltitudeMeters>133</AltitudeMeters>
            <DistanceMeters>381693.79722699</DistanceMeters>
          </Trackpoint>
          <Trackpoint>
            <Time>2018-09-15T10:06:18.000Z</Time>
            <Position>
              <LatitudeDegrees>37.123902104794979095458984375</LatitudeDegrees>
              <LongitudeDegrees>-7.90069115348160266876220703125</LongitudeDegrees>
            </Position>
            <AltitudeMeters>132.399993896484375</AltitudeMeters>
            <DistanceMeters>381713.55364428</DistanceMeters>
          </Trackpoint>
          <Trackpoint>
            <Time>2018-09-15T10:06:22.000Z</Time>
            <Position>
              <LatitudeDegrees>37.12361477315425872802734375</LatitudeDegrees>
              <LongitudeDegrees>-7.90099642239511013031005859375</LongitudeDegrees>
            </Position>
            <AltitudeMeters>130.399993896484375</AltitudeMeters>
            <DistanceMeters>381755.46656605</DistanceMeters>
          </Trackpoint>
          <Trackpoint>
            <Time>2018-09-15T10:06:26.000Z</Time>
            <Position>
              <LatitudeDegrees>37.12331704795360565185546875</LatitudeDegrees>
              <LongitudeDegrees>-7.9013349674642086029052734375</LongitudeDegrees>
            </Position>
            <AltitudeMeters>127</AltitudeMeters>
            <DistanceMeters>381800.19619669</DistanceMeters>
          </Trackpoint>
          <Trackpoint>
            <Time>2018-09-15T10:06:28.000Z</Time>
            <Position>
              <LatitudeDegrees>37.12317866273224353790283203125</LatitudeDegrees>
              <LongitudeDegrees>-7.9015364684164524078369140625</LongitudeDegrees>
            </Position>
            <AltitudeMeters>125.8000030517578125</AltitudeMeters>
            <DistanceMeters>381823.79747346</DistanceMeters>
          </Trackpoint>
          <Trackpoint>
            <Time>2018-09-15T10:06:29.000Z</Time>
            <Position>
              <LatitudeDegrees>37.123112864792346954345703125</LatitudeDegrees>
              <LongitudeDegrees>-7.9016447626054286956787109375</LongitudeDegrees>
            </Position>
            <AltitudeMeters>125.40000152587890625</AltitudeMeters>
            <DistanceMeters>381835.88082176</DistanceMeters>
          </Trackpoint>
          <Trackpoint>
            <Time>2018-09-15T10:06:30.000Z</Time>
            <Position>
              <LatitudeDegrees>37.12304756976664066314697265625</LatitudeDegrees>
              <LongitudeDegrees>-7.901757918298244476318359375</LongitudeDegrees>
            </Position>
            <AltitudeMeters>125</AltitudeMeters>
            <DistanceMeters>381848.27661866</DistanceMeters>
          </Trackpoint>
          <Trackpoint>
            <Time>2018-09-15T10:06:32.000Z</Time>
            <Position>
              <LatitudeDegrees>37.12292050011456012725830078125</LatitudeDegrees>
              <LongitudeDegrees>-7.90199101902544498443603515625</LongitudeDegrees>
            </Position>
            <AltitudeMeters>124.40000152587890625</AltitudeMeters>
            <DistanceMeters>381873.3359398</DistanceMeters>
          </Trackpoint>
          <Trackpoint>
            <Time>2018-09-15T10:06:34.000Z</Time>
            <Position>
              <LatitudeDegrees>37.12279669940471649169921875</LatitudeDegrees>
              <LongitudeDegrees>-7.9022241197526454925537109375</LongitudeDegrees>
            </Position>
            <AltitudeMeters>124</AltitudeMeters>
            <DistanceMeters>381898.19173872</DistanceMeters>
          </Trackpoint>
          <Trackpoint>
            <Time>2018-09-15T10:06:35.000Z</Time>
            <Position>
              <LatitudeDegrees>37.12273903191089630126953125</LatitudeDegrees>
              <LongitudeDegrees>-7.902336604893207550048828125</LongitudeDegrees>
            </Position>
            <AltitudeMeters>124</AltitudeMeters>
            <DistanceMeters>381910.05943025</DistanceMeters>
          </Trackpoint>
          <Trackpoint>
            <Time>2018-09-15T10:06:39.000Z</Time>
            <Position>
              <LatitudeDegrees>37.12251749821007251739501953125</LatitudeDegrees>
              <LongitudeDegrees>-7.90276768617331981658935546875</LongitudeDegrees>
            </Position>
            <AltitudeMeters>123.1999969482421875</AltitudeMeters>
            <DistanceMeters>381955.57375456</DistanceMeters>
          </Trackpoint>
          <Trackpoint>
            <Time>2018-09-15T10:06:41.000Z</Time>
            <Position>
              <LatitudeDegrees>37.12239931337535381317138671875</LatitudeDegrees>
              <LongitudeDegrees>-7.90297656320035457611083984375</LongitudeDegrees>
            </Position>
            <AltitudeMeters>122.59999847412109375</AltitudeMeters>
            <DistanceMeters>381978.30401751</DistanceMeters>
          </Trackpoint>
          <Trackpoint>
            <Time>2018-09-15T10:06:42.000Z</Time>
            <Position>
              <LatitudeDegrees>37.12233401834964752197265625</LatitudeDegrees>
              <LongitudeDegrees>-7.9030733741819858551025390625</LongitudeDegrees>
            </Position>
            <AltitudeMeters>122.59999847412109375</AltitudeMeters>
            <DistanceMeters>381989.55736332</DistanceMeters>
          </Trackpoint>
          <Trackpoint>
            <Time>2018-09-15T10:06:46.000Z</Time>
            <Position>
              <LatitudeDegrees>37.12200276553630828857421875</LatitudeDegrees>
              <LongitudeDegrees>-7.9033479653298854827880859375</LongitudeDegrees>
            </Position>
            <AltitudeMeters>121.40000152587890625</AltitudeMeters>
            <DistanceMeters>382033.75224396</DistanceMeters>
          </Trackpoint>
          <Trackpoint>
            <Time>2018-09-15T10:06:48.000Z</Time>
            <Position>
              <LatitudeDegrees>37.1218031086027622222900390625</LatitudeDegrees>
              <LongitudeDegrees>-7.90339096449315547943115234375</LongitudeDegrees>
            </Position>
            <AltitudeMeters>119.8000030517578125</AltitudeMeters>
            <DistanceMeters>382056.29942214</DistanceMeters>
          </Trackpoint>
          <Trackpoint>
            <Time>2018-09-15T10:06:50.000Z</Time>
            <Position>
              <LatitudeDegrees>37.12160018272697925567626953125</LatitudeDegrees>
              <LongitudeDegrees>-7.90338702499866485595703125</LongitudeDegrees>
            </Position>
            <AltitudeMeters>118</AltitudeMeters>
            <DistanceMeters>382078.8882136</DistanceMeters>
          </Trackpoint>
          <Trackpoint>
            <Time>2018-09-15T10:06:51.000Z</Time>
            <Position>
              <LatitudeDegrees>37.12149792350828647613525390625</LatitudeDegrees>
              <LongitudeDegrees>-7.90337554179131984710693359375</LongitudeDegrees>
            </Position>
            <AltitudeMeters>117.59999847412109375</AltitudeMeters>
            <DistanceMeters>382090.31554642</DistanceMeters>
          </Trackpoint>
          <Trackpoint>
            <Time>2018-09-15T10:06:56.000Z</Time>
            <Position>
              <LatitudeDegrees>37.12098126299679279327392578125</LatitudeDegrees>
              <LongitudeDegrees>-7.9033248312771320343017578125</LongitudeDegrees>
            </Position>
            <AltitudeMeters>116</AltitudeMeters>
            <DistanceMeters>382147.99668377</DistanceMeters>
          </Trackpoint>
          <Trackpoint>
            <Time>2018-09-15T10:07:01.000Z</Time>
            <Position>
              <LatitudeDegrees>37.12047516368329524993896484375</LatitudeDegrees>
              <LongitudeDegrees>-7.90328183211386203765869140625</LongitudeDegrees>
            </Position>
            <AltitudeMeters>115.40000152587890625</AltitudeMeters>
            <DistanceMeters>382204.45558877</DistanceMeters>
          </Trackpoint>
          <Trackpoint>
            <Time>2018-09-15T10:07:05.000Z</Time>
            <Position>
              <LatitudeDegrees>37.12008506990969181060791015625</LatitudeDegrees>
              <LongitudeDegrees>-7.90328065864741802215576171875</LongitudeDegrees>
            </Position>
            <AltitudeMeters>115.8000030517578125</AltitudeMeters>
            <DistanceMeters>382247.87395906</DistanceMeters>
          </Trackpoint>
          <Trackpoint>
            <Time>2018-09-15T10:07:11.000Z</Time>
            <Position>
              <LatitudeDegrees>37.11950085125863552093505859375</LatitudeDegrees>
              <LongitudeDegrees>-7.90335089899599552154541015625</LongitudeDegrees>
            </Position>
            <AltitudeMeters>111.8000030517578125</AltitudeMeters>
            <DistanceMeters>382313.19679062</DistanceMeters>
          </Trackpoint>
          <Trackpoint>
            <Time>2018-09-15T10:07:12.000Z</Time>
            <Position>
              <LatitudeDegrees>37.1194003522396087646484375</LatitudeDegrees>
              <LongitudeDegrees>-7.9033808223903179168701171875</LongitudeDegrees>
            </Position>
            <AltitudeMeters>111</AltitudeMeters>
            <DistanceMeters>382324.69305953</DistanceMeters>
          </Trackpoint>
          <Trackpoint>
            <Time>2018-09-15T10:07:17.000Z</Time>
            <Position>
              <LatitudeDegrees>37.11888276971876621246337890625</LatitudeDegrees>
              <LongitudeDegrees>-7.9036021046340465545654296875</LongitudeDegrees>
            </Position>
            <AltitudeMeters>110.40000152587890625</AltitudeMeters>
            <DistanceMeters>382385.55646462</DistanceMeters>
          </Trackpoint>
          <Trackpoint>
            <Time>2018-09-15T10:07:19.000Z</Time>
            <Position>
              <LatitudeDegrees>37.11866475641727447509765625</LatitudeDegrees>
              <LongitudeDegrees>-7.90370813570916652679443359375</LongitudeDegrees>
            </Position>
            <AltitudeMeters>111.1999969482421875</AltitudeMeters>
            <DistanceMeters>382411.58233702</DistanceMeters>
          </Trackpoint>
          <Trackpoint>
            <Time>2018-09-15T10:07:21.000Z</Time>
            <Position>
              <LatitudeDegrees>37.11844607256352901458740234375</LatitudeDegrees>
              <LongitudeDegrees>-7.9038163460791110992431640625</LongitudeDegrees>
            </Position>
            <AltitudeMeters>112.1999969482421875</AltitudeMeters>
            <DistanceMeters>382437.74852562</DistanceMeters>
          </Trackpoint>
          <Trackpoint>
            <Time>2018-09-15T10:07:24.000Z</Time>
            <Position>
              <LatitudeDegrees>37.11811314336955547332763671875</LatitudeDegrees>
              <LongitudeDegrees>-7.9039806313812732696533203125</LongitudeDegrees>
            </Position>
            <AltitudeMeters>111.8000030517578125</AltitudeMeters>
            <DistanceMeters>382477.56959472</DistanceMeters>
          </Trackpoint>
          <Trackpoint>
            <Time>2018-09-15T10:07:26.000Z</Time>
            <Position>
              <LatitudeDegrees>37.1178931184113025665283203125</LatitudeDegrees>
              <LongitudeDegrees>-7.90410074405372142791748046875</LongitudeDegrees>
            </Position>
            <AltitudeMeters>110.59999847412109375</AltitudeMeters>
            <DistanceMeters>382504.27869502</DistanceMeters>
          </Trackpoint>
          <Trackpoint>
            <Time>2018-09-15T10:07:27.000Z</Time>
            <Position>
              <LatitudeDegrees>37.1177891828119754791259765625</LatitudeDegrees>
              <LongitudeDegrees>-7.9041707329452037811279296875</LongitudeDegrees>
            </Position>
            <AltitudeMeters>110</AltitudeMeters>
            <DistanceMeters>382517.40924145</DistanceMeters>
          </Trackpoint>
          <Trackpoint>
            <Time>2018-09-15T10:07:29.000Z</Time>
            <Position>
              <LatitudeDegrees>37.117596901953220367431640625</LatitudeDegrees>
              <LongitudeDegrees>-7.90433778427541255950927734375</LongitudeDegrees>
            </Position>
            <AltitudeMeters>109.59999847412109375</AltitudeMeters>
            <DistanceMeters>382543.44448023</DistanceMeters>
          </Trackpoint>
          <Trackpoint>
            <Time>2018-09-15T10:07:34.000Z</Time>
            <Position>
              <LatitudeDegrees>37.11717939935624599456787109375</LatitudeDegrees>
              <LongitudeDegrees>-7.90481127798557281494140625</LongitudeDegrees>
            </Position>
            <AltitudeMeters>108.40000152587890625</AltitudeMeters>
            <DistanceMeters>382606.09699901</DistanceMeters>
          </Trackpoint>
          <Trackpoint>
            <Time>2018-09-15T10:07:38.000Z</Time>
            <Position>
              <LatitudeDegrees>37.11687781848013401031494140625</LatitudeDegrees>
              <LongitudeDegrees>-7.9051829315721988677978515625</LongitudeDegrees>
            </Position>
            <AltitudeMeters>107.1999969482421875</AltitudeMeters>
            <DistanceMeters>382653.15796595</DistanceMeters>
          </Trackpoint>
          <Trackpoint>
            <Time>2018-09-15T10:07:42.000Z</Time>
            <Position>
              <LatitudeDegrees>37.1165929175913333892822265625</LatitudeDegrees>
              <LongitudeDegrees>-7.9055470414459705352783203125</LongitudeDegrees>
            </Position>
            <AltitudeMeters>106</AltitudeMeters>
            <DistanceMeters>382698.43318448</DistanceMeters>
          </Trackpoint>
          <Trackpoint>
            <Time>2018-09-15T10:07:48.000Z</Time>
            <Position>
              <LatitudeDegrees>37.11619687266647815704345703125</LatitudeDegrees>
              <LongitudeDegrees>-7.90611273609101772308349609375</LongitudeDegrees>
            </Position>
            <AltitudeMeters>106.1999969482421875</AltitudeMeters>
            <DistanceMeters>382765.24541247</DistanceMeters>
          </Trackpoint>
          <Trackpoint>
            <Time>2018-09-15T10:07:49.000Z</Time>
            <Position>
              <LatitudeDegrees>37.11613333784043788909912109375</LatitudeDegrees>
              <LongitudeDegrees>-7.9062095470726490020751953125</LongitudeDegrees>
            </Position>
            <AltitudeMeters>106</AltitudeMeters>
            <DistanceMeters>382776.37368585</DistanceMeters>
          </Trackpoint>
          <Trackpoint>
            <Time>2018-09-15T10:07:55.000Z</Time>
            <Position>
              <LatitudeDegrees>37.11576604284346103668212890625</LatitudeDegrees>
              <LongitudeDegrees>-7.9067858867347240447998046875</LongitudeDegrees>
            </Position>
            <AltitudeMeters>105.1999969482421875</AltitudeMeters>
            <DistanceMeters>382841.854953</DistanceMeters>
          </Trackpoint>
          <Trackpoint>
            <Time>2018-09-15T10:08:00.000Z</Time>
            <Position>
              <LatitudeDegrees>37.11544132791459560394287109375</LatitudeDegrees>
              <LongitudeDegrees>-7.9072160460054874420166015625</LongitudeDegrees>
            </Position>
            <AltitudeMeters>104.8000030517578125</AltitudeMeters>
            <DistanceMeters>382894.42671678</DistanceMeters>
          </Trackpoint>
          <Trackpoint>
            <Time>2018-09-15T10:08:04.000Z</Time>
            <Position>
              <LatitudeDegrees>37.11510705761611461639404296875</LatitudeDegrees>
              <LongitudeDegrees>-7.907430790364742279052734375</LongitudeDegrees>
            </Position>
            <AltitudeMeters>102.8000030517578125</AltitudeMeters>
            <DistanceMeters>382936.2296154</DistanceMeters>
          </Trackpoint>
          <Trackpoint>
            <Time>2018-09-15T10:08:10.000Z</Time>
            <Position>
              <LatitudeDegrees>37.11454228498041629791259765625</LatitudeDegrees>
              <LongitudeDegrees>-7.9076723568141460418701171875</LongitudeDegrees>
            </Position>
            <AltitudeMeters>101.1999969482421875</AltitudeMeters>
            <DistanceMeters>383002.64574328</DistanceMeters>
          </Trackpoint>
          <Trackpoint>
            <Time>2018-09-15T10:08:12.000Z</Time>
            <Position>
              <LatitudeDegrees>37.11435235105454921722412109375</LatitudeDegrees>
              <LongitudeDegrees>-7.90775835514068603515625</LongitudeDegrees>
            </Position>
            <AltitudeMeters>101</AltitudeMeters>
            <DistanceMeters>383025.12151994</DistanceMeters>
          </Trackpoint>
          <Trackpoint>
            <Time>2018-09-15T10:08:15.000Z</Time>
            <Position>
              <LatitudeDegrees>37.1140649355947971343994140625</LatitudeDegrees>
              <LongitudeDegrees>-7.9078852571547031402587890625</LongitudeDegrees>
            </Position>
            <AltitudeMeters>100.8000030517578125</AltitudeMeters>
            <DistanceMeters>383059.03660622</DistanceMeters>
          </Trackpoint>
          <Trackpoint>
            <Time>2018-09-15T10:08:18.000Z</Time>
            <Position>
              <LatitudeDegrees>37.1137769334018230438232421875</LatitudeDegrees>
              <LongitudeDegrees>-7.9080052860081195831298828125</LongitudeDegrees>
            </Position>
            <AltitudeMeters>100.40000152587890625</AltitudeMeters>
            <DistanceMeters>383092.81576295</DistanceMeters>
          </Trackpoint>
          <Trackpoint>
            <Time>2018-09-15T10:08:24.000Z</Time>
            <Position>
              <LatitudeDegrees>37.11321157403290271759033203125</LatitudeDegrees>
              <LongitudeDegrees>-7.9082017578184604644775390625</LongitudeDegrees>
            </Position>
            <AltitudeMeters>99.1999969482421875</AltitudeMeters>
            <DistanceMeters>383158.11287724</DistanceMeters>
          </Trackpoint>
          <Trackpoint>
            <Time>2018-09-15T10:08:26.000Z</Time>
            <Position>
              <LatitudeDegrees>37.11302482523024082183837890625</LatitudeDegrees>
              <LongitudeDegrees>-7.908224724233150482177734375</LongitudeDegrees>
            </Position>
            <AltitudeMeters>98</AltitudeMeters>
            <DistanceMeters>383178.99801101</DistanceMeters>
          </Trackpoint>
          <Trackpoint>
            <Time>2018-09-15T10:08:29.000Z</Time>
            <Position>
              <LatitudeDegrees>37.1127402596175670623779296875</LatitudeDegrees>
              <LongitudeDegrees>-7.90824844501912593841552734375</LongitudeDegrees>
            </Position>
            <AltitudeMeters>96</AltitudeMeters>
            <DistanceMeters>383210.74077427</DistanceMeters>
          </Trackpoint>
          <Trackpoint>
            <Time>2018-09-15T10:08:35.000Z</Time>
            <Position>
              <LatitudeDegrees>37.1121649257838726043701171875</LatitudeDegrees>
              <LongitudeDegrees>-7.90824207477271556854248046875</LongitudeDegrees>
            </Position>
            <AltitudeMeters>95.40000152587890625</AltitudeMeters>
            <DistanceMeters>383274.77912127</DistanceMeters>
          </Trackpoint>
          <Trackpoint>
            <Time>2018-09-15T10:08:36.000Z</Time>
            <Position>
              <LatitudeDegrees>37.1120671927928924560546875</LatitudeDegrees>
              <LongitudeDegrees>-7.90824073366820812225341796875</LongitudeDegrees>
            </Position>
            <AltitudeMeters>95.8000030517578125</AltitudeMeters>
            <DistanceMeters>383285.65750129</DistanceMeters>
          </Trackpoint>
          <Trackpoint>
            <Time>2018-09-15T10:08:42.000Z</Time>
            <Position>
              <LatitudeDegrees>37.11147853173315525054931640625</LatitudeDegrees>
              <LongitudeDegrees>-7.908264957368373870849609375</LongitudeDegrees>
            </Position>
            <AltitudeMeters>97</AltitudeMeters>
            <DistanceMeters>383351.21188527</DistanceMeters>
          </Trackpoint>
          <Trackpoint>
            <Time>2018-09-15T10:08:48.000Z</Time>
            <Position>
              <LatitudeDegrees>37.11088836193084716796875</LatitudeDegrees>
              <LongitudeDegrees>-7.90831918828189373016357421875</LongitudeDegrees>
            </Position>
            <AltitudeMeters>94</AltitudeMeters>
            <DistanceMeters>383417.07506484</DistanceMeters>
          </Trackpoint>
          <Trackpoint>
            <Time>2018-09-15T10:08:51.000Z</Time>
            <Position>
              <LatitudeDegrees>37.11059491150081157684326171875</LatitudeDegrees>
              <LongitudeDegrees>-7.90833394043147563934326171875</LongitudeDegrees>
            </Position>
            <AltitudeMeters>93.1999969482421875</AltitudeMeters>
            <DistanceMeters>383449.76301148</DistanceMeters>
          </Trackpoint>
          <Trackpoint>
            <Time>2018-09-15T10:08:57.000Z</Time>
            <Position>
              <LatitudeDegrees>37.109988145530223846435546875</LatitudeDegrees>
              <LongitudeDegrees>-7.9083043523132801055908203125</LongitudeDegrees>
            </Position>
            <AltitudeMeters>92.1999969482421875</AltitudeMeters>
            <DistanceMeters>383517.34831956</DistanceMeters>
          </Trackpoint>
          <Trackpoint>
            <Time>2018-09-15T10:09:02.000Z</Time>
            <Position>
              <LatitudeDegrees>37.1094686351716518402099609375</LatitudeDegrees>
              <LongitudeDegrees>-7.908256240189075469970703125</LongitudeDegrees>
            </Position>
            <AltitudeMeters>91</AltitudeMeters>
            <DistanceMeters>383575.32840035</DistanceMeters>
          </Trackpoint>
          <Trackpoint>
            <Time>2018-09-15T10:09:05.000Z</Time>
            <Position>
              <LatitudeDegrees>37.1091544814407825469970703125</LatitudeDegrees>
              <LongitudeDegrees>-7.908227406442165374755859375</LongitudeDegrees>
            </Position>
            <AltitudeMeters>90.8000030517578125</AltitudeMeters>
            <DistanceMeters>383610.38810707</DistanceMeters>
          </Trackpoint>
          <Trackpoint>
            <Time>2018-09-15T10:09:10.000Z</Time>
            <Position>
              <LatitudeDegrees>37.10862516425549983978271484375</LatitudeDegrees>
              <LongitudeDegrees>-7.908177115023136138916015625</LongitudeDegrees>
            </Position>
            <AltitudeMeters>91.8000030517578125</AltitudeMeters>
            <DistanceMeters>383669.47103838</DistanceMeters>
          </Trackpoint>
          <Trackpoint>
            <Time>2018-09-15T10:09:11.000Z</Time>
            <Position>
              <LatitudeDegrees>37.10851955227553844451904296875</LatitudeDegrees>
              <LongitudeDegrees>-7.9081647098064422607421875</LongitudeDegrees>
            </Position>
            <AltitudeMeters>92</AltitudeMeters>
            <DistanceMeters>383681.27731891</DistanceMeters>
          </Trackpoint>
          <Trackpoint>
            <Time>2018-09-15T10:09:14.000Z</Time>
            <Position>
              <LatitudeDegrees>37.1082116849720478057861328125</LatitudeDegrees>
              <LongitudeDegrees>-7.90809564292430877685546875</LongitudeDegrees>
            </Position>
            <AltitudeMeters>91.1999969482421875</AltitudeMeters>
            <DistanceMeters>383716.08771991</DistanceMeters>
          </Trackpoint>
          <Trackpoint>
            <Time>2018-09-15T10:09:15.000Z</Time>
            <Position>
              <LatitudeDegrees>37.108113951981067657470703125</LatitudeDegrees>
              <LongitudeDegrees>-7.908051721751689910888671875</LongitudeDegrees>
            </Position>
            <AltitudeMeters>91.8000030517578125</AltitudeMeters>
            <DistanceMeters>383727.64274957</DistanceMeters>
          </Trackpoint>
          <Trackpoint>
            <Time>2018-09-15T10:09:17.000Z</Time>
            <Position>
              <LatitudeDegrees>37.10793214850127696990966796875</LatitudeDegrees>
              <LongitudeDegrees>-7.9079233109951019287109375</LongitudeDegrees>
            </Position>
            <AltitudeMeters>92</AltitudeMeters>
            <DistanceMeters>383750.86720857</DistanceMeters>
          </Trackpoint>
          <Trackpoint>
            <Time>2018-09-15T10:09:21.000Z</Time>
            <Position>
              <LatitudeDegrees>37.10760332643985748291015625</LatitudeDegrees>
              <LongitudeDegrees>-7.90759817697107791900634765625</LongitudeDegrees>
            </Position>
            <AltitudeMeters>88</AltitudeMeters>
            <DistanceMeters>383797.4757535</DistanceMeters>
          </Trackpoint>
          <Trackpoint>
            <Time>2018-09-15T10:09:25.000Z</Time>
            <Position>
              <LatitudeDegrees>37.1072859875857830047607421875</LatitudeDegrees>
              <LongitudeDegrees>-7.907282598316669464111328125</LongitudeDegrees>
            </Position>
            <AltitudeMeters>88</AltitudeMeters>
            <DistanceMeters>383842.55568965</DistanceMeters>
          </Trackpoint>
          <Trackpoint>
            <Time>2018-09-15T10:09:31.000Z</Time>
            <Position>
              <LatitudeDegrees>37.10677318274974822998046875</LatitudeDegrees>
              <LongitudeDegrees>-7.90693198330700397491455078125</LongitudeDegrees>
            </Position>
            <AltitudeMeters>86.8000030517578125</AltitudeMeters>
            <DistanceMeters>383907.56556173</DistanceMeters>
          </Trackpoint>
          <Trackpoint>
            <Time>2018-09-15T10:09:33.000Z</Time>
            <Position>
              <LatitudeDegrees>37.106588445603847503662109375</LatitudeDegrees>
              <LongitudeDegrees>-7.90686224587261676788330078125</LongitudeDegrees>
            </Position>
            <AltitudeMeters>86</AltitudeMeters>
            <DistanceMeters>383929.03886593</DistanceMeters>
          </Trackpoint>
          <Trackpoint>
            <Time>2018-09-15T10:09:39.000Z</Time>
            <Position>
              <LatitudeDegrees>37.106023840606212615966796875</LatitudeDegrees>
              <LongitudeDegrees>-7.9067721404135227203369140625</LongitudeDegrees>
            </Position>
            <AltitudeMeters>87</AltitudeMeters>
            <DistanceMeters>383992.3874114</DistanceMeters>
          </Trackpoint>
          <Trackpoint>
            <Time>2018-09-15T10:09:46.000Z</Time>
            <Position>
              <LatitudeDegrees>37.105403244495391845703125</LatitudeDegrees>
              <LongitudeDegrees>-7.9066950269043445587158203125</LongitudeDegrees>
            </Position>
            <AltitudeMeters>90.1999969482421875</AltitudeMeters>
            <DistanceMeters>384061.79927145</DistanceMeters>
          </Trackpoint>
          <Trackpoint>
            <Time>2018-09-15T10:09:51.000Z</Time>
            <Position>
              <LatitudeDegrees>37.10498859174549579620361328125</LatitudeDegrees>
              <LongitudeDegrees>-7.90656921453773975372314453125</LongitudeDegrees>
            </Position>
            <AltitudeMeters>93</AltitudeMeters>
            <DistanceMeters>384109.28287596</DistanceMeters>
          </Trackpoint>
          <Trackpoint>
            <Time>2018-09-15T10:09:55.000Z</Time>
            <Position>
              <LatitudeDegrees>37.10467192344367504119873046875</LatitudeDegrees>
              <LongitudeDegrees>-7.90641381405293941497802734375</LongitudeDegrees>
            </Position>
            <AltitudeMeters>93.8000030517578125</AltitudeMeters>
            <DistanceMeters>384147.13191013</DistanceMeters>
          </Trackpoint>
          <Trackpoint>
            <Time>2018-09-15T10:09:57.000Z</Time>
            <Position>
              <LatitudeDegrees>37.10452725179493427276611328125</LatitudeDegrees>
              <LongitudeDegrees>-7.90631121955811977386474609375</LongitudeDegrees>
            </Position>
            <AltitudeMeters>94.40000152587890625</AltitudeMeters>
            <DistanceMeters>384165.63114895</DistanceMeters>
          </Trackpoint>
          <Trackpoint>
            <Time>2018-09-15T10:10:04.000Z</Time>
            <Position>
              <LatitudeDegrees>37.10416917689144611358642578125</LatitudeDegrees>
              <LongitudeDegrees>-7.9057579301297664642333984375</LongitudeDegrees>
            </Position>
            <AltitudeMeters>87.1999969482421875</AltitudeMeters>
            <DistanceMeters>384228.88126126</DistanceMeters>
          </Trackpoint>
          <Trackpoint>
            <Time>2018-09-15T10:10:05.000Z</Time>
            <Position>
              <LatitudeDegrees>37.10413397289812564849853515625</LatitudeDegrees>
              <LongitudeDegrees>-7.90566681884229183197021484375</LongitudeDegrees>
            </Position>
            <AltitudeMeters>86.40000152587890625</AltitudeMeters>
            <DistanceMeters>384237.86869881</DistanceMeters>
          </Trackpoint>
          <Trackpoint>
            <Time>2018-09-15T10:10:12.000Z</Time>
            <Position>
              <LatitudeDegrees>37.1039100922644138336181640625</LatitudeDegrees>
              <LongitudeDegrees>-7.9050421155989170074462890625</LongitudeDegrees>
            </Position>
            <AltitudeMeters>84.1999969482421875</AltitudeMeters>
            <DistanceMeters>384298.66374284</DistanceMeters>
          </Trackpoint>
          <Trackpoint>
            <Time>2018-09-15T10:10:15.000Z</Time>
            <Position>
              <LatitudeDegrees>37.10377455689013004302978515625</LatitudeDegrees>
              <LongitudeDegrees>-7.904825694859027862548828125</LongitudeDegrees>
            </Position>
            <AltitudeMeters>84.8000030517578125</AltitudeMeters>
            <DistanceMeters>384323.08986023</DistanceMeters>
          </Trackpoint>
          <Trackpoint>
            <Time>2018-09-15T10:10:19.000Z</Time>
            <Position>
              <LatitudeDegrees>37.1035426296293735504150390625</LatitudeDegrees>
              <LongitudeDegrees>-7.9046149738132953643798828125</LongitudeDegrees>
            </Position>
            <AltitudeMeters>84.59999847412109375</AltitudeMeters>
            <DistanceMeters>384354.96845498</DistanceMeters>
          </Trackpoint>
          <Trackpoint>
            <Time>2018-09-15T10:10:21.000Z</Time>
            <Position>
              <LatitudeDegrees>37.10340659134089946746826171875</LatitudeDegrees>
              <LongitudeDegrees>-7.9045410454273223876953125</LongitudeDegrees>
            </Position>
            <AltitudeMeters>83.59999847412109375</AltitudeMeters>
            <DistanceMeters>384371.47085012</DistanceMeters>
          </Trackpoint>
          <Trackpoint>
            <Time>2018-09-15T10:10:28.000Z</Time>
            <Position>
              <LatitudeDegrees>37.10286813788115978240966796875</LatitudeDegrees>
              <LongitudeDegrees>-7.90438857860863208770751953125</LongitudeDegrees>
            </Position>
            <AltitudeMeters>82.40000152587890625</AltitudeMeters>
            <DistanceMeters>384432.91096736</DistanceMeters>
          </Trackpoint>
          <Trackpoint>
            <Time>2018-09-15T10:10:35.000Z</Time>
            <Position>
              <LatitudeDegrees>37.10233421064913272857666015625</LatitudeDegrees>
              <LongitudeDegrees>-7.90426268242299556732177734375</LongitudeDegrees>
            </Position>
            <AltitudeMeters>82.59999847412109375</AltitudeMeters>
            <DistanceMeters>384493.37977431</DistanceMeters>
          </Trackpoint>
          <Trackpoint>
            <Time>2018-09-15T10:10:40.000Z</Time>
            <Position>
              <LatitudeDegrees>37.10194788873195648193359375</LatitudeDegrees>
              <LongitudeDegrees>-7.9042116366326808929443359375</LongitudeDegrees>
            </Position>
            <AltitudeMeters>84.1999969482421875</AltitudeMeters>
            <DistanceMeters>384536.61640722</DistanceMeters>
          </Trackpoint>
          <Trackpoint>
            <Time>2018-09-15T10:10:44.000Z</Time>
            <Position>
              <LatitudeDegrees>37.10163163952529430389404296875</LatitudeDegrees>
              <LongitudeDegrees>-7.90428028441965579986572265625</LongitudeDegrees>
            </Position>
            <AltitudeMeters>86</AltitudeMeters>
            <DistanceMeters>384572.33912188</DistanceMeters>
          </Trackpoint>
          <Trackpoint>
            <Time>2018-09-15T10:10:51.000Z</Time>
            <Position>
              <LatitudeDegrees>37.10108597762882709503173828125</LatitudeDegrees>
              <LongitudeDegrees>-7.9045579768717288970947265625</LongitudeDegrees>
            </Position>
            <AltitudeMeters>83.59999847412109375</AltitudeMeters>
            <DistanceMeters>384637.88455155</DistanceMeters>
          </Trackpoint>
          <Trackpoint>
            <Time>2018-09-15T10:10:56.000Z</Time>
            <Position>
              <LatitudeDegrees>37.10067157633602619171142578125</LatitudeDegrees>
              <LongitudeDegrees>-7.9047956876456737518310546875</LongitudeDegrees>
            </Position>
            <AltitudeMeters>81.40000152587890625</AltitudeMeters>
            <DistanceMeters>384688.606212</DistanceMeters>
          </Trackpoint>
          <Trackpoint>
            <Time>2018-09-15T10:10:58.000Z</Time>
            <Position>
              <LatitudeDegrees>37.10049740038812160491943359375</LatitudeDegrees>
              <LongitudeDegrees>-7.90489786304533481597900390625</LongitudeDegrees>
            </Position>
            <AltitudeMeters>80.40000152587890625</AltitudeMeters>
            <DistanceMeters>384710.00938415</DistanceMeters>
          </Trackpoint>
          <Trackpoint>
            <Time>2018-09-15T10:11:00.000Z</Time>
            <Position>
              <LatitudeDegrees>37.10031735710799694061279296875</LatitudeDegrees>
              <LongitudeDegrees>-7.9049968533217906951904296875</LongitudeDegrees>
            </Position>
            <AltitudeMeters>79.40000152587890625</AltitudeMeters>
            <DistanceMeters>384731.89051033</DistanceMeters>
          </Trackpoint>
          <Trackpoint>
            <Time>2018-09-15T10:11:01.000Z</Time>
            <Position>
              <LatitudeDegrees>37.100224234163761138916015625</LatitudeDegrees>
              <LongitudeDegrees>-7.90504655800759792327880859375</LongitudeDegrees>
            </Position>
            <AltitudeMeters>78.8000030517578125</AltitudeMeters>
            <DistanceMeters>384743.15508463</DistanceMeters>
          </Trackpoint>
          <Trackpoint>
            <Time>2018-09-15T10:11:03.000Z</Time>
            <Position>
              <LatitudeDegrees>37.1000282652676105499267578125</LatitudeDegrees>
              <LongitudeDegrees>-7.90514630265533924102783203125</LongitudeDegrees>
            </Position>
            <AltitudeMeters>77.59999847412109375</AltitudeMeters>
            <DistanceMeters>384766.69563966</DistanceMeters>
          </Trackpoint>
          <Trackpoint>
            <Time>2018-09-15T10:11:05.000Z</Time>
            <Position>
              <LatitudeDegrees>37.0998170413076877593994140625</LatitudeDegrees>
              <LongitudeDegrees>-7.9052362404763698577880859375</LongitudeDegrees>
            </Position>
            <AltitudeMeters>77</AltitudeMeters>
            <DistanceMeters>384791.52399439</DistanceMeters>
          </Trackpoint>
          <Trackpoint>
            <Time>2018-09-15T10:11:08.000Z</Time>
            <Position>
              <LatitudeDegrees>37.09948855452239513397216796875</LatitudeDegrees>
              <LongitudeDegrees>-7.90537026710808277130126953125</LongitudeDegrees>
            </Position>
            <AltitudeMeters>76.40000152587890625</AltitudeMeters>
            <DistanceMeters>384829.97260626</DistanceMeters>
          </Trackpoint>
          <Trackpoint>
            <Time>2018-09-15T10:11:10.000Z</Time>
            <Position>
              <LatitudeDegrees>37.09927062503993511199951171875</LatitudeDegrees>
              <LongitudeDegrees>-7.9054578579962253570556640625</LongitudeDegrees>
            </Position>
            <AltitudeMeters>75.59999847412109375</AltitudeMeters>
            <DistanceMeters>384855.4443748</DistanceMeters>
          </Trackpoint>
          <Trackpoint>
            <Time>2018-09-15T10:11:11.000Z</Time>
            <Position>
              <LatitudeDegrees>37.099162079393863677978515625</LatitudeDegrees>
              <LongitudeDegrees>-7.90550102479755878448486328125</LongitudeDegrees>
            </Position>
            <AltitudeMeters>75.40000152587890625</AltitudeMeters>
            <DistanceMeters>384868.11895802</DistanceMeters>
          </Trackpoint>
          <Trackpoint>
            <Time>2018-09-15T10:11:13.000Z</Time>
            <Position>
              <LatitudeDegrees>37.098944149911403656005859375</LatitudeDegrees>
              <LongitudeDegrees>-7.90558383800089359283447265625</LongitudeDegrees>
            </Position>
            <AltitudeMeters>74.59999847412109375</AltitudeMeters>
            <DistanceMeters>384893.46456195</DistanceMeters>
          </Trackpoint>
          <Trackpoint>
            <Time>2018-09-15T10:11:15.000Z</Time>
            <Position>
              <LatitudeDegrees>37.0987280644476413726806640625</LatitudeDegrees>
              <LongitudeDegrees>-7.90566447190940380096435546875</LongitudeDegrees>
            </Position>
            <AltitudeMeters>73.59999847412109375</AltitudeMeters>
            <DistanceMeters>384918.5580928</DistanceMeters>
          </Trackpoint>
          <Trackpoint>
            <Time>2018-09-15T10:11:17.000Z</Time>
            <Position>
              <LatitudeDegrees>37.09851155988872051239013671875</LatitudeDegrees>
              <LongitudeDegrees>-7.90574309416115283966064453125</LongitudeDegrees>
            </Position>
            <AltitudeMeters>72.8000030517578125</AltitudeMeters>
            <DistanceMeters>384943.64586528</DistanceMeters>
          </Trackpoint>
          <Trackpoint>
            <Time>2018-09-15T10:11:20.000Z</Time>
            <Position>
              <LatitudeDegrees>37.098189108073711395263671875</LatitudeDegrees>
              <LongitudeDegrees>-7.90586245246231555938720703125</LongitudeDegrees>
            </Position>
            <AltitudeMeters>72</AltitudeMeters>
            <DistanceMeters>384981.06684969</DistanceMeters>
          </Trackpoint>
          <Trackpoint>
            <Time>2018-09-15T10:11:24.000Z</Time>
            <Position>
              <LatitudeDegrees>37.097757272422313690185546875</LatitudeDegrees>
              <LongitudeDegrees>-7.9060184396803379058837890625</LongitudeDegrees>
            </Position>
            <AltitudeMeters>71.59999847412109375</AltitudeMeters>
            <DistanceMeters>385031.08602732</DistanceMeters>
          </Trackpoint>
          <Trackpoint>
            <Time>2018-09-15T10:11:25.000Z</Time>
            <Position>
              <LatitudeDegrees>37.0976488105952739715576171875</LatitudeDegrees>
              <LongitudeDegrees>-7.90605791844427585601806640625</LongitudeDegrees>
            </Position>
            <AltitudeMeters>71.40000152587890625</AltitudeMeters>
            <DistanceMeters>385043.65616167</DistanceMeters>
          </Trackpoint>
          <Trackpoint>
            <Time>2018-09-15T10:11:29.000Z</Time>
            <Position>
              <LatitudeDegrees>37.097220160067081451416015625</LatitudeDegrees>
              <LongitudeDegrees>-7.90621340274810791015625</LongitudeDegrees>
            </Position>
            <AltitudeMeters>70.8000030517578125</AltitudeMeters>
            <DistanceMeters>385093.32250824</DistanceMeters>
          </Trackpoint>
          <Trackpoint>
            <Time>2018-09-15T10:11:31.000Z</Time>
            <Position>
              <LatitudeDegrees>37.09701052866876125335693359375</LatitudeDegrees>
              <LongitudeDegrees>-7.9062880016863346099853515625</LongitudeDegrees>
            </Position>
            <AltitudeMeters>70.40000152587890625</AltitudeMeters>
            <DistanceMeters>385117.57648317</DistanceMeters>
          </Trackpoint>
          <Trackpoint>
            <Time>2018-09-15T10:11:34.000Z</Time>
            <Position>
              <LatitudeDegrees>37.0967003144323825836181640625</LatitudeDegrees>
              <LongitudeDegrees>-7.9064050130546092987060546875</LongitudeDegrees>
            </Position>
            <AltitudeMeters>69</AltitudeMeters>
            <DistanceMeters>385153.63270421</DistanceMeters>
          </Trackpoint>
          <Trackpoint>
            <Time>2018-09-15T10:11:37.000Z</Time>
            <Position>
              <LatitudeDegrees>37.0963962189853191375732421875</LatitudeDegrees>
              <LongitudeDegrees>-7.90651741437613964080810546875</LongitudeDegrees>
            </Position>
            <AltitudeMeters>68.8000030517578125</AltitudeMeters>
            <DistanceMeters>385188.91948985</DistanceMeters>
          </Trackpoint>
          <Trackpoint>
            <Time>2018-09-15T10:11:41.000Z</Time>
            <Position>
              <LatitudeDegrees>37.09600411355495452880859375</LatitudeDegrees>
              <LongitudeDegrees>-7.9066638462245464324951171875</LongitudeDegrees>
            </Position>
            <AltitudeMeters>69</AltitudeMeters>
            <DistanceMeters>385234.45662453</DistanceMeters>
          </Trackpoint>
          <Trackpoint>
            <Time>2018-09-15T10:11:47.000Z</Time>
            <Position>
              <LatitudeDegrees>37.09546138532459735870361328125</LatitudeDegrees>
              <LongitudeDegrees>-7.9068770818412303924560546875</LongitudeDegrees>
            </Position>
            <AltitudeMeters>70.40000152587890625</AltitudeMeters>
            <DistanceMeters>385297.7602521</DistanceMeters>
          </Trackpoint>
          <Trackpoint>
            <Time>2018-09-15T10:11:51.000Z</Time>
            <Position>
              <LatitudeDegrees>37.09511697292327880859375</LatitudeDegrees>
              <LongitudeDegrees>-7.907008342444896697998046875</LongitudeDegrees>
            </Position>
            <AltitudeMeters>71.8000030517578125</AltitudeMeters>
            <DistanceMeters>385337.82615643</DistanceMeters>
          </Trackpoint>
          <Trackpoint>
            <Time>2018-09-15T10:11:55.000Z</Time>
            <Position>
              <LatitudeDegrees>37.0947664417326450347900390625</LatitudeDegrees>
              <LongitudeDegrees>-7.90714253671467304229736328125</LongitudeDegrees>
            </Position>
            <AltitudeMeters>71.40000152587890625</AltitudeMeters>
            <DistanceMeters>385378.61941049</DistanceMeters>
          </Trackpoint>
          <Trackpoint>
            <Time>2018-09-15T10:12:00.000Z</Time>
            <Position>
              <LatitudeDegrees>37.09429412148892879486083984375</LatitudeDegrees>
              <LongitudeDegrees>-7.9073139466345310211181640625</LongitudeDegrees>
            </Position>
            <AltitudeMeters>68.40000152587890625</AltitudeMeters>
            <DistanceMeters>385433.3478685</DistanceMeters>
          </Trackpoint>
          <Trackpoint>
            <Time>2018-09-15T10:12:06.000Z</Time>
            <Position>
              <LatitudeDegrees>37.09368274547159671783447265625</LatitudeDegrees>
              <LongitudeDegrees>-7.90753564797341823577880859375</LongitudeDegrees>
            </Position>
            <AltitudeMeters>65</AltitudeMeters>
            <DistanceMeters>385504.18459562</DistanceMeters>
          </Trackpoint>
          <Trackpoint>
            <Time>2018-09-15T10:12:09.000Z</Time>
            <Position>
              <LatitudeDegrees>37.09336373023688793182373046875</LatitudeDegrees>
              <LongitudeDegrees>-7.90765249170362949371337890625</LongitudeDegrees>
            </Position>
            <AltitudeMeters>63.200000762939453125</AltitudeMeters>
            <DistanceMeters>385541.17587261</DistanceMeters>
          </Trackpoint>
          <Trackpoint>
            <Time>2018-09-15T10:12:11.000Z</Time>
            <Position>
              <LatitudeDegrees>37.0931460522115230560302734375</LatitudeDegrees>
              <LongitudeDegrees>-7.90773647837340831756591796875</LongitudeDegrees>
            </Position>
            <AltitudeMeters>62.59999847412109375</AltitudeMeters>
            <DistanceMeters>385566.52539529</DistanceMeters>
          </Trackpoint>
          <Trackpoint>
            <Time>2018-09-15T10:12:14.000Z</Time>
            <Position>
              <LatitudeDegrees>37.09281655959784984588623046875</LatitudeDegrees>
              <LongitudeDegrees>-7.90787704288959503173828125</LongitudeDegrees>
            </Position>
            <AltitudeMeters>63</AltitudeMeters>
            <DistanceMeters>385605.26367382</DistanceMeters>
          </Trackpoint>
          <Trackpoint>
            <Time>2018-09-15T10:12:16.000Z</Time>
            <Position>
              <LatitudeDegrees>37.092603407800197601318359375</LatitudeDegrees>
              <LongitudeDegrees>-7.90799011476337909698486328125</LongitudeDegrees>
            </Position>
            <AltitudeMeters>63.200000762939453125</AltitudeMeters>
            <DistanceMeters>385631.02450296</DistanceMeters>
          </Trackpoint>
          <Trackpoint>
            <Time>2018-09-15T10:12:17.000Z</Time>
            <Position>
              <LatitudeDegrees>37.092503495514392852783203125</LatitudeDegrees>
              <LongitudeDegrees>-7.90805683471262454986572265625</LongitudeDegrees>
            </Position>
            <AltitudeMeters>63.40000152587890625</AltitudeMeters>
            <DistanceMeters>385643.62405628</DistanceMeters>
          </Trackpoint>
          <Trackpoint>
            <Time>2018-09-15T10:12:21.000Z</Time>
            <Position>
              <LatitudeDegrees>37.09214097820222377777099609375</LatitudeDegrees>
              <LongitudeDegrees>-7.90835715830326080322265625</LongitudeDegrees>
            </Position>
            <AltitudeMeters>64</AltitudeMeters>
            <DistanceMeters>385691.98695943</DistanceMeters>
          </Trackpoint>
          <Trackpoint>
            <Time>2018-09-15T10:12:23.000Z</Time>
            <Position>
              <LatitudeDegrees>37.0919836498796939849853515625</LatitudeDegrees>
              <LongitudeDegrees>-7.90852211415767669677734375</LongitudeDegrees>
            </Position>
            <AltitudeMeters>64.1999969482421875</AltitudeMeters>
            <DistanceMeters>385714.81474187</DistanceMeters>
          </Trackpoint>
          <Trackpoint>
            <Time>2018-09-15T10:12:26.000Z</Time>
            <Position>
              <LatitudeDegrees>37.09176915697753429412841796875</LatitudeDegrees>
              <LongitudeDegrees>-7.9087754152715206146240234375</LongitudeDegrees>
            </Position>
            <AltitudeMeters>64.40000152587890625</AltitudeMeters>
            <DistanceMeters>385747.61231444</DistanceMeters>
          </Trackpoint>
          <Trackpoint>
            <Time>2018-09-15T10:12:33.000Z</Time>
            <Position>
              <LatitudeDegrees>37.0913318730890750885009765625</LatitudeDegrees>
              <LongitudeDegrees>-7.90930531919002532958984375</LongitudeDegrees>
            </Position>
            <AltitudeMeters>64.1999969482421875</AltitudeMeters>
            <DistanceMeters>385815.30409267</DistanceMeters>
          </Trackpoint>
          <Trackpoint>
            <Time>2018-09-15T10:12:37.000Z</Time>
            <Position>
              <LatitudeDegrees>37.09110296331346035003662109375</LatitudeDegrees>
              <LongitudeDegrees>-7.9095777310431003570556640625</LongitudeDegrees>
            </Position>
            <AltitudeMeters>64.59999847412109375</AltitudeMeters>
            <DistanceMeters>385850.43340105</DistanceMeters>
          </Trackpoint>
          <Trackpoint>
            <Time>2018-09-15T10:12:39.000Z</Time>
            <Position>
              <LatitudeDegrees>37.09098913706839084625244140625</LatitudeDegrees>
              <LongitudeDegrees>-7.90971301496028900146484375</LongitudeDegrees>
            </Position>
            <AltitudeMeters>65</AltitudeMeters>
            <DistanceMeters>385867.89092321</DistanceMeters>
          </Trackpoint>
          <Trackpoint>
            <Time>2018-09-15T10:12:42.000Z</Time>
            <Position>
              <LatitudeDegrees>37.0908185653388500213623046875</LatitudeDegrees>
              <LongitudeDegrees>-7.90991879068315029144287109375</LongitudeDegrees>
            </Position>
            <AltitudeMeters>65.40000152587890625</AltitudeMeters>
            <DistanceMeters>385894.23869706</DistanceMeters>
          </Trackpoint>
          <Trackpoint>
            <Time>2018-09-15T10:12:45.000Z</Time>
            <Position>
              <LatitudeDegrees>37.09065310657024383544921875</LatitudeDegrees>
              <LongitudeDegrees>-7.91012071073055267333984375</LongitudeDegrees>
            </Position>
            <AltitudeMeters>65.8000030517578125</AltitudeMeters>
            <DistanceMeters>385919.93951478</DistanceMeters>
          </Trackpoint>
          <Trackpoint>
            <Time>2018-09-15T10:12:52.000Z</Time>
            <Position>
              <LatitudeDegrees>37.09026393480598926544189453125</LatitudeDegrees>
              <LongitudeDegrees>-7.91058783419430255889892578125</LongitudeDegrees>
            </Position>
            <AltitudeMeters>64.8000030517578125</AltitudeMeters>
            <DistanceMeters>385979.90829861</DistanceMeters>
          </Trackpoint>
          <Trackpoint>
            <Time>2018-09-15T10:13:00.000Z</Time>
            <Position>
              <LatitudeDegrees>37.08982438780367374420166015625</LatitudeDegrees>
              <LongitudeDegrees>-7.91112192906439304351806640625</LongitudeDegrees>
            </Position>
            <AltitudeMeters>64.1999969482421875</AltitudeMeters>
            <DistanceMeters>386048.04053105</DistanceMeters>
          </Trackpoint>
          <Trackpoint>
            <Time>2018-09-15T10:13:07.000Z</Time>
            <Position>
              <LatitudeDegrees>37.08942155353724956512451171875</LatitudeDegrees>
              <LongitudeDegrees>-7.91159081272780895233154296875</LongitudeDegrees>
            </Position>
            <AltitudeMeters>64.1999969482421875</AltitudeMeters>
            <DistanceMeters>386109.22312521</DistanceMeters>
          </Trackpoint>
          <Trackpoint>
            <Time>2018-09-15T10:13:08.000Z</Time>
            <Position>
              <LatitudeDegrees>37.089361287653446197509765625</LatitudeDegrees>
              <LongitudeDegrees>-7.9116601310670375823974609375</LongitudeDegrees>
            </Position>
            <AltitudeMeters>64.1999969482421875</AltitudeMeters>
            <DistanceMeters>386118.32636703</DistanceMeters>
          </Trackpoint>
          <Trackpoint>
            <Time>2018-09-15T10:13:13.000Z</Time>
            <Position>
              <LatitudeDegrees>37.08910488523542881011962890625</LatitudeDegrees>
              <LongitudeDegrees>-7.91208274662494659423828125</LongitudeDegrees>
            </Position>
            <AltitudeMeters>63.200000762939453125</AltitudeMeters>
            <DistanceMeters>386165.46804639</DistanceMeters>
          </Trackpoint>
          <Trackpoint>
            <Time>2018-09-15T10:13:18.000Z</Time>
            <Position>
              <LatitudeDegrees>37.08903095684945583343505859375</LatitudeDegrees>
              <LongitudeDegrees>-7.9126377962529659271240234375</LongitudeDegrees>
            </Position>
            <AltitudeMeters>61.799999237060546875</AltitudeMeters>
            <DistanceMeters>386215.43059509</DistanceMeters>
          </Trackpoint>
          <Trackpoint>
            <Time>2018-09-15T10:13:21.000Z</Time>
            <Position>
              <LatitudeDegrees>37.08905291743576526641845703125</LatitudeDegrees>
              <LongitudeDegrees>-7.9129750840365886688232421875</LongitudeDegrees>
            </Position>
            <AltitudeMeters>61</AltitudeMeters>
            <DistanceMeters>386245.4763231</DistanceMeters>
          </Trackpoint>
          <Trackpoint>
            <Time>2018-09-15T10:13:22.000Z</Time>
            <Position>
              <LatitudeDegrees>37.089070938527584075927734375</LatitudeDegrees>
              <LongitudeDegrees>-7.9130743257701396942138671875</LongitudeDegrees>
            </Position>
            <AltitudeMeters>60.799999237060546875</AltitudeMeters>
            <DistanceMeters>386254.51235936</DistanceMeters>
          </Trackpoint>
          <Trackpoint>
            <Time>2018-09-15T10:13:24.000Z</Time>
            <Position>
              <LatitudeDegrees>37.089119218289852142333984375</LatitudeDegrees>
              <LongitudeDegrees>-7.9132433049380779266357421875</LongitudeDegrees>
            </Position>
            <AltitudeMeters>60.40000152587890625</AltitudeMeters>
            <DistanceMeters>386270.44854052</DistanceMeters>
          </Trackpoint>
          <Trackpoint>
            <Time>2018-09-15T10:13:26.000Z</Time>
            <Position>
              <LatitudeDegrees>37.08915232680737972259521484375</LatitudeDegrees>
              <LongitudeDegrees>-7.91340482421219348907470703125</LongitudeDegrees>
            </Position>
            <AltitudeMeters>60.200000762939453125</AltitudeMeters>
            <DistanceMeters>386285.2550322</DistanceMeters>
          </Trackpoint>
          <Trackpoint>
            <Time>2018-09-15T10:13:32.000Z</Time>
            <Position>
              <LatitudeDegrees>37.0888297073543071746826171875</LatitudeDegrees>
              <LongitudeDegrees>-7.9135963506996631622314453125</LongitudeDegrees>
            </Position>
            <AltitudeMeters>59</AltitudeMeters>
            <DistanceMeters>386324.98608672</DistanceMeters>
          </Trackpoint>
          <Trackpoint>
            <Time>2018-09-15T10:13:33.000Z</Time>
            <Position>
              <LatitudeDegrees>37.08875142037868499755859375</LatitudeDegrees>
              <LongitudeDegrees>-7.91358922608196735382080078125</LongitudeDegrees>
            </Position>
            <AltitudeMeters>59</AltitudeMeters>
            <DistanceMeters>386333.72234485</DistanceMeters>
          </Trackpoint>
          <Trackpoint>
            <Time>2018-09-15T10:13:36.000Z</Time>
            <Position>
              <LatitudeDegrees>37.0885115303099155426025390625</LatitudeDegrees>
              <LongitudeDegrees>-7.913585789501667022705078125</LongitudeDegrees>
            </Position>
            <AltitudeMeters>58.59999847412109375</AltitudeMeters>
            <DistanceMeters>386360.42434432</DistanceMeters>
          </Trackpoint>
          <Trackpoint>
            <Time>2018-09-15T10:13:42.000Z</Time>
            <Position>
              <LatitudeDegrees>37.08801674656569957733154296875</LatitudeDegrees>
              <LongitudeDegrees>-7.913597188889980316162109375</LongitudeDegrees>
            </Position>
            <AltitudeMeters>58</AltitudeMeters>
            <DistanceMeters>386415.50402817</DistanceMeters>
          </Trackpoint>
          <Trackpoint>
            <Time>2018-09-15T10:13:49.000Z</Time>
            <Position>
              <LatitudeDegrees>37.08741911686956882476806640625</LatitudeDegrees>
              <LongitudeDegrees>-7.913629710674285888671875</LongitudeDegrees>
            </Position>
            <AltitudeMeters>56.40000152587890625</AltitudeMeters>
            <DistanceMeters>386482.08406006</DistanceMeters>
          </Trackpoint>
          <Trackpoint>
            <Time>2018-09-15T10:13:55.000Z</Time>
            <Position>
              <LatitudeDegrees>37.08688552491366863250732421875</LatitudeDegrees>
              <LongitudeDegrees>-7.9136691056191921234130859375</LongitudeDegrees>
            </Position>
            <AltitudeMeters>56.59999847412109375</AltitudeMeters>
            <DistanceMeters>386541.57685494</DistanceMeters>
          </Trackpoint>
          <Trackpoint>
            <Time>2018-09-15T10:14:00.000Z</Time>
            <Position>
              <LatitudeDegrees>37.08642183803021907806396484375</LatitudeDegrees>
              <LongitudeDegrees>-7.9137076623737812042236328125</LongitudeDegrees>
            </Position>
            <AltitudeMeters>56.40000152587890625</AltitudeMeters>
            <DistanceMeters>386593.29950362</DistanceMeters>
          </Trackpoint>
          <Trackpoint>
            <Time>2018-09-15T10:14:01.000Z</Time>
            <Position>
              <LatitudeDegrees>37.08632804453372955322265625</LatitudeDegrees>
              <LongitudeDegrees>-7.913715206086635589599609375</LongitudeDegrees>
            </Position>
            <AltitudeMeters>56.40000152587890625</AltitudeMeters>
            <DistanceMeters>386603.76064584</DistanceMeters>
          </Trackpoint>
          <Trackpoint>
            <Time>2018-09-15T10:14:04.000Z</Time>
            <Position>
              <LatitudeDegrees>37.0860472507774829864501953125</LatitudeDegrees>
              <LongitudeDegrees>-7.91373775340616703033447265625</LongitudeDegrees>
            </Position>
            <AltitudeMeters>55.59999847412109375</AltitudeMeters>
            <DistanceMeters>386635.07767958</DistanceMeters>
          </Trackpoint>
          <Trackpoint>
            <Time>2018-09-15T10:14:08.000Z</Time>
            <Position>
              <LatitudeDegrees>37.08567216061055660247802734375</LatitudeDegrees>
              <LongitudeDegrees>-7.91376390494406223297119140625</LongitudeDegrees>
            </Position>
            <AltitudeMeters>54.799999237060546875</AltitudeMeters>
            <DistanceMeters>386676.89051374</DistanceMeters>
          </Trackpoint>
          <Trackpoint>
            <Time>2018-09-15T10:14:11.000Z</Time>
            <Position>
              <LatitudeDegrees>37.08538650535047054290771484375</LatitudeDegrees>
              <LongitudeDegrees>-7.9137773998081684112548828125</LongitudeDegrees>
            </Position>
            <AltitudeMeters>54.59999847412109375</AltitudeMeters>
            <DistanceMeters>386708.70701307</DistanceMeters>
          </Trackpoint>
          <Trackpoint>
            <Time>2018-09-15T10:14:17.000Z</Time>
            <Position>
              <LatitudeDegrees>37.08481050096452236175537109375</LatitudeDegrees>
              <LongitudeDegrees>-7.91382106952369213104248046875</LongitudeDegrees>
            </Position>
            <AltitudeMeters>53.40000152587890625</AltitudeMeters>
            <DistanceMeters>386772.93466881</DistanceMeters>
          </Trackpoint>
          <Trackpoint>
            <Time>2018-09-15T10:14:21.000Z</Time>
            <Position>
              <LatitudeDegrees>37.08442769944667816162109375</LatitudeDegrees>
              <LongitudeDegrees>-7.9138387553393840789794921875</LongitudeDegrees>
            </Position>
            <AltitudeMeters>53</AltitudeMeters>
            <DistanceMeters>386815.57022332</DistanceMeters>
          </Trackpoint>
          <Trackpoint>
            <Time>2018-09-15T10:14:25.000Z</Time>
            <Position>
              <LatitudeDegrees>37.08404858596622943878173828125</LatitudeDegrees>
              <LongitudeDegrees>-7.9138628952205181121826171875</LongitudeDegrees>
            </Position>
            <AltitudeMeters>53</AltitudeMeters>
            <DistanceMeters>386857.82068641</DistanceMeters>
          </Trackpoint>
          <Trackpoint>
            <Time>2018-09-15T10:14:31.000Z</Time>
            <Position>
              <LatitudeDegrees>37.0834807120263576507568359375</LatitudeDegrees>
              <LongitudeDegrees>-7.9138974286615848541259765625</LongitudeDegrees>
            </Position>
            <AltitudeMeters>53.40000152587890625</AltitudeMeters>
            <DistanceMeters>386921.10048745</DistanceMeters>
          </Trackpoint>
          <Trackpoint>
            <Time>2018-09-15T10:14:37.000Z</Time>
            <Position>
              <LatitudeDegrees>37.08290931768715381622314453125</LatitudeDegrees>
              <LongitudeDegrees>-7.91392969898879528045654296875</LongitudeDegrees>
            </Position>
            <AltitudeMeters>52.40000152587890625</AltitudeMeters>
            <DistanceMeters>386984.76228705</DistanceMeters>
          </Trackpoint>
          <Trackpoint>
            <Time>2018-09-15T10:14:43.000Z</Time>
            <Position>
              <LatitudeDegrees>37.08233716897666454315185546875</LatitudeDegrees>
              <LongitudeDegrees>-7.91396238841116428375244140625</LongitudeDegrees>
            </Position>
            <AltitudeMeters>51.59999847412109375</AltitudeMeters>
            <DistanceMeters>387048.50970317</DistanceMeters>
          </Trackpoint>
          <Trackpoint>
            <Time>2018-09-15T10:14:44.000Z</Time>
            <Position>
              <LatitudeDegrees>37.08224236965179443359375</LatitudeDegrees>
              <LongitudeDegrees>-7.91396859101951122283935546875</LongitudeDegrees>
            </Position>
            <AltitudeMeters>51.40000152587890625</AltitudeMeters>
            <DistanceMeters>387059.0756312</DistanceMeters>
          </Trackpoint>
          <Trackpoint>
            <Time>2018-09-15T10:14:47.000Z</Time>
            <Position>
              <LatitudeDegrees>37.081954367458820343017578125</LatitudeDegrees>
              <LongitudeDegrees>-7.9139849357306957244873046875</LongitudeDegrees>
            </Position>
            <AltitudeMeters>50.40000152587890625</AltitudeMeters>
            <DistanceMeters>387091.1637199</DistanceMeters>
          </Trackpoint>
          <Trackpoint>
            <Time>2018-09-15T10:14:50.000Z</Time>
            <Position>
              <LatitudeDegrees>37.08166376687586307525634765625</LatitudeDegrees>
              <LongitudeDegrees>-7.91400228627026081085205078125</LongitudeDegrees>
            </Position>
            <AltitudeMeters>49.799999237060546875</AltitudeMeters>
            <DistanceMeters>387123.544831</DistanceMeters>
          </Trackpoint>
          <Trackpoint>
            <Time>2018-09-15T10:14:56.000Z</Time>
            <Position>
              <LatitudeDegrees>37.0810801349580287933349609375</LatitudeDegrees>
              <LongitudeDegrees>-7.91404218412935733795166015625</LongitudeDegrees>
            </Position>
            <AltitudeMeters>48</AltitudeMeters>
            <DistanceMeters>387188.60073318</DistanceMeters>
          </Trackpoint>
          <Trackpoint>
            <Time>2018-09-15T10:15:02.000Z</Time>
            <Position>
              <LatitudeDegrees>37.08049264736473560333251953125</LatitudeDegrees>
              <LongitudeDegrees>-7.9141797311604022979736328125</LongitudeDegrees>
            </Position>
            <AltitudeMeters>46.799999237060546875</AltitudeMeters>
            <DistanceMeters>387255.120112</DistanceMeters>
          </Trackpoint>
          <Trackpoint>
            <Time>2018-09-15T10:15:08.000Z</Time>
            <Position>
              <LatitudeDegrees>37.0799190737307071685791015625</LatitudeDegrees>
              <LongitudeDegrees>-7.91436522267758846282958984375</LongitudeDegrees>
            </Position>
            <AltitudeMeters>46.200000762939453125</AltitudeMeters>
            <DistanceMeters>387321.05057505</DistanceMeters>
          </Trackpoint>
          <Trackpoint>
            <Time>2018-09-15T10:15:09.000Z</Time>
            <Position>
              <LatitudeDegrees>37.0798231847584247589111328125</LatitudeDegrees>
              <LongitudeDegrees>-7.9143956489861011505126953125</LongitudeDegrees>
            </Position>
            <AltitudeMeters>45.799999237060546875</AltitudeMeters>
            <DistanceMeters>387332.05973878</DistanceMeters>
          </Trackpoint>
          <Trackpoint>
            <Time>2018-09-15T10:15:15.000Z</Time>
            <Position>
              <LatitudeDegrees>37.0792584121227264404296875</LatitudeDegrees>
              <LongitudeDegrees>-7.91458114050328731536865234375</LongitudeDegrees>
            </Position>
            <AltitudeMeters>44.799999237060546875</AltitudeMeters>
            <DistanceMeters>387397.04210221</DistanceMeters>
          </Trackpoint>
          <Trackpoint>
            <Time>2018-09-15T10:15:17.000Z</Time>
            <Position>
              <LatitudeDegrees>37.079069316387176513671875</LatitudeDegrees>
              <LongitudeDegrees>-7.9146434180438518524169921875</LongitudeDegrees>
            </Position>
            <AltitudeMeters>44.59999847412109375</AltitudeMeters>
            <DistanceMeters>387418.80342728</DistanceMeters>
          </Trackpoint>
          <Trackpoint>
            <Time>2018-09-15T10:15:23.000Z</Time>
            <Position>
              <LatitudeDegrees>37.0785025320947170257568359375</LatitudeDegrees>
              <LongitudeDegrees>-7.91482572443783283233642578125</LongitudeDegrees>
            </Position>
            <AltitudeMeters>45</AltitudeMeters>
            <DistanceMeters>387483.93160665</DistanceMeters>
          </Trackpoint>
          <Trackpoint>
            <Time>2018-09-15T10:15:29.000Z</Time>
            <Position>
              <LatitudeDegrees>37.077939100563526153564453125</LatitudeDegrees>
              <LongitudeDegrees>-7.91500928811728954315185546875</LongitudeDegrees>
            </Position>
            <AltitudeMeters>45.40000152587890625</AltitudeMeters>
            <DistanceMeters>387548.72644828</DistanceMeters>
          </Trackpoint>
          <Trackpoint>
            <Time>2018-09-15T10:15:35.000Z</Time>
            <Position>
              <LatitudeDegrees>37.07736653275787830352783203125</LatitudeDegrees>
              <LongitudeDegrees>-7.91519670747220516204833984375</LongitudeDegrees>
            </Position>
            <AltitudeMeters>45.59999847412109375</AltitudeMeters>
            <DistanceMeters>387614.59154727</DistanceMeters>
          </Trackpoint>
          <Trackpoint>
            <Time>2018-09-15T10:15:41.000Z</Time>
            <Position>
              <LatitudeDegrees>37.0767976529896259307861328125</LatitudeDegrees>
              <LongitudeDegrees>-7.91538110934197902679443359375</LongitudeDegrees>
            </Position>
            <AltitudeMeters>44.40000152587890625</AltitudeMeters>
            <DistanceMeters>387679.99202226</DistanceMeters>
          </Trackpoint>
          <Trackpoint>
            <Time>2018-09-15T10:15:46.000Z</Time>
            <Position>
              <LatitudeDegrees>37.07631829194724559783935546875</LatitudeDegrees>
              <LongitudeDegrees>-7.915539108216762542724609375</LongitudeDegrees>
            </Position>
            <AltitudeMeters>44.59999847412109375</AltitudeMeters>
            <DistanceMeters>387735.15975653</DistanceMeters>
          </Trackpoint>
          <Trackpoint>
            <Time>2018-09-15T10:15:52.000Z</Time>
            <Position>
              <LatitudeDegrees>37.07573843188583850860595703125</LatitudeDegrees>
              <LongitudeDegrees>-7.91572828777134418487548828125</LongitudeDegrees>
            </Position>
            <AltitudeMeters>44.799999237060546875</AltitudeMeters>
            <DistanceMeters>387801.84989464</DistanceMeters>
          </Trackpoint>
          <Trackpoint>
            <Time>2018-09-15T10:15:58.000Z</Time>
            <Position>
              <LatitudeDegrees>37.07516477443277835845947265625</LatitudeDegrees>
              <LongitudeDegrees>-7.91592626832425594329833984375</LongitudeDegrees>
            </Position>
            <AltitudeMeters>43.59999847412109375</AltitudeMeters>
            <DistanceMeters>387868.07533384</DistanceMeters>
          </Trackpoint>
          <Trackpoint>
            <Time>2018-09-15T10:16:01.000Z</Time>
            <Position>
              <LatitudeDegrees>37.07489303313195705413818359375</LatitudeDegrees>
              <LongitudeDegrees>-7.9160664975643157958984375</LongitudeDegrees>
            </Position>
            <AltitudeMeters>42.799999237060546875</AltitudeMeters>
            <DistanceMeters>387900.7838547</DistanceMeters>
          </Trackpoint>
          <Trackpoint>
            <Time>2018-09-15T10:16:07.000Z</Time>
            <Position>
              <LatitudeDegrees>37.07437721081078052520751953125</LatitudeDegrees>
              <LongitudeDegrees>-7.91641459800302982330322265625</LongitudeDegrees>
            </Position>
            <AltitudeMeters>41.799999237060546875</AltitudeMeters>
            <DistanceMeters>387965.98900912</DistanceMeters>
          </Trackpoint>
          <Trackpoint>
            <Time>2018-09-15T10:16:13.000Z</Time>
            <Position>
              <LatitudeDegrees>37.07385753281414508819580078125</LatitudeDegrees>
              <LongitudeDegrees>-7.9167771153151988983154296875</LongitudeDegrees>
            </Position>
            <AltitudeMeters>41.200000762939453125</AltitudeMeters>
            <DistanceMeters>388032.18539864</DistanceMeters>
          </Trackpoint>
          <Trackpoint>
            <Time>2018-09-15T10:16:14.000Z</Time>
            <Position>
              <LatitudeDegrees>37.07377002574503421783447265625</LatitudeDegrees>
              <LongitudeDegrees>-7.91683771647512912750244140625</LongitudeDegrees>
            </Position>
            <AltitudeMeters>41.40000152587890625</AltitudeMeters>
            <DistanceMeters>388043.31286053</DistanceMeters>
          </Trackpoint>
          <Trackpoint>
            <Time>2018-09-15T10:16:20.000Z</Time>
            <Position>
              <LatitudeDegrees>37.07324096001684665679931640625</LatitudeDegrees>
              <LongitudeDegrees>-7.91719914413988590240478515625</LongitudeDegrees>
            </Position>
            <AltitudeMeters>42</AltitudeMeters>
            <DistanceMeters>388110.37789267</DistanceMeters>
          </Trackpoint>
          <Trackpoint>
            <Time>2018-09-15T10:16:26.000Z</Time>
            <Position>
              <LatitudeDegrees>37.07270183600485324859619140625</LatitudeDegrees>
              <LongitudeDegrees>-7.917534671723842620849609375</LongitudeDegrees>
            </Position>
            <AltitudeMeters>42</AltitudeMeters>
            <DistanceMeters>388177.37408508</DistanceMeters>
          </Trackpoint>
          <Trackpoint>
            <Time>2018-09-15T10:16:32.000Z</Time>
            <Position>
              <LatitudeDegrees>37.07215701229870319366455078125</LatitudeDegrees>
              <LongitudeDegrees>-7.917848490178585052490234375</LongitudeDegrees>
            </Position>
            <AltitudeMeters>41.40000152587890625</AltitudeMeters>
            <DistanceMeters>388244.11132696</DistanceMeters>
          </Trackpoint>
          <Trackpoint>
            <Time>2018-09-15T10:16:38.000Z</Time>
            <Position>
              <LatitudeDegrees>37.07160539925098419189453125</LatitudeDegrees>
              <LongitudeDegrees>-7.91816205717623233795166015625</LongitudeDegrees>
            </Position>
            <AltitudeMeters>40</AltitudeMeters>
            <DistanceMeters>388311.52687068</DistanceMeters>
          </Trackpoint>
          <Trackpoint>
            <Time>2018-09-15T10:16:44.000Z</Time>
            <Position>
              <LatitudeDegrees>37.0710399560630321502685546875</LatitudeDegrees>
              <LongitudeDegrees>-7.91848693974316120147705078125</LongitudeDegrees>
            </Position>
            <AltitudeMeters>38</AltitudeMeters>
            <DistanceMeters>388380.75994628</DistanceMeters>
          </Trackpoint>
          <Trackpoint>
            <Time>2018-09-15T10:16:50.000Z</Time>
            <Position>
              <LatitudeDegrees>37.07046537660062313079833984375</LatitudeDegrees>
              <LongitudeDegrees>-7.91879631578922271728515625</LongitudeDegrees>
            </Position>
            <AltitudeMeters>38.40000152587890625</AltitudeMeters>
            <DistanceMeters>388450.36375503</DistanceMeters>
          </Trackpoint>
          <Trackpoint>
            <Time>2018-09-15T10:16:56.000Z</Time>
            <Position>
              <LatitudeDegrees>37.06987562589347362518310546875</LatitudeDegrees>
              <LongitudeDegrees>-7.9190801270306110382080078125</LongitudeDegrees>
            </Position>
            <AltitudeMeters>40.59999847412109375</AltitudeMeters>
            <DistanceMeters>388520.67697422</DistanceMeters>
          </Trackpoint>
          <Trackpoint>
            <Time>2018-09-15T10:17:02.000Z</Time>
            <Position>
              <LatitudeDegrees>37.069302387535572052001953125</LatitudeDegrees>
              <LongitudeDegrees>-7.9193553887307643890380859375</LongitudeDegrees>
            </Position>
            <AltitudeMeters>41.200000762939453125</AltitudeMeters>
            <DistanceMeters>388589.00230524</DistanceMeters>
          </Trackpoint>
          <Trackpoint>
            <Time>2018-09-15T10:17:03.000Z</Time>
            <Position>
              <LatitudeDegrees>37.06920993514358997344970703125</LatitudeDegrees>
              <LongitudeDegrees>-7.91939956136047840118408203125</LongitudeDegrees>
            </Position>
            <AltitudeMeters>41</AltitudeMeters>
            <DistanceMeters>388600.01474942</DistanceMeters>
          </Trackpoint>
          <Trackpoint>
            <Time>2018-09-15T10:17:09.000Z</Time>
            <Position>
              <LatitudeDegrees>37.06865823827683925628662109375</LatitudeDegrees>
              <LongitudeDegrees>-7.91966669261455535888671875</LongitudeDegrees>
            </Position>
            <AltitudeMeters>40</AltitudeMeters>
            <DistanceMeters>388665.84323265</DistanceMeters>
          </Trackpoint>
          <Trackpoint>
            <Time>2018-09-15T10:17:11.000Z</Time>
            <Position>
              <LatitudeDegrees>37.06847350113093852996826171875</LatitudeDegrees>
              <LongitudeDegrees>-7.91975595988333225250244140625</LongitudeDegrees>
            </Position>
            <AltitudeMeters>39.200000762939453125</AltitudeMeters>
            <DistanceMeters>388687.88041738</DistanceMeters>
          </Trackpoint>
          <Trackpoint>
            <Time>2018-09-15T10:17:17.000Z</Time>
            <Position>
              <LatitudeDegrees>37.0679125003516674041748046875</LatitudeDegrees>
              <LongitudeDegrees>-7.9200266115367412567138671875</LongitudeDegrees>
            </Position>
            <AltitudeMeters>37.200000762939453125</AltitudeMeters>
            <DistanceMeters>388754.78759261</DistanceMeters>
          </Trackpoint>
          <Trackpoint>
            <Time>2018-09-15T10:17:23.000Z</Time>
            <Position>
              <LatitudeDegrees>37.06733825616538524627685546875</LatitudeDegrees>
              <LongitudeDegrees>-7.92028586380183696746826171875</LongitudeDegrees>
            </Position>
            <AltitudeMeters>35.799999237060546875</AltitudeMeters>
            <DistanceMeters>388822.7227882</DistanceMeters>
          </Trackpoint>
          <Trackpoint>
            <Time>2018-09-15T10:17:29.000Z</Time>
            <Position>
              <LatitudeDegrees>37.06673744134604930877685546875</LatitudeDegrees>
              <LongitudeDegrees>-7.9204787313938140869140625</LongitudeDegrees>
            </Position>
            <AltitudeMeters>35.59999847412109375</AltitudeMeters>
            <DistanceMeters>388891.75353193</DistanceMeters>
          </Trackpoint>
          <Trackpoint>
            <Time>2018-09-15T10:17:34.000Z</Time>
            <Position>
              <LatitudeDegrees>37.06621684134006500244140625</LatitudeDegrees>
              <LongitudeDegrees>-7.92058861814439296722412109375</LongitudeDegrees>
            </Position>
            <AltitudeMeters>34.200000762939453125</AltitudeMeters>
            <DistanceMeters>388950.5135526</DistanceMeters>
          </Trackpoint>
          <Trackpoint>
            <Time>2018-09-15T10:17:40.000Z</Time>
            <Position>
              <LatitudeDegrees>37.065592221915721893310546875</LatitudeDegrees>
              <LongitudeDegrees>-7.920725829899311065673828125</LongitudeDegrees>
            </Position>
            <AltitudeMeters>33.799999237060546875</AltitudeMeters>
            <DistanceMeters>389021.09492856</DistanceMeters>
          </Trackpoint>
          <Trackpoint>
            <Time>2018-09-15T10:17:42.000Z</Time>
            <Position>
              <LatitudeDegrees>37.06539549864828586578369140625</LatitudeDegrees>
              <LongitudeDegrees>-7.92078089900314807891845703125</LongitudeDegrees>
            </Position>
            <AltitudeMeters>33.799999237060546875</AltitudeMeters>
            <DistanceMeters>389043.53008983</DistanceMeters>
          </Trackpoint>
          <Trackpoint>
            <Time>2018-09-15T10:17:45.000Z</Time>
            <Position>
              <LatitudeDegrees>37.06511889584362506866455078125</LatitudeDegrees>
              <LongitudeDegrees>-7.9208958148956298828125</LongitudeDegrees>
            </Position>
            <AltitudeMeters>33.799999237060546875</AltitudeMeters>
            <DistanceMeters>389075.96442111</DistanceMeters>
          </Trackpoint>
          <Trackpoint>
            <Time>2018-09-15T10:17:48.000Z</Time>
            <Position>
              <LatitudeDegrees>37.0648661814630031585693359375</LatitudeDegrees>
              <LongitudeDegrees>-7.92102246545255184173583984375</LongitudeDegrees>
            </Position>
            <AltitudeMeters>33.799999237060546875</AltitudeMeters>
            <DistanceMeters>389106.25782878</DistanceMeters>
          </Trackpoint>
          <Trackpoint>
            <Time>2018-09-15T10:17:51.000Z</Time>
            <Position>
              <LatitudeDegrees>37.06463970243930816650390625</LatitudeDegrees>
              <LongitudeDegrees>-7.9211440868675708770751953125</LongitudeDegrees>
            </Position>
            <AltitudeMeters>33.40000152587890625</AltitudeMeters>
            <DistanceMeters>389133.68221587</DistanceMeters>
          </Trackpoint>
          <Trackpoint>
            <Time>2018-09-15T10:17:54.000Z</Time>
            <Position>
              <LatitudeDegrees>37.06442420370876789093017578125</LatitudeDegrees>
              <LongitudeDegrees>-7.92125648818910121917724609375</LongitudeDegrees>
            </Position>
            <AltitudeMeters>32.799999237060546875</AltitudeMeters>
            <DistanceMeters>389159.66207468</DistanceMeters>
          </Trackpoint>
          <Trackpoint>
            <Time>2018-09-15T10:17:57.000Z</Time>
            <Position>
              <LatitudeDegrees>37.06426461227238178253173828125</LatitudeDegrees>
              <LongitudeDegrees>-7.92134114541113376617431640625</LongitudeDegrees>
            </Position>
            <AltitudeMeters>32.40000152587890625</AltitudeMeters>
            <DistanceMeters>389178.95062516</DistanceMeters>
          </Trackpoint>
          <Trackpoint>
            <Time>2018-09-15T10:18:00.000Z</Time>
            <Position>
              <LatitudeDegrees>37.06417676992714405059814453125</LatitudeDegrees>
              <LongitudeDegrees>-7.92138732969760894775390625</LongitudeDegrees>
            </Position>
            <AltitudeMeters>32.200000762939453125</AltitudeMeters>
            <DistanceMeters>389189.55323906</DistanceMeters>
          </Trackpoint>
          <Trackpoint>
            <Time>2018-09-15T10:18:12.000Z</Time>
            <Position>
              <LatitudeDegrees>37.063913829624652862548828125</LatitudeDegrees>
              <LongitudeDegrees>-7.9215175844728946685791015625</LongitudeDegrees>
            </Position>
            <AltitudeMeters>32</AltitudeMeters>
            <DistanceMeters>389221.02258055</DistanceMeters>
          </Trackpoint>
          <Trackpoint>
            <Time>2018-09-15T10:18:17.000Z</Time>
            <Position>
              <LatitudeDegrees>37.0636340416967868804931640625</LatitudeDegrees>
              <LongitudeDegrees>-7.92166301049292087554931640625</LongitudeDegrees>
            </Position>
            <AltitudeMeters>32</AltitudeMeters>
            <DistanceMeters>389254.7357768</DistanceMeters>
          </Trackpoint>
          <Trackpoint>
            <Time>2018-09-15T10:18:25.000Z</Time>
            <Position>
              <LatitudeDegrees>37.063090391457080841064453125</LatitudeDegrees>
              <LongitudeDegrees>-7.92194095440208911895751953125</LongitudeDegrees>
            </Position>
            <AltitudeMeters>31.799999237060546875</AltitudeMeters>
            <DistanceMeters>389320.08694094</DistanceMeters>
          </Trackpoint>
          <Trackpoint>
            <Time>2018-09-15T10:18:32.000Z</Time>
            <Position>
              <LatitudeDegrees>37.06253123469650745391845703125</LatitudeDegrees>
              <LongitudeDegrees>-7.92222552001476287841796875</LongitudeDegrees>
            </Position>
            <AltitudeMeters>30.799999237060546875</AltitudeMeters>
            <DistanceMeters>389387.25839408</DistanceMeters>
          </Trackpoint>
          <Trackpoint>
            <Time>2018-09-15T10:18:33.000Z</Time>
            <Position>
              <LatitudeDegrees>37.06244766712188720703125</LatitudeDegrees>
              <LongitudeDegrees>-7.92226835153996944427490234375</LongitudeDegrees>
            </Position>
            <AltitudeMeters>30.6000003814697265625</AltitudeMeters>
            <DistanceMeters>389397.30789033</DistanceMeters>
          </Trackpoint>
          <Trackpoint>
            <Time>2018-09-15T10:18:39.000Z</Time>
            <Position>
              <LatitudeDegrees>37.06193746067583560943603515625</LatitudeDegrees>
              <LongitudeDegrees>-7.92252684943377971649169921875</LongitudeDegrees>
            </Position>
            <AltitudeMeters>29.799999237060546875</AltitudeMeters>
            <DistanceMeters>389458.56047698</DistanceMeters>
          </Trackpoint>
          <Trackpoint>
            <Time>2018-09-15T10:18:45.000Z</Time>
            <Position>
              <LatitudeDegrees>37.061420045793056488037109375</LatitudeDegrees>
              <LongitudeDegrees>-7.9227923043072223663330078125</LongitudeDegrees>
            </Position>
            <AltitudeMeters>28.6000003814697265625</AltitudeMeters>
            <DistanceMeters>389520.78926342</DistanceMeters>
          </Trackpoint>
          <Trackpoint>
            <Time>2018-09-15T10:18:51.000Z</Time>
            <Position>
              <LatitudeDegrees>37.06089709885418415069580078125</LatitudeDegrees>
              <LongitudeDegrees>-7.92305675335228443145751953125</LongitudeDegrees>
            </Position>
            <AltitudeMeters>27.6000003814697265625</AltitudeMeters>
            <DistanceMeters>389583.55482189</DistanceMeters>
          </Trackpoint>
          <Trackpoint>
            <Time>2018-09-15T10:18:53.000Z</Time>
            <Position>
              <LatitudeDegrees>37.06072292290627956390380859375</LatitudeDegrees>
              <LongitudeDegrees>-7.923145852982997894287109375</LongitudeDegrees>
            </Position>
            <AltitudeMeters>27.200000762939453125</AltitudeMeters>
            <DistanceMeters>389604.49393199</DistanceMeters>
          </Trackpoint>
          <Trackpoint>
            <Time>2018-09-15T10:18:59.000Z</Time>
            <Position>
              <LatitudeDegrees>37.060189582407474517822265625</LatitudeDegrees>
              <LongitudeDegrees>-7.92341466061770915985107421875</LongitudeDegrees>
            </Position>
            <AltitudeMeters>26.3999996185302734375</AltitudeMeters>
            <DistanceMeters>389668.47712014</DistanceMeters>
          </Trackpoint>
          <Trackpoint>
            <Time>2018-09-15T10:19:05.000Z</Time>
            <Position>
              <LatitudeDegrees>37.05966152250766754150390625</LatitudeDegrees>
              <LongitudeDegrees>-7.9236866533756256103515625</LongitudeDegrees>
            </Position>
            <AltitudeMeters>26.6000003814697265625</AltitudeMeters>
            <DistanceMeters>389732.02242975</DistanceMeters>
          </Trackpoint>
          <Trackpoint>
            <Time>2018-09-15T10:19:08.000Z</Time>
            <Position>
              <LatitudeDegrees>37.05939908511936664581298828125</LatitudeDegrees>
              <LongitudeDegrees>-7.92381682433187961578369140625</LongitudeDegrees>
            </Position>
            <AltitudeMeters>27.200000762939453125</AltitudeMeters>
            <DistanceMeters>389763.43734746</DistanceMeters>
          </Trackpoint>
          <Trackpoint>
            <Time>2018-09-15T10:19:14.000Z</Time>
            <Position>
              <LatitudeDegrees>37.05888058058917522430419921875</LatitudeDegrees>
              <LongitudeDegrees>-7.92408336885273456573486328125</LongitudeDegrees>
            </Position>
            <AltitudeMeters>27.6000003814697265625</AltitudeMeters>
            <DistanceMeters>389825.81527432</DistanceMeters>
          </Trackpoint>
          <Trackpoint>
            <Time>2018-09-15T10:19:20.000Z</Time>
            <Position>
              <LatitudeDegrees>37.05837808549404144287109375</LatitudeDegrees>
              <LongitudeDegrees>-7.92433935217559337615966796875</LongitudeDegrees>
            </Position>
            <AltitudeMeters>27</AltitudeMeters>
            <DistanceMeters>389886.18895507</DistanceMeters>
          </Trackpoint>
          <Trackpoint>
            <Time>2018-09-15T10:19:21.000Z</Time>
            <Position>
              <LatitudeDegrees>37.05829535610973834991455078125</LatitudeDegrees>
              <LongitudeDegrees>-7.92438226751983165740966796875</LongitudeDegrees>
            </Position>
            <AltitudeMeters>26.799999237060546875</AltitudeMeters>
            <DistanceMeters>389896.15498792</DistanceMeters>
          </Trackpoint>
          <Trackpoint>
            <Time>2018-09-15T10:19:27.000Z</Time>
            <Position>
              <LatitudeDegrees>37.05777802504599094390869140625</LatitudeDegrees>
              <LongitudeDegrees>-7.92464110068976879119873046875</LongitudeDegrees>
            </Position>
            <AltitudeMeters>26.6000003814697265625</AltitudeMeters>
            <DistanceMeters>389958.15494906</DistanceMeters>
          </Trackpoint>
          <Trackpoint>
            <Time>2018-09-15T10:19:28.000Z</Time>
            <Position>
              <LatitudeDegrees>37.05768951214849948883056640625</LatitudeDegrees>
              <LongitudeDegrees>-7.924684770405292510986328125</LongitudeDegrees>
            </Position>
            <AltitudeMeters>26.3999996185302734375</AltitudeMeters>
            <DistanceMeters>389968.742648</DistanceMeters>
          </Trackpoint>
          <Trackpoint>
            <Time>2018-09-15T10:19:34.000Z</Time>
            <Position>
              <LatitudeDegrees>37.05715457908809185028076171875</LatitudeDegrees>
              <LongitudeDegrees>-7.92495877481997013092041015625</LongitudeDegrees>
            </Position>
            <AltitudeMeters>26.200000762939453125</AltitudeMeters>
            <DistanceMeters>390033.06401213</DistanceMeters>
          </Trackpoint>
          <Trackpoint>
            <Time>2018-09-15T10:19:40.000Z</Time>
            <Position>
              <LatitudeDegrees>37.05661729909479618072509765625</LatitudeDegrees>
              <LongitudeDegrees>-7.92523286305367946624755859375</LongitudeDegrees>
            </Position>
            <AltitudeMeters>26</AltitudeMeters>
            <DistanceMeters>390097.63003192</DistanceMeters>
          </Trackpoint>
          <Trackpoint>
            <Time>2018-09-15T10:19:46.000Z</Time>
            <Position>
              <LatitudeDegrees>37.056072056293487548828125</LatitudeDegrees>
              <LongitudeDegrees>-7.92550527490675449371337890625</LongitudeDegrees>
            </Position>
            <AltitudeMeters>25.3999996185302734375</AltitudeMeters>
            <DistanceMeters>390162.9625394</DistanceMeters>
          </Trackpoint>
          <Trackpoint>
            <Time>2018-09-15T10:19:47.000Z</Time>
            <Position>
              <LatitudeDegrees>37.05598379485309123992919921875</LatitudeDegrees>
              <LongitudeDegrees>-7.92555154301226139068603515625</LongitudeDegrees>
            </Position>
            <AltitudeMeters>25.3999996185302734375</AltitudeMeters>
            <DistanceMeters>390173.61146892</DistanceMeters>
          </Trackpoint>
          <Trackpoint>
            <Time>2018-09-15T10:19:53.000Z</Time>
            <Position>
              <LatitudeDegrees>37.05543226562440395355224609375</LatitudeDegrees>
              <LongitudeDegrees>-7.92581087909638881683349609375</LongitudeDegrees>
            </Position>
            <AltitudeMeters>24.3999996185302734375</AltitudeMeters>
            <DistanceMeters>390239.17756056</DistanceMeters>
          </Trackpoint>
          <Trackpoint>
            <Time>2018-09-15T10:19:57.000Z</Time>
            <Position>
              <LatitudeDegrees>37.055061198770999908447265625</LatitudeDegrees>
              <LongitudeDegrees>-7.92595890350639820098876953125</LongitudeDegrees>
            </Position>
            <AltitudeMeters>23.3999996185302734375</AltitudeMeters>
            <DistanceMeters>390282.52036899</DistanceMeters>
          </Trackpoint>
          <Trackpoint>
            <Time>2018-09-15T10:20:02.000Z</Time>
            <Position>
              <LatitudeDegrees>37.05458544194698333740234375</LatitudeDegrees>
              <LongitudeDegrees>-7.92611715383827686309814453125</LongitudeDegrees>
            </Position>
            <AltitudeMeters>22.799999237060546875</AltitudeMeters>
            <DistanceMeters>390337.30695786</DistanceMeters>
          </Trackpoint>
          <Trackpoint>
            <Time>2018-09-15T10:20:08.000Z</Time>
            <Position>
              <LatitudeDegrees>37.05401237122714519500732421875</LatitudeDegrees>
              <LongitudeDegrees>-7.92627163231372833251953125</LongitudeDegrees>
            </Position>
            <AltitudeMeters>22.3999996185302734375</AltitudeMeters>
            <DistanceMeters>390402.55011593</DistanceMeters>
          </Trackpoint>
          <Trackpoint>
            <Time>2018-09-15T10:20:10.000Z</Time>
            <Position>
              <LatitudeDegrees>37.0538201741874217987060546875</LatitudeDegrees>
              <LongitudeDegrees>-7.92632133699953556060791015625</LongitudeDegrees>
            </Position>
            <AltitudeMeters>22.6000003814697265625</AltitudeMeters>
            <DistanceMeters>390424.39303513</DistanceMeters>
          </Trackpoint>
          <Trackpoint>
            <Time>2018-09-15T10:20:16.000Z</Time>
            <Position>
              <LatitudeDegrees>37.05325028859078884124755859375</LatitudeDegrees>
              <LongitudeDegrees>-7.92647355236113071441650390625</LongitudeDegrees>
            </Position>
            <AltitudeMeters>22.6000003814697265625</AltitudeMeters>
            <DistanceMeters>390489.24749717</DistanceMeters>
          </Trackpoint>
          <Trackpoint>
            <Time>2018-09-15T10:20:17.000Z</Time>
            <Position>
              <LatitudeDegrees>37.05315875820815563201904296875</LatitudeDegrees>
              <LongitudeDegrees>-7.92649752460420131683349609375</LongitudeDegrees>
            </Position>
            <AltitudeMeters>22.799999237060546875</AltitudeMeters>
            <DistanceMeters>390499.65454943</DistanceMeters>
          </Trackpoint>
          <Trackpoint>
            <Time>2018-09-15T10:20:20.000Z</Time>
            <Position>
              <LatitudeDegrees>37.0528976619243621826171875</LatitudeDegrees>
              <LongitudeDegrees>-7.9265673458576202392578125</LongitudeDegrees>
            </Position>
            <AltitudeMeters>22.799999237060546875</AltitudeMeters>
            <DistanceMeters>390529.3695109</DistanceMeters>
          </Trackpoint>
          <Trackpoint>
            <Time>2018-09-15T10:20:22.000Z</Time>
            <Position>
              <LatitudeDegrees>37.0527332089841365814208984375</LatitudeDegrees>
              <LongitudeDegrees>-7.92660824954509735107421875</LongitudeDegrees>
            </Position>
            <AltitudeMeters>22.799999237060546875</AltitudeMeters>
            <DistanceMeters>390548.03058986</DistanceMeters>
          </Trackpoint>
          <Trackpoint>
            <Time>2018-09-15T10:20:26.000Z</Time>
            <Position>
              <LatitudeDegrees>37.05242089927196502685546875</LatitudeDegrees>
              <LongitudeDegrees>-7.9266878776252269744873046875</LongitudeDegrees>
            </Position>
            <AltitudeMeters>22.799999237060546875</AltitudeMeters>
            <DistanceMeters>390583.50369449</DistanceMeters>
          </Trackpoint>
          <Trackpoint>
            <Time>2018-09-15T10:20:29.000Z</Time>
            <Position>
              <LatitudeDegrees>37.05219986848533153533935546875</LatitudeDegrees>
              <LongitudeDegrees>-7.926745712757110595703125</LongitudeDegrees>
            </Position>
            <AltitudeMeters>22.799999237060546875</AltitudeMeters>
            <DistanceMeters>390608.63570052</DistanceMeters>
          </Trackpoint>
          <Trackpoint>
            <Time>2018-09-15T10:20:33.000Z</Time>
            <Position>
              <LatitudeDegrees>37.05194707028567790985107421875</LatitudeDegrees>
              <LongitudeDegrees>-7.92681234888732433319091796875</LongitudeDegrees>
            </Position>
            <AltitudeMeters>22.200000762939453125</AltitudeMeters>
            <DistanceMeters>390637.38846663</DistanceMeters>
          </Trackpoint>
          <Trackpoint>
            <Time>2018-09-15T10:20:40.000Z</Time>
            <Position>
              <LatitudeDegrees>37.05158396624028682708740234375</LatitudeDegrees>
              <LongitudeDegrees>-7.9269369877874851226806640625</LongitudeDegrees>
            </Position>
            <AltitudeMeters>21.6000003814697265625</AltitudeMeters>
            <DistanceMeters>390679.29179984</DistanceMeters>
          </Trackpoint>
          <Trackpoint>
            <Time>2018-09-15T10:20:50.000Z</Time>
            <Position>
              <LatitudeDegrees>37.051391936838626861572265625</LatitudeDegrees>
              <LongitudeDegrees>-7.92698233388364315032958984375</LongitudeDegrees>
            </Position>
            <AltitudeMeters>21.6000003814697265625</AltitudeMeters>
            <DistanceMeters>390701.04108775</DistanceMeters>
          </Trackpoint>
          <Trackpoint>
            <Time>2018-09-15T10:20:53.000Z</Time>
            <Position>
              <LatitudeDegrees>37.05138288438320159912109375</LatitudeDegrees>
              <LongitudeDegrees>-7.92698442935943603515625</LongitudeDegrees>
            </Position>
            <AltitudeMeters>21.6000003814697265625</AltitudeMeters>
            <DistanceMeters>390702.06455678</DistanceMeters>
          </Trackpoint>
          <Trackpoint>
            <Time>2018-09-15T10:21:35.000Z</Time>
            <Position>
              <LatitudeDegrees>37.05134323798120021820068359375</LatitudeDegrees>
              <LongitudeDegrees>-7.92699390091001987457275390625</LongitudeDegrees>
            </Position>
            <AltitudeMeters>21.6000003814697265625</AltitudeMeters>
            <DistanceMeters>390706.55701945</DistanceMeters>
          </Trackpoint>
          <Trackpoint>
            <Time>2018-09-15T10:21:36.000Z</Time>
            <Position>
              <LatitudeDegrees>37.0513126440346240997314453125</LatitudeDegrees>
              <LongitudeDegrees>-7.9269990138709545135498046875</LongitudeDegrees>
            </Position>
            <AltitudeMeters>21.6000003814697265625</AltitudeMeters>
            <DistanceMeters>390709.99246847</DistanceMeters>
          </Trackpoint>
          <Trackpoint>
            <Time>2018-09-15T10:21:38.000Z</Time>
            <Position>
              <LatitudeDegrees>37.0512328483164310455322265625</LatitudeDegrees>
              <LongitudeDegrees>-7.92701954953372478485107421875</LongitudeDegrees>
            </Position>
            <AltitudeMeters>21.3999996185302734375</AltitudeMeters>
            <DistanceMeters>390719.05943135</DistanceMeters>
          </Trackpoint>
          <Trackpoint>
            <Time>2018-09-15T10:21:40.000Z</Time>
            <Position>
              <LatitudeDegrees>37.051131427288055419921875</LatitudeDegrees>
              <LongitudeDegrees>-7.92704536579549312591552734375</LongitudeDegrees>
            </Position>
            <AltitudeMeters>21.200000762939453125</AltitudeMeters>
            <DistanceMeters>390730.57806465</DistanceMeters>
          </Trackpoint>
          <Trackpoint>
            <Time>2018-09-15T10:21:43.000Z</Time>
            <Position>
              <LatitudeDegrees>37.050955407321453094482421875</LatitudeDegrees>
              <LongitudeDegrees>-7.92708559893071651458740234375</LongitudeDegrees>
            </Position>
            <AltitudeMeters>20.799999237060546875</AltitudeMeters>
            <DistanceMeters>390750.49290729</DistanceMeters>
          </Trackpoint>
          <Trackpoint>
            <Time>2018-09-15T10:21:45.000Z</Time>
            <Position>
              <LatitudeDegrees>37.0508315227925777435302734375</LatitudeDegrees>
              <LongitudeDegrees>-7.92711384594440460205078125</LongitudeDegrees>
            </Position>
            <AltitudeMeters>20.6000003814697265625</AltitudeMeters>
            <DistanceMeters>390764.50797857</DistanceMeters>
          </Trackpoint>
          <Trackpoint>
            <Time>2018-09-15T10:21:47.000Z</Time>
            <Position>
              <LatitudeDegrees>37.05070571042597293853759765625</LatitudeDegrees>
              <LongitudeDegrees>-7.92715181596577167510986328125</LongitudeDegrees>
            </Position>
            <AltitudeMeters>20.3999996185302734375</AltitudeMeters>
            <DistanceMeters>390778.9113454</DistanceMeters>
          </Trackpoint>
          <Trackpoint>
            <Time>2018-09-15T10:21:56.000Z</Time>
            <Position>
              <LatitudeDegrees>37.0501562766730785369873046875</LatitudeDegrees>
              <LongitudeDegrees>-7.92728508822619915008544921875</LongitudeDegrees>
            </Position>
            <AltitudeMeters>20.6000003814697265625</AltitudeMeters>
            <DistanceMeters>390841.19981637</DistanceMeters>
          </Trackpoint>
          <Trackpoint>
            <Time>2018-09-15T10:22:05.000Z</Time>
            <Position>
              <LatitudeDegrees>37.04958136193454265594482421875</LatitudeDegrees>
              <LongitudeDegrees>-7.92744568549096584320068359375</LongitudeDegrees>
            </Position>
            <AltitudeMeters>20</AltitudeMeters>
            <DistanceMeters>390906.75998557</DistanceMeters>
          </Trackpoint>
          <Trackpoint>
            <Time>2018-09-15T10:22:06.000Z</Time>
            <Position>
              <LatitudeDegrees>37.04951816238462924957275390625</LatitudeDegrees>
              <LongitudeDegrees>-7.92746060527861118316650390625</LongitudeDegrees>
            </Position>
            <AltitudeMeters>19.799999237060546875</AltitudeMeters>
            <DistanceMeters>390913.9173331</DistanceMeters>
          </Trackpoint>
          <Trackpoint>
            <Time>2018-09-15T10:22:15.000Z</Time>
            <Position>
              <LatitudeDegrees>37.04893310554325580596923828125</LatitudeDegrees>
              <LongitudeDegrees>-7.92761499993503093719482421875</LongitudeDegrees>
            </Position>
            <AltitudeMeters>19</AltitudeMeters>
            <DistanceMeters>390980.46399229</DistanceMeters>
          </Trackpoint>
          <Trackpoint>
            <Time>2018-09-15T10:22:18.000Z</Time>
            <Position>
              <LatitudeDegrees>37.0487367175519466400146484375</LatitudeDegrees>
              <LongitudeDegrees>-7.9276648722589015960693359375</LongitudeDegrees>
            </Position>
            <AltitudeMeters>18.799999237060546875</AltitudeMeters>
            <DistanceMeters>391002.76674393</DistanceMeters>
          </Trackpoint>
          <Trackpoint>
            <Time>2018-09-15T10:22:26.000Z</Time>
            <Position>
              <LatitudeDegrees>37.04819683916866779327392578125</LatitudeDegrees>
              <LongitudeDegrees>-7.92780979536473751068115234375</LongitudeDegrees>
            </Position>
            <AltitudeMeters>18.799999237060546875</AltitudeMeters>
            <DistanceMeters>391064.21986696</DistanceMeters>
          </Trackpoint>
          <Trackpoint>
            <Time>2018-09-15T10:22:34.000Z</Time>
            <Position>
              <LatitudeDegrees>37.04763860441744327545166015625</LatitudeDegrees>
              <LongitudeDegrees>-7.927959077060222625732421875</LongitudeDegrees>
            </Position>
            <AltitudeMeters>19</AltitudeMeters>
            <DistanceMeters>391127.75203054</DistanceMeters>
          </Trackpoint>
          <Trackpoint>
            <Time>2018-09-15T10:22:36.000Z</Time>
            <Position>
              <LatitudeDegrees>37.0475008897483348846435546875</LatitudeDegrees>
              <LongitudeDegrees>-7.92799629271030426025390625</LongitudeDegrees>
            </Position>
            <AltitudeMeters>19</AltitudeMeters>
            <DistanceMeters>391143.43230227</DistanceMeters>
          </Trackpoint>
          <Trackpoint>
            <Time>2018-09-15T10:22:44.000Z</Time>
            <Position>
              <LatitudeDegrees>37.046928741037845611572265625</LatitudeDegrees>
              <LongitudeDegrees>-7.92814339511096477508544921875</LongitudeDegrees>
            </Position>
            <AltitudeMeters>18.3999996185302734375</AltitudeMeters>
            <DistanceMeters>391208.44050749</DistanceMeters>
          </Trackpoint>
          <Trackpoint>
            <Time>2018-09-15T10:22:52.000Z</Time>
            <Position>
              <LatitudeDegrees>37.0463565923273563385009765625</LatitudeDegrees>
              <LongitudeDegrees>-7.9282941855490207672119140625</LongitudeDegrees>
            </Position>
            <AltitudeMeters>17.6000003814697265625</AltitudeMeters>
            <DistanceMeters>391273.51542315</DistanceMeters>
          </Trackpoint>
          <Trackpoint>
            <Time>2018-09-15T10:23:00.000Z</Time>
            <Position>
              <LatitudeDegrees>37.04577631317079067230224609375</LatitudeDegrees>
              <LongitudeDegrees>-7.92845201678574085235595703125</LongitudeDegrees>
            </Position>
            <AltitudeMeters>17</AltitudeMeters>
            <DistanceMeters>391339.60600771</DistanceMeters>
          </Trackpoint>
          <Trackpoint>
            <Time>2018-09-15T10:23:08.000Z</Time>
            <Position>
              <LatitudeDegrees>37.045198716223239898681640625</LatitudeDegrees>
              <LongitudeDegrees>-7.9286116920411586761474609375</LongitudeDegrees>
            </Position>
            <AltitudeMeters>17.200000762939453125</AltitudeMeters>
            <DistanceMeters>391405.43997774</DistanceMeters>
          </Trackpoint>
          <Trackpoint>
            <Time>2018-09-15T10:23:11.000Z</Time>
            <Position>
              <LatitudeDegrees>37.04498304985463619232177734375</LatitudeDegrees>
              <LongitudeDegrees>-7.92866826988756656646728515625</LongitudeDegrees>
            </Position>
            <AltitudeMeters>17.200000762939453125</AltitudeMeters>
            <DistanceMeters>391429.96460356</DistanceMeters>
          </Trackpoint>
          <Trackpoint>
            <Time>2018-09-15T10:23:19.000Z</Time>
            <Position>
              <LatitudeDegrees>37.04440377652645111083984375</LatitudeDegrees>
              <LongitudeDegrees>-7.92881880886852741241455078125</LongitudeDegrees>
            </Position>
            <AltitudeMeters>17.799999237060546875</AltitudeMeters>
            <DistanceMeters>391495.81119151</DistanceMeters>
          </Trackpoint>
          <Trackpoint>
            <Time>2018-09-15T10:23:27.000Z</Time>
            <Position>
              <LatitudeDegrees>37.04384076409041881561279296875</LatitudeDegrees>
              <LongitudeDegrees>-7.928964905440807342529296875</LongitudeDegrees>
            </Position>
            <AltitudeMeters>18</AltitudeMeters>
            <DistanceMeters>391559.80559868</DistanceMeters>
          </Trackpoint>
          <Trackpoint>
            <Time>2018-09-15T10:23:35.000Z</Time>
            <Position>
              <LatitudeDegrees>37.0432686991989612579345703125</LatitudeDegrees>
              <LongitudeDegrees>-7.92913497425615787506103515625</LongitudeDegrees>
            </Position>
            <AltitudeMeters>18.799999237060546875</AltitudeMeters>
            <DistanceMeters>391625.24555079</DistanceMeters>
          </Trackpoint>
          <Trackpoint>
            <Time>2018-09-15T10:23:43.000Z</Time>
            <Position>
              <LatitudeDegrees>37.04268288798630237579345703125</LatitudeDegrees>
              <LongitudeDegrees>-7.92930495925247669219970703125</LongitudeDegrees>
            </Position>
            <AltitudeMeters>17.6000003814697265625</AltitudeMeters>
            <DistanceMeters>391692.17350728</DistanceMeters>
          </Trackpoint>
          <Trackpoint>
            <Time>2018-09-15T10:23:48.000Z</Time>
            <Position>
              <LatitudeDegrees>37.04233168624341487884521484375</LatitudeDegrees>
              <LongitudeDegrees>-7.929419539868831634521484375</LongitudeDegrees>
            </Position>
            <AltitudeMeters>16.6000003814697265625</AltitudeMeters>
            <DistanceMeters>391732.56667988</DistanceMeters>
          </Trackpoint>
          <Trackpoint>
            <Time>2018-09-15T10:23:52.000Z</Time>
            <Position>
              <LatitudeDegrees>37.0420928858220577239990234375</LatitudeDegrees>
              <LongitudeDegrees>-7.92962548322975635528564453125</LongitudeDegrees>
            </Position>
            <AltitudeMeters>15.80000019073486328125</AltitudeMeters>
            <DistanceMeters>391764.83409183</DistanceMeters>
          </Trackpoint>
          <Trackpoint>
            <Time>2018-09-15T10:23:56.000Z</Time>
            <Position>
              <LatitudeDegrees>37.04180580563843250274658203125</LatitudeDegrees>
              <LongitudeDegrees>-7.92960000224411487579345703125</LongitudeDegrees>
            </Position>
            <AltitudeMeters>15</AltitudeMeters>
            <DistanceMeters>391796.86697566</DistanceMeters>
          </Trackpoint>
          <Trackpoint>
            <Time>2018-09-15T10:23:57.000Z</Time>
            <Position>
              <LatitudeDegrees>37.04173271544277667999267578125</LatitudeDegrees>
              <LongitudeDegrees>-7.92957971803843975067138671875</LongitudeDegrees>
            </Position>
            <AltitudeMeters>15</AltitudeMeters>
            <DistanceMeters>391805.19903589</DistanceMeters>
          </Trackpoint>
          <Trackpoint>
            <Time>2018-09-15T10:24:01.000Z</Time>
            <Position>
              <LatitudeDegrees>37.04143364913761615753173828125</LatitudeDegrees>
              <LongitudeDegrees>-7.92962900362908840179443359375</LongitudeDegrees>
            </Position>
            <AltitudeMeters>15</AltitudeMeters>
            <DistanceMeters>391838.77239232</DistanceMeters>
          </Trackpoint>
          <Trackpoint>
            <Time>2018-09-15T10:24:09.000Z</Time>
            <Position>
              <LatitudeDegrees>37.0408572256565093994140625</LatitudeDegrees>
              <LongitudeDegrees>-7.9297834821045398712158203125</LongitudeDegrees>
            </Position>
            <AltitudeMeters>15.80000019073486328125</AltitudeMeters>
            <DistanceMeters>391904.38102712</DistanceMeters>
          </Trackpoint>
          <Trackpoint>
            <Time>2018-09-15T10:24:17.000Z</Time>
            <Position>
              <LatitudeDegrees>37.0402901060879230499267578125</LatitudeDegrees>
              <LongitudeDegrees>-7.92992706410586833953857421875</LongitudeDegrees>
            </Position>
            <AltitudeMeters>15.3999996185302734375</AltitudeMeters>
            <DistanceMeters>391968.77864801</DistanceMeters>
          </Trackpoint>
          <Trackpoint>
            <Time>2018-09-15T10:24:25.000Z</Time>
            <Position>
              <LatitudeDegrees>37.0397261716425418853759765625</LatitudeDegrees>
              <LongitudeDegrees>-7.9300875775516033172607421875</LongitudeDegrees>
            </Position>
            <AltitudeMeters>15.19999980926513671875</AltitudeMeters>
            <DistanceMeters>392033.145272</DistanceMeters>
          </Trackpoint>
          <Trackpoint>
            <Time>2018-09-15T10:24:33.000Z</Time>
            <Position>
              <LatitudeDegrees>37.0391796715557575225830078125</LatitudeDegrees>
              <LongitudeDegrees>-7.93027005158364772796630859375</LongitudeDegrees>
            </Position>
            <AltitudeMeters>15.80000019073486328125</AltitudeMeters>
            <DistanceMeters>392096.09514496</DistanceMeters>
          </Trackpoint>
          <Trackpoint>
            <Time>2018-09-15T10:24:41.000Z</Time>
            <Position>
              <LatitudeDegrees>37.038652114570140838623046875</LatitudeDegrees>
              <LongitudeDegrees>-7.93045210652053356170654296875</LongitudeDegrees>
            </Position>
            <AltitudeMeters>15.6000003814697265625</AltitudeMeters>
            <DistanceMeters>392157.0002267</DistanceMeters>
          </Trackpoint>
          <Trackpoint>
            <Time>2018-09-15T10:24:50.000Z</Time>
            <Position>
              <LatitudeDegrees>37.038092873990535736083984375</LatitudeDegrees>
              <LongitudeDegrees>-7.93063986115157604217529296875</LongitudeDegrees>
            </Position>
            <AltitudeMeters>16.3999996185302734375</AltitudeMeters>
            <DistanceMeters>392221.44123224</DistanceMeters>
          </Trackpoint>
          <Trackpoint>
            <Time>2018-09-15T10:24:55.000Z</Time>
            <Position>
              <LatitudeDegrees>37.0378021895885467529296875</LatitudeDegrees>
              <LongitudeDegrees>-7.93073859997093677520751953125</LongitudeDegrees>
            </Position>
            <AltitudeMeters>17.6000003814697265625</AltitudeMeters>
            <DistanceMeters>392254.96317688</DistanceMeters>
          </Trackpoint>
          <Trackpoint>
            <Time>2018-09-15T10:24:58.000Z</Time>
            <Position>
              <LatitudeDegrees>37.03763329423964023590087890625</LatitudeDegrees>
              <LongitudeDegrees>-7.93080096133053302764892578125</LongitudeDegrees>
            </Position>
            <AltitudeMeters>18.200000762939453125</AltitudeMeters>
            <DistanceMeters>392274.56127045</DistanceMeters>
          </Trackpoint>
          <Trackpoint>
            <Time>2018-09-15T10:25:04.000Z</Time>
            <Position>
              <LatitudeDegrees>37.03730388544499874114990234375</LatitudeDegrees>
              <LongitudeDegrees>-7.93091545812785625457763671875</LongitudeDegrees>
            </Position>
            <AltitudeMeters>19.3999996185302734375</AltitudeMeters>
            <DistanceMeters>392312.61030389</DistanceMeters>
          </Trackpoint>
          <Trackpoint>
            <Time>2018-09-15T10:25:08.000Z</Time>
            <Position>
              <LatitudeDegrees>37.037088386714458465576171875</LatitudeDegrees>
              <LongitudeDegrees>-7.9309871233999729156494140625</LongitudeDegrees>
            </Position>
            <AltitudeMeters>20.3999996185302734375</AltitudeMeters>
            <DistanceMeters>392337.42665361</DistanceMeters>
          </Trackpoint>
          <Trackpoint>
            <Time>2018-09-15T10:25:14.000Z</Time>
            <Position>
              <LatitudeDegrees>37.0367864705622196197509765625</LatitudeDegrees>
              <LongitudeDegrees>-7.93108753859996795654296875</LongitudeDegrees>
            </Position>
            <AltitudeMeters>21.799999237060546875</AltitudeMeters>
            <DistanceMeters>392372.19448577</DistanceMeters>
          </Trackpoint>
          <Trackpoint>
            <Time>2018-09-15T10:25:20.000Z</Time>
            <Position>
              <LatitudeDegrees>37.0365066826343536376953125</LatitudeDegrees>
              <LongitudeDegrees>-7.931173704564571380615234375</LongitudeDegrees>
            </Position>
            <AltitudeMeters>23.200000762939453125</AltitudeMeters>
            <DistanceMeters>392404.26258777</DistanceMeters>
          </Trackpoint>
          <Trackpoint>
            <Time>2018-09-15T10:25:25.000Z</Time>
            <Position>
              <LatitudeDegrees>37.03627475537359714508056640625</LatitudeDegrees>
              <LongitudeDegrees>-7.931217290461063385009765625</LongitudeDegrees>
            </Position>
            <AltitudeMeters>24.6000003814697265625</AltitudeMeters>
            <DistanceMeters>392430.36537283</DistanceMeters>
          </Trackpoint>
          <Trackpoint>
            <Time>2018-09-15T10:25:30.000Z</Time>
            <Position>
              <LatitudeDegrees>37.03603385947644710540771484375</LatitudeDegrees>
              <LongitudeDegrees>-7.93123514391481876373291015625</LongitudeDegrees>
            </Position>
            <AltitudeMeters>25.799999237060546875</AltitudeMeters>
            <DistanceMeters>392457.22433366</DistanceMeters>
          </Trackpoint>
          <Trackpoint>
            <Time>2018-09-15T10:25:35.000Z</Time>
            <Position>
              <LatitudeDegrees>37.0357980765402317047119140625</LatitudeDegrees>
              <LongitudeDegrees>-7.9312355630099773406982421875</LongitudeDegrees>
            </Position>
            <AltitudeMeters>27</AltitudeMeters>
            <DistanceMeters>392483.46753983</DistanceMeters>
          </Trackpoint>
          <Trackpoint>
            <Time>2018-09-15T10:25:40.000Z</Time>
            <Position>
              <LatitudeDegrees>37.0355660654604434967041015625</LatitudeDegrees>
              <LongitudeDegrees>-7.93122542090713977813720703125</LongitudeDegrees>
            </Position>
            <AltitudeMeters>28</AltitudeMeters>
            <DistanceMeters>392509.30659481</DistanceMeters>
          </Trackpoint>
          <Trackpoint>
            <Time>2018-09-15T10:25:42.000Z</Time>
            <Position>
              <LatitudeDegrees>37.03547336161136627197265625</LatitudeDegrees>
              <LongitudeDegrees>-7.93122223578393459320068359375</LongitudeDegrees>
            </Position>
            <AltitudeMeters>28.3999996185302734375</AltitudeMeters>
            <DistanceMeters>392519.6291382</DistanceMeters>
          </Trackpoint>
          <Trackpoint>
            <Time>2018-09-15T10:25:49.000Z</Time>
            <Position>
              <LatitudeDegrees>37.0351419411599636077880859375</LatitudeDegrees>
              <LongitudeDegrees>-7.93120698072016239166259765625</LongitudeDegrees>
            </Position>
            <AltitudeMeters>30</AltitudeMeters>
            <DistanceMeters>392556.54184922</DistanceMeters>
          </Trackpoint>
          <Trackpoint>
            <Time>2018-09-15T10:25:56.000Z</Time>
            <Position>
              <LatitudeDegrees>37.03479803167283535003662109375</LatitudeDegrees>
              <LongitudeDegrees>-7.931184433400630950927734375</LongitudeDegrees>
            </Position>
            <AltitudeMeters>30.799999237060546875</AltitudeMeters>
            <DistanceMeters>392594.87190841</DistanceMeters>
          </Trackpoint>
          <Trackpoint>
            <Time>2018-09-15T10:26:07.000Z</Time>
            <Position>
              <LatitudeDegrees>37.0342112146317958831787109375</LatitudeDegrees>
              <LongitudeDegrees>-7.93115970678627490997314453125</LongitudeDegrees>
            </Position>
            <AltitudeMeters>29.6000003814697265625</AltitudeMeters>
            <DistanceMeters>392660.22279619</DistanceMeters>
          </Trackpoint>
          <Trackpoint>
            <Time>2018-09-15T10:26:13.000Z</Time>
            <Position>
              <LatitudeDegrees>37.0338524691760540008544921875</LatitudeDegrees>
              <LongitudeDegrees>-7.9311485588550567626953125</LongitudeDegrees>
            </Position>
            <AltitudeMeters>28.799999237060546875</AltitudeMeters>
            <DistanceMeters>392700.16409668</DistanceMeters>
          </Trackpoint>
          <Trackpoint>
            <Time>2018-09-15T10:26:17.000Z</Time>
            <Position>
              <LatitudeDegrees>37.03360076062381267547607421875</LatitudeDegrees>
              <LongitudeDegrees>-7.93114143423736095428466796875</LongitudeDegrees>
            </Position>
            <AltitudeMeters>28.200000762939453125</AltitudeMeters>
            <DistanceMeters>392728.1871509</DistanceMeters>
          </Trackpoint>
          <Trackpoint>
            <Time>2018-09-15T10:26:25.000Z</Time>
            <Position>
              <LatitudeDegrees>37.03306138515472412109375</LatitudeDegrees>
              <LongitudeDegrees>-7.9311815835535526275634765625</LongitudeDegrees>
            </Position>
            <AltitudeMeters>27</AltitudeMeters>
            <DistanceMeters>392788.32667482</DistanceMeters>
          </Trackpoint>
          <Trackpoint>
            <Time>2018-09-15T10:26:29.000Z</Time>
            <Position>
              <LatitudeDegrees>37.0327735505998134613037109375</LatitudeDegrees>
              <LongitudeDegrees>-7.93125509284436702728271484375</LongitudeDegrees>
            </Position>
            <AltitudeMeters>26.6000003814697265625</AltitudeMeters>
            <DistanceMeters>392821.02221748</DistanceMeters>
          </Trackpoint>
          <Trackpoint>
            <Time>2018-09-15T10:26:33.000Z</Time>
            <Position>
              <LatitudeDegrees>37.03247825615108013153076171875</LatitudeDegrees>
              <LongitudeDegrees>-7.93134058825671672821044921875</LongitudeDegrees>
            </Position>
            <AltitudeMeters>26.200000762939453125</AltitudeMeters>
            <DistanceMeters>392854.7554965</DistanceMeters>
          </Trackpoint>
          <Trackpoint>
            <Time>2018-09-15T10:26:39.000Z</Time>
            <Position>
              <LatitudeDegrees>37.03202848322689533233642578125</LatitudeDegrees>
              <LongitudeDegrees>-7.93147235177457332611083984375</LongitudeDegrees>
            </Position>
            <AltitudeMeters>25.3999996185302734375</AltitudeMeters>
            <DistanceMeters>392906.16688109</DistanceMeters>
          </Trackpoint>
          <Trackpoint>
            <Time>2018-09-15T10:26:42.000Z</Time>
            <Position>
              <LatitudeDegrees>37.03181155957281589508056640625</LatitudeDegrees>
              <LongitudeDegrees>-7.931541167199611663818359375</LongitudeDegrees>
            </Position>
            <AltitudeMeters>24.799999237060546875</AltitudeMeters>
            <DistanceMeters>392931.07294603</DistanceMeters>
          </Trackpoint>
          <Trackpoint>
            <Time>2018-09-15T10:26:44.000Z</Time>
            <Position>
              <LatitudeDegrees>37.0316718332469463348388671875</LatitudeDegrees>
              <LongitudeDegrees>-7.93159103952348232269287109375</LongitudeDegrees>
            </Position>
            <AltitudeMeters>24.799999237060546875</AltitudeMeters>
            <DistanceMeters>392947.24313136</DistanceMeters>
          </Trackpoint>
          <Trackpoint>
            <Time>2018-09-15T10:26:52.000Z</Time>
            <Position>
              <LatitudeDegrees>37.031127512454986572265625</LatitudeDegrees>
              <LongitudeDegrees>-7.93173470534384250640869140625</LongitudeDegrees>
            </Position>
            <AltitudeMeters>24.3999996185302734375</AltitudeMeters>
            <DistanceMeters>393009.15724729</DistanceMeters>
          </Trackpoint>
          <Trackpoint>
            <Time>2018-09-15T10:26:59.000Z</Time>
            <Position>
              <LatitudeDegrees>37.03067128546535968780517578125</LatitudeDegrees>
              <LongitudeDegrees>-7.93178893625736236572265625</LongitudeDegrees>
            </Position>
            <AltitudeMeters>24.3999996185302734375</AltitudeMeters>
            <DistanceMeters>393060.16437978</DistanceMeters>
          </Trackpoint>
          <Trackpoint>
            <Time>2018-09-15T10:27:03.000Z</Time>
            <Position>
              <LatitudeDegrees>37.0304128713905811309814453125</LatitudeDegrees>
              <LongitudeDegrees>-7.93181031011044979095458984375</LongitudeDegrees>
            </Position>
            <AltitudeMeters>26</AltitudeMeters>
            <DistanceMeters>393088.98897576</DistanceMeters>
          </Trackpoint>
          <Trackpoint>
            <Time>2018-09-15T10:27:09.000Z</Time>
            <Position>
              <LatitudeDegrees>37.030030153691768646240234375</LatitudeDegrees>
              <LongitudeDegrees>-7.93184123933315277099609375</LongitudeDegrees>
            </Position>
            <AltitudeMeters>28.200000762939453125</AltitudeMeters>
            <DistanceMeters>393131.67469662</DistanceMeters>
          </Trackpoint>
          <Trackpoint>
            <Time>2018-09-15T10:27:13.000Z</Time>
            <Position>
              <LatitudeDegrees>37.02978246845304965972900390625</LatitudeDegrees>
              <LongitudeDegrees>-7.9318699054419994354248046875</LongitudeDegrees>
            </Position>
            <AltitudeMeters>29.6000003814697265625</AltitudeMeters>
            <DistanceMeters>393159.35994338</DistanceMeters>
          </Trackpoint>
          <Trackpoint>
            <Time>2018-09-15T10:27:16.000Z</Time>
            <Position>
              <LatitudeDegrees>37.0296004973351955413818359375</LatitudeDegrees>
              <LongitudeDegrees>-7.93188926763832569122314453125</LongitudeDegrees>
            </Position>
            <AltitudeMeters>32</AltitudeMeters>
            <DistanceMeters>393179.68677732</DistanceMeters>
          </Trackpoint>
          <Trackpoint>
            <Time>2018-09-15T10:27:24.000Z</Time>
            <Position>
              <LatitudeDegrees>37.0291467010974884033203125</LatitudeDegrees>
              <LongitudeDegrees>-7.9319356195628643035888671875</LongitudeDegrees>
            </Position>
            <AltitudeMeters>38</AltitudeMeters>
            <DistanceMeters>393230.36284109</DistanceMeters>
          </Trackpoint>
          <Trackpoint>
            <Time>2018-09-15T10:27:30.000Z</Time>
            <Position>
              <LatitudeDegrees>37.02881737612187862396240234375</LatitudeDegrees>
              <LongitudeDegrees>-7.93195783160626888275146484375</LongitudeDegrees>
            </Position>
            <AltitudeMeters>39.40000152587890625</AltitudeMeters>
            <DistanceMeters>393267.070469</DistanceMeters>
          </Trackpoint>
          <Trackpoint>
            <Time>2018-09-15T10:27:35.000Z</Time>
            <Position>
              <LatitudeDegrees>37.02853423543274402618408203125</LatitudeDegrees>
              <LongitudeDegrees>-7.93196872808039188385009765625</LongitudeDegrees>
            </Position>
            <AltitudeMeters>39</AltitudeMeters>
            <DistanceMeters>393298.59943926</DistanceMeters>
          </Trackpoint>
          <Trackpoint>
            <Time>2018-09-15T10:27:44.000Z</Time>
            <Position>
              <LatitudeDegrees>37.02806937508285045623779296875</LatitudeDegrees>
              <LongitudeDegrees>-7.931978702545166015625</LongitudeDegrees>
            </Position>
            <AltitudeMeters>39.40000152587890625</AltitudeMeters>
            <DistanceMeters>393350.34687329</DistanceMeters>
          </Trackpoint>
          <Trackpoint>
            <Time>2018-09-15T10:27:48.000Z</Time>
            <Position>
              <LatitudeDegrees>37.02790416777133941650390625</LatitudeDegrees>
              <LongitudeDegrees>-7.931987755000591278076171875</LongitudeDegrees>
            </Position>
            <AltitudeMeters>39.40000152587890625</AltitudeMeters>
            <DistanceMeters>393368.7523974</DistanceMeters>
          </Trackpoint>
          <Trackpoint>
            <Time>2018-09-15T10:27:52.000Z</Time>
            <Position>
              <LatitudeDegrees>37.02775128185749053955078125</LatitudeDegrees>
              <LongitudeDegrees>-7.93198465369641780853271484375</LongitudeDegrees>
            </Position>
            <AltitudeMeters>38.799999237060546875</AltitudeMeters>
            <DistanceMeters>393385.77093647</DistanceMeters>
          </Trackpoint>
          <Trackpoint>
            <Time>2018-09-15T10:27:57.000Z</Time>
            <Position>
              <LatitudeDegrees>37.02759697102010250091552734375</LatitudeDegrees>
              <LongitudeDegrees>-7.93198205530643463134765625</LongitudeDegrees>
            </Position>
            <AltitudeMeters>38.200000762939453125</AltitudeMeters>
            <DistanceMeters>393402.94765582</DistanceMeters>
          </Trackpoint>
          <Trackpoint>
            <Time>2018-09-15T10:28:03.000Z</Time>
            <Position>
              <LatitudeDegrees>37.0273984037339687347412109375</LatitudeDegrees>
              <LongitudeDegrees>-7.9319865815341472625732421875</LongitudeDegrees>
            </Position>
            <AltitudeMeters>37.59999847412109375</AltitudeMeters>
            <DistanceMeters>393425.05234845</DistanceMeters>
          </Trackpoint>
          <Trackpoint>
            <Time>2018-09-15T10:28:06.000Z</Time>
            <Position>
              <LatitudeDegrees>37.0272864215075969696044921875</LatitudeDegrees>
              <LongitudeDegrees>-7.9320202767848968505859375</LongitudeDegrees>
            </Position>
            <AltitudeMeters>37.40000152587890625</AltitudeMeters>
            <DistanceMeters>393437.87074425</DistanceMeters>
          </Trackpoint>
          <Trackpoint>
            <Time>2018-09-15T10:28:20.000Z</Time>
            <Position>
              <LatitudeDegrees>37.02670530416071414947509765625</LatitudeDegrees>
              <LongitudeDegrees>-7.932084985077381134033203125</LongitudeDegrees>
            </Position>
            <AltitudeMeters>37</AltitudeMeters>
            <DistanceMeters>393502.80535671</DistanceMeters>
          </Trackpoint>
          <Trackpoint>
            <Time>2018-09-15T10:28:24.000Z</Time>
            <Position>
              <LatitudeDegrees>37.02654361724853515625</LatitudeDegrees>
              <LongitudeDegrees>-7.93211339972913265228271484375</LongitudeDegrees>
            </Position>
            <AltitudeMeters>37</AltitudeMeters>
            <DistanceMeters>393520.97783385</DistanceMeters>
          </Trackpoint>
          <Trackpoint>
            <Time>2018-09-15T10:28:26.000Z</Time>
            <Position>
              <LatitudeDegrees>37.02646692283451557159423828125</LatitudeDegrees>
              <LongitudeDegrees>-7.93213150463998317718505859375</LongitudeDegrees>
            </Position>
            <AltitudeMeters>36.799999237060546875</AltitudeMeters>
            <DistanceMeters>393529.66485572</DistanceMeters>
          </Trackpoint>
          <Trackpoint>
            <Time>2018-09-15T10:28:33.000Z</Time>
            <Position>
              <LatitudeDegrees>37.026291154325008392333984375</LatitudeDegrees>
              <LongitudeDegrees>-7.93212111108005046844482421875</LongitudeDegrees>
            </Position>
            <AltitudeMeters>36.59999847412109375</AltitudeMeters>
            <DistanceMeters>393549.25004367</DistanceMeters>
          </Trackpoint>
          <Trackpoint>
            <Time>2018-09-15T10:28:41.000Z</Time>
            <Position>
              <LatitudeDegrees>37.026122175157070159912109375</LatitudeDegrees>
              <LongitudeDegrees>-7.93214893899857997894287109375</LongitudeDegrees>
            </Position>
            <AltitudeMeters>36.40000152587890625</AltitudeMeters>
            <DistanceMeters>393568.21971806</DistanceMeters>
          </Trackpoint>
          <Trackpoint>
            <Time>2018-09-15T10:28:51.000Z</Time>
            <Position>
              <LatitudeDegrees>37.026053778827190399169921875</LatitudeDegrees>
              <LongitudeDegrees>-7.9321253858506679534912109375</LongitudeDegrees>
            </Position>
            <AltitudeMeters>36</AltitudeMeters>
            <DistanceMeters>393576.11494558</DistanceMeters>
          </Trackpoint>
          <Trackpoint>
            <Time>2018-09-15T10:28:58.000Z</Time>
            <Position>
              <LatitudeDegrees>37.02587105333805084228515625</LatitudeDegrees>
              <LongitudeDegrees>-7.932143993675708770751953125</LongitudeDegrees>
            </Position>
            <AltitudeMeters>35.40000152587890625</AltitudeMeters>
            <DistanceMeters>393596.51981669</DistanceMeters>
          </Trackpoint>
          <Trackpoint>
            <Time>2018-09-15T10:29:01.000Z</Time>
            <Position>
              <LatitudeDegrees>37.02584951184689998626708984375</LatitudeDegrees>
              <LongitudeDegrees>-7.93215128593146800994873046875</LongitudeDegrees>
            </Position>
            <AltitudeMeters>35.40000152587890625</AltitudeMeters>
            <DistanceMeters>393599.00508775</DistanceMeters>
          </Trackpoint>
          <Trackpoint>
            <Time>2018-09-15T10:31:03.000Z</Time>
            <Position>
              <LatitudeDegrees>37.0258189179003238677978515625</LatitudeDegrees>
              <LongitudeDegrees>-7.932145334780216217041015625</LongitudeDegrees>
            </Position>
            <AltitudeMeters>35.200000762939453125</AltitudeMeters>
            <DistanceMeters>393602.45234472</DistanceMeters>
          </Trackpoint>
          <Trackpoint>
            <Time>2018-09-15T10:31:04.000Z</Time>
            <Position>
              <LatitudeDegrees>37.02580357901751995086669921875</LatitudeDegrees>
              <LongitudeDegrees>-7.9321334324777126312255859375</LongitudeDegrees>
            </Position>
            <AltitudeMeters>35.200000762939453125</AltitudeMeters>
            <DistanceMeters>393604.46143511</DistanceMeters>
          </Trackpoint>
          <Trackpoint>
            <Time>2018-09-15T10:31:07.000Z</Time>
            <Position>
              <LatitudeDegrees>37.025725878775119781494140625</LatitudeDegrees>
              <LongitudeDegrees>-7.93208942748606204986572265625</LongitudeDegrees>
            </Position>
            <AltitudeMeters>34.799999237060546875</AltitudeMeters>
            <DistanceMeters>393613.95317218</DistanceMeters>
          </Trackpoint>
          <Trackpoint>
            <Time>2018-09-15T10:31:09.000Z</Time>
            <Position>
              <LatitudeDegrees>37.02565086074173450469970703125</LatitudeDegrees>
              <LongitudeDegrees>-7.93208062648773193359375</LongitudeDegrees>
            </Position>
            <AltitudeMeters>34.40000152587890625</AltitudeMeters>
            <DistanceMeters>393622.33924607</DistanceMeters>
          </Trackpoint>
          <Trackpoint>
            <Time>2018-09-15T10:31:11.000Z</Time>
            <Position>
              <LatitudeDegrees>37.0255664549767971038818359375</LatitudeDegrees>
              <LongitudeDegrees>-7.9320980608463287353515625</LongitudeDegrees>
            </Position>
            <AltitudeMeters>34</AltitudeMeters>
            <DistanceMeters>393631.86090389</DistanceMeters>
          </Trackpoint>
          <Trackpoint>
            <Time>2018-09-15T10:31:12.000Z</Time>
            <Position>
              <LatitudeDegrees>37.02552529983222484588623046875</LatitudeDegrees>
              <LongitudeDegrees>-7.9321032576262950897216796875</LongitudeDegrees>
            </Position>
            <AltitudeMeters>33.799999237060546875</AltitudeMeters>
            <DistanceMeters>393636.46455346</DistanceMeters>
          </Trackpoint>
          <Trackpoint>
            <Time>2018-09-15T10:31:14.000Z</Time>
            <Position>
              <LatitudeDegrees>37.02544701285660266876220703125</LatitudeDegrees>
              <LongitudeDegrees>-7.9321183450520038604736328125</LongitudeDegrees>
            </Position>
            <AltitudeMeters>33.40000152587890625</AltitudeMeters>
            <DistanceMeters>393645.28004198</DistanceMeters>
          </Trackpoint>
          <Trackpoint>
            <Time>2018-09-15T10:31:16.000Z</Time>
            <Position>
              <LatitudeDegrees>37.02536520548164844512939453125</LatitudeDegrees>
              <LongitudeDegrees>-7.93210208415985107421875</LongitudeDegrees>
            </Position>
            <AltitudeMeters>33</AltitudeMeters>
            <DistanceMeters>393654.49910264</DistanceMeters>
          </Trackpoint>
          <Trackpoint>
            <Time>2018-09-15T10:31:18.000Z</Time>
            <Position>
              <LatitudeDegrees>37.02528792433440685272216796875</LatitudeDegrees>
              <LongitudeDegrees>-7.9320811294019222259521484375</LongitudeDegrees>
            </Position>
            <AltitudeMeters>32.799999237060546875</AltitudeMeters>
            <DistanceMeters>393663.29972567</DistanceMeters>
          </Trackpoint>
          <Trackpoint>
            <Time>2018-09-15T10:31:23.000Z</Time>
            <Position>
              <LatitudeDegrees>37.02507175505161285400390625</LatitudeDegrees>
              <LongitudeDegrees>-7.93200217187404632568359375</LongitudeDegrees>
            </Position>
            <AltitudeMeters>32.40000152587890625</AltitudeMeters>
            <DistanceMeters>393688.36192943</DistanceMeters>
          </Trackpoint>
          <Trackpoint>
            <Time>2018-09-15T10:31:32.000Z</Time>
            <Position>
              <LatitudeDegrees>37.024657689034938812255859375</LatitudeDegrees>
              <LongitudeDegrees>-7.9320227913558483123779296875</LongitudeDegrees>
            </Position>
            <AltitudeMeters>32.40000152587890625</AltitudeMeters>
            <DistanceMeters>393734.48465061</DistanceMeters>
          </Trackpoint>
          <Trackpoint>
            <Time>2018-09-15T10:31:38.000Z</Time>
            <Position>
              <LatitudeDegrees>37.02437228523194789886474609375</LatitudeDegrees>
              <LongitudeDegrees>-7.9321248829364776611328125</LongitudeDegrees>
            </Position>
            <AltitudeMeters>32.40000152587890625</AltitudeMeters>
            <DistanceMeters>393767.52061645</DistanceMeters>
          </Trackpoint>
          <Trackpoint>
            <Time>2018-09-15T10:31:40.000Z</Time>
            <Position>
              <LatitudeDegrees>37.024263404309749603271484375</LatitudeDegrees>
              <LongitudeDegrees>-7.93214575387537479400634765625</LongitudeDegrees>
            </Position>
            <AltitudeMeters>32.40000152587890625</AltitudeMeters>
            <DistanceMeters>393779.7805358</DistanceMeters>
          </Trackpoint>
          <Trackpoint>
            <Time>2018-09-15T10:31:45.000Z</Time>
            <Position>
              <LatitudeDegrees>37.02407087199389934539794921875</LatitudeDegrees>
              <LongitudeDegrees>-7.93225488625466823577880859375</LongitudeDegrees>
            </Position>
            <AltitudeMeters>32.59999847412109375</AltitudeMeters>
            <DistanceMeters>393803.30209513</DistanceMeters>
          </Trackpoint>
          <Trackpoint>
            <Time>2018-09-15T10:31:52.000Z</Time>
            <Position>
              <LatitudeDegrees>37.02382511459290981292724609375</LatitudeDegrees>
              <LongitudeDegrees>-7.93242118321359157562255859375</LongitudeDegrees>
            </Position>
            <AltitudeMeters>32.799999237060546875</AltitudeMeters>
            <DistanceMeters>393834.39195494</DistanceMeters>
          </Trackpoint>
          <Trackpoint>
            <Time>2018-09-15T10:31:53.000Z</Time>
            <Position>
              <LatitudeDegrees>37.02378706075251102447509765625</LatitudeDegrees>
              <LongitudeDegrees>-7.93243861757218837738037109375</LongitudeDegrees>
            </Position>
            <AltitudeMeters>32.799999237060546875</AltitudeMeters>
            <DistanceMeters>393838.90347267</DistanceMeters>
          </Trackpoint>
          <Trackpoint>
            <Time>2018-09-15T10:31:56.000Z</Time>
            <Position>
              <LatitudeDegrees>37.02365328557789325714111328125</LatitudeDegrees>
              <LongitudeDegrees>-7.9325096122920513153076171875</LongitudeDegrees>
            </Position>
            <AltitudeMeters>33</AltitudeMeters>
            <DistanceMeters>393855.07449564</DistanceMeters>
          </Trackpoint>
          <Trackpoint>
            <Time>2018-09-15T10:32:07.000Z</Time>
            <Position>
              <LatitudeDegrees>37.02314668335020542144775390625</LatitudeDegrees>
              <LongitudeDegrees>-7.93277062475681304931640625</LongitudeDegrees>
            </Position>
            <AltitudeMeters>32.40000152587890625</AltitudeMeters>
            <DistanceMeters>393916.04433465</DistanceMeters>
          </Trackpoint>
          <Trackpoint>
            <Time>2018-09-15T10:32:16.000Z</Time>
            <Position>
              <LatitudeDegrees>37.02295607887208461761474609375</LatitudeDegrees>
              <LongitudeDegrees>-7.9328906536102294921875</LongitudeDegrees>
            </Position>
            <AltitudeMeters>31.6000003814697265625</AltitudeMeters>
            <DistanceMeters>393939.78922701</DistanceMeters>
          </Trackpoint>
          <Trackpoint>
            <Time>2018-09-15T10:32:21.000Z</Time>
            <Position>
              <LatitudeDegrees>37.022901512682437896728515625</LatitudeDegrees>
              <LongitudeDegrees>-7.9330068267881870269775390625</LongitudeDegrees>
            </Position>
            <AltitudeMeters>31.200000762939453125</AltitudeMeters>
            <DistanceMeters>393951.76711724</DistanceMeters>
          </Trackpoint>
          <Trackpoint>
            <Time>2018-09-15T10:32:32.000Z</Time>
            <Position>
              <LatitudeDegrees>37.022811658680438995361328125</LatitudeDegrees>
              <LongitudeDegrees>-7.93297908268868923187255859375</LongitudeDegrees>
            </Position>
            <AltitudeMeters>30.799999237060546875</AltitudeMeters>
            <DistanceMeters>393962.06689093</DistanceMeters>
          </Trackpoint>
          <Trackpoint>
            <Time>2018-09-15T10:32:34.000Z</Time>
            <Position>
              <LatitudeDegrees>37.0227665640413761138916015625</LatitudeDegrees>
              <LongitudeDegrees>-7.9329860396683216094970703125</LongitudeDegrees>
            </Position>
            <AltitudeMeters>30.6000003814697265625</AltitudeMeters>
            <DistanceMeters>393967.12388376</DistanceMeters>
          </Trackpoint>
          <Trackpoint>
            <Time>2018-09-15T10:32:36.000Z</Time>
            <Position>
              <LatitudeDegrees>37.0227394066751003265380859375</LatitudeDegrees>
              <LongitudeDegrees>-7.93299601413309574127197265625</LongitudeDegrees>
            </Position>
            <AltitudeMeters>30.6000003814697265625</AltitudeMeters>
            <DistanceMeters>393970.27556333</DistanceMeters>
          </Trackpoint>
          <Trackpoint>
            <Time>2018-09-15T10:32:41.000Z</Time>
            <Position>
              <LatitudeDegrees>37.0226128399372100830078125</LatitudeDegrees>
              <LongitudeDegrees>-7.93303960002958774566650390625</LongitudeDegrees>
            </Position>
            <AltitudeMeters>30</AltitudeMeters>
            <DistanceMeters>393984.88559232</DistanceMeters>
          </Trackpoint>
          <Trackpoint>
            <Time>2018-09-15T10:32:51.000Z</Time>
            <Position>
              <LatitudeDegrees>37.022280581295490264892578125</LatitudeDegrees>
              <LongitudeDegrees>-7.9330433718860149383544921875</LongitudeDegrees>
            </Position>
            <AltitudeMeters>28.799999237060546875</AltitudeMeters>
            <DistanceMeters>394021.86820226</DistanceMeters>
          </Trackpoint>
          <Trackpoint>
            <Time>2018-09-15T10:32:56.000Z</Time>
            <Position>
              <LatitudeDegrees>37.02209861017763614654541015625</LatitudeDegrees>
              <LongitudeDegrees>-7.93306164443492889404296875</LongitudeDegrees>
            </Position>
            <AltitudeMeters>28.6000003814697265625</AltitudeMeters>
            <DistanceMeters>394042.18703823</DistanceMeters>
          </Trackpoint>
          <Trackpoint>
            <Time>2018-09-15T10:32:58.000Z</Time>
            <Position>
              <LatitudeDegrees>37.02201361767947673797607421875</LatitudeDegrees>
              <LongitudeDegrees>-7.9330722056329250335693359375</LongitudeDegrees>
            </Position>
            <AltitudeMeters>28.6000003814697265625</AltitudeMeters>
            <DistanceMeters>394051.69350997</DistanceMeters>
          </Trackpoint>
          <Trackpoint>
            <Time>2018-09-15T10:33:05.000Z</Time>
            <Position>
              <LatitudeDegrees>37.02173869125545024871826171875</LatitudeDegrees>
              <LongitudeDegrees>-7.93311989866197109222412109375</LongitudeDegrees>
            </Position>
            <AltitudeMeters>27.799999237060546875</AltitudeMeters>
            <DistanceMeters>394082.58537798</DistanceMeters>
          </Trackpoint>
          <Trackpoint>
            <Time>2018-09-15T10:33:08.000Z</Time>
            <Position>
              <LatitudeDegrees>37.02163358218967914581298828125</LatitudeDegrees>
              <LongitudeDegrees>-7.9331369139254093170166015625</LongitudeDegrees>
            </Position>
            <AltitudeMeters>27.200000762939453125</AltitudeMeters>
            <DistanceMeters>394094.3809457</DistanceMeters>
          </Trackpoint>
          <Trackpoint>
            <Time>2018-09-15T10:33:16.000Z</Time>
            <Position>
              <LatitudeDegrees>37.02128238044679164886474609375</LatitudeDegrees>
              <LongitudeDegrees>-7.933198772370815277099609375</LongitudeDegrees>
            </Position>
            <AltitudeMeters>25.3999996185302734375</AltitudeMeters>
            <DistanceMeters>394133.85491016</DistanceMeters>
          </Trackpoint>
          <Trackpoint>
            <Time>2018-09-15T10:33:19.000Z</Time>
            <Position>
              <LatitudeDegrees>37.02119319699704647064208984375</LatitudeDegrees>
              <LongitudeDegrees>-7.933224923908710479736328125</LongitudeDegrees>
            </Position>
            <AltitudeMeters>25</AltitudeMeters>
            <DistanceMeters>394144.04981967</DistanceMeters>
          </Trackpoint>
          <Trackpoint>
            <Time>2018-09-15T10:33:22.000Z</Time>
            <Position>
              <LatitudeDegrees>37.02115028165280818939208984375</LatitudeDegrees>
              <LongitudeDegrees>-7.93324177153408527374267578125</LongitudeDegrees>
            </Position>
            <AltitudeMeters>24.799999237060546875</AltitudeMeters>
            <DistanceMeters>394149.05566247</DistanceMeters>
          </Trackpoint>
          <Trackpoint>
            <Time>2018-09-15T10:33:25.000Z</Time>
            <Position>
              <LatitudeDegrees>37.0211287401616573333740234375</LatitudeDegrees>
              <LongitudeDegrees>-7.9332478903234004974365234375</LongitudeDegrees>
            </Position>
            <AltitudeMeters>24.6000003814697265625</AltitudeMeters>
            <DistanceMeters>394151.51536799</DistanceMeters>
          </Trackpoint>
        </Track>
      </Lap>
    </Activity>
  </Activities>
</TrainingCenterDatabase>
